<?xml version="1.0" encoding="UTF-8" standalone="no" ?>
<gpx xmlns="http://www.topografix.com/GPX/1/1" xmlns:xsi="http://www.w3.org/2001/XMLSchema-instance" xsi:schemaLocation="http://www.topografix.com/GPX/1/1 http://www.topografix.com/GPX/1/1/gpx.xsd" version="1.1" creator="VisuGPX - https://www.visugpx.com">
  <metadata>
    <name>Road trip fait P/E</name>
  </metadata>
  <trk>
    <name><![CDATA[Road trip fait P/E_1]]></name>
    <extensions>
      <line xmlns="http://www.topografix.com/GPX/gpx_style/0/2">
        <color>0000FF</color>
        <width>4</width>
      </line>
    </extensions>
    <trkseg>
      <trkpt lat="43.55316" lon="1.33599">
        <ele>169.0817</ele>
        <time>2021-07-05T07:58:46Z</time>
      </trkpt>
      <trkpt lat="43.55316" lon="1.33599">
        <ele>169.0817</ele>
        <time>2021-07-05T07:58:46Z</time>
      </trkpt>
      <trkpt lat="43.55318" lon="1.33595">
        <ele>167.4424</ele>
        <time>2021-07-05T07:59:29Z</time>
      </trkpt>
      <trkpt lat="43.55321" lon="1.33592">
        <ele>166.0543</ele>
        <time>2021-07-05T07:59:40Z</time>
      </trkpt>
      <trkpt lat="43.55318" lon="1.33594">
        <ele>165.7838</ele>
        <time>2021-07-05T08:00:15Z</time>
      </trkpt>
      <trkpt lat="43.55319" lon="1.33597">
        <ele>166.5641</ele>
        <time>2021-07-05T08:01:14Z</time>
      </trkpt>
      <trkpt lat="43.55286" lon="1.33544">
        <ele>165.4854</ele>
        <time>2021-07-05T08:01:25Z</time>
      </trkpt>
      <trkpt lat="43.55246" lon="1.33543">
        <ele>165.7818</ele>
        <time>2021-07-05T08:01:36Z</time>
      </trkpt>
      <trkpt lat="43.55241" lon="1.33537">
        <ele>166.0416</ele>
        <time>2021-07-05T08:01:54Z</time>
      </trkpt>
      <trkpt lat="43.55184" lon="1.33554">
        <ele>166.8869</ele>
        <time>2021-07-05T08:02:05Z</time>
      </trkpt>
      <trkpt lat="43.55042" lon="1.33619">
        <ele>165.5732</ele>
        <time>2021-07-05T08:02:16Z</time>
      </trkpt>
      <trkpt lat="43.54886" lon="1.33699">
        <ele>166.3222</ele>
        <time>2021-07-05T08:02:27Z</time>
      </trkpt>
      <trkpt lat="43.54747" lon="1.33763">
        <ele>165.8345</ele>
        <time>2021-07-05T08:02:38Z</time>
      </trkpt>
      <trkpt lat="43.54592" lon="1.33801">
        <ele>165.9655</ele>
        <time>2021-07-05T08:02:49Z</time>
      </trkpt>
      <trkpt lat="43.54433" lon="1.3381">
        <ele>166.6302</ele>
        <time>2021-07-05T08:03:00Z</time>
      </trkpt>
      <trkpt lat="43.54276" lon="1.3382">
        <ele>166.8108</ele>
        <time>2021-07-05T08:03:11Z</time>
      </trkpt>
      <trkpt lat="43.5416" lon="1.33805">
        <ele>166.539</ele>
        <time>2021-07-05T08:03:22Z</time>
      </trkpt>
      <trkpt lat="43.54041" lon="1.33884">
        <ele>166.6037</ele>
        <time>2021-07-05T08:03:33Z</time>
      </trkpt>
      <trkpt lat="43.53938" lon="1.33912">
        <ele>168.1534</ele>
        <time>2021-07-05T08:03:44Z</time>
      </trkpt>
      <trkpt lat="43.53866" lon="1.33986">
        <ele>166.3161</ele>
        <time>2021-07-05T08:03:55Z</time>
      </trkpt>
      <trkpt lat="43.53811" lon="1.34029">
        <ele>166.4003</ele>
        <time>2021-07-05T08:04:06Z</time>
      </trkpt>
      <trkpt lat="43.5376" lon="1.33922">
        <ele>167.4099</ele>
        <time>2021-07-05T08:04:17Z</time>
      </trkpt>
      <trkpt lat="43.53711" lon="1.33822">
        <ele>167.0787</ele>
        <time>2021-07-05T08:04:28Z</time>
      </trkpt>
      <trkpt lat="43.53651" lon="1.33704">
        <ele>167.9399</ele>
        <time>2021-07-05T08:04:39Z</time>
      </trkpt>
      <trkpt lat="43.53681" lon="1.33587">
        <ele>168.4587</ele>
        <time>2021-07-05T08:04:50Z</time>
      </trkpt>
      <trkpt lat="43.53649" lon="1.3349">
        <ele>168.7426</ele>
        <time>2021-07-05T08:05:01Z</time>
      </trkpt>
      <trkpt lat="43.53551" lon="1.33373">
        <ele>169.9245</ele>
        <time>2021-07-05T08:05:12Z</time>
      </trkpt>
      <trkpt lat="43.53455" lon="1.3327">
        <ele>168.833</ele>
        <time>2021-07-05T08:05:23Z</time>
      </trkpt>
      <trkpt lat="43.53358" lon="1.33181">
        <ele>168.6028</ele>
        <time>2021-07-05T08:05:34Z</time>
      </trkpt>
      <trkpt lat="43.53266" lon="1.3308">
        <ele>167.8311</ele>
        <time>2021-07-05T08:05:45Z</time>
      </trkpt>
      <trkpt lat="43.53178" lon="1.32985">
        <ele>169.876</ele>
        <time>2021-07-05T08:05:56Z</time>
      </trkpt>
      <trkpt lat="43.53068" lon="1.32882">
        <ele>169.6293</ele>
        <time>2021-07-05T08:06:07Z</time>
      </trkpt>
      <trkpt lat="43.52965" lon="1.32768">
        <ele>169.3794</ele>
        <time>2021-07-05T08:06:18Z</time>
      </trkpt>
      <trkpt lat="43.52839" lon="1.32645">
        <ele>168.957</ele>
        <time>2021-07-05T08:06:29Z</time>
      </trkpt>
      <trkpt lat="43.52747" lon="1.32536">
        <ele>168.9309</ele>
        <time>2021-07-05T08:06:40Z</time>
      </trkpt>
      <trkpt lat="43.52665" lon="1.32426">
        <ele>171.7377</ele>
        <time>2021-07-05T08:06:51Z</time>
      </trkpt>
      <trkpt lat="43.52588" lon="1.32342">
        <ele>171.9249</ele>
        <time>2021-07-05T08:07:02Z</time>
      </trkpt>
      <trkpt lat="43.525" lon="1.32312">
        <ele>170.5963</ele>
        <time>2021-07-05T08:07:13Z</time>
      </trkpt>
      <trkpt lat="43.52454" lon="1.32318">
        <ele>170.5522</ele>
        <time>2021-07-05T08:07:24Z</time>
      </trkpt>
      <trkpt lat="43.52532" lon="1.32372">
        <ele>171.074</ele>
        <time>2021-07-05T08:07:35Z</time>
      </trkpt>
      <trkpt lat="43.52545" lon="1.32364">
        <ele>172.6157</ele>
        <time>2021-07-05T08:07:46Z</time>
      </trkpt>
      <trkpt lat="43.52539" lon="1.32363">
        <ele>171.1813</ele>
        <time>2021-07-05T08:07:57Z</time>
      </trkpt>
      <trkpt lat="43.52536" lon="1.32365">
        <ele>170.1828</ele>
        <time>2021-07-05T08:08:08Z</time>
      </trkpt>
      <trkpt lat="43.52538" lon="1.3236">
        <ele>170.2456</ele>
        <time>2021-07-05T08:08:42Z</time>
      </trkpt>
      <trkpt lat="43.52537" lon="1.32355">
        <ele>170.442</ele>
        <time>2021-07-05T08:09:32Z</time>
      </trkpt>
      <trkpt lat="43.52538" lon="1.32358">
        <ele>171.2093</ele>
        <time>2021-07-05T08:10:31Z</time>
      </trkpt>
      <trkpt lat="43.52536" lon="1.32357">
        <ele>170.8216</ele>
        <time>2021-07-05T08:11:31Z</time>
      </trkpt>
      <trkpt lat="43.52534" lon="1.32353">
        <ele>171.0715</ele>
        <time>2021-07-05T08:11:47Z</time>
      </trkpt>
      <trkpt lat="43.52486" lon="1.32342">
        <ele>170.3512</ele>
        <time>2021-07-05T08:11:58Z</time>
      </trkpt>
      <trkpt lat="43.52453" lon="1.32301">
        <ele>171.6465</ele>
        <time>2021-07-05T08:12:09Z</time>
      </trkpt>
      <trkpt lat="43.52401" lon="1.32296">
        <ele>171.4468</ele>
        <time>2021-07-05T08:12:20Z</time>
      </trkpt>
      <trkpt lat="43.52286" lon="1.32233">
        <ele>171.8465</ele>
        <time>2021-07-05T08:12:31Z</time>
      </trkpt>
      <trkpt lat="43.52176" lon="1.32148">
        <ele>170.7166</ele>
        <time>2021-07-05T08:12:42Z</time>
      </trkpt>
      <trkpt lat="43.52061" lon="1.32057">
        <ele>172.0601</ele>
        <time>2021-07-05T08:12:53Z</time>
      </trkpt>
      <trkpt lat="43.51947" lon="1.32007">
        <ele>172.7011</ele>
        <time>2021-07-05T08:13:04Z</time>
      </trkpt>
      <trkpt lat="43.5188" lon="1.31999">
        <ele>173.0496</ele>
        <time>2021-07-05T08:13:15Z</time>
      </trkpt>
      <trkpt lat="43.51858" lon="1.3211">
        <ele>173.3882</ele>
        <time>2021-07-05T08:13:26Z</time>
      </trkpt>
      <trkpt lat="43.51831" lon="1.32199">
        <ele>173.1821</ele>
        <time>2021-07-05T08:13:37Z</time>
      </trkpt>
      <trkpt lat="43.51806" lon="1.32303">
        <ele>171.6674</ele>
        <time>2021-07-05T08:13:48Z</time>
      </trkpt>
      <trkpt lat="43.51776" lon="1.32381">
        <ele>172.1655</ele>
        <time>2021-07-05T08:13:59Z</time>
      </trkpt>
      <trkpt lat="43.51696" lon="1.32327">
        <ele>172.8244</ele>
        <time>2021-07-05T08:14:10Z</time>
      </trkpt>
      <trkpt lat="43.5163" lon="1.32267">
        <ele>172.7007</ele>
        <time>2021-07-05T08:14:21Z</time>
      </trkpt>
      <trkpt lat="43.51562" lon="1.32206">
        <ele>172.49</ele>
        <time>2021-07-05T08:14:32Z</time>
      </trkpt>
      <trkpt lat="43.51558" lon="1.32123">
        <ele>173.1464</ele>
        <time>2021-07-05T08:14:43Z</time>
      </trkpt>
      <trkpt lat="43.51504" lon="1.32102">
        <ele>172.4853</ele>
        <time>2021-07-05T08:14:54Z</time>
      </trkpt>
      <trkpt lat="43.51459" lon="1.32042">
        <ele>172.8588</ele>
        <time>2021-07-05T08:15:05Z</time>
      </trkpt>
      <trkpt lat="43.51446" lon="1.32032">
        <ele>174.1466</ele>
        <time>2021-07-05T08:15:16Z</time>
      </trkpt>
      <trkpt lat="43.51473" lon="1.31921">
        <ele>173.0646</ele>
        <time>2021-07-05T08:15:27Z</time>
      </trkpt>
      <trkpt lat="43.51518" lon="1.3174">
        <ele>172.4689</ele>
        <time>2021-07-05T08:15:38Z</time>
      </trkpt>
      <trkpt lat="43.51618" lon="1.31707">
        <ele>172.8399</ele>
        <time>2021-07-05T08:15:49Z</time>
      </trkpt>
      <trkpt lat="43.51642" lon="1.31521">
        <ele>172.756</ele>
        <time>2021-07-05T08:16:00Z</time>
      </trkpt>
      <trkpt lat="43.51641" lon="1.31309">
        <ele>172.3964</ele>
        <time>2021-07-05T08:16:11Z</time>
      </trkpt>
      <trkpt lat="43.51642" lon="1.31117">
        <ele>172.1072</ele>
        <time>2021-07-05T08:16:22Z</time>
      </trkpt>
      <trkpt lat="43.51657" lon="1.30892">
        <ele>172.0853</ele>
        <time>2021-07-05T08:16:33Z</time>
      </trkpt>
      <trkpt lat="43.51675" lon="1.30656">
        <ele>172.7043</ele>
        <time>2021-07-05T08:16:44Z</time>
      </trkpt>
      <trkpt lat="43.51687" lon="1.30411">
        <ele>173.3673</ele>
        <time>2021-07-05T08:16:55Z</time>
      </trkpt>
      <trkpt lat="43.51708" lon="1.30186">
        <ele>173.0824</ele>
        <time>2021-07-05T08:17:06Z</time>
      </trkpt>
      <trkpt lat="43.51735" lon="1.29961">
        <ele>173.2541</ele>
        <time>2021-07-05T08:17:17Z</time>
      </trkpt>
      <trkpt lat="43.5174" lon="1.29674">
        <ele>172.542</ele>
        <time>2021-07-05T08:17:28Z</time>
      </trkpt>
      <trkpt lat="43.51774" lon="1.29389">
        <ele>172.8788</ele>
        <time>2021-07-05T08:17:39Z</time>
      </trkpt>
      <trkpt lat="43.51772" lon="1.29094">
        <ele>173.556</ele>
        <time>2021-07-05T08:17:50Z</time>
      </trkpt>
      <trkpt lat="43.51827" lon="1.28788">
        <ele>175.3666</ele>
        <time>2021-07-05T08:18:01Z</time>
      </trkpt>
      <trkpt lat="43.5192" lon="1.28487">
        <ele>173.7413</ele>
        <time>2021-07-05T08:18:12Z</time>
      </trkpt>
      <trkpt lat="43.52045" lon="1.28249">
        <ele>173.2398</ele>
        <time>2021-07-05T08:18:23Z</time>
      </trkpt>
      <trkpt lat="43.52168" lon="1.28022">
        <ele>174.0081</ele>
        <time>2021-07-05T08:18:34Z</time>
      </trkpt>
      <trkpt lat="43.52266" lon="1.27836">
        <ele>174.02</ele>
        <time>2021-07-05T08:18:45Z</time>
      </trkpt>
      <trkpt lat="43.52338" lon="1.27681">
        <ele>172.9154</ele>
        <time>2021-07-05T08:18:56Z</time>
      </trkpt>
      <trkpt lat="43.52394" lon="1.27478">
        <ele>173.6576</ele>
        <time>2021-07-05T08:19:07Z</time>
      </trkpt>
      <trkpt lat="43.52461" lon="1.27258">
        <ele>174.4975</ele>
        <time>2021-07-05T08:19:18Z</time>
      </trkpt>
      <trkpt lat="43.52511" lon="1.27043">
        <ele>174.545</ele>
        <time>2021-07-05T08:19:29Z</time>
      </trkpt>
      <trkpt lat="43.52524" lon="1.26875">
        <ele>173.8627</ele>
        <time>2021-07-05T08:19:40Z</time>
      </trkpt>
      <trkpt lat="43.52533" lon="1.26748">
        <ele>174.0435</ele>
        <time>2021-07-05T08:19:51Z</time>
      </trkpt>
      <trkpt lat="43.5253" lon="1.2675">
        <ele>174.3162</ele>
        <time>2021-07-05T08:20:16Z</time>
      </trkpt>
      <trkpt lat="43.52541" lon="1.26623">
        <ele>172.6928</ele>
        <time>2021-07-05T08:20:27Z</time>
      </trkpt>
      <trkpt lat="43.52533" lon="1.2642">
        <ele>173.8367</ele>
        <time>2021-07-05T08:20:38Z</time>
      </trkpt>
      <trkpt lat="43.52441" lon="1.26272">
        <ele>173.1469</ele>
        <time>2021-07-05T08:20:49Z</time>
      </trkpt>
      <trkpt lat="43.52439" lon="1.2608">
        <ele>174.3788</ele>
        <time>2021-07-05T08:21:00Z</time>
      </trkpt>
      <trkpt lat="43.52466" lon="1.25881">
        <ele>172.2935</ele>
        <time>2021-07-05T08:21:11Z</time>
      </trkpt>
      <trkpt lat="43.5248" lon="1.25652">
        <ele>173.4158</ele>
        <time>2021-07-05T08:21:22Z</time>
      </trkpt>
      <trkpt lat="43.52535" lon="1.255">
        <ele>173.0798</ele>
        <time>2021-07-05T08:21:33Z</time>
      </trkpt>
      <trkpt lat="43.52554" lon="1.25328">
        <ele>174.614</ele>
        <time>2021-07-05T08:21:44Z</time>
      </trkpt>
      <trkpt lat="43.52554" lon="1.25039">
        <ele>173.556</ele>
        <time>2021-07-05T08:21:55Z</time>
      </trkpt>
      <trkpt lat="43.52512" lon="1.24723">
        <ele>175.0114</ele>
        <time>2021-07-05T08:22:06Z</time>
      </trkpt>
      <trkpt lat="43.52427" lon="1.24377">
        <ele>174.3685</ele>
        <time>2021-07-05T08:22:17Z</time>
      </trkpt>
      <trkpt lat="43.5237" lon="1.24048">
        <ele>174.0078</ele>
        <time>2021-07-05T08:22:28Z</time>
      </trkpt>
      <trkpt lat="43.52274" lon="1.23744">
        <ele>176.3529</ele>
        <time>2021-07-05T08:22:39Z</time>
      </trkpt>
      <trkpt lat="43.5213" lon="1.23451">
        <ele>176.9993</ele>
        <time>2021-07-05T08:22:50Z</time>
      </trkpt>
      <trkpt lat="43.51998" lon="1.23188">
        <ele>178.948</ele>
        <time>2021-07-05T08:23:01Z</time>
      </trkpt>
      <trkpt lat="43.51945" lon="1.23059">
        <ele>180.3106</ele>
        <time>2021-07-05T08:23:12Z</time>
      </trkpt>
      <trkpt lat="43.51842" lon="1.22932">
        <ele>180.5205</ele>
        <time>2021-07-05T08:23:23Z</time>
      </trkpt>
      <trkpt lat="43.51675" lon="1.22804">
        <ele>180.8833</ele>
        <time>2021-07-05T08:23:34Z</time>
      </trkpt>
      <trkpt lat="43.51608" lon="1.22593">
        <ele>180.1561</ele>
        <time>2021-07-05T08:23:45Z</time>
      </trkpt>
      <trkpt lat="43.5156" lon="1.22311">
        <ele>180.2623</ele>
        <time>2021-07-05T08:23:56Z</time>
      </trkpt>
      <trkpt lat="43.51475" lon="1.22155">
        <ele>183.2564</ele>
        <time>2021-07-05T08:24:07Z</time>
      </trkpt>
      <trkpt lat="43.51285" lon="1.22112">
        <ele>182.661</ele>
        <time>2021-07-05T08:24:18Z</time>
      </trkpt>
      <trkpt lat="43.51117" lon="1.22014">
        <ele>185.0286</ele>
        <time>2021-07-05T08:24:29Z</time>
      </trkpt>
      <trkpt lat="43.51089" lon="1.21975">
        <ele>185.3256</ele>
        <time>2021-07-05T08:24:40Z</time>
      </trkpt>
      <trkpt lat="43.51138" lon="1.21767">
        <ele>194.8784</ele>
        <time>2021-07-05T08:24:51Z</time>
      </trkpt>
      <trkpt lat="43.51228" lon="1.21486">
        <ele>205.4363</ele>
        <time>2021-07-05T08:25:03Z</time>
      </trkpt>
      <trkpt lat="43.51311" lon="1.21267">
        <ele>207.486</ele>
        <time>2021-07-05T08:25:14Z</time>
      </trkpt>
      <trkpt lat="43.51377" lon="1.2103">
        <ele>209.0539</ele>
        <time>2021-07-05T08:25:25Z</time>
      </trkpt>
      <trkpt lat="43.51434" lon="1.20745">
        <ele>209.2231</ele>
        <time>2021-07-05T08:25:36Z</time>
      </trkpt>
      <trkpt lat="43.51454" lon="1.20493">
        <ele>209.6291</ele>
        <time>2021-07-05T08:25:47Z</time>
      </trkpt>
      <trkpt lat="43.51441" lon="1.20281">
        <ele>210.4971</ele>
        <time>2021-07-05T08:25:58Z</time>
      </trkpt>
      <trkpt lat="43.5141" lon="1.20053">
        <ele>212.138</ele>
        <time>2021-07-05T08:26:09Z</time>
      </trkpt>
      <trkpt lat="43.5136" lon="1.1985">
        <ele>214.589</ele>
        <time>2021-07-05T08:26:20Z</time>
      </trkpt>
      <trkpt lat="43.51304" lon="1.19691">
        <ele>212.6848</ele>
        <time>2021-07-05T08:26:31Z</time>
      </trkpt>
      <trkpt lat="43.51227" lon="1.19498">
        <ele>209.8124</ele>
        <time>2021-07-05T08:26:42Z</time>
      </trkpt>
      <trkpt lat="43.51149" lon="1.19298">
        <ele>204.4984</ele>
        <time>2021-07-05T08:26:53Z</time>
      </trkpt>
      <trkpt lat="43.51149" lon="1.19064">
        <ele>213.6319</ele>
        <time>2021-07-05T08:27:04Z</time>
      </trkpt>
      <trkpt lat="43.5117" lon="1.18912">
        <ele>214.5249</ele>
        <time>2021-07-05T08:27:15Z</time>
      </trkpt>
      <trkpt lat="43.51202" lon="1.18701">
        <ele>213.5934</ele>
        <time>2021-07-05T08:27:26Z</time>
      </trkpt>
      <trkpt lat="43.51224" lon="1.18494">
        <ele>214.1984</ele>
        <time>2021-07-05T08:27:37Z</time>
      </trkpt>
      <trkpt lat="43.51231" lon="1.18426">
        <ele>213.5592</ele>
        <time>2021-07-05T08:27:48Z</time>
      </trkpt>
      <trkpt lat="43.51231" lon="1.18418">
        <ele>213.8295</ele>
        <time>2021-07-05T08:28:08Z</time>
      </trkpt>
      <trkpt lat="43.51291" lon="1.18266">
        <ele>212.7761</ele>
        <time>2021-07-05T08:28:19Z</time>
      </trkpt>
      <trkpt lat="43.51355" lon="1.18124">
        <ele>211.8983</ele>
        <time>2021-07-05T08:28:30Z</time>
      </trkpt>
      <trkpt lat="43.51303" lon="1.17988">
        <ele>210.4187</ele>
        <time>2021-07-05T08:28:41Z</time>
      </trkpt>
      <trkpt lat="43.51286" lon="1.17862">
        <ele>209.1179</ele>
        <time>2021-07-05T08:28:52Z</time>
      </trkpt>
      <trkpt lat="43.51362" lon="1.1774">
        <ele>212.7026</ele>
        <time>2021-07-05T08:29:03Z</time>
      </trkpt>
      <trkpt lat="43.51398" lon="1.17655">
        <ele>214.2725</ele>
        <time>2021-07-05T08:29:14Z</time>
      </trkpt>
      <trkpt lat="43.51397" lon="1.17643">
        <ele>214.3889</ele>
        <time>2021-07-05T08:29:25Z</time>
      </trkpt>
      <trkpt lat="43.51396" lon="1.17637">
        <ele>214.7946</ele>
        <time>2021-07-05T08:29:36Z</time>
      </trkpt>
      <trkpt lat="43.51345" lon="1.17613">
        <ele>214.6067</ele>
        <time>2021-07-05T08:29:47Z</time>
      </trkpt>
      <trkpt lat="43.51282" lon="1.17547">
        <ele>212.8403</ele>
        <time>2021-07-05T08:29:58Z</time>
      </trkpt>
      <trkpt lat="43.51213" lon="1.17468">
        <ele>215.0963</ele>
        <time>2021-07-05T08:30:09Z</time>
      </trkpt>
      <trkpt lat="43.51177" lon="1.17425">
        <ele>214.2512</ele>
        <time>2021-07-05T08:30:20Z</time>
      </trkpt>
      <trkpt lat="43.51096" lon="1.17335">
        <ele>215.0788</ele>
        <time>2021-07-05T08:30:31Z</time>
      </trkpt>
      <trkpt lat="43.50993" lon="1.17221">
        <ele>216.3236</ele>
        <time>2021-07-05T08:30:42Z</time>
      </trkpt>
      <trkpt lat="43.50874" lon="1.17115">
        <ele>217.0233</ele>
        <time>2021-07-05T08:30:53Z</time>
      </trkpt>
      <trkpt lat="43.50732" lon="1.17035">
        <ele>214.8262</ele>
        <time>2021-07-05T08:31:04Z</time>
      </trkpt>
      <trkpt lat="43.50556" lon="1.16907">
        <ele>212.4759</ele>
        <time>2021-07-05T08:31:15Z</time>
      </trkpt>
      <trkpt lat="43.50401" lon="1.16693">
        <ele>216.3265</ele>
        <time>2021-07-05T08:31:26Z</time>
      </trkpt>
      <trkpt lat="43.50299" lon="1.16517">
        <ele>217.2171</ele>
        <time>2021-07-05T08:31:37Z</time>
      </trkpt>
      <trkpt lat="43.50188" lon="1.16339">
        <ele>217.7616</ele>
        <time>2021-07-05T08:31:48Z</time>
      </trkpt>
      <trkpt lat="43.50066" lon="1.16139">
        <ele>217.9465</ele>
        <time>2021-07-05T08:31:59Z</time>
      </trkpt>
      <trkpt lat="43.49961" lon="1.15968">
        <ele>218.4661</ele>
        <time>2021-07-05T08:32:10Z</time>
      </trkpt>
      <trkpt lat="43.49842" lon="1.15779">
        <ele>220.2781</ele>
        <time>2021-07-05T08:32:21Z</time>
      </trkpt>
      <trkpt lat="43.49694" lon="1.15537">
        <ele>223.5768</ele>
        <time>2021-07-05T08:32:32Z</time>
      </trkpt>
      <trkpt lat="43.49566" lon="1.15333">
        <ele>225.48</ele>
        <time>2021-07-05T08:32:43Z</time>
      </trkpt>
      <trkpt lat="43.4947" lon="1.15145">
        <ele>229.5783</ele>
        <time>2021-07-05T08:32:54Z</time>
      </trkpt>
      <trkpt lat="43.49423" lon="1.14932">
        <ele>242.9783</ele>
        <time>2021-07-05T08:33:05Z</time>
      </trkpt>
      <trkpt lat="43.49385" lon="1.14751">
        <ele>256.124</ele>
        <time>2021-07-05T08:33:16Z</time>
      </trkpt>
      <trkpt lat="43.49334" lon="1.14622">
        <ele>261.1927</ele>
        <time>2021-07-05T08:33:27Z</time>
      </trkpt>
      <trkpt lat="43.49287" lon="1.14539">
        <ele>262.2984</ele>
        <time>2021-07-05T08:33:38Z</time>
      </trkpt>
      <trkpt lat="43.49249" lon="1.14451">
        <ele>262.5933</ele>
        <time>2021-07-05T08:33:49Z</time>
      </trkpt>
      <trkpt lat="43.49215" lon="1.14332">
        <ele>262.9847</ele>
        <time>2021-07-05T08:34:00Z</time>
      </trkpt>
      <trkpt lat="43.49194" lon="1.1417">
        <ele>261.8276</ele>
        <time>2021-07-05T08:34:11Z</time>
      </trkpt>
      <trkpt lat="43.49178" lon="1.1398">
        <ele>263.0485</ele>
        <time>2021-07-05T08:34:22Z</time>
      </trkpt>
      <trkpt lat="43.49151" lon="1.13689">
        <ele>265.034</ele>
        <time>2021-07-05T08:34:33Z</time>
      </trkpt>
      <trkpt lat="43.49126" lon="1.13396">
        <ele>262.4811</ele>
        <time>2021-07-05T08:34:44Z</time>
      </trkpt>
      <trkpt lat="43.49106" lon="1.13114">
        <ele>265.6962</ele>
        <time>2021-07-05T08:34:55Z</time>
      </trkpt>
      <trkpt lat="43.49073" lon="1.12816">
        <ele>267.4898</ele>
        <time>2021-07-05T08:35:06Z</time>
      </trkpt>
      <trkpt lat="43.49045" lon="1.1251">
        <ele>269.8766</ele>
        <time>2021-07-05T08:35:17Z</time>
      </trkpt>
      <trkpt lat="43.49014" lon="1.12178">
        <ele>271.5584</ele>
        <time>2021-07-05T08:35:28Z</time>
      </trkpt>
      <trkpt lat="43.4899" lon="1.11883">
        <ele>282.8449</ele>
        <time>2021-07-05T08:35:39Z</time>
      </trkpt>
      <trkpt lat="43.48967" lon="1.1159">
        <ele>295.4738</ele>
        <time>2021-07-05T08:35:50Z</time>
      </trkpt>
      <trkpt lat="43.48937" lon="1.11281">
        <ele>307.1535</ele>
        <time>2021-07-05T08:36:01Z</time>
      </trkpt>
      <trkpt lat="43.48904" lon="1.10969">
        <ele>310.8135</ele>
        <time>2021-07-05T08:36:12Z</time>
      </trkpt>
      <trkpt lat="43.48906" lon="1.10654">
        <ele>311.3362</ele>
        <time>2021-07-05T08:36:23Z</time>
      </trkpt>
      <trkpt lat="43.48912" lon="1.10336">
        <ele>313.5949</ele>
        <time>2021-07-05T08:36:34Z</time>
      </trkpt>
      <trkpt lat="43.48918" lon="1.10025">
        <ele>314.1037</ele>
        <time>2021-07-05T08:36:45Z</time>
      </trkpt>
      <trkpt lat="43.48923" lon="1.09714">
        <ele>313.6614</ele>
        <time>2021-07-05T08:36:56Z</time>
      </trkpt>
      <trkpt lat="43.48927" lon="1.09391">
        <ele>316.5423</ele>
        <time>2021-07-05T08:37:07Z</time>
      </trkpt>
      <trkpt lat="43.48932" lon="1.09084">
        <ele>316.3366</ele>
        <time>2021-07-05T08:37:18Z</time>
      </trkpt>
      <trkpt lat="43.48939" lon="1.08793">
        <ele>313.1393</ele>
        <time>2021-07-05T08:37:29Z</time>
      </trkpt>
      <trkpt lat="43.48905" lon="1.08521">
        <ele>315.5468</ele>
        <time>2021-07-05T08:37:40Z</time>
      </trkpt>
      <trkpt lat="43.48797" lon="1.08264">
        <ele>308.0481</ele>
        <time>2021-07-05T08:37:51Z</time>
      </trkpt>
      <trkpt lat="43.48683" lon="1.07994">
        <ele>305.2421</ele>
        <time>2021-07-05T08:38:02Z</time>
      </trkpt>
      <trkpt lat="43.48573" lon="1.07727">
        <ele>288.5832</ele>
        <time>2021-07-05T08:38:13Z</time>
      </trkpt>
      <trkpt lat="43.48461" lon="1.07452">
        <ele>272.3525</ele>
        <time>2021-07-05T08:38:24Z</time>
      </trkpt>
      <trkpt lat="43.48367" lon="1.0722">
        <ele>268.2696</ele>
        <time>2021-07-05T08:38:35Z</time>
      </trkpt>
      <trkpt lat="43.48297" lon="1.07079">
        <ele>273.1435</ele>
        <time>2021-07-05T08:38:46Z</time>
      </trkpt>
      <trkpt lat="43.48255" lon="1.06992">
        <ele>274.8413</ele>
        <time>2021-07-05T08:38:57Z</time>
      </trkpt>
      <trkpt lat="43.48229" lon="1.06835">
        <ele>279.1532</ele>
        <time>2021-07-05T08:39:08Z</time>
      </trkpt>
      <trkpt lat="43.48242" lon="1.06658">
        <ele>286.0634</ele>
        <time>2021-07-05T08:39:19Z</time>
      </trkpt>
      <trkpt lat="43.48289" lon="1.06417">
        <ele>286.7475</ele>
        <time>2021-07-05T08:39:30Z</time>
      </trkpt>
      <trkpt lat="43.48373" lon="1.06191">
        <ele>275.3523</ele>
        <time>2021-07-05T08:39:41Z</time>
      </trkpt>
      <trkpt lat="43.48483" lon="1.05957">
        <ele>265.8575</ele>
        <time>2021-07-05T08:39:52Z</time>
      </trkpt>
      <trkpt lat="43.48561" lon="1.05679">
        <ele>258.9693</ele>
        <time>2021-07-05T08:40:03Z</time>
      </trkpt>
      <trkpt lat="43.48639" lon="1.05396">
        <ele>262.0933</ele>
        <time>2021-07-05T08:40:14Z</time>
      </trkpt>
      <trkpt lat="43.48712" lon="1.05124">
        <ele>256.1187</ele>
        <time>2021-07-05T08:40:25Z</time>
      </trkpt>
      <trkpt lat="43.48693" lon="1.04846">
        <ele>251.9501</ele>
        <time>2021-07-05T08:40:36Z</time>
      </trkpt>
      <trkpt lat="43.48717" lon="1.0458">
        <ele>247.4146</ele>
        <time>2021-07-05T08:40:47Z</time>
      </trkpt>
      <trkpt lat="43.48786" lon="1.04304">
        <ele>235.9991</ele>
        <time>2021-07-05T08:40:58Z</time>
      </trkpt>
      <trkpt lat="43.48851" lon="1.04029">
        <ele>225.165</ele>
        <time>2021-07-05T08:41:09Z</time>
      </trkpt>
      <trkpt lat="43.48823" lon="1.03728">
        <ele>214.3558</ele>
        <time>2021-07-05T08:41:20Z</time>
      </trkpt>
      <trkpt lat="43.48779" lon="1.03447">
        <ele>209.3852</ele>
        <time>2021-07-05T08:41:31Z</time>
      </trkpt>
      <trkpt lat="43.4883" lon="1.03145">
        <ele>199.0242</ele>
        <time>2021-07-05T08:41:42Z</time>
      </trkpt>
      <trkpt lat="43.48896" lon="1.02852">
        <ele>194.5852</ele>
        <time>2021-07-05T08:41:53Z</time>
      </trkpt>
      <trkpt lat="43.4896" lon="1.02556">
        <ele>194.0992</ele>
        <time>2021-07-05T08:42:04Z</time>
      </trkpt>
      <trkpt lat="43.49007" lon="1.02281">
        <ele>196.3976</ele>
        <time>2021-07-05T08:42:15Z</time>
      </trkpt>
      <trkpt lat="43.48889" lon="1.02059">
        <ele>209.0271</ele>
        <time>2021-07-05T08:42:26Z</time>
      </trkpt>
      <trkpt lat="43.48843" lon="1.01773">
        <ele>222.4535</ele>
        <time>2021-07-05T08:42:37Z</time>
      </trkpt>
      <trkpt lat="43.48914" lon="1.01517">
        <ele>236.5186</ele>
        <time>2021-07-05T08:42:48Z</time>
      </trkpt>
      <trkpt lat="43.49008" lon="1.01249">
        <ele>228.3525</ele>
        <time>2021-07-05T08:42:59Z</time>
      </trkpt>
      <trkpt lat="43.49057" lon="1.00939">
        <ele>221.6758</ele>
        <time>2021-07-05T08:43:10Z</time>
      </trkpt>
      <trkpt lat="43.49102" lon="1.0064">
        <ele>214.0599</ele>
        <time>2021-07-05T08:43:21Z</time>
      </trkpt>
      <trkpt lat="43.4918" lon="1.00323">
        <ele>205.5043</ele>
        <time>2021-07-05T08:43:32Z</time>
      </trkpt>
      <trkpt lat="43.49299" lon="1.00068">
        <ele>198.5191</ele>
        <time>2021-07-05T08:43:43Z</time>
      </trkpt>
      <trkpt lat="43.49312" lon="0.998">
        <ele>192.412</ele>
        <time>2021-07-05T08:43:54Z</time>
      </trkpt>
      <trkpt lat="43.49162" lon="0.9956">
        <ele>187.7779</ele>
        <time>2021-07-05T08:44:05Z</time>
      </trkpt>
      <trkpt lat="43.49082" lon="0.99287">
        <ele>180.5132</ele>
        <time>2021-07-05T08:44:16Z</time>
      </trkpt>
      <trkpt lat="43.48986" lon="0.99002">
        <ele>177.1853</ele>
        <time>2021-07-05T08:44:27Z</time>
      </trkpt>
      <trkpt lat="43.48891" lon="0.98707">
        <ele>175.3081</ele>
        <time>2021-07-05T08:44:38Z</time>
      </trkpt>
      <trkpt lat="43.48853" lon="0.98401">
        <ele>175.5023</ele>
        <time>2021-07-05T08:44:49Z</time>
      </trkpt>
      <trkpt lat="43.48842" lon="0.98095">
        <ele>173.8355</ele>
        <time>2021-07-05T08:45:00Z</time>
      </trkpt>
      <trkpt lat="43.48904" lon="0.97809">
        <ele>171.6372</ele>
        <time>2021-07-05T08:45:11Z</time>
      </trkpt>
      <trkpt lat="43.49032" lon="0.97562">
        <ele>172.1929</ele>
        <time>2021-07-05T08:45:22Z</time>
      </trkpt>
      <trkpt lat="43.49184" lon="0.97336">
        <ele>171.018</ele>
        <time>2021-07-05T08:45:33Z</time>
      </trkpt>
      <trkpt lat="43.49363" lon="0.97117">
        <ele>169.5723</ele>
        <time>2021-07-05T08:45:44Z</time>
      </trkpt>
      <trkpt lat="43.49522" lon="0.96951">
        <ele>167.9984</ele>
        <time>2021-07-05T08:45:55Z</time>
      </trkpt>
      <trkpt lat="43.49653" lon="0.9689">
        <ele>162.8399</ele>
        <time>2021-07-05T08:46:06Z</time>
      </trkpt>
      <trkpt lat="43.49652" lon="0.96841">
        <ele>157.5565</ele>
        <time>2021-07-05T08:46:17Z</time>
      </trkpt>
      <trkpt lat="43.49666" lon="0.96532">
        <ele>161.5282</ele>
        <time>2021-07-05T08:46:28Z</time>
      </trkpt>
      <trkpt lat="43.49662" lon="0.96226">
        <ele>162.8323</ele>
        <time>2021-07-05T08:46:39Z</time>
      </trkpt>
      <trkpt lat="43.49657" lon="0.95902">
        <ele>164.8777</ele>
        <time>2021-07-05T08:46:50Z</time>
      </trkpt>
      <trkpt lat="43.49652" lon="0.95574">
        <ele>170.029</ele>
        <time>2021-07-05T08:47:01Z</time>
      </trkpt>
      <trkpt lat="43.49641" lon="0.95259">
        <ele>165.0526</ele>
        <time>2021-07-05T08:47:12Z</time>
      </trkpt>
      <trkpt lat="43.49512" lon="0.94983">
        <ele>162.1987</ele>
        <time>2021-07-05T08:47:23Z</time>
      </trkpt>
      <trkpt lat="43.49354" lon="0.9474">
        <ele>161.4189</ele>
        <time>2021-07-05T08:47:34Z</time>
      </trkpt>
      <trkpt lat="43.49193" lon="0.94481">
        <ele>161.9232</ele>
        <time>2021-07-05T08:47:45Z</time>
      </trkpt>
      <trkpt lat="43.49069" lon="0.94282">
        <ele>163.5903</ele>
        <time>2021-07-05T08:47:56Z</time>
      </trkpt>
      <trkpt lat="43.48973" lon="0.9407">
        <ele>162.9271</ele>
        <time>2021-07-05T08:48:07Z</time>
      </trkpt>
      <trkpt lat="43.48896" lon="0.93864">
        <ele>163.566</ele>
        <time>2021-07-05T08:48:18Z</time>
      </trkpt>
      <trkpt lat="43.48821" lon="0.93657">
        <ele>164.8463</ele>
        <time>2021-07-05T08:48:29Z</time>
      </trkpt>
      <trkpt lat="43.48756" lon="0.93473">
        <ele>164.4012</ele>
        <time>2021-07-05T08:48:40Z</time>
      </trkpt>
      <trkpt lat="43.48648" lon="0.93418">
        <ele>162.4772</ele>
        <time>2021-07-05T08:48:51Z</time>
      </trkpt>
      <trkpt lat="43.48515" lon="0.93192">
        <ele>164.3816</ele>
        <time>2021-07-05T08:49:02Z</time>
      </trkpt>
      <trkpt lat="43.48335" lon="0.92969">
        <ele>163.5541</ele>
        <time>2021-07-05T08:49:13Z</time>
      </trkpt>
      <trkpt lat="43.48161" lon="0.9274">
        <ele>164.8874</ele>
        <time>2021-07-05T08:49:24Z</time>
      </trkpt>
      <trkpt lat="43.47977" lon="0.92512">
        <ele>165.1802</ele>
        <time>2021-07-05T08:49:35Z</time>
      </trkpt>
      <trkpt lat="43.47778" lon="0.92266">
        <ele>166.5331</ele>
        <time>2021-07-05T08:49:46Z</time>
      </trkpt>
      <trkpt lat="43.47597" lon="0.92039">
        <ele>167.1034</ele>
        <time>2021-07-05T08:49:57Z</time>
      </trkpt>
      <trkpt lat="43.47455" lon="0.91852">
        <ele>167.3799</ele>
        <time>2021-07-05T08:50:08Z</time>
      </trkpt>
      <trkpt lat="43.47422" lon="0.91608">
        <ele>167.5134</ele>
        <time>2021-07-05T08:50:19Z</time>
      </trkpt>
      <trkpt lat="43.47483" lon="0.91436">
        <ele>169.7874</ele>
        <time>2021-07-05T08:50:30Z</time>
      </trkpt>
      <trkpt lat="43.47524" lon="0.91295">
        <ele>170.4209</ele>
        <time>2021-07-05T08:50:41Z</time>
      </trkpt>
      <trkpt lat="43.47566" lon="0.91152">
        <ele>172.6392</ele>
        <time>2021-07-05T08:50:52Z</time>
      </trkpt>
      <trkpt lat="43.4758" lon="0.90991">
        <ele>172.4305</ele>
        <time>2021-07-05T08:51:03Z</time>
      </trkpt>
      <trkpt lat="43.4751" lon="0.90862">
        <ele>175.1058</ele>
        <time>2021-07-05T08:51:14Z</time>
      </trkpt>
      <trkpt lat="43.4741" lon="0.90722">
        <ele>177.7867</ele>
        <time>2021-07-05T08:51:25Z</time>
      </trkpt>
      <trkpt lat="43.47296" lon="0.90577">
        <ele>175.8888</ele>
        <time>2021-07-05T08:51:36Z</time>
      </trkpt>
      <trkpt lat="43.47196" lon="0.90412">
        <ele>170.6475</ele>
        <time>2021-07-05T08:51:47Z</time>
      </trkpt>
      <trkpt lat="43.47115" lon="0.90197">
        <ele>173.839</ele>
        <time>2021-07-05T08:51:58Z</time>
      </trkpt>
      <trkpt lat="43.47025" lon="0.89931">
        <ele>175.793</ele>
        <time>2021-07-05T08:52:09Z</time>
      </trkpt>
      <trkpt lat="43.46952" lon="0.89712">
        <ele>171.8078</ele>
        <time>2021-07-05T08:52:20Z</time>
      </trkpt>
      <trkpt lat="43.4693" lon="0.89639">
        <ele>174.0552</ele>
        <time>2021-07-05T08:52:31Z</time>
      </trkpt>
      <trkpt lat="43.46927" lon="0.89636">
        <ele>174.2356</ele>
        <time>2021-07-05T08:52:42Z</time>
      </trkpt>
      <trkpt lat="43.46923" lon="0.89636">
        <ele>174.7469</ele>
        <time>2021-07-05T08:53:00Z</time>
      </trkpt>
      <trkpt lat="43.46842" lon="0.89493">
        <ele>178.8416</ele>
        <time>2021-07-05T08:53:11Z</time>
      </trkpt>
      <trkpt lat="43.46682" lon="0.89302">
        <ele>173.1237</ele>
        <time>2021-07-05T08:53:22Z</time>
      </trkpt>
      <trkpt lat="43.465" lon="0.89081">
        <ele>169.9019</ele>
        <time>2021-07-05T08:53:33Z</time>
      </trkpt>
      <trkpt lat="43.46313" lon="0.8885">
        <ele>170.6954</ele>
        <time>2021-07-05T08:53:44Z</time>
      </trkpt>
      <trkpt lat="43.46108" lon="0.88592">
        <ele>173.5472</ele>
        <time>2021-07-05T08:53:55Z</time>
      </trkpt>
      <trkpt lat="43.45925" lon="0.88365">
        <ele>173.122</ele>
        <time>2021-07-05T08:54:06Z</time>
      </trkpt>
      <trkpt lat="43.45776" lon="0.88173">
        <ele>172.3574</ele>
        <time>2021-07-05T08:54:17Z</time>
      </trkpt>
      <trkpt lat="43.45614" lon="0.87971">
        <ele>173.0467</ele>
        <time>2021-07-05T08:54:28Z</time>
      </trkpt>
      <trkpt lat="43.45443" lon="0.87759">
        <ele>173.6651</ele>
        <time>2021-07-05T08:54:39Z</time>
      </trkpt>
      <trkpt lat="43.45257" lon="0.8752">
        <ele>175.9489</ele>
        <time>2021-07-05T08:54:50Z</time>
      </trkpt>
      <trkpt lat="43.45064" lon="0.87282">
        <ele>179.1538</ele>
        <time>2021-07-05T08:55:01Z</time>
      </trkpt>
      <trkpt lat="43.44882" lon="0.87045">
        <ele>180.4604</ele>
        <time>2021-07-05T08:55:12Z</time>
      </trkpt>
      <trkpt lat="43.4482" lon="0.86715">
        <ele>190.2728</ele>
        <time>2021-07-05T08:55:23Z</time>
      </trkpt>
      <trkpt lat="43.44786" lon="0.86396">
        <ele>190.9367</ele>
        <time>2021-07-05T08:55:34Z</time>
      </trkpt>
      <trkpt lat="43.44663" lon="0.8608">
        <ele>186.6409</ele>
        <time>2021-07-05T08:55:45Z</time>
      </trkpt>
      <trkpt lat="43.44496" lon="0.85787">
        <ele>179.9552</ele>
        <time>2021-07-05T08:55:56Z</time>
      </trkpt>
      <trkpt lat="43.44297" lon="0.85567">
        <ele>179.541</ele>
        <time>2021-07-05T08:56:07Z</time>
      </trkpt>
      <trkpt lat="43.44111" lon="0.8532">
        <ele>179.5212</ele>
        <time>2021-07-05T08:56:18Z</time>
      </trkpt>
      <trkpt lat="43.43931" lon="0.85088">
        <ele>178.5281</ele>
        <time>2021-07-05T08:56:29Z</time>
      </trkpt>
      <trkpt lat="43.4373" lon="0.84903">
        <ele>181.5002</ele>
        <time>2021-07-05T08:56:40Z</time>
      </trkpt>
      <trkpt lat="43.43529" lon="0.84728">
        <ele>186.5721</ele>
        <time>2021-07-05T08:56:51Z</time>
      </trkpt>
      <trkpt lat="43.43364" lon="0.84535">
        <ele>184.7707</ele>
        <time>2021-07-05T08:57:02Z</time>
      </trkpt>
      <trkpt lat="43.43241" lon="0.84276">
        <ele>187.9771</ele>
        <time>2021-07-05T08:57:13Z</time>
      </trkpt>
      <trkpt lat="43.4319" lon="0.83965">
        <ele>186.3419</ele>
        <time>2021-07-05T08:57:24Z</time>
      </trkpt>
      <trkpt lat="43.42981" lon="0.83794">
        <ele>186.0489</ele>
        <time>2021-07-05T08:57:35Z</time>
      </trkpt>
      <trkpt lat="43.42844" lon="0.83535">
        <ele>188.2918</ele>
        <time>2021-07-05T08:57:46Z</time>
      </trkpt>
      <trkpt lat="43.42725" lon="0.83212">
        <ele>188.8017</ele>
        <time>2021-07-05T08:57:57Z</time>
      </trkpt>
      <trkpt lat="43.4266" lon="0.82884">
        <ele>188.4758</ele>
        <time>2021-07-05T08:58:08Z</time>
      </trkpt>
      <trkpt lat="43.42541" lon="0.82579">
        <ele>191.3994</ele>
        <time>2021-07-05T08:58:19Z</time>
      </trkpt>
      <trkpt lat="43.42487" lon="0.82239">
        <ele>196.7444</ele>
        <time>2021-07-05T08:58:30Z</time>
      </trkpt>
      <trkpt lat="43.42416" lon="0.81906">
        <ele>197.3815</ele>
        <time>2021-07-05T08:58:41Z</time>
      </trkpt>
      <trkpt lat="43.42306" lon="0.8165">
        <ele>191.797</ele>
        <time>2021-07-05T08:58:52Z</time>
      </trkpt>
      <trkpt lat="43.42226" lon="0.81474">
        <ele>192.0865</ele>
        <time>2021-07-05T08:59:03Z</time>
      </trkpt>
      <trkpt lat="43.42286" lon="0.8123">
        <ele>203.8005</ele>
        <time>2021-07-05T08:59:14Z</time>
      </trkpt>
      <trkpt lat="43.42351" lon="0.80944">
        <ele>217.9755</ele>
        <time>2021-07-05T08:59:25Z</time>
      </trkpt>
      <trkpt lat="43.42451" lon="0.80638">
        <ele>227.2285</ele>
        <time>2021-07-05T08:59:36Z</time>
      </trkpt>
      <trkpt lat="43.4252" lon="0.80358">
        <ele>244.2694</ele>
        <time>2021-07-05T08:59:47Z</time>
      </trkpt>
      <trkpt lat="43.42637" lon="0.80087">
        <ele>254.3787</ele>
        <time>2021-07-05T08:59:58Z</time>
      </trkpt>
      <trkpt lat="43.42805" lon="0.79814">
        <ele>246.9353</ele>
        <time>2021-07-05T09:00:09Z</time>
      </trkpt>
      <trkpt lat="43.42895" lon="0.79511">
        <ele>258.3993</ele>
        <time>2021-07-05T09:00:20Z</time>
      </trkpt>
      <trkpt lat="43.43004" lon="0.79238">
        <ele>263.9184</ele>
        <time>2021-07-05T09:00:31Z</time>
      </trkpt>
      <trkpt lat="43.43118" lon="0.78962">
        <ele>268.0214</ele>
        <time>2021-07-05T09:00:42Z</time>
      </trkpt>
      <trkpt lat="43.43209" lon="0.78695">
        <ele>267.6905</ele>
        <time>2021-07-05T09:00:53Z</time>
      </trkpt>
      <trkpt lat="43.43207" lon="0.78479">
        <ele>268.5118</ele>
        <time>2021-07-05T09:01:04Z</time>
      </trkpt>
      <trkpt lat="43.43197" lon="0.78299">
        <ele>273.7517</ele>
        <time>2021-07-05T09:01:15Z</time>
      </trkpt>
      <trkpt lat="43.43102" lon="0.78059">
        <ele>265.3854</ele>
        <time>2021-07-05T09:01:26Z</time>
      </trkpt>
      <trkpt lat="43.43017" lon="0.77779">
        <ele>261.002</ele>
        <time>2021-07-05T09:01:37Z</time>
      </trkpt>
      <trkpt lat="43.42901" lon="0.7749">
        <ele>270.2687</ele>
        <time>2021-07-05T09:01:48Z</time>
      </trkpt>
      <trkpt lat="43.42824" lon="0.77202">
        <ele>282.1214</ele>
        <time>2021-07-05T09:01:59Z</time>
      </trkpt>
      <trkpt lat="43.42881" lon="0.76895">
        <ele>288.3596</ele>
        <time>2021-07-05T09:02:10Z</time>
      </trkpt>
      <trkpt lat="43.43005" lon="0.76629">
        <ele>299.6337</ele>
        <time>2021-07-05T09:02:21Z</time>
      </trkpt>
      <trkpt lat="43.43143" lon="0.76362">
        <ele>302.1713</ele>
        <time>2021-07-05T09:02:32Z</time>
      </trkpt>
      <trkpt lat="43.43219" lon="0.76133">
        <ele>301.0672</ele>
        <time>2021-07-05T09:02:43Z</time>
      </trkpt>
      <trkpt lat="43.43212" lon="0.75846">
        <ele>305.2604</ele>
        <time>2021-07-05T09:02:54Z</time>
      </trkpt>
      <trkpt lat="43.43141" lon="0.75568">
        <ele>295.53</ele>
        <time>2021-07-05T09:03:05Z</time>
      </trkpt>
      <trkpt lat="43.43037" lon="0.75316">
        <ele>301.0055</ele>
        <time>2021-07-05T09:03:16Z</time>
      </trkpt>
      <trkpt lat="43.42957" lon="0.75083">
        <ele>286.3214</ele>
        <time>2021-07-05T09:03:27Z</time>
      </trkpt>
      <trkpt lat="43.42874" lon="0.7496">
        <ele>272.312</ele>
        <time>2021-07-05T09:03:39Z</time>
      </trkpt>
      <trkpt lat="43.4296" lon="0.74784">
        <ele>257.7007</ele>
        <time>2021-07-05T09:03:50Z</time>
      </trkpt>
      <trkpt lat="43.42967" lon="0.7454">
        <ele>243.7674</ele>
        <time>2021-07-05T09:04:01Z</time>
      </trkpt>
      <trkpt lat="43.42944" lon="0.74293">
        <ele>227.8635</ele>
        <time>2021-07-05T09:04:12Z</time>
      </trkpt>
      <trkpt lat="43.42927" lon="0.74051">
        <ele>215.5377</ele>
        <time>2021-07-05T09:04:23Z</time>
      </trkpt>
      <trkpt lat="43.42989" lon="0.73794">
        <ele>209.6314</ele>
        <time>2021-07-05T09:04:34Z</time>
      </trkpt>
      <trkpt lat="43.43027" lon="0.73573">
        <ele>203.9306</ele>
        <time>2021-07-05T09:04:45Z</time>
      </trkpt>
      <trkpt lat="43.42912" lon="0.73329">
        <ele>204.377</ele>
        <time>2021-07-05T09:04:56Z</time>
      </trkpt>
      <trkpt lat="43.42852" lon="0.73113">
        <ele>202.7641</ele>
        <time>2021-07-05T09:05:07Z</time>
      </trkpt>
      <trkpt lat="43.42751" lon="0.72964">
        <ele>201.5748</ele>
        <time>2021-07-05T09:05:18Z</time>
      </trkpt>
      <trkpt lat="43.42689" lon="0.72811">
        <ele>203.4721</ele>
        <time>2021-07-05T09:05:29Z</time>
      </trkpt>
      <trkpt lat="43.42674" lon="0.72768">
        <ele>204.2896</ele>
        <time>2021-07-05T09:05:40Z</time>
      </trkpt>
      <trkpt lat="43.42533" lon="0.72735">
        <ele>206.2669</ele>
        <time>2021-07-05T09:05:51Z</time>
      </trkpt>
      <trkpt lat="43.4241" lon="0.72734">
        <ele>213.2479</ele>
        <time>2021-07-05T09:06:02Z</time>
      </trkpt>
      <trkpt lat="43.42368" lon="0.72671">
        <ele>220.9261</ele>
        <time>2021-07-05T09:06:13Z</time>
      </trkpt>
      <trkpt lat="43.42349" lon="0.72418">
        <ele>240.5379</ele>
        <time>2021-07-05T09:06:24Z</time>
      </trkpt>
      <trkpt lat="43.42318" lon="0.72106">
        <ele>250.8347</ele>
        <time>2021-07-05T09:06:35Z</time>
      </trkpt>
      <trkpt lat="43.42282" lon="0.71793">
        <ele>258.0743</ele>
        <time>2021-07-05T09:06:46Z</time>
      </trkpt>
      <trkpt lat="43.42232" lon="0.7148">
        <ele>272.5866</ele>
        <time>2021-07-05T09:06:57Z</time>
      </trkpt>
      <trkpt lat="43.42147" lon="0.71223">
        <ele>272.4152</ele>
        <time>2021-07-05T09:07:08Z</time>
      </trkpt>
      <trkpt lat="43.4209" lon="0.70953">
        <ele>259.9667</ele>
        <time>2021-07-05T09:07:19Z</time>
      </trkpt>
      <trkpt lat="43.42062" lon="0.70769">
        <ele>252.9873</ele>
        <time>2021-07-05T09:07:30Z</time>
      </trkpt>
      <trkpt lat="43.42008" lon="0.70593">
        <ele>243.3789</ele>
        <time>2021-07-05T09:07:41Z</time>
      </trkpt>
      <trkpt lat="43.4207" lon="0.703">
        <ele>258.5747</ele>
        <time>2021-07-05T09:07:52Z</time>
      </trkpt>
      <trkpt lat="43.42076" lon="0.70033">
        <ele>267.2507</ele>
        <time>2021-07-05T09:08:03Z</time>
      </trkpt>
      <trkpt lat="43.42058" lon="0.69728">
        <ele>280.1291</ele>
        <time>2021-07-05T09:08:14Z</time>
      </trkpt>
      <trkpt lat="43.42069" lon="0.6954">
        <ele>285.6406</ele>
        <time>2021-07-05T09:08:25Z</time>
      </trkpt>
      <trkpt lat="43.42196" lon="0.69338">
        <ele>262.3386</ele>
        <time>2021-07-05T09:08:36Z</time>
      </trkpt>
      <trkpt lat="43.42257" lon="0.69162">
        <ele>234.1653</ele>
        <time>2021-07-05T09:08:47Z</time>
      </trkpt>
      <trkpt lat="43.42251" lon="0.69019">
        <ele>234.8903</ele>
        <time>2021-07-05T09:08:58Z</time>
      </trkpt>
      <trkpt lat="43.42263" lon="0.6874">
        <ele>250.3546</ele>
        <time>2021-07-05T09:09:09Z</time>
      </trkpt>
      <trkpt lat="43.42297" lon="0.6848">
        <ele>267.837</ele>
        <time>2021-07-05T09:09:20Z</time>
      </trkpt>
      <trkpt lat="43.42311" lon="0.68259">
        <ele>283.6183</ele>
        <time>2021-07-05T09:09:31Z</time>
      </trkpt>
      <trkpt lat="43.4232" lon="0.68034">
        <ele>296.6494</ele>
        <time>2021-07-05T09:09:42Z</time>
      </trkpt>
      <trkpt lat="43.42348" lon="0.67753">
        <ele>304.8479</ele>
        <time>2021-07-05T09:09:53Z</time>
      </trkpt>
      <trkpt lat="43.4225" lon="0.67468">
        <ele>311.7505</ele>
        <time>2021-07-05T09:10:04Z</time>
      </trkpt>
      <trkpt lat="43.42121" lon="0.67172">
        <ele>305.0181</ele>
        <time>2021-07-05T09:10:15Z</time>
      </trkpt>
      <trkpt lat="43.42068" lon="0.66844">
        <ele>300.9336</ele>
        <time>2021-07-05T09:10:26Z</time>
      </trkpt>
      <trkpt lat="43.4199" lon="0.66636">
        <ele>293.9989</ele>
        <time>2021-07-05T09:10:37Z</time>
      </trkpt>
      <trkpt lat="43.41864" lon="0.66555">
        <ele>285.2668</ele>
        <time>2021-07-05T09:10:48Z</time>
      </trkpt>
      <trkpt lat="43.41918" lon="0.66405">
        <ele>279.4581</ele>
        <time>2021-07-05T09:10:59Z</time>
      </trkpt>
      <trkpt lat="43.42039" lon="0.66246">
        <ele>269.9371</ele>
        <time>2021-07-05T09:11:10Z</time>
      </trkpt>
      <trkpt lat="43.42156" lon="0.66023">
        <ele>271.5225</ele>
        <time>2021-07-05T09:11:22Z</time>
      </trkpt>
      <trkpt lat="43.42195" lon="0.6571">
        <ele>242.74</ele>
        <time>2021-07-05T09:11:33Z</time>
      </trkpt>
      <trkpt lat="43.4231" lon="0.65451">
        <ele>240.2114</ele>
        <time>2021-07-05T09:11:44Z</time>
      </trkpt>
      <trkpt lat="43.42319" lon="0.65275">
        <ele>230.0057</ele>
        <time>2021-07-05T09:11:55Z</time>
      </trkpt>
      <trkpt lat="43.42217" lon="0.65062">
        <ele>221.2578</ele>
        <time>2021-07-05T09:12:06Z</time>
      </trkpt>
      <trkpt lat="43.42148" lon="0.64778">
        <ele>223.5458</ele>
        <time>2021-07-05T09:12:17Z</time>
      </trkpt>
      <trkpt lat="43.42125" lon="0.64482">
        <ele>234.0853</ele>
        <time>2021-07-05T09:12:28Z</time>
      </trkpt>
      <trkpt lat="43.42181" lon="0.64148">
        <ele>243.899</ele>
        <time>2021-07-05T09:12:39Z</time>
      </trkpt>
      <trkpt lat="43.42083" lon="0.63943">
        <ele>244.2409</ele>
        <time>2021-07-05T09:12:50Z</time>
      </trkpt>
      <trkpt lat="43.42022" lon="0.6363">
        <ele>249.0635</ele>
        <time>2021-07-05T09:13:01Z</time>
      </trkpt>
      <trkpt lat="43.4199" lon="0.63342">
        <ele>261.7262</ele>
        <time>2021-07-05T09:13:12Z</time>
      </trkpt>
      <trkpt lat="43.41965" lon="0.63033">
        <ele>274.023</ele>
        <time>2021-07-05T09:13:23Z</time>
      </trkpt>
      <trkpt lat="43.41989" lon="0.62707">
        <ele>285.0493</ele>
        <time>2021-07-05T09:13:34Z</time>
      </trkpt>
      <trkpt lat="43.41993" lon="0.62366">
        <ele>295.1941</ele>
        <time>2021-07-05T09:13:45Z</time>
      </trkpt>
      <trkpt lat="43.42039" lon="0.62065">
        <ele>303.8729</ele>
        <time>2021-07-05T09:13:56Z</time>
      </trkpt>
      <trkpt lat="43.42038" lon="0.61751">
        <ele>308.7012</ele>
        <time>2021-07-05T09:14:07Z</time>
      </trkpt>
      <trkpt lat="43.42048" lon="0.61465">
        <ele>305.0803</ele>
        <time>2021-07-05T09:14:18Z</time>
      </trkpt>
      <trkpt lat="43.42208" lon="0.61255">
        <ele>294.2602</ele>
        <time>2021-07-05T09:14:29Z</time>
      </trkpt>
      <trkpt lat="43.4239" lon="0.61203">
        <ele>290.5224</ele>
        <time>2021-07-05T09:14:40Z</time>
      </trkpt>
      <trkpt lat="43.4248" lon="0.6098">
        <ele>279.8659</ele>
        <time>2021-07-05T09:14:51Z</time>
      </trkpt>
      <trkpt lat="43.42527" lon="0.60745">
        <ele>262.4433</ele>
        <time>2021-07-05T09:15:02Z</time>
      </trkpt>
      <trkpt lat="43.42507" lon="0.60501">
        <ele>255.3634</ele>
        <time>2021-07-05T09:15:13Z</time>
      </trkpt>
      <trkpt lat="43.42517" lon="0.60188">
        <ele>239.2411</ele>
        <time>2021-07-05T09:15:24Z</time>
      </trkpt>
      <trkpt lat="43.42569" lon="0.59877">
        <ele>227.0096</ele>
        <time>2021-07-05T09:15:35Z</time>
      </trkpt>
      <trkpt lat="43.42681" lon="0.59562">
        <ele>215.9284</ele>
        <time>2021-07-05T09:15:46Z</time>
      </trkpt>
      <trkpt lat="43.42791" lon="0.59258">
        <ele>208.3243</ele>
        <time>2021-07-05T09:15:57Z</time>
      </trkpt>
      <trkpt lat="43.42871" lon="0.58967">
        <ele>202.3754</ele>
        <time>2021-07-05T09:16:08Z</time>
      </trkpt>
      <trkpt lat="43.42903" lon="0.58671">
        <ele>199.3055</ele>
        <time>2021-07-05T09:16:19Z</time>
      </trkpt>
      <trkpt lat="43.42923" lon="0.58447">
        <ele>199.1136</ele>
        <time>2021-07-05T09:16:30Z</time>
      </trkpt>
      <trkpt lat="43.42939" lon="0.58233">
        <ele>201.0549</ele>
        <time>2021-07-05T09:16:41Z</time>
      </trkpt>
      <trkpt lat="43.42952" lon="0.58077">
        <ele>203.4884</ele>
        <time>2021-07-05T09:16:52Z</time>
      </trkpt>
      <trkpt lat="43.42965" lon="0.57953">
        <ele>205.9581</ele>
        <time>2021-07-05T09:17:03Z</time>
      </trkpt>
      <trkpt lat="43.43015" lon="0.5796">
        <ele>205.3214</ele>
        <time>2021-07-05T09:17:14Z</time>
      </trkpt>
      <trkpt lat="43.43077" lon="0.57979">
        <ele>204.0567</ele>
        <time>2021-07-05T09:17:25Z</time>
      </trkpt>
      <trkpt lat="43.43133" lon="0.57994">
        <ele>203.9287</ele>
        <time>2021-07-05T09:17:36Z</time>
      </trkpt>
      <trkpt lat="43.43153" lon="0.57999">
        <ele>202.6626</ele>
        <time>2021-07-05T09:17:47Z</time>
      </trkpt>
      <trkpt lat="43.43155" lon="0.57976">
        <ele>201.3624</ele>
        <time>2021-07-05T09:17:58Z</time>
      </trkpt>
      <trkpt lat="43.43154" lon="0.57948">
        <ele>201.9889</ele>
        <time>2021-07-05T09:18:09Z</time>
      </trkpt>
      <trkpt lat="43.43137" lon="0.57933">
        <ele>202.84</ele>
        <time>2021-07-05T09:18:20Z</time>
      </trkpt>
      <trkpt lat="43.43034" lon="0.57904">
        <ele>206.2955</ele>
        <time>2021-07-05T09:18:31Z</time>
      </trkpt>
      <trkpt lat="43.4297" lon="0.57874">
        <ele>208.4174</ele>
        <time>2021-07-05T09:18:42Z</time>
      </trkpt>
      <trkpt lat="43.42982" lon="0.57767">
        <ele>207.016</ele>
        <time>2021-07-05T09:18:53Z</time>
      </trkpt>
      <trkpt lat="43.42997" lon="0.57596">
        <ele>207.0883</ele>
        <time>2021-07-05T09:19:04Z</time>
      </trkpt>
      <trkpt lat="43.43024" lon="0.57405">
        <ele>206.0964</ele>
        <time>2021-07-05T09:19:15Z</time>
      </trkpt>
      <trkpt lat="43.43034" lon="0.57184">
        <ele>207.1739</ele>
        <time>2021-07-05T09:19:26Z</time>
      </trkpt>
      <trkpt lat="43.43006" lon="0.56941">
        <ele>208.9541</ele>
        <time>2021-07-05T09:19:37Z</time>
      </trkpt>
      <trkpt lat="43.43019" lon="0.56687">
        <ele>207.91</ele>
        <time>2021-07-05T09:19:48Z</time>
      </trkpt>
      <trkpt lat="43.43004" lon="0.56382">
        <ele>210.5431</ele>
        <time>2021-07-05T09:19:59Z</time>
      </trkpt>
      <trkpt lat="43.42937" lon="0.56024">
        <ele>225.2104</ele>
        <time>2021-07-05T09:20:10Z</time>
      </trkpt>
      <trkpt lat="43.42915" lon="0.55673">
        <ele>234.0363</ele>
        <time>2021-07-05T09:20:21Z</time>
      </trkpt>
      <trkpt lat="43.42929" lon="0.55296">
        <ele>247.8723</ele>
        <time>2021-07-05T09:20:32Z</time>
      </trkpt>
      <trkpt lat="43.42928" lon="0.54916">
        <ele>258.1208</ele>
        <time>2021-07-05T09:20:43Z</time>
      </trkpt>
      <trkpt lat="43.42917" lon="0.54565">
        <ele>274.237</ele>
        <time>2021-07-05T09:20:54Z</time>
      </trkpt>
      <trkpt lat="43.42861" lon="0.54305">
        <ele>271.9609</ele>
        <time>2021-07-05T09:21:05Z</time>
      </trkpt>
      <trkpt lat="43.42782" lon="0.54065">
        <ele>280.972</ele>
        <time>2021-07-05T09:21:16Z</time>
      </trkpt>
      <trkpt lat="43.42777" lon="0.53757">
        <ele>285.7077</ele>
        <time>2021-07-05T09:21:27Z</time>
      </trkpt>
      <trkpt lat="43.42771" lon="0.53473">
        <ele>285.446</ele>
        <time>2021-07-05T09:21:38Z</time>
      </trkpt>
      <trkpt lat="43.4277" lon="0.53231">
        <ele>281.14</ele>
        <time>2021-07-05T09:21:49Z</time>
      </trkpt>
      <trkpt lat="43.42762" lon="0.52956">
        <ele>268.5314</ele>
        <time>2021-07-05T09:22:00Z</time>
      </trkpt>
      <trkpt lat="43.42698" lon="0.52727">
        <ele>265.4366</ele>
        <time>2021-07-05T09:22:11Z</time>
      </trkpt>
      <trkpt lat="43.42695" lon="0.52526">
        <ele>245.5167</ele>
        <time>2021-07-05T09:22:22Z</time>
      </trkpt>
      <trkpt lat="43.42769" lon="0.52431">
        <ele>242.6759</ele>
        <time>2021-07-05T09:22:33Z</time>
      </trkpt>
      <trkpt lat="43.42806" lon="0.52232">
        <ele>232.4783</ele>
        <time>2021-07-05T09:22:44Z</time>
      </trkpt>
      <trkpt lat="43.42965" lon="0.52337">
        <ele>226.0055</ele>
        <time>2021-07-05T09:22:55Z</time>
      </trkpt>
      <trkpt lat="43.4305" lon="0.52303">
        <ele>211.1596</ele>
        <time>2021-07-05T09:23:06Z</time>
      </trkpt>
      <trkpt lat="43.43075" lon="0.5196">
        <ele>209.1007</ele>
        <time>2021-07-05T09:23:17Z</time>
      </trkpt>
      <trkpt lat="43.43103" lon="0.51616">
        <ele>218.3198</ele>
        <time>2021-07-05T09:23:28Z</time>
      </trkpt>
      <trkpt lat="43.43133" lon="0.51273">
        <ele>228.9038</ele>
        <time>2021-07-05T09:23:39Z</time>
      </trkpt>
      <trkpt lat="43.43193" lon="0.50976">
        <ele>238.351</ele>
        <time>2021-07-05T09:23:50Z</time>
      </trkpt>
      <trkpt lat="43.43237" lon="0.50705">
        <ele>242.5302</ele>
        <time>2021-07-05T09:24:01Z</time>
      </trkpt>
      <trkpt lat="43.43234" lon="0.50357">
        <ele>250.535</ele>
        <time>2021-07-05T09:24:12Z</time>
      </trkpt>
      <trkpt lat="43.43167" lon="0.50018">
        <ele>257.4338</ele>
        <time>2021-07-05T09:24:23Z</time>
      </trkpt>
      <trkpt lat="43.43121" lon="0.49729">
        <ele>264.4325</ele>
        <time>2021-07-05T09:24:34Z</time>
      </trkpt>
      <trkpt lat="43.43162" lon="0.49422">
        <ele>267.5343</ele>
        <time>2021-07-05T09:24:45Z</time>
      </trkpt>
      <trkpt lat="43.43152" lon="0.49105">
        <ele>281.7112</ele>
        <time>2021-07-05T09:24:56Z</time>
      </trkpt>
      <trkpt lat="43.4311" lon="0.48837">
        <ele>277.6842</ele>
        <time>2021-07-05T09:25:07Z</time>
      </trkpt>
      <trkpt lat="43.42958" lon="0.48631">
        <ele>258.4552</ele>
        <time>2021-07-05T09:25:18Z</time>
      </trkpt>
      <trkpt lat="43.43002" lon="0.48512">
        <ele>250.6691</ele>
        <time>2021-07-05T09:25:29Z</time>
      </trkpt>
      <trkpt lat="43.43076" lon="0.48409">
        <ele>246.4042</ele>
        <time>2021-07-05T09:25:41Z</time>
      </trkpt>
      <trkpt lat="43.42907" lon="0.48316">
        <ele>224.5196</ele>
        <time>2021-07-05T09:25:52Z</time>
      </trkpt>
      <trkpt lat="43.42928" lon="0.48186">
        <ele>211.0479</ele>
        <time>2021-07-05T09:26:03Z</time>
      </trkpt>
      <trkpt lat="43.42905" lon="0.47978">
        <ele>197.7606</ele>
        <time>2021-07-05T09:26:14Z</time>
      </trkpt>
      <trkpt lat="43.42901" lon="0.47951">
        <ele>198.5373</ele>
        <time>2021-07-05T09:26:25Z</time>
      </trkpt>
      <trkpt lat="43.42902" lon="0.47947">
        <ele>198.862</ele>
        <time>2021-07-05T09:26:42Z</time>
      </trkpt>
      <trkpt lat="43.42899" lon="0.47949">
        <ele>199.3103</ele>
        <time>2021-07-05T09:27:14Z</time>
      </trkpt>
      <trkpt lat="43.42895" lon="0.47939">
        <ele>200.1942</ele>
        <time>2021-07-05T09:27:42Z</time>
      </trkpt>
      <trkpt lat="43.42861" lon="0.47743">
        <ele>200.4485</ele>
        <time>2021-07-05T09:27:53Z</time>
      </trkpt>
      <trkpt lat="43.42854" lon="0.47465">
        <ele>199.916</ele>
        <time>2021-07-05T09:28:04Z</time>
      </trkpt>
      <trkpt lat="43.42862" lon="0.47172">
        <ele>203.5684</ele>
        <time>2021-07-05T09:28:15Z</time>
      </trkpt>
      <trkpt lat="43.42866" lon="0.46965">
        <ele>207.3301</ele>
        <time>2021-07-05T09:28:26Z</time>
      </trkpt>
      <trkpt lat="43.42846" lon="0.4689">
        <ele>208.1687</ele>
        <time>2021-07-05T09:28:37Z</time>
      </trkpt>
      <trkpt lat="43.42825" lon="0.46629">
        <ele>217.2132</ele>
        <time>2021-07-05T09:28:48Z</time>
      </trkpt>
      <trkpt lat="43.42736" lon="0.46409">
        <ele>222.177</ele>
        <time>2021-07-05T09:28:59Z</time>
      </trkpt>
      <trkpt lat="43.42677" lon="0.46085">
        <ele>228.401</ele>
        <time>2021-07-05T09:29:10Z</time>
      </trkpt>
      <trkpt lat="43.4267" lon="0.45718">
        <ele>241.5134</ele>
        <time>2021-07-05T09:29:21Z</time>
      </trkpt>
      <trkpt lat="43.42649" lon="0.45355">
        <ele>251.0782</ele>
        <time>2021-07-05T09:29:32Z</time>
      </trkpt>
      <trkpt lat="43.42618" lon="0.45004">
        <ele>255.7165</ele>
        <time>2021-07-05T09:29:43Z</time>
      </trkpt>
      <trkpt lat="43.42587" lon="0.44655">
        <ele>268.9483</ele>
        <time>2021-07-05T09:29:54Z</time>
      </trkpt>
      <trkpt lat="43.42539" lon="0.44383">
        <ele>276.4523</ele>
        <time>2021-07-05T09:30:05Z</time>
      </trkpt>
      <trkpt lat="43.42584" lon="0.44205">
        <ele>275.4886</ele>
        <time>2021-07-05T09:30:16Z</time>
      </trkpt>
      <trkpt lat="43.42625" lon="0.43985">
        <ele>267.9985</ele>
        <time>2021-07-05T09:30:27Z</time>
      </trkpt>
      <trkpt lat="43.4265" lon="0.43822">
        <ele>254.9188</ele>
        <time>2021-07-05T09:30:38Z</time>
      </trkpt>
      <trkpt lat="43.42742" lon="0.43633">
        <ele>237.017</ele>
        <time>2021-07-05T09:30:49Z</time>
      </trkpt>
      <trkpt lat="43.4283" lon="0.43486">
        <ele>220.7859</ele>
        <time>2021-07-05T09:31:00Z</time>
      </trkpt>
      <trkpt lat="43.42828" lon="0.43262">
        <ele>209.4358</ele>
        <time>2021-07-05T09:31:11Z</time>
      </trkpt>
      <trkpt lat="43.4274" lon="0.43114">
        <ele>200.6094</ele>
        <time>2021-07-05T09:31:22Z</time>
      </trkpt>
      <trkpt lat="43.42609" lon="0.43059">
        <ele>195.9178</ele>
        <time>2021-07-05T09:31:33Z</time>
      </trkpt>
      <trkpt lat="43.42594" lon="0.42715">
        <ele>185.0553</ele>
        <time>2021-07-05T09:31:44Z</time>
      </trkpt>
      <trkpt lat="43.42574" lon="0.42346">
        <ele>180.6878</ele>
        <time>2021-07-05T09:31:55Z</time>
      </trkpt>
      <trkpt lat="43.42582" lon="0.42073">
        <ele>178.4326</ele>
        <time>2021-07-05T09:32:06Z</time>
      </trkpt>
      <trkpt lat="43.42603" lon="0.41915">
        <ele>176.1189</ele>
        <time>2021-07-05T09:32:17Z</time>
      </trkpt>
      <trkpt lat="43.42682" lon="0.41672">
        <ele>179.4449</ele>
        <time>2021-07-05T09:32:28Z</time>
      </trkpt>
      <trkpt lat="43.4278" lon="0.41528">
        <ele>177.9956</ele>
        <time>2021-07-05T09:32:39Z</time>
      </trkpt>
      <trkpt lat="43.42776" lon="0.41292">
        <ele>176.0892</ele>
        <time>2021-07-05T09:32:50Z</time>
      </trkpt>
      <trkpt lat="43.42727" lon="0.40982">
        <ele>182.2461</ele>
        <time>2021-07-05T09:33:01Z</time>
      </trkpt>
      <trkpt lat="43.42555" lon="0.40763">
        <ele>184.4891</ele>
        <time>2021-07-05T09:33:12Z</time>
      </trkpt>
      <trkpt lat="43.42356" lon="0.40641">
        <ele>184.1841</ele>
        <time>2021-07-05T09:33:23Z</time>
      </trkpt>
      <trkpt lat="43.42267" lon="0.40451">
        <ele>187.2676</ele>
        <time>2021-07-05T09:33:34Z</time>
      </trkpt>
      <trkpt lat="43.42209" lon="0.4013">
        <ele>190.2618</ele>
        <time>2021-07-05T09:33:45Z</time>
      </trkpt>
      <trkpt lat="43.4215" lon="0.39795">
        <ele>192.8304</ele>
        <time>2021-07-05T09:33:56Z</time>
      </trkpt>
      <trkpt lat="43.42095" lon="0.39435">
        <ele>207.3738</ele>
        <time>2021-07-05T09:34:07Z</time>
      </trkpt>
      <trkpt lat="43.4205" lon="0.39064">
        <ele>219.1301</ele>
        <time>2021-07-05T09:34:18Z</time>
      </trkpt>
      <trkpt lat="43.42016" lon="0.38738">
        <ele>224.6549</ele>
        <time>2021-07-05T09:34:29Z</time>
      </trkpt>
      <trkpt lat="43.42001" lon="0.38404">
        <ele>228.1934</ele>
        <time>2021-07-05T09:34:40Z</time>
      </trkpt>
      <trkpt lat="43.41946" lon="0.38056">
        <ele>230.6712</ele>
        <time>2021-07-05T09:34:51Z</time>
      </trkpt>
      <trkpt lat="43.41888" lon="0.37725">
        <ele>233.2398</ele>
        <time>2021-07-05T09:35:02Z</time>
      </trkpt>
      <trkpt lat="43.41842" lon="0.37414">
        <ele>235.9941</ele>
        <time>2021-07-05T09:35:13Z</time>
      </trkpt>
      <trkpt lat="43.4183" lon="0.37104">
        <ele>243.5898</ele>
        <time>2021-07-05T09:35:24Z</time>
      </trkpt>
      <trkpt lat="43.41882" lon="0.36764">
        <ele>254.0637</ele>
        <time>2021-07-05T09:35:35Z</time>
      </trkpt>
      <trkpt lat="43.41928" lon="0.36474">
        <ele>262.8955</ele>
        <time>2021-07-05T09:35:46Z</time>
      </trkpt>
      <trkpt lat="43.42013" lon="0.36332">
        <ele>269.1177</ele>
        <time>2021-07-05T09:35:57Z</time>
      </trkpt>
      <trkpt lat="43.4207" lon="0.36137">
        <ele>275.3055</ele>
        <time>2021-07-05T09:36:08Z</time>
      </trkpt>
      <trkpt lat="43.42114" lon="0.35929">
        <ele>275.5883</ele>
        <time>2021-07-05T09:36:19Z</time>
      </trkpt>
      <trkpt lat="43.4208" lon="0.35642">
        <ele>274.2825</ele>
        <time>2021-07-05T09:36:30Z</time>
      </trkpt>
      <trkpt lat="43.42088" lon="0.35296">
        <ele>285.4854</ele>
        <time>2021-07-05T09:36:41Z</time>
      </trkpt>
      <trkpt lat="43.42102" lon="0.34983">
        <ele>302.8504</ele>
        <time>2021-07-05T09:36:52Z</time>
      </trkpt>
      <trkpt lat="43.42134" lon="0.34683">
        <ele>316.6828</ele>
        <time>2021-07-05T09:37:03Z</time>
      </trkpt>
      <trkpt lat="43.42036" lon="0.34479">
        <ele>320.0865</ele>
        <time>2021-07-05T09:37:14Z</time>
      </trkpt>
      <trkpt lat="43.41901" lon="0.34469">
        <ele>322.3407</ele>
        <time>2021-07-05T09:37:25Z</time>
      </trkpt>
      <trkpt lat="43.41788" lon="0.34396">
        <ele>317.8884</ele>
        <time>2021-07-05T09:37:36Z</time>
      </trkpt>
      <trkpt lat="43.41797" lon="0.34185">
        <ele>309.9534</ele>
        <time>2021-07-05T09:37:47Z</time>
      </trkpt>
      <trkpt lat="43.41771" lon="0.33968">
        <ele>298.6386</ele>
        <time>2021-07-05T09:37:58Z</time>
      </trkpt>
      <trkpt lat="43.41645" lon="0.33895">
        <ele>293.9485</ele>
        <time>2021-07-05T09:38:09Z</time>
      </trkpt>
      <trkpt lat="43.41661" lon="0.33717">
        <ele>277.7122</ele>
        <time>2021-07-05T09:38:20Z</time>
      </trkpt>
      <trkpt lat="43.41681" lon="0.33502">
        <ele>271.199</ele>
        <time>2021-07-05T09:38:31Z</time>
      </trkpt>
      <trkpt lat="43.41767" lon="0.33324">
        <ele>259.9496</ele>
        <time>2021-07-05T09:38:42Z</time>
      </trkpt>
      <trkpt lat="43.41884" lon="0.33132">
        <ele>241.1368</ele>
        <time>2021-07-05T09:38:53Z</time>
      </trkpt>
      <trkpt lat="43.42086" lon="0.33056">
        <ele>230.7099</ele>
        <time>2021-07-05T09:39:04Z</time>
      </trkpt>
      <trkpt lat="43.42304" lon="0.32929">
        <ele>229.6123</ele>
        <time>2021-07-05T09:39:15Z</time>
      </trkpt>
      <trkpt lat="43.42385" lon="0.3261">
        <ele>225.9719</ele>
        <time>2021-07-05T09:39:26Z</time>
      </trkpt>
      <trkpt lat="43.42492" lon="0.32291">
        <ele>235.4843</ele>
        <time>2021-07-05T09:39:37Z</time>
      </trkpt>
      <trkpt lat="43.42461" lon="0.31965">
        <ele>249.1407</ele>
        <time>2021-07-05T09:39:48Z</time>
      </trkpt>
      <trkpt lat="43.42463" lon="0.31663">
        <ele>254.7744</ele>
        <time>2021-07-05T09:39:59Z</time>
      </trkpt>
      <trkpt lat="43.42493" lon="0.31403">
        <ele>261.8352</ele>
        <time>2021-07-05T09:40:10Z</time>
      </trkpt>
      <trkpt lat="43.42594" lon="0.31224">
        <ele>264.8044</ele>
        <time>2021-07-05T09:40:21Z</time>
      </trkpt>
      <trkpt lat="43.42654" lon="0.30997">
        <ele>272.3023</ele>
        <time>2021-07-05T09:40:32Z</time>
      </trkpt>
      <trkpt lat="43.42655" lon="0.30769">
        <ele>279.3945</ele>
        <time>2021-07-05T09:40:43Z</time>
      </trkpt>
      <trkpt lat="43.42688" lon="0.30737">
        <ele>281.3233</ele>
        <time>2021-07-05T09:40:54Z</time>
      </trkpt>
      <trkpt lat="43.42671" lon="0.3068">
        <ele>282.1241</ele>
        <time>2021-07-05T09:41:05Z</time>
      </trkpt>
      <trkpt lat="43.4258" lon="0.30528">
        <ele>279.7234</ele>
        <time>2021-07-05T09:41:16Z</time>
      </trkpt>
      <trkpt lat="43.42492" lon="0.30279">
        <ele>262.7019</ele>
        <time>2021-07-05T09:41:27Z</time>
      </trkpt>
      <trkpt lat="43.42455" lon="0.29987">
        <ele>244.8187</ele>
        <time>2021-07-05T09:41:38Z</time>
      </trkpt>
      <trkpt lat="43.42383" lon="0.29704">
        <ele>233.0253</ele>
        <time>2021-07-05T09:41:49Z</time>
      </trkpt>
      <trkpt lat="43.42485" lon="0.29537">
        <ele>216.4009</ele>
        <time>2021-07-05T09:42:00Z</time>
      </trkpt>
      <trkpt lat="43.42649" lon="0.29413">
        <ele>203.1613</ele>
        <time>2021-07-05T09:42:11Z</time>
      </trkpt>
      <trkpt lat="43.42616" lon="0.29136">
        <ele>203.9131</ele>
        <time>2021-07-05T09:42:22Z</time>
      </trkpt>
      <trkpt lat="43.42574" lon="0.28903">
        <ele>208.0722</ele>
        <time>2021-07-05T09:42:33Z</time>
      </trkpt>
      <trkpt lat="43.42524" lon="0.28623">
        <ele>212.1343</ele>
        <time>2021-07-05T09:42:44Z</time>
      </trkpt>
      <trkpt lat="43.42472" lon="0.28339">
        <ele>215.6573</ele>
        <time>2021-07-05T09:42:55Z</time>
      </trkpt>
      <trkpt lat="43.42414" lon="0.28004">
        <ele>223.5921</ele>
        <time>2021-07-05T09:43:06Z</time>
      </trkpt>
      <trkpt lat="43.42354" lon="0.27661">
        <ele>233.1382</ele>
        <time>2021-07-05T09:43:17Z</time>
      </trkpt>
      <trkpt lat="43.42287" lon="0.27278">
        <ele>247.3459</ele>
        <time>2021-07-05T09:43:28Z</time>
      </trkpt>
      <trkpt lat="43.42234" lon="0.26979">
        <ele>246.3202</ele>
        <time>2021-07-05T09:43:39Z</time>
      </trkpt>
      <trkpt lat="43.42205" lon="0.26807">
        <ele>234.686</ele>
        <time>2021-07-05T09:43:50Z</time>
      </trkpt>
      <trkpt lat="43.42182" lon="0.26675">
        <ele>232.0317</ele>
        <time>2021-07-05T09:44:01Z</time>
      </trkpt>
      <trkpt lat="43.42161" lon="0.26553">
        <ele>236.6645</ele>
        <time>2021-07-05T09:44:12Z</time>
      </trkpt>
      <trkpt lat="43.42139" lon="0.26432">
        <ele>244.9012</ele>
        <time>2021-07-05T09:44:23Z</time>
      </trkpt>
      <trkpt lat="43.42117" lon="0.26306">
        <ele>252.6311</ele>
        <time>2021-07-05T09:44:34Z</time>
      </trkpt>
      <trkpt lat="43.42094" lon="0.26174">
        <ele>257.7081</ele>
        <time>2021-07-05T09:44:45Z</time>
      </trkpt>
      <trkpt lat="43.42072" lon="0.26045">
        <ele>258.2344</ele>
        <time>2021-07-05T09:44:56Z</time>
      </trkpt>
      <trkpt lat="43.42051" lon="0.25928">
        <ele>262.6277</ele>
        <time>2021-07-05T09:45:07Z</time>
      </trkpt>
      <trkpt lat="43.42025" lon="0.25794">
        <ele>268.9831</ele>
        <time>2021-07-05T09:45:18Z</time>
      </trkpt>
      <trkpt lat="43.42004" lon="0.25664">
        <ele>277.1466</ele>
        <time>2021-07-05T09:45:29Z</time>
      </trkpt>
      <trkpt lat="43.41981" lon="0.25546">
        <ele>284.4169</ele>
        <time>2021-07-05T09:45:40Z</time>
      </trkpt>
      <trkpt lat="43.41928" lon="0.25239">
        <ele>301.3074</ele>
        <time>2021-07-05T09:45:51Z</time>
      </trkpt>
      <trkpt lat="43.4187" lon="0.24909">
        <ele>301.6187</ele>
        <time>2021-07-05T09:46:02Z</time>
      </trkpt>
      <trkpt lat="43.41812" lon="0.24589">
        <ele>321.638</ele>
        <time>2021-07-05T09:46:13Z</time>
      </trkpt>
      <trkpt lat="43.41799" lon="0.24287">
        <ele>333.3431</ele>
        <time>2021-07-05T09:46:24Z</time>
      </trkpt>
      <trkpt lat="43.41907" lon="0.23961">
        <ele>323.7575</ele>
        <time>2021-07-05T09:46:35Z</time>
      </trkpt>
      <trkpt lat="43.41831" lon="0.23688">
        <ele>311.4005</ele>
        <time>2021-07-05T09:46:46Z</time>
      </trkpt>
      <trkpt lat="43.41813" lon="0.23366">
        <ele>295.9389</ele>
        <time>2021-07-05T09:46:57Z</time>
      </trkpt>
      <trkpt lat="43.41883" lon="0.23019">
        <ele>301.9963</ele>
        <time>2021-07-05T09:47:08Z</time>
      </trkpt>
      <trkpt lat="43.41762" lon="0.22723">
        <ele>297.4351</ele>
        <time>2021-07-05T09:47:19Z</time>
      </trkpt>
      <trkpt lat="43.41648" lon="0.22465">
        <ele>277.2434</ele>
        <time>2021-07-05T09:47:30Z</time>
      </trkpt>
      <trkpt lat="43.4147" lon="0.22289">
        <ele>270.5018</ele>
        <time>2021-07-05T09:47:41Z</time>
      </trkpt>
      <trkpt lat="43.4132" lon="0.22077">
        <ele>267.6015</ele>
        <time>2021-07-05T09:47:52Z</time>
      </trkpt>
      <trkpt lat="43.41141" lon="0.21869">
        <ele>261.1271</ele>
        <time>2021-07-05T09:48:03Z</time>
      </trkpt>
      <trkpt lat="43.41" lon="0.21668">
        <ele>256.3149</ele>
        <time>2021-07-05T09:48:14Z</time>
      </trkpt>
      <trkpt lat="43.40845" lon="0.21449">
        <ele>235.6111</ele>
        <time>2021-07-05T09:48:25Z</time>
      </trkpt>
      <trkpt lat="43.40717" lon="0.21259">
        <ele>215.0374</ele>
        <time>2021-07-05T09:48:36Z</time>
      </trkpt>
      <trkpt lat="43.40578" lon="0.20988">
        <ele>189.2605</ele>
        <time>2021-07-05T09:48:47Z</time>
      </trkpt>
      <trkpt lat="43.40465" lon="0.20757">
        <ele>176.2836</ele>
        <time>2021-07-05T09:48:58Z</time>
      </trkpt>
      <trkpt lat="43.40371" lon="0.20556">
        <ele>174.1107</ele>
        <time>2021-07-05T09:49:09Z</time>
      </trkpt>
      <trkpt lat="43.40297" lon="0.20378">
        <ele>171.8068</ele>
        <time>2021-07-05T09:49:20Z</time>
      </trkpt>
      <trkpt lat="43.40228" lon="0.20212">
        <ele>173.1619</ele>
        <time>2021-07-05T09:49:31Z</time>
      </trkpt>
      <trkpt lat="43.40199" lon="0.2008">
        <ele>173.1396</ele>
        <time>2021-07-05T09:49:42Z</time>
      </trkpt>
      <trkpt lat="43.40171" lon="0.19916">
        <ele>174.7324</ele>
        <time>2021-07-05T09:49:53Z</time>
      </trkpt>
      <trkpt lat="43.40141" lon="0.19764">
        <ele>171.2428</ele>
        <time>2021-07-05T09:50:04Z</time>
      </trkpt>
      <trkpt lat="43.40114" lon="0.1959">
        <ele>169.6895</ele>
        <time>2021-07-05T09:50:15Z</time>
      </trkpt>
      <trkpt lat="43.40051" lon="0.1937">
        <ele>174.6875</ele>
        <time>2021-07-05T09:50:26Z</time>
      </trkpt>
      <trkpt lat="43.39991" lon="0.19173">
        <ele>177.8662</ele>
        <time>2021-07-05T09:50:37Z</time>
      </trkpt>
      <trkpt lat="43.39929" lon="0.18969">
        <ele>178.1706</ele>
        <time>2021-07-05T09:50:48Z</time>
      </trkpt>
      <trkpt lat="43.39863" lon="0.18751">
        <ele>178.4167</ele>
        <time>2021-07-05T09:50:59Z</time>
      </trkpt>
      <trkpt lat="43.39796" lon="0.18533">
        <ele>181.4188</ele>
        <time>2021-07-05T09:51:10Z</time>
      </trkpt>
      <trkpt lat="43.39726" lon="0.18303">
        <ele>185.3312</ele>
        <time>2021-07-05T09:51:21Z</time>
      </trkpt>
      <trkpt lat="43.39633" lon="0.17997">
        <ele>188.0149</ele>
        <time>2021-07-05T09:51:32Z</time>
      </trkpt>
      <trkpt lat="43.39536" lon="0.17671">
        <ele>188.3583</ele>
        <time>2021-07-05T09:51:43Z</time>
      </trkpt>
      <trkpt lat="43.39453" lon="0.17396">
        <ele>193.6041</ele>
        <time>2021-07-05T09:51:54Z</time>
      </trkpt>
      <trkpt lat="43.39361" lon="0.17096">
        <ele>200.9099</ele>
        <time>2021-07-05T09:52:05Z</time>
      </trkpt>
      <trkpt lat="43.39279" lon="0.16761">
        <ele>206.3961</ele>
        <time>2021-07-05T09:52:16Z</time>
      </trkpt>
      <trkpt lat="43.3922" lon="0.16491">
        <ele>220.3751</ele>
        <time>2021-07-05T09:52:27Z</time>
      </trkpt>
      <trkpt lat="43.39147" lon="0.16254">
        <ele>224.3145</ele>
        <time>2021-07-05T09:52:38Z</time>
      </trkpt>
      <trkpt lat="43.3906" lon="0.16116">
        <ele>216.5317</ele>
        <time>2021-07-05T09:52:49Z</time>
      </trkpt>
      <trkpt lat="43.38927" lon="0.16042">
        <ele>215.4329</ele>
        <time>2021-07-05T09:53:00Z</time>
      </trkpt>
      <trkpt lat="43.38903" lon="0.15841">
        <ele>213.9408</ele>
        <time>2021-07-05T09:53:11Z</time>
      </trkpt>
      <trkpt lat="43.38881" lon="0.15645">
        <ele>214.1695</ele>
        <time>2021-07-05T09:53:22Z</time>
      </trkpt>
      <trkpt lat="43.38867" lon="0.1551">
        <ele>214.611</ele>
        <time>2021-07-05T09:53:33Z</time>
      </trkpt>
      <trkpt lat="43.38853" lon="0.15394">
        <ele>215.6641</ele>
        <time>2021-07-05T09:53:44Z</time>
      </trkpt>
      <trkpt lat="43.3884" lon="0.1528">
        <ele>216.1905</ele>
        <time>2021-07-05T09:53:55Z</time>
      </trkpt>
      <trkpt lat="43.38823" lon="0.15164">
        <ele>216.9744</ele>
        <time>2021-07-05T09:54:06Z</time>
      </trkpt>
      <trkpt lat="43.38812" lon="0.15093">
        <ele>216.3507</ele>
        <time>2021-07-05T09:54:17Z</time>
      </trkpt>
      <trkpt lat="43.38802" lon="0.15007">
        <ele>216.4562</ele>
        <time>2021-07-05T09:54:28Z</time>
      </trkpt>
      <trkpt lat="43.38787" lon="0.14854">
        <ele>215.4971</ele>
        <time>2021-07-05T09:54:39Z</time>
      </trkpt>
      <trkpt lat="43.38771" lon="0.14644">
        <ele>216.9369</ele>
        <time>2021-07-05T09:54:50Z</time>
      </trkpt>
      <trkpt lat="43.38762" lon="0.14426">
        <ele>216.098</ele>
        <time>2021-07-05T09:55:01Z</time>
      </trkpt>
      <trkpt lat="43.38756" lon="0.14244">
        <ele>216.5421</ele>
        <time>2021-07-05T09:55:12Z</time>
      </trkpt>
      <trkpt lat="43.38747" lon="0.1406">
        <ele>216.7987</ele>
        <time>2021-07-05T09:55:23Z</time>
      </trkpt>
      <trkpt lat="43.38729" lon="0.13744">
        <ele>215.6994</ele>
        <time>2021-07-05T09:55:34Z</time>
      </trkpt>
      <trkpt lat="43.38716" lon="0.13413">
        <ele>216.3708</ele>
        <time>2021-07-05T09:55:45Z</time>
      </trkpt>
      <trkpt lat="43.38709" lon="0.1325">
        <ele>217.1171</ele>
        <time>2021-07-05T09:55:56Z</time>
      </trkpt>
      <trkpt lat="43.38701" lon="0.13064">
        <ele>217.1104</ele>
        <time>2021-07-05T09:56:07Z</time>
      </trkpt>
      <trkpt lat="43.38687" lon="0.12845">
        <ele>216.9688</ele>
        <time>2021-07-05T09:56:18Z</time>
      </trkpt>
      <trkpt lat="43.38677" lon="0.1259">
        <ele>217.5069</ele>
        <time>2021-07-05T09:56:29Z</time>
      </trkpt>
      <trkpt lat="43.38666" lon="0.12316">
        <ele>217.9179</ele>
        <time>2021-07-05T09:56:40Z</time>
      </trkpt>
      <trkpt lat="43.38649" lon="0.11996">
        <ele>216.9987</ele>
        <time>2021-07-05T09:56:51Z</time>
      </trkpt>
      <trkpt lat="43.38636" lon="0.11725">
        <ele>218.5033</ele>
        <time>2021-07-05T09:57:02Z</time>
      </trkpt>
      <trkpt lat="43.38621" lon="0.11415">
        <ele>218.5277</ele>
        <time>2021-07-05T09:57:13Z</time>
      </trkpt>
      <trkpt lat="43.38606" lon="0.11087">
        <ele>219.7071</ele>
        <time>2021-07-05T09:57:24Z</time>
      </trkpt>
      <trkpt lat="43.38589" lon="0.10738">
        <ele>219.2862</ele>
        <time>2021-07-05T09:57:35Z</time>
      </trkpt>
      <trkpt lat="43.38574" lon="0.10392">
        <ele>218.9487</ele>
        <time>2021-07-05T09:57:46Z</time>
      </trkpt>
      <trkpt lat="43.38556" lon="0.10049">
        <ele>218.7166</ele>
        <time>2021-07-05T09:57:57Z</time>
      </trkpt>
      <trkpt lat="43.38542" lon="0.09722">
        <ele>219.2039</ele>
        <time>2021-07-05T09:58:08Z</time>
      </trkpt>
      <trkpt lat="43.38527" lon="0.09399">
        <ele>218.8325</ele>
        <time>2021-07-05T09:58:19Z</time>
      </trkpt>
      <trkpt lat="43.38514" lon="0.09204">
        <ele>220.9626</ele>
        <time>2021-07-05T09:58:30Z</time>
      </trkpt>
      <trkpt lat="43.38522" lon="0.08943">
        <ele>217.8394</ele>
        <time>2021-07-05T09:58:41Z</time>
      </trkpt>
      <trkpt lat="43.38559" lon="0.08628">
        <ele>217.853</ele>
        <time>2021-07-05T09:58:52Z</time>
      </trkpt>
      <trkpt lat="43.38599" lon="0.08312">
        <ele>216.9451</ele>
        <time>2021-07-05T09:59:03Z</time>
      </trkpt>
      <trkpt lat="43.38638" lon="0.07985">
        <ele>217.6503</ele>
        <time>2021-07-05T09:59:14Z</time>
      </trkpt>
      <trkpt lat="43.38675" lon="0.07664">
        <ele>217.3312</ele>
        <time>2021-07-05T09:59:25Z</time>
      </trkpt>
      <trkpt lat="43.3871" lon="0.07389">
        <ele>217.4619</ele>
        <time>2021-07-05T09:59:36Z</time>
      </trkpt>
      <trkpt lat="43.38734" lon="0.07148">
        <ele>217.9261</ele>
        <time>2021-07-05T09:59:47Z</time>
      </trkpt>
      <trkpt lat="43.38723" lon="0.06918">
        <ele>217.7776</ele>
        <time>2021-07-05T09:59:58Z</time>
      </trkpt>
      <trkpt lat="43.38719" lon="0.06756">
        <ele>217.1056</ele>
        <time>2021-07-05T10:00:09Z</time>
      </trkpt>
      <trkpt lat="43.3871" lon="0.06644">
        <ele>217.0846</ele>
        <time>2021-07-05T10:00:20Z</time>
      </trkpt>
      <trkpt lat="43.38707" lon="0.06512">
        <ele>217.5645</ele>
        <time>2021-07-05T10:00:31Z</time>
      </trkpt>
      <trkpt lat="43.38706" lon="0.06397">
        <ele>217.8139</ele>
        <time>2021-07-05T10:00:42Z</time>
      </trkpt>
      <trkpt lat="43.38696" lon="0.06274">
        <ele>217.2451</ele>
        <time>2021-07-05T10:00:53Z</time>
      </trkpt>
      <trkpt lat="43.38688" lon="0.06176">
        <ele>217.9392</ele>
        <time>2021-07-05T10:01:04Z</time>
      </trkpt>
      <trkpt lat="43.38696" lon="0.06032">
        <ele>216.2516</ele>
        <time>2021-07-05T10:01:15Z</time>
      </trkpt>
      <trkpt lat="43.38703" lon="0.05924">
        <ele>215.9084</ele>
        <time>2021-07-05T10:01:26Z</time>
      </trkpt>
      <trkpt lat="43.38718" lon="0.05766">
        <ele>217.2445</ele>
        <time>2021-07-05T10:01:37Z</time>
      </trkpt>
      <trkpt lat="43.38724" lon="0.05667">
        <ele>216.7769</ele>
        <time>2021-07-05T10:01:48Z</time>
      </trkpt>
      <trkpt lat="43.38657" lon="0.0563">
        <ele>216.2382</ele>
        <time>2021-07-05T10:01:59Z</time>
      </trkpt>
      <trkpt lat="43.38618" lon="0.05562">
        <ele>217.6546</ele>
        <time>2021-07-05T10:02:10Z</time>
      </trkpt>
      <trkpt lat="43.38614" lon="0.05555">
        <ele>217.3621</ele>
        <time>2021-07-05T10:02:21Z</time>
      </trkpt>
      <trkpt lat="43.38615" lon="0.0555">
        <ele>218.1684</ele>
        <time>2021-07-05T10:02:37Z</time>
      </trkpt>
      <trkpt lat="43.3861" lon="0.05531">
        <ele>217.7273</ele>
        <time>2021-07-05T10:02:48Z</time>
      </trkpt>
      <trkpt lat="43.38613" lon="0.05515">
        <ele>217.7042</ele>
        <time>2021-07-05T10:02:59Z</time>
      </trkpt>
      <trkpt lat="43.3863" lon="0.05503">
        <ele>217.3275</ele>
        <time>2021-07-05T10:03:10Z</time>
      </trkpt>
      <trkpt lat="43.38632" lon="0.055">
        <ele>217.8983</ele>
        <time>2021-07-05T10:04:10Z</time>
      </trkpt>
      <trkpt lat="43.38632" lon="0.055">
        <ele>217.8983</ele>
        <time>2021-07-05T10:05:10Z</time>
      </trkpt>
      <trkpt lat="43.38637" lon="0.05496">
        <ele>217.96</ele>
        <time>2021-07-05T10:05:21Z</time>
      </trkpt>
      <trkpt lat="43.38633" lon="0.05488">
        <ele>218.2083</ele>
        <time>2021-07-05T10:05:32Z</time>
      </trkpt>
      <trkpt lat="43.38633" lon="0.05488">
        <ele>218.2083</ele>
        <time>2021-07-05T10:06:32Z</time>
      </trkpt>
      <trkpt lat="43.3863" lon="0.05491">
        <ele>217.882</ele>
        <time>2021-07-05T10:07:02Z</time>
      </trkpt>
      <trkpt lat="43.38629" lon="0.05487">
        <ele>217.6021</ele>
        <time>2021-07-05T10:07:28Z</time>
      </trkpt>
      <trkpt lat="43.38629" lon="0.05481">
        <ele>217.5866</ele>
        <time>2021-07-05T10:07:50Z</time>
      </trkpt>
      <trkpt lat="43.38634" lon="0.05473">
        <ele>217.8943</ele>
        <time>2021-07-05T10:08:02Z</time>
      </trkpt>
      <trkpt lat="43.3863" lon="0.05398">
        <ele>218.0287</ele>
        <time>2021-07-05T10:08:13Z</time>
      </trkpt>
      <trkpt lat="43.38593" lon="0.05235">
        <ele>217.7353</ele>
        <time>2021-07-05T10:08:24Z</time>
      </trkpt>
      <trkpt lat="43.38528" lon="0.05126">
        <ele>218.4281</ele>
        <time>2021-07-05T10:08:35Z</time>
      </trkpt>
      <trkpt lat="43.38473" lon="0.05117">
        <ele>216.6123</ele>
        <time>2021-07-05T10:08:46Z</time>
      </trkpt>
      <trkpt lat="43.38449" lon="0.05038">
        <ele>216.1912</ele>
        <time>2021-07-05T10:08:57Z</time>
      </trkpt>
      <trkpt lat="43.38429" lon="0.05055">
        <ele>216.7805</ele>
        <time>2021-07-05T10:09:08Z</time>
      </trkpt>
      <trkpt lat="43.38427" lon="0.0506">
        <ele>217.0491</ele>
        <time>2021-07-05T10:09:23Z</time>
      </trkpt>
      <trkpt lat="43.38428" lon="0.05059">
        <ele>216.7719</ele>
        <time>2021-07-05T10:10:23Z</time>
      </trkpt>
      <trkpt lat="43.38429" lon="0.05054">
        <ele>216.5544</ele>
        <time>2021-07-05T10:11:19Z</time>
      </trkpt>
      <trkpt lat="43.38428" lon="0.05056">
        <ele>217.4596</ele>
        <time>2021-07-05T10:12:19Z</time>
      </trkpt>
      <trkpt lat="43.38428" lon="0.05062">
        <ele>216.4087</ele>
        <time>2021-07-05T10:12:34Z</time>
      </trkpt>
      <trkpt lat="43.38427" lon="0.05059">
        <ele>216.9017</ele>
        <time>2021-07-05T10:13:33Z</time>
      </trkpt>
      <trkpt lat="43.38427" lon="0.05064">
        <ele>217.0096</ele>
        <time>2021-07-05T10:13:56Z</time>
      </trkpt>
      <trkpt lat="43.38427" lon="0.05061">
        <ele>216.767</ele>
        <time>2021-07-05T10:14:55Z</time>
      </trkpt>
      <trkpt lat="43.38428" lon="0.05062">
        <ele>216.2996</ele>
        <time>2021-07-05T10:15:54Z</time>
      </trkpt>
      <trkpt lat="43.38428" lon="0.05057">
        <ele>218.3997</ele>
        <time>2021-07-05T10:16:43Z</time>
      </trkpt>
      <trkpt lat="43.38428" lon="0.05062">
        <ele>216.6811</ele>
        <time>2021-07-05T10:16:54Z</time>
      </trkpt>
      <trkpt lat="43.38426" lon="0.05063">
        <ele>216.9015</ele>
        <time>2021-07-05T10:17:54Z</time>
      </trkpt>
      <trkpt lat="43.38428" lon="0.05058">
        <ele>216.9424</ele>
        <time>2021-07-05T10:18:35Z</time>
      </trkpt>
      <trkpt lat="43.38427" lon="0.0506">
        <ele>216.6008</ele>
        <time>2021-07-05T10:19:34Z</time>
      </trkpt>
      <trkpt lat="43.38431" lon="0.05061">
        <ele>215.8631</ele>
        <time>2021-07-05T10:19:59Z</time>
      </trkpt>
      <trkpt lat="43.38428" lon="0.05063">
        <ele>216.7164</ele>
        <time>2021-07-05T10:20:11Z</time>
      </trkpt>
      <trkpt lat="43.38432" lon="0.05062">
        <ele>217.0795</ele>
        <time>2021-07-05T10:20:54Z</time>
      </trkpt>
      <trkpt lat="43.38435" lon="0.0506">
        <ele>217.1281</ele>
        <time>2021-07-05T10:21:24Z</time>
      </trkpt>
      <trkpt lat="43.38431" lon="0.05062">
        <ele>218.1263</ele>
        <time>2021-07-05T10:21:43Z</time>
      </trkpt>
      <trkpt lat="43.38434" lon="0.05058">
        <ele>217.7894</ele>
        <time>2021-07-05T10:22:24Z</time>
      </trkpt>
      <trkpt lat="43.3843" lon="0.0506">
        <ele>218.1529</ele>
        <time>2021-07-05T10:22:52Z</time>
      </trkpt>
      <trkpt lat="43.38432" lon="0.05059">
        <ele>217.6126</ele>
        <time>2021-07-05T10:23:51Z</time>
      </trkpt>
      <trkpt lat="43.38429" lon="0.05062">
        <ele>217.3589</ele>
        <time>2021-07-05T10:24:08Z</time>
      </trkpt>
      <trkpt lat="43.3843" lon="0.0506">
        <ele>217.07</ele>
        <time>2021-07-05T10:25:08Z</time>
      </trkpt>
      <trkpt lat="43.3843" lon="0.05062">
        <ele>217.8133</ele>
        <time>2021-07-05T10:26:08Z</time>
      </trkpt>
      <trkpt lat="43.3843" lon="0.05069">
        <ele>217.598</ele>
        <time>2021-07-05T10:26:58Z</time>
      </trkpt>
      <trkpt lat="43.38437" lon="0.05096">
        <ele>218.2395</ele>
        <time>2021-07-05T10:27:09Z</time>
      </trkpt>
      <trkpt lat="43.38479" lon="0.05134">
        <ele>217.4744</ele>
        <time>2021-07-05T10:27:20Z</time>
      </trkpt>
      <trkpt lat="43.38486" lon="0.05045">
        <ele>217.6706</ele>
        <time>2021-07-05T10:27:31Z</time>
      </trkpt>
      <trkpt lat="43.38501" lon="0.04846">
        <ele>216.1453</ele>
        <time>2021-07-05T10:27:42Z</time>
      </trkpt>
      <trkpt lat="43.38547" lon="0.04643">
        <ele>215.6917</ele>
        <time>2021-07-05T10:27:53Z</time>
      </trkpt>
      <trkpt lat="43.38622" lon="0.04422">
        <ele>214.4661</ele>
        <time>2021-07-05T10:28:04Z</time>
      </trkpt>
      <trkpt lat="43.38697" lon="0.0419">
        <ele>213.8318</ele>
        <time>2021-07-05T10:28:15Z</time>
      </trkpt>
      <trkpt lat="43.38778" lon="0.03943">
        <ele>214.5763</ele>
        <time>2021-07-05T10:28:26Z</time>
      </trkpt>
      <trkpt lat="43.38846" lon="0.03734">
        <ele>214.1372</ele>
        <time>2021-07-05T10:28:37Z</time>
      </trkpt>
      <trkpt lat="43.38912" lon="0.03534">
        <ele>214.3905</ele>
        <time>2021-07-05T10:28:48Z</time>
      </trkpt>
      <trkpt lat="43.39017" lon="0.03228">
        <ele>213.606</ele>
        <time>2021-07-05T10:28:59Z</time>
      </trkpt>
      <trkpt lat="43.39116" lon="0.02912">
        <ele>211.9414</ele>
        <time>2021-07-05T10:29:10Z</time>
      </trkpt>
      <trkpt lat="43.39215" lon="0.02601">
        <ele>210.7708</ele>
        <time>2021-07-05T10:29:21Z</time>
      </trkpt>
      <trkpt lat="43.3921" lon="0.02267">
        <ele>213.0317</ele>
        <time>2021-07-05T10:29:32Z</time>
      </trkpt>
      <trkpt lat="43.39116" lon="0.0195">
        <ele>213.2826</ele>
        <time>2021-07-05T10:29:43Z</time>
      </trkpt>
      <trkpt lat="43.39025" lon="0.01632">
        <ele>215.0807</ele>
        <time>2021-07-05T10:29:54Z</time>
      </trkpt>
      <trkpt lat="43.38923" lon="0.01291">
        <ele>214.9771</ele>
        <time>2021-07-05T10:30:05Z</time>
      </trkpt>
      <trkpt lat="43.38824" lon="0.00956">
        <ele>218.1655</ele>
        <time>2021-07-05T10:30:16Z</time>
      </trkpt>
      <trkpt lat="43.38723" lon="0.00608">
        <ele>222.0707</ele>
        <time>2021-07-05T10:30:27Z</time>
      </trkpt>
      <trkpt lat="43.38619" lon="0.00255">
        <ele>227.6302</ele>
        <time>2021-07-05T10:30:38Z</time>
      </trkpt>
      <trkpt lat="43.38517" lon="-0.00102">
        <ele>232.4675</ele>
        <time>2021-07-05T10:30:49Z</time>
      </trkpt>
      <trkpt lat="43.38414" lon="-0.00451">
        <ele>238.5953</ele>
        <time>2021-07-05T10:31:00Z</time>
      </trkpt>
      <trkpt lat="43.38329" lon="-0.00743">
        <ele>245.4875</ele>
        <time>2021-07-05T10:31:11Z</time>
      </trkpt>
      <trkpt lat="43.38258" lon="-0.00992">
        <ele>252.3378</ele>
        <time>2021-07-05T10:31:22Z</time>
      </trkpt>
      <trkpt lat="43.38183" lon="-0.01242">
        <ele>261.3068</ele>
        <time>2021-07-05T10:31:33Z</time>
      </trkpt>
      <trkpt lat="43.38112" lon="-0.01488">
        <ele>271.1148</ele>
        <time>2021-07-05T10:31:44Z</time>
      </trkpt>
      <trkpt lat="43.37993" lon="-0.01763">
        <ele>284.6017</ele>
        <time>2021-07-05T10:31:55Z</time>
      </trkpt>
      <trkpt lat="43.37819" lon="-0.01965">
        <ele>300.1793</ele>
        <time>2021-07-05T10:32:06Z</time>
      </trkpt>
      <trkpt lat="43.37617" lon="-0.02137">
        <ele>319.1814</ele>
        <time>2021-07-05T10:32:17Z</time>
      </trkpt>
      <trkpt lat="43.3752" lon="-0.02431">
        <ele>328.2191</ele>
        <time>2021-07-05T10:32:28Z</time>
      </trkpt>
      <trkpt lat="43.37435" lon="-0.02804">
        <ele>335.0402</ele>
        <time>2021-07-05T10:32:39Z</time>
      </trkpt>
      <trkpt lat="43.37354" lon="-0.03159">
        <ele>338.0982</ele>
        <time>2021-07-05T10:32:50Z</time>
      </trkpt>
      <trkpt lat="43.3727" lon="-0.03526">
        <ele>336.3899</ele>
        <time>2021-07-05T10:33:01Z</time>
      </trkpt>
      <trkpt lat="43.37185" lon="-0.03903">
        <ele>331.4769</ele>
        <time>2021-07-05T10:33:12Z</time>
      </trkpt>
      <trkpt lat="43.37098" lon="-0.04272">
        <ele>331.1521</ele>
        <time>2021-07-05T10:33:23Z</time>
      </trkpt>
      <trkpt lat="43.37059" lon="-0.04658">
        <ele>325.5238</ele>
        <time>2021-07-05T10:33:34Z</time>
      </trkpt>
      <trkpt lat="43.36999" lon="-0.04998">
        <ele>336.128</ele>
        <time>2021-07-05T10:33:45Z</time>
      </trkpt>
      <trkpt lat="43.37045" lon="-0.05292">
        <ele>321.222</ele>
        <time>2021-07-05T10:33:56Z</time>
      </trkpt>
      <trkpt lat="43.37287" lon="-0.05423">
        <ele>306.3931</ele>
        <time>2021-07-05T10:34:07Z</time>
      </trkpt>
      <trkpt lat="43.3746" lon="-0.05651">
        <ele>275.1501</ele>
        <time>2021-07-05T10:34:18Z</time>
      </trkpt>
      <trkpt lat="43.37379" lon="-0.05996">
        <ele>265.6036</ele>
        <time>2021-07-05T10:34:29Z</time>
      </trkpt>
      <trkpt lat="43.37233" lon="-0.0633">
        <ele>278.2191</ele>
        <time>2021-07-05T10:34:40Z</time>
      </trkpt>
      <trkpt lat="43.37107" lon="-0.06682">
        <ele>283.5867</ele>
        <time>2021-07-05T10:34:51Z</time>
      </trkpt>
      <trkpt lat="43.36996" lon="-0.07005">
        <ele>280.5884</ele>
        <time>2021-07-05T10:35:02Z</time>
      </trkpt>
      <trkpt lat="43.36965" lon="-0.07356">
        <ele>268.0582</ele>
        <time>2021-07-05T10:35:13Z</time>
      </trkpt>
      <trkpt lat="43.37024" lon="-0.07676">
        <ele>279.1282</ele>
        <time>2021-07-05T10:35:24Z</time>
      </trkpt>
      <trkpt lat="43.37139" lon="-0.0798">
        <ele>298.1074</ele>
        <time>2021-07-05T10:35:35Z</time>
      </trkpt>
      <trkpt lat="43.37324" lon="-0.08184">
        <ele>322.1621</ele>
        <time>2021-07-05T10:35:46Z</time>
      </trkpt>
      <trkpt lat="43.37388" lon="-0.08446">
        <ele>335.8921</ele>
        <time>2021-07-05T10:35:57Z</time>
      </trkpt>
      <trkpt lat="43.37529" lon="-0.08754">
        <ele>345.1109</ele>
        <time>2021-07-05T10:36:08Z</time>
      </trkpt>
      <trkpt lat="43.37594" lon="-0.09008">
        <ele>350.4188</ele>
        <time>2021-07-05T10:36:19Z</time>
      </trkpt>
      <trkpt lat="43.37627" lon="-0.09341">
        <ele>351.1903</ele>
        <time>2021-07-05T10:36:30Z</time>
      </trkpt>
      <trkpt lat="43.37665" lon="-0.09695">
        <ele>345.0129</ele>
        <time>2021-07-05T10:36:41Z</time>
      </trkpt>
      <trkpt lat="43.3771" lon="-0.10126">
        <ele>349.4418</ele>
        <time>2021-07-05T10:36:52Z</time>
      </trkpt>
      <trkpt lat="43.37682" lon="-0.10368">
        <ele>347.7227</ele>
        <time>2021-07-05T10:37:03Z</time>
      </trkpt>
      <trkpt lat="43.3749" lon="-0.10488">
        <ele>326.4948</ele>
        <time>2021-07-05T10:37:14Z</time>
      </trkpt>
      <trkpt lat="43.37326" lon="-0.10565">
        <ele>317.2525</ele>
        <time>2021-07-05T10:37:26Z</time>
      </trkpt>
      <trkpt lat="43.37347" lon="-0.10716">
        <ele>295.6607</ele>
        <time>2021-07-05T10:37:37Z</time>
      </trkpt>
      <trkpt lat="43.37559" lon="-0.1077">
        <ele>273.9067</ele>
        <time>2021-07-05T10:37:48Z</time>
      </trkpt>
      <trkpt lat="43.37679" lon="-0.10914">
        <ele>255.5533</ele>
        <time>2021-07-05T10:37:59Z</time>
      </trkpt>
      <trkpt lat="43.37708" lon="-0.11298">
        <ele>239.8268</ele>
        <time>2021-07-05T10:38:10Z</time>
      </trkpt>
      <trkpt lat="43.37732" lon="-0.11691">
        <ele>241.7896</ele>
        <time>2021-07-05T10:38:21Z</time>
      </trkpt>
      <trkpt lat="43.37756" lon="-0.12087">
        <ele>244.0965</ele>
        <time>2021-07-05T10:38:32Z</time>
      </trkpt>
      <trkpt lat="43.37778" lon="-0.12472">
        <ele>251.1428</ele>
        <time>2021-07-05T10:38:43Z</time>
      </trkpt>
      <trkpt lat="43.378" lon="-0.12801">
        <ele>254.0889</ele>
        <time>2021-07-05T10:38:54Z</time>
      </trkpt>
      <trkpt lat="43.37806" lon="-0.12997">
        <ele>264.9976</ele>
        <time>2021-07-05T10:39:05Z</time>
      </trkpt>
      <trkpt lat="43.37761" lon="-0.13207">
        <ele>277.7996</ele>
        <time>2021-07-05T10:39:16Z</time>
      </trkpt>
      <trkpt lat="43.37779" lon="-0.13386">
        <ele>286.4426</ele>
        <time>2021-07-05T10:39:27Z</time>
      </trkpt>
      <trkpt lat="43.37762" lon="-0.13654">
        <ele>312.1942</ele>
        <time>2021-07-05T10:39:38Z</time>
      </trkpt>
      <trkpt lat="43.37742" lon="-0.13913">
        <ele>337.0531</ele>
        <time>2021-07-05T10:39:49Z</time>
      </trkpt>
      <trkpt lat="43.37746" lon="-0.14177">
        <ele>347.6871</ele>
        <time>2021-07-05T10:40:00Z</time>
      </trkpt>
      <trkpt lat="43.37722" lon="-0.14487">
        <ele>346.1014</ele>
        <time>2021-07-05T10:40:11Z</time>
      </trkpt>
      <trkpt lat="43.3766" lon="-0.14857">
        <ele>340.8433</ele>
        <time>2021-07-05T10:40:22Z</time>
      </trkpt>
      <trkpt lat="43.37595" lon="-0.15241">
        <ele>344.5345</ele>
        <time>2021-07-05T10:40:33Z</time>
      </trkpt>
      <trkpt lat="43.37531" lon="-0.15635">
        <ele>346.9554</ele>
        <time>2021-07-05T10:40:44Z</time>
      </trkpt>
      <trkpt lat="43.37465" lon="-0.16028">
        <ele>345.8951</ele>
        <time>2021-07-05T10:40:55Z</time>
      </trkpt>
      <trkpt lat="43.37402" lon="-0.16409">
        <ele>343.4489</ele>
        <time>2021-07-05T10:41:06Z</time>
      </trkpt>
      <trkpt lat="43.37339" lon="-0.16805">
        <ele>337.162</ele>
        <time>2021-07-05T10:41:17Z</time>
      </trkpt>
      <trkpt lat="43.37277" lon="-0.17189">
        <ele>341.0865</ele>
        <time>2021-07-05T10:41:28Z</time>
      </trkpt>
      <trkpt lat="43.37207" lon="-0.17504">
        <ele>345.7644</ele>
        <time>2021-07-05T10:41:39Z</time>
      </trkpt>
      <trkpt lat="43.371" lon="-0.17819">
        <ele>328.4076</ele>
        <time>2021-07-05T10:41:50Z</time>
      </trkpt>
      <trkpt lat="43.37042" lon="-0.18207">
        <ele>313.5966</ele>
        <time>2021-07-05T10:42:01Z</time>
      </trkpt>
      <trkpt lat="43.36947" lon="-0.18575">
        <ele>332.4305</ele>
        <time>2021-07-05T10:42:12Z</time>
      </trkpt>
      <trkpt lat="43.36809" lon="-0.1892">
        <ele>342.2819</ele>
        <time>2021-07-05T10:42:23Z</time>
      </trkpt>
      <trkpt lat="43.36719" lon="-0.19271">
        <ele>333.6279</ele>
        <time>2021-07-05T10:42:34Z</time>
      </trkpt>
      <trkpt lat="43.36568" lon="-0.19439">
        <ele>313.3237</ele>
        <time>2021-07-05T10:42:45Z</time>
      </trkpt>
      <trkpt lat="43.3661" lon="-0.19698">
        <ele>291.44</ele>
        <time>2021-07-05T10:42:56Z</time>
      </trkpt>
      <trkpt lat="43.36694" lon="-0.19932">
        <ele>274.4081</ele>
        <time>2021-07-05T10:43:07Z</time>
      </trkpt>
      <trkpt lat="43.36548" lon="-0.20088">
        <ele>281.4031</ele>
        <time>2021-07-05T10:43:18Z</time>
      </trkpt>
      <trkpt lat="43.36474" lon="-0.2033">
        <ele>290.1564</ele>
        <time>2021-07-05T10:43:29Z</time>
      </trkpt>
      <trkpt lat="43.36458" lon="-0.20567">
        <ele>296.4505</ele>
        <time>2021-07-05T10:43:40Z</time>
      </trkpt>
      <trkpt lat="43.36467" lon="-0.20825">
        <ele>297.1347</ele>
        <time>2021-07-05T10:43:51Z</time>
      </trkpt>
      <trkpt lat="43.36412" lon="-0.21075">
        <ele>303.9346</ele>
        <time>2021-07-05T10:44:02Z</time>
      </trkpt>
      <trkpt lat="43.36344" lon="-0.21313">
        <ele>307.808</ele>
        <time>2021-07-05T10:44:13Z</time>
      </trkpt>
      <trkpt lat="43.36239" lon="-0.21538">
        <ele>305.2504</ele>
        <time>2021-07-05T10:44:24Z</time>
      </trkpt>
      <trkpt lat="43.36158" lon="-0.21781">
        <ele>307.1678</ele>
        <time>2021-07-05T10:44:35Z</time>
      </trkpt>
      <trkpt lat="43.36087" lon="-0.22021">
        <ele>307.7757</ele>
        <time>2021-07-05T10:44:46Z</time>
      </trkpt>
      <trkpt lat="43.36008" lon="-0.2228">
        <ele>307.9856</ele>
        <time>2021-07-05T10:44:57Z</time>
      </trkpt>
      <trkpt lat="43.35926" lon="-0.22546">
        <ele>305.3681</ele>
        <time>2021-07-05T10:45:08Z</time>
      </trkpt>
      <trkpt lat="43.35884" lon="-0.22829">
        <ele>296.2264</ele>
        <time>2021-07-05T10:45:19Z</time>
      </trkpt>
      <trkpt lat="43.3585" lon="-0.23072">
        <ele>294.838</ele>
        <time>2021-07-05T10:45:30Z</time>
      </trkpt>
      <trkpt lat="43.35858" lon="-0.23323">
        <ele>301.7467</ele>
        <time>2021-07-05T10:45:41Z</time>
      </trkpt>
      <trkpt lat="43.35872" lon="-0.23603">
        <ele>299.2066</ele>
        <time>2021-07-05T10:45:52Z</time>
      </trkpt>
      <trkpt lat="43.35882" lon="-0.23891">
        <ele>302.1154</ele>
        <time>2021-07-05T10:46:03Z</time>
      </trkpt>
      <trkpt lat="43.35892" lon="-0.24175">
        <ele>300.6047</ele>
        <time>2021-07-05T10:46:14Z</time>
      </trkpt>
      <trkpt lat="43.35902" lon="-0.24402">
        <ele>299.6683</ele>
        <time>2021-07-05T10:46:25Z</time>
      </trkpt>
      <trkpt lat="43.35892" lon="-0.24526">
        <ele>300.7733</ele>
        <time>2021-07-05T10:46:36Z</time>
      </trkpt>
      <trkpt lat="43.35802" lon="-0.24728">
        <ele>297.6238</ele>
        <time>2021-07-05T10:46:47Z</time>
      </trkpt>
      <trkpt lat="43.35744" lon="-0.24911">
        <ele>295.1158</ele>
        <time>2021-07-05T10:46:58Z</time>
      </trkpt>
      <trkpt lat="43.35783" lon="-0.25081">
        <ele>295.1835</ele>
        <time>2021-07-05T10:47:09Z</time>
      </trkpt>
      <trkpt lat="43.35803" lon="-0.25236">
        <ele>291.582</ele>
        <time>2021-07-05T10:47:20Z</time>
      </trkpt>
      <trkpt lat="43.35675" lon="-0.25252">
        <ele>284.9761</ele>
        <time>2021-07-05T10:47:31Z</time>
      </trkpt>
      <trkpt lat="43.35549" lon="-0.25167">
        <ele>278.4987</ele>
        <time>2021-07-05T10:47:42Z</time>
      </trkpt>
      <trkpt lat="43.35439" lon="-0.25284">
        <ele>267.833</ele>
        <time>2021-07-05T10:47:53Z</time>
      </trkpt>
      <trkpt lat="43.35298" lon="-0.25451">
        <ele>272.9516</ele>
        <time>2021-07-05T10:48:04Z</time>
      </trkpt>
      <trkpt lat="43.35166" lon="-0.25599">
        <ele>286.6629</ele>
        <time>2021-07-05T10:48:15Z</time>
      </trkpt>
      <trkpt lat="43.35107" lon="-0.25691">
        <ele>288.2996</ele>
        <time>2021-07-05T10:48:26Z</time>
      </trkpt>
      <trkpt lat="43.35029" lon="-0.25668">
        <ele>287.8551</ele>
        <time>2021-07-05T10:48:37Z</time>
      </trkpt>
      <trkpt lat="43.34884" lon="-0.25525">
        <ele>287.8942</ele>
        <time>2021-07-05T10:48:48Z</time>
      </trkpt>
      <trkpt lat="43.34684" lon="-0.25436">
        <ele>289.54</ele>
        <time>2021-07-05T10:48:59Z</time>
      </trkpt>
      <trkpt lat="43.3446" lon="-0.253">
        <ele>292.0035</ele>
        <time>2021-07-05T10:49:10Z</time>
      </trkpt>
      <trkpt lat="43.34251" lon="-0.25141">
        <ele>294.0908</ele>
        <time>2021-07-05T10:49:21Z</time>
      </trkpt>
      <trkpt lat="43.34026" lon="-0.25078">
        <ele>296.2774</ele>
        <time>2021-07-05T10:49:32Z</time>
      </trkpt>
      <trkpt lat="43.33888" lon="-0.25184">
        <ele>299.4336</ele>
        <time>2021-07-05T10:49:43Z</time>
      </trkpt>
      <trkpt lat="43.33797" lon="-0.25331">
        <ele>299.6762</ele>
        <time>2021-07-05T10:49:54Z</time>
      </trkpt>
      <trkpt lat="43.33776" lon="-0.25617">
        <ele>298.2275</ele>
        <time>2021-07-05T10:50:05Z</time>
      </trkpt>
      <trkpt lat="43.33826" lon="-0.25887">
        <ele>295.5064</ele>
        <time>2021-07-05T10:50:16Z</time>
      </trkpt>
      <trkpt lat="43.33851" lon="-0.26165">
        <ele>295.8951</ele>
        <time>2021-07-05T10:50:27Z</time>
      </trkpt>
      <trkpt lat="43.33816" lon="-0.26435">
        <ele>301.6419</ele>
        <time>2021-07-05T10:50:38Z</time>
      </trkpt>
      <trkpt lat="43.33749" lon="-0.26695">
        <ele>309.6538</ele>
        <time>2021-07-05T10:50:49Z</time>
      </trkpt>
      <trkpt lat="43.33699" lon="-0.2697">
        <ele>320.7912</ele>
        <time>2021-07-05T10:51:00Z</time>
      </trkpt>
      <trkpt lat="43.33755" lon="-0.27219">
        <ele>333.2486</ele>
        <time>2021-07-05T10:51:11Z</time>
      </trkpt>
      <trkpt lat="43.33701" lon="-0.27388">
        <ele>335.4627</ele>
        <time>2021-07-05T10:51:22Z</time>
      </trkpt>
      <trkpt lat="43.33622" lon="-0.2751">
        <ele>338.2461</ele>
        <time>2021-07-05T10:51:33Z</time>
      </trkpt>
      <trkpt lat="43.33627" lon="-0.27567">
        <ele>338.822</ele>
        <time>2021-07-05T10:51:44Z</time>
      </trkpt>
      <trkpt lat="43.33563" lon="-0.27706">
        <ele>330.1759</ele>
        <time>2021-07-05T10:51:55Z</time>
      </trkpt>
      <trkpt lat="43.33461" lon="-0.27835">
        <ele>319.9694</ele>
        <time>2021-07-05T10:52:06Z</time>
      </trkpt>
      <trkpt lat="43.33308" lon="-0.27816">
        <ele>312.4077</ele>
        <time>2021-07-05T10:52:17Z</time>
      </trkpt>
      <trkpt lat="43.33148" lon="-0.27686">
        <ele>297.4678</ele>
        <time>2021-07-05T10:52:28Z</time>
      </trkpt>
      <trkpt lat="43.33064" lon="-0.27619">
        <ele>280.5663</ele>
        <time>2021-07-05T10:52:39Z</time>
      </trkpt>
      <trkpt lat="43.33122" lon="-0.27851">
        <ele>277.9945</ele>
        <time>2021-07-05T10:52:50Z</time>
      </trkpt>
      <trkpt lat="43.33224" lon="-0.28062">
        <ele>264.4432</ele>
        <time>2021-07-05T10:53:01Z</time>
      </trkpt>
      <trkpt lat="43.3314" lon="-0.28262">
        <ele>251.2546</ele>
        <time>2021-07-05T10:53:12Z</time>
      </trkpt>
      <trkpt lat="43.32983" lon="-0.28438">
        <ele>245.6173</ele>
        <time>2021-07-05T10:53:23Z</time>
      </trkpt>
      <trkpt lat="43.32899" lon="-0.28637">
        <ele>243.5323</ele>
        <time>2021-07-05T10:53:34Z</time>
      </trkpt>
      <trkpt lat="43.32891" lon="-0.28658">
        <ele>242.9737</ele>
        <time>2021-07-05T10:53:45Z</time>
      </trkpt>
      <trkpt lat="43.32885" lon="-0.28669">
        <ele>243.7978</ele>
        <time>2021-07-05T10:53:57Z</time>
      </trkpt>
      <trkpt lat="43.32814" lon="-0.28853">
        <ele>241.68</ele>
        <time>2021-07-05T10:54:08Z</time>
      </trkpt>
      <trkpt lat="43.32726" lon="-0.2904">
        <ele>239.9103</ele>
        <time>2021-07-05T10:54:19Z</time>
      </trkpt>
      <trkpt lat="43.32616" lon="-0.29271">
        <ele>237.6193</ele>
        <time>2021-07-05T10:54:30Z</time>
      </trkpt>
      <trkpt lat="43.32504" lon="-0.29504">
        <ele>239.6047</ele>
        <time>2021-07-05T10:54:41Z</time>
      </trkpt>
      <trkpt lat="43.32388" lon="-0.29746">
        <ele>239.6121</ele>
        <time>2021-07-05T10:54:52Z</time>
      </trkpt>
      <trkpt lat="43.32324" lon="-0.29901">
        <ele>238.5596</ele>
        <time>2021-07-05T10:55:03Z</time>
      </trkpt>
      <trkpt lat="43.32325" lon="-0.29919">
        <ele>239.9519</ele>
        <time>2021-07-05T10:55:14Z</time>
      </trkpt>
      <trkpt lat="43.32239" lon="-0.30084">
        <ele>241.0361</ele>
        <time>2021-07-05T10:55:25Z</time>
      </trkpt>
      <trkpt lat="43.32135" lon="-0.30287">
        <ele>239.5927</ele>
        <time>2021-07-05T10:55:36Z</time>
      </trkpt>
      <trkpt lat="43.32058" lon="-0.30424">
        <ele>239.5675</ele>
        <time>2021-07-05T10:55:47Z</time>
      </trkpt>
      <trkpt lat="43.32046" lon="-0.30448">
        <ele>239.5121</ele>
        <time>2021-07-05T10:55:59Z</time>
      </trkpt>
      <trkpt lat="43.32044" lon="-0.30452">
        <ele>240.243</ele>
        <time>2021-07-05T10:56:12Z</time>
      </trkpt>
      <trkpt lat="43.32032" lon="-0.3042">
        <ele>239.91</ele>
        <time>2021-07-05T10:56:23Z</time>
      </trkpt>
      <trkpt lat="43.32032" lon="-0.30421">
        <ele>239.3902</ele>
        <time>2021-07-05T10:57:23Z</time>
      </trkpt>
      <trkpt lat="43.32028" lon="-0.30421">
        <ele>239.4267</ele>
        <time>2021-07-05T10:57:47Z</time>
      </trkpt>
      <trkpt lat="43.32015" lon="-0.30418">
        <ele>239.7126</ele>
        <time>2021-07-05T10:57:58Z</time>
      </trkpt>
      <trkpt lat="43.32019" lon="-0.30421">
        <ele>239.3351</ele>
        <time>2021-07-05T10:58:09Z</time>
      </trkpt>
      <trkpt lat="43.32025" lon="-0.30421">
        <ele>239.5571</ele>
        <time>2021-07-05T10:58:24Z</time>
      </trkpt>
      <trkpt lat="43.32035" lon="-0.30422">
        <ele>239.3202</ele>
        <time>2021-07-05T10:58:35Z</time>
      </trkpt>
      <trkpt lat="43.32033" lon="-0.30426">
        <ele>238.9548</ele>
        <time>2021-07-05T10:58:51Z</time>
      </trkpt>
      <trkpt lat="43.32036" lon="-0.30428">
        <ele>238.9119</ele>
        <time>2021-07-05T10:59:02Z</time>
      </trkpt>
      <trkpt lat="43.32032" lon="-0.30429">
        <ele>239.6665</ele>
        <time>2021-07-05T10:59:13Z</time>
      </trkpt>
      <trkpt lat="43.3204" lon="-0.30422">
        <ele>239.3125</ele>
        <time>2021-07-05T10:59:40Z</time>
      </trkpt>
      <trkpt lat="43.32034" lon="-0.30428">
        <ele>239.3125</ele>
        <time>2021-07-05T10:59:52Z</time>
      </trkpt>
      <trkpt lat="43.32037" lon="-0.30424">
        <ele>239.4613</ele>
        <time>2021-07-05T11:00:08Z</time>
      </trkpt>
      <trkpt lat="43.32034" lon="-0.30428">
        <ele>239.9638</ele>
        <time>2021-07-05T11:00:43Z</time>
      </trkpt>
      <trkpt lat="43.32037" lon="-0.30424">
        <ele>238.4035</ele>
        <time>2021-07-05T11:01:00Z</time>
      </trkpt>
      <trkpt lat="43.32034" lon="-0.30428">
        <ele>239.3905</ele>
        <time>2021-07-05T11:01:14Z</time>
      </trkpt>
      <trkpt lat="43.3204" lon="-0.30418">
        <ele>240.8916</ele>
        <time>2021-07-05T11:01:35Z</time>
      </trkpt>
      <trkpt lat="43.3203" lon="-0.30419">
        <ele>240.4681</ele>
        <time>2021-07-05T11:01:46Z</time>
      </trkpt>
      <trkpt lat="43.32029" lon="-0.30418">
        <ele>239.1742</ele>
        <time>2021-07-05T11:02:45Z</time>
      </trkpt>
      <trkpt lat="43.32027" lon="-0.30418">
        <ele>239.5118</ele>
        <time>2021-07-05T11:03:45Z</time>
      </trkpt>
      <trkpt lat="43.32029" lon="-0.30416">
        <ele>240.5913</ele>
        <time>2021-07-05T11:04:45Z</time>
      </trkpt>
      <trkpt lat="43.32028" lon="-0.30416">
        <ele>239.3403</ele>
        <time>2021-07-05T11:05:44Z</time>
      </trkpt>
      <trkpt lat="43.32029" lon="-0.30421">
        <ele>238.6926</ele>
        <time>2021-07-05T11:06:27Z</time>
      </trkpt>
      <trkpt lat="43.32026" lon="-0.30425">
        <ele>241.7203</ele>
        <time>2021-07-05T11:06:42Z</time>
      </trkpt>
      <trkpt lat="43.32021" lon="-0.30434">
        <ele>239.0234</ele>
        <time>2021-07-05T11:06:53Z</time>
      </trkpt>
      <trkpt lat="43.32007" lon="-0.30423">
        <ele>239.1458</ele>
        <time>2021-07-05T11:07:04Z</time>
      </trkpt>
      <trkpt lat="43.32004" lon="-0.3042">
        <ele>238.8627</ele>
        <time>2021-07-05T11:07:15Z</time>
      </trkpt>
      <trkpt lat="43.32017" lon="-0.3043">
        <ele>240.1912</ele>
        <time>2021-07-05T11:07:26Z</time>
      </trkpt>
      <trkpt lat="43.3202" lon="-0.30438">
        <ele>239.9</ele>
        <time>2021-07-05T11:07:37Z</time>
      </trkpt>
      <trkpt lat="43.32022" lon="-0.30443">
        <ele>239.6243</ele>
        <time>2021-07-05T11:08:03Z</time>
      </trkpt>
      <trkpt lat="43.32024" lon="-0.30435">
        <ele>239.1575</ele>
        <time>2021-07-05T11:08:14Z</time>
      </trkpt>
      <trkpt lat="43.32025" lon="-0.30437">
        <ele>238.9424</ele>
        <time>2021-07-05T11:09:13Z</time>
      </trkpt>
      <trkpt lat="43.32025" lon="-0.30432">
        <ele>239.7699</ele>
        <time>2021-07-05T11:09:24Z</time>
      </trkpt>
      <trkpt lat="43.32022" lon="-0.30428">
        <ele>239.6138</ele>
        <time>2021-07-05T11:09:35Z</time>
      </trkpt>
      <trkpt lat="43.32024" lon="-0.30432">
        <ele>239.3884</ele>
        <time>2021-07-05T11:10:15Z</time>
      </trkpt>
      <trkpt lat="43.3202" lon="-0.30438">
        <ele>239.7135</ele>
        <time>2021-07-05T11:10:26Z</time>
      </trkpt>
      <trkpt lat="43.32024" lon="-0.30438">
        <ele>239.4234</ele>
        <time>2021-07-05T11:10:47Z</time>
      </trkpt>
      <trkpt lat="43.32023" lon="-0.30433">
        <ele>239.5525</ele>
        <time>2021-07-05T11:11:00Z</time>
      </trkpt>
      <trkpt lat="43.32022" lon="-0.30428">
        <ele>239.3527</ele>
        <time>2021-07-05T11:11:18Z</time>
      </trkpt>
      <trkpt lat="43.32023" lon="-0.3043">
        <ele>239.2037</ele>
        <time>2021-07-05T11:12:17Z</time>
      </trkpt>
      <trkpt lat="43.3202" lon="-0.30428">
        <ele>239.5427</ele>
        <time>2021-07-05T11:13:16Z</time>
      </trkpt>
      <trkpt lat="43.32023" lon="-0.30429">
        <ele>239.2573</ele>
        <time>2021-07-05T11:13:54Z</time>
      </trkpt>
      <trkpt lat="43.32027" lon="-0.30432">
        <ele>239.0259</ele>
        <time>2021-07-05T11:14:49Z</time>
      </trkpt>
      <trkpt lat="43.32024" lon="-0.30429">
        <ele>239.5141</ele>
        <time>2021-07-05T11:15:04Z</time>
      </trkpt>
      <trkpt lat="43.32028" lon="-0.3043">
        <ele>239.772</ele>
        <time>2021-07-05T11:15:29Z</time>
      </trkpt>
      <trkpt lat="43.32031" lon="-0.30433">
        <ele>239.8246</ele>
        <time>2021-07-05T11:15:53Z</time>
      </trkpt>
      <trkpt lat="43.3203" lon="-0.30438">
        <ele>239.1165</ele>
        <time>2021-07-05T11:16:45Z</time>
      </trkpt>
      <trkpt lat="43.32028" lon="-0.30433">
        <ele>239.6816</ele>
        <time>2021-07-05T11:17:22Z</time>
      </trkpt>
      <trkpt lat="43.32022" lon="-0.30429">
        <ele>239.4801</ele>
        <time>2021-07-05T11:17:33Z</time>
      </trkpt>
      <trkpt lat="43.32022" lon="-0.30434">
        <ele>239.1497</ele>
        <time>2021-07-05T11:17:58Z</time>
      </trkpt>
      <trkpt lat="43.32021" lon="-0.30439">
        <ele>239.4362</ele>
        <time>2021-07-05T11:18:23Z</time>
      </trkpt>
      <trkpt lat="43.32021" lon="-0.30438">
        <ele>239.2634</ele>
        <time>2021-07-05T11:19:22Z</time>
      </trkpt>
      <trkpt lat="43.32022" lon="-0.30432">
        <ele>238.8869</ele>
        <time>2021-07-05T11:19:39Z</time>
      </trkpt>
      <trkpt lat="43.32026" lon="-0.30434">
        <ele>238.4982</ele>
        <time>2021-07-05T11:19:52Z</time>
      </trkpt>
      <trkpt lat="43.32024" lon="-0.30434">
        <ele>239.5952</ele>
        <time>2021-07-05T11:20:50Z</time>
      </trkpt>
      <trkpt lat="43.32021" lon="-0.30431">
        <ele>238.1042</ele>
        <time>2021-07-05T11:21:14Z</time>
      </trkpt>
      <trkpt lat="43.32024" lon="-0.30432">
        <ele>239.6125</ele>
        <time>2021-07-05T11:22:12Z</time>
      </trkpt>
      <trkpt lat="43.32021" lon="-0.30436">
        <ele>239.608</ele>
        <time>2021-07-05T11:22:41Z</time>
      </trkpt>
      <trkpt lat="43.32019" lon="-0.30441">
        <ele>240.5375</ele>
        <time>2021-07-05T11:22:52Z</time>
      </trkpt>
      <trkpt lat="43.32021" lon="-0.30437">
        <ele>238.5145</ele>
        <time>2021-07-05T11:23:27Z</time>
      </trkpt>
      <trkpt lat="43.32025" lon="-0.30421">
        <ele>237.3485</ele>
        <time>2021-07-05T11:23:38Z</time>
      </trkpt>
      <trkpt lat="43.32028" lon="-0.30419">
        <ele>238.812</ele>
        <time>2021-07-05T11:23:55Z</time>
      </trkpt>
      <trkpt lat="43.3203" lon="-0.3042">
        <ele>239.9576</ele>
        <time>2021-07-05T11:24:54Z</time>
      </trkpt>
      <trkpt lat="43.32034" lon="-0.30417">
        <ele>240.1657</ele>
        <time>2021-07-05T11:25:24Z</time>
      </trkpt>
      <trkpt lat="43.32061" lon="-0.30391">
        <ele>240.2997</ele>
        <time>2021-07-05T11:25:35Z</time>
      </trkpt>
      <trkpt lat="43.32047" lon="-0.30449">
        <ele>239.9737</ele>
        <time>2021-07-05T11:25:46Z</time>
      </trkpt>
      <trkpt lat="43.31974" lon="-0.306">
        <ele>238.7954</ele>
        <time>2021-07-05T11:25:57Z</time>
      </trkpt>
      <trkpt lat="43.31923" lon="-0.30719">
        <ele>235.5757</ele>
        <time>2021-07-05T11:26:08Z</time>
      </trkpt>
      <trkpt lat="43.31919" lon="-0.30774">
        <ele>235.9051</ele>
        <time>2021-07-05T11:26:19Z</time>
      </trkpt>
      <trkpt lat="43.31975" lon="-0.30894">
        <ele>234.7942</ele>
        <time>2021-07-05T11:26:30Z</time>
      </trkpt>
      <trkpt lat="43.32062" lon="-0.31055">
        <ele>235.2641</ele>
        <time>2021-07-05T11:26:41Z</time>
      </trkpt>
      <trkpt lat="43.3215" lon="-0.31216">
        <ele>235.096</ele>
        <time>2021-07-05T11:26:52Z</time>
      </trkpt>
      <trkpt lat="43.32256" lon="-0.31414">
        <ele>233.9947</ele>
        <time>2021-07-05T11:27:03Z</time>
      </trkpt>
      <trkpt lat="43.32381" lon="-0.31644">
        <ele>233.2176</ele>
        <time>2021-07-05T11:27:14Z</time>
      </trkpt>
      <trkpt lat="43.3251" lon="-0.31882">
        <ele>233.4612</ele>
        <time>2021-07-05T11:27:25Z</time>
      </trkpt>
      <trkpt lat="43.32613" lon="-0.32151">
        <ele>232.7258</ele>
        <time>2021-07-05T11:27:36Z</time>
      </trkpt>
      <trkpt lat="43.32636" lon="-0.32401">
        <ele>230.4734</ele>
        <time>2021-07-05T11:27:47Z</time>
      </trkpt>
      <trkpt lat="43.3265" lon="-0.32582">
        <ele>229.4954</ele>
        <time>2021-07-05T11:27:58Z</time>
      </trkpt>
      <trkpt lat="43.3267" lon="-0.32824">
        <ele>227.3306</ele>
        <time>2021-07-05T11:28:09Z</time>
      </trkpt>
      <trkpt lat="43.32692" lon="-0.3306">
        <ele>226.2587</ele>
        <time>2021-07-05T11:28:20Z</time>
      </trkpt>
      <trkpt lat="43.32716" lon="-0.33307">
        <ele>224.9697</ele>
        <time>2021-07-05T11:28:31Z</time>
      </trkpt>
      <trkpt lat="43.32755" lon="-0.3355">
        <ele>222.7221</ele>
        <time>2021-07-05T11:28:42Z</time>
      </trkpt>
      <trkpt lat="43.32798" lon="-0.33787">
        <ele>221.2801</ele>
        <time>2021-07-05T11:28:53Z</time>
      </trkpt>
      <trkpt lat="43.32848" lon="-0.34013">
        <ele>221.5355</ele>
        <time>2021-07-05T11:29:04Z</time>
      </trkpt>
      <trkpt lat="43.32901" lon="-0.34242">
        <ele>221.2706</ele>
        <time>2021-07-05T11:29:15Z</time>
      </trkpt>
      <trkpt lat="43.32963" lon="-0.34475">
        <ele>219.5941</ele>
        <time>2021-07-05T11:29:26Z</time>
      </trkpt>
      <trkpt lat="43.32907" lon="-0.3469">
        <ele>218.1657</ele>
        <time>2021-07-05T11:29:37Z</time>
      </trkpt>
      <trkpt lat="43.32866" lon="-0.34916">
        <ele>219.0208</ele>
        <time>2021-07-05T11:29:48Z</time>
      </trkpt>
      <trkpt lat="43.32876" lon="-0.35121">
        <ele>218.1638</ele>
        <time>2021-07-05T11:29:59Z</time>
      </trkpt>
      <trkpt lat="43.32935" lon="-0.3531">
        <ele>217.7459</ele>
        <time>2021-07-05T11:30:10Z</time>
      </trkpt>
      <trkpt lat="43.32982" lon="-0.35453">
        <ele>215.9264</ele>
        <time>2021-07-05T11:30:21Z</time>
      </trkpt>
      <trkpt lat="43.32998" lon="-0.35502">
        <ele>216.2915</ele>
        <time>2021-07-05T11:30:32Z</time>
      </trkpt>
      <trkpt lat="43.33008" lon="-0.3552">
        <ele>216.8348</ele>
        <time>2021-07-05T11:30:43Z</time>
      </trkpt>
      <trkpt lat="43.33034" lon="-0.35613">
        <ele>216.1199</ele>
        <time>2021-07-05T11:30:54Z</time>
      </trkpt>
      <trkpt lat="43.33093" lon="-0.35769">
        <ele>216.6811</ele>
        <time>2021-07-05T11:31:05Z</time>
      </trkpt>
      <trkpt lat="43.33213" lon="-0.35838">
        <ele>215.6732</ele>
        <time>2021-07-05T11:31:16Z</time>
      </trkpt>
      <trkpt lat="43.33382" lon="-0.35813">
        <ele>213.8251</ele>
        <time>2021-07-05T11:31:27Z</time>
      </trkpt>
      <trkpt lat="43.33479" lon="-0.35997">
        <ele>212.2946</ele>
        <time>2021-07-05T11:31:38Z</time>
      </trkpt>
      <trkpt lat="43.33552" lon="-0.36224">
        <ele>211.9535</ele>
        <time>2021-07-05T11:31:49Z</time>
      </trkpt>
      <trkpt lat="43.33636" lon="-0.36468">
        <ele>211.5773</ele>
        <time>2021-07-05T11:32:00Z</time>
      </trkpt>
      <trkpt lat="43.33721" lon="-0.3672">
        <ele>210.8788</ele>
        <time>2021-07-05T11:32:11Z</time>
      </trkpt>
      <trkpt lat="43.33809" lon="-0.36975">
        <ele>209.041</ele>
        <time>2021-07-05T11:32:22Z</time>
      </trkpt>
      <trkpt lat="43.33895" lon="-0.37224">
        <ele>207.2671</ele>
        <time>2021-07-05T11:32:33Z</time>
      </trkpt>
      <trkpt lat="43.33973" lon="-0.37456">
        <ele>206.7547</ele>
        <time>2021-07-05T11:32:44Z</time>
      </trkpt>
      <trkpt lat="43.33994" lon="-0.37685">
        <ele>206.5602</ele>
        <time>2021-07-05T11:32:55Z</time>
      </trkpt>
      <trkpt lat="43.33898" lon="-0.37852">
        <ele>208.2434</ele>
        <time>2021-07-05T11:33:06Z</time>
      </trkpt>
      <trkpt lat="43.33865" lon="-0.3794">
        <ele>207.4256</ele>
        <time>2021-07-05T11:33:17Z</time>
      </trkpt>
      <trkpt lat="43.33859" lon="-0.38086">
        <ele>207.6604</ele>
        <time>2021-07-05T11:33:28Z</time>
      </trkpt>
      <trkpt lat="43.33914" lon="-0.38301">
        <ele>206.7922</ele>
        <time>2021-07-05T11:33:39Z</time>
      </trkpt>
      <trkpt lat="43.33987" lon="-0.38478">
        <ele>204.3805</ele>
        <time>2021-07-05T11:33:50Z</time>
      </trkpt>
      <trkpt lat="43.34025" lon="-0.38589">
        <ele>203.5103</ele>
        <time>2021-07-05T11:34:01Z</time>
      </trkpt>
      <trkpt lat="43.3408" lon="-0.38799">
        <ele>202.8532</ele>
        <time>2021-07-05T11:34:12Z</time>
      </trkpt>
      <trkpt lat="43.34102" lon="-0.39049">
        <ele>204.0667</ele>
        <time>2021-07-05T11:34:23Z</time>
      </trkpt>
      <trkpt lat="43.34021" lon="-0.39287">
        <ele>202.5734</ele>
        <time>2021-07-05T11:34:34Z</time>
      </trkpt>
      <trkpt lat="43.33917" lon="-0.39529">
        <ele>201.1888</ele>
        <time>2021-07-05T11:34:45Z</time>
      </trkpt>
      <trkpt lat="43.33938" lon="-0.39815">
        <ele>200.4506</ele>
        <time>2021-07-05T11:34:56Z</time>
      </trkpt>
      <trkpt lat="43.33978" lon="-0.40074">
        <ele>199.1777</ele>
        <time>2021-07-05T11:35:07Z</time>
      </trkpt>
      <trkpt lat="43.34025" lon="-0.40356">
        <ele>198.0118</ele>
        <time>2021-07-05T11:35:18Z</time>
      </trkpt>
      <trkpt lat="43.3409" lon="-0.40635">
        <ele>197.6623</ele>
        <time>2021-07-05T11:35:29Z</time>
      </trkpt>
      <trkpt lat="43.34173" lon="-0.40882">
        <ele>196.2861</ele>
        <time>2021-07-05T11:35:40Z</time>
      </trkpt>
      <trkpt lat="43.34246" lon="-0.41133">
        <ele>195.8873</ele>
        <time>2021-07-05T11:35:51Z</time>
      </trkpt>
      <trkpt lat="43.34325" lon="-0.41396">
        <ele>194.7387</ele>
        <time>2021-07-05T11:36:02Z</time>
      </trkpt>
      <trkpt lat="43.3442" lon="-0.41713">
        <ele>193.5899</ele>
        <time>2021-07-05T11:36:13Z</time>
      </trkpt>
      <trkpt lat="43.34483" lon="-0.4203">
        <ele>192.3323</ele>
        <time>2021-07-05T11:36:24Z</time>
      </trkpt>
      <trkpt lat="43.34529" lon="-0.42233">
        <ele>191.5043</ele>
        <time>2021-07-05T11:36:35Z</time>
      </trkpt>
      <trkpt lat="43.34507" lon="-0.42486">
        <ele>188.2194</ele>
        <time>2021-07-05T11:36:46Z</time>
      </trkpt>
      <trkpt lat="43.34406" lon="-0.4274">
        <ele>188.5446</ele>
        <time>2021-07-05T11:36:57Z</time>
      </trkpt>
      <trkpt lat="43.34443" lon="-0.42963">
        <ele>187.9632</ele>
        <time>2021-07-05T11:37:08Z</time>
      </trkpt>
      <trkpt lat="43.34467" lon="-0.43103">
        <ele>188.4838</ele>
        <time>2021-07-05T11:37:19Z</time>
      </trkpt>
      <trkpt lat="43.34443" lon="-0.43315">
        <ele>185.4016</ele>
        <time>2021-07-05T11:37:30Z</time>
      </trkpt>
      <trkpt lat="43.34453" lon="-0.43462">
        <ele>184.5354</ele>
        <time>2021-07-05T11:37:41Z</time>
      </trkpt>
      <trkpt lat="43.34465" lon="-0.437">
        <ele>179.6975</ele>
        <time>2021-07-05T11:37:52Z</time>
      </trkpt>
      <trkpt lat="43.34465" lon="-0.43939">
        <ele>175.6305</ele>
        <time>2021-07-05T11:38:03Z</time>
      </trkpt>
      <trkpt lat="43.34465" lon="-0.44215">
        <ele>170.4777</ele>
        <time>2021-07-05T11:38:14Z</time>
      </trkpt>
      <trkpt lat="43.34477" lon="-0.44531">
        <ele>163.6474</ele>
        <time>2021-07-05T11:38:25Z</time>
      </trkpt>
      <trkpt lat="43.34538" lon="-0.44843">
        <ele>158.495</ele>
        <time>2021-07-05T11:38:36Z</time>
      </trkpt>
      <trkpt lat="43.34603" lon="-0.45131">
        <ele>156.6847</ele>
        <time>2021-07-05T11:38:47Z</time>
      </trkpt>
      <trkpt lat="43.3456" lon="-0.45418">
        <ele>160.876</ele>
        <time>2021-07-05T11:38:58Z</time>
      </trkpt>
      <trkpt lat="43.34417" lon="-0.45647">
        <ele>161.3472</ele>
        <time>2021-07-05T11:39:09Z</time>
      </trkpt>
      <trkpt lat="43.34226" lon="-0.45792">
        <ele>156.9294</ele>
        <time>2021-07-05T11:39:20Z</time>
      </trkpt>
      <trkpt lat="43.34003" lon="-0.45824">
        <ele>152.2184</ele>
        <time>2021-07-05T11:39:31Z</time>
      </trkpt>
      <trkpt lat="43.33838" lon="-0.4595">
        <ele>146.5667</ele>
        <time>2021-07-05T11:39:42Z</time>
      </trkpt>
      <trkpt lat="43.33732" lon="-0.46036">
        <ele>144.6612</ele>
        <time>2021-07-05T11:39:53Z</time>
      </trkpt>
      <trkpt lat="43.33659" lon="-0.46083">
        <ele>145.4063</ele>
        <time>2021-07-05T11:40:04Z</time>
      </trkpt>
      <trkpt lat="43.33523" lon="-0.46159">
        <ele>146.1715</ele>
        <time>2021-07-05T11:40:15Z</time>
      </trkpt>
      <trkpt lat="43.3335" lon="-0.46347">
        <ele>150.3509</ele>
        <time>2021-07-05T11:40:26Z</time>
      </trkpt>
      <trkpt lat="43.33165" lon="-0.46519">
        <ele>149.4771</ele>
        <time>2021-07-05T11:40:37Z</time>
      </trkpt>
      <trkpt lat="43.3298" lon="-0.46676">
        <ele>149.5421</ele>
        <time>2021-07-05T11:40:48Z</time>
      </trkpt>
      <trkpt lat="43.32785" lon="-0.4688">
        <ele>147.2377</ele>
        <time>2021-07-05T11:40:59Z</time>
      </trkpt>
      <trkpt lat="43.32642" lon="-0.46993">
        <ele>145.3886</ele>
        <time>2021-07-05T11:41:10Z</time>
      </trkpt>
      <trkpt lat="43.32626" lon="-0.47069">
        <ele>149.2764</ele>
        <time>2021-07-05T11:41:21Z</time>
      </trkpt>
      <trkpt lat="43.32695" lon="-0.47238">
        <ele>146.5492</ele>
        <time>2021-07-05T11:41:32Z</time>
      </trkpt>
      <trkpt lat="43.32768" lon="-0.47443">
        <ele>145.6992</ele>
        <time>2021-07-05T11:41:43Z</time>
      </trkpt>
      <trkpt lat="43.3286" lon="-0.47706">
        <ele>143.7616</ele>
        <time>2021-07-05T11:41:54Z</time>
      </trkpt>
      <trkpt lat="43.32942" lon="-0.47942">
        <ele>143.4436</ele>
        <time>2021-07-05T11:42:05Z</time>
      </trkpt>
      <trkpt lat="43.33027" lon="-0.48218">
        <ele>140.6397</ele>
        <time>2021-07-05T11:42:16Z</time>
      </trkpt>
      <trkpt lat="43.33097" lon="-0.48492">
        <ele>140.9314</ele>
        <time>2021-07-05T11:42:27Z</time>
      </trkpt>
      <trkpt lat="43.3317" lon="-0.48779">
        <ele>139.7544</ele>
        <time>2021-07-05T11:42:38Z</time>
      </trkpt>
      <trkpt lat="43.33242" lon="-0.49065">
        <ele>139.2193</ele>
        <time>2021-07-05T11:42:49Z</time>
      </trkpt>
      <trkpt lat="43.33386" lon="-0.49382">
        <ele>138.0169</ele>
        <time>2021-07-05T11:43:00Z</time>
      </trkpt>
      <trkpt lat="43.33569" lon="-0.49625">
        <ele>136.5555</ele>
        <time>2021-07-05T11:43:11Z</time>
      </trkpt>
      <trkpt lat="43.33712" lon="-0.49872">
        <ele>136.1627</ele>
        <time>2021-07-05T11:43:22Z</time>
      </trkpt>
      <trkpt lat="43.3378" lon="-0.50205">
        <ele>135.3623</ele>
        <time>2021-07-05T11:43:33Z</time>
      </trkpt>
      <trkpt lat="43.33809" lon="-0.50599">
        <ele>133.7589</ele>
        <time>2021-07-05T11:43:44Z</time>
      </trkpt>
      <trkpt lat="43.33931" lon="-0.5094">
        <ele>133.5093</ele>
        <time>2021-07-05T11:43:55Z</time>
      </trkpt>
      <trkpt lat="43.34124" lon="-0.51197">
        <ele>131.2833</ele>
        <time>2021-07-05T11:44:06Z</time>
      </trkpt>
      <trkpt lat="43.34319" lon="-0.51451">
        <ele>130.481</ele>
        <time>2021-07-05T11:44:17Z</time>
      </trkpt>
      <trkpt lat="43.34517" lon="-0.51708">
        <ele>130.055</ele>
        <time>2021-07-05T11:44:28Z</time>
      </trkpt>
      <trkpt lat="43.34711" lon="-0.51954">
        <ele>128.8712</ele>
        <time>2021-07-05T11:44:39Z</time>
      </trkpt>
      <trkpt lat="43.34862" lon="-0.52154">
        <ele>130.2492</ele>
        <time>2021-07-05T11:44:50Z</time>
      </trkpt>
      <trkpt lat="43.34994" lon="-0.52333">
        <ele>130.2704</ele>
        <time>2021-07-05T11:45:01Z</time>
      </trkpt>
      <trkpt lat="43.35111" lon="-0.52508">
        <ele>130.694</ele>
        <time>2021-07-05T11:45:12Z</time>
      </trkpt>
      <trkpt lat="43.35167" lon="-0.52623">
        <ele>129.256</ele>
        <time>2021-07-05T11:45:23Z</time>
      </trkpt>
      <trkpt lat="43.35241" lon="-0.52829">
        <ele>130.0983</ele>
        <time>2021-07-05T11:45:34Z</time>
      </trkpt>
      <trkpt lat="43.35331" lon="-0.53065">
        <ele>128.2133</ele>
        <time>2021-07-05T11:45:45Z</time>
      </trkpt>
      <trkpt lat="43.35422" lon="-0.53303">
        <ele>128.3413</ele>
        <time>2021-07-05T11:45:56Z</time>
      </trkpt>
      <trkpt lat="43.35513" lon="-0.53539">
        <ele>128.1574</ele>
        <time>2021-07-05T11:46:07Z</time>
      </trkpt>
      <trkpt lat="43.35618" lon="-0.53849">
        <ele>127.8853</ele>
        <time>2021-07-05T11:46:18Z</time>
      </trkpt>
      <trkpt lat="43.35729" lon="-0.54228">
        <ele>125.8053</ele>
        <time>2021-07-05T11:46:29Z</time>
      </trkpt>
      <trkpt lat="43.35814" lon="-0.5461">
        <ele>122.6854</ele>
        <time>2021-07-05T11:46:40Z</time>
      </trkpt>
      <trkpt lat="43.35885" lon="-0.54965">
        <ele>119.4063</ele>
        <time>2021-07-05T11:46:51Z</time>
      </trkpt>
      <trkpt lat="43.35948" lon="-0.55208">
        <ele>116.7046</ele>
        <time>2021-07-05T11:47:02Z</time>
      </trkpt>
      <trkpt lat="43.3599" lon="-0.55306">
        <ele>119.7275</ele>
        <time>2021-07-05T11:47:13Z</time>
      </trkpt>
      <trkpt lat="43.35994" lon="-0.5544">
        <ele>120.0998</ele>
        <time>2021-07-05T11:47:24Z</time>
      </trkpt>
      <trkpt lat="43.36023" lon="-0.55639">
        <ele>121.3497</ele>
        <time>2021-07-05T11:47:35Z</time>
      </trkpt>
      <trkpt lat="43.36065" lon="-0.55888">
        <ele>119.8715</ele>
        <time>2021-07-05T11:47:46Z</time>
      </trkpt>
      <trkpt lat="43.36124" lon="-0.56186">
        <ele>119.8683</ele>
        <time>2021-07-05T11:47:57Z</time>
      </trkpt>
      <trkpt lat="43.362" lon="-0.56614">
        <ele>118.2394</ele>
        <time>2021-07-05T11:48:08Z</time>
      </trkpt>
      <trkpt lat="43.36196" lon="-0.56992">
        <ele>116.9951</ele>
        <time>2021-07-05T11:48:19Z</time>
      </trkpt>
      <trkpt lat="43.36234" lon="-0.57322">
        <ele>117.0278</ele>
        <time>2021-07-05T11:48:30Z</time>
      </trkpt>
      <trkpt lat="43.36384" lon="-0.57589">
        <ele>115.0949</ele>
        <time>2021-07-05T11:48:41Z</time>
      </trkpt>
      <trkpt lat="43.36489" lon="-0.57719">
        <ele>114.4411</ele>
        <time>2021-07-05T11:48:52Z</time>
      </trkpt>
      <trkpt lat="43.36586" lon="-0.57948">
        <ele>114.0845</ele>
        <time>2021-07-05T11:49:03Z</time>
      </trkpt>
      <trkpt lat="43.36698" lon="-0.5814">
        <ele>113.1478</ele>
        <time>2021-07-05T11:49:14Z</time>
      </trkpt>
      <trkpt lat="43.3681" lon="-0.58339">
        <ele>113.2701</ele>
        <time>2021-07-05T11:49:25Z</time>
      </trkpt>
      <trkpt lat="43.36923" lon="-0.58541">
        <ele>114.7515</ele>
        <time>2021-07-05T11:49:36Z</time>
      </trkpt>
      <trkpt lat="43.37043" lon="-0.58755">
        <ele>114.1838</ele>
        <time>2021-07-05T11:49:47Z</time>
      </trkpt>
      <trkpt lat="43.37148" lon="-0.58943">
        <ele>111.7594</ele>
        <time>2021-07-05T11:49:58Z</time>
      </trkpt>
      <trkpt lat="43.37263" lon="-0.59149">
        <ele>111.5095</ele>
        <time>2021-07-05T11:50:09Z</time>
      </trkpt>
      <trkpt lat="43.37361" lon="-0.59367">
        <ele>112.3221</ele>
        <time>2021-07-05T11:50:20Z</time>
      </trkpt>
      <trkpt lat="43.3738" lon="-0.5963">
        <ele>109.7513</ele>
        <time>2021-07-05T11:50:31Z</time>
      </trkpt>
      <trkpt lat="43.37403" lon="-0.59856">
        <ele>108.6585</ele>
        <time>2021-07-05T11:50:42Z</time>
      </trkpt>
      <trkpt lat="43.37506" lon="-0.60037">
        <ele>108.6773</ele>
        <time>2021-07-05T11:50:53Z</time>
      </trkpt>
      <trkpt lat="43.376" lon="-0.60176">
        <ele>109.7179</ele>
        <time>2021-07-05T11:51:04Z</time>
      </trkpt>
      <trkpt lat="43.37683" lon="-0.60287">
        <ele>109.1799</ele>
        <time>2021-07-05T11:51:15Z</time>
      </trkpt>
      <trkpt lat="43.37751" lon="-0.6032">
        <ele>107.7066</ele>
        <time>2021-07-05T11:51:26Z</time>
      </trkpt>
      <trkpt lat="43.37782" lon="-0.60423">
        <ele>109.0759</ele>
        <time>2021-07-05T11:51:37Z</time>
      </trkpt>
      <trkpt lat="43.37884" lon="-0.60557">
        <ele>106.9545</ele>
        <time>2021-07-05T11:51:48Z</time>
      </trkpt>
      <trkpt lat="43.37984" lon="-0.60694">
        <ele>105.5207</ele>
        <time>2021-07-05T11:51:59Z</time>
      </trkpt>
      <trkpt lat="43.38106" lon="-0.60865">
        <ele>104.5303</ele>
        <time>2021-07-05T11:52:10Z</time>
      </trkpt>
      <trkpt lat="43.38209" lon="-0.61005">
        <ele>104.1956</ele>
        <time>2021-07-05T11:52:21Z</time>
      </trkpt>
      <trkpt lat="43.38307" lon="-0.61086">
        <ele>104.0495</ele>
        <time>2021-07-05T11:52:32Z</time>
      </trkpt>
      <trkpt lat="43.38364" lon="-0.61108">
        <ele>104.7125</ele>
        <time>2021-07-05T11:52:43Z</time>
      </trkpt>
      <trkpt lat="43.38295" lon="-0.61231">
        <ele>104.1968</ele>
        <time>2021-07-05T11:52:54Z</time>
      </trkpt>
      <trkpt lat="43.38229" lon="-0.61372">
        <ele>104.1854</ele>
        <time>2021-07-05T11:53:05Z</time>
      </trkpt>
      <trkpt lat="43.38153" lon="-0.61522">
        <ele>106.1079</ele>
        <time>2021-07-05T11:53:16Z</time>
      </trkpt>
      <trkpt lat="43.38074" lon="-0.61682">
        <ele>102.9936</ele>
        <time>2021-07-05T11:53:27Z</time>
      </trkpt>
      <trkpt lat="43.3799" lon="-0.61849">
        <ele>107.2713</ele>
        <time>2021-07-05T11:53:38Z</time>
      </trkpt>
      <trkpt lat="43.37911" lon="-0.62009">
        <ele>106.4606</ele>
        <time>2021-07-05T11:53:49Z</time>
      </trkpt>
      <trkpt lat="43.37825" lon="-0.62156">
        <ele>108.3385</ele>
        <time>2021-07-05T11:54:00Z</time>
      </trkpt>
      <trkpt lat="43.37732" lon="-0.62248">
        <ele>108.4115</ele>
        <time>2021-07-05T11:54:11Z</time>
      </trkpt>
      <trkpt lat="43.37614" lon="-0.62274">
        <ele>109.3221</ele>
        <time>2021-07-05T11:54:22Z</time>
      </trkpt>
      <trkpt lat="43.37501" lon="-0.62347">
        <ele>107.7725</ele>
        <time>2021-07-05T11:54:33Z</time>
      </trkpt>
      <trkpt lat="43.37422" lon="-0.62409">
        <ele>106.4367</ele>
        <time>2021-07-05T11:54:44Z</time>
      </trkpt>
      <trkpt lat="43.37333" lon="-0.6248">
        <ele>107.5215</ele>
        <time>2021-07-05T11:54:55Z</time>
      </trkpt>
      <trkpt lat="43.37284" lon="-0.62569">
        <ele>107.691</ele>
        <time>2021-07-05T11:55:06Z</time>
      </trkpt>
      <trkpt lat="43.37223" lon="-0.62691">
        <ele>108.8962</ele>
        <time>2021-07-05T11:55:17Z</time>
      </trkpt>
      <trkpt lat="43.37269" lon="-0.62829">
        <ele>119.6175</ele>
        <time>2021-07-05T11:55:28Z</time>
      </trkpt>
      <trkpt lat="43.37243" lon="-0.62965">
        <ele>124.7448</ele>
        <time>2021-07-05T11:55:39Z</time>
      </trkpt>
      <trkpt lat="43.37173" lon="-0.63076">
        <ele>137.4708</ele>
        <time>2021-07-05T11:55:50Z</time>
      </trkpt>
      <trkpt lat="43.37146" lon="-0.63178">
        <ele>143.5266</ele>
        <time>2021-07-05T11:56:01Z</time>
      </trkpt>
      <trkpt lat="43.37202" lon="-0.6326">
        <ele>142.8275</ele>
        <time>2021-07-05T11:56:12Z</time>
      </trkpt>
      <trkpt lat="43.37106" lon="-0.63288">
        <ele>146.1146</ele>
        <time>2021-07-05T11:56:23Z</time>
      </trkpt>
      <trkpt lat="43.36986" lon="-0.63345">
        <ele>149.2839</ele>
        <time>2021-07-05T11:56:34Z</time>
      </trkpt>
      <trkpt lat="43.36887" lon="-0.63457">
        <ele>150.4326</ele>
        <time>2021-07-05T11:56:45Z</time>
      </trkpt>
      <trkpt lat="43.36751" lon="-0.63502">
        <ele>144.1621</ele>
        <time>2021-07-05T11:56:56Z</time>
      </trkpt>
      <trkpt lat="43.36623" lon="-0.63527">
        <ele>137.538</ele>
        <time>2021-07-05T11:57:07Z</time>
      </trkpt>
      <trkpt lat="43.36494" lon="-0.63625">
        <ele>127.3998</ele>
        <time>2021-07-05T11:57:18Z</time>
      </trkpt>
      <trkpt lat="43.36517" lon="-0.63823">
        <ele>122.9334</ele>
        <time>2021-07-05T11:57:29Z</time>
      </trkpt>
      <trkpt lat="43.3659" lon="-0.64168">
        <ele>135.7217</ele>
        <time>2021-07-05T11:57:40Z</time>
      </trkpt>
      <trkpt lat="43.36698" lon="-0.6453">
        <ele>151.4902</ele>
        <time>2021-07-05T11:57:51Z</time>
      </trkpt>
      <trkpt lat="43.36746" lon="-0.64917">
        <ele>159.7395</ele>
        <time>2021-07-05T11:58:02Z</time>
      </trkpt>
      <trkpt lat="43.36726" lon="-0.65233">
        <ele>169.786</ele>
        <time>2021-07-05T11:58:13Z</time>
      </trkpt>
      <trkpt lat="43.36557" lon="-0.65367">
        <ele>166.429</ele>
        <time>2021-07-05T11:58:24Z</time>
      </trkpt>
      <trkpt lat="43.36296" lon="-0.65447">
        <ele>178.1572</ele>
        <time>2021-07-05T11:58:35Z</time>
      </trkpt>
      <trkpt lat="43.36062" lon="-0.65626">
        <ele>190.0483</ele>
        <time>2021-07-05T11:58:46Z</time>
      </trkpt>
      <trkpt lat="43.35883" lon="-0.6591">
        <ele>209.8716</ele>
        <time>2021-07-05T11:58:57Z</time>
      </trkpt>
      <trkpt lat="43.35804" lon="-0.66167">
        <ele>203.6533</ele>
        <time>2021-07-05T11:59:08Z</time>
      </trkpt>
      <trkpt lat="43.3577" lon="-0.6653">
        <ele>186.1291</ele>
        <time>2021-07-05T11:59:19Z</time>
      </trkpt>
      <trkpt lat="43.35699" lon="-0.66886">
        <ele>163.6666</ele>
        <time>2021-07-05T11:59:30Z</time>
      </trkpt>
      <trkpt lat="43.35737" lon="-0.67171">
        <ele>145.5067</ele>
        <time>2021-07-05T11:59:41Z</time>
      </trkpt>
      <trkpt lat="43.35676" lon="-0.67428">
        <ele>134.3125</ele>
        <time>2021-07-05T11:59:52Z</time>
      </trkpt>
      <trkpt lat="43.35631" lon="-0.67689">
        <ele>138.5527</ele>
        <time>2021-07-05T12:00:03Z</time>
      </trkpt>
      <trkpt lat="43.35582" lon="-0.67955">
        <ele>142.5892</ele>
        <time>2021-07-05T12:00:14Z</time>
      </trkpt>
      <trkpt lat="43.35498" lon="-0.68195">
        <ele>144.0465</ele>
        <time>2021-07-05T12:00:25Z</time>
      </trkpt>
      <trkpt lat="43.35347" lon="-0.68436">
        <ele>143.3684</ele>
        <time>2021-07-05T12:00:36Z</time>
      </trkpt>
      <trkpt lat="43.35173" lon="-0.68592">
        <ele>144.6008</ele>
        <time>2021-07-05T12:00:47Z</time>
      </trkpt>
      <trkpt lat="43.34996" lon="-0.68629">
        <ele>149.7606</ele>
        <time>2021-07-05T12:00:58Z</time>
      </trkpt>
      <trkpt lat="43.34717" lon="-0.68674">
        <ele>155.8279</ele>
        <time>2021-07-05T12:01:09Z</time>
      </trkpt>
      <trkpt lat="43.34428" lon="-0.68742">
        <ele>169.3223</ele>
        <time>2021-07-05T12:01:20Z</time>
      </trkpt>
      <trkpt lat="43.34195" lon="-0.68929">
        <ele>185.8758</ele>
        <time>2021-07-05T12:01:31Z</time>
      </trkpt>
      <trkpt lat="43.33949" lon="-0.68915">
        <ele>202.1489</ele>
        <time>2021-07-05T12:01:42Z</time>
      </trkpt>
      <trkpt lat="43.33857" lon="-0.69161">
        <ele>217.1462</ele>
        <time>2021-07-05T12:01:53Z</time>
      </trkpt>
      <trkpt lat="43.33739" lon="-0.6944">
        <ele>239.1231</ele>
        <time>2021-07-05T12:02:04Z</time>
      </trkpt>
      <trkpt lat="43.336" lon="-0.69372">
        <ele>248.2681</ele>
        <time>2021-07-05T12:02:15Z</time>
      </trkpt>
      <trkpt lat="43.33459" lon="-0.69612">
        <ele>260.086</ele>
        <time>2021-07-05T12:02:26Z</time>
      </trkpt>
      <trkpt lat="43.33308" lon="-0.69895">
        <ele>262.8222</ele>
        <time>2021-07-05T12:02:37Z</time>
      </trkpt>
      <trkpt lat="43.33252" lon="-0.70224">
        <ele>265.7189</ele>
        <time>2021-07-05T12:02:48Z</time>
      </trkpt>
      <trkpt lat="43.33248" lon="-0.70481">
        <ele>271.7686</ele>
        <time>2021-07-05T12:02:59Z</time>
      </trkpt>
      <trkpt lat="43.33149" lon="-0.70778">
        <ele>263.6565</ele>
        <time>2021-07-05T12:03:10Z</time>
      </trkpt>
      <trkpt lat="43.33192" lon="-0.71095">
        <ele>248.9155</ele>
        <time>2021-07-05T12:03:21Z</time>
      </trkpt>
      <trkpt lat="43.3319" lon="-0.71406">
        <ele>227.5179</ele>
        <time>2021-07-05T12:03:32Z</time>
      </trkpt>
      <trkpt lat="43.33011" lon="-0.71624">
        <ele>209.1954</ele>
        <time>2021-07-05T12:03:43Z</time>
      </trkpt>
      <trkpt lat="43.32889" lon="-0.71861">
        <ele>192.6185</ele>
        <time>2021-07-05T12:03:54Z</time>
      </trkpt>
      <trkpt lat="43.3298" lon="-0.7215">
        <ele>175.4134</ele>
        <time>2021-07-05T12:04:05Z</time>
      </trkpt>
      <trkpt lat="43.33001" lon="-0.72467">
        <ele>171.9954</ele>
        <time>2021-07-05T12:04:16Z</time>
      </trkpt>
      <trkpt lat="43.32957" lon="-0.72849">
        <ele>160.3062</ele>
        <time>2021-07-05T12:04:27Z</time>
      </trkpt>
      <trkpt lat="43.32951" lon="-0.73288">
        <ele>153.2633</ele>
        <time>2021-07-05T12:04:38Z</time>
      </trkpt>
      <trkpt lat="43.33022" lon="-0.73681">
        <ele>154.6596</ele>
        <time>2021-07-05T12:04:49Z</time>
      </trkpt>
      <trkpt lat="43.32965" lon="-0.74033">
        <ele>153.0221</ele>
        <time>2021-07-05T12:05:00Z</time>
      </trkpt>
      <trkpt lat="43.32784" lon="-0.74314">
        <ele>148.1079</ele>
        <time>2021-07-05T12:05:11Z</time>
      </trkpt>
      <trkpt lat="43.32655" lon="-0.74617">
        <ele>151.4585</ele>
        <time>2021-07-05T12:05:22Z</time>
      </trkpt>
      <trkpt lat="43.32729" lon="-0.74975">
        <ele>156.5195</ele>
        <time>2021-07-05T12:05:33Z</time>
      </trkpt>
      <trkpt lat="43.32755" lon="-0.75294">
        <ele>143.1686</ele>
        <time>2021-07-05T12:05:44Z</time>
      </trkpt>
      <trkpt lat="43.32637" lon="-0.75605">
        <ele>132.6789</ele>
        <time>2021-07-05T12:05:55Z</time>
      </trkpt>
      <trkpt lat="43.32503" lon="-0.75786">
        <ele>129.0372</ele>
        <time>2021-07-05T12:06:06Z</time>
      </trkpt>
      <trkpt lat="43.32452" lon="-0.75907">
        <ele>128.8785</ele>
        <time>2021-07-05T12:06:17Z</time>
      </trkpt>
      <trkpt lat="43.32407" lon="-0.76093">
        <ele>123.9983</ele>
        <time>2021-07-05T12:06:28Z</time>
      </trkpt>
      <trkpt lat="43.32414" lon="-0.76287">
        <ele>126.1684</ele>
        <time>2021-07-05T12:06:39Z</time>
      </trkpt>
      <trkpt lat="43.32263" lon="-0.7628">
        <ele>121.5525</ele>
        <time>2021-07-05T12:06:50Z</time>
      </trkpt>
      <trkpt lat="43.32257" lon="-0.76416">
        <ele>118.1882</ele>
        <time>2021-07-05T12:07:01Z</time>
      </trkpt>
      <trkpt lat="43.32293" lon="-0.76547">
        <ele>115.07</ele>
        <time>2021-07-05T12:07:12Z</time>
      </trkpt>
      <trkpt lat="43.32413" lon="-0.76685">
        <ele>123.7825</ele>
        <time>2021-07-05T12:07:23Z</time>
      </trkpt>
      <trkpt lat="43.32471" lon="-0.7689">
        <ele>124.1365</ele>
        <time>2021-07-05T12:07:34Z</time>
      </trkpt>
      <trkpt lat="43.32501" lon="-0.77108">
        <ele>125.8746</ele>
        <time>2021-07-05T12:07:45Z</time>
      </trkpt>
      <trkpt lat="43.32508" lon="-0.77303">
        <ele>127.1346</ele>
        <time>2021-07-05T12:07:56Z</time>
      </trkpt>
      <trkpt lat="43.3248" lon="-0.77462">
        <ele>126.9147</ele>
        <time>2021-07-05T12:08:07Z</time>
      </trkpt>
      <trkpt lat="43.32439" lon="-0.77692">
        <ele>127.9275</ele>
        <time>2021-07-05T12:08:18Z</time>
      </trkpt>
      <trkpt lat="43.32401" lon="-0.77904">
        <ele>128.8579</ele>
        <time>2021-07-05T12:08:29Z</time>
      </trkpt>
      <trkpt lat="43.32276" lon="-0.78012">
        <ele>145.1919</ele>
        <time>2021-07-05T12:08:40Z</time>
      </trkpt>
      <trkpt lat="43.32176" lon="-0.78155">
        <ele>158.9698</ele>
        <time>2021-07-05T12:08:51Z</time>
      </trkpt>
      <trkpt lat="43.32136" lon="-0.78329">
        <ele>156.537</ele>
        <time>2021-07-05T12:09:02Z</time>
      </trkpt>
      <trkpt lat="43.321" lon="-0.78554">
        <ele>145.1344</ele>
        <time>2021-07-05T12:09:13Z</time>
      </trkpt>
      <trkpt lat="43.32082" lon="-0.78846">
        <ele>135.7702</ele>
        <time>2021-07-05T12:09:24Z</time>
      </trkpt>
      <trkpt lat="43.32096" lon="-0.7915">
        <ele>125.3566</ele>
        <time>2021-07-05T12:09:35Z</time>
      </trkpt>
      <trkpt lat="43.32071" lon="-0.7946">
        <ele>121.0857</ele>
        <time>2021-07-05T12:09:46Z</time>
      </trkpt>
      <trkpt lat="43.32006" lon="-0.79739">
        <ele>112.9356</ele>
        <time>2021-07-05T12:09:57Z</time>
      </trkpt>
      <trkpt lat="43.31903" lon="-0.7996">
        <ele>119.5642</ele>
        <time>2021-07-05T12:10:08Z</time>
      </trkpt>
      <trkpt lat="43.31854" lon="-0.80254">
        <ele>136.7884</ele>
        <time>2021-07-05T12:10:19Z</time>
      </trkpt>
      <trkpt lat="43.31787" lon="-0.80531">
        <ele>156.7882</ele>
        <time>2021-07-05T12:10:30Z</time>
      </trkpt>
      <trkpt lat="43.31709" lon="-0.8083">
        <ele>164.6966</ele>
        <time>2021-07-05T12:10:41Z</time>
      </trkpt>
      <trkpt lat="43.31622" lon="-0.81137">
        <ele>168.1448</ele>
        <time>2021-07-05T12:10:52Z</time>
      </trkpt>
      <trkpt lat="43.31529" lon="-0.81456">
        <ele>170.5297</ele>
        <time>2021-07-05T12:11:03Z</time>
      </trkpt>
      <trkpt lat="43.31445" lon="-0.81743">
        <ele>180.4637</ele>
        <time>2021-07-05T12:11:14Z</time>
      </trkpt>
      <trkpt lat="43.31405" lon="-0.82025">
        <ele>194.6593</ele>
        <time>2021-07-05T12:11:25Z</time>
      </trkpt>
      <trkpt lat="43.3128" lon="-0.82256">
        <ele>190.7295</ele>
        <time>2021-07-05T12:11:36Z</time>
      </trkpt>
      <trkpt lat="43.31282" lon="-0.82564">
        <ele>190.1862</ele>
        <time>2021-07-05T12:11:47Z</time>
      </trkpt>
      <trkpt lat="43.31433" lon="-0.82757">
        <ele>190.3885</ele>
        <time>2021-07-05T12:11:58Z</time>
      </trkpt>
      <trkpt lat="43.31598" lon="-0.82947">
        <ele>192.45</ele>
        <time>2021-07-05T12:12:09Z</time>
      </trkpt>
      <trkpt lat="43.31679" lon="-0.83177">
        <ele>194.0572</ele>
        <time>2021-07-05T12:12:20Z</time>
      </trkpt>
      <trkpt lat="43.31726" lon="-0.83567">
        <ele>191.6483</ele>
        <time>2021-07-05T12:12:31Z</time>
      </trkpt>
      <trkpt lat="43.31824" lon="-0.83823">
        <ele>193.699</ele>
        <time>2021-07-05T12:12:42Z</time>
      </trkpt>
      <trkpt lat="43.3199" lon="-0.84016">
        <ele>194.1637</ele>
        <time>2021-07-05T12:12:53Z</time>
      </trkpt>
      <trkpt lat="43.32144" lon="-0.84368">
        <ele>189.2751</ele>
        <time>2021-07-05T12:13:04Z</time>
      </trkpt>
      <trkpt lat="43.32246" lon="-0.8463">
        <ele>185.8539</ele>
        <time>2021-07-05T12:13:15Z</time>
      </trkpt>
      <trkpt lat="43.32474" lon="-0.84624">
        <ele>176.8295</ele>
        <time>2021-07-05T12:13:26Z</time>
      </trkpt>
      <trkpt lat="43.32654" lon="-0.84759">
        <ele>170.7134</ele>
        <time>2021-07-05T12:13:37Z</time>
      </trkpt>
      <trkpt lat="43.32613" lon="-0.85032">
        <ele>162.5834</ele>
        <time>2021-07-05T12:13:49Z</time>
      </trkpt>
      <trkpt lat="43.32592" lon="-0.85309">
        <ele>154.7683</ele>
        <time>2021-07-05T12:14:00Z</time>
      </trkpt>
      <trkpt lat="43.32609" lon="-0.85557">
        <ele>149.0993</ele>
        <time>2021-07-05T12:14:11Z</time>
      </trkpt>
      <trkpt lat="43.32658" lon="-0.85824">
        <ele>145.6267</ele>
        <time>2021-07-05T12:14:22Z</time>
      </trkpt>
      <trkpt lat="43.32696" lon="-0.86088">
        <ele>140.8407</ele>
        <time>2021-07-05T12:14:33Z</time>
      </trkpt>
      <trkpt lat="43.32824" lon="-0.86303">
        <ele>124.6761</ele>
        <time>2021-07-05T12:14:44Z</time>
      </trkpt>
      <trkpt lat="43.33003" lon="-0.86591">
        <ele>110.8462</ele>
        <time>2021-07-05T12:14:55Z</time>
      </trkpt>
      <trkpt lat="43.33138" lon="-0.86856">
        <ele>99.94966</ele>
        <time>2021-07-05T12:15:06Z</time>
      </trkpt>
      <trkpt lat="43.3319" lon="-0.87095">
        <ele>97.51396</ele>
        <time>2021-07-05T12:15:17Z</time>
      </trkpt>
      <trkpt lat="43.33181" lon="-0.87144">
        <ele>98.5922</ele>
        <time>2021-07-05T12:15:28Z</time>
      </trkpt>
      <trkpt lat="43.33188" lon="-0.87207">
        <ele>98.51332</ele>
        <time>2021-07-05T12:15:39Z</time>
      </trkpt>
      <trkpt lat="43.33241" lon="-0.87378">
        <ele>94.31439</ele>
        <time>2021-07-05T12:15:50Z</time>
      </trkpt>
      <trkpt lat="43.33234" lon="-0.87576">
        <ele>97.92909</ele>
        <time>2021-07-05T12:16:01Z</time>
      </trkpt>
      <trkpt lat="43.33197" lon="-0.87742">
        <ele>95.04558</ele>
        <time>2021-07-05T12:16:12Z</time>
      </trkpt>
      <trkpt lat="43.32998" lon="-0.87843">
        <ele>102.9031</ele>
        <time>2021-07-05T12:16:23Z</time>
      </trkpt>
      <trkpt lat="43.3276" lon="-0.87966">
        <ele>107.1701</ele>
        <time>2021-07-05T12:16:34Z</time>
      </trkpt>
      <trkpt lat="43.32555" lon="-0.87961">
        <ele>105.9264</ele>
        <time>2021-07-05T12:16:45Z</time>
      </trkpt>
      <trkpt lat="43.3238" lon="-0.88033">
        <ele>108.4524</ele>
        <time>2021-07-05T12:16:56Z</time>
      </trkpt>
      <trkpt lat="43.32295" lon="-0.88307">
        <ele>112.2001</ele>
        <time>2021-07-05T12:17:07Z</time>
      </trkpt>
      <trkpt lat="43.32221" lon="-0.88548">
        <ele>123.76</ele>
        <time>2021-07-05T12:17:18Z</time>
      </trkpt>
      <trkpt lat="43.32044" lon="-0.88779">
        <ele>132.7449</ele>
        <time>2021-07-05T12:17:29Z</time>
      </trkpt>
      <trkpt lat="43.31892" lon="-0.88994">
        <ele>131.3227</ele>
        <time>2021-07-05T12:17:40Z</time>
      </trkpt>
      <trkpt lat="43.31891" lon="-0.89194">
        <ele>130.1691</ele>
        <time>2021-07-05T12:17:51Z</time>
      </trkpt>
      <trkpt lat="43.32014" lon="-0.89306">
        <ele>138.6219</ele>
        <time>2021-07-05T12:18:02Z</time>
      </trkpt>
      <trkpt lat="43.3204" lon="-0.89607">
        <ele>147.5773</ele>
        <time>2021-07-05T12:18:13Z</time>
      </trkpt>
      <trkpt lat="43.32047" lon="-0.8988">
        <ele>149.3982</ele>
        <time>2021-07-05T12:18:24Z</time>
      </trkpt>
      <trkpt lat="43.32058" lon="-0.90074">
        <ele>137.5712</ele>
        <time>2021-07-05T12:18:35Z</time>
      </trkpt>
      <trkpt lat="43.32211" lon="-0.90184">
        <ele>127.4715</ele>
        <time>2021-07-05T12:18:46Z</time>
      </trkpt>
      <trkpt lat="43.32294" lon="-0.9043">
        <ele>110.3444</ele>
        <time>2021-07-05T12:18:57Z</time>
      </trkpt>
      <trkpt lat="43.32235" lon="-0.90693">
        <ele>107.1665</ele>
        <time>2021-07-05T12:19:08Z</time>
      </trkpt>
      <trkpt lat="43.32191" lon="-0.90973">
        <ele>100.443</ele>
        <time>2021-07-05T12:19:19Z</time>
      </trkpt>
      <trkpt lat="43.32036" lon="-0.91234">
        <ele>107.4516</ele>
        <time>2021-07-05T12:19:30Z</time>
      </trkpt>
      <trkpt lat="43.31884" lon="-0.91387">
        <ele>117.3652</ele>
        <time>2021-07-05T12:19:41Z</time>
      </trkpt>
      <trkpt lat="43.31832" lon="-0.91501">
        <ele>126.4203</ele>
        <time>2021-07-05T12:19:52Z</time>
      </trkpt>
      <trkpt lat="43.31836" lon="-0.91688">
        <ele>130.0186</ele>
        <time>2021-07-05T12:20:03Z</time>
      </trkpt>
      <trkpt lat="43.31765" lon="-0.91785">
        <ele>130.2743</ele>
        <time>2021-07-05T12:20:14Z</time>
      </trkpt>
      <trkpt lat="43.31808" lon="-0.91929">
        <ele>137.3807</ele>
        <time>2021-07-05T12:20:25Z</time>
      </trkpt>
      <trkpt lat="43.31915" lon="-0.92167">
        <ele>140.4575</ele>
        <time>2021-07-05T12:20:36Z</time>
      </trkpt>
      <trkpt lat="43.31997" lon="-0.92384">
        <ele>150.964</ele>
        <time>2021-07-05T12:20:47Z</time>
      </trkpt>
      <trkpt lat="43.32075" lon="-0.92626">
        <ele>145.051</ele>
        <time>2021-07-05T12:20:58Z</time>
      </trkpt>
      <trkpt lat="43.32163" lon="-0.92878">
        <ele>147.0651</ele>
        <time>2021-07-05T12:21:09Z</time>
      </trkpt>
      <trkpt lat="43.32163" lon="-0.93209">
        <ele>130.1289</ele>
        <time>2021-07-05T12:21:20Z</time>
      </trkpt>
      <trkpt lat="43.3217" lon="-0.93604">
        <ele>109.857</ele>
        <time>2021-07-05T12:21:32Z</time>
      </trkpt>
      <trkpt lat="43.32181" lon="-0.93969">
        <ele>103.808</ele>
        <time>2021-07-05T12:21:43Z</time>
      </trkpt>
      <trkpt lat="43.3219" lon="-0.94383">
        <ele>121.2886</ele>
        <time>2021-07-05T12:21:54Z</time>
      </trkpt>
      <trkpt lat="43.32244" lon="-0.94675">
        <ele>125.2295</ele>
        <time>2021-07-05T12:22:05Z</time>
      </trkpt>
      <trkpt lat="43.32372" lon="-0.94958">
        <ele>110.1278</ele>
        <time>2021-07-05T12:22:16Z</time>
      </trkpt>
      <trkpt lat="43.32447" lon="-0.95255">
        <ele>92.51203</ele>
        <time>2021-07-05T12:22:27Z</time>
      </trkpt>
      <trkpt lat="43.32439" lon="-0.95584">
        <ele>96.01815</ele>
        <time>2021-07-05T12:22:38Z</time>
      </trkpt>
      <trkpt lat="43.32491" lon="-0.95925">
        <ele>105.6364</ele>
        <time>2021-07-05T12:22:49Z</time>
      </trkpt>
      <trkpt lat="43.32542" lon="-0.9626">
        <ele>119.2722</ele>
        <time>2021-07-05T12:23:00Z</time>
      </trkpt>
      <trkpt lat="43.32575" lon="-0.96491">
        <ele>131.1978</ele>
        <time>2021-07-05T12:23:11Z</time>
      </trkpt>
      <trkpt lat="43.3254" lon="-0.96711">
        <ele>133.0748</ele>
        <time>2021-07-05T12:23:22Z</time>
      </trkpt>
      <trkpt lat="43.32522" lon="-0.96961">
        <ele>121.4706</ele>
        <time>2021-07-05T12:23:33Z</time>
      </trkpt>
      <trkpt lat="43.32579" lon="-0.97314">
        <ele>132.0416</ele>
        <time>2021-07-05T12:23:44Z</time>
      </trkpt>
      <trkpt lat="43.32632" lon="-0.97614">
        <ele>128.6887</ele>
        <time>2021-07-05T12:23:55Z</time>
      </trkpt>
      <trkpt lat="43.32648" lon="-0.97938">
        <ele>128.0833</ele>
        <time>2021-07-05T12:24:06Z</time>
      </trkpt>
      <trkpt lat="43.32638" lon="-0.98277">
        <ele>124.5133</ele>
        <time>2021-07-05T12:24:17Z</time>
      </trkpt>
      <trkpt lat="43.32627" lon="-0.98623">
        <ele>113.3249</ele>
        <time>2021-07-05T12:24:28Z</time>
      </trkpt>
      <trkpt lat="43.32618" lon="-0.98965">
        <ele>112.374</ele>
        <time>2021-07-05T12:24:39Z</time>
      </trkpt>
      <trkpt lat="43.32619" lon="-0.99308">
        <ele>110.7798</ele>
        <time>2021-07-05T12:24:50Z</time>
      </trkpt>
      <trkpt lat="43.32616" lon="-0.99529">
        <ele>109.5683</ele>
        <time>2021-07-05T12:25:01Z</time>
      </trkpt>
      <trkpt lat="43.32524" lon="-0.99601">
        <ele>103.1315</ele>
        <time>2021-07-05T12:25:12Z</time>
      </trkpt>
      <trkpt lat="43.32398" lon="-0.99712">
        <ele>99.29576</ele>
        <time>2021-07-05T12:25:23Z</time>
      </trkpt>
      <trkpt lat="43.32286" lon="-0.99872">
        <ele>97.0873</ele>
        <time>2021-07-05T12:25:34Z</time>
      </trkpt>
      <trkpt lat="43.3213" lon="-1.00008">
        <ele>87.82483</ele>
        <time>2021-07-05T12:25:45Z</time>
      </trkpt>
      <trkpt lat="43.32018" lon="-1.00114">
        <ele>74.57187</ele>
        <time>2021-07-05T12:25:56Z</time>
      </trkpt>
      <trkpt lat="43.31914" lon="-1.00182">
        <ele>60.21684</ele>
        <time>2021-07-05T12:26:07Z</time>
      </trkpt>
      <trkpt lat="43.3177" lon="-1.00103">
        <ele>58.61071</ele>
        <time>2021-07-05T12:26:18Z</time>
      </trkpt>
      <trkpt lat="43.31605" lon="-1.00236">
        <ele>54.95299</ele>
        <time>2021-07-05T12:26:29Z</time>
      </trkpt>
      <trkpt lat="43.31426" lon="-1.00337">
        <ele>59.31601</ele>
        <time>2021-07-05T12:26:40Z</time>
      </trkpt>
      <trkpt lat="43.31297" lon="-1.00363">
        <ele>56.84044</ele>
        <time>2021-07-05T12:26:51Z</time>
      </trkpt>
      <trkpt lat="43.31218" lon="-1.00326">
        <ele>55.79394</ele>
        <time>2021-07-05T12:27:02Z</time>
      </trkpt>
      <trkpt lat="43.31157" lon="-1.00342">
        <ele>61.17741</ele>
        <time>2021-07-05T12:27:13Z</time>
      </trkpt>
      <trkpt lat="43.31083" lon="-1.00427">
        <ele>60.06395</ele>
        <time>2021-07-05T12:27:24Z</time>
      </trkpt>
      <trkpt lat="43.31023" lon="-1.00487">
        <ele>57.50702</ele>
        <time>2021-07-05T12:27:35Z</time>
      </trkpt>
      <trkpt lat="43.30884" lon="-1.00617">
        <ele>61.63978</ele>
        <time>2021-07-05T12:27:46Z</time>
      </trkpt>
      <trkpt lat="43.30707" lon="-1.00737">
        <ele>59.4406</ele>
        <time>2021-07-05T12:27:57Z</time>
      </trkpt>
      <trkpt lat="43.30609" lon="-1.00768">
        <ele>60.83961</ele>
        <time>2021-07-05T12:28:08Z</time>
      </trkpt>
      <trkpt lat="43.30611" lon="-1.00775">
        <ele>63.32488</ele>
        <time>2021-07-05T12:28:20Z</time>
      </trkpt>
      <trkpt lat="43.30609" lon="-1.0092">
        <ele>63.01353</ele>
        <time>2021-07-05T12:28:31Z</time>
      </trkpt>
      <trkpt lat="43.30576" lon="-1.0098">
        <ele>63.37558</ele>
        <time>2021-07-05T12:28:42Z</time>
      </trkpt>
      <trkpt lat="43.30484" lon="-1.01066">
        <ele>64.89051</ele>
        <time>2021-07-05T12:28:53Z</time>
      </trkpt>
      <trkpt lat="43.30309" lon="-1.01283">
        <ele>65.47805</ele>
        <time>2021-07-05T12:29:04Z</time>
      </trkpt>
      <trkpt lat="43.30147" lon="-1.01512">
        <ele>72.02202</ele>
        <time>2021-07-05T12:29:15Z</time>
      </trkpt>
      <trkpt lat="43.29937" lon="-1.01677">
        <ele>80.36054</ele>
        <time>2021-07-05T12:29:26Z</time>
      </trkpt>
      <trkpt lat="43.29722" lon="-1.01669">
        <ele>85.32844</ele>
        <time>2021-07-05T12:29:37Z</time>
      </trkpt>
      <trkpt lat="43.29497" lon="-1.01726">
        <ele>89.07681</ele>
        <time>2021-07-05T12:29:48Z</time>
      </trkpt>
      <trkpt lat="43.29225" lon="-1.01747">
        <ele>80.83112</ele>
        <time>2021-07-05T12:29:59Z</time>
      </trkpt>
      <trkpt lat="43.28967" lon="-1.01801">
        <ele>73.79992</ele>
        <time>2021-07-05T12:30:10Z</time>
      </trkpt>
      <trkpt lat="43.28725" lon="-1.01759">
        <ele>75.34893</ele>
        <time>2021-07-05T12:30:21Z</time>
      </trkpt>
      <trkpt lat="43.28574" lon="-1.01615">
        <ele>77.0471</ele>
        <time>2021-07-05T12:30:32Z</time>
      </trkpt>
      <trkpt lat="43.28426" lon="-1.01458">
        <ele>79.61295</ele>
        <time>2021-07-05T12:30:43Z</time>
      </trkpt>
      <trkpt lat="43.28247" lon="-1.0151">
        <ele>81.90256</ele>
        <time>2021-07-05T12:30:54Z</time>
      </trkpt>
      <trkpt lat="43.28206" lon="-1.01789">
        <ele>81.76058</ele>
        <time>2021-07-05T12:31:05Z</time>
      </trkpt>
      <trkpt lat="43.28089" lon="-1.02">
        <ele>82.9259</ele>
        <time>2021-07-05T12:31:16Z</time>
      </trkpt>
      <trkpt lat="43.27973" lon="-1.0212">
        <ele>85.80508</ele>
        <time>2021-07-05T12:31:27Z</time>
      </trkpt>
      <trkpt lat="43.27854" lon="-1.02198">
        <ele>85.65945</ele>
        <time>2021-07-05T12:31:38Z</time>
      </trkpt>
      <trkpt lat="43.27733" lon="-1.02269">
        <ele>87.58266</ele>
        <time>2021-07-05T12:31:49Z</time>
      </trkpt>
      <trkpt lat="43.27621" lon="-1.02484">
        <ele>88.03289</ele>
        <time>2021-07-05T12:32:00Z</time>
      </trkpt>
      <trkpt lat="43.27576" lon="-1.02741">
        <ele>87.33179</ele>
        <time>2021-07-05T12:32:11Z</time>
      </trkpt>
      <trkpt lat="43.27402" lon="-1.02899">
        <ele>86.30735</ele>
        <time>2021-07-05T12:32:22Z</time>
      </trkpt>
      <trkpt lat="43.27223" lon="-1.03079">
        <ele>88.78143</ele>
        <time>2021-07-05T12:32:33Z</time>
      </trkpt>
      <trkpt lat="43.27055" lon="-1.03235">
        <ele>99.10188</ele>
        <time>2021-07-05T12:32:44Z</time>
      </trkpt>
      <trkpt lat="43.26901" lon="-1.03443">
        <ele>101.4468</ele>
        <time>2021-07-05T12:32:55Z</time>
      </trkpt>
      <trkpt lat="43.26793" lon="-1.03712">
        <ele>90.71189</ele>
        <time>2021-07-05T12:33:06Z</time>
      </trkpt>
      <trkpt lat="43.26602" lon="-1.03877">
        <ele>91.12963</ele>
        <time>2021-07-05T12:33:17Z</time>
      </trkpt>
      <trkpt lat="43.26388" lon="-1.03952">
        <ele>91.87548</ele>
        <time>2021-07-05T12:33:28Z</time>
      </trkpt>
      <trkpt lat="43.2618" lon="-1.04021">
        <ele>100.1069</ele>
        <time>2021-07-05T12:33:39Z</time>
      </trkpt>
      <trkpt lat="43.25962" lon="-1.04093">
        <ele>96.82344</ele>
        <time>2021-07-05T12:33:50Z</time>
      </trkpt>
      <trkpt lat="43.25761" lon="-1.04205">
        <ele>97.13182</ele>
        <time>2021-07-05T12:34:01Z</time>
      </trkpt>
      <trkpt lat="43.25556" lon="-1.04374">
        <ele>97.52698</ele>
        <time>2021-07-05T12:34:12Z</time>
      </trkpt>
      <trkpt lat="43.25358" lon="-1.04512">
        <ele>98.69476</ele>
        <time>2021-07-05T12:34:23Z</time>
      </trkpt>
      <trkpt lat="43.2519" lon="-1.04699">
        <ele>109.149</ele>
        <time>2021-07-05T12:34:34Z</time>
      </trkpt>
      <trkpt lat="43.25124" lon="-1.04953">
        <ele>111.5142</ele>
        <time>2021-07-05T12:34:45Z</time>
      </trkpt>
      <trkpt lat="43.25181" lon="-1.05215">
        <ele>115.944</ele>
        <time>2021-07-05T12:34:56Z</time>
      </trkpt>
      <trkpt lat="43.25224" lon="-1.05463">
        <ele>127.4472</ele>
        <time>2021-07-05T12:35:07Z</time>
      </trkpt>
      <trkpt lat="43.25164" lon="-1.05748">
        <ele>128.6656</ele>
        <time>2021-07-05T12:35:18Z</time>
      </trkpt>
      <trkpt lat="43.25134" lon="-1.06058">
        <ele>118.6664</ele>
        <time>2021-07-05T12:35:29Z</time>
      </trkpt>
      <trkpt lat="43.25066" lon="-1.06352">
        <ele>115.5252</ele>
        <time>2021-07-05T12:35:40Z</time>
      </trkpt>
      <trkpt lat="43.24942" lon="-1.06598">
        <ele>119.6374</ele>
        <time>2021-07-05T12:35:51Z</time>
      </trkpt>
      <trkpt lat="43.24796" lon="-1.06829">
        <ele>127.4987</ele>
        <time>2021-07-05T12:36:02Z</time>
      </trkpt>
      <trkpt lat="43.24645" lon="-1.07097">
        <ele>126.4137</ele>
        <time>2021-07-05T12:36:13Z</time>
      </trkpt>
      <trkpt lat="43.24515" lon="-1.07355">
        <ele>125.3435</ele>
        <time>2021-07-05T12:36:24Z</time>
      </trkpt>
      <trkpt lat="43.24386" lon="-1.07607">
        <ele>133.1955</ele>
        <time>2021-07-05T12:36:35Z</time>
      </trkpt>
      <trkpt lat="43.24252" lon="-1.0785">
        <ele>139.7031</ele>
        <time>2021-07-05T12:36:46Z</time>
      </trkpt>
      <trkpt lat="43.24128" lon="-1.08078">
        <ele>141.4562</ele>
        <time>2021-07-05T12:36:57Z</time>
      </trkpt>
      <trkpt lat="43.23994" lon="-1.08339">
        <ele>141.9537</ele>
        <time>2021-07-05T12:37:08Z</time>
      </trkpt>
      <trkpt lat="43.23868" lon="-1.08604">
        <ele>146.2336</ele>
        <time>2021-07-05T12:37:19Z</time>
      </trkpt>
      <trkpt lat="43.23736" lon="-1.08836">
        <ele>146.7224</ele>
        <time>2021-07-05T12:37:30Z</time>
      </trkpt>
      <trkpt lat="43.23612" lon="-1.09066">
        <ele>148.2154</ele>
        <time>2021-07-05T12:37:41Z</time>
      </trkpt>
      <trkpt lat="43.2353" lon="-1.09226">
        <ele>154.7543</ele>
        <time>2021-07-05T12:37:52Z</time>
      </trkpt>
      <trkpt lat="43.23457" lon="-1.09368">
        <ele>152.0577</ele>
        <time>2021-07-05T12:38:03Z</time>
      </trkpt>
      <trkpt lat="43.23386" lon="-1.09502">
        <ele>159.5258</ele>
        <time>2021-07-05T12:38:14Z</time>
      </trkpt>
      <trkpt lat="43.23347" lon="-1.09613">
        <ele>161.4533</ele>
        <time>2021-07-05T12:38:25Z</time>
      </trkpt>
      <trkpt lat="43.23279" lon="-1.09704">
        <ele>158.3072</ele>
        <time>2021-07-05T12:38:36Z</time>
      </trkpt>
      <trkpt lat="43.23203" lon="-1.09848">
        <ele>159.0969</ele>
        <time>2021-07-05T12:38:47Z</time>
      </trkpt>
      <trkpt lat="43.23123" lon="-1.10002">
        <ele>166.7557</ele>
        <time>2021-07-05T12:38:58Z</time>
      </trkpt>
      <trkpt lat="43.2303" lon="-1.10176">
        <ele>169.4367</ele>
        <time>2021-07-05T12:39:09Z</time>
      </trkpt>
      <trkpt lat="43.22905" lon="-1.10389">
        <ele>158.3676</ele>
        <time>2021-07-05T12:39:20Z</time>
      </trkpt>
      <trkpt lat="43.22776" lon="-1.10634">
        <ele>159.2181</ele>
        <time>2021-07-05T12:39:31Z</time>
      </trkpt>
      <trkpt lat="43.22641" lon="-1.10893">
        <ele>156.8407</ele>
        <time>2021-07-05T12:39:42Z</time>
      </trkpt>
      <trkpt lat="43.22514" lon="-1.11139">
        <ele>157.803</ele>
        <time>2021-07-05T12:39:53Z</time>
      </trkpt>
      <trkpt lat="43.22387" lon="-1.11389">
        <ele>163.8356</ele>
        <time>2021-07-05T12:40:04Z</time>
      </trkpt>
      <trkpt lat="43.22257" lon="-1.11637">
        <ele>163.4637</ele>
        <time>2021-07-05T12:40:15Z</time>
      </trkpt>
      <trkpt lat="43.22129" lon="-1.11874">
        <ele>166.1788</ele>
        <time>2021-07-05T12:40:26Z</time>
      </trkpt>
      <trkpt lat="43.21988" lon="-1.12083">
        <ele>169.9245</ele>
        <time>2021-07-05T12:40:37Z</time>
      </trkpt>
      <trkpt lat="43.21814" lon="-1.12277">
        <ele>176.1262</ele>
        <time>2021-07-05T12:40:48Z</time>
      </trkpt>
      <trkpt lat="43.21664" lon="-1.12428">
        <ele>182.4376</ele>
        <time>2021-07-05T12:40:59Z</time>
      </trkpt>
      <trkpt lat="43.21492" lon="-1.12664">
        <ele>193.9792</ele>
        <time>2021-07-05T12:41:10Z</time>
      </trkpt>
      <trkpt lat="43.21369" lon="-1.12954">
        <ele>211.0027</ele>
        <time>2021-07-05T12:41:21Z</time>
      </trkpt>
      <trkpt lat="43.21358" lon="-1.13291">
        <ele>233.5889</ele>
        <time>2021-07-05T12:41:32Z</time>
      </trkpt>
      <trkpt lat="43.21223" lon="-1.13574">
        <ele>252.4668</ele>
        <time>2021-07-05T12:41:43Z</time>
      </trkpt>
      <trkpt lat="43.21061" lon="-1.13739">
        <ele>267.7933</ele>
        <time>2021-07-05T12:41:54Z</time>
      </trkpt>
      <trkpt lat="43.20904" lon="-1.13946">
        <ele>254.5149</ele>
        <time>2021-07-05T12:42:05Z</time>
      </trkpt>
      <trkpt lat="43.20746" lon="-1.14151">
        <ele>242.1546</ele>
        <time>2021-07-05T12:42:16Z</time>
      </trkpt>
      <trkpt lat="43.20593" lon="-1.14403">
        <ele>233.8391</ele>
        <time>2021-07-05T12:42:27Z</time>
      </trkpt>
      <trkpt lat="43.20446" lon="-1.14614">
        <ele>233.8831</ele>
        <time>2021-07-05T12:42:38Z</time>
      </trkpt>
      <trkpt lat="43.20292" lon="-1.14805">
        <ele>233.2627</ele>
        <time>2021-07-05T12:42:49Z</time>
      </trkpt>
      <trkpt lat="43.20117" lon="-1.14973">
        <ele>228.5198</ele>
        <time>2021-07-05T12:43:00Z</time>
      </trkpt>
      <trkpt lat="43.19942" lon="-1.15083">
        <ele>231.2723</ele>
        <time>2021-07-05T12:43:11Z</time>
      </trkpt>
      <trkpt lat="43.1981" lon="-1.15295">
        <ele>232.3592</ele>
        <time>2021-07-05T12:43:22Z</time>
      </trkpt>
      <trkpt lat="43.19758" lon="-1.15598">
        <ele>225.4162</ele>
        <time>2021-07-05T12:43:33Z</time>
      </trkpt>
      <trkpt lat="43.19634" lon="-1.15857">
        <ele>218.8993</ele>
        <time>2021-07-05T12:43:44Z</time>
      </trkpt>
      <trkpt lat="43.19508" lon="-1.1612">
        <ele>207.105</ele>
        <time>2021-07-05T12:43:55Z</time>
      </trkpt>
      <trkpt lat="43.19386" lon="-1.16357">
        <ele>216.6681</ele>
        <time>2021-07-05T12:44:06Z</time>
      </trkpt>
      <trkpt lat="43.19275" lon="-1.16484">
        <ele>229.7036</ele>
        <time>2021-07-05T12:44:17Z</time>
      </trkpt>
      <trkpt lat="43.19158" lon="-1.16508">
        <ele>234.3117</ele>
        <time>2021-07-05T12:44:28Z</time>
      </trkpt>
      <trkpt lat="43.19049" lon="-1.16578">
        <ele>227.2161</ele>
        <time>2021-07-05T12:44:39Z</time>
      </trkpt>
      <trkpt lat="43.18946" lon="-1.16694">
        <ele>222.8679</ele>
        <time>2021-07-05T12:44:50Z</time>
      </trkpt>
      <trkpt lat="43.18845" lon="-1.16805">
        <ele>221.2452</ele>
        <time>2021-07-05T12:45:01Z</time>
      </trkpt>
      <trkpt lat="43.18725" lon="-1.16911">
        <ele>210.9317</ele>
        <time>2021-07-05T12:45:12Z</time>
      </trkpt>
      <trkpt lat="43.18607" lon="-1.17011">
        <ele>202.4328</ele>
        <time>2021-07-05T12:45:23Z</time>
      </trkpt>
      <trkpt lat="43.18482" lon="-1.17117">
        <ele>198.4732</ele>
        <time>2021-07-05T12:45:34Z</time>
      </trkpt>
      <trkpt lat="43.18364" lon="-1.17277">
        <ele>198.7929</ele>
        <time>2021-07-05T12:45:45Z</time>
      </trkpt>
      <trkpt lat="43.18315" lon="-1.17543">
        <ele>203.014</ele>
        <time>2021-07-05T12:45:56Z</time>
      </trkpt>
      <trkpt lat="43.18186" lon="-1.1776">
        <ele>200.1945</ele>
        <time>2021-07-05T12:46:07Z</time>
      </trkpt>
      <trkpt lat="43.17999" lon="-1.17912">
        <ele>204.0498</ele>
        <time>2021-07-05T12:46:18Z</time>
      </trkpt>
      <trkpt lat="43.17832" lon="-1.1805">
        <ele>210.3236</ele>
        <time>2021-07-05T12:46:29Z</time>
      </trkpt>
      <trkpt lat="43.17647" lon="-1.18199">
        <ele>197.0017</ele>
        <time>2021-07-05T12:46:40Z</time>
      </trkpt>
      <trkpt lat="43.17456" lon="-1.1835">
        <ele>190.2263</ele>
        <time>2021-07-05T12:46:51Z</time>
      </trkpt>
      <trkpt lat="43.17264" lon="-1.18504">
        <ele>191.4297</ele>
        <time>2021-07-05T12:47:02Z</time>
      </trkpt>
      <trkpt lat="43.17083" lon="-1.18652">
        <ele>194.0992</ele>
        <time>2021-07-05T12:47:13Z</time>
      </trkpt>
      <trkpt lat="43.1693" lon="-1.1884">
        <ele>197.2784</ele>
        <time>2021-07-05T12:47:24Z</time>
      </trkpt>
      <trkpt lat="43.16882" lon="-1.19116">
        <ele>207.3276</ele>
        <time>2021-07-05T12:47:35Z</time>
      </trkpt>
      <trkpt lat="43.16851" lon="-1.19426">
        <ele>206.7628</ele>
        <time>2021-07-05T12:47:46Z</time>
      </trkpt>
      <trkpt lat="43.16833" lon="-1.19749">
        <ele>198.9492</ele>
        <time>2021-07-05T12:47:57Z</time>
      </trkpt>
      <trkpt lat="43.16768" lon="-1.20023">
        <ele>198.811</ele>
        <time>2021-07-05T12:48:08Z</time>
      </trkpt>
      <trkpt lat="43.16702" lon="-1.20267">
        <ele>191.9491</ele>
        <time>2021-07-05T12:48:19Z</time>
      </trkpt>
      <trkpt lat="43.16619" lon="-1.20377">
        <ele>185.7857</ele>
        <time>2021-07-05T12:48:30Z</time>
      </trkpt>
      <trkpt lat="43.1662" lon="-1.20514">
        <ele>184.8203</ele>
        <time>2021-07-05T12:48:41Z</time>
      </trkpt>
      <trkpt lat="43.16642" lon="-1.20704">
        <ele>186.8499</ele>
        <time>2021-07-05T12:48:52Z</time>
      </trkpt>
      <trkpt lat="43.16666" lon="-1.20932">
        <ele>188.8022</ele>
        <time>2021-07-05T12:49:03Z</time>
      </trkpt>
      <trkpt lat="43.16691" lon="-1.21169">
        <ele>184.4119</ele>
        <time>2021-07-05T12:49:14Z</time>
      </trkpt>
      <trkpt lat="43.16715" lon="-1.21394">
        <ele>180.8234</ele>
        <time>2021-07-05T12:49:25Z</time>
      </trkpt>
      <trkpt lat="43.1674" lon="-1.216">
        <ele>175.6646</ele>
        <time>2021-07-05T12:49:36Z</time>
      </trkpt>
      <trkpt lat="43.16759" lon="-1.21796">
        <ele>176.4527</ele>
        <time>2021-07-05T12:49:47Z</time>
      </trkpt>
      <trkpt lat="43.16785" lon="-1.22025">
        <ele>175.0684</ele>
        <time>2021-07-05T12:49:58Z</time>
      </trkpt>
      <trkpt lat="43.16812" lon="-1.22267">
        <ele>173.0219</ele>
        <time>2021-07-05T12:50:09Z</time>
      </trkpt>
      <trkpt lat="43.16835" lon="-1.22474">
        <ele>173.1025</ele>
        <time>2021-07-05T12:50:20Z</time>
      </trkpt>
      <trkpt lat="43.16857" lon="-1.22652">
        <ele>170.6865</ele>
        <time>2021-07-05T12:50:31Z</time>
      </trkpt>
      <trkpt lat="43.16874" lon="-1.22811">
        <ele>171.0922</ele>
        <time>2021-07-05T12:50:42Z</time>
      </trkpt>
      <trkpt lat="43.16839" lon="-1.228">
        <ele>172.8528</ele>
        <time>2021-07-05T12:50:53Z</time>
      </trkpt>
      <trkpt lat="43.16845" lon="-1.22799">
        <ele>172.8343</ele>
        <time>2021-07-05T12:51:04Z</time>
      </trkpt>
      <trkpt lat="43.16847" lon="-1.22795">
        <ele>172.4655</ele>
        <time>2021-07-05T12:51:15Z</time>
      </trkpt>
      <trkpt lat="43.16848" lon="-1.22799">
        <ele>175.6859</ele>
        <time>2021-07-05T12:52:15Z</time>
      </trkpt>
      <trkpt lat="43.16845" lon="-1.22796">
        <ele>174.2579</ele>
        <time>2021-07-05T12:52:42Z</time>
      </trkpt>
      <trkpt lat="43.16847" lon="-1.22797">
        <ele>178.9307</ele>
        <time>2021-07-05T12:53:41Z</time>
      </trkpt>
      <trkpt lat="43.1685" lon="-1.22801">
        <ele>176.6375</ele>
        <time>2021-07-05T12:53:52Z</time>
      </trkpt>
      <trkpt lat="43.16849" lon="-1.22798">
        <ele>173.2594</ele>
        <time>2021-07-05T12:54:52Z</time>
      </trkpt>
      <trkpt lat="43.1685" lon="-1.228">
        <ele>169.5353</ele>
        <time>2021-07-05T12:55:51Z</time>
      </trkpt>
      <trkpt lat="43.16852" lon="-1.22805">
        <ele>173.809</ele>
        <time>2021-07-05T12:56:21Z</time>
      </trkpt>
      <trkpt lat="43.16862" lon="-1.22813">
        <ele>173.9202</ele>
        <time>2021-07-05T12:56:32Z</time>
      </trkpt>
      <trkpt lat="43.16889" lon="-1.22952">
        <ele>171.676</ele>
        <time>2021-07-05T12:56:43Z</time>
      </trkpt>
      <trkpt lat="43.16892" lon="-1.23152">
        <ele>169.5534</ele>
        <time>2021-07-05T12:56:54Z</time>
      </trkpt>
      <trkpt lat="43.16833" lon="-1.23279">
        <ele>164.6488</ele>
        <time>2021-07-05T12:57:05Z</time>
      </trkpt>
      <trkpt lat="43.16705" lon="-1.23329">
        <ele>164.3739</ele>
        <time>2021-07-05T12:57:16Z</time>
      </trkpt>
      <trkpt lat="43.16596" lon="-1.23377">
        <ele>164.9073</ele>
        <time>2021-07-05T12:57:27Z</time>
      </trkpt>
      <trkpt lat="43.16509" lon="-1.23409">
        <ele>166.9163</ele>
        <time>2021-07-05T12:57:38Z</time>
      </trkpt>
      <trkpt lat="43.1643" lon="-1.23497">
        <ele>172.421</ele>
        <time>2021-07-05T12:57:49Z</time>
      </trkpt>
      <trkpt lat="43.16412" lon="-1.23601">
        <ele>176.4375</ele>
        <time>2021-07-05T12:58:00Z</time>
      </trkpt>
      <trkpt lat="43.16401" lon="-1.23623">
        <ele>177.1568</ele>
        <time>2021-07-05T12:58:11Z</time>
      </trkpt>
      <trkpt lat="43.16379" lon="-1.23685">
        <ele>180.5348</ele>
        <time>2021-07-05T12:58:22Z</time>
      </trkpt>
      <trkpt lat="43.1634" lon="-1.23739">
        <ele>178.0317</ele>
        <time>2021-07-05T12:58:33Z</time>
      </trkpt>
      <trkpt lat="43.16259" lon="-1.23826">
        <ele>171.5866</ele>
        <time>2021-07-05T12:58:44Z</time>
      </trkpt>
      <trkpt lat="43.16202" lon="-1.23878">
        <ele>174.9001</ele>
        <time>2021-07-05T12:58:55Z</time>
      </trkpt>
      <trkpt lat="43.16227" lon="-1.23919">
        <ele>177.495</ele>
        <time>2021-07-05T12:59:06Z</time>
      </trkpt>
      <trkpt lat="43.16281" lon="-1.23985">
        <ele>170.0826</ele>
        <time>2021-07-05T12:59:17Z</time>
      </trkpt>
      <trkpt lat="43.16302" lon="-1.24039">
        <ele>170.655</ele>
        <time>2021-07-05T12:59:28Z</time>
      </trkpt>
      <trkpt lat="43.16345" lon="-1.24163">
        <ele>171.0882</ele>
        <time>2021-07-05T12:59:39Z</time>
      </trkpt>
      <trkpt lat="43.16305" lon="-1.24346">
        <ele>178.7949</ele>
        <time>2021-07-05T12:59:50Z</time>
      </trkpt>
      <trkpt lat="43.16225" lon="-1.24478">
        <ele>185.1874</ele>
        <time>2021-07-05T13:00:01Z</time>
      </trkpt>
      <trkpt lat="43.16071" lon="-1.24458">
        <ele>189.8875</ele>
        <time>2021-07-05T13:00:12Z</time>
      </trkpt>
      <trkpt lat="43.15919" lon="-1.24535">
        <ele>192.7411</ele>
        <time>2021-07-05T13:00:23Z</time>
      </trkpt>
      <trkpt lat="43.15844" lon="-1.24724">
        <ele>190.3906</ele>
        <time>2021-07-05T13:00:34Z</time>
      </trkpt>
      <trkpt lat="43.15769" lon="-1.24874">
        <ele>185.6173</ele>
        <time>2021-07-05T13:00:45Z</time>
      </trkpt>
      <trkpt lat="43.15634" lon="-1.24925">
        <ele>179.4682</ele>
        <time>2021-07-05T13:00:56Z</time>
      </trkpt>
      <trkpt lat="43.15494" lon="-1.24927">
        <ele>173.4614</ele>
        <time>2021-07-05T13:01:07Z</time>
      </trkpt>
      <trkpt lat="43.15345" lon="-1.25005">
        <ele>173.508</ele>
        <time>2021-07-05T13:01:18Z</time>
      </trkpt>
      <trkpt lat="43.1519" lon="-1.25174">
        <ele>175.8603</ele>
        <time>2021-07-05T13:01:29Z</time>
      </trkpt>
      <trkpt lat="43.15058" lon="-1.25314">
        <ele>180.4816</ele>
        <time>2021-07-05T13:01:40Z</time>
      </trkpt>
      <trkpt lat="43.14934" lon="-1.25383">
        <ele>184.2269</ele>
        <time>2021-07-05T13:01:51Z</time>
      </trkpt>
      <trkpt lat="43.14778" lon="-1.25474">
        <ele>183.1774</ele>
        <time>2021-07-05T13:02:02Z</time>
      </trkpt>
      <trkpt lat="43.14643" lon="-1.25599">
        <ele>189.3536</ele>
        <time>2021-07-05T13:02:13Z</time>
      </trkpt>
      <trkpt lat="43.14535" lon="-1.2571">
        <ele>189.9779</ele>
        <time>2021-07-05T13:02:24Z</time>
      </trkpt>
      <trkpt lat="43.14497" lon="-1.25903">
        <ele>186.26</ele>
        <time>2021-07-05T13:02:35Z</time>
      </trkpt>
      <trkpt lat="43.14403" lon="-1.26053">
        <ele>190.9978</ele>
        <time>2021-07-05T13:02:46Z</time>
      </trkpt>
      <trkpt lat="43.14201" lon="-1.26195">
        <ele>192.354</ele>
        <time>2021-07-05T13:02:57Z</time>
      </trkpt>
      <trkpt lat="43.1398" lon="-1.26166">
        <ele>199.4096</ele>
        <time>2021-07-05T13:03:08Z</time>
      </trkpt>
      <trkpt lat="43.13787" lon="-1.26312">
        <ele>199.4858</ele>
        <time>2021-07-05T13:03:19Z</time>
      </trkpt>
      <trkpt lat="43.13602" lon="-1.26449">
        <ele>203.2018</ele>
        <time>2021-07-05T13:03:30Z</time>
      </trkpt>
      <trkpt lat="43.13485" lon="-1.26607">
        <ele>215.7363</ele>
        <time>2021-07-05T13:03:41Z</time>
      </trkpt>
      <trkpt lat="43.13328" lon="-1.26685">
        <ele>217.0232</ele>
        <time>2021-07-05T13:03:52Z</time>
      </trkpt>
      <trkpt lat="43.13123" lon="-1.26658">
        <ele>212.4701</ele>
        <time>2021-07-05T13:04:03Z</time>
      </trkpt>
      <trkpt lat="43.12972" lon="-1.2669">
        <ele>215.7518</ele>
        <time>2021-07-05T13:04:14Z</time>
      </trkpt>
      <trkpt lat="43.12848" lon="-1.26806">
        <ele>212.0387</ele>
        <time>2021-07-05T13:04:25Z</time>
      </trkpt>
      <trkpt lat="43.12696" lon="-1.26857">
        <ele>214.249</ele>
        <time>2021-07-05T13:04:36Z</time>
      </trkpt>
      <trkpt lat="43.12546" lon="-1.26923">
        <ele>216.8621</ele>
        <time>2021-07-05T13:04:47Z</time>
      </trkpt>
      <trkpt lat="43.12393" lon="-1.26983">
        <ele>222.6447</ele>
        <time>2021-07-05T13:04:58Z</time>
      </trkpt>
      <trkpt lat="43.12248" lon="-1.27024">
        <ele>223.5969</ele>
        <time>2021-07-05T13:05:09Z</time>
      </trkpt>
      <trkpt lat="43.12101" lon="-1.2696">
        <ele>224.8146</ele>
        <time>2021-07-05T13:05:20Z</time>
      </trkpt>
      <trkpt lat="43.11959" lon="-1.26954">
        <ele>226.1087</ele>
        <time>2021-07-05T13:05:31Z</time>
      </trkpt>
      <trkpt lat="43.11808" lon="-1.26977">
        <ele>224.6225</ele>
        <time>2021-07-05T13:05:42Z</time>
      </trkpt>
      <trkpt lat="43.11686" lon="-1.27023">
        <ele>225.9776</ele>
        <time>2021-07-05T13:05:53Z</time>
      </trkpt>
      <trkpt lat="43.11597" lon="-1.27195">
        <ele>231.0792</ele>
        <time>2021-07-05T13:06:04Z</time>
      </trkpt>
      <trkpt lat="43.1147" lon="-1.27308">
        <ele>236.5542</ele>
        <time>2021-07-05T13:06:15Z</time>
      </trkpt>
      <trkpt lat="43.1134" lon="-1.27413">
        <ele>242.8951</ele>
        <time>2021-07-05T13:06:26Z</time>
      </trkpt>
      <trkpt lat="43.11294" lon="-1.27611">
        <ele>241.5995</ele>
        <time>2021-07-05T13:06:37Z</time>
      </trkpt>
      <trkpt lat="43.11195" lon="-1.2776">
        <ele>242.9393</ele>
        <time>2021-07-05T13:06:48Z</time>
      </trkpt>
      <trkpt lat="43.1108" lon="-1.27879">
        <ele>237.1896</ele>
        <time>2021-07-05T13:06:59Z</time>
      </trkpt>
      <trkpt lat="43.11026" lon="-1.27995">
        <ele>242.2309</ele>
        <time>2021-07-05T13:07:10Z</time>
      </trkpt>
      <trkpt lat="43.10981" lon="-1.28075">
        <ele>245.178</ele>
        <time>2021-07-05T13:07:21Z</time>
      </trkpt>
      <trkpt lat="43.10946" lon="-1.28203">
        <ele>244.4441</ele>
        <time>2021-07-05T13:07:32Z</time>
      </trkpt>
      <trkpt lat="43.10898" lon="-1.28307">
        <ele>251.0455</ele>
        <time>2021-07-05T13:07:43Z</time>
      </trkpt>
      <trkpt lat="43.10745" lon="-1.28497">
        <ele>266.3873</ele>
        <time>2021-07-05T13:07:54Z</time>
      </trkpt>
      <trkpt lat="43.10552" lon="-1.28673">
        <ele>281.6893</ele>
        <time>2021-07-05T13:08:05Z</time>
      </trkpt>
      <trkpt lat="43.10425" lon="-1.28965">
        <ele>290.8864</ele>
        <time>2021-07-05T13:08:16Z</time>
      </trkpt>
      <trkpt lat="43.10223" lon="-1.29076">
        <ele>292.094</ele>
        <time>2021-07-05T13:08:27Z</time>
      </trkpt>
      <trkpt lat="43.10116" lon="-1.29271">
        <ele>295.4593</ele>
        <time>2021-07-05T13:08:38Z</time>
      </trkpt>
      <trkpt lat="43.09932" lon="-1.29337">
        <ele>301.2229</ele>
        <time>2021-07-05T13:08:49Z</time>
      </trkpt>
      <trkpt lat="43.09748" lon="-1.29514">
        <ele>292.1476</ele>
        <time>2021-07-05T13:09:00Z</time>
      </trkpt>
      <trkpt lat="43.09794" lon="-1.29683">
        <ele>288.0385</ele>
        <time>2021-07-05T13:09:11Z</time>
      </trkpt>
      <trkpt lat="43.09678" lon="-1.29647">
        <ele>302.0444</ele>
        <time>2021-07-05T13:09:22Z</time>
      </trkpt>
      <trkpt lat="43.09641" lon="-1.29708">
        <ele>312.3796</ele>
        <time>2021-07-05T13:09:33Z</time>
      </trkpt>
      <trkpt lat="43.09663" lon="-1.29741">
        <ele>322.132</ele>
        <time>2021-07-05T13:09:44Z</time>
      </trkpt>
      <trkpt lat="43.09538" lon="-1.29832">
        <ele>331.0779</ele>
        <time>2021-07-05T13:09:55Z</time>
      </trkpt>
      <trkpt lat="43.09423" lon="-1.29899">
        <ele>339.2299</ele>
        <time>2021-07-05T13:10:06Z</time>
      </trkpt>
      <trkpt lat="43.09352" lon="-1.30031">
        <ele>346.08</ele>
        <time>2021-07-05T13:10:17Z</time>
      </trkpt>
      <trkpt lat="43.09292" lon="-1.30182">
        <ele>359.4155</ele>
        <time>2021-07-05T13:10:28Z</time>
      </trkpt>
      <trkpt lat="43.09182" lon="-1.30272">
        <ele>365.8427</ele>
        <time>2021-07-05T13:10:39Z</time>
      </trkpt>
      <trkpt lat="43.09113" lon="-1.30353">
        <ele>370.2786</ele>
        <time>2021-07-05T13:10:50Z</time>
      </trkpt>
      <trkpt lat="43.09015" lon="-1.30277">
        <ele>377.1731</ele>
        <time>2021-07-05T13:11:01Z</time>
      </trkpt>
      <trkpt lat="43.08897" lon="-1.30314">
        <ele>384.0844</ele>
        <time>2021-07-05T13:11:12Z</time>
      </trkpt>
      <trkpt lat="43.08744" lon="-1.30402">
        <ele>392.5187</ele>
        <time>2021-07-05T13:11:23Z</time>
      </trkpt>
      <trkpt lat="43.08567" lon="-1.30424">
        <ele>396.5225</ele>
        <time>2021-07-05T13:11:34Z</time>
      </trkpt>
      <trkpt lat="43.0838" lon="-1.30564">
        <ele>400.0093</ele>
        <time>2021-07-05T13:11:45Z</time>
      </trkpt>
      <trkpt lat="43.08222" lon="-1.30635">
        <ele>395.6861</ele>
        <time>2021-07-05T13:11:56Z</time>
      </trkpt>
      <trkpt lat="43.08065" lon="-1.30647">
        <ele>383.041</ele>
        <time>2021-07-05T13:12:07Z</time>
      </trkpt>
      <trkpt lat="43.07874" lon="-1.306">
        <ele>375.8304</ele>
        <time>2021-07-05T13:12:18Z</time>
      </trkpt>
      <trkpt lat="43.07664" lon="-1.30651">
        <ele>384.5562</ele>
        <time>2021-07-05T13:12:29Z</time>
      </trkpt>
      <trkpt lat="43.07499" lon="-1.30783">
        <ele>397.2428</ele>
        <time>2021-07-05T13:12:40Z</time>
      </trkpt>
      <trkpt lat="43.07307" lon="-1.30946">
        <ele>415.8178</ele>
        <time>2021-07-05T13:12:51Z</time>
      </trkpt>
      <trkpt lat="43.07091" lon="-1.30999">
        <ele>430.1032</ele>
        <time>2021-07-05T13:13:02Z</time>
      </trkpt>
      <trkpt lat="43.06922" lon="-1.31074">
        <ele>440.0819</ele>
        <time>2021-07-05T13:13:13Z</time>
      </trkpt>
      <trkpt lat="43.0675" lon="-1.31069">
        <ele>446.2984</ele>
        <time>2021-07-05T13:13:24Z</time>
      </trkpt>
      <trkpt lat="43.0669" lon="-1.30903">
        <ele>447.7439</ele>
        <time>2021-07-05T13:13:35Z</time>
      </trkpt>
      <trkpt lat="43.06562" lon="-1.3077">
        <ele>446.8674</ele>
        <time>2021-07-05T13:13:46Z</time>
      </trkpt>
      <trkpt lat="43.06383" lon="-1.30786">
        <ele>441.5568</ele>
        <time>2021-07-05T13:13:57Z</time>
      </trkpt>
      <trkpt lat="43.06231" lon="-1.3072">
        <ele>444.6669</ele>
        <time>2021-07-05T13:14:08Z</time>
      </trkpt>
      <trkpt lat="43.06078" lon="-1.30859">
        <ele>446.6447</ele>
        <time>2021-07-05T13:14:19Z</time>
      </trkpt>
      <trkpt lat="43.05916" lon="-1.30982">
        <ele>455.5818</ele>
        <time>2021-07-05T13:14:30Z</time>
      </trkpt>
      <trkpt lat="43.05731" lon="-1.31048">
        <ele>468.964</ele>
        <time>2021-07-05T13:14:41Z</time>
      </trkpt>
      <trkpt lat="43.05618" lon="-1.31168">
        <ele>473.615</ele>
        <time>2021-07-05T13:14:52Z</time>
      </trkpt>
      <trkpt lat="43.05483" lon="-1.31191">
        <ele>487.7925</ele>
        <time>2021-07-05T13:15:03Z</time>
      </trkpt>
      <trkpt lat="43.05378" lon="-1.31443">
        <ele>499.2081</ele>
        <time>2021-07-05T13:15:14Z</time>
      </trkpt>
      <trkpt lat="43.05208" lon="-1.3155">
        <ele>516.8222</ele>
        <time>2021-07-05T13:15:25Z</time>
      </trkpt>
      <trkpt lat="43.05129" lon="-1.3177">
        <ele>527.8627</ele>
        <time>2021-07-05T13:15:36Z</time>
      </trkpt>
      <trkpt lat="43.05059" lon="-1.31961">
        <ele>539.8356</ele>
        <time>2021-07-05T13:15:47Z</time>
      </trkpt>
      <trkpt lat="43.04926" lon="-1.32039">
        <ele>548.1855</ele>
        <time>2021-07-05T13:15:58Z</time>
      </trkpt>
      <trkpt lat="43.04849" lon="-1.32079">
        <ele>556.5869</ele>
        <time>2021-07-05T13:16:09Z</time>
      </trkpt>
      <trkpt lat="43.04721" lon="-1.32178">
        <ele>565.7668</ele>
        <time>2021-07-05T13:16:20Z</time>
      </trkpt>
      <trkpt lat="43.04611" lon="-1.32295">
        <ele>575.4549</ele>
        <time>2021-07-05T13:16:31Z</time>
      </trkpt>
      <trkpt lat="43.04534" lon="-1.32445">
        <ele>583.8654</ele>
        <time>2021-07-05T13:16:42Z</time>
      </trkpt>
      <trkpt lat="43.04468" lon="-1.32631">
        <ele>591.1582</ele>
        <time>2021-07-05T13:16:53Z</time>
      </trkpt>
      <trkpt lat="43.04436" lon="-1.32698">
        <ele>594.7</ele>
        <time>2021-07-05T13:17:04Z</time>
      </trkpt>
      <trkpt lat="43.04434" lon="-1.32693">
        <ele>594.617</ele>
        <time>2021-07-05T13:17:16Z</time>
      </trkpt>
      <trkpt lat="43.04443" lon="-1.32686">
        <ele>600.7518</ele>
        <time>2021-07-05T13:17:27Z</time>
      </trkpt>
      <trkpt lat="43.0444" lon="-1.32681">
        <ele>605.6584</ele>
        <time>2021-07-05T13:17:38Z</time>
      </trkpt>
      <trkpt lat="43.04443" lon="-1.32679">
        <ele>602.8602</ele>
        <time>2021-07-05T13:17:55Z</time>
      </trkpt>
      <trkpt lat="43.0445" lon="-1.32676">
        <ele>603.8044</ele>
        <time>2021-07-05T13:18:06Z</time>
      </trkpt>
      <trkpt lat="43.04446" lon="-1.32678">
        <ele>605.696</ele>
        <time>2021-07-05T13:18:17Z</time>
      </trkpt>
      <trkpt lat="43.04438" lon="-1.32682">
        <ele>600.4129</ele>
        <time>2021-07-05T13:18:28Z</time>
      </trkpt>
      <trkpt lat="43.04436" lon="-1.32686">
        <ele>595.5128</ele>
        <time>2021-07-05T13:18:51Z</time>
      </trkpt>
      <trkpt lat="43.04441" lon="-1.32684">
        <ele>599.8148</ele>
        <time>2021-07-05T13:19:04Z</time>
      </trkpt>
      <trkpt lat="43.04444" lon="-1.3268">
        <ele>604.6701</ele>
        <time>2021-07-05T13:19:15Z</time>
      </trkpt>
      <trkpt lat="43.04446" lon="-1.32681">
        <ele>606.514</ele>
        <time>2021-07-05T13:20:14Z</time>
      </trkpt>
      <trkpt lat="43.04442" lon="-1.3268">
        <ele>606.6004</ele>
        <time>2021-07-05T13:21:05Z</time>
      </trkpt>
      <trkpt lat="43.04444" lon="-1.32675">
        <ele>609.0716</ele>
        <time>2021-07-05T13:21:18Z</time>
      </trkpt>
      <trkpt lat="43.04409" lon="-1.32621">
        <ele>608.751</ele>
        <time>2021-07-05T13:21:29Z</time>
      </trkpt>
      <trkpt lat="43.04273" lon="-1.32742">
        <ele>605.5477</ele>
        <time>2021-07-05T13:21:40Z</time>
      </trkpt>
      <trkpt lat="43.04087" lon="-1.32802">
        <ele>616.6033</ele>
        <time>2021-07-05T13:21:51Z</time>
      </trkpt>
      <trkpt lat="43.03926" lon="-1.32941">
        <ele>632.6589</ele>
        <time>2021-07-05T13:22:02Z</time>
      </trkpt>
      <trkpt lat="43.03812" lon="-1.33019">
        <ele>643.7563</ele>
        <time>2021-07-05T13:22:13Z</time>
      </trkpt>
      <trkpt lat="43.03912" lon="-1.33045">
        <ele>645.9214</ele>
        <time>2021-07-05T13:22:24Z</time>
      </trkpt>
      <trkpt lat="43.04042" lon="-1.32897">
        <ele>658.3406</ele>
        <time>2021-07-05T13:22:35Z</time>
      </trkpt>
      <trkpt lat="43.04251" lon="-1.32904">
        <ele>671.9458</ele>
        <time>2021-07-05T13:22:46Z</time>
      </trkpt>
      <trkpt lat="43.04339" lon="-1.32946">
        <ele>681.3561</ele>
        <time>2021-07-05T13:22:57Z</time>
      </trkpt>
      <trkpt lat="43.04165" lon="-1.32975">
        <ele>692.2317</ele>
        <time>2021-07-05T13:23:08Z</time>
      </trkpt>
      <trkpt lat="43.03965" lon="-1.33141">
        <ele>708.2047</ele>
        <time>2021-07-05T13:23:19Z</time>
      </trkpt>
      <trkpt lat="43.03923" lon="-1.33349">
        <ele>722.7214</ele>
        <time>2021-07-05T13:23:30Z</time>
      </trkpt>
      <trkpt lat="43.0385" lon="-1.33427">
        <ele>735.2616</ele>
        <time>2021-07-05T13:23:41Z</time>
      </trkpt>
      <trkpt lat="43.0377" lon="-1.33524">
        <ele>748.3593</ele>
        <time>2021-07-05T13:23:52Z</time>
      </trkpt>
      <trkpt lat="43.03634" lon="-1.33636">
        <ele>762.5367</ele>
        <time>2021-07-05T13:24:03Z</time>
      </trkpt>
      <trkpt lat="43.0349" lon="-1.3383">
        <ele>778.549</ele>
        <time>2021-07-05T13:24:14Z</time>
      </trkpt>
      <trkpt lat="43.03347" lon="-1.34024">
        <ele>793.3742</ele>
        <time>2021-07-05T13:24:25Z</time>
      </trkpt>
      <trkpt lat="43.03343" lon="-1.34237">
        <ele>805.2198</ele>
        <time>2021-07-05T13:24:36Z</time>
      </trkpt>
      <trkpt lat="43.03236" lon="-1.34192">
        <ele>817.9352</ele>
        <time>2021-07-05T13:24:47Z</time>
      </trkpt>
      <trkpt lat="43.03145" lon="-1.34261">
        <ele>827.1999</ele>
        <time>2021-07-05T13:24:58Z</time>
      </trkpt>
      <trkpt lat="43.03132" lon="-1.34054">
        <ele>837.3476</ele>
        <time>2021-07-05T13:25:09Z</time>
      </trkpt>
      <trkpt lat="43.03119" lon="-1.3384">
        <ele>852.8708</ele>
        <time>2021-07-05T13:25:20Z</time>
      </trkpt>
      <trkpt lat="43.03023" lon="-1.33633">
        <ele>863.017</ele>
        <time>2021-07-05T13:25:31Z</time>
      </trkpt>
      <trkpt lat="43.02909" lon="-1.3347">
        <ele>870.9699</ele>
        <time>2021-07-05T13:25:42Z</time>
      </trkpt>
      <trkpt lat="43.02933" lon="-1.33366">
        <ele>878.0033</ele>
        <time>2021-07-05T13:25:53Z</time>
      </trkpt>
      <trkpt lat="43.02901" lon="-1.33427">
        <ele>882.7402</ele>
        <time>2021-07-05T13:26:04Z</time>
      </trkpt>
      <trkpt lat="43.02873" lon="-1.33539">
        <ele>894.7838</ele>
        <time>2021-07-05T13:26:15Z</time>
      </trkpt>
      <trkpt lat="43.02906" lon="-1.33708">
        <ele>910.751</ele>
        <time>2021-07-05T13:26:26Z</time>
      </trkpt>
      <trkpt lat="43.03004" lon="-1.33903">
        <ele>924.2046</ele>
        <time>2021-07-05T13:26:37Z</time>
      </trkpt>
      <trkpt lat="43.03018" lon="-1.34129">
        <ele>931.2487</ele>
        <time>2021-07-05T13:26:48Z</time>
      </trkpt>
      <trkpt lat="43.02977" lon="-1.33978">
        <ele>936.2272</ele>
        <time>2021-07-05T13:26:59Z</time>
      </trkpt>
      <trkpt lat="43.02897" lon="-1.33795">
        <ele>946.3429</ele>
        <time>2021-07-05T13:27:10Z</time>
      </trkpt>
      <trkpt lat="43.0277" lon="-1.33611">
        <ele>961.4377</ele>
        <time>2021-07-05T13:27:21Z</time>
      </trkpt>
      <trkpt lat="43.02691" lon="-1.33443">
        <ele>972.4101</ele>
        <time>2021-07-05T13:27:32Z</time>
      </trkpt>
      <trkpt lat="43.02639" lon="-1.33228">
        <ele>985.0845</ele>
        <time>2021-07-05T13:27:43Z</time>
      </trkpt>
      <trkpt lat="43.02453" lon="-1.33027">
        <ele>998.6259</ele>
        <time>2021-07-05T13:27:54Z</time>
      </trkpt>
      <trkpt lat="43.02284" lon="-1.33025">
        <ele>1008.636</ele>
        <time>2021-07-05T13:28:05Z</time>
      </trkpt>
      <trkpt lat="43.02292" lon="-1.3277">
        <ele>1022.756</ele>
        <time>2021-07-05T13:28:16Z</time>
      </trkpt>
      <trkpt lat="43.02129" lon="-1.32562">
        <ele>1038.07</ele>
        <time>2021-07-05T13:28:27Z</time>
      </trkpt>
      <trkpt lat="43.01996" lon="-1.3242">
        <ele>1050.691</ele>
        <time>2021-07-05T13:28:38Z</time>
      </trkpt>
      <trkpt lat="43.01813" lon="-1.32341">
        <ele>1038.343</ele>
        <time>2021-07-05T13:28:49Z</time>
      </trkpt>
      <trkpt lat="43.01639" lon="-1.32189">
        <ele>1021.471</ele>
        <time>2021-07-05T13:29:00Z</time>
      </trkpt>
      <trkpt lat="43.01493" lon="-1.31969">
        <ele>1000.168</ele>
        <time>2021-07-05T13:29:11Z</time>
      </trkpt>
      <trkpt lat="43.01302" lon="-1.31934">
        <ele>985.012</ele>
        <time>2021-07-05T13:29:22Z</time>
      </trkpt>
      <trkpt lat="43.01095" lon="-1.31961">
        <ele>973.0852</ele>
        <time>2021-07-05T13:29:33Z</time>
      </trkpt>
      <trkpt lat="43.00976" lon="-1.3211">
        <ele>964.864</ele>
        <time>2021-07-05T13:29:44Z</time>
      </trkpt>
      <trkpt lat="43.00947" lon="-1.32213">
        <ele>961.294</ele>
        <time>2021-07-05T13:29:55Z</time>
      </trkpt>
      <trkpt lat="43.00918" lon="-1.32051">
        <ele>955.6464</ele>
        <time>2021-07-05T13:30:06Z</time>
      </trkpt>
      <trkpt lat="43.00828" lon="-1.31963">
        <ele>946.3055</ele>
        <time>2021-07-05T13:30:17Z</time>
      </trkpt>
      <trkpt lat="43.00659" lon="-1.31927">
        <ele>939.3941</ele>
        <time>2021-07-05T13:30:28Z</time>
      </trkpt>
      <trkpt lat="43.0044" lon="-1.31951">
        <ele>932.1622</ele>
        <time>2021-07-05T13:30:39Z</time>
      </trkpt>
      <trkpt lat="43.00226" lon="-1.32138">
        <ele>925.6309</ele>
        <time>2021-07-05T13:30:50Z</time>
      </trkpt>
      <trkpt lat="43.00052" lon="-1.3231">
        <ele>919.9597</ele>
        <time>2021-07-05T13:31:01Z</time>
      </trkpt>
      <trkpt lat="42.99884" lon="-1.32476">
        <ele>916.4986</ele>
        <time>2021-07-05T13:31:12Z</time>
      </trkpt>
      <trkpt lat="42.99733" lon="-1.32623">
        <ele>913.3777</ele>
        <time>2021-07-05T13:31:23Z</time>
      </trkpt>
      <trkpt lat="42.99573" lon="-1.32782">
        <ele>904.6626</ele>
        <time>2021-07-05T13:31:34Z</time>
      </trkpt>
      <trkpt lat="42.99433" lon="-1.32918">
        <ele>901.6025</ele>
        <time>2021-07-05T13:31:45Z</time>
      </trkpt>
      <trkpt lat="42.99317" lon="-1.33033">
        <ele>899.0057</ele>
        <time>2021-07-05T13:31:56Z</time>
      </trkpt>
      <trkpt lat="42.99205" lon="-1.33189">
        <ele>893.6421</ele>
        <time>2021-07-05T13:32:07Z</time>
      </trkpt>
      <trkpt lat="42.99129" lon="-1.33369">
        <ele>894.3665</ele>
        <time>2021-07-05T13:32:18Z</time>
      </trkpt>
      <trkpt lat="42.99059" lon="-1.33496">
        <ele>893.8012</ele>
        <time>2021-07-05T13:32:29Z</time>
      </trkpt>
      <trkpt lat="42.98949" lon="-1.33582">
        <ele>893.888</ele>
        <time>2021-07-05T13:32:40Z</time>
      </trkpt>
      <trkpt lat="42.9884" lon="-1.33655">
        <ele>892.578</ele>
        <time>2021-07-05T13:32:51Z</time>
      </trkpt>
      <trkpt lat="42.98723" lon="-1.33712">
        <ele>889.602</ele>
        <time>2021-07-05T13:33:02Z</time>
      </trkpt>
      <trkpt lat="42.98594" lon="-1.33833">
        <ele>886.4619</ele>
        <time>2021-07-05T13:33:13Z</time>
      </trkpt>
      <trkpt lat="42.98455" lon="-1.34003">
        <ele>878.6225</ele>
        <time>2021-07-05T13:33:24Z</time>
      </trkpt>
      <trkpt lat="42.98303" lon="-1.34189">
        <ele>876.6213</ele>
        <time>2021-07-05T13:33:35Z</time>
      </trkpt>
      <trkpt lat="42.98126" lon="-1.34404">
        <ele>881.234</ele>
        <time>2021-07-05T13:33:46Z</time>
      </trkpt>
      <trkpt lat="42.97955" lon="-1.34592">
        <ele>876.0199</ele>
        <time>2021-07-05T13:33:57Z</time>
      </trkpt>
      <trkpt lat="42.9779" lon="-1.34774">
        <ele>871.8706</ele>
        <time>2021-07-05T13:34:08Z</time>
      </trkpt>
      <trkpt lat="42.9762" lon="-1.34958">
        <ele>867.2684</ele>
        <time>2021-07-05T13:34:19Z</time>
      </trkpt>
      <trkpt lat="42.97453" lon="-1.35143">
        <ele>868.8696</ele>
        <time>2021-07-05T13:34:30Z</time>
      </trkpt>
      <trkpt lat="42.97286" lon="-1.35327">
        <ele>870.2817</ele>
        <time>2021-07-05T13:34:41Z</time>
      </trkpt>
      <trkpt lat="42.97343" lon="-1.35533">
        <ele>878.4209</ele>
        <time>2021-07-05T13:34:52Z</time>
      </trkpt>
      <trkpt lat="42.97499" lon="-1.35725">
        <ele>866.7085</ele>
        <time>2021-07-05T13:35:03Z</time>
      </trkpt>
      <trkpt lat="42.97619" lon="-1.35994">
        <ele>853.5602</ele>
        <time>2021-07-05T13:35:14Z</time>
      </trkpt>
      <trkpt lat="42.97731" lon="-1.36256">
        <ele>860.0989</ele>
        <time>2021-07-05T13:35:25Z</time>
      </trkpt>
      <trkpt lat="42.97827" lon="-1.3649">
        <ele>873.813</ele>
        <time>2021-07-05T13:35:36Z</time>
      </trkpt>
      <trkpt lat="42.97873" lon="-1.36678">
        <ele>875.0949</ele>
        <time>2021-07-05T13:35:47Z</time>
      </trkpt>
      <trkpt lat="42.9789" lon="-1.36839">
        <ele>870.1685</ele>
        <time>2021-07-05T13:35:58Z</time>
      </trkpt>
      <trkpt lat="42.97919" lon="-1.36978">
        <ele>867.7682</ele>
        <time>2021-07-05T13:36:09Z</time>
      </trkpt>
      <trkpt lat="42.97949" lon="-1.37093">
        <ele>869.2059</ele>
        <time>2021-07-05T13:36:20Z</time>
      </trkpt>
      <trkpt lat="42.97979" lon="-1.37199">
        <ele>872.0343</ele>
        <time>2021-07-05T13:36:31Z</time>
      </trkpt>
      <trkpt lat="42.98016" lon="-1.37311">
        <ele>875.1125</ele>
        <time>2021-07-05T13:36:42Z</time>
      </trkpt>
      <trkpt lat="42.98102" lon="-1.37416">
        <ele>872.7279</ele>
        <time>2021-07-05T13:36:53Z</time>
      </trkpt>
      <trkpt lat="42.98194" lon="-1.37518">
        <ele>873.3009</ele>
        <time>2021-07-05T13:37:04Z</time>
      </trkpt>
      <trkpt lat="42.98188" lon="-1.37701">
        <ele>874.9969</ele>
        <time>2021-07-05T13:37:15Z</time>
      </trkpt>
      <trkpt lat="42.98166" lon="-1.37974">
        <ele>874.2973</ele>
        <time>2021-07-05T13:37:26Z</time>
      </trkpt>
      <trkpt lat="42.98196" lon="-1.38187">
        <ele>882.9063</ele>
        <time>2021-07-05T13:37:37Z</time>
      </trkpt>
      <trkpt lat="42.98156" lon="-1.38376">
        <ele>893.6535</ele>
        <time>2021-07-05T13:37:48Z</time>
      </trkpt>
      <trkpt lat="42.98074" lon="-1.38558">
        <ele>902.5095</ele>
        <time>2021-07-05T13:37:59Z</time>
      </trkpt>
      <trkpt lat="42.9818" lon="-1.38636">
        <ele>909.9155</ele>
        <time>2021-07-05T13:38:10Z</time>
      </trkpt>
      <trkpt lat="42.98036" lon="-1.38637">
        <ele>916.8088</ele>
        <time>2021-07-05T13:38:21Z</time>
      </trkpt>
      <trkpt lat="42.97978" lon="-1.38719">
        <ele>919.4917</ele>
        <time>2021-07-05T13:38:32Z</time>
      </trkpt>
      <trkpt lat="42.9799" lon="-1.38784">
        <ele>919.0774</ele>
        <time>2021-07-05T13:38:43Z</time>
      </trkpt>
      <trkpt lat="42.97807" lon="-1.38777">
        <ele>903.5508</ele>
        <time>2021-07-05T13:38:54Z</time>
      </trkpt>
      <trkpt lat="42.97646" lon="-1.38741">
        <ele>888.6754</ele>
        <time>2021-07-05T13:39:05Z</time>
      </trkpt>
      <trkpt lat="42.97597" lon="-1.38755">
        <ele>879.6504</ele>
        <time>2021-07-05T13:39:16Z</time>
      </trkpt>
      <trkpt lat="42.97715" lon="-1.38874">
        <ele>869.0483</ele>
        <time>2021-07-05T13:39:27Z</time>
      </trkpt>
      <trkpt lat="42.97772" lon="-1.39071">
        <ele>862.1057</ele>
        <time>2021-07-05T13:39:38Z</time>
      </trkpt>
      <trkpt lat="42.97797" lon="-1.39227">
        <ele>848.9683</ele>
        <time>2021-07-05T13:39:49Z</time>
      </trkpt>
      <trkpt lat="42.97745" lon="-1.39461">
        <ele>833.9129</ele>
        <time>2021-07-05T13:40:00Z</time>
      </trkpt>
      <trkpt lat="42.97681" lon="-1.39693">
        <ele>822.5358</ele>
        <time>2021-07-05T13:40:11Z</time>
      </trkpt>
      <trkpt lat="42.97665" lon="-1.39852">
        <ele>812.6665</ele>
        <time>2021-07-05T13:40:22Z</time>
      </trkpt>
      <trkpt lat="42.97537" lon="-1.39882">
        <ele>807.8966</ele>
        <time>2021-07-05T13:40:33Z</time>
      </trkpt>
      <trkpt lat="42.97366" lon="-1.4001">
        <ele>790.0979</ele>
        <time>2021-07-05T13:40:44Z</time>
      </trkpt>
      <trkpt lat="42.97134" lon="-1.40094">
        <ele>775.7793</ele>
        <time>2021-07-05T13:40:55Z</time>
      </trkpt>
      <trkpt lat="42.96966" lon="-1.40071">
        <ele>764.732</ele>
        <time>2021-07-05T13:41:06Z</time>
      </trkpt>
      <trkpt lat="42.96851" lon="-1.4023">
        <ele>761.2273</ele>
        <time>2021-07-05T13:41:17Z</time>
      </trkpt>
      <trkpt lat="42.96947" lon="-1.40457">
        <ele>755.596</ele>
        <time>2021-07-05T13:41:28Z</time>
      </trkpt>
      <trkpt lat="42.97076" lon="-1.40631">
        <ele>749.7737</ele>
        <time>2021-07-05T13:41:39Z</time>
      </trkpt>
      <trkpt lat="42.9709" lon="-1.40886">
        <ele>760.7332</ele>
        <time>2021-07-05T13:41:50Z</time>
      </trkpt>
      <trkpt lat="42.96965" lon="-1.41081">
        <ele>772.0985</ele>
        <time>2021-07-05T13:42:01Z</time>
      </trkpt>
      <trkpt lat="42.9701" lon="-1.41196">
        <ele>779.3862</ele>
        <time>2021-07-05T13:42:12Z</time>
      </trkpt>
      <trkpt lat="42.96967" lon="-1.41409">
        <ele>777.2611</ele>
        <time>2021-07-05T13:42:23Z</time>
      </trkpt>
      <trkpt lat="42.96876" lon="-1.41635">
        <ele>771.7963</ele>
        <time>2021-07-05T13:42:34Z</time>
      </trkpt>
      <trkpt lat="42.96801" lon="-1.4185">
        <ele>776.1067</ele>
        <time>2021-07-05T13:42:45Z</time>
      </trkpt>
      <trkpt lat="42.96824" lon="-1.4205">
        <ele>771.7597</ele>
        <time>2021-07-05T13:42:56Z</time>
      </trkpt>
      <trkpt lat="42.96754" lon="-1.42249">
        <ele>779.2053</ele>
        <time>2021-07-05T13:43:07Z</time>
      </trkpt>
      <trkpt lat="42.96749" lon="-1.42453">
        <ele>773.243</ele>
        <time>2021-07-05T13:43:18Z</time>
      </trkpt>
      <trkpt lat="42.96689" lon="-1.42696">
        <ele>761.73</ele>
        <time>2021-07-05T13:43:29Z</time>
      </trkpt>
      <trkpt lat="42.96555" lon="-1.42928">
        <ele>751.4402</ele>
        <time>2021-07-05T13:43:40Z</time>
      </trkpt>
      <trkpt lat="42.96404" lon="-1.43151">
        <ele>739.0756</ele>
        <time>2021-07-05T13:43:51Z</time>
      </trkpt>
      <trkpt lat="42.96198" lon="-1.43258">
        <ele>727.7411</ele>
        <time>2021-07-05T13:44:02Z</time>
      </trkpt>
      <trkpt lat="42.95993" lon="-1.43343">
        <ele>720.8746</ele>
        <time>2021-07-05T13:44:13Z</time>
      </trkpt>
      <trkpt lat="42.95786" lon="-1.43355">
        <ele>715.8315</ele>
        <time>2021-07-05T13:44:24Z</time>
      </trkpt>
      <trkpt lat="42.95576" lon="-1.43206">
        <ele>710.5373</ele>
        <time>2021-07-05T13:44:35Z</time>
      </trkpt>
      <trkpt lat="42.95378" lon="-1.43102">
        <ele>708.4961</ele>
        <time>2021-07-05T13:44:46Z</time>
      </trkpt>
      <trkpt lat="42.95151" lon="-1.43116">
        <ele>706.0489</ele>
        <time>2021-07-05T13:44:57Z</time>
      </trkpt>
      <trkpt lat="42.94971" lon="-1.43237">
        <ele>693.3302</ele>
        <time>2021-07-05T13:45:08Z</time>
      </trkpt>
      <trkpt lat="42.94844" lon="-1.43502">
        <ele>690.15</ele>
        <time>2021-07-05T13:45:19Z</time>
      </trkpt>
      <trkpt lat="42.94624" lon="-1.43662">
        <ele>688.3286</ele>
        <time>2021-07-05T13:45:30Z</time>
      </trkpt>
      <trkpt lat="42.94493" lon="-1.43931">
        <ele>676.8562</ele>
        <time>2021-07-05T13:45:41Z</time>
      </trkpt>
      <trkpt lat="42.94392" lon="-1.44182">
        <ele>681.4146</ele>
        <time>2021-07-05T13:45:52Z</time>
      </trkpt>
      <trkpt lat="42.94316" lon="-1.44422">
        <ele>671.6351</ele>
        <time>2021-07-05T13:46:03Z</time>
      </trkpt>
      <trkpt lat="42.94262" lon="-1.44639">
        <ele>663.6483</ele>
        <time>2021-07-05T13:46:14Z</time>
      </trkpt>
      <trkpt lat="42.94246" lon="-1.44839">
        <ele>656.5647</ele>
        <time>2021-07-05T13:46:25Z</time>
      </trkpt>
      <trkpt lat="42.94164" lon="-1.4492">
        <ele>665.1016</ele>
        <time>2021-07-05T13:46:36Z</time>
      </trkpt>
      <trkpt lat="42.94071" lon="-1.44993">
        <ele>667.3967</ele>
        <time>2021-07-05T13:46:47Z</time>
      </trkpt>
      <trkpt lat="42.94142" lon="-1.45169">
        <ele>663.9152</ele>
        <time>2021-07-05T13:46:58Z</time>
      </trkpt>
      <trkpt lat="42.94061" lon="-1.45347">
        <ele>670.613</ele>
        <time>2021-07-05T13:47:09Z</time>
      </trkpt>
      <trkpt lat="42.93923" lon="-1.45502">
        <ele>679.2989</ele>
        <time>2021-07-05T13:47:20Z</time>
      </trkpt>
      <trkpt lat="42.93911" lon="-1.45598">
        <ele>688.5894</ele>
        <time>2021-07-05T13:47:31Z</time>
      </trkpt>
      <trkpt lat="42.93876" lon="-1.45827">
        <ele>701.7946</ele>
        <time>2021-07-05T13:47:42Z</time>
      </trkpt>
      <trkpt lat="42.93843" lon="-1.45943">
        <ele>710.9787</ele>
        <time>2021-07-05T13:47:53Z</time>
      </trkpt>
      <trkpt lat="42.93976" lon="-1.46067">
        <ele>720.149</ele>
        <time>2021-07-05T13:48:04Z</time>
      </trkpt>
      <trkpt lat="42.94173" lon="-1.46153">
        <ele>732.9916</ele>
        <time>2021-07-05T13:48:15Z</time>
      </trkpt>
      <trkpt lat="42.942" lon="-1.46252">
        <ele>741.4496</ele>
        <time>2021-07-05T13:48:26Z</time>
      </trkpt>
      <trkpt lat="42.94132" lon="-1.46424">
        <ele>752.294</ele>
        <time>2021-07-05T13:48:37Z</time>
      </trkpt>
      <trkpt lat="42.94352" lon="-1.46502">
        <ele>763.0904</ele>
        <time>2021-07-05T13:48:48Z</time>
      </trkpt>
      <trkpt lat="42.94406" lon="-1.46659">
        <ele>768.7393</ele>
        <time>2021-07-05T13:48:59Z</time>
      </trkpt>
      <trkpt lat="42.94376" lon="-1.46822">
        <ele>784.1074</ele>
        <time>2021-07-05T13:49:10Z</time>
      </trkpt>
      <trkpt lat="42.94195" lon="-1.46845">
        <ele>791.7512</ele>
        <time>2021-07-05T13:49:21Z</time>
      </trkpt>
      <trkpt lat="42.9416" lon="-1.47058">
        <ele>801.1911</ele>
        <time>2021-07-05T13:49:32Z</time>
      </trkpt>
      <trkpt lat="42.94338" lon="-1.4706">
        <ele>789.1596</ele>
        <time>2021-07-05T13:49:43Z</time>
      </trkpt>
      <trkpt lat="42.94512" lon="-1.47023">
        <ele>773.5441</ele>
        <time>2021-07-05T13:49:54Z</time>
      </trkpt>
      <trkpt lat="42.9467" lon="-1.46987">
        <ele>765.2533</ele>
        <time>2021-07-05T13:50:05Z</time>
      </trkpt>
      <trkpt lat="42.94764" lon="-1.47084">
        <ele>758.2363</ele>
        <time>2021-07-05T13:50:16Z</time>
      </trkpt>
      <trkpt lat="42.94696" lon="-1.47319">
        <ele>745.5424</ele>
        <time>2021-07-05T13:50:27Z</time>
      </trkpt>
      <trkpt lat="42.94655" lon="-1.47519">
        <ele>733.1083</ele>
        <time>2021-07-05T13:50:38Z</time>
      </trkpt>
      <trkpt lat="42.94578" lon="-1.47684">
        <ele>725.2287</ele>
        <time>2021-07-05T13:50:49Z</time>
      </trkpt>
      <trkpt lat="42.94661" lon="-1.47814">
        <ele>716.9469</ele>
        <time>2021-07-05T13:51:00Z</time>
      </trkpt>
      <trkpt lat="42.94563" lon="-1.47783">
        <ele>713.4241</ele>
        <time>2021-07-05T13:51:11Z</time>
      </trkpt>
      <trkpt lat="42.94532" lon="-1.47732">
        <ele>705.8005</ele>
        <time>2021-07-05T13:51:22Z</time>
      </trkpt>
      <trkpt lat="42.94652" lon="-1.47882">
        <ele>696.6736</ele>
        <time>2021-07-05T13:51:33Z</time>
      </trkpt>
      <trkpt lat="42.94786" lon="-1.4788">
        <ele>686.3639</ele>
        <time>2021-07-05T13:51:44Z</time>
      </trkpt>
      <trkpt lat="42.94915" lon="-1.47794">
        <ele>676.1716</ele>
        <time>2021-07-05T13:51:55Z</time>
      </trkpt>
      <trkpt lat="42.94974" lon="-1.47865">
        <ele>667.5621</ele>
        <time>2021-07-05T13:52:06Z</time>
      </trkpt>
      <trkpt lat="42.94989" lon="-1.48105">
        <ele>655.0578</ele>
        <time>2021-07-05T13:52:17Z</time>
      </trkpt>
      <trkpt lat="42.9489" lon="-1.48292">
        <ele>643.2934</ele>
        <time>2021-07-05T13:52:28Z</time>
      </trkpt>
      <trkpt lat="42.94802" lon="-1.48405">
        <ele>634.9938</ele>
        <time>2021-07-05T13:52:39Z</time>
      </trkpt>
      <trkpt lat="42.94808" lon="-1.48504">
        <ele>622.2252</ele>
        <time>2021-07-05T13:52:50Z</time>
      </trkpt>
      <trkpt lat="42.9478" lon="-1.48671">
        <ele>613.6477</ele>
        <time>2021-07-05T13:53:01Z</time>
      </trkpt>
      <trkpt lat="42.94641" lon="-1.48728">
        <ele>602.9588</ele>
        <time>2021-07-05T13:53:12Z</time>
      </trkpt>
      <trkpt lat="42.94634" lon="-1.48865">
        <ele>594.4983</ele>
        <time>2021-07-05T13:53:23Z</time>
      </trkpt>
      <trkpt lat="42.9455" lon="-1.48936">
        <ele>590.0373</ele>
        <time>2021-07-05T13:53:34Z</time>
      </trkpt>
      <trkpt lat="42.94565" lon="-1.49111">
        <ele>581.1096</ele>
        <time>2021-07-05T13:53:45Z</time>
      </trkpt>
      <trkpt lat="42.94447" lon="-1.49299">
        <ele>570.4727</ele>
        <time>2021-07-05T13:53:56Z</time>
      </trkpt>
      <trkpt lat="42.94343" lon="-1.49466">
        <ele>566.6514</ele>
        <time>2021-07-05T13:54:07Z</time>
      </trkpt>
      <trkpt lat="42.9415" lon="-1.49499">
        <ele>560.5042</ele>
        <time>2021-07-05T13:54:18Z</time>
      </trkpt>
      <trkpt lat="42.94014" lon="-1.49602">
        <ele>546.2857</ele>
        <time>2021-07-05T13:54:29Z</time>
      </trkpt>
      <trkpt lat="42.93849" lon="-1.49845">
        <ele>539.6405</ele>
        <time>2021-07-05T13:54:40Z</time>
      </trkpt>
      <trkpt lat="42.93739" lon="-1.50056">
        <ele>531.9517</ele>
        <time>2021-07-05T13:54:51Z</time>
      </trkpt>
      <trkpt lat="42.93646" lon="-1.50232">
        <ele>529.4045</ele>
        <time>2021-07-05T13:55:02Z</time>
      </trkpt>
      <trkpt lat="42.93524" lon="-1.50346">
        <ele>527.7698</ele>
        <time>2021-07-05T13:55:13Z</time>
      </trkpt>
      <trkpt lat="42.93387" lon="-1.50377">
        <ele>529.2961</ele>
        <time>2021-07-05T13:55:24Z</time>
      </trkpt>
      <trkpt lat="42.93262" lon="-1.50405">
        <ele>527.8691</ele>
        <time>2021-07-05T13:55:35Z</time>
      </trkpt>
      <trkpt lat="42.9318" lon="-1.50424">
        <ele>525.5206</ele>
        <time>2021-07-05T13:55:46Z</time>
      </trkpt>
      <trkpt lat="42.93096" lon="-1.50445">
        <ele>531.693</ele>
        <time>2021-07-05T13:55:57Z</time>
      </trkpt>
      <trkpt lat="42.93005" lon="-1.50485">
        <ele>529.7904</ele>
        <time>2021-07-05T13:56:08Z</time>
      </trkpt>
      <trkpt lat="42.92892" lon="-1.50546">
        <ele>527.4485</ele>
        <time>2021-07-05T13:56:19Z</time>
      </trkpt>
      <trkpt lat="42.92782" lon="-1.50606">
        <ele>526.4929</ele>
        <time>2021-07-05T13:56:30Z</time>
      </trkpt>
      <trkpt lat="42.92658" lon="-1.5071">
        <ele>526.6008</ele>
        <time>2021-07-05T13:56:41Z</time>
      </trkpt>
      <trkpt lat="42.92529" lon="-1.50819">
        <ele>524.8129</ele>
        <time>2021-07-05T13:56:52Z</time>
      </trkpt>
      <trkpt lat="42.92379" lon="-1.50937">
        <ele>524.9811</ele>
        <time>2021-07-05T13:57:03Z</time>
      </trkpt>
      <trkpt lat="42.92222" lon="-1.51108">
        <ele>526.7313</ele>
        <time>2021-07-05T13:57:14Z</time>
      </trkpt>
      <trkpt lat="42.92075" lon="-1.51303">
        <ele>522.4375</ele>
        <time>2021-07-05T13:57:25Z</time>
      </trkpt>
      <trkpt lat="42.91951" lon="-1.51501">
        <ele>516.7908</ele>
        <time>2021-07-05T13:57:36Z</time>
      </trkpt>
      <trkpt lat="42.91799" lon="-1.51667">
        <ele>515.1116</ele>
        <time>2021-07-05T13:57:47Z</time>
      </trkpt>
      <trkpt lat="42.91645" lon="-1.51794">
        <ele>514.5621</ele>
        <time>2021-07-05T13:57:58Z</time>
      </trkpt>
      <trkpt lat="42.91503" lon="-1.51947">
        <ele>513.4291</ele>
        <time>2021-07-05T13:58:09Z</time>
      </trkpt>
      <trkpt lat="42.91399" lon="-1.52147">
        <ele>510.1453</ele>
        <time>2021-07-05T13:58:20Z</time>
      </trkpt>
      <trkpt lat="42.91245" lon="-1.52276">
        <ele>508.9608</ele>
        <time>2021-07-05T13:58:31Z</time>
      </trkpt>
      <trkpt lat="42.91124" lon="-1.5246">
        <ele>507.2021</ele>
        <time>2021-07-05T13:58:42Z</time>
      </trkpt>
      <trkpt lat="42.91099" lon="-1.52721">
        <ele>507.9135</ele>
        <time>2021-07-05T13:58:53Z</time>
      </trkpt>
      <trkpt lat="42.91035" lon="-1.52977">
        <ele>505.3398</ele>
        <time>2021-07-05T13:59:04Z</time>
      </trkpt>
      <trkpt lat="42.90965" lon="-1.53224">
        <ele>502.3231</ele>
        <time>2021-07-05T13:59:15Z</time>
      </trkpt>
      <trkpt lat="42.90878" lon="-1.53446">
        <ele>499.1918</ele>
        <time>2021-07-05T13:59:26Z</time>
      </trkpt>
      <trkpt lat="42.90706" lon="-1.53549">
        <ele>498.9895</ele>
        <time>2021-07-05T13:59:37Z</time>
      </trkpt>
      <trkpt lat="42.90556" lon="-1.53651">
        <ele>497.0287</ele>
        <time>2021-07-05T13:59:48Z</time>
      </trkpt>
      <trkpt lat="42.90431" lon="-1.53804">
        <ele>496.8928</ele>
        <time>2021-07-05T13:59:59Z</time>
      </trkpt>
      <trkpt lat="42.90352" lon="-1.53994">
        <ele>497.6939</ele>
        <time>2021-07-05T14:00:10Z</time>
      </trkpt>
      <trkpt lat="42.90278" lon="-1.54236">
        <ele>499.277</ele>
        <time>2021-07-05T14:00:21Z</time>
      </trkpt>
      <trkpt lat="42.90136" lon="-1.54407">
        <ele>495.3932</ele>
        <time>2021-07-05T14:00:32Z</time>
      </trkpt>
      <trkpt lat="42.9005" lon="-1.54639">
        <ele>493.0705</ele>
        <time>2021-07-05T14:00:43Z</time>
      </trkpt>
      <trkpt lat="42.89979" lon="-1.54887">
        <ele>491.7889</ele>
        <time>2021-07-05T14:00:54Z</time>
      </trkpt>
      <trkpt lat="42.89848" lon="-1.55085">
        <ele>490.7703</ele>
        <time>2021-07-05T14:01:05Z</time>
      </trkpt>
      <trkpt lat="42.89724" lon="-1.55287">
        <ele>488.2659</ele>
        <time>2021-07-05T14:01:16Z</time>
      </trkpt>
      <trkpt lat="42.89564" lon="-1.55428">
        <ele>485.9564</ele>
        <time>2021-07-05T14:01:27Z</time>
      </trkpt>
      <trkpt lat="42.89392" lon="-1.55545">
        <ele>482.0494</ele>
        <time>2021-07-05T14:01:38Z</time>
      </trkpt>
      <trkpt lat="42.89229" lon="-1.55685">
        <ele>484.0125</ele>
        <time>2021-07-05T14:01:49Z</time>
      </trkpt>
      <trkpt lat="42.89075" lon="-1.55866">
        <ele>484.7806</ele>
        <time>2021-07-05T14:02:00Z</time>
      </trkpt>
      <trkpt lat="42.88866" lon="-1.56115">
        <ele>483.0503</ele>
        <time>2021-07-05T14:02:11Z</time>
      </trkpt>
      <trkpt lat="42.8866" lon="-1.56347">
        <ele>476.0746</ele>
        <time>2021-07-05T14:02:22Z</time>
      </trkpt>
      <trkpt lat="42.88395" lon="-1.56383">
        <ele>481.8804</ele>
        <time>2021-07-05T14:02:33Z</time>
      </trkpt>
      <trkpt lat="42.88139" lon="-1.56447">
        <ele>478.1262</ele>
        <time>2021-07-05T14:02:44Z</time>
      </trkpt>
      <trkpt lat="42.87969" lon="-1.56552">
        <ele>476.864</ele>
        <time>2021-07-05T14:02:55Z</time>
      </trkpt>
      <trkpt lat="42.87814" lon="-1.5665">
        <ele>476.7367</ele>
        <time>2021-07-05T14:03:06Z</time>
      </trkpt>
      <trkpt lat="42.87655" lon="-1.56751">
        <ele>474.3333</ele>
        <time>2021-07-05T14:03:17Z</time>
      </trkpt>
      <trkpt lat="42.87482" lon="-1.56865">
        <ele>472.2728</ele>
        <time>2021-07-05T14:03:28Z</time>
      </trkpt>
      <trkpt lat="42.87296" lon="-1.56991">
        <ele>478.3211</ele>
        <time>2021-07-05T14:03:39Z</time>
      </trkpt>
      <trkpt lat="42.8707" lon="-1.57117">
        <ele>491.8524</ele>
        <time>2021-07-05T14:03:50Z</time>
      </trkpt>
      <trkpt lat="42.86821" lon="-1.57165">
        <ele>486.1227</ele>
        <time>2021-07-05T14:04:01Z</time>
      </trkpt>
      <trkpt lat="42.86562" lon="-1.57266">
        <ele>476.772</ele>
        <time>2021-07-05T14:04:12Z</time>
      </trkpt>
      <trkpt lat="42.86356" lon="-1.57314">
        <ele>471.7401</ele>
        <time>2021-07-05T14:04:23Z</time>
      </trkpt>
      <trkpt lat="42.86255" lon="-1.57345">
        <ele>470.4016</ele>
        <time>2021-07-05T14:04:34Z</time>
      </trkpt>
      <trkpt lat="42.861" lon="-1.57452">
        <ele>469.4278</ele>
        <time>2021-07-05T14:04:45Z</time>
      </trkpt>
      <trkpt lat="42.85918" lon="-1.57617">
        <ele>467.6021</ele>
        <time>2021-07-05T14:04:56Z</time>
      </trkpt>
      <trkpt lat="42.85741" lon="-1.57838">
        <ele>474.4203</ele>
        <time>2021-07-05T14:05:07Z</time>
      </trkpt>
      <trkpt lat="42.8559" lon="-1.58016">
        <ele>476.8484</ele>
        <time>2021-07-05T14:05:18Z</time>
      </trkpt>
      <trkpt lat="42.85425" lon="-1.58193">
        <ele>468.6318</ele>
        <time>2021-07-05T14:05:29Z</time>
      </trkpt>
      <trkpt lat="42.85222" lon="-1.5834">
        <ele>453.9746</ele>
        <time>2021-07-05T14:05:40Z</time>
      </trkpt>
      <trkpt lat="42.84988" lon="-1.5842">
        <ele>452.9305</ele>
        <time>2021-07-05T14:05:51Z</time>
      </trkpt>
      <trkpt lat="42.84757" lon="-1.58496">
        <ele>452.6014</ele>
        <time>2021-07-05T14:06:02Z</time>
      </trkpt>
      <trkpt lat="42.8454" lon="-1.58592">
        <ele>449.3376</ele>
        <time>2021-07-05T14:06:13Z</time>
      </trkpt>
      <trkpt lat="42.84319" lon="-1.58653">
        <ele>446.9118</ele>
        <time>2021-07-05T14:06:24Z</time>
      </trkpt>
      <trkpt lat="42.84104" lon="-1.58686">
        <ele>446.5294</ele>
        <time>2021-07-05T14:06:35Z</time>
      </trkpt>
      <trkpt lat="42.83996" lon="-1.58678">
        <ele>445.2004</ele>
        <time>2021-07-05T14:06:46Z</time>
      </trkpt>
      <trkpt lat="42.83902" lon="-1.58739">
        <ele>443.4243</ele>
        <time>2021-07-05T14:06:57Z</time>
      </trkpt>
      <trkpt lat="42.83975" lon="-1.59001">
        <ele>460.0887</ele>
        <time>2021-07-05T14:07:08Z</time>
      </trkpt>
      <trkpt lat="42.83883" lon="-1.59306">
        <ele>476.5931</ele>
        <time>2021-07-05T14:07:19Z</time>
      </trkpt>
      <trkpt lat="42.83867" lon="-1.59601">
        <ele>477.9426</ele>
        <time>2021-07-05T14:07:30Z</time>
      </trkpt>
      <trkpt lat="42.83903" lon="-1.59844">
        <ele>466.217</ele>
        <time>2021-07-05T14:07:41Z</time>
      </trkpt>
      <trkpt lat="42.83892" lon="-1.60123">
        <ele>450.3423</ele>
        <time>2021-07-05T14:07:52Z</time>
      </trkpt>
      <trkpt lat="42.83859" lon="-1.60408">
        <ele>438.1673</ele>
        <time>2021-07-05T14:08:03Z</time>
      </trkpt>
      <trkpt lat="42.83869" lon="-1.6065">
        <ele>436.8676</ele>
        <time>2021-07-05T14:08:14Z</time>
      </trkpt>
      <trkpt lat="42.83897" lon="-1.60782">
        <ele>443.0102</ele>
        <time>2021-07-05T14:08:25Z</time>
      </trkpt>
      <trkpt lat="42.83926" lon="-1.60859">
        <ele>442.6615</ele>
        <time>2021-07-05T14:08:36Z</time>
      </trkpt>
      <trkpt lat="42.83949" lon="-1.60983">
        <ele>444.869</ele>
        <time>2021-07-05T14:08:47Z</time>
      </trkpt>
      <trkpt lat="42.84" lon="-1.61096">
        <ele>452.2815</ele>
        <time>2021-07-05T14:08:58Z</time>
      </trkpt>
      <trkpt lat="42.84055" lon="-1.61221">
        <ele>456.0049</ele>
        <time>2021-07-05T14:09:09Z</time>
      </trkpt>
      <trkpt lat="42.84105" lon="-1.61371">
        <ele>458.0675</ele>
        <time>2021-07-05T14:09:20Z</time>
      </trkpt>
      <trkpt lat="42.8414" lon="-1.61565">
        <ele>456.5712</ele>
        <time>2021-07-05T14:09:31Z</time>
      </trkpt>
      <trkpt lat="42.84181" lon="-1.61777">
        <ele>451.2494</ele>
        <time>2021-07-05T14:09:42Z</time>
      </trkpt>
      <trkpt lat="42.84263" lon="-1.61974">
        <ele>444.9563</ele>
        <time>2021-07-05T14:09:53Z</time>
      </trkpt>
      <trkpt lat="42.84439" lon="-1.6214">
        <ele>440.452</ele>
        <time>2021-07-05T14:10:04Z</time>
      </trkpt>
      <trkpt lat="42.84464" lon="-1.62264">
        <ele>440.9704</ele>
        <time>2021-07-05T14:10:15Z</time>
      </trkpt>
      <trkpt lat="42.84308" lon="-1.6219">
        <ele>443.085</ele>
        <time>2021-07-05T14:10:26Z</time>
      </trkpt>
      <trkpt lat="42.84092" lon="-1.62099">
        <ele>438.8556</ele>
        <time>2021-07-05T14:10:37Z</time>
      </trkpt>
      <trkpt lat="42.83874" lon="-1.61979">
        <ele>439.6483</ele>
        <time>2021-07-05T14:10:48Z</time>
      </trkpt>
      <trkpt lat="42.83663" lon="-1.61869">
        <ele>449.8197</ele>
        <time>2021-07-05T14:11:00Z</time>
      </trkpt>
      <trkpt lat="42.83496" lon="-1.61811">
        <ele>427.753</ele>
        <time>2021-07-05T14:11:11Z</time>
      </trkpt>
      <trkpt lat="42.83539" lon="-1.62015">
        <ele>431.4633</ele>
        <time>2021-07-05T14:11:22Z</time>
      </trkpt>
      <trkpt lat="42.83632" lon="-1.62257">
        <ele>433.9659</ele>
        <time>2021-07-05T14:11:33Z</time>
      </trkpt>
      <trkpt lat="42.83646" lon="-1.62474">
        <ele>436.0948</ele>
        <time>2021-07-05T14:11:44Z</time>
      </trkpt>
      <trkpt lat="42.8364" lon="-1.62586">
        <ele>433.8854</ele>
        <time>2021-07-05T14:11:55Z</time>
      </trkpt>
      <trkpt lat="42.8367" lon="-1.62851">
        <ele>438.176</ele>
        <time>2021-07-05T14:12:06Z</time>
      </trkpt>
      <trkpt lat="42.83664" lon="-1.6318">
        <ele>433.4203</ele>
        <time>2021-07-05T14:12:17Z</time>
      </trkpt>
      <trkpt lat="42.83648" lon="-1.63473">
        <ele>425.8595</ele>
        <time>2021-07-05T14:12:28Z</time>
      </trkpt>
      <trkpt lat="42.83651" lon="-1.63681">
        <ele>419.5372</ele>
        <time>2021-07-05T14:12:39Z</time>
      </trkpt>
      <trkpt lat="42.83669" lon="-1.63988">
        <ele>425.343</ele>
        <time>2021-07-05T14:12:50Z</time>
      </trkpt>
      <trkpt lat="42.83676" lon="-1.64306">
        <ele>428.9897</ele>
        <time>2021-07-05T14:13:01Z</time>
      </trkpt>
      <trkpt lat="42.8363" lon="-1.64519">
        <ele>432.0987</ele>
        <time>2021-07-05T14:13:12Z</time>
      </trkpt>
      <trkpt lat="42.83564" lon="-1.64744">
        <ele>430.9186</ele>
        <time>2021-07-05T14:13:23Z</time>
      </trkpt>
      <trkpt lat="42.83604" lon="-1.65071">
        <ele>434.7044</ele>
        <time>2021-07-05T14:13:34Z</time>
      </trkpt>
      <trkpt lat="42.83655" lon="-1.653">
        <ele>438.2266</ele>
        <time>2021-07-05T14:13:45Z</time>
      </trkpt>
      <trkpt lat="42.83666" lon="-1.6545">
        <ele>438.0769</ele>
        <time>2021-07-05T14:13:56Z</time>
      </trkpt>
      <trkpt lat="42.83705" lon="-1.65754">
        <ele>435.6846</ele>
        <time>2021-07-05T14:14:07Z</time>
      </trkpt>
      <trkpt lat="42.83691" lon="-1.66035">
        <ele>438.1865</ele>
        <time>2021-07-05T14:14:18Z</time>
      </trkpt>
      <trkpt lat="42.83578" lon="-1.66257">
        <ele>430.3428</ele>
        <time>2021-07-05T14:14:29Z</time>
      </trkpt>
      <trkpt lat="42.83463" lon="-1.66421">
        <ele>422.6535</ele>
        <time>2021-07-05T14:14:40Z</time>
      </trkpt>
      <trkpt lat="42.83387" lon="-1.66531">
        <ele>424.5121</ele>
        <time>2021-07-05T14:14:51Z</time>
      </trkpt>
      <trkpt lat="42.83308" lon="-1.66645">
        <ele>423.5826</ele>
        <time>2021-07-05T14:15:02Z</time>
      </trkpt>
      <trkpt lat="42.83247" lon="-1.66759">
        <ele>423.2671</ele>
        <time>2021-07-05T14:15:13Z</time>
      </trkpt>
      <trkpt lat="42.83121" lon="-1.66896">
        <ele>427.2675</ele>
        <time>2021-07-05T14:15:24Z</time>
      </trkpt>
      <trkpt lat="42.8312" lon="-1.67025">
        <ele>430.551</ele>
        <time>2021-07-05T14:15:35Z</time>
      </trkpt>
      <trkpt lat="42.83105" lon="-1.67203">
        <ele>433.4259</ele>
        <time>2021-07-05T14:15:46Z</time>
      </trkpt>
      <trkpt lat="42.82992" lon="-1.67094">
        <ele>432.0005</ele>
        <time>2021-07-05T14:15:57Z</time>
      </trkpt>
      <trkpt lat="42.82771" lon="-1.67002">
        <ele>421.2462</ele>
        <time>2021-07-05T14:16:08Z</time>
      </trkpt>
      <trkpt lat="42.82559" lon="-1.67004">
        <ele>414.77</ele>
        <time>2021-07-05T14:16:19Z</time>
      </trkpt>
      <trkpt lat="42.82466" lon="-1.67137">
        <ele>414.8178</ele>
        <time>2021-07-05T14:16:30Z</time>
      </trkpt>
      <trkpt lat="42.82389" lon="-1.67413">
        <ele>420.451</ele>
        <time>2021-07-05T14:16:41Z</time>
      </trkpt>
      <trkpt lat="42.82356" lon="-1.67724">
        <ele>423.9607</ele>
        <time>2021-07-05T14:16:52Z</time>
      </trkpt>
      <trkpt lat="42.82275" lon="-1.68034">
        <ele>426.1756</ele>
        <time>2021-07-05T14:17:03Z</time>
      </trkpt>
      <trkpt lat="42.82182" lon="-1.68255">
        <ele>419.3534</ele>
        <time>2021-07-05T14:17:14Z</time>
      </trkpt>
      <trkpt lat="42.82112" lon="-1.68424">
        <ele>412.0112</ele>
        <time>2021-07-05T14:17:25Z</time>
      </trkpt>
      <trkpt lat="42.82053" lon="-1.68553">
        <ele>411.2361</ele>
        <time>2021-07-05T14:17:36Z</time>
      </trkpt>
      <trkpt lat="42.81993" lon="-1.68702">
        <ele>414.4498</ele>
        <time>2021-07-05T14:17:47Z</time>
      </trkpt>
      <trkpt lat="42.81908" lon="-1.68876">
        <ele>415.858</ele>
        <time>2021-07-05T14:17:58Z</time>
      </trkpt>
      <trkpt lat="42.81861" lon="-1.69041">
        <ele>418.0863</ele>
        <time>2021-07-05T14:18:09Z</time>
      </trkpt>
      <trkpt lat="42.81904" lon="-1.69341">
        <ele>425.9187</ele>
        <time>2021-07-05T14:18:20Z</time>
      </trkpt>
      <trkpt lat="42.81942" lon="-1.69575">
        <ele>429.8231</ele>
        <time>2021-07-05T14:18:31Z</time>
      </trkpt>
      <trkpt lat="42.81981" lon="-1.69893">
        <ele>439.0226</ele>
        <time>2021-07-05T14:18:42Z</time>
      </trkpt>
      <trkpt lat="42.82032" lon="-1.70245">
        <ele>442.9315</ele>
        <time>2021-07-05T14:18:53Z</time>
      </trkpt>
      <trkpt lat="42.82073" lon="-1.7063">
        <ele>425.8795</ele>
        <time>2021-07-05T14:19:04Z</time>
      </trkpt>
      <trkpt lat="42.8211" lon="-1.7086">
        <ele>415.1829</ele>
        <time>2021-07-05T14:19:15Z</time>
      </trkpt>
      <trkpt lat="42.82034" lon="-1.70966">
        <ele>412.9672</ele>
        <time>2021-07-05T14:19:26Z</time>
      </trkpt>
      <trkpt lat="42.81944" lon="-1.71165">
        <ele>411.3492</ele>
        <time>2021-07-05T14:19:37Z</time>
      </trkpt>
      <trkpt lat="42.81879" lon="-1.714">
        <ele>404.6746</ele>
        <time>2021-07-05T14:19:48Z</time>
      </trkpt>
      <trkpt lat="42.81857" lon="-1.71624">
        <ele>400.8707</ele>
        <time>2021-07-05T14:19:59Z</time>
      </trkpt>
      <trkpt lat="42.81846" lon="-1.71751">
        <ele>397.5038</ele>
        <time>2021-07-05T14:20:10Z</time>
      </trkpt>
      <trkpt lat="42.81831" lon="-1.71909">
        <ele>399.223</ele>
        <time>2021-07-05T14:20:21Z</time>
      </trkpt>
      <trkpt lat="42.81824" lon="-1.72054">
        <ele>396.7265</ele>
        <time>2021-07-05T14:20:32Z</time>
      </trkpt>
      <trkpt lat="42.81847" lon="-1.72256">
        <ele>397.2611</ele>
        <time>2021-07-05T14:20:43Z</time>
      </trkpt>
      <trkpt lat="42.81875" lon="-1.72526">
        <ele>393.368</ele>
        <time>2021-07-05T14:20:54Z</time>
      </trkpt>
      <trkpt lat="42.81879" lon="-1.72832">
        <ele>393.7749</ele>
        <time>2021-07-05T14:21:05Z</time>
      </trkpt>
      <trkpt lat="42.81883" lon="-1.73151">
        <ele>390.5139</ele>
        <time>2021-07-05T14:21:16Z</time>
      </trkpt>
      <trkpt lat="42.81887" lon="-1.73479">
        <ele>390.004</ele>
        <time>2021-07-05T14:21:27Z</time>
      </trkpt>
      <trkpt lat="42.81891" lon="-1.73806">
        <ele>392.2019</ele>
        <time>2021-07-05T14:21:38Z</time>
      </trkpt>
      <trkpt lat="42.81853" lon="-1.74154">
        <ele>399.5485</ele>
        <time>2021-07-05T14:21:49Z</time>
      </trkpt>
      <trkpt lat="42.81782" lon="-1.74448">
        <ele>399.5678</ele>
        <time>2021-07-05T14:22:00Z</time>
      </trkpt>
      <trkpt lat="42.81758" lon="-1.74595">
        <ele>396.9423</ele>
        <time>2021-07-05T14:22:11Z</time>
      </trkpt>
      <trkpt lat="42.81723" lon="-1.74691">
        <ele>398.3145</ele>
        <time>2021-07-05T14:22:22Z</time>
      </trkpt>
      <trkpt lat="42.81671" lon="-1.74768">
        <ele>395.8796</ele>
        <time>2021-07-05T14:22:33Z</time>
      </trkpt>
      <trkpt lat="42.81593" lon="-1.74762">
        <ele>396.6522</ele>
        <time>2021-07-05T14:22:44Z</time>
      </trkpt>
      <trkpt lat="42.81544" lon="-1.74828">
        <ele>392.014</ele>
        <time>2021-07-05T14:22:55Z</time>
      </trkpt>
      <trkpt lat="42.81499" lon="-1.74954">
        <ele>390.6328</ele>
        <time>2021-07-05T14:23:06Z</time>
      </trkpt>
      <trkpt lat="42.81433" lon="-1.75176">
        <ele>387.7695</ele>
        <time>2021-07-05T14:23:17Z</time>
      </trkpt>
      <trkpt lat="42.81363" lon="-1.75451">
        <ele>386.6108</ele>
        <time>2021-07-05T14:23:28Z</time>
      </trkpt>
      <trkpt lat="42.81309" lon="-1.75718">
        <ele>383.0545</ele>
        <time>2021-07-05T14:23:39Z</time>
      </trkpt>
      <trkpt lat="42.81255" lon="-1.75973">
        <ele>383.017</ele>
        <time>2021-07-05T14:23:50Z</time>
      </trkpt>
      <trkpt lat="42.81147" lon="-1.76307">
        <ele>380.8609</ele>
        <time>2021-07-05T14:24:01Z</time>
      </trkpt>
      <trkpt lat="42.8099" lon="-1.76589">
        <ele>379.6142</ele>
        <time>2021-07-05T14:24:12Z</time>
      </trkpt>
      <trkpt lat="42.80841" lon="-1.76847">
        <ele>385.4249</ele>
        <time>2021-07-05T14:24:23Z</time>
      </trkpt>
      <trkpt lat="42.80702" lon="-1.77111">
        <ele>382.6644</ele>
        <time>2021-07-05T14:24:34Z</time>
      </trkpt>
      <trkpt lat="42.8055" lon="-1.77356">
        <ele>390.1253</ele>
        <time>2021-07-05T14:24:45Z</time>
      </trkpt>
      <trkpt lat="42.80418" lon="-1.77502">
        <ele>386.8249</ele>
        <time>2021-07-05T14:24:56Z</time>
      </trkpt>
      <trkpt lat="42.80412" lon="-1.77647">
        <ele>386.568</ele>
        <time>2021-07-05T14:25:07Z</time>
      </trkpt>
      <trkpt lat="42.80566" lon="-1.777">
        <ele>382.2603</ele>
        <time>2021-07-05T14:25:18Z</time>
      </trkpt>
      <trkpt lat="42.80584" lon="-1.77893">
        <ele>384.6208</ele>
        <time>2021-07-05T14:25:29Z</time>
      </trkpt>
      <trkpt lat="42.80443" lon="-1.77955">
        <ele>386.0656</ele>
        <time>2021-07-05T14:25:40Z</time>
      </trkpt>
      <trkpt lat="42.8021" lon="-1.77882">
        <ele>390.1007</ele>
        <time>2021-07-05T14:25:51Z</time>
      </trkpt>
      <trkpt lat="42.79996" lon="-1.77989">
        <ele>407.7834</ele>
        <time>2021-07-05T14:26:02Z</time>
      </trkpt>
      <trkpt lat="42.79818" lon="-1.78091">
        <ele>423.3317</ele>
        <time>2021-07-05T14:26:13Z</time>
      </trkpt>
      <trkpt lat="42.79735" lon="-1.78288">
        <ele>420.441</ele>
        <time>2021-07-05T14:26:24Z</time>
      </trkpt>
      <trkpt lat="42.79631" lon="-1.78573">
        <ele>411.3499</ele>
        <time>2021-07-05T14:26:35Z</time>
      </trkpt>
      <trkpt lat="42.79578" lon="-1.78711">
        <ele>412.6711</ele>
        <time>2021-07-05T14:26:46Z</time>
      </trkpt>
      <trkpt lat="42.79549" lon="-1.78779">
        <ele>417.1116</ele>
        <time>2021-07-05T14:26:57Z</time>
      </trkpt>
      <trkpt lat="42.79485" lon="-1.78954">
        <ele>415.3885</ele>
        <time>2021-07-05T14:27:08Z</time>
      </trkpt>
      <trkpt lat="42.79437" lon="-1.79116">
        <ele>412.9007</ele>
        <time>2021-07-05T14:27:19Z</time>
      </trkpt>
      <trkpt lat="42.79421" lon="-1.79313">
        <ele>408.8795</ele>
        <time>2021-07-05T14:27:30Z</time>
      </trkpt>
      <trkpt lat="42.79413" lon="-1.79509">
        <ele>404.2727</ele>
        <time>2021-07-05T14:27:41Z</time>
      </trkpt>
      <trkpt lat="42.79423" lon="-1.79792">
        <ele>412.21</ele>
        <time>2021-07-05T14:27:52Z</time>
      </trkpt>
      <trkpt lat="42.79511" lon="-1.80068">
        <ele>426.583</ele>
        <time>2021-07-05T14:28:03Z</time>
      </trkpt>
      <trkpt lat="42.79531" lon="-1.80363">
        <ele>446.6795</ele>
        <time>2021-07-05T14:28:14Z</time>
      </trkpt>
      <trkpt lat="42.79562" lon="-1.80625">
        <ele>463.3773</ele>
        <time>2021-07-05T14:28:25Z</time>
      </trkpt>
      <trkpt lat="42.79649" lon="-1.808">
        <ele>476.0739</ele>
        <time>2021-07-05T14:28:36Z</time>
      </trkpt>
      <trkpt lat="42.79608" lon="-1.81">
        <ele>490.2786</ele>
        <time>2021-07-05T14:28:47Z</time>
      </trkpt>
      <trkpt lat="42.79619" lon="-1.8127">
        <ele>505.8105</ele>
        <time>2021-07-05T14:28:58Z</time>
      </trkpt>
      <trkpt lat="42.79594" lon="-1.8144">
        <ele>517.2287</ele>
        <time>2021-07-05T14:29:09Z</time>
      </trkpt>
      <trkpt lat="42.79569" lon="-1.81767">
        <ele>539.4004</ele>
        <time>2021-07-05T14:29:20Z</time>
      </trkpt>
      <trkpt lat="42.79581" lon="-1.82042">
        <ele>554.561</ele>
        <time>2021-07-05T14:29:31Z</time>
      </trkpt>
      <trkpt lat="42.7966" lon="-1.82358">
        <ele>574.1125</ele>
        <time>2021-07-05T14:29:42Z</time>
      </trkpt>
      <trkpt lat="42.79665" lon="-1.82682">
        <ele>592.927</ele>
        <time>2021-07-05T14:29:53Z</time>
      </trkpt>
      <trkpt lat="42.79681" lon="-1.83004">
        <ele>613.0467</ele>
        <time>2021-07-05T14:30:04Z</time>
      </trkpt>
      <trkpt lat="42.79694" lon="-1.83343">
        <ele>632.0756</ele>
        <time>2021-07-05T14:30:15Z</time>
      </trkpt>
      <trkpt lat="42.79598" lon="-1.83642">
        <ele>651.4315</ele>
        <time>2021-07-05T14:30:26Z</time>
      </trkpt>
      <trkpt lat="42.79525" lon="-1.83942">
        <ele>667.5313</ele>
        <time>2021-07-05T14:30:37Z</time>
      </trkpt>
      <trkpt lat="42.79466" lon="-1.84187">
        <ele>678.1507</ele>
        <time>2021-07-05T14:30:48Z</time>
      </trkpt>
      <trkpt lat="42.79527" lon="-1.84075">
        <ele>683.5708</ele>
        <time>2021-07-05T14:30:59Z</time>
      </trkpt>
      <trkpt lat="42.79639" lon="-1.83802">
        <ele>696.4219</ele>
        <time>2021-07-05T14:31:10Z</time>
      </trkpt>
      <trkpt lat="42.79752" lon="-1.83587">
        <ele>710.4803</ele>
        <time>2021-07-05T14:31:21Z</time>
      </trkpt>
      <trkpt lat="42.79795" lon="-1.83503">
        <ele>718.2876</ele>
        <time>2021-07-05T14:31:32Z</time>
      </trkpt>
      <trkpt lat="42.79799" lon="-1.8351">
        <ele>713.1546</ele>
        <time>2021-07-05T14:31:43Z</time>
      </trkpt>
      <trkpt lat="42.79795" lon="-1.83507">
        <ele>722.0426</ele>
        <time>2021-07-05T14:31:57Z</time>
      </trkpt>
      <trkpt lat="42.79799" lon="-1.83509">
        <ele>719.6806</ele>
        <time>2021-07-05T14:32:08Z</time>
      </trkpt>
      <trkpt lat="42.79801" lon="-1.83514">
        <ele>716.5292</ele>
        <time>2021-07-05T14:32:20Z</time>
      </trkpt>
      <trkpt lat="42.79804" lon="-1.8351">
        <ele>714.098</ele>
        <time>2021-07-05T14:32:33Z</time>
      </trkpt>
      <trkpt lat="42.79807" lon="-1.83514">
        <ele>711.667</ele>
        <time>2021-07-05T14:32:55Z</time>
      </trkpt>
      <trkpt lat="42.79811" lon="-1.83514">
        <ele>705.7789</ele>
        <time>2021-07-05T14:33:15Z</time>
      </trkpt>
      <trkpt lat="42.79806" lon="-1.83512">
        <ele>712.412</ele>
        <time>2021-07-05T14:33:41Z</time>
      </trkpt>
      <trkpt lat="42.79803" lon="-1.83509">
        <ele>710.1951</ele>
        <time>2021-07-05T14:34:31Z</time>
      </trkpt>
      <trkpt lat="42.79764" lon="-1.83615">
        <ele>718.5212</ele>
        <time>2021-07-05T14:34:42Z</time>
      </trkpt>
      <trkpt lat="42.7971" lon="-1.83803">
        <ele>736.4942</ele>
        <time>2021-07-05T14:34:53Z</time>
      </trkpt>
      <trkpt lat="42.79658" lon="-1.84071">
        <ele>751.0322</ele>
        <time>2021-07-05T14:35:04Z</time>
      </trkpt>
      <trkpt lat="42.79608" lon="-1.84342">
        <ele>763.8334</ele>
        <time>2021-07-05T14:35:15Z</time>
      </trkpt>
      <trkpt lat="42.79487" lon="-1.84444">
        <ele>773.5998</ele>
        <time>2021-07-05T14:35:26Z</time>
      </trkpt>
      <trkpt lat="42.79323" lon="-1.84379">
        <ele>784.33</ele>
        <time>2021-07-05T14:35:37Z</time>
      </trkpt>
      <trkpt lat="42.79143" lon="-1.84378">
        <ele>792.4487</ele>
        <time>2021-07-05T14:35:48Z</time>
      </trkpt>
      <trkpt lat="42.78929" lon="-1.84285">
        <ele>807.3842</ele>
        <time>2021-07-05T14:35:59Z</time>
      </trkpt>
      <trkpt lat="42.78742" lon="-1.84294">
        <ele>819.9566</ele>
        <time>2021-07-05T14:36:10Z</time>
      </trkpt>
      <trkpt lat="42.78596" lon="-1.84337">
        <ele>831.483</ele>
        <time>2021-07-05T14:36:21Z</time>
      </trkpt>
      <trkpt lat="42.7866" lon="-1.84504">
        <ele>833.7628</ele>
        <time>2021-07-05T14:36:32Z</time>
      </trkpt>
      <trkpt lat="42.78791" lon="-1.84673">
        <ele>822.3459</ele>
        <time>2021-07-05T14:36:43Z</time>
      </trkpt>
      <trkpt lat="42.78826" lon="-1.84736">
        <ele>813.7142</ele>
        <time>2021-07-05T14:36:54Z</time>
      </trkpt>
      <trkpt lat="42.78685" lon="-1.84731">
        <ele>805.4078</ele>
        <time>2021-07-05T14:37:05Z</time>
      </trkpt>
      <trkpt lat="42.78687" lon="-1.84942">
        <ele>793.4396</ele>
        <time>2021-07-05T14:37:16Z</time>
      </trkpt>
      <trkpt lat="42.78606" lon="-1.85095">
        <ele>783.9212</ele>
        <time>2021-07-05T14:37:27Z</time>
      </trkpt>
      <trkpt lat="42.78767" lon="-1.85214">
        <ele>770.7642</ele>
        <time>2021-07-05T14:37:38Z</time>
      </trkpt>
      <trkpt lat="42.78747" lon="-1.85441">
        <ele>764.3087</ele>
        <time>2021-07-05T14:37:49Z</time>
      </trkpt>
      <trkpt lat="42.78606" lon="-1.85716">
        <ele>749.0305</ele>
        <time>2021-07-05T14:38:00Z</time>
      </trkpt>
      <trkpt lat="42.78485" lon="-1.85966">
        <ele>733.4938</ele>
        <time>2021-07-05T14:38:11Z</time>
      </trkpt>
      <trkpt lat="42.78364" lon="-1.86162">
        <ele>726.477</ele>
        <time>2021-07-05T14:38:22Z</time>
      </trkpt>
      <trkpt lat="42.78233" lon="-1.86333">
        <ele>722.5499</ele>
        <time>2021-07-05T14:38:33Z</time>
      </trkpt>
      <trkpt lat="42.78218" lon="-1.86551">
        <ele>721.5395</ele>
        <time>2021-07-05T14:38:44Z</time>
      </trkpt>
      <trkpt lat="42.78156" lon="-1.86736">
        <ele>710.9659</ele>
        <time>2021-07-05T14:38:55Z</time>
      </trkpt>
      <trkpt lat="42.78139" lon="-1.86859">
        <ele>699.0484</ele>
        <time>2021-07-05T14:39:06Z</time>
      </trkpt>
      <trkpt lat="42.7821" lon="-1.87013">
        <ele>691.6901</ele>
        <time>2021-07-05T14:39:17Z</time>
      </trkpt>
      <trkpt lat="42.78279" lon="-1.8719">
        <ele>677.9929</ele>
        <time>2021-07-05T14:39:28Z</time>
      </trkpt>
      <trkpt lat="42.78264" lon="-1.87203">
        <ele>673.0315</ele>
        <time>2021-07-05T14:39:39Z</time>
      </trkpt>
      <trkpt lat="42.78185" lon="-1.87136">
        <ele>658.8658</ele>
        <time>2021-07-05T14:39:50Z</time>
      </trkpt>
      <trkpt lat="42.78276" lon="-1.87367">
        <ele>647.9214</ele>
        <time>2021-07-05T14:40:01Z</time>
      </trkpt>
      <trkpt lat="42.7836" lon="-1.87519">
        <ele>640.748</ele>
        <time>2021-07-05T14:40:12Z</time>
      </trkpt>
      <trkpt lat="42.78239" lon="-1.87794">
        <ele>635.9248</ele>
        <time>2021-07-05T14:40:23Z</time>
      </trkpt>
      <trkpt lat="42.78082" lon="-1.8797">
        <ele>637.7251</ele>
        <time>2021-07-05T14:40:34Z</time>
      </trkpt>
      <trkpt lat="42.7791" lon="-1.88161">
        <ele>644.5437</ele>
        <time>2021-07-05T14:40:45Z</time>
      </trkpt>
      <trkpt lat="42.77767" lon="-1.88284">
        <ele>647.9893</ele>
        <time>2021-07-05T14:40:56Z</time>
      </trkpt>
      <trkpt lat="42.7763" lon="-1.88356">
        <ele>651.4269</ele>
        <time>2021-07-05T14:41:07Z</time>
      </trkpt>
      <trkpt lat="42.77521" lon="-1.88524">
        <ele>658.5428</ele>
        <time>2021-07-05T14:41:18Z</time>
      </trkpt>
      <trkpt lat="42.77536" lon="-1.88733">
        <ele>663.281</ele>
        <time>2021-07-05T14:41:29Z</time>
      </trkpt>
      <trkpt lat="42.77445" lon="-1.88872">
        <ele>658.6651</ele>
        <time>2021-07-05T14:41:40Z</time>
      </trkpt>
      <trkpt lat="42.77408" lon="-1.8904">
        <ele>656.1584</ele>
        <time>2021-07-05T14:41:51Z</time>
      </trkpt>
      <trkpt lat="42.77435" lon="-1.89229">
        <ele>648.6357</ele>
        <time>2021-07-05T14:42:02Z</time>
      </trkpt>
      <trkpt lat="42.77245" lon="-1.89279">
        <ele>637.8894</ele>
        <time>2021-07-05T14:42:13Z</time>
      </trkpt>
      <trkpt lat="42.77104" lon="-1.89417">
        <ele>631.2654</ele>
        <time>2021-07-05T14:42:24Z</time>
      </trkpt>
      <trkpt lat="42.77003" lon="-1.89538">
        <ele>627.0162</ele>
        <time>2021-07-05T14:42:35Z</time>
      </trkpt>
      <trkpt lat="42.76969" lon="-1.89702">
        <ele>617.9004</ele>
        <time>2021-07-05T14:42:46Z</time>
      </trkpt>
      <trkpt lat="42.76829" lon="-1.89867">
        <ele>610.9694</ele>
        <time>2021-07-05T14:42:57Z</time>
      </trkpt>
      <trkpt lat="42.76739" lon="-1.90025">
        <ele>602.2187</ele>
        <time>2021-07-05T14:43:08Z</time>
      </trkpt>
      <trkpt lat="42.76654" lon="-1.90159">
        <ele>595.0314</ele>
        <time>2021-07-05T14:43:19Z</time>
      </trkpt>
      <trkpt lat="42.76557" lon="-1.90379">
        <ele>594.1225</ele>
        <time>2021-07-05T14:43:30Z</time>
      </trkpt>
      <trkpt lat="42.76599" lon="-1.9055">
        <ele>586.3103</ele>
        <time>2021-07-05T14:43:41Z</time>
      </trkpt>
      <trkpt lat="42.76619" lon="-1.90707">
        <ele>576.5475</ele>
        <time>2021-07-05T14:43:52Z</time>
      </trkpt>
      <trkpt lat="42.76506" lon="-1.90924">
        <ele>575.0367</ele>
        <time>2021-07-05T14:44:03Z</time>
      </trkpt>
      <trkpt lat="42.76427" lon="-1.91148">
        <ele>570.8879</ele>
        <time>2021-07-05T14:44:14Z</time>
      </trkpt>
      <trkpt lat="42.7648" lon="-1.91357">
        <ele>557.8738</ele>
        <time>2021-07-05T14:44:25Z</time>
      </trkpt>
      <trkpt lat="42.76425" lon="-1.91554">
        <ele>545.4617</ele>
        <time>2021-07-05T14:44:36Z</time>
      </trkpt>
      <trkpt lat="42.76278" lon="-1.91684">
        <ele>532.1414</ele>
        <time>2021-07-05T14:44:47Z</time>
      </trkpt>
      <trkpt lat="42.76302" lon="-1.91702">
        <ele>528.349</ele>
        <time>2021-07-05T14:44:58Z</time>
      </trkpt>
      <trkpt lat="42.76317" lon="-1.91757">
        <ele>519.6808</ele>
        <time>2021-07-05T14:45:09Z</time>
      </trkpt>
      <trkpt lat="42.76174" lon="-1.91982">
        <ele>512.3236</ele>
        <time>2021-07-05T14:45:20Z</time>
      </trkpt>
      <trkpt lat="42.75989" lon="-1.92184">
        <ele>507.9623</ele>
        <time>2021-07-05T14:45:31Z</time>
      </trkpt>
      <trkpt lat="42.75804" lon="-1.92393">
        <ele>508.0601</ele>
        <time>2021-07-05T14:45:42Z</time>
      </trkpt>
      <trkpt lat="42.7564" lon="-1.92628">
        <ele>513.1409</ele>
        <time>2021-07-05T14:45:53Z</time>
      </trkpt>
      <trkpt lat="42.75562" lon="-1.92889">
        <ele>522.2009</ele>
        <time>2021-07-05T14:46:04Z</time>
      </trkpt>
      <trkpt lat="42.75585" lon="-1.93124">
        <ele>510.2764</ele>
        <time>2021-07-05T14:46:15Z</time>
      </trkpt>
      <trkpt lat="42.75441" lon="-1.93227">
        <ele>511.8563</ele>
        <time>2021-07-05T14:46:26Z</time>
      </trkpt>
      <trkpt lat="42.75285" lon="-1.93318">
        <ele>508.9337</ele>
        <time>2021-07-05T14:46:37Z</time>
      </trkpt>
      <trkpt lat="42.75256" lon="-1.93453">
        <ele>499.4528</ele>
        <time>2021-07-05T14:46:48Z</time>
      </trkpt>
      <trkpt lat="42.75353" lon="-1.93657">
        <ele>486.6354</ele>
        <time>2021-07-05T14:46:59Z</time>
      </trkpt>
      <trkpt lat="42.75264" lon="-1.93847">
        <ele>470.5751</ele>
        <time>2021-07-05T14:47:10Z</time>
      </trkpt>
      <trkpt lat="42.7518" lon="-1.93924">
        <ele>466.4578</ele>
        <time>2021-07-05T14:47:21Z</time>
      </trkpt>
      <trkpt lat="42.75238" lon="-1.94044">
        <ele>470.7533</ele>
        <time>2021-07-05T14:47:32Z</time>
      </trkpt>
      <trkpt lat="42.75291" lon="-1.94283">
        <ele>472.3564</ele>
        <time>2021-07-05T14:47:43Z</time>
      </trkpt>
      <trkpt lat="42.75356" lon="-1.94587">
        <ele>475.2252</ele>
        <time>2021-07-05T14:47:54Z</time>
      </trkpt>
      <trkpt lat="42.75408" lon="-1.94891">
        <ele>472.788</ele>
        <time>2021-07-05T14:48:05Z</time>
      </trkpt>
      <trkpt lat="42.75508" lon="-1.95182">
        <ele>483.0045</ele>
        <time>2021-07-05T14:48:16Z</time>
      </trkpt>
      <trkpt lat="42.7542" lon="-1.95428">
        <ele>498.4083</ele>
        <time>2021-07-05T14:48:27Z</time>
      </trkpt>
      <trkpt lat="42.75257" lon="-1.95719">
        <ele>509.8632</ele>
        <time>2021-07-05T14:48:38Z</time>
      </trkpt>
      <trkpt lat="42.75142" lon="-1.95987">
        <ele>509.8624</ele>
        <time>2021-07-05T14:48:49Z</time>
      </trkpt>
      <trkpt lat="42.752" lon="-1.96229">
        <ele>515.1924</ele>
        <time>2021-07-05T14:49:00Z</time>
      </trkpt>
      <trkpt lat="42.75161" lon="-1.96527">
        <ele>524.3742</ele>
        <time>2021-07-05T14:49:11Z</time>
      </trkpt>
      <trkpt lat="42.7507" lon="-1.96844">
        <ele>528.6046</ele>
        <time>2021-07-05T14:49:22Z</time>
      </trkpt>
      <trkpt lat="42.7492" lon="-1.97125">
        <ele>534.8795</ele>
        <time>2021-07-05T14:49:33Z</time>
      </trkpt>
      <trkpt lat="42.74743" lon="-1.9741">
        <ele>545.9163</ele>
        <time>2021-07-05T14:49:44Z</time>
      </trkpt>
      <trkpt lat="42.74577" lon="-1.97644">
        <ele>556.4623</ele>
        <time>2021-07-05T14:49:55Z</time>
      </trkpt>
      <trkpt lat="42.74397" lon="-1.97767">
        <ele>554.1165</ele>
        <time>2021-07-05T14:50:06Z</time>
      </trkpt>
      <trkpt lat="42.74181" lon="-1.97877">
        <ele>549.0878</ele>
        <time>2021-07-05T14:50:17Z</time>
      </trkpt>
      <trkpt lat="42.73942" lon="-1.98012">
        <ele>540.7619</ele>
        <time>2021-07-05T14:50:28Z</time>
      </trkpt>
      <trkpt lat="42.73743" lon="-1.98217">
        <ele>529.3549</ele>
        <time>2021-07-05T14:50:39Z</time>
      </trkpt>
      <trkpt lat="42.73542" lon="-1.98444">
        <ele>521.8525</ele>
        <time>2021-07-05T14:50:50Z</time>
      </trkpt>
      <trkpt lat="42.73333" lon="-1.98649">
        <ele>526.3217</ele>
        <time>2021-07-05T14:51:01Z</time>
      </trkpt>
      <trkpt lat="42.73154" lon="-1.98874">
        <ele>524.1097</ele>
        <time>2021-07-05T14:51:12Z</time>
      </trkpt>
      <trkpt lat="42.72973" lon="-1.99125">
        <ele>519.5881</ele>
        <time>2021-07-05T14:51:23Z</time>
      </trkpt>
      <trkpt lat="42.72814" lon="-1.9934">
        <ele>529.18</ele>
        <time>2021-07-05T14:51:34Z</time>
      </trkpt>
      <trkpt lat="42.72671" lon="-1.99582">
        <ele>521.4931</ele>
        <time>2021-07-05T14:51:45Z</time>
      </trkpt>
      <trkpt lat="42.72539" lon="-1.99801">
        <ele>514.8457</ele>
        <time>2021-07-05T14:51:56Z</time>
      </trkpt>
      <trkpt lat="42.72466" lon="-1.99826">
        <ele>517.2662</ele>
        <time>2021-07-05T14:52:07Z</time>
      </trkpt>
      <trkpt lat="42.72326" lon="-1.99751">
        <ele>512.7837</ele>
        <time>2021-07-05T14:52:18Z</time>
      </trkpt>
      <trkpt lat="42.72241" lon="-1.99633">
        <ele>509.2868</ele>
        <time>2021-07-05T14:52:29Z</time>
      </trkpt>
      <trkpt lat="42.72248" lon="-1.99631">
        <ele>510.2839</ele>
        <time>2021-07-05T14:52:40Z</time>
      </trkpt>
      <trkpt lat="42.72332" lon="-1.99753">
        <ele>513.21</ele>
        <time>2021-07-05T14:52:51Z</time>
      </trkpt>
      <trkpt lat="42.72474" lon="-1.99825">
        <ele>516.7128</ele>
        <time>2021-07-05T14:53:02Z</time>
      </trkpt>
      <trkpt lat="42.72502" lon="-1.9985">
        <ele>518.9231</ele>
        <time>2021-07-05T14:53:13Z</time>
      </trkpt>
      <trkpt lat="42.72325" lon="-1.99967">
        <ele>510.9106</ele>
        <time>2021-07-05T14:53:24Z</time>
      </trkpt>
      <trkpt lat="42.72107" lon="-1.99987">
        <ele>515.243</ele>
        <time>2021-07-05T14:53:35Z</time>
      </trkpt>
      <trkpt lat="42.7188" lon="-2.00131">
        <ele>510.7731</ele>
        <time>2021-07-05T14:53:46Z</time>
      </trkpt>
      <trkpt lat="42.71674" lon="-2.0025">
        <ele>511.6044</ele>
        <time>2021-07-05T14:53:57Z</time>
      </trkpt>
      <trkpt lat="42.71491" lon="-2.00182">
        <ele>522.6861</ele>
        <time>2021-07-05T14:54:08Z</time>
      </trkpt>
      <trkpt lat="42.71255" lon="-2.00144">
        <ele>520.5396</ele>
        <time>2021-07-05T14:54:19Z</time>
      </trkpt>
      <trkpt lat="42.71083" lon="-2.00117">
        <ele>515.3236</ele>
        <time>2021-07-05T14:54:30Z</time>
      </trkpt>
      <trkpt lat="42.7095" lon="-2.00095">
        <ele>510.2816</ele>
        <time>2021-07-05T14:54:41Z</time>
      </trkpt>
      <trkpt lat="42.70932" lon="-2.00218">
        <ele>501.8026</ele>
        <time>2021-07-05T14:54:52Z</time>
      </trkpt>
      <trkpt lat="42.70998" lon="-2.00411">
        <ele>502.9887</ele>
        <time>2021-07-05T14:55:03Z</time>
      </trkpt>
      <trkpt lat="42.70908" lon="-2.0047">
        <ele>495.562</ele>
        <time>2021-07-05T14:55:14Z</time>
      </trkpt>
      <trkpt lat="42.70757" lon="-2.00571">
        <ele>503.9638</ele>
        <time>2021-07-05T14:55:25Z</time>
      </trkpt>
      <trkpt lat="42.70609" lon="-2.00603">
        <ele>514.1636</ele>
        <time>2021-07-05T14:55:36Z</time>
      </trkpt>
      <trkpt lat="42.70439" lon="-2.00805">
        <ele>529.4568</ele>
        <time>2021-07-05T14:55:47Z</time>
      </trkpt>
      <trkpt lat="42.7035" lon="-2.01003">
        <ele>536.8361</ele>
        <time>2021-07-05T14:55:58Z</time>
      </trkpt>
      <trkpt lat="42.70268" lon="-2.01226">
        <ele>544.8857</ele>
        <time>2021-07-05T14:56:09Z</time>
      </trkpt>
      <trkpt lat="42.70075" lon="-2.01418">
        <ele>563.9898</ele>
        <time>2021-07-05T14:56:20Z</time>
      </trkpt>
      <trkpt lat="42.69868" lon="-2.01507">
        <ele>580.0995</ele>
        <time>2021-07-05T14:56:31Z</time>
      </trkpt>
      <trkpt lat="42.6972" lon="-2.01442">
        <ele>588.4227</ele>
        <time>2021-07-05T14:56:42Z</time>
      </trkpt>
      <trkpt lat="42.69716" lon="-2.0143">
        <ele>589.1987</ele>
        <time>2021-07-05T14:56:53Z</time>
      </trkpt>
      <trkpt lat="42.69717" lon="-2.01431">
        <ele>589.4075</ele>
        <time>2021-07-05T14:57:53Z</time>
      </trkpt>
      <trkpt lat="42.69719" lon="-2.01432">
        <ele>590.4714</ele>
        <time>2021-07-05T14:58:53Z</time>
      </trkpt>
      <trkpt lat="42.69713" lon="-2.01432">
        <ele>590.8909</ele>
        <time>2021-07-05T14:59:26Z</time>
      </trkpt>
      <trkpt lat="42.69756" lon="-2.0156">
        <ele>595.3984</ele>
        <time>2021-07-05T14:59:37Z</time>
      </trkpt>
      <trkpt lat="42.69716" lon="-2.01811">
        <ele>592.5176</ele>
        <time>2021-07-05T14:59:48Z</time>
      </trkpt>
      <trkpt lat="42.69802" lon="-2.02043">
        <ele>585.8657</ele>
        <time>2021-07-05T14:59:59Z</time>
      </trkpt>
      <trkpt lat="42.69911" lon="-2.02212">
        <ele>574.6352</ele>
        <time>2021-07-05T15:00:10Z</time>
      </trkpt>
      <trkpt lat="42.69932" lon="-2.02262">
        <ele>574.7936</ele>
        <time>2021-07-05T15:00:21Z</time>
      </trkpt>
      <trkpt lat="42.69826" lon="-2.02468">
        <ele>561.4493</ele>
        <time>2021-07-05T15:00:32Z</time>
      </trkpt>
      <trkpt lat="42.69611" lon="-2.0255">
        <ele>545.3915</ele>
        <time>2021-07-05T15:00:43Z</time>
      </trkpt>
      <trkpt lat="42.69387" lon="-2.02595">
        <ele>527.9721</ele>
        <time>2021-07-05T15:00:54Z</time>
      </trkpt>
      <trkpt lat="42.69168" lon="-2.02589">
        <ele>509.1865</ele>
        <time>2021-07-05T15:01:05Z</time>
      </trkpt>
      <trkpt lat="42.69" lon="-2.02799">
        <ele>492.1745</ele>
        <time>2021-07-05T15:01:16Z</time>
      </trkpt>
      <trkpt lat="42.68812" lon="-2.02902">
        <ele>480.8274</ele>
        <time>2021-07-05T15:01:27Z</time>
      </trkpt>
      <trkpt lat="42.68624" lon="-2.02927">
        <ele>472.9388</ele>
        <time>2021-07-05T15:01:38Z</time>
      </trkpt>
      <trkpt lat="42.68465" lon="-2.02988">
        <ele>466.3455</ele>
        <time>2021-07-05T15:01:49Z</time>
      </trkpt>
      <trkpt lat="42.68313" lon="-2.03086">
        <ele>460.1755</ele>
        <time>2021-07-05T15:02:00Z</time>
      </trkpt>
      <trkpt lat="42.68182" lon="-2.03177">
        <ele>451.9638</ele>
        <time>2021-07-05T15:02:11Z</time>
      </trkpt>
      <trkpt lat="42.68108" lon="-2.03236">
        <ele>448.7491</ele>
        <time>2021-07-05T15:02:22Z</time>
      </trkpt>
      <trkpt lat="42.68025" lon="-2.03323">
        <ele>446.4617</ele>
        <time>2021-07-05T15:02:33Z</time>
      </trkpt>
      <trkpt lat="42.67939" lon="-2.03475">
        <ele>438.7968</ele>
        <time>2021-07-05T15:02:44Z</time>
      </trkpt>
      <trkpt lat="42.67858" lon="-2.0356">
        <ele>435.5371</ele>
        <time>2021-07-05T15:02:55Z</time>
      </trkpt>
      <trkpt lat="42.67781" lon="-2.03563">
        <ele>430.6977</ele>
        <time>2021-07-05T15:03:06Z</time>
      </trkpt>
      <trkpt lat="42.67796" lon="-2.03644">
        <ele>428.3613</ele>
        <time>2021-07-05T15:03:17Z</time>
      </trkpt>
      <trkpt lat="42.67885" lon="-2.03735">
        <ele>425.8998</ele>
        <time>2021-07-05T15:03:28Z</time>
      </trkpt>
      <trkpt lat="42.67967" lon="-2.03808">
        <ele>427.8267</ele>
        <time>2021-07-05T15:03:39Z</time>
      </trkpt>
      <trkpt lat="42.68006" lon="-2.0386">
        <ele>428.8679</ele>
        <time>2021-07-05T15:03:50Z</time>
      </trkpt>
      <trkpt lat="42.68033" lon="-2.04039">
        <ele>428.4063</ele>
        <time>2021-07-05T15:04:01Z</time>
      </trkpt>
      <trkpt lat="42.68056" lon="-2.04277">
        <ele>431.0089</ele>
        <time>2021-07-05T15:04:12Z</time>
      </trkpt>
      <trkpt lat="42.68078" lon="-2.04512">
        <ele>426.6825</ele>
        <time>2021-07-05T15:04:23Z</time>
      </trkpt>
      <trkpt lat="42.68152" lon="-2.04714">
        <ele>430.503</ele>
        <time>2021-07-05T15:04:34Z</time>
      </trkpt>
      <trkpt lat="42.68307" lon="-2.04748">
        <ele>428.2413</ele>
        <time>2021-07-05T15:04:45Z</time>
      </trkpt>
      <trkpt lat="42.68345" lon="-2.04806">
        <ele>429.4698</ele>
        <time>2021-07-05T15:04:56Z</time>
      </trkpt>
      <trkpt lat="42.68276" lon="-2.0499">
        <ele>431.4975</ele>
        <time>2021-07-05T15:05:07Z</time>
      </trkpt>
      <trkpt lat="42.68259" lon="-2.0521">
        <ele>427.8647</ele>
        <time>2021-07-05T15:05:18Z</time>
      </trkpt>
      <trkpt lat="42.68277" lon="-2.05435">
        <ele>433.099</ele>
        <time>2021-07-05T15:05:29Z</time>
      </trkpt>
      <trkpt lat="42.68222" lon="-2.05615">
        <ele>429.5464</ele>
        <time>2021-07-05T15:05:40Z</time>
      </trkpt>
      <trkpt lat="42.68254" lon="-2.05822">
        <ele>433.276</ele>
        <time>2021-07-05T15:05:51Z</time>
      </trkpt>
      <trkpt lat="42.68148" lon="-2.05993">
        <ele>432.8768</ele>
        <time>2021-07-05T15:06:02Z</time>
      </trkpt>
      <trkpt lat="42.67997" lon="-2.06088">
        <ele>434.7488</ele>
        <time>2021-07-05T15:06:13Z</time>
      </trkpt>
      <trkpt lat="42.67918" lon="-2.06306">
        <ele>434.2409</ele>
        <time>2021-07-05T15:06:24Z</time>
      </trkpt>
      <trkpt lat="42.6783" lon="-2.06551">
        <ele>439.0109</ele>
        <time>2021-07-05T15:06:35Z</time>
      </trkpt>
      <trkpt lat="42.67806" lon="-2.06777">
        <ele>441.6034</ele>
        <time>2021-07-05T15:06:46Z</time>
      </trkpt>
      <trkpt lat="42.67643" lon="-2.07038">
        <ele>434.8274</ele>
        <time>2021-07-05T15:06:57Z</time>
      </trkpt>
      <trkpt lat="42.67471" lon="-2.07313">
        <ele>434.7021</ele>
        <time>2021-07-05T15:07:08Z</time>
      </trkpt>
      <trkpt lat="42.67301" lon="-2.07572">
        <ele>436.0503</ele>
        <time>2021-07-05T15:07:19Z</time>
      </trkpt>
      <trkpt lat="42.67081" lon="-2.07768">
        <ele>436.2359</ele>
        <time>2021-07-05T15:07:30Z</time>
      </trkpt>
      <trkpt lat="42.66861" lon="-2.07948">
        <ele>437.4549</ele>
        <time>2021-07-05T15:07:41Z</time>
      </trkpt>
      <trkpt lat="42.66643" lon="-2.08127">
        <ele>440.126</ele>
        <time>2021-07-05T15:07:52Z</time>
      </trkpt>
      <trkpt lat="42.66455" lon="-2.08344">
        <ele>441.0581</ele>
        <time>2021-07-05T15:08:03Z</time>
      </trkpt>
      <trkpt lat="42.66269" lon="-2.08574">
        <ele>439.3691</ele>
        <time>2021-07-05T15:08:14Z</time>
      </trkpt>
      <trkpt lat="42.66102" lon="-2.08817">
        <ele>440.8018</ele>
        <time>2021-07-05T15:08:25Z</time>
      </trkpt>
      <trkpt lat="42.66025" lon="-2.09143">
        <ele>443.4426</ele>
        <time>2021-07-05T15:08:36Z</time>
      </trkpt>
      <trkpt lat="42.65951" lon="-2.09475">
        <ele>445.1314</ele>
        <time>2021-07-05T15:08:47Z</time>
      </trkpt>
      <trkpt lat="42.65868" lon="-2.09799">
        <ele>445.084</ele>
        <time>2021-07-05T15:08:58Z</time>
      </trkpt>
      <trkpt lat="42.6579" lon="-2.10109">
        <ele>446.1763</ele>
        <time>2021-07-05T15:09:09Z</time>
      </trkpt>
      <trkpt lat="42.65764" lon="-2.10419">
        <ele>449.7247</ele>
        <time>2021-07-05T15:09:20Z</time>
      </trkpt>
      <trkpt lat="42.65914" lon="-2.10687">
        <ele>450.6597</ele>
        <time>2021-07-05T15:09:31Z</time>
      </trkpt>
      <trkpt lat="42.65974" lon="-2.11002">
        <ele>451.0432</ele>
        <time>2021-07-05T15:09:42Z</time>
      </trkpt>
      <trkpt lat="42.65961" lon="-2.11331">
        <ele>450.3034</ele>
        <time>2021-07-05T15:09:53Z</time>
      </trkpt>
      <trkpt lat="42.65911" lon="-2.11664">
        <ele>450.6918</ele>
        <time>2021-07-05T15:10:04Z</time>
      </trkpt>
      <trkpt lat="42.65808" lon="-2.11991">
        <ele>451.2392</ele>
        <time>2021-07-05T15:10:15Z</time>
      </trkpt>
      <trkpt lat="42.657" lon="-2.12319">
        <ele>452.8922</ele>
        <time>2021-07-05T15:10:26Z</time>
      </trkpt>
      <trkpt lat="42.65605" lon="-2.12642">
        <ele>454.7435</ele>
        <time>2021-07-05T15:10:37Z</time>
      </trkpt>
      <trkpt lat="42.65657" lon="-2.1296">
        <ele>455.7546</ele>
        <time>2021-07-05T15:10:48Z</time>
      </trkpt>
      <trkpt lat="42.65644" lon="-2.13318">
        <ele>455.7392</ele>
        <time>2021-07-05T15:10:59Z</time>
      </trkpt>
      <trkpt lat="42.65632" lon="-2.13656">
        <ele>456.5387</ele>
        <time>2021-07-05T15:11:10Z</time>
      </trkpt>
      <trkpt lat="42.65618" lon="-2.14004">
        <ele>456.0078</ele>
        <time>2021-07-05T15:11:21Z</time>
      </trkpt>
      <trkpt lat="42.65578" lon="-2.1434">
        <ele>457.1422</ele>
        <time>2021-07-05T15:11:32Z</time>
      </trkpt>
      <trkpt lat="42.65532" lon="-2.14669">
        <ele>457.6271</ele>
        <time>2021-07-05T15:11:43Z</time>
      </trkpt>
      <trkpt lat="42.65556" lon="-2.14975">
        <ele>459.4345</ele>
        <time>2021-07-05T15:11:54Z</time>
      </trkpt>
      <trkpt lat="42.65573" lon="-2.15196">
        <ele>460.9124</ele>
        <time>2021-07-05T15:12:05Z</time>
      </trkpt>
      <trkpt lat="42.65584" lon="-2.15382">
        <ele>460.7855</ele>
        <time>2021-07-05T15:12:16Z</time>
      </trkpt>
      <trkpt lat="42.656" lon="-2.15575">
        <ele>464.0376</ele>
        <time>2021-07-05T15:12:27Z</time>
      </trkpt>
      <trkpt lat="42.65621" lon="-2.15801">
        <ele>465.7104</ele>
        <time>2021-07-05T15:12:38Z</time>
      </trkpt>
      <trkpt lat="42.65653" lon="-2.16124">
        <ele>464.1578</ele>
        <time>2021-07-05T15:12:49Z</time>
      </trkpt>
      <trkpt lat="42.65683" lon="-2.16465">
        <ele>463.9738</ele>
        <time>2021-07-05T15:13:00Z</time>
      </trkpt>
      <trkpt lat="42.65715" lon="-2.16816">
        <ele>464.0073</ele>
        <time>2021-07-05T15:13:11Z</time>
      </trkpt>
      <trkpt lat="42.65745" lon="-2.17165">
        <ele>464.99</ele>
        <time>2021-07-05T15:13:22Z</time>
      </trkpt>
      <trkpt lat="42.65777" lon="-2.17512">
        <ele>465.3378</ele>
        <time>2021-07-05T15:13:33Z</time>
      </trkpt>
      <trkpt lat="42.65804" lon="-2.17852">
        <ele>466.6551</ele>
        <time>2021-07-05T15:13:44Z</time>
      </trkpt>
      <trkpt lat="42.65838" lon="-2.18178">
        <ele>470.0443</ele>
        <time>2021-07-05T15:13:55Z</time>
      </trkpt>
      <trkpt lat="42.65839" lon="-2.18495">
        <ele>475.1355</ele>
        <time>2021-07-05T15:14:06Z</time>
      </trkpt>
      <trkpt lat="42.65846" lon="-2.18703">
        <ele>476.2734</ele>
        <time>2021-07-05T15:14:17Z</time>
      </trkpt>
      <trkpt lat="42.65846" lon="-2.18872">
        <ele>477.2117</ele>
        <time>2021-07-05T15:14:28Z</time>
      </trkpt>
      <trkpt lat="42.65847" lon="-2.1907">
        <ele>476.7091</ele>
        <time>2021-07-05T15:14:39Z</time>
      </trkpt>
      <trkpt lat="42.65848" lon="-2.19244">
        <ele>480.0811</ele>
        <time>2021-07-05T15:14:50Z</time>
      </trkpt>
      <trkpt lat="42.65871" lon="-2.19518">
        <ele>475.7493</ele>
        <time>2021-07-05T15:15:01Z</time>
      </trkpt>
      <trkpt lat="42.65913" lon="-2.19853">
        <ele>475.9745</ele>
        <time>2021-07-05T15:15:12Z</time>
      </trkpt>
      <trkpt lat="42.65952" lon="-2.20166">
        <ele>482.3658</ele>
        <time>2021-07-05T15:15:23Z</time>
      </trkpt>
      <trkpt lat="42.65988" lon="-2.20468">
        <ele>488.2511</ele>
        <time>2021-07-05T15:15:34Z</time>
      </trkpt>
      <trkpt lat="42.66036" lon="-2.20793">
        <ele>482.078</ele>
        <time>2021-07-05T15:15:45Z</time>
      </trkpt>
      <trkpt lat="42.66135" lon="-2.2111">
        <ele>483.4492</ele>
        <time>2021-07-05T15:15:56Z</time>
      </trkpt>
      <trkpt lat="42.66295" lon="-2.2139">
        <ele>478.9358</ele>
        <time>2021-07-05T15:16:07Z</time>
      </trkpt>
      <trkpt lat="42.66451" lon="-2.21662">
        <ele>480.5964</ele>
        <time>2021-07-05T15:16:18Z</time>
      </trkpt>
      <trkpt lat="42.66479" lon="-2.21969">
        <ele>488.3517</ele>
        <time>2021-07-05T15:16:29Z</time>
      </trkpt>
      <trkpt lat="42.66471" lon="-2.22308">
        <ele>498.711</ele>
        <time>2021-07-05T15:16:40Z</time>
      </trkpt>
      <trkpt lat="42.66418" lon="-2.22642">
        <ele>509.1221</ele>
        <time>2021-07-05T15:16:51Z</time>
      </trkpt>
      <trkpt lat="42.66333" lon="-2.22984">
        <ele>514.406</ele>
        <time>2021-07-05T15:17:02Z</time>
      </trkpt>
      <trkpt lat="42.66268" lon="-2.23324">
        <ele>512.3821</ele>
        <time>2021-07-05T15:17:13Z</time>
      </trkpt>
      <trkpt lat="42.66339" lon="-2.2367">
        <ele>511.0014</ele>
        <time>2021-07-05T15:17:24Z</time>
      </trkpt>
      <trkpt lat="42.66419" lon="-2.2402">
        <ele>515.5713</ele>
        <time>2021-07-05T15:17:35Z</time>
      </trkpt>
      <trkpt lat="42.66492" lon="-2.24335">
        <ele>519.2171</ele>
        <time>2021-07-05T15:17:46Z</time>
      </trkpt>
      <trkpt lat="42.66546" lon="-2.24571">
        <ele>522.4987</ele>
        <time>2021-07-05T15:17:57Z</time>
      </trkpt>
      <trkpt lat="42.66593" lon="-2.24776">
        <ele>522.9102</ele>
        <time>2021-07-05T15:18:08Z</time>
      </trkpt>
      <trkpt lat="42.66635" lon="-2.24984">
        <ele>530.7965</ele>
        <time>2021-07-05T15:18:19Z</time>
      </trkpt>
      <trkpt lat="42.66706" lon="-2.25211">
        <ele>538.3361</ele>
        <time>2021-07-05T15:18:30Z</time>
      </trkpt>
      <trkpt lat="42.66818" lon="-2.25497">
        <ele>542.9855</ele>
        <time>2021-07-05T15:18:41Z</time>
      </trkpt>
      <trkpt lat="42.66922" lon="-2.25822">
        <ele>545.3217</ele>
        <time>2021-07-05T15:18:52Z</time>
      </trkpt>
      <trkpt lat="42.67029" lon="-2.26147">
        <ele>558.0617</ele>
        <time>2021-07-05T15:19:03Z</time>
      </trkpt>
      <trkpt lat="42.67146" lon="-2.26446">
        <ele>572.7103</ele>
        <time>2021-07-05T15:19:14Z</time>
      </trkpt>
      <trkpt lat="42.67391" lon="-2.26432">
        <ele>563.4846</ele>
        <time>2021-07-05T15:19:25Z</time>
      </trkpt>
      <trkpt lat="42.67653" lon="-2.26358">
        <ele>553.395</ele>
        <time>2021-07-05T15:19:36Z</time>
      </trkpt>
      <trkpt lat="42.67904" lon="-2.26335">
        <ele>541.9089</ele>
        <time>2021-07-05T15:19:47Z</time>
      </trkpt>
      <trkpt lat="42.67996" lon="-2.26513">
        <ele>530.6698</ele>
        <time>2021-07-05T15:19:58Z</time>
      </trkpt>
      <trkpt lat="42.68141" lon="-2.26802">
        <ele>519.2359</ele>
        <time>2021-07-05T15:20:09Z</time>
      </trkpt>
      <trkpt lat="42.68337" lon="-2.26927">
        <ele>518.5393</ele>
        <time>2021-07-05T15:20:20Z</time>
      </trkpt>
      <trkpt lat="42.6843" lon="-2.27105">
        <ele>522.3831</ele>
        <time>2021-07-05T15:20:31Z</time>
      </trkpt>
      <trkpt lat="42.68259" lon="-2.27186">
        <ele>524.5449</ele>
        <time>2021-07-05T15:20:42Z</time>
      </trkpt>
      <trkpt lat="42.68157" lon="-2.27437">
        <ele>521.9321</ele>
        <time>2021-07-05T15:20:53Z</time>
      </trkpt>
      <trkpt lat="42.67997" lon="-2.27559">
        <ele>522.604</ele>
        <time>2021-07-05T15:21:04Z</time>
      </trkpt>
      <trkpt lat="42.68085" lon="-2.27784">
        <ele>522.7512</ele>
        <time>2021-07-05T15:21:15Z</time>
      </trkpt>
      <trkpt lat="42.68206" lon="-2.27967">
        <ele>522.3647</ele>
        <time>2021-07-05T15:21:26Z</time>
      </trkpt>
      <trkpt lat="42.68195" lon="-2.28245">
        <ele>521.7564</ele>
        <time>2021-07-05T15:21:37Z</time>
      </trkpt>
      <trkpt lat="42.68182" lon="-2.28551">
        <ele>529.4741</ele>
        <time>2021-07-05T15:21:48Z</time>
      </trkpt>
      <trkpt lat="42.68355" lon="-2.28767">
        <ele>530.2064</ele>
        <time>2021-07-05T15:21:59Z</time>
      </trkpt>
      <trkpt lat="42.68519" lon="-2.29009">
        <ele>535.7752</ele>
        <time>2021-07-05T15:22:10Z</time>
      </trkpt>
      <trkpt lat="42.68592" lon="-2.29338">
        <ele>539.7079</ele>
        <time>2021-07-05T15:22:21Z</time>
      </trkpt>
      <trkpt lat="42.68801" lon="-2.29505">
        <ele>547.4575</ele>
        <time>2021-07-05T15:22:32Z</time>
      </trkpt>
      <trkpt lat="42.68826" lon="-2.29807">
        <ele>549.6718</ele>
        <time>2021-07-05T15:22:43Z</time>
      </trkpt>
      <trkpt lat="42.68728" lon="-2.30152">
        <ele>554.1426</ele>
        <time>2021-07-05T15:22:54Z</time>
      </trkpt>
      <trkpt lat="42.6863" lon="-2.30489">
        <ele>556.4872</ele>
        <time>2021-07-05T15:23:05Z</time>
      </trkpt>
      <trkpt lat="42.68526" lon="-2.30815">
        <ele>551.8839</ele>
        <time>2021-07-05T15:23:16Z</time>
      </trkpt>
      <trkpt lat="42.68395" lon="-2.3112">
        <ele>552.6147</ele>
        <time>2021-07-05T15:23:27Z</time>
      </trkpt>
      <trkpt lat="42.68264" lon="-2.3142">
        <ele>556.565</ele>
        <time>2021-07-05T15:23:38Z</time>
      </trkpt>
      <trkpt lat="42.68162" lon="-2.31744">
        <ele>553.9881</ele>
        <time>2021-07-05T15:23:49Z</time>
      </trkpt>
      <trkpt lat="42.68077" lon="-2.32057">
        <ele>551.4135</ele>
        <time>2021-07-05T15:24:00Z</time>
      </trkpt>
      <trkpt lat="42.67993" lon="-2.32367">
        <ele>547.433</ele>
        <time>2021-07-05T15:24:11Z</time>
      </trkpt>
      <trkpt lat="42.67908" lon="-2.32676">
        <ele>544.3124</ele>
        <time>2021-07-05T15:24:22Z</time>
      </trkpt>
      <trkpt lat="42.67829" lon="-2.32964">
        <ele>546.6207</ele>
        <time>2021-07-05T15:24:33Z</time>
      </trkpt>
      <trkpt lat="42.67755" lon="-2.33237">
        <ele>544.6543</ele>
        <time>2021-07-05T15:24:44Z</time>
      </trkpt>
      <trkpt lat="42.67669" lon="-2.33551">
        <ele>541.27</ele>
        <time>2021-07-05T15:24:55Z</time>
      </trkpt>
      <trkpt lat="42.67587" lon="-2.33851">
        <ele>542.926</ele>
        <time>2021-07-05T15:25:06Z</time>
      </trkpt>
      <trkpt lat="42.675" lon="-2.34173">
        <ele>543.955</ele>
        <time>2021-07-05T15:25:17Z</time>
      </trkpt>
      <trkpt lat="42.67419" lon="-2.34468">
        <ele>545.8463</ele>
        <time>2021-07-05T15:25:28Z</time>
      </trkpt>
      <trkpt lat="42.67298" lon="-2.34727">
        <ele>546.8669</ele>
        <time>2021-07-05T15:25:39Z</time>
      </trkpt>
      <trkpt lat="42.67169" lon="-2.34883">
        <ele>548.8566</ele>
        <time>2021-07-05T15:25:50Z</time>
      </trkpt>
      <trkpt lat="42.67091" lon="-2.35091">
        <ele>552.2043</ele>
        <time>2021-07-05T15:26:01Z</time>
      </trkpt>
      <trkpt lat="42.67059" lon="-2.35311">
        <ele>553.1335</ele>
        <time>2021-07-05T15:26:12Z</time>
      </trkpt>
      <trkpt lat="42.67032" lon="-2.35507">
        <ele>553.7001</ele>
        <time>2021-07-05T15:26:23Z</time>
      </trkpt>
      <trkpt lat="42.67017" lon="-2.35701">
        <ele>561.4539</ele>
        <time>2021-07-05T15:26:34Z</time>
      </trkpt>
      <trkpt lat="42.66994" lon="-2.35857">
        <ele>561.9928</ele>
        <time>2021-07-05T15:26:45Z</time>
      </trkpt>
      <trkpt lat="42.66962" lon="-2.36177">
        <ele>563.8963</ele>
        <time>2021-07-05T15:26:56Z</time>
      </trkpt>
      <trkpt lat="42.66847" lon="-2.36481">
        <ele>563.3021</ele>
        <time>2021-07-05T15:27:07Z</time>
      </trkpt>
      <trkpt lat="42.66723" lon="-2.36787">
        <ele>566.0465</ele>
        <time>2021-07-05T15:27:18Z</time>
      </trkpt>
      <trkpt lat="42.66606" lon="-2.37131">
        <ele>565.0158</ele>
        <time>2021-07-05T15:27:29Z</time>
      </trkpt>
      <trkpt lat="42.66497" lon="-2.37467">
        <ele>567.3499</ele>
        <time>2021-07-05T15:27:40Z</time>
      </trkpt>
      <trkpt lat="42.66348" lon="-2.37779">
        <ele>570.851</ele>
        <time>2021-07-05T15:27:51Z</time>
      </trkpt>
      <trkpt lat="42.66165" lon="-2.38012">
        <ele>573.7316</ele>
        <time>2021-07-05T15:28:02Z</time>
      </trkpt>
      <trkpt lat="42.65944" lon="-2.38222">
        <ele>581.8227</ele>
        <time>2021-07-05T15:28:13Z</time>
      </trkpt>
      <trkpt lat="42.65699" lon="-2.38416">
        <ele>585.6519</ele>
        <time>2021-07-05T15:28:24Z</time>
      </trkpt>
      <trkpt lat="42.65456" lon="-2.38547">
        <ele>589.171</ele>
        <time>2021-07-05T15:28:35Z</time>
      </trkpt>
      <trkpt lat="42.65197" lon="-2.3866">
        <ele>601.4849</ele>
        <time>2021-07-05T15:28:46Z</time>
      </trkpt>
      <trkpt lat="42.64936" lon="-2.38772">
        <ele>612.1908</ele>
        <time>2021-07-05T15:28:57Z</time>
      </trkpt>
      <trkpt lat="42.64718" lon="-2.38823">
        <ele>618.5047</ele>
        <time>2021-07-05T15:29:08Z</time>
      </trkpt>
      <trkpt lat="42.6457" lon="-2.38894">
        <ele>619.1155</ele>
        <time>2021-07-05T15:29:19Z</time>
      </trkpt>
      <trkpt lat="42.64439" lon="-2.38922">
        <ele>625.3667</ele>
        <time>2021-07-05T15:29:30Z</time>
      </trkpt>
      <trkpt lat="42.64282" lon="-2.38937">
        <ele>628.0981</ele>
        <time>2021-07-05T15:29:41Z</time>
      </trkpt>
      <trkpt lat="42.64154" lon="-2.39192">
        <ele>636.2194</ele>
        <time>2021-07-05T15:29:52Z</time>
      </trkpt>
      <trkpt lat="42.64038" lon="-2.39443">
        <ele>642.5148</ele>
        <time>2021-07-05T15:30:03Z</time>
      </trkpt>
      <trkpt lat="42.63929" lon="-2.39573">
        <ele>650.6776</ele>
        <time>2021-07-05T15:30:14Z</time>
      </trkpt>
      <trkpt lat="42.63738" lon="-2.39722">
        <ele>665.1898</ele>
        <time>2021-07-05T15:30:25Z</time>
      </trkpt>
      <trkpt lat="42.63671" lon="-2.39953">
        <ele>669.4138</ele>
        <time>2021-07-05T15:30:36Z</time>
      </trkpt>
      <trkpt lat="42.6353" lon="-2.40068">
        <ele>679.061</ele>
        <time>2021-07-05T15:30:47Z</time>
      </trkpt>
      <trkpt lat="42.63356" lon="-2.40191">
        <ele>687.5585</ele>
        <time>2021-07-05T15:30:58Z</time>
      </trkpt>
      <trkpt lat="42.63173" lon="-2.40282">
        <ele>697.5744</ele>
        <time>2021-07-05T15:31:09Z</time>
      </trkpt>
      <trkpt lat="42.63009" lon="-2.40468">
        <ele>712.8214</ele>
        <time>2021-07-05T15:31:20Z</time>
      </trkpt>
      <trkpt lat="42.62908" lon="-2.40693">
        <ele>727.1907</ele>
        <time>2021-07-05T15:31:31Z</time>
      </trkpt>
      <trkpt lat="42.62817" lon="-2.40952">
        <ele>739.6034</ele>
        <time>2021-07-05T15:31:42Z</time>
      </trkpt>
      <trkpt lat="42.62723" lon="-2.41189">
        <ele>747.5176</ele>
        <time>2021-07-05T15:31:53Z</time>
      </trkpt>
      <trkpt lat="42.62558" lon="-2.41345">
        <ele>759.4339</ele>
        <time>2021-07-05T15:32:04Z</time>
      </trkpt>
      <trkpt lat="42.62453" lon="-2.41518">
        <ele>767.8608</ele>
        <time>2021-07-05T15:32:15Z</time>
      </trkpt>
      <trkpt lat="42.62344" lon="-2.4137">
        <ele>778.6054</ele>
        <time>2021-07-05T15:32:26Z</time>
      </trkpt>
      <trkpt lat="42.62232" lon="-2.41383">
        <ele>785.8129</ele>
        <time>2021-07-05T15:32:37Z</time>
      </trkpt>
      <trkpt lat="42.62095" lon="-2.41317">
        <ele>789.6053</ele>
        <time>2021-07-05T15:32:48Z</time>
      </trkpt>
      <trkpt lat="42.61948" lon="-2.41443">
        <ele>787.6435</ele>
        <time>2021-07-05T15:32:59Z</time>
      </trkpt>
      <trkpt lat="42.61842" lon="-2.41694">
        <ele>790.4485</ele>
        <time>2021-07-05T15:33:10Z</time>
      </trkpt>
      <trkpt lat="42.61696" lon="-2.4193">
        <ele>806.5817</ele>
        <time>2021-07-05T15:33:21Z</time>
      </trkpt>
      <trkpt lat="42.61511" lon="-2.42094">
        <ele>819.2391</ele>
        <time>2021-07-05T15:33:32Z</time>
      </trkpt>
      <trkpt lat="42.61357" lon="-2.42136">
        <ele>833.4754</ele>
        <time>2021-07-05T15:33:43Z</time>
      </trkpt>
      <trkpt lat="42.61242" lon="-2.42013">
        <ele>834.9011</ele>
        <time>2021-07-05T15:33:54Z</time>
      </trkpt>
      <trkpt lat="42.61183" lon="-2.42198">
        <ele>841.5143</ele>
        <time>2021-07-05T15:34:05Z</time>
      </trkpt>
      <trkpt lat="42.61176" lon="-2.42422">
        <ele>858.823</ele>
        <time>2021-07-05T15:34:16Z</time>
      </trkpt>
      <trkpt lat="42.61174" lon="-2.4267">
        <ele>867.4638</ele>
        <time>2021-07-05T15:34:27Z</time>
      </trkpt>
      <trkpt lat="42.61208" lon="-2.42938">
        <ele>879.9441</ele>
        <time>2021-07-05T15:34:38Z</time>
      </trkpt>
      <trkpt lat="42.61202" lon="-2.4311">
        <ele>883.8758</ele>
        <time>2021-07-05T15:34:49Z</time>
      </trkpt>
      <trkpt lat="42.61084" lon="-2.43145">
        <ele>889.366</ele>
        <time>2021-07-05T15:35:00Z</time>
      </trkpt>
      <trkpt lat="42.61048" lon="-2.4335">
        <ele>893.4916</ele>
        <time>2021-07-05T15:35:11Z</time>
      </trkpt>
      <trkpt lat="42.61023" lon="-2.43535">
        <ele>905.8614</ele>
        <time>2021-07-05T15:35:22Z</time>
      </trkpt>
      <trkpt lat="42.60921" lon="-2.43698">
        <ele>900.5191</ele>
        <time>2021-07-05T15:35:33Z</time>
      </trkpt>
      <trkpt lat="42.60968" lon="-2.43937">
        <ele>901.3692</ele>
        <time>2021-07-05T15:35:44Z</time>
      </trkpt>
      <trkpt lat="42.61042" lon="-2.44225">
        <ele>906.3289</ele>
        <time>2021-07-05T15:35:55Z</time>
      </trkpt>
      <trkpt lat="42.6105" lon="-2.44493">
        <ele>917.1159</ele>
        <time>2021-07-05T15:36:06Z</time>
      </trkpt>
      <trkpt lat="42.60902" lon="-2.44672">
        <ele>926.1228</ele>
        <time>2021-07-05T15:36:17Z</time>
      </trkpt>
      <trkpt lat="42.60836" lon="-2.44826">
        <ele>930.0984</ele>
        <time>2021-07-05T15:36:28Z</time>
      </trkpt>
      <trkpt lat="42.60741" lon="-2.45041">
        <ele>926.5538</ele>
        <time>2021-07-05T15:36:39Z</time>
      </trkpt>
      <trkpt lat="42.60697" lon="-2.45359">
        <ele>931.854</ele>
        <time>2021-07-05T15:36:50Z</time>
      </trkpt>
      <trkpt lat="42.60569" lon="-2.45605">
        <ele>944.0451</ele>
        <time>2021-07-05T15:37:01Z</time>
      </trkpt>
      <trkpt lat="42.60488" lon="-2.45818">
        <ele>950.7725</ele>
        <time>2021-07-05T15:37:12Z</time>
      </trkpt>
      <trkpt lat="42.60463" lon="-2.45953">
        <ele>959.475</ele>
        <time>2021-07-05T15:37:23Z</time>
      </trkpt>
      <trkpt lat="42.60416" lon="-2.46087">
        <ele>957.158</ele>
        <time>2021-07-05T15:37:34Z</time>
      </trkpt>
      <trkpt lat="42.6038" lon="-2.46196">
        <ele>953.3943</ele>
        <time>2021-07-05T15:37:45Z</time>
      </trkpt>
      <trkpt lat="42.60316" lon="-2.46386">
        <ele>944.7062</ele>
        <time>2021-07-05T15:37:56Z</time>
      </trkpt>
      <trkpt lat="42.60266" lon="-2.46611">
        <ele>932.1829</ele>
        <time>2021-07-05T15:38:07Z</time>
      </trkpt>
      <trkpt lat="42.60254" lon="-2.46783">
        <ele>924.0365</ele>
        <time>2021-07-05T15:38:18Z</time>
      </trkpt>
      <trkpt lat="42.60167" lon="-2.46979">
        <ele>911.1367</ele>
        <time>2021-07-05T15:38:29Z</time>
      </trkpt>
      <trkpt lat="42.60218" lon="-2.47203">
        <ele>900.1524</ele>
        <time>2021-07-05T15:38:40Z</time>
      </trkpt>
      <trkpt lat="42.60311" lon="-2.47373">
        <ele>887.0204</ele>
        <time>2021-07-05T15:38:51Z</time>
      </trkpt>
      <trkpt lat="42.60288" lon="-2.47439">
        <ele>883.5977</ele>
        <time>2021-07-05T15:39:02Z</time>
      </trkpt>
      <trkpt lat="42.6022" lon="-2.47369">
        <ele>879.7892</ele>
        <time>2021-07-05T15:39:13Z</time>
      </trkpt>
      <trkpt lat="42.60273" lon="-2.4742">
        <ele>884.6524</ele>
        <time>2021-07-05T15:39:24Z</time>
      </trkpt>
      <trkpt lat="42.60288" lon="-2.47518">
        <ele>880.5607</ele>
        <time>2021-07-05T15:39:35Z</time>
      </trkpt>
      <trkpt lat="42.60249" lon="-2.478">
        <ele>871.9927</ele>
        <time>2021-07-05T15:39:46Z</time>
      </trkpt>
      <trkpt lat="42.60243" lon="-2.48046">
        <ele>871.3202</ele>
        <time>2021-07-05T15:39:57Z</time>
      </trkpt>
      <trkpt lat="42.60322" lon="-2.48206">
        <ele>861.0186</ele>
        <time>2021-07-05T15:40:08Z</time>
      </trkpt>
      <trkpt lat="42.60476" lon="-2.48176">
        <ele>851.7565</ele>
        <time>2021-07-05T15:40:19Z</time>
      </trkpt>
      <trkpt lat="42.60605" lon="-2.48178">
        <ele>845.674</ele>
        <time>2021-07-05T15:40:30Z</time>
      </trkpt>
      <trkpt lat="42.60615" lon="-2.48332">
        <ele>834.323</ele>
        <time>2021-07-05T15:40:41Z</time>
      </trkpt>
      <trkpt lat="42.60666" lon="-2.48532">
        <ele>827.809</ele>
        <time>2021-07-05T15:40:52Z</time>
      </trkpt>
      <trkpt lat="42.60703" lon="-2.48704">
        <ele>816.8026</ele>
        <time>2021-07-05T15:41:03Z</time>
      </trkpt>
      <trkpt lat="42.60641" lon="-2.48829">
        <ele>805.3845</ele>
        <time>2021-07-05T15:41:14Z</time>
      </trkpt>
      <trkpt lat="42.6065" lon="-2.49001">
        <ele>798.7039</ele>
        <time>2021-07-05T15:41:25Z</time>
      </trkpt>
      <trkpt lat="42.60591" lon="-2.49227">
        <ele>784.7479</ele>
        <time>2021-07-05T15:41:36Z</time>
      </trkpt>
      <trkpt lat="42.6045" lon="-2.49476">
        <ele>765.6235</ele>
        <time>2021-07-05T15:41:47Z</time>
      </trkpt>
      <trkpt lat="42.6036" lon="-2.49666">
        <ele>765.6687</ele>
        <time>2021-07-05T15:41:58Z</time>
      </trkpt>
      <trkpt lat="42.60325" lon="-2.49828">
        <ele>760.5154</ele>
        <time>2021-07-05T15:42:09Z</time>
      </trkpt>
      <trkpt lat="42.6024" lon="-2.49847">
        <ele>754.3233</ele>
        <time>2021-07-05T15:42:20Z</time>
      </trkpt>
      <trkpt lat="42.60169" lon="-2.49938">
        <ele>745.0197</ele>
        <time>2021-07-05T15:42:31Z</time>
      </trkpt>
      <trkpt lat="42.60039" lon="-2.50062">
        <ele>742.7859</ele>
        <time>2021-07-05T15:42:42Z</time>
      </trkpt>
      <trkpt lat="42.59955" lon="-2.5028">
        <ele>730.7705</ele>
        <time>2021-07-05T15:42:53Z</time>
      </trkpt>
      <trkpt lat="42.59828" lon="-2.5044">
        <ele>723.7791</ele>
        <time>2021-07-05T15:43:04Z</time>
      </trkpt>
      <trkpt lat="42.59681" lon="-2.50559">
        <ele>723.67</ele>
        <time>2021-07-05T15:43:15Z</time>
      </trkpt>
      <trkpt lat="42.59738" lon="-2.50728">
        <ele>714.0014</ele>
        <time>2021-07-05T15:43:26Z</time>
      </trkpt>
      <trkpt lat="42.59828" lon="-2.50904">
        <ele>703.7185</ele>
        <time>2021-07-05T15:43:37Z</time>
      </trkpt>
      <trkpt lat="42.59716" lon="-2.50958">
        <ele>702.8687</ele>
        <time>2021-07-05T15:43:48Z</time>
      </trkpt>
      <trkpt lat="42.59648" lon="-2.51059">
        <ele>700.9044</ele>
        <time>2021-07-05T15:43:59Z</time>
      </trkpt>
      <trkpt lat="42.59509" lon="-2.5111">
        <ele>700.3542</ele>
        <time>2021-07-05T15:44:10Z</time>
      </trkpt>
      <trkpt lat="42.5941" lon="-2.51278">
        <ele>698.7372</ele>
        <time>2021-07-05T15:44:21Z</time>
      </trkpt>
      <trkpt lat="42.59398" lon="-2.51402">
        <ele>702.673</ele>
        <time>2021-07-05T15:44:32Z</time>
      </trkpt>
      <trkpt lat="42.59409" lon="-2.51501">
        <ele>702.9807</ele>
        <time>2021-07-05T15:44:43Z</time>
      </trkpt>
      <trkpt lat="42.59438" lon="-2.51604">
        <ele>697.9302</ele>
        <time>2021-07-05T15:44:54Z</time>
      </trkpt>
      <trkpt lat="42.59542" lon="-2.51702">
        <ele>685.1925</ele>
        <time>2021-07-05T15:45:05Z</time>
      </trkpt>
      <trkpt lat="42.59609" lon="-2.51867">
        <ele>675.5996</ele>
        <time>2021-07-05T15:45:16Z</time>
      </trkpt>
      <trkpt lat="42.59474" lon="-2.52115">
        <ele>686.395</ele>
        <time>2021-07-05T15:45:27Z</time>
      </trkpt>
      <trkpt lat="42.59489" lon="-2.52438">
        <ele>674.9213</ele>
        <time>2021-07-05T15:45:38Z</time>
      </trkpt>
      <trkpt lat="42.59531" lon="-2.52708">
        <ele>667.1894</ele>
        <time>2021-07-05T15:45:49Z</time>
      </trkpt>
      <trkpt lat="42.59485" lon="-2.52969">
        <ele>660.9163</ele>
        <time>2021-07-05T15:46:00Z</time>
      </trkpt>
      <trkpt lat="42.593" lon="-2.5303">
        <ele>671.8558</ele>
        <time>2021-07-05T15:46:11Z</time>
      </trkpt>
      <trkpt lat="42.5913" lon="-2.53132">
        <ele>653.2403</ele>
        <time>2021-07-05T15:46:22Z</time>
      </trkpt>
      <trkpt lat="42.58885" lon="-2.53124">
        <ele>642.7584</ele>
        <time>2021-07-05T15:46:33Z</time>
      </trkpt>
      <trkpt lat="42.58665" lon="-2.53208">
        <ele>650.6329</ele>
        <time>2021-07-05T15:46:44Z</time>
      </trkpt>
      <trkpt lat="42.58459" lon="-2.53381">
        <ele>648.8179</ele>
        <time>2021-07-05T15:46:55Z</time>
      </trkpt>
      <trkpt lat="42.58213" lon="-2.53513">
        <ele>637.1456</ele>
        <time>2021-07-05T15:47:06Z</time>
      </trkpt>
      <trkpt lat="42.57971" lon="-2.53655">
        <ele>643.6496</ele>
        <time>2021-07-05T15:47:17Z</time>
      </trkpt>
      <trkpt lat="42.57747" lon="-2.5381">
        <ele>618.9596</ele>
        <time>2021-07-05T15:47:28Z</time>
      </trkpt>
      <trkpt lat="42.57521" lon="-2.53965">
        <ele>594.7802</ele>
        <time>2021-07-05T15:47:39Z</time>
      </trkpt>
      <trkpt lat="42.57339" lon="-2.54124">
        <ele>586.6521</ele>
        <time>2021-07-05T15:47:50Z</time>
      </trkpt>
      <trkpt lat="42.5713" lon="-2.5417">
        <ele>578.588</ele>
        <time>2021-07-05T15:48:01Z</time>
      </trkpt>
      <trkpt lat="42.56905" lon="-2.54177">
        <ele>561.0014</ele>
        <time>2021-07-05T15:48:12Z</time>
      </trkpt>
      <trkpt lat="42.56698" lon="-2.54182">
        <ele>559.6175</ele>
        <time>2021-07-05T15:48:23Z</time>
      </trkpt>
      <trkpt lat="42.56649" lon="-2.54273">
        <ele>562.211</ele>
        <time>2021-07-05T15:48:34Z</time>
      </trkpt>
      <trkpt lat="42.56746" lon="-2.54504">
        <ele>554.9967</ele>
        <time>2021-07-05T15:48:45Z</time>
      </trkpt>
      <trkpt lat="42.56819" lon="-2.5472">
        <ele>544.1044</ele>
        <time>2021-07-05T15:48:56Z</time>
      </trkpt>
      <trkpt lat="42.56778" lon="-2.54833">
        <ele>542.7706</ele>
        <time>2021-07-05T15:49:07Z</time>
      </trkpt>
      <trkpt lat="42.56628" lon="-2.54625">
        <ele>544.7478</ele>
        <time>2021-07-05T15:49:18Z</time>
      </trkpt>
      <trkpt lat="42.56417" lon="-2.54495">
        <ele>550.5228</ele>
        <time>2021-07-05T15:49:29Z</time>
      </trkpt>
      <trkpt lat="42.56256" lon="-2.54556">
        <ele>558.9307</ele>
        <time>2021-07-05T15:49:40Z</time>
      </trkpt>
      <trkpt lat="42.56268" lon="-2.54878">
        <ele>553.407</ele>
        <time>2021-07-05T15:49:51Z</time>
      </trkpt>
      <trkpt lat="42.56296" lon="-2.55175">
        <ele>554.8125</ele>
        <time>2021-07-05T15:50:02Z</time>
      </trkpt>
      <trkpt lat="42.56336" lon="-2.55439">
        <ele>558.3886</ele>
        <time>2021-07-05T15:50:13Z</time>
      </trkpt>
      <trkpt lat="42.56489" lon="-2.55716">
        <ele>537.5527</ele>
        <time>2021-07-05T15:50:24Z</time>
      </trkpt>
      <trkpt lat="42.56627" lon="-2.55971">
        <ele>531.1966</ele>
        <time>2021-07-05T15:50:35Z</time>
      </trkpt>
      <trkpt lat="42.56566" lon="-2.56025">
        <ele>538.6326</ele>
        <time>2021-07-05T15:50:46Z</time>
      </trkpt>
      <trkpt lat="42.56421" lon="-2.5598">
        <ele>550.2154</ele>
        <time>2021-07-05T15:50:57Z</time>
      </trkpt>
      <trkpt lat="42.56342" lon="-2.56214">
        <ele>567.9489</ele>
        <time>2021-07-05T15:51:08Z</time>
      </trkpt>
      <trkpt lat="42.56267" lon="-2.56482">
        <ele>563.536</ele>
        <time>2021-07-05T15:51:19Z</time>
      </trkpt>
      <trkpt lat="42.56266" lon="-2.56784">
        <ele>549.2659</ele>
        <time>2021-07-05T15:51:30Z</time>
      </trkpt>
      <trkpt lat="42.56174" lon="-2.56973">
        <ele>550.3423</ele>
        <time>2021-07-05T15:51:41Z</time>
      </trkpt>
      <trkpt lat="42.55983" lon="-2.57078">
        <ele>561.683</ele>
        <time>2021-07-05T15:51:52Z</time>
      </trkpt>
      <trkpt lat="42.55926" lon="-2.57372">
        <ele>571.3819</ele>
        <time>2021-07-05T15:52:03Z</time>
      </trkpt>
      <trkpt lat="42.55899" lon="-2.57669">
        <ele>573.2215</ele>
        <time>2021-07-05T15:52:14Z</time>
      </trkpt>
      <trkpt lat="42.55856" lon="-2.57947">
        <ele>570.7677</ele>
        <time>2021-07-05T15:52:25Z</time>
      </trkpt>
      <trkpt lat="42.55796" lon="-2.58231">
        <ele>583.886</ele>
        <time>2021-07-05T15:52:36Z</time>
      </trkpt>
      <trkpt lat="42.55829" lon="-2.58493">
        <ele>599.3329</ele>
        <time>2021-07-05T15:52:47Z</time>
      </trkpt>
      <trkpt lat="42.55829" lon="-2.58623">
        <ele>600.6122</ele>
        <time>2021-07-05T15:52:58Z</time>
      </trkpt>
      <trkpt lat="42.55913" lon="-2.58833">
        <ele>589.9005</ele>
        <time>2021-07-05T15:53:09Z</time>
      </trkpt>
      <trkpt lat="42.56042" lon="-2.59131">
        <ele>578.8531</ele>
        <time>2021-07-05T15:53:20Z</time>
      </trkpt>
      <trkpt lat="42.56174" lon="-2.59439">
        <ele>571.1919</ele>
        <time>2021-07-05T15:53:31Z</time>
      </trkpt>
      <trkpt lat="42.56304" lon="-2.59743">
        <ele>581.1947</ele>
        <time>2021-07-05T15:53:42Z</time>
      </trkpt>
      <trkpt lat="42.5644" lon="-2.60062">
        <ele>584.5483</ele>
        <time>2021-07-05T15:53:53Z</time>
      </trkpt>
      <trkpt lat="42.56581" lon="-2.6039">
        <ele>586.7943</ele>
        <time>2021-07-05T15:54:04Z</time>
      </trkpt>
      <trkpt lat="42.56721" lon="-2.60717">
        <ele>583.8652</ele>
        <time>2021-07-05T15:54:15Z</time>
      </trkpt>
      <trkpt lat="42.56853" lon="-2.61027">
        <ele>596.0164</ele>
        <time>2021-07-05T15:54:26Z</time>
      </trkpt>
      <trkpt lat="42.56953" lon="-2.61305">
        <ele>602.2214</ele>
        <time>2021-07-05T15:54:37Z</time>
      </trkpt>
      <trkpt lat="42.57081" lon="-2.6161">
        <ele>593.1275</ele>
        <time>2021-07-05T15:54:48Z</time>
      </trkpt>
      <trkpt lat="42.57243" lon="-2.61875">
        <ele>598.2115</ele>
        <time>2021-07-05T15:54:59Z</time>
      </trkpt>
      <trkpt lat="42.57403" lon="-2.62129">
        <ele>609.7362</ele>
        <time>2021-07-05T15:55:10Z</time>
      </trkpt>
      <trkpt lat="42.57403" lon="-2.62468">
        <ele>609.6228</ele>
        <time>2021-07-05T15:55:21Z</time>
      </trkpt>
      <trkpt lat="42.57446" lon="-2.62831">
        <ele>601.3943</ele>
        <time>2021-07-05T15:55:32Z</time>
      </trkpt>
      <trkpt lat="42.57513" lon="-2.63131">
        <ele>597.5948</ele>
        <time>2021-07-05T15:55:43Z</time>
      </trkpt>
      <trkpt lat="42.5757" lon="-2.6339">
        <ele>604.7663</ele>
        <time>2021-07-05T15:55:54Z</time>
      </trkpt>
      <trkpt lat="42.57628" lon="-2.63648">
        <ele>612.0707</ele>
        <time>2021-07-05T15:56:05Z</time>
      </trkpt>
      <trkpt lat="42.57684" lon="-2.63903">
        <ele>621.0974</ele>
        <time>2021-07-05T15:56:16Z</time>
      </trkpt>
      <trkpt lat="42.57742" lon="-2.64166">
        <ele>631.1263</ele>
        <time>2021-07-05T15:56:27Z</time>
      </trkpt>
      <trkpt lat="42.57764" lon="-2.64446">
        <ele>633.392</ele>
        <time>2021-07-05T15:56:38Z</time>
      </trkpt>
      <trkpt lat="42.57681" lon="-2.64772">
        <ele>625.187</ele>
        <time>2021-07-05T15:56:49Z</time>
      </trkpt>
      <trkpt lat="42.57559" lon="-2.65066">
        <ele>627.54</ele>
        <time>2021-07-05T15:57:00Z</time>
      </trkpt>
      <trkpt lat="42.57398" lon="-2.65341">
        <ele>626.6389</ele>
        <time>2021-07-05T15:57:11Z</time>
      </trkpt>
      <trkpt lat="42.57232" lon="-2.65627">
        <ele>616.8842</ele>
        <time>2021-07-05T15:57:22Z</time>
      </trkpt>
      <trkpt lat="42.57149" lon="-2.65961">
        <ele>597.4386</ele>
        <time>2021-07-05T15:57:33Z</time>
      </trkpt>
      <trkpt lat="42.57183" lon="-2.66338">
        <ele>579.1028</ele>
        <time>2021-07-05T15:57:44Z</time>
      </trkpt>
      <trkpt lat="42.57088" lon="-2.66685">
        <ele>577.3463</ele>
        <time>2021-07-05T15:57:55Z</time>
      </trkpt>
      <trkpt lat="42.57014" lon="-2.67051">
        <ele>574.2542</ele>
        <time>2021-07-05T15:58:06Z</time>
      </trkpt>
      <trkpt lat="42.56951" lon="-2.67374">
        <ele>572.0018</ele>
        <time>2021-07-05T15:58:17Z</time>
      </trkpt>
      <trkpt lat="42.5695" lon="-2.67635">
        <ele>572.1287</ele>
        <time>2021-07-05T15:58:28Z</time>
      </trkpt>
      <trkpt lat="42.57" lon="-2.67879">
        <ele>579.4464</ele>
        <time>2021-07-05T15:58:39Z</time>
      </trkpt>
      <trkpt lat="42.56932" lon="-2.68093">
        <ele>581.4744</ele>
        <time>2021-07-05T15:58:50Z</time>
      </trkpt>
      <trkpt lat="42.56784" lon="-2.68256">
        <ele>571.6396</ele>
        <time>2021-07-05T15:59:01Z</time>
      </trkpt>
      <trkpt lat="42.56692" lon="-2.68472">
        <ele>579.6925</ele>
        <time>2021-07-05T15:59:12Z</time>
      </trkpt>
      <trkpt lat="42.56652" lon="-2.68725">
        <ele>581.4425</ele>
        <time>2021-07-05T15:59:23Z</time>
      </trkpt>
      <trkpt lat="42.56706" lon="-2.69025">
        <ele>577.6393</ele>
        <time>2021-07-05T15:59:34Z</time>
      </trkpt>
      <trkpt lat="42.56686" lon="-2.69369">
        <ele>593.2778</ele>
        <time>2021-07-05T15:59:45Z</time>
      </trkpt>
      <trkpt lat="42.56622" lon="-2.69748">
        <ele>609.5721</ele>
        <time>2021-07-05T15:59:56Z</time>
      </trkpt>
      <trkpt lat="42.568" lon="-2.70005">
        <ele>609.2395</ele>
        <time>2021-07-05T16:00:07Z</time>
      </trkpt>
      <trkpt lat="42.56997" lon="-2.70234">
        <ele>601.1125</ele>
        <time>2021-07-05T16:00:18Z</time>
      </trkpt>
      <trkpt lat="42.57146" lon="-2.70519">
        <ele>596.6891</ele>
        <time>2021-07-05T16:00:29Z</time>
      </trkpt>
      <trkpt lat="42.57179" lon="-2.70743">
        <ele>592.495</ele>
        <time>2021-07-05T16:00:40Z</time>
      </trkpt>
      <trkpt lat="42.57155" lon="-2.70846">
        <ele>593.6546</ele>
        <time>2021-07-05T16:00:51Z</time>
      </trkpt>
      <trkpt lat="42.57106" lon="-2.7103">
        <ele>586.065</ele>
        <time>2021-07-05T16:01:02Z</time>
      </trkpt>
      <trkpt lat="42.57056" lon="-2.71212">
        <ele>578.0565</ele>
        <time>2021-07-05T16:01:13Z</time>
      </trkpt>
      <trkpt lat="42.57086" lon="-2.71411">
        <ele>565.3007</ele>
        <time>2021-07-05T16:01:24Z</time>
      </trkpt>
      <trkpt lat="42.56979" lon="-2.7164">
        <ele>559.2265</ele>
        <time>2021-07-05T16:01:35Z</time>
      </trkpt>
      <trkpt lat="42.56953" lon="-2.7198">
        <ele>546.9621</ele>
        <time>2021-07-05T16:01:46Z</time>
      </trkpt>
      <trkpt lat="42.56896" lon="-2.72358">
        <ele>532.5251</ele>
        <time>2021-07-05T16:01:57Z</time>
      </trkpt>
      <trkpt lat="42.56838" lon="-2.72695">
        <ele>535.3373</ele>
        <time>2021-07-05T16:02:08Z</time>
      </trkpt>
      <trkpt lat="42.56682" lon="-2.72974">
        <ele>546.4348</ele>
        <time>2021-07-05T16:02:19Z</time>
      </trkpt>
      <trkpt lat="42.56631" lon="-2.73325">
        <ele>545.7563</ele>
        <time>2021-07-05T16:02:30Z</time>
      </trkpt>
      <trkpt lat="42.5666" lon="-2.73678">
        <ele>542.0262</ele>
        <time>2021-07-05T16:02:41Z</time>
      </trkpt>
      <trkpt lat="42.5664" lon="-2.74025">
        <ele>533.1824</ele>
        <time>2021-07-05T16:02:52Z</time>
      </trkpt>
      <trkpt lat="42.56631" lon="-2.7437">
        <ele>520.1591</ele>
        <time>2021-07-05T16:03:03Z</time>
      </trkpt>
      <trkpt lat="42.56727" lon="-2.74668">
        <ele>504.5342</ele>
        <time>2021-07-05T16:03:14Z</time>
      </trkpt>
      <trkpt lat="42.56785" lon="-2.74817">
        <ele>498.9686</ele>
        <time>2021-07-05T16:03:25Z</time>
      </trkpt>
      <trkpt lat="42.56664" lon="-2.74995">
        <ele>497.6502</ele>
        <time>2021-07-05T16:03:36Z</time>
      </trkpt>
      <trkpt lat="42.56563" lon="-2.75172">
        <ele>500.4595</ele>
        <time>2021-07-05T16:03:47Z</time>
      </trkpt>
      <trkpt lat="42.56512" lon="-2.75348">
        <ele>487.6216</ele>
        <time>2021-07-05T16:03:58Z</time>
      </trkpt>
      <trkpt lat="42.56416" lon="-2.75497">
        <ele>475.4946</ele>
        <time>2021-07-05T16:04:09Z</time>
      </trkpt>
      <trkpt lat="42.56397" lon="-2.75609">
        <ele>483.3335</ele>
        <time>2021-07-05T16:04:20Z</time>
      </trkpt>
      <trkpt lat="42.56346" lon="-2.75712">
        <ele>491.8093</ele>
        <time>2021-07-05T16:04:31Z</time>
      </trkpt>
      <trkpt lat="42.5631" lon="-2.75762">
        <ele>499.3746</ele>
        <time>2021-07-05T16:04:42Z</time>
      </trkpt>
      <trkpt lat="42.56291" lon="-2.75862">
        <ele>506.7392</ele>
        <time>2021-07-05T16:04:53Z</time>
      </trkpt>
      <trkpt lat="42.56345" lon="-2.75896">
        <ele>497.7895</ele>
        <time>2021-07-05T16:05:04Z</time>
      </trkpt>
      <trkpt lat="42.56348" lon="-2.75971">
        <ele>498.2781</ele>
        <time>2021-07-05T16:05:15Z</time>
      </trkpt>
      <trkpt lat="42.56379" lon="-2.7609">
        <ele>491.9369</ele>
        <time>2021-07-05T16:05:26Z</time>
      </trkpt>
      <trkpt lat="42.56408" lon="-2.7622">
        <ele>484.272</ele>
        <time>2021-07-05T16:05:37Z</time>
      </trkpt>
      <trkpt lat="42.56378" lon="-2.76143">
        <ele>476.4387</ele>
        <time>2021-07-05T16:05:48Z</time>
      </trkpt>
      <trkpt lat="42.56397" lon="-2.76261">
        <ele>464.6253</ele>
        <time>2021-07-05T16:05:59Z</time>
      </trkpt>
      <trkpt lat="42.56329" lon="-2.762">
        <ele>459.0029</ele>
        <time>2021-07-05T16:06:10Z</time>
      </trkpt>
      <trkpt lat="42.56149" lon="-2.76045">
        <ele>443.2376</ele>
        <time>2021-07-05T16:06:21Z</time>
      </trkpt>
      <trkpt lat="42.55945" lon="-2.75959">
        <ele>433.2583</ele>
        <time>2021-07-05T16:06:32Z</time>
      </trkpt>
      <trkpt lat="42.55731" lon="-2.76103">
        <ele>437.3287</ele>
        <time>2021-07-05T16:06:43Z</time>
      </trkpt>
      <trkpt lat="42.5556" lon="-2.76304">
        <ele>446.6218</ele>
        <time>2021-07-05T16:06:54Z</time>
      </trkpt>
      <trkpt lat="42.55386" lon="-2.76584">
        <ele>457.8392</ele>
        <time>2021-07-05T16:07:05Z</time>
      </trkpt>
      <trkpt lat="42.5521" lon="-2.76868">
        <ele>468.5058</ele>
        <time>2021-07-05T16:07:16Z</time>
      </trkpt>
      <trkpt lat="42.55042" lon="-2.77126">
        <ele>470.6366</ele>
        <time>2021-07-05T16:07:27Z</time>
      </trkpt>
      <trkpt lat="42.54882" lon="-2.77383">
        <ele>467.6514</ele>
        <time>2021-07-05T16:07:38Z</time>
      </trkpt>
      <trkpt lat="42.54688" lon="-2.77595">
        <ele>456.1164</ele>
        <time>2021-07-05T16:07:49Z</time>
      </trkpt>
      <trkpt lat="42.54627" lon="-2.77911">
        <ele>447.9666</ele>
        <time>2021-07-05T16:08:00Z</time>
      </trkpt>
      <trkpt lat="42.54585" lon="-2.7815">
        <ele>452.8369</ele>
        <time>2021-07-05T16:08:11Z</time>
      </trkpt>
      <trkpt lat="42.54511" lon="-2.78074">
        <ele>454.6907</ele>
        <time>2021-07-05T16:08:22Z</time>
      </trkpt>
      <trkpt lat="42.54408" lon="-2.78051">
        <ele>453.3188</ele>
        <time>2021-07-05T16:08:33Z</time>
      </trkpt>
      <trkpt lat="42.54255" lon="-2.78111">
        <ele>457.0393</ele>
        <time>2021-07-05T16:08:44Z</time>
      </trkpt>
      <trkpt lat="42.5412" lon="-2.78166">
        <ele>460.5767</ele>
        <time>2021-07-05T16:08:55Z</time>
      </trkpt>
      <trkpt lat="42.54057" lon="-2.78245">
        <ele>460.9458</ele>
        <time>2021-07-05T16:09:06Z</time>
      </trkpt>
      <trkpt lat="42.54057" lon="-2.78263">
        <ele>462.3147</ele>
        <time>2021-07-05T16:09:17Z</time>
      </trkpt>
      <trkpt lat="42.54125" lon="-2.78457">
        <ele>472.0501</ele>
        <time>2021-07-05T16:09:28Z</time>
      </trkpt>
      <trkpt lat="42.54185" lon="-2.78743">
        <ele>483.4895</ele>
        <time>2021-07-05T16:09:39Z</time>
      </trkpt>
      <trkpt lat="42.54302" lon="-2.79006">
        <ele>481.0736</ele>
        <time>2021-07-05T16:09:50Z</time>
      </trkpt>
      <trkpt lat="42.54441" lon="-2.79294">
        <ele>460.7673</ele>
        <time>2021-07-05T16:10:01Z</time>
      </trkpt>
      <trkpt lat="42.54588" lon="-2.79622">
        <ele>451.9662</ele>
        <time>2021-07-05T16:10:12Z</time>
      </trkpt>
      <trkpt lat="42.54731" lon="-2.79941">
        <ele>466.0808</ele>
        <time>2021-07-05T16:10:23Z</time>
      </trkpt>
      <trkpt lat="42.54822" lon="-2.80297">
        <ele>468.8588</ele>
        <time>2021-07-05T16:10:34Z</time>
      </trkpt>
      <trkpt lat="42.54886" lon="-2.80676">
        <ele>478.0653</ele>
        <time>2021-07-05T16:10:45Z</time>
      </trkpt>
      <trkpt lat="42.54911" lon="-2.8106">
        <ele>485.4326</ele>
        <time>2021-07-05T16:10:56Z</time>
      </trkpt>
      <trkpt lat="42.54898" lon="-2.81459">
        <ele>484.2964</ele>
        <time>2021-07-05T16:11:07Z</time>
      </trkpt>
      <trkpt lat="42.54837" lon="-2.81839">
        <ele>485.4884</ele>
        <time>2021-07-05T16:11:18Z</time>
      </trkpt>
      <trkpt lat="42.5472" lon="-2.82152">
        <ele>482.428</ele>
        <time>2021-07-05T16:11:29Z</time>
      </trkpt>
      <trkpt lat="42.54737" lon="-2.82476">
        <ele>476.0617</ele>
        <time>2021-07-05T16:11:40Z</time>
      </trkpt>
      <trkpt lat="42.54796" lon="-2.82745">
        <ele>484.0818</ele>
        <time>2021-07-05T16:11:51Z</time>
      </trkpt>
      <trkpt lat="42.54809" lon="-2.82808">
        <ele>485.9183</ele>
        <time>2021-07-05T16:12:02Z</time>
      </trkpt>
      <trkpt lat="42.54809" lon="-2.82807">
        <ele>487.4935</ele>
        <time>2021-07-05T16:13:01Z</time>
      </trkpt>
      <trkpt lat="42.54827" lon="-2.82909">
        <ele>491.2446</ele>
        <time>2021-07-05T16:13:12Z</time>
      </trkpt>
      <trkpt lat="42.54888" lon="-2.83128">
        <ele>497.7549</ele>
        <time>2021-07-05T16:13:23Z</time>
      </trkpt>
      <trkpt lat="42.54814" lon="-2.83229">
        <ele>497.4529</ele>
        <time>2021-07-05T16:13:34Z</time>
      </trkpt>
      <trkpt lat="42.54691" lon="-2.83459">
        <ele>497.9401</ele>
        <time>2021-07-05T16:13:45Z</time>
      </trkpt>
      <trkpt lat="42.5463" lon="-2.83789">
        <ele>500.194</ele>
        <time>2021-07-05T16:13:56Z</time>
      </trkpt>
      <trkpt lat="42.54565" lon="-2.84145">
        <ele>498.1855</ele>
        <time>2021-07-05T16:14:07Z</time>
      </trkpt>
      <trkpt lat="42.54499" lon="-2.845">
        <ele>499.2778</ele>
        <time>2021-07-05T16:14:18Z</time>
      </trkpt>
      <trkpt lat="42.5443" lon="-2.84852">
        <ele>513.3222</ele>
        <time>2021-07-05T16:14:29Z</time>
      </trkpt>
      <trkpt lat="42.54389" lon="-2.85205">
        <ele>531.7616</ele>
        <time>2021-07-05T16:14:40Z</time>
      </trkpt>
      <trkpt lat="42.54348" lon="-2.85592">
        <ele>537.4688</ele>
        <time>2021-07-05T16:14:51Z</time>
      </trkpt>
      <trkpt lat="42.54352" lon="-2.85975">
        <ele>539.7055</ele>
        <time>2021-07-05T16:15:02Z</time>
      </trkpt>
      <trkpt lat="42.54357" lon="-2.86355">
        <ele>541.2965</ele>
        <time>2021-07-05T16:15:13Z</time>
      </trkpt>
      <trkpt lat="42.5436" lon="-2.867">
        <ele>546.6689</ele>
        <time>2021-07-05T16:15:24Z</time>
      </trkpt>
      <trkpt lat="42.54364" lon="-2.87071">
        <ele>547.9199</ele>
        <time>2021-07-05T16:15:35Z</time>
      </trkpt>
      <trkpt lat="42.54366" lon="-2.87425">
        <ele>549.5295</ele>
        <time>2021-07-05T16:15:46Z</time>
      </trkpt>
      <trkpt lat="42.54369" lon="-2.87768">
        <ele>547.1015</ele>
        <time>2021-07-05T16:15:57Z</time>
      </trkpt>
      <trkpt lat="42.54384" lon="-2.88114">
        <ele>540.502</ele>
        <time>2021-07-05T16:16:08Z</time>
      </trkpt>
      <trkpt lat="42.54454" lon="-2.88442">
        <ele>530.9835</ele>
        <time>2021-07-05T16:16:19Z</time>
      </trkpt>
      <trkpt lat="42.54575" lon="-2.88732">
        <ele>521.7971</ele>
        <time>2021-07-05T16:16:30Z</time>
      </trkpt>
      <trkpt lat="42.54752" lon="-2.88992">
        <ele>512.4088</ele>
        <time>2021-07-05T16:16:41Z</time>
      </trkpt>
      <trkpt lat="42.54943" lon="-2.89205">
        <ele>504.2828</ele>
        <time>2021-07-05T16:16:52Z</time>
      </trkpt>
      <trkpt lat="42.55136" lon="-2.89416">
        <ele>501.2059</ele>
        <time>2021-07-05T16:17:03Z</time>
      </trkpt>
      <trkpt lat="42.55323" lon="-2.89608">
        <ele>499.6678</ele>
        <time>2021-07-05T16:17:14Z</time>
      </trkpt>
      <trkpt lat="42.5548" lon="-2.89705">
        <ele>491.4185</ele>
        <time>2021-07-05T16:17:25Z</time>
      </trkpt>
      <trkpt lat="42.55521" lon="-2.89855">
        <ele>494.645</ele>
        <time>2021-07-05T16:17:36Z</time>
      </trkpt>
      <trkpt lat="42.55393" lon="-2.89976">
        <ele>496.2917</ele>
        <time>2021-07-05T16:17:47Z</time>
      </trkpt>
      <trkpt lat="42.55272" lon="-2.90166">
        <ele>498.5373</ele>
        <time>2021-07-05T16:17:58Z</time>
      </trkpt>
      <trkpt lat="42.55131" lon="-2.90292">
        <ele>500.2686</ele>
        <time>2021-07-05T16:18:09Z</time>
      </trkpt>
      <trkpt lat="42.55008" lon="-2.90387">
        <ele>501.1864</ele>
        <time>2021-07-05T16:18:20Z</time>
      </trkpt>
      <trkpt lat="42.54835" lon="-2.90391">
        <ele>501.3579</ele>
        <time>2021-07-05T16:18:31Z</time>
      </trkpt>
      <trkpt lat="42.54658" lon="-2.9041">
        <ele>502.8821</ele>
        <time>2021-07-05T16:18:42Z</time>
      </trkpt>
      <trkpt lat="42.54509" lon="-2.90464">
        <ele>504.1996</ele>
        <time>2021-07-05T16:18:53Z</time>
      </trkpt>
      <trkpt lat="42.54367" lon="-2.90567">
        <ele>505.5341</ele>
        <time>2021-07-05T16:19:04Z</time>
      </trkpt>
      <trkpt lat="42.54265" lon="-2.90682">
        <ele>507.7339</ele>
        <time>2021-07-05T16:19:15Z</time>
      </trkpt>
      <trkpt lat="42.54166" lon="-2.90851">
        <ele>507.9864</ele>
        <time>2021-07-05T16:19:26Z</time>
      </trkpt>
      <trkpt lat="42.54059" lon="-2.91083">
        <ele>505.5004</ele>
        <time>2021-07-05T16:19:37Z</time>
      </trkpt>
      <trkpt lat="42.5394" lon="-2.91322">
        <ele>505.4165</ele>
        <time>2021-07-05T16:19:48Z</time>
      </trkpt>
      <trkpt lat="42.5378" lon="-2.9153">
        <ele>512.0743</ele>
        <time>2021-07-05T16:19:59Z</time>
      </trkpt>
      <trkpt lat="42.53593" lon="-2.91645">
        <ele>516.535</ele>
        <time>2021-07-05T16:20:10Z</time>
      </trkpt>
      <trkpt lat="42.53377" lon="-2.91693">
        <ele>515.4835</ele>
        <time>2021-07-05T16:20:21Z</time>
      </trkpt>
      <trkpt lat="42.5313" lon="-2.91739">
        <ele>512.7834</ele>
        <time>2021-07-05T16:20:32Z</time>
      </trkpt>
      <trkpt lat="42.5287" lon="-2.91788">
        <ele>516.5706</ele>
        <time>2021-07-05T16:20:43Z</time>
      </trkpt>
      <trkpt lat="42.52592" lon="-2.91839">
        <ele>519.8811</ele>
        <time>2021-07-05T16:20:54Z</time>
      </trkpt>
      <trkpt lat="42.52331" lon="-2.91887">
        <ele>524.1911</ele>
        <time>2021-07-05T16:21:05Z</time>
      </trkpt>
      <trkpt lat="42.5209" lon="-2.91919">
        <ele>526.4294</ele>
        <time>2021-07-05T16:21:16Z</time>
      </trkpt>
      <trkpt lat="42.51815" lon="-2.91926">
        <ele>529.2425</ele>
        <time>2021-07-05T16:21:27Z</time>
      </trkpt>
      <trkpt lat="42.51539" lon="-2.91902">
        <ele>531.8846</ele>
        <time>2021-07-05T16:21:38Z</time>
      </trkpt>
      <trkpt lat="42.51265" lon="-2.91869">
        <ele>539.3037</ele>
        <time>2021-07-05T16:21:49Z</time>
      </trkpt>
      <trkpt lat="42.50993" lon="-2.91887">
        <ele>545.6756</ele>
        <time>2021-07-05T16:22:00Z</time>
      </trkpt>
      <trkpt lat="42.50737" lon="-2.91986">
        <ele>545.1828</ele>
        <time>2021-07-05T16:22:11Z</time>
      </trkpt>
      <trkpt lat="42.50507" lon="-2.92153">
        <ele>544.8515</ele>
        <time>2021-07-05T16:22:22Z</time>
      </trkpt>
      <trkpt lat="42.5031" lon="-2.92382">
        <ele>547.1322</ele>
        <time>2021-07-05T16:22:33Z</time>
      </trkpt>
      <trkpt lat="42.50145" lon="-2.92639">
        <ele>548.7234</ele>
        <time>2021-07-05T16:22:44Z</time>
      </trkpt>
      <trkpt lat="42.49984" lon="-2.92897">
        <ele>553.3526</ele>
        <time>2021-07-05T16:22:55Z</time>
      </trkpt>
      <trkpt lat="42.49822" lon="-2.93154">
        <ele>554.8579</ele>
        <time>2021-07-05T16:23:06Z</time>
      </trkpt>
      <trkpt lat="42.49668" lon="-2.93399">
        <ele>559.4746</ele>
        <time>2021-07-05T16:23:17Z</time>
      </trkpt>
      <trkpt lat="42.49495" lon="-2.93611">
        <ele>562.7764</ele>
        <time>2021-07-05T16:23:28Z</time>
      </trkpt>
      <trkpt lat="42.49301" lon="-2.93769">
        <ele>569.2019</ele>
        <time>2021-07-05T16:23:39Z</time>
      </trkpt>
      <trkpt lat="42.49124" lon="-2.93874">
        <ele>571.8473</ele>
        <time>2021-07-05T16:23:50Z</time>
      </trkpt>
      <trkpt lat="42.49025" lon="-2.93948">
        <ele>568.804</ele>
        <time>2021-07-05T16:24:01Z</time>
      </trkpt>
      <trkpt lat="42.48994" lon="-2.94021">
        <ele>570.3226</ele>
        <time>2021-07-05T16:24:12Z</time>
      </trkpt>
      <trkpt lat="42.48952" lon="-2.94184">
        <ele>572.2181</ele>
        <time>2021-07-05T16:24:23Z</time>
      </trkpt>
      <trkpt lat="42.48934" lon="-2.94425">
        <ele>572.4793</ele>
        <time>2021-07-05T16:24:34Z</time>
      </trkpt>
      <trkpt lat="42.4889" lon="-2.94684">
        <ele>572.6023</ele>
        <time>2021-07-05T16:24:45Z</time>
      </trkpt>
      <trkpt lat="42.48887" lon="-2.94943">
        <ele>572.1087</ele>
        <time>2021-07-05T16:24:56Z</time>
      </trkpt>
      <trkpt lat="42.4896" lon="-2.95224">
        <ele>572.2018</ele>
        <time>2021-07-05T16:25:07Z</time>
      </trkpt>
      <trkpt lat="42.49065" lon="-2.95484">
        <ele>569.7319</ele>
        <time>2021-07-05T16:25:18Z</time>
      </trkpt>
      <trkpt lat="42.49209" lon="-2.95728">
        <ele>571.428</ele>
        <time>2021-07-05T16:25:29Z</time>
      </trkpt>
      <trkpt lat="42.49278" lon="-2.95878">
        <ele>573.3003</ele>
        <time>2021-07-05T16:25:40Z</time>
      </trkpt>
      <trkpt lat="42.4921" lon="-2.95976">
        <ele>575.6622</ele>
        <time>2021-07-05T16:25:51Z</time>
      </trkpt>
      <trkpt lat="42.4918" lon="-2.9612">
        <ele>578.6352</ele>
        <time>2021-07-05T16:26:02Z</time>
      </trkpt>
      <trkpt lat="42.49136" lon="-2.96275">
        <ele>584.0867</ele>
        <time>2021-07-05T16:26:13Z</time>
      </trkpt>
      <trkpt lat="42.49081" lon="-2.96389">
        <ele>580.823</ele>
        <time>2021-07-05T16:26:24Z</time>
      </trkpt>
      <trkpt lat="42.4903" lon="-2.96521">
        <ele>579.8659</ele>
        <time>2021-07-05T16:26:35Z</time>
      </trkpt>
      <trkpt lat="42.48984" lon="-2.96708">
        <ele>582.6471</ele>
        <time>2021-07-05T16:26:46Z</time>
      </trkpt>
      <trkpt lat="42.4892" lon="-2.96904">
        <ele>577.3374</ele>
        <time>2021-07-05T16:26:57Z</time>
      </trkpt>
      <trkpt lat="42.48752" lon="-2.97121">
        <ele>580.4925</ele>
        <time>2021-07-05T16:27:08Z</time>
      </trkpt>
      <trkpt lat="42.4862" lon="-2.97409">
        <ele>582.9526</ele>
        <time>2021-07-05T16:27:19Z</time>
      </trkpt>
      <trkpt lat="42.48499" lon="-2.97694">
        <ele>576.2262</ele>
        <time>2021-07-05T16:27:30Z</time>
      </trkpt>
      <trkpt lat="42.48374" lon="-2.97945">
        <ele>575.5629</ele>
        <time>2021-07-05T16:27:41Z</time>
      </trkpt>
      <trkpt lat="42.48223" lon="-2.98122">
        <ele>572.8973</ele>
        <time>2021-07-05T16:27:52Z</time>
      </trkpt>
      <trkpt lat="42.48116" lon="-2.9838">
        <ele>577.5166</ele>
        <time>2021-07-05T16:28:03Z</time>
      </trkpt>
      <trkpt lat="42.48017" lon="-2.98647">
        <ele>583.2098</ele>
        <time>2021-07-05T16:28:14Z</time>
      </trkpt>
      <trkpt lat="42.479" lon="-2.98905">
        <ele>586.185</ele>
        <time>2021-07-05T16:28:25Z</time>
      </trkpt>
      <trkpt lat="42.47769" lon="-2.99114">
        <ele>589.4951</ele>
        <time>2021-07-05T16:28:36Z</time>
      </trkpt>
      <trkpt lat="42.47677" lon="-2.99305">
        <ele>596.3304</ele>
        <time>2021-07-05T16:28:47Z</time>
      </trkpt>
      <trkpt lat="42.47666" lon="-2.99339">
        <ele>606.2161</ele>
        <time>2021-07-05T16:28:58Z</time>
      </trkpt>
      <trkpt lat="42.47665" lon="-2.99338">
        <ele>597.9133</ele>
        <time>2021-07-05T16:29:57Z</time>
      </trkpt>
      <trkpt lat="42.47659" lon="-2.99348">
        <ele>596.8386</ele>
        <time>2021-07-05T16:30:40Z</time>
      </trkpt>
      <trkpt lat="42.47551" lon="-2.99519">
        <ele>598.1483</ele>
        <time>2021-07-05T16:30:51Z</time>
      </trkpt>
      <trkpt lat="42.47432" lon="-2.99712">
        <ele>600.2751</ele>
        <time>2021-07-05T16:31:02Z</time>
      </trkpt>
      <trkpt lat="42.4735" lon="-2.99865">
        <ele>602.6722</ele>
        <time>2021-07-05T16:31:13Z</time>
      </trkpt>
      <trkpt lat="42.47235" lon="-3.00063">
        <ele>604.9407</ele>
        <time>2021-07-05T16:31:24Z</time>
      </trkpt>
      <trkpt lat="42.47108" lon="-3.003">
        <ele>602.695</ele>
        <time>2021-07-05T16:31:35Z</time>
      </trkpt>
      <trkpt lat="42.4699" lon="-3.00546">
        <ele>600.972</ele>
        <time>2021-07-05T16:31:46Z</time>
      </trkpt>
      <trkpt lat="42.46881" lon="-3.00797">
        <ele>612.3195</ele>
        <time>2021-07-05T16:31:57Z</time>
      </trkpt>
      <trkpt lat="42.46807" lon="-3.01067">
        <ele>626.8704</ele>
        <time>2021-07-05T16:32:08Z</time>
      </trkpt>
      <trkpt lat="42.46718" lon="-3.01269">
        <ele>641.5425</ele>
        <time>2021-07-05T16:32:19Z</time>
      </trkpt>
      <trkpt lat="42.4671" lon="-3.01561">
        <ele>651.8237</ele>
        <time>2021-07-05T16:32:30Z</time>
      </trkpt>
      <trkpt lat="42.46675" lon="-3.0183">
        <ele>656.7574</ele>
        <time>2021-07-05T16:32:41Z</time>
      </trkpt>
      <trkpt lat="42.46578" lon="-3.02024">
        <ele>656.3663</ele>
        <time>2021-07-05T16:32:52Z</time>
      </trkpt>
      <trkpt lat="42.46469" lon="-3.02131">
        <ele>657.1389</ele>
        <time>2021-07-05T16:33:03Z</time>
      </trkpt>
      <trkpt lat="42.46266" lon="-3.02215">
        <ele>661.1655</ele>
        <time>2021-07-05T16:33:14Z</time>
      </trkpt>
      <trkpt lat="42.46043" lon="-3.02355">
        <ele>668.4942</ele>
        <time>2021-07-05T16:33:25Z</time>
      </trkpt>
      <trkpt lat="42.45854" lon="-3.02414">
        <ele>672.2714</ele>
        <time>2021-07-05T16:33:36Z</time>
      </trkpt>
      <trkpt lat="42.45715" lon="-3.02534">
        <ele>678.6159</ele>
        <time>2021-07-05T16:33:47Z</time>
      </trkpt>
      <trkpt lat="42.45724" lon="-3.0269">
        <ele>681.1173</ele>
        <time>2021-07-05T16:33:58Z</time>
      </trkpt>
      <trkpt lat="42.45709" lon="-3.0296">
        <ele>675.0849</ele>
        <time>2021-07-05T16:34:09Z</time>
      </trkpt>
      <trkpt lat="42.45625" lon="-3.03299">
        <ele>673.8716</ele>
        <time>2021-07-05T16:34:20Z</time>
      </trkpt>
      <trkpt lat="42.45499" lon="-3.03614">
        <ele>677.5372</ele>
        <time>2021-07-05T16:34:31Z</time>
      </trkpt>
      <trkpt lat="42.45331" lon="-3.03906">
        <ele>680.8308</ele>
        <time>2021-07-05T16:34:42Z</time>
      </trkpt>
      <trkpt lat="42.45177" lon="-3.04175">
        <ele>684.8175</ele>
        <time>2021-07-05T16:34:53Z</time>
      </trkpt>
      <trkpt lat="42.45008" lon="-3.04468">
        <ele>688.7373</ele>
        <time>2021-07-05T16:35:04Z</time>
      </trkpt>
      <trkpt lat="42.44839" lon="-3.04758">
        <ele>694.5243</ele>
        <time>2021-07-05T16:35:15Z</time>
      </trkpt>
      <trkpt lat="42.44653" lon="-3.05022">
        <ele>699.7165</ele>
        <time>2021-07-05T16:35:26Z</time>
      </trkpt>
      <trkpt lat="42.44447" lon="-3.05299">
        <ele>706.0779</ele>
        <time>2021-07-05T16:35:37Z</time>
      </trkpt>
      <trkpt lat="42.4425" lon="-3.05562">
        <ele>712.9344</ele>
        <time>2021-07-05T16:35:48Z</time>
      </trkpt>
      <trkpt lat="42.44066" lon="-3.05847">
        <ele>720.4566</ele>
        <time>2021-07-05T16:35:59Z</time>
      </trkpt>
      <trkpt lat="42.43939" lon="-3.06136">
        <ele>725.5285</ele>
        <time>2021-07-05T16:36:10Z</time>
      </trkpt>
      <trkpt lat="42.43855" lon="-3.0633">
        <ele>728.9014</ele>
        <time>2021-07-05T16:36:21Z</time>
      </trkpt>
      <trkpt lat="42.43762" lon="-3.06528">
        <ele>737.1147</ele>
        <time>2021-07-05T16:36:32Z</time>
      </trkpt>
      <trkpt lat="42.43729" lon="-3.06746">
        <ele>741.7132</ele>
        <time>2021-07-05T16:36:43Z</time>
      </trkpt>
      <trkpt lat="42.43727" lon="-3.07058">
        <ele>746.34</ele>
        <time>2021-07-05T16:36:54Z</time>
      </trkpt>
      <trkpt lat="42.43743" lon="-3.07437">
        <ele>756.0211</ele>
        <time>2021-07-05T16:37:05Z</time>
      </trkpt>
      <trkpt lat="42.43767" lon="-3.07814">
        <ele>753.9754</ele>
        <time>2021-07-05T16:37:16Z</time>
      </trkpt>
      <trkpt lat="42.43791" lon="-3.08167">
        <ele>764.0275</ele>
        <time>2021-07-05T16:37:27Z</time>
      </trkpt>
      <trkpt lat="42.43801" lon="-3.08441">
        <ele>764.4911</ele>
        <time>2021-07-05T16:37:38Z</time>
      </trkpt>
      <trkpt lat="42.43731" lon="-3.08639">
        <ele>758.3147</ele>
        <time>2021-07-05T16:37:49Z</time>
      </trkpt>
      <trkpt lat="42.43565" lon="-3.08819">
        <ele>751.1128</ele>
        <time>2021-07-05T16:38:01Z</time>
      </trkpt>
      <trkpt lat="42.43469" lon="-3.09129">
        <ele>752.7306</ele>
        <time>2021-07-05T16:38:12Z</time>
      </trkpt>
      <trkpt lat="42.43393" lon="-3.09428">
        <ele>763.8174</ele>
        <time>2021-07-05T16:38:23Z</time>
      </trkpt>
      <trkpt lat="42.4332" lon="-3.09738">
        <ele>756.9338</ele>
        <time>2021-07-05T16:38:34Z</time>
      </trkpt>
      <trkpt lat="42.43246" lon="-3.10073">
        <ele>747.0802</ele>
        <time>2021-07-05T16:38:45Z</time>
      </trkpt>
      <trkpt lat="42.4321" lon="-3.1046">
        <ele>742.03</ele>
        <time>2021-07-05T16:38:56Z</time>
      </trkpt>
      <trkpt lat="42.43176" lon="-3.10853">
        <ele>743.8327</ele>
        <time>2021-07-05T16:39:07Z</time>
      </trkpt>
      <trkpt lat="42.43143" lon="-3.11229">
        <ele>755.4075</ele>
        <time>2021-07-05T16:39:18Z</time>
      </trkpt>
      <trkpt lat="42.43112" lon="-3.11591">
        <ele>765.969</ele>
        <time>2021-07-05T16:39:29Z</time>
      </trkpt>
      <trkpt lat="42.43081" lon="-3.11959">
        <ele>776.5922</ele>
        <time>2021-07-05T16:39:40Z</time>
      </trkpt>
      <trkpt lat="42.43059" lon="-3.12315">
        <ele>782.2075</ele>
        <time>2021-07-05T16:39:51Z</time>
      </trkpt>
      <trkpt lat="42.43107" lon="-3.12673">
        <ele>777.547</ele>
        <time>2021-07-05T16:40:02Z</time>
      </trkpt>
      <trkpt lat="42.43108" lon="-3.12986">
        <ele>787.4251</ele>
        <time>2021-07-05T16:40:13Z</time>
      </trkpt>
      <trkpt lat="42.42988" lon="-3.13205">
        <ele>783.9445</ele>
        <time>2021-07-05T16:40:24Z</time>
      </trkpt>
      <trkpt lat="42.42873" lon="-3.13432">
        <ele>776.2843</ele>
        <time>2021-07-05T16:40:35Z</time>
      </trkpt>
      <trkpt lat="42.428" lon="-3.13651">
        <ele>781.1173</ele>
        <time>2021-07-05T16:40:46Z</time>
      </trkpt>
      <trkpt lat="42.42724" lon="-3.13882">
        <ele>784.0278</ele>
        <time>2021-07-05T16:40:57Z</time>
      </trkpt>
      <trkpt lat="42.42625" lon="-3.14187">
        <ele>785.8655</ele>
        <time>2021-07-05T16:41:08Z</time>
      </trkpt>
      <trkpt lat="42.42514" lon="-3.14523">
        <ele>795.1497</ele>
        <time>2021-07-05T16:41:19Z</time>
      </trkpt>
      <trkpt lat="42.42413" lon="-3.14833">
        <ele>801.9775</ele>
        <time>2021-07-05T16:41:30Z</time>
      </trkpt>
      <trkpt lat="42.42326" lon="-3.15099">
        <ele>806.3451</ele>
        <time>2021-07-05T16:41:41Z</time>
      </trkpt>
      <trkpt lat="42.42236" lon="-3.15375">
        <ele>811.9623</ele>
        <time>2021-07-05T16:41:52Z</time>
      </trkpt>
      <trkpt lat="42.42143" lon="-3.15657">
        <ele>817.4808</ele>
        <time>2021-07-05T16:42:03Z</time>
      </trkpt>
      <trkpt lat="42.42047" lon="-3.15971">
        <ele>819.9564</ele>
        <time>2021-07-05T16:42:14Z</time>
      </trkpt>
      <trkpt lat="42.41952" lon="-3.16299">
        <ele>821.8291</ele>
        <time>2021-07-05T16:42:25Z</time>
      </trkpt>
      <trkpt lat="42.41879" lon="-3.16617">
        <ele>820.7562</ele>
        <time>2021-07-05T16:42:36Z</time>
      </trkpt>
      <trkpt lat="42.41787" lon="-3.16991">
        <ele>815.3152</ele>
        <time>2021-07-05T16:42:47Z</time>
      </trkpt>
      <trkpt lat="42.41695" lon="-3.17351">
        <ele>808.812</ele>
        <time>2021-07-05T16:42:58Z</time>
      </trkpt>
      <trkpt lat="42.4161" lon="-3.17681">
        <ele>801.5691</ele>
        <time>2021-07-05T16:43:09Z</time>
      </trkpt>
      <trkpt lat="42.41606" lon="-3.17982">
        <ele>795.4773</ele>
        <time>2021-07-05T16:43:20Z</time>
      </trkpt>
      <trkpt lat="42.41664" lon="-3.18213">
        <ele>790.4338</ele>
        <time>2021-07-05T16:43:31Z</time>
      </trkpt>
      <trkpt lat="42.41727" lon="-3.18437">
        <ele>784.3629</ele>
        <time>2021-07-05T16:43:42Z</time>
      </trkpt>
      <trkpt lat="42.41784" lon="-3.1864">
        <ele>778.7392</ele>
        <time>2021-07-05T16:43:53Z</time>
      </trkpt>
      <trkpt lat="42.41837" lon="-3.18814">
        <ele>774.6286</ele>
        <time>2021-07-05T16:44:04Z</time>
      </trkpt>
      <trkpt lat="42.41911" lon="-3.18964">
        <ele>770.5622</ele>
        <time>2021-07-05T16:44:15Z</time>
      </trkpt>
      <trkpt lat="42.41923" lon="-3.19052">
        <ele>771.9478</ele>
        <time>2021-07-05T16:44:26Z</time>
      </trkpt>
      <trkpt lat="42.41925" lon="-3.19057">
        <ele>784.2351</ele>
        <time>2021-07-05T16:44:48Z</time>
      </trkpt>
      <trkpt lat="42.41902" lon="-3.19165">
        <ele>783.0494</ele>
        <time>2021-07-05T16:44:59Z</time>
      </trkpt>
      <trkpt lat="42.41871" lon="-3.19316">
        <ele>787.4032</ele>
        <time>2021-07-05T16:45:10Z</time>
      </trkpt>
      <trkpt lat="42.41838" lon="-3.19491">
        <ele>791.4423</ele>
        <time>2021-07-05T16:45:21Z</time>
      </trkpt>
      <trkpt lat="42.41806" lon="-3.19689">
        <ele>789.1742</ele>
        <time>2021-07-05T16:45:32Z</time>
      </trkpt>
      <trkpt lat="42.4177" lon="-3.19911">
        <ele>777.4316</ele>
        <time>2021-07-05T16:45:43Z</time>
      </trkpt>
      <trkpt lat="42.41777" lon="-3.20126">
        <ele>768.1995</ele>
        <time>2021-07-05T16:45:54Z</time>
      </trkpt>
      <trkpt lat="42.41847" lon="-3.20288">
        <ele>766.4536</ele>
        <time>2021-07-05T16:46:05Z</time>
      </trkpt>
      <trkpt lat="42.41842" lon="-3.2049">
        <ele>767.7039</ele>
        <time>2021-07-05T16:46:16Z</time>
      </trkpt>
      <trkpt lat="42.41763" lon="-3.20662">
        <ele>770.3137</ele>
        <time>2021-07-05T16:46:27Z</time>
      </trkpt>
      <trkpt lat="42.41692" lon="-3.20814">
        <ele>772.3361</ele>
        <time>2021-07-05T16:46:38Z</time>
      </trkpt>
      <trkpt lat="42.41664" lon="-3.20909">
        <ele>772.7746</ele>
        <time>2021-07-05T16:46:49Z</time>
      </trkpt>
      <trkpt lat="42.41709" lon="-3.20773">
        <ele>771.9734</ele>
        <time>2021-07-05T16:47:00Z</time>
      </trkpt>
      <trkpt lat="42.41735" lon="-3.20671">
        <ele>770.9119</ele>
        <time>2021-07-05T16:47:11Z</time>
      </trkpt>
      <trkpt lat="42.41736" lon="-3.20669">
        <ele>777.6847</ele>
        <time>2021-07-05T16:48:10Z</time>
      </trkpt>
      <trkpt lat="42.41735" lon="-3.2067">
        <ele>773.5637</ele>
        <time>2021-07-05T16:49:01Z</time>
      </trkpt>
      <trkpt lat="42.41734" lon="-3.20665">
        <ele>773.8057</ele>
        <time>2021-07-05T16:49:22Z</time>
      </trkpt>
      <trkpt lat="42.41736" lon="-3.20661">
        <ele>774.6227</ele>
        <time>2021-07-05T16:49:40Z</time>
      </trkpt>
      <trkpt lat="42.4174" lon="-3.20667">
        <ele>767.2894</ele>
        <time>2021-07-05T16:49:59Z</time>
      </trkpt>
      <trkpt lat="42.41739" lon="-3.20664">
        <ele>759.2643</ele>
        <time>2021-07-05T16:50:58Z</time>
      </trkpt>
      <trkpt lat="42.41735" lon="-3.20664">
        <ele>754.4389</ele>
        <time>2021-07-05T16:51:25Z</time>
      </trkpt>
      <trkpt lat="42.41738" lon="-3.20655">
        <ele>754.6034</ele>
        <time>2021-07-05T16:51:36Z</time>
      </trkpt>
      <trkpt lat="42.41741" lon="-3.20652">
        <ele>756.9025</ele>
        <time>2021-07-05T16:52:11Z</time>
      </trkpt>
      <trkpt lat="42.41744" lon="-3.20643">
        <ele>759.353</ele>
        <time>2021-07-05T16:52:22Z</time>
      </trkpt>
      <trkpt lat="42.41744" lon="-3.20647">
        <ele>765.2582</ele>
        <time>2021-07-05T16:53:22Z</time>
      </trkpt>
      <trkpt lat="42.41744" lon="-3.20646">
        <ele>766.9399</ele>
        <time>2021-07-05T16:54:22Z</time>
      </trkpt>
      <trkpt lat="42.41744" lon="-3.20646">
        <ele>766.9399</ele>
        <time>2021-07-05T16:55:22Z</time>
      </trkpt>
      <trkpt lat="42.41744" lon="-3.20646">
        <ele>766.9399</ele>
        <time>2021-07-05T16:56:22Z</time>
      </trkpt>
      <trkpt lat="42.41745" lon="-3.20644">
        <ele>769.0321</ele>
        <time>2021-07-05T16:57:22Z</time>
      </trkpt>
      <trkpt lat="42.41746" lon="-3.20645">
        <ele>768.0861</ele>
        <time>2021-07-05T16:58:22Z</time>
      </trkpt>
      <trkpt lat="42.41745" lon="-3.20645">
        <ele>769.3441</ele>
        <time>2021-07-05T16:59:22Z</time>
      </trkpt>
      <trkpt lat="42.41743" lon="-3.20641">
        <ele>769.8524</ele>
        <time>2021-07-05T16:59:59Z</time>
      </trkpt>
      <trkpt lat="42.41743" lon="-3.2064">
        <ele>769.7889</ele>
        <time>2021-07-05T17:00:59Z</time>
      </trkpt>
      <trkpt lat="42.41744" lon="-3.2064">
        <ele>774.2141</ele>
        <time>2021-07-05T17:01:59Z</time>
      </trkpt>
      <trkpt lat="42.41745" lon="-3.20642">
        <ele>769.8855</ele>
        <time>2021-07-05T17:02:59Z</time>
      </trkpt>
      <trkpt lat="42.41745" lon="-3.20644">
        <ele>769.7931</ele>
        <time>2021-07-05T17:03:58Z</time>
      </trkpt>
      <trkpt lat="42.41749" lon="-3.20645">
        <ele>769.519</ele>
        <time>2021-07-05T17:04:44Z</time>
      </trkpt>
      <trkpt lat="42.41759" lon="-3.20653">
        <ele>769.4075</ele>
        <time>2021-07-05T17:04:55Z</time>
      </trkpt>
      <trkpt lat="42.4176" lon="-3.2066">
        <ele>770.6397</ele>
        <time>2021-07-05T17:05:13Z</time>
      </trkpt>
      <trkpt lat="42.41703" lon="-3.20791">
        <ele>773.0812</ele>
        <time>2021-07-05T17:05:24Z</time>
      </trkpt>
      <trkpt lat="42.41689" lon="-3.20891">
        <ele>773.128</ele>
        <time>2021-07-05T17:05:35Z</time>
      </trkpt>
      <trkpt lat="42.41642" lon="-3.21024">
        <ele>775.8978</ele>
        <time>2021-07-05T17:05:46Z</time>
      </trkpt>
      <trkpt lat="42.41608" lon="-3.21201">
        <ele>778.3608</ele>
        <time>2021-07-05T17:05:57Z</time>
      </trkpt>
      <trkpt lat="42.41568" lon="-3.21406">
        <ele>779.5729</ele>
        <time>2021-07-05T17:06:08Z</time>
      </trkpt>
      <trkpt lat="42.41513" lon="-3.21685">
        <ele>782.6782</ele>
        <time>2021-07-05T17:06:19Z</time>
      </trkpt>
      <trkpt lat="42.4146" lon="-3.21961">
        <ele>785.6557</ele>
        <time>2021-07-05T17:06:30Z</time>
      </trkpt>
      <trkpt lat="42.4141" lon="-3.22217">
        <ele>788.2555</ele>
        <time>2021-07-05T17:06:41Z</time>
      </trkpt>
      <trkpt lat="42.4136" lon="-3.22475">
        <ele>791.3947</ele>
        <time>2021-07-05T17:06:52Z</time>
      </trkpt>
      <trkpt lat="42.41311" lon="-3.22729">
        <ele>795.6362</ele>
        <time>2021-07-05T17:07:03Z</time>
      </trkpt>
      <trkpt lat="42.41308" lon="-3.22994">
        <ele>800.5795</ele>
        <time>2021-07-05T17:07:14Z</time>
      </trkpt>
      <trkpt lat="42.41332" lon="-3.2325">
        <ele>803.5794</ele>
        <time>2021-07-05T17:07:25Z</time>
      </trkpt>
      <trkpt lat="42.41358" lon="-3.23517">
        <ele>806.0395</ele>
        <time>2021-07-05T17:07:36Z</time>
      </trkpt>
      <trkpt lat="42.41386" lon="-3.23799">
        <ele>808.707</ele>
        <time>2021-07-05T17:07:47Z</time>
      </trkpt>
      <trkpt lat="42.41409" lon="-3.24038">
        <ele>812.6787</ele>
        <time>2021-07-05T17:07:58Z</time>
      </trkpt>
      <trkpt lat="42.41408" lon="-3.24232">
        <ele>816.5967</ele>
        <time>2021-07-05T17:08:09Z</time>
      </trkpt>
      <trkpt lat="42.41361" lon="-3.24441">
        <ele>821.3545</ele>
        <time>2021-07-05T17:08:20Z</time>
      </trkpt>
      <trkpt lat="42.41294" lon="-3.24664">
        <ele>824.2091</ele>
        <time>2021-07-05T17:08:31Z</time>
      </trkpt>
      <trkpt lat="42.41208" lon="-3.24933">
        <ele>824.8465</ele>
        <time>2021-07-05T17:08:42Z</time>
      </trkpt>
      <trkpt lat="42.41135" lon="-3.25172">
        <ele>828.8689</ele>
        <time>2021-07-05T17:08:53Z</time>
      </trkpt>
      <trkpt lat="42.41053" lon="-3.2544">
        <ele>833.0534</ele>
        <time>2021-07-05T17:09:04Z</time>
      </trkpt>
      <trkpt lat="42.40971" lon="-3.25714">
        <ele>836.4267</ele>
        <time>2021-07-05T17:09:15Z</time>
      </trkpt>
      <trkpt lat="42.40892" lon="-3.25976">
        <ele>842.8265</ele>
        <time>2021-07-05T17:09:26Z</time>
      </trkpt>
      <trkpt lat="42.40842" lon="-3.26253">
        <ele>845.2625</ele>
        <time>2021-07-05T17:09:37Z</time>
      </trkpt>
      <trkpt lat="42.40799" lon="-3.26548">
        <ele>854.8362</ele>
        <time>2021-07-05T17:09:48Z</time>
      </trkpt>
      <trkpt lat="42.40759" lon="-3.26824">
        <ele>863.3013</ele>
        <time>2021-07-05T17:09:59Z</time>
      </trkpt>
      <trkpt lat="42.40721" lon="-3.27063">
        <ele>871.7777</ele>
        <time>2021-07-05T17:10:10Z</time>
      </trkpt>
      <trkpt lat="42.40619" lon="-3.27266">
        <ele>871.7684</ele>
        <time>2021-07-05T17:10:21Z</time>
      </trkpt>
      <trkpt lat="42.40556" lon="-3.27525">
        <ele>880.2266</ele>
        <time>2021-07-05T17:10:32Z</time>
      </trkpt>
      <trkpt lat="42.40507" lon="-3.27747">
        <ele>890.9176</ele>
        <time>2021-07-05T17:10:43Z</time>
      </trkpt>
      <trkpt lat="42.40459" lon="-3.27971">
        <ele>898.9264</ele>
        <time>2021-07-05T17:10:54Z</time>
      </trkpt>
      <trkpt lat="42.40411" lon="-3.2818">
        <ele>908.4896</ele>
        <time>2021-07-05T17:11:05Z</time>
      </trkpt>
      <trkpt lat="42.40328" lon="-3.28363">
        <ele>907.8963</ele>
        <time>2021-07-05T17:11:16Z</time>
      </trkpt>
      <trkpt lat="42.40213" lon="-3.286">
        <ele>906.0086</ele>
        <time>2021-07-05T17:11:27Z</time>
      </trkpt>
      <trkpt lat="42.40188" lon="-3.28908">
        <ele>914.399</ele>
        <time>2021-07-05T17:11:38Z</time>
      </trkpt>
      <trkpt lat="42.40156" lon="-3.29236">
        <ele>930.4917</ele>
        <time>2021-07-05T17:11:49Z</time>
      </trkpt>
      <trkpt lat="42.40091" lon="-3.29542">
        <ele>937.0296</ele>
        <time>2021-07-05T17:12:00Z</time>
      </trkpt>
      <trkpt lat="42.40015" lon="-3.29828">
        <ele>945.1106</ele>
        <time>2021-07-05T17:12:11Z</time>
      </trkpt>
      <trkpt lat="42.39828" lon="-3.30008">
        <ele>934.3947</ele>
        <time>2021-07-05T17:12:22Z</time>
      </trkpt>
      <trkpt lat="42.39578" lon="-3.30215">
        <ele>934.2797</ele>
        <time>2021-07-05T17:12:33Z</time>
      </trkpt>
      <trkpt lat="42.39326" lon="-3.30428">
        <ele>936.1927</ele>
        <time>2021-07-05T17:12:44Z</time>
      </trkpt>
      <trkpt lat="42.3912" lon="-3.30615">
        <ele>932.9384</ele>
        <time>2021-07-05T17:12:55Z</time>
      </trkpt>
      <trkpt lat="42.39037" lon="-3.30778">
        <ele>934.4497</ele>
        <time>2021-07-05T17:13:06Z</time>
      </trkpt>
      <trkpt lat="42.38964" lon="-3.30837">
        <ele>937.2642</ele>
        <time>2021-07-05T17:13:17Z</time>
      </trkpt>
      <trkpt lat="42.38851" lon="-3.30872">
        <ele>946.3867</ele>
        <time>2021-07-05T17:13:28Z</time>
      </trkpt>
      <trkpt lat="42.38691" lon="-3.30898">
        <ele>949.4853</ele>
        <time>2021-07-05T17:13:39Z</time>
      </trkpt>
      <trkpt lat="42.38556" lon="-3.30897">
        <ele>952.8572</ele>
        <time>2021-07-05T17:13:50Z</time>
      </trkpt>
      <trkpt lat="42.3851" lon="-3.30894">
        <ele>952.6475</ele>
        <time>2021-07-05T17:14:01Z</time>
      </trkpt>
      <trkpt lat="42.38485" lon="-3.30899">
        <ele>950.4829</ele>
        <time>2021-07-05T17:14:12Z</time>
      </trkpt>
      <trkpt lat="42.38364" lon="-3.3089">
        <ele>956.7673</ele>
        <time>2021-07-05T17:14:23Z</time>
      </trkpt>
      <trkpt lat="42.38198" lon="-3.30923">
        <ele>959.1371</ele>
        <time>2021-07-05T17:14:34Z</time>
      </trkpt>
      <trkpt lat="42.38036" lon="-3.30967">
        <ele>970.7419</ele>
        <time>2021-07-05T17:14:45Z</time>
      </trkpt>
      <trkpt lat="42.37899" lon="-3.30987">
        <ele>980.7464</ele>
        <time>2021-07-05T17:14:56Z</time>
      </trkpt>
      <trkpt lat="42.3794" lon="-3.31162">
        <ele>991.2044</ele>
        <time>2021-07-05T17:15:07Z</time>
      </trkpt>
      <trkpt lat="42.37951" lon="-3.31529">
        <ele>1010.13</ele>
        <time>2021-07-05T17:15:18Z</time>
      </trkpt>
      <trkpt lat="42.37915" lon="-3.31904">
        <ele>1031.666</ele>
        <time>2021-07-05T17:15:29Z</time>
      </trkpt>
      <trkpt lat="42.37813" lon="-3.32167">
        <ele>1044.811</ele>
        <time>2021-07-05T17:15:40Z</time>
      </trkpt>
      <trkpt lat="42.37736" lon="-3.3245">
        <ele>1062.863</ele>
        <time>2021-07-05T17:15:51Z</time>
      </trkpt>
      <trkpt lat="42.37697" lon="-3.32755">
        <ele>1076.98</ele>
        <time>2021-07-05T17:16:02Z</time>
      </trkpt>
      <trkpt lat="42.37561" lon="-3.33025">
        <ele>1090.553</ele>
        <time>2021-07-05T17:16:13Z</time>
      </trkpt>
      <trkpt lat="42.37476" lon="-3.33309">
        <ele>1109.886</ele>
        <time>2021-07-05T17:16:24Z</time>
      </trkpt>
      <trkpt lat="42.37366" lon="-3.3361">
        <ele>1125.097</ele>
        <time>2021-07-05T17:16:35Z</time>
      </trkpt>
      <trkpt lat="42.37324" lon="-3.33958">
        <ele>1141.371</ele>
        <time>2021-07-05T17:16:46Z</time>
      </trkpt>
      <trkpt lat="42.37219" lon="-3.34259">
        <ele>1138.627</ele>
        <time>2021-07-05T17:16:57Z</time>
      </trkpt>
      <trkpt lat="42.3707" lon="-3.34544">
        <ele>1124.911</ele>
        <time>2021-07-05T17:17:08Z</time>
      </trkpt>
      <trkpt lat="42.36921" lon="-3.34783">
        <ele>1132.969</ele>
        <time>2021-07-05T17:17:19Z</time>
      </trkpt>
      <trkpt lat="42.36729" lon="-3.34919">
        <ele>1141.991</ele>
        <time>2021-07-05T17:17:30Z</time>
      </trkpt>
      <trkpt lat="42.36586" lon="-3.35133">
        <ele>1153.424</ele>
        <time>2021-07-05T17:17:41Z</time>
      </trkpt>
      <trkpt lat="42.36532" lon="-3.3538">
        <ele>1157.668</ele>
        <time>2021-07-05T17:17:52Z</time>
      </trkpt>
      <trkpt lat="42.36471" lon="-3.35671">
        <ele>1156.667</ele>
        <time>2021-07-05T17:18:03Z</time>
      </trkpt>
      <trkpt lat="42.36411" lon="-3.35942">
        <ele>1152.279</ele>
        <time>2021-07-05T17:18:14Z</time>
      </trkpt>
      <trkpt lat="42.36367" lon="-3.36276">
        <ele>1135.629</ele>
        <time>2021-07-05T17:18:25Z</time>
      </trkpt>
      <trkpt lat="42.36397" lon="-3.36597">
        <ele>1121.685</ele>
        <time>2021-07-05T17:18:36Z</time>
      </trkpt>
      <trkpt lat="42.36411" lon="-3.36921">
        <ele>1108.428</ele>
        <time>2021-07-05T17:18:47Z</time>
      </trkpt>
      <trkpt lat="42.36346" lon="-3.37271">
        <ele>1109.461</ele>
        <time>2021-07-05T17:18:58Z</time>
      </trkpt>
      <trkpt lat="42.36289" lon="-3.37593">
        <ele>1115.99</ele>
        <time>2021-07-05T17:19:09Z</time>
      </trkpt>
      <trkpt lat="42.36231" lon="-3.37912">
        <ele>1122.169</ele>
        <time>2021-07-05T17:19:20Z</time>
      </trkpt>
      <trkpt lat="42.36099" lon="-3.3819">
        <ele>1117.37</ele>
        <time>2021-07-05T17:19:31Z</time>
      </trkpt>
      <trkpt lat="42.35998" lon="-3.38522">
        <ele>1119.25</ele>
        <time>2021-07-05T17:19:42Z</time>
      </trkpt>
      <trkpt lat="42.3584" lon="-3.38771">
        <ele>1110.512</ele>
        <time>2021-07-05T17:19:53Z</time>
      </trkpt>
      <trkpt lat="42.35742" lon="-3.39078">
        <ele>1120.379</ele>
        <time>2021-07-05T17:20:04Z</time>
      </trkpt>
      <trkpt lat="42.35646" lon="-3.39373">
        <ele>1118.445</ele>
        <time>2021-07-05T17:20:15Z</time>
      </trkpt>
      <trkpt lat="42.35553" lon="-3.39661">
        <ele>1115.556</ele>
        <time>2021-07-05T17:20:26Z</time>
      </trkpt>
      <trkpt lat="42.3545" lon="-3.39976">
        <ele>1111.292</ele>
        <time>2021-07-05T17:20:37Z</time>
      </trkpt>
      <trkpt lat="42.35345" lon="-3.40292">
        <ele>1110.602</ele>
        <time>2021-07-05T17:20:48Z</time>
      </trkpt>
      <trkpt lat="42.35224" lon="-3.40622">
        <ele>1090.022</ele>
        <time>2021-07-05T17:20:59Z</time>
      </trkpt>
      <trkpt lat="42.35104" lon="-3.40944">
        <ele>1077.196</ele>
        <time>2021-07-05T17:21:10Z</time>
      </trkpt>
      <trkpt lat="42.35089" lon="-3.41291">
        <ele>1081.778</ele>
        <time>2021-07-05T17:21:21Z</time>
      </trkpt>
      <trkpt lat="42.35089" lon="-3.41614">
        <ele>1086.024</ele>
        <time>2021-07-05T17:21:32Z</time>
      </trkpt>
      <trkpt lat="42.35088" lon="-3.41993">
        <ele>1077.84</ele>
        <time>2021-07-05T17:21:43Z</time>
      </trkpt>
      <trkpt lat="42.35088" lon="-3.42366">
        <ele>1066.254</ele>
        <time>2021-07-05T17:21:54Z</time>
      </trkpt>
      <trkpt lat="42.35089" lon="-3.42738">
        <ele>1063.509</ele>
        <time>2021-07-05T17:22:05Z</time>
      </trkpt>
      <trkpt lat="42.3509" lon="-3.43046">
        <ele>1062.681</ele>
        <time>2021-07-05T17:22:16Z</time>
      </trkpt>
      <trkpt lat="42.35088" lon="-3.43383">
        <ele>1058.677</ele>
        <time>2021-07-05T17:22:27Z</time>
      </trkpt>
      <trkpt lat="42.3498" lon="-3.43675">
        <ele>1056.912</ele>
        <time>2021-07-05T17:22:38Z</time>
      </trkpt>
      <trkpt lat="42.34928" lon="-3.43986">
        <ele>1054.026</ele>
        <time>2021-07-05T17:22:49Z</time>
      </trkpt>
      <trkpt lat="42.34927" lon="-3.44315">
        <ele>1047.181</ele>
        <time>2021-07-05T17:23:00Z</time>
      </trkpt>
      <trkpt lat="42.3489" lon="-3.4469">
        <ele>1029.338</ele>
        <time>2021-07-05T17:23:11Z</time>
      </trkpt>
      <trkpt lat="42.34876" lon="-3.45128">
        <ele>1011.89</ele>
        <time>2021-07-05T17:23:22Z</time>
      </trkpt>
      <trkpt lat="42.34958" lon="-3.45532">
        <ele>995.7317</ele>
        <time>2021-07-05T17:23:33Z</time>
      </trkpt>
      <trkpt lat="42.35041" lon="-3.4594">
        <ele>996.3811</ele>
        <time>2021-07-05T17:23:44Z</time>
      </trkpt>
      <trkpt lat="42.35043" lon="-3.46336">
        <ele>1003.877</ele>
        <time>2021-07-05T17:23:55Z</time>
      </trkpt>
      <trkpt lat="42.3499" lon="-3.46728">
        <ele>1003.145</ele>
        <time>2021-07-05T17:24:06Z</time>
      </trkpt>
      <trkpt lat="42.34935" lon="-3.47134">
        <ele>993.711</ele>
        <time>2021-07-05T17:24:17Z</time>
      </trkpt>
      <trkpt lat="42.3488" lon="-3.47545">
        <ele>993.6849</ele>
        <time>2021-07-05T17:24:28Z</time>
      </trkpt>
      <trkpt lat="42.34826" lon="-3.47955">
        <ele>999.7461</ele>
        <time>2021-07-05T17:24:39Z</time>
      </trkpt>
      <trkpt lat="42.34765" lon="-3.48355">
        <ele>991.1078</ele>
        <time>2021-07-05T17:24:50Z</time>
      </trkpt>
      <trkpt lat="42.34671" lon="-3.48661">
        <ele>992.1438</ele>
        <time>2021-07-05T17:25:01Z</time>
      </trkpt>
      <trkpt lat="42.34567" lon="-3.48967">
        <ele>985.6768</ele>
        <time>2021-07-05T17:25:12Z</time>
      </trkpt>
      <trkpt lat="42.34437" lon="-3.49312">
        <ele>980.4636</ele>
        <time>2021-07-05T17:25:23Z</time>
      </trkpt>
      <trkpt lat="42.34305" lon="-3.49659">
        <ele>976.983</ele>
        <time>2021-07-05T17:25:34Z</time>
      </trkpt>
      <trkpt lat="42.34163" lon="-3.50044">
        <ele>976.1718</ele>
        <time>2021-07-05T17:25:45Z</time>
      </trkpt>
      <trkpt lat="42.34056" lon="-3.50435">
        <ele>969.7768</ele>
        <time>2021-07-05T17:25:56Z</time>
      </trkpt>
      <trkpt lat="42.33919" lon="-3.50791">
        <ele>966.5624</ele>
        <time>2021-07-05T17:26:07Z</time>
      </trkpt>
      <trkpt lat="42.33702" lon="-3.5106">
        <ele>960.4041</ele>
        <time>2021-07-05T17:26:18Z</time>
      </trkpt>
      <trkpt lat="42.33594" lon="-3.51432">
        <ele>958.4163</ele>
        <time>2021-07-05T17:26:29Z</time>
      </trkpt>
      <trkpt lat="42.33498" lon="-3.51776">
        <ele>955.5279</ele>
        <time>2021-07-05T17:26:40Z</time>
      </trkpt>
      <trkpt lat="42.33394" lon="-3.52133">
        <ele>951.5432</ele>
        <time>2021-07-05T17:26:51Z</time>
      </trkpt>
      <trkpt lat="42.33299" lon="-3.52462">
        <ele>946.5254</ele>
        <time>2021-07-05T17:27:02Z</time>
      </trkpt>
      <trkpt lat="42.33227" lon="-3.52763">
        <ele>938.9273</ele>
        <time>2021-07-05T17:27:13Z</time>
      </trkpt>
      <trkpt lat="42.33194" lon="-3.53025">
        <ele>934.1184</ele>
        <time>2021-07-05T17:27:24Z</time>
      </trkpt>
      <trkpt lat="42.33177" lon="-3.53211">
        <ele>931.0752</ele>
        <time>2021-07-05T17:27:35Z</time>
      </trkpt>
      <trkpt lat="42.33168" lon="-3.5336">
        <ele>931.7471</ele>
        <time>2021-07-05T17:27:46Z</time>
      </trkpt>
      <trkpt lat="42.3317" lon="-3.53476">
        <ele>933.6667</ele>
        <time>2021-07-05T17:27:57Z</time>
      </trkpt>
      <trkpt lat="42.3317" lon="-3.53595">
        <ele>935.4366</ele>
        <time>2021-07-05T17:28:08Z</time>
      </trkpt>
      <trkpt lat="42.33178" lon="-3.53761">
        <ele>935.3682</ele>
        <time>2021-07-05T17:28:19Z</time>
      </trkpt>
      <trkpt lat="42.33192" lon="-3.53963">
        <ele>933.3598</ele>
        <time>2021-07-05T17:28:30Z</time>
      </trkpt>
      <trkpt lat="42.33204" lon="-3.54167">
        <ele>933.9247</ele>
        <time>2021-07-05T17:28:41Z</time>
      </trkpt>
      <trkpt lat="42.33219" lon="-3.54432">
        <ele>929.0514</ele>
        <time>2021-07-05T17:28:52Z</time>
      </trkpt>
      <trkpt lat="42.33236" lon="-3.547">
        <ele>926.4477</ele>
        <time>2021-07-05T17:29:03Z</time>
      </trkpt>
      <trkpt lat="42.33253" lon="-3.54997">
        <ele>926.5264</ele>
        <time>2021-07-05T17:29:14Z</time>
      </trkpt>
      <trkpt lat="42.33271" lon="-3.55296">
        <ele>924.0897</ele>
        <time>2021-07-05T17:29:25Z</time>
      </trkpt>
      <trkpt lat="42.3329" lon="-3.55588">
        <ele>922.6499</ele>
        <time>2021-07-05T17:29:36Z</time>
      </trkpt>
      <trkpt lat="42.33306" lon="-3.55862">
        <ele>922.1547</ele>
        <time>2021-07-05T17:29:47Z</time>
      </trkpt>
      <trkpt lat="42.33323" lon="-3.56145">
        <ele>920.0595</ele>
        <time>2021-07-05T17:29:58Z</time>
      </trkpt>
      <trkpt lat="42.33341" lon="-3.56444">
        <ele>919.8611</ele>
        <time>2021-07-05T17:30:09Z</time>
      </trkpt>
      <trkpt lat="42.3336" lon="-3.56743">
        <ele>916.612</ele>
        <time>2021-07-05T17:30:20Z</time>
      </trkpt>
      <trkpt lat="42.33402" lon="-3.57037">
        <ele>912.7532</ele>
        <time>2021-07-05T17:30:31Z</time>
      </trkpt>
      <trkpt lat="42.33459" lon="-3.57344">
        <ele>910.7105</ele>
        <time>2021-07-05T17:30:42Z</time>
      </trkpt>
      <trkpt lat="42.33506" lon="-3.57632">
        <ele>907.8094</ele>
        <time>2021-07-05T17:30:53Z</time>
      </trkpt>
      <trkpt lat="42.3356" lon="-3.57934">
        <ele>904.4682</ele>
        <time>2021-07-05T17:31:04Z</time>
      </trkpt>
      <trkpt lat="42.33617" lon="-3.5825">
        <ele>902.3302</ele>
        <time>2021-07-05T17:31:15Z</time>
      </trkpt>
      <trkpt lat="42.33673" lon="-3.58563">
        <ele>900.9892</ele>
        <time>2021-07-05T17:31:26Z</time>
      </trkpt>
      <trkpt lat="42.33733" lon="-3.58901">
        <ele>900.0447</ele>
        <time>2021-07-05T17:31:37Z</time>
      </trkpt>
      <trkpt lat="42.33788" lon="-3.59204">
        <ele>897.6098</ele>
        <time>2021-07-05T17:31:48Z</time>
      </trkpt>
      <trkpt lat="42.33846" lon="-3.59506">
        <ele>896.5903</ele>
        <time>2021-07-05T17:31:59Z</time>
      </trkpt>
      <trkpt lat="42.33901" lon="-3.59817">
        <ele>893.8814</ele>
        <time>2021-07-05T17:32:10Z</time>
      </trkpt>
      <trkpt lat="42.33943" lon="-3.60072">
        <ele>894.4298</ele>
        <time>2021-07-05T17:32:21Z</time>
      </trkpt>
      <trkpt lat="42.33987" lon="-3.60316">
        <ele>894.2004</ele>
        <time>2021-07-05T17:32:32Z</time>
      </trkpt>
      <trkpt lat="42.34036" lon="-3.60591">
        <ele>890.8399</ele>
        <time>2021-07-05T17:32:43Z</time>
      </trkpt>
      <trkpt lat="42.34079" lon="-3.60832">
        <ele>891.2552</ele>
        <time>2021-07-05T17:32:54Z</time>
      </trkpt>
      <trkpt lat="42.34121" lon="-3.6107">
        <ele>890.4987</ele>
        <time>2021-07-05T17:33:05Z</time>
      </trkpt>
      <trkpt lat="42.3416" lon="-3.61287">
        <ele>894.2836</ele>
        <time>2021-07-05T17:33:16Z</time>
      </trkpt>
      <trkpt lat="42.34205" lon="-3.61541">
        <ele>890.3021</ele>
        <time>2021-07-05T17:33:27Z</time>
      </trkpt>
      <trkpt lat="42.34246" lon="-3.61769">
        <ele>891.0338</ele>
        <time>2021-07-05T17:33:38Z</time>
      </trkpt>
      <trkpt lat="42.34277" lon="-3.61958">
        <ele>903.8456</ele>
        <time>2021-07-05T17:33:49Z</time>
      </trkpt>
      <trkpt lat="42.34315" lon="-3.6216">
        <ele>902.7612</ele>
        <time>2021-07-05T17:34:00Z</time>
      </trkpt>
      <trkpt lat="42.34347" lon="-3.62336">
        <ele>900.8338</ele>
        <time>2021-07-05T17:34:11Z</time>
      </trkpt>
      <trkpt lat="42.34377" lon="-3.62506">
        <ele>896.8545</ele>
        <time>2021-07-05T17:34:22Z</time>
      </trkpt>
      <trkpt lat="42.34386" lon="-3.6265">
        <ele>895.8976</ele>
        <time>2021-07-05T17:34:33Z</time>
      </trkpt>
      <trkpt lat="42.34379" lon="-3.62813">
        <ele>889.5178</ele>
        <time>2021-07-05T17:34:44Z</time>
      </trkpt>
      <trkpt lat="42.34388" lon="-3.63002">
        <ele>888.4911</ele>
        <time>2021-07-05T17:34:55Z</time>
      </trkpt>
      <trkpt lat="42.34401" lon="-3.63211">
        <ele>885.9563</ele>
        <time>2021-07-05T17:35:06Z</time>
      </trkpt>
      <trkpt lat="42.3441" lon="-3.63416">
        <ele>883.7115</ele>
        <time>2021-07-05T17:35:17Z</time>
      </trkpt>
      <trkpt lat="42.34423" lon="-3.63631">
        <ele>881.9433</ele>
        <time>2021-07-05T17:35:28Z</time>
      </trkpt>
      <trkpt lat="42.3451" lon="-3.6373">
        <ele>878.8242</ele>
        <time>2021-07-05T17:35:39Z</time>
      </trkpt>
      <trkpt lat="42.34472" lon="-3.63891">
        <ele>878.4177</ele>
        <time>2021-07-05T17:35:50Z</time>
      </trkpt>
      <trkpt lat="42.34447" lon="-3.64117">
        <ele>879.7448</ele>
        <time>2021-07-05T17:36:01Z</time>
      </trkpt>
      <trkpt lat="42.34465" lon="-3.64392">
        <ele>879.3148</ele>
        <time>2021-07-05T17:36:12Z</time>
      </trkpt>
      <trkpt lat="42.34488" lon="-3.64639">
        <ele>880.1718</ele>
        <time>2021-07-05T17:36:23Z</time>
      </trkpt>
      <trkpt lat="42.34498" lon="-3.64855">
        <ele>881.009</ele>
        <time>2021-07-05T17:36:34Z</time>
      </trkpt>
      <trkpt lat="42.34505" lon="-3.65032">
        <ele>881.8571</ele>
        <time>2021-07-05T17:36:45Z</time>
      </trkpt>
      <trkpt lat="42.34506" lon="-3.65045">
        <ele>883.5417</ele>
        <time>2021-07-05T17:36:56Z</time>
      </trkpt>
      <trkpt lat="42.34504" lon="-3.6507">
        <ele>886.8941</ele>
        <time>2021-07-05T17:37:07Z</time>
      </trkpt>
      <trkpt lat="42.34524" lon="-3.65276">
        <ele>893.9192</ele>
        <time>2021-07-05T17:37:18Z</time>
      </trkpt>
      <trkpt lat="42.3456" lon="-3.65504">
        <ele>886.197</ele>
        <time>2021-07-05T17:37:29Z</time>
      </trkpt>
      <trkpt lat="42.34593" lon="-3.65736">
        <ele>881.9566</ele>
        <time>2021-07-05T17:37:40Z</time>
      </trkpt>
      <trkpt lat="42.34606" lon="-3.65837">
        <ele>878.9298</ele>
        <time>2021-07-05T17:37:51Z</time>
      </trkpt>
      <trkpt lat="42.34633" lon="-3.66004">
        <ele>880.5508</ele>
        <time>2021-07-05T17:38:02Z</time>
      </trkpt>
      <trkpt lat="42.34671" lon="-3.66221">
        <ele>877.7164</ele>
        <time>2021-07-05T17:38:13Z</time>
      </trkpt>
      <trkpt lat="42.3468" lon="-3.66275">
        <ele>875.6374</ele>
        <time>2021-07-05T17:38:24Z</time>
      </trkpt>
      <trkpt lat="42.34637" lon="-3.66351">
        <ele>875.569</ele>
        <time>2021-07-05T17:38:35Z</time>
      </trkpt>
      <trkpt lat="42.34507" lon="-3.66467">
        <ele>873.8023</ele>
        <time>2021-07-05T17:38:46Z</time>
      </trkpt>
      <trkpt lat="42.34367" lon="-3.66599">
        <ele>876.6387</ele>
        <time>2021-07-05T17:38:57Z</time>
      </trkpt>
      <trkpt lat="42.34226" lon="-3.66748">
        <ele>869.5245</ele>
        <time>2021-07-05T17:39:08Z</time>
      </trkpt>
      <trkpt lat="42.34147" lon="-3.66936">
        <ele>870.9811</ele>
        <time>2021-07-05T17:39:19Z</time>
      </trkpt>
      <trkpt lat="42.34111" lon="-3.67079">
        <ele>869.3416</ele>
        <time>2021-07-05T17:39:30Z</time>
      </trkpt>
      <trkpt lat="42.34106" lon="-3.67297">
        <ele>870.7188</ele>
        <time>2021-07-05T17:39:41Z</time>
      </trkpt>
      <trkpt lat="42.34105" lon="-3.67539">
        <ele>870.0788</ele>
        <time>2021-07-05T17:39:52Z</time>
      </trkpt>
      <trkpt lat="42.34098" lon="-3.67735">
        <ele>867.7646</ele>
        <time>2021-07-05T17:40:03Z</time>
      </trkpt>
      <trkpt lat="42.34088" lon="-3.67924">
        <ele>866.2086</ele>
        <time>2021-07-05T17:40:14Z</time>
      </trkpt>
      <trkpt lat="42.34072" lon="-3.68139">
        <ele>867.3853</ele>
        <time>2021-07-05T17:40:25Z</time>
      </trkpt>
      <trkpt lat="42.3404" lon="-3.68347">
        <ele>864.6572</ele>
        <time>2021-07-05T17:40:36Z</time>
      </trkpt>
      <trkpt lat="42.34016" lon="-3.68424">
        <ele>867.3095</ele>
        <time>2021-07-05T17:40:47Z</time>
      </trkpt>
      <trkpt lat="42.34017" lon="-3.6842">
        <ele>873.4798</ele>
        <time>2021-07-05T17:41:19Z</time>
      </trkpt>
      <trkpt lat="42.34015" lon="-3.68427">
        <ele>875.2874</ele>
        <time>2021-07-05T17:41:32Z</time>
      </trkpt>
      <trkpt lat="42.33973" lon="-3.68548">
        <ele>871.2948</ele>
        <time>2021-07-05T17:41:43Z</time>
      </trkpt>
      <trkpt lat="42.33901" lon="-3.68732">
        <ele>869.185</ele>
        <time>2021-07-05T17:41:54Z</time>
      </trkpt>
      <trkpt lat="42.33837" lon="-3.68889">
        <ele>870.9629</ele>
        <time>2021-07-05T17:42:05Z</time>
      </trkpt>
      <trkpt lat="42.33767" lon="-3.69065">
        <ele>873.0992</ele>
        <time>2021-07-05T17:42:16Z</time>
      </trkpt>
      <trkpt lat="42.33714" lon="-3.69235">
        <ele>874.4608</ele>
        <time>2021-07-05T17:42:27Z</time>
      </trkpt>
      <trkpt lat="42.33675" lon="-3.69419">
        <ele>874.3114</ele>
        <time>2021-07-05T17:42:38Z</time>
      </trkpt>
      <trkpt lat="42.3365" lon="-3.69595">
        <ele>867.6137</ele>
        <time>2021-07-05T17:42:49Z</time>
      </trkpt>
      <trkpt lat="42.33629" lon="-3.69671">
        <ele>869.9735</ele>
        <time>2021-07-05T17:43:00Z</time>
      </trkpt>
      <trkpt lat="42.33607" lon="-3.69774">
        <ele>874.3582</ele>
        <time>2021-07-05T17:43:11Z</time>
      </trkpt>
      <trkpt lat="42.33587" lon="-3.69893">
        <ele>877.7749</ele>
        <time>2021-07-05T17:43:22Z</time>
      </trkpt>
      <trkpt lat="42.3357" lon="-3.69978">
        <ele>877.3878</ele>
        <time>2021-07-05T17:43:33Z</time>
      </trkpt>
      <trkpt lat="42.33569" lon="-3.69987">
        <ele>884.5531</ele>
        <time>2021-07-05T17:43:44Z</time>
      </trkpt>
      <trkpt lat="42.33571" lon="-3.69992">
        <ele>896.8948</ele>
        <time>2021-07-05T17:44:13Z</time>
      </trkpt>
      <trkpt lat="42.3357" lon="-3.69997">
        <ele>900.5315</ele>
        <time>2021-07-05T17:44:25Z</time>
      </trkpt>
      <trkpt lat="42.33563" lon="-3.70021">
        <ele>900.6103</ele>
        <time>2021-07-05T17:44:36Z</time>
      </trkpt>
      <trkpt lat="42.33532" lon="-3.70183">
        <ele>890.7059</ele>
        <time>2021-07-05T17:44:47Z</time>
      </trkpt>
      <trkpt lat="42.33504" lon="-3.7034">
        <ele>893.4405</ele>
        <time>2021-07-05T17:44:58Z</time>
      </trkpt>
      <trkpt lat="42.33471" lon="-3.70519">
        <ele>880.427</ele>
        <time>2021-07-05T17:45:09Z</time>
      </trkpt>
      <trkpt lat="42.33427" lon="-3.70709">
        <ele>869.423</ele>
        <time>2021-07-05T17:45:20Z</time>
      </trkpt>
      <trkpt lat="42.33358" lon="-3.70898">
        <ele>862.4151</ele>
        <time>2021-07-05T17:45:31Z</time>
      </trkpt>
      <trkpt lat="42.33322" lon="-3.71084">
        <ele>860.0694</ele>
        <time>2021-07-05T17:45:42Z</time>
      </trkpt>
      <trkpt lat="42.33304" lon="-3.71315">
        <ele>860.8138</ele>
        <time>2021-07-05T17:45:53Z</time>
      </trkpt>
      <trkpt lat="42.33299" lon="-3.7154">
        <ele>859.2065</ele>
        <time>2021-07-05T17:46:04Z</time>
      </trkpt>
      <trkpt lat="42.33301" lon="-3.71676">
        <ele>864.0001</ele>
        <time>2021-07-05T17:46:15Z</time>
      </trkpt>
      <trkpt lat="42.33301" lon="-3.71834">
        <ele>864.8035</ele>
        <time>2021-07-05T17:46:26Z</time>
      </trkpt>
      <trkpt lat="42.33333" lon="-3.72026">
        <ele>859.1448</ele>
        <time>2021-07-05T17:46:37Z</time>
      </trkpt>
      <trkpt lat="42.33398" lon="-3.72189">
        <ele>856.2834</ele>
        <time>2021-07-05T17:46:48Z</time>
      </trkpt>
      <trkpt lat="42.3347" lon="-3.7237">
        <ele>854.7514</ele>
        <time>2021-07-05T17:46:59Z</time>
      </trkpt>
      <trkpt lat="42.33539" lon="-3.72541">
        <ele>853.5281</ele>
        <time>2021-07-05T17:47:10Z</time>
      </trkpt>
      <trkpt lat="42.33623" lon="-3.72745">
        <ele>852.9621</ele>
        <time>2021-07-05T17:47:21Z</time>
      </trkpt>
      <trkpt lat="42.33725" lon="-3.72992">
        <ele>850.5313</ele>
        <time>2021-07-05T17:47:32Z</time>
      </trkpt>
      <trkpt lat="42.33821" lon="-3.73168">
        <ele>849.108</ele>
        <time>2021-07-05T17:47:43Z</time>
      </trkpt>
      <trkpt lat="42.33971" lon="-3.73081">
        <ele>854.728</ele>
        <time>2021-07-05T17:47:54Z</time>
      </trkpt>
      <trkpt lat="42.34144" lon="-3.7296">
        <ele>854.9746</ele>
        <time>2021-07-05T17:48:05Z</time>
      </trkpt>
      <trkpt lat="42.34224" lon="-3.72883">
        <ele>853.6521</ele>
        <time>2021-07-05T17:48:16Z</time>
      </trkpt>
      <trkpt lat="42.34231" lon="-3.73067">
        <ele>854.1698</ele>
        <time>2021-07-05T17:48:27Z</time>
      </trkpt>
      <trkpt lat="42.34254" lon="-3.7328">
        <ele>855.1279</ele>
        <time>2021-07-05T17:48:38Z</time>
      </trkpt>
      <trkpt lat="42.34266" lon="-3.73454">
        <ele>858.6036</ele>
        <time>2021-07-05T17:48:49Z</time>
      </trkpt>
      <trkpt lat="42.34288" lon="-3.73676">
        <ele>856.1641</ele>
        <time>2021-07-05T17:49:00Z</time>
      </trkpt>
      <trkpt lat="42.34213" lon="-3.73877">
        <ele>851.5359</ele>
        <time>2021-07-05T17:49:11Z</time>
      </trkpt>
      <trkpt lat="42.34142" lon="-3.741">
        <ele>849.6849</ele>
        <time>2021-07-05T17:49:22Z</time>
      </trkpt>
      <trkpt lat="42.34083" lon="-3.74332">
        <ele>849.1533</ele>
        <time>2021-07-05T17:49:33Z</time>
      </trkpt>
      <trkpt lat="42.34062" lon="-3.74668">
        <ele>857.3781</ele>
        <time>2021-07-05T17:49:44Z</time>
      </trkpt>
      <trkpt lat="42.34066" lon="-3.75014">
        <ele>855.6482</ele>
        <time>2021-07-05T17:49:55Z</time>
      </trkpt>
      <trkpt lat="42.34071" lon="-3.75341">
        <ele>854.0725</ele>
        <time>2021-07-05T17:50:06Z</time>
      </trkpt>
      <trkpt lat="42.34077" lon="-3.75708">
        <ele>860.514</ele>
        <time>2021-07-05T17:50:17Z</time>
      </trkpt>
      <trkpt lat="42.34082" lon="-3.76004">
        <ele>866.6303</ele>
        <time>2021-07-05T17:50:28Z</time>
      </trkpt>
      <trkpt lat="42.34084" lon="-3.76186">
        <ele>868.0837</ele>
        <time>2021-07-05T17:50:39Z</time>
      </trkpt>
      <trkpt lat="42.34086" lon="-3.76419">
        <ele>874.7349</ele>
        <time>2021-07-05T17:50:50Z</time>
      </trkpt>
      <trkpt lat="42.34094" lon="-3.76698">
        <ele>885.476</ele>
        <time>2021-07-05T17:51:01Z</time>
      </trkpt>
      <trkpt lat="42.3416" lon="-3.77023">
        <ele>882.0362</ele>
        <time>2021-07-05T17:51:12Z</time>
      </trkpt>
      <trkpt lat="42.34223" lon="-3.77299">
        <ele>873.6761</ele>
        <time>2021-07-05T17:51:23Z</time>
      </trkpt>
      <trkpt lat="42.34253" lon="-3.77512">
        <ele>866.7804</ele>
        <time>2021-07-05T17:51:34Z</time>
      </trkpt>
      <trkpt lat="42.34387" lon="-3.77772">
        <ele>852.9414</ele>
        <time>2021-07-05T17:51:45Z</time>
      </trkpt>
      <trkpt lat="42.34526" lon="-3.7795">
        <ele>849.6019</ele>
        <time>2021-07-05T17:51:56Z</time>
      </trkpt>
      <trkpt lat="42.34636" lon="-3.78147">
        <ele>839.2067</ele>
        <time>2021-07-05T17:52:07Z</time>
      </trkpt>
      <trkpt lat="42.34697" lon="-3.78426">
        <ele>841.255</ele>
        <time>2021-07-05T17:52:18Z</time>
      </trkpt>
      <trkpt lat="42.34766" lon="-3.78737">
        <ele>839.4933</ele>
        <time>2021-07-05T17:52:29Z</time>
      </trkpt>
      <trkpt lat="42.3484" lon="-3.79065">
        <ele>831.294</ele>
        <time>2021-07-05T17:52:40Z</time>
      </trkpt>
      <trkpt lat="42.34904" lon="-3.79307">
        <ele>830.5292</ele>
        <time>2021-07-05T17:52:51Z</time>
      </trkpt>
      <trkpt lat="42.3496" lon="-3.79472">
        <ele>832.0215</ele>
        <time>2021-07-05T17:53:02Z</time>
      </trkpt>
      <trkpt lat="42.34896" lon="-3.79579">
        <ele>827.9057</ele>
        <time>2021-07-05T17:53:13Z</time>
      </trkpt>
      <trkpt lat="42.35007" lon="-3.79789">
        <ele>831.073</ele>
        <time>2021-07-05T17:53:24Z</time>
      </trkpt>
      <trkpt lat="42.34946" lon="-3.80127">
        <ele>831.1957</ele>
        <time>2021-07-05T17:53:35Z</time>
      </trkpt>
      <trkpt lat="42.34808" lon="-3.80412">
        <ele>830.0276</ele>
        <time>2021-07-05T17:53:46Z</time>
      </trkpt>
      <trkpt lat="42.34775" lon="-3.8078">
        <ele>832.3204</ele>
        <time>2021-07-05T17:53:57Z</time>
      </trkpt>
      <trkpt lat="42.34813" lon="-3.81121">
        <ele>832.0083</ele>
        <time>2021-07-05T17:54:08Z</time>
      </trkpt>
      <trkpt lat="42.3486" lon="-3.81361">
        <ele>830.9216</ele>
        <time>2021-07-05T17:54:19Z</time>
      </trkpt>
      <trkpt lat="42.34948" lon="-3.81557">
        <ele>833.3123</ele>
        <time>2021-07-05T17:54:30Z</time>
      </trkpt>
      <trkpt lat="42.3507" lon="-3.8175">
        <ele>833.8315</ele>
        <time>2021-07-05T17:54:41Z</time>
      </trkpt>
      <trkpt lat="42.35246" lon="-3.81931">
        <ele>831.5199</ele>
        <time>2021-07-05T17:54:52Z</time>
      </trkpt>
      <trkpt lat="42.35492" lon="-3.82101">
        <ele>827.8067</ele>
        <time>2021-07-05T17:55:03Z</time>
      </trkpt>
      <trkpt lat="42.35746" lon="-3.8228">
        <ele>826.8727</ele>
        <time>2021-07-05T17:55:14Z</time>
      </trkpt>
      <trkpt lat="42.36021" lon="-3.82471">
        <ele>826.7235</ele>
        <time>2021-07-05T17:55:25Z</time>
      </trkpt>
      <trkpt lat="42.36276" lon="-3.82647">
        <ele>826.452</ele>
        <time>2021-07-05T17:55:36Z</time>
      </trkpt>
      <trkpt lat="42.36527" lon="-3.82823">
        <ele>829.7697</ele>
        <time>2021-07-05T17:55:47Z</time>
      </trkpt>
      <trkpt lat="42.36708" lon="-3.83097">
        <ele>829.6466</ele>
        <time>2021-07-05T17:55:58Z</time>
      </trkpt>
      <trkpt lat="42.36863" lon="-3.83414">
        <ele>831.5218</ele>
        <time>2021-07-05T17:56:09Z</time>
      </trkpt>
      <trkpt lat="42.36993" lon="-3.83707">
        <ele>837.6505</ele>
        <time>2021-07-05T17:56:20Z</time>
      </trkpt>
      <trkpt lat="42.3707" lon="-3.84021">
        <ele>836.0632</ele>
        <time>2021-07-05T17:56:31Z</time>
      </trkpt>
      <trkpt lat="42.37125" lon="-3.84269">
        <ele>839.3708</ele>
        <time>2021-07-05T17:56:42Z</time>
      </trkpt>
      <trkpt lat="42.37178" lon="-3.84503">
        <ele>844.5332</ele>
        <time>2021-07-05T17:56:53Z</time>
      </trkpt>
      <trkpt lat="42.3723" lon="-3.84741">
        <ele>850.1334</ele>
        <time>2021-07-05T17:57:04Z</time>
      </trkpt>
      <trkpt lat="42.37257" lon="-3.85076">
        <ele>855.2639</ele>
        <time>2021-07-05T17:57:15Z</time>
      </trkpt>
      <trkpt lat="42.3728" lon="-3.85475">
        <ele>864.6408</ele>
        <time>2021-07-05T17:57:26Z</time>
      </trkpt>
      <trkpt lat="42.37297" lon="-3.85858">
        <ele>877.9967</ele>
        <time>2021-07-05T17:57:37Z</time>
      </trkpt>
      <trkpt lat="42.37221" lon="-3.86236">
        <ele>878.2681</ele>
        <time>2021-07-05T17:57:48Z</time>
      </trkpt>
      <trkpt lat="42.37183" lon="-3.8659">
        <ele>881.7044</ele>
        <time>2021-07-05T17:57:59Z</time>
      </trkpt>
      <trkpt lat="42.37142" lon="-3.86978">
        <ele>888.1511</ele>
        <time>2021-07-05T17:58:10Z</time>
      </trkpt>
      <trkpt lat="42.37154" lon="-3.87367">
        <ele>901.6003</ele>
        <time>2021-07-05T17:58:21Z</time>
      </trkpt>
      <trkpt lat="42.37163" lon="-3.87746">
        <ele>915.6177</ele>
        <time>2021-07-05T17:58:32Z</time>
      </trkpt>
      <trkpt lat="42.37128" lon="-3.88137">
        <ele>923.2058</ele>
        <time>2021-07-05T17:58:43Z</time>
      </trkpt>
      <trkpt lat="42.37092" lon="-3.88529">
        <ele>921.1449</ele>
        <time>2021-07-05T17:58:54Z</time>
      </trkpt>
      <trkpt lat="42.37091" lon="-3.8893">
        <ele>911.7529</ele>
        <time>2021-07-05T17:59:05Z</time>
      </trkpt>
      <trkpt lat="42.37135" lon="-3.89326">
        <ele>902.4345</ele>
        <time>2021-07-05T17:59:16Z</time>
      </trkpt>
      <trkpt lat="42.37295" lon="-3.89675">
        <ele>891.1855</ele>
        <time>2021-07-05T17:59:27Z</time>
      </trkpt>
      <trkpt lat="42.37486" lon="-3.90044">
        <ele>882.976</ele>
        <time>2021-07-05T17:59:38Z</time>
      </trkpt>
      <trkpt lat="42.37658" lon="-3.90376">
        <ele>874.4663</ele>
        <time>2021-07-05T17:59:49Z</time>
      </trkpt>
      <trkpt lat="42.37832" lon="-3.90695">
        <ele>864.8991</ele>
        <time>2021-07-05T18:00:00Z</time>
      </trkpt>
      <trkpt lat="42.38034" lon="-3.90961">
        <ele>858.4234</ele>
        <time>2021-07-05T18:00:11Z</time>
      </trkpt>
      <trkpt lat="42.38094" lon="-3.91282">
        <ele>848.6409</ele>
        <time>2021-07-05T18:00:22Z</time>
      </trkpt>
      <trkpt lat="42.3802" lon="-3.91639">
        <ele>839.075</ele>
        <time>2021-07-05T18:00:33Z</time>
      </trkpt>
      <trkpt lat="42.37955" lon="-3.92004">
        <ele>840.044</ele>
        <time>2021-07-05T18:00:44Z</time>
      </trkpt>
      <trkpt lat="42.37889" lon="-3.92367">
        <ele>843.8792</ele>
        <time>2021-07-05T18:00:55Z</time>
      </trkpt>
      <trkpt lat="42.37935" lon="-3.92717">
        <ele>839.5981</ele>
        <time>2021-07-05T18:01:06Z</time>
      </trkpt>
      <trkpt lat="42.3804" lon="-3.92976">
        <ele>837.6398</ele>
        <time>2021-07-05T18:01:17Z</time>
      </trkpt>
      <trkpt lat="42.38123" lon="-3.93181">
        <ele>839.8686</ele>
        <time>2021-07-05T18:01:28Z</time>
      </trkpt>
      <trkpt lat="42.38206" lon="-3.93386">
        <ele>844.7155</ele>
        <time>2021-07-05T18:01:39Z</time>
      </trkpt>
      <trkpt lat="42.38277" lon="-3.93629">
        <ele>846.5127</ele>
        <time>2021-07-05T18:01:50Z</time>
      </trkpt>
      <trkpt lat="42.38257" lon="-3.93979">
        <ele>850.3591</ele>
        <time>2021-07-05T18:02:01Z</time>
      </trkpt>
      <trkpt lat="42.38203" lon="-3.94341">
        <ele>854.2921</ele>
        <time>2021-07-05T18:02:12Z</time>
      </trkpt>
      <trkpt lat="42.38189" lon="-3.94721">
        <ele>861.3858</ele>
        <time>2021-07-05T18:02:23Z</time>
      </trkpt>
      <trkpt lat="42.38183" lon="-3.95105">
        <ele>870.9833</ele>
        <time>2021-07-05T18:02:34Z</time>
      </trkpt>
      <trkpt lat="42.38217" lon="-3.95481">
        <ele>876.6543</ele>
        <time>2021-07-05T18:02:45Z</time>
      </trkpt>
      <trkpt lat="42.38293" lon="-3.95854">
        <ele>881.9763</ele>
        <time>2021-07-05T18:02:56Z</time>
      </trkpt>
      <trkpt lat="42.38358" lon="-3.96229">
        <ele>884.4658</ele>
        <time>2021-07-05T18:03:07Z</time>
      </trkpt>
      <trkpt lat="42.38456" lon="-3.96592">
        <ele>892.9416</ele>
        <time>2021-07-05T18:03:18Z</time>
      </trkpt>
      <trkpt lat="42.38613" lon="-3.9691">
        <ele>902.5331</ele>
        <time>2021-07-05T18:03:29Z</time>
      </trkpt>
      <trkpt lat="42.38737" lon="-3.97235">
        <ele>911.6117</ele>
        <time>2021-07-05T18:03:40Z</time>
      </trkpt>
      <trkpt lat="42.38869" lon="-3.97585">
        <ele>921.642</ele>
        <time>2021-07-05T18:03:51Z</time>
      </trkpt>
      <trkpt lat="42.38846" lon="-3.97948">
        <ele>929.2327</ele>
        <time>2021-07-05T18:04:02Z</time>
      </trkpt>
      <trkpt lat="42.38942" lon="-3.98316">
        <ele>934.0993</ele>
        <time>2021-07-05T18:04:13Z</time>
      </trkpt>
      <trkpt lat="42.39024" lon="-3.98714">
        <ele>934.9316</ele>
        <time>2021-07-05T18:04:24Z</time>
      </trkpt>
      <trkpt lat="42.39098" lon="-3.99072">
        <ele>936.6025</ele>
        <time>2021-07-05T18:04:35Z</time>
      </trkpt>
      <trkpt lat="42.39225" lon="-3.99433">
        <ele>926.6676</ele>
        <time>2021-07-05T18:04:46Z</time>
      </trkpt>
      <trkpt lat="42.39336" lon="-3.99802">
        <ele>907.9497</ele>
        <time>2021-07-05T18:04:57Z</time>
      </trkpt>
      <trkpt lat="42.39435" lon="-4.00176">
        <ele>891.8633</ele>
        <time>2021-07-05T18:05:08Z</time>
      </trkpt>
      <trkpt lat="42.39523" lon="-4.00557">
        <ele>873.3532</ele>
        <time>2021-07-05T18:05:19Z</time>
      </trkpt>
      <trkpt lat="42.39503" lon="-4.00952">
        <ele>860.5144</ele>
        <time>2021-07-05T18:05:30Z</time>
      </trkpt>
      <trkpt lat="42.39472" lon="-4.01335">
        <ele>855.081</ele>
        <time>2021-07-05T18:05:41Z</time>
      </trkpt>
      <trkpt lat="42.39502" lon="-4.01712">
        <ele>851.0699</ele>
        <time>2021-07-05T18:05:52Z</time>
      </trkpt>
      <trkpt lat="42.39633" lon="-4.0206">
        <ele>853.1708</ele>
        <time>2021-07-05T18:06:03Z</time>
      </trkpt>
      <trkpt lat="42.39602" lon="-4.02485">
        <ele>843.325</ele>
        <time>2021-07-05T18:06:14Z</time>
      </trkpt>
      <trkpt lat="42.39651" lon="-4.02876">
        <ele>833.5423</ele>
        <time>2021-07-05T18:06:25Z</time>
      </trkpt>
      <trkpt lat="42.39749" lon="-4.03213">
        <ele>828.361</ele>
        <time>2021-07-05T18:06:36Z</time>
      </trkpt>
      <trkpt lat="42.39857" lon="-4.03524">
        <ele>824.5654</ele>
        <time>2021-07-05T18:06:47Z</time>
      </trkpt>
      <trkpt lat="42.3993" lon="-4.03734">
        <ele>825.3349</ele>
        <time>2021-07-05T18:06:58Z</time>
      </trkpt>
      <trkpt lat="42.39906" lon="-4.04028">
        <ele>820.0624</ele>
        <time>2021-07-05T18:07:09Z</time>
      </trkpt>
      <trkpt lat="42.39863" lon="-4.04389">
        <ele>815.657</ele>
        <time>2021-07-05T18:07:20Z</time>
      </trkpt>
      <trkpt lat="42.39815" lon="-4.04779">
        <ele>818.4588</ele>
        <time>2021-07-05T18:07:31Z</time>
      </trkpt>
      <trkpt lat="42.39765" lon="-4.05181">
        <ele>816.7642</ele>
        <time>2021-07-05T18:07:42Z</time>
      </trkpt>
      <trkpt lat="42.39714" lon="-4.05587">
        <ele>814.2072</ele>
        <time>2021-07-05T18:07:53Z</time>
      </trkpt>
      <trkpt lat="42.39664" lon="-4.05997">
        <ele>808.3457</ele>
        <time>2021-07-05T18:08:04Z</time>
      </trkpt>
      <trkpt lat="42.39611" lon="-4.06437">
        <ele>804.8607</ele>
        <time>2021-07-05T18:08:15Z</time>
      </trkpt>
      <trkpt lat="42.39507" lon="-4.06798">
        <ele>803.0082</ele>
        <time>2021-07-05T18:08:26Z</time>
      </trkpt>
      <trkpt lat="42.39344" lon="-4.07069">
        <ele>801.1527</ele>
        <time>2021-07-05T18:08:37Z</time>
      </trkpt>
      <trkpt lat="42.39288" lon="-4.0744">
        <ele>800.4</ele>
        <time>2021-07-05T18:08:48Z</time>
      </trkpt>
      <trkpt lat="42.3927" lon="-4.07832">
        <ele>800.4553</ele>
        <time>2021-07-05T18:08:59Z</time>
      </trkpt>
      <trkpt lat="42.3914" lon="-4.08177">
        <ele>798.0825</ele>
        <time>2021-07-05T18:09:10Z</time>
      </trkpt>
      <trkpt lat="42.3895" lon="-4.08468">
        <ele>796.2953</ele>
        <time>2021-07-05T18:09:21Z</time>
      </trkpt>
      <trkpt lat="42.38752" lon="-4.08763">
        <ele>795.3311</ele>
        <time>2021-07-05T18:09:32Z</time>
      </trkpt>
      <trkpt lat="42.38548" lon="-4.09066">
        <ele>794.6607</ele>
        <time>2021-07-05T18:09:43Z</time>
      </trkpt>
      <trkpt lat="42.38347" lon="-4.09366">
        <ele>794.2695</ele>
        <time>2021-07-05T18:09:54Z</time>
      </trkpt>
      <trkpt lat="42.38147" lon="-4.09664">
        <ele>793.3524</ele>
        <time>2021-07-05T18:10:05Z</time>
      </trkpt>
      <trkpt lat="42.3793" lon="-4.09986">
        <ele>793.3485</ele>
        <time>2021-07-05T18:10:16Z</time>
      </trkpt>
      <trkpt lat="42.37734" lon="-4.10277">
        <ele>794.5754</ele>
        <time>2021-07-05T18:10:28Z</time>
      </trkpt>
      <trkpt lat="42.37598" lon="-4.10556">
        <ele>795.1193</ele>
        <time>2021-07-05T18:10:39Z</time>
      </trkpt>
      <trkpt lat="42.37578" lon="-4.10863">
        <ele>796.8116</ele>
        <time>2021-07-05T18:10:50Z</time>
      </trkpt>
      <trkpt lat="42.37634" lon="-4.11208">
        <ele>799.7954</ele>
        <time>2021-07-05T18:11:01Z</time>
      </trkpt>
      <trkpt lat="42.37765" lon="-4.11559">
        <ele>802.057</ele>
        <time>2021-07-05T18:11:12Z</time>
      </trkpt>
      <trkpt lat="42.37893" lon="-4.11913">
        <ele>803.0126</ele>
        <time>2021-07-05T18:11:23Z</time>
      </trkpt>
      <trkpt lat="42.38025" lon="-4.12278">
        <ele>804.0888</ele>
        <time>2021-07-05T18:11:34Z</time>
      </trkpt>
      <trkpt lat="42.38158" lon="-4.12649">
        <ele>805.3027</ele>
        <time>2021-07-05T18:11:45Z</time>
      </trkpt>
      <trkpt lat="42.38291" lon="-4.13019">
        <ele>809.3758</ele>
        <time>2021-07-05T18:11:56Z</time>
      </trkpt>
      <trkpt lat="42.38447" lon="-4.13366">
        <ele>808.9569</ele>
        <time>2021-07-05T18:12:07Z</time>
      </trkpt>
      <trkpt lat="42.38624" lon="-4.13709">
        <ele>807.0409</ele>
        <time>2021-07-05T18:12:18Z</time>
      </trkpt>
      <trkpt lat="42.38815" lon="-4.14078">
        <ele>807.312</ele>
        <time>2021-07-05T18:12:29Z</time>
      </trkpt>
      <trkpt lat="42.38973" lon="-4.14385">
        <ele>807.7351</ele>
        <time>2021-07-05T18:12:40Z</time>
      </trkpt>
      <trkpt lat="42.39145" lon="-4.14716">
        <ele>808.0225</ele>
        <time>2021-07-05T18:12:51Z</time>
      </trkpt>
      <trkpt lat="42.39313" lon="-4.15042">
        <ele>808.2791</ele>
        <time>2021-07-05T18:13:02Z</time>
      </trkpt>
      <trkpt lat="42.3947" lon="-4.15345">
        <ele>811.0838</ele>
        <time>2021-07-05T18:13:13Z</time>
      </trkpt>
      <trkpt lat="42.39638" lon="-4.15671">
        <ele>807.9042</ele>
        <time>2021-07-05T18:13:24Z</time>
      </trkpt>
      <trkpt lat="42.39808" lon="-4.16001">
        <ele>806.1609</ele>
        <time>2021-07-05T18:13:35Z</time>
      </trkpt>
      <trkpt lat="42.39983" lon="-4.1634">
        <ele>804.609</ele>
        <time>2021-07-05T18:13:46Z</time>
      </trkpt>
      <trkpt lat="42.40159" lon="-4.16677">
        <ele>803.3144</ele>
        <time>2021-07-05T18:13:57Z</time>
      </trkpt>
      <trkpt lat="42.4034" lon="-4.17029">
        <ele>801.3579</ele>
        <time>2021-07-05T18:14:08Z</time>
      </trkpt>
      <trkpt lat="42.40513" lon="-4.1736">
        <ele>801.0949</ele>
        <time>2021-07-05T18:14:19Z</time>
      </trkpt>
      <trkpt lat="42.40619" lon="-4.1767">
        <ele>800.6159</ele>
        <time>2021-07-05T18:14:30Z</time>
      </trkpt>
      <trkpt lat="42.40591" lon="-4.17927">
        <ele>803.4736</ele>
        <time>2021-07-05T18:14:41Z</time>
      </trkpt>
      <trkpt lat="42.40542" lon="-4.18299">
        <ele>806.5224</ele>
        <time>2021-07-05T18:14:52Z</time>
      </trkpt>
      <trkpt lat="42.40489" lon="-4.18694">
        <ele>809.0931</ele>
        <time>2021-07-05T18:15:03Z</time>
      </trkpt>
      <trkpt lat="42.40435" lon="-4.19092">
        <ele>810.2469</ele>
        <time>2021-07-05T18:15:14Z</time>
      </trkpt>
      <trkpt lat="42.40379" lon="-4.1949">
        <ele>801.6796</ele>
        <time>2021-07-05T18:15:25Z</time>
      </trkpt>
      <trkpt lat="42.40323" lon="-4.19894">
        <ele>802.6693</ele>
        <time>2021-07-05T18:15:36Z</time>
      </trkpt>
      <trkpt lat="42.40301" lon="-4.20305">
        <ele>802.0809</ele>
        <time>2021-07-05T18:15:47Z</time>
      </trkpt>
      <trkpt lat="42.4041" lon="-4.20688">
        <ele>803.1514</ele>
        <time>2021-07-05T18:15:58Z</time>
      </trkpt>
      <trkpt lat="42.40443" lon="-4.21089">
        <ele>804.2373</ele>
        <time>2021-07-05T18:16:09Z</time>
      </trkpt>
      <trkpt lat="42.40276" lon="-4.21408">
        <ele>807.6073</ele>
        <time>2021-07-05T18:16:20Z</time>
      </trkpt>
      <trkpt lat="42.40038" lon="-4.21642">
        <ele>810.0952</ele>
        <time>2021-07-05T18:16:31Z</time>
      </trkpt>
      <trkpt lat="42.39914" lon="-4.22005">
        <ele>809.9206</ele>
        <time>2021-07-05T18:16:42Z</time>
      </trkpt>
      <trkpt lat="42.40007" lon="-4.22384">
        <ele>804.5641</ele>
        <time>2021-07-05T18:16:53Z</time>
      </trkpt>
      <trkpt lat="42.40194" lon="-4.22715">
        <ele>802.0709</ele>
        <time>2021-07-05T18:17:04Z</time>
      </trkpt>
      <trkpt lat="42.40254" lon="-4.23115">
        <ele>798.5805</ele>
        <time>2021-07-05T18:17:15Z</time>
      </trkpt>
      <trkpt lat="42.40269" lon="-4.23485">
        <ele>798.6848</ele>
        <time>2021-07-05T18:17:26Z</time>
      </trkpt>
      <trkpt lat="42.40278" lon="-4.23744">
        <ele>803.4091</ele>
        <time>2021-07-05T18:17:37Z</time>
      </trkpt>
      <trkpt lat="42.40286" lon="-4.24006">
        <ele>811.196</ele>
        <time>2021-07-05T18:17:48Z</time>
      </trkpt>
      <trkpt lat="42.40295" lon="-4.24243">
        <ele>814.8975</ele>
        <time>2021-07-05T18:17:59Z</time>
      </trkpt>
      <trkpt lat="42.403" lon="-4.2429">
        <ele>817.0539</ele>
        <time>2021-07-05T18:18:10Z</time>
      </trkpt>
      <trkpt lat="42.40225" lon="-4.24414">
        <ele>813.9601</ele>
        <time>2021-07-05T18:18:21Z</time>
      </trkpt>
      <trkpt lat="42.40188" lon="-4.24611">
        <ele>815.672</ele>
        <time>2021-07-05T18:18:32Z</time>
      </trkpt>
      <trkpt lat="42.40217" lon="-4.24822">
        <ele>816.2549</ele>
        <time>2021-07-05T18:18:43Z</time>
      </trkpt>
      <trkpt lat="42.40243" lon="-4.25052">
        <ele>810.9705</ele>
        <time>2021-07-05T18:18:54Z</time>
      </trkpt>
      <trkpt lat="42.40157" lon="-4.25151">
        <ele>800.3291</ele>
        <time>2021-07-05T18:19:05Z</time>
      </trkpt>
      <trkpt lat="42.40259" lon="-4.25358">
        <ele>798.6634</ele>
        <time>2021-07-05T18:19:16Z</time>
      </trkpt>
      <trkpt lat="42.40329" lon="-4.25656">
        <ele>795.4676</ele>
        <time>2021-07-05T18:19:27Z</time>
      </trkpt>
      <trkpt lat="42.40395" lon="-4.26015">
        <ele>793.9982</ele>
        <time>2021-07-05T18:19:38Z</time>
      </trkpt>
      <trkpt lat="42.40462" lon="-4.2639">
        <ele>793.7742</ele>
        <time>2021-07-05T18:19:49Z</time>
      </trkpt>
      <trkpt lat="42.40532" lon="-4.26779">
        <ele>793.2776</ele>
        <time>2021-07-05T18:20:00Z</time>
      </trkpt>
      <trkpt lat="42.40603" lon="-4.27178">
        <ele>793.722</ele>
        <time>2021-07-05T18:20:11Z</time>
      </trkpt>
      <trkpt lat="42.40675" lon="-4.27584">
        <ele>794.2916</ele>
        <time>2021-07-05T18:20:22Z</time>
      </trkpt>
      <trkpt lat="42.40762" lon="-4.27958">
        <ele>802.9192</ele>
        <time>2021-07-05T18:20:33Z</time>
      </trkpt>
      <trkpt lat="42.40975" lon="-4.28228">
        <ele>810.4862</ele>
        <time>2021-07-05T18:20:44Z</time>
      </trkpt>
      <trkpt lat="42.41097" lon="-4.28597">
        <ele>805.2893</ele>
        <time>2021-07-05T18:20:55Z</time>
      </trkpt>
      <trkpt lat="42.41176" lon="-4.28997">
        <ele>804.2784</ele>
        <time>2021-07-05T18:21:06Z</time>
      </trkpt>
      <trkpt lat="42.41256" lon="-4.29398">
        <ele>805.4833</ele>
        <time>2021-07-05T18:21:17Z</time>
      </trkpt>
      <trkpt lat="42.41335" lon="-4.29792">
        <ele>806.4477</ele>
        <time>2021-07-05T18:21:28Z</time>
      </trkpt>
      <trkpt lat="42.41415" lon="-4.30197">
        <ele>807.6975</ele>
        <time>2021-07-05T18:21:39Z</time>
      </trkpt>
      <trkpt lat="42.41496" lon="-4.30607">
        <ele>808.4233</ele>
        <time>2021-07-05T18:21:50Z</time>
      </trkpt>
      <trkpt lat="42.41578" lon="-4.31018">
        <ele>809.2593</ele>
        <time>2021-07-05T18:22:01Z</time>
      </trkpt>
      <trkpt lat="42.41658" lon="-4.31421">
        <ele>810.4659</ele>
        <time>2021-07-05T18:22:12Z</time>
      </trkpt>
      <trkpt lat="42.41737" lon="-4.31823">
        <ele>811.0145</ele>
        <time>2021-07-05T18:22:23Z</time>
      </trkpt>
      <trkpt lat="42.41817" lon="-4.32229">
        <ele>807.5994</ele>
        <time>2021-07-05T18:22:34Z</time>
      </trkpt>
      <trkpt lat="42.41898" lon="-4.32636">
        <ele>805.9553</ele>
        <time>2021-07-05T18:22:45Z</time>
      </trkpt>
      <trkpt lat="42.41978" lon="-4.33039">
        <ele>804.314</ele>
        <time>2021-07-05T18:22:56Z</time>
      </trkpt>
      <trkpt lat="42.42056" lon="-4.33436">
        <ele>805.6955</ele>
        <time>2021-07-05T18:23:07Z</time>
      </trkpt>
      <trkpt lat="42.42137" lon="-4.33838">
        <ele>805.7155</ele>
        <time>2021-07-05T18:23:18Z</time>
      </trkpt>
      <trkpt lat="42.42213" lon="-4.34228">
        <ele>807.2306</ele>
        <time>2021-07-05T18:23:29Z</time>
      </trkpt>
      <trkpt lat="42.42288" lon="-4.34614">
        <ele>809.1949</ele>
        <time>2021-07-05T18:23:40Z</time>
      </trkpt>
      <trkpt lat="42.42348" lon="-4.34887">
        <ele>807.7507</ele>
        <time>2021-07-05T18:23:51Z</time>
      </trkpt>
      <trkpt lat="42.4235" lon="-4.34911">
        <ele>807.4613</ele>
        <time>2021-07-05T18:24:02Z</time>
      </trkpt>
      <trkpt lat="42.42348" lon="-4.34923">
        <ele>806.8771</ele>
        <time>2021-07-05T18:24:13Z</time>
      </trkpt>
      <trkpt lat="42.42182" lon="-4.34987">
        <ele>808.899</ele>
        <time>2021-07-05T18:24:24Z</time>
      </trkpt>
      <trkpt lat="42.41979" lon="-4.35075">
        <ele>806.9352</ele>
        <time>2021-07-05T18:24:35Z</time>
      </trkpt>
      <trkpt lat="42.4177" lon="-4.3516">
        <ele>807.1043</ele>
        <time>2021-07-05T18:24:46Z</time>
      </trkpt>
      <trkpt lat="42.41574" lon="-4.3524">
        <ele>806.6747</ele>
        <time>2021-07-05T18:24:57Z</time>
      </trkpt>
      <trkpt lat="42.41366" lon="-4.35327">
        <ele>806.7942</ele>
        <time>2021-07-05T18:25:08Z</time>
      </trkpt>
      <trkpt lat="42.41163" lon="-4.35412">
        <ele>805.7211</ele>
        <time>2021-07-05T18:25:19Z</time>
      </trkpt>
      <trkpt lat="42.40945" lon="-4.35502">
        <ele>805.7142</ele>
        <time>2021-07-05T18:25:30Z</time>
      </trkpt>
      <trkpt lat="42.40765" lon="-4.35611">
        <ele>812.1408</ele>
        <time>2021-07-05T18:25:41Z</time>
      </trkpt>
      <trkpt lat="42.40698" lon="-4.35787">
        <ele>817.1453</ele>
        <time>2021-07-05T18:25:52Z</time>
      </trkpt>
      <trkpt lat="42.40719" lon="-4.35979">
        <ele>817.9833</ele>
        <time>2021-07-05T18:26:03Z</time>
      </trkpt>
      <trkpt lat="42.40766" lon="-4.36197">
        <ele>816.7583</ele>
        <time>2021-07-05T18:26:14Z</time>
      </trkpt>
      <trkpt lat="42.40826" lon="-4.36451">
        <ele>816.2533</ele>
        <time>2021-07-05T18:26:25Z</time>
      </trkpt>
      <trkpt lat="42.40848" lon="-4.36745">
        <ele>820.0103</ele>
        <time>2021-07-05T18:26:36Z</time>
      </trkpt>
      <trkpt lat="42.40804" lon="-4.37089">
        <ele>819.3726</ele>
        <time>2021-07-05T18:26:47Z</time>
      </trkpt>
      <trkpt lat="42.40696" lon="-4.37472">
        <ele>818.3161</ele>
        <time>2021-07-05T18:26:58Z</time>
      </trkpt>
      <trkpt lat="42.40581" lon="-4.37855">
        <ele>816.2808</ele>
        <time>2021-07-05T18:27:09Z</time>
      </trkpt>
      <trkpt lat="42.40466" lon="-4.3824">
        <ele>817.7661</ele>
        <time>2021-07-05T18:27:20Z</time>
      </trkpt>
      <trkpt lat="42.40294" lon="-4.38576">
        <ele>825.5301</ele>
        <time>2021-07-05T18:27:31Z</time>
      </trkpt>
      <trkpt lat="42.40177" lon="-4.38959">
        <ele>828.3847</ele>
        <time>2021-07-05T18:27:42Z</time>
      </trkpt>
      <trkpt lat="42.40119" lon="-4.39355">
        <ele>825.2044</ele>
        <time>2021-07-05T18:27:53Z</time>
      </trkpt>
      <trkpt lat="42.40021" lon="-4.39746">
        <ele>826.0644</ele>
        <time>2021-07-05T18:28:04Z</time>
      </trkpt>
      <trkpt lat="42.39908" lon="-4.4013">
        <ele>827.8445</ele>
        <time>2021-07-05T18:28:15Z</time>
      </trkpt>
      <trkpt lat="42.39849" lon="-4.40532">
        <ele>831.0017</ele>
        <time>2021-07-05T18:28:26Z</time>
      </trkpt>
      <trkpt lat="42.39877" lon="-4.40946">
        <ele>832.8869</ele>
        <time>2021-07-05T18:28:37Z</time>
      </trkpt>
      <trkpt lat="42.39807" lon="-4.41351">
        <ele>818.8116</ele>
        <time>2021-07-05T18:28:48Z</time>
      </trkpt>
      <trkpt lat="42.39716" lon="-4.41754">
        <ele>812.4821</ele>
        <time>2021-07-05T18:28:59Z</time>
      </trkpt>
      <trkpt lat="42.39638" lon="-4.42155">
        <ele>816.3755</ele>
        <time>2021-07-05T18:29:10Z</time>
      </trkpt>
      <trkpt lat="42.3955" lon="-4.42543">
        <ele>809.7062</ele>
        <time>2021-07-05T18:29:21Z</time>
      </trkpt>
      <trkpt lat="42.3946" lon="-4.42933">
        <ele>810.5446</ele>
        <time>2021-07-05T18:29:32Z</time>
      </trkpt>
      <trkpt lat="42.39371" lon="-4.43323">
        <ele>813.0899</ele>
        <time>2021-07-05T18:29:43Z</time>
      </trkpt>
      <trkpt lat="42.3928" lon="-4.43718">
        <ele>818.0355</ele>
        <time>2021-07-05T18:29:54Z</time>
      </trkpt>
      <trkpt lat="42.39188" lon="-4.44113">
        <ele>822.3975</ele>
        <time>2021-07-05T18:30:05Z</time>
      </trkpt>
      <trkpt lat="42.39098" lon="-4.44501">
        <ele>823.4001</ele>
        <time>2021-07-05T18:30:16Z</time>
      </trkpt>
      <trkpt lat="42.39008" lon="-4.44889">
        <ele>823.52</ele>
        <time>2021-07-05T18:30:27Z</time>
      </trkpt>
      <trkpt lat="42.38917" lon="-4.4528">
        <ele>826.3503</ele>
        <time>2021-07-05T18:30:38Z</time>
      </trkpt>
      <trkpt lat="42.3884" lon="-4.45655">
        <ele>822.6237</ele>
        <time>2021-07-05T18:30:49Z</time>
      </trkpt>
      <trkpt lat="42.38831" lon="-4.45962">
        <ele>823.4003</ele>
        <time>2021-07-05T18:31:00Z</time>
      </trkpt>
      <trkpt lat="42.38807" lon="-4.46168">
        <ele>835.8061</ele>
        <time>2021-07-05T18:31:11Z</time>
      </trkpt>
      <trkpt lat="42.3877" lon="-4.46382">
        <ele>835.5095</ele>
        <time>2021-07-05T18:31:22Z</time>
      </trkpt>
      <trkpt lat="42.3875" lon="-4.46623">
        <ele>834.8708</ele>
        <time>2021-07-05T18:31:33Z</time>
      </trkpt>
      <trkpt lat="42.38691" lon="-4.46976">
        <ele>835.0587</ele>
        <time>2021-07-05T18:31:44Z</time>
      </trkpt>
      <trkpt lat="42.38588" lon="-4.47345">
        <ele>840.4756</ele>
        <time>2021-07-05T18:31:55Z</time>
      </trkpt>
      <trkpt lat="42.38481" lon="-4.47732">
        <ele>847.7634</ele>
        <time>2021-07-05T18:32:06Z</time>
      </trkpt>
      <trkpt lat="42.38374" lon="-4.48115">
        <ele>854.4817</ele>
        <time>2021-07-05T18:32:17Z</time>
      </trkpt>
      <trkpt lat="42.38267" lon="-4.48501">
        <ele>857.8793</ele>
        <time>2021-07-05T18:32:28Z</time>
      </trkpt>
      <trkpt lat="42.3816" lon="-4.48898">
        <ele>847.3406</ele>
        <time>2021-07-05T18:32:39Z</time>
      </trkpt>
      <trkpt lat="42.38054" lon="-4.4929">
        <ele>843.9671</ele>
        <time>2021-07-05T18:32:50Z</time>
      </trkpt>
      <trkpt lat="42.37949" lon="-4.49681">
        <ele>847.6123</ele>
        <time>2021-07-05T18:33:01Z</time>
      </trkpt>
      <trkpt lat="42.37844" lon="-4.50071">
        <ele>849.9781</ele>
        <time>2021-07-05T18:33:12Z</time>
      </trkpt>
      <trkpt lat="42.37739" lon="-4.50457">
        <ele>856.0276</ele>
        <time>2021-07-05T18:33:23Z</time>
      </trkpt>
      <trkpt lat="42.37634" lon="-4.50846">
        <ele>858.3908</ele>
        <time>2021-07-05T18:33:34Z</time>
      </trkpt>
      <trkpt lat="42.37528" lon="-4.51238">
        <ele>854.9376</ele>
        <time>2021-07-05T18:33:45Z</time>
      </trkpt>
      <trkpt lat="42.37417" lon="-4.51604">
        <ele>857.5809</ele>
        <time>2021-07-05T18:33:56Z</time>
      </trkpt>
      <trkpt lat="42.3729" lon="-4.51969">
        <ele>837.5919</ele>
        <time>2021-07-05T18:34:07Z</time>
      </trkpt>
      <trkpt lat="42.37177" lon="-4.52358">
        <ele>835.0623</ele>
        <time>2021-07-05T18:34:18Z</time>
      </trkpt>
      <trkpt lat="42.37063" lon="-4.52745">
        <ele>827.539</ele>
        <time>2021-07-05T18:34:29Z</time>
      </trkpt>
      <trkpt lat="42.36951" lon="-4.53132">
        <ele>821.7523</ele>
        <time>2021-07-05T18:34:40Z</time>
      </trkpt>
      <trkpt lat="42.36836" lon="-4.53527">
        <ele>818.265</ele>
        <time>2021-07-05T18:34:51Z</time>
      </trkpt>
      <trkpt lat="42.36723" lon="-4.53916">
        <ele>818.626</ele>
        <time>2021-07-05T18:35:02Z</time>
      </trkpt>
      <trkpt lat="42.36616" lon="-4.543">
        <ele>821.5257</ele>
        <time>2021-07-05T18:35:13Z</time>
      </trkpt>
      <trkpt lat="42.36513" lon="-4.54682">
        <ele>825.651</ele>
        <time>2021-07-05T18:35:24Z</time>
      </trkpt>
      <trkpt lat="42.36409" lon="-4.55069">
        <ele>829.7491</ele>
        <time>2021-07-05T18:35:35Z</time>
      </trkpt>
      <trkpt lat="42.36289" lon="-4.55456">
        <ele>817.9923</ele>
        <time>2021-07-05T18:35:46Z</time>
      </trkpt>
      <trkpt lat="42.36125" lon="-4.55803">
        <ele>813.3414</ele>
        <time>2021-07-05T18:35:57Z</time>
      </trkpt>
      <trkpt lat="42.35965" lon="-4.56143">
        <ele>810.9083</ele>
        <time>2021-07-05T18:36:08Z</time>
      </trkpt>
      <trkpt lat="42.35814" lon="-4.56465">
        <ele>814.8728</ele>
        <time>2021-07-05T18:36:19Z</time>
      </trkpt>
      <trkpt lat="42.35668" lon="-4.56776">
        <ele>821.2273</ele>
        <time>2021-07-05T18:36:30Z</time>
      </trkpt>
      <trkpt lat="42.35511" lon="-4.57107">
        <ele>830.1246</ele>
        <time>2021-07-05T18:36:41Z</time>
      </trkpt>
      <trkpt lat="42.35348" lon="-4.57452">
        <ele>838.2299</ele>
        <time>2021-07-05T18:36:52Z</time>
      </trkpt>
      <trkpt lat="42.35181" lon="-4.57807">
        <ele>848.545</ele>
        <time>2021-07-05T18:37:03Z</time>
      </trkpt>
      <trkpt lat="42.35056" lon="-4.58193">
        <ele>847.5988</ele>
        <time>2021-07-05T18:37:14Z</time>
      </trkpt>
      <trkpt lat="42.34913" lon="-4.58544">
        <ele>845.0426</ele>
        <time>2021-07-05T18:37:25Z</time>
      </trkpt>
      <trkpt lat="42.3475" lon="-4.58836">
        <ele>836.7742</ele>
        <time>2021-07-05T18:37:36Z</time>
      </trkpt>
      <trkpt lat="42.3457" lon="-4.59161">
        <ele>829.6698</ele>
        <time>2021-07-05T18:37:47Z</time>
      </trkpt>
      <trkpt lat="42.34418" lon="-4.59466">
        <ele>831.7112</ele>
        <time>2021-07-05T18:37:58Z</time>
      </trkpt>
      <trkpt lat="42.34367" lon="-4.59821">
        <ele>837.3779</ele>
        <time>2021-07-05T18:38:09Z</time>
      </trkpt>
      <trkpt lat="42.34427" lon="-4.60152">
        <ele>839.7583</ele>
        <time>2021-07-05T18:38:20Z</time>
      </trkpt>
      <trkpt lat="42.34513" lon="-4.6053">
        <ele>837.2768</ele>
        <time>2021-07-05T18:38:31Z</time>
      </trkpt>
      <trkpt lat="42.34497" lon="-4.60932">
        <ele>833.2339</ele>
        <time>2021-07-05T18:38:42Z</time>
      </trkpt>
      <trkpt lat="42.34468" lon="-4.61332">
        <ele>834.3316</ele>
        <time>2021-07-05T18:38:53Z</time>
      </trkpt>
      <trkpt lat="42.34412" lon="-4.61715">
        <ele>834.7435</ele>
        <time>2021-07-05T18:39:04Z</time>
      </trkpt>
      <trkpt lat="42.34232" lon="-4.62046">
        <ele>829.0678</ele>
        <time>2021-07-05T18:39:15Z</time>
      </trkpt>
      <trkpt lat="42.34031" lon="-4.62384">
        <ele>827.647</ele>
        <time>2021-07-05T18:39:26Z</time>
      </trkpt>
      <trkpt lat="42.3389" lon="-4.62721">
        <ele>826.8355</ele>
        <time>2021-07-05T18:39:37Z</time>
      </trkpt>
      <trkpt lat="42.33806" lon="-4.63034">
        <ele>826.3783</ele>
        <time>2021-07-05T18:39:48Z</time>
      </trkpt>
      <trkpt lat="42.33669" lon="-4.63397">
        <ele>825.8332</ele>
        <time>2021-07-05T18:39:59Z</time>
      </trkpt>
      <trkpt lat="42.33466" lon="-4.63714">
        <ele>826.6208</ele>
        <time>2021-07-05T18:40:10Z</time>
      </trkpt>
      <trkpt lat="42.33261" lon="-4.64029">
        <ele>827.1531</ele>
        <time>2021-07-05T18:40:21Z</time>
      </trkpt>
      <trkpt lat="42.33084" lon="-4.64362">
        <ele>825.2697</ele>
        <time>2021-07-05T18:40:32Z</time>
      </trkpt>
      <trkpt lat="42.32947" lon="-4.64666">
        <ele>825.726</ele>
        <time>2021-07-05T18:40:43Z</time>
      </trkpt>
      <trkpt lat="42.32904" lon="-4.64976">
        <ele>827.2539</ele>
        <time>2021-07-05T18:40:54Z</time>
      </trkpt>
      <trkpt lat="42.32887" lon="-4.65227">
        <ele>829.2355</ele>
        <time>2021-07-05T18:41:05Z</time>
      </trkpt>
      <trkpt lat="42.32829" lon="-4.65518">
        <ele>829.9234</ele>
        <time>2021-07-05T18:41:16Z</time>
      </trkpt>
      <trkpt lat="42.32755" lon="-4.6588">
        <ele>830.2612</ele>
        <time>2021-07-05T18:41:27Z</time>
      </trkpt>
      <trkpt lat="42.32668" lon="-4.66304">
        <ele>828.462</ele>
        <time>2021-07-05T18:41:38Z</time>
      </trkpt>
      <trkpt lat="42.32586" lon="-4.66708">
        <ele>827.571</ele>
        <time>2021-07-05T18:41:49Z</time>
      </trkpt>
      <trkpt lat="42.32503" lon="-4.67111">
        <ele>831.0684</ele>
        <time>2021-07-05T18:42:00Z</time>
      </trkpt>
      <trkpt lat="42.32419" lon="-4.67517">
        <ele>831.6372</ele>
        <time>2021-07-05T18:42:11Z</time>
      </trkpt>
      <trkpt lat="42.32337" lon="-4.67919">
        <ele>832.2304</ele>
        <time>2021-07-05T18:42:22Z</time>
      </trkpt>
      <trkpt lat="42.32254" lon="-4.68322">
        <ele>833.4822</ele>
        <time>2021-07-05T18:42:33Z</time>
      </trkpt>
      <trkpt lat="42.32178" lon="-4.68696">
        <ele>835.2945</ele>
        <time>2021-07-05T18:42:44Z</time>
      </trkpt>
      <trkpt lat="42.32093" lon="-4.69104">
        <ele>837.8012</ele>
        <time>2021-07-05T18:42:55Z</time>
      </trkpt>
      <trkpt lat="42.32009" lon="-4.6952">
        <ele>838.0961</ele>
        <time>2021-07-05T18:43:06Z</time>
      </trkpt>
      <trkpt lat="42.31923" lon="-4.69937">
        <ele>839.7037</ele>
        <time>2021-07-05T18:43:17Z</time>
      </trkpt>
      <trkpt lat="42.31822" lon="-4.70338">
        <ele>845.3708</ele>
        <time>2021-07-05T18:43:28Z</time>
      </trkpt>
      <trkpt lat="42.31684" lon="-4.70705">
        <ele>846.7342</ele>
        <time>2021-07-05T18:43:39Z</time>
      </trkpt>
      <trkpt lat="42.31546" lon="-4.71073">
        <ele>845.0279</ele>
        <time>2021-07-05T18:43:50Z</time>
      </trkpt>
      <trkpt lat="42.31408" lon="-4.71447">
        <ele>845.7595</ele>
        <time>2021-07-05T18:44:01Z</time>
      </trkpt>
      <trkpt lat="42.31269" lon="-4.71818">
        <ele>847.3639</ele>
        <time>2021-07-05T18:44:12Z</time>
      </trkpt>
      <trkpt lat="42.31127" lon="-4.72199">
        <ele>849.6196</ele>
        <time>2021-07-05T18:44:23Z</time>
      </trkpt>
      <trkpt lat="42.30986" lon="-4.72574">
        <ele>850.1188</ele>
        <time>2021-07-05T18:44:34Z</time>
      </trkpt>
      <trkpt lat="42.30845" lon="-4.72948">
        <ele>849.2217</ele>
        <time>2021-07-05T18:44:45Z</time>
      </trkpt>
      <trkpt lat="42.30702" lon="-4.73334">
        <ele>850.3621</ele>
        <time>2021-07-05T18:44:56Z</time>
      </trkpt>
      <trkpt lat="42.30557" lon="-4.73723">
        <ele>853.498</ele>
        <time>2021-07-05T18:45:07Z</time>
      </trkpt>
      <trkpt lat="42.30413" lon="-4.74111">
        <ele>854.1664</ele>
        <time>2021-07-05T18:45:18Z</time>
      </trkpt>
      <trkpt lat="42.30267" lon="-4.74501">
        <ele>854.619</ele>
        <time>2021-07-05T18:45:29Z</time>
      </trkpt>
      <trkpt lat="42.30128" lon="-4.74885">
        <ele>853.903</ele>
        <time>2021-07-05T18:45:40Z</time>
      </trkpt>
      <trkpt lat="42.29974" lon="-4.75305">
        <ele>855.1975</ele>
        <time>2021-07-05T18:45:51Z</time>
      </trkpt>
      <trkpt lat="42.29833" lon="-4.75693">
        <ele>855.5281</ele>
        <time>2021-07-05T18:46:02Z</time>
      </trkpt>
      <trkpt lat="42.29737" lon="-4.76079">
        <ele>842.8411</ele>
        <time>2021-07-05T18:46:13Z</time>
      </trkpt>
      <trkpt lat="42.2965" lon="-4.76471">
        <ele>834.8484</ele>
        <time>2021-07-05T18:46:24Z</time>
      </trkpt>
      <trkpt lat="42.29415" lon="-4.76661">
        <ele>839.9569</ele>
        <time>2021-07-05T18:46:35Z</time>
      </trkpt>
      <trkpt lat="42.29279" lon="-4.76896">
        <ele>841.5015</ele>
        <time>2021-07-05T18:46:46Z</time>
      </trkpt>
      <trkpt lat="42.29195" lon="-4.77145">
        <ele>852.0989</ele>
        <time>2021-07-05T18:46:57Z</time>
      </trkpt>
      <trkpt lat="42.29111" lon="-4.77388">
        <ele>859.5332</ele>
        <time>2021-07-05T18:47:08Z</time>
      </trkpt>
      <trkpt lat="42.29007" lon="-4.77689">
        <ele>861.344</ele>
        <time>2021-07-05T18:47:19Z</time>
      </trkpt>
      <trkpt lat="42.28909" lon="-4.77979">
        <ele>850.5268</ele>
        <time>2021-07-05T18:47:30Z</time>
      </trkpt>
      <trkpt lat="42.28907" lon="-4.78166">
        <ele>848.8548</ele>
        <time>2021-07-05T18:47:41Z</time>
      </trkpt>
      <trkpt lat="42.28766" lon="-4.7839">
        <ele>852.0405</ele>
        <time>2021-07-05T18:47:52Z</time>
      </trkpt>
      <trkpt lat="42.28642" lon="-4.78748">
        <ele>853.137</ele>
        <time>2021-07-05T18:48:03Z</time>
      </trkpt>
      <trkpt lat="42.28516" lon="-4.79117">
        <ele>854.6155</ele>
        <time>2021-07-05T18:48:14Z</time>
      </trkpt>
      <trkpt lat="42.28387" lon="-4.79492">
        <ele>858.1321</ele>
        <time>2021-07-05T18:48:25Z</time>
      </trkpt>
      <trkpt lat="42.28255" lon="-4.79874">
        <ele>859.4812</ele>
        <time>2021-07-05T18:48:36Z</time>
      </trkpt>
      <trkpt lat="42.28128" lon="-4.80249">
        <ele>863.831</ele>
        <time>2021-07-05T18:48:47Z</time>
      </trkpt>
      <trkpt lat="42.27998" lon="-4.8062">
        <ele>865.6174</ele>
        <time>2021-07-05T18:48:58Z</time>
      </trkpt>
      <trkpt lat="42.27878" lon="-4.80967">
        <ele>862.4389</ele>
        <time>2021-07-05T18:49:09Z</time>
      </trkpt>
      <trkpt lat="42.27748" lon="-4.81347">
        <ele>861.7324</ele>
        <time>2021-07-05T18:49:20Z</time>
      </trkpt>
      <trkpt lat="42.27617" lon="-4.81723">
        <ele>862.086</ele>
        <time>2021-07-05T18:49:31Z</time>
      </trkpt>
      <trkpt lat="42.27484" lon="-4.82101">
        <ele>855.0378</ele>
        <time>2021-07-05T18:49:42Z</time>
      </trkpt>
      <trkpt lat="42.27352" lon="-4.82482">
        <ele>846.1367</ele>
        <time>2021-07-05T18:49:53Z</time>
      </trkpt>
      <trkpt lat="42.27219" lon="-4.82865">
        <ele>842.8328</ele>
        <time>2021-07-05T18:50:04Z</time>
      </trkpt>
      <trkpt lat="42.27107" lon="-4.8319">
        <ele>841.0392</ele>
        <time>2021-07-05T18:50:15Z</time>
      </trkpt>
      <trkpt lat="42.27017" lon="-4.83534">
        <ele>832.6516</ele>
        <time>2021-07-05T18:50:26Z</time>
      </trkpt>
      <trkpt lat="42.26933" lon="-4.83872">
        <ele>825.68</ele>
        <time>2021-07-05T18:50:37Z</time>
      </trkpt>
      <trkpt lat="42.26848" lon="-4.84214">
        <ele>820.5848</ele>
        <time>2021-07-05T18:50:48Z</time>
      </trkpt>
      <trkpt lat="42.26763" lon="-4.84557">
        <ele>820.8542</ele>
        <time>2021-07-05T18:50:59Z</time>
      </trkpt>
      <trkpt lat="42.26686" lon="-4.84865">
        <ele>815.7679</ele>
        <time>2021-07-05T18:51:10Z</time>
      </trkpt>
      <trkpt lat="42.26603" lon="-4.85194">
        <ele>811.4007</ele>
        <time>2021-07-05T18:51:21Z</time>
      </trkpt>
      <trkpt lat="42.26533" lon="-4.85474">
        <ele>807.1945</ele>
        <time>2021-07-05T18:51:32Z</time>
      </trkpt>
      <trkpt lat="42.26485" lon="-4.85663">
        <ele>809.9179</ele>
        <time>2021-07-05T18:51:43Z</time>
      </trkpt>
      <trkpt lat="42.26432" lon="-4.85871">
        <ele>809.873</ele>
        <time>2021-07-05T18:51:54Z</time>
      </trkpt>
      <trkpt lat="42.26374" lon="-4.86115">
        <ele>810.3528</ele>
        <time>2021-07-05T18:52:05Z</time>
      </trkpt>
      <trkpt lat="42.26284" lon="-4.8648">
        <ele>813.5986</ele>
        <time>2021-07-05T18:52:16Z</time>
      </trkpt>
      <trkpt lat="42.26192" lon="-4.86852">
        <ele>816.0266</ele>
        <time>2021-07-05T18:52:27Z</time>
      </trkpt>
      <trkpt lat="42.26095" lon="-4.87242">
        <ele>818.0968</ele>
        <time>2021-07-05T18:52:38Z</time>
      </trkpt>
      <trkpt lat="42.26008" lon="-4.87591">
        <ele>821.6662</ele>
        <time>2021-07-05T18:52:49Z</time>
      </trkpt>
      <trkpt lat="42.25912" lon="-4.87976">
        <ele>825.993</ele>
        <time>2021-07-05T18:53:00Z</time>
      </trkpt>
      <trkpt lat="42.25831" lon="-4.88304">
        <ele>830.0961</ele>
        <time>2021-07-05T18:53:11Z</time>
      </trkpt>
      <trkpt lat="42.25754" lon="-4.8861">
        <ele>828.0793</ele>
        <time>2021-07-05T18:53:22Z</time>
      </trkpt>
      <trkpt lat="42.25685" lon="-4.88888">
        <ele>823.1357</ele>
        <time>2021-07-05T18:53:33Z</time>
      </trkpt>
      <trkpt lat="42.2561" lon="-4.89181">
        <ele>819.1623</ele>
        <time>2021-07-05T18:53:44Z</time>
      </trkpt>
      <trkpt lat="42.2556" lon="-4.89472">
        <ele>822.9234</ele>
        <time>2021-07-05T18:53:55Z</time>
      </trkpt>
      <trkpt lat="42.25528" lon="-4.89776">
        <ele>826.7483</ele>
        <time>2021-07-05T18:54:06Z</time>
      </trkpt>
      <trkpt lat="42.2549" lon="-4.90129">
        <ele>831.7442</ele>
        <time>2021-07-05T18:54:17Z</time>
      </trkpt>
      <trkpt lat="42.25448" lon="-4.90516">
        <ele>834.7037</ele>
        <time>2021-07-05T18:54:28Z</time>
      </trkpt>
      <trkpt lat="42.25406" lon="-4.90908">
        <ele>833.3675</ele>
        <time>2021-07-05T18:54:39Z</time>
      </trkpt>
      <trkpt lat="42.25364" lon="-4.91295">
        <ele>835.2923</ele>
        <time>2021-07-05T18:54:50Z</time>
      </trkpt>
      <trkpt lat="42.25323" lon="-4.91682">
        <ele>839.0511</ele>
        <time>2021-07-05T18:55:01Z</time>
      </trkpt>
      <trkpt lat="42.25286" lon="-4.92033">
        <ele>841.9957</ele>
        <time>2021-07-05T18:55:12Z</time>
      </trkpt>
      <trkpt lat="42.25259" lon="-4.92296">
        <ele>850.6915</ele>
        <time>2021-07-05T18:55:23Z</time>
      </trkpt>
      <trkpt lat="42.25227" lon="-4.92606">
        <ele>845.0827</ele>
        <time>2021-07-05T18:55:34Z</time>
      </trkpt>
      <trkpt lat="42.25192" lon="-4.92947">
        <ele>833.2228</ele>
        <time>2021-07-05T18:55:45Z</time>
      </trkpt>
      <trkpt lat="42.25154" lon="-4.93313">
        <ele>827.4792</ele>
        <time>2021-07-05T18:55:56Z</time>
      </trkpt>
      <trkpt lat="42.25116" lon="-4.93679">
        <ele>825.2658</ele>
        <time>2021-07-05T18:56:07Z</time>
      </trkpt>
      <trkpt lat="42.2508" lon="-4.94033">
        <ele>821.6063</ele>
        <time>2021-07-05T18:56:18Z</time>
      </trkpt>
      <trkpt lat="42.25044" lon="-4.94387">
        <ele>823.7646</ele>
        <time>2021-07-05T18:56:29Z</time>
      </trkpt>
      <trkpt lat="42.25006" lon="-4.94735">
        <ele>819.0022</ele>
        <time>2021-07-05T18:56:40Z</time>
      </trkpt>
      <trkpt lat="42.24971" lon="-4.95068">
        <ele>814.978</ele>
        <time>2021-07-05T18:56:51Z</time>
      </trkpt>
      <trkpt lat="42.24944" lon="-4.95362">
        <ele>799.9045</ele>
        <time>2021-07-05T18:57:02Z</time>
      </trkpt>
      <trkpt lat="42.24917" lon="-4.95594">
        <ele>802.9317</ele>
        <time>2021-07-05T18:57:13Z</time>
      </trkpt>
      <trkpt lat="42.24826" lon="-4.95609">
        <ele>801.6927</ele>
        <time>2021-07-05T18:57:24Z</time>
      </trkpt>
      <trkpt lat="42.24604" lon="-4.95658">
        <ele>802.2248</ele>
        <time>2021-07-05T18:57:35Z</time>
      </trkpt>
      <trkpt lat="42.24374" lon="-4.95762">
        <ele>800.9896</ele>
        <time>2021-07-05T18:57:46Z</time>
      </trkpt>
      <trkpt lat="42.24122" lon="-4.95883">
        <ele>794.7958</ele>
        <time>2021-07-05T18:57:57Z</time>
      </trkpt>
      <trkpt lat="42.23878" lon="-4.96072">
        <ele>793.5699</ele>
        <time>2021-07-05T18:58:08Z</time>
      </trkpt>
      <trkpt lat="42.23735" lon="-4.96404">
        <ele>794.4725</ele>
        <time>2021-07-05T18:58:19Z</time>
      </trkpt>
      <trkpt lat="42.23594" lon="-4.96717">
        <ele>797.2464</ele>
        <time>2021-07-05T18:58:30Z</time>
      </trkpt>
      <trkpt lat="42.23442" lon="-4.96858">
        <ele>790.8795</ele>
        <time>2021-07-05T18:58:41Z</time>
      </trkpt>
      <trkpt lat="42.2353" lon="-4.96847">
        <ele>791.4139</ele>
        <time>2021-07-05T18:58:52Z</time>
      </trkpt>
      <trkpt lat="42.23777" lon="-4.96761">
        <ele>792.5208</ele>
        <time>2021-07-05T18:59:03Z</time>
      </trkpt>
      <trkpt lat="42.24047" lon="-4.96811">
        <ele>793.9472</ele>
        <time>2021-07-05T18:59:14Z</time>
      </trkpt>
      <trkpt lat="42.24259" lon="-4.97052">
        <ele>793.6367</ele>
        <time>2021-07-05T18:59:25Z</time>
      </trkpt>
      <trkpt lat="42.24461" lon="-4.97345">
        <ele>794.3446</ele>
        <time>2021-07-05T18:59:36Z</time>
      </trkpt>
      <trkpt lat="42.24523" lon="-4.9772">
        <ele>797.3353</ele>
        <time>2021-07-05T18:59:47Z</time>
      </trkpt>
      <trkpt lat="42.2447" lon="-4.98131">
        <ele>798.8605</ele>
        <time>2021-07-05T18:59:58Z</time>
      </trkpt>
      <trkpt lat="42.2442" lon="-4.98533">
        <ele>801.2723</ele>
        <time>2021-07-05T19:00:09Z</time>
      </trkpt>
      <trkpt lat="42.24369" lon="-4.98916">
        <ele>804.859</ele>
        <time>2021-07-05T19:00:20Z</time>
      </trkpt>
      <trkpt lat="42.24326" lon="-4.99239">
        <ele>809.4</ele>
        <time>2021-07-05T19:00:31Z</time>
      </trkpt>
      <trkpt lat="42.24307" lon="-4.99388">
        <ele>811.8265</ele>
        <time>2021-07-05T19:00:42Z</time>
      </trkpt>
      <trkpt lat="42.24277" lon="-4.99623">
        <ele>814.1705</ele>
        <time>2021-07-05T19:00:53Z</time>
      </trkpt>
      <trkpt lat="42.24243" lon="-4.9989">
        <ele>818.1378</ele>
        <time>2021-07-05T19:01:04Z</time>
      </trkpt>
      <trkpt lat="42.24184" lon="-5.00156">
        <ele>817.1504</ele>
        <time>2021-07-05T19:01:15Z</time>
      </trkpt>
      <trkpt lat="42.24102" lon="-5.00494">
        <ele>820.53</ele>
        <time>2021-07-05T19:01:26Z</time>
      </trkpt>
      <trkpt lat="42.24029" lon="-5.00794">
        <ele>820.1723</ele>
        <time>2021-07-05T19:01:37Z</time>
      </trkpt>
      <trkpt lat="42.23969" lon="-5.01037">
        <ele>819.8202</ele>
        <time>2021-07-05T19:01:48Z</time>
      </trkpt>
      <trkpt lat="42.23936" lon="-5.0117">
        <ele>819.1419</ele>
        <time>2021-07-05T19:01:59Z</time>
      </trkpt>
      <trkpt lat="42.23936" lon="-5.01172">
        <ele>820.1625</ele>
        <time>2021-07-05T19:02:59Z</time>
      </trkpt>
      <trkpt lat="42.23936" lon="-5.01171">
        <ele>818.4398</ele>
        <time>2021-07-05T19:03:59Z</time>
      </trkpt>
      <trkpt lat="42.23936" lon="-5.01169">
        <ele>816.3978</ele>
        <time>2021-07-05T19:04:59Z</time>
      </trkpt>
      <trkpt lat="42.23936" lon="-5.01171">
        <ele>818.3138</ele>
        <time>2021-07-05T19:05:59Z</time>
      </trkpt>
      <trkpt lat="42.23936" lon="-5.01171">
        <ele>820.1585</ele>
        <time>2021-07-05T19:06:58Z</time>
      </trkpt>
      <trkpt lat="42.23935" lon="-5.01171">
        <ele>819.9049</ele>
        <time>2021-07-05T19:07:58Z</time>
      </trkpt>
      <trkpt lat="42.23939" lon="-5.01172">
        <ele>819.9643</ele>
        <time>2021-07-05T19:08:19Z</time>
      </trkpt>
      <trkpt lat="42.2394" lon="-5.01172">
        <ele>820.7019</ele>
        <time>2021-07-05T19:09:19Z</time>
      </trkpt>
      <trkpt lat="42.2394" lon="-5.01171">
        <ele>820.9312</ele>
        <time>2021-07-05T19:10:18Z</time>
      </trkpt>
      <trkpt lat="42.23939" lon="-5.01174">
        <ele>817.1736</ele>
        <time>2021-07-05T19:11:18Z</time>
      </trkpt>
      <trkpt lat="42.2394" lon="-5.01175">
        <ele>817.7767</ele>
        <time>2021-07-05T19:12:17Z</time>
      </trkpt>
      <trkpt lat="42.23938" lon="-5.01174">
        <ele>818.8576</ele>
        <time>2021-07-05T19:13:16Z</time>
      </trkpt>
      <trkpt lat="42.23893" lon="-5.01341">
        <ele>820.4829</ele>
        <time>2021-07-05T19:13:27Z</time>
      </trkpt>
      <trkpt lat="42.23813" lon="-5.01673">
        <ele>822.4825</ele>
        <time>2021-07-05T19:13:38Z</time>
      </trkpt>
      <trkpt lat="42.23734" lon="-5.0199">
        <ele>827.1567</ele>
        <time>2021-07-05T19:13:49Z</time>
      </trkpt>
      <trkpt lat="42.23667" lon="-5.02241">
        <ele>830.3021</ele>
        <time>2021-07-05T19:14:00Z</time>
      </trkpt>
      <trkpt lat="42.23624" lon="-5.0235">
        <ele>827.6083</ele>
        <time>2021-07-05T19:14:11Z</time>
      </trkpt>
      <trkpt lat="42.23472" lon="-5.02462">
        <ele>830.4836</ele>
        <time>2021-07-05T19:14:22Z</time>
      </trkpt>
      <trkpt lat="42.23274" lon="-5.02528">
        <ele>834.9538</ele>
        <time>2021-07-05T19:14:33Z</time>
      </trkpt>
      <trkpt lat="42.23216" lon="-5.02534">
        <ele>831.6314</ele>
        <time>2021-07-05T19:14:44Z</time>
      </trkpt>
      <trkpt lat="42.23152" lon="-5.0254">
        <ele>830.6976</ele>
        <time>2021-07-05T19:14:55Z</time>
      </trkpt>
      <trkpt lat="42.23108" lon="-5.02545">
        <ele>829.5401</ele>
        <time>2021-07-05T19:15:07Z</time>
      </trkpt>
      <trkpt lat="42.23057" lon="-5.02551">
        <ele>830.0252</ele>
        <time>2021-07-05T19:15:18Z</time>
      </trkpt>
      <trkpt lat="42.23052" lon="-5.02551">
        <ele>828.4707</ele>
        <time>2021-07-05T19:15:29Z</time>
      </trkpt>
      <trkpt lat="42.23178" lon="-5.02531">
        <ele>830.027</ele>
        <time>2021-07-05T19:15:40Z</time>
      </trkpt>
      <trkpt lat="42.23304" lon="-5.02517">
        <ele>831.9463</ele>
        <time>2021-07-05T19:15:51Z</time>
      </trkpt>
      <trkpt lat="42.23448" lon="-5.02471">
        <ele>830.9745</ele>
        <time>2021-07-05T19:16:02Z</time>
      </trkpt>
      <trkpt lat="42.23609" lon="-5.0234">
        <ele>829.3578</ele>
        <time>2021-07-05T19:16:13Z</time>
      </trkpt>
      <trkpt lat="42.23632" lon="-5.0237">
        <ele>831.1037</ele>
        <time>2021-07-05T19:16:24Z</time>
      </trkpt>
      <trkpt lat="42.23573" lon="-5.02627">
        <ele>831.7015</ele>
        <time>2021-07-05T19:16:35Z</time>
      </trkpt>
      <trkpt lat="42.23507" lon="-5.02881">
        <ele>826.8818</ele>
        <time>2021-07-05T19:16:46Z</time>
      </trkpt>
      <trkpt lat="42.23448" lon="-5.03104">
        <ele>824.4239</ele>
        <time>2021-07-05T19:16:57Z</time>
      </trkpt>
      <trkpt lat="42.23393" lon="-5.03306">
        <ele>827.5684</ele>
        <time>2021-07-05T19:17:08Z</time>
      </trkpt>
      <trkpt lat="42.23372" lon="-5.03379">
        <ele>827.3907</ele>
        <time>2021-07-05T19:17:19Z</time>
      </trkpt>
      <trkpt lat="42.23376" lon="-5.03362">
        <ele>827.637</ele>
        <time>2021-07-05T19:17:30Z</time>
      </trkpt>
      <trkpt lat="42.23373" lon="-5.03359">
        <ele>826.4696</ele>
        <time>2021-07-05T19:17:41Z</time>
      </trkpt>
      <trkpt lat="42.23298" lon="-5.03323">
        <ele>828.5817</ele>
        <time>2021-07-05T19:17:52Z</time>
      </trkpt>
      <trkpt lat="42.23231" lon="-5.03282">
        <ele>832.2287</ele>
        <time>2021-07-05T19:18:03Z</time>
      </trkpt>
      <trkpt lat="42.23221" lon="-5.03273">
        <ele>832.0408</ele>
        <time>2021-07-05T19:18:14Z</time>
      </trkpt>
      <trkpt lat="42.2325" lon="-5.03292">
        <ele>830.6302</ele>
        <time>2021-07-05T19:18:25Z</time>
      </trkpt>
      <trkpt lat="42.23312" lon="-5.03328">
        <ele>829.0046</ele>
        <time>2021-07-05T19:18:36Z</time>
      </trkpt>
      <trkpt lat="42.23361" lon="-5.03352">
        <ele>827.1763</ele>
        <time>2021-07-05T19:18:47Z</time>
      </trkpt>
      <trkpt lat="42.23372" lon="-5.03356">
        <ele>829.1764</ele>
        <time>2021-07-05T19:18:58Z</time>
      </trkpt>
      <trkpt lat="42.23377" lon="-5.03343">
        <ele>826.6524</ele>
        <time>2021-07-05T19:19:13Z</time>
      </trkpt>
      <trkpt lat="42.23448" lon="-5.03078">
        <ele>826.2347</ele>
        <time>2021-07-05T19:19:24Z</time>
      </trkpt>
      <trkpt lat="42.23552" lon="-5.02685">
        <ele>831.9157</ele>
        <time>2021-07-05T19:19:35Z</time>
      </trkpt>
      <trkpt lat="42.2362" lon="-5.02394">
        <ele>829.0418</ele>
        <time>2021-07-05T19:19:46Z</time>
      </trkpt>
      <trkpt lat="42.23675" lon="-5.02199">
        <ele>829.2484</ele>
        <time>2021-07-05T19:19:57Z</time>
      </trkpt>
      <trkpt lat="42.23726" lon="-5.02003">
        <ele>825.3372</ele>
        <time>2021-07-05T19:20:08Z</time>
      </trkpt>
      <trkpt lat="42.23743" lon="-5.02047">
        <ele>827.1095</ele>
        <time>2021-07-05T19:20:19Z</time>
      </trkpt>
      <trkpt lat="42.2376" lon="-5.02132">
        <ele>829.5172</ele>
        <time>2021-07-05T19:20:30Z</time>
      </trkpt>
      <trkpt lat="42.23794" lon="-5.02162">
        <ele>834.3295</ele>
        <time>2021-07-05T19:20:41Z</time>
      </trkpt>
      <trkpt lat="42.23851" lon="-5.0214">
        <ele>836.7483</ele>
        <time>2021-07-05T19:20:52Z</time>
      </trkpt>
      <trkpt lat="42.23924" lon="-5.02152">
        <ele>829.4016</ele>
        <time>2021-07-05T19:21:03Z</time>
      </trkpt>
      <trkpt lat="42.23934" lon="-5.02167">
        <ele>828.4262</ele>
        <time>2021-07-05T19:21:14Z</time>
      </trkpt>
      <trkpt lat="42.23934" lon="-5.02165">
        <ele>827.6767</ele>
        <time>2021-07-05T19:22:13Z</time>
      </trkpt>
      <trkpt lat="42.23933" lon="-5.02175">
        <ele>828.4987</ele>
        <time>2021-07-05T19:22:32Z</time>
      </trkpt>
      <trkpt lat="42.23896" lon="-5.02222">
        <ele>827.8416</ele>
        <time>2021-07-05T19:22:43Z</time>
      </trkpt>
      <trkpt lat="42.23888" lon="-5.02288">
        <ele>827.2473</ele>
        <time>2021-07-05T19:22:54Z</time>
      </trkpt>
      <trkpt lat="42.23882" lon="-5.02325">
        <ele>828.1113</ele>
        <time>2021-07-05T19:23:05Z</time>
      </trkpt>
      <trkpt lat="42.23833" lon="-5.02356">
        <ele>828.4979</ele>
        <time>2021-07-05T19:23:16Z</time>
      </trkpt>
      <trkpt lat="42.23839" lon="-5.02395">
        <ele>827.5427</ele>
        <time>2021-07-05T19:23:27Z</time>
      </trkpt>
      <trkpt lat="42.2386" lon="-5.0245">
        <ele>824.8377</ele>
        <time>2021-07-05T19:23:38Z</time>
      </trkpt>
      <trkpt lat="42.23876" lon="-5.02519">
        <ele>822.297</ele>
        <time>2021-07-05T19:23:49Z</time>
      </trkpt>
      <trkpt lat="42.23895" lon="-5.02605">
        <ele>818.0384</ele>
        <time>2021-07-05T19:24:00Z</time>
      </trkpt>
      <trkpt lat="42.23916" lon="-5.02698">
        <ele>815.652</ele>
        <time>2021-07-05T19:24:11Z</time>
      </trkpt>
      <trkpt lat="42.23941" lon="-5.02795">
        <ele>812.182</ele>
        <time>2021-07-05T19:24:22Z</time>
      </trkpt>
      <trkpt lat="42.23967" lon="-5.02876">
        <ele>810.8106</ele>
        <time>2021-07-05T19:24:33Z</time>
      </trkpt>
      <trkpt lat="42.23974" lon="-5.02957">
        <ele>808.8888</ele>
        <time>2021-07-05T19:24:44Z</time>
      </trkpt>
      <trkpt lat="42.23981" lon="-5.03028">
        <ele>806.4948</ele>
        <time>2021-07-05T19:24:55Z</time>
      </trkpt>
      <trkpt lat="42.23982" lon="-5.03043">
        <ele>808.4651</ele>
        <time>2021-07-05T19:25:06Z</time>
      </trkpt>
      <trkpt lat="42.23997" lon="-5.03135">
        <ele>805.9895</ele>
        <time>2021-07-05T19:25:17Z</time>
      </trkpt>
      <trkpt lat="42.24009" lon="-5.03202">
        <ele>806.9136</ele>
        <time>2021-07-05T19:25:28Z</time>
      </trkpt>
      <trkpt lat="42.24027" lon="-5.03308">
        <ele>804.4884</ele>
        <time>2021-07-05T19:25:39Z</time>
      </trkpt>
      <trkpt lat="42.24051" lon="-5.03381">
        <ele>802.9053</ele>
        <time>2021-07-05T19:25:50Z</time>
      </trkpt>
      <trkpt lat="42.2408" lon="-5.03458">
        <ele>801.7866</ele>
        <time>2021-07-05T19:26:01Z</time>
      </trkpt>
      <trkpt lat="42.2409" lon="-5.03482">
        <ele>801.7006</ele>
        <time>2021-07-05T19:26:12Z</time>
      </trkpt>
      <trkpt lat="42.24087" lon="-5.03473">
        <ele>801.3163</ele>
        <time>2021-07-05T19:26:25Z</time>
      </trkpt>
      <trkpt lat="42.24052" lon="-5.03387">
        <ele>803.9137</ele>
        <time>2021-07-05T19:26:36Z</time>
      </trkpt>
      <trkpt lat="42.24029" lon="-5.03324">
        <ele>801.8222</ele>
        <time>2021-07-05T19:26:47Z</time>
      </trkpt>
      <trkpt lat="42.24018" lon="-5.03258">
        <ele>804.8927</ele>
        <time>2021-07-05T19:26:58Z</time>
      </trkpt>
      <trkpt lat="42.24014" lon="-5.03226">
        <ele>806.1629</ele>
        <time>2021-07-05T19:27:09Z</time>
      </trkpt>
      <trkpt lat="42.24014" lon="-5.03226">
        <ele>806.2606</ele>
        <time>2021-07-05T19:28:08Z</time>
      </trkpt>
      <trkpt lat="42.24011" lon="-5.0323">
        <ele>806.1065</ele>
        <time>2021-07-05T19:28:58Z</time>
      </trkpt>
      <trkpt lat="42.24" lon="-5.03233">
        <ele>806.6359</ele>
        <time>2021-07-05T19:29:09Z</time>
      </trkpt>
      <trkpt lat="42.23996" lon="-5.0323">
        <ele>805.3828</ele>
        <time>2021-07-05T19:29:53Z</time>
      </trkpt>
    </trkseg>
  </trk>
  <trk>
    <name><![CDATA[Road trip fait P/E_2]]></name>
    <extensions>
      <line xmlns="http://www.topografix.com/GPX/gpx_style/0/2">
        <color>00FF00</color>
        <width>4</width>
      </line>
    </extensions>
    <trkseg>
      <trkpt lat="42.24" lon="-5.03234">
        <ele>804.555</ele>
        <time>2021-07-06T05:43:40Z</time>
      </trkpt>
      <trkpt lat="42.24" lon="-5.03234">
        <ele>804.555</ele>
        <time>2021-07-06T05:43:40Z</time>
      </trkpt>
      <trkpt lat="42.23998" lon="-5.03228">
        <ele>804.9025</ele>
        <time>2021-07-06T05:44:01Z</time>
      </trkpt>
      <trkpt lat="42.23998" lon="-5.03233">
        <ele>805.1911</ele>
        <time>2021-07-06T05:44:39Z</time>
      </trkpt>
      <trkpt lat="42.23994" lon="-5.03233">
        <ele>805.0919</ele>
        <time>2021-07-06T05:44:55Z</time>
      </trkpt>
      <trkpt lat="42.23998" lon="-5.03236">
        <ele>805.1672</ele>
        <time>2021-07-06T05:45:06Z</time>
      </trkpt>
      <trkpt lat="42.2401" lon="-5.03229">
        <ele>806.2883</ele>
        <time>2021-07-06T05:45:17Z</time>
      </trkpt>
      <trkpt lat="42.2401" lon="-5.0322">
        <ele>806.7544</ele>
        <time>2021-07-06T05:45:28Z</time>
      </trkpt>
      <trkpt lat="42.24008" lon="-5.03211">
        <ele>806.5956</ele>
        <time>2021-07-06T05:45:40Z</time>
      </trkpt>
      <trkpt lat="42.23993" lon="-5.03135">
        <ele>806.4226</ele>
        <time>2021-07-06T05:45:51Z</time>
      </trkpt>
      <trkpt lat="42.2398" lon="-5.0305">
        <ele>807.6604</ele>
        <time>2021-07-06T05:46:02Z</time>
      </trkpt>
      <trkpt lat="42.23972" lon="-5.02961">
        <ele>809.927</ele>
        <time>2021-07-06T05:46:13Z</time>
      </trkpt>
      <trkpt lat="42.23959" lon="-5.02852">
        <ele>810.7568</ele>
        <time>2021-07-06T05:46:24Z</time>
      </trkpt>
      <trkpt lat="42.23926" lon="-5.02744">
        <ele>812.829</ele>
        <time>2021-07-06T05:46:35Z</time>
      </trkpt>
      <trkpt lat="42.23899" lon="-5.0264">
        <ele>817.2034</ele>
        <time>2021-07-06T05:46:46Z</time>
      </trkpt>
      <trkpt lat="42.23875" lon="-5.02539">
        <ele>821.3067</ele>
        <time>2021-07-06T05:46:57Z</time>
      </trkpt>
      <trkpt lat="42.23852" lon="-5.02432">
        <ele>825.4886</ele>
        <time>2021-07-06T05:47:08Z</time>
      </trkpt>
      <trkpt lat="42.23809" lon="-5.02352">
        <ele>827.5821</ele>
        <time>2021-07-06T05:47:19Z</time>
      </trkpt>
      <trkpt lat="42.23781" lon="-5.02281">
        <ele>828.6118</ele>
        <time>2021-07-06T05:47:30Z</time>
      </trkpt>
      <trkpt lat="42.23782" lon="-5.02182">
        <ele>828.878</ele>
        <time>2021-07-06T05:47:41Z</time>
      </trkpt>
      <trkpt lat="42.23727" lon="-5.02208">
        <ele>828.6581</ele>
        <time>2021-07-06T05:47:52Z</time>
      </trkpt>
      <trkpt lat="42.23665" lon="-5.02333">
        <ele>828.9386</ele>
        <time>2021-07-06T05:48:03Z</time>
      </trkpt>
      <trkpt lat="42.23608" lon="-5.02472">
        <ele>829.5419</ele>
        <time>2021-07-06T05:48:14Z</time>
      </trkpt>
      <trkpt lat="42.2354" lon="-5.02752">
        <ele>829.9052</ele>
        <time>2021-07-06T05:48:25Z</time>
      </trkpt>
      <trkpt lat="42.23466" lon="-5.03031">
        <ele>822.484</ele>
        <time>2021-07-06T05:48:36Z</time>
      </trkpt>
      <trkpt lat="42.23385" lon="-5.03329">
        <ele>824.0111</ele>
        <time>2021-07-06T05:48:47Z</time>
      </trkpt>
      <trkpt lat="42.23288" lon="-5.03638">
        <ele>824.8751</ele>
        <time>2021-07-06T05:48:58Z</time>
      </trkpt>
      <trkpt lat="42.23201" lon="-5.03948">
        <ele>818.7277</ele>
        <time>2021-07-06T05:49:09Z</time>
      </trkpt>
      <trkpt lat="42.23112" lon="-5.04268">
        <ele>817.7732</ele>
        <time>2021-07-06T05:49:20Z</time>
      </trkpt>
      <trkpt lat="42.2301" lon="-5.04589">
        <ele>814.4106</ele>
        <time>2021-07-06T05:49:31Z</time>
      </trkpt>
      <trkpt lat="42.22875" lon="-5.04894">
        <ele>811.3704</ele>
        <time>2021-07-06T05:49:42Z</time>
      </trkpt>
      <trkpt lat="42.22742" lon="-5.05194">
        <ele>813.0174</ele>
        <time>2021-07-06T05:49:53Z</time>
      </trkpt>
      <trkpt lat="42.22635" lon="-5.05465">
        <ele>811.3243</ele>
        <time>2021-07-06T05:50:04Z</time>
      </trkpt>
      <trkpt lat="42.22506" lon="-5.05808">
        <ele>804.7751</ele>
        <time>2021-07-06T05:50:15Z</time>
      </trkpt>
      <trkpt lat="42.22397" lon="-5.0612">
        <ele>800.9049</ele>
        <time>2021-07-06T05:50:26Z</time>
      </trkpt>
      <trkpt lat="42.22367" lon="-5.0647">
        <ele>789.8429</ele>
        <time>2021-07-06T05:50:37Z</time>
      </trkpt>
      <trkpt lat="42.22324" lon="-5.06791">
        <ele>781.9627</ele>
        <time>2021-07-06T05:50:48Z</time>
      </trkpt>
      <trkpt lat="42.22179" lon="-5.07075">
        <ele>775.7902</ele>
        <time>2021-07-06T05:50:59Z</time>
      </trkpt>
      <trkpt lat="42.22052" lon="-5.07377">
        <ele>769.408</ele>
        <time>2021-07-06T05:51:10Z</time>
      </trkpt>
      <trkpt lat="42.21951" lon="-5.07702">
        <ele>765.4719</ele>
        <time>2021-07-06T05:51:21Z</time>
      </trkpt>
      <trkpt lat="42.21856" lon="-5.08029">
        <ele>763.8889</ele>
        <time>2021-07-06T05:51:32Z</time>
      </trkpt>
      <trkpt lat="42.21757" lon="-5.08358">
        <ele>760.956</ele>
        <time>2021-07-06T05:51:43Z</time>
      </trkpt>
      <trkpt lat="42.21656" lon="-5.08683">
        <ele>760.0276</ele>
        <time>2021-07-06T05:51:54Z</time>
      </trkpt>
      <trkpt lat="42.21564" lon="-5.08978">
        <ele>758.3981</ele>
        <time>2021-07-06T05:52:05Z</time>
      </trkpt>
      <trkpt lat="42.21527" lon="-5.09277">
        <ele>754.9193</ele>
        <time>2021-07-06T05:52:16Z</time>
      </trkpt>
      <trkpt lat="42.21368" lon="-5.09492">
        <ele>752.676</ele>
        <time>2021-07-06T05:52:27Z</time>
      </trkpt>
      <trkpt lat="42.21154" lon="-5.0969">
        <ele>753.3101</ele>
        <time>2021-07-06T05:52:38Z</time>
      </trkpt>
      <trkpt lat="42.20919" lon="-5.09829">
        <ele>751.0544</ele>
        <time>2021-07-06T05:52:49Z</time>
      </trkpt>
      <trkpt lat="42.20712" lon="-5.10036">
        <ele>751.1022</ele>
        <time>2021-07-06T05:53:00Z</time>
      </trkpt>
      <trkpt lat="42.20481" lon="-5.1025">
        <ele>750.614</ele>
        <time>2021-07-06T05:53:11Z</time>
      </trkpt>
      <trkpt lat="42.20254" lon="-5.10414">
        <ele>752.0413</ele>
        <time>2021-07-06T05:53:22Z</time>
      </trkpt>
      <trkpt lat="42.20008" lon="-5.10511">
        <ele>750.7557</ele>
        <time>2021-07-06T05:53:33Z</time>
      </trkpt>
      <trkpt lat="42.19773" lon="-5.10616">
        <ele>749.8296</ele>
        <time>2021-07-06T05:53:44Z</time>
      </trkpt>
      <trkpt lat="42.19558" lon="-5.10814">
        <ele>750.5621</ele>
        <time>2021-07-06T05:53:55Z</time>
      </trkpt>
      <trkpt lat="42.19349" lon="-5.11024">
        <ele>747.9057</ele>
        <time>2021-07-06T05:54:06Z</time>
      </trkpt>
      <trkpt lat="42.19173" lon="-5.11191">
        <ele>745.2916</ele>
        <time>2021-07-06T05:54:17Z</time>
      </trkpt>
      <trkpt lat="42.19012" lon="-5.11279">
        <ele>745.1223</ele>
        <time>2021-07-06T05:54:28Z</time>
      </trkpt>
      <trkpt lat="42.18967" lon="-5.11364">
        <ele>742.774</ele>
        <time>2021-07-06T05:54:39Z</time>
      </trkpt>
      <trkpt lat="42.18941" lon="-5.11355">
        <ele>746.5755</ele>
        <time>2021-07-06T05:54:50Z</time>
      </trkpt>
      <trkpt lat="42.18937" lon="-5.11368">
        <ele>748.0662</ele>
        <time>2021-07-06T05:55:01Z</time>
      </trkpt>
      <trkpt lat="42.18939" lon="-5.11369">
        <ele>752.3638</ele>
        <time>2021-07-06T05:56:00Z</time>
      </trkpt>
      <trkpt lat="42.18936" lon="-5.11368">
        <ele>753.7807</ele>
        <time>2021-07-06T05:57:00Z</time>
      </trkpt>
      <trkpt lat="42.18938" lon="-5.11357">
        <ele>753.7807</ele>
        <time>2021-07-06T05:57:15Z</time>
      </trkpt>
      <trkpt lat="42.18938" lon="-5.11357">
        <ele>753.7807</ele>
        <time>2021-07-06T05:58:14Z</time>
      </trkpt>
      <trkpt lat="42.18938" lon="-5.11357">
        <ele>753.7807</ele>
        <time>2021-07-06T05:59:14Z</time>
      </trkpt>
      <trkpt lat="42.18939" lon="-5.11358">
        <ele>757.4299</ele>
        <time>2021-07-06T06:00:13Z</time>
      </trkpt>
      <trkpt lat="42.18941" lon="-5.11356">
        <ele>756.6421</ele>
        <time>2021-07-06T06:01:13Z</time>
      </trkpt>
      <trkpt lat="42.18943" lon="-5.11351">
        <ele>756.2702</ele>
        <time>2021-07-06T06:01:34Z</time>
      </trkpt>
      <trkpt lat="42.18949" lon="-5.11339">
        <ele>754.8417</ele>
        <time>2021-07-06T06:01:45Z</time>
      </trkpt>
      <trkpt lat="42.18958" lon="-5.11354">
        <ele>756.6111</ele>
        <time>2021-07-06T06:02:00Z</time>
      </trkpt>
      <trkpt lat="42.18949" lon="-5.11347">
        <ele>742.9275</ele>
        <time>2021-07-06T06:02:27Z</time>
      </trkpt>
      <trkpt lat="42.18953" lon="-5.11355">
        <ele>746.577</ele>
        <time>2021-07-06T06:02:38Z</time>
      </trkpt>
      <trkpt lat="42.18958" lon="-5.11355">
        <ele>746.5004</ele>
        <time>2021-07-06T06:02:57Z</time>
      </trkpt>
      <trkpt lat="42.18959" lon="-5.11386">
        <ele>745.8571</ele>
        <time>2021-07-06T06:03:08Z</time>
      </trkpt>
      <trkpt lat="42.18867" lon="-5.11472">
        <ele>746.7419</ele>
        <time>2021-07-06T06:03:19Z</time>
      </trkpt>
      <trkpt lat="42.18784" lon="-5.11592">
        <ele>746.9776</ele>
        <time>2021-07-06T06:03:30Z</time>
      </trkpt>
      <trkpt lat="42.18682" lon="-5.11723">
        <ele>745.9135</ele>
        <time>2021-07-06T06:03:41Z</time>
      </trkpt>
      <trkpt lat="42.18571" lon="-5.11905">
        <ele>744.0939</ele>
        <time>2021-07-06T06:03:52Z</time>
      </trkpt>
      <trkpt lat="42.18412" lon="-5.12115">
        <ele>743.6858</ele>
        <time>2021-07-06T06:04:03Z</time>
      </trkpt>
      <trkpt lat="42.1824" lon="-5.12349">
        <ele>744.3223</ele>
        <time>2021-07-06T06:04:14Z</time>
      </trkpt>
      <trkpt lat="42.18054" lon="-5.12596">
        <ele>743.9867</ele>
        <time>2021-07-06T06:04:25Z</time>
      </trkpt>
      <trkpt lat="42.17867" lon="-5.12846">
        <ele>743.467</ele>
        <time>2021-07-06T06:04:36Z</time>
      </trkpt>
      <trkpt lat="42.17683" lon="-5.13064">
        <ele>741.7347</ele>
        <time>2021-07-06T06:04:47Z</time>
      </trkpt>
      <trkpt lat="42.17476" lon="-5.13306">
        <ele>741.5385</ele>
        <time>2021-07-06T06:04:58Z</time>
      </trkpt>
      <trkpt lat="42.17267" lon="-5.13549">
        <ele>740.6454</ele>
        <time>2021-07-06T06:05:09Z</time>
      </trkpt>
      <trkpt lat="42.17054" lon="-5.13796">
        <ele>742.4784</ele>
        <time>2021-07-06T06:05:20Z</time>
      </trkpt>
      <trkpt lat="42.16825" lon="-5.14061">
        <ele>740.0666</ele>
        <time>2021-07-06T06:05:31Z</time>
      </trkpt>
      <trkpt lat="42.16614" lon="-5.14306">
        <ele>740.2802</ele>
        <time>2021-07-06T06:05:42Z</time>
      </trkpt>
      <trkpt lat="42.16397" lon="-5.1455">
        <ele>739.7628</ele>
        <time>2021-07-06T06:05:53Z</time>
      </trkpt>
      <trkpt lat="42.16198" lon="-5.14722">
        <ele>737.9106</ele>
        <time>2021-07-06T06:06:04Z</time>
      </trkpt>
      <trkpt lat="42.16118" lon="-5.1479">
        <ele>737.6155</ele>
        <time>2021-07-06T06:06:15Z</time>
      </trkpt>
      <trkpt lat="42.1602" lon="-5.14844">
        <ele>738.0308</ele>
        <time>2021-07-06T06:06:26Z</time>
      </trkpt>
      <trkpt lat="42.15819" lon="-5.1498">
        <ele>739.2671</ele>
        <time>2021-07-06T06:06:37Z</time>
      </trkpt>
      <trkpt lat="42.15586" lon="-5.15141">
        <ele>737.9802</ele>
        <time>2021-07-06T06:06:48Z</time>
      </trkpt>
      <trkpt lat="42.15346" lon="-5.15308">
        <ele>737.7055</ele>
        <time>2021-07-06T06:06:59Z</time>
      </trkpt>
      <trkpt lat="42.15098" lon="-5.15482">
        <ele>736.7645</ele>
        <time>2021-07-06T06:07:10Z</time>
      </trkpt>
      <trkpt lat="42.14852" lon="-5.15679">
        <ele>735.1716</ele>
        <time>2021-07-06T06:07:21Z</time>
      </trkpt>
      <trkpt lat="42.14597" lon="-5.15844">
        <ele>733.7793</ele>
        <time>2021-07-06T06:07:32Z</time>
      </trkpt>
      <trkpt lat="42.14403" lon="-5.16064">
        <ele>733.1219</ele>
        <time>2021-07-06T06:07:43Z</time>
      </trkpt>
      <trkpt lat="42.14236" lon="-5.16358">
        <ele>732.4363</ele>
        <time>2021-07-06T06:07:54Z</time>
      </trkpt>
      <trkpt lat="42.14073" lon="-5.16659">
        <ele>732.6554</ele>
        <time>2021-07-06T06:08:05Z</time>
      </trkpt>
      <trkpt lat="42.13918" lon="-5.16963">
        <ele>732.2751</ele>
        <time>2021-07-06T06:08:16Z</time>
      </trkpt>
      <trkpt lat="42.13727" lon="-5.17207">
        <ele>730.9203</ele>
        <time>2021-07-06T06:08:27Z</time>
      </trkpt>
      <trkpt lat="42.13524" lon="-5.17449">
        <ele>731.6071</ele>
        <time>2021-07-06T06:08:38Z</time>
      </trkpt>
      <trkpt lat="42.1332" lon="-5.17692">
        <ele>730.2162</ele>
        <time>2021-07-06T06:08:49Z</time>
      </trkpt>
      <trkpt lat="42.13118" lon="-5.17932">
        <ele>729.6187</ele>
        <time>2021-07-06T06:09:00Z</time>
      </trkpt>
      <trkpt lat="42.12929" lon="-5.18117">
        <ele>728.5428</ele>
        <time>2021-07-06T06:09:11Z</time>
      </trkpt>
      <trkpt lat="42.12801" lon="-5.18235">
        <ele>729.2308</ele>
        <time>2021-07-06T06:09:22Z</time>
      </trkpt>
      <trkpt lat="42.12723" lon="-5.18399">
        <ele>729.9401</ele>
        <time>2021-07-06T06:09:33Z</time>
      </trkpt>
      <trkpt lat="42.12618" lon="-5.18565">
        <ele>729.1521</ele>
        <time>2021-07-06T06:09:44Z</time>
      </trkpt>
      <trkpt lat="42.1248" lon="-5.18693">
        <ele>729.8295</ele>
        <time>2021-07-06T06:09:55Z</time>
      </trkpt>
      <trkpt lat="42.12316" lon="-5.18834">
        <ele>729.4082</ele>
        <time>2021-07-06T06:10:06Z</time>
      </trkpt>
      <trkpt lat="42.12102" lon="-5.19011">
        <ele>728.312</ele>
        <time>2021-07-06T06:10:17Z</time>
      </trkpt>
      <trkpt lat="42.11884" lon="-5.19191">
        <ele>726.9603</ele>
        <time>2021-07-06T06:10:28Z</time>
      </trkpt>
      <trkpt lat="42.1166" lon="-5.19377">
        <ele>727.7701</ele>
        <time>2021-07-06T06:10:39Z</time>
      </trkpt>
      <trkpt lat="42.11407" lon="-5.1953">
        <ele>726.0184</ele>
        <time>2021-07-06T06:10:50Z</time>
      </trkpt>
      <trkpt lat="42.1115" lon="-5.19661">
        <ele>725.6039</ele>
        <time>2021-07-06T06:11:01Z</time>
      </trkpt>
      <trkpt lat="42.10892" lon="-5.19793">
        <ele>726.0052</ele>
        <time>2021-07-06T06:11:12Z</time>
      </trkpt>
      <trkpt lat="42.10638" lon="-5.19933">
        <ele>723.9466</ele>
        <time>2021-07-06T06:11:23Z</time>
      </trkpt>
      <trkpt lat="42.10406" lon="-5.20141">
        <ele>723.6307</ele>
        <time>2021-07-06T06:11:34Z</time>
      </trkpt>
      <trkpt lat="42.10175" lon="-5.20323">
        <ele>724.0301</ele>
        <time>2021-07-06T06:11:45Z</time>
      </trkpt>
      <trkpt lat="42.09929" lon="-5.2046">
        <ele>722.6345</ele>
        <time>2021-07-06T06:11:56Z</time>
      </trkpt>
      <trkpt lat="42.09756" lon="-5.20719">
        <ele>722.1185</ele>
        <time>2021-07-06T06:12:07Z</time>
      </trkpt>
      <trkpt lat="42.09611" lon="-5.20959">
        <ele>722.0644</ele>
        <time>2021-07-06T06:12:18Z</time>
      </trkpt>
      <trkpt lat="42.09553" lon="-5.21061">
        <ele>722.6674</ele>
        <time>2021-07-06T06:12:29Z</time>
      </trkpt>
      <trkpt lat="42.09616" lon="-5.2114">
        <ele>725.1018</ele>
        <time>2021-07-06T06:12:40Z</time>
      </trkpt>
      <trkpt lat="42.0979" lon="-5.21313">
        <ele>724.211</ele>
        <time>2021-07-06T06:12:51Z</time>
      </trkpt>
      <trkpt lat="42.09945" lon="-5.2147">
        <ele>724.4064</ele>
        <time>2021-07-06T06:13:02Z</time>
      </trkpt>
      <trkpt lat="42.0997" lon="-5.21572">
        <ele>721.6215</ele>
        <time>2021-07-06T06:13:13Z</time>
      </trkpt>
      <trkpt lat="42.09868" lon="-5.21721">
        <ele>724.1865</ele>
        <time>2021-07-06T06:13:24Z</time>
      </trkpt>
      <trkpt lat="42.09758" lon="-5.2182">
        <ele>729.6169</ele>
        <time>2021-07-06T06:13:35Z</time>
      </trkpt>
      <trkpt lat="42.09624" lon="-5.21946">
        <ele>729.0179</ele>
        <time>2021-07-06T06:13:46Z</time>
      </trkpt>
      <trkpt lat="42.09422" lon="-5.22158">
        <ele>725.4688</ele>
        <time>2021-07-06T06:13:57Z</time>
      </trkpt>
      <trkpt lat="42.09217" lon="-5.2241">
        <ele>727.1949</ele>
        <time>2021-07-06T06:14:08Z</time>
      </trkpt>
      <trkpt lat="42.09041" lon="-5.22707">
        <ele>729.0324</ele>
        <time>2021-07-06T06:14:19Z</time>
      </trkpt>
      <trkpt lat="42.08867" lon="-5.23">
        <ele>730.7013</ele>
        <time>2021-07-06T06:14:30Z</time>
      </trkpt>
      <trkpt lat="42.08686" lon="-5.23304">
        <ele>727.5565</ele>
        <time>2021-07-06T06:14:41Z</time>
      </trkpt>
      <trkpt lat="42.08504" lon="-5.23609">
        <ele>730.0332</ele>
        <time>2021-07-06T06:14:52Z</time>
      </trkpt>
      <trkpt lat="42.08326" lon="-5.23909">
        <ele>735.0201</ele>
        <time>2021-07-06T06:15:03Z</time>
      </trkpt>
      <trkpt lat="42.08148" lon="-5.24209">
        <ele>738.4812</ele>
        <time>2021-07-06T06:15:14Z</time>
      </trkpt>
      <trkpt lat="42.07967" lon="-5.24514">
        <ele>735.6636</ele>
        <time>2021-07-06T06:15:25Z</time>
      </trkpt>
      <trkpt lat="42.07786" lon="-5.24821">
        <ele>728.4369</ele>
        <time>2021-07-06T06:15:36Z</time>
      </trkpt>
      <trkpt lat="42.07608" lon="-5.25119">
        <ele>722.4445</ele>
        <time>2021-07-06T06:15:47Z</time>
      </trkpt>
      <trkpt lat="42.07432" lon="-5.2542">
        <ele>723.5088</ele>
        <time>2021-07-06T06:15:58Z</time>
      </trkpt>
      <trkpt lat="42.07256" lon="-5.25716">
        <ele>726.3197</ele>
        <time>2021-07-06T06:16:09Z</time>
      </trkpt>
      <trkpt lat="42.07077" lon="-5.26017">
        <ele>732.6792</ele>
        <time>2021-07-06T06:16:20Z</time>
      </trkpt>
      <trkpt lat="42.069" lon="-5.26317">
        <ele>736.5832</ele>
        <time>2021-07-06T06:16:31Z</time>
      </trkpt>
      <trkpt lat="42.06722" lon="-5.26618">
        <ele>742.3454</ele>
        <time>2021-07-06T06:16:42Z</time>
      </trkpt>
      <trkpt lat="42.06545" lon="-5.26916">
        <ele>736.1087</ele>
        <time>2021-07-06T06:16:53Z</time>
      </trkpt>
      <trkpt lat="42.0637" lon="-5.27209">
        <ele>738.5864</ele>
        <time>2021-07-06T06:17:04Z</time>
      </trkpt>
      <trkpt lat="42.06195" lon="-5.27508">
        <ele>739.5502</ele>
        <time>2021-07-06T06:17:15Z</time>
      </trkpt>
      <trkpt lat="42.06021" lon="-5.278">
        <ele>745.1981</ele>
        <time>2021-07-06T06:17:26Z</time>
      </trkpt>
      <trkpt lat="42.05851" lon="-5.28088">
        <ele>749.2339</ele>
        <time>2021-07-06T06:17:37Z</time>
      </trkpt>
      <trkpt lat="42.05681" lon="-5.28373">
        <ele>750.6705</ele>
        <time>2021-07-06T06:17:48Z</time>
      </trkpt>
      <trkpt lat="42.05518" lon="-5.28653">
        <ele>750.2213</ele>
        <time>2021-07-06T06:17:59Z</time>
      </trkpt>
      <trkpt lat="42.05355" lon="-5.28927">
        <ele>743.0085</ele>
        <time>2021-07-06T06:18:10Z</time>
      </trkpt>
      <trkpt lat="42.05191" lon="-5.29207">
        <ele>744.1071</ele>
        <time>2021-07-06T06:18:21Z</time>
      </trkpt>
      <trkpt lat="42.05025" lon="-5.29489">
        <ele>751.2146</ele>
        <time>2021-07-06T06:18:32Z</time>
      </trkpt>
      <trkpt lat="42.04858" lon="-5.29766">
        <ele>751.1874</ele>
        <time>2021-07-06T06:18:43Z</time>
      </trkpt>
      <trkpt lat="42.04684" lon="-5.30053">
        <ele>753.0743</ele>
        <time>2021-07-06T06:18:54Z</time>
      </trkpt>
      <trkpt lat="42.04511" lon="-5.30336">
        <ele>756.05</ele>
        <time>2021-07-06T06:19:05Z</time>
      </trkpt>
      <trkpt lat="42.04337" lon="-5.30607">
        <ele>753.7197</ele>
        <time>2021-07-06T06:19:16Z</time>
      </trkpt>
      <trkpt lat="42.04195" lon="-5.30821">
        <ele>746.7138</ele>
        <time>2021-07-06T06:19:27Z</time>
      </trkpt>
      <trkpt lat="42.04067" lon="-5.31014">
        <ele>740.6218</ele>
        <time>2021-07-06T06:19:38Z</time>
      </trkpt>
      <trkpt lat="42.03988" lon="-5.31215">
        <ele>737.807</ele>
        <time>2021-07-06T06:19:49Z</time>
      </trkpt>
      <trkpt lat="42.03866" lon="-5.31453">
        <ele>736.1436</ele>
        <time>2021-07-06T06:20:00Z</time>
      </trkpt>
      <trkpt lat="42.03706" lon="-5.31734">
        <ele>737.5041</ele>
        <time>2021-07-06T06:20:11Z</time>
      </trkpt>
      <trkpt lat="42.03542" lon="-5.32018">
        <ele>741.3166</ele>
        <time>2021-07-06T06:20:22Z</time>
      </trkpt>
      <trkpt lat="42.03378" lon="-5.32303">
        <ele>745.7282</ele>
        <time>2021-07-06T06:20:33Z</time>
      </trkpt>
      <trkpt lat="42.0321" lon="-5.32597">
        <ele>731.9418</ele>
        <time>2021-07-06T06:20:44Z</time>
      </trkpt>
      <trkpt lat="42.03041" lon="-5.32892">
        <ele>738.8258</ele>
        <time>2021-07-06T06:20:55Z</time>
      </trkpt>
      <trkpt lat="42.02871" lon="-5.3319">
        <ele>734.6428</ele>
        <time>2021-07-06T06:21:06Z</time>
      </trkpt>
      <trkpt lat="42.02702" lon="-5.33483">
        <ele>741.1541</ele>
        <time>2021-07-06T06:21:17Z</time>
      </trkpt>
      <trkpt lat="42.02535" lon="-5.33774">
        <ele>751.7643</ele>
        <time>2021-07-06T06:21:28Z</time>
      </trkpt>
      <trkpt lat="42.02367" lon="-5.34067">
        <ele>754.4982</ele>
        <time>2021-07-06T06:21:39Z</time>
      </trkpt>
      <trkpt lat="42.02197" lon="-5.34363">
        <ele>755.2213</ele>
        <time>2021-07-06T06:21:50Z</time>
      </trkpt>
      <trkpt lat="42.02026" lon="-5.34662">
        <ele>757.4342</ele>
        <time>2021-07-06T06:22:01Z</time>
      </trkpt>
      <trkpt lat="42.01855" lon="-5.34961">
        <ele>756.0247</ele>
        <time>2021-07-06T06:22:12Z</time>
      </trkpt>
      <trkpt lat="42.01686" lon="-5.35255">
        <ele>753.4886</ele>
        <time>2021-07-06T06:22:23Z</time>
      </trkpt>
      <trkpt lat="42.0152" lon="-5.3555">
        <ele>757.6345</ele>
        <time>2021-07-06T06:22:34Z</time>
      </trkpt>
      <trkpt lat="42.0135" lon="-5.35847">
        <ele>760.1663</ele>
        <time>2021-07-06T06:22:45Z</time>
      </trkpt>
      <trkpt lat="42.01166" lon="-5.36164">
        <ele>758.988</ele>
        <time>2021-07-06T06:22:56Z</time>
      </trkpt>
      <trkpt lat="42.01007" lon="-5.36443">
        <ele>763.5944</ele>
        <time>2021-07-06T06:23:07Z</time>
      </trkpt>
      <trkpt lat="42.00847" lon="-5.36726">
        <ele>763.8054</ele>
        <time>2021-07-06T06:23:18Z</time>
      </trkpt>
      <trkpt lat="42.00683" lon="-5.37016">
        <ele>763.6161</ele>
        <time>2021-07-06T06:23:29Z</time>
      </trkpt>
      <trkpt lat="42.00533" lon="-5.37284">
        <ele>763.5684</ele>
        <time>2021-07-06T06:23:40Z</time>
      </trkpt>
      <trkpt lat="42.0037" lon="-5.37581">
        <ele>764.4142</ele>
        <time>2021-07-06T06:23:51Z</time>
      </trkpt>
      <trkpt lat="42.00203" lon="-5.37879">
        <ele>766.7142</ele>
        <time>2021-07-06T06:24:02Z</time>
      </trkpt>
      <trkpt lat="42.00035" lon="-5.38178">
        <ele>770.0262</ele>
        <time>2021-07-06T06:24:13Z</time>
      </trkpt>
      <trkpt lat="41.99871" lon="-5.3847">
        <ele>766.663</ele>
        <time>2021-07-06T06:24:24Z</time>
      </trkpt>
      <trkpt lat="41.99707" lon="-5.38763">
        <ele>765.3751</ele>
        <time>2021-07-06T06:24:35Z</time>
      </trkpt>
      <trkpt lat="41.99544" lon="-5.39054">
        <ele>764.8177</ele>
        <time>2021-07-06T06:24:46Z</time>
      </trkpt>
      <trkpt lat="41.99375" lon="-5.39357">
        <ele>763.3753</ele>
        <time>2021-07-06T06:24:57Z</time>
      </trkpt>
      <trkpt lat="41.99207" lon="-5.39654">
        <ele>760.5275</ele>
        <time>2021-07-06T06:25:08Z</time>
      </trkpt>
      <trkpt lat="41.99038" lon="-5.39957">
        <ele>759.0031</ele>
        <time>2021-07-06T06:25:19Z</time>
      </trkpt>
      <trkpt lat="41.98914" lon="-5.40177">
        <ele>758.3813</ele>
        <time>2021-07-06T06:25:30Z</time>
      </trkpt>
      <trkpt lat="41.98836" lon="-5.40319">
        <ele>757.72</ele>
        <time>2021-07-06T06:25:41Z</time>
      </trkpt>
      <trkpt lat="41.98767" lon="-5.40444">
        <ele>760.1148</ele>
        <time>2021-07-06T06:25:52Z</time>
      </trkpt>
      <trkpt lat="41.98743" lon="-5.40589">
        <ele>759.9435</ele>
        <time>2021-07-06T06:26:03Z</time>
      </trkpt>
      <trkpt lat="41.98749" lon="-5.40748">
        <ele>757.48</ele>
        <time>2021-07-06T06:26:14Z</time>
      </trkpt>
      <trkpt lat="41.98753" lon="-5.40923">
        <ele>757.8666</ele>
        <time>2021-07-06T06:26:25Z</time>
      </trkpt>
      <trkpt lat="41.98757" lon="-5.41115">
        <ele>758.9802</ele>
        <time>2021-07-06T06:26:36Z</time>
      </trkpt>
      <trkpt lat="41.9876" lon="-5.41205">
        <ele>753.8458</ele>
        <time>2021-07-06T06:26:47Z</time>
      </trkpt>
      <trkpt lat="41.9876" lon="-5.41211">
        <ele>753.6048</ele>
        <time>2021-07-06T06:27:02Z</time>
      </trkpt>
      <trkpt lat="41.9874" lon="-5.4122">
        <ele>752.7322</ele>
        <time>2021-07-06T06:27:13Z</time>
      </trkpt>
      <trkpt lat="41.98738" lon="-5.41226">
        <ele>744.1837</ele>
        <time>2021-07-06T06:27:42Z</time>
      </trkpt>
      <trkpt lat="41.98739" lon="-5.41226">
        <ele>741.0497</ele>
        <time>2021-07-06T06:28:42Z</time>
      </trkpt>
      <trkpt lat="41.98739" lon="-5.41226">
        <ele>741.0497</ele>
        <time>2021-07-06T06:29:41Z</time>
      </trkpt>
      <trkpt lat="41.98738" lon="-5.41223">
        <ele>741.8536</ele>
        <time>2021-07-06T06:30:41Z</time>
      </trkpt>
      <trkpt lat="41.98735" lon="-5.41226">
        <ele>745.5182</ele>
        <time>2021-07-06T06:31:27Z</time>
      </trkpt>
      <trkpt lat="41.98735" lon="-5.41228">
        <ele>748.8468</ele>
        <time>2021-07-06T06:32:27Z</time>
      </trkpt>
      <trkpt lat="41.98734" lon="-5.41227">
        <ele>748.081</ele>
        <time>2021-07-06T06:33:26Z</time>
      </trkpt>
      <trkpt lat="41.98734" lon="-5.41227">
        <ele>748.081</ele>
        <time>2021-07-06T06:34:26Z</time>
      </trkpt>
      <trkpt lat="41.98734" lon="-5.41227">
        <ele>748.081</ele>
        <time>2021-07-06T06:35:25Z</time>
      </trkpt>
      <trkpt lat="41.98738" lon="-5.41224">
        <ele>748.4127</ele>
        <time>2021-07-06T06:36:18Z</time>
      </trkpt>
      <trkpt lat="41.98737" lon="-5.41224">
        <ele>746.9025</ele>
        <time>2021-07-06T06:37:18Z</time>
      </trkpt>
      <trkpt lat="41.98738" lon="-5.41224">
        <ele>746.8265</ele>
        <time>2021-07-06T06:38:18Z</time>
      </trkpt>
      <trkpt lat="41.98739" lon="-5.41226">
        <ele>748.1912</ele>
        <time>2021-07-06T06:39:17Z</time>
      </trkpt>
      <trkpt lat="41.9874" lon="-5.41225">
        <ele>749.2325</ele>
        <time>2021-07-06T06:40:16Z</time>
      </trkpt>
      <trkpt lat="41.98739" lon="-5.4124">
        <ele>749.457</ele>
        <time>2021-07-06T06:40:27Z</time>
      </trkpt>
      <trkpt lat="41.98755" lon="-5.41247">
        <ele>753.2156</ele>
        <time>2021-07-06T06:40:38Z</time>
      </trkpt>
      <trkpt lat="41.98767" lon="-5.41403">
        <ele>758.6501</ele>
        <time>2021-07-06T06:40:49Z</time>
      </trkpt>
      <trkpt lat="41.98779" lon="-5.41716">
        <ele>762.8083</ele>
        <time>2021-07-06T06:41:00Z</time>
      </trkpt>
      <trkpt lat="41.98786" lon="-5.42083">
        <ele>757.7749</ele>
        <time>2021-07-06T06:41:11Z</time>
      </trkpt>
      <trkpt lat="41.98792" lon="-5.42425">
        <ele>750.8969</ele>
        <time>2021-07-06T06:41:22Z</time>
      </trkpt>
      <trkpt lat="41.98796" lon="-5.42766">
        <ele>749.2281</ele>
        <time>2021-07-06T06:41:33Z</time>
      </trkpt>
      <trkpt lat="41.988" lon="-5.43121">
        <ele>748.6131</ele>
        <time>2021-07-06T06:41:44Z</time>
      </trkpt>
      <trkpt lat="41.98806" lon="-5.43478">
        <ele>748.4983</ele>
        <time>2021-07-06T06:41:55Z</time>
      </trkpt>
      <trkpt lat="41.98811" lon="-5.43848">
        <ele>746.4935</ele>
        <time>2021-07-06T06:42:06Z</time>
      </trkpt>
      <trkpt lat="41.98816" lon="-5.44228">
        <ele>744.2266</ele>
        <time>2021-07-06T06:42:17Z</time>
      </trkpt>
      <trkpt lat="41.98821" lon="-5.44595">
        <ele>741.5277</ele>
        <time>2021-07-06T06:42:28Z</time>
      </trkpt>
      <trkpt lat="41.98824" lon="-5.44904">
        <ele>740.2601</ele>
        <time>2021-07-06T06:42:39Z</time>
      </trkpt>
      <trkpt lat="41.9883" lon="-5.45218">
        <ele>736.3828</ele>
        <time>2021-07-06T06:42:50Z</time>
      </trkpt>
      <trkpt lat="41.98836" lon="-5.45576">
        <ele>736.2789</ele>
        <time>2021-07-06T06:43:01Z</time>
      </trkpt>
      <trkpt lat="41.98842" lon="-5.45871">
        <ele>737.302</ele>
        <time>2021-07-06T06:43:12Z</time>
      </trkpt>
      <trkpt lat="41.98846" lon="-5.46176">
        <ele>739.8654</ele>
        <time>2021-07-06T06:43:23Z</time>
      </trkpt>
      <trkpt lat="41.98852" lon="-5.46469">
        <ele>742.7727</ele>
        <time>2021-07-06T06:43:34Z</time>
      </trkpt>
      <trkpt lat="41.98858" lon="-5.46787">
        <ele>743.081</ele>
        <time>2021-07-06T06:43:45Z</time>
      </trkpt>
      <trkpt lat="41.98865" lon="-5.47135">
        <ele>743.3801</ele>
        <time>2021-07-06T06:43:56Z</time>
      </trkpt>
      <trkpt lat="41.98872" lon="-5.47475">
        <ele>743.8167</ele>
        <time>2021-07-06T06:44:07Z</time>
      </trkpt>
      <trkpt lat="41.98877" lon="-5.47813">
        <ele>747.4803</ele>
        <time>2021-07-06T06:44:18Z</time>
      </trkpt>
      <trkpt lat="41.98886" lon="-5.4822">
        <ele>745.1708</ele>
        <time>2021-07-06T06:44:29Z</time>
      </trkpt>
      <trkpt lat="41.98891" lon="-5.4862">
        <ele>744.3816</ele>
        <time>2021-07-06T06:44:40Z</time>
      </trkpt>
      <trkpt lat="41.98916" lon="-5.4901">
        <ele>742.265</ele>
        <time>2021-07-06T06:44:51Z</time>
      </trkpt>
      <trkpt lat="41.98968" lon="-5.49395">
        <ele>739.1065</ele>
        <time>2021-07-06T06:45:02Z</time>
      </trkpt>
      <trkpt lat="41.9902" lon="-5.49789">
        <ele>736.9336</ele>
        <time>2021-07-06T06:45:13Z</time>
      </trkpt>
      <trkpt lat="41.99073" lon="-5.50183">
        <ele>733.9568</ele>
        <time>2021-07-06T06:45:24Z</time>
      </trkpt>
      <trkpt lat="41.99126" lon="-5.50588">
        <ele>732.7908</ele>
        <time>2021-07-06T06:45:35Z</time>
      </trkpt>
      <trkpt lat="41.99181" lon="-5.50999">
        <ele>732.3641</ele>
        <time>2021-07-06T06:45:46Z</time>
      </trkpt>
      <trkpt lat="41.99235" lon="-5.51402">
        <ele>730.5573</ele>
        <time>2021-07-06T06:45:57Z</time>
      </trkpt>
      <trkpt lat="41.99287" lon="-5.51794">
        <ele>730.4332</ele>
        <time>2021-07-06T06:46:08Z</time>
      </trkpt>
      <trkpt lat="41.99341" lon="-5.52195">
        <ele>728.4266</ele>
        <time>2021-07-06T06:46:19Z</time>
      </trkpt>
      <trkpt lat="41.99398" lon="-5.52589">
        <ele>726.0187</ele>
        <time>2021-07-06T06:46:30Z</time>
      </trkpt>
      <trkpt lat="41.99513" lon="-5.52967">
        <ele>723.7047</ele>
        <time>2021-07-06T06:46:41Z</time>
      </trkpt>
      <trkpt lat="41.99626" lon="-5.53341">
        <ele>722.5445</ele>
        <time>2021-07-06T06:46:52Z</time>
      </trkpt>
      <trkpt lat="41.99738" lon="-5.5372">
        <ele>720.2713</ele>
        <time>2021-07-06T06:47:03Z</time>
      </trkpt>
      <trkpt lat="41.99884" lon="-5.54067">
        <ele>717.303</ele>
        <time>2021-07-06T06:47:14Z</time>
      </trkpt>
      <trkpt lat="42.00033" lon="-5.54367">
        <ele>715.3959</ele>
        <time>2021-07-06T06:47:25Z</time>
      </trkpt>
      <trkpt lat="42.00129" lon="-5.54614">
        <ele>715.1188</ele>
        <time>2021-07-06T06:47:36Z</time>
      </trkpt>
      <trkpt lat="42.00215" lon="-5.54841">
        <ele>715.3433</ele>
        <time>2021-07-06T06:47:47Z</time>
      </trkpt>
      <trkpt lat="42.0018" lon="-5.55096">
        <ele>717.8571</ele>
        <time>2021-07-06T06:47:58Z</time>
      </trkpt>
      <trkpt lat="42.00084" lon="-5.55424">
        <ele>718.2264</ele>
        <time>2021-07-06T06:48:09Z</time>
      </trkpt>
      <trkpt lat="41.99979" lon="-5.5577">
        <ele>717.2771</ele>
        <time>2021-07-06T06:48:20Z</time>
      </trkpt>
      <trkpt lat="41.99873" lon="-5.56119">
        <ele>716.1118</ele>
        <time>2021-07-06T06:48:31Z</time>
      </trkpt>
      <trkpt lat="41.99767" lon="-5.56476">
        <ele>716.1942</ele>
        <time>2021-07-06T06:48:42Z</time>
      </trkpt>
      <trkpt lat="41.99654" lon="-5.56845">
        <ele>717.0468</ele>
        <time>2021-07-06T06:48:53Z</time>
      </trkpt>
      <trkpt lat="41.9954" lon="-5.57225">
        <ele>717.8206</ele>
        <time>2021-07-06T06:49:04Z</time>
      </trkpt>
      <trkpt lat="41.99424" lon="-5.57611">
        <ele>718.543</ele>
        <time>2021-07-06T06:49:15Z</time>
      </trkpt>
      <trkpt lat="41.99308" lon="-5.57996">
        <ele>717.8734</ele>
        <time>2021-07-06T06:49:26Z</time>
      </trkpt>
      <trkpt lat="41.99195" lon="-5.58379">
        <ele>717.5699</ele>
        <time>2021-07-06T06:49:37Z</time>
      </trkpt>
      <trkpt lat="41.9908" lon="-5.58755">
        <ele>717.2453</ele>
        <time>2021-07-06T06:49:48Z</time>
      </trkpt>
      <trkpt lat="41.98984" lon="-5.59123">
        <ele>718.2594</ele>
        <time>2021-07-06T06:49:59Z</time>
      </trkpt>
      <trkpt lat="41.98915" lon="-5.59494">
        <ele>719.6691</ele>
        <time>2021-07-06T06:50:10Z</time>
      </trkpt>
      <trkpt lat="41.98851" lon="-5.5984">
        <ele>716.5531</ele>
        <time>2021-07-06T06:50:21Z</time>
      </trkpt>
      <trkpt lat="41.98761" lon="-5.60057">
        <ele>704.1659</ele>
        <time>2021-07-06T06:50:32Z</time>
      </trkpt>
      <trkpt lat="41.98658" lon="-5.60282">
        <ele>716.4524</ele>
        <time>2021-07-06T06:50:43Z</time>
      </trkpt>
      <trkpt lat="41.98563" lon="-5.60486">
        <ele>720.6984</ele>
        <time>2021-07-06T06:50:54Z</time>
      </trkpt>
      <trkpt lat="41.98445" lon="-5.60737">
        <ele>723.877</ele>
        <time>2021-07-06T06:51:05Z</time>
      </trkpt>
      <trkpt lat="41.98341" lon="-5.60955">
        <ele>723.047</ele>
        <time>2021-07-06T06:51:16Z</time>
      </trkpt>
      <trkpt lat="41.98301" lon="-5.61104">
        <ele>722.518</ele>
        <time>2021-07-06T06:51:27Z</time>
      </trkpt>
      <trkpt lat="41.98446" lon="-5.61191">
        <ele>726.8472</ele>
        <time>2021-07-06T06:51:38Z</time>
      </trkpt>
      <trkpt lat="41.98534" lon="-5.61318">
        <ele>737.2608</ele>
        <time>2021-07-06T06:51:49Z</time>
      </trkpt>
      <trkpt lat="41.98458" lon="-5.61498">
        <ele>736.7852</ele>
        <time>2021-07-06T06:52:00Z</time>
      </trkpt>
      <trkpt lat="41.98366" lon="-5.61713">
        <ele>729.9181</ele>
        <time>2021-07-06T06:52:11Z</time>
      </trkpt>
      <trkpt lat="41.98401" lon="-5.61892">
        <ele>723.8292</ele>
        <time>2021-07-06T06:52:22Z</time>
      </trkpt>
      <trkpt lat="41.98349" lon="-5.62109">
        <ele>711.7217</ele>
        <time>2021-07-06T06:52:33Z</time>
      </trkpt>
      <trkpt lat="41.98385" lon="-5.6227">
        <ele>705.3068</ele>
        <time>2021-07-06T06:52:44Z</time>
      </trkpt>
      <trkpt lat="41.98444" lon="-5.62453">
        <ele>705.1406</ele>
        <time>2021-07-06T06:52:55Z</time>
      </trkpt>
      <trkpt lat="41.98489" lon="-5.62607">
        <ele>703.0436</ele>
        <time>2021-07-06T06:53:06Z</time>
      </trkpt>
      <trkpt lat="41.98518" lon="-5.62769">
        <ele>704.4906</ele>
        <time>2021-07-06T06:53:17Z</time>
      </trkpt>
      <trkpt lat="41.98494" lon="-5.62897">
        <ele>702.3121</ele>
        <time>2021-07-06T06:53:28Z</time>
      </trkpt>
      <trkpt lat="41.98533" lon="-5.63081">
        <ele>703.9521</ele>
        <time>2021-07-06T06:53:39Z</time>
      </trkpt>
      <trkpt lat="41.98567" lon="-5.63287">
        <ele>700.3479</ele>
        <time>2021-07-06T06:53:50Z</time>
      </trkpt>
      <trkpt lat="41.98616" lon="-5.63407">
        <ele>699.055</ele>
        <time>2021-07-06T06:53:56Z</time>
      </trkpt>
      <trkpt lat="41.98678" lon="-5.63552">
        <ele>699.5361</ele>
        <time>2021-07-06T06:54:02Z</time>
      </trkpt>
      <trkpt lat="41.98733" lon="-5.63679">
        <ele>699.8586</ele>
        <time>2021-07-06T06:54:08Z</time>
      </trkpt>
      <trkpt lat="41.98826" lon="-5.63903">
        <ele>701.6779</ele>
        <time>2021-07-06T06:54:19Z</time>
      </trkpt>
      <trkpt lat="41.98924" lon="-5.64139">
        <ele>700.8891</ele>
        <time>2021-07-06T06:54:30Z</time>
      </trkpt>
      <trkpt lat="41.98997" lon="-5.64312">
        <ele>700.2119</ele>
        <time>2021-07-06T06:54:41Z</time>
      </trkpt>
      <trkpt lat="41.99046" lon="-5.64302">
        <ele>701.7013</ele>
        <time>2021-07-06T06:54:52Z</time>
      </trkpt>
      <trkpt lat="41.99047" lon="-5.64302">
        <ele>699.1228</ele>
        <time>2021-07-06T06:55:51Z</time>
      </trkpt>
      <trkpt lat="41.9905" lon="-5.643">
        <ele>701.6752</ele>
        <time>2021-07-06T06:56:15Z</time>
      </trkpt>
      <trkpt lat="41.99093" lon="-5.64282">
        <ele>702.4879</ele>
        <time>2021-07-06T06:56:26Z</time>
      </trkpt>
      <trkpt lat="41.99159" lon="-5.64481">
        <ele>704.4715</ele>
        <time>2021-07-06T06:56:37Z</time>
      </trkpt>
      <trkpt lat="41.99256" lon="-5.64728">
        <ele>705.0481</ele>
        <time>2021-07-06T06:56:48Z</time>
      </trkpt>
      <trkpt lat="41.99352" lon="-5.64965">
        <ele>705.4646</ele>
        <time>2021-07-06T06:56:59Z</time>
      </trkpt>
      <trkpt lat="41.99441" lon="-5.65111">
        <ele>704.0046</ele>
        <time>2021-07-06T06:57:10Z</time>
      </trkpt>
      <trkpt lat="41.99503" lon="-5.65343">
        <ele>704.9446</ele>
        <time>2021-07-06T06:57:21Z</time>
      </trkpt>
      <trkpt lat="41.99601" lon="-5.65585">
        <ele>707.087</ele>
        <time>2021-07-06T06:57:32Z</time>
      </trkpt>
      <trkpt lat="41.99672" lon="-5.65749">
        <ele>707.1226</ele>
        <time>2021-07-06T06:57:43Z</time>
      </trkpt>
      <trkpt lat="41.99628" lon="-5.65948">
        <ele>706.8844</ele>
        <time>2021-07-06T06:57:54Z</time>
      </trkpt>
      <trkpt lat="41.99561" lon="-5.66243">
        <ele>704.3164</ele>
        <time>2021-07-06T06:58:05Z</time>
      </trkpt>
      <trkpt lat="41.9949" lon="-5.66552">
        <ele>703.6766</ele>
        <time>2021-07-06T06:58:16Z</time>
      </trkpt>
      <trkpt lat="41.99423" lon="-5.66845">
        <ele>703.6204</ele>
        <time>2021-07-06T06:58:27Z</time>
      </trkpt>
      <trkpt lat="41.99351" lon="-5.67157">
        <ele>702.8515</ele>
        <time>2021-07-06T06:58:38Z</time>
      </trkpt>
      <trkpt lat="41.99268" lon="-5.67488">
        <ele>701.5684</ele>
        <time>2021-07-06T06:58:49Z</time>
      </trkpt>
      <trkpt lat="41.9923" lon="-5.67826">
        <ele>706.5758</ele>
        <time>2021-07-06T06:59:00Z</time>
      </trkpt>
      <trkpt lat="41.9933" lon="-5.68126">
        <ele>712.9407</ele>
        <time>2021-07-06T06:59:11Z</time>
      </trkpt>
      <trkpt lat="41.99455" lon="-5.684">
        <ele>705.6615</ele>
        <time>2021-07-06T06:59:22Z</time>
      </trkpt>
      <trkpt lat="41.99538" lon="-5.68699">
        <ele>708.0218</ele>
        <time>2021-07-06T06:59:33Z</time>
      </trkpt>
      <trkpt lat="41.99618" lon="-5.69013">
        <ele>706.1484</ele>
        <time>2021-07-06T06:59:44Z</time>
      </trkpt>
      <trkpt lat="41.99702" lon="-5.69336">
        <ele>707.862</ele>
        <time>2021-07-06T06:59:55Z</time>
      </trkpt>
      <trkpt lat="41.99787" lon="-5.69663">
        <ele>706.3923</ele>
        <time>2021-07-06T07:00:06Z</time>
      </trkpt>
      <trkpt lat="41.99885" lon="-5.69998">
        <ele>708.0947</ele>
        <time>2021-07-06T07:00:17Z</time>
      </trkpt>
      <trkpt lat="42.00046" lon="-5.7029">
        <ele>712.0276</ele>
        <time>2021-07-06T07:00:28Z</time>
      </trkpt>
      <trkpt lat="42.00169" lon="-5.70582">
        <ele>712.9567</ele>
        <time>2021-07-06T07:00:39Z</time>
      </trkpt>
      <trkpt lat="42.00114" lon="-5.7086">
        <ele>710.0656</ele>
        <time>2021-07-06T07:00:50Z</time>
      </trkpt>
      <trkpt lat="42.00086" lon="-5.71084">
        <ele>707.791</ele>
        <time>2021-07-06T07:01:01Z</time>
      </trkpt>
      <trkpt lat="42.00087" lon="-5.71285">
        <ele>708.1645</ele>
        <time>2021-07-06T07:01:12Z</time>
      </trkpt>
      <trkpt lat="42.00084" lon="-5.71473">
        <ele>708.717</ele>
        <time>2021-07-06T07:01:23Z</time>
      </trkpt>
      <trkpt lat="42.0007" lon="-5.71664">
        <ele>710.3489</ele>
        <time>2021-07-06T07:01:34Z</time>
      </trkpt>
      <trkpt lat="42.00069" lon="-5.71841">
        <ele>710.0014</ele>
        <time>2021-07-06T07:01:45Z</time>
      </trkpt>
      <trkpt lat="42.00068" lon="-5.72035">
        <ele>710.8915</ele>
        <time>2021-07-06T07:01:56Z</time>
      </trkpt>
      <trkpt lat="42.00066" lon="-5.72248">
        <ele>709.8012</ele>
        <time>2021-07-06T07:02:07Z</time>
      </trkpt>
      <trkpt lat="42.00064" lon="-5.7247">
        <ele>711.6316</ele>
        <time>2021-07-06T07:02:18Z</time>
      </trkpt>
      <trkpt lat="42.00059" lon="-5.72717">
        <ele>710.0165</ele>
        <time>2021-07-06T07:02:29Z</time>
      </trkpt>
      <trkpt lat="42.00056" lon="-5.72991">
        <ele>709.2443</ele>
        <time>2021-07-06T07:02:40Z</time>
      </trkpt>
      <trkpt lat="42.0005" lon="-5.73306">
        <ele>707.4654</ele>
        <time>2021-07-06T07:02:51Z</time>
      </trkpt>
      <trkpt lat="42.00049" lon="-5.73695">
        <ele>707.3056</ele>
        <time>2021-07-06T07:03:02Z</time>
      </trkpt>
      <trkpt lat="42.00046" lon="-5.74066">
        <ele>709.0556</ele>
        <time>2021-07-06T07:03:13Z</time>
      </trkpt>
      <trkpt lat="42.00042" lon="-5.74442">
        <ele>710.3656</ele>
        <time>2021-07-06T07:03:24Z</time>
      </trkpt>
      <trkpt lat="42.00038" lon="-5.74809">
        <ele>721.5084</ele>
        <time>2021-07-06T07:03:35Z</time>
      </trkpt>
      <trkpt lat="42.00033" lon="-5.75161">
        <ele>729.6722</ele>
        <time>2021-07-06T07:03:46Z</time>
      </trkpt>
      <trkpt lat="42.00029" lon="-5.75511">
        <ele>732.8849</ele>
        <time>2021-07-06T07:03:57Z</time>
      </trkpt>
      <trkpt lat="42.00005" lon="-5.7586">
        <ele>738.958</ele>
        <time>2021-07-06T07:04:08Z</time>
      </trkpt>
      <trkpt lat="41.99964" lon="-5.76186">
        <ele>750.4373</ele>
        <time>2021-07-06T07:04:19Z</time>
      </trkpt>
      <trkpt lat="41.99923" lon="-5.76527">
        <ele>753.4365</ele>
        <time>2021-07-06T07:04:30Z</time>
      </trkpt>
      <trkpt lat="41.9988" lon="-5.76879">
        <ele>754.7402</ele>
        <time>2021-07-06T07:04:41Z</time>
      </trkpt>
      <trkpt lat="41.99844" lon="-5.77235">
        <ele>753.7064</ele>
        <time>2021-07-06T07:04:52Z</time>
      </trkpt>
      <trkpt lat="41.99883" lon="-5.77568">
        <ele>754.8856</ele>
        <time>2021-07-06T07:05:03Z</time>
      </trkpt>
      <trkpt lat="41.99949" lon="-5.77856">
        <ele>747.1857</ele>
        <time>2021-07-06T07:05:14Z</time>
      </trkpt>
      <trkpt lat="41.99984" lon="-5.78203">
        <ele>746.4606</ele>
        <time>2021-07-06T07:05:25Z</time>
      </trkpt>
      <trkpt lat="41.99965" lon="-5.78579">
        <ele>742.1314</ele>
        <time>2021-07-06T07:05:36Z</time>
      </trkpt>
      <trkpt lat="41.99943" lon="-5.78918">
        <ele>738.9127</ele>
        <time>2021-07-06T07:05:47Z</time>
      </trkpt>
      <trkpt lat="41.99959" lon="-5.79263">
        <ele>735.0687</ele>
        <time>2021-07-06T07:05:58Z</time>
      </trkpt>
      <trkpt lat="42.00024" lon="-5.79596">
        <ele>728.3805</ele>
        <time>2021-07-06T07:06:09Z</time>
      </trkpt>
      <trkpt lat="42.00088" lon="-5.79922">
        <ele>719.8877</ele>
        <time>2021-07-06T07:06:20Z</time>
      </trkpt>
      <trkpt lat="42.00146" lon="-5.8022">
        <ele>714.1522</ele>
        <time>2021-07-06T07:06:31Z</time>
      </trkpt>
      <trkpt lat="42.00193" lon="-5.80457">
        <ele>712.3229</ele>
        <time>2021-07-06T07:06:42Z</time>
      </trkpt>
      <trkpt lat="42.00241" lon="-5.807">
        <ele>711.687</ele>
        <time>2021-07-06T07:06:53Z</time>
      </trkpt>
      <trkpt lat="42.00284" lon="-5.80924">
        <ele>708.9158</ele>
        <time>2021-07-06T07:07:04Z</time>
      </trkpt>
      <trkpt lat="42.00325" lon="-5.81124">
        <ele>708.3229</ele>
        <time>2021-07-06T07:07:15Z</time>
      </trkpt>
      <trkpt lat="42.0036" lon="-5.8129">
        <ele>707.5802</ele>
        <time>2021-07-06T07:07:26Z</time>
      </trkpt>
      <trkpt lat="42.00406" lon="-5.8155">
        <ele>711.7778</ele>
        <time>2021-07-06T07:07:37Z</time>
      </trkpt>
      <trkpt lat="42.00436" lon="-5.81938">
        <ele>709.7538</ele>
        <time>2021-07-06T07:07:48Z</time>
      </trkpt>
      <trkpt lat="42.0045" lon="-5.82314">
        <ele>710.7194</ele>
        <time>2021-07-06T07:07:59Z</time>
      </trkpt>
      <trkpt lat="42.00464" lon="-5.82719">
        <ele>710.4319</ele>
        <time>2021-07-06T07:08:10Z</time>
      </trkpt>
      <trkpt lat="42.00479" lon="-5.83117">
        <ele>706.6945</ele>
        <time>2021-07-06T07:08:21Z</time>
      </trkpt>
      <trkpt lat="42.00494" lon="-5.83507">
        <ele>707.105</ele>
        <time>2021-07-06T07:08:32Z</time>
      </trkpt>
      <trkpt lat="42.00509" lon="-5.83898">
        <ele>707.295</ele>
        <time>2021-07-06T07:08:44Z</time>
      </trkpt>
      <trkpt lat="42.00522" lon="-5.84284">
        <ele>707.1582</ele>
        <time>2021-07-06T07:08:55Z</time>
      </trkpt>
      <trkpt lat="42.00539" lon="-5.84647">
        <ele>707.7385</ele>
        <time>2021-07-06T07:09:06Z</time>
      </trkpt>
      <trkpt lat="42.00551" lon="-5.85014">
        <ele>710.3868</ele>
        <time>2021-07-06T07:09:17Z</time>
      </trkpt>
      <trkpt lat="42.00564" lon="-5.8536">
        <ele>712.8664</ele>
        <time>2021-07-06T07:09:28Z</time>
      </trkpt>
      <trkpt lat="42.00573" lon="-5.85728">
        <ele>712.1017</ele>
        <time>2021-07-06T07:09:39Z</time>
      </trkpt>
      <trkpt lat="42.00593" lon="-5.86193">
        <ele>714.599</ele>
        <time>2021-07-06T07:09:50Z</time>
      </trkpt>
      <trkpt lat="42.00608" lon="-5.86605">
        <ele>715.8053</ele>
        <time>2021-07-06T07:10:01Z</time>
      </trkpt>
      <trkpt lat="42.00623" lon="-5.87017">
        <ele>715.2957</ele>
        <time>2021-07-06T07:10:12Z</time>
      </trkpt>
      <trkpt lat="42.00637" lon="-5.87429">
        <ele>714.9053</ele>
        <time>2021-07-06T07:10:23Z</time>
      </trkpt>
      <trkpt lat="42.00652" lon="-5.87843">
        <ele>716.6484</ele>
        <time>2021-07-06T07:10:34Z</time>
      </trkpt>
      <trkpt lat="42.00666" lon="-5.88224">
        <ele>714.6809</ele>
        <time>2021-07-06T07:10:45Z</time>
      </trkpt>
      <trkpt lat="42.00679" lon="-5.8863">
        <ele>715.7668</ele>
        <time>2021-07-06T07:10:56Z</time>
      </trkpt>
      <trkpt lat="42.00694" lon="-5.89022">
        <ele>714.9697</ele>
        <time>2021-07-06T07:11:07Z</time>
      </trkpt>
      <trkpt lat="42.00707" lon="-5.89401">
        <ele>714.643</ele>
        <time>2021-07-06T07:11:18Z</time>
      </trkpt>
      <trkpt lat="42.0072" lon="-5.89769">
        <ele>714.7902</ele>
        <time>2021-07-06T07:11:29Z</time>
      </trkpt>
      <trkpt lat="42.0073" lon="-5.90067">
        <ele>715.8918</ele>
        <time>2021-07-06T07:11:40Z</time>
      </trkpt>
      <trkpt lat="42.00742" lon="-5.90353">
        <ele>718.2074</ele>
        <time>2021-07-06T07:11:51Z</time>
      </trkpt>
      <trkpt lat="42.00751" lon="-5.90591">
        <ele>725.339</ele>
        <time>2021-07-06T07:12:02Z</time>
      </trkpt>
      <trkpt lat="42.00718" lon="-5.9082">
        <ele>726.7309</ele>
        <time>2021-07-06T07:12:13Z</time>
      </trkpt>
      <trkpt lat="42.00573" lon="-5.91158">
        <ele>726.8347</ele>
        <time>2021-07-06T07:12:24Z</time>
      </trkpt>
      <trkpt lat="42.00442" lon="-5.91463">
        <ele>729.7358</ele>
        <time>2021-07-06T07:12:35Z</time>
      </trkpt>
      <trkpt lat="42.00309" lon="-5.91797">
        <ele>734.9155</ele>
        <time>2021-07-06T07:12:46Z</time>
      </trkpt>
      <trkpt lat="42.00294" lon="-5.92197">
        <ele>728.6923</ele>
        <time>2021-07-06T07:12:57Z</time>
      </trkpt>
      <trkpt lat="42.00261" lon="-5.92583">
        <ele>721.4337</ele>
        <time>2021-07-06T07:13:08Z</time>
      </trkpt>
      <trkpt lat="42.00213" lon="-5.92977">
        <ele>719.7069</ele>
        <time>2021-07-06T07:13:19Z</time>
      </trkpt>
      <trkpt lat="42.00162" lon="-5.93374">
        <ele>720.7005</ele>
        <time>2021-07-06T07:13:30Z</time>
      </trkpt>
      <trkpt lat="42.00113" lon="-5.93767">
        <ele>721.017</ele>
        <time>2021-07-06T07:13:41Z</time>
      </trkpt>
      <trkpt lat="42.0006" lon="-5.94168">
        <ele>726.4002</ele>
        <time>2021-07-06T07:13:52Z</time>
      </trkpt>
      <trkpt lat="42.00008" lon="-5.94604">
        <ele>730.0049</ele>
        <time>2021-07-06T07:14:03Z</time>
      </trkpt>
      <trkpt lat="41.99971" lon="-5.9497">
        <ele>731.1122</ele>
        <time>2021-07-06T07:14:14Z</time>
      </trkpt>
      <trkpt lat="41.99922" lon="-5.95398">
        <ele>733.9575</ele>
        <time>2021-07-06T07:14:25Z</time>
      </trkpt>
      <trkpt lat="41.99831" lon="-5.95736">
        <ele>733.473</ele>
        <time>2021-07-06T07:14:36Z</time>
      </trkpt>
      <trkpt lat="41.99731" lon="-5.96102">
        <ele>733.7635</ele>
        <time>2021-07-06T07:14:47Z</time>
      </trkpt>
      <trkpt lat="41.99632" lon="-5.96468">
        <ele>733.1845</ele>
        <time>2021-07-06T07:14:58Z</time>
      </trkpt>
      <trkpt lat="41.99564" lon="-5.96752">
        <ele>734.3239</ele>
        <time>2021-07-06T07:15:09Z</time>
      </trkpt>
      <trkpt lat="41.99527" lon="-5.96996">
        <ele>738.4556</ele>
        <time>2021-07-06T07:15:20Z</time>
      </trkpt>
      <trkpt lat="41.99506" lon="-5.97234">
        <ele>739.4232</ele>
        <time>2021-07-06T07:15:31Z</time>
      </trkpt>
      <trkpt lat="41.99583" lon="-5.97461">
        <ele>746.7243</ele>
        <time>2021-07-06T07:15:42Z</time>
      </trkpt>
      <trkpt lat="41.99678" lon="-5.97753">
        <ele>746.797</ele>
        <time>2021-07-06T07:15:53Z</time>
      </trkpt>
      <trkpt lat="41.99655" lon="-5.98138">
        <ele>738.2942</ele>
        <time>2021-07-06T07:16:04Z</time>
      </trkpt>
      <trkpt lat="41.99632" lon="-5.98535">
        <ele>728.8171</ele>
        <time>2021-07-06T07:16:15Z</time>
      </trkpt>
      <trkpt lat="41.99674" lon="-5.98907">
        <ele>726.7645</ele>
        <time>2021-07-06T07:16:26Z</time>
      </trkpt>
      <trkpt lat="41.99712" lon="-5.99233">
        <ele>728.3948</ele>
        <time>2021-07-06T07:16:37Z</time>
      </trkpt>
      <trkpt lat="41.99751" lon="-5.99546">
        <ele>726.8045</ele>
        <time>2021-07-06T07:16:48Z</time>
      </trkpt>
      <trkpt lat="41.9979" lon="-5.99872">
        <ele>727.101</ele>
        <time>2021-07-06T07:16:59Z</time>
      </trkpt>
      <trkpt lat="41.99819" lon="-6.00204">
        <ele>727.1028</ele>
        <time>2021-07-06T07:17:10Z</time>
      </trkpt>
      <trkpt lat="41.99831" lon="-6.00544">
        <ele>727.9418</ele>
        <time>2021-07-06T07:17:21Z</time>
      </trkpt>
      <trkpt lat="41.99872" lon="-6.00876">
        <ele>729.248</ele>
        <time>2021-07-06T07:17:32Z</time>
      </trkpt>
      <trkpt lat="41.99918" lon="-6.01195">
        <ele>731.8374</ele>
        <time>2021-07-06T07:17:43Z</time>
      </trkpt>
      <trkpt lat="41.99952" lon="-6.01457">
        <ele>735.0592</ele>
        <time>2021-07-06T07:17:54Z</time>
      </trkpt>
      <trkpt lat="41.99975" lon="-6.01672">
        <ele>730.8895</ele>
        <time>2021-07-06T07:18:05Z</time>
      </trkpt>
      <trkpt lat="41.99962" lon="-6.01771">
        <ele>735.7284</ele>
        <time>2021-07-06T07:18:16Z</time>
      </trkpt>
      <trkpt lat="41.99862" lon="-6.0202">
        <ele>734.4967</ele>
        <time>2021-07-06T07:18:27Z</time>
      </trkpt>
      <trkpt lat="41.99732" lon="-6.02269">
        <ele>734.912</ele>
        <time>2021-07-06T07:18:38Z</time>
      </trkpt>
      <trkpt lat="41.9964" lon="-6.02492">
        <ele>733.7037</ele>
        <time>2021-07-06T07:18:49Z</time>
      </trkpt>
      <trkpt lat="41.99561" lon="-6.02708">
        <ele>736.9217</ele>
        <time>2021-07-06T07:19:00Z</time>
      </trkpt>
      <trkpt lat="41.99486" lon="-6.02917">
        <ele>740.0732</ele>
        <time>2021-07-06T07:19:11Z</time>
      </trkpt>
      <trkpt lat="41.99412" lon="-6.03131">
        <ele>741.9965</ele>
        <time>2021-07-06T07:19:22Z</time>
      </trkpt>
      <trkpt lat="41.99327" lon="-6.03373">
        <ele>741.4443</ele>
        <time>2021-07-06T07:19:33Z</time>
      </trkpt>
      <trkpt lat="41.99228" lon="-6.03643">
        <ele>741.2318</ele>
        <time>2021-07-06T07:19:44Z</time>
      </trkpt>
      <trkpt lat="41.99118" lon="-6.03968">
        <ele>741.4685</ele>
        <time>2021-07-06T07:19:55Z</time>
      </trkpt>
      <trkpt lat="41.9908" lon="-6.04332">
        <ele>744.4646</ele>
        <time>2021-07-06T07:20:06Z</time>
      </trkpt>
      <trkpt lat="41.9909" lon="-6.04705">
        <ele>744.1201</ele>
        <time>2021-07-06T07:20:17Z</time>
      </trkpt>
      <trkpt lat="41.9913" lon="-6.05086">
        <ele>741.3583</ele>
        <time>2021-07-06T07:20:28Z</time>
      </trkpt>
      <trkpt lat="41.99172" lon="-6.05468">
        <ele>742.2766</ele>
        <time>2021-07-06T07:20:39Z</time>
      </trkpt>
      <trkpt lat="41.99211" lon="-6.05833">
        <ele>743.2361</ele>
        <time>2021-07-06T07:20:50Z</time>
      </trkpt>
      <trkpt lat="41.99251" lon="-6.06193">
        <ele>742.5224</ele>
        <time>2021-07-06T07:21:01Z</time>
      </trkpt>
      <trkpt lat="41.99292" lon="-6.06562">
        <ele>740.6642</ele>
        <time>2021-07-06T07:21:12Z</time>
      </trkpt>
      <trkpt lat="41.99332" lon="-6.06933">
        <ele>740.6278</ele>
        <time>2021-07-06T07:21:23Z</time>
      </trkpt>
      <trkpt lat="41.99369" lon="-6.073">
        <ele>742.3692</ele>
        <time>2021-07-06T07:21:34Z</time>
      </trkpt>
      <trkpt lat="41.99408" lon="-6.07657">
        <ele>742.7375</ele>
        <time>2021-07-06T07:21:45Z</time>
      </trkpt>
      <trkpt lat="41.99446" lon="-6.08015">
        <ele>745.6394</ele>
        <time>2021-07-06T07:21:56Z</time>
      </trkpt>
      <trkpt lat="41.99487" lon="-6.0838">
        <ele>747.8217</ele>
        <time>2021-07-06T07:22:07Z</time>
      </trkpt>
      <trkpt lat="41.99535" lon="-6.0875">
        <ele>752.6298</ele>
        <time>2021-07-06T07:22:18Z</time>
      </trkpt>
      <trkpt lat="41.99643" lon="-6.09106">
        <ele>761.8427</ele>
        <time>2021-07-06T07:22:29Z</time>
      </trkpt>
      <trkpt lat="41.99728" lon="-6.09486">
        <ele>753.7222</ele>
        <time>2021-07-06T07:22:40Z</time>
      </trkpt>
      <trkpt lat="41.99813" lon="-6.09879">
        <ele>748.3163</ele>
        <time>2021-07-06T07:22:51Z</time>
      </trkpt>
      <trkpt lat="41.99892" lon="-6.10262">
        <ele>748.7145</ele>
        <time>2021-07-06T07:23:02Z</time>
      </trkpt>
      <trkpt lat="41.99973" lon="-6.10644">
        <ele>747.8914</ele>
        <time>2021-07-06T07:23:13Z</time>
      </trkpt>
      <trkpt lat="42.00058" lon="-6.11029">
        <ele>748.7397</ele>
        <time>2021-07-06T07:23:24Z</time>
      </trkpt>
      <trkpt lat="42.00066" lon="-6.11421">
        <ele>750.7888</ele>
        <time>2021-07-06T07:23:35Z</time>
      </trkpt>
      <trkpt lat="41.99938" lon="-6.11797">
        <ele>749.6507</ele>
        <time>2021-07-06T07:23:46Z</time>
      </trkpt>
      <trkpt lat="41.99827" lon="-6.12117">
        <ele>748.0794</ele>
        <time>2021-07-06T07:23:57Z</time>
      </trkpt>
      <trkpt lat="41.99743" lon="-6.12369">
        <ele>747.584</ele>
        <time>2021-07-06T07:24:08Z</time>
      </trkpt>
      <trkpt lat="41.99697" lon="-6.12589">
        <ele>752.2958</ele>
        <time>2021-07-06T07:24:19Z</time>
      </trkpt>
      <trkpt lat="41.99732" lon="-6.12879">
        <ele>755.6677</ele>
        <time>2021-07-06T07:24:30Z</time>
      </trkpt>
      <trkpt lat="41.99776" lon="-6.13247">
        <ele>757.8357</ele>
        <time>2021-07-06T07:24:41Z</time>
      </trkpt>
      <trkpt lat="41.99821" lon="-6.13629">
        <ele>759.6254</ele>
        <time>2021-07-06T07:24:52Z</time>
      </trkpt>
      <trkpt lat="41.99867" lon="-6.1402">
        <ele>761.0892</ele>
        <time>2021-07-06T07:25:03Z</time>
      </trkpt>
      <trkpt lat="41.99915" lon="-6.1441">
        <ele>765.2986</ele>
        <time>2021-07-06T07:25:14Z</time>
      </trkpt>
      <trkpt lat="41.99963" lon="-6.14805">
        <ele>766.1595</ele>
        <time>2021-07-06T07:25:25Z</time>
      </trkpt>
      <trkpt lat="42.00014" lon="-6.15207">
        <ele>768.0432</ele>
        <time>2021-07-06T07:25:36Z</time>
      </trkpt>
      <trkpt lat="42.00059" lon="-6.15548">
        <ele>768.115</ele>
        <time>2021-07-06T07:25:47Z</time>
      </trkpt>
      <trkpt lat="42.00091" lon="-6.15807">
        <ele>775.1091</ele>
        <time>2021-07-06T07:25:58Z</time>
      </trkpt>
      <trkpt lat="42.00121" lon="-6.16053">
        <ele>782.1771</ele>
        <time>2021-07-06T07:26:09Z</time>
      </trkpt>
      <trkpt lat="42.00146" lon="-6.16312">
        <ele>790.2998</ele>
        <time>2021-07-06T07:26:20Z</time>
      </trkpt>
      <trkpt lat="42.00181" lon="-6.16647">
        <ele>790.5637</ele>
        <time>2021-07-06T07:26:31Z</time>
      </trkpt>
      <trkpt lat="42.00219" lon="-6.17014">
        <ele>785.9448</ele>
        <time>2021-07-06T07:26:42Z</time>
      </trkpt>
      <trkpt lat="42.00258" lon="-6.17389">
        <ele>782.8396</ele>
        <time>2021-07-06T07:26:53Z</time>
      </trkpt>
      <trkpt lat="42.00299" lon="-6.17777">
        <ele>785.6645</ele>
        <time>2021-07-06T07:27:04Z</time>
      </trkpt>
      <trkpt lat="42.00339" lon="-6.18165">
        <ele>790.5035</ele>
        <time>2021-07-06T07:27:15Z</time>
      </trkpt>
      <trkpt lat="42.0038" lon="-6.18562">
        <ele>797.0886</ele>
        <time>2021-07-06T07:27:26Z</time>
      </trkpt>
      <trkpt lat="42.00421" lon="-6.18955">
        <ele>797.3313</ele>
        <time>2021-07-06T07:27:37Z</time>
      </trkpt>
      <trkpt lat="42.00461" lon="-6.19349">
        <ele>800.309</ele>
        <time>2021-07-06T07:27:48Z</time>
      </trkpt>
      <trkpt lat="42.00496" lon="-6.19746">
        <ele>805.8714</ele>
        <time>2021-07-06T07:27:59Z</time>
      </trkpt>
      <trkpt lat="42.00523" lon="-6.20142">
        <ele>805.4616</ele>
        <time>2021-07-06T07:28:10Z</time>
      </trkpt>
      <trkpt lat="42.00553" lon="-6.20548">
        <ele>805.1252</ele>
        <time>2021-07-06T07:28:21Z</time>
      </trkpt>
      <trkpt lat="42.00518" lon="-6.20949">
        <ele>798.0876</ele>
        <time>2021-07-06T07:28:32Z</time>
      </trkpt>
      <trkpt lat="42.00525" lon="-6.21354">
        <ele>794.4676</ele>
        <time>2021-07-06T07:28:43Z</time>
      </trkpt>
      <trkpt lat="42.00546" lon="-6.21743">
        <ele>791.6183</ele>
        <time>2021-07-06T07:28:54Z</time>
      </trkpt>
      <trkpt lat="42.00562" lon="-6.2204">
        <ele>792.0415</ele>
        <time>2021-07-06T07:29:05Z</time>
      </trkpt>
      <trkpt lat="42.00577" lon="-6.22326">
        <ele>791.649</ele>
        <time>2021-07-06T07:29:16Z</time>
      </trkpt>
      <trkpt lat="42.00593" lon="-6.22584">
        <ele>790.6576</ele>
        <time>2021-07-06T07:29:27Z</time>
      </trkpt>
      <trkpt lat="42.00643" lon="-6.22814">
        <ele>799.2805</ele>
        <time>2021-07-06T07:29:38Z</time>
      </trkpt>
      <trkpt lat="42.00694" lon="-6.23064">
        <ele>807.9433</ele>
        <time>2021-07-06T07:29:49Z</time>
      </trkpt>
      <trkpt lat="42.00733" lon="-6.23379">
        <ele>816.7394</ele>
        <time>2021-07-06T07:30:00Z</time>
      </trkpt>
      <trkpt lat="42.00775" lon="-6.23718">
        <ele>817.154</ele>
        <time>2021-07-06T07:30:11Z</time>
      </trkpt>
      <trkpt lat="42.00819" lon="-6.24069">
        <ele>826.9599</ele>
        <time>2021-07-06T07:30:22Z</time>
      </trkpt>
      <trkpt lat="42.00862" lon="-6.24412">
        <ele>839.6262</ele>
        <time>2021-07-06T07:30:33Z</time>
      </trkpt>
      <trkpt lat="42.00903" lon="-6.24749">
        <ele>849.8733</ele>
        <time>2021-07-06T07:30:44Z</time>
      </trkpt>
      <trkpt lat="42.00948" lon="-6.25105">
        <ele>854.8778</ele>
        <time>2021-07-06T07:30:55Z</time>
      </trkpt>
      <trkpt lat="42.00993" lon="-6.25469">
        <ele>855.5548</ele>
        <time>2021-07-06T07:31:06Z</time>
      </trkpt>
      <trkpt lat="42.01041" lon="-6.25847">
        <ele>860.0346</ele>
        <time>2021-07-06T07:31:17Z</time>
      </trkpt>
      <trkpt lat="42.01085" lon="-6.26207">
        <ele>859.8825</ele>
        <time>2021-07-06T07:31:28Z</time>
      </trkpt>
      <trkpt lat="42.0113" lon="-6.26555">
        <ele>860.7877</ele>
        <time>2021-07-06T07:31:39Z</time>
      </trkpt>
      <trkpt lat="42.01175" lon="-6.26923">
        <ele>861.3287</ele>
        <time>2021-07-06T07:31:50Z</time>
      </trkpt>
      <trkpt lat="42.01221" lon="-6.27304">
        <ele>861.6303</ele>
        <time>2021-07-06T07:32:01Z</time>
      </trkpt>
      <trkpt lat="42.0127" lon="-6.27699">
        <ele>865.9382</ele>
        <time>2021-07-06T07:32:12Z</time>
      </trkpt>
      <trkpt lat="42.01316" lon="-6.28096">
        <ele>870.5704</ele>
        <time>2021-07-06T07:32:23Z</time>
      </trkpt>
      <trkpt lat="42.01369" lon="-6.28499">
        <ele>877.6568</ele>
        <time>2021-07-06T07:32:34Z</time>
      </trkpt>
      <trkpt lat="42.01421" lon="-6.28907">
        <ele>886.7743</ele>
        <time>2021-07-06T07:32:45Z</time>
      </trkpt>
      <trkpt lat="42.01471" lon="-6.29314">
        <ele>890.5414</ele>
        <time>2021-07-06T07:32:56Z</time>
      </trkpt>
      <trkpt lat="42.01549" lon="-6.29713">
        <ele>888.6789</ele>
        <time>2021-07-06T07:33:07Z</time>
      </trkpt>
      <trkpt lat="42.01647" lon="-6.30104">
        <ele>887.6081</ele>
        <time>2021-07-06T07:33:18Z</time>
      </trkpt>
      <trkpt lat="42.01746" lon="-6.305">
        <ele>893.9603</ele>
        <time>2021-07-06T07:33:29Z</time>
      </trkpt>
      <trkpt lat="42.01841" lon="-6.30879">
        <ele>897.4975</ele>
        <time>2021-07-06T07:33:40Z</time>
      </trkpt>
      <trkpt lat="42.01934" lon="-6.31251">
        <ele>898.9265</ele>
        <time>2021-07-06T07:33:51Z</time>
      </trkpt>
      <trkpt lat="42.02015" lon="-6.31577">
        <ele>899.9825</ele>
        <time>2021-07-06T07:34:02Z</time>
      </trkpt>
      <trkpt lat="42.02093" lon="-6.31893">
        <ele>906.5033</ele>
        <time>2021-07-06T07:34:13Z</time>
      </trkpt>
      <trkpt lat="42.02156" lon="-6.32146">
        <ele>906.5977</ele>
        <time>2021-07-06T07:34:24Z</time>
      </trkpt>
      <trkpt lat="42.02216" lon="-6.32385">
        <ele>902.8055</ele>
        <time>2021-07-06T07:34:35Z</time>
      </trkpt>
      <trkpt lat="42.02275" lon="-6.32627">
        <ele>901.5786</ele>
        <time>2021-07-06T07:34:46Z</time>
      </trkpt>
      <trkpt lat="42.02302" lon="-6.32851">
        <ele>897.2597</ele>
        <time>2021-07-06T07:34:57Z</time>
      </trkpt>
      <trkpt lat="42.02341" lon="-6.33068">
        <ele>891.4958</ele>
        <time>2021-07-06T07:35:08Z</time>
      </trkpt>
      <trkpt lat="42.02364" lon="-6.33257">
        <ele>892.9996</ele>
        <time>2021-07-06T07:35:19Z</time>
      </trkpt>
      <trkpt lat="42.02368" lon="-6.33451">
        <ele>899.8134</ele>
        <time>2021-07-06T07:35:30Z</time>
      </trkpt>
      <trkpt lat="42.0237" lon="-6.33698">
        <ele>896.2027</ele>
        <time>2021-07-06T07:35:41Z</time>
      </trkpt>
      <trkpt lat="42.02371" lon="-6.33997">
        <ele>901.3585</ele>
        <time>2021-07-06T07:35:52Z</time>
      </trkpt>
      <trkpt lat="42.02377" lon="-6.34379">
        <ele>911.0612</ele>
        <time>2021-07-06T07:36:03Z</time>
      </trkpt>
      <trkpt lat="42.02379" lon="-6.34762">
        <ele>917.5536</ele>
        <time>2021-07-06T07:36:14Z</time>
      </trkpt>
      <trkpt lat="42.02383" lon="-6.3514">
        <ele>912.6425</ele>
        <time>2021-07-06T07:36:25Z</time>
      </trkpt>
      <trkpt lat="42.02387" lon="-6.35515">
        <ele>921.1243</ele>
        <time>2021-07-06T07:36:36Z</time>
      </trkpt>
      <trkpt lat="42.02391" lon="-6.35888">
        <ele>929.778</ele>
        <time>2021-07-06T07:36:47Z</time>
      </trkpt>
      <trkpt lat="42.02419" lon="-6.36262">
        <ele>937.934</ele>
        <time>2021-07-06T07:36:58Z</time>
      </trkpt>
      <trkpt lat="42.02489" lon="-6.3663">
        <ele>946.0495</ele>
        <time>2021-07-06T07:37:09Z</time>
      </trkpt>
      <trkpt lat="42.02558" lon="-6.37004">
        <ele>948.314</ele>
        <time>2021-07-06T07:37:20Z</time>
      </trkpt>
      <trkpt lat="42.02627" lon="-6.37372">
        <ele>944.3848</ele>
        <time>2021-07-06T07:37:31Z</time>
      </trkpt>
      <trkpt lat="42.02699" lon="-6.37755">
        <ele>938.9671</ele>
        <time>2021-07-06T07:37:42Z</time>
      </trkpt>
      <trkpt lat="42.02772" lon="-6.38149">
        <ele>938.258</ele>
        <time>2021-07-06T07:37:53Z</time>
      </trkpt>
      <trkpt lat="42.02845" lon="-6.3853">
        <ele>937.8484</ele>
        <time>2021-07-06T07:38:04Z</time>
      </trkpt>
      <trkpt lat="42.02917" lon="-6.3891">
        <ele>934.9307</ele>
        <time>2021-07-06T07:38:15Z</time>
      </trkpt>
      <trkpt lat="42.02989" lon="-6.39296">
        <ele>937.7655</ele>
        <time>2021-07-06T07:38:26Z</time>
      </trkpt>
      <trkpt lat="42.03061" lon="-6.39687">
        <ele>935.3237</ele>
        <time>2021-07-06T07:38:37Z</time>
      </trkpt>
      <trkpt lat="42.03136" lon="-6.40083">
        <ele>933.499</ele>
        <time>2021-07-06T07:38:48Z</time>
      </trkpt>
      <trkpt lat="42.03213" lon="-6.40487">
        <ele>932.0407</ele>
        <time>2021-07-06T07:38:59Z</time>
      </trkpt>
      <trkpt lat="42.03287" lon="-6.40892">
        <ele>930.3738</ele>
        <time>2021-07-06T07:39:10Z</time>
      </trkpt>
      <trkpt lat="42.03364" lon="-6.41297">
        <ele>929.1376</ele>
        <time>2021-07-06T07:39:21Z</time>
      </trkpt>
      <trkpt lat="42.03442" lon="-6.41709">
        <ele>931.3812</ele>
        <time>2021-07-06T07:39:32Z</time>
      </trkpt>
      <trkpt lat="42.0352" lon="-6.42118">
        <ele>934.1794</ele>
        <time>2021-07-06T07:39:43Z</time>
      </trkpt>
      <trkpt lat="42.03596" lon="-6.42523">
        <ele>936.4364</ele>
        <time>2021-07-06T07:39:54Z</time>
      </trkpt>
      <trkpt lat="42.0367" lon="-6.42922">
        <ele>937.3284</ele>
        <time>2021-07-06T07:40:05Z</time>
      </trkpt>
      <trkpt lat="42.03746" lon="-6.43325">
        <ele>930.7903</ele>
        <time>2021-07-06T07:40:16Z</time>
      </trkpt>
      <trkpt lat="42.03819" lon="-6.43722">
        <ele>929.6507</ele>
        <time>2021-07-06T07:40:27Z</time>
      </trkpt>
      <trkpt lat="42.03893" lon="-6.44117">
        <ele>928.5594</ele>
        <time>2021-07-06T07:40:38Z</time>
      </trkpt>
      <trkpt lat="42.03963" lon="-6.44492">
        <ele>938.1421</ele>
        <time>2021-07-06T07:40:49Z</time>
      </trkpt>
      <trkpt lat="42.04032" lon="-6.44867">
        <ele>938.8293</ele>
        <time>2021-07-06T07:41:00Z</time>
      </trkpt>
      <trkpt lat="42.04102" lon="-6.45239">
        <ele>937.8619</ele>
        <time>2021-07-06T07:41:11Z</time>
      </trkpt>
      <trkpt lat="42.04172" lon="-6.4561">
        <ele>944.4814</ele>
        <time>2021-07-06T07:41:22Z</time>
      </trkpt>
      <trkpt lat="42.04244" lon="-6.45979">
        <ele>950.075</ele>
        <time>2021-07-06T07:41:33Z</time>
      </trkpt>
      <trkpt lat="42.04312" lon="-6.46356">
        <ele>953.0934</ele>
        <time>2021-07-06T07:41:44Z</time>
      </trkpt>
      <trkpt lat="42.04392" lon="-6.46718">
        <ele>955.3997</ele>
        <time>2021-07-06T07:41:55Z</time>
      </trkpt>
      <trkpt lat="42.04515" lon="-6.47064">
        <ele>959.2753</ele>
        <time>2021-07-06T07:42:06Z</time>
      </trkpt>
      <trkpt lat="42.0464" lon="-6.4741">
        <ele>962.5201</ele>
        <time>2021-07-06T07:42:17Z</time>
      </trkpt>
      <trkpt lat="42.04778" lon="-6.47792">
        <ele>962.5009</ele>
        <time>2021-07-06T07:42:28Z</time>
      </trkpt>
      <trkpt lat="42.04893" lon="-6.48104">
        <ele>964.1344</ele>
        <time>2021-07-06T07:42:39Z</time>
      </trkpt>
      <trkpt lat="42.04977" lon="-6.48335">
        <ele>963.5522</ele>
        <time>2021-07-06T07:42:50Z</time>
      </trkpt>
      <trkpt lat="42.05034" lon="-6.48575">
        <ele>966.0902</ele>
        <time>2021-07-06T07:43:01Z</time>
      </trkpt>
      <trkpt lat="42.05124" lon="-6.48804">
        <ele>969.7464</ele>
        <time>2021-07-06T07:43:12Z</time>
      </trkpt>
      <trkpt lat="42.05141" lon="-6.49047">
        <ele>970.8501</ele>
        <time>2021-07-06T07:43:23Z</time>
      </trkpt>
      <trkpt lat="42.05199" lon="-6.49313">
        <ele>976.5933</ele>
        <time>2021-07-06T07:43:34Z</time>
      </trkpt>
      <trkpt lat="42.05274" lon="-6.49661">
        <ele>981.4063</ele>
        <time>2021-07-06T07:43:45Z</time>
      </trkpt>
      <trkpt lat="42.05369" lon="-6.50024">
        <ele>975.59</ele>
        <time>2021-07-06T07:43:56Z</time>
      </trkpt>
      <trkpt lat="42.05506" lon="-6.50354">
        <ele>967.6438</ele>
        <time>2021-07-06T07:44:07Z</time>
      </trkpt>
      <trkpt lat="42.05683" lon="-6.50673">
        <ele>961.4885</ele>
        <time>2021-07-06T07:44:18Z</time>
      </trkpt>
      <trkpt lat="42.0574" lon="-6.51065">
        <ele>957.8401</ele>
        <time>2021-07-06T07:44:29Z</time>
      </trkpt>
      <trkpt lat="42.05772" lon="-6.51469">
        <ele>963.1607</ele>
        <time>2021-07-06T07:44:40Z</time>
      </trkpt>
      <trkpt lat="42.05821" lon="-6.51766">
        <ele>975.8131</ele>
        <time>2021-07-06T07:44:51Z</time>
      </trkpt>
      <trkpt lat="42.05877" lon="-6.52029">
        <ele>979.9747</ele>
        <time>2021-07-06T07:45:02Z</time>
      </trkpt>
      <trkpt lat="42.0587" lon="-6.52289">
        <ele>979.6165</ele>
        <time>2021-07-06T07:45:13Z</time>
      </trkpt>
      <trkpt lat="42.05826" lon="-6.52571">
        <ele>976.3151</ele>
        <time>2021-07-06T07:45:24Z</time>
      </trkpt>
      <trkpt lat="42.05782" lon="-6.52851">
        <ele>982.9957</ele>
        <time>2021-07-06T07:45:35Z</time>
      </trkpt>
      <trkpt lat="42.05769" lon="-6.53227">
        <ele>978.3614</ele>
        <time>2021-07-06T07:45:46Z</time>
      </trkpt>
      <trkpt lat="42.05751" lon="-6.53614">
        <ele>977.4166</ele>
        <time>2021-07-06T07:45:57Z</time>
      </trkpt>
      <trkpt lat="42.05583" lon="-6.53973">
        <ele>993.7171</ele>
        <time>2021-07-06T07:46:08Z</time>
      </trkpt>
      <trkpt lat="42.05451" lon="-6.54322">
        <ele>991.2653</ele>
        <time>2021-07-06T07:46:19Z</time>
      </trkpt>
      <trkpt lat="42.05411" lon="-6.54703">
        <ele>990.091</ele>
        <time>2021-07-06T07:46:30Z</time>
      </trkpt>
      <trkpt lat="42.05422" lon="-6.55051">
        <ele>982.3047</ele>
        <time>2021-07-06T07:46:41Z</time>
      </trkpt>
      <trkpt lat="42.05396" lon="-6.55415">
        <ele>976.0514</ele>
        <time>2021-07-06T07:46:52Z</time>
      </trkpt>
      <trkpt lat="42.05326" lon="-6.55735">
        <ele>977.6669</ele>
        <time>2021-07-06T07:47:03Z</time>
      </trkpt>
      <trkpt lat="42.05215" lon="-6.5605">
        <ele>977.8693</ele>
        <time>2021-07-06T07:47:14Z</time>
      </trkpt>
      <trkpt lat="42.05067" lon="-6.56321">
        <ele>976.8211</ele>
        <time>2021-07-06T07:47:25Z</time>
      </trkpt>
      <trkpt lat="42.04984" lon="-6.56634">
        <ele>969.2283</ele>
        <time>2021-07-06T07:47:36Z</time>
      </trkpt>
      <trkpt lat="42.0494" lon="-6.56901">
        <ele>959.0908</ele>
        <time>2021-07-06T07:47:47Z</time>
      </trkpt>
      <trkpt lat="42.0493" lon="-6.5717">
        <ele>957.2808</ele>
        <time>2021-07-06T07:47:58Z</time>
      </trkpt>
      <trkpt lat="42.04925" lon="-6.57423">
        <ele>956.0393</ele>
        <time>2021-07-06T07:48:09Z</time>
      </trkpt>
      <trkpt lat="42.04951" lon="-6.57682">
        <ele>949.882</ele>
        <time>2021-07-06T07:48:20Z</time>
      </trkpt>
      <trkpt lat="42.04902" lon="-6.57989">
        <ele>943.2964</ele>
        <time>2021-07-06T07:48:31Z</time>
      </trkpt>
      <trkpt lat="42.04848" lon="-6.5837">
        <ele>940.9762</ele>
        <time>2021-07-06T07:48:42Z</time>
      </trkpt>
      <trkpt lat="42.04838" lon="-6.58745">
        <ele>928.808</ele>
        <time>2021-07-06T07:48:53Z</time>
      </trkpt>
      <trkpt lat="42.04958" lon="-6.59097">
        <ele>915.9955</ele>
        <time>2021-07-06T07:49:04Z</time>
      </trkpt>
      <trkpt lat="42.05104" lon="-6.59434">
        <ele>920.6065</ele>
        <time>2021-07-06T07:49:15Z</time>
      </trkpt>
      <trkpt lat="42.05293" lon="-6.59735">
        <ele>932.992</ele>
        <time>2021-07-06T07:49:26Z</time>
      </trkpt>
      <trkpt lat="42.054" lon="-6.60096">
        <ele>944.9275</ele>
        <time>2021-07-06T07:49:37Z</time>
      </trkpt>
      <trkpt lat="42.05452" lon="-6.6048">
        <ele>952.9498</ele>
        <time>2021-07-06T07:49:48Z</time>
      </trkpt>
      <trkpt lat="42.05522" lon="-6.60853">
        <ele>956.5094</ele>
        <time>2021-07-06T07:49:59Z</time>
      </trkpt>
      <trkpt lat="42.05646" lon="-6.61162">
        <ele>942.66</ele>
        <time>2021-07-06T07:50:10Z</time>
      </trkpt>
      <trkpt lat="42.05723" lon="-6.6146">
        <ele>933.2467</ele>
        <time>2021-07-06T07:50:21Z</time>
      </trkpt>
      <trkpt lat="42.05752" lon="-6.61763">
        <ele>923.6739</ele>
        <time>2021-07-06T07:50:32Z</time>
      </trkpt>
      <trkpt lat="42.05805" lon="-6.61983">
        <ele>916.9715</ele>
        <time>2021-07-06T07:50:43Z</time>
      </trkpt>
      <trkpt lat="42.05825" lon="-6.62198">
        <ele>914.342</ele>
        <time>2021-07-06T07:50:54Z</time>
      </trkpt>
      <trkpt lat="42.05888" lon="-6.62521">
        <ele>917.1831</ele>
        <time>2021-07-06T07:51:05Z</time>
      </trkpt>
      <trkpt lat="42.05951" lon="-6.62855">
        <ele>916.3866</ele>
        <time>2021-07-06T07:51:16Z</time>
      </trkpt>
      <trkpt lat="42.06012" lon="-6.63177">
        <ele>914.0439</ele>
        <time>2021-07-06T07:51:27Z</time>
      </trkpt>
      <trkpt lat="42.06056" lon="-6.63539">
        <ele>915.5337</ele>
        <time>2021-07-06T07:51:38Z</time>
      </trkpt>
      <trkpt lat="42.06057" lon="-6.63889">
        <ele>923.5886</ele>
        <time>2021-07-06T07:51:49Z</time>
      </trkpt>
      <trkpt lat="42.06055" lon="-6.64145">
        <ele>929.5962</ele>
        <time>2021-07-06T07:52:00Z</time>
      </trkpt>
      <trkpt lat="42.06055" lon="-6.6437">
        <ele>925.5917</ele>
        <time>2021-07-06T07:52:11Z</time>
      </trkpt>
      <trkpt lat="42.06086" lon="-6.64652">
        <ele>916.4898</ele>
        <time>2021-07-06T07:52:22Z</time>
      </trkpt>
      <trkpt lat="42.06133" lon="-6.64963">
        <ele>901.7326</ele>
        <time>2021-07-06T07:52:33Z</time>
      </trkpt>
      <trkpt lat="42.06077" lon="-6.65274">
        <ele>898.2056</ele>
        <time>2021-07-06T07:52:44Z</time>
      </trkpt>
      <trkpt lat="42.05981" lon="-6.65658">
        <ele>902.3697</ele>
        <time>2021-07-06T07:52:55Z</time>
      </trkpt>
      <trkpt lat="42.0589" lon="-6.66006">
        <ele>908.4692</ele>
        <time>2021-07-06T07:53:06Z</time>
      </trkpt>
      <trkpt lat="42.05745" lon="-6.66318">
        <ele>910.8169</ele>
        <time>2021-07-06T07:53:17Z</time>
      </trkpt>
      <trkpt lat="42.0558" lon="-6.66617">
        <ele>912.0204</ele>
        <time>2021-07-06T07:53:28Z</time>
      </trkpt>
      <trkpt lat="42.05412" lon="-6.66927">
        <ele>912.3361</ele>
        <time>2021-07-06T07:53:39Z</time>
      </trkpt>
      <trkpt lat="42.05242" lon="-6.67234">
        <ele>915.7149</ele>
        <time>2021-07-06T07:53:50Z</time>
      </trkpt>
      <trkpt lat="42.05093" lon="-6.67559">
        <ele>917.905</ele>
        <time>2021-07-06T07:54:01Z</time>
      </trkpt>
      <trkpt lat="42.05024" lon="-6.67936">
        <ele>920.5048</ele>
        <time>2021-07-06T07:54:12Z</time>
      </trkpt>
      <trkpt lat="42.04954" lon="-6.68314">
        <ele>921.9504</ele>
        <time>2021-07-06T07:54:23Z</time>
      </trkpt>
      <trkpt lat="42.04884" lon="-6.6869">
        <ele>918.3411</ele>
        <time>2021-07-06T07:54:34Z</time>
      </trkpt>
      <trkpt lat="42.04762" lon="-6.69051">
        <ele>918.32</ele>
        <time>2021-07-06T07:54:45Z</time>
      </trkpt>
      <trkpt lat="42.04601" lon="-6.69386">
        <ele>920.986</ele>
        <time>2021-07-06T07:54:56Z</time>
      </trkpt>
      <trkpt lat="42.04442" lon="-6.69718">
        <ele>924.4244</ele>
        <time>2021-07-06T07:55:07Z</time>
      </trkpt>
      <trkpt lat="42.0428" lon="-6.70051">
        <ele>926.2748</ele>
        <time>2021-07-06T07:55:18Z</time>
      </trkpt>
      <trkpt lat="42.04118" lon="-6.70386">
        <ele>929.6727</ele>
        <time>2021-07-06T07:55:29Z</time>
      </trkpt>
      <trkpt lat="42.03943" lon="-6.70707">
        <ele>934.6817</ele>
        <time>2021-07-06T07:55:40Z</time>
      </trkpt>
      <trkpt lat="42.0374" lon="-6.70985">
        <ele>940.5276</ele>
        <time>2021-07-06T07:55:51Z</time>
      </trkpt>
      <trkpt lat="42.03543" lon="-6.71249">
        <ele>951.3877</ele>
        <time>2021-07-06T07:56:02Z</time>
      </trkpt>
      <trkpt lat="42.03364" lon="-6.71509">
        <ele>956.6257</ele>
        <time>2021-07-06T07:56:13Z</time>
      </trkpt>
      <trkpt lat="42.03308" lon="-6.71822">
        <ele>956.2685</ele>
        <time>2021-07-06T07:56:24Z</time>
      </trkpt>
      <trkpt lat="42.03272" lon="-6.72139">
        <ele>951.7685</ele>
        <time>2021-07-06T07:56:35Z</time>
      </trkpt>
      <trkpt lat="42.03234" lon="-6.72489">
        <ele>958.2568</ele>
        <time>2021-07-06T07:56:46Z</time>
      </trkpt>
      <trkpt lat="42.03195" lon="-6.72852">
        <ele>965.2625</ele>
        <time>2021-07-06T07:56:57Z</time>
      </trkpt>
      <trkpt lat="42.03153" lon="-6.73218">
        <ele>970.8814</ele>
        <time>2021-07-06T07:57:08Z</time>
      </trkpt>
      <trkpt lat="42.03111" lon="-6.73578">
        <ele>977.614</ele>
        <time>2021-07-06T07:57:19Z</time>
      </trkpt>
      <trkpt lat="42.03079" lon="-6.7387">
        <ele>981.0815</ele>
        <time>2021-07-06T07:57:30Z</time>
      </trkpt>
      <trkpt lat="42.03053" lon="-6.74145">
        <ele>988.8939</ele>
        <time>2021-07-06T07:57:41Z</time>
      </trkpt>
      <trkpt lat="42.03107" lon="-6.74327">
        <ele>998.3272</ele>
        <time>2021-07-06T07:57:52Z</time>
      </trkpt>
      <trkpt lat="42.03115" lon="-6.74332">
        <ele>1000.229</ele>
        <time>2021-07-06T07:58:03Z</time>
      </trkpt>
      <trkpt lat="42.03119" lon="-6.7434">
        <ele>1000.864</ele>
        <time>2021-07-06T07:58:40Z</time>
      </trkpt>
      <trkpt lat="42.03091" lon="-6.7453">
        <ele>1003.32</ele>
        <time>2021-07-06T07:58:51Z</time>
      </trkpt>
      <trkpt lat="42.03046" lon="-6.7482">
        <ele>1007.191</ele>
        <time>2021-07-06T07:59:02Z</time>
      </trkpt>
      <trkpt lat="42.03057" lon="-6.75161">
        <ele>1007.791</ele>
        <time>2021-07-06T07:59:13Z</time>
      </trkpt>
      <trkpt lat="42.03077" lon="-6.7544">
        <ele>1011.488</ele>
        <time>2021-07-06T07:59:24Z</time>
      </trkpt>
      <trkpt lat="42.0309" lon="-6.75483">
        <ele>1014.028</ele>
        <time>2021-07-06T07:59:35Z</time>
      </trkpt>
      <trkpt lat="42.03092" lon="-6.75482">
        <ele>1018.625</ele>
        <time>2021-07-06T08:00:33Z</time>
      </trkpt>
      <trkpt lat="42.03088" lon="-6.75485">
        <ele>1018.416</ele>
        <time>2021-07-06T08:01:03Z</time>
      </trkpt>
      <trkpt lat="42.03089" lon="-6.7548">
        <ele>1020.778</ele>
        <time>2021-07-06T08:01:45Z</time>
      </trkpt>
      <trkpt lat="42.03089" lon="-6.75481">
        <ele>1014.298</ele>
        <time>2021-07-06T08:02:44Z</time>
      </trkpt>
      <trkpt lat="42.03089" lon="-6.75481">
        <ele>1014.298</ele>
        <time>2021-07-06T08:03:43Z</time>
      </trkpt>
      <trkpt lat="42.03089" lon="-6.75481">
        <ele>1014.298</ele>
        <time>2021-07-06T08:04:43Z</time>
      </trkpt>
      <trkpt lat="42.03089" lon="-6.75481">
        <ele>1014.298</ele>
        <time>2021-07-06T08:05:43Z</time>
      </trkpt>
      <trkpt lat="42.03088" lon="-6.75484">
        <ele>1020.121</ele>
        <time>2021-07-06T08:06:43Z</time>
      </trkpt>
      <trkpt lat="42.03089" lon="-6.7549">
        <ele>1018.283</ele>
        <time>2021-07-06T08:07:01Z</time>
      </trkpt>
      <trkpt lat="42.03065" lon="-6.75391">
        <ele>1012.529</ele>
        <time>2021-07-06T08:07:12Z</time>
      </trkpt>
      <trkpt lat="42.03051" lon="-6.75105">
        <ele>1006.747</ele>
        <time>2021-07-06T08:07:23Z</time>
      </trkpt>
      <trkpt lat="42.0304" lon="-6.74777">
        <ele>1007.041</ele>
        <time>2021-07-06T08:07:34Z</time>
      </trkpt>
      <trkpt lat="42.0309" lon="-6.7453">
        <ele>1005.174</ele>
        <time>2021-07-06T08:07:45Z</time>
      </trkpt>
      <trkpt lat="42.03109" lon="-6.74349">
        <ele>1000.312</ele>
        <time>2021-07-06T08:07:56Z</time>
      </trkpt>
      <trkpt lat="42.03234" lon="-6.74313">
        <ele>1008.674</ele>
        <time>2021-07-06T08:08:07Z</time>
      </trkpt>
      <trkpt lat="42.03423" lon="-6.74366">
        <ele>1018.051</ele>
        <time>2021-07-06T08:08:18Z</time>
      </trkpt>
      <trkpt lat="42.03504" lon="-6.74226">
        <ele>1022.966</ele>
        <time>2021-07-06T08:08:29Z</time>
      </trkpt>
      <trkpt lat="42.03425" lon="-6.74332">
        <ele>1020.457</ele>
        <time>2021-07-06T08:08:40Z</time>
      </trkpt>
      <trkpt lat="42.03379" lon="-6.74707">
        <ele>1030.494</ele>
        <time>2021-07-06T08:08:51Z</time>
      </trkpt>
      <trkpt lat="42.03319" lon="-6.75073">
        <ele>1045.06</ele>
        <time>2021-07-06T08:09:02Z</time>
      </trkpt>
      <trkpt lat="42.03358" lon="-6.75402">
        <ele>1059.376</ele>
        <time>2021-07-06T08:09:13Z</time>
      </trkpt>
      <trkpt lat="42.03444" lon="-6.75704">
        <ele>1069.413</ele>
        <time>2021-07-06T08:09:24Z</time>
      </trkpt>
      <trkpt lat="42.03489" lon="-6.76068">
        <ele>1080.973</ele>
        <time>2021-07-06T08:09:35Z</time>
      </trkpt>
      <trkpt lat="42.03511" lon="-6.76477">
        <ele>1093.115</ele>
        <time>2021-07-06T08:09:46Z</time>
      </trkpt>
      <trkpt lat="42.03606" lon="-6.76876">
        <ele>1106.279</ele>
        <time>2021-07-06T08:09:57Z</time>
      </trkpt>
      <trkpt lat="42.03779" lon="-6.77237">
        <ele>1121.802</ele>
        <time>2021-07-06T08:10:08Z</time>
      </trkpt>
      <trkpt lat="42.03963" lon="-6.77572">
        <ele>1138.751</ele>
        <time>2021-07-06T08:10:19Z</time>
      </trkpt>
      <trkpt lat="42.04133" lon="-6.77933">
        <ele>1155.593</ele>
        <time>2021-07-06T08:10:30Z</time>
      </trkpt>
      <trkpt lat="42.04215" lon="-6.78343">
        <ele>1173.237</ele>
        <time>2021-07-06T08:10:41Z</time>
      </trkpt>
      <trkpt lat="42.04192" lon="-6.7874">
        <ele>1188.921</ele>
        <time>2021-07-06T08:10:52Z</time>
      </trkpt>
      <trkpt lat="42.04086" lon="-6.79093">
        <ele>1203.525</ele>
        <time>2021-07-06T08:11:03Z</time>
      </trkpt>
      <trkpt lat="42.03959" lon="-6.79439">
        <ele>1218.247</ele>
        <time>2021-07-06T08:11:14Z</time>
      </trkpt>
      <trkpt lat="42.03922" lon="-6.79829">
        <ele>1236.316</ele>
        <time>2021-07-06T08:11:25Z</time>
      </trkpt>
      <trkpt lat="42.03962" lon="-6.80167">
        <ele>1252.889</ele>
        <time>2021-07-06T08:11:36Z</time>
      </trkpt>
      <trkpt lat="42.04001" lon="-6.80506">
        <ele>1266.085</ele>
        <time>2021-07-06T08:11:47Z</time>
      </trkpt>
      <trkpt lat="42.03996" lon="-6.8084">
        <ele>1278.628</ele>
        <time>2021-07-06T08:11:58Z</time>
      </trkpt>
      <trkpt lat="42.03935" lon="-6.81177">
        <ele>1293.93</ele>
        <time>2021-07-06T08:12:09Z</time>
      </trkpt>
      <trkpt lat="42.03836" lon="-6.81476">
        <ele>1310.989</ele>
        <time>2021-07-06T08:12:20Z</time>
      </trkpt>
      <trkpt lat="42.03754" lon="-6.81682">
        <ele>1311.077</ele>
        <time>2021-07-06T08:12:32Z</time>
      </trkpt>
      <trkpt lat="42.03509" lon="-6.82284">
        <ele>1317.199</ele>
        <time>2021-07-06T08:12:51Z</time>
      </trkpt>
      <trkpt lat="42.0339" lon="-6.82571">
        <ele>1324.605</ele>
        <time>2021-07-06T08:13:02Z</time>
      </trkpt>
      <trkpt lat="42.0331" lon="-6.82825">
        <ele>1329.701</ele>
        <time>2021-07-06T08:13:13Z</time>
      </trkpt>
      <trkpt lat="42.03276" lon="-6.83098">
        <ele>1329.532</ele>
        <time>2021-07-06T08:13:24Z</time>
      </trkpt>
      <trkpt lat="42.03295" lon="-6.83407">
        <ele>1321.548</ele>
        <time>2021-07-06T08:13:35Z</time>
      </trkpt>
      <trkpt lat="42.03352" lon="-6.83683">
        <ele>1314.66</ele>
        <time>2021-07-06T08:13:46Z</time>
      </trkpt>
      <trkpt lat="42.03385" lon="-6.8397">
        <ele>1309.258</ele>
        <time>2021-07-06T08:13:57Z</time>
      </trkpt>
      <trkpt lat="42.03513" lon="-6.84268">
        <ele>1296.324</ele>
        <time>2021-07-06T08:14:08Z</time>
      </trkpt>
      <trkpt lat="42.03566" lon="-6.84634">
        <ele>1278.745</ele>
        <time>2021-07-06T08:14:19Z</time>
      </trkpt>
      <trkpt lat="42.03535" lon="-6.84989">
        <ele>1265.687</ele>
        <time>2021-07-06T08:14:30Z</time>
      </trkpt>
      <trkpt lat="42.03525" lon="-6.85342">
        <ele>1249.47</ele>
        <time>2021-07-06T08:14:41Z</time>
      </trkpt>
      <trkpt lat="42.03622" lon="-6.85693">
        <ele>1236.328</ele>
        <time>2021-07-06T08:14:52Z</time>
      </trkpt>
      <trkpt lat="42.03705" lon="-6.85947">
        <ele>1226.079</ele>
        <time>2021-07-06T08:15:04Z</time>
      </trkpt>
      <trkpt lat="42.03827" lon="-6.86096">
        <ele>1217.488</ele>
        <time>2021-07-06T08:15:15Z</time>
      </trkpt>
      <trkpt lat="42.03891" lon="-6.86294">
        <ele>1207.758</ele>
        <time>2021-07-06T08:15:26Z</time>
      </trkpt>
      <trkpt lat="42.03831" lon="-6.865">
        <ele>1197.995</ele>
        <time>2021-07-06T08:15:37Z</time>
      </trkpt>
      <trkpt lat="42.03932" lon="-6.86683">
        <ele>1190.152</ele>
        <time>2021-07-06T08:15:48Z</time>
      </trkpt>
      <trkpt lat="42.0402" lon="-6.86834">
        <ele>1184.459</ele>
        <time>2021-07-06T08:15:59Z</time>
      </trkpt>
      <trkpt lat="42.04048" lon="-6.87068">
        <ele>1175.288</ele>
        <time>2021-07-06T08:16:10Z</time>
      </trkpt>
      <trkpt lat="42.04098" lon="-6.87202">
        <ele>1169.223</ele>
        <time>2021-07-06T08:16:21Z</time>
      </trkpt>
      <trkpt lat="42.04072" lon="-6.87382">
        <ele>1163.049</ele>
        <time>2021-07-06T08:16:32Z</time>
      </trkpt>
      <trkpt lat="42.04151" lon="-6.87594">
        <ele>1153.719</ele>
        <time>2021-07-06T08:16:43Z</time>
      </trkpt>
      <trkpt lat="42.04285" lon="-6.87748">
        <ele>1146.051</ele>
        <time>2021-07-06T08:16:54Z</time>
      </trkpt>
      <trkpt lat="42.04404" lon="-6.87774">
        <ele>1141.199</ele>
        <time>2021-07-06T08:17:05Z</time>
      </trkpt>
      <trkpt lat="42.0444" lon="-6.87916">
        <ele>1134.997</ele>
        <time>2021-07-06T08:17:16Z</time>
      </trkpt>
      <trkpt lat="42.04644" lon="-6.87933">
        <ele>1123.907</ele>
        <time>2021-07-06T08:17:27Z</time>
      </trkpt>
      <trkpt lat="42.0485" lon="-6.87949">
        <ele>1110.34</ele>
        <time>2021-07-06T08:17:38Z</time>
      </trkpt>
      <trkpt lat="42.05044" lon="-6.87887">
        <ele>1101.859</ele>
        <time>2021-07-06T08:17:49Z</time>
      </trkpt>
      <trkpt lat="42.05226" lon="-6.87793">
        <ele>1095.423</ele>
        <time>2021-07-06T08:18:00Z</time>
      </trkpt>
      <trkpt lat="42.05385" lon="-6.87756">
        <ele>1085.579</ele>
        <time>2021-07-06T08:18:11Z</time>
      </trkpt>
      <trkpt lat="42.0532" lon="-6.87905">
        <ele>1089.364</ele>
        <time>2021-07-06T08:18:22Z</time>
      </trkpt>
      <trkpt lat="42.05198" lon="-6.88128">
        <ele>1093.324</ele>
        <time>2021-07-06T08:18:33Z</time>
      </trkpt>
      <trkpt lat="42.05002" lon="-6.88282">
        <ele>1101.677</ele>
        <time>2021-07-06T08:18:44Z</time>
      </trkpt>
      <trkpt lat="42.04785" lon="-6.88418">
        <ele>1102.819</ele>
        <time>2021-07-06T08:18:55Z</time>
      </trkpt>
      <trkpt lat="42.04712" lon="-6.88545">
        <ele>1119.683</ele>
        <time>2021-07-06T08:19:06Z</time>
      </trkpt>
      <trkpt lat="42.04617" lon="-6.88662">
        <ele>1119.542</ele>
        <time>2021-07-06T08:19:17Z</time>
      </trkpt>
      <trkpt lat="42.04444" lon="-6.88727">
        <ele>1113.446</ele>
        <time>2021-07-06T08:19:28Z</time>
      </trkpt>
      <trkpt lat="42.04299" lon="-6.88678">
        <ele>1107.056</ele>
        <time>2021-07-06T08:19:39Z</time>
      </trkpt>
      <trkpt lat="42.04182" lon="-6.8877">
        <ele>1102.014</ele>
        <time>2021-07-06T08:19:50Z</time>
      </trkpt>
      <trkpt lat="42.04015" lon="-6.88793">
        <ele>1092.947</ele>
        <time>2021-07-06T08:20:01Z</time>
      </trkpt>
      <trkpt lat="42.0388" lon="-6.88946">
        <ele>1086.168</ele>
        <time>2021-07-06T08:20:12Z</time>
      </trkpt>
      <trkpt lat="42.03865" lon="-6.89185">
        <ele>1079.78</ele>
        <time>2021-07-06T08:20:23Z</time>
      </trkpt>
      <trkpt lat="42.03847" lon="-6.89358">
        <ele>1083.37</ele>
        <time>2021-07-06T08:20:34Z</time>
      </trkpt>
      <trkpt lat="42.03921" lon="-6.8947">
        <ele>1082.397</ele>
        <time>2021-07-06T08:20:45Z</time>
      </trkpt>
      <trkpt lat="42.03984" lon="-6.89638">
        <ele>1080.066</ele>
        <time>2021-07-06T08:20:56Z</time>
      </trkpt>
      <trkpt lat="42.03981" lon="-6.89688">
        <ele>1073.54</ele>
        <time>2021-07-06T08:21:07Z</time>
      </trkpt>
      <trkpt lat="42.03929" lon="-6.8954">
        <ele>1082.823</ele>
        <time>2021-07-06T08:21:18Z</time>
      </trkpt>
      <trkpt lat="42.03924" lon="-6.89444">
        <ele>1082.051</ele>
        <time>2021-07-06T08:21:29Z</time>
      </trkpt>
      <trkpt lat="42.04034" lon="-6.89571">
        <ele>1095.903</ele>
        <time>2021-07-06T08:21:40Z</time>
      </trkpt>
      <trkpt lat="42.04229" lon="-6.89749">
        <ele>1097.928</ele>
        <time>2021-07-06T08:21:51Z</time>
      </trkpt>
      <trkpt lat="42.04433" lon="-6.89881">
        <ele>1076.301</ele>
        <time>2021-07-06T08:22:02Z</time>
      </trkpt>
      <trkpt lat="42.04366" lon="-6.90091">
        <ele>1086.73</ele>
        <time>2021-07-06T08:22:13Z</time>
      </trkpt>
      <trkpt lat="42.04158" lon="-6.90142">
        <ele>1092.284</ele>
        <time>2021-07-06T08:22:24Z</time>
      </trkpt>
      <trkpt lat="42.0393" lon="-6.90161">
        <ele>1065.286</ele>
        <time>2021-07-06T08:22:35Z</time>
      </trkpt>
      <trkpt lat="42.03733" lon="-6.90032">
        <ele>1040.256</ele>
        <time>2021-07-06T08:22:46Z</time>
      </trkpt>
      <trkpt lat="42.03602" lon="-6.90123">
        <ele>1040.682</ele>
        <time>2021-07-06T08:22:57Z</time>
      </trkpt>
      <trkpt lat="42.03623" lon="-6.90281">
        <ele>1045.637</ele>
        <time>2021-07-06T08:23:08Z</time>
      </trkpt>
      <trkpt lat="42.03672" lon="-6.90424">
        <ele>1042.646</ele>
        <time>2021-07-06T08:23:19Z</time>
      </trkpt>
      <trkpt lat="42.03613" lon="-6.90545">
        <ele>1044.199</ele>
        <time>2021-07-06T08:23:30Z</time>
      </trkpt>
      <trkpt lat="42.03534" lon="-6.90702">
        <ele>1040.215</ele>
        <time>2021-07-06T08:23:41Z</time>
      </trkpt>
      <trkpt lat="42.03443" lon="-6.90877">
        <ele>1030.791</ele>
        <time>2021-07-06T08:23:52Z</time>
      </trkpt>
      <trkpt lat="42.03354" lon="-6.91072">
        <ele>1028.296</ele>
        <time>2021-07-06T08:24:03Z</time>
      </trkpt>
      <trkpt lat="42.03425" lon="-6.91326">
        <ele>1021.209</ele>
        <time>2021-07-06T08:24:14Z</time>
      </trkpt>
      <trkpt lat="42.03406" lon="-6.91585">
        <ele>1015.167</ele>
        <time>2021-07-06T08:24:25Z</time>
      </trkpt>
      <trkpt lat="42.03377" lon="-6.9172">
        <ele>1008.151</ele>
        <time>2021-07-06T08:24:36Z</time>
      </trkpt>
      <trkpt lat="42.03372" lon="-6.91924">
        <ele>1002.529</ele>
        <time>2021-07-06T08:24:47Z</time>
      </trkpt>
      <trkpt lat="42.03514" lon="-6.91974">
        <ele>998.2709</ele>
        <time>2021-07-06T08:24:58Z</time>
      </trkpt>
      <trkpt lat="42.03655" lon="-6.91898">
        <ele>991.9989</ele>
        <time>2021-07-06T08:25:09Z</time>
      </trkpt>
      <trkpt lat="42.03818" lon="-6.91963">
        <ele>982.8492</ele>
        <time>2021-07-06T08:25:20Z</time>
      </trkpt>
      <trkpt lat="42.03893" lon="-6.92066">
        <ele>980.1372</ele>
        <time>2021-07-06T08:25:31Z</time>
      </trkpt>
      <trkpt lat="42.03753" lon="-6.92039">
        <ele>987.7113</ele>
        <time>2021-07-06T08:25:42Z</time>
      </trkpt>
      <trkpt lat="42.03648" lon="-6.9213">
        <ele>996.1538</ele>
        <time>2021-07-06T08:25:53Z</time>
      </trkpt>
      <trkpt lat="42.03572" lon="-6.92303">
        <ele>1003.939</ele>
        <time>2021-07-06T08:26:04Z</time>
      </trkpt>
      <trkpt lat="42.03404" lon="-6.923">
        <ele>1010.402</ele>
        <time>2021-07-06T08:26:15Z</time>
      </trkpt>
      <trkpt lat="42.03355" lon="-6.92461">
        <ele>1015.505</ele>
        <time>2021-07-06T08:26:26Z</time>
      </trkpt>
      <trkpt lat="42.03392" lon="-6.92659">
        <ele>1023.29</ele>
        <time>2021-07-06T08:26:37Z</time>
      </trkpt>
      <trkpt lat="42.03554" lon="-6.92763">
        <ele>1034.189</ele>
        <time>2021-07-06T08:26:48Z</time>
      </trkpt>
      <trkpt lat="42.03529" lon="-6.92896">
        <ele>1042.484</ele>
        <time>2021-07-06T08:26:59Z</time>
      </trkpt>
      <trkpt lat="42.03527" lon="-6.92911">
        <ele>1044.949</ele>
        <time>2021-07-06T08:27:10Z</time>
      </trkpt>
      <trkpt lat="42.03527" lon="-6.9292">
        <ele>1043.54</ele>
        <time>2021-07-06T08:27:40Z</time>
      </trkpt>
      <trkpt lat="42.03535" lon="-6.9309">
        <ele>1034.871</ele>
        <time>2021-07-06T08:27:51Z</time>
      </trkpt>
      <trkpt lat="42.03553" lon="-6.93296">
        <ele>1025.758</ele>
        <time>2021-07-06T08:28:02Z</time>
      </trkpt>
      <trkpt lat="42.03599" lon="-6.93417">
        <ele>1025.554</ele>
        <time>2021-07-06T08:28:13Z</time>
      </trkpt>
      <trkpt lat="42.03776" lon="-6.93605">
        <ele>1039.225</ele>
        <time>2021-07-06T08:28:24Z</time>
      </trkpt>
      <trkpt lat="42.03846" lon="-6.93899">
        <ele>1055.935</ele>
        <time>2021-07-06T08:28:35Z</time>
      </trkpt>
      <trkpt lat="42.03867" lon="-6.94217">
        <ele>1070.027</ele>
        <time>2021-07-06T08:28:46Z</time>
      </trkpt>
      <trkpt lat="42.03878" lon="-6.94584">
        <ele>1086.865</ele>
        <time>2021-07-06T08:28:57Z</time>
      </trkpt>
      <trkpt lat="42.03913" lon="-6.94936">
        <ele>1110.246</ele>
        <time>2021-07-06T08:29:08Z</time>
      </trkpt>
      <trkpt lat="42.03988" lon="-6.95229">
        <ele>1117.544</ele>
        <time>2021-07-06T08:29:19Z</time>
      </trkpt>
      <trkpt lat="42.03963" lon="-6.95539">
        <ele>1133.922</ele>
        <time>2021-07-06T08:29:30Z</time>
      </trkpt>
      <trkpt lat="42.03977" lon="-6.95857">
        <ele>1150.903</ele>
        <time>2021-07-06T08:29:41Z</time>
      </trkpt>
      <trkpt lat="42.03923" lon="-6.96054">
        <ele>1154.996</ele>
        <time>2021-07-06T08:29:52Z</time>
      </trkpt>
      <trkpt lat="42.0387" lon="-6.96296">
        <ele>1169.75</ele>
        <time>2021-07-06T08:30:03Z</time>
      </trkpt>
      <trkpt lat="42.03821" lon="-6.96631">
        <ele>1188.088</ele>
        <time>2021-07-06T08:30:14Z</time>
      </trkpt>
      <trkpt lat="42.03751" lon="-6.96897">
        <ele>1198.347</ele>
        <time>2021-07-06T08:30:25Z</time>
      </trkpt>
      <trkpt lat="42.03618" lon="-6.97099">
        <ele>1203.248</ele>
        <time>2021-07-06T08:30:36Z</time>
      </trkpt>
      <trkpt lat="42.03495" lon="-6.97359">
        <ele>1208.535</ele>
        <time>2021-07-06T08:30:50Z</time>
      </trkpt>
      <trkpt lat="42.03615" lon="-6.97587">
        <ele>1216.354</ele>
        <time>2021-07-06T08:31:01Z</time>
      </trkpt>
      <trkpt lat="42.03688" lon="-6.97838">
        <ele>1216.584</ele>
        <time>2021-07-06T08:31:12Z</time>
      </trkpt>
      <trkpt lat="42.03699" lon="-6.98173">
        <ele>1212.259</ele>
        <time>2021-07-06T08:31:23Z</time>
      </trkpt>
      <trkpt lat="42.03723" lon="-6.98539">
        <ele>1206.401</ele>
        <time>2021-07-06T08:31:34Z</time>
      </trkpt>
      <trkpt lat="42.03777" lon="-6.9888">
        <ele>1196.854</ele>
        <time>2021-07-06T08:31:45Z</time>
      </trkpt>
      <trkpt lat="42.03921" lon="-6.99121">
        <ele>1185.16</ele>
        <time>2021-07-06T08:31:56Z</time>
      </trkpt>
      <trkpt lat="42.04015" lon="-6.99412">
        <ele>1171.687</ele>
        <time>2021-07-06T08:32:07Z</time>
      </trkpt>
      <trkpt lat="42.04227" lon="-6.99586">
        <ele>1160.595</ele>
        <time>2021-07-06T08:32:18Z</time>
      </trkpt>
      <trkpt lat="42.04382" lon="-6.99814">
        <ele>1146.013</ele>
        <time>2021-07-06T08:32:29Z</time>
      </trkpt>
      <trkpt lat="42.04369" lon="-7.00064">
        <ele>1130.289</ele>
        <time>2021-07-06T08:32:40Z</time>
      </trkpt>
      <trkpt lat="42.04157" lon="-7.00174">
        <ele>1111.6</ele>
        <time>2021-07-06T08:32:51Z</time>
      </trkpt>
      <trkpt lat="42.04077" lon="-7.00443">
        <ele>1097.432</ele>
        <time>2021-07-06T08:33:02Z</time>
      </trkpt>
      <trkpt lat="42.04081" lon="-7.0077">
        <ele>1081.396</ele>
        <time>2021-07-06T08:33:13Z</time>
      </trkpt>
      <trkpt lat="42.03907" lon="-7.00922">
        <ele>1080.996</ele>
        <time>2021-07-06T08:33:24Z</time>
      </trkpt>
      <trkpt lat="42.03834" lon="-7.01152">
        <ele>1069.896</ele>
        <time>2021-07-06T08:33:35Z</time>
      </trkpt>
      <trkpt lat="42.03946" lon="-7.01398">
        <ele>1062.721</ele>
        <time>2021-07-06T08:33:46Z</time>
      </trkpt>
      <trkpt lat="42.04109" lon="-7.01628">
        <ele>1055.693</ele>
        <time>2021-07-06T08:33:58Z</time>
      </trkpt>
      <trkpt lat="42.04125" lon="-7.01871">
        <ele>1046.619</ele>
        <time>2021-07-06T08:34:09Z</time>
      </trkpt>
      <trkpt lat="42.03889" lon="-7.01981">
        <ele>1048.605</ele>
        <time>2021-07-06T08:34:20Z</time>
      </trkpt>
      <trkpt lat="42.0381" lon="-7.02245">
        <ele>1049.895</ele>
        <time>2021-07-06T08:34:31Z</time>
      </trkpt>
      <trkpt lat="42.0378" lon="-7.0252">
        <ele>1057.518</ele>
        <time>2021-07-06T08:34:42Z</time>
      </trkpt>
      <trkpt lat="42.03711" lon="-7.0274">
        <ele>1057.779</ele>
        <time>2021-07-06T08:34:53Z</time>
      </trkpt>
      <trkpt lat="42.03826" lon="-7.0308">
        <ele>1043.536</ele>
        <time>2021-07-06T08:35:04Z</time>
      </trkpt>
      <trkpt lat="42.03918" lon="-7.03467">
        <ele>1039.115</ele>
        <time>2021-07-06T08:35:15Z</time>
      </trkpt>
      <trkpt lat="42.03872" lon="-7.03771">
        <ele>1034.647</ele>
        <time>2021-07-06T08:35:26Z</time>
      </trkpt>
      <trkpt lat="42.03803" lon="-7.0408">
        <ele>1022.641</ele>
        <time>2021-07-06T08:35:37Z</time>
      </trkpt>
      <trkpt lat="42.03772" lon="-7.0439">
        <ele>1018.394</ele>
        <time>2021-07-06T08:35:48Z</time>
      </trkpt>
      <trkpt lat="42.03838" lon="-7.04619">
        <ele>1007.376</ele>
        <time>2021-07-06T08:35:59Z</time>
      </trkpt>
      <trkpt lat="42.03761" lon="-7.04855">
        <ele>1009.921</ele>
        <time>2021-07-06T08:36:10Z</time>
      </trkpt>
      <trkpt lat="42.03694" lon="-7.05176">
        <ele>1020.12</ele>
        <time>2021-07-06T08:36:21Z</time>
      </trkpt>
      <trkpt lat="42.0373" lon="-7.05437">
        <ele>1025.6</ele>
        <time>2021-07-06T08:36:32Z</time>
      </trkpt>
      <trkpt lat="42.03883" lon="-7.0564">
        <ele>1028.061</ele>
        <time>2021-07-06T08:36:43Z</time>
      </trkpt>
      <trkpt lat="42.04086" lon="-7.0586">
        <ele>1030.492</ele>
        <time>2021-07-06T08:36:54Z</time>
      </trkpt>
      <trkpt lat="42.04225" lon="-7.06207">
        <ele>1040.513</ele>
        <time>2021-07-06T08:37:05Z</time>
      </trkpt>
      <trkpt lat="42.04285" lon="-7.06556">
        <ele>1053.028</ele>
        <time>2021-07-06T08:37:16Z</time>
      </trkpt>
      <trkpt lat="42.04469" lon="-7.06795">
        <ele>1050.65</ele>
        <time>2021-07-06T08:37:27Z</time>
      </trkpt>
      <trkpt lat="42.04706" lon="-7.06938">
        <ele>1051.934</ele>
        <time>2021-07-06T08:37:38Z</time>
      </trkpt>
      <trkpt lat="42.04868" lon="-7.07106">
        <ele>1054.562</ele>
        <time>2021-07-06T08:37:49Z</time>
      </trkpt>
      <trkpt lat="42.04715" lon="-7.07361">
        <ele>1065.465</ele>
        <time>2021-07-06T08:38:00Z</time>
      </trkpt>
      <trkpt lat="42.04693" lon="-7.07677">
        <ele>1060.494</ele>
        <time>2021-07-06T08:38:11Z</time>
      </trkpt>
      <trkpt lat="42.04752" lon="-7.08031">
        <ele>1063.689</ele>
        <time>2021-07-06T08:38:22Z</time>
      </trkpt>
      <trkpt lat="42.04694" lon="-7.08363">
        <ele>1071.917</ele>
        <time>2021-07-06T08:38:33Z</time>
      </trkpt>
      <trkpt lat="42.04705" lon="-7.08726">
        <ele>1077.186</ele>
        <time>2021-07-06T08:38:44Z</time>
      </trkpt>
      <trkpt lat="42.0487" lon="-7.09001">
        <ele>1074.022</ele>
        <time>2021-07-06T08:38:55Z</time>
      </trkpt>
      <trkpt lat="42.0503" lon="-7.09224">
        <ele>1069.333</ele>
        <time>2021-07-06T08:39:06Z</time>
      </trkpt>
      <trkpt lat="42.05098" lon="-7.09477">
        <ele>1070.057</ele>
        <time>2021-07-06T08:39:17Z</time>
      </trkpt>
      <trkpt lat="42.05169" lon="-7.09743">
        <ele>1072.366</ele>
        <time>2021-07-06T08:39:28Z</time>
      </trkpt>
      <trkpt lat="42.05255" lon="-7.1001">
        <ele>1072.834</ele>
        <time>2021-07-06T08:39:39Z</time>
      </trkpt>
      <trkpt lat="42.05343" lon="-7.10293">
        <ele>1075.34</ele>
        <time>2021-07-06T08:39:50Z</time>
      </trkpt>
      <trkpt lat="42.05417" lon="-7.10599">
        <ele>1077.749</ele>
        <time>2021-07-06T08:40:01Z</time>
      </trkpt>
      <trkpt lat="42.05482" lon="-7.10865">
        <ele>1086.161</ele>
        <time>2021-07-06T08:40:12Z</time>
      </trkpt>
      <trkpt lat="42.05559" lon="-7.11147">
        <ele>1080.624</ele>
        <time>2021-07-06T08:40:23Z</time>
      </trkpt>
      <trkpt lat="42.05628" lon="-7.11507">
        <ele>1072.856</ele>
        <time>2021-07-06T08:40:34Z</time>
      </trkpt>
      <trkpt lat="42.05809" lon="-7.11747">
        <ele>1057.865</ele>
        <time>2021-07-06T08:40:45Z</time>
      </trkpt>
      <trkpt lat="42.05996" lon="-7.11963">
        <ele>1043.318</ele>
        <time>2021-07-06T08:40:56Z</time>
      </trkpt>
      <trkpt lat="42.0598" lon="-7.12238">
        <ele>1030.263</ele>
        <time>2021-07-06T08:41:07Z</time>
      </trkpt>
      <trkpt lat="42.05922" lon="-7.12497">
        <ele>1017.934</ele>
        <time>2021-07-06T08:41:18Z</time>
      </trkpt>
      <trkpt lat="42.05809" lon="-7.12717">
        <ele>1005.268</ele>
        <time>2021-07-06T08:41:29Z</time>
      </trkpt>
      <trkpt lat="42.05886" lon="-7.12934">
        <ele>993.9894</ele>
        <time>2021-07-06T08:41:40Z</time>
      </trkpt>
      <trkpt lat="42.06003" lon="-7.13153">
        <ele>977.2745</ele>
        <time>2021-07-06T08:41:51Z</time>
      </trkpt>
      <trkpt lat="42.06053" lon="-7.1339">
        <ele>983.2927</ele>
        <time>2021-07-06T08:42:02Z</time>
      </trkpt>
      <trkpt lat="42.06085" lon="-7.13566">
        <ele>984.651</ele>
        <time>2021-07-06T08:42:13Z</time>
      </trkpt>
      <trkpt lat="42.06097" lon="-7.1367">
        <ele>983.0539</ele>
        <time>2021-07-06T08:42:24Z</time>
      </trkpt>
      <trkpt lat="42.06097" lon="-7.13784">
        <ele>986.6095</ele>
        <time>2021-07-06T08:42:35Z</time>
      </trkpt>
      <trkpt lat="42.06073" lon="-7.13966">
        <ele>993.7911</ele>
        <time>2021-07-06T08:42:46Z</time>
      </trkpt>
      <trkpt lat="42.06067" lon="-7.14152">
        <ele>984.7963</ele>
        <time>2021-07-06T08:42:57Z</time>
      </trkpt>
      <trkpt lat="42.0603" lon="-7.14269">
        <ele>977.9394</ele>
        <time>2021-07-06T08:43:08Z</time>
      </trkpt>
      <trkpt lat="42.05928" lon="-7.14443">
        <ele>964.6474</ele>
        <time>2021-07-06T08:43:19Z</time>
      </trkpt>
      <trkpt lat="42.05839" lon="-7.1463">
        <ele>953.1319</ele>
        <time>2021-07-06T08:43:30Z</time>
      </trkpt>
      <trkpt lat="42.05729" lon="-7.14809">
        <ele>949.6725</ele>
        <time>2021-07-06T08:43:41Z</time>
      </trkpt>
      <trkpt lat="42.05585" lon="-7.14832">
        <ele>955.4573</ele>
        <time>2021-07-06T08:43:52Z</time>
      </trkpt>
      <trkpt lat="42.05429" lon="-7.14817">
        <ele>956.1592</ele>
        <time>2021-07-06T08:44:03Z</time>
      </trkpt>
      <trkpt lat="42.053" lon="-7.14989">
        <ele>950.7973</ele>
        <time>2021-07-06T08:44:14Z</time>
      </trkpt>
      <trkpt lat="42.05225" lon="-7.15253">
        <ele>945.5703</ele>
        <time>2021-07-06T08:44:25Z</time>
      </trkpt>
      <trkpt lat="42.05155" lon="-7.15584">
        <ele>938.6941</ele>
        <time>2021-07-06T08:44:36Z</time>
      </trkpt>
      <trkpt lat="42.04987" lon="-7.15796">
        <ele>941.6311</ele>
        <time>2021-07-06T08:44:47Z</time>
      </trkpt>
      <trkpt lat="42.04744" lon="-7.1567">
        <ele>927.8202</ele>
        <time>2021-07-06T08:44:58Z</time>
      </trkpt>
      <trkpt lat="42.04491" lon="-7.15711">
        <ele>921.8134</ele>
        <time>2021-07-06T08:45:09Z</time>
      </trkpt>
      <trkpt lat="42.04253" lon="-7.15901">
        <ele>928.165</ele>
        <time>2021-07-06T08:45:20Z</time>
      </trkpt>
      <trkpt lat="42.04045" lon="-7.16133">
        <ele>925.3517</ele>
        <time>2021-07-06T08:45:31Z</time>
      </trkpt>
      <trkpt lat="42.03954" lon="-7.1648">
        <ele>923.0735</ele>
        <time>2021-07-06T08:45:42Z</time>
      </trkpt>
      <trkpt lat="42.03799" lon="-7.168">
        <ele>913.4743</ele>
        <time>2021-07-06T08:45:53Z</time>
      </trkpt>
      <trkpt lat="42.03636" lon="-7.17046">
        <ele>911.4435</ele>
        <time>2021-07-06T08:46:04Z</time>
      </trkpt>
      <trkpt lat="42.03479" lon="-7.1731">
        <ele>906.4235</ele>
        <time>2021-07-06T08:46:15Z</time>
      </trkpt>
      <trkpt lat="42.03485" lon="-7.17645">
        <ele>898.5489</ele>
        <time>2021-07-06T08:46:26Z</time>
      </trkpt>
      <trkpt lat="42.03356" lon="-7.17892">
        <ele>891.0383</ele>
        <time>2021-07-06T08:46:37Z</time>
      </trkpt>
      <trkpt lat="42.03097" lon="-7.18082">
        <ele>897.6643</ele>
        <time>2021-07-06T08:46:48Z</time>
      </trkpt>
      <trkpt lat="42.02842" lon="-7.1815">
        <ele>900.1302</ele>
        <time>2021-07-06T08:46:59Z</time>
      </trkpt>
      <trkpt lat="42.02678" lon="-7.18404">
        <ele>909.2168</ele>
        <time>2021-07-06T08:47:10Z</time>
      </trkpt>
      <trkpt lat="42.02495" lon="-7.18631">
        <ele>904.353</ele>
        <time>2021-07-06T08:47:21Z</time>
      </trkpt>
      <trkpt lat="42.02305" lon="-7.1887">
        <ele>908.3612</ele>
        <time>2021-07-06T08:47:32Z</time>
      </trkpt>
      <trkpt lat="42.02116" lon="-7.19116">
        <ele>908.5491</ele>
        <time>2021-07-06T08:47:43Z</time>
      </trkpt>
      <trkpt lat="42.01954" lon="-7.19347">
        <ele>890.6172</ele>
        <time>2021-07-06T08:47:54Z</time>
      </trkpt>
      <trkpt lat="42.01759" lon="-7.19531">
        <ele>873.3441</ele>
        <time>2021-07-06T08:48:05Z</time>
      </trkpt>
      <trkpt lat="42.01688" lon="-7.19858">
        <ele>856.9214</ele>
        <time>2021-07-06T08:48:16Z</time>
      </trkpt>
      <trkpt lat="42.01544" lon="-7.20097">
        <ele>841.1697</ele>
        <time>2021-07-06T08:48:27Z</time>
      </trkpt>
      <trkpt lat="42.01391" lon="-7.20254">
        <ele>822.9156</ele>
        <time>2021-07-06T08:48:38Z</time>
      </trkpt>
      <trkpt lat="42.01176" lon="-7.20415">
        <ele>809.8933</ele>
        <time>2021-07-06T08:48:49Z</time>
      </trkpt>
      <trkpt lat="42.00952" lon="-7.20419">
        <ele>798.8558</ele>
        <time>2021-07-06T08:49:00Z</time>
      </trkpt>
      <trkpt lat="42.00805" lon="-7.20562">
        <ele>783.8969</ele>
        <time>2021-07-06T08:49:11Z</time>
      </trkpt>
      <trkpt lat="42.00887" lon="-7.20836">
        <ele>771.0148</ele>
        <time>2021-07-06T08:49:22Z</time>
      </trkpt>
      <trkpt lat="42.00703" lon="-7.20905">
        <ele>755.271</ele>
        <time>2021-07-06T08:49:33Z</time>
      </trkpt>
      <trkpt lat="42.0051" lon="-7.20819">
        <ele>741.1309</ele>
        <time>2021-07-06T08:49:44Z</time>
      </trkpt>
      <trkpt lat="42.00416" lon="-7.21116">
        <ele>756.094</ele>
        <time>2021-07-06T08:49:55Z</time>
      </trkpt>
      <trkpt lat="42.00408" lon="-7.21474">
        <ele>775.0996</ele>
        <time>2021-07-06T08:50:06Z</time>
      </trkpt>
      <trkpt lat="42.00285" lon="-7.21784">
        <ele>785.9187</ele>
        <time>2021-07-06T08:50:17Z</time>
      </trkpt>
      <trkpt lat="42.00294" lon="-7.22094">
        <ele>783.0996</ele>
        <time>2021-07-06T08:50:28Z</time>
      </trkpt>
      <trkpt lat="42.00412" lon="-7.22372">
        <ele>774.844</ele>
        <time>2021-07-06T08:50:39Z</time>
      </trkpt>
      <trkpt lat="42.00473" lon="-7.22673">
        <ele>760.5286</ele>
        <time>2021-07-06T08:50:50Z</time>
      </trkpt>
      <trkpt lat="42.0026" lon="-7.22811">
        <ele>760.5237</ele>
        <time>2021-07-06T08:51:01Z</time>
      </trkpt>
      <trkpt lat="42.00043" lon="-7.22985">
        <ele>754.5034</ele>
        <time>2021-07-06T08:51:12Z</time>
      </trkpt>
      <trkpt lat="41.9982" lon="-7.23145">
        <ele>738.997</ele>
        <time>2021-07-06T08:51:23Z</time>
      </trkpt>
      <trkpt lat="41.99648" lon="-7.23413">
        <ele>724.6306</ele>
        <time>2021-07-06T08:51:34Z</time>
      </trkpt>
      <trkpt lat="41.99641" lon="-7.23754">
        <ele>718.7663</ele>
        <time>2021-07-06T08:51:45Z</time>
      </trkpt>
      <trkpt lat="41.99797" lon="-7.24051">
        <ele>713.0591</ele>
        <time>2021-07-06T08:51:56Z</time>
      </trkpt>
      <trkpt lat="41.99856" lon="-7.24414">
        <ele>710.0484</ele>
        <time>2021-07-06T08:52:07Z</time>
      </trkpt>
      <trkpt lat="41.99882" lon="-7.24791">
        <ele>727.0531</ele>
        <time>2021-07-06T08:52:18Z</time>
      </trkpt>
      <trkpt lat="41.9979" lon="-7.25047">
        <ele>745.0826</ele>
        <time>2021-07-06T08:52:29Z</time>
      </trkpt>
      <trkpt lat="41.99558" lon="-7.25158">
        <ele>759.6348</ele>
        <time>2021-07-06T08:52:40Z</time>
      </trkpt>
      <trkpt lat="41.99517" lon="-7.25472">
        <ele>765.9725</ele>
        <time>2021-07-06T08:52:51Z</time>
      </trkpt>
      <trkpt lat="41.99396" lon="-7.25748">
        <ele>770.4546</ele>
        <time>2021-07-06T08:53:02Z</time>
      </trkpt>
      <trkpt lat="41.99462" lon="-7.26085">
        <ele>773.9136</ele>
        <time>2021-07-06T08:53:13Z</time>
      </trkpt>
      <trkpt lat="41.99359" lon="-7.26369">
        <ele>783.4378</ele>
        <time>2021-07-06T08:53:24Z</time>
      </trkpt>
      <trkpt lat="41.99222" lon="-7.26626">
        <ele>800.319</ele>
        <time>2021-07-06T08:53:35Z</time>
      </trkpt>
      <trkpt lat="41.99071" lon="-7.26931">
        <ele>817.6544</ele>
        <time>2021-07-06T08:53:46Z</time>
      </trkpt>
      <trkpt lat="41.98999" lon="-7.27261">
        <ele>830.6646</ele>
        <time>2021-07-06T08:53:57Z</time>
      </trkpt>
      <trkpt lat="41.98806" lon="-7.27407">
        <ele>838.7049</ele>
        <time>2021-07-06T08:54:08Z</time>
      </trkpt>
      <trkpt lat="41.98655" lon="-7.27518">
        <ele>839.5974</ele>
        <time>2021-07-06T08:54:19Z</time>
      </trkpt>
      <trkpt lat="41.98591" lon="-7.27725">
        <ele>846.7409</ele>
        <time>2021-07-06T08:54:30Z</time>
      </trkpt>
      <trkpt lat="41.98673" lon="-7.27954">
        <ele>852.6773</ele>
        <time>2021-07-06T08:54:41Z</time>
      </trkpt>
      <trkpt lat="41.98752" lon="-7.282">
        <ele>864.996</ele>
        <time>2021-07-06T08:54:52Z</time>
      </trkpt>
      <trkpt lat="41.98731" lon="-7.28498">
        <ele>866.6586</ele>
        <time>2021-07-06T08:55:03Z</time>
      </trkpt>
      <trkpt lat="41.98605" lon="-7.28686">
        <ele>887.0193</ele>
        <time>2021-07-06T08:55:14Z</time>
      </trkpt>
      <trkpt lat="41.98494" lon="-7.28903">
        <ele>888.3647</ele>
        <time>2021-07-06T08:55:25Z</time>
      </trkpt>
      <trkpt lat="41.98481" lon="-7.29226">
        <ele>876.9921</ele>
        <time>2021-07-06T08:55:36Z</time>
      </trkpt>
      <trkpt lat="41.98461" lon="-7.29525">
        <ele>878.689</ele>
        <time>2021-07-06T08:55:47Z</time>
      </trkpt>
      <trkpt lat="41.98428" lon="-7.29829">
        <ele>890.5371</ele>
        <time>2021-07-06T08:55:58Z</time>
      </trkpt>
      <trkpt lat="41.98429" lon="-7.30172">
        <ele>887.5897</ele>
        <time>2021-07-06T08:56:09Z</time>
      </trkpt>
      <trkpt lat="41.98419" lon="-7.30471">
        <ele>882.7756</ele>
        <time>2021-07-06T08:56:20Z</time>
      </trkpt>
      <trkpt lat="41.98393" lon="-7.30705">
        <ele>878.2227</ele>
        <time>2021-07-06T08:56:31Z</time>
      </trkpt>
      <trkpt lat="41.98293" lon="-7.30979">
        <ele>872.2629</ele>
        <time>2021-07-06T08:56:42Z</time>
      </trkpt>
      <trkpt lat="41.9819" lon="-7.31315">
        <ele>867.3167</ele>
        <time>2021-07-06T08:56:53Z</time>
      </trkpt>
      <trkpt lat="41.98091" lon="-7.31652">
        <ele>860.1043</ele>
        <time>2021-07-06T08:57:04Z</time>
      </trkpt>
      <trkpt lat="41.9796" lon="-7.31882">
        <ele>863.6983</ele>
        <time>2021-07-06T08:57:15Z</time>
      </trkpt>
      <trkpt lat="41.9792" lon="-7.32129">
        <ele>865.5233</ele>
        <time>2021-07-06T08:57:26Z</time>
      </trkpt>
      <trkpt lat="41.97847" lon="-7.32361">
        <ele>862.3492</ele>
        <time>2021-07-06T08:57:37Z</time>
      </trkpt>
      <trkpt lat="41.97783" lon="-7.3261">
        <ele>859.1511</ele>
        <time>2021-07-06T08:57:48Z</time>
      </trkpt>
      <trkpt lat="41.97694" lon="-7.32846">
        <ele>858.1814</ele>
        <time>2021-07-06T08:57:59Z</time>
      </trkpt>
      <trkpt lat="41.97536" lon="-7.33072">
        <ele>869.0952</ele>
        <time>2021-07-06T08:58:10Z</time>
      </trkpt>
      <trkpt lat="41.97266" lon="-7.33039">
        <ele>875.3854</ele>
        <time>2021-07-06T08:58:21Z</time>
      </trkpt>
      <trkpt lat="41.97059" lon="-7.33082">
        <ele>869.8529</ele>
        <time>2021-07-06T08:58:32Z</time>
      </trkpt>
      <trkpt lat="41.96851" lon="-7.33062">
        <ele>875.5355</ele>
        <time>2021-07-06T08:58:43Z</time>
      </trkpt>
      <trkpt lat="41.96568" lon="-7.33056">
        <ele>880.8944</ele>
        <time>2021-07-06T08:58:54Z</time>
      </trkpt>
      <trkpt lat="41.96292" lon="-7.32963">
        <ele>884.3419</ele>
        <time>2021-07-06T08:59:05Z</time>
      </trkpt>
      <trkpt lat="41.95987" lon="-7.32975">
        <ele>889.195</ele>
        <time>2021-07-06T08:59:16Z</time>
      </trkpt>
      <trkpt lat="41.95703" lon="-7.32897">
        <ele>894.9502</ele>
        <time>2021-07-06T08:59:27Z</time>
      </trkpt>
      <trkpt lat="41.95524" lon="-7.33008">
        <ele>882.7337</ele>
        <time>2021-07-06T08:59:38Z</time>
      </trkpt>
      <trkpt lat="41.95545" lon="-7.33327">
        <ele>871.5685</ele>
        <time>2021-07-06T08:59:49Z</time>
      </trkpt>
      <trkpt lat="41.9564" lon="-7.33539">
        <ele>858.6066</ele>
        <time>2021-07-06T09:00:00Z</time>
      </trkpt>
      <trkpt lat="41.95635" lon="-7.33801">
        <ele>849.034</ele>
        <time>2021-07-06T09:00:11Z</time>
      </trkpt>
      <trkpt lat="41.95693" lon="-7.34101">
        <ele>835.0139</ele>
        <time>2021-07-06T09:00:22Z</time>
      </trkpt>
      <trkpt lat="41.95828" lon="-7.34382">
        <ele>819.3576</ele>
        <time>2021-07-06T09:00:33Z</time>
      </trkpt>
      <trkpt lat="41.95814" lon="-7.34734">
        <ele>816.3075</ele>
        <time>2021-07-06T09:00:44Z</time>
      </trkpt>
      <trkpt lat="41.95555" lon="-7.34878">
        <ele>811.227</ele>
        <time>2021-07-06T09:00:55Z</time>
      </trkpt>
      <trkpt lat="41.95286" lon="-7.34936">
        <ele>797.8808</ele>
        <time>2021-07-06T09:01:06Z</time>
      </trkpt>
      <trkpt lat="41.95195" lon="-7.35209">
        <ele>787.487</ele>
        <time>2021-07-06T09:01:17Z</time>
      </trkpt>
      <trkpt lat="41.95203" lon="-7.35546">
        <ele>780.9946</ele>
        <time>2021-07-06T09:01:28Z</time>
      </trkpt>
      <trkpt lat="41.95258" lon="-7.35868">
        <ele>767.716</ele>
        <time>2021-07-06T09:01:39Z</time>
      </trkpt>
      <trkpt lat="41.95396" lon="-7.36142">
        <ele>747.3138</ele>
        <time>2021-07-06T09:01:50Z</time>
      </trkpt>
      <trkpt lat="41.95426" lon="-7.36449">
        <ele>734.0817</ele>
        <time>2021-07-06T09:02:01Z</time>
      </trkpt>
      <trkpt lat="41.95608" lon="-7.36617">
        <ele>722.1866</ele>
        <time>2021-07-06T09:02:12Z</time>
      </trkpt>
      <trkpt lat="41.95508" lon="-7.36857">
        <ele>709.1215</ele>
        <time>2021-07-06T09:02:23Z</time>
      </trkpt>
      <trkpt lat="41.95315" lon="-7.37056">
        <ele>690.6339</ele>
        <time>2021-07-06T09:02:34Z</time>
      </trkpt>
      <trkpt lat="41.9528" lon="-7.37406">
        <ele>673.206</ele>
        <time>2021-07-06T09:02:45Z</time>
      </trkpt>
      <trkpt lat="41.95082" lon="-7.37645">
        <ele>656.4869</ele>
        <time>2021-07-06T09:02:56Z</time>
      </trkpt>
      <trkpt lat="41.9501" lon="-7.3794">
        <ele>640.1196</ele>
        <time>2021-07-06T09:03:07Z</time>
      </trkpt>
      <trkpt lat="41.95155" lon="-7.38176">
        <ele>623.7542</ele>
        <time>2021-07-06T09:03:18Z</time>
      </trkpt>
      <trkpt lat="41.95284" lon="-7.38455">
        <ele>607.6855</ele>
        <time>2021-07-06T09:03:29Z</time>
      </trkpt>
      <trkpt lat="41.954" lon="-7.38761">
        <ele>591.3566</ele>
        <time>2021-07-06T09:03:40Z</time>
      </trkpt>
      <trkpt lat="41.95646" lon="-7.38881">
        <ele>577.086</ele>
        <time>2021-07-06T09:03:51Z</time>
      </trkpt>
      <trkpt lat="41.95627" lon="-7.39163">
        <ele>561.2917</ele>
        <time>2021-07-06T09:04:02Z</time>
      </trkpt>
      <trkpt lat="41.95463" lon="-7.39448">
        <ele>547.7681</ele>
        <time>2021-07-06T09:04:13Z</time>
      </trkpt>
      <trkpt lat="41.95244" lon="-7.39678">
        <ele>541.6629</ele>
        <time>2021-07-06T09:04:24Z</time>
      </trkpt>
      <trkpt lat="41.95079" lon="-7.39924">
        <ele>521.6205</ele>
        <time>2021-07-06T09:04:35Z</time>
      </trkpt>
      <trkpt lat="41.94833" lon="-7.40117">
        <ele>499.4987</ele>
        <time>2021-07-06T09:04:46Z</time>
      </trkpt>
      <trkpt lat="41.94587" lon="-7.40299">
        <ele>479.324</ele>
        <time>2021-07-06T09:04:57Z</time>
      </trkpt>
      <trkpt lat="41.94549" lon="-7.40588">
        <ele>469.0408</ele>
        <time>2021-07-06T09:05:08Z</time>
      </trkpt>
      <trkpt lat="41.94703" lon="-7.40862">
        <ele>460.5827</ele>
        <time>2021-07-06T09:05:19Z</time>
      </trkpt>
      <trkpt lat="41.94587" lon="-7.41178">
        <ele>452.3193</ele>
        <time>2021-07-06T09:05:30Z</time>
      </trkpt>
      <trkpt lat="41.94504" lon="-7.41424">
        <ele>444.227</ele>
        <time>2021-07-06T09:05:41Z</time>
      </trkpt>
      <trkpt lat="41.94548" lon="-7.41683">
        <ele>435.0114</ele>
        <time>2021-07-06T09:05:52Z</time>
      </trkpt>
      <trkpt lat="41.94533" lon="-7.41943">
        <ele>424.263</ele>
        <time>2021-07-06T09:06:03Z</time>
      </trkpt>
      <trkpt lat="41.94446" lon="-7.42178">
        <ele>413.5064</ele>
        <time>2021-07-06T09:06:14Z</time>
      </trkpt>
      <trkpt lat="41.94371" lon="-7.42408">
        <ele>406.9699</ele>
        <time>2021-07-06T09:06:25Z</time>
      </trkpt>
      <trkpt lat="41.94304" lon="-7.42614">
        <ele>399.9298</ele>
        <time>2021-07-06T09:06:36Z</time>
      </trkpt>
      <trkpt lat="41.94252" lon="-7.42768">
        <ele>403.3167</ele>
        <time>2021-07-06T09:06:47Z</time>
      </trkpt>
      <trkpt lat="41.94214" lon="-7.4289">
        <ele>406.1485</ele>
        <time>2021-07-06T09:06:58Z</time>
      </trkpt>
      <trkpt lat="41.9418" lon="-7.43006">
        <ele>406.4861</ele>
        <time>2021-07-06T09:07:09Z</time>
      </trkpt>
      <trkpt lat="41.94139" lon="-7.43135">
        <ele>400.9825</ele>
        <time>2021-07-06T09:07:20Z</time>
      </trkpt>
      <trkpt lat="41.94108" lon="-7.4323">
        <ele>398.8602</ele>
        <time>2021-07-06T09:07:31Z</time>
      </trkpt>
      <trkpt lat="41.94112" lon="-7.43264">
        <ele>397.6375</ele>
        <time>2021-07-06T09:07:42Z</time>
      </trkpt>
      <trkpt lat="41.94111" lon="-7.43258">
        <ele>405.3378</ele>
        <time>2021-07-06T09:08:11Z</time>
      </trkpt>
      <trkpt lat="41.94097" lon="-7.43263">
        <ele>408.0215</ele>
        <time>2021-07-06T09:08:22Z</time>
      </trkpt>
      <trkpt lat="41.9409" lon="-7.43279">
        <ele>398.8733</ele>
        <time>2021-07-06T09:08:33Z</time>
      </trkpt>
      <trkpt lat="41.94091" lon="-7.43278">
        <ele>393.1624</ele>
        <time>2021-07-06T09:09:32Z</time>
      </trkpt>
      <trkpt lat="41.9409" lon="-7.43283">
        <ele>388.71</ele>
        <time>2021-07-06T09:10:03Z</time>
      </trkpt>
      <trkpt lat="41.94087" lon="-7.43286">
        <ele>388.7837</ele>
        <time>2021-07-06T09:10:24Z</time>
      </trkpt>
      <trkpt lat="41.94088" lon="-7.43282">
        <ele>398.7046</ele>
        <time>2021-07-06T09:10:47Z</time>
      </trkpt>
      <trkpt lat="41.9409" lon="-7.43277">
        <ele>392.3011</ele>
        <time>2021-07-06T09:11:08Z</time>
      </trkpt>
      <trkpt lat="41.941" lon="-7.43264">
        <ele>396.4991</ele>
        <time>2021-07-06T09:11:19Z</time>
      </trkpt>
      <trkpt lat="41.94098" lon="-7.43269">
        <ele>405.3501</ele>
        <time>2021-07-06T09:11:43Z</time>
      </trkpt>
      <trkpt lat="41.94095" lon="-7.43267">
        <ele>411.2575</ele>
        <time>2021-07-06T09:11:54Z</time>
      </trkpt>
      <trkpt lat="41.94091" lon="-7.43264">
        <ele>412.0567</ele>
        <time>2021-07-06T09:12:05Z</time>
      </trkpt>
      <trkpt lat="41.94097" lon="-7.43265">
        <ele>411.3699</ele>
        <time>2021-07-06T09:12:16Z</time>
      </trkpt>
      <trkpt lat="41.94092" lon="-7.43264">
        <ele>413.3932</ele>
        <time>2021-07-06T09:12:28Z</time>
      </trkpt>
      <trkpt lat="41.94096" lon="-7.43262">
        <ele>408.9885</ele>
        <time>2021-07-06T09:12:39Z</time>
      </trkpt>
      <trkpt lat="41.941" lon="-7.43263">
        <ele>390.4466</ele>
        <time>2021-07-06T09:12:54Z</time>
      </trkpt>
      <trkpt lat="41.94098" lon="-7.43255">
        <ele>370.1662</ele>
        <time>2021-07-06T09:13:24Z</time>
      </trkpt>
      <trkpt lat="41.9411" lon="-7.43275">
        <ele>385.0036</ele>
        <time>2021-07-06T09:13:35Z</time>
      </trkpt>
      <trkpt lat="41.94107" lon="-7.43278">
        <ele>385.4428</ele>
        <time>2021-07-06T09:13:46Z</time>
      </trkpt>
      <trkpt lat="41.94105" lon="-7.43272">
        <ele>384.6763</ele>
        <time>2021-07-06T09:13:57Z</time>
      </trkpt>
      <trkpt lat="41.941" lon="-7.43266">
        <ele>385.4356</ele>
        <time>2021-07-06T09:14:08Z</time>
      </trkpt>
      <trkpt lat="41.94098" lon="-7.43257">
        <ele>385.1602</ele>
        <time>2021-07-06T09:14:19Z</time>
      </trkpt>
      <trkpt lat="41.94101" lon="-7.4326">
        <ele>385.1946</ele>
        <time>2021-07-06T09:14:30Z</time>
      </trkpt>
      <trkpt lat="41.94103" lon="-7.43265">
        <ele>385.3276</ele>
        <time>2021-07-06T09:15:00Z</time>
      </trkpt>
      <trkpt lat="41.94105" lon="-7.4327">
        <ele>385.1086</ele>
        <time>2021-07-06T09:15:11Z</time>
      </trkpt>
      <trkpt lat="41.94103" lon="-7.43265">
        <ele>383.6772</ele>
        <time>2021-07-06T09:15:56Z</time>
      </trkpt>
      <trkpt lat="41.94103" lon="-7.43265">
        <ele>384.0437</ele>
        <time>2021-07-06T09:16:56Z</time>
      </trkpt>
      <trkpt lat="41.94101" lon="-7.43259">
        <ele>385.2921</ele>
        <time>2021-07-06T09:17:07Z</time>
      </trkpt>
      <trkpt lat="41.94102" lon="-7.43259">
        <ele>383.7879</ele>
        <time>2021-07-06T09:18:06Z</time>
      </trkpt>
      <trkpt lat="41.94102" lon="-7.43259">
        <ele>384.2647</ele>
        <time>2021-07-06T09:19:05Z</time>
      </trkpt>
      <trkpt lat="41.94099" lon="-7.43261">
        <ele>385.9328</ele>
        <time>2021-07-06T09:19:33Z</time>
      </trkpt>
      <trkpt lat="41.94103" lon="-7.43262">
        <ele>386.4239</ele>
        <time>2021-07-06T09:19:47Z</time>
      </trkpt>
      <trkpt lat="41.94102" lon="-7.43261">
        <ele>384.0944</ele>
        <time>2021-07-06T09:20:46Z</time>
      </trkpt>
      <trkpt lat="41.94102" lon="-7.43261">
        <ele>384.0944</ele>
        <time>2021-07-06T09:21:45Z</time>
      </trkpt>
      <trkpt lat="41.94102" lon="-7.43261">
        <ele>384.0944</ele>
        <time>2021-07-06T09:22:44Z</time>
      </trkpt>
      <trkpt lat="41.94101" lon="-7.43265">
        <ele>384.7286</ele>
        <time>2021-07-06T09:23:43Z</time>
      </trkpt>
      <trkpt lat="41.94107" lon="-7.43266">
        <ele>387.0692</ele>
        <time>2021-07-06T09:24:09Z</time>
      </trkpt>
      <trkpt lat="41.94103" lon="-7.43264">
        <ele>385.318</ele>
        <time>2021-07-06T09:24:24Z</time>
      </trkpt>
      <trkpt lat="41.94109" lon="-7.43266">
        <ele>385.245</ele>
        <time>2021-07-06T09:24:35Z</time>
      </trkpt>
      <trkpt lat="41.94105" lon="-7.43263">
        <ele>385.0402</ele>
        <time>2021-07-06T09:25:07Z</time>
      </trkpt>
      <trkpt lat="41.94108" lon="-7.43264">
        <ele>385.1962</ele>
        <time>2021-07-06T09:25:40Z</time>
      </trkpt>
      <trkpt lat="41.94105" lon="-7.43262">
        <ele>385.9185</ele>
        <time>2021-07-06T09:26:08Z</time>
      </trkpt>
      <trkpt lat="41.94101" lon="-7.43264">
        <ele>385.361</ele>
        <time>2021-07-06T09:26:20Z</time>
      </trkpt>
      <trkpt lat="41.94105" lon="-7.43266">
        <ele>384.7633</ele>
        <time>2021-07-06T09:26:42Z</time>
      </trkpt>
      <trkpt lat="41.94101" lon="-7.43267">
        <ele>385.6675</ele>
        <time>2021-07-06T09:26:59Z</time>
      </trkpt>
      <trkpt lat="41.94088" lon="-7.43287">
        <ele>370.1662</ele>
        <time>2021-07-06T09:27:36Z</time>
      </trkpt>
      <trkpt lat="41.94114" lon="-7.43269">
        <ele>385.0889</ele>
        <time>2021-07-06T09:27:47Z</time>
      </trkpt>
      <trkpt lat="41.94107" lon="-7.43266">
        <ele>385.0309</ele>
        <time>2021-07-06T09:27:58Z</time>
      </trkpt>
      <trkpt lat="41.94105" lon="-7.43264">
        <ele>385.0572</ele>
        <time>2021-07-06T09:28:57Z</time>
      </trkpt>
      <trkpt lat="41.94102" lon="-7.43257">
        <ele>385.6564</ele>
        <time>2021-07-06T09:29:16Z</time>
      </trkpt>
      <trkpt lat="41.94102" lon="-7.43262">
        <ele>385.0366</ele>
        <time>2021-07-06T09:29:27Z</time>
      </trkpt>
      <trkpt lat="41.94105" lon="-7.4326">
        <ele>385.7333</ele>
        <time>2021-07-06T09:29:41Z</time>
      </trkpt>
      <trkpt lat="41.94104" lon="-7.43266">
        <ele>385.5077</ele>
        <time>2021-07-06T09:30:13Z</time>
      </trkpt>
      <trkpt lat="41.94101" lon="-7.43269">
        <ele>385.7929</ele>
        <time>2021-07-06T09:30:27Z</time>
      </trkpt>
      <trkpt lat="41.94104" lon="-7.43272">
        <ele>386.1652</ele>
        <time>2021-07-06T09:30:51Z</time>
      </trkpt>
      <trkpt lat="41.94101" lon="-7.43266">
        <ele>384.422</ele>
        <time>2021-07-06T09:31:02Z</time>
      </trkpt>
      <trkpt lat="41.94097" lon="-7.43267">
        <ele>384.2858</ele>
        <time>2021-07-06T09:31:15Z</time>
      </trkpt>
      <trkpt lat="41.94099" lon="-7.43272">
        <ele>383.6001</ele>
        <time>2021-07-06T09:31:26Z</time>
      </trkpt>
      <trkpt lat="41.94087" lon="-7.4325">
        <ele>385.0751</ele>
        <time>2021-07-06T09:31:37Z</time>
      </trkpt>
      <trkpt lat="41.94075" lon="-7.43238">
        <ele>384.9093</ele>
        <time>2021-07-06T09:31:48Z</time>
      </trkpt>
      <trkpt lat="41.94083" lon="-7.43238">
        <ele>386.3872</ele>
        <time>2021-07-06T09:31:59Z</time>
      </trkpt>
      <trkpt lat="41.94088" lon="-7.43244">
        <ele>385.2628</ele>
        <time>2021-07-06T09:32:10Z</time>
      </trkpt>
      <trkpt lat="41.94102" lon="-7.43275">
        <ele>384.1117</ele>
        <time>2021-07-06T09:32:21Z</time>
      </trkpt>
      <trkpt lat="41.94101" lon="-7.43282">
        <ele>384.523</ele>
        <time>2021-07-06T09:32:32Z</time>
      </trkpt>
      <trkpt lat="41.94095" lon="-7.43282">
        <ele>384.3983</ele>
        <time>2021-07-06T09:32:43Z</time>
      </trkpt>
      <trkpt lat="41.94099" lon="-7.43285">
        <ele>384.3248</ele>
        <time>2021-07-06T09:32:54Z</time>
      </trkpt>
      <trkpt lat="41.94095" lon="-7.43275">
        <ele>385.2712</ele>
        <time>2021-07-06T09:33:29Z</time>
      </trkpt>
      <trkpt lat="41.94101" lon="-7.43275">
        <ele>382.986</ele>
        <time>2021-07-06T09:33:40Z</time>
      </trkpt>
      <trkpt lat="41.941" lon="-7.43267">
        <ele>370.1662</ele>
        <time>2021-07-06T09:34:07Z</time>
      </trkpt>
      <trkpt lat="41.94097" lon="-7.43263">
        <ele>384.6266</ele>
        <time>2021-07-06T09:34:22Z</time>
      </trkpt>
      <trkpt lat="41.94101" lon="-7.43257">
        <ele>387.4536</ele>
        <time>2021-07-06T09:34:33Z</time>
      </trkpt>
      <trkpt lat="41.94097" lon="-7.43258">
        <ele>384.8236</ele>
        <time>2021-07-06T09:34:49Z</time>
      </trkpt>
      <trkpt lat="41.94101" lon="-7.43259">
        <ele>385.3437</ele>
        <time>2021-07-06T09:35:22Z</time>
      </trkpt>
      <trkpt lat="41.94105" lon="-7.43261">
        <ele>385.1252</ele>
        <time>2021-07-06T09:35:41Z</time>
      </trkpt>
      <trkpt lat="41.94102" lon="-7.43259">
        <ele>385.4895</ele>
        <time>2021-07-06T09:35:53Z</time>
      </trkpt>
      <trkpt lat="41.94097" lon="-7.43258">
        <ele>384.4675</ele>
        <time>2021-07-06T09:36:10Z</time>
      </trkpt>
      <trkpt lat="41.94094" lon="-7.43255">
        <ele>384.2004</ele>
        <time>2021-07-06T09:36:24Z</time>
      </trkpt>
      <trkpt lat="41.94098" lon="-7.43255">
        <ele>385.1262</ele>
        <time>2021-07-06T09:36:43Z</time>
      </trkpt>
      <trkpt lat="41.94098" lon="-7.43261">
        <ele>383.7012</ele>
        <time>2021-07-06T09:36:58Z</time>
      </trkpt>
      <trkpt lat="41.9409" lon="-7.43276">
        <ele>384.7085</ele>
        <time>2021-07-06T09:37:09Z</time>
      </trkpt>
      <trkpt lat="41.94089" lon="-7.43282">
        <ele>384.6628</ele>
        <time>2021-07-06T09:37:20Z</time>
      </trkpt>
      <trkpt lat="41.9408" lon="-7.43284">
        <ele>385.0516</ele>
        <time>2021-07-06T09:37:31Z</time>
      </trkpt>
      <trkpt lat="41.94085" lon="-7.43284">
        <ele>384.3978</ele>
        <time>2021-07-06T09:37:46Z</time>
      </trkpt>
      <trkpt lat="41.9409" lon="-7.43286">
        <ele>383.9131</ele>
        <time>2021-07-06T09:37:57Z</time>
      </trkpt>
      <trkpt lat="41.94093" lon="-7.43286">
        <ele>384.4978</ele>
        <time>2021-07-06T09:38:01Z</time>
      </trkpt>
      <trkpt lat="41.9409" lon="-7.43273">
        <ele>385.8639</ele>
        <time>2021-07-06T09:38:38Z</time>
      </trkpt>
      <trkpt lat="41.94089" lon="-7.43274">
        <ele>384.2157</ele>
        <time>2021-07-06T09:39:37Z</time>
      </trkpt>
      <trkpt lat="41.94088" lon="-7.43278">
        <ele>384.9017</ele>
        <time>2021-07-06T09:39:59Z</time>
      </trkpt>
      <trkpt lat="41.94088" lon="-7.43281">
        <ele>385.884</ele>
        <time>2021-07-06T09:40:58Z</time>
      </trkpt>
      <trkpt lat="41.94087" lon="-7.43286">
        <ele>385.5621</ele>
        <time>2021-07-06T09:41:39Z</time>
      </trkpt>
      <trkpt lat="41.94055" lon="-7.434">
        <ele>383.1027</ele>
        <time>2021-07-06T09:41:50Z</time>
      </trkpt>
      <trkpt lat="41.94042" lon="-7.43449">
        <ele>384.2855</ele>
        <time>2021-07-06T09:42:01Z</time>
      </trkpt>
      <trkpt lat="41.94041" lon="-7.43459">
        <ele>385.1813</ele>
        <time>2021-07-06T09:42:12Z</time>
      </trkpt>
      <trkpt lat="41.94033" lon="-7.43517">
        <ele>385.1914</ele>
        <time>2021-07-06T09:42:23Z</time>
      </trkpt>
      <trkpt lat="41.94025" lon="-7.43595">
        <ele>383.2306</ele>
        <time>2021-07-06T09:42:34Z</time>
      </trkpt>
      <trkpt lat="41.94022" lon="-7.43631">
        <ele>383.0086</ele>
        <time>2021-07-06T09:42:45Z</time>
      </trkpt>
      <trkpt lat="41.94023" lon="-7.43664">
        <ele>382.2756</ele>
        <time>2021-07-06T09:42:56Z</time>
      </trkpt>
      <trkpt lat="41.94022" lon="-7.43719">
        <ele>381.228</ele>
        <time>2021-07-06T09:43:07Z</time>
      </trkpt>
      <trkpt lat="41.93984" lon="-7.43754">
        <ele>380.5742</ele>
        <time>2021-07-06T09:43:18Z</time>
      </trkpt>
      <trkpt lat="41.93921" lon="-7.43778">
        <ele>381.0575</ele>
        <time>2021-07-06T09:43:29Z</time>
      </trkpt>
      <trkpt lat="41.93867" lon="-7.43794">
        <ele>382.6508</ele>
        <time>2021-07-06T09:43:40Z</time>
      </trkpt>
      <trkpt lat="41.93825" lon="-7.43807">
        <ele>383.7422</ele>
        <time>2021-07-06T09:43:51Z</time>
      </trkpt>
      <trkpt lat="41.93789" lon="-7.43818">
        <ele>383.522</ele>
        <time>2021-07-06T09:44:02Z</time>
      </trkpt>
      <trkpt lat="41.93774" lon="-7.43823">
        <ele>383.2794</ele>
        <time>2021-07-06T09:44:13Z</time>
      </trkpt>
      <trkpt lat="41.93714" lon="-7.43839">
        <ele>381.9886</ele>
        <time>2021-07-06T09:44:24Z</time>
      </trkpt>
      <trkpt lat="41.93631" lon="-7.43856">
        <ele>379.663</ele>
        <time>2021-07-06T09:44:35Z</time>
      </trkpt>
      <trkpt lat="41.93528" lon="-7.43874">
        <ele>377.1087</ele>
        <time>2021-07-06T09:44:46Z</time>
      </trkpt>
      <trkpt lat="41.9342" lon="-7.43894">
        <ele>377.6368</ele>
        <time>2021-07-06T09:44:57Z</time>
      </trkpt>
      <trkpt lat="41.93322" lon="-7.43942">
        <ele>379.7078</ele>
        <time>2021-07-06T09:45:08Z</time>
      </trkpt>
      <trkpt lat="41.93211" lon="-7.44019">
        <ele>380.1208</ele>
        <time>2021-07-06T09:45:19Z</time>
      </trkpt>
      <trkpt lat="41.93093" lon="-7.44065">
        <ele>379.6821</ele>
        <time>2021-07-06T09:45:30Z</time>
      </trkpt>
      <trkpt lat="41.92952" lon="-7.44105">
        <ele>379.3611</ele>
        <time>2021-07-06T09:45:41Z</time>
      </trkpt>
      <trkpt lat="41.92818" lon="-7.44143">
        <ele>377.7065</ele>
        <time>2021-07-06T09:45:52Z</time>
      </trkpt>
      <trkpt lat="41.92671" lon="-7.44186">
        <ele>376.7531</ele>
        <time>2021-07-06T09:46:03Z</time>
      </trkpt>
      <trkpt lat="41.92517" lon="-7.44246">
        <ele>377.3742</ele>
        <time>2021-07-06T09:46:14Z</time>
      </trkpt>
      <trkpt lat="41.92393" lon="-7.44299">
        <ele>377.6473</ele>
        <time>2021-07-06T09:46:25Z</time>
      </trkpt>
      <trkpt lat="41.92274" lon="-7.4434">
        <ele>375.4987</ele>
        <time>2021-07-06T09:46:36Z</time>
      </trkpt>
      <trkpt lat="41.92153" lon="-7.44375">
        <ele>375.2627</ele>
        <time>2021-07-06T09:46:47Z</time>
      </trkpt>
      <trkpt lat="41.92003" lon="-7.44384">
        <ele>375.4659</ele>
        <time>2021-07-06T09:46:58Z</time>
      </trkpt>
      <trkpt lat="41.91865" lon="-7.44389">
        <ele>376.2467</ele>
        <time>2021-07-06T09:47:09Z</time>
      </trkpt>
      <trkpt lat="41.91732" lon="-7.44351">
        <ele>375.3329</ele>
        <time>2021-07-06T09:47:20Z</time>
      </trkpt>
      <trkpt lat="41.91656" lon="-7.44343">
        <ele>376.9092</ele>
        <time>2021-07-06T09:47:31Z</time>
      </trkpt>
      <trkpt lat="41.91611" lon="-7.44341">
        <ele>375.318</ele>
        <time>2021-07-06T09:47:42Z</time>
      </trkpt>
      <trkpt lat="41.91426" lon="-7.44334">
        <ele>374.6362</ele>
        <time>2021-07-06T09:47:53Z</time>
      </trkpt>
      <trkpt lat="41.91286" lon="-7.44324">
        <ele>375.4859</ele>
        <time>2021-07-06T09:48:04Z</time>
      </trkpt>
      <trkpt lat="41.91139" lon="-7.44343">
        <ele>376.7726</ele>
        <time>2021-07-06T09:48:15Z</time>
      </trkpt>
      <trkpt lat="41.90983" lon="-7.4431">
        <ele>374.2541</ele>
        <time>2021-07-06T09:48:26Z</time>
      </trkpt>
      <trkpt lat="41.90847" lon="-7.44308">
        <ele>374.9516</ele>
        <time>2021-07-06T09:48:37Z</time>
      </trkpt>
      <trkpt lat="41.90726" lon="-7.44297">
        <ele>374.0694</ele>
        <time>2021-07-06T09:48:48Z</time>
      </trkpt>
      <trkpt lat="41.90469" lon="-7.44255">
        <ele>374.4001</ele>
        <time>2021-07-06T09:48:59Z</time>
      </trkpt>
      <trkpt lat="41.90215" lon="-7.4421">
        <ele>374.5661</ele>
        <time>2021-07-06T09:49:10Z</time>
      </trkpt>
      <trkpt lat="41.89957" lon="-7.44166">
        <ele>374.283</ele>
        <time>2021-07-06T09:49:21Z</time>
      </trkpt>
      <trkpt lat="41.89691" lon="-7.44156">
        <ele>376.0305</ele>
        <time>2021-07-06T09:49:32Z</time>
      </trkpt>
      <trkpt lat="41.89421" lon="-7.44168">
        <ele>377.8112</ele>
        <time>2021-07-06T09:49:43Z</time>
      </trkpt>
      <trkpt lat="41.89173" lon="-7.44177">
        <ele>375.891</ele>
        <time>2021-07-06T09:49:54Z</time>
      </trkpt>
      <trkpt lat="41.88901" lon="-7.44158">
        <ele>376.9869</ele>
        <time>2021-07-06T09:50:05Z</time>
      </trkpt>
      <trkpt lat="41.88644" lon="-7.44041">
        <ele>375.9849</ele>
        <time>2021-07-06T09:50:16Z</time>
      </trkpt>
      <trkpt lat="41.88387" lon="-7.4395">
        <ele>378.2885</ele>
        <time>2021-07-06T09:50:27Z</time>
      </trkpt>
      <trkpt lat="41.88172" lon="-7.43879">
        <ele>383.0649</ele>
        <time>2021-07-06T09:50:38Z</time>
      </trkpt>
      <trkpt lat="41.87955" lon="-7.439">
        <ele>382.791</ele>
        <time>2021-07-06T09:50:49Z</time>
      </trkpt>
      <trkpt lat="41.87747" lon="-7.43946">
        <ele>383.1143</ele>
        <time>2021-07-06T09:51:00Z</time>
      </trkpt>
      <trkpt lat="41.87533" lon="-7.43994">
        <ele>382.1733</ele>
        <time>2021-07-06T09:51:11Z</time>
      </trkpt>
      <trkpt lat="41.87349" lon="-7.4403">
        <ele>379.87</ele>
        <time>2021-07-06T09:51:22Z</time>
      </trkpt>
      <trkpt lat="41.87185" lon="-7.44045">
        <ele>377.8502</ele>
        <time>2021-07-06T09:51:33Z</time>
      </trkpt>
      <trkpt lat="41.87046" lon="-7.44049">
        <ele>376.1489</ele>
        <time>2021-07-06T09:51:44Z</time>
      </trkpt>
      <trkpt lat="41.869" lon="-7.44054">
        <ele>372.9323</ele>
        <time>2021-07-06T09:51:55Z</time>
      </trkpt>
      <trkpt lat="41.8672" lon="-7.44056">
        <ele>371.4881</ele>
        <time>2021-07-06T09:52:06Z</time>
      </trkpt>
      <trkpt lat="41.86463" lon="-7.43947">
        <ele>371.0679</ele>
        <time>2021-07-06T09:52:17Z</time>
      </trkpt>
      <trkpt lat="41.86192" lon="-7.43828">
        <ele>369.2702</ele>
        <time>2021-07-06T09:52:28Z</time>
      </trkpt>
      <trkpt lat="41.8593" lon="-7.43712">
        <ele>370.226</ele>
        <time>2021-07-06T09:52:39Z</time>
      </trkpt>
      <trkpt lat="41.85671" lon="-7.43595">
        <ele>376.138</ele>
        <time>2021-07-06T09:52:50Z</time>
      </trkpt>
      <trkpt lat="41.8545" lon="-7.43496">
        <ele>385.3604</ele>
        <time>2021-07-06T09:53:01Z</time>
      </trkpt>
      <trkpt lat="41.85256" lon="-7.43378">
        <ele>382.8891</ele>
        <time>2021-07-06T09:53:12Z</time>
      </trkpt>
      <trkpt lat="41.8508" lon="-7.4322">
        <ele>379.7263</ele>
        <time>2021-07-06T09:53:23Z</time>
      </trkpt>
      <trkpt lat="41.84906" lon="-7.43039">
        <ele>379.5682</ele>
        <time>2021-07-06T09:53:34Z</time>
      </trkpt>
      <trkpt lat="41.84644" lon="-7.42912">
        <ele>376.7135</ele>
        <time>2021-07-06T09:53:45Z</time>
      </trkpt>
      <trkpt lat="41.8437" lon="-7.4279">
        <ele>372.653</ele>
        <time>2021-07-06T09:53:56Z</time>
      </trkpt>
      <trkpt lat="41.84108" lon="-7.42672">
        <ele>373.018</ele>
        <time>2021-07-06T09:54:07Z</time>
      </trkpt>
      <trkpt lat="41.83858" lon="-7.42543">
        <ele>365.6914</ele>
        <time>2021-07-06T09:54:18Z</time>
      </trkpt>
      <trkpt lat="41.83633" lon="-7.42416">
        <ele>369.7714</ele>
        <time>2021-07-06T09:54:29Z</time>
      </trkpt>
      <trkpt lat="41.83447" lon="-7.42353">
        <ele>368.5424</ele>
        <time>2021-07-06T09:54:40Z</time>
      </trkpt>
      <trkpt lat="41.8325" lon="-7.42332">
        <ele>365.9406</ele>
        <time>2021-07-06T09:54:51Z</time>
      </trkpt>
      <trkpt lat="41.82997" lon="-7.42369">
        <ele>364.8001</ele>
        <time>2021-07-06T09:55:02Z</time>
      </trkpt>
      <trkpt lat="41.82762" lon="-7.42438">
        <ele>359.5388</ele>
        <time>2021-07-06T09:55:13Z</time>
      </trkpt>
      <trkpt lat="41.82565" lon="-7.42529">
        <ele>361.7116</ele>
        <time>2021-07-06T09:55:24Z</time>
      </trkpt>
      <trkpt lat="41.82506" lon="-7.42543">
        <ele>363.5404</ele>
        <time>2021-07-06T09:55:35Z</time>
      </trkpt>
      <trkpt lat="41.82527" lon="-7.42531">
        <ele>362.8257</ele>
        <time>2021-07-06T09:55:46Z</time>
      </trkpt>
      <trkpt lat="41.82531" lon="-7.42535">
        <ele>364.3465</ele>
        <time>2021-07-06T09:55:57Z</time>
      </trkpt>
      <trkpt lat="41.82538" lon="-7.42538">
        <ele>366.7006</ele>
        <time>2021-07-06T09:56:10Z</time>
      </trkpt>
      <trkpt lat="41.82541" lon="-7.42535">
        <ele>366.4544</ele>
        <time>2021-07-06T09:56:33Z</time>
      </trkpt>
      <trkpt lat="41.8254" lon="-7.4253">
        <ele>366.5529</ele>
        <time>2021-07-06T09:56:50Z</time>
      </trkpt>
      <trkpt lat="41.82539" lon="-7.42528">
        <ele>368.4982</ele>
        <time>2021-07-06T09:57:50Z</time>
      </trkpt>
      <trkpt lat="41.82538" lon="-7.42526">
        <ele>368.7977</ele>
        <time>2021-07-06T09:58:50Z</time>
      </trkpt>
      <trkpt lat="41.82535" lon="-7.42528">
        <ele>367.9297</ele>
        <time>2021-07-06T09:59:50Z</time>
      </trkpt>
      <trkpt lat="41.82538" lon="-7.42524">
        <ele>368.7484</ele>
        <time>2021-07-06T10:00:02Z</time>
      </trkpt>
      <trkpt lat="41.82541" lon="-7.42523">
        <ele>369.7184</ele>
        <time>2021-07-06T10:00:17Z</time>
      </trkpt>
      <trkpt lat="41.82489" lon="-7.4257">
        <ele>368.1997</ele>
        <time>2021-07-06T10:00:28Z</time>
      </trkpt>
      <trkpt lat="41.82326" lon="-7.42612">
        <ele>371.802</ele>
        <time>2021-07-06T10:00:39Z</time>
      </trkpt>
      <trkpt lat="41.82176" lon="-7.42541">
        <ele>371.0236</ele>
        <time>2021-07-06T10:00:50Z</time>
      </trkpt>
      <trkpt lat="41.82121" lon="-7.42512">
        <ele>368.7786</ele>
        <time>2021-07-06T10:01:01Z</time>
      </trkpt>
      <trkpt lat="41.82051" lon="-7.42472">
        <ele>368.9392</ele>
        <time>2021-07-06T10:01:12Z</time>
      </trkpt>
      <trkpt lat="41.8188" lon="-7.42378">
        <ele>370.6045</ele>
        <time>2021-07-06T10:01:23Z</time>
      </trkpt>
      <trkpt lat="41.81699" lon="-7.42292">
        <ele>366.257</ele>
        <time>2021-07-06T10:01:34Z</time>
      </trkpt>
      <trkpt lat="41.81533" lon="-7.42271">
        <ele>373.3028</ele>
        <time>2021-07-06T10:01:45Z</time>
      </trkpt>
      <trkpt lat="41.8137" lon="-7.42279">
        <ele>375.106</ele>
        <time>2021-07-06T10:01:56Z</time>
      </trkpt>
      <trkpt lat="41.81246" lon="-7.4228">
        <ele>364.5669</ele>
        <time>2021-07-06T10:02:07Z</time>
      </trkpt>
      <trkpt lat="41.81117" lon="-7.42258">
        <ele>364.0394</ele>
        <time>2021-07-06T10:02:18Z</time>
      </trkpt>
      <trkpt lat="41.81056" lon="-7.42205">
        <ele>363.8703</ele>
        <time>2021-07-06T10:02:29Z</time>
      </trkpt>
      <trkpt lat="41.8106" lon="-7.42206">
        <ele>371.2339</ele>
        <time>2021-07-06T10:03:22Z</time>
      </trkpt>
      <trkpt lat="41.81058" lon="-7.42206">
        <ele>369.3859</ele>
        <time>2021-07-06T10:04:21Z</time>
      </trkpt>
      <trkpt lat="41.81058" lon="-7.42207">
        <ele>369.7944</ele>
        <time>2021-07-06T10:05:20Z</time>
      </trkpt>
      <trkpt lat="41.81053" lon="-7.42199">
        <ele>370.1154</ele>
        <time>2021-07-06T10:05:37Z</time>
      </trkpt>
      <trkpt lat="41.80981" lon="-7.42122">
        <ele>372.5764</ele>
        <time>2021-07-06T10:05:48Z</time>
      </trkpt>
      <trkpt lat="41.80879" lon="-7.42014">
        <ele>378.6428</ele>
        <time>2021-07-06T10:05:59Z</time>
      </trkpt>
      <trkpt lat="41.80732" lon="-7.41861">
        <ele>385.6503</ele>
        <time>2021-07-06T10:06:10Z</time>
      </trkpt>
      <trkpt lat="41.80578" lon="-7.4183">
        <ele>385.3074</ele>
        <time>2021-07-06T10:06:21Z</time>
      </trkpt>
      <trkpt lat="41.80457" lon="-7.4193">
        <ele>379.2326</ele>
        <time>2021-07-06T10:06:32Z</time>
      </trkpt>
      <trkpt lat="41.80285" lon="-7.41992">
        <ele>385.8796</ele>
        <time>2021-07-06T10:06:43Z</time>
      </trkpt>
      <trkpt lat="41.8011" lon="-7.42089">
        <ele>391.1791</ele>
        <time>2021-07-06T10:06:54Z</time>
      </trkpt>
      <trkpt lat="41.79944" lon="-7.42182">
        <ele>393.7067</ele>
        <time>2021-07-06T10:07:05Z</time>
      </trkpt>
      <trkpt lat="41.79808" lon="-7.42258">
        <ele>394.1726</ele>
        <time>2021-07-06T10:07:16Z</time>
      </trkpt>
      <trkpt lat="41.79657" lon="-7.42307">
        <ele>384.7504</ele>
        <time>2021-07-06T10:07:27Z</time>
      </trkpt>
      <trkpt lat="41.79513" lon="-7.42327">
        <ele>377.6085</ele>
        <time>2021-07-06T10:07:38Z</time>
      </trkpt>
      <trkpt lat="41.79382" lon="-7.42342">
        <ele>372.8767</ele>
        <time>2021-07-06T10:07:49Z</time>
      </trkpt>
      <trkpt lat="41.79254" lon="-7.42329">
        <ele>374.3825</ele>
        <time>2021-07-06T10:08:00Z</time>
      </trkpt>
      <trkpt lat="41.79129" lon="-7.42318">
        <ele>376.254</ele>
        <time>2021-07-06T10:08:11Z</time>
      </trkpt>
      <trkpt lat="41.79001" lon="-7.42308">
        <ele>369.8864</ele>
        <time>2021-07-06T10:08:22Z</time>
      </trkpt>
      <trkpt lat="41.78868" lon="-7.42296">
        <ele>366.5127</ele>
        <time>2021-07-06T10:08:33Z</time>
      </trkpt>
      <trkpt lat="41.7875" lon="-7.42331">
        <ele>368.9662</ele>
        <time>2021-07-06T10:08:44Z</time>
      </trkpt>
      <trkpt lat="41.78598" lon="-7.42346">
        <ele>363.5522</ele>
        <time>2021-07-06T10:08:55Z</time>
      </trkpt>
      <trkpt lat="41.78483" lon="-7.42338">
        <ele>363.621</ele>
        <time>2021-07-06T10:09:06Z</time>
      </trkpt>
      <trkpt lat="41.78299" lon="-7.42335">
        <ele>364.2923</ele>
        <time>2021-07-06T10:09:17Z</time>
      </trkpt>
      <trkpt lat="41.78118" lon="-7.42345">
        <ele>362.3528</ele>
        <time>2021-07-06T10:09:28Z</time>
      </trkpt>
      <trkpt lat="41.77926" lon="-7.42354">
        <ele>359.9287</ele>
        <time>2021-07-06T10:09:39Z</time>
      </trkpt>
      <trkpt lat="41.77715" lon="-7.42421">
        <ele>357.7957</ele>
        <time>2021-07-06T10:09:50Z</time>
      </trkpt>
      <trkpt lat="41.77492" lon="-7.42509">
        <ele>355.4762</ele>
        <time>2021-07-06T10:10:02Z</time>
      </trkpt>
      <trkpt lat="41.77312" lon="-7.42635">
        <ele>354.3279</ele>
        <time>2021-07-06T10:10:13Z</time>
      </trkpt>
      <trkpt lat="41.77152" lon="-7.42814">
        <ele>354.5661</ele>
        <time>2021-07-06T10:10:24Z</time>
      </trkpt>
      <trkpt lat="41.76929" lon="-7.43069">
        <ele>353.5885</ele>
        <time>2021-07-06T10:10:35Z</time>
      </trkpt>
      <trkpt lat="41.76736" lon="-7.4329">
        <ele>352.9648</ele>
        <time>2021-07-06T10:10:46Z</time>
      </trkpt>
      <trkpt lat="41.76548" lon="-7.43496">
        <ele>351.9115</ele>
        <time>2021-07-06T10:10:57Z</time>
      </trkpt>
      <trkpt lat="41.76325" lon="-7.43641">
        <ele>351.5803</ele>
        <time>2021-07-06T10:11:08Z</time>
      </trkpt>
      <trkpt lat="41.76092" lon="-7.43787">
        <ele>352.0796</ele>
        <time>2021-07-06T10:11:19Z</time>
      </trkpt>
      <trkpt lat="41.75862" lon="-7.43932">
        <ele>352.5137</ele>
        <time>2021-07-06T10:11:30Z</time>
      </trkpt>
      <trkpt lat="41.75633" lon="-7.44077">
        <ele>353.0539</ele>
        <time>2021-07-06T10:11:41Z</time>
      </trkpt>
      <trkpt lat="41.75397" lon="-7.44226">
        <ele>352.5532</ele>
        <time>2021-07-06T10:11:52Z</time>
      </trkpt>
      <trkpt lat="41.75168" lon="-7.4437">
        <ele>350.7472</ele>
        <time>2021-07-06T10:12:03Z</time>
      </trkpt>
      <trkpt lat="41.7498" lon="-7.44496">
        <ele>349.6888</ele>
        <time>2021-07-06T10:12:14Z</time>
      </trkpt>
      <trkpt lat="41.74804" lon="-7.44607">
        <ele>350.641</ele>
        <time>2021-07-06T10:12:25Z</time>
      </trkpt>
      <trkpt lat="41.74627" lon="-7.4472">
        <ele>350.329</ele>
        <time>2021-07-06T10:12:36Z</time>
      </trkpt>
      <trkpt lat="41.74426" lon="-7.44849">
        <ele>349.7486</ele>
        <time>2021-07-06T10:12:47Z</time>
      </trkpt>
      <trkpt lat="41.74238" lon="-7.44968">
        <ele>351.3786</ele>
        <time>2021-07-06T10:12:58Z</time>
      </trkpt>
      <trkpt lat="41.74052" lon="-7.45086">
        <ele>349.6179</ele>
        <time>2021-07-06T10:13:09Z</time>
      </trkpt>
      <trkpt lat="41.7391" lon="-7.45173">
        <ele>350.4774</ele>
        <time>2021-07-06T10:13:20Z</time>
      </trkpt>
      <trkpt lat="41.73784" lon="-7.45254">
        <ele>351.9139</ele>
        <time>2021-07-06T10:13:31Z</time>
      </trkpt>
      <trkpt lat="41.73639" lon="-7.45347">
        <ele>352.0609</ele>
        <time>2021-07-06T10:13:42Z</time>
      </trkpt>
      <trkpt lat="41.73488" lon="-7.45444">
        <ele>351.032</ele>
        <time>2021-07-06T10:13:53Z</time>
      </trkpt>
      <trkpt lat="41.73371" lon="-7.45602">
        <ele>350.0912</ele>
        <time>2021-07-06T10:14:04Z</time>
      </trkpt>
      <trkpt lat="41.73376" lon="-7.45799">
        <ele>351.4034</ele>
        <time>2021-07-06T10:14:15Z</time>
      </trkpt>
      <trkpt lat="41.7343" lon="-7.45997">
        <ele>354.1589</ele>
        <time>2021-07-06T10:14:26Z</time>
      </trkpt>
      <trkpt lat="41.73501" lon="-7.46195">
        <ele>351.3829</ele>
        <time>2021-07-06T10:14:37Z</time>
      </trkpt>
      <trkpt lat="41.73578" lon="-7.46301">
        <ele>352.4798</ele>
        <time>2021-07-06T10:14:48Z</time>
      </trkpt>
      <trkpt lat="41.73658" lon="-7.46438">
        <ele>353.2345</ele>
        <time>2021-07-06T10:14:59Z</time>
      </trkpt>
      <trkpt lat="41.73648" lon="-7.46518">
        <ele>352.415</ele>
        <time>2021-07-06T10:15:10Z</time>
      </trkpt>
      <trkpt lat="41.73544" lon="-7.46598">
        <ele>351.7524</ele>
        <time>2021-07-06T10:15:21Z</time>
      </trkpt>
      <trkpt lat="41.73433" lon="-7.46679">
        <ele>353.2416</ele>
        <time>2021-07-06T10:15:32Z</time>
      </trkpt>
      <trkpt lat="41.73341" lon="-7.46746">
        <ele>352.2344</ele>
        <time>2021-07-06T10:15:43Z</time>
      </trkpt>
      <trkpt lat="41.7324" lon="-7.46822">
        <ele>351.2987</ele>
        <time>2021-07-06T10:15:54Z</time>
      </trkpt>
      <trkpt lat="41.73209" lon="-7.46856">
        <ele>351.624</ele>
        <time>2021-07-06T10:16:05Z</time>
      </trkpt>
      <trkpt lat="41.73187" lon="-7.46878">
        <ele>353.9481</ele>
        <time>2021-07-06T10:16:16Z</time>
      </trkpt>
      <trkpt lat="41.73068" lon="-7.46943">
        <ele>352.2456</ele>
        <time>2021-07-06T10:16:27Z</time>
      </trkpt>
      <trkpt lat="41.72945" lon="-7.4704">
        <ele>349.1655</ele>
        <time>2021-07-06T10:16:38Z</time>
      </trkpt>
      <trkpt lat="41.72813" lon="-7.47137">
        <ele>350.0631</ele>
        <time>2021-07-06T10:16:49Z</time>
      </trkpt>
      <trkpt lat="41.7269" lon="-7.4723">
        <ele>350.7397</ele>
        <time>2021-07-06T10:17:00Z</time>
      </trkpt>
      <trkpt lat="41.72579" lon="-7.47313">
        <ele>348.8447</ele>
        <time>2021-07-06T10:17:11Z</time>
      </trkpt>
      <trkpt lat="41.72465" lon="-7.47401">
        <ele>347.6054</ele>
        <time>2021-07-06T10:17:22Z</time>
      </trkpt>
      <trkpt lat="41.7235" lon="-7.47491">
        <ele>348.1543</ele>
        <time>2021-07-06T10:17:33Z</time>
      </trkpt>
      <trkpt lat="41.72222" lon="-7.47588">
        <ele>348.3417</ele>
        <time>2021-07-06T10:17:44Z</time>
      </trkpt>
      <trkpt lat="41.72108" lon="-7.4768">
        <ele>349.3596</ele>
        <time>2021-07-06T10:17:55Z</time>
      </trkpt>
      <trkpt lat="41.72023" lon="-7.478">
        <ele>351.3743</ele>
        <time>2021-07-06T10:18:06Z</time>
      </trkpt>
      <trkpt lat="41.71955" lon="-7.47952">
        <ele>359.306</ele>
        <time>2021-07-06T10:18:17Z</time>
      </trkpt>
      <trkpt lat="41.71898" lon="-7.4815">
        <ele>370.2238</ele>
        <time>2021-07-06T10:18:28Z</time>
      </trkpt>
      <trkpt lat="41.71808" lon="-7.4834">
        <ele>378.6784</ele>
        <time>2021-07-06T10:18:39Z</time>
      </trkpt>
      <trkpt lat="41.71696" lon="-7.48511">
        <ele>388.3964</ele>
        <time>2021-07-06T10:18:50Z</time>
      </trkpt>
      <trkpt lat="41.71586" lon="-7.48682">
        <ele>396.0943</ele>
        <time>2021-07-06T10:19:01Z</time>
      </trkpt>
      <trkpt lat="41.71497" lon="-7.48817">
        <ele>401.7133</ele>
        <time>2021-07-06T10:19:12Z</time>
      </trkpt>
      <trkpt lat="41.71372" lon="-7.49007">
        <ele>408.5479</ele>
        <time>2021-07-06T10:19:23Z</time>
      </trkpt>
      <trkpt lat="41.71238" lon="-7.49234">
        <ele>404.6016</ele>
        <time>2021-07-06T10:19:34Z</time>
      </trkpt>
      <trkpt lat="41.71108" lon="-7.4944">
        <ele>402.1453</ele>
        <time>2021-07-06T10:19:45Z</time>
      </trkpt>
      <trkpt lat="41.70937" lon="-7.49554">
        <ele>395.413</ele>
        <time>2021-07-06T10:19:56Z</time>
      </trkpt>
      <trkpt lat="41.70799" lon="-7.49622">
        <ele>392.0052</ele>
        <time>2021-07-06T10:20:07Z</time>
      </trkpt>
      <trkpt lat="41.70672" lon="-7.49689">
        <ele>389.0365</ele>
        <time>2021-07-06T10:20:18Z</time>
      </trkpt>
      <trkpt lat="41.70568" lon="-7.4982">
        <ele>387.8714</ele>
        <time>2021-07-06T10:20:29Z</time>
      </trkpt>
      <trkpt lat="41.70609" lon="-7.50034">
        <ele>396.8944</ele>
        <time>2021-07-06T10:20:40Z</time>
      </trkpt>
      <trkpt lat="41.70762" lon="-7.50193">
        <ele>408.5684</ele>
        <time>2021-07-06T10:20:51Z</time>
      </trkpt>
      <trkpt lat="41.70846" lon="-7.50417">
        <ele>418.06</ele>
        <time>2021-07-06T10:21:02Z</time>
      </trkpt>
      <trkpt lat="41.70807" lon="-7.5071">
        <ele>423.7336</ele>
        <time>2021-07-06T10:21:13Z</time>
      </trkpt>
      <trkpt lat="41.70739" lon="-7.50989">
        <ele>431.9879</ele>
        <time>2021-07-06T10:21:24Z</time>
      </trkpt>
      <trkpt lat="41.70574" lon="-7.51195">
        <ele>440.2775</ele>
        <time>2021-07-06T10:21:35Z</time>
      </trkpt>
      <trkpt lat="41.70372" lon="-7.51382">
        <ele>446.2452</ele>
        <time>2021-07-06T10:21:46Z</time>
      </trkpt>
      <trkpt lat="41.70204" lon="-7.51535">
        <ele>451.5697</ele>
        <time>2021-07-06T10:21:57Z</time>
      </trkpt>
      <trkpt lat="41.70055" lon="-7.51693">
        <ele>454.5277</ele>
        <time>2021-07-06T10:22:08Z</time>
      </trkpt>
      <trkpt lat="41.69912" lon="-7.51851">
        <ele>451.2892</ele>
        <time>2021-07-06T10:22:19Z</time>
      </trkpt>
      <trkpt lat="41.69792" lon="-7.51983">
        <ele>448.914</ele>
        <time>2021-07-06T10:22:30Z</time>
      </trkpt>
      <trkpt lat="41.69704" lon="-7.52133">
        <ele>450.3059</ele>
        <time>2021-07-06T10:22:41Z</time>
      </trkpt>
      <trkpt lat="41.6968" lon="-7.52331">
        <ele>453.8645</ele>
        <time>2021-07-06T10:22:52Z</time>
      </trkpt>
      <trkpt lat="41.69644" lon="-7.52558">
        <ele>457.4617</ele>
        <time>2021-07-06T10:23:03Z</time>
      </trkpt>
      <trkpt lat="41.69483" lon="-7.52767">
        <ele>456.3068</ele>
        <time>2021-07-06T10:23:14Z</time>
      </trkpt>
      <trkpt lat="41.69284" lon="-7.52949">
        <ele>456.8993</ele>
        <time>2021-07-06T10:23:25Z</time>
      </trkpt>
      <trkpt lat="41.6909" lon="-7.53128">
        <ele>455.3013</ele>
        <time>2021-07-06T10:23:36Z</time>
      </trkpt>
      <trkpt lat="41.6896" lon="-7.5339">
        <ele>454.1092</ele>
        <time>2021-07-06T10:23:47Z</time>
      </trkpt>
      <trkpt lat="41.6887" lon="-7.53687">
        <ele>452.3244</ele>
        <time>2021-07-06T10:23:58Z</time>
      </trkpt>
      <trkpt lat="41.68717" lon="-7.53846">
        <ele>452.3329</ele>
        <time>2021-07-06T10:24:09Z</time>
      </trkpt>
      <trkpt lat="41.6861" lon="-7.54006">
        <ele>455.437</ele>
        <time>2021-07-06T10:24:20Z</time>
      </trkpt>
      <trkpt lat="41.68578" lon="-7.5422">
        <ele>456.9655</ele>
        <time>2021-07-06T10:24:31Z</time>
      </trkpt>
      <trkpt lat="41.68558" lon="-7.54435">
        <ele>463</ele>
        <time>2021-07-06T10:24:42Z</time>
      </trkpt>
      <trkpt lat="41.68523" lon="-7.54652">
        <ele>464.5678</ele>
        <time>2021-07-06T10:24:53Z</time>
      </trkpt>
      <trkpt lat="41.6837" lon="-7.54773">
        <ele>460.2404</ele>
        <time>2021-07-06T10:25:04Z</time>
      </trkpt>
      <trkpt lat="41.68162" lon="-7.54859">
        <ele>456.6626</ele>
        <time>2021-07-06T10:25:15Z</time>
      </trkpt>
      <trkpt lat="41.68038" lon="-7.55092">
        <ele>462.1047</ele>
        <time>2021-07-06T10:25:26Z</time>
      </trkpt>
      <trkpt lat="41.67989" lon="-7.5536">
        <ele>473.3886</ele>
        <time>2021-07-06T10:25:37Z</time>
      </trkpt>
      <trkpt lat="41.67918" lon="-7.55576">
        <ele>478.8326</ele>
        <time>2021-07-06T10:25:48Z</time>
      </trkpt>
      <trkpt lat="41.67767" lon="-7.55673">
        <ele>476.8183</ele>
        <time>2021-07-06T10:25:59Z</time>
      </trkpt>
      <trkpt lat="41.67674" lon="-7.55857">
        <ele>464.2337</ele>
        <time>2021-07-06T10:26:10Z</time>
      </trkpt>
      <trkpt lat="41.67661" lon="-7.56071">
        <ele>453.7021</ele>
        <time>2021-07-06T10:26:21Z</time>
      </trkpt>
      <trkpt lat="41.6759" lon="-7.56236">
        <ele>444.8702</ele>
        <time>2021-07-06T10:26:32Z</time>
      </trkpt>
      <trkpt lat="41.67436" lon="-7.56229">
        <ele>435.4129</ele>
        <time>2021-07-06T10:26:43Z</time>
      </trkpt>
      <trkpt lat="41.67292" lon="-7.56293">
        <ele>425.5865</ele>
        <time>2021-07-06T10:26:54Z</time>
      </trkpt>
      <trkpt lat="41.67192" lon="-7.5644">
        <ele>419.0762</ele>
        <time>2021-07-06T10:27:05Z</time>
      </trkpt>
      <trkpt lat="41.67037" lon="-7.56488">
        <ele>409.1315</ele>
        <time>2021-07-06T10:27:16Z</time>
      </trkpt>
      <trkpt lat="41.66861" lon="-7.56487">
        <ele>398.1681</ele>
        <time>2021-07-06T10:27:27Z</time>
      </trkpt>
      <trkpt lat="41.66707" lon="-7.56518">
        <ele>387.5123</ele>
        <time>2021-07-06T10:27:38Z</time>
      </trkpt>
      <trkpt lat="41.66559" lon="-7.56597">
        <ele>377.8673</ele>
        <time>2021-07-06T10:27:49Z</time>
      </trkpt>
      <trkpt lat="41.66415" lon="-7.56677">
        <ele>368.9915</ele>
        <time>2021-07-06T10:28:00Z</time>
      </trkpt>
      <trkpt lat="41.66281" lon="-7.56751">
        <ele>359.5977</ele>
        <time>2021-07-06T10:28:11Z</time>
      </trkpt>
      <trkpt lat="41.66167" lon="-7.56865">
        <ele>349.3271</ele>
        <time>2021-07-06T10:28:22Z</time>
      </trkpt>
      <trkpt lat="41.66068" lon="-7.57007">
        <ele>347.2293</ele>
        <time>2021-07-06T10:28:33Z</time>
      </trkpt>
      <trkpt lat="41.65896" lon="-7.57246">
        <ele>363.4479</ele>
        <time>2021-07-06T10:28:44Z</time>
      </trkpt>
      <trkpt lat="41.65734" lon="-7.57471">
        <ele>380.0285</ele>
        <time>2021-07-06T10:28:55Z</time>
      </trkpt>
      <trkpt lat="41.65571" lon="-7.57699">
        <ele>386.042</ele>
        <time>2021-07-06T10:29:06Z</time>
      </trkpt>
      <trkpt lat="41.65392" lon="-7.57899">
        <ele>387.1156</ele>
        <time>2021-07-06T10:29:17Z</time>
      </trkpt>
      <trkpt lat="41.65165" lon="-7.57909">
        <ele>384.4092</ele>
        <time>2021-07-06T10:29:28Z</time>
      </trkpt>
      <trkpt lat="41.65016" lon="-7.57778">
        <ele>378.7062</ele>
        <time>2021-07-06T10:29:39Z</time>
      </trkpt>
      <trkpt lat="41.64888" lon="-7.57648">
        <ele>374.8782</ele>
        <time>2021-07-06T10:29:50Z</time>
      </trkpt>
      <trkpt lat="41.64757" lon="-7.57519">
        <ele>370.8552</ele>
        <time>2021-07-06T10:30:01Z</time>
      </trkpt>
      <trkpt lat="41.64599" lon="-7.57482">
        <ele>364.9754</ele>
        <time>2021-07-06T10:30:12Z</time>
      </trkpt>
      <trkpt lat="41.64466" lon="-7.57458">
        <ele>363.2876</ele>
        <time>2021-07-06T10:30:23Z</time>
      </trkpt>
      <trkpt lat="41.64352" lon="-7.57498">
        <ele>357.469</ele>
        <time>2021-07-06T10:30:34Z</time>
      </trkpt>
      <trkpt lat="41.64252" lon="-7.57511">
        <ele>356.5208</ele>
        <time>2021-07-06T10:30:45Z</time>
      </trkpt>
      <trkpt lat="41.64172" lon="-7.57484">
        <ele>353.6424</ele>
        <time>2021-07-06T10:30:56Z</time>
      </trkpt>
      <trkpt lat="41.64128" lon="-7.57445">
        <ele>353.0286</ele>
        <time>2021-07-06T10:31:07Z</time>
      </trkpt>
      <trkpt lat="41.6409" lon="-7.5741">
        <ele>354.8218</ele>
        <time>2021-07-06T10:31:18Z</time>
      </trkpt>
      <trkpt lat="41.64062" lon="-7.57383">
        <ele>360.3856</ele>
        <time>2021-07-06T10:31:29Z</time>
      </trkpt>
      <trkpt lat="41.64033" lon="-7.57357">
        <ele>358.3146</ele>
        <time>2021-07-06T10:31:40Z</time>
      </trkpt>
      <trkpt lat="41.6399" lon="-7.57319">
        <ele>357.2328</ele>
        <time>2021-07-06T10:31:51Z</time>
      </trkpt>
      <trkpt lat="41.63954" lon="-7.57239">
        <ele>351.7328</ele>
        <time>2021-07-06T10:32:02Z</time>
      </trkpt>
      <trkpt lat="41.63938" lon="-7.57104">
        <ele>347.0235</ele>
        <time>2021-07-06T10:32:13Z</time>
      </trkpt>
      <trkpt lat="41.63851" lon="-7.5699">
        <ele>340.2594</ele>
        <time>2021-07-06T10:32:24Z</time>
      </trkpt>
      <trkpt lat="41.63719" lon="-7.56907">
        <ele>340.3863</ele>
        <time>2021-07-06T10:32:35Z</time>
      </trkpt>
      <trkpt lat="41.63576" lon="-7.56979">
        <ele>347.3154</ele>
        <time>2021-07-06T10:32:46Z</time>
      </trkpt>
      <trkpt lat="41.63423" lon="-7.57022">
        <ele>352.3228</ele>
        <time>2021-07-06T10:32:57Z</time>
      </trkpt>
      <trkpt lat="41.63265" lon="-7.5703">
        <ele>354.2692</ele>
        <time>2021-07-06T10:33:08Z</time>
      </trkpt>
      <trkpt lat="41.63092" lon="-7.57003">
        <ele>359.4128</ele>
        <time>2021-07-06T10:33:19Z</time>
      </trkpt>
      <trkpt lat="41.62854" lon="-7.56913">
        <ele>362.1601</ele>
        <time>2021-07-06T10:33:30Z</time>
      </trkpt>
      <trkpt lat="41.62607" lon="-7.56863">
        <ele>369.8908</ele>
        <time>2021-07-06T10:33:41Z</time>
      </trkpt>
      <trkpt lat="41.62365" lon="-7.56959">
        <ele>376.0952</ele>
        <time>2021-07-06T10:33:52Z</time>
      </trkpt>
      <trkpt lat="41.6217" lon="-7.56918">
        <ele>381.1992</ele>
        <time>2021-07-06T10:34:03Z</time>
      </trkpt>
      <trkpt lat="41.62027" lon="-7.56834">
        <ele>387.0315</ele>
        <time>2021-07-06T10:34:14Z</time>
      </trkpt>
      <trkpt lat="41.61891" lon="-7.56751">
        <ele>387.6786</ele>
        <time>2021-07-06T10:34:25Z</time>
      </trkpt>
      <trkpt lat="41.61758" lon="-7.5672">
        <ele>395.4666</ele>
        <time>2021-07-06T10:34:36Z</time>
      </trkpt>
      <trkpt lat="41.61617" lon="-7.56816">
        <ele>402.1388</ele>
        <time>2021-07-06T10:34:47Z</time>
      </trkpt>
      <trkpt lat="41.61459" lon="-7.56854">
        <ele>407.5268</ele>
        <time>2021-07-06T10:34:58Z</time>
      </trkpt>
      <trkpt lat="41.61238" lon="-7.56894">
        <ele>418.5916</ele>
        <time>2021-07-06T10:35:09Z</time>
      </trkpt>
      <trkpt lat="41.61054" lon="-7.57035">
        <ele>430.4252</ele>
        <time>2021-07-06T10:35:20Z</time>
      </trkpt>
      <trkpt lat="41.608" lon="-7.57122">
        <ele>443.3788</ele>
        <time>2021-07-06T10:35:31Z</time>
      </trkpt>
      <trkpt lat="41.60582" lon="-7.57205">
        <ele>453.6058</ele>
        <time>2021-07-06T10:35:42Z</time>
      </trkpt>
      <trkpt lat="41.60368" lon="-7.57189">
        <ele>464.269</ele>
        <time>2021-07-06T10:35:53Z</time>
      </trkpt>
      <trkpt lat="41.60148" lon="-7.57215">
        <ele>478.4882</ele>
        <time>2021-07-06T10:36:04Z</time>
      </trkpt>
      <trkpt lat="41.5997" lon="-7.57365">
        <ele>488.1319</ele>
        <time>2021-07-06T10:36:15Z</time>
      </trkpt>
      <trkpt lat="41.59802" lon="-7.57481">
        <ele>498.6867</ele>
        <time>2021-07-06T10:36:26Z</time>
      </trkpt>
      <trkpt lat="41.5969" lon="-7.57653">
        <ele>508.8723</ele>
        <time>2021-07-06T10:36:37Z</time>
      </trkpt>
      <trkpt lat="41.59634" lon="-7.57866">
        <ele>521.2662</ele>
        <time>2021-07-06T10:36:48Z</time>
      </trkpt>
      <trkpt lat="41.59461" lon="-7.5796">
        <ele>530.8967</ele>
        <time>2021-07-06T10:36:59Z</time>
      </trkpt>
      <trkpt lat="41.59338" lon="-7.5818">
        <ele>539.0531</ele>
        <time>2021-07-06T10:37:10Z</time>
      </trkpt>
      <trkpt lat="41.59175" lon="-7.58348">
        <ele>551.7187</ele>
        <time>2021-07-06T10:37:21Z</time>
      </trkpt>
      <trkpt lat="41.59002" lon="-7.58453">
        <ele>559.0288</ele>
        <time>2021-07-06T10:37:32Z</time>
      </trkpt>
      <trkpt lat="41.58849" lon="-7.58623">
        <ele>569.7736</ele>
        <time>2021-07-06T10:37:43Z</time>
      </trkpt>
      <trkpt lat="41.58675" lon="-7.58723">
        <ele>580.9424</ele>
        <time>2021-07-06T10:37:54Z</time>
      </trkpt>
      <trkpt lat="41.58547" lon="-7.58888">
        <ele>591.7041</ele>
        <time>2021-07-06T10:38:05Z</time>
      </trkpt>
      <trkpt lat="41.58379" lon="-7.58961">
        <ele>592.5763</ele>
        <time>2021-07-06T10:38:16Z</time>
      </trkpt>
      <trkpt lat="41.58246" lon="-7.59083">
        <ele>586.0377</ele>
        <time>2021-07-06T10:38:27Z</time>
      </trkpt>
      <trkpt lat="41.58137" lon="-7.59205">
        <ele>581.2148</ele>
        <time>2021-07-06T10:38:38Z</time>
      </trkpt>
      <trkpt lat="41.58017" lon="-7.59288">
        <ele>573.0181</ele>
        <time>2021-07-06T10:38:49Z</time>
      </trkpt>
      <trkpt lat="41.57889" lon="-7.5937">
        <ele>568.6027</ele>
        <time>2021-07-06T10:39:00Z</time>
      </trkpt>
      <trkpt lat="41.57765" lon="-7.5945">
        <ele>566.5763</ele>
        <time>2021-07-06T10:39:11Z</time>
      </trkpt>
      <trkpt lat="41.57622" lon="-7.59487">
        <ele>565.1608</ele>
        <time>2021-07-06T10:39:22Z</time>
      </trkpt>
      <trkpt lat="41.5748" lon="-7.595">
        <ele>562.5386</ele>
        <time>2021-07-06T10:39:33Z</time>
      </trkpt>
      <trkpt lat="41.5733" lon="-7.59512">
        <ele>562.1368</ele>
        <time>2021-07-06T10:39:44Z</time>
      </trkpt>
      <trkpt lat="41.57206" lon="-7.59524">
        <ele>563.2719</ele>
        <time>2021-07-06T10:39:55Z</time>
      </trkpt>
      <trkpt lat="41.5709" lon="-7.59531">
        <ele>562.5363</ele>
        <time>2021-07-06T10:40:06Z</time>
      </trkpt>
      <trkpt lat="41.56932" lon="-7.59545">
        <ele>560.2485</ele>
        <time>2021-07-06T10:40:17Z</time>
      </trkpt>
      <trkpt lat="41.56755" lon="-7.59558">
        <ele>560.2825</ele>
        <time>2021-07-06T10:40:28Z</time>
      </trkpt>
      <trkpt lat="41.56561" lon="-7.59576">
        <ele>559.8138</ele>
        <time>2021-07-06T10:40:39Z</time>
      </trkpt>
      <trkpt lat="41.56343" lon="-7.59593">
        <ele>561.5752</ele>
        <time>2021-07-06T10:40:50Z</time>
      </trkpt>
      <trkpt lat="41.56138" lon="-7.59613">
        <ele>562.1736</ele>
        <time>2021-07-06T10:41:01Z</time>
      </trkpt>
      <trkpt lat="41.55935" lon="-7.59687">
        <ele>563.2806</ele>
        <time>2021-07-06T10:41:12Z</time>
      </trkpt>
      <trkpt lat="41.55665" lon="-7.59803">
        <ele>562.7162</ele>
        <time>2021-07-06T10:41:23Z</time>
      </trkpt>
      <trkpt lat="41.55447" lon="-7.59896">
        <ele>566.2753</ele>
        <time>2021-07-06T10:41:34Z</time>
      </trkpt>
      <trkpt lat="41.55236" lon="-7.59988">
        <ele>572.2959</ele>
        <time>2021-07-06T10:41:45Z</time>
      </trkpt>
      <trkpt lat="41.5506" lon="-7.60066">
        <ele>579.8161</ele>
        <time>2021-07-06T10:41:56Z</time>
      </trkpt>
      <trkpt lat="41.5495" lon="-7.60085">
        <ele>581.1136</ele>
        <time>2021-07-06T10:42:07Z</time>
      </trkpt>
      <trkpt lat="41.54899" lon="-7.60073">
        <ele>582.541</ele>
        <time>2021-07-06T10:42:18Z</time>
      </trkpt>
      <trkpt lat="41.54772" lon="-7.60045">
        <ele>581.3221</ele>
        <time>2021-07-06T10:42:29Z</time>
      </trkpt>
      <trkpt lat="41.54662" lon="-7.60039">
        <ele>580.5664</ele>
        <time>2021-07-06T10:42:40Z</time>
      </trkpt>
      <trkpt lat="41.54534" lon="-7.60027">
        <ele>581.4108</ele>
        <time>2021-07-06T10:42:51Z</time>
      </trkpt>
      <trkpt lat="41.54412" lon="-7.60158">
        <ele>579.6656</ele>
        <time>2021-07-06T10:43:02Z</time>
      </trkpt>
      <trkpt lat="41.54295" lon="-7.60279">
        <ele>583.7988</ele>
        <time>2021-07-06T10:43:13Z</time>
      </trkpt>
      <trkpt lat="41.54199" lon="-7.60352">
        <ele>589.2045</ele>
        <time>2021-07-06T10:43:24Z</time>
      </trkpt>
      <trkpt lat="41.54104" lon="-7.60416">
        <ele>593.5249</ele>
        <time>2021-07-06T10:43:35Z</time>
      </trkpt>
      <trkpt lat="41.53998" lon="-7.60504">
        <ele>592.4558</ele>
        <time>2021-07-06T10:43:46Z</time>
      </trkpt>
      <trkpt lat="41.53875" lon="-7.60617">
        <ele>596.432</ele>
        <time>2021-07-06T10:43:57Z</time>
      </trkpt>
      <trkpt lat="41.53733" lon="-7.60734">
        <ele>601.4422</ele>
        <time>2021-07-06T10:44:08Z</time>
      </trkpt>
      <trkpt lat="41.5357" lon="-7.60811">
        <ele>605.0228</ele>
        <time>2021-07-06T10:44:19Z</time>
      </trkpt>
      <trkpt lat="41.53422" lon="-7.60873">
        <ele>608.7643</ele>
        <time>2021-07-06T10:44:30Z</time>
      </trkpt>
      <trkpt lat="41.53343" lon="-7.6101">
        <ele>616.5361</ele>
        <time>2021-07-06T10:44:41Z</time>
      </trkpt>
      <trkpt lat="41.53214" lon="-7.61071">
        <ele>621.0594</ele>
        <time>2021-07-06T10:44:52Z</time>
      </trkpt>
      <trkpt lat="41.53078" lon="-7.61106">
        <ele>626.7451</ele>
        <time>2021-07-06T10:45:03Z</time>
      </trkpt>
      <trkpt lat="41.52988" lon="-7.61254">
        <ele>632.1447</ele>
        <time>2021-07-06T10:45:14Z</time>
      </trkpt>
      <trkpt lat="41.52855" lon="-7.61266">
        <ele>634.8328</ele>
        <time>2021-07-06T10:45:25Z</time>
      </trkpt>
      <trkpt lat="41.52708" lon="-7.6122">
        <ele>636.5577</ele>
        <time>2021-07-06T10:45:36Z</time>
      </trkpt>
      <trkpt lat="41.52595" lon="-7.61317">
        <ele>643.3774</ele>
        <time>2021-07-06T10:45:47Z</time>
      </trkpt>
      <trkpt lat="41.52483" lon="-7.61471">
        <ele>648.9987</ele>
        <time>2021-07-06T10:45:58Z</time>
      </trkpt>
      <trkpt lat="41.52359" lon="-7.61603">
        <ele>650.112</ele>
        <time>2021-07-06T10:46:09Z</time>
      </trkpt>
      <trkpt lat="41.5221" lon="-7.61636">
        <ele>656.455</ele>
        <time>2021-07-06T10:46:20Z</time>
      </trkpt>
      <trkpt lat="41.52084" lon="-7.61734">
        <ele>665.0317</ele>
        <time>2021-07-06T10:46:31Z</time>
      </trkpt>
      <trkpt lat="41.51965" lon="-7.61864">
        <ele>665.1698</ele>
        <time>2021-07-06T10:46:42Z</time>
      </trkpt>
      <trkpt lat="41.5183" lon="-7.6192">
        <ele>669.9648</ele>
        <time>2021-07-06T10:46:53Z</time>
      </trkpt>
      <trkpt lat="41.5171" lon="-7.62008">
        <ele>674.7001</ele>
        <time>2021-07-06T10:47:04Z</time>
      </trkpt>
      <trkpt lat="41.51609" lon="-7.6213">
        <ele>680.6044</ele>
        <time>2021-07-06T10:47:15Z</time>
      </trkpt>
      <trkpt lat="41.51506" lon="-7.6226">
        <ele>683.6241</ele>
        <time>2021-07-06T10:47:26Z</time>
      </trkpt>
      <trkpt lat="41.51432" lon="-7.62393">
        <ele>687.2347</ele>
        <time>2021-07-06T10:47:37Z</time>
      </trkpt>
      <trkpt lat="41.51317" lon="-7.62482">
        <ele>689.4932</ele>
        <time>2021-07-06T10:47:48Z</time>
      </trkpt>
      <trkpt lat="41.51198" lon="-7.62575">
        <ele>693.8162</ele>
        <time>2021-07-06T10:47:59Z</time>
      </trkpt>
      <trkpt lat="41.51108" lon="-7.62704">
        <ele>698.3584</ele>
        <time>2021-07-06T10:48:10Z</time>
      </trkpt>
      <trkpt lat="41.51002" lon="-7.62851">
        <ele>700.542</ele>
        <time>2021-07-06T10:48:21Z</time>
      </trkpt>
      <trkpt lat="41.50918" lon="-7.63012">
        <ele>705.3492</ele>
        <time>2021-07-06T10:48:32Z</time>
      </trkpt>
      <trkpt lat="41.50802" lon="-7.63126">
        <ele>709.1836</ele>
        <time>2021-07-06T10:48:43Z</time>
      </trkpt>
      <trkpt lat="41.50667" lon="-7.63221">
        <ele>710.8858</ele>
        <time>2021-07-06T10:48:54Z</time>
      </trkpt>
      <trkpt lat="41.50554" lon="-7.63377">
        <ele>715.1684</ele>
        <time>2021-07-06T10:49:05Z</time>
      </trkpt>
      <trkpt lat="41.50488" lon="-7.63539">
        <ele>717.8095</ele>
        <time>2021-07-06T10:49:16Z</time>
      </trkpt>
      <trkpt lat="41.50403" lon="-7.63672">
        <ele>720.3884</ele>
        <time>2021-07-06T10:49:27Z</time>
      </trkpt>
      <trkpt lat="41.50306" lon="-7.63781">
        <ele>724.2128</ele>
        <time>2021-07-06T10:49:38Z</time>
      </trkpt>
      <trkpt lat="41.50221" lon="-7.63886">
        <ele>726.6517</ele>
        <time>2021-07-06T10:49:49Z</time>
      </trkpt>
      <trkpt lat="41.50202" lon="-7.63962">
        <ele>728.4634</ele>
        <time>2021-07-06T10:50:00Z</time>
      </trkpt>
      <trkpt lat="41.50152" lon="-7.63979">
        <ele>731.7426</ele>
        <time>2021-07-06T10:50:11Z</time>
      </trkpt>
      <trkpt lat="41.5013" lon="-7.64079">
        <ele>735.7767</ele>
        <time>2021-07-06T10:50:22Z</time>
      </trkpt>
      <trkpt lat="41.50037" lon="-7.64096">
        <ele>738.5273</ele>
        <time>2021-07-06T10:50:33Z</time>
      </trkpt>
      <trkpt lat="41.49919" lon="-7.64086">
        <ele>744.1695</ele>
        <time>2021-07-06T10:50:44Z</time>
      </trkpt>
      <trkpt lat="41.49796" lon="-7.64162">
        <ele>739.1072</ele>
        <time>2021-07-06T10:50:55Z</time>
      </trkpt>
      <trkpt lat="41.49653" lon="-7.64249">
        <ele>734.7901</ele>
        <time>2021-07-06T10:51:06Z</time>
      </trkpt>
      <trkpt lat="41.49525" lon="-7.64355">
        <ele>723.8602</ele>
        <time>2021-07-06T10:51:17Z</time>
      </trkpt>
      <trkpt lat="41.49413" lon="-7.64452">
        <ele>720.0767</ele>
        <time>2021-07-06T10:51:28Z</time>
      </trkpt>
      <trkpt lat="41.49338" lon="-7.64486">
        <ele>720.1101</ele>
        <time>2021-07-06T10:51:39Z</time>
      </trkpt>
      <trkpt lat="41.49238" lon="-7.6457">
        <ele>720.4979</ele>
        <time>2021-07-06T10:51:50Z</time>
      </trkpt>
      <trkpt lat="41.4912" lon="-7.64615">
        <ele>721.1841</ele>
        <time>2021-07-06T10:52:01Z</time>
      </trkpt>
      <trkpt lat="41.49032" lon="-7.6477">
        <ele>713.2705</ele>
        <time>2021-07-06T10:52:12Z</time>
      </trkpt>
      <trkpt lat="41.49015" lon="-7.64895">
        <ele>711.3422</ele>
        <time>2021-07-06T10:52:23Z</time>
      </trkpt>
      <trkpt lat="41.48901" lon="-7.6495">
        <ele>712.3927</ele>
        <time>2021-07-06T10:52:34Z</time>
      </trkpt>
      <trkpt lat="41.48751" lon="-7.65048">
        <ele>712.5585</ele>
        <time>2021-07-06T10:52:45Z</time>
      </trkpt>
      <trkpt lat="41.48579" lon="-7.6516">
        <ele>706.8521</ele>
        <time>2021-07-06T10:52:56Z</time>
      </trkpt>
      <trkpt lat="41.48357" lon="-7.65312">
        <ele>699.0548</ele>
        <time>2021-07-06T10:53:07Z</time>
      </trkpt>
      <trkpt lat="41.48165" lon="-7.65443">
        <ele>699.7067</ele>
        <time>2021-07-06T10:53:18Z</time>
      </trkpt>
      <trkpt lat="41.47996" lon="-7.65559">
        <ele>701.4712</ele>
        <time>2021-07-06T10:53:29Z</time>
      </trkpt>
      <trkpt lat="41.47814" lon="-7.65695">
        <ele>695.2578</ele>
        <time>2021-07-06T10:53:40Z</time>
      </trkpt>
      <trkpt lat="41.47607" lon="-7.65849">
        <ele>687.5017</ele>
        <time>2021-07-06T10:53:51Z</time>
      </trkpt>
      <trkpt lat="41.47401" lon="-7.66005">
        <ele>686.7931</ele>
        <time>2021-07-06T10:54:02Z</time>
      </trkpt>
      <trkpt lat="41.47213" lon="-7.66146">
        <ele>687.7694</ele>
        <time>2021-07-06T10:54:13Z</time>
      </trkpt>
      <trkpt lat="41.47013" lon="-7.66299">
        <ele>686.5182</ele>
        <time>2021-07-06T10:54:24Z</time>
      </trkpt>
      <trkpt lat="41.46797" lon="-7.66459">
        <ele>680.8704</ele>
        <time>2021-07-06T10:54:35Z</time>
      </trkpt>
      <trkpt lat="41.46561" lon="-7.66536">
        <ele>681.73</ele>
        <time>2021-07-06T10:54:46Z</time>
      </trkpt>
      <trkpt lat="41.46307" lon="-7.66522">
        <ele>677.5438</ele>
        <time>2021-07-06T10:54:57Z</time>
      </trkpt>
      <trkpt lat="41.46054" lon="-7.6651">
        <ele>675.2399</ele>
        <time>2021-07-06T10:55:08Z</time>
      </trkpt>
      <trkpt lat="41.4581" lon="-7.66571">
        <ele>675.1725</ele>
        <time>2021-07-06T10:55:19Z</time>
      </trkpt>
      <trkpt lat="41.45573" lon="-7.66701">
        <ele>674.3186</ele>
        <time>2021-07-06T10:55:30Z</time>
      </trkpt>
      <trkpt lat="41.45333" lon="-7.66831">
        <ele>676.2247</ele>
        <time>2021-07-06T10:55:41Z</time>
      </trkpt>
      <trkpt lat="41.45132" lon="-7.6694">
        <ele>675.5888</ele>
        <time>2021-07-06T10:55:52Z</time>
      </trkpt>
      <trkpt lat="41.44999" lon="-7.67013">
        <ele>674.9677</ele>
        <time>2021-07-06T10:56:03Z</time>
      </trkpt>
      <trkpt lat="41.44821" lon="-7.67106">
        <ele>675.0874</ele>
        <time>2021-07-06T10:56:14Z</time>
      </trkpt>
      <trkpt lat="41.44589" lon="-7.67228">
        <ele>673.0087</ele>
        <time>2021-07-06T10:56:25Z</time>
      </trkpt>
      <trkpt lat="41.44326" lon="-7.67372">
        <ele>670.4168</ele>
        <time>2021-07-06T10:56:36Z</time>
      </trkpt>
      <trkpt lat="41.44087" lon="-7.67502">
        <ele>671.5029</ele>
        <time>2021-07-06T10:56:47Z</time>
      </trkpt>
      <trkpt lat="41.43852" lon="-7.67627">
        <ele>673.7975</ele>
        <time>2021-07-06T10:56:58Z</time>
      </trkpt>
      <trkpt lat="41.43651" lon="-7.67735">
        <ele>668.2906</ele>
        <time>2021-07-06T10:57:09Z</time>
      </trkpt>
      <trkpt lat="41.435" lon="-7.67817">
        <ele>667.1113</ele>
        <time>2021-07-06T10:57:20Z</time>
      </trkpt>
      <trkpt lat="41.43347" lon="-7.67899">
        <ele>668.0636</ele>
        <time>2021-07-06T10:57:31Z</time>
      </trkpt>
      <trkpt lat="41.43204" lon="-7.67978">
        <ele>673.0662</ele>
        <time>2021-07-06T10:57:42Z</time>
      </trkpt>
      <trkpt lat="41.43052" lon="-7.6806">
        <ele>675.2205</ele>
        <time>2021-07-06T10:57:53Z</time>
      </trkpt>
      <trkpt lat="41.4289" lon="-7.68147">
        <ele>674.0562</ele>
        <time>2021-07-06T10:58:04Z</time>
      </trkpt>
      <trkpt lat="41.42744" lon="-7.68266">
        <ele>674.8088</ele>
        <time>2021-07-06T10:58:15Z</time>
      </trkpt>
      <trkpt lat="41.42623" lon="-7.68398">
        <ele>673.6354</ele>
        <time>2021-07-06T10:58:26Z</time>
      </trkpt>
      <trkpt lat="41.42446" lon="-7.68525">
        <ele>673.1684</ele>
        <time>2021-07-06T10:58:37Z</time>
      </trkpt>
      <trkpt lat="41.4228" lon="-7.68561">
        <ele>679.5272</ele>
        <time>2021-07-06T10:58:48Z</time>
      </trkpt>
      <trkpt lat="41.4211" lon="-7.68551">
        <ele>677.0102</ele>
        <time>2021-07-06T10:58:59Z</time>
      </trkpt>
      <trkpt lat="41.41909" lon="-7.68505">
        <ele>682.7448</ele>
        <time>2021-07-06T10:59:10Z</time>
      </trkpt>
      <trkpt lat="41.41756" lon="-7.68614">
        <ele>691.1529</ele>
        <time>2021-07-06T10:59:21Z</time>
      </trkpt>
      <trkpt lat="41.41616" lon="-7.68714">
        <ele>693.8509</ele>
        <time>2021-07-06T10:59:32Z</time>
      </trkpt>
      <trkpt lat="41.41414" lon="-7.68655">
        <ele>704.8173</ele>
        <time>2021-07-06T10:59:43Z</time>
      </trkpt>
      <trkpt lat="41.41236" lon="-7.68743">
        <ele>717.2884</ele>
        <time>2021-07-06T10:59:54Z</time>
      </trkpt>
      <trkpt lat="41.41095" lon="-7.68834">
        <ele>724.267</ele>
        <time>2021-07-06T11:00:05Z</time>
      </trkpt>
      <trkpt lat="41.40964" lon="-7.68984">
        <ele>724.1963</ele>
        <time>2021-07-06T11:00:16Z</time>
      </trkpt>
      <trkpt lat="41.40806" lon="-7.69132">
        <ele>720.6698</ele>
        <time>2021-07-06T11:00:27Z</time>
      </trkpt>
      <trkpt lat="41.40645" lon="-7.69347">
        <ele>731.2995</ele>
        <time>2021-07-06T11:00:38Z</time>
      </trkpt>
      <trkpt lat="41.40469" lon="-7.69602">
        <ele>743.2565</ele>
        <time>2021-07-06T11:00:49Z</time>
      </trkpt>
      <trkpt lat="41.40248" lon="-7.69842">
        <ele>757.2265</ele>
        <time>2021-07-06T11:01:00Z</time>
      </trkpt>
      <trkpt lat="41.40034" lon="-7.69973">
        <ele>766.6231</ele>
        <time>2021-07-06T11:01:11Z</time>
      </trkpt>
      <trkpt lat="41.39825" lon="-7.70134">
        <ele>779.7616</ele>
        <time>2021-07-06T11:01:22Z</time>
      </trkpt>
      <trkpt lat="41.39563" lon="-7.70131">
        <ele>777.0359</ele>
        <time>2021-07-06T11:01:33Z</time>
      </trkpt>
      <trkpt lat="41.39346" lon="-7.70094">
        <ele>764.4565</ele>
        <time>2021-07-06T11:01:44Z</time>
      </trkpt>
      <trkpt lat="41.39184" lon="-7.70036">
        <ele>756.6133</ele>
        <time>2021-07-06T11:01:55Z</time>
      </trkpt>
      <trkpt lat="41.39106" lon="-7.70077">
        <ele>750.7201</ele>
        <time>2021-07-06T11:02:06Z</time>
      </trkpt>
      <trkpt lat="41.39098" lon="-7.70087">
        <ele>750.5899</ele>
        <time>2021-07-06T11:02:17Z</time>
      </trkpt>
      <trkpt lat="41.39102" lon="-7.70088">
        <ele>750.7943</ele>
        <time>2021-07-06T11:02:39Z</time>
      </trkpt>
      <trkpt lat="41.39105" lon="-7.70086">
        <ele>750.372</ele>
        <time>2021-07-06T11:02:57Z</time>
      </trkpt>
      <trkpt lat="41.39101" lon="-7.70086">
        <ele>753.9661</ele>
        <time>2021-07-06T11:03:17Z</time>
      </trkpt>
      <trkpt lat="41.39098" lon="-7.70088">
        <ele>753.5339</ele>
        <time>2021-07-06T11:03:29Z</time>
      </trkpt>
      <trkpt lat="41.39101" lon="-7.70086">
        <ele>752.7569</ele>
        <time>2021-07-06T11:04:27Z</time>
      </trkpt>
      <trkpt lat="41.391" lon="-7.70086">
        <ele>754.4697</ele>
        <time>2021-07-06T11:05:26Z</time>
      </trkpt>
      <trkpt lat="41.39099" lon="-7.70088">
        <ele>753.5037</ele>
        <time>2021-07-06T11:06:25Z</time>
      </trkpt>
      <trkpt lat="41.39098" lon="-7.70085">
        <ele>751.9952</ele>
        <time>2021-07-06T11:07:24Z</time>
      </trkpt>
      <trkpt lat="41.39099" lon="-7.70087">
        <ele>752.3203</ele>
        <time>2021-07-06T11:08:23Z</time>
      </trkpt>
      <trkpt lat="41.39096" lon="-7.70089">
        <ele>752.2809</ele>
        <time>2021-07-06T11:09:16Z</time>
      </trkpt>
      <trkpt lat="41.39086" lon="-7.70116">
        <ele>750.7729</ele>
        <time>2021-07-06T11:09:22Z</time>
      </trkpt>
      <trkpt lat="41.39028" lon="-7.70181">
        <ele>746.3786</ele>
        <time>2021-07-06T11:09:28Z</time>
      </trkpt>
      <trkpt lat="41.3895" lon="-7.70262">
        <ele>740.8778</ele>
        <time>2021-07-06T11:09:34Z</time>
      </trkpt>
      <trkpt lat="41.38867" lon="-7.70341">
        <ele>737.1239</ele>
        <time>2021-07-06T11:09:40Z</time>
      </trkpt>
      <trkpt lat="41.38783" lon="-7.70405">
        <ele>731.715</ele>
        <time>2021-07-06T11:09:46Z</time>
      </trkpt>
      <trkpt lat="41.38689" lon="-7.70464">
        <ele>726.5242</ele>
        <time>2021-07-06T11:09:52Z</time>
      </trkpt>
      <trkpt lat="41.3861" lon="-7.70552">
        <ele>720.5107</ele>
        <time>2021-07-06T11:09:58Z</time>
      </trkpt>
      <trkpt lat="41.38542" lon="-7.70657">
        <ele>716.8956</ele>
        <time>2021-07-06T11:10:04Z</time>
      </trkpt>
      <trkpt lat="41.38448" lon="-7.70729">
        <ele>709.9072</ele>
        <time>2021-07-06T11:10:10Z</time>
      </trkpt>
      <trkpt lat="41.38359" lon="-7.70797">
        <ele>703.5918</ele>
        <time>2021-07-06T11:10:16Z</time>
      </trkpt>
      <trkpt lat="41.38254" lon="-7.70935">
        <ele>693.2228</ele>
        <time>2021-07-06T11:10:27Z</time>
      </trkpt>
      <trkpt lat="41.38257" lon="-7.71172">
        <ele>682.9394</ele>
        <time>2021-07-06T11:10:38Z</time>
      </trkpt>
      <trkpt lat="41.38083" lon="-7.71283">
        <ele>674.6758</ele>
        <time>2021-07-06T11:10:49Z</time>
      </trkpt>
      <trkpt lat="41.37975" lon="-7.7138">
        <ele>671.208</ele>
        <time>2021-07-06T11:11:00Z</time>
      </trkpt>
      <trkpt lat="41.3798" lon="-7.71613">
        <ele>667.5556</ele>
        <time>2021-07-06T11:11:11Z</time>
      </trkpt>
      <trkpt lat="41.37854" lon="-7.71718">
        <ele>660.9359</ele>
        <time>2021-07-06T11:11:22Z</time>
      </trkpt>
      <trkpt lat="41.3767" lon="-7.71774">
        <ele>650.9718</ele>
        <time>2021-07-06T11:11:33Z</time>
      </trkpt>
      <trkpt lat="41.37553" lon="-7.7183">
        <ele>649.1338</ele>
        <time>2021-07-06T11:11:44Z</time>
      </trkpt>
      <trkpt lat="41.37444" lon="-7.71667">
        <ele>651.7602</ele>
        <time>2021-07-06T11:11:55Z</time>
      </trkpt>
      <trkpt lat="41.37272" lon="-7.71653">
        <ele>642.7595</ele>
        <time>2021-07-06T11:12:06Z</time>
      </trkpt>
      <trkpt lat="41.37124" lon="-7.71799">
        <ele>635.8851</ele>
        <time>2021-07-06T11:12:17Z</time>
      </trkpt>
      <trkpt lat="41.3702" lon="-7.71988">
        <ele>627.843</ele>
        <time>2021-07-06T11:12:28Z</time>
      </trkpt>
      <trkpt lat="41.36935" lon="-7.72158">
        <ele>621.9121</ele>
        <time>2021-07-06T11:12:39Z</time>
      </trkpt>
      <trkpt lat="41.36861" lon="-7.72261">
        <ele>614.2814</ele>
        <time>2021-07-06T11:12:50Z</time>
      </trkpt>
      <trkpt lat="41.36684" lon="-7.7244">
        <ele>601.7636</ele>
        <time>2021-07-06T11:13:01Z</time>
      </trkpt>
      <trkpt lat="41.36662" lon="-7.72667">
        <ele>593.4189</ele>
        <time>2021-07-06T11:13:12Z</time>
      </trkpt>
      <trkpt lat="41.36526" lon="-7.72588">
        <ele>588.8809</ele>
        <time>2021-07-06T11:13:23Z</time>
      </trkpt>
      <trkpt lat="41.36492" lon="-7.72388">
        <ele>583.5463</ele>
        <time>2021-07-06T11:13:34Z</time>
      </trkpt>
      <trkpt lat="41.36503" lon="-7.72127">
        <ele>580.1372</ele>
        <time>2021-07-06T11:13:45Z</time>
      </trkpt>
      <trkpt lat="41.36509" lon="-7.71913">
        <ele>581.784</ele>
        <time>2021-07-06T11:13:56Z</time>
      </trkpt>
      <trkpt lat="41.36313" lon="-7.71839">
        <ele>579.2485</ele>
        <time>2021-07-06T11:14:07Z</time>
      </trkpt>
      <trkpt lat="41.36167" lon="-7.71873">
        <ele>583.1626</ele>
        <time>2021-07-06T11:14:18Z</time>
      </trkpt>
      <trkpt lat="41.3603" lon="-7.71949">
        <ele>581.5668</ele>
        <time>2021-07-06T11:14:29Z</time>
      </trkpt>
      <trkpt lat="41.35876" lon="-7.71987">
        <ele>578.8822</ele>
        <time>2021-07-06T11:14:40Z</time>
      </trkpt>
      <trkpt lat="41.35715" lon="-7.7202">
        <ele>573.2266</ele>
        <time>2021-07-06T11:14:51Z</time>
      </trkpt>
      <trkpt lat="41.35587" lon="-7.72086">
        <ele>573.0521</ele>
        <time>2021-07-06T11:15:02Z</time>
      </trkpt>
      <trkpt lat="41.3548" lon="-7.72232">
        <ele>573.3781</ele>
        <time>2021-07-06T11:15:13Z</time>
      </trkpt>
      <trkpt lat="41.35391" lon="-7.72222">
        <ele>579.2804</ele>
        <time>2021-07-06T11:15:24Z</time>
      </trkpt>
      <trkpt lat="41.35265" lon="-7.72161">
        <ele>581.9823</ele>
        <time>2021-07-06T11:15:35Z</time>
      </trkpt>
      <trkpt lat="41.35054" lon="-7.72181">
        <ele>582.8009</ele>
        <time>2021-07-06T11:15:46Z</time>
      </trkpt>
      <trkpt lat="41.34874" lon="-7.72138">
        <ele>583.2487</ele>
        <time>2021-07-06T11:15:57Z</time>
      </trkpt>
      <trkpt lat="41.34722" lon="-7.72238">
        <ele>583.3619</ele>
        <time>2021-07-06T11:16:08Z</time>
      </trkpt>
      <trkpt lat="41.34563" lon="-7.72268">
        <ele>583.2142</ele>
        <time>2021-07-06T11:16:19Z</time>
      </trkpt>
      <trkpt lat="41.34389" lon="-7.72275">
        <ele>578.7933</ele>
        <time>2021-07-06T11:16:30Z</time>
      </trkpt>
      <trkpt lat="41.34219" lon="-7.7228">
        <ele>574.3931</ele>
        <time>2021-07-06T11:16:41Z</time>
      </trkpt>
      <trkpt lat="41.34096" lon="-7.72363">
        <ele>575.9268</ele>
        <time>2021-07-06T11:16:52Z</time>
      </trkpt>
      <trkpt lat="41.34007" lon="-7.72543">
        <ele>568.3968</ele>
        <time>2021-07-06T11:17:03Z</time>
      </trkpt>
      <trkpt lat="41.33901" lon="-7.72744">
        <ele>557.5041</ele>
        <time>2021-07-06T11:17:14Z</time>
      </trkpt>
      <trkpt lat="41.33717" lon="-7.72716">
        <ele>549.595</ele>
        <time>2021-07-06T11:17:25Z</time>
      </trkpt>
      <trkpt lat="41.33586" lon="-7.72774">
        <ele>541.896</ele>
        <time>2021-07-06T11:17:36Z</time>
      </trkpt>
      <trkpt lat="41.3344" lon="-7.72871">
        <ele>531.9497</ele>
        <time>2021-07-06T11:17:47Z</time>
      </trkpt>
      <trkpt lat="41.3328" lon="-7.72953">
        <ele>523.534</ele>
        <time>2021-07-06T11:17:58Z</time>
      </trkpt>
      <trkpt lat="41.33116" lon="-7.72987">
        <ele>517.1488</ele>
        <time>2021-07-06T11:18:09Z</time>
      </trkpt>
      <trkpt lat="41.33007" lon="-7.7291">
        <ele>513.5185</ele>
        <time>2021-07-06T11:18:20Z</time>
      </trkpt>
      <trkpt lat="41.32912" lon="-7.73039">
        <ele>508.6865</ele>
        <time>2021-07-06T11:18:31Z</time>
      </trkpt>
      <trkpt lat="41.3285" lon="-7.72851">
        <ele>502.8406</ele>
        <time>2021-07-06T11:18:42Z</time>
      </trkpt>
      <trkpt lat="41.32744" lon="-7.72768">
        <ele>499.2338</ele>
        <time>2021-07-06T11:18:53Z</time>
      </trkpt>
      <trkpt lat="41.32575" lon="-7.72816">
        <ele>494.3825</ele>
        <time>2021-07-06T11:19:04Z</time>
      </trkpt>
      <trkpt lat="41.32415" lon="-7.72935">
        <ele>494.6529</ele>
        <time>2021-07-06T11:19:15Z</time>
      </trkpt>
      <trkpt lat="41.3227" lon="-7.73041">
        <ele>492.6104</ele>
        <time>2021-07-06T11:19:26Z</time>
      </trkpt>
      <trkpt lat="41.32135" lon="-7.73169">
        <ele>490.3173</ele>
        <time>2021-07-06T11:19:37Z</time>
      </trkpt>
      <trkpt lat="41.3197" lon="-7.73217">
        <ele>487.0081</ele>
        <time>2021-07-06T11:19:48Z</time>
      </trkpt>
      <trkpt lat="41.31793" lon="-7.73263">
        <ele>481.0434</ele>
        <time>2021-07-06T11:19:59Z</time>
      </trkpt>
      <trkpt lat="41.31632" lon="-7.73263">
        <ele>471.5115</ele>
        <time>2021-07-06T11:20:10Z</time>
      </trkpt>
      <trkpt lat="41.31567" lon="-7.7328">
        <ele>468.553</ele>
        <time>2021-07-06T11:20:21Z</time>
      </trkpt>
      <trkpt lat="41.31466" lon="-7.73329">
        <ele>465.2901</ele>
        <time>2021-07-06T11:20:32Z</time>
      </trkpt>
      <trkpt lat="41.31387" lon="-7.73363">
        <ele>462.2955</ele>
        <time>2021-07-06T11:20:43Z</time>
      </trkpt>
      <trkpt lat="41.31381" lon="-7.73369">
        <ele>461.5214</ele>
        <time>2021-07-06T11:20:54Z</time>
      </trkpt>
      <trkpt lat="41.31377" lon="-7.73372">
        <ele>462.1642</ele>
        <time>2021-07-06T11:21:23Z</time>
      </trkpt>
      <trkpt lat="41.31327" lon="-7.73383">
        <ele>458.9469</ele>
        <time>2021-07-06T11:21:34Z</time>
      </trkpt>
      <trkpt lat="41.31366" lon="-7.73354">
        <ele>460.7973</ele>
        <time>2021-07-06T11:21:45Z</time>
      </trkpt>
      <trkpt lat="41.31456" lon="-7.73317">
        <ele>461.9016</ele>
        <time>2021-07-06T11:21:56Z</time>
      </trkpt>
      <trkpt lat="41.31507" lon="-7.73491">
        <ele>456.0354</ele>
        <time>2021-07-06T11:22:07Z</time>
      </trkpt>
      <trkpt lat="41.31475" lon="-7.73752">
        <ele>446.725</ele>
        <time>2021-07-06T11:22:18Z</time>
      </trkpt>
      <trkpt lat="41.3137" lon="-7.74053">
        <ele>439.6034</ele>
        <time>2021-07-06T11:22:29Z</time>
      </trkpt>
      <trkpt lat="41.31264" lon="-7.74329">
        <ele>433.9529</ele>
        <time>2021-07-06T11:22:40Z</time>
      </trkpt>
      <trkpt lat="41.31195" lon="-7.74625">
        <ele>421.2015</ele>
        <time>2021-07-06T11:22:51Z</time>
      </trkpt>
      <trkpt lat="41.31046" lon="-7.74858">
        <ele>407.812</ele>
        <time>2021-07-06T11:23:02Z</time>
      </trkpt>
      <trkpt lat="41.30854" lon="-7.75032">
        <ele>399.1614</ele>
        <time>2021-07-06T11:23:13Z</time>
      </trkpt>
      <trkpt lat="41.30637" lon="-7.75096">
        <ele>400.1807</ele>
        <time>2021-07-06T11:23:24Z</time>
      </trkpt>
      <trkpt lat="41.30422" lon="-7.75136">
        <ele>395.5535</ele>
        <time>2021-07-06T11:23:35Z</time>
      </trkpt>
      <trkpt lat="41.30212" lon="-7.75258">
        <ele>393.1489</ele>
        <time>2021-07-06T11:23:46Z</time>
      </trkpt>
      <trkpt lat="41.2999" lon="-7.7537">
        <ele>387.3064</ele>
        <time>2021-07-06T11:23:57Z</time>
      </trkpt>
      <trkpt lat="41.29785" lon="-7.75544">
        <ele>376.0009</ele>
        <time>2021-07-06T11:24:08Z</time>
      </trkpt>
      <trkpt lat="41.29559" lon="-7.75575">
        <ele>368.0659</ele>
        <time>2021-07-06T11:24:19Z</time>
      </trkpt>
      <trkpt lat="41.29335" lon="-7.75542">
        <ele>372.5366</ele>
        <time>2021-07-06T11:24:30Z</time>
      </trkpt>
      <trkpt lat="41.29119" lon="-7.75656">
        <ele>384.1432</ele>
        <time>2021-07-06T11:24:41Z</time>
      </trkpt>
      <trkpt lat="41.28892" lon="-7.75772">
        <ele>400.0877</ele>
        <time>2021-07-06T11:24:52Z</time>
      </trkpt>
      <trkpt lat="41.2866" lon="-7.75868">
        <ele>413.4454</ele>
        <time>2021-07-06T11:25:03Z</time>
      </trkpt>
      <trkpt lat="41.2845" lon="-7.75942">
        <ele>420.1681</ele>
        <time>2021-07-06T11:25:14Z</time>
      </trkpt>
      <trkpt lat="41.28333" lon="-7.76186">
        <ele>435.4049</ele>
        <time>2021-07-06T11:25:25Z</time>
      </trkpt>
      <trkpt lat="41.28283" lon="-7.76496">
        <ele>450.4025</ele>
        <time>2021-07-06T11:25:36Z</time>
      </trkpt>
      <trkpt lat="41.28086" lon="-7.76738">
        <ele>468.7031</ele>
        <time>2021-07-06T11:25:47Z</time>
      </trkpt>
      <trkpt lat="41.27904" lon="-7.76936">
        <ele>482.6049</ele>
        <time>2021-07-06T11:25:58Z</time>
      </trkpt>
      <trkpt lat="41.27764" lon="-7.77197">
        <ele>498.7228</ele>
        <time>2021-07-06T11:26:09Z</time>
      </trkpt>
      <trkpt lat="41.27632" lon="-7.77462">
        <ele>515.6576</ele>
        <time>2021-07-06T11:26:20Z</time>
      </trkpt>
      <trkpt lat="41.27594" lon="-7.77747">
        <ele>527.3222</ele>
        <time>2021-07-06T11:26:31Z</time>
      </trkpt>
      <trkpt lat="41.27548" lon="-7.78057">
        <ele>535.8151</ele>
        <time>2021-07-06T11:26:42Z</time>
      </trkpt>
      <trkpt lat="41.27535" lon="-7.78385">
        <ele>543.0949</ele>
        <time>2021-07-06T11:26:53Z</time>
      </trkpt>
      <trkpt lat="41.27451" lon="-7.78685">
        <ele>546.6835</ele>
        <time>2021-07-06T11:27:04Z</time>
      </trkpt>
      <trkpt lat="41.27322" lon="-7.78943">
        <ele>551.4224</ele>
        <time>2021-07-06T11:27:15Z</time>
      </trkpt>
      <trkpt lat="41.27385" lon="-7.79231">
        <ele>564.8163</ele>
        <time>2021-07-06T11:27:26Z</time>
      </trkpt>
      <trkpt lat="41.27613" lon="-7.79364">
        <ele>584.4678</ele>
        <time>2021-07-06T11:27:37Z</time>
      </trkpt>
      <trkpt lat="41.27775" lon="-7.7964">
        <ele>600.5328</ele>
        <time>2021-07-06T11:27:48Z</time>
      </trkpt>
      <trkpt lat="41.27999" lon="-7.79802">
        <ele>615.8393</ele>
        <time>2021-07-06T11:27:59Z</time>
      </trkpt>
      <trkpt lat="41.28164" lon="-7.80066">
        <ele>625.4556</ele>
        <time>2021-07-06T11:28:10Z</time>
      </trkpt>
      <trkpt lat="41.28311" lon="-7.80335">
        <ele>636.0819</ele>
        <time>2021-07-06T11:28:21Z</time>
      </trkpt>
      <trkpt lat="41.28456" lon="-7.80605">
        <ele>650.6488</ele>
        <time>2021-07-06T11:28:32Z</time>
      </trkpt>
      <trkpt lat="41.28549" lon="-7.80893">
        <ele>664.5263</ele>
        <time>2021-07-06T11:28:43Z</time>
      </trkpt>
      <trkpt lat="41.28527" lon="-7.81238">
        <ele>677.5095</ele>
        <time>2021-07-06T11:28:54Z</time>
      </trkpt>
      <trkpt lat="41.28463" lon="-7.81575">
        <ele>687.3721</ele>
        <time>2021-07-06T11:29:05Z</time>
      </trkpt>
      <trkpt lat="41.28476" lon="-7.81911">
        <ele>697.4822</ele>
        <time>2021-07-06T11:29:16Z</time>
      </trkpt>
      <trkpt lat="41.28389" lon="-7.82233">
        <ele>696.8839</ele>
        <time>2021-07-06T11:29:27Z</time>
      </trkpt>
      <trkpt lat="41.2841" lon="-7.82582">
        <ele>686.7035</ele>
        <time>2021-07-06T11:29:38Z</time>
      </trkpt>
      <trkpt lat="41.28497" lon="-7.8295">
        <ele>689.2109</ele>
        <time>2021-07-06T11:29:49Z</time>
      </trkpt>
      <trkpt lat="41.28409" lon="-7.83262">
        <ele>691.6654</ele>
        <time>2021-07-06T11:30:00Z</time>
      </trkpt>
      <trkpt lat="41.28336" lon="-7.83599">
        <ele>693.9341</ele>
        <time>2021-07-06T11:30:11Z</time>
      </trkpt>
      <trkpt lat="41.2827" lon="-7.83935">
        <ele>706.9821</ele>
        <time>2021-07-06T11:30:22Z</time>
      </trkpt>
      <trkpt lat="41.28122" lon="-7.84209">
        <ele>716.2449</ele>
        <time>2021-07-06T11:30:33Z</time>
      </trkpt>
      <trkpt lat="41.28029" lon="-7.84488">
        <ele>728.5283</ele>
        <time>2021-07-06T11:30:44Z</time>
      </trkpt>
      <trkpt lat="41.27981" lon="-7.84825">
        <ele>745.5386</ele>
        <time>2021-07-06T11:30:55Z</time>
      </trkpt>
      <trkpt lat="41.27948" lon="-7.85148">
        <ele>760.1021</ele>
        <time>2021-07-06T11:31:06Z</time>
      </trkpt>
      <trkpt lat="41.27892" lon="-7.85455">
        <ele>772.7276</ele>
        <time>2021-07-06T11:31:17Z</time>
      </trkpt>
      <trkpt lat="41.27807" lon="-7.85773">
        <ele>776.8248</ele>
        <time>2021-07-06T11:31:28Z</time>
      </trkpt>
      <trkpt lat="41.27856" lon="-7.86054">
        <ele>780.9287</ele>
        <time>2021-07-06T11:31:39Z</time>
      </trkpt>
      <trkpt lat="41.27915" lon="-7.86359">
        <ele>786.1037</ele>
        <time>2021-07-06T11:31:50Z</time>
      </trkpt>
      <trkpt lat="41.28038" lon="-7.86606">
        <ele>789.6982</ele>
        <time>2021-07-06T11:32:01Z</time>
      </trkpt>
      <trkpt lat="41.28111" lon="-7.86887">
        <ele>796.8142</ele>
        <time>2021-07-06T11:32:12Z</time>
      </trkpt>
      <trkpt lat="41.28048" lon="-7.87188">
        <ele>801.8734</ele>
        <time>2021-07-06T11:32:23Z</time>
      </trkpt>
      <trkpt lat="41.28118" lon="-7.87485">
        <ele>815.3882</ele>
        <time>2021-07-06T11:32:34Z</time>
      </trkpt>
      <trkpt lat="41.28128" lon="-7.87803">
        <ele>833.2159</ele>
        <time>2021-07-06T11:32:45Z</time>
      </trkpt>
      <trkpt lat="41.28202" lon="-7.88103">
        <ele>850.5257</ele>
        <time>2021-07-06T11:32:56Z</time>
      </trkpt>
      <trkpt lat="41.28253" lon="-7.88407">
        <ele>868.9575</ele>
        <time>2021-07-06T11:33:07Z</time>
      </trkpt>
      <trkpt lat="41.28056" lon="-7.88587">
        <ele>873.1341</ele>
        <time>2021-07-06T11:33:18Z</time>
      </trkpt>
      <trkpt lat="41.27844" lon="-7.88737">
        <ele>884.7634</ele>
        <time>2021-07-06T11:33:29Z</time>
      </trkpt>
      <trkpt lat="41.27743" lon="-7.89033">
        <ele>896.1798</ele>
        <time>2021-07-06T11:33:40Z</time>
      </trkpt>
      <trkpt lat="41.27721" lon="-7.89342">
        <ele>912.0561</ele>
        <time>2021-07-06T11:33:51Z</time>
      </trkpt>
      <trkpt lat="41.27705" lon="-7.89659">
        <ele>925.9249</ele>
        <time>2021-07-06T11:34:02Z</time>
      </trkpt>
      <trkpt lat="41.27638" lon="-7.89967">
        <ele>938.014</ele>
        <time>2021-07-06T11:34:13Z</time>
      </trkpt>
      <trkpt lat="41.27664" lon="-7.9032">
        <ele>955.583</ele>
        <time>2021-07-06T11:34:24Z</time>
      </trkpt>
      <trkpt lat="41.2763" lon="-7.90651">
        <ele>970.4213</ele>
        <time>2021-07-06T11:34:35Z</time>
      </trkpt>
      <trkpt lat="41.27741" lon="-7.90933">
        <ele>986.2675</ele>
        <time>2021-07-06T11:34:46Z</time>
      </trkpt>
      <trkpt lat="41.27812" lon="-7.91231">
        <ele>1000.942</ele>
        <time>2021-07-06T11:34:57Z</time>
      </trkpt>
      <trkpt lat="41.27989" lon="-7.91432">
        <ele>1012.21</ele>
        <time>2021-07-06T11:35:08Z</time>
      </trkpt>
      <trkpt lat="41.2812" lon="-7.91683">
        <ele>1009.318</ele>
        <time>2021-07-06T11:35:20Z</time>
      </trkpt>
      <trkpt lat="41.28191" lon="-7.91994">
        <ele>990.4673</ele>
        <time>2021-07-06T11:35:31Z</time>
      </trkpt>
      <trkpt lat="41.28114" lon="-7.92293">
        <ele>968.9201</ele>
        <time>2021-07-06T11:35:42Z</time>
      </trkpt>
      <trkpt lat="41.27917" lon="-7.92499">
        <ele>951.3648</ele>
        <time>2021-07-06T11:35:53Z</time>
      </trkpt>
      <trkpt lat="41.27784" lon="-7.92786">
        <ele>931.8392</ele>
        <time>2021-07-06T11:36:04Z</time>
      </trkpt>
      <trkpt lat="41.2765" lon="-7.93046">
        <ele>911.3601</ele>
        <time>2021-07-06T11:36:15Z</time>
      </trkpt>
      <trkpt lat="41.27629" lon="-7.93358">
        <ele>890.847</ele>
        <time>2021-07-06T11:36:26Z</time>
      </trkpt>
      <trkpt lat="41.27523" lon="-7.93629">
        <ele>872.5789</ele>
        <time>2021-07-06T11:36:37Z</time>
      </trkpt>
      <trkpt lat="41.27324" lon="-7.93799">
        <ele>855.5736</ele>
        <time>2021-07-06T11:36:48Z</time>
      </trkpt>
      <trkpt lat="41.27173" lon="-7.94054">
        <ele>834.8456</ele>
        <time>2021-07-06T11:36:59Z</time>
      </trkpt>
      <trkpt lat="41.26992" lon="-7.94271">
        <ele>817.4269</ele>
        <time>2021-07-06T11:37:10Z</time>
      </trkpt>
      <trkpt lat="41.26784" lon="-7.94413">
        <ele>800.153</ele>
        <time>2021-07-06T11:37:21Z</time>
      </trkpt>
      <trkpt lat="41.26612" lon="-7.9453">
        <ele>785.1899</ele>
        <time>2021-07-06T11:37:32Z</time>
      </trkpt>
      <trkpt lat="41.26499" lon="-7.94658">
        <ele>771.7733</ele>
        <time>2021-07-06T11:37:43Z</time>
      </trkpt>
      <trkpt lat="41.26363" lon="-7.94725">
        <ele>762.7861</ele>
        <time>2021-07-06T11:37:54Z</time>
      </trkpt>
      <trkpt lat="41.26218" lon="-7.94738">
        <ele>750.2025</ele>
        <time>2021-07-06T11:38:05Z</time>
      </trkpt>
      <trkpt lat="41.26088" lon="-7.94852">
        <ele>737.815</ele>
        <time>2021-07-06T11:38:16Z</time>
      </trkpt>
      <trkpt lat="41.25939" lon="-7.95117">
        <ele>718.3146</ele>
        <time>2021-07-06T11:38:27Z</time>
      </trkpt>
      <trkpt lat="41.25775" lon="-7.95372">
        <ele>699.0938</ele>
        <time>2021-07-06T11:38:38Z</time>
      </trkpt>
      <trkpt lat="41.25599" lon="-7.95622">
        <ele>678.749</ele>
        <time>2021-07-06T11:38:49Z</time>
      </trkpt>
      <trkpt lat="41.25536" lon="-7.95916">
        <ele>659.2385</ele>
        <time>2021-07-06T11:39:00Z</time>
      </trkpt>
      <trkpt lat="41.25586" lon="-7.96233">
        <ele>640.7577</ele>
        <time>2021-07-06T11:39:11Z</time>
      </trkpt>
      <trkpt lat="41.25588" lon="-7.96572">
        <ele>620.7923</ele>
        <time>2021-07-06T11:39:22Z</time>
      </trkpt>
      <trkpt lat="41.25656" lon="-7.96864">
        <ele>600.6986</ele>
        <time>2021-07-06T11:39:33Z</time>
      </trkpt>
      <trkpt lat="41.2588" lon="-7.96968">
        <ele>582.462</ele>
        <time>2021-07-06T11:39:44Z</time>
      </trkpt>
      <trkpt lat="41.26118" lon="-7.97017">
        <ele>563.7764</ele>
        <time>2021-07-06T11:39:55Z</time>
      </trkpt>
      <trkpt lat="41.26346" lon="-7.96953">
        <ele>544.7597</ele>
        <time>2021-07-06T11:40:06Z</time>
      </trkpt>
      <trkpt lat="41.26514" lon="-7.97059">
        <ele>527.6599</ele>
        <time>2021-07-06T11:40:17Z</time>
      </trkpt>
      <trkpt lat="41.26405" lon="-7.97311">
        <ele>507.9068</ele>
        <time>2021-07-06T11:40:28Z</time>
      </trkpt>
      <trkpt lat="41.26278" lon="-7.97603">
        <ele>487.6551</ele>
        <time>2021-07-06T11:40:39Z</time>
      </trkpt>
      <trkpt lat="41.26331" lon="-7.97891">
        <ele>467.396</ele>
        <time>2021-07-06T11:40:50Z</time>
      </trkpt>
      <trkpt lat="41.26575" lon="-7.97928">
        <ele>455.6643</ele>
        <time>2021-07-06T11:41:01Z</time>
      </trkpt>
      <trkpt lat="41.26789" lon="-7.97979">
        <ele>439.1689</ele>
        <time>2021-07-06T11:41:12Z</time>
      </trkpt>
      <trkpt lat="41.26769" lon="-7.9827">
        <ele>417.5863</ele>
        <time>2021-07-06T11:41:23Z</time>
      </trkpt>
      <trkpt lat="41.26901" lon="-7.98523">
        <ele>397.5157</ele>
        <time>2021-07-06T11:41:34Z</time>
      </trkpt>
      <trkpt lat="41.27048" lon="-7.98775">
        <ele>379.1759</ele>
        <time>2021-07-06T11:41:45Z</time>
      </trkpt>
      <trkpt lat="41.27124" lon="-7.99096">
        <ele>361.3702</ele>
        <time>2021-07-06T11:41:56Z</time>
      </trkpt>
      <trkpt lat="41.27332" lon="-7.9921">
        <ele>341.8385</ele>
        <time>2021-07-06T11:42:07Z</time>
      </trkpt>
      <trkpt lat="41.27572" lon="-7.99206">
        <ele>316.8901</ele>
        <time>2021-07-06T11:42:18Z</time>
      </trkpt>
      <trkpt lat="41.2781" lon="-7.99188">
        <ele>295.0284</ele>
        <time>2021-07-06T11:42:29Z</time>
      </trkpt>
      <trkpt lat="41.28031" lon="-7.99219">
        <ele>276.7702</ele>
        <time>2021-07-06T11:42:40Z</time>
      </trkpt>
      <trkpt lat="41.2814" lon="-7.99476">
        <ele>264.9833</ele>
        <time>2021-07-06T11:42:51Z</time>
      </trkpt>
      <trkpt lat="41.28022" lon="-7.99728">
        <ele>267.9654</ele>
        <time>2021-07-06T11:43:02Z</time>
      </trkpt>
      <trkpt lat="41.27816" lon="-7.99898">
        <ele>283.7489</ele>
        <time>2021-07-06T11:43:13Z</time>
      </trkpt>
      <trkpt lat="41.27621" lon="-8.00075">
        <ele>301.0328</ele>
        <time>2021-07-06T11:43:24Z</time>
      </trkpt>
      <trkpt lat="41.27508" lon="-8.00353">
        <ele>312.3843</ele>
        <time>2021-07-06T11:43:35Z</time>
      </trkpt>
      <trkpt lat="41.27529" lon="-8.00666">
        <ele>303.5334</ele>
        <time>2021-07-06T11:43:46Z</time>
      </trkpt>
      <trkpt lat="41.27381" lon="-8.00906">
        <ele>281.9797</ele>
        <time>2021-07-06T11:43:57Z</time>
      </trkpt>
      <trkpt lat="41.27232" lon="-8.01151">
        <ele>281.2808</ele>
        <time>2021-07-06T11:44:08Z</time>
      </trkpt>
      <trkpt lat="41.27132" lon="-8.01456">
        <ele>274.1192</ele>
        <time>2021-07-06T11:44:19Z</time>
      </trkpt>
      <trkpt lat="41.26916" lon="-8.01637">
        <ele>275.9617</ele>
        <time>2021-07-06T11:44:30Z</time>
      </trkpt>
      <trkpt lat="41.26678" lon="-8.01851">
        <ele>274.5721</ele>
        <time>2021-07-06T11:44:41Z</time>
      </trkpt>
      <trkpt lat="41.2656" lon="-8.02142">
        <ele>256.4205</ele>
        <time>2021-07-06T11:44:52Z</time>
      </trkpt>
      <trkpt lat="41.26528" lon="-8.02476">
        <ele>237.48</ele>
        <time>2021-07-06T11:45:03Z</time>
      </trkpt>
      <trkpt lat="41.26444" lon="-8.02779">
        <ele>217.6593</ele>
        <time>2021-07-06T11:45:14Z</time>
      </trkpt>
      <trkpt lat="41.26257" lon="-8.03006">
        <ele>211.5061</ele>
        <time>2021-07-06T11:45:25Z</time>
      </trkpt>
      <trkpt lat="41.26052" lon="-8.03174">
        <ele>222.4719</ele>
        <time>2021-07-06T11:45:36Z</time>
      </trkpt>
      <trkpt lat="41.25808" lon="-8.03336">
        <ele>227.4962</ele>
        <time>2021-07-06T11:45:47Z</time>
      </trkpt>
      <trkpt lat="41.25604" lon="-8.03615">
        <ele>225.7468</ele>
        <time>2021-07-06T11:45:58Z</time>
      </trkpt>
      <trkpt lat="41.25523" lon="-8.03943">
        <ele>219.2833</ele>
        <time>2021-07-06T11:46:09Z</time>
      </trkpt>
      <trkpt lat="41.25562" lon="-8.04316">
        <ele>201.0064</ele>
        <time>2021-07-06T11:46:20Z</time>
      </trkpt>
      <trkpt lat="41.25574" lon="-8.04671">
        <ele>196.6493</ele>
        <time>2021-07-06T11:46:31Z</time>
      </trkpt>
      <trkpt lat="41.25663" lon="-8.04706">
        <ele>194.9803</ele>
        <time>2021-07-06T11:46:42Z</time>
      </trkpt>
      <trkpt lat="41.25496" lon="-8.04635">
        <ele>180.6606</ele>
        <time>2021-07-06T11:46:53Z</time>
      </trkpt>
      <trkpt lat="41.25395" lon="-8.04593">
        <ele>168.6211</ele>
        <time>2021-07-06T11:47:04Z</time>
      </trkpt>
      <trkpt lat="41.25458" lon="-8.04728">
        <ele>170.9811</ele>
        <time>2021-07-06T11:47:15Z</time>
      </trkpt>
      <trkpt lat="41.25451" lon="-8.04946">
        <ele>176.5326</ele>
        <time>2021-07-06T11:47:26Z</time>
      </trkpt>
      <trkpt lat="41.25515" lon="-8.05118">
        <ele>176.5903</ele>
        <time>2021-07-06T11:47:37Z</time>
      </trkpt>
      <trkpt lat="41.25565" lon="-8.05245">
        <ele>178.8906</ele>
        <time>2021-07-06T11:47:48Z</time>
      </trkpt>
      <trkpt lat="41.25679" lon="-8.05334">
        <ele>181.4971</ele>
        <time>2021-07-06T11:47:59Z</time>
      </trkpt>
      <trkpt lat="41.2573" lon="-8.0546">
        <ele>182.7881</ele>
        <time>2021-07-06T11:48:10Z</time>
      </trkpt>
      <trkpt lat="41.25762" lon="-8.05638">
        <ele>190.2371</ele>
        <time>2021-07-06T11:48:21Z</time>
      </trkpt>
      <trkpt lat="41.2583" lon="-8.05794">
        <ele>195.0429</ele>
        <time>2021-07-06T11:48:32Z</time>
      </trkpt>
      <trkpt lat="41.25957" lon="-8.05933">
        <ele>180.6667</ele>
        <time>2021-07-06T11:48:43Z</time>
      </trkpt>
      <trkpt lat="41.26094" lon="-8.05953">
        <ele>170.8749</ele>
        <time>2021-07-06T11:48:54Z</time>
      </trkpt>
      <trkpt lat="41.26214" lon="-8.06038">
        <ele>158.8151</ele>
        <time>2021-07-06T11:49:05Z</time>
      </trkpt>
      <trkpt lat="41.26274" lon="-8.06199">
        <ele>146.3035</ele>
        <time>2021-07-06T11:49:16Z</time>
      </trkpt>
      <trkpt lat="41.26367" lon="-8.06347">
        <ele>129.2228</ele>
        <time>2021-07-06T11:49:27Z</time>
      </trkpt>
      <trkpt lat="41.26386" lon="-8.06485">
        <ele>119.3365</ele>
        <time>2021-07-06T11:49:38Z</time>
      </trkpt>
      <trkpt lat="41.26456" lon="-8.06653">
        <ele>105.6856</ele>
        <time>2021-07-06T11:49:49Z</time>
      </trkpt>
      <trkpt lat="41.26488" lon="-8.06775">
        <ele>96.68677</ele>
        <time>2021-07-06T11:50:00Z</time>
      </trkpt>
      <trkpt lat="41.26539" lon="-8.06924">
        <ele>90.61289</ele>
        <time>2021-07-06T11:50:11Z</time>
      </trkpt>
      <trkpt lat="41.26592" lon="-8.07031">
        <ele>89.06721</ele>
        <time>2021-07-06T11:50:22Z</time>
      </trkpt>
      <trkpt lat="41.26642" lon="-8.07114">
        <ele>92.31399</ele>
        <time>2021-07-06T11:50:33Z</time>
      </trkpt>
      <trkpt lat="41.2669" lon="-8.07194">
        <ele>87.82469</ele>
        <time>2021-07-06T11:50:44Z</time>
      </trkpt>
      <trkpt lat="41.26744" lon="-8.07245">
        <ele>85.69588</ele>
        <time>2021-07-06T11:50:55Z</time>
      </trkpt>
      <trkpt lat="41.26811" lon="-8.07354">
        <ele>81.12721</ele>
        <time>2021-07-06T11:51:06Z</time>
      </trkpt>
      <trkpt lat="41.26926" lon="-8.07467">
        <ele>80.93174</ele>
        <time>2021-07-06T11:51:17Z</time>
      </trkpt>
      <trkpt lat="41.27062" lon="-8.0756">
        <ele>78.65335</ele>
        <time>2021-07-06T11:51:28Z</time>
      </trkpt>
      <trkpt lat="41.27221" lon="-8.07508">
        <ele>87.59541</ele>
        <time>2021-07-06T11:51:39Z</time>
      </trkpt>
      <trkpt lat="41.27344" lon="-8.07541">
        <ele>98.56285</ele>
        <time>2021-07-06T11:51:50Z</time>
      </trkpt>
      <trkpt lat="41.27243" lon="-8.07695">
        <ele>106.1089</ele>
        <time>2021-07-06T11:52:01Z</time>
      </trkpt>
      <trkpt lat="41.27121" lon="-8.07811">
        <ele>114.8239</ele>
        <time>2021-07-06T11:52:12Z</time>
      </trkpt>
      <trkpt lat="41.27093" lon="-8.07948">
        <ele>116.2978</ele>
        <time>2021-07-06T11:52:23Z</time>
      </trkpt>
      <trkpt lat="41.27178" lon="-8.08063">
        <ele>115.6912</ele>
        <time>2021-07-06T11:52:34Z</time>
      </trkpt>
      <trkpt lat="41.27269" lon="-8.0812">
        <ele>110.0094</ele>
        <time>2021-07-06T11:52:45Z</time>
      </trkpt>
      <trkpt lat="41.27329" lon="-8.08165">
        <ele>107.4987</ele>
        <time>2021-07-06T11:52:56Z</time>
      </trkpt>
      <trkpt lat="41.27404" lon="-8.08232">
        <ele>102.8814</ele>
        <time>2021-07-06T11:53:07Z</time>
      </trkpt>
      <trkpt lat="41.27328" lon="-8.08301">
        <ele>92.42608</ele>
        <time>2021-07-06T11:53:18Z</time>
      </trkpt>
      <trkpt lat="41.27274" lon="-8.08304">
        <ele>96.19802</ele>
        <time>2021-07-06T11:53:29Z</time>
      </trkpt>
      <trkpt lat="41.27241" lon="-8.08295">
        <ele>97.65026</ele>
        <time>2021-07-06T11:53:40Z</time>
      </trkpt>
      <trkpt lat="41.27179" lon="-8.0832">
        <ele>97.21696</ele>
        <time>2021-07-06T11:53:51Z</time>
      </trkpt>
      <trkpt lat="41.27124" lon="-8.08449">
        <ele>102.926</ele>
        <time>2021-07-06T11:54:02Z</time>
      </trkpt>
      <trkpt lat="41.27151" lon="-8.08542">
        <ele>100.0869</ele>
        <time>2021-07-06T11:54:13Z</time>
      </trkpt>
      <trkpt lat="41.27214" lon="-8.08651">
        <ele>94.51439</ele>
        <time>2021-07-06T11:54:24Z</time>
      </trkpt>
      <trkpt lat="41.27248" lon="-8.08758">
        <ele>93.49075</ele>
        <time>2021-07-06T11:54:35Z</time>
      </trkpt>
      <trkpt lat="41.27275" lon="-8.08856">
        <ele>93.11873</ele>
        <time>2021-07-06T11:54:46Z</time>
      </trkpt>
      <trkpt lat="41.27297" lon="-8.08909">
        <ele>95.74267</ele>
        <time>2021-07-06T11:54:57Z</time>
      </trkpt>
      <trkpt lat="41.27319" lon="-8.09005">
        <ele>98.35331</ele>
        <time>2021-07-06T11:55:08Z</time>
      </trkpt>
      <trkpt lat="41.27464" lon="-8.09029">
        <ele>110.5055</ele>
        <time>2021-07-06T11:55:19Z</time>
      </trkpt>
      <trkpt lat="41.27513" lon="-8.09035">
        <ele>118.5752</ele>
        <time>2021-07-06T11:55:30Z</time>
      </trkpt>
      <trkpt lat="41.27396" lon="-8.09102">
        <ele>128.1911</ele>
        <time>2021-07-06T11:55:41Z</time>
      </trkpt>
      <trkpt lat="41.27353" lon="-8.09232">
        <ele>134.1703</ele>
        <time>2021-07-06T11:55:52Z</time>
      </trkpt>
      <trkpt lat="41.27234" lon="-8.09363">
        <ele>144.1197</ele>
        <time>2021-07-06T11:56:03Z</time>
      </trkpt>
      <trkpt lat="41.27138" lon="-8.09496">
        <ele>155.8177</ele>
        <time>2021-07-06T11:56:14Z</time>
      </trkpt>
      <trkpt lat="41.27256" lon="-8.0948">
        <ele>165.918</ele>
        <time>2021-07-06T11:56:25Z</time>
      </trkpt>
      <trkpt lat="41.27347" lon="-8.09452">
        <ele>172.991</ele>
        <time>2021-07-06T11:56:36Z</time>
      </trkpt>
      <trkpt lat="41.27337" lon="-8.09475">
        <ele>172.9412</ele>
        <time>2021-07-06T11:56:47Z</time>
      </trkpt>
      <trkpt lat="41.27334" lon="-8.09483">
        <ele>174.9851</ele>
        <time>2021-07-06T11:57:06Z</time>
      </trkpt>
      <trkpt lat="41.27309" lon="-8.09615">
        <ele>172.8555</ele>
        <time>2021-07-06T11:57:17Z</time>
      </trkpt>
      <trkpt lat="41.27382" lon="-8.09601">
        <ele>179.4883</ele>
        <time>2021-07-06T11:57:28Z</time>
      </trkpt>
      <trkpt lat="41.27533" lon="-8.09723">
        <ele>194.5076</ele>
        <time>2021-07-06T11:57:39Z</time>
      </trkpt>
      <trkpt lat="41.27633" lon="-8.09739">
        <ele>196.9067</ele>
        <time>2021-07-06T11:57:50Z</time>
      </trkpt>
      <trkpt lat="41.27581" lon="-8.09881">
        <ele>201.12</ele>
        <time>2021-07-06T11:58:01Z</time>
      </trkpt>
      <trkpt lat="41.27483" lon="-8.09826">
        <ele>208.5728</ele>
        <time>2021-07-06T11:58:12Z</time>
      </trkpt>
      <trkpt lat="41.27429" lon="-8.10007">
        <ele>217.7128</ele>
        <time>2021-07-06T11:58:23Z</time>
      </trkpt>
      <trkpt lat="41.27511" lon="-8.10171">
        <ele>226.5266</ele>
        <time>2021-07-06T11:58:34Z</time>
      </trkpt>
      <trkpt lat="41.2748" lon="-8.1033">
        <ele>232.2582</ele>
        <time>2021-07-06T11:58:45Z</time>
      </trkpt>
      <trkpt lat="41.27591" lon="-8.10521">
        <ele>239.394</ele>
        <time>2021-07-06T11:58:56Z</time>
      </trkpt>
      <trkpt lat="41.27768" lon="-8.10615">
        <ele>252.279</ele>
        <time>2021-07-06T11:59:07Z</time>
      </trkpt>
      <trkpt lat="41.2788" lon="-8.10733">
        <ele>258.6733</ele>
        <time>2021-07-06T11:59:18Z</time>
      </trkpt>
      <trkpt lat="41.27882" lon="-8.10891">
        <ele>263.7396</ele>
        <time>2021-07-06T11:59:29Z</time>
      </trkpt>
      <trkpt lat="41.27944" lon="-8.11013">
        <ele>265.2994</ele>
        <time>2021-07-06T11:59:40Z</time>
      </trkpt>
      <trkpt lat="41.28009" lon="-8.11138">
        <ele>268.9268</ele>
        <time>2021-07-06T11:59:51Z</time>
      </trkpt>
      <trkpt lat="41.2798" lon="-8.11251">
        <ele>272.95</ele>
        <time>2021-07-06T12:00:02Z</time>
      </trkpt>
      <trkpt lat="41.27941" lon="-8.11348">
        <ele>278.1073</ele>
        <time>2021-07-06T12:00:13Z</time>
      </trkpt>
      <trkpt lat="41.27909" lon="-8.11458">
        <ele>284.8387</ele>
        <time>2021-07-06T12:00:24Z</time>
      </trkpt>
      <trkpt lat="41.27841" lon="-8.1154">
        <ele>288.4855</ele>
        <time>2021-07-06T12:00:35Z</time>
      </trkpt>
      <trkpt lat="41.27823" lon="-8.11668">
        <ele>293.3039</ele>
        <time>2021-07-06T12:00:46Z</time>
      </trkpt>
      <trkpt lat="41.2775" lon="-8.11762">
        <ele>296.1792</ele>
        <time>2021-07-06T12:00:57Z</time>
      </trkpt>
      <trkpt lat="41.27745" lon="-8.11862">
        <ele>291.8558</ele>
        <time>2021-07-06T12:01:08Z</time>
      </trkpt>
      <trkpt lat="41.27831" lon="-8.11975">
        <ele>285.6557</ele>
        <time>2021-07-06T12:01:19Z</time>
      </trkpt>
      <trkpt lat="41.27922" lon="-8.11968">
        <ele>278.8885</ele>
        <time>2021-07-06T12:01:30Z</time>
      </trkpt>
      <trkpt lat="41.28034" lon="-8.12161">
        <ele>280.4382</ele>
        <time>2021-07-06T12:01:41Z</time>
      </trkpt>
      <trkpt lat="41.28127" lon="-8.12259">
        <ele>287.4139</ele>
        <time>2021-07-06T12:01:52Z</time>
      </trkpt>
      <trkpt lat="41.28086" lon="-8.12382">
        <ele>291.0139</ele>
        <time>2021-07-06T12:02:03Z</time>
      </trkpt>
      <trkpt lat="41.28014" lon="-8.12504">
        <ele>293.3645</ele>
        <time>2021-07-06T12:02:14Z</time>
      </trkpt>
      <trkpt lat="41.27999" lon="-8.1263">
        <ele>302.5148</ele>
        <time>2021-07-06T12:02:25Z</time>
      </trkpt>
      <trkpt lat="41.28013" lon="-8.12769">
        <ele>302.475</ele>
        <time>2021-07-06T12:02:36Z</time>
      </trkpt>
      <trkpt lat="41.28064" lon="-8.12869">
        <ele>303.8333</ele>
        <time>2021-07-06T12:02:47Z</time>
      </trkpt>
      <trkpt lat="41.28021" lon="-8.12944">
        <ele>308.8406</ele>
        <time>2021-07-06T12:02:58Z</time>
      </trkpt>
      <trkpt lat="41.27911" lon="-8.12953">
        <ele>314.3626</ele>
        <time>2021-07-06T12:03:09Z</time>
      </trkpt>
      <trkpt lat="41.27825" lon="-8.13043">
        <ele>319.1959</ele>
        <time>2021-07-06T12:03:20Z</time>
      </trkpt>
      <trkpt lat="41.2776" lon="-8.12943">
        <ele>322.6196</ele>
        <time>2021-07-06T12:03:31Z</time>
      </trkpt>
      <trkpt lat="41.27666" lon="-8.12905">
        <ele>328.2632</ele>
        <time>2021-07-06T12:03:42Z</time>
      </trkpt>
      <trkpt lat="41.27545" lon="-8.12922">
        <ele>331.5231</ele>
        <time>2021-07-06T12:03:53Z</time>
      </trkpt>
      <trkpt lat="41.2746" lon="-8.12992">
        <ele>338.9745</ele>
        <time>2021-07-06T12:04:04Z</time>
      </trkpt>
      <trkpt lat="41.27366" lon="-8.13014">
        <ele>346.4636</ele>
        <time>2021-07-06T12:04:15Z</time>
      </trkpt>
      <trkpt lat="41.27297" lon="-8.13079">
        <ele>349.0455</ele>
        <time>2021-07-06T12:04:26Z</time>
      </trkpt>
      <trkpt lat="41.27183" lon="-8.13132">
        <ele>351.9387</ele>
        <time>2021-07-06T12:04:37Z</time>
      </trkpt>
      <trkpt lat="41.27106" lon="-8.1323">
        <ele>361.9976</ele>
        <time>2021-07-06T12:04:48Z</time>
      </trkpt>
      <trkpt lat="41.27067" lon="-8.13385">
        <ele>368.8952</ele>
        <time>2021-07-06T12:04:59Z</time>
      </trkpt>
      <trkpt lat="41.27012" lon="-8.13537">
        <ele>371.432</ele>
        <time>2021-07-06T12:05:10Z</time>
      </trkpt>
      <trkpt lat="41.26922" lon="-8.13638">
        <ele>379.9139</ele>
        <time>2021-07-06T12:05:21Z</time>
      </trkpt>
      <trkpt lat="41.26872" lon="-8.13771">
        <ele>382.1546</ele>
        <time>2021-07-06T12:05:32Z</time>
      </trkpt>
      <trkpt lat="41.26806" lon="-8.13891">
        <ele>391.0253</ele>
        <time>2021-07-06T12:05:43Z</time>
      </trkpt>
      <trkpt lat="41.26808" lon="-8.14013">
        <ele>398.679</ele>
        <time>2021-07-06T12:05:54Z</time>
      </trkpt>
      <trkpt lat="41.26744" lon="-8.14127">
        <ele>403.201</ele>
        <time>2021-07-06T12:06:05Z</time>
      </trkpt>
      <trkpt lat="41.26738" lon="-8.1423">
        <ele>401.1412</ele>
        <time>2021-07-06T12:06:16Z</time>
      </trkpt>
      <trkpt lat="41.26832" lon="-8.14344">
        <ele>393.1778</ele>
        <time>2021-07-06T12:06:27Z</time>
      </trkpt>
      <trkpt lat="41.2688" lon="-8.14467">
        <ele>383.9275</ele>
        <time>2021-07-06T12:06:38Z</time>
      </trkpt>
      <trkpt lat="41.26776" lon="-8.14564">
        <ele>380.7882</ele>
        <time>2021-07-06T12:06:49Z</time>
      </trkpt>
      <trkpt lat="41.26766" lon="-8.14727">
        <ele>376.8419</ele>
        <time>2021-07-06T12:07:00Z</time>
      </trkpt>
      <trkpt lat="41.26886" lon="-8.14862">
        <ele>366.3744</ele>
        <time>2021-07-06T12:07:11Z</time>
      </trkpt>
      <trkpt lat="41.26908" lon="-8.15025">
        <ele>354.8022</ele>
        <time>2021-07-06T12:07:22Z</time>
      </trkpt>
      <trkpt lat="41.26766" lon="-8.15244">
        <ele>335.2758</ele>
        <time>2021-07-06T12:07:33Z</time>
      </trkpt>
      <trkpt lat="41.26764" lon="-8.15433">
        <ele>328.8819</ele>
        <time>2021-07-06T12:07:44Z</time>
      </trkpt>
      <trkpt lat="41.26611" lon="-8.15652">
        <ele>313.8006</ele>
        <time>2021-07-06T12:07:55Z</time>
      </trkpt>
      <trkpt lat="41.26505" lon="-8.15786">
        <ele>305.0282</ele>
        <time>2021-07-06T12:08:06Z</time>
      </trkpt>
      <trkpt lat="41.26473" lon="-8.16018">
        <ele>301.1073</ele>
        <time>2021-07-06T12:08:17Z</time>
      </trkpt>
      <trkpt lat="41.26332" lon="-8.16151">
        <ele>286.356</ele>
        <time>2021-07-06T12:08:28Z</time>
      </trkpt>
      <trkpt lat="41.26218" lon="-8.16369">
        <ele>280.6364</ele>
        <time>2021-07-06T12:08:39Z</time>
      </trkpt>
      <trkpt lat="41.26082" lon="-8.16582">
        <ele>270.7989</ele>
        <time>2021-07-06T12:08:50Z</time>
      </trkpt>
      <trkpt lat="41.25949" lon="-8.16656">
        <ele>260.7027</ele>
        <time>2021-07-06T12:09:01Z</time>
      </trkpt>
      <trkpt lat="41.25983" lon="-8.16887">
        <ele>253.3122</ele>
        <time>2021-07-06T12:09:12Z</time>
      </trkpt>
      <trkpt lat="41.26027" lon="-8.17106">
        <ele>238.9641</ele>
        <time>2021-07-06T12:09:23Z</time>
      </trkpt>
      <trkpt lat="41.25891" lon="-8.1737">
        <ele>217.7716</ele>
        <time>2021-07-06T12:09:34Z</time>
      </trkpt>
      <trkpt lat="41.25743" lon="-8.1742">
        <ele>207.3589</ele>
        <time>2021-07-06T12:09:45Z</time>
      </trkpt>
      <trkpt lat="41.25636" lon="-8.17488">
        <ele>203.6368</ele>
        <time>2021-07-06T12:09:57Z</time>
      </trkpt>
      <trkpt lat="41.25558" lon="-8.17597">
        <ele>196.5004</ele>
        <time>2021-07-06T12:10:08Z</time>
      </trkpt>
      <trkpt lat="41.25464" lon="-8.17718">
        <ele>189.1721</ele>
        <time>2021-07-06T12:10:19Z</time>
      </trkpt>
      <trkpt lat="41.25365" lon="-8.17819">
        <ele>183.6353</ele>
        <time>2021-07-06T12:10:30Z</time>
      </trkpt>
      <trkpt lat="41.25272" lon="-8.17914">
        <ele>173.6075</ele>
        <time>2021-07-06T12:10:41Z</time>
      </trkpt>
      <trkpt lat="41.2519" lon="-8.17959">
        <ele>166.3697</ele>
        <time>2021-07-06T12:10:52Z</time>
      </trkpt>
      <trkpt lat="41.25129" lon="-8.18029">
        <ele>161.7339</ele>
        <time>2021-07-06T12:11:03Z</time>
      </trkpt>
      <trkpt lat="41.25172" lon="-8.18111">
        <ele>157.115</ele>
        <time>2021-07-06T12:11:14Z</time>
      </trkpt>
      <trkpt lat="41.2515" lon="-8.18312">
        <ele>156.4059</ele>
        <time>2021-07-06T12:11:25Z</time>
      </trkpt>
      <trkpt lat="41.25152" lon="-8.18494">
        <ele>168.3612</ele>
        <time>2021-07-06T12:11:36Z</time>
      </trkpt>
      <trkpt lat="41.25146" lon="-8.18642">
        <ele>179.0067</ele>
        <time>2021-07-06T12:11:47Z</time>
      </trkpt>
      <trkpt lat="41.25043" lon="-8.18658">
        <ele>176.3812</ele>
        <time>2021-07-06T12:11:58Z</time>
      </trkpt>
      <trkpt lat="41.24939" lon="-8.18643">
        <ele>170.1531</ele>
        <time>2021-07-06T12:12:09Z</time>
      </trkpt>
      <trkpt lat="41.24859" lon="-8.18835">
        <ele>172.9242</ele>
        <time>2021-07-06T12:12:20Z</time>
      </trkpt>
      <trkpt lat="41.24903" lon="-8.18925">
        <ele>181.5574</ele>
        <time>2021-07-06T12:12:31Z</time>
      </trkpt>
      <trkpt lat="41.24968" lon="-8.19008">
        <ele>196.8036</ele>
        <time>2021-07-06T12:12:42Z</time>
      </trkpt>
      <trkpt lat="41.24924" lon="-8.19169">
        <ele>207.0905</ele>
        <time>2021-07-06T12:12:53Z</time>
      </trkpt>
      <trkpt lat="41.24889" lon="-8.19287">
        <ele>219.5952</ele>
        <time>2021-07-06T12:13:04Z</time>
      </trkpt>
      <trkpt lat="41.24867" lon="-8.19441">
        <ele>223.4331</ele>
        <time>2021-07-06T12:13:15Z</time>
      </trkpt>
      <trkpt lat="41.24845" lon="-8.19625">
        <ele>232.6819</ele>
        <time>2021-07-06T12:13:26Z</time>
      </trkpt>
      <trkpt lat="41.24837" lon="-8.19801">
        <ele>248.2258</ele>
        <time>2021-07-06T12:13:37Z</time>
      </trkpt>
      <trkpt lat="41.24864" lon="-8.19981">
        <ele>255.5744</ele>
        <time>2021-07-06T12:13:48Z</time>
      </trkpt>
      <trkpt lat="41.24844" lon="-8.20138">
        <ele>270.977</ele>
        <time>2021-07-06T12:13:59Z</time>
      </trkpt>
      <trkpt lat="41.24821" lon="-8.20284">
        <ele>286.5632</ele>
        <time>2021-07-06T12:14:10Z</time>
      </trkpt>
      <trkpt lat="41.24745" lon="-8.20416">
        <ele>300.8943</ele>
        <time>2021-07-06T12:14:21Z</time>
      </trkpt>
      <trkpt lat="41.24672" lon="-8.20524">
        <ele>308.4036</ele>
        <time>2021-07-06T12:14:32Z</time>
      </trkpt>
      <trkpt lat="41.2466" lon="-8.20644">
        <ele>313.4903</ele>
        <time>2021-07-06T12:14:43Z</time>
      </trkpt>
      <trkpt lat="41.24617" lon="-8.20809">
        <ele>315.1474</ele>
        <time>2021-07-06T12:14:54Z</time>
      </trkpt>
      <trkpt lat="41.24561" lon="-8.21012">
        <ele>314.912</ele>
        <time>2021-07-06T12:15:05Z</time>
      </trkpt>
      <trkpt lat="41.24586" lon="-8.21247">
        <ele>314.9278</ele>
        <time>2021-07-06T12:15:16Z</time>
      </trkpt>
      <trkpt lat="41.24676" lon="-8.21435">
        <ele>324.3814</ele>
        <time>2021-07-06T12:15:27Z</time>
      </trkpt>
      <trkpt lat="41.24775" lon="-8.21528">
        <ele>333.6037</ele>
        <time>2021-07-06T12:15:38Z</time>
      </trkpt>
      <trkpt lat="41.24778" lon="-8.21569">
        <ele>336.2862</ele>
        <time>2021-07-06T12:15:49Z</time>
      </trkpt>
      <trkpt lat="41.24758" lon="-8.2159">
        <ele>340.6957</ele>
        <time>2021-07-06T12:16:00Z</time>
      </trkpt>
      <trkpt lat="41.24615" lon="-8.21592">
        <ele>341.2586</ele>
        <time>2021-07-06T12:16:11Z</time>
      </trkpt>
      <trkpt lat="41.24459" lon="-8.21506">
        <ele>347.0335</ele>
        <time>2021-07-06T12:16:22Z</time>
      </trkpt>
      <trkpt lat="41.24308" lon="-8.21474">
        <ele>355.1545</ele>
        <time>2021-07-06T12:16:33Z</time>
      </trkpt>
      <trkpt lat="41.24184" lon="-8.21606">
        <ele>363.735</ele>
        <time>2021-07-06T12:16:44Z</time>
      </trkpt>
      <trkpt lat="41.24116" lon="-8.21802">
        <ele>372.0442</ele>
        <time>2021-07-06T12:16:55Z</time>
      </trkpt>
      <trkpt lat="41.23964" lon="-8.21902">
        <ele>381.144</ele>
        <time>2021-07-06T12:17:06Z</time>
      </trkpt>
      <trkpt lat="41.23835" lon="-8.21994">
        <ele>386.1247</ele>
        <time>2021-07-06T12:17:17Z</time>
      </trkpt>
      <trkpt lat="41.23769" lon="-8.2219">
        <ele>387.8728</ele>
        <time>2021-07-06T12:17:28Z</time>
      </trkpt>
      <trkpt lat="41.23624" lon="-8.22357">
        <ele>388.9473</ele>
        <time>2021-07-06T12:17:39Z</time>
      </trkpt>
      <trkpt lat="41.23482" lon="-8.22515">
        <ele>392.4421</ele>
        <time>2021-07-06T12:17:50Z</time>
      </trkpt>
      <trkpt lat="41.23356" lon="-8.22654">
        <ele>386.68</ele>
        <time>2021-07-06T12:18:01Z</time>
      </trkpt>
      <trkpt lat="41.23269" lon="-8.22819">
        <ele>376.0559</ele>
        <time>2021-07-06T12:18:12Z</time>
      </trkpt>
      <trkpt lat="41.23186" lon="-8.22905">
        <ele>373.1871</ele>
        <time>2021-07-06T12:18:24Z</time>
      </trkpt>
      <trkpt lat="41.23089" lon="-8.2295">
        <ele>371.9854</ele>
        <time>2021-07-06T12:18:35Z</time>
      </trkpt>
      <trkpt lat="41.22954" lon="-8.23034">
        <ele>371.8725</ele>
        <time>2021-07-06T12:18:46Z</time>
      </trkpt>
      <trkpt lat="41.22854" lon="-8.23149">
        <ele>372.5534</ele>
        <time>2021-07-06T12:18:57Z</time>
      </trkpt>
      <trkpt lat="41.22756" lon="-8.23261">
        <ele>368.8877</ele>
        <time>2021-07-06T12:19:08Z</time>
      </trkpt>
      <trkpt lat="41.22664" lon="-8.23384">
        <ele>369.4643</ele>
        <time>2021-07-06T12:19:19Z</time>
      </trkpt>
      <trkpt lat="41.22575" lon="-8.23503">
        <ele>370.2546</ele>
        <time>2021-07-06T12:19:30Z</time>
      </trkpt>
      <trkpt lat="41.22482" lon="-8.23634">
        <ele>369.6876</ele>
        <time>2021-07-06T12:19:41Z</time>
      </trkpt>
      <trkpt lat="41.22378" lon="-8.23779">
        <ele>365.9036</ele>
        <time>2021-07-06T12:19:52Z</time>
      </trkpt>
      <trkpt lat="41.22274" lon="-8.23918">
        <ele>366.9678</ele>
        <time>2021-07-06T12:20:03Z</time>
      </trkpt>
      <trkpt lat="41.22177" lon="-8.24077">
        <ele>365.5516</ele>
        <time>2021-07-06T12:20:14Z</time>
      </trkpt>
      <trkpt lat="41.22138" lon="-8.24191">
        <ele>363.5305</ele>
        <time>2021-07-06T12:20:25Z</time>
      </trkpt>
      <trkpt lat="41.22114" lon="-8.24263">
        <ele>366.3634</ele>
        <time>2021-07-06T12:20:36Z</time>
      </trkpt>
      <trkpt lat="41.2211" lon="-8.2427">
        <ele>368.3557</ele>
        <time>2021-07-06T12:20:48Z</time>
      </trkpt>
      <trkpt lat="41.22072" lon="-8.24479">
        <ele>368.3249</ele>
        <time>2021-07-06T12:20:59Z</time>
      </trkpt>
      <trkpt lat="41.22069" lon="-8.24707">
        <ele>363.1186</ele>
        <time>2021-07-06T12:21:10Z</time>
      </trkpt>
      <trkpt lat="41.22069" lon="-8.24951">
        <ele>358.0768</ele>
        <time>2021-07-06T12:21:21Z</time>
      </trkpt>
      <trkpt lat="41.22015" lon="-8.25171">
        <ele>362.2508</ele>
        <time>2021-07-06T12:21:32Z</time>
      </trkpt>
      <trkpt lat="41.21999" lon="-8.25374">
        <ele>358.8582</ele>
        <time>2021-07-06T12:21:43Z</time>
      </trkpt>
      <trkpt lat="41.22065" lon="-8.25565">
        <ele>358.095</ele>
        <time>2021-07-06T12:21:54Z</time>
      </trkpt>
      <trkpt lat="41.22092" lon="-8.25765">
        <ele>358.9934</ele>
        <time>2021-07-06T12:22:05Z</time>
      </trkpt>
      <trkpt lat="41.22005" lon="-8.25902">
        <ele>369.1813</ele>
        <time>2021-07-06T12:22:16Z</time>
      </trkpt>
      <trkpt lat="41.21887" lon="-8.2603">
        <ele>365.3595</ele>
        <time>2021-07-06T12:22:27Z</time>
      </trkpt>
      <trkpt lat="41.21824" lon="-8.26094">
        <ele>368.1149</ele>
        <time>2021-07-06T12:22:38Z</time>
      </trkpt>
      <trkpt lat="41.21747" lon="-8.26177">
        <ele>372.6074</ele>
        <time>2021-07-06T12:22:49Z</time>
      </trkpt>
      <trkpt lat="41.21671" lon="-8.26292">
        <ele>375.4722</ele>
        <time>2021-07-06T12:23:00Z</time>
      </trkpt>
      <trkpt lat="41.21658" lon="-8.26484">
        <ele>372.4214</ele>
        <time>2021-07-06T12:23:11Z</time>
      </trkpt>
      <trkpt lat="41.21598" lon="-8.26655">
        <ele>368.7316</ele>
        <time>2021-07-06T12:23:22Z</time>
      </trkpt>
      <trkpt lat="41.21505" lon="-8.26773">
        <ele>360.3301</ele>
        <time>2021-07-06T12:23:33Z</time>
      </trkpt>
      <trkpt lat="41.2142" lon="-8.26913">
        <ele>353.8634</ele>
        <time>2021-07-06T12:23:44Z</time>
      </trkpt>
      <trkpt lat="41.21323" lon="-8.26982">
        <ele>347.8056</ele>
        <time>2021-07-06T12:23:55Z</time>
      </trkpt>
      <trkpt lat="41.21274" lon="-8.27084">
        <ele>345.2914</ele>
        <time>2021-07-06T12:24:06Z</time>
      </trkpt>
      <trkpt lat="41.21227" lon="-8.27209">
        <ele>345.1875</ele>
        <time>2021-07-06T12:24:17Z</time>
      </trkpt>
      <trkpt lat="41.21175" lon="-8.27364">
        <ele>343.5331</ele>
        <time>2021-07-06T12:24:28Z</time>
      </trkpt>
      <trkpt lat="41.21082" lon="-8.27431">
        <ele>342.1777</ele>
        <time>2021-07-06T12:24:39Z</time>
      </trkpt>
      <trkpt lat="41.2099" lon="-8.27509">
        <ele>333.5883</ele>
        <time>2021-07-06T12:24:50Z</time>
      </trkpt>
      <trkpt lat="41.20967" lon="-8.27663">
        <ele>330.1129</ele>
        <time>2021-07-06T12:25:01Z</time>
      </trkpt>
      <trkpt lat="41.20894" lon="-8.27773">
        <ele>327.6102</ele>
        <time>2021-07-06T12:25:12Z</time>
      </trkpt>
      <trkpt lat="41.20825" lon="-8.27855">
        <ele>323.8664</ele>
        <time>2021-07-06T12:25:23Z</time>
      </trkpt>
      <trkpt lat="41.2076" lon="-8.27948">
        <ele>315.3564</ele>
        <time>2021-07-06T12:25:34Z</time>
      </trkpt>
      <trkpt lat="41.20731" lon="-8.28016">
        <ele>316.4392</ele>
        <time>2021-07-06T12:25:45Z</time>
      </trkpt>
      <trkpt lat="41.20735" lon="-8.28118">
        <ele>305.0332</ele>
        <time>2021-07-06T12:25:56Z</time>
      </trkpt>
      <trkpt lat="41.20738" lon="-8.28196">
        <ele>296.4586</ele>
        <time>2021-07-06T12:26:07Z</time>
      </trkpt>
      <trkpt lat="41.20744" lon="-8.28246">
        <ele>296.8239</ele>
        <time>2021-07-06T12:26:18Z</time>
      </trkpt>
      <trkpt lat="41.20717" lon="-8.28303">
        <ele>299.8266</ele>
        <time>2021-07-06T12:26:29Z</time>
      </trkpt>
      <trkpt lat="41.20682" lon="-8.28367">
        <ele>307.0858</ele>
        <time>2021-07-06T12:26:40Z</time>
      </trkpt>
      <trkpt lat="41.20711" lon="-8.28406">
        <ele>303.4619</ele>
        <time>2021-07-06T12:26:52Z</time>
      </trkpt>
      <trkpt lat="41.20779" lon="-8.28445">
        <ele>292.8051</ele>
        <time>2021-07-06T12:27:03Z</time>
      </trkpt>
      <trkpt lat="41.20845" lon="-8.28487">
        <ele>282.5086</ele>
        <time>2021-07-06T12:27:14Z</time>
      </trkpt>
      <trkpt lat="41.20876" lon="-8.28547">
        <ele>271.2175</ele>
        <time>2021-07-06T12:27:25Z</time>
      </trkpt>
      <trkpt lat="41.20883" lon="-8.28566">
        <ele>266.0932</ele>
        <time>2021-07-06T12:27:36Z</time>
      </trkpt>
      <trkpt lat="41.209" lon="-8.28636">
        <ele>250.6437</ele>
        <time>2021-07-06T12:27:47Z</time>
      </trkpt>
      <trkpt lat="41.20903" lon="-8.2864">
        <ele>252.7523</ele>
        <time>2021-07-06T12:27:59Z</time>
      </trkpt>
      <trkpt lat="41.20903" lon="-8.28647">
        <ele>258.636</ele>
        <time>2021-07-06T12:28:20Z</time>
      </trkpt>
      <trkpt lat="41.20847" lon="-8.28788">
        <ele>245.6415</ele>
        <time>2021-07-06T12:28:31Z</time>
      </trkpt>
      <trkpt lat="41.20761" lon="-8.28973">
        <ele>229.2582</ele>
        <time>2021-07-06T12:28:42Z</time>
      </trkpt>
      <trkpt lat="41.20822" lon="-8.2915">
        <ele>217.3827</ele>
        <time>2021-07-06T12:28:53Z</time>
      </trkpt>
      <trkpt lat="41.20941" lon="-8.29392">
        <ele>212.9871</ele>
        <time>2021-07-06T12:29:04Z</time>
      </trkpt>
      <trkpt lat="41.21012" lon="-8.29573">
        <ele>210.2673</ele>
        <time>2021-07-06T12:29:16Z</time>
      </trkpt>
      <trkpt lat="41.20957" lon="-8.2976">
        <ele>205.4142</ele>
        <time>2021-07-06T12:29:27Z</time>
      </trkpt>
      <trkpt lat="41.20889" lon="-8.29964">
        <ele>208.421</ele>
        <time>2021-07-06T12:29:38Z</time>
      </trkpt>
      <trkpt lat="41.20809" lon="-8.30152">
        <ele>208.1933</ele>
        <time>2021-07-06T12:29:49Z</time>
      </trkpt>
      <trkpt lat="41.20752" lon="-8.30377">
        <ele>198.8389</ele>
        <time>2021-07-06T12:30:00Z</time>
      </trkpt>
      <trkpt lat="41.20672" lon="-8.30575">
        <ele>191.7602</ele>
        <time>2021-07-06T12:30:11Z</time>
      </trkpt>
      <trkpt lat="41.2059" lon="-8.30752">
        <ele>193.1062</ele>
        <time>2021-07-06T12:30:22Z</time>
      </trkpt>
      <trkpt lat="41.20585" lon="-8.30948">
        <ele>188.4743</ele>
        <time>2021-07-06T12:30:33Z</time>
      </trkpt>
      <trkpt lat="41.20672" lon="-8.3113">
        <ele>179.8533</ele>
        <time>2021-07-06T12:30:44Z</time>
      </trkpt>
      <trkpt lat="41.20677" lon="-8.31325">
        <ele>174.0426</ele>
        <time>2021-07-06T12:30:55Z</time>
      </trkpt>
      <trkpt lat="41.20612" lon="-8.31484">
        <ele>171.6362</ele>
        <time>2021-07-06T12:31:06Z</time>
      </trkpt>
      <trkpt lat="41.20526" lon="-8.31609">
        <ele>166.5652</ele>
        <time>2021-07-06T12:31:17Z</time>
      </trkpt>
      <trkpt lat="41.20461" lon="-8.31744">
        <ele>159.2313</ele>
        <time>2021-07-06T12:31:28Z</time>
      </trkpt>
      <trkpt lat="41.2043" lon="-8.31876">
        <ele>152.3531</ele>
        <time>2021-07-06T12:31:40Z</time>
      </trkpt>
      <trkpt lat="41.20325" lon="-8.31961">
        <ele>139.4502</ele>
        <time>2021-07-06T12:31:51Z</time>
      </trkpt>
      <trkpt lat="41.20282" lon="-8.31993">
        <ele>138.1518</ele>
        <time>2021-07-06T12:32:02Z</time>
      </trkpt>
      <trkpt lat="41.20276" lon="-8.32028">
        <ele>141.7588</ele>
        <time>2021-07-06T12:32:13Z</time>
      </trkpt>
      <trkpt lat="41.20302" lon="-8.32241">
        <ele>138.5537</ele>
        <time>2021-07-06T12:32:24Z</time>
      </trkpt>
      <trkpt lat="41.20386" lon="-8.32304">
        <ele>137.8898</ele>
        <time>2021-07-06T12:32:35Z</time>
      </trkpt>
      <trkpt lat="41.20473" lon="-8.324">
        <ele>137.1185</ele>
        <time>2021-07-06T12:32:46Z</time>
      </trkpt>
      <trkpt lat="41.20427" lon="-8.32481">
        <ele>147.0442</ele>
        <time>2021-07-06T12:32:57Z</time>
      </trkpt>
      <trkpt lat="41.20373" lon="-8.3256">
        <ele>158.4582</ele>
        <time>2021-07-06T12:33:08Z</time>
      </trkpt>
      <trkpt lat="41.20311" lon="-8.32651">
        <ele>153.9797</ele>
        <time>2021-07-06T12:33:19Z</time>
      </trkpt>
      <trkpt lat="41.20295" lon="-8.32801">
        <ele>152.3588</ele>
        <time>2021-07-06T12:33:30Z</time>
      </trkpt>
      <trkpt lat="41.20302" lon="-8.3289">
        <ele>157.1803</ele>
        <time>2021-07-06T12:33:41Z</time>
      </trkpt>
      <trkpt lat="41.203" lon="-8.32997">
        <ele>159.0585</ele>
        <time>2021-07-06T12:33:52Z</time>
      </trkpt>
      <trkpt lat="41.20313" lon="-8.33105">
        <ele>165.7265</ele>
        <time>2021-07-06T12:34:03Z</time>
      </trkpt>
      <trkpt lat="41.20384" lon="-8.33204">
        <ele>170.7484</ele>
        <time>2021-07-06T12:34:14Z</time>
      </trkpt>
      <trkpt lat="41.2045" lon="-8.33294">
        <ele>171.0558</ele>
        <time>2021-07-06T12:34:25Z</time>
      </trkpt>
      <trkpt lat="41.20501" lon="-8.33362">
        <ele>167.8934</ele>
        <time>2021-07-06T12:34:36Z</time>
      </trkpt>
      <trkpt lat="41.20562" lon="-8.33446">
        <ele>163.3899</ele>
        <time>2021-07-06T12:34:47Z</time>
      </trkpt>
      <trkpt lat="41.20633" lon="-8.33538">
        <ele>164.2219</ele>
        <time>2021-07-06T12:34:58Z</time>
      </trkpt>
      <trkpt lat="41.20619" lon="-8.33641">
        <ele>164.5036</ele>
        <time>2021-07-06T12:35:09Z</time>
      </trkpt>
      <trkpt lat="41.20606" lon="-8.33692">
        <ele>164.0223</ele>
        <time>2021-07-06T12:35:20Z</time>
      </trkpt>
      <trkpt lat="41.2059" lon="-8.33778">
        <ele>161.0571</ele>
        <time>2021-07-06T12:35:31Z</time>
      </trkpt>
      <trkpt lat="41.2055" lon="-8.33925">
        <ele>160.0137</ele>
        <time>2021-07-06T12:35:42Z</time>
      </trkpt>
      <trkpt lat="41.20456" lon="-8.33996">
        <ele>157.8213</ele>
        <time>2021-07-06T12:35:53Z</time>
      </trkpt>
      <trkpt lat="41.20362" lon="-8.3404">
        <ele>158.1736</ele>
        <time>2021-07-06T12:36:04Z</time>
      </trkpt>
      <trkpt lat="41.20266" lon="-8.3413">
        <ele>163.7196</ele>
        <time>2021-07-06T12:36:15Z</time>
      </trkpt>
      <trkpt lat="41.2017" lon="-8.34229">
        <ele>167.9787</ele>
        <time>2021-07-06T12:36:26Z</time>
      </trkpt>
      <trkpt lat="41.20072" lon="-8.34376">
        <ele>168.4016</ele>
        <time>2021-07-06T12:36:37Z</time>
      </trkpt>
      <trkpt lat="41.20018" lon="-8.34533">
        <ele>164.2368</ele>
        <time>2021-07-06T12:36:48Z</time>
      </trkpt>
      <trkpt lat="41.19975" lon="-8.34607">
        <ele>166.3278</ele>
        <time>2021-07-06T12:36:59Z</time>
      </trkpt>
      <trkpt lat="41.19932" lon="-8.34671">
        <ele>167.153</ele>
        <time>2021-07-06T12:37:10Z</time>
      </trkpt>
      <trkpt lat="41.19862" lon="-8.34789">
        <ele>157.5696</ele>
        <time>2021-07-06T12:37:21Z</time>
      </trkpt>
      <trkpt lat="41.19801" lon="-8.3495">
        <ele>158.1368</ele>
        <time>2021-07-06T12:37:32Z</time>
      </trkpt>
      <trkpt lat="41.19753" lon="-8.35122">
        <ele>166.3099</ele>
        <time>2021-07-06T12:37:43Z</time>
      </trkpt>
      <trkpt lat="41.19759" lon="-8.35289">
        <ele>173.9126</ele>
        <time>2021-07-06T12:37:54Z</time>
      </trkpt>
      <trkpt lat="41.19843" lon="-8.35451">
        <ele>184.399</ele>
        <time>2021-07-06T12:38:05Z</time>
      </trkpt>
      <trkpt lat="41.19889" lon="-8.35639">
        <ele>191.0823</ele>
        <time>2021-07-06T12:38:16Z</time>
      </trkpt>
      <trkpt lat="41.19938" lon="-8.35797">
        <ele>196.2489</ele>
        <time>2021-07-06T12:38:27Z</time>
      </trkpt>
      <trkpt lat="41.19922" lon="-8.35956">
        <ele>203.6974</ele>
        <time>2021-07-06T12:38:38Z</time>
      </trkpt>
      <trkpt lat="41.1983" lon="-8.36055">
        <ele>208.4328</ele>
        <time>2021-07-06T12:38:49Z</time>
      </trkpt>
      <trkpt lat="41.19735" lon="-8.36168">
        <ele>217.4367</ele>
        <time>2021-07-06T12:39:00Z</time>
      </trkpt>
      <trkpt lat="41.19644" lon="-8.36324">
        <ele>220.2362</ele>
        <time>2021-07-06T12:39:11Z</time>
      </trkpt>
      <trkpt lat="41.19518" lon="-8.36362">
        <ele>226.1959</ele>
        <time>2021-07-06T12:39:22Z</time>
      </trkpt>
      <trkpt lat="41.19458" lon="-8.36521">
        <ele>233.3905</ele>
        <time>2021-07-06T12:39:33Z</time>
      </trkpt>
      <trkpt lat="41.19328" lon="-8.36543">
        <ele>240.3809</ele>
        <time>2021-07-06T12:39:44Z</time>
      </trkpt>
      <trkpt lat="41.19214" lon="-8.36611">
        <ele>245.7188</ele>
        <time>2021-07-06T12:39:55Z</time>
      </trkpt>
      <trkpt lat="41.19059" lon="-8.36715">
        <ele>253.5056</ele>
        <time>2021-07-06T12:40:07Z</time>
      </trkpt>
      <trkpt lat="41.18875" lon="-8.36805">
        <ele>266.2997</ele>
        <time>2021-07-06T12:40:18Z</time>
      </trkpt>
      <trkpt lat="41.18772" lon="-8.36958">
        <ele>275.6764</ele>
        <time>2021-07-06T12:40:29Z</time>
      </trkpt>
      <trkpt lat="41.18741" lon="-8.3715">
        <ele>279.4464</ele>
        <time>2021-07-06T12:40:40Z</time>
      </trkpt>
      <trkpt lat="41.18712" lon="-8.37352">
        <ele>276.6603</ele>
        <time>2021-07-06T12:40:51Z</time>
      </trkpt>
      <trkpt lat="41.18688" lon="-8.37545">
        <ele>270.2672</ele>
        <time>2021-07-06T12:41:02Z</time>
      </trkpt>
      <trkpt lat="41.18733" lon="-8.37728">
        <ele>266.7419</ele>
        <time>2021-07-06T12:41:13Z</time>
      </trkpt>
      <trkpt lat="41.18809" lon="-8.37904">
        <ele>272.7926</ele>
        <time>2021-07-06T12:41:24Z</time>
      </trkpt>
      <trkpt lat="41.18875" lon="-8.38052">
        <ele>278.9909</ele>
        <time>2021-07-06T12:41:35Z</time>
      </trkpt>
      <trkpt lat="41.1895" lon="-8.38231">
        <ele>285.3688</ele>
        <time>2021-07-06T12:41:46Z</time>
      </trkpt>
      <trkpt lat="41.19038" lon="-8.38365">
        <ele>284.327</ele>
        <time>2021-07-06T12:41:57Z</time>
      </trkpt>
      <trkpt lat="41.19128" lon="-8.38457">
        <ele>288.6639</ele>
        <time>2021-07-06T12:42:08Z</time>
      </trkpt>
      <trkpt lat="41.19188" lon="-8.38599">
        <ele>292.8798</ele>
        <time>2021-07-06T12:42:19Z</time>
      </trkpt>
      <trkpt lat="41.19253" lon="-8.38758">
        <ele>296.3372</ele>
        <time>2021-07-06T12:42:30Z</time>
      </trkpt>
      <trkpt lat="41.19271" lon="-8.38815">
        <ele>297.1256</ele>
        <time>2021-07-06T12:42:41Z</time>
      </trkpt>
      <trkpt lat="41.19258" lon="-8.38923">
        <ele>301.7037</ele>
        <time>2021-07-06T12:42:52Z</time>
      </trkpt>
      <trkpt lat="41.19229" lon="-8.39043">
        <ele>302.5794</ele>
        <time>2021-07-06T12:43:03Z</time>
      </trkpt>
      <trkpt lat="41.19198" lon="-8.39169">
        <ele>300.8388</ele>
        <time>2021-07-06T12:43:14Z</time>
      </trkpt>
      <trkpt lat="41.19102" lon="-8.39306">
        <ele>298.9578</ele>
        <time>2021-07-06T12:43:25Z</time>
      </trkpt>
      <trkpt lat="41.19035" lon="-8.39441">
        <ele>303.1578</ele>
        <time>2021-07-06T12:43:36Z</time>
      </trkpt>
      <trkpt lat="41.19043" lon="-8.3963">
        <ele>306.7696</ele>
        <time>2021-07-06T12:43:47Z</time>
      </trkpt>
      <trkpt lat="41.19046" lon="-8.39813">
        <ele>312.9322</ele>
        <time>2021-07-06T12:43:58Z</time>
      </trkpt>
      <trkpt lat="41.19061" lon="-8.40003">
        <ele>316.0619</ele>
        <time>2021-07-06T12:44:09Z</time>
      </trkpt>
      <trkpt lat="41.19115" lon="-8.40174">
        <ele>311.5412</ele>
        <time>2021-07-06T12:44:20Z</time>
      </trkpt>
      <trkpt lat="41.19114" lon="-8.40379">
        <ele>312.5039</ele>
        <time>2021-07-06T12:44:31Z</time>
      </trkpt>
      <trkpt lat="41.19137" lon="-8.40564">
        <ele>311.7586</ele>
        <time>2021-07-06T12:44:42Z</time>
      </trkpt>
      <trkpt lat="41.19227" lon="-8.40701">
        <ele>304.3923</ele>
        <time>2021-07-06T12:44:53Z</time>
      </trkpt>
      <trkpt lat="41.19363" lon="-8.40711">
        <ele>300.5007</ele>
        <time>2021-07-06T12:45:04Z</time>
      </trkpt>
      <trkpt lat="41.19449" lon="-8.40843">
        <ele>297.6399</ele>
        <time>2021-07-06T12:45:15Z</time>
      </trkpt>
      <trkpt lat="41.19368" lon="-8.41003">
        <ele>292.9143</ele>
        <time>2021-07-06T12:45:26Z</time>
      </trkpt>
      <trkpt lat="41.19252" lon="-8.41154">
        <ele>278.3342</ele>
        <time>2021-07-06T12:45:37Z</time>
      </trkpt>
      <trkpt lat="41.19269" lon="-8.41381">
        <ele>260.5994</ele>
        <time>2021-07-06T12:45:48Z</time>
      </trkpt>
      <trkpt lat="41.19318" lon="-8.41602">
        <ele>243.9764</ele>
        <time>2021-07-06T12:45:59Z</time>
      </trkpt>
      <trkpt lat="41.19424" lon="-8.41806">
        <ele>227.0537</ele>
        <time>2021-07-06T12:46:10Z</time>
      </trkpt>
      <trkpt lat="41.19534" lon="-8.41998">
        <ele>213.5548</ele>
        <time>2021-07-06T12:46:21Z</time>
      </trkpt>
      <trkpt lat="41.19656" lon="-8.42143">
        <ele>204.5362</ele>
        <time>2021-07-06T12:46:32Z</time>
      </trkpt>
      <trkpt lat="41.19726" lon="-8.42327">
        <ele>196.2455</ele>
        <time>2021-07-06T12:46:43Z</time>
      </trkpt>
      <trkpt lat="41.19718" lon="-8.42501">
        <ele>188.9012</ele>
        <time>2021-07-06T12:46:54Z</time>
      </trkpt>
      <trkpt lat="41.19592" lon="-8.4255">
        <ele>180.3587</ele>
        <time>2021-07-06T12:47:05Z</time>
      </trkpt>
      <trkpt lat="41.19535" lon="-8.42706">
        <ele>172.0924</ele>
        <time>2021-07-06T12:47:16Z</time>
      </trkpt>
      <trkpt lat="41.19609" lon="-8.42853">
        <ele>161.7498</ele>
        <time>2021-07-06T12:47:27Z</time>
      </trkpt>
      <trkpt lat="41.19638" lon="-8.42993">
        <ele>158.3642</ele>
        <time>2021-07-06T12:47:38Z</time>
      </trkpt>
      <trkpt lat="41.1965" lon="-8.43167">
        <ele>154.2011</ele>
        <time>2021-07-06T12:47:49Z</time>
      </trkpt>
      <trkpt lat="41.19657" lon="-8.43319">
        <ele>151.392</ele>
        <time>2021-07-06T12:48:00Z</time>
      </trkpt>
      <trkpt lat="41.19625" lon="-8.43395">
        <ele>152.0176</ele>
        <time>2021-07-06T12:48:11Z</time>
      </trkpt>
      <trkpt lat="41.19582" lon="-8.43431">
        <ele>150.7636</ele>
        <time>2021-07-06T12:48:22Z</time>
      </trkpt>
      <trkpt lat="41.19496" lon="-8.43564">
        <ele>147.156</ele>
        <time>2021-07-06T12:48:33Z</time>
      </trkpt>
      <trkpt lat="41.19388" lon="-8.43629">
        <ele>146.1894</ele>
        <time>2021-07-06T12:48:44Z</time>
      </trkpt>
      <trkpt lat="41.19195" lon="-8.43551">
        <ele>138.7675</ele>
        <time>2021-07-06T12:48:55Z</time>
      </trkpt>
      <trkpt lat="41.1901" lon="-8.43566">
        <ele>141.0404</ele>
        <time>2021-07-06T12:49:06Z</time>
      </trkpt>
      <trkpt lat="41.18846" lon="-8.43622">
        <ele>125.7624</ele>
        <time>2021-07-06T12:49:17Z</time>
      </trkpt>
      <trkpt lat="41.18673" lon="-8.43736">
        <ele>119.8726</ele>
        <time>2021-07-06T12:49:28Z</time>
      </trkpt>
      <trkpt lat="41.18569" lon="-8.43743">
        <ele>121.2944</ele>
        <time>2021-07-06T12:49:39Z</time>
      </trkpt>
      <trkpt lat="41.18469" lon="-8.43858">
        <ele>127.3473</ele>
        <time>2021-07-06T12:49:50Z</time>
      </trkpt>
      <trkpt lat="41.1841" lon="-8.43972">
        <ele>132.1088</ele>
        <time>2021-07-06T12:50:01Z</time>
      </trkpt>
      <trkpt lat="41.18321" lon="-8.44121">
        <ele>130.737</ele>
        <time>2021-07-06T12:50:12Z</time>
      </trkpt>
      <trkpt lat="41.18242" lon="-8.44269">
        <ele>126.3468</ele>
        <time>2021-07-06T12:50:23Z</time>
      </trkpt>
      <trkpt lat="41.18257" lon="-8.44368">
        <ele>122.9616</ele>
        <time>2021-07-06T12:50:34Z</time>
      </trkpt>
      <trkpt lat="41.18301" lon="-8.44479">
        <ele>125.2474</ele>
        <time>2021-07-06T12:50:45Z</time>
      </trkpt>
      <trkpt lat="41.18365" lon="-8.44589">
        <ele>129.3583</ele>
        <time>2021-07-06T12:50:56Z</time>
      </trkpt>
      <trkpt lat="41.18415" lon="-8.44679">
        <ele>127.0743</ele>
        <time>2021-07-06T12:51:07Z</time>
      </trkpt>
      <trkpt lat="41.18479" lon="-8.44796">
        <ele>125.3706</ele>
        <time>2021-07-06T12:51:18Z</time>
      </trkpt>
      <trkpt lat="41.18528" lon="-8.44923">
        <ele>123.6525</ele>
        <time>2021-07-06T12:51:29Z</time>
      </trkpt>
      <trkpt lat="41.18532" lon="-8.44977">
        <ele>131.7861</ele>
        <time>2021-07-06T12:51:40Z</time>
      </trkpt>
      <trkpt lat="41.18535" lon="-8.45058">
        <ele>132.9535</ele>
        <time>2021-07-06T12:51:51Z</time>
      </trkpt>
      <trkpt lat="41.18535" lon="-8.45243">
        <ele>126.6717</ele>
        <time>2021-07-06T12:52:02Z</time>
      </trkpt>
      <trkpt lat="41.18501" lon="-8.45438">
        <ele>118.8049</ele>
        <time>2021-07-06T12:52:13Z</time>
      </trkpt>
      <trkpt lat="41.1852" lon="-8.45594">
        <ele>113.939</ele>
        <time>2021-07-06T12:52:24Z</time>
      </trkpt>
      <trkpt lat="41.18495" lon="-8.45786">
        <ele>113.3005</ele>
        <time>2021-07-06T12:52:35Z</time>
      </trkpt>
      <trkpt lat="41.18424" lon="-8.45973">
        <ele>105.0904</ele>
        <time>2021-07-06T12:52:46Z</time>
      </trkpt>
      <trkpt lat="41.18355" lon="-8.46148">
        <ele>96.90689</ele>
        <time>2021-07-06T12:52:57Z</time>
      </trkpt>
      <trkpt lat="41.18289" lon="-8.46278">
        <ele>92.22249</ele>
        <time>2021-07-06T12:53:08Z</time>
      </trkpt>
      <trkpt lat="41.18285" lon="-8.4628">
        <ele>94.65801</ele>
        <time>2021-07-06T12:53:19Z</time>
      </trkpt>
      <trkpt lat="41.1828" lon="-8.46284">
        <ele>101.7787</ele>
        <time>2021-07-06T12:54:07Z</time>
      </trkpt>
      <trkpt lat="41.18251" lon="-8.46396">
        <ele>102.0226</ele>
        <time>2021-07-06T12:54:18Z</time>
      </trkpt>
      <trkpt lat="41.18242" lon="-8.46578">
        <ele>101.769</ele>
        <time>2021-07-06T12:54:29Z</time>
      </trkpt>
      <trkpt lat="41.18224" lon="-8.46756">
        <ele>103.0174</ele>
        <time>2021-07-06T12:54:40Z</time>
      </trkpt>
      <trkpt lat="41.18301" lon="-8.4689">
        <ele>105.0755</ele>
        <time>2021-07-06T12:54:51Z</time>
      </trkpt>
      <trkpt lat="41.18362" lon="-8.47027">
        <ele>104.215</ele>
        <time>2021-07-06T12:55:02Z</time>
      </trkpt>
      <trkpt lat="41.18373" lon="-8.47235">
        <ele>109.3852</ele>
        <time>2021-07-06T12:55:13Z</time>
      </trkpt>
      <trkpt lat="41.18364" lon="-8.47378">
        <ele>108.1403</ele>
        <time>2021-07-06T12:55:24Z</time>
      </trkpt>
      <trkpt lat="41.18295" lon="-8.47436">
        <ele>109.591</ele>
        <time>2021-07-06T12:55:35Z</time>
      </trkpt>
      <trkpt lat="41.18226" lon="-8.47562">
        <ele>113.3261</ele>
        <time>2021-07-06T12:55:46Z</time>
      </trkpt>
      <trkpt lat="41.18217" lon="-8.47766">
        <ele>119.4603</ele>
        <time>2021-07-06T12:55:57Z</time>
      </trkpt>
      <trkpt lat="41.18245" lon="-8.47968">
        <ele>125.1994</ele>
        <time>2021-07-06T12:56:08Z</time>
      </trkpt>
      <trkpt lat="41.18247" lon="-8.48147">
        <ele>128.8201</ele>
        <time>2021-07-06T12:56:19Z</time>
      </trkpt>
      <trkpt lat="41.18318" lon="-8.48294">
        <ele>121.9141</ele>
        <time>2021-07-06T12:56:30Z</time>
      </trkpt>
      <trkpt lat="41.18357" lon="-8.48343">
        <ele>122.0563</ele>
        <time>2021-07-06T12:56:41Z</time>
      </trkpt>
      <trkpt lat="41.1836" lon="-8.48347">
        <ele>123.94</ele>
        <time>2021-07-06T12:56:56Z</time>
      </trkpt>
      <trkpt lat="41.18426" lon="-8.48486">
        <ele>122.6824</ele>
        <time>2021-07-06T12:57:07Z</time>
      </trkpt>
      <trkpt lat="41.18518" lon="-8.48645">
        <ele>123.4598</ele>
        <time>2021-07-06T12:57:18Z</time>
      </trkpt>
      <trkpt lat="41.18625" lon="-8.48768">
        <ele>123.8354</ele>
        <time>2021-07-06T12:57:29Z</time>
      </trkpt>
      <trkpt lat="41.18731" lon="-8.48891">
        <ele>123.4066</ele>
        <time>2021-07-06T12:57:40Z</time>
      </trkpt>
      <trkpt lat="41.18774" lon="-8.49042">
        <ele>125.1705</ele>
        <time>2021-07-06T12:57:52Z</time>
      </trkpt>
      <trkpt lat="41.18797" lon="-8.49219">
        <ele>133.0941</ele>
        <time>2021-07-06T12:58:03Z</time>
      </trkpt>
      <trkpt lat="41.18844" lon="-8.49365">
        <ele>140.3068</ele>
        <time>2021-07-06T12:58:14Z</time>
      </trkpt>
      <trkpt lat="41.18891" lon="-8.49508">
        <ele>143.2267</ele>
        <time>2021-07-06T12:58:25Z</time>
      </trkpt>
      <trkpt lat="41.18922" lon="-8.49615">
        <ele>141.0988</ele>
        <time>2021-07-06T12:58:36Z</time>
      </trkpt>
      <trkpt lat="41.18931" lon="-8.49685">
        <ele>138.8028</ele>
        <time>2021-07-06T12:58:47Z</time>
      </trkpt>
      <trkpt lat="41.18949" lon="-8.49748">
        <ele>144.8728</ele>
        <time>2021-07-06T12:58:58Z</time>
      </trkpt>
      <trkpt lat="41.18933" lon="-8.49854">
        <ele>142.2339</ele>
        <time>2021-07-06T12:59:09Z</time>
      </trkpt>
      <trkpt lat="41.18908" lon="-8.49945">
        <ele>145.1282</ele>
        <time>2021-07-06T12:59:20Z</time>
      </trkpt>
      <trkpt lat="41.18894" lon="-8.50036">
        <ele>145.3504</ele>
        <time>2021-07-06T12:59:31Z</time>
      </trkpt>
      <trkpt lat="41.18907" lon="-8.50105">
        <ele>144.9331</ele>
        <time>2021-07-06T12:59:42Z</time>
      </trkpt>
      <trkpt lat="41.18921" lon="-8.50161">
        <ele>145.2804</ele>
        <time>2021-07-06T12:59:53Z</time>
      </trkpt>
      <trkpt lat="41.18929" lon="-8.50196">
        <ele>146.6166</ele>
        <time>2021-07-06T13:00:04Z</time>
      </trkpt>
      <trkpt lat="41.1893" lon="-8.50203">
        <ele>146.6964</ele>
        <time>2021-07-06T13:00:30Z</time>
      </trkpt>
      <trkpt lat="41.1895" lon="-8.50281">
        <ele>150.173</ele>
        <time>2021-07-06T13:00:41Z</time>
      </trkpt>
      <trkpt lat="41.18977" lon="-8.50402">
        <ele>159.1376</ele>
        <time>2021-07-06T13:00:52Z</time>
      </trkpt>
      <trkpt lat="41.19022" lon="-8.50567">
        <ele>170.7624</ele>
        <time>2021-07-06T13:01:03Z</time>
      </trkpt>
      <trkpt lat="41.19134" lon="-8.50716">
        <ele>179.9041</ele>
        <time>2021-07-06T13:01:14Z</time>
      </trkpt>
      <trkpt lat="41.19172" lon="-8.50948">
        <ele>188.1033</ele>
        <time>2021-07-06T13:01:25Z</time>
      </trkpt>
      <trkpt lat="41.19143" lon="-8.50977">
        <ele>189.1646</ele>
        <time>2021-07-06T13:01:37Z</time>
      </trkpt>
      <trkpt lat="41.19105" lon="-8.51116">
        <ele>194.5629</ele>
        <time>2021-07-06T13:01:48Z</time>
      </trkpt>
      <trkpt lat="41.19151" lon="-8.51313">
        <ele>204.9607</ele>
        <time>2021-07-06T13:01:59Z</time>
      </trkpt>
      <trkpt lat="41.19257" lon="-8.51484">
        <ele>218.8768</ele>
        <time>2021-07-06T13:02:10Z</time>
      </trkpt>
      <trkpt lat="41.19344" lon="-8.51623">
        <ele>223.2396</ele>
        <time>2021-07-06T13:02:21Z</time>
      </trkpt>
      <trkpt lat="41.19368" lon="-8.51663">
        <ele>227.437</ele>
        <time>2021-07-06T13:02:32Z</time>
      </trkpt>
      <trkpt lat="41.19392" lon="-8.51693">
        <ele>232.1351</ele>
        <time>2021-07-06T13:02:43Z</time>
      </trkpt>
      <trkpt lat="41.19443" lon="-8.51757">
        <ele>235.8064</ele>
        <time>2021-07-06T13:02:54Z</time>
      </trkpt>
      <trkpt lat="41.19363" lon="-8.5182">
        <ele>232.1316</ele>
        <time>2021-07-06T13:03:05Z</time>
      </trkpt>
      <trkpt lat="41.19233" lon="-8.51848">
        <ele>224.9711</ele>
        <time>2021-07-06T13:03:16Z</time>
      </trkpt>
      <trkpt lat="41.1912" lon="-8.51855">
        <ele>220.0439</ele>
        <time>2021-07-06T13:03:27Z</time>
      </trkpt>
      <trkpt lat="41.19142" lon="-8.51989">
        <ele>213.8826</ele>
        <time>2021-07-06T13:03:38Z</time>
      </trkpt>
      <trkpt lat="41.1911" lon="-8.52177">
        <ele>206.3546</ele>
        <time>2021-07-06T13:03:49Z</time>
      </trkpt>
      <trkpt lat="41.19117" lon="-8.52366">
        <ele>206.1673</ele>
        <time>2021-07-06T13:04:00Z</time>
      </trkpt>
      <trkpt lat="41.19017" lon="-8.52405">
        <ele>193.8959</ele>
        <time>2021-07-06T13:04:11Z</time>
      </trkpt>
      <trkpt lat="41.1894" lon="-8.52466">
        <ele>185.4735</ele>
        <time>2021-07-06T13:04:22Z</time>
      </trkpt>
      <trkpt lat="41.18858" lon="-8.52527">
        <ele>176.943</ele>
        <time>2021-07-06T13:04:33Z</time>
      </trkpt>
      <trkpt lat="41.18769" lon="-8.52498">
        <ele>173.7078</ele>
        <time>2021-07-06T13:04:44Z</time>
      </trkpt>
      <trkpt lat="41.18676" lon="-8.52496">
        <ele>167.512</ele>
        <time>2021-07-06T13:04:55Z</time>
      </trkpt>
      <trkpt lat="41.18567" lon="-8.52534">
        <ele>157.6215</ele>
        <time>2021-07-06T13:05:06Z</time>
      </trkpt>
      <trkpt lat="41.18525" lon="-8.52575">
        <ele>153.3296</ele>
        <time>2021-07-06T13:05:17Z</time>
      </trkpt>
      <trkpt lat="41.18509" lon="-8.52592">
        <ele>152.6772</ele>
        <time>2021-07-06T13:05:28Z</time>
      </trkpt>
      <trkpt lat="41.18465" lon="-8.52644">
        <ele>146.7521</ele>
        <time>2021-07-06T13:05:39Z</time>
      </trkpt>
      <trkpt lat="41.18465" lon="-8.52649">
        <ele>149.5507</ele>
        <time>2021-07-06T13:05:50Z</time>
      </trkpt>
      <trkpt lat="41.18462" lon="-8.52653">
        <ele>153.1266</ele>
        <time>2021-07-06T13:06:21Z</time>
      </trkpt>
      <trkpt lat="41.18461" lon="-8.52649">
        <ele>152.9845</ele>
        <time>2021-07-06T13:07:11Z</time>
      </trkpt>
      <trkpt lat="41.18458" lon="-8.52645">
        <ele>160.0242</ele>
        <time>2021-07-06T13:07:32Z</time>
      </trkpt>
      <trkpt lat="41.18461" lon="-8.52649">
        <ele>155.484</ele>
        <time>2021-07-06T13:07:50Z</time>
      </trkpt>
      <trkpt lat="41.18464" lon="-8.52647">
        <ele>154.8405</ele>
        <time>2021-07-06T13:08:12Z</time>
      </trkpt>
      <trkpt lat="41.18462" lon="-8.52652">
        <ele>151.0178</ele>
        <time>2021-07-06T13:08:28Z</time>
      </trkpt>
      <trkpt lat="41.18432" lon="-8.5267">
        <ele>151.6713</ele>
        <time>2021-07-06T13:08:39Z</time>
      </trkpt>
      <trkpt lat="41.18347" lon="-8.52714">
        <ele>143.678</ele>
        <time>2021-07-06T13:08:50Z</time>
      </trkpt>
      <trkpt lat="41.18278" lon="-8.5282">
        <ele>143.8841</ele>
        <time>2021-07-06T13:09:01Z</time>
      </trkpt>
      <trkpt lat="41.18238" lon="-8.5298">
        <ele>136.4897</ele>
        <time>2021-07-06T13:09:12Z</time>
      </trkpt>
      <trkpt lat="41.18191" lon="-8.53127">
        <ele>127.7394</ele>
        <time>2021-07-06T13:09:23Z</time>
      </trkpt>
      <trkpt lat="41.18183" lon="-8.53238">
        <ele>120.9838</ele>
        <time>2021-07-06T13:09:34Z</time>
      </trkpt>
      <trkpt lat="41.18138" lon="-8.53408">
        <ele>119.3069</ele>
        <time>2021-07-06T13:09:45Z</time>
      </trkpt>
      <trkpt lat="41.18112" lon="-8.53535">
        <ele>113.3503</ele>
        <time>2021-07-06T13:09:56Z</time>
      </trkpt>
      <trkpt lat="41.1807" lon="-8.53645">
        <ele>111.7529</ele>
        <time>2021-07-06T13:10:07Z</time>
      </trkpt>
      <trkpt lat="41.17965" lon="-8.53781">
        <ele>111.581</ele>
        <time>2021-07-06T13:10:18Z</time>
      </trkpt>
      <trkpt lat="41.17851" lon="-8.53928">
        <ele>110.9015</ele>
        <time>2021-07-06T13:10:29Z</time>
      </trkpt>
      <trkpt lat="41.17779" lon="-8.541">
        <ele>109.1681</ele>
        <time>2021-07-06T13:10:40Z</time>
      </trkpt>
      <trkpt lat="41.17764" lon="-8.54132">
        <ele>110.2801</ele>
        <time>2021-07-06T13:10:51Z</time>
      </trkpt>
      <trkpt lat="41.17746" lon="-8.54178">
        <ele>110.7751</ele>
        <time>2021-07-06T13:11:02Z</time>
      </trkpt>
      <trkpt lat="41.1771" lon="-8.54297">
        <ele>112.2464</ele>
        <time>2021-07-06T13:11:13Z</time>
      </trkpt>
      <trkpt lat="41.17699" lon="-8.54331">
        <ele>115.6494</ele>
        <time>2021-07-06T13:11:24Z</time>
      </trkpt>
      <trkpt lat="41.17666" lon="-8.54396">
        <ele>117.0536</ele>
        <time>2021-07-06T13:11:35Z</time>
      </trkpt>
      <trkpt lat="41.17599" lon="-8.54477">
        <ele>119.2805</ele>
        <time>2021-07-06T13:11:46Z</time>
      </trkpt>
      <trkpt lat="41.17517" lon="-8.54524">
        <ele>119.8901</ele>
        <time>2021-07-06T13:11:57Z</time>
      </trkpt>
      <trkpt lat="41.17465" lon="-8.5458">
        <ele>122.3923</ele>
        <time>2021-07-06T13:12:08Z</time>
      </trkpt>
      <trkpt lat="41.17436" lon="-8.54594">
        <ele>123.6351</ele>
        <time>2021-07-06T13:12:19Z</time>
      </trkpt>
      <trkpt lat="41.17371" lon="-8.54619">
        <ele>125.0689</ele>
        <time>2021-07-06T13:12:30Z</time>
      </trkpt>
      <trkpt lat="41.17349" lon="-8.54639">
        <ele>128.8045</ele>
        <time>2021-07-06T13:12:41Z</time>
      </trkpt>
      <trkpt lat="41.17292" lon="-8.54722">
        <ele>125.5399</ele>
        <time>2021-07-06T13:12:52Z</time>
      </trkpt>
      <trkpt lat="41.17281" lon="-8.54853">
        <ele>128.9216</ele>
        <time>2021-07-06T13:13:03Z</time>
      </trkpt>
      <trkpt lat="41.17312" lon="-8.54956">
        <ele>126.0446</ele>
        <time>2021-07-06T13:13:14Z</time>
      </trkpt>
      <trkpt lat="41.17329" lon="-8.55005">
        <ele>122.953</ele>
        <time>2021-07-06T13:13:25Z</time>
      </trkpt>
      <trkpt lat="41.17366" lon="-8.55127">
        <ele>119.7803</ele>
        <time>2021-07-06T13:13:36Z</time>
      </trkpt>
      <trkpt lat="41.17387" lon="-8.55248">
        <ele>109.7005</ele>
        <time>2021-07-06T13:13:47Z</time>
      </trkpt>
      <trkpt lat="41.17371" lon="-8.55388">
        <ele>105.7791</ele>
        <time>2021-07-06T13:13:58Z</time>
      </trkpt>
      <trkpt lat="41.17361" lon="-8.55461">
        <ele>104.022</ele>
        <time>2021-07-06T13:14:09Z</time>
      </trkpt>
      <trkpt lat="41.17357" lon="-8.55488">
        <ele>106.083</ele>
        <time>2021-07-06T13:14:20Z</time>
      </trkpt>
      <trkpt lat="41.17413" lon="-8.55583">
        <ele>105.1718</ele>
        <time>2021-07-06T13:14:31Z</time>
      </trkpt>
      <trkpt lat="41.17488" lon="-8.55662">
        <ele>96.24344</ele>
        <time>2021-07-06T13:14:42Z</time>
      </trkpt>
      <trkpt lat="41.17538" lon="-8.55713">
        <ele>91.9276</ele>
        <time>2021-07-06T13:14:53Z</time>
      </trkpt>
      <trkpt lat="41.17594" lon="-8.55764">
        <ele>89.27618</ele>
        <time>2021-07-06T13:15:04Z</time>
      </trkpt>
      <trkpt lat="41.17645" lon="-8.55826">
        <ele>84.93011</ele>
        <time>2021-07-06T13:15:15Z</time>
      </trkpt>
      <trkpt lat="41.17681" lon="-8.55872">
        <ele>86.90288</ele>
        <time>2021-07-06T13:15:26Z</time>
      </trkpt>
      <trkpt lat="41.17707" lon="-8.55911">
        <ele>90.46016</ele>
        <time>2021-07-06T13:15:37Z</time>
      </trkpt>
      <trkpt lat="41.17741" lon="-8.55964">
        <ele>88.25494</ele>
        <time>2021-07-06T13:15:48Z</time>
      </trkpt>
      <trkpt lat="41.17803" lon="-8.56058">
        <ele>74.51334</ele>
        <time>2021-07-06T13:15:59Z</time>
      </trkpt>
      <trkpt lat="41.17776" lon="-8.56198">
        <ele>67.30147</ele>
        <time>2021-07-06T13:16:10Z</time>
      </trkpt>
      <trkpt lat="41.17827" lon="-8.56341">
        <ele>72.73495</ele>
        <time>2021-07-06T13:16:21Z</time>
      </trkpt>
      <trkpt lat="41.17867" lon="-8.56411">
        <ele>74.80265</ele>
        <time>2021-07-06T13:16:32Z</time>
      </trkpt>
      <trkpt lat="41.17889" lon="-8.5652">
        <ele>73.36188</ele>
        <time>2021-07-06T13:16:43Z</time>
      </trkpt>
      <trkpt lat="41.18016" lon="-8.56729">
        <ele>79.51684</ele>
        <time>2021-07-06T13:16:54Z</time>
      </trkpt>
      <trkpt lat="41.18101" lon="-8.56838">
        <ele>85.20645</ele>
        <time>2021-07-06T13:17:05Z</time>
      </trkpt>
      <trkpt lat="41.18036" lon="-8.5693">
        <ele>92.78872</ele>
        <time>2021-07-06T13:17:16Z</time>
      </trkpt>
      <trkpt lat="41.17972" lon="-8.57036">
        <ele>99.70289</ele>
        <time>2021-07-06T13:17:27Z</time>
      </trkpt>
      <trkpt lat="41.18013" lon="-8.5718">
        <ele>99.59989</ele>
        <time>2021-07-06T13:17:38Z</time>
      </trkpt>
      <trkpt lat="41.18009" lon="-8.57352">
        <ele>108.189</ele>
        <time>2021-07-06T13:17:49Z</time>
      </trkpt>
      <trkpt lat="41.18053" lon="-8.57511">
        <ele>113.1151</ele>
        <time>2021-07-06T13:18:00Z</time>
      </trkpt>
      <trkpt lat="41.181" lon="-8.57679">
        <ele>119.4901</ele>
        <time>2021-07-06T13:18:11Z</time>
      </trkpt>
      <trkpt lat="41.18081" lon="-8.57864">
        <ele>131.2633</ele>
        <time>2021-07-06T13:18:22Z</time>
      </trkpt>
      <trkpt lat="41.18063" lon="-8.58047">
        <ele>138.5594</ele>
        <time>2021-07-06T13:18:33Z</time>
      </trkpt>
      <trkpt lat="41.18056" lon="-8.58155">
        <ele>141.1014</ele>
        <time>2021-07-06T13:18:44Z</time>
      </trkpt>
      <trkpt lat="41.18047" lon="-8.58215">
        <ele>146.8225</ele>
        <time>2021-07-06T13:18:55Z</time>
      </trkpt>
      <trkpt lat="41.17935" lon="-8.58245">
        <ele>154.2717</ele>
        <time>2021-07-06T13:19:06Z</time>
      </trkpt>
      <trkpt lat="41.17795" lon="-8.58284">
        <ele>159.2347</ele>
        <time>2021-07-06T13:19:17Z</time>
      </trkpt>
      <trkpt lat="41.17788" lon="-8.58286">
        <ele>157.7215</ele>
        <time>2021-07-06T13:19:28Z</time>
      </trkpt>
      <trkpt lat="41.17784" lon="-8.58285">
        <ele>157.8942</ele>
        <time>2021-07-06T13:19:42Z</time>
      </trkpt>
      <trkpt lat="41.1765" lon="-8.58352">
        <ele>156.0904</ele>
        <time>2021-07-06T13:19:53Z</time>
      </trkpt>
      <trkpt lat="41.17521" lon="-8.58419">
        <ele>151.3548</ele>
        <time>2021-07-06T13:20:04Z</time>
      </trkpt>
      <trkpt lat="41.17481" lon="-8.58439">
        <ele>148.604</ele>
        <time>2021-07-06T13:20:15Z</time>
      </trkpt>
      <trkpt lat="41.17402" lon="-8.58478">
        <ele>149.3932</ele>
        <time>2021-07-06T13:20:26Z</time>
      </trkpt>
      <trkpt lat="41.17292" lon="-8.58536">
        <ele>143.4282</ele>
        <time>2021-07-06T13:20:37Z</time>
      </trkpt>
      <trkpt lat="41.17188" lon="-8.58588">
        <ele>142.6931</ele>
        <time>2021-07-06T13:20:48Z</time>
      </trkpt>
      <trkpt lat="41.17114" lon="-8.58625">
        <ele>145.441</ele>
        <time>2021-07-06T13:20:59Z</time>
      </trkpt>
      <trkpt lat="41.17106" lon="-8.58629">
        <ele>145.4686</ele>
        <time>2021-07-06T13:21:10Z</time>
      </trkpt>
      <trkpt lat="41.17099" lon="-8.58633">
        <ele>144.764</ele>
        <time>2021-07-06T13:21:23Z</time>
      </trkpt>
      <trkpt lat="41.17017" lon="-8.58673">
        <ele>145.9143</ele>
        <time>2021-07-06T13:21:34Z</time>
      </trkpt>
      <trkpt lat="41.16915" lon="-8.58726">
        <ele>147.3908</ele>
        <time>2021-07-06T13:21:45Z</time>
      </trkpt>
      <trkpt lat="41.16778" lon="-8.58796">
        <ele>154.4436</ele>
        <time>2021-07-06T13:21:56Z</time>
      </trkpt>
      <trkpt lat="41.16716" lon="-8.58826">
        <ele>153.5946</ele>
        <time>2021-07-06T13:22:07Z</time>
      </trkpt>
      <trkpt lat="41.16685" lon="-8.58836">
        <ele>153.309</ele>
        <time>2021-07-06T13:22:18Z</time>
      </trkpt>
      <trkpt lat="41.16586" lon="-8.58879">
        <ele>144.4672</ele>
        <time>2021-07-06T13:22:29Z</time>
      </trkpt>
      <trkpt lat="41.16535" lon="-8.58898">
        <ele>145.9782</ele>
        <time>2021-07-06T13:22:40Z</time>
      </trkpt>
      <trkpt lat="41.16461" lon="-8.5892">
        <ele>149.2843</ele>
        <time>2021-07-06T13:22:51Z</time>
      </trkpt>
      <trkpt lat="41.16449" lon="-8.58929">
        <ele>145.2768</ele>
        <time>2021-07-06T13:23:02Z</time>
      </trkpt>
      <trkpt lat="41.16446" lon="-8.58933">
        <ele>142.861</ele>
        <time>2021-07-06T13:23:21Z</time>
      </trkpt>
      <trkpt lat="41.16338" lon="-8.59021">
        <ele>142.4772</ele>
        <time>2021-07-06T13:23:32Z</time>
      </trkpt>
      <trkpt lat="41.16274" lon="-8.59076">
        <ele>145.4682</ele>
        <time>2021-07-06T13:23:43Z</time>
      </trkpt>
      <trkpt lat="41.16248" lon="-8.59104">
        <ele>147.6614</ele>
        <time>2021-07-06T13:23:54Z</time>
      </trkpt>
      <trkpt lat="41.16244" lon="-8.59107">
        <ele>147.8798</ele>
        <time>2021-07-06T13:24:07Z</time>
      </trkpt>
      <trkpt lat="41.16199" lon="-8.59145">
        <ele>152.3704</ele>
        <time>2021-07-06T13:24:18Z</time>
      </trkpt>
      <trkpt lat="41.16134" lon="-8.59198">
        <ele>150.8769</ele>
        <time>2021-07-06T13:24:29Z</time>
      </trkpt>
      <trkpt lat="41.161" lon="-8.59226">
        <ele>149.8749</ele>
        <time>2021-07-06T13:24:40Z</time>
      </trkpt>
      <trkpt lat="41.16084" lon="-8.59264">
        <ele>153.8796</ele>
        <time>2021-07-06T13:24:51Z</time>
      </trkpt>
      <trkpt lat="41.16052" lon="-8.59375">
        <ele>161.2098</ele>
        <time>2021-07-06T13:25:02Z</time>
      </trkpt>
      <trkpt lat="41.16072" lon="-8.59521">
        <ele>153.3657</ele>
        <time>2021-07-06T13:25:13Z</time>
      </trkpt>
      <trkpt lat="41.16094" lon="-8.59693">
        <ele>149.2037</ele>
        <time>2021-07-06T13:25:24Z</time>
      </trkpt>
      <trkpt lat="41.16106" lon="-8.59789">
        <ele>148.9453</ele>
        <time>2021-07-06T13:25:35Z</time>
      </trkpt>
      <trkpt lat="41.16104" lon="-8.59796">
        <ele>156.5842</ele>
        <time>2021-07-06T13:25:50Z</time>
      </trkpt>
      <trkpt lat="41.16124" lon="-8.59934">
        <ele>148.4949</ele>
        <time>2021-07-06T13:26:01Z</time>
      </trkpt>
      <trkpt lat="41.16132" lon="-8.59988">
        <ele>151.8222</ele>
        <time>2021-07-06T13:26:12Z</time>
      </trkpt>
      <trkpt lat="41.1614" lon="-8.60051">
        <ele>150.7568</ele>
        <time>2021-07-06T13:26:23Z</time>
      </trkpt>
      <trkpt lat="41.16164" lon="-8.60247">
        <ele>152.3431</ele>
        <time>2021-07-06T13:26:34Z</time>
      </trkpt>
      <trkpt lat="41.16177" lon="-8.60355">
        <ele>153.6328</ele>
        <time>2021-07-06T13:26:45Z</time>
      </trkpt>
      <trkpt lat="41.1618" lon="-8.60371">
        <ele>156.0975</ele>
        <time>2021-07-06T13:26:56Z</time>
      </trkpt>
      <trkpt lat="41.16182" lon="-8.60375">
        <ele>164.4535</ele>
        <time>2021-07-06T13:27:23Z</time>
      </trkpt>
      <trkpt lat="41.16196" lon="-8.60506">
        <ele>158.8532</ele>
        <time>2021-07-06T13:27:34Z</time>
      </trkpt>
      <trkpt lat="41.16204" lon="-8.60573">
        <ele>160.355</ele>
        <time>2021-07-06T13:27:45Z</time>
      </trkpt>
      <trkpt lat="41.16211" lon="-8.60619">
        <ele>158.3547</ele>
        <time>2021-07-06T13:27:56Z</time>
      </trkpt>
      <trkpt lat="41.16211" lon="-8.60619">
        <ele>164.3463</ele>
        <time>2021-07-06T13:28:55Z</time>
      </trkpt>
      <trkpt lat="41.16212" lon="-8.60625">
        <ele>160.9483</ele>
        <time>2021-07-06T13:29:20Z</time>
      </trkpt>
      <trkpt lat="41.16224" lon="-8.60615">
        <ele>159.1379</ele>
        <time>2021-07-06T13:29:31Z</time>
      </trkpt>
      <trkpt lat="41.16219" lon="-8.60614">
        <ele>153.6492</ele>
        <time>2021-07-06T13:29:43Z</time>
      </trkpt>
      <trkpt lat="41.1622" lon="-8.60623">
        <ele>145.8185</ele>
        <time>2021-07-06T13:29:54Z</time>
      </trkpt>
      <trkpt lat="41.16191" lon="-8.60637">
        <ele>146.892</ele>
        <time>2021-07-06T13:30:05Z</time>
      </trkpt>
      <trkpt lat="41.16186" lon="-8.60635">
        <ele>144.5954</ele>
        <time>2021-07-06T13:30:16Z</time>
      </trkpt>
      <trkpt lat="41.16174" lon="-8.60646">
        <ele>148.5101</ele>
        <time>2021-07-06T13:30:27Z</time>
      </trkpt>
      <trkpt lat="41.16177" lon="-8.60648">
        <ele>146.5139</ele>
        <time>2021-07-06T13:30:46Z</time>
      </trkpt>
      <trkpt lat="41.16171" lon="-8.60645">
        <ele>146.2018</ele>
        <time>2021-07-06T13:30:57Z</time>
      </trkpt>
      <trkpt lat="41.16169" lon="-8.60642">
        <ele>146.6534</ele>
        <time>2021-07-06T13:31:11Z</time>
      </trkpt>
      <trkpt lat="41.16168" lon="-8.60647">
        <ele>145.8992</ele>
        <time>2021-07-06T13:31:23Z</time>
      </trkpt>
      <trkpt lat="41.16167" lon="-8.60652">
        <ele>149.7081</ele>
        <time>2021-07-06T13:31:37Z</time>
      </trkpt>
      <trkpt lat="41.16173" lon="-8.60652">
        <ele>142.6652</ele>
        <time>2021-07-06T13:31:49Z</time>
      </trkpt>
      <trkpt lat="41.16178" lon="-8.60642">
        <ele>147.6484</ele>
        <time>2021-07-06T13:32:15Z</time>
      </trkpt>
      <trkpt lat="41.16175" lon="-8.60649">
        <ele>146.3093</ele>
        <time>2021-07-06T13:32:26Z</time>
      </trkpt>
      <trkpt lat="41.16174" lon="-8.60654">
        <ele>146.2733</ele>
        <time>2021-07-06T13:32:38Z</time>
      </trkpt>
      <trkpt lat="41.16171" lon="-8.60649">
        <ele>146.242</ele>
        <time>2021-07-06T13:32:49Z</time>
      </trkpt>
      <trkpt lat="41.16175" lon="-8.60652">
        <ele>146.2135</ele>
        <time>2021-07-06T13:33:06Z</time>
      </trkpt>
      <trkpt lat="41.16176" lon="-8.60646">
        <ele>145.3851</ele>
        <time>2021-07-06T13:33:18Z</time>
      </trkpt>
      <trkpt lat="41.16177" lon="-8.60653">
        <ele>145.806</ele>
        <time>2021-07-06T13:33:29Z</time>
      </trkpt>
      <trkpt lat="41.16179" lon="-8.60635">
        <ele>145.9908</ele>
        <time>2021-07-06T13:33:40Z</time>
      </trkpt>
      <trkpt lat="41.16186" lon="-8.60632">
        <ele>146.8868</ele>
        <time>2021-07-06T13:33:51Z</time>
      </trkpt>
      <trkpt lat="41.16191" lon="-8.60632">
        <ele>146.7265</ele>
        <time>2021-07-06T13:34:02Z</time>
      </trkpt>
      <trkpt lat="41.16214" lon="-8.60612">
        <ele>145.2965</ele>
        <time>2021-07-06T13:34:13Z</time>
      </trkpt>
      <trkpt lat="41.16219" lon="-8.60613">
        <ele>146.4893</ele>
        <time>2021-07-06T13:34:24Z</time>
      </trkpt>
      <trkpt lat="41.16219" lon="-8.60618">
        <ele>145.8809</ele>
        <time>2021-07-06T13:35:16Z</time>
      </trkpt>
      <trkpt lat="41.16223" lon="-8.6063">
        <ele>145.4949</ele>
        <time>2021-07-06T13:35:27Z</time>
      </trkpt>
      <trkpt lat="41.16211" lon="-8.60633">
        <ele>143.3048</ele>
        <time>2021-07-06T13:35:38Z</time>
      </trkpt>
      <trkpt lat="41.16183" lon="-8.60635">
        <ele>149.291</ele>
        <time>2021-07-06T13:35:49Z</time>
      </trkpt>
      <trkpt lat="41.16175" lon="-8.60632">
        <ele>146.7899</ele>
        <time>2021-07-06T13:36:00Z</time>
      </trkpt>
      <trkpt lat="41.16178" lon="-8.60627">
        <ele>146.0095</ele>
        <time>2021-07-06T13:36:11Z</time>
      </trkpt>
      <trkpt lat="41.16181" lon="-8.60629">
        <ele>146.9503</ele>
        <time>2021-07-06T13:36:26Z</time>
      </trkpt>
      <trkpt lat="41.16178" lon="-8.60625">
        <ele>145.9662</ele>
        <time>2021-07-06T13:36:59Z</time>
      </trkpt>
      <trkpt lat="41.16181" lon="-8.60632">
        <ele>145.256</ele>
        <time>2021-07-06T13:37:10Z</time>
      </trkpt>
      <trkpt lat="41.16183" lon="-8.60613">
        <ele>144.6618</ele>
        <time>2021-07-06T13:37:21Z</time>
      </trkpt>
      <trkpt lat="41.16175" lon="-8.60622">
        <ele>147.2684</ele>
        <time>2021-07-06T13:37:32Z</time>
      </trkpt>
      <trkpt lat="41.16179" lon="-8.60622">
        <ele>147.4519</ele>
        <time>2021-07-06T13:38:01Z</time>
      </trkpt>
      <trkpt lat="41.1618" lon="-8.60621">
        <ele>147.6988</ele>
        <time>2021-07-06T13:38:59Z</time>
      </trkpt>
      <trkpt lat="41.1618" lon="-8.60626">
        <ele>146.9794</ele>
        <time>2021-07-06T13:39:18Z</time>
      </trkpt>
      <trkpt lat="41.16178" lon="-8.60621">
        <ele>145.519</ele>
        <time>2021-07-06T13:39:36Z</time>
      </trkpt>
      <trkpt lat="41.16179" lon="-8.60622">
        <ele>147.4264</ele>
        <time>2021-07-06T13:40:35Z</time>
      </trkpt>
      <trkpt lat="41.16178" lon="-8.60615">
        <ele>143.3274</ele>
        <time>2021-07-06T13:41:05Z</time>
      </trkpt>
      <trkpt lat="41.16177" lon="-8.6062">
        <ele>146.794</ele>
        <time>2021-07-06T13:41:16Z</time>
      </trkpt>
      <trkpt lat="41.16172" lon="-8.60622">
        <ele>148.3368</ele>
        <time>2021-07-06T13:41:35Z</time>
      </trkpt>
      <trkpt lat="41.16174" lon="-8.60616">
        <ele>147.6303</ele>
        <time>2021-07-06T13:41:46Z</time>
      </trkpt>
      <trkpt lat="41.16178" lon="-8.60614">
        <ele>147.3704</ele>
        <time>2021-07-06T13:41:57Z</time>
      </trkpt>
      <trkpt lat="41.16183" lon="-8.60613">
        <ele>148.2576</ele>
        <time>2021-07-06T13:42:32Z</time>
      </trkpt>
      <trkpt lat="41.16176" lon="-8.60618">
        <ele>147.6855</ele>
        <time>2021-07-06T13:42:43Z</time>
      </trkpt>
      <trkpt lat="41.16172" lon="-8.60619">
        <ele>147.961</ele>
        <time>2021-07-06T13:42:55Z</time>
      </trkpt>
      <trkpt lat="41.16175" lon="-8.60618">
        <ele>147.5351</ele>
        <time>2021-07-06T13:43:10Z</time>
      </trkpt>
      <trkpt lat="41.16178" lon="-8.60622">
        <ele>147.5262</ele>
        <time>2021-07-06T13:43:21Z</time>
      </trkpt>
      <trkpt lat="41.16181" lon="-8.60627">
        <ele>147.2623</ele>
        <time>2021-07-06T13:43:32Z</time>
      </trkpt>
      <trkpt lat="41.16183" lon="-8.60631">
        <ele>146.0291</ele>
        <time>2021-07-06T13:43:43Z</time>
      </trkpt>
      <trkpt lat="41.1618" lon="-8.60627">
        <ele>145.8193</ele>
        <time>2021-07-06T13:43:54Z</time>
      </trkpt>
      <trkpt lat="41.16171" lon="-8.60617">
        <ele>147.8746</ele>
        <time>2021-07-06T13:44:09Z</time>
      </trkpt>
      <trkpt lat="41.16175" lon="-8.60618">
        <ele>146.6805</ele>
        <time>2021-07-06T13:44:23Z</time>
      </trkpt>
      <trkpt lat="41.16179" lon="-8.60618">
        <ele>147.6599</ele>
        <time>2021-07-06T13:44:38Z</time>
      </trkpt>
      <trkpt lat="41.16176" lon="-8.6062">
        <ele>147.5919</ele>
        <time>2021-07-06T13:45:26Z</time>
      </trkpt>
      <trkpt lat="41.16174" lon="-8.60615">
        <ele>145.2525</ele>
        <time>2021-07-06T13:45:41Z</time>
      </trkpt>
      <trkpt lat="41.16171" lon="-8.60618">
        <ele>147.4047</ele>
        <time>2021-07-06T13:45:53Z</time>
      </trkpt>
      <trkpt lat="41.16175" lon="-8.60619">
        <ele>146.087</ele>
        <time>2021-07-06T13:46:19Z</time>
      </trkpt>
      <trkpt lat="41.16177" lon="-8.60626">
        <ele>146.6079</ele>
        <time>2021-07-06T13:46:32Z</time>
      </trkpt>
      <trkpt lat="41.16182" lon="-8.60629">
        <ele>146.6461</ele>
        <time>2021-07-06T13:46:43Z</time>
      </trkpt>
      <trkpt lat="41.16184" lon="-8.60633">
        <ele>147.6501</ele>
        <time>2021-07-06T13:46:56Z</time>
      </trkpt>
      <trkpt lat="41.16188" lon="-8.60631">
        <ele>147.009</ele>
        <time>2021-07-06T13:47:18Z</time>
      </trkpt>
      <trkpt lat="41.16191" lon="-8.60632">
        <ele>146.4843</ele>
        <time>2021-07-06T13:47:43Z</time>
      </trkpt>
      <trkpt lat="41.16188" lon="-8.60633">
        <ele>146.0905</ele>
        <time>2021-07-06T13:48:16Z</time>
      </trkpt>
      <trkpt lat="41.16184" lon="-8.60635">
        <ele>144.4106</ele>
        <time>2021-07-06T13:48:38Z</time>
      </trkpt>
      <trkpt lat="41.16182" lon="-8.60631">
        <ele>145.7147</ele>
        <time>2021-07-06T13:49:00Z</time>
      </trkpt>
      <trkpt lat="41.16178" lon="-8.6062">
        <ele>147.2836</ele>
        <time>2021-07-06T13:49:11Z</time>
      </trkpt>
      <trkpt lat="41.16178" lon="-8.60615">
        <ele>147.0128</ele>
        <time>2021-07-06T13:49:23Z</time>
      </trkpt>
      <trkpt lat="41.16184" lon="-8.60611">
        <ele>147.471</ele>
        <time>2021-07-06T13:49:34Z</time>
      </trkpt>
      <trkpt lat="41.1618" lon="-8.60609">
        <ele>147.2035</ele>
        <time>2021-07-06T13:50:00Z</time>
      </trkpt>
      <trkpt lat="41.16186" lon="-8.60609">
        <ele>147.4819</ele>
        <time>2021-07-06T13:50:11Z</time>
      </trkpt>
      <trkpt lat="41.1618" lon="-8.6061">
        <ele>147.2689</ele>
        <time>2021-07-06T13:50:22Z</time>
      </trkpt>
      <trkpt lat="41.16176" lon="-8.60614">
        <ele>147.2265</ele>
        <time>2021-07-06T13:50:33Z</time>
      </trkpt>
      <trkpt lat="41.16176" lon="-8.6062">
        <ele>147.262</ele>
        <time>2021-07-06T13:50:52Z</time>
      </trkpt>
      <trkpt lat="41.16177" lon="-8.60624">
        <ele>147.7301</ele>
        <time>2021-07-06T13:51:05Z</time>
      </trkpt>
      <trkpt lat="41.1618" lon="-8.60627">
        <ele>143.9674</ele>
        <time>2021-07-06T13:51:16Z</time>
      </trkpt>
      <trkpt lat="41.16174" lon="-8.60623">
        <ele>147.0264</ele>
        <time>2021-07-06T13:51:27Z</time>
      </trkpt>
      <trkpt lat="41.1617" lon="-8.60622">
        <ele>147.1184</ele>
        <time>2021-07-06T13:51:44Z</time>
      </trkpt>
      <trkpt lat="41.1617" lon="-8.60627">
        <ele>146.9493</ele>
        <time>2021-07-06T13:51:55Z</time>
      </trkpt>
      <trkpt lat="41.1617" lon="-8.60622">
        <ele>147.5449</ele>
        <time>2021-07-06T13:52:18Z</time>
      </trkpt>
      <trkpt lat="41.16174" lon="-8.60622">
        <ele>147.1666</ele>
        <time>2021-07-06T13:52:35Z</time>
      </trkpt>
      <trkpt lat="41.1618" lon="-8.60624">
        <ele>146.95</ele>
        <time>2021-07-06T13:52:46Z</time>
      </trkpt>
      <trkpt lat="41.16182" lon="-8.60628">
        <ele>145.7708</ele>
        <time>2021-07-06T13:52:58Z</time>
      </trkpt>
      <trkpt lat="41.16183" lon="-8.60633">
        <ele>146.4959</ele>
        <time>2021-07-06T13:53:09Z</time>
      </trkpt>
      <trkpt lat="41.16182" lon="-8.60624">
        <ele>146.199</ele>
        <time>2021-07-06T13:53:24Z</time>
      </trkpt>
      <trkpt lat="41.16166" lon="-8.60623">
        <ele>146.64</ele>
        <time>2021-07-06T13:53:35Z</time>
      </trkpt>
      <trkpt lat="41.1618" lon="-8.60615">
        <ele>147.3665</ele>
        <time>2021-07-06T13:53:46Z</time>
      </trkpt>
      <trkpt lat="41.16176" lon="-8.60619">
        <ele>146.9359</ele>
        <time>2021-07-06T13:54:09Z</time>
      </trkpt>
      <trkpt lat="41.16175" lon="-8.60613">
        <ele>146.3413</ele>
        <time>2021-07-06T13:54:20Z</time>
      </trkpt>
      <trkpt lat="41.16177" lon="-8.6062">
        <ele>147.2501</ele>
        <time>2021-07-06T13:54:31Z</time>
      </trkpt>
      <trkpt lat="41.16182" lon="-8.60635">
        <ele>146.5073</ele>
        <time>2021-07-06T13:54:42Z</time>
      </trkpt>
      <trkpt lat="41.16186" lon="-8.60634">
        <ele>146.7013</ele>
        <time>2021-07-06T13:55:28Z</time>
      </trkpt>
      <trkpt lat="41.16189" lon="-8.60637">
        <ele>146.0589</ele>
        <time>2021-07-06T13:56:02Z</time>
      </trkpt>
      <trkpt lat="41.16187" lon="-8.60637">
        <ele>147.3033</ele>
        <time>2021-07-06T13:57:01Z</time>
      </trkpt>
      <trkpt lat="41.16189" lon="-8.60633">
        <ele>146.8877</ele>
        <time>2021-07-06T13:57:43Z</time>
      </trkpt>
    </trkseg>
  </trk>
  <trk>
    <name><![CDATA[Road trip fait P/E_3]]></name>
    <extensions>
      <line xmlns="http://www.topografix.com/GPX/gpx_style/0/2">
        <color>FF0000</color>
        <width>4</width>
      </line>
    </extensions>
    <trkseg>
      <trkpt lat="41.1619" lon="-8.60632">
        <ele>146.7172</ele>
        <time>2021-07-06T13:57:46Z</time>
      </trkpt>
      <trkpt lat="41.1619" lon="-8.60632">
        <ele>146.7172</ele>
        <time>2021-07-06T13:57:46Z</time>
      </trkpt>
      <trkpt lat="41.14774" lon="-8.60343">
        <ele>99.78713</ele>
        <time>2021-07-08T06:17:07Z</time>
      </trkpt>
      <trkpt lat="41.14768" lon="-8.60363">
        <ele>100.2161</ele>
        <time>2021-07-08T06:17:18Z</time>
      </trkpt>
      <trkpt lat="41.14781" lon="-8.60392">
        <ele>99.70386</ele>
        <time>2021-07-08T06:17:29Z</time>
      </trkpt>
      <trkpt lat="41.14788" lon="-8.60344">
        <ele>99.19895</ele>
        <time>2021-07-08T06:17:40Z</time>
      </trkpt>
      <trkpt lat="41.14785" lon="-8.60348">
        <ele>100.3222</ele>
        <time>2021-07-08T06:18:30Z</time>
      </trkpt>
      <trkpt lat="41.14785" lon="-8.60348">
        <ele>100.2243</ele>
        <time>2021-07-08T06:19:30Z</time>
      </trkpt>
      <trkpt lat="41.14785" lon="-8.60348">
        <ele>100.2243</ele>
        <time>2021-07-08T06:20:29Z</time>
      </trkpt>
      <trkpt lat="41.14781" lon="-8.60347">
        <ele>100.6921</ele>
        <time>2021-07-08T06:20:43Z</time>
      </trkpt>
      <trkpt lat="41.14774" lon="-8.60349">
        <ele>100.8818</ele>
        <time>2021-07-08T06:20:54Z</time>
      </trkpt>
      <trkpt lat="41.14768" lon="-8.60351">
        <ele>100.4583</ele>
        <time>2021-07-08T06:21:12Z</time>
      </trkpt>
      <trkpt lat="41.14772" lon="-8.60351">
        <ele>101.4379</ele>
        <time>2021-07-08T06:21:23Z</time>
      </trkpt>
      <trkpt lat="41.14778" lon="-8.60348">
        <ele>101.1075</ele>
        <time>2021-07-08T06:21:34Z</time>
      </trkpt>
      <trkpt lat="41.14782" lon="-8.60342">
        <ele>98.62409</ele>
        <time>2021-07-08T06:21:45Z</time>
      </trkpt>
      <trkpt lat="41.14772" lon="-8.60362">
        <ele>98.83809</ele>
        <time>2021-07-08T06:21:56Z</time>
      </trkpt>
      <trkpt lat="41.14768" lon="-8.60371">
        <ele>99.17088</ele>
        <time>2021-07-08T06:22:07Z</time>
      </trkpt>
      <trkpt lat="41.14768" lon="-8.60371">
        <ele>99.17088</ele>
        <time>2021-07-08T06:23:06Z</time>
      </trkpt>
      <trkpt lat="41.14767" lon="-8.60357">
        <ele>99.14607</ele>
        <time>2021-07-08T06:23:32Z</time>
      </trkpt>
      <trkpt lat="41.14767" lon="-8.60362">
        <ele>99.20263</ele>
        <time>2021-07-08T06:23:43Z</time>
      </trkpt>
      <trkpt lat="41.14758" lon="-8.60347">
        <ele>100.0422</ele>
        <time>2021-07-08T06:23:54Z</time>
      </trkpt>
      <trkpt lat="41.14759" lon="-8.60346">
        <ele>100.2753</ele>
        <time>2021-07-08T06:24:53Z</time>
      </trkpt>
      <trkpt lat="41.14762" lon="-8.60345">
        <ele>99.71568</ele>
        <time>2021-07-08T06:25:24Z</time>
      </trkpt>
      <trkpt lat="41.14759" lon="-8.60345">
        <ele>99.10031</ele>
        <time>2021-07-08T06:25:44Z</time>
      </trkpt>
      <trkpt lat="41.1476" lon="-8.60347">
        <ele>99.76211</ele>
        <time>2021-07-08T06:26:43Z</time>
      </trkpt>
      <trkpt lat="41.14755" lon="-8.60345">
        <ele>100.1906</ele>
        <time>2021-07-08T06:27:10Z</time>
      </trkpt>
      <trkpt lat="41.14745" lon="-8.60308">
        <ele>100.3815</ele>
        <time>2021-07-08T06:27:21Z</time>
      </trkpt>
      <trkpt lat="41.14742" lon="-8.60296">
        <ele>100.8241</ele>
        <time>2021-07-08T06:27:32Z</time>
      </trkpt>
      <trkpt lat="41.14732" lon="-8.60277">
        <ele>100.9424</ele>
        <time>2021-07-08T06:27:43Z</time>
      </trkpt>
      <trkpt lat="41.14727" lon="-8.60245">
        <ele>100.5081</ele>
        <time>2021-07-08T06:27:54Z</time>
      </trkpt>
      <trkpt lat="41.14725" lon="-8.60238">
        <ele>99.88608</ele>
        <time>2021-07-08T06:28:15Z</time>
      </trkpt>
      <trkpt lat="41.14724" lon="-8.6016">
        <ele>98.64127</ele>
        <time>2021-07-08T06:28:26Z</time>
      </trkpt>
      <trkpt lat="41.14756" lon="-8.60062">
        <ele>98.53268</ele>
        <time>2021-07-08T06:28:37Z</time>
      </trkpt>
      <trkpt lat="41.14759" lon="-8.60006">
        <ele>98.05276</ele>
        <time>2021-07-08T06:28:48Z</time>
      </trkpt>
      <trkpt lat="41.14713" lon="-8.59977">
        <ele>97.58407</ele>
        <time>2021-07-08T06:28:59Z</time>
      </trkpt>
      <trkpt lat="41.14645" lon="-8.59947">
        <ele>96.31378</ele>
        <time>2021-07-08T06:29:10Z</time>
      </trkpt>
      <trkpt lat="41.14608" lon="-8.59929">
        <ele>96.32754</ele>
        <time>2021-07-08T06:29:21Z</time>
      </trkpt>
      <trkpt lat="41.14606" lon="-8.59926">
        <ele>97.40147</ele>
        <time>2021-07-08T06:29:32Z</time>
      </trkpt>
      <trkpt lat="41.14598" lon="-8.59925">
        <ele>98.55818</ele>
        <time>2021-07-08T06:29:43Z</time>
      </trkpt>
      <trkpt lat="41.14584" lon="-8.59917">
        <ele>96.35728</ele>
        <time>2021-07-08T06:29:54Z</time>
      </trkpt>
      <trkpt lat="41.14575" lon="-8.59913">
        <ele>97.47528</ele>
        <time>2021-07-08T06:30:08Z</time>
      </trkpt>
      <trkpt lat="41.14579" lon="-8.59915">
        <ele>95.38128</ele>
        <time>2021-07-08T06:30:40Z</time>
      </trkpt>
      <trkpt lat="41.1459" lon="-8.59921">
        <ele>96.001</ele>
        <time>2021-07-08T06:30:51Z</time>
      </trkpt>
      <trkpt lat="41.14594" lon="-8.59922">
        <ele>95.24425</ele>
        <time>2021-07-08T06:31:02Z</time>
      </trkpt>
      <trkpt lat="41.14599" lon="-8.59917">
        <ele>96.7011</ele>
        <time>2021-07-08T06:31:13Z</time>
      </trkpt>
      <trkpt lat="41.14592" lon="-8.59921">
        <ele>97.10789</ele>
        <time>2021-07-08T06:31:24Z</time>
      </trkpt>
      <trkpt lat="41.14599" lon="-8.59921">
        <ele>95.02675</ele>
        <time>2021-07-08T06:31:35Z</time>
      </trkpt>
      <trkpt lat="41.14602" lon="-8.59923">
        <ele>93.0922</ele>
        <time>2021-07-08T06:31:49Z</time>
      </trkpt>
      <trkpt lat="41.14599" lon="-8.59927">
        <ele>95.1705</ele>
        <time>2021-07-08T06:32:17Z</time>
      </trkpt>
      <trkpt lat="41.14616" lon="-8.59901">
        <ele>96.33156</ele>
        <time>2021-07-08T06:32:52Z</time>
      </trkpt>
      <trkpt lat="41.14602" lon="-8.59918">
        <ele>94.06082</ele>
        <time>2021-07-08T06:33:35Z</time>
      </trkpt>
      <trkpt lat="41.14587" lon="-8.59904">
        <ele>95.22103</ele>
        <time>2021-07-08T06:33:46Z</time>
      </trkpt>
      <trkpt lat="41.14594" lon="-8.59936">
        <ele>98.14008</ele>
        <time>2021-07-08T06:33:57Z</time>
      </trkpt>
      <trkpt lat="41.14591" lon="-8.59939">
        <ele>96.75934</ele>
        <time>2021-07-08T06:34:08Z</time>
      </trkpt>
      <trkpt lat="41.14595" lon="-8.5993">
        <ele>98.68044</ele>
        <time>2021-07-08T06:34:19Z</time>
      </trkpt>
      <trkpt lat="41.14591" lon="-8.59935">
        <ele>94.81922</ele>
        <time>2021-07-08T06:34:30Z</time>
      </trkpt>
      <trkpt lat="41.14597" lon="-8.59925">
        <ele>96.57738</ele>
        <time>2021-07-08T06:34:41Z</time>
      </trkpt>
      <trkpt lat="41.14584" lon="-8.5993">
        <ele>95.80353</ele>
        <time>2021-07-08T06:34:52Z</time>
      </trkpt>
      <trkpt lat="41.14591" lon="-8.59933">
        <ele>97.51352</ele>
        <time>2021-07-08T06:35:03Z</time>
      </trkpt>
      <trkpt lat="41.14595" lon="-8.59927">
        <ele>95.86333</ele>
        <time>2021-07-08T06:35:23Z</time>
      </trkpt>
      <trkpt lat="41.14597" lon="-8.59923">
        <ele>96.27123</ele>
        <time>2021-07-08T06:36:00Z</time>
      </trkpt>
      <trkpt lat="41.14593" lon="-8.59925">
        <ele>95.85505</ele>
        <time>2021-07-08T06:36:36Z</time>
      </trkpt>
      <trkpt lat="41.14591" lon="-8.59926">
        <ele>96.17281</ele>
        <time>2021-07-08T06:37:35Z</time>
      </trkpt>
      <trkpt lat="41.14594" lon="-8.59924">
        <ele>94.36382</ele>
        <time>2021-07-08T06:37:52Z</time>
      </trkpt>
      <trkpt lat="41.14591" lon="-8.5993">
        <ele>96.41476</ele>
        <time>2021-07-08T06:38:12Z</time>
      </trkpt>
      <trkpt lat="41.14594" lon="-8.59927">
        <ele>94.79095</ele>
        <time>2021-07-08T06:38:43Z</time>
      </trkpt>
      <trkpt lat="41.14597" lon="-8.59924">
        <ele>95.9465</ele>
        <time>2021-07-08T06:39:10Z</time>
      </trkpt>
      <trkpt lat="41.14596" lon="-8.59925">
        <ele>96.67316</ele>
        <time>2021-07-08T06:40:09Z</time>
      </trkpt>
      <trkpt lat="41.14599" lon="-8.59925">
        <ele>96.17782</ele>
        <time>2021-07-08T06:40:57Z</time>
      </trkpt>
      <trkpt lat="41.14596" lon="-8.59923">
        <ele>96.39233</ele>
        <time>2021-07-08T06:41:31Z</time>
      </trkpt>
      <trkpt lat="41.14593" lon="-8.5992">
        <ele>95.82157</ele>
        <time>2021-07-08T06:41:50Z</time>
      </trkpt>
      <trkpt lat="41.14587" lon="-8.59926">
        <ele>97.75545</ele>
        <time>2021-07-08T06:42:42Z</time>
      </trkpt>
      <trkpt lat="41.14584" lon="-8.59926">
        <ele>95.37498</ele>
        <time>2021-07-08T06:43:31Z</time>
      </trkpt>
      <trkpt lat="41.14591" lon="-8.59924">
        <ele>96.10479</ele>
        <time>2021-07-08T06:43:54Z</time>
      </trkpt>
      <trkpt lat="41.14587" lon="-8.59925">
        <ele>96.86751</ele>
        <time>2021-07-08T06:44:22Z</time>
      </trkpt>
      <trkpt lat="41.1459" lon="-8.59921">
        <ele>96.1502</ele>
        <time>2021-07-08T06:44:41Z</time>
      </trkpt>
      <trkpt lat="41.14592" lon="-8.59925">
        <ele>96.74932</ele>
        <time>2021-07-08T06:45:06Z</time>
      </trkpt>
      <trkpt lat="41.14588" lon="-8.59929">
        <ele>95.75974</ele>
        <time>2021-07-08T06:45:17Z</time>
      </trkpt>
      <trkpt lat="41.14586" lon="-8.59926">
        <ele>95.9598</ele>
        <time>2021-07-08T06:46:16Z</time>
      </trkpt>
      <trkpt lat="41.14589" lon="-8.59923">
        <ele>95.08283</ele>
        <time>2021-07-08T06:46:58Z</time>
      </trkpt>
      <trkpt lat="41.14586" lon="-8.59926">
        <ele>96.08473</ele>
        <time>2021-07-08T06:47:44Z</time>
      </trkpt>
      <trkpt lat="41.14589" lon="-8.59926">
        <ele>95.77399</ele>
        <time>2021-07-08T06:48:43Z</time>
      </trkpt>
      <trkpt lat="41.14585" lon="-8.59928">
        <ele>96.13677</ele>
        <time>2021-07-08T06:49:03Z</time>
      </trkpt>
      <trkpt lat="41.14581" lon="-8.59929">
        <ele>96.43434</ele>
        <time>2021-07-08T06:49:30Z</time>
      </trkpt>
      <trkpt lat="41.14582" lon="-8.59924">
        <ele>96.33885</ele>
        <time>2021-07-08T06:49:46Z</time>
      </trkpt>
      <trkpt lat="41.14581" lon="-8.59919">
        <ele>96.90412</ele>
        <time>2021-07-08T06:49:58Z</time>
      </trkpt>
      <trkpt lat="41.14581" lon="-8.5991">
        <ele>95.53742</ele>
        <time>2021-07-08T06:50:09Z</time>
      </trkpt>
      <trkpt lat="41.14574" lon="-8.59906">
        <ele>95.91526</ele>
        <time>2021-07-08T06:50:20Z</time>
      </trkpt>
      <trkpt lat="41.14572" lon="-8.59911">
        <ele>95.89467</ele>
        <time>2021-07-08T06:50:31Z</time>
      </trkpt>
      <trkpt lat="41.14576" lon="-8.59909">
        <ele>97.05005</ele>
        <time>2021-07-08T06:50:46Z</time>
      </trkpt>
      <trkpt lat="41.14574" lon="-8.5991">
        <ele>98.19433</ele>
        <time>2021-07-08T06:51:45Z</time>
      </trkpt>
      <trkpt lat="41.14572" lon="-8.59906">
        <ele>97.20443</ele>
        <time>2021-07-08T06:52:08Z</time>
      </trkpt>
      <trkpt lat="41.14568" lon="-8.59908">
        <ele>94.02191</ele>
        <time>2021-07-08T06:52:38Z</time>
      </trkpt>
      <trkpt lat="41.14496" lon="-8.59879">
        <ele>94.16051</ele>
        <time>2021-07-08T06:52:49Z</time>
      </trkpt>
      <trkpt lat="41.14476" lon="-8.59845">
        <ele>90.00613</ele>
        <time>2021-07-08T06:53:00Z</time>
      </trkpt>
      <trkpt lat="41.14501" lon="-8.59804">
        <ele>100.1444</ele>
        <time>2021-07-08T06:53:11Z</time>
      </trkpt>
      <trkpt lat="41.14569" lon="-8.59825">
        <ele>96.32432</ele>
        <time>2021-07-08T06:53:22Z</time>
      </trkpt>
      <trkpt lat="41.14572" lon="-8.59832">
        <ele>96.02771</ele>
        <time>2021-07-08T06:53:33Z</time>
      </trkpt>
      <trkpt lat="41.14591" lon="-8.59884">
        <ele>96.94503</ele>
        <time>2021-07-08T06:53:44Z</time>
      </trkpt>
      <trkpt lat="41.14592" lon="-8.59911">
        <ele>99.5207</ele>
        <time>2021-07-08T06:53:55Z</time>
      </trkpt>
      <trkpt lat="41.14584" lon="-8.60048">
        <ele>95.47354</ele>
        <time>2021-07-08T06:54:06Z</time>
      </trkpt>
      <trkpt lat="41.14575" lon="-8.60123">
        <ele>92.75706</ele>
        <time>2021-07-08T06:54:17Z</time>
      </trkpt>
      <trkpt lat="41.14592" lon="-8.60187">
        <ele>93.74352</ele>
        <time>2021-07-08T06:54:28Z</time>
      </trkpt>
      <trkpt lat="41.14614" lon="-8.60191">
        <ele>95.29816</ele>
        <time>2021-07-08T06:54:39Z</time>
      </trkpt>
      <trkpt lat="41.14657" lon="-8.60194">
        <ele>96.439</ele>
        <time>2021-07-08T06:54:50Z</time>
      </trkpt>
      <trkpt lat="41.14677" lon="-8.60196">
        <ele>97.04529</ele>
        <time>2021-07-08T06:55:01Z</time>
      </trkpt>
      <trkpt lat="41.14761" lon="-8.602">
        <ele>100.3967</ele>
        <time>2021-07-08T06:55:12Z</time>
      </trkpt>
      <trkpt lat="41.14875" lon="-8.60208">
        <ele>101.7055</ele>
        <time>2021-07-08T06:55:23Z</time>
      </trkpt>
      <trkpt lat="41.14892" lon="-8.60209">
        <ele>102.5766</ele>
        <time>2021-07-08T06:55:34Z</time>
      </trkpt>
      <trkpt lat="41.14898" lon="-8.6021">
        <ele>100.4302</ele>
        <time>2021-07-08T06:56:13Z</time>
      </trkpt>
      <trkpt lat="41.15025" lon="-8.60219">
        <ele>106.322</ele>
        <time>2021-07-08T06:56:24Z</time>
      </trkpt>
      <trkpt lat="41.15102" lon="-8.60242">
        <ele>109.9666</ele>
        <time>2021-07-08T06:56:35Z</time>
      </trkpt>
      <trkpt lat="41.15097" lon="-8.60378">
        <ele>112.3872</ele>
        <time>2021-07-08T06:56:46Z</time>
      </trkpt>
      <trkpt lat="41.15098" lon="-8.60421">
        <ele>113.1289</ele>
        <time>2021-07-08T06:56:57Z</time>
      </trkpt>
      <trkpt lat="41.15029" lon="-8.60419">
        <ele>107.1794</ele>
        <time>2021-07-08T06:57:08Z</time>
      </trkpt>
      <trkpt lat="41.14977" lon="-8.60414">
        <ele>105.0427</ele>
        <time>2021-07-08T06:57:19Z</time>
      </trkpt>
      <trkpt lat="41.14956" lon="-8.60412">
        <ele>103.8839</ele>
        <time>2021-07-08T06:57:30Z</time>
      </trkpt>
      <trkpt lat="41.14867" lon="-8.60403">
        <ele>98.93977</ele>
        <time>2021-07-08T06:57:41Z</time>
      </trkpt>
      <trkpt lat="41.1479" lon="-8.60395">
        <ele>97.45766</ele>
        <time>2021-07-08T06:57:52Z</time>
      </trkpt>
      <trkpt lat="41.14755" lon="-8.60353">
        <ele>99.85877</ele>
        <time>2021-07-08T06:58:03Z</time>
      </trkpt>
      <trkpt lat="41.14755" lon="-8.60353">
        <ele>99.9185</ele>
        <time>2021-07-08T06:59:02Z</time>
      </trkpt>
      <trkpt lat="41.14755" lon="-8.60352">
        <ele>99.12036</ele>
        <time>2021-07-08T07:00:01Z</time>
      </trkpt>
      <trkpt lat="41.14755" lon="-8.60351">
        <ele>99.36482</ele>
        <time>2021-07-08T07:01:00Z</time>
      </trkpt>
      <trkpt lat="41.14748" lon="-8.60325">
        <ele>100.0426</ele>
        <time>2021-07-08T07:01:11Z</time>
      </trkpt>
      <trkpt lat="41.14727" lon="-8.60254">
        <ele>100.7026</ele>
        <time>2021-07-08T07:01:22Z</time>
      </trkpt>
      <trkpt lat="41.14725" lon="-8.60244">
        <ele>100.3907</ele>
        <time>2021-07-08T07:01:33Z</time>
      </trkpt>
      <trkpt lat="41.14728" lon="-8.60241">
        <ele>100.7319</ele>
        <time>2021-07-08T07:01:55Z</time>
      </trkpt>
      <trkpt lat="41.14725" lon="-8.60238">
        <ele>100.0364</ele>
        <time>2021-07-08T07:02:25Z</time>
      </trkpt>
      <trkpt lat="41.14727" lon="-8.60153">
        <ele>98.61368</ele>
        <time>2021-07-08T07:02:36Z</time>
      </trkpt>
      <trkpt lat="41.1476" lon="-8.60044">
        <ele>97.66218</ele>
        <time>2021-07-08T07:02:47Z</time>
      </trkpt>
      <trkpt lat="41.14749" lon="-8.59998">
        <ele>95.62567</ele>
        <time>2021-07-08T07:02:58Z</time>
      </trkpt>
      <trkpt lat="41.14683" lon="-8.59965">
        <ele>94.6917</ele>
        <time>2021-07-08T07:03:09Z</time>
      </trkpt>
      <trkpt lat="41.14614" lon="-8.59933">
        <ele>93.51401</ele>
        <time>2021-07-08T07:03:20Z</time>
      </trkpt>
      <trkpt lat="41.14601" lon="-8.59927">
        <ele>95.36518</ele>
        <time>2021-07-08T07:03:31Z</time>
      </trkpt>
      <trkpt lat="41.14596" lon="-8.59927">
        <ele>97.13035</ele>
        <time>2021-07-08T07:03:42Z</time>
      </trkpt>
      <trkpt lat="41.14593" lon="-8.59924">
        <ele>97.41042</ele>
        <time>2021-07-08T07:03:57Z</time>
      </trkpt>
      <trkpt lat="41.14583" lon="-8.60042">
        <ele>96.30863</ele>
        <time>2021-07-08T07:04:08Z</time>
      </trkpt>
      <trkpt lat="41.14573" lon="-8.60145">
        <ele>92.24131</ele>
        <time>2021-07-08T07:04:19Z</time>
      </trkpt>
      <trkpt lat="41.14572" lon="-8.6015">
        <ele>93.64071</ele>
        <time>2021-07-08T07:04:31Z</time>
      </trkpt>
      <trkpt lat="41.14566" lon="-8.60212">
        <ele>92.87586</ele>
        <time>2021-07-08T07:04:42Z</time>
      </trkpt>
      <trkpt lat="41.14548" lon="-8.60369">
        <ele>93.46371</ele>
        <time>2021-07-08T07:04:53Z</time>
      </trkpt>
      <trkpt lat="41.14514" lon="-8.60449">
        <ele>91.38196</ele>
        <time>2021-07-08T07:05:04Z</time>
      </trkpt>
      <trkpt lat="41.14455" lon="-8.60479">
        <ele>91.44809</ele>
        <time>2021-07-08T07:05:15Z</time>
      </trkpt>
      <trkpt lat="41.14422" lon="-8.60492">
        <ele>90.82429</ele>
        <time>2021-07-08T07:05:26Z</time>
      </trkpt>
      <trkpt lat="41.14418" lon="-8.60491">
        <ele>87.95296</ele>
        <time>2021-07-08T07:05:57Z</time>
      </trkpt>
      <trkpt lat="41.14387" lon="-8.60447">
        <ele>85.81214</ele>
        <time>2021-07-08T07:06:08Z</time>
      </trkpt>
      <trkpt lat="41.14342" lon="-8.60307">
        <ele>76.24164</ele>
        <time>2021-07-08T07:06:19Z</time>
      </trkpt>
      <trkpt lat="41.14258" lon="-8.60206">
        <ele>72.47316</ele>
        <time>2021-07-08T07:06:30Z</time>
      </trkpt>
      <trkpt lat="41.141" lon="-8.60171">
        <ele>77.04292</ele>
        <time>2021-07-08T07:06:41Z</time>
      </trkpt>
      <trkpt lat="41.13921" lon="-8.60135">
        <ele>73.04492</ele>
        <time>2021-07-08T07:06:52Z</time>
      </trkpt>
      <trkpt lat="41.13763" lon="-8.60135">
        <ele>72.59288</ele>
        <time>2021-07-08T07:07:03Z</time>
      </trkpt>
      <trkpt lat="41.1367" lon="-8.60191">
        <ele>72.59221</ele>
        <time>2021-07-08T07:07:14Z</time>
      </trkpt>
      <trkpt lat="41.13529" lon="-8.60257">
        <ele>78.39001</ele>
        <time>2021-07-08T07:07:25Z</time>
      </trkpt>
      <trkpt lat="41.13397" lon="-8.6018">
        <ele>75.4463</ele>
        <time>2021-07-08T07:07:36Z</time>
      </trkpt>
      <trkpt lat="41.13312" lon="-8.59998">
        <ele>59.91638</ele>
        <time>2021-07-08T07:07:47Z</time>
      </trkpt>
      <trkpt lat="41.1323" lon="-8.59812">
        <ele>45.46449</ele>
        <time>2021-07-08T07:07:58Z</time>
      </trkpt>
      <trkpt lat="41.13121" lon="-8.59711">
        <ele>46.40702</ele>
        <time>2021-07-08T07:08:09Z</time>
      </trkpt>
      <trkpt lat="41.13065" lon="-8.59719">
        <ele>47.66379</ele>
        <time>2021-07-08T07:08:20Z</time>
      </trkpt>
      <trkpt lat="41.12951" lon="-8.59785">
        <ele>53.85292</ele>
        <time>2021-07-08T07:08:31Z</time>
      </trkpt>
      <trkpt lat="41.12785" lon="-8.59813">
        <ele>65.80152</ele>
        <time>2021-07-08T07:08:42Z</time>
      </trkpt>
      <trkpt lat="41.12622" lon="-8.59833">
        <ele>82.58512</ele>
        <time>2021-07-08T07:08:53Z</time>
      </trkpt>
      <trkpt lat="41.12539" lon="-8.59847">
        <ele>89.53708</ele>
        <time>2021-07-08T07:09:04Z</time>
      </trkpt>
      <trkpt lat="41.12502" lon="-8.59863">
        <ele>90.59018</ele>
        <time>2021-07-08T07:09:15Z</time>
      </trkpt>
      <trkpt lat="41.12488" lon="-8.59745">
        <ele>83.43494</ele>
        <time>2021-07-08T07:09:26Z</time>
      </trkpt>
      <trkpt lat="41.12454" lon="-8.59638">
        <ele>75.58448</ele>
        <time>2021-07-08T07:09:37Z</time>
      </trkpt>
      <trkpt lat="41.12529" lon="-8.59596">
        <ele>77.57382</ele>
        <time>2021-07-08T07:09:48Z</time>
      </trkpt>
      <trkpt lat="41.12693" lon="-8.59554">
        <ele>70.73854</ele>
        <time>2021-07-08T07:09:59Z</time>
      </trkpt>
      <trkpt lat="41.12869" lon="-8.59497">
        <ele>62.11772</ele>
        <time>2021-07-08T07:10:10Z</time>
      </trkpt>
      <trkpt lat="41.13007" lon="-8.59319">
        <ele>66.25234</ele>
        <time>2021-07-08T07:10:21Z</time>
      </trkpt>
      <trkpt lat="41.12992" lon="-8.59111">
        <ele>60.1383</ele>
        <time>2021-07-08T07:10:32Z</time>
      </trkpt>
      <trkpt lat="41.12992" lon="-8.58892">
        <ele>50.67065</ele>
        <time>2021-07-08T07:10:43Z</time>
      </trkpt>
      <trkpt lat="41.1303" lon="-8.58812">
        <ele>42.86731</ele>
        <time>2021-07-08T07:10:54Z</time>
      </trkpt>
      <trkpt lat="41.13041" lon="-8.58818">
        <ele>42.76401</ele>
        <time>2021-07-08T07:11:05Z</time>
      </trkpt>
      <trkpt lat="41.13062" lon="-8.5877">
        <ele>48.89314</ele>
        <time>2021-07-08T07:11:16Z</time>
      </trkpt>
      <trkpt lat="41.13084" lon="-8.58669">
        <ele>59.2599</ele>
        <time>2021-07-08T07:11:27Z</time>
      </trkpt>
      <trkpt lat="41.13119" lon="-8.58541">
        <ele>64.85147</ele>
        <time>2021-07-08T07:11:38Z</time>
      </trkpt>
      <trkpt lat="41.13126" lon="-8.58429">
        <ele>67.24333</ele>
        <time>2021-07-08T07:11:49Z</time>
      </trkpt>
      <trkpt lat="41.13091" lon="-8.58319">
        <ele>65.79787</ele>
        <time>2021-07-08T07:12:00Z</time>
      </trkpt>
      <trkpt lat="41.1307" lon="-8.58227">
        <ele>71.80196</ele>
        <time>2021-07-08T07:12:11Z</time>
      </trkpt>
      <trkpt lat="41.13026" lon="-8.5817">
        <ele>72.68692</ele>
        <time>2021-07-08T07:12:22Z</time>
      </trkpt>
      <trkpt lat="41.12959" lon="-8.58123">
        <ele>76.77166</ele>
        <time>2021-07-08T07:12:33Z</time>
      </trkpt>
      <trkpt lat="41.12877" lon="-8.58087">
        <ele>78.18205</ele>
        <time>2021-07-08T07:12:44Z</time>
      </trkpt>
      <trkpt lat="41.12791" lon="-8.58051">
        <ele>77.80809</ele>
        <time>2021-07-08T07:12:55Z</time>
      </trkpt>
      <trkpt lat="41.12689" lon="-8.58002">
        <ele>84.43288</ele>
        <time>2021-07-08T07:13:06Z</time>
      </trkpt>
      <trkpt lat="41.12611" lon="-8.57968">
        <ele>86.2961</ele>
        <time>2021-07-08T07:13:17Z</time>
      </trkpt>
      <trkpt lat="41.12545" lon="-8.5792">
        <ele>85.33843</ele>
        <time>2021-07-08T07:13:28Z</time>
      </trkpt>
      <trkpt lat="41.12488" lon="-8.57851">
        <ele>83.52144</ele>
        <time>2021-07-08T07:13:39Z</time>
      </trkpt>
      <trkpt lat="41.12436" lon="-8.57775">
        <ele>83.58956</ele>
        <time>2021-07-08T07:13:50Z</time>
      </trkpt>
      <trkpt lat="41.1235" lon="-8.5776">
        <ele>79.54583</ele>
        <time>2021-07-08T07:14:01Z</time>
      </trkpt>
      <trkpt lat="41.12254" lon="-8.57733">
        <ele>75.48164</ele>
        <time>2021-07-08T07:14:12Z</time>
      </trkpt>
      <trkpt lat="41.12168" lon="-8.57728">
        <ele>72.06735</ele>
        <time>2021-07-08T07:14:23Z</time>
      </trkpt>
      <trkpt lat="41.12143" lon="-8.57728">
        <ele>72.53331</ele>
        <time>2021-07-08T07:14:34Z</time>
      </trkpt>
      <trkpt lat="41.12078" lon="-8.57734">
        <ele>73.20198</ele>
        <time>2021-07-08T07:14:45Z</time>
      </trkpt>
      <trkpt lat="41.11999" lon="-8.57713">
        <ele>68.15225</ele>
        <time>2021-07-08T07:14:56Z</time>
      </trkpt>
      <trkpt lat="41.11931" lon="-8.57749">
        <ele>68.80734</ele>
        <time>2021-07-08T07:15:07Z</time>
      </trkpt>
      <trkpt lat="41.11898" lon="-8.57778">
        <ele>75.83071</ele>
        <time>2021-07-08T07:15:18Z</time>
      </trkpt>
      <trkpt lat="41.11823" lon="-8.57765">
        <ele>88.1873</ele>
        <time>2021-07-08T07:15:29Z</time>
      </trkpt>
      <trkpt lat="41.11735" lon="-8.57874">
        <ele>96.3942</ele>
        <time>2021-07-08T07:15:40Z</time>
      </trkpt>
      <trkpt lat="41.11581" lon="-8.57921">
        <ele>111.7627</ele>
        <time>2021-07-08T07:15:51Z</time>
      </trkpt>
      <trkpt lat="41.11495" lon="-8.57972">
        <ele>121.8839</ele>
        <time>2021-07-08T07:16:02Z</time>
      </trkpt>
      <trkpt lat="41.11489" lon="-8.57979">
        <ele>123.1955</ele>
        <time>2021-07-08T07:16:27Z</time>
      </trkpt>
      <trkpt lat="41.11411" lon="-8.58052">
        <ele>126.131</ele>
        <time>2021-07-08T07:16:38Z</time>
      </trkpt>
      <trkpt lat="41.11339" lon="-8.58118">
        <ele>127.1323</ele>
        <time>2021-07-08T07:16:49Z</time>
      </trkpt>
      <trkpt lat="41.11334" lon="-8.58122">
        <ele>127.5982</ele>
        <time>2021-07-08T07:17:04Z</time>
      </trkpt>
      <trkpt lat="41.11314" lon="-8.5814">
        <ele>127.3974</ele>
        <time>2021-07-08T07:17:15Z</time>
      </trkpt>
      <trkpt lat="41.11238" lon="-8.58019">
        <ele>123.8904</ele>
        <time>2021-07-08T07:17:26Z</time>
      </trkpt>
      <trkpt lat="41.11152" lon="-8.57881">
        <ele>112.8006</ele>
        <time>2021-07-08T07:17:37Z</time>
      </trkpt>
      <trkpt lat="41.11076" lon="-8.57759">
        <ele>115.0791</ele>
        <time>2021-07-08T07:17:48Z</time>
      </trkpt>
      <trkpt lat="41.11003" lon="-8.57641">
        <ele>117.8697</ele>
        <time>2021-07-08T07:17:59Z</time>
      </trkpt>
      <trkpt lat="41.10964" lon="-8.57575">
        <ele>117.8458</ele>
        <time>2021-07-08T07:18:10Z</time>
      </trkpt>
      <trkpt lat="41.10957" lon="-8.57567">
        <ele>116.7963</ele>
        <time>2021-07-08T07:18:21Z</time>
      </trkpt>
      <trkpt lat="41.10924" lon="-8.57515">
        <ele>118.1256</ele>
        <time>2021-07-08T07:18:32Z</time>
      </trkpt>
      <trkpt lat="41.10831" lon="-8.5737">
        <ele>112.2396</ele>
        <time>2021-07-08T07:18:43Z</time>
      </trkpt>
      <trkpt lat="41.1073" lon="-8.5721">
        <ele>103.8271</ele>
        <time>2021-07-08T07:18:54Z</time>
      </trkpt>
      <trkpt lat="41.1064" lon="-8.57069">
        <ele>95.53428</ele>
        <time>2021-07-08T07:19:05Z</time>
      </trkpt>
      <trkpt lat="41.10551" lon="-8.5697">
        <ele>94.76882</ele>
        <time>2021-07-08T07:19:16Z</time>
      </trkpt>
      <trkpt lat="41.10427" lon="-8.56915">
        <ele>91.12294</ele>
        <time>2021-07-08T07:19:27Z</time>
      </trkpt>
      <trkpt lat="41.10267" lon="-8.56842">
        <ele>82.13031</ele>
        <time>2021-07-08T07:19:38Z</time>
      </trkpt>
      <trkpt lat="41.10088" lon="-8.5672">
        <ele>72.24598</ele>
        <time>2021-07-08T07:19:49Z</time>
      </trkpt>
      <trkpt lat="41.09921" lon="-8.56618">
        <ele>61.17352</ele>
        <time>2021-07-08T07:20:00Z</time>
      </trkpt>
      <trkpt lat="41.09882" lon="-8.56532">
        <ele>64.78276</ele>
        <time>2021-07-08T07:20:11Z</time>
      </trkpt>
      <trkpt lat="41.09877" lon="-8.56512">
        <ele>65.07262</ele>
        <time>2021-07-08T07:20:22Z</time>
      </trkpt>
      <trkpt lat="41.09854" lon="-8.56432">
        <ele>68.17934</ele>
        <time>2021-07-08T07:20:33Z</time>
      </trkpt>
      <trkpt lat="41.09816" lon="-8.56298">
        <ele>72.20311</ele>
        <time>2021-07-08T07:20:44Z</time>
      </trkpt>
      <trkpt lat="41.09765" lon="-8.5612">
        <ele>66.55233</ele>
        <time>2021-07-08T07:20:55Z</time>
      </trkpt>
      <trkpt lat="41.09722" lon="-8.55969">
        <ele>62.87262</ele>
        <time>2021-07-08T07:21:06Z</time>
      </trkpt>
      <trkpt lat="41.0968" lon="-8.55827">
        <ele>61.39758</ele>
        <time>2021-07-08T07:21:17Z</time>
      </trkpt>
      <trkpt lat="41.09636" lon="-8.55671">
        <ele>65.273</ele>
        <time>2021-07-08T07:21:28Z</time>
      </trkpt>
      <trkpt lat="41.09604" lon="-8.55558">
        <ele>66.35539</ele>
        <time>2021-07-08T07:21:39Z</time>
      </trkpt>
      <trkpt lat="41.09569" lon="-8.5544">
        <ele>66.12497</ele>
        <time>2021-07-08T07:21:50Z</time>
      </trkpt>
      <trkpt lat="41.09524" lon="-8.55284">
        <ele>71.65946</ele>
        <time>2021-07-08T07:22:01Z</time>
      </trkpt>
      <trkpt lat="41.0949" lon="-8.55161">
        <ele>79.99884</ele>
        <time>2021-07-08T07:22:12Z</time>
      </trkpt>
      <trkpt lat="41.0947" lon="-8.55089">
        <ele>83.77028</ele>
        <time>2021-07-08T07:22:23Z</time>
      </trkpt>
      <trkpt lat="41.0946" lon="-8.55053">
        <ele>85.67763</ele>
        <time>2021-07-08T07:22:34Z</time>
      </trkpt>
      <trkpt lat="41.09435" lon="-8.54963">
        <ele>89.07625</ele>
        <time>2021-07-08T07:22:45Z</time>
      </trkpt>
      <trkpt lat="41.09389" lon="-8.54815">
        <ele>94.07782</ele>
        <time>2021-07-08T07:22:56Z</time>
      </trkpt>
      <trkpt lat="41.09333" lon="-8.54618">
        <ele>98.65273</ele>
        <time>2021-07-08T07:23:07Z</time>
      </trkpt>
      <trkpt lat="41.0927" lon="-8.54404">
        <ele>100.8675</ele>
        <time>2021-07-08T07:23:18Z</time>
      </trkpt>
      <trkpt lat="41.0922" lon="-8.54228">
        <ele>104.4717</ele>
        <time>2021-07-08T07:23:29Z</time>
      </trkpt>
      <trkpt lat="41.09165" lon="-8.54035">
        <ele>109.2878</ele>
        <time>2021-07-08T07:23:40Z</time>
      </trkpt>
      <trkpt lat="41.09111" lon="-8.53838">
        <ele>110.6544</ele>
        <time>2021-07-08T07:23:51Z</time>
      </trkpt>
      <trkpt lat="41.0905" lon="-8.53644">
        <ele>114.7815</ele>
        <time>2021-07-08T07:24:02Z</time>
      </trkpt>
      <trkpt lat="41.08954" lon="-8.53476">
        <ele>117.3938</ele>
        <time>2021-07-08T07:24:13Z</time>
      </trkpt>
      <trkpt lat="41.08795" lon="-8.53375">
        <ele>116.1324</ele>
        <time>2021-07-08T07:24:24Z</time>
      </trkpt>
      <trkpt lat="41.0862" lon="-8.5335">
        <ele>113.9916</ele>
        <time>2021-07-08T07:24:35Z</time>
      </trkpt>
      <trkpt lat="41.0844" lon="-8.53335">
        <ele>110.5398</ele>
        <time>2021-07-08T07:24:46Z</time>
      </trkpt>
      <trkpt lat="41.08266" lon="-8.53321">
        <ele>107.7247</ele>
        <time>2021-07-08T07:24:57Z</time>
      </trkpt>
      <trkpt lat="41.08084" lon="-8.53396">
        <ele>104.3858</ele>
        <time>2021-07-08T07:25:08Z</time>
      </trkpt>
      <trkpt lat="41.07899" lon="-8.53502">
        <ele>98.30961</ele>
        <time>2021-07-08T07:25:19Z</time>
      </trkpt>
      <trkpt lat="41.07688" lon="-8.53381">
        <ele>107.5619</ele>
        <time>2021-07-08T07:25:30Z</time>
      </trkpt>
      <trkpt lat="41.07479" lon="-8.53335">
        <ele>111.2621</ele>
        <time>2021-07-08T07:25:41Z</time>
      </trkpt>
      <trkpt lat="41.07257" lon="-8.53368">
        <ele>105.1094</ele>
        <time>2021-07-08T07:25:52Z</time>
      </trkpt>
      <trkpt lat="41.07041" lon="-8.53359">
        <ele>101.7089</ele>
        <time>2021-07-08T07:26:03Z</time>
      </trkpt>
      <trkpt lat="41.0692" lon="-8.53239">
        <ele>102.8903</ele>
        <time>2021-07-08T07:26:14Z</time>
      </trkpt>
      <trkpt lat="41.06768" lon="-8.53069">
        <ele>108.2117</ele>
        <time>2021-07-08T07:26:25Z</time>
      </trkpt>
      <trkpt lat="41.06594" lon="-8.52947">
        <ele>119.1354</ele>
        <time>2021-07-08T07:26:36Z</time>
      </trkpt>
      <trkpt lat="41.06415" lon="-8.52843">
        <ele>128.0353</ele>
        <time>2021-07-08T07:26:47Z</time>
      </trkpt>
      <trkpt lat="41.06269" lon="-8.52765">
        <ele>136.5746</ele>
        <time>2021-07-08T07:26:59Z</time>
      </trkpt>
      <trkpt lat="41.06179" lon="-8.52612">
        <ele>135.0603</ele>
        <time>2021-07-08T07:27:10Z</time>
      </trkpt>
      <trkpt lat="41.06095" lon="-8.52494">
        <ele>152.1558</ele>
        <time>2021-07-08T07:27:21Z</time>
      </trkpt>
      <trkpt lat="41.05996" lon="-8.52404">
        <ele>168.1203</ele>
        <time>2021-07-08T07:27:32Z</time>
      </trkpt>
      <trkpt lat="41.05893" lon="-8.52319">
        <ele>167.4107</ele>
        <time>2021-07-08T07:27:43Z</time>
      </trkpt>
      <trkpt lat="41.05816" lon="-8.52256">
        <ele>175.6065</ele>
        <time>2021-07-08T07:27:54Z</time>
      </trkpt>
      <trkpt lat="41.05779" lon="-8.52242">
        <ele>178.3069</ele>
        <time>2021-07-08T07:28:05Z</time>
      </trkpt>
      <trkpt lat="41.05707" lon="-8.52105">
        <ele>189.898</ele>
        <time>2021-07-08T07:28:16Z</time>
      </trkpt>
      <trkpt lat="41.05537" lon="-8.52087">
        <ele>196.0842</ele>
        <time>2021-07-08T07:28:27Z</time>
      </trkpt>
      <trkpt lat="41.05378" lon="-8.52235">
        <ele>209.4233</ele>
        <time>2021-07-08T07:28:38Z</time>
      </trkpt>
      <trkpt lat="41.05212" lon="-8.52254">
        <ele>220.3658</ele>
        <time>2021-07-08T07:28:49Z</time>
      </trkpt>
      <trkpt lat="41.05102" lon="-8.52106">
        <ele>224.6576</ele>
        <time>2021-07-08T07:29:00Z</time>
      </trkpt>
      <trkpt lat="41.04967" lon="-8.52">
        <ele>229.8181</ele>
        <time>2021-07-08T07:29:11Z</time>
      </trkpt>
      <trkpt lat="41.04804" lon="-8.5191">
        <ele>229.3463</ele>
        <time>2021-07-08T07:29:22Z</time>
      </trkpt>
      <trkpt lat="41.04673" lon="-8.51754">
        <ele>210.8683</ele>
        <time>2021-07-08T07:29:33Z</time>
      </trkpt>
      <trkpt lat="41.04622" lon="-8.51502">
        <ele>205.9921</ele>
        <time>2021-07-08T07:29:44Z</time>
      </trkpt>
      <trkpt lat="41.04736" lon="-8.51282">
        <ele>199.4234</ele>
        <time>2021-07-08T07:29:55Z</time>
      </trkpt>
      <trkpt lat="41.04816" lon="-8.51114">
        <ele>200.1343</ele>
        <time>2021-07-08T07:30:06Z</time>
      </trkpt>
      <trkpt lat="41.04823" lon="-8.51085">
        <ele>200.8752</ele>
        <time>2021-07-08T07:30:17Z</time>
      </trkpt>
      <trkpt lat="41.04832" lon="-8.51025">
        <ele>200.9701</ele>
        <time>2021-07-08T07:30:28Z</time>
      </trkpt>
      <trkpt lat="41.04802" lon="-8.5083">
        <ele>198.4724</ele>
        <time>2021-07-08T07:30:39Z</time>
      </trkpt>
      <trkpt lat="41.04753" lon="-8.50621">
        <ele>186.0651</ele>
        <time>2021-07-08T07:30:50Z</time>
      </trkpt>
      <trkpt lat="41.04693" lon="-8.50351">
        <ele>168.7025</ele>
        <time>2021-07-08T07:31:01Z</time>
      </trkpt>
      <trkpt lat="41.04635" lon="-8.50084">
        <ele>166.0343</ele>
        <time>2021-07-08T07:31:12Z</time>
      </trkpt>
      <trkpt lat="41.04653" lon="-8.49788">
        <ele>162.8576</ele>
        <time>2021-07-08T07:31:23Z</time>
      </trkpt>
      <trkpt lat="41.04644" lon="-8.49455">
        <ele>146.8608</ele>
        <time>2021-07-08T07:31:34Z</time>
      </trkpt>
      <trkpt lat="41.04646" lon="-8.49172">
        <ele>127.3772</ele>
        <time>2021-07-08T07:31:45Z</time>
      </trkpt>
      <trkpt lat="41.04747" lon="-8.48984">
        <ele>112.7096</ele>
        <time>2021-07-08T07:31:56Z</time>
      </trkpt>
      <trkpt lat="41.04664" lon="-8.48879">
        <ele>106.8815</ele>
        <time>2021-07-08T07:32:07Z</time>
      </trkpt>
      <trkpt lat="41.04567" lon="-8.48752">
        <ele>94.76349</ele>
        <time>2021-07-08T07:32:18Z</time>
      </trkpt>
      <trkpt lat="41.0457" lon="-8.48523">
        <ele>71.39098</ele>
        <time>2021-07-08T07:32:29Z</time>
      </trkpt>
      <trkpt lat="41.04444" lon="-8.48439">
        <ele>56.99747</ele>
        <time>2021-07-08T07:32:40Z</time>
      </trkpt>
      <trkpt lat="41.04267" lon="-8.48403">
        <ele>58.6911</ele>
        <time>2021-07-08T07:32:51Z</time>
      </trkpt>
      <trkpt lat="41.0416" lon="-8.48198">
        <ele>60.66653</ele>
        <time>2021-07-08T07:33:02Z</time>
      </trkpt>
      <trkpt lat="41.04007" lon="-8.48035">
        <ele>50.62082</ele>
        <time>2021-07-08T07:33:13Z</time>
      </trkpt>
      <trkpt lat="41.03902" lon="-8.47919">
        <ele>49.65945</ele>
        <time>2021-07-08T07:33:24Z</time>
      </trkpt>
      <trkpt lat="41.03756" lon="-8.47871">
        <ele>57.21002</ele>
        <time>2021-07-08T07:33:35Z</time>
      </trkpt>
      <trkpt lat="41.0362" lon="-8.47857">
        <ele>71.65278</ele>
        <time>2021-07-08T07:33:46Z</time>
      </trkpt>
      <trkpt lat="41.03537" lon="-8.4798">
        <ele>95.55562</ele>
        <time>2021-07-08T07:33:57Z</time>
      </trkpt>
      <trkpt lat="41.03375" lon="-8.47952">
        <ele>100.6347</ele>
        <time>2021-07-08T07:34:08Z</time>
      </trkpt>
      <trkpt lat="41.03295" lon="-8.47792">
        <ele>104.9909</ele>
        <time>2021-07-08T07:34:19Z</time>
      </trkpt>
      <trkpt lat="41.03137" lon="-8.47697">
        <ele>123.711</ele>
        <time>2021-07-08T07:34:30Z</time>
      </trkpt>
      <trkpt lat="41.02998" lon="-8.47756">
        <ele>128.7256</ele>
        <time>2021-07-08T07:34:41Z</time>
      </trkpt>
      <trkpt lat="41.02901" lon="-8.47621">
        <ele>143.8034</ele>
        <time>2021-07-08T07:34:52Z</time>
      </trkpt>
      <trkpt lat="41.02834" lon="-8.475">
        <ele>154.7494</ele>
        <time>2021-07-08T07:35:03Z</time>
      </trkpt>
      <trkpt lat="41.02691" lon="-8.47562">
        <ele>164.3748</ele>
        <time>2021-07-08T07:35:14Z</time>
      </trkpt>
      <trkpt lat="41.02558" lon="-8.4751">
        <ele>173.6497</ele>
        <time>2021-07-08T07:35:25Z</time>
      </trkpt>
      <trkpt lat="41.02392" lon="-8.47463">
        <ele>177.7384</ele>
        <time>2021-07-08T07:35:36Z</time>
      </trkpt>
      <trkpt lat="41.02248" lon="-8.47455">
        <ele>178.9951</ele>
        <time>2021-07-08T07:35:47Z</time>
      </trkpt>
      <trkpt lat="41.02096" lon="-8.47463">
        <ele>172.2013</ele>
        <time>2021-07-08T07:35:58Z</time>
      </trkpt>
      <trkpt lat="41.01976" lon="-8.47352">
        <ele>160.0675</ele>
        <time>2021-07-08T07:36:09Z</time>
      </trkpt>
      <trkpt lat="41.01848" lon="-8.47236">
        <ele>157.5034</ele>
        <time>2021-07-08T07:36:20Z</time>
      </trkpt>
      <trkpt lat="41.0171" lon="-8.47169">
        <ele>156.5347</ele>
        <time>2021-07-08T07:36:31Z</time>
      </trkpt>
      <trkpt lat="41.01569" lon="-8.47119">
        <ele>160.1848</ele>
        <time>2021-07-08T07:36:42Z</time>
      </trkpt>
      <trkpt lat="41.01473" lon="-8.46944">
        <ele>169.9563</ele>
        <time>2021-07-08T07:36:53Z</time>
      </trkpt>
      <trkpt lat="41.01379" lon="-8.46773">
        <ele>182.3549</ele>
        <time>2021-07-08T07:37:04Z</time>
      </trkpt>
      <trkpt lat="41.01288" lon="-8.46594">
        <ele>194.6137</ele>
        <time>2021-07-08T07:37:15Z</time>
      </trkpt>
      <trkpt lat="41.01215" lon="-8.46427">
        <ele>204.2284</ele>
        <time>2021-07-08T07:37:26Z</time>
      </trkpt>
      <trkpt lat="41.01148" lon="-8.46262">
        <ele>211.242</ele>
        <time>2021-07-08T07:37:37Z</time>
      </trkpt>
      <trkpt lat="41.01091" lon="-8.46185">
        <ele>215.5323</ele>
        <time>2021-07-08T07:37:48Z</time>
      </trkpt>
      <trkpt lat="41.01064" lon="-8.46177">
        <ele>216.6891</ele>
        <time>2021-07-08T07:37:59Z</time>
      </trkpt>
      <trkpt lat="41.01025" lon="-8.46194">
        <ele>218.6518</ele>
        <time>2021-07-08T07:38:10Z</time>
      </trkpt>
      <trkpt lat="41.01065" lon="-8.46118">
        <ele>214.3072</ele>
        <time>2021-07-08T07:38:21Z</time>
      </trkpt>
      <trkpt lat="41.01111" lon="-8.45962">
        <ele>207.6377</ele>
        <time>2021-07-08T07:38:32Z</time>
      </trkpt>
      <trkpt lat="41.01163" lon="-8.45769">
        <ele>201.2896</ele>
        <time>2021-07-08T07:38:43Z</time>
      </trkpt>
      <trkpt lat="41.01204" lon="-8.45586">
        <ele>201.0616</ele>
        <time>2021-07-08T07:38:54Z</time>
      </trkpt>
      <trkpt lat="41.01158" lon="-8.45443">
        <ele>191.643</ele>
        <time>2021-07-08T07:39:05Z</time>
      </trkpt>
      <trkpt lat="41.0116" lon="-8.45304">
        <ele>186.8513</ele>
        <time>2021-07-08T07:39:16Z</time>
      </trkpt>
      <trkpt lat="41.01246" lon="-8.45222">
        <ele>183.9481</ele>
        <time>2021-07-08T07:39:27Z</time>
      </trkpt>
      <trkpt lat="41.01297" lon="-8.45098">
        <ele>182.555</ele>
        <time>2021-07-08T07:39:38Z</time>
      </trkpt>
      <trkpt lat="41.01429" lon="-8.45063">
        <ele>178.6202</ele>
        <time>2021-07-08T07:39:49Z</time>
      </trkpt>
      <trkpt lat="41.01576" lon="-8.45064">
        <ele>165.5032</ele>
        <time>2021-07-08T07:40:00Z</time>
      </trkpt>
      <trkpt lat="41.01737" lon="-8.45028">
        <ele>154.8397</ele>
        <time>2021-07-08T07:40:11Z</time>
      </trkpt>
      <trkpt lat="41.01799" lon="-8.44879">
        <ele>148.6244</ele>
        <time>2021-07-08T07:40:22Z</time>
      </trkpt>
      <trkpt lat="41.01738" lon="-8.44684">
        <ele>140.3426</ele>
        <time>2021-07-08T07:40:33Z</time>
      </trkpt>
      <trkpt lat="41.01673" lon="-8.44463">
        <ele>136.7081</ele>
        <time>2021-07-08T07:40:44Z</time>
      </trkpt>
      <trkpt lat="41.01617" lon="-8.44267">
        <ele>124.5073</ele>
        <time>2021-07-08T07:40:55Z</time>
      </trkpt>
      <trkpt lat="41.01605" lon="-8.44032">
        <ele>115.0455</ele>
        <time>2021-07-08T07:41:06Z</time>
      </trkpt>
      <trkpt lat="41.01592" lon="-8.43813">
        <ele>106.0359</ele>
        <time>2021-07-08T07:41:17Z</time>
      </trkpt>
      <trkpt lat="41.01654" lon="-8.43677">
        <ele>99.01203</ele>
        <time>2021-07-08T07:41:28Z</time>
      </trkpt>
      <trkpt lat="41.01715" lon="-8.43519">
        <ele>89.80699</ele>
        <time>2021-07-08T07:41:39Z</time>
      </trkpt>
      <trkpt lat="41.01818" lon="-8.43397">
        <ele>75.5655</ele>
        <time>2021-07-08T07:41:50Z</time>
      </trkpt>
      <trkpt lat="41.01899" lon="-8.432">
        <ele>68.32909</ele>
        <time>2021-07-08T07:42:01Z</time>
      </trkpt>
      <trkpt lat="41.01997" lon="-8.43091">
        <ele>64.27413</ele>
        <time>2021-07-08T07:42:12Z</time>
      </trkpt>
      <trkpt lat="41.02124" lon="-8.43103">
        <ele>61.0053</ele>
        <time>2021-07-08T07:42:23Z</time>
      </trkpt>
      <trkpt lat="41.02246" lon="-8.43092">
        <ele>52.3479</ele>
        <time>2021-07-08T07:42:34Z</time>
      </trkpt>
      <trkpt lat="41.02355" lon="-8.43018">
        <ele>34.46731</ele>
        <time>2021-07-08T07:42:45Z</time>
      </trkpt>
      <trkpt lat="41.02493" lon="-8.42993">
        <ele>28.18165</ele>
        <time>2021-07-08T07:42:56Z</time>
      </trkpt>
      <trkpt lat="41.02624" lon="-8.43026">
        <ele>35.36506</ele>
        <time>2021-07-08T07:43:07Z</time>
      </trkpt>
      <trkpt lat="41.0278" lon="-8.43071">
        <ele>48.65492</ele>
        <time>2021-07-08T07:43:18Z</time>
      </trkpt>
      <trkpt lat="41.02911" lon="-8.43144">
        <ele>58.50969</ele>
        <time>2021-07-08T07:43:29Z</time>
      </trkpt>
      <trkpt lat="41.02904" lon="-8.42999">
        <ele>65.6646</ele>
        <time>2021-07-08T07:43:40Z</time>
      </trkpt>
      <trkpt lat="41.02998" lon="-8.42873">
        <ele>76.77226</ele>
        <time>2021-07-08T07:43:51Z</time>
      </trkpt>
      <trkpt lat="41.03065" lon="-8.42714">
        <ele>86.50446</ele>
        <time>2021-07-08T07:44:02Z</time>
      </trkpt>
      <trkpt lat="41.03161" lon="-8.42655">
        <ele>94.64527</ele>
        <time>2021-07-08T07:44:13Z</time>
      </trkpt>
      <trkpt lat="41.03288" lon="-8.42641">
        <ele>103.7407</ele>
        <time>2021-07-08T07:44:24Z</time>
      </trkpt>
      <trkpt lat="41.0338" lon="-8.42558">
        <ele>111.9146</ele>
        <time>2021-07-08T07:44:35Z</time>
      </trkpt>
      <trkpt lat="41.03308" lon="-8.4242">
        <ele>114.2336</ele>
        <time>2021-07-08T07:44:46Z</time>
      </trkpt>
      <trkpt lat="41.03225" lon="-8.42267">
        <ele>118.9814</ele>
        <time>2021-07-08T07:44:57Z</time>
      </trkpt>
      <trkpt lat="41.03167" lon="-8.42091">
        <ele>131.5682</ele>
        <time>2021-07-08T07:45:08Z</time>
      </trkpt>
      <trkpt lat="41.03094" lon="-8.41953">
        <ele>134.4702</ele>
        <time>2021-07-08T07:45:19Z</time>
      </trkpt>
      <trkpt lat="41.03003" lon="-8.41835">
        <ele>134.2044</ele>
        <time>2021-07-08T07:45:30Z</time>
      </trkpt>
      <trkpt lat="41.03095" lon="-8.41708">
        <ele>139.7533</ele>
        <time>2021-07-08T07:45:41Z</time>
      </trkpt>
      <trkpt lat="41.03204" lon="-8.41573">
        <ele>154.8276</ele>
        <time>2021-07-08T07:45:52Z</time>
      </trkpt>
      <trkpt lat="41.03222" lon="-8.41375">
        <ele>163.7621</ele>
        <time>2021-07-08T07:46:03Z</time>
      </trkpt>
      <trkpt lat="41.03193" lon="-8.41159">
        <ele>175.6144</ele>
        <time>2021-07-08T07:46:14Z</time>
      </trkpt>
      <trkpt lat="41.03224" lon="-8.40976">
        <ele>187.3167</ele>
        <time>2021-07-08T07:46:25Z</time>
      </trkpt>
      <trkpt lat="41.03248" lon="-8.40757">
        <ele>199.0039</ele>
        <time>2021-07-08T07:46:36Z</time>
      </trkpt>
      <trkpt lat="41.03221" lon="-8.4059">
        <ele>199.1346</ele>
        <time>2021-07-08T07:46:47Z</time>
      </trkpt>
      <trkpt lat="41.03142" lon="-8.40462">
        <ele>181.8337</ele>
        <time>2021-07-08T07:46:58Z</time>
      </trkpt>
      <trkpt lat="41.03148" lon="-8.40312">
        <ele>182.3985</ele>
        <time>2021-07-08T07:47:09Z</time>
      </trkpt>
      <trkpt lat="41.03083" lon="-8.40183">
        <ele>169.9385</ele>
        <time>2021-07-08T07:47:20Z</time>
      </trkpt>
      <trkpt lat="41.03022" lon="-8.40011">
        <ele>164.6938</ele>
        <time>2021-07-08T07:47:31Z</time>
      </trkpt>
      <trkpt lat="41.02925" lon="-8.39943">
        <ele>161.9436</ele>
        <time>2021-07-08T07:47:42Z</time>
      </trkpt>
      <trkpt lat="41.0281" lon="-8.39867">
        <ele>155.566</ele>
        <time>2021-07-08T07:47:53Z</time>
      </trkpt>
      <trkpt lat="41.0276" lon="-8.39739">
        <ele>147.1243</ele>
        <time>2021-07-08T07:48:04Z</time>
      </trkpt>
      <trkpt lat="41.02881" lon="-8.3971">
        <ele>145.1835</ele>
        <time>2021-07-08T07:48:15Z</time>
      </trkpt>
      <trkpt lat="41.03025" lon="-8.39733">
        <ele>157.7109</ele>
        <time>2021-07-08T07:48:26Z</time>
      </trkpt>
      <trkpt lat="41.03165" lon="-8.39694">
        <ele>162.7662</ele>
        <time>2021-07-08T07:48:37Z</time>
      </trkpt>
      <trkpt lat="41.03291" lon="-8.39718">
        <ele>170.1168</ele>
        <time>2021-07-08T07:48:48Z</time>
      </trkpt>
      <trkpt lat="41.03387" lon="-8.39646">
        <ele>166.7541</ele>
        <time>2021-07-08T07:48:59Z</time>
      </trkpt>
      <trkpt lat="41.03455" lon="-8.39556">
        <ele>162.7733</ele>
        <time>2021-07-08T07:49:10Z</time>
      </trkpt>
      <trkpt lat="41.03488" lon="-8.39619">
        <ele>159.3089</ele>
        <time>2021-07-08T07:49:21Z</time>
      </trkpt>
      <trkpt lat="41.03528" lon="-8.3971">
        <ele>155.9071</ele>
        <time>2021-07-08T07:49:32Z</time>
      </trkpt>
      <trkpt lat="41.03681" lon="-8.39662">
        <ele>160.2657</ele>
        <time>2021-07-08T07:49:43Z</time>
      </trkpt>
      <trkpt lat="41.03799" lon="-8.39514">
        <ele>156.9862</ele>
        <time>2021-07-08T07:49:54Z</time>
      </trkpt>
      <trkpt lat="41.03944" lon="-8.39463">
        <ele>145.6862</ele>
        <time>2021-07-08T07:50:05Z</time>
      </trkpt>
      <trkpt lat="41.04094" lon="-8.39643">
        <ele>130.196</ele>
        <time>2021-07-08T07:50:16Z</time>
      </trkpt>
      <trkpt lat="41.04291" lon="-8.39646">
        <ele>126.4539</ele>
        <time>2021-07-08T07:50:27Z</time>
      </trkpt>
      <trkpt lat="41.04475" lon="-8.39568">
        <ele>116.3336</ele>
        <time>2021-07-08T07:50:38Z</time>
      </trkpt>
      <trkpt lat="41.04591" lon="-8.39438">
        <ele>105.07</ele>
        <time>2021-07-08T07:50:49Z</time>
      </trkpt>
      <trkpt lat="41.04659" lon="-8.3922">
        <ele>99.8345</ele>
        <time>2021-07-08T07:51:00Z</time>
      </trkpt>
      <trkpt lat="41.04786" lon="-8.38989">
        <ele>85.06785</ele>
        <time>2021-07-08T07:51:11Z</time>
      </trkpt>
      <trkpt lat="41.04781" lon="-8.38752">
        <ele>58.41215</ele>
        <time>2021-07-08T07:51:22Z</time>
      </trkpt>
      <trkpt lat="41.0474" lon="-8.38508">
        <ele>44.17316</ele>
        <time>2021-07-08T07:51:33Z</time>
      </trkpt>
      <trkpt lat="41.04755" lon="-8.38305">
        <ele>31.57127</ele>
        <time>2021-07-08T07:51:44Z</time>
      </trkpt>
      <trkpt lat="41.0473" lon="-8.38159">
        <ele>31.80561</ele>
        <time>2021-07-08T07:51:55Z</time>
      </trkpt>
      <trkpt lat="41.04727" lon="-8.38043">
        <ele>28.38898</ele>
        <time>2021-07-08T07:52:06Z</time>
      </trkpt>
      <trkpt lat="41.0474" lon="-8.37936">
        <ele>24.94664</ele>
        <time>2021-07-08T07:52:17Z</time>
      </trkpt>
      <trkpt lat="41.04761" lon="-8.37811">
        <ele>27.40664</ele>
        <time>2021-07-08T07:52:28Z</time>
      </trkpt>
      <trkpt lat="41.0479" lon="-8.37664">
        <ele>27.45711</ele>
        <time>2021-07-08T07:52:39Z</time>
      </trkpt>
      <trkpt lat="41.04828" lon="-8.37492">
        <ele>26.24361</ele>
        <time>2021-07-08T07:52:50Z</time>
      </trkpt>
      <trkpt lat="41.04888" lon="-8.37312">
        <ele>26.02948</ele>
        <time>2021-07-08T07:53:01Z</time>
      </trkpt>
      <trkpt lat="41.04925" lon="-8.37099">
        <ele>32.43519</ele>
        <time>2021-07-08T07:53:12Z</time>
      </trkpt>
      <trkpt lat="41.04819" lon="-8.36838">
        <ele>39.3451</ele>
        <time>2021-07-08T07:53:23Z</time>
      </trkpt>
      <trkpt lat="41.04611" lon="-8.36636">
        <ele>46.73116</ele>
        <time>2021-07-08T07:53:34Z</time>
      </trkpt>
      <trkpt lat="41.04433" lon="-8.36469">
        <ele>55.68583</ele>
        <time>2021-07-08T07:53:45Z</time>
      </trkpt>
      <trkpt lat="41.04315" lon="-8.36299">
        <ele>66.60918</ele>
        <time>2021-07-08T07:53:56Z</time>
      </trkpt>
      <trkpt lat="41.0422" lon="-8.36229">
        <ele>64.84428</ele>
        <time>2021-07-08T07:54:07Z</time>
      </trkpt>
      <trkpt lat="41.04113" lon="-8.36129">
        <ele>65.63125</ele>
        <time>2021-07-08T07:54:18Z</time>
      </trkpt>
      <trkpt lat="41.03984" lon="-8.35967">
        <ele>73.19951</ele>
        <time>2021-07-08T07:54:29Z</time>
      </trkpt>
      <trkpt lat="41.03862" lon="-8.35809">
        <ele>85.49183</ele>
        <time>2021-07-08T07:54:40Z</time>
      </trkpt>
      <trkpt lat="41.03774" lon="-8.35605">
        <ele>88.40209</ele>
        <time>2021-07-08T07:54:51Z</time>
      </trkpt>
      <trkpt lat="41.03658" lon="-8.35388">
        <ele>97.19728</ele>
        <time>2021-07-08T07:55:02Z</time>
      </trkpt>
      <trkpt lat="41.0353" lon="-8.35191">
        <ele>107.3133</ele>
        <time>2021-07-08T07:55:13Z</time>
      </trkpt>
      <trkpt lat="41.0342" lon="-8.35042">
        <ele>113.2061</ele>
        <time>2021-07-08T07:55:24Z</time>
      </trkpt>
      <trkpt lat="41.03408" lon="-8.34936">
        <ele>115.7195</ele>
        <time>2021-07-08T07:55:35Z</time>
      </trkpt>
      <trkpt lat="41.03342" lon="-8.34844">
        <ele>114.9367</ele>
        <time>2021-07-08T07:55:46Z</time>
      </trkpt>
      <trkpt lat="41.03424" lon="-8.34683">
        <ele>113.4599</ele>
        <time>2021-07-08T07:55:57Z</time>
      </trkpt>
      <trkpt lat="41.03354" lon="-8.3455">
        <ele>112.7086</ele>
        <time>2021-07-08T07:56:08Z</time>
      </trkpt>
      <trkpt lat="41.03283" lon="-8.34378">
        <ele>114.51</ele>
        <time>2021-07-08T07:56:19Z</time>
      </trkpt>
      <trkpt lat="41.03409" lon="-8.34443">
        <ele>112.0281</ele>
        <time>2021-07-08T07:56:30Z</time>
      </trkpt>
      <trkpt lat="41.03572" lon="-8.3459">
        <ele>117.8529</ele>
        <time>2021-07-08T07:56:41Z</time>
      </trkpt>
      <trkpt lat="41.03659" lon="-8.34722">
        <ele>125.6507</ele>
        <time>2021-07-08T07:56:52Z</time>
      </trkpt>
      <trkpt lat="41.03685" lon="-8.34537">
        <ele>124.6797</ele>
        <time>2021-07-08T07:57:03Z</time>
      </trkpt>
      <trkpt lat="41.03644" lon="-8.3432">
        <ele>132.6013</ele>
        <time>2021-07-08T07:57:14Z</time>
      </trkpt>
      <trkpt lat="41.03572" lon="-8.34131">
        <ele>134.6329</ele>
        <time>2021-07-08T07:57:25Z</time>
      </trkpt>
      <trkpt lat="41.03558" lon="-8.33955">
        <ele>138.334</ele>
        <time>2021-07-08T07:57:36Z</time>
      </trkpt>
      <trkpt lat="41.03658" lon="-8.33866">
        <ele>135.9964</ele>
        <time>2021-07-08T07:57:47Z</time>
      </trkpt>
      <trkpt lat="41.03719" lon="-8.33727">
        <ele>150.3241</ele>
        <time>2021-07-08T07:57:58Z</time>
      </trkpt>
      <trkpt lat="41.03709" lon="-8.33513">
        <ele>162.3971</ele>
        <time>2021-07-08T07:58:09Z</time>
      </trkpt>
      <trkpt lat="41.03675" lon="-8.33272">
        <ele>170.9689</ele>
        <time>2021-07-08T07:58:20Z</time>
      </trkpt>
      <trkpt lat="41.03591" lon="-8.33102">
        <ele>174.1153</ele>
        <time>2021-07-08T07:58:31Z</time>
      </trkpt>
      <trkpt lat="41.03545" lon="-8.32962">
        <ele>171.361</ele>
        <time>2021-07-08T07:58:42Z</time>
      </trkpt>
      <trkpt lat="41.03641" lon="-8.32898">
        <ele>171.0918</ele>
        <time>2021-07-08T07:58:53Z</time>
      </trkpt>
      <trkpt lat="41.03635" lon="-8.32768">
        <ele>173.7161</ele>
        <time>2021-07-08T07:59:04Z</time>
      </trkpt>
      <trkpt lat="41.03746" lon="-8.32869">
        <ele>181.1536</ele>
        <time>2021-07-08T07:59:15Z</time>
      </trkpt>
      <trkpt lat="41.03876" lon="-8.33049">
        <ele>182.7283</ele>
        <time>2021-07-08T07:59:26Z</time>
      </trkpt>
      <trkpt lat="41.03979" lon="-8.32957">
        <ele>193.9795</ele>
        <time>2021-07-08T07:59:37Z</time>
      </trkpt>
      <trkpt lat="41.04076" lon="-8.32922">
        <ele>192.5409</ele>
        <time>2021-07-08T07:59:48Z</time>
      </trkpt>
      <trkpt lat="41.04095" lon="-8.32938">
        <ele>189.209</ele>
        <time>2021-07-08T07:59:59Z</time>
      </trkpt>
      <trkpt lat="41.04198" lon="-8.32892">
        <ele>191.5013</ele>
        <time>2021-07-08T08:00:10Z</time>
      </trkpt>
      <trkpt lat="41.04221" lon="-8.32659">
        <ele>199.2134</ele>
        <time>2021-07-08T08:00:21Z</time>
      </trkpt>
      <trkpt lat="41.0426" lon="-8.32503">
        <ele>204.9604</ele>
        <time>2021-07-08T08:00:32Z</time>
      </trkpt>
      <trkpt lat="41.04366" lon="-8.32504">
        <ele>210.7532</ele>
        <time>2021-07-08T08:00:43Z</time>
      </trkpt>
      <trkpt lat="41.04514" lon="-8.32511">
        <ele>213.8002</ele>
        <time>2021-07-08T08:00:54Z</time>
      </trkpt>
      <trkpt lat="41.04577" lon="-8.32577">
        <ele>201.0707</ele>
        <time>2021-07-08T08:01:05Z</time>
      </trkpt>
      <trkpt lat="41.04575" lon="-8.32591">
        <ele>198.5408</ele>
        <time>2021-07-08T08:01:16Z</time>
      </trkpt>
      <trkpt lat="41.04575" lon="-8.32593">
        <ele>200.6678</ele>
        <time>2021-07-08T08:02:15Z</time>
      </trkpt>
      <trkpt lat="41.04569" lon="-8.32592">
        <ele>200.8508</ele>
        <time>2021-07-08T08:02:46Z</time>
      </trkpt>
      <trkpt lat="41.0461" lon="-8.3257">
        <ele>204.4828</ele>
        <time>2021-07-08T08:02:57Z</time>
      </trkpt>
      <trkpt lat="41.04602" lon="-8.32386">
        <ele>210.7718</ele>
        <time>2021-07-08T08:03:08Z</time>
      </trkpt>
      <trkpt lat="41.04535" lon="-8.32202">
        <ele>213.8496</ele>
        <time>2021-07-08T08:03:19Z</time>
      </trkpt>
      <trkpt lat="41.04657" lon="-8.32156">
        <ele>218.2579</ele>
        <time>2021-07-08T08:03:30Z</time>
      </trkpt>
      <trkpt lat="41.04624" lon="-8.31929">
        <ele>219.7367</ele>
        <time>2021-07-08T08:03:41Z</time>
      </trkpt>
      <trkpt lat="41.04581" lon="-8.31784">
        <ele>224.1662</ele>
        <time>2021-07-08T08:03:52Z</time>
      </trkpt>
      <trkpt lat="41.0463" lon="-8.31667">
        <ele>231.7635</ele>
        <time>2021-07-08T08:04:03Z</time>
      </trkpt>
      <trkpt lat="41.04624" lon="-8.31511">
        <ele>231.0357</ele>
        <time>2021-07-08T08:04:14Z</time>
      </trkpt>
      <trkpt lat="41.04552" lon="-8.31305">
        <ele>216.8441</ele>
        <time>2021-07-08T08:04:25Z</time>
      </trkpt>
      <trkpt lat="41.04533" lon="-8.31089">
        <ele>200.974</ele>
        <time>2021-07-08T08:04:36Z</time>
      </trkpt>
      <trkpt lat="41.04576" lon="-8.30834">
        <ele>186.6224</ele>
        <time>2021-07-08T08:04:47Z</time>
      </trkpt>
      <trkpt lat="41.04665" lon="-8.30687">
        <ele>175.9649</ele>
        <time>2021-07-08T08:04:58Z</time>
      </trkpt>
      <trkpt lat="41.04712" lon="-8.30475">
        <ele>173.6241</ele>
        <time>2021-07-08T08:05:09Z</time>
      </trkpt>
      <trkpt lat="41.04828" lon="-8.30329">
        <ele>161.5744</ele>
        <time>2021-07-08T08:05:20Z</time>
      </trkpt>
      <trkpt lat="41.04954" lon="-8.30286">
        <ele>157.1051</ele>
        <time>2021-07-08T08:05:31Z</time>
      </trkpt>
      <trkpt lat="41.05061" lon="-8.30405">
        <ele>139.7742</ele>
        <time>2021-07-08T08:05:42Z</time>
      </trkpt>
      <trkpt lat="41.05204" lon="-8.30358">
        <ele>139.2489</ele>
        <time>2021-07-08T08:05:53Z</time>
      </trkpt>
      <trkpt lat="41.05291" lon="-8.30378">
        <ele>129.0637</ele>
        <time>2021-07-08T08:06:04Z</time>
      </trkpt>
      <trkpt lat="41.05366" lon="-8.30192">
        <ele>116.6606</ele>
        <time>2021-07-08T08:06:15Z</time>
      </trkpt>
      <trkpt lat="41.0549" lon="-8.30079">
        <ele>106.1372</ele>
        <time>2021-07-08T08:06:26Z</time>
      </trkpt>
      <trkpt lat="41.05494" lon="-8.2998">
        <ele>103.9145</ele>
        <time>2021-07-08T08:06:37Z</time>
      </trkpt>
      <trkpt lat="41.05587" lon="-8.29861">
        <ele>113.305</ele>
        <time>2021-07-08T08:06:48Z</time>
      </trkpt>
      <trkpt lat="41.05612" lon="-8.29715">
        <ele>116.2393</ele>
        <time>2021-07-08T08:06:59Z</time>
      </trkpt>
      <trkpt lat="41.05662" lon="-8.29559">
        <ele>117.2566</ele>
        <time>2021-07-08T08:07:10Z</time>
      </trkpt>
      <trkpt lat="41.05702" lon="-8.29472">
        <ele>117.839</ele>
        <time>2021-07-08T08:07:21Z</time>
      </trkpt>
      <trkpt lat="41.05722" lon="-8.29349">
        <ele>109.0554</ele>
        <time>2021-07-08T08:07:32Z</time>
      </trkpt>
      <trkpt lat="41.05831" lon="-8.29269">
        <ele>103.6055</ele>
        <time>2021-07-08T08:07:43Z</time>
      </trkpt>
      <trkpt lat="41.05927" lon="-8.29158">
        <ele>102.0523</ele>
        <time>2021-07-08T08:07:54Z</time>
      </trkpt>
      <trkpt lat="41.06041" lon="-8.29038">
        <ele>89.50294</ele>
        <time>2021-07-08T08:08:05Z</time>
      </trkpt>
      <trkpt lat="41.06153" lon="-8.29111">
        <ele>81.03314</ele>
        <time>2021-07-08T08:08:16Z</time>
      </trkpt>
      <trkpt lat="41.06285" lon="-8.29182">
        <ele>84.93255</ele>
        <time>2021-07-08T08:08:27Z</time>
      </trkpt>
      <trkpt lat="41.06411" lon="-8.29186">
        <ele>80.87524</ele>
        <time>2021-07-08T08:08:38Z</time>
      </trkpt>
      <trkpt lat="41.06505" lon="-8.2921">
        <ele>83.7283</ele>
        <time>2021-07-08T08:08:49Z</time>
      </trkpt>
      <trkpt lat="41.06518" lon="-8.29392">
        <ele>83.66976</ele>
        <time>2021-07-08T08:09:00Z</time>
      </trkpt>
      <trkpt lat="41.06552" lon="-8.29553">
        <ele>84.32964</ele>
        <time>2021-07-08T08:09:11Z</time>
      </trkpt>
      <trkpt lat="41.0657" lon="-8.29656">
        <ele>91.55887</ele>
        <time>2021-07-08T08:09:22Z</time>
      </trkpt>
      <trkpt lat="41.06594" lon="-8.29743">
        <ele>88.35852</ele>
        <time>2021-07-08T08:09:33Z</time>
      </trkpt>
      <trkpt lat="41.06734" lon="-8.29741">
        <ele>81.3732</ele>
        <time>2021-07-08T08:09:44Z</time>
      </trkpt>
      <trkpt lat="41.06851" lon="-8.29664">
        <ele>75.61733</ele>
        <time>2021-07-08T08:09:55Z</time>
      </trkpt>
      <trkpt lat="41.06982" lon="-8.29672">
        <ele>71.42355</ele>
        <time>2021-07-08T08:10:06Z</time>
      </trkpt>
      <trkpt lat="41.07093" lon="-8.29611">
        <ele>64.16345</ele>
        <time>2021-07-08T08:10:17Z</time>
      </trkpt>
      <trkpt lat="41.07229" lon="-8.29608">
        <ele>59.23742</ele>
        <time>2021-07-08T08:10:28Z</time>
      </trkpt>
      <trkpt lat="41.07349" lon="-8.29536">
        <ele>55.61306</ele>
        <time>2021-07-08T08:10:39Z</time>
      </trkpt>
      <trkpt lat="41.07457" lon="-8.29513">
        <ele>45.82632</ele>
        <time>2021-07-08T08:10:50Z</time>
      </trkpt>
      <trkpt lat="41.07598" lon="-8.29568">
        <ele>40.77859</ele>
        <time>2021-07-08T08:11:01Z</time>
      </trkpt>
      <trkpt lat="41.07716" lon="-8.29478">
        <ele>39.48609</ele>
        <time>2021-07-08T08:11:12Z</time>
      </trkpt>
      <trkpt lat="41.07804" lon="-8.29531">
        <ele>36.54144</ele>
        <time>2021-07-08T08:11:23Z</time>
      </trkpt>
      <trkpt lat="41.07945" lon="-8.29654">
        <ele>37.87201</ele>
        <time>2021-07-08T08:11:34Z</time>
      </trkpt>
      <trkpt lat="41.08063" lon="-8.29735">
        <ele>37.55932</ele>
        <time>2021-07-08T08:11:45Z</time>
      </trkpt>
      <trkpt lat="41.08145" lon="-8.29657">
        <ele>35.52448</ele>
        <time>2021-07-08T08:11:56Z</time>
      </trkpt>
      <trkpt lat="41.08205" lon="-8.29568">
        <ele>35.11</ele>
        <time>2021-07-08T08:12:07Z</time>
      </trkpt>
      <trkpt lat="41.08271" lon="-8.29545">
        <ele>35.95667</ele>
        <time>2021-07-08T08:12:18Z</time>
      </trkpt>
      <trkpt lat="41.0834" lon="-8.29482">
        <ele>35.96358</ele>
        <time>2021-07-08T08:12:29Z</time>
      </trkpt>
      <trkpt lat="41.08425" lon="-8.29408">
        <ele>36.05394</ele>
        <time>2021-07-08T08:12:40Z</time>
      </trkpt>
      <trkpt lat="41.08485" lon="-8.29303">
        <ele>33.15724</ele>
        <time>2021-07-08T08:12:51Z</time>
      </trkpt>
      <trkpt lat="41.0858" lon="-8.2924">
        <ele>32.67565</ele>
        <time>2021-07-08T08:13:02Z</time>
      </trkpt>
      <trkpt lat="41.08661" lon="-8.2917">
        <ele>31.57801</ele>
        <time>2021-07-08T08:13:13Z</time>
      </trkpt>
      <trkpt lat="41.08762" lon="-8.29116">
        <ele>35.37074</ele>
        <time>2021-07-08T08:13:24Z</time>
      </trkpt>
      <trkpt lat="41.08832" lon="-8.29056">
        <ele>36.37885</ele>
        <time>2021-07-08T08:13:35Z</time>
      </trkpt>
      <trkpt lat="41.08869" lon="-8.28983">
        <ele>34.6973</ele>
        <time>2021-07-08T08:13:46Z</time>
      </trkpt>
      <trkpt lat="41.08811" lon="-8.28902">
        <ele>33.37581</ele>
        <time>2021-07-08T08:13:57Z</time>
      </trkpt>
      <trkpt lat="41.08747" lon="-8.28822">
        <ele>31.05013</ele>
        <time>2021-07-08T08:14:08Z</time>
      </trkpt>
      <trkpt lat="41.08736" lon="-8.28749">
        <ele>31.39565</ele>
        <time>2021-07-08T08:14:19Z</time>
      </trkpt>
      <trkpt lat="41.08814" lon="-8.28597">
        <ele>49.13251</ele>
        <time>2021-07-08T08:14:30Z</time>
      </trkpt>
      <trkpt lat="41.08967" lon="-8.28447">
        <ele>67.29762</ele>
        <time>2021-07-08T08:14:41Z</time>
      </trkpt>
      <trkpt lat="41.09121" lon="-8.28226">
        <ele>77.79138</ele>
        <time>2021-07-08T08:14:52Z</time>
      </trkpt>
      <trkpt lat="41.09245" lon="-8.2797">
        <ele>86.46516</ele>
        <time>2021-07-08T08:15:03Z</time>
      </trkpt>
      <trkpt lat="41.09345" lon="-8.27735">
        <ele>87.84603</ele>
        <time>2021-07-08T08:15:14Z</time>
      </trkpt>
      <trkpt lat="41.09414" lon="-8.27517">
        <ele>80.81281</ele>
        <time>2021-07-08T08:15:25Z</time>
      </trkpt>
      <trkpt lat="41.09477" lon="-8.2724">
        <ele>65.16565</ele>
        <time>2021-07-08T08:15:36Z</time>
      </trkpt>
      <trkpt lat="41.09476" lon="-8.26968">
        <ele>62.18675</ele>
        <time>2021-07-08T08:15:47Z</time>
      </trkpt>
      <trkpt lat="41.09576" lon="-8.26722">
        <ele>59.37081</ele>
        <time>2021-07-08T08:15:58Z</time>
      </trkpt>
      <trkpt lat="41.09623" lon="-8.2646">
        <ele>60.24742</ele>
        <time>2021-07-08T08:16:09Z</time>
      </trkpt>
      <trkpt lat="41.09607" lon="-8.26278">
        <ele>69.58811</ele>
        <time>2021-07-08T08:16:20Z</time>
      </trkpt>
      <trkpt lat="41.09628" lon="-8.26074">
        <ele>74.38649</ele>
        <time>2021-07-08T08:16:31Z</time>
      </trkpt>
      <trkpt lat="41.09543" lon="-8.25954">
        <ele>79.54866</ele>
        <time>2021-07-08T08:16:42Z</time>
      </trkpt>
      <trkpt lat="41.09512" lon="-8.25785">
        <ele>89.94273</ele>
        <time>2021-07-08T08:16:53Z</time>
      </trkpt>
      <trkpt lat="41.09423" lon="-8.25653">
        <ele>102.2969</ele>
        <time>2021-07-08T08:17:04Z</time>
      </trkpt>
      <trkpt lat="41.09339" lon="-8.25543">
        <ele>114.1478</ele>
        <time>2021-07-08T08:17:15Z</time>
      </trkpt>
      <trkpt lat="41.09187" lon="-8.25624">
        <ele>132.4389</ele>
        <time>2021-07-08T08:17:26Z</time>
      </trkpt>
      <trkpt lat="41.09057" lon="-8.25703">
        <ele>141.6081</ele>
        <time>2021-07-08T08:17:37Z</time>
      </trkpt>
      <trkpt lat="41.08909" lon="-8.25648">
        <ele>154.1271</ele>
        <time>2021-07-08T08:17:48Z</time>
      </trkpt>
      <trkpt lat="41.0875" lon="-8.25634">
        <ele>164.6705</ele>
        <time>2021-07-08T08:17:59Z</time>
      </trkpt>
      <trkpt lat="41.08582" lon="-8.25624">
        <ele>161.4679</ele>
        <time>2021-07-08T08:18:10Z</time>
      </trkpt>
      <trkpt lat="41.0848" lon="-8.25599">
        <ele>161.6899</ele>
        <time>2021-07-08T08:18:21Z</time>
      </trkpt>
      <trkpt lat="41.08459" lon="-8.25507">
        <ele>158.4594</ele>
        <time>2021-07-08T08:18:32Z</time>
      </trkpt>
      <trkpt lat="41.08481" lon="-8.25361">
        <ele>156.316</ele>
        <time>2021-07-08T08:18:43Z</time>
      </trkpt>
      <trkpt lat="41.08495" lon="-8.25218">
        <ele>152.5947</ele>
        <time>2021-07-08T08:18:54Z</time>
      </trkpt>
      <trkpt lat="41.08588" lon="-8.25071">
        <ele>149.2794</ele>
        <time>2021-07-08T08:19:05Z</time>
      </trkpt>
      <trkpt lat="41.08658" lon="-8.24966">
        <ele>144.8248</ele>
        <time>2021-07-08T08:19:16Z</time>
      </trkpt>
      <trkpt lat="41.08716" lon="-8.24885">
        <ele>145.7364</ele>
        <time>2021-07-08T08:19:27Z</time>
      </trkpt>
      <trkpt lat="41.08766" lon="-8.24827">
        <ele>144.7857</ele>
        <time>2021-07-08T08:19:38Z</time>
      </trkpt>
      <trkpt lat="41.0882" lon="-8.24763">
        <ele>139.5255</ele>
        <time>2021-07-08T08:19:49Z</time>
      </trkpt>
      <trkpt lat="41.08823" lon="-8.24743">
        <ele>138.3212</ele>
        <time>2021-07-08T08:20:00Z</time>
      </trkpt>
      <trkpt lat="41.08895" lon="-8.24709">
        <ele>139.4291</ele>
        <time>2021-07-08T08:20:11Z</time>
      </trkpt>
      <trkpt lat="41.08967" lon="-8.24691">
        <ele>139.2065</ele>
        <time>2021-07-08T08:20:22Z</time>
      </trkpt>
      <trkpt lat="41.09043" lon="-8.24634">
        <ele>138.6581</ele>
        <time>2021-07-08T08:20:33Z</time>
      </trkpt>
      <trkpt lat="41.09139" lon="-8.24545">
        <ele>139.1239</ele>
        <time>2021-07-08T08:20:44Z</time>
      </trkpt>
      <trkpt lat="41.09297" lon="-8.24519">
        <ele>147.4707</ele>
        <time>2021-07-08T08:20:55Z</time>
      </trkpt>
      <trkpt lat="41.09437" lon="-8.24464">
        <ele>155.1592</ele>
        <time>2021-07-08T08:21:06Z</time>
      </trkpt>
      <trkpt lat="41.09556" lon="-8.24395">
        <ele>161.6628</ele>
        <time>2021-07-08T08:21:17Z</time>
      </trkpt>
      <trkpt lat="41.09674" lon="-8.24352">
        <ele>168.2716</ele>
        <time>2021-07-08T08:21:28Z</time>
      </trkpt>
      <trkpt lat="41.09773" lon="-8.24279">
        <ele>179.2869</ele>
        <time>2021-07-08T08:21:39Z</time>
      </trkpt>
      <trkpt lat="41.09884" lon="-8.24366">
        <ele>182.6235</ele>
        <time>2021-07-08T08:21:50Z</time>
      </trkpt>
      <trkpt lat="41.0996" lon="-8.24259">
        <ele>185.9468</ele>
        <time>2021-07-08T08:22:01Z</time>
      </trkpt>
      <trkpt lat="41.10005" lon="-8.24118">
        <ele>195.32</ele>
        <time>2021-07-08T08:22:12Z</time>
      </trkpt>
      <trkpt lat="41.10159" lon="-8.24101">
        <ele>196.2465</ele>
        <time>2021-07-08T08:22:23Z</time>
      </trkpt>
      <trkpt lat="41.10322" lon="-8.24085">
        <ele>197.6023</ele>
        <time>2021-07-08T08:22:34Z</time>
      </trkpt>
      <trkpt lat="41.10486" lon="-8.24068">
        <ele>199.0368</ele>
        <time>2021-07-08T08:22:45Z</time>
      </trkpt>
      <trkpt lat="41.10621" lon="-8.24023">
        <ele>201.782</ele>
        <time>2021-07-08T08:22:56Z</time>
      </trkpt>
      <trkpt lat="41.10674" lon="-8.23876">
        <ele>198.1652</ele>
        <time>2021-07-08T08:23:07Z</time>
      </trkpt>
      <trkpt lat="41.10631" lon="-8.23703">
        <ele>196.3718</ele>
        <time>2021-07-08T08:23:18Z</time>
      </trkpt>
      <trkpt lat="41.10699" lon="-8.23597">
        <ele>201.6675</ele>
        <time>2021-07-08T08:23:29Z</time>
      </trkpt>
      <trkpt lat="41.10815" lon="-8.23552">
        <ele>206.8132</ele>
        <time>2021-07-08T08:23:40Z</time>
      </trkpt>
      <trkpt lat="41.1095" lon="-8.2351">
        <ele>206.3037</ele>
        <time>2021-07-08T08:23:51Z</time>
      </trkpt>
      <trkpt lat="41.11062" lon="-8.23447">
        <ele>206.8344</ele>
        <time>2021-07-08T08:24:02Z</time>
      </trkpt>
      <trkpt lat="41.11204" lon="-8.23418">
        <ele>209.6432</ele>
        <time>2021-07-08T08:24:13Z</time>
      </trkpt>
      <trkpt lat="41.1133" lon="-8.23362">
        <ele>210.6975</ele>
        <time>2021-07-08T08:24:24Z</time>
      </trkpt>
      <trkpt lat="41.1141" lon="-8.2322">
        <ele>210.7388</ele>
        <time>2021-07-08T08:24:35Z</time>
      </trkpt>
      <trkpt lat="41.11419" lon="-8.23045">
        <ele>208.2767</ele>
        <time>2021-07-08T08:24:46Z</time>
      </trkpt>
      <trkpt lat="41.11447" lon="-8.22889">
        <ele>205.6956</ele>
        <time>2021-07-08T08:24:57Z</time>
      </trkpt>
      <trkpt lat="41.11535" lon="-8.22731">
        <ele>206.8928</ele>
        <time>2021-07-08T08:25:08Z</time>
      </trkpt>
      <trkpt lat="41.11602" lon="-8.22594">
        <ele>209.5727</ele>
        <time>2021-07-08T08:25:19Z</time>
      </trkpt>
      <trkpt lat="41.11698" lon="-8.22405">
        <ele>206.5822</ele>
        <time>2021-07-08T08:25:30Z</time>
      </trkpt>
      <trkpt lat="41.11791" lon="-8.22237">
        <ele>199.386</ele>
        <time>2021-07-08T08:25:41Z</time>
      </trkpt>
      <trkpt lat="41.11951" lon="-8.22151">
        <ele>193.0511</ele>
        <time>2021-07-08T08:25:52Z</time>
      </trkpt>
      <trkpt lat="41.12111" lon="-8.2209">
        <ele>196.7702</ele>
        <time>2021-07-08T08:26:03Z</time>
      </trkpt>
      <trkpt lat="41.12253" lon="-8.22011">
        <ele>200.757</ele>
        <time>2021-07-08T08:26:14Z</time>
      </trkpt>
      <trkpt lat="41.12283" lon="-8.21991">
        <ele>203.0281</ele>
        <time>2021-07-08T08:26:25Z</time>
      </trkpt>
      <trkpt lat="41.12288" lon="-8.21988">
        <ele>203.5525</ele>
        <time>2021-07-08T08:27:06Z</time>
      </trkpt>
      <trkpt lat="41.12367" lon="-8.21881">
        <ele>206.3789</ele>
        <time>2021-07-08T08:27:17Z</time>
      </trkpt>
      <trkpt lat="41.1246" lon="-8.21711">
        <ele>211.7444</ele>
        <time>2021-07-08T08:27:28Z</time>
      </trkpt>
      <trkpt lat="41.12589" lon="-8.21582">
        <ele>214.1076</ele>
        <time>2021-07-08T08:27:39Z</time>
      </trkpt>
      <trkpt lat="41.12706" lon="-8.21442">
        <ele>214.9579</ele>
        <time>2021-07-08T08:27:50Z</time>
      </trkpt>
      <trkpt lat="41.12768" lon="-8.21259">
        <ele>220.7117</ele>
        <time>2021-07-08T08:28:01Z</time>
      </trkpt>
      <trkpt lat="41.12832" lon="-8.21067">
        <ele>221.7398</ele>
        <time>2021-07-08T08:28:12Z</time>
      </trkpt>
      <trkpt lat="41.12906" lon="-8.20858">
        <ele>221.0269</ele>
        <time>2021-07-08T08:28:23Z</time>
      </trkpt>
      <trkpt lat="41.13063" lon="-8.20757">
        <ele>224.0415</ele>
        <time>2021-07-08T08:28:34Z</time>
      </trkpt>
      <trkpt lat="41.13221" lon="-8.2069">
        <ele>227.3506</ele>
        <time>2021-07-08T08:28:45Z</time>
      </trkpt>
      <trkpt lat="41.13382" lon="-8.20713">
        <ele>230.5175</ele>
        <time>2021-07-08T08:28:56Z</time>
      </trkpt>
      <trkpt lat="41.13544" lon="-8.20629">
        <ele>237.1817</ele>
        <time>2021-07-08T08:29:07Z</time>
      </trkpt>
      <trkpt lat="41.1369" lon="-8.20559">
        <ele>248.4289</ele>
        <time>2021-07-08T08:29:18Z</time>
      </trkpt>
      <trkpt lat="41.13832" lon="-8.20556">
        <ele>245.8675</ele>
        <time>2021-07-08T08:29:29Z</time>
      </trkpt>
      <trkpt lat="41.1393" lon="-8.20465">
        <ele>242.0646</ele>
        <time>2021-07-08T08:29:40Z</time>
      </trkpt>
      <trkpt lat="41.14051" lon="-8.20442">
        <ele>239.348</ele>
        <time>2021-07-08T08:29:51Z</time>
      </trkpt>
      <trkpt lat="41.14165" lon="-8.2036">
        <ele>238.1176</ele>
        <time>2021-07-08T08:30:02Z</time>
      </trkpt>
      <trkpt lat="41.14168" lon="-8.20215">
        <ele>236.3363</ele>
        <time>2021-07-08T08:30:13Z</time>
      </trkpt>
      <trkpt lat="41.14241" lon="-8.20092">
        <ele>238.4755</ele>
        <time>2021-07-08T08:30:24Z</time>
      </trkpt>
      <trkpt lat="41.14414" lon="-8.19967">
        <ele>237.9453</ele>
        <time>2021-07-08T08:30:35Z</time>
      </trkpt>
      <trkpt lat="41.14609" lon="-8.19854">
        <ele>231.7379</ele>
        <time>2021-07-08T08:30:46Z</time>
      </trkpt>
      <trkpt lat="41.1477" lon="-8.19649">
        <ele>234.49</ele>
        <time>2021-07-08T08:30:57Z</time>
      </trkpt>
      <trkpt lat="41.14915" lon="-8.19449">
        <ele>243.7087</ele>
        <time>2021-07-08T08:31:08Z</time>
      </trkpt>
      <trkpt lat="41.15084" lon="-8.19274">
        <ele>246.1257</ele>
        <time>2021-07-08T08:31:19Z</time>
      </trkpt>
      <trkpt lat="41.1523" lon="-8.19137">
        <ele>250.3925</ele>
        <time>2021-07-08T08:31:30Z</time>
      </trkpt>
      <trkpt lat="41.15368" lon="-8.19059">
        <ele>250.5111</ele>
        <time>2021-07-08T08:31:41Z</time>
      </trkpt>
      <trkpt lat="41.15446" lon="-8.19025">
        <ele>248.3316</ele>
        <time>2021-07-08T08:31:52Z</time>
      </trkpt>
      <trkpt lat="41.15596" lon="-8.18908">
        <ele>242.7796</ele>
        <time>2021-07-08T08:32:03Z</time>
      </trkpt>
      <trkpt lat="41.15752" lon="-8.18805">
        <ele>239.0572</ele>
        <time>2021-07-08T08:32:14Z</time>
      </trkpt>
      <trkpt lat="41.15912" lon="-8.18686">
        <ele>239.2695</ele>
        <time>2021-07-08T08:32:25Z</time>
      </trkpt>
      <trkpt lat="41.16033" lon="-8.18578">
        <ele>239.2093</ele>
        <time>2021-07-08T08:32:36Z</time>
      </trkpt>
      <trkpt lat="41.16119" lon="-8.18404">
        <ele>238.0192</ele>
        <time>2021-07-08T08:32:47Z</time>
      </trkpt>
      <trkpt lat="41.16112" lon="-8.18235">
        <ele>227.2479</ele>
        <time>2021-07-08T08:32:58Z</time>
      </trkpt>
      <trkpt lat="41.16265" lon="-8.18114">
        <ele>236.3081</ele>
        <time>2021-07-08T08:33:09Z</time>
      </trkpt>
      <trkpt lat="41.16326" lon="-8.1795">
        <ele>238.4464</ele>
        <time>2021-07-08T08:33:20Z</time>
      </trkpt>
      <trkpt lat="41.16231" lon="-8.1777">
        <ele>227.5368</ele>
        <time>2021-07-08T08:33:31Z</time>
      </trkpt>
      <trkpt lat="41.16101" lon="-8.1764">
        <ele>222.0974</ele>
        <time>2021-07-08T08:33:42Z</time>
      </trkpt>
      <trkpt lat="41.16128" lon="-8.1744">
        <ele>216.6618</ele>
        <time>2021-07-08T08:33:53Z</time>
      </trkpt>
      <trkpt lat="41.16273" lon="-8.17357">
        <ele>209.1649</ele>
        <time>2021-07-08T08:34:04Z</time>
      </trkpt>
      <trkpt lat="41.16396" lon="-8.17239">
        <ele>201.2475</ele>
        <time>2021-07-08T08:34:15Z</time>
      </trkpt>
      <trkpt lat="41.16446" lon="-8.16985">
        <ele>190.9723</ele>
        <time>2021-07-08T08:34:26Z</time>
      </trkpt>
      <trkpt lat="41.16397" lon="-8.168">
        <ele>180.8456</ele>
        <time>2021-07-08T08:34:37Z</time>
      </trkpt>
      <trkpt lat="41.16371" lon="-8.1662">
        <ele>172.1207</ele>
        <time>2021-07-08T08:34:48Z</time>
      </trkpt>
      <trkpt lat="41.16268" lon="-8.16463">
        <ele>172.724</ele>
        <time>2021-07-08T08:34:59Z</time>
      </trkpt>
      <trkpt lat="41.16339" lon="-8.16343">
        <ele>174.3195</ele>
        <time>2021-07-08T08:35:10Z</time>
      </trkpt>
      <trkpt lat="41.16478" lon="-8.16428">
        <ele>184.9439</ele>
        <time>2021-07-08T08:35:21Z</time>
      </trkpt>
      <trkpt lat="41.16603" lon="-8.16545">
        <ele>193.5211</ele>
        <time>2021-07-08T08:35:32Z</time>
      </trkpt>
      <trkpt lat="41.16733" lon="-8.16646">
        <ele>201.4725</ele>
        <time>2021-07-08T08:35:43Z</time>
      </trkpt>
      <trkpt lat="41.16878" lon="-8.16527">
        <ele>208.68</ele>
        <time>2021-07-08T08:35:54Z</time>
      </trkpt>
      <trkpt lat="41.17001" lon="-8.1638">
        <ele>211.2104</ele>
        <time>2021-07-08T08:36:05Z</time>
      </trkpt>
      <trkpt lat="41.17147" lon="-8.16254">
        <ele>210.4083</ele>
        <time>2021-07-08T08:36:16Z</time>
      </trkpt>
      <trkpt lat="41.17293" lon="-8.1618">
        <ele>217.7522</ele>
        <time>2021-07-08T08:36:27Z</time>
      </trkpt>
      <trkpt lat="41.17433" lon="-8.1621">
        <ele>225.6375</ele>
        <time>2021-07-08T08:36:38Z</time>
      </trkpt>
      <trkpt lat="41.17535" lon="-8.1616">
        <ele>236.2574</ele>
        <time>2021-07-08T08:36:49Z</time>
      </trkpt>
      <trkpt lat="41.17605" lon="-8.15992">
        <ele>236.9652</ele>
        <time>2021-07-08T08:37:00Z</time>
      </trkpt>
      <trkpt lat="41.17678" lon="-8.15833">
        <ele>237.1011</ele>
        <time>2021-07-08T08:37:11Z</time>
      </trkpt>
      <trkpt lat="41.1775" lon="-8.1567">
        <ele>238.6945</ele>
        <time>2021-07-08T08:37:22Z</time>
      </trkpt>
      <trkpt lat="41.17798" lon="-8.15505">
        <ele>242.0818</ele>
        <time>2021-07-08T08:37:33Z</time>
      </trkpt>
      <trkpt lat="41.17889" lon="-8.15541">
        <ele>237.5398</ele>
        <time>2021-07-08T08:37:44Z</time>
      </trkpt>
      <trkpt lat="41.18008" lon="-8.15642">
        <ele>230.5504</ele>
        <time>2021-07-08T08:37:55Z</time>
      </trkpt>
      <trkpt lat="41.18137" lon="-8.15685">
        <ele>219.1214</ele>
        <time>2021-07-08T08:38:06Z</time>
      </trkpt>
      <trkpt lat="41.18277" lon="-8.15686">
        <ele>210.6027</ele>
        <time>2021-07-08T08:38:17Z</time>
      </trkpt>
      <trkpt lat="41.18447" lon="-8.15659">
        <ele>192.0068</ele>
        <time>2021-07-08T08:38:28Z</time>
      </trkpt>
      <trkpt lat="41.1863" lon="-8.15615">
        <ele>171.7383</ele>
        <time>2021-07-08T08:38:39Z</time>
      </trkpt>
      <trkpt lat="41.18776" lon="-8.15511">
        <ele>167.6831</ele>
        <time>2021-07-08T08:38:50Z</time>
      </trkpt>
      <trkpt lat="41.18912" lon="-8.15363">
        <ele>158.5561</ele>
        <time>2021-07-08T08:39:01Z</time>
      </trkpt>
      <trkpt lat="41.19052" lon="-8.15281">
        <ele>135.7347</ele>
        <time>2021-07-08T08:39:12Z</time>
      </trkpt>
      <trkpt lat="41.1922" lon="-8.15348">
        <ele>119.142</ele>
        <time>2021-07-08T08:39:23Z</time>
      </trkpt>
      <trkpt lat="41.19346" lon="-8.15445">
        <ele>99.36582</ele>
        <time>2021-07-08T08:39:34Z</time>
      </trkpt>
      <trkpt lat="41.19407" lon="-8.15418">
        <ele>96.41103</ele>
        <time>2021-07-08T08:39:45Z</time>
      </trkpt>
      <trkpt lat="41.19558" lon="-8.15341">
        <ele>106.6033</ele>
        <time>2021-07-08T08:39:56Z</time>
      </trkpt>
      <trkpt lat="41.19659" lon="-8.15179">
        <ele>119.883</ele>
        <time>2021-07-08T08:40:07Z</time>
      </trkpt>
      <trkpt lat="41.19721" lon="-8.15005">
        <ele>127.4488</ele>
        <time>2021-07-08T08:40:18Z</time>
      </trkpt>
      <trkpt lat="41.19696" lon="-8.14859">
        <ele>131.1123</ele>
        <time>2021-07-08T08:40:29Z</time>
      </trkpt>
      <trkpt lat="41.19667" lon="-8.14697">
        <ele>141.0887</ele>
        <time>2021-07-08T08:40:40Z</time>
      </trkpt>
      <trkpt lat="41.19573" lon="-8.14569">
        <ele>145.6034</ele>
        <time>2021-07-08T08:40:51Z</time>
      </trkpt>
      <trkpt lat="41.19532" lon="-8.14444">
        <ele>154.1312</ele>
        <time>2021-07-08T08:41:02Z</time>
      </trkpt>
      <trkpt lat="41.19504" lon="-8.14381">
        <ele>157.7486</ele>
        <time>2021-07-08T08:41:13Z</time>
      </trkpt>
      <trkpt lat="41.1941" lon="-8.14299">
        <ele>163.6127</ele>
        <time>2021-07-08T08:41:24Z</time>
      </trkpt>
      <trkpt lat="41.19279" lon="-8.14302">
        <ele>170.5118</ele>
        <time>2021-07-08T08:41:35Z</time>
      </trkpt>
      <trkpt lat="41.19211" lon="-8.14191">
        <ele>176.7534</ele>
        <time>2021-07-08T08:41:46Z</time>
      </trkpt>
      <trkpt lat="41.19204" lon="-8.14145">
        <ele>176.6511</ele>
        <time>2021-07-08T08:41:57Z</time>
      </trkpt>
      <trkpt lat="41.19259" lon="-8.14094">
        <ele>166.8352</ele>
        <time>2021-07-08T08:42:08Z</time>
      </trkpt>
      <trkpt lat="41.19287" lon="-8.13987">
        <ele>151.6843</ele>
        <time>2021-07-08T08:42:19Z</time>
      </trkpt>
      <trkpt lat="41.19383" lon="-8.13989">
        <ele>145.6043</ele>
        <time>2021-07-08T08:42:30Z</time>
      </trkpt>
      <trkpt lat="41.19462" lon="-8.13872">
        <ele>136.7014</ele>
        <time>2021-07-08T08:42:41Z</time>
      </trkpt>
      <trkpt lat="41.19484" lon="-8.1376">
        <ele>123.8653</ele>
        <time>2021-07-08T08:42:52Z</time>
      </trkpt>
      <trkpt lat="41.19574" lon="-8.13683">
        <ele>110.132</ele>
        <time>2021-07-08T08:43:03Z</time>
      </trkpt>
      <trkpt lat="41.19609" lon="-8.13598">
        <ele>94.83755</ele>
        <time>2021-07-08T08:43:14Z</time>
      </trkpt>
      <trkpt lat="41.19526" lon="-8.13608">
        <ele>91.47222</ele>
        <time>2021-07-08T08:43:25Z</time>
      </trkpt>
      <trkpt lat="41.19581" lon="-8.13557">
        <ele>85.62069</ele>
        <time>2021-07-08T08:43:36Z</time>
      </trkpt>
      <trkpt lat="41.19628" lon="-8.13521">
        <ele>82.94429</ele>
        <time>2021-07-08T08:43:47Z</time>
      </trkpt>
      <trkpt lat="41.19756" lon="-8.13588">
        <ele>88.95267</ele>
        <time>2021-07-08T08:43:58Z</time>
      </trkpt>
      <trkpt lat="41.19712" lon="-8.13816">
        <ele>99.26281</ele>
        <time>2021-07-08T08:44:09Z</time>
      </trkpt>
      <trkpt lat="41.19831" lon="-8.1392">
        <ele>88.25267</ele>
        <time>2021-07-08T08:44:20Z</time>
      </trkpt>
      <trkpt lat="41.19986" lon="-8.14023">
        <ele>84.2806</ele>
        <time>2021-07-08T08:44:31Z</time>
      </trkpt>
      <trkpt lat="41.19951" lon="-8.14001">
        <ele>93.12323</ele>
        <time>2021-07-08T08:44:42Z</time>
      </trkpt>
      <trkpt lat="41.19866" lon="-8.13871">
        <ele>105.9697</ele>
        <time>2021-07-08T08:44:53Z</time>
      </trkpt>
      <trkpt lat="41.19764" lon="-8.13797">
        <ele>107.6851</ele>
        <time>2021-07-08T08:45:04Z</time>
      </trkpt>
      <trkpt lat="41.19875" lon="-8.13596">
        <ele>117.4035</ele>
        <time>2021-07-08T08:45:15Z</time>
      </trkpt>
      <trkpt lat="41.19953" lon="-8.13603">
        <ele>126.4484</ele>
        <time>2021-07-08T08:45:26Z</time>
      </trkpt>
      <trkpt lat="41.20037" lon="-8.13665">
        <ele>140.0022</ele>
        <time>2021-07-08T08:45:37Z</time>
      </trkpt>
      <trkpt lat="41.2013" lon="-8.13561">
        <ele>151.8483</ele>
        <time>2021-07-08T08:45:48Z</time>
      </trkpt>
      <trkpt lat="41.20222" lon="-8.13486">
        <ele>151.9856</ele>
        <time>2021-07-08T08:45:59Z</time>
      </trkpt>
      <trkpt lat="41.20335" lon="-8.13465">
        <ele>159.9505</ele>
        <time>2021-07-08T08:46:10Z</time>
      </trkpt>
      <trkpt lat="41.20419" lon="-8.13335">
        <ele>173.7899</ele>
        <time>2021-07-08T08:46:21Z</time>
      </trkpt>
      <trkpt lat="41.20429" lon="-8.13157">
        <ele>182.0613</ele>
        <time>2021-07-08T08:46:32Z</time>
      </trkpt>
      <trkpt lat="41.20443" lon="-8.13026">
        <ele>185.9832</ele>
        <time>2021-07-08T08:46:43Z</time>
      </trkpt>
      <trkpt lat="41.2046" lon="-8.12873">
        <ele>186.6902</ele>
        <time>2021-07-08T08:46:54Z</time>
      </trkpt>
      <trkpt lat="41.20544" lon="-8.12739">
        <ele>180.0217</ele>
        <time>2021-07-08T08:47:05Z</time>
      </trkpt>
      <trkpt lat="41.20561" lon="-8.12572">
        <ele>180.2775</ele>
        <time>2021-07-08T08:47:16Z</time>
      </trkpt>
      <trkpt lat="41.20538" lon="-8.1243">
        <ele>186.8059</ele>
        <time>2021-07-08T08:47:27Z</time>
      </trkpt>
      <trkpt lat="41.20618" lon="-8.12276">
        <ele>191.5378</ele>
        <time>2021-07-08T08:47:38Z</time>
      </trkpt>
      <trkpt lat="41.20764" lon="-8.1219">
        <ele>202.6873</ele>
        <time>2021-07-08T08:47:49Z</time>
      </trkpt>
      <trkpt lat="41.209" lon="-8.1209">
        <ele>208.3467</ele>
        <time>2021-07-08T08:48:00Z</time>
      </trkpt>
      <trkpt lat="41.20939" lon="-8.11948">
        <ele>197.169</ele>
        <time>2021-07-08T08:48:11Z</time>
      </trkpt>
      <trkpt lat="41.21001" lon="-8.11826">
        <ele>182.6715</ele>
        <time>2021-07-08T08:48:22Z</time>
      </trkpt>
      <trkpt lat="41.21059" lon="-8.11768">
        <ele>184.0269</ele>
        <time>2021-07-08T08:48:33Z</time>
      </trkpt>
      <trkpt lat="41.21165" lon="-8.11545">
        <ele>194.4685</ele>
        <time>2021-07-08T08:48:44Z</time>
      </trkpt>
      <trkpt lat="41.21321" lon="-8.11405">
        <ele>189.3573</ele>
        <time>2021-07-08T08:48:55Z</time>
      </trkpt>
      <trkpt lat="41.21486" lon="-8.11335">
        <ele>209.5649</ele>
        <time>2021-07-08T08:49:06Z</time>
      </trkpt>
      <trkpt lat="41.2157" lon="-8.1119">
        <ele>224.8741</ele>
        <time>2021-07-08T08:49:17Z</time>
      </trkpt>
      <trkpt lat="41.21666" lon="-8.11025">
        <ele>230.5491</ele>
        <time>2021-07-08T08:49:28Z</time>
      </trkpt>
      <trkpt lat="41.21749" lon="-8.10894">
        <ele>246.6199</ele>
        <time>2021-07-08T08:49:39Z</time>
      </trkpt>
      <trkpt lat="41.2181" lon="-8.10748">
        <ele>252.2656</ele>
        <time>2021-07-08T08:49:50Z</time>
      </trkpt>
      <trkpt lat="41.219" lon="-8.10582">
        <ele>254.2428</ele>
        <time>2021-07-08T08:50:01Z</time>
      </trkpt>
      <trkpt lat="41.21993" lon="-8.10435">
        <ele>256.9111</ele>
        <time>2021-07-08T08:50:12Z</time>
      </trkpt>
      <trkpt lat="41.22076" lon="-8.10269">
        <ele>256.8218</ele>
        <time>2021-07-08T08:50:23Z</time>
      </trkpt>
      <trkpt lat="41.22207" lon="-8.10169">
        <ele>260.9536</ele>
        <time>2021-07-08T08:50:34Z</time>
      </trkpt>
      <trkpt lat="41.22335" lon="-8.10056">
        <ele>264.6486</ele>
        <time>2021-07-08T08:50:45Z</time>
      </trkpt>
      <trkpt lat="41.22451" lon="-8.09947">
        <ele>270.4286</ele>
        <time>2021-07-08T08:50:56Z</time>
      </trkpt>
      <trkpt lat="41.22565" lon="-8.09809">
        <ele>280.4077</ele>
        <time>2021-07-08T08:51:07Z</time>
      </trkpt>
      <trkpt lat="41.22666" lon="-8.09672">
        <ele>285.9516</ele>
        <time>2021-07-08T08:51:18Z</time>
      </trkpt>
      <trkpt lat="41.22813" lon="-8.09609">
        <ele>299.7711</ele>
        <time>2021-07-08T08:51:29Z</time>
      </trkpt>
      <trkpt lat="41.22911" lon="-8.09468">
        <ele>301.5959</ele>
        <time>2021-07-08T08:51:40Z</time>
      </trkpt>
      <trkpt lat="41.22959" lon="-8.09323">
        <ele>300.7283</ele>
        <time>2021-07-08T08:51:51Z</time>
      </trkpt>
      <trkpt lat="41.2311" lon="-8.09301">
        <ele>308.7802</ele>
        <time>2021-07-08T08:52:02Z</time>
      </trkpt>
      <trkpt lat="41.23244" lon="-8.09247">
        <ele>308.9965</ele>
        <time>2021-07-08T08:52:13Z</time>
      </trkpt>
      <trkpt lat="41.23382" lon="-8.0924">
        <ele>311.117</ele>
        <time>2021-07-08T08:52:24Z</time>
      </trkpt>
      <trkpt lat="41.23517" lon="-8.09207">
        <ele>322.3401</ele>
        <time>2021-07-08T08:52:35Z</time>
      </trkpt>
      <trkpt lat="41.23592" lon="-8.09075">
        <ele>321.2564</ele>
        <time>2021-07-08T08:52:46Z</time>
      </trkpt>
      <trkpt lat="41.23698" lon="-8.08983">
        <ele>321.8738</ele>
        <time>2021-07-08T08:52:57Z</time>
      </trkpt>
      <trkpt lat="41.23857" lon="-8.08981">
        <ele>322.1979</ele>
        <time>2021-07-08T08:53:08Z</time>
      </trkpt>
      <trkpt lat="41.23977" lon="-8.08897">
        <ele>319.625</ele>
        <time>2021-07-08T08:53:19Z</time>
      </trkpt>
      <trkpt lat="41.24075" lon="-8.08807">
        <ele>322.62</ele>
        <time>2021-07-08T08:53:30Z</time>
      </trkpt>
      <trkpt lat="41.24193" lon="-8.08771">
        <ele>317.0604</ele>
        <time>2021-07-08T08:53:41Z</time>
      </trkpt>
      <trkpt lat="41.24234" lon="-8.08521">
        <ele>310.0861</ele>
        <time>2021-07-08T08:53:52Z</time>
      </trkpt>
      <trkpt lat="41.24342" lon="-8.08327">
        <ele>315.669</ele>
        <time>2021-07-08T08:54:03Z</time>
      </trkpt>
      <trkpt lat="41.24467" lon="-8.08165">
        <ele>317.1431</ele>
        <time>2021-07-08T08:54:14Z</time>
      </trkpt>
      <trkpt lat="41.24629" lon="-8.08069">
        <ele>308.604</ele>
        <time>2021-07-08T08:54:25Z</time>
      </trkpt>
      <trkpt lat="41.24728" lon="-8.07892">
        <ele>301.3025</ele>
        <time>2021-07-08T08:54:36Z</time>
      </trkpt>
      <trkpt lat="41.24755" lon="-8.07704">
        <ele>295.9896</ele>
        <time>2021-07-08T08:54:47Z</time>
      </trkpt>
      <trkpt lat="41.24765" lon="-8.07495">
        <ele>302.0445</ele>
        <time>2021-07-08T08:54:58Z</time>
      </trkpt>
      <trkpt lat="41.24901" lon="-8.07489">
        <ele>299.492</ele>
        <time>2021-07-08T08:55:09Z</time>
      </trkpt>
      <trkpt lat="41.25007" lon="-8.07589">
        <ele>289.4048</ele>
        <time>2021-07-08T08:55:20Z</time>
      </trkpt>
      <trkpt lat="41.25135" lon="-8.07537">
        <ele>274.6499</ele>
        <time>2021-07-08T08:55:31Z</time>
      </trkpt>
      <trkpt lat="41.25248" lon="-8.07395">
        <ele>263.635</ele>
        <time>2021-07-08T08:55:42Z</time>
      </trkpt>
      <trkpt lat="41.25395" lon="-8.07295">
        <ele>248.3333</ele>
        <time>2021-07-08T08:55:53Z</time>
      </trkpt>
      <trkpt lat="41.25532" lon="-8.0739">
        <ele>238.7783</ele>
        <time>2021-07-08T08:56:04Z</time>
      </trkpt>
      <trkpt lat="41.25656" lon="-8.07352">
        <ele>223.6846</ele>
        <time>2021-07-08T08:56:15Z</time>
      </trkpt>
      <trkpt lat="41.25788" lon="-8.07398">
        <ele>206.6115</ele>
        <time>2021-07-08T08:56:26Z</time>
      </trkpt>
      <trkpt lat="41.2592" lon="-8.07418">
        <ele>186.6532</ele>
        <time>2021-07-08T08:56:37Z</time>
      </trkpt>
      <trkpt lat="41.26056" lon="-8.07404">
        <ele>181.259</ele>
        <time>2021-07-08T08:56:48Z</time>
      </trkpt>
      <trkpt lat="41.26156" lon="-8.07405">
        <ele>175.9572</ele>
        <time>2021-07-08T08:56:59Z</time>
      </trkpt>
      <trkpt lat="41.26268" lon="-8.07404">
        <ele>165.5089</ele>
        <time>2021-07-08T08:57:10Z</time>
      </trkpt>
      <trkpt lat="41.26367" lon="-8.07352">
        <ele>159.4686</ele>
        <time>2021-07-08T08:57:21Z</time>
      </trkpt>
      <trkpt lat="41.26446" lon="-8.07514">
        <ele>145.5924</ele>
        <time>2021-07-08T08:57:32Z</time>
      </trkpt>
      <trkpt lat="41.2653" lon="-8.07588">
        <ele>137.9628</ele>
        <time>2021-07-08T08:57:43Z</time>
      </trkpt>
      <trkpt lat="41.26606" lon="-8.07428">
        <ele>124.2454</ele>
        <time>2021-07-08T08:57:54Z</time>
      </trkpt>
      <trkpt lat="41.26553" lon="-8.07228">
        <ele>103.8605</ele>
        <time>2021-07-08T08:58:05Z</time>
      </trkpt>
      <trkpt lat="41.26543" lon="-8.07042">
        <ele>89.33845</ele>
        <time>2021-07-08T08:58:16Z</time>
      </trkpt>
      <trkpt lat="41.26472" lon="-8.06886">
        <ele>96.83287</ele>
        <time>2021-07-08T08:58:27Z</time>
      </trkpt>
      <trkpt lat="41.26469" lon="-8.06719">
        <ele>99.08107</ele>
        <time>2021-07-08T08:58:38Z</time>
      </trkpt>
      <trkpt lat="41.26402" lon="-8.06573">
        <ele>113.8773</ele>
        <time>2021-07-08T08:58:49Z</time>
      </trkpt>
      <trkpt lat="41.26401" lon="-8.06365">
        <ele>124.251</ele>
        <time>2021-07-08T08:59:00Z</time>
      </trkpt>
      <trkpt lat="41.26313" lon="-8.06313">
        <ele>136.536</ele>
        <time>2021-07-08T08:59:11Z</time>
      </trkpt>
      <trkpt lat="41.26252" lon="-8.06183">
        <ele>156.7193</ele>
        <time>2021-07-08T08:59:22Z</time>
      </trkpt>
      <trkpt lat="41.26213" lon="-8.06055">
        <ele>164.3173</ele>
        <time>2021-07-08T08:59:33Z</time>
      </trkpt>
      <trkpt lat="41.26109" lon="-8.06">
        <ele>172.6838</ele>
        <time>2021-07-08T08:59:44Z</time>
      </trkpt>
      <trkpt lat="41.26037" lon="-8.05975">
        <ele>177.4866</ele>
        <time>2021-07-08T08:59:55Z</time>
      </trkpt>
      <trkpt lat="41.25924" lon="-8.05907">
        <ele>182.72</ele>
        <time>2021-07-08T09:00:06Z</time>
      </trkpt>
      <trkpt lat="41.25824" lon="-8.05797">
        <ele>194.4484</ele>
        <time>2021-07-08T09:00:17Z</time>
      </trkpt>
      <trkpt lat="41.25761" lon="-8.05639">
        <ele>189.5562</ele>
        <time>2021-07-08T09:00:28Z</time>
      </trkpt>
      <trkpt lat="41.25727" lon="-8.05465">
        <ele>186.4147</ele>
        <time>2021-07-08T09:00:39Z</time>
      </trkpt>
      <trkpt lat="41.25668" lon="-8.05337">
        <ele>186.0052</ele>
        <time>2021-07-08T09:00:50Z</time>
      </trkpt>
      <trkpt lat="41.25559" lon="-8.05236">
        <ele>183.9499</ele>
        <time>2021-07-08T09:01:01Z</time>
      </trkpt>
      <trkpt lat="41.25502" lon="-8.05115">
        <ele>181.1382</ele>
        <time>2021-07-08T09:01:12Z</time>
      </trkpt>
      <trkpt lat="41.25446" lon="-8.04948">
        <ele>176.1525</ele>
        <time>2021-07-08T09:01:23Z</time>
      </trkpt>
      <trkpt lat="41.25454" lon="-8.0472">
        <ele>172.7768</ele>
        <time>2021-07-08T09:01:34Z</time>
      </trkpt>
      <trkpt lat="41.2539" lon="-8.04575">
        <ele>169.6451</ele>
        <time>2021-07-08T09:01:45Z</time>
      </trkpt>
      <trkpt lat="41.2531" lon="-8.04446">
        <ele>170.4105</ele>
        <time>2021-07-08T09:01:56Z</time>
      </trkpt>
      <trkpt lat="41.25313" lon="-8.0428">
        <ele>165.8342</ele>
        <time>2021-07-08T09:02:07Z</time>
      </trkpt>
      <trkpt lat="41.25369" lon="-8.04165">
        <ele>163.0728</ele>
        <time>2021-07-08T09:02:18Z</time>
      </trkpt>
      <trkpt lat="41.25338" lon="-8.04035">
        <ele>163.9854</ele>
        <time>2021-07-08T09:02:29Z</time>
      </trkpt>
      <trkpt lat="41.25254" lon="-8.03921">
        <ele>165.1553</ele>
        <time>2021-07-08T09:02:40Z</time>
      </trkpt>
      <trkpt lat="41.25186" lon="-8.03772">
        <ele>164.8672</ele>
        <time>2021-07-08T09:02:51Z</time>
      </trkpt>
      <trkpt lat="41.25182" lon="-8.0365">
        <ele>158.4862</ele>
        <time>2021-07-08T09:03:02Z</time>
      </trkpt>
      <trkpt lat="41.25203" lon="-8.03513">
        <ele>159.0134</ele>
        <time>2021-07-08T09:03:13Z</time>
      </trkpt>
      <trkpt lat="41.25221" lon="-8.03378">
        <ele>169.5067</ele>
        <time>2021-07-08T09:03:24Z</time>
      </trkpt>
      <trkpt lat="41.25385" lon="-8.03314">
        <ele>174.8974</ele>
        <time>2021-07-08T09:03:35Z</time>
      </trkpt>
      <trkpt lat="41.25526" lon="-8.03336">
        <ele>176.4508</ele>
        <time>2021-07-08T09:03:46Z</time>
      </trkpt>
      <trkpt lat="41.25527" lon="-8.03162">
        <ele>176.7339</ele>
        <time>2021-07-08T09:03:57Z</time>
      </trkpt>
      <trkpt lat="41.25549" lon="-8.02941">
        <ele>184.3354</ele>
        <time>2021-07-08T09:04:08Z</time>
      </trkpt>
      <trkpt lat="41.25627" lon="-8.02843">
        <ele>190.1477</ele>
        <time>2021-07-08T09:04:19Z</time>
      </trkpt>
      <trkpt lat="41.25775" lon="-8.02777">
        <ele>195.9597</ele>
        <time>2021-07-08T09:04:30Z</time>
      </trkpt>
      <trkpt lat="41.25925" lon="-8.02783">
        <ele>201.3961</ele>
        <time>2021-07-08T09:04:41Z</time>
      </trkpt>
      <trkpt lat="41.26007" lon="-8.02606">
        <ele>209.3215</ele>
        <time>2021-07-08T09:04:52Z</time>
      </trkpt>
      <trkpt lat="41.26035" lon="-8.02491">
        <ele>215.2557</ele>
        <time>2021-07-08T09:05:03Z</time>
      </trkpt>
      <trkpt lat="41.26105" lon="-8.02314">
        <ele>225.1081</ele>
        <time>2021-07-08T09:05:14Z</time>
      </trkpt>
      <trkpt lat="41.26243" lon="-8.02221">
        <ele>233.3807</ele>
        <time>2021-07-08T09:05:25Z</time>
      </trkpt>
      <trkpt lat="41.26218" lon="-8.02003">
        <ele>234.7172</ele>
        <time>2021-07-08T09:05:36Z</time>
      </trkpt>
      <trkpt lat="41.2616" lon="-8.0188">
        <ele>233.8371</ele>
        <time>2021-07-08T09:05:47Z</time>
      </trkpt>
      <trkpt lat="41.26063" lon="-8.018">
        <ele>237.6887</ele>
        <time>2021-07-08T09:05:58Z</time>
      </trkpt>
      <trkpt lat="41.26178" lon="-8.01749">
        <ele>246.3553</ele>
        <time>2021-07-08T09:06:09Z</time>
      </trkpt>
      <trkpt lat="41.26259" lon="-8.01597">
        <ele>254.6517</ele>
        <time>2021-07-08T09:06:20Z</time>
      </trkpt>
      <trkpt lat="41.26211" lon="-8.01485">
        <ele>256.0136</ele>
        <time>2021-07-08T09:06:31Z</time>
      </trkpt>
      <trkpt lat="41.26282" lon="-8.01328">
        <ele>265.3058</ele>
        <time>2021-07-08T09:06:42Z</time>
      </trkpt>
      <trkpt lat="41.26403" lon="-8.01263">
        <ele>269.9054</ele>
        <time>2021-07-08T09:06:53Z</time>
      </trkpt>
      <trkpt lat="41.26501" lon="-8.01252">
        <ele>268.1444</ele>
        <time>2021-07-08T09:07:04Z</time>
      </trkpt>
      <trkpt lat="41.26603" lon="-8.01164">
        <ele>269.1804</ele>
        <time>2021-07-08T09:07:15Z</time>
      </trkpt>
      <trkpt lat="41.26637" lon="-8.01067">
        <ele>266.5649</ele>
        <time>2021-07-08T09:07:26Z</time>
      </trkpt>
      <trkpt lat="41.26596" lon="-8.00936">
        <ele>251.2266</ele>
        <time>2021-07-08T09:07:37Z</time>
      </trkpt>
      <trkpt lat="41.26596" lon="-8.00778">
        <ele>237.4288</ele>
        <time>2021-07-08T09:07:48Z</time>
      </trkpt>
      <trkpt lat="41.26713" lon="-8.00653">
        <ele>231.0205</ele>
        <time>2021-07-08T09:07:59Z</time>
      </trkpt>
      <trkpt lat="41.26797" lon="-8.00649">
        <ele>224.6089</ele>
        <time>2021-07-08T09:08:10Z</time>
      </trkpt>
      <trkpt lat="41.2689" lon="-8.0052">
        <ele>242.7402</ele>
        <time>2021-07-08T09:08:21Z</time>
      </trkpt>
      <trkpt lat="41.26933" lon="-8.00368">
        <ele>251.2355</ele>
        <time>2021-07-08T09:08:32Z</time>
      </trkpt>
      <trkpt lat="41.26979" lon="-8.00219">
        <ele>251.1742</ele>
        <time>2021-07-08T09:08:43Z</time>
      </trkpt>
      <trkpt lat="41.27076" lon="-8.001">
        <ele>251.1997</ele>
        <time>2021-07-08T09:08:54Z</time>
      </trkpt>
      <trkpt lat="41.27162" lon="-7.99931">
        <ele>264.832</ele>
        <time>2021-07-08T09:09:05Z</time>
      </trkpt>
      <trkpt lat="41.27237" lon="-7.99747">
        <ele>269.8008</ele>
        <time>2021-07-08T09:09:16Z</time>
      </trkpt>
      <trkpt lat="41.27343" lon="-7.99638">
        <ele>277.9137</ele>
        <time>2021-07-08T09:09:27Z</time>
      </trkpt>
      <trkpt lat="41.27438" lon="-7.99525">
        <ele>266.914</ele>
        <time>2021-07-08T09:09:38Z</time>
      </trkpt>
      <trkpt lat="41.27549" lon="-7.99501">
        <ele>267.6432</ele>
        <time>2021-07-08T09:09:49Z</time>
      </trkpt>
      <trkpt lat="41.27642" lon="-7.99389">
        <ele>272.9607</ele>
        <time>2021-07-08T09:10:00Z</time>
      </trkpt>
      <trkpt lat="41.27706" lon="-7.99361">
        <ele>271.8245</ele>
        <time>2021-07-08T09:10:11Z</time>
      </trkpt>
      <trkpt lat="41.27787" lon="-7.9928">
        <ele>275.1171</ele>
        <time>2021-07-08T09:10:22Z</time>
      </trkpt>
      <trkpt lat="41.27876" lon="-7.99231">
        <ele>286.8673</ele>
        <time>2021-07-08T09:10:33Z</time>
      </trkpt>
      <trkpt lat="41.28011" lon="-7.99273">
        <ele>274.2088</ele>
        <time>2021-07-08T09:10:44Z</time>
      </trkpt>
      <trkpt lat="41.28009" lon="-7.99214">
        <ele>283.0755</ele>
        <time>2021-07-08T09:10:55Z</time>
      </trkpt>
      <trkpt lat="41.27819" lon="-7.99195">
        <ele>299.0354</ele>
        <time>2021-07-08T09:11:06Z</time>
      </trkpt>
      <trkpt lat="41.27602" lon="-7.99212">
        <ele>318.9871</ele>
        <time>2021-07-08T09:11:17Z</time>
      </trkpt>
      <trkpt lat="41.27365" lon="-7.99215">
        <ele>340.9632</ele>
        <time>2021-07-08T09:11:28Z</time>
      </trkpt>
      <trkpt lat="41.2714" lon="-7.99133">
        <ele>363.3748</ele>
        <time>2021-07-08T09:11:39Z</time>
      </trkpt>
      <trkpt lat="41.27053" lon="-7.98839">
        <ele>382.4438</ele>
        <time>2021-07-08T09:11:50Z</time>
      </trkpt>
      <trkpt lat="41.26958" lon="-7.98568">
        <ele>400.1691</ele>
        <time>2021-07-08T09:12:01Z</time>
      </trkpt>
      <trkpt lat="41.26777" lon="-7.9838">
        <ele>421.4377</ele>
        <time>2021-07-08T09:12:12Z</time>
      </trkpt>
      <trkpt lat="41.2681" lon="-7.98081">
        <ele>440.5266</ele>
        <time>2021-07-08T09:12:23Z</time>
      </trkpt>
      <trkpt lat="41.26631" lon="-7.97937">
        <ele>461.6422</ele>
        <time>2021-07-08T09:12:34Z</time>
      </trkpt>
      <trkpt lat="41.26385" lon="-7.97931">
        <ele>469.5146</ele>
        <time>2021-07-08T09:12:45Z</time>
      </trkpt>
      <trkpt lat="41.26251" lon="-7.97671">
        <ele>485.242</ele>
        <time>2021-07-08T09:12:56Z</time>
      </trkpt>
      <trkpt lat="41.26335" lon="-7.97403">
        <ele>509.3609</ele>
        <time>2021-07-08T09:13:07Z</time>
      </trkpt>
      <trkpt lat="41.26498" lon="-7.97174">
        <ele>528.1763</ele>
        <time>2021-07-08T09:13:18Z</time>
      </trkpt>
      <trkpt lat="41.26406" lon="-7.96945">
        <ele>547.6313</ele>
        <time>2021-07-08T09:13:29Z</time>
      </trkpt>
      <trkpt lat="41.26169" lon="-7.97034">
        <ele>564.7516</ele>
        <time>2021-07-08T09:13:40Z</time>
      </trkpt>
      <trkpt lat="41.25928" lon="-7.96984">
        <ele>583.37</ele>
        <time>2021-07-08T09:13:51Z</time>
      </trkpt>
      <trkpt lat="41.25688" lon="-7.96914">
        <ele>602.7711</ele>
        <time>2021-07-08T09:14:02Z</time>
      </trkpt>
      <trkpt lat="41.25582" lon="-7.96635">
        <ele>624.3777</ele>
        <time>2021-07-08T09:14:13Z</time>
      </trkpt>
      <trkpt lat="41.25581" lon="-7.9629">
        <ele>644.1743</ele>
        <time>2021-07-08T09:14:24Z</time>
      </trkpt>
      <trkpt lat="41.25547" lon="-7.95978">
        <ele>665.9114</ele>
        <time>2021-07-08T09:14:35Z</time>
      </trkpt>
      <trkpt lat="41.25554" lon="-7.95674">
        <ele>682.0007</ele>
        <time>2021-07-08T09:14:46Z</time>
      </trkpt>
      <trkpt lat="41.25726" lon="-7.95431">
        <ele>700.1672</ele>
        <time>2021-07-08T09:14:57Z</time>
      </trkpt>
      <trkpt lat="41.25892" lon="-7.95185">
        <ele>716.3923</ele>
        <time>2021-07-08T09:15:08Z</time>
      </trkpt>
      <trkpt lat="41.26041" lon="-7.94923">
        <ele>735.1472</ele>
        <time>2021-07-08T09:15:19Z</time>
      </trkpt>
      <trkpt lat="41.26217" lon="-7.94726">
        <ele>760.2045</ele>
        <time>2021-07-08T09:15:30Z</time>
      </trkpt>
      <trkpt lat="41.2643" lon="-7.94699">
        <ele>772.2163</ele>
        <time>2021-07-08T09:15:41Z</time>
      </trkpt>
      <trkpt lat="41.26593" lon="-7.94544">
        <ele>786.3864</ele>
        <time>2021-07-08T09:15:52Z</time>
      </trkpt>
      <trkpt lat="41.26781" lon="-7.94408">
        <ele>803.5347</ele>
        <time>2021-07-08T09:16:03Z</time>
      </trkpt>
      <trkpt lat="41.26977" lon="-7.94266">
        <ele>822.0853</ele>
        <time>2021-07-08T09:16:14Z</time>
      </trkpt>
      <trkpt lat="41.27157" lon="-7.94073">
        <ele>837.8314</ele>
        <time>2021-07-08T09:16:25Z</time>
      </trkpt>
      <trkpt lat="41.27301" lon="-7.93829">
        <ele>857.8333</ele>
        <time>2021-07-08T09:16:36Z</time>
      </trkpt>
      <trkpt lat="41.27487" lon="-7.93648">
        <ele>877.4631</ele>
        <time>2021-07-08T09:16:47Z</time>
      </trkpt>
      <trkpt lat="41.27622" lon="-7.93404">
        <ele>897.5852</ele>
        <time>2021-07-08T09:16:58Z</time>
      </trkpt>
      <trkpt lat="41.27638" lon="-7.93072">
        <ele>916.8074</ele>
        <time>2021-07-08T09:17:09Z</time>
      </trkpt>
      <trkpt lat="41.27774" lon="-7.92804">
        <ele>935.5856</ele>
        <time>2021-07-08T09:17:20Z</time>
      </trkpt>
      <trkpt lat="41.27899" lon="-7.92521">
        <ele>952.1984</ele>
        <time>2021-07-08T09:17:31Z</time>
      </trkpt>
      <trkpt lat="41.28096" lon="-7.92311">
        <ele>973.4114</ele>
        <time>2021-07-08T09:17:42Z</time>
      </trkpt>
      <trkpt lat="41.28186" lon="-7.92001">
        <ele>993.9893</ele>
        <time>2021-07-08T09:17:53Z</time>
      </trkpt>
      <trkpt lat="41.28107" lon="-7.91675">
        <ele>1015.064</ele>
        <time>2021-07-08T09:18:04Z</time>
      </trkpt>
      <trkpt lat="41.27954" lon="-7.91412">
        <ele>1017.86</ele>
        <time>2021-07-08T09:18:15Z</time>
      </trkpt>
      <trkpt lat="41.27781" lon="-7.91158">
        <ele>1001.166</ele>
        <time>2021-07-08T09:18:26Z</time>
      </trkpt>
      <trkpt lat="41.27682" lon="-7.90855">
        <ele>982.1436</ele>
        <time>2021-07-08T09:18:37Z</time>
      </trkpt>
      <trkpt lat="41.27638" lon="-7.90511">
        <ele>966.0166</ele>
        <time>2021-07-08T09:18:48Z</time>
      </trkpt>
      <trkpt lat="41.2765" lon="-7.9018">
        <ele>951.7033</ele>
        <time>2021-07-08T09:18:59Z</time>
      </trkpt>
      <trkpt lat="41.27672" lon="-7.89853">
        <ele>935.8112</ele>
        <time>2021-07-08T09:19:10Z</time>
      </trkpt>
      <trkpt lat="41.27687" lon="-7.89538">
        <ele>923.3999</ele>
        <time>2021-07-08T09:19:21Z</time>
      </trkpt>
      <trkpt lat="41.27701" lon="-7.89226">
        <ele>909.3774</ele>
        <time>2021-07-08T09:19:32Z</time>
      </trkpt>
      <trkpt lat="41.27779" lon="-7.88933">
        <ele>895.4835</ele>
        <time>2021-07-08T09:19:43Z</time>
      </trkpt>
      <trkpt lat="41.2788" lon="-7.88651">
        <ele>883.8564</ele>
        <time>2021-07-08T09:19:54Z</time>
      </trkpt>
      <trkpt lat="41.28107" lon="-7.88568">
        <ele>874.0038</ele>
        <time>2021-07-08T09:20:05Z</time>
      </trkpt>
      <trkpt lat="41.28259" lon="-7.88349">
        <ele>869.0864</ele>
        <time>2021-07-08T09:20:16Z</time>
      </trkpt>
      <trkpt lat="41.28175" lon="-7.88068">
        <ele>850.5474</ele>
        <time>2021-07-08T09:20:27Z</time>
      </trkpt>
      <trkpt lat="41.28122" lon="-7.87749">
        <ele>833.9465</ele>
        <time>2021-07-08T09:20:38Z</time>
      </trkpt>
      <trkpt lat="41.28101" lon="-7.8739">
        <ele>815.7546</ele>
        <time>2021-07-08T09:20:49Z</time>
      </trkpt>
      <trkpt lat="41.2806" lon="-7.87069">
        <ele>803.4888</ele>
        <time>2021-07-08T09:21:00Z</time>
      </trkpt>
      <trkpt lat="41.28105" lon="-7.86755">
        <ele>797.2385</ele>
        <time>2021-07-08T09:21:11Z</time>
      </trkpt>
      <trkpt lat="41.27952" lon="-7.86505">
        <ele>791.3601</ele>
        <time>2021-07-08T09:21:22Z</time>
      </trkpt>
      <trkpt lat="41.27876" lon="-7.86181">
        <ele>786.5254</ele>
        <time>2021-07-08T09:21:33Z</time>
      </trkpt>
      <trkpt lat="41.27814" lon="-7.85862">
        <ele>782.348</ele>
        <time>2021-07-08T09:21:44Z</time>
      </trkpt>
      <trkpt lat="41.27857" lon="-7.85545">
        <ele>777.5794</ele>
        <time>2021-07-08T09:21:55Z</time>
      </trkpt>
      <trkpt lat="41.27921" lon="-7.85222">
        <ele>768.7672</ele>
        <time>2021-07-08T09:22:06Z</time>
      </trkpt>
      <trkpt lat="41.27971" lon="-7.84907">
        <ele>755.7699</ele>
        <time>2021-07-08T09:22:17Z</time>
      </trkpt>
      <trkpt lat="41.28015" lon="-7.84616">
        <ele>738.7678</ele>
        <time>2021-07-08T09:22:28Z</time>
      </trkpt>
      <trkpt lat="41.2808" lon="-7.84289">
        <ele>720.4826</ele>
        <time>2021-07-08T09:22:39Z</time>
      </trkpt>
      <trkpt lat="41.28249" lon="-7.83979">
        <ele>710.73</ele>
        <time>2021-07-08T09:22:50Z</time>
      </trkpt>
      <trkpt lat="41.28327" lon="-7.83647">
        <ele>701.8011</ele>
        <time>2021-07-08T09:23:01Z</time>
      </trkpt>
      <trkpt lat="41.28384" lon="-7.83301">
        <ele>696.398</ele>
        <time>2021-07-08T09:23:12Z</time>
      </trkpt>
      <trkpt lat="41.28495" lon="-7.82999">
        <ele>696.3598</ele>
        <time>2021-07-08T09:23:23Z</time>
      </trkpt>
      <trkpt lat="41.28424" lon="-7.82661">
        <ele>691.4681</ele>
        <time>2021-07-08T09:23:34Z</time>
      </trkpt>
      <trkpt lat="41.28369" lon="-7.8233">
        <ele>701.543</ele>
        <time>2021-07-08T09:23:45Z</time>
      </trkpt>
      <trkpt lat="41.28458" lon="-7.82003">
        <ele>701.4358</ele>
        <time>2021-07-08T09:23:56Z</time>
      </trkpt>
      <trkpt lat="41.28462" lon="-7.81662">
        <ele>694.796</ele>
        <time>2021-07-08T09:24:07Z</time>
      </trkpt>
      <trkpt lat="41.28503" lon="-7.81326">
        <ele>682.7062</ele>
        <time>2021-07-08T09:24:18Z</time>
      </trkpt>
      <trkpt lat="41.28549" lon="-7.80986">
        <ele>670.6106</ele>
        <time>2021-07-08T09:24:29Z</time>
      </trkpt>
      <trkpt lat="41.28483" lon="-7.80683">
        <ele>659.289</ele>
        <time>2021-07-08T09:24:40Z</time>
      </trkpt>
      <trkpt lat="41.28325" lon="-7.8038">
        <ele>644.73</ele>
        <time>2021-07-08T09:24:51Z</time>
      </trkpt>
      <trkpt lat="41.28163" lon="-7.8008">
        <ele>632.8782</ele>
        <time>2021-07-08T09:25:02Z</time>
      </trkpt>
      <trkpt lat="41.27993" lon="-7.79808">
        <ele>623.4603</ele>
        <time>2021-07-08T09:25:13Z</time>
      </trkpt>
      <trkpt lat="41.27757" lon="-7.7963">
        <ele>604.2565</ele>
        <time>2021-07-08T09:25:24Z</time>
      </trkpt>
      <trkpt lat="41.27595" lon="-7.79361">
        <ele>584.353</ele>
        <time>2021-07-08T09:25:35Z</time>
      </trkpt>
      <trkpt lat="41.27379" lon="-7.79233">
        <ele>567.342</ele>
        <time>2021-07-08T09:25:46Z</time>
      </trkpt>
      <trkpt lat="41.27312" lon="-7.79027">
        <ele>555.0764</ele>
        <time>2021-07-08T09:25:57Z</time>
      </trkpt>
      <trkpt lat="41.27342" lon="-7.78855">
        <ele>553.2131</ele>
        <time>2021-07-08T09:26:08Z</time>
      </trkpt>
      <trkpt lat="41.27431" lon="-7.78698">
        <ele>552.059</ele>
        <time>2021-07-08T09:26:19Z</time>
      </trkpt>
      <trkpt lat="41.27506" lon="-7.7854">
        <ele>548.4898</ele>
        <time>2021-07-08T09:26:30Z</time>
      </trkpt>
      <trkpt lat="41.27524" lon="-7.78329">
        <ele>542.7484</ele>
        <time>2021-07-08T09:26:41Z</time>
      </trkpt>
      <trkpt lat="41.27526" lon="-7.78126">
        <ele>539.4779</ele>
        <time>2021-07-08T09:26:52Z</time>
      </trkpt>
      <trkpt lat="41.27567" lon="-7.77975">
        <ele>534.7951</ele>
        <time>2021-07-08T09:27:03Z</time>
      </trkpt>
      <trkpt lat="41.27589" lon="-7.77797">
        <ele>528.8456</ele>
        <time>2021-07-08T09:27:14Z</time>
      </trkpt>
      <trkpt lat="41.27593" lon="-7.77622">
        <ele>521.205</ele>
        <time>2021-07-08T09:27:25Z</time>
      </trkpt>
      <trkpt lat="41.27627" lon="-7.77459">
        <ele>517.6394</ele>
        <time>2021-07-08T09:27:36Z</time>
      </trkpt>
      <trkpt lat="41.2768" lon="-7.77333">
        <ele>512.3611</ele>
        <time>2021-07-08T09:27:47Z</time>
      </trkpt>
      <trkpt lat="41.27728" lon="-7.77243">
        <ele>506.0385</ele>
        <time>2021-07-08T09:27:58Z</time>
      </trkpt>
      <trkpt lat="41.27793" lon="-7.77126">
        <ele>497.6793</ele>
        <time>2021-07-08T09:28:09Z</time>
      </trkpt>
      <trkpt lat="41.27862" lon="-7.76998">
        <ele>489.7698</ele>
        <time>2021-07-08T09:28:20Z</time>
      </trkpt>
      <trkpt lat="41.27931" lon="-7.76879">
        <ele>484.0063</ele>
        <time>2021-07-08T09:28:31Z</time>
      </trkpt>
      <trkpt lat="41.2801" lon="-7.76796">
        <ele>477.0429</ele>
        <time>2021-07-08T09:28:42Z</time>
      </trkpt>
      <trkpt lat="41.28092" lon="-7.7672">
        <ele>469.8623</ele>
        <time>2021-07-08T09:28:53Z</time>
      </trkpt>
      <trkpt lat="41.28172" lon="-7.76644">
        <ele>462.8847</ele>
        <time>2021-07-08T09:29:04Z</time>
      </trkpt>
      <trkpt lat="41.28243" lon="-7.76553">
        <ele>456.3207</ele>
        <time>2021-07-08T09:29:15Z</time>
      </trkpt>
      <trkpt lat="41.28298" lon="-7.76427">
        <ele>451.3405</ele>
        <time>2021-07-08T09:29:26Z</time>
      </trkpt>
      <trkpt lat="41.28321" lon="-7.76279">
        <ele>440.2003</ele>
        <time>2021-07-08T09:29:37Z</time>
      </trkpt>
      <trkpt lat="41.28334" lon="-7.76128">
        <ele>435.4275</ele>
        <time>2021-07-08T09:29:48Z</time>
      </trkpt>
      <trkpt lat="41.28384" lon="-7.76002">
        <ele>428.127</ele>
        <time>2021-07-08T09:29:59Z</time>
      </trkpt>
      <trkpt lat="41.28469" lon="-7.75923">
        <ele>423.1476</ele>
        <time>2021-07-08T09:30:10Z</time>
      </trkpt>
      <trkpt lat="41.28556" lon="-7.75891">
        <ele>421.5019</ele>
        <time>2021-07-08T09:30:21Z</time>
      </trkpt>
      <trkpt lat="41.28655" lon="-7.75857">
        <ele>417.0134</ele>
        <time>2021-07-08T09:30:32Z</time>
      </trkpt>
      <trkpt lat="41.28763" lon="-7.75817">
        <ele>412.1624</ele>
        <time>2021-07-08T09:30:43Z</time>
      </trkpt>
      <trkpt lat="41.28869" lon="-7.75772">
        <ele>408.2548</ele>
        <time>2021-07-08T09:30:54Z</time>
      </trkpt>
      <trkpt lat="41.28982" lon="-7.75723">
        <ele>402.2511</ele>
        <time>2021-07-08T09:31:05Z</time>
      </trkpt>
      <trkpt lat="41.29073" lon="-7.75674">
        <ele>395.8995</ele>
        <time>2021-07-08T09:31:16Z</time>
      </trkpt>
      <trkpt lat="41.29163" lon="-7.75619">
        <ele>387.783</ele>
        <time>2021-07-08T09:31:27Z</time>
      </trkpt>
      <trkpt lat="41.2927" lon="-7.75551">
        <ele>381.3642</ele>
        <time>2021-07-08T09:31:38Z</time>
      </trkpt>
      <trkpt lat="41.29403" lon="-7.75539">
        <ele>372.0435</ele>
        <time>2021-07-08T09:31:49Z</time>
      </trkpt>
      <trkpt lat="41.29561" lon="-7.75569">
        <ele>373.9179</ele>
        <time>2021-07-08T09:32:00Z</time>
      </trkpt>
      <trkpt lat="41.29744" lon="-7.7556">
        <ele>380.2089</ele>
        <time>2021-07-08T09:32:11Z</time>
      </trkpt>
      <trkpt lat="41.29888" lon="-7.75438">
        <ele>386.1744</ele>
        <time>2021-07-08T09:32:22Z</time>
      </trkpt>
      <trkpt lat="41.30002" lon="-7.75357">
        <ele>391.4069</ele>
        <time>2021-07-08T09:32:33Z</time>
      </trkpt>
      <trkpt lat="41.30122" lon="-7.75295">
        <ele>397.5647</ele>
        <time>2021-07-08T09:32:44Z</time>
      </trkpt>
      <trkpt lat="41.30239" lon="-7.75236">
        <ele>399.2748</ele>
        <time>2021-07-08T09:32:55Z</time>
      </trkpt>
      <trkpt lat="41.30359" lon="-7.75168">
        <ele>397.7726</ele>
        <time>2021-07-08T09:33:06Z</time>
      </trkpt>
      <trkpt lat="41.30468" lon="-7.75101">
        <ele>397.9538</ele>
        <time>2021-07-08T09:33:17Z</time>
      </trkpt>
      <trkpt lat="41.30383" lon="-7.75069">
        <ele>400.6603</ele>
        <time>2021-07-08T09:33:28Z</time>
      </trkpt>
      <trkpt lat="41.30345" lon="-7.75154">
        <ele>397.6442</ele>
        <time>2021-07-08T09:33:39Z</time>
      </trkpt>
      <trkpt lat="41.3025" lon="-7.75142">
        <ele>402.9151</ele>
        <time>2021-07-08T09:33:50Z</time>
      </trkpt>
      <trkpt lat="41.30168" lon="-7.75207">
        <ele>407.9496</ele>
        <time>2021-07-08T09:34:01Z</time>
      </trkpt>
      <trkpt lat="41.30063" lon="-7.75261">
        <ele>411.048</ele>
        <time>2021-07-08T09:34:12Z</time>
      </trkpt>
      <trkpt lat="41.29958" lon="-7.75223">
        <ele>413.5849</ele>
        <time>2021-07-08T09:34:23Z</time>
      </trkpt>
      <trkpt lat="41.29915" lon="-7.7517">
        <ele>412.7741</ele>
        <time>2021-07-08T09:34:34Z</time>
      </trkpt>
      <trkpt lat="41.29904" lon="-7.75164">
        <ele>412.4468</ele>
        <time>2021-07-08T09:34:45Z</time>
      </trkpt>
      <trkpt lat="41.29855" lon="-7.75064">
        <ele>413.8527</ele>
        <time>2021-07-08T09:34:56Z</time>
      </trkpt>
      <trkpt lat="41.29797" lon="-7.74963">
        <ele>410.0256</ele>
        <time>2021-07-08T09:35:07Z</time>
      </trkpt>
      <trkpt lat="41.29745" lon="-7.74874">
        <ele>407.7731</ele>
        <time>2021-07-08T09:35:18Z</time>
      </trkpt>
      <trkpt lat="41.29686" lon="-7.74828">
        <ele>413.0622</ele>
        <time>2021-07-08T09:35:29Z</time>
      </trkpt>
      <trkpt lat="41.29598" lon="-7.74807">
        <ele>415.1511</ele>
        <time>2021-07-08T09:35:40Z</time>
      </trkpt>
      <trkpt lat="41.29577" lon="-7.74754">
        <ele>420.1892</ele>
        <time>2021-07-08T09:35:51Z</time>
      </trkpt>
      <trkpt lat="41.29572" lon="-7.74725">
        <ele>421.0706</ele>
        <time>2021-07-08T09:36:02Z</time>
      </trkpt>
      <trkpt lat="41.29551" lon="-7.74674">
        <ele>422.7178</ele>
        <time>2021-07-08T09:36:13Z</time>
      </trkpt>
      <trkpt lat="41.29544" lon="-7.74635">
        <ele>425.506</ele>
        <time>2021-07-08T09:36:24Z</time>
      </trkpt>
      <trkpt lat="41.2954" lon="-7.74583">
        <ele>428.3142</ele>
        <time>2021-07-08T09:36:35Z</time>
      </trkpt>
      <trkpt lat="41.29536" lon="-7.74548">
        <ele>426.8935</ele>
        <time>2021-07-08T09:36:46Z</time>
      </trkpt>
      <trkpt lat="41.29534" lon="-7.74477">
        <ele>426.8811</ele>
        <time>2021-07-08T09:36:57Z</time>
      </trkpt>
      <trkpt lat="41.29583" lon="-7.74394">
        <ele>426.1711</ele>
        <time>2021-07-08T09:37:09Z</time>
      </trkpt>
      <trkpt lat="41.29653" lon="-7.74387">
        <ele>417.3698</ele>
        <time>2021-07-08T09:37:20Z</time>
      </trkpt>
      <trkpt lat="41.29714" lon="-7.74363">
        <ele>419.1751</ele>
        <time>2021-07-08T09:37:31Z</time>
      </trkpt>
      <trkpt lat="41.29749" lon="-7.74303">
        <ele>418.9473</ele>
        <time>2021-07-08T09:37:42Z</time>
      </trkpt>
      <trkpt lat="41.29781" lon="-7.74206">
        <ele>422.6867</ele>
        <time>2021-07-08T09:37:53Z</time>
      </trkpt>
      <trkpt lat="41.29787" lon="-7.74189">
        <ele>422.8643</ele>
        <time>2021-07-08T09:38:04Z</time>
      </trkpt>
      <trkpt lat="41.29789" lon="-7.74185">
        <ele>423.3087</ele>
        <time>2021-07-08T09:38:16Z</time>
      </trkpt>
      <trkpt lat="41.29792" lon="-7.74182">
        <ele>422.1486</ele>
        <time>2021-07-08T09:38:31Z</time>
      </trkpt>
      <trkpt lat="41.29797" lon="-7.74168">
        <ele>422.7298</ele>
        <time>2021-07-08T09:38:42Z</time>
      </trkpt>
      <trkpt lat="41.29795" lon="-7.74173">
        <ele>424.8506</ele>
        <time>2021-07-08T09:39:04Z</time>
      </trkpt>
      <trkpt lat="41.29793" lon="-7.74168">
        <ele>422.8562</ele>
        <time>2021-07-08T09:39:34Z</time>
      </trkpt>
      <trkpt lat="41.29796" lon="-7.7417">
        <ele>422.4577</ele>
        <time>2021-07-08T09:39:45Z</time>
      </trkpt>
      <trkpt lat="41.29795" lon="-7.74175">
        <ele>422.1326</ele>
        <time>2021-07-08T09:40:05Z</time>
      </trkpt>
      <trkpt lat="41.29797" lon="-7.74169">
        <ele>423.3023</ele>
        <time>2021-07-08T09:40:46Z</time>
      </trkpt>
      <trkpt lat="41.29799" lon="-7.74165">
        <ele>423.5956</ele>
        <time>2021-07-08T09:40:59Z</time>
      </trkpt>
      <trkpt lat="41.29797" lon="-7.74169">
        <ele>423.0967</ele>
        <time>2021-07-08T09:41:32Z</time>
      </trkpt>
      <trkpt lat="41.29793" lon="-7.74175">
        <ele>424.2194</ele>
        <time>2021-07-08T09:42:25Z</time>
      </trkpt>
      <trkpt lat="41.29796" lon="-7.74171">
        <ele>424.5078</ele>
        <time>2021-07-08T09:42:41Z</time>
      </trkpt>
      <trkpt lat="41.29804" lon="-7.74157">
        <ele>424.0768</ele>
        <time>2021-07-08T09:42:52Z</time>
      </trkpt>
      <trkpt lat="41.29806" lon="-7.74153">
        <ele>423.8935</ele>
        <time>2021-07-08T09:43:04Z</time>
      </trkpt>
      <trkpt lat="41.29782" lon="-7.74129">
        <ele>419.2426</ele>
        <time>2021-07-08T09:43:15Z</time>
      </trkpt>
      <trkpt lat="41.29693" lon="-7.74065">
        <ele>414.8224</ele>
        <time>2021-07-08T09:43:27Z</time>
      </trkpt>
      <trkpt lat="41.29588" lon="-7.73992">
        <ele>418.7285</ele>
        <time>2021-07-08T09:43:38Z</time>
      </trkpt>
      <trkpt lat="41.29516" lon="-7.73937">
        <ele>428.0651</ele>
        <time>2021-07-08T09:43:49Z</time>
      </trkpt>
      <trkpt lat="41.29457" lon="-7.73895">
        <ele>421.9463</ele>
        <time>2021-07-08T09:44:00Z</time>
      </trkpt>
      <trkpt lat="41.29439" lon="-7.73847">
        <ele>419.9095</ele>
        <time>2021-07-08T09:44:11Z</time>
      </trkpt>
      <trkpt lat="41.29461" lon="-7.73788">
        <ele>418.7352</ele>
        <time>2021-07-08T09:44:22Z</time>
      </trkpt>
      <trkpt lat="41.29486" lon="-7.73776">
        <ele>423.6996</ele>
        <time>2021-07-08T09:44:33Z</time>
      </trkpt>
      <trkpt lat="41.29535" lon="-7.7389">
        <ele>422.2531</ele>
        <time>2021-07-08T09:44:44Z</time>
      </trkpt>
      <trkpt lat="41.29581" lon="-7.73971">
        <ele>418.0981</ele>
        <time>2021-07-08T09:44:55Z</time>
      </trkpt>
      <trkpt lat="41.29712" lon="-7.74068">
        <ele>413.6137</ele>
        <time>2021-07-08T09:45:06Z</time>
      </trkpt>
      <trkpt lat="41.29723" lon="-7.74076">
        <ele>417.5516</ele>
        <time>2021-07-08T09:45:17Z</time>
      </trkpt>
      <trkpt lat="41.29727" lon="-7.7408">
        <ele>422.181</ele>
        <time>2021-07-08T09:46:01Z</time>
      </trkpt>
      <trkpt lat="41.29779" lon="-7.74095">
        <ele>423.5435</ele>
        <time>2021-07-08T09:46:12Z</time>
      </trkpt>
      <trkpt lat="41.29841" lon="-7.74066">
        <ele>405.4844</ele>
        <time>2021-07-08T09:46:23Z</time>
      </trkpt>
      <trkpt lat="41.29836" lon="-7.74042">
        <ele>403.6086</ele>
        <time>2021-07-08T09:46:34Z</time>
      </trkpt>
      <trkpt lat="41.29781" lon="-7.74033">
        <ele>398.172</ele>
        <time>2021-07-08T09:46:45Z</time>
      </trkpt>
      <trkpt lat="41.29717" lon="-7.74038">
        <ele>395.2902</ele>
        <time>2021-07-08T09:46:56Z</time>
      </trkpt>
      <trkpt lat="41.29681" lon="-7.73968">
        <ele>397.1908</ele>
        <time>2021-07-08T09:47:07Z</time>
      </trkpt>
      <trkpt lat="41.29657" lon="-7.73836">
        <ele>413.0394</ele>
        <time>2021-07-08T09:47:18Z</time>
      </trkpt>
      <trkpt lat="41.29633" lon="-7.73715">
        <ele>406.3194</ele>
        <time>2021-07-08T09:47:29Z</time>
      </trkpt>
      <trkpt lat="41.29663" lon="-7.73602">
        <ele>409.9771</ele>
        <time>2021-07-08T09:47:40Z</time>
      </trkpt>
      <trkpt lat="41.29659" lon="-7.73496">
        <ele>411.8799</ele>
        <time>2021-07-08T09:47:51Z</time>
      </trkpt>
      <trkpt lat="41.29654" lon="-7.73468">
        <ele>412.3957</ele>
        <time>2021-07-08T09:48:02Z</time>
      </trkpt>
      <trkpt lat="41.29682" lon="-7.73455">
        <ele>414.6278</ele>
        <time>2021-07-08T09:48:44Z</time>
      </trkpt>
      <trkpt lat="41.29684" lon="-7.7345">
        <ele>414.6278</ele>
        <time>2021-07-08T09:48:56Z</time>
      </trkpt>
      <trkpt lat="41.2968" lon="-7.73449">
        <ele>414.6278</ele>
        <time>2021-07-08T09:49:09Z</time>
      </trkpt>
      <trkpt lat="41.29683" lon="-7.73453">
        <ele>414.6278</ele>
        <time>2021-07-08T09:49:42Z</time>
      </trkpt>
      <trkpt lat="41.29673" lon="-7.73449">
        <ele>414.6278</ele>
        <time>2021-07-08T09:49:56Z</time>
      </trkpt>
      <trkpt lat="41.29677" lon="-7.73452">
        <ele>414.6278</ele>
        <time>2021-07-08T09:50:09Z</time>
      </trkpt>
      <trkpt lat="41.29667" lon="-7.73456">
        <ele>414.6278</ele>
        <time>2021-07-08T09:50:21Z</time>
      </trkpt>
      <trkpt lat="41.2967" lon="-7.7346">
        <ele>414.6278</ele>
        <time>2021-07-08T09:50:34Z</time>
      </trkpt>
      <trkpt lat="41.29683" lon="-7.73454">
        <ele>414.6278</ele>
        <time>2021-07-08T09:50:48Z</time>
      </trkpt>
      <trkpt lat="41.29677" lon="-7.73445">
        <ele>414.6278</ele>
        <time>2021-07-08T09:51:01Z</time>
      </trkpt>
      <trkpt lat="41.29673" lon="-7.73452">
        <ele>414.6278</ele>
        <time>2021-07-08T09:51:14Z</time>
      </trkpt>
      <trkpt lat="41.29678" lon="-7.73455">
        <ele>414.6278</ele>
        <time>2021-07-08T09:51:26Z</time>
      </trkpt>
      <trkpt lat="41.29682" lon="-7.73443">
        <ele>414.6278</ele>
        <time>2021-07-08T09:51:39Z</time>
      </trkpt>
      <trkpt lat="41.29674" lon="-7.73457">
        <ele>414.6278</ele>
        <time>2021-07-08T09:51:52Z</time>
      </trkpt>
      <trkpt lat="41.29684" lon="-7.73446">
        <ele>414.6278</ele>
        <time>2021-07-08T09:52:05Z</time>
      </trkpt>
      <trkpt lat="41.29697" lon="-7.73448">
        <ele>414.6278</ele>
        <time>2021-07-08T09:52:18Z</time>
      </trkpt>
      <trkpt lat="41.29703" lon="-7.73458">
        <ele>414.6278</ele>
        <time>2021-07-08T09:52:31Z</time>
      </trkpt>
      <trkpt lat="41.29714" lon="-7.73454">
        <ele>414.6278</ele>
        <time>2021-07-08T09:52:43Z</time>
      </trkpt>
      <trkpt lat="41.29719" lon="-7.73476">
        <ele>412.4078</ele>
        <time>2021-07-08T09:52:57Z</time>
      </trkpt>
      <trkpt lat="41.2971" lon="-7.73494">
        <ele>412.4078</ele>
        <time>2021-07-08T09:53:10Z</time>
      </trkpt>
      <trkpt lat="41.29741" lon="-7.73487">
        <ele>412.4078</ele>
        <time>2021-07-08T09:53:23Z</time>
      </trkpt>
      <trkpt lat="41.29731" lon="-7.73492">
        <ele>411.0078</ele>
        <time>2021-07-08T09:53:36Z</time>
      </trkpt>
      <trkpt lat="41.29725" lon="-7.73499">
        <ele>411.0078</ele>
        <time>2021-07-08T09:53:49Z</time>
      </trkpt>
      <trkpt lat="41.29708" lon="-7.73517">
        <ele>411.0078</ele>
        <time>2021-07-08T09:54:02Z</time>
      </trkpt>
      <trkpt lat="41.29685" lon="-7.73514">
        <ele>411.0078</ele>
        <time>2021-07-08T09:54:15Z</time>
      </trkpt>
      <trkpt lat="41.29692" lon="-7.73519">
        <ele>411.0078</ele>
        <time>2021-07-08T09:54:28Z</time>
      </trkpt>
      <trkpt lat="41.2968" lon="-7.73522">
        <ele>411.0078</ele>
        <time>2021-07-08T09:54:43Z</time>
      </trkpt>
      <trkpt lat="41.29715" lon="-7.7359">
        <ele>411.0078</ele>
        <time>2021-07-08T09:54:57Z</time>
      </trkpt>
      <trkpt lat="41.29702" lon="-7.73564">
        <ele>411.0078</ele>
        <time>2021-07-08T09:55:11Z</time>
      </trkpt>
      <trkpt lat="41.29694" lon="-7.73564">
        <ele>411.0078</ele>
        <time>2021-07-08T09:55:24Z</time>
      </trkpt>
      <trkpt lat="41.29693" lon="-7.73548">
        <ele>411.0078</ele>
        <time>2021-07-08T09:55:37Z</time>
      </trkpt>
      <trkpt lat="41.29686" lon="-7.73514">
        <ele>411.0078</ele>
        <time>2021-07-08T09:55:50Z</time>
      </trkpt>
      <trkpt lat="41.29687" lon="-7.73527">
        <ele>411.0078</ele>
        <time>2021-07-08T09:56:10Z</time>
      </trkpt>
      <trkpt lat="41.29693" lon="-7.73508">
        <ele>411.0078</ele>
        <time>2021-07-08T09:56:29Z</time>
      </trkpt>
      <trkpt lat="41.29677" lon="-7.73515">
        <ele>411.0078</ele>
        <time>2021-07-08T09:56:42Z</time>
      </trkpt>
      <trkpt lat="41.29672" lon="-7.73518">
        <ele>411.0078</ele>
        <time>2021-07-08T09:57:08Z</time>
      </trkpt>
      <trkpt lat="41.29667" lon="-7.73521">
        <ele>411.0078</ele>
        <time>2021-07-08T09:57:28Z</time>
      </trkpt>
      <trkpt lat="41.29673" lon="-7.73516">
        <ele>411.0078</ele>
        <time>2021-07-08T09:57:41Z</time>
      </trkpt>
      <trkpt lat="41.2967" lon="-7.73519">
        <ele>411.0078</ele>
        <time>2021-07-08T09:57:54Z</time>
      </trkpt>
      <trkpt lat="41.29678" lon="-7.73513">
        <ele>411.0078</ele>
        <time>2021-07-08T09:58:14Z</time>
      </trkpt>
      <trkpt lat="41.29672" lon="-7.73516">
        <ele>411.0078</ele>
        <time>2021-07-08T09:58:41Z</time>
      </trkpt>
      <trkpt lat="41.29679" lon="-7.73513">
        <ele>411.0078</ele>
        <time>2021-07-08T09:59:01Z</time>
      </trkpt>
      <trkpt lat="41.29674" lon="-7.73515">
        <ele>411.0078</ele>
        <time>2021-07-08T09:59:14Z</time>
      </trkpt>
      <trkpt lat="41.29693" lon="-7.73503">
        <ele>411.0078</ele>
        <time>2021-07-08T09:59:27Z</time>
      </trkpt>
      <trkpt lat="41.29682" lon="-7.7351">
        <ele>411.0078</ele>
        <time>2021-07-08T09:59:40Z</time>
      </trkpt>
      <trkpt lat="41.29687" lon="-7.73503">
        <ele>411.0078</ele>
        <time>2021-07-08T09:59:53Z</time>
      </trkpt>
      <trkpt lat="41.29677" lon="-7.73511">
        <ele>411.0078</ele>
        <time>2021-07-08T10:00:25Z</time>
      </trkpt>
      <trkpt lat="41.29682" lon="-7.73509">
        <ele>411.0078</ele>
        <time>2021-07-08T10:00:45Z</time>
      </trkpt>
      <trkpt lat="41.29687" lon="-7.73505">
        <ele>411.0078</ele>
        <time>2021-07-08T10:00:58Z</time>
      </trkpt>
      <trkpt lat="41.29683" lon="-7.73508">
        <ele>411.0078</ele>
        <time>2021-07-08T10:01:12Z</time>
      </trkpt>
      <trkpt lat="41.29687" lon="-7.73504">
        <ele>411.0078</ele>
        <time>2021-07-08T10:01:25Z</time>
      </trkpt>
      <trkpt lat="41.2968" lon="-7.73511">
        <ele>411.0078</ele>
        <time>2021-07-08T10:01:44Z</time>
      </trkpt>
      <trkpt lat="41.29698" lon="-7.735">
        <ele>411.0078</ele>
        <time>2021-07-08T10:01:57Z</time>
      </trkpt>
      <trkpt lat="41.29702" lon="-7.73495">
        <ele>411.0078</ele>
        <time>2021-07-08T10:02:10Z</time>
      </trkpt>
      <trkpt lat="41.29716" lon="-7.73489">
        <ele>411.0078</ele>
        <time>2021-07-08T10:02:23Z</time>
      </trkpt>
      <trkpt lat="41.29726" lon="-7.73469">
        <ele>411.0078</ele>
        <time>2021-07-08T10:02:36Z</time>
      </trkpt>
      <trkpt lat="41.29711" lon="-7.73465">
        <ele>411.0078</ele>
        <time>2021-07-08T10:02:50Z</time>
      </trkpt>
      <trkpt lat="41.29705" lon="-7.73445">
        <ele>413.0978</ele>
        <time>2021-07-08T10:03:03Z</time>
      </trkpt>
      <trkpt lat="41.29676" lon="-7.73441">
        <ele>413.0978</ele>
        <time>2021-07-08T10:03:16Z</time>
      </trkpt>
      <trkpt lat="41.29681" lon="-7.7344">
        <ele>414.2778</ele>
        <time>2021-07-08T10:03:36Z</time>
      </trkpt>
      <trkpt lat="41.29679" lon="-7.73454">
        <ele>414.2778</ele>
        <time>2021-07-08T10:03:49Z</time>
      </trkpt>
      <trkpt lat="41.29672" lon="-7.73452">
        <ele>414.2778</ele>
        <time>2021-07-08T10:04:02Z</time>
      </trkpt>
      <trkpt lat="41.29679" lon="-7.73444">
        <ele>414.2778</ele>
        <time>2021-07-08T10:04:15Z</time>
      </trkpt>
      <trkpt lat="41.29678" lon="-7.73454">
        <ele>414.2778</ele>
        <time>2021-07-08T10:04:29Z</time>
      </trkpt>
      <trkpt lat="41.29682" lon="-7.73453">
        <ele>414.2778</ele>
        <time>2021-07-08T10:04:57Z</time>
      </trkpt>
      <trkpt lat="41.29685" lon="-7.7345">
        <ele>414.2778</ele>
        <time>2021-07-08T10:05:12Z</time>
      </trkpt>
      <trkpt lat="41.2967" lon="-7.7345">
        <ele>414.2778</ele>
        <time>2021-07-08T10:05:31Z</time>
      </trkpt>
      <trkpt lat="41.29678" lon="-7.73463">
        <ele>414.2778</ele>
        <time>2021-07-08T10:05:49Z</time>
      </trkpt>
      <trkpt lat="41.29682" lon="-7.73451">
        <ele>414.2778</ele>
        <time>2021-07-08T10:06:08Z</time>
      </trkpt>
      <trkpt lat="41.29677" lon="-7.73451">
        <ele>414.2778</ele>
        <time>2021-07-08T10:06:21Z</time>
      </trkpt>
      <trkpt lat="41.29678" lon="-7.73446">
        <ele>414.2778</ele>
        <time>2021-07-08T10:06:34Z</time>
      </trkpt>
      <trkpt lat="41.29683" lon="-7.73454">
        <ele>414.2778</ele>
        <time>2021-07-08T10:06:47Z</time>
      </trkpt>
      <trkpt lat="41.29672" lon="-7.73464">
        <ele>414.2778</ele>
        <time>2021-07-08T10:07:00Z</time>
      </trkpt>
      <trkpt lat="41.29681" lon="-7.73451">
        <ele>414.2778</ele>
        <time>2021-07-08T10:07:13Z</time>
      </trkpt>
      <trkpt lat="41.2968" lon="-7.73456">
        <ele>414.2778</ele>
        <time>2021-07-08T10:07:32Z</time>
      </trkpt>
      <trkpt lat="41.29686" lon="-7.73458">
        <ele>414.2778</ele>
        <time>2021-07-08T10:07:52Z</time>
      </trkpt>
      <trkpt lat="41.29685" lon="-7.73451">
        <ele>414.2778</ele>
        <time>2021-07-08T10:08:05Z</time>
      </trkpt>
      <trkpt lat="41.2968" lon="-7.73465">
        <ele>414.2778</ele>
        <time>2021-07-08T10:08:18Z</time>
      </trkpt>
      <trkpt lat="41.29676" lon="-7.73458">
        <ele>414.2778</ele>
        <time>2021-07-08T10:08:31Z</time>
      </trkpt>
      <trkpt lat="41.29685" lon="-7.73455">
        <ele>414.2778</ele>
        <time>2021-07-08T10:08:44Z</time>
      </trkpt>
      <trkpt lat="41.29673" lon="-7.73456">
        <ele>414.2778</ele>
        <time>2021-07-08T10:09:03Z</time>
      </trkpt>
      <trkpt lat="41.29678" lon="-7.73457">
        <ele>414.2778</ele>
        <time>2021-07-08T10:09:16Z</time>
      </trkpt>
      <trkpt lat="41.29683" lon="-7.73443">
        <ele>414.2778</ele>
        <time>2021-07-08T10:09:29Z</time>
      </trkpt>
      <trkpt lat="41.2968" lon="-7.73449">
        <ele>414.2778</ele>
        <time>2021-07-08T10:09:42Z</time>
      </trkpt>
      <trkpt lat="41.29672" lon="-7.73459">
        <ele>414.2778</ele>
        <time>2021-07-08T10:09:55Z</time>
      </trkpt>
      <trkpt lat="41.29686" lon="-7.73456">
        <ele>414.2778</ele>
        <time>2021-07-08T10:10:08Z</time>
      </trkpt>
      <trkpt lat="41.29678" lon="-7.73447">
        <ele>414.2778</ele>
        <time>2021-07-08T10:10:21Z</time>
      </trkpt>
      <trkpt lat="41.29677" lon="-7.73462">
        <ele>414.2778</ele>
        <time>2021-07-08T10:10:34Z</time>
      </trkpt>
      <trkpt lat="41.29675" lon="-7.73456">
        <ele>414.2778</ele>
        <time>2021-07-08T10:10:47Z</time>
      </trkpt>
      <trkpt lat="41.29681" lon="-7.73461">
        <ele>414.2778</ele>
        <time>2021-07-08T10:11:00Z</time>
      </trkpt>
      <trkpt lat="41.29678" lon="-7.73448">
        <ele>414.2778</ele>
        <time>2021-07-08T10:11:13Z</time>
      </trkpt>
      <trkpt lat="41.29682" lon="-7.73441">
        <ele>414.2778</ele>
        <time>2021-07-08T10:11:26Z</time>
      </trkpt>
      <trkpt lat="41.29711" lon="-7.73412">
        <ele>414.2778</ele>
        <time>2021-07-08T10:11:39Z</time>
      </trkpt>
      <trkpt lat="41.29764" lon="-7.73453">
        <ele>414.2778</ele>
        <time>2021-07-08T10:11:53Z</time>
      </trkpt>
      <trkpt lat="41.29771" lon="-7.73481">
        <ele>413.6229</ele>
        <time>2021-07-08T10:12:04Z</time>
      </trkpt>
      <trkpt lat="41.29806" lon="-7.73488">
        <ele>412.7865</ele>
        <time>2021-07-08T10:12:15Z</time>
      </trkpt>
      <trkpt lat="41.2984" lon="-7.73407">
        <ele>416.8678</ele>
        <time>2021-07-08T10:12:26Z</time>
      </trkpt>
      <trkpt lat="41.29826" lon="-7.73337">
        <ele>420.8958</ele>
        <time>2021-07-08T10:12:37Z</time>
      </trkpt>
      <trkpt lat="41.29735" lon="-7.73291">
        <ele>424.6394</ele>
        <time>2021-07-08T10:12:48Z</time>
      </trkpt>
      <trkpt lat="41.29658" lon="-7.7326">
        <ele>429.2374</ele>
        <time>2021-07-08T10:12:59Z</time>
      </trkpt>
      <trkpt lat="41.29594" lon="-7.733">
        <ele>428.2581</ele>
        <time>2021-07-08T10:13:10Z</time>
      </trkpt>
      <trkpt lat="41.29542" lon="-7.7335">
        <ele>427.6178</ele>
        <time>2021-07-08T10:13:21Z</time>
      </trkpt>
      <trkpt lat="41.29468" lon="-7.73435">
        <ele>431.3971</ele>
        <time>2021-07-08T10:13:32Z</time>
      </trkpt>
      <trkpt lat="41.29455" lon="-7.73503">
        <ele>433.2761</ele>
        <time>2021-07-08T10:13:43Z</time>
      </trkpt>
      <trkpt lat="41.29506" lon="-7.73534">
        <ele>426.0977</ele>
        <time>2021-07-08T10:13:54Z</time>
      </trkpt>
      <trkpt lat="41.29506" lon="-7.73607">
        <ele>426.217</ele>
        <time>2021-07-08T10:14:05Z</time>
      </trkpt>
      <trkpt lat="41.29471" lon="-7.73678">
        <ele>422.4455</ele>
        <time>2021-07-08T10:14:16Z</time>
      </trkpt>
      <trkpt lat="41.29445" lon="-7.73665">
        <ele>424.4527</ele>
        <time>2021-07-08T10:14:27Z</time>
      </trkpt>
      <trkpt lat="41.29444" lon="-7.73664">
        <ele>425.3616</ele>
        <time>2021-07-08T10:15:25Z</time>
      </trkpt>
      <trkpt lat="41.29447" lon="-7.73667">
        <ele>424.5523</ele>
        <time>2021-07-08T10:15:44Z</time>
      </trkpt>
      <trkpt lat="41.29431" lon="-7.73651">
        <ele>425.4619</ele>
        <time>2021-07-08T10:15:55Z</time>
      </trkpt>
      <trkpt lat="41.29421" lon="-7.73627">
        <ele>425.9559</ele>
        <time>2021-07-08T10:16:06Z</time>
      </trkpt>
      <trkpt lat="41.29425" lon="-7.73665">
        <ele>425.5976</ele>
        <time>2021-07-08T10:16:17Z</time>
      </trkpt>
      <trkpt lat="41.2948" lon="-7.73761">
        <ele>422.0075</ele>
        <time>2021-07-08T10:16:28Z</time>
      </trkpt>
      <trkpt lat="41.29529" lon="-7.73882">
        <ele>420.7058</ele>
        <time>2021-07-08T10:16:39Z</time>
      </trkpt>
      <trkpt lat="41.29576" lon="-7.73968">
        <ele>418.3253</ele>
        <time>2021-07-08T10:16:50Z</time>
      </trkpt>
      <trkpt lat="41.2965" lon="-7.74025">
        <ele>415.5829</ele>
        <time>2021-07-08T10:17:01Z</time>
      </trkpt>
      <trkpt lat="41.29722" lon="-7.74075">
        <ele>417.8753</ele>
        <time>2021-07-08T10:17:12Z</time>
      </trkpt>
      <trkpt lat="41.29726" lon="-7.74079">
        <ele>420.4474</ele>
        <time>2021-07-08T10:17:23Z</time>
      </trkpt>
      <trkpt lat="41.29732" lon="-7.74084">
        <ele>422.7829</ele>
        <time>2021-07-08T10:18:11Z</time>
      </trkpt>
      <trkpt lat="41.29795" lon="-7.74085">
        <ele>421.9279</ele>
        <time>2021-07-08T10:18:22Z</time>
      </trkpt>
      <trkpt lat="41.29854" lon="-7.74055">
        <ele>405.6127</ele>
        <time>2021-07-08T10:18:33Z</time>
      </trkpt>
      <trkpt lat="41.2977" lon="-7.74032">
        <ele>395.9799</ele>
        <time>2021-07-08T10:18:44Z</time>
      </trkpt>
      <trkpt lat="41.29697" lon="-7.74017">
        <ele>394.0643</ele>
        <time>2021-07-08T10:18:55Z</time>
      </trkpt>
      <trkpt lat="41.29681" lon="-7.73895">
        <ele>404.5028</ele>
        <time>2021-07-08T10:19:06Z</time>
      </trkpt>
      <trkpt lat="41.2963" lon="-7.73763">
        <ele>405.5286</ele>
        <time>2021-07-08T10:19:17Z</time>
      </trkpt>
      <trkpt lat="41.29655" lon="-7.73648">
        <ele>410.4032</ele>
        <time>2021-07-08T10:19:28Z</time>
      </trkpt>
      <trkpt lat="41.29663" lon="-7.73623">
        <ele>412.3116</ele>
        <time>2021-07-08T10:19:39Z</time>
      </trkpt>
      <trkpt lat="41.29663" lon="-7.73617">
        <ele>411.0293</ele>
        <time>2021-07-08T10:19:50Z</time>
      </trkpt>
      <trkpt lat="41.29725" lon="-7.73623">
        <ele>408.6089</ele>
        <time>2021-07-08T10:20:01Z</time>
      </trkpt>
      <trkpt lat="41.29746" lon="-7.73627">
        <ele>406.7356</ele>
        <time>2021-07-08T10:20:12Z</time>
      </trkpt>
      <trkpt lat="41.2973" lon="-7.73653">
        <ele>405.4758</ele>
        <time>2021-07-08T10:20:23Z</time>
      </trkpt>
      <trkpt lat="41.29718" lon="-7.73652">
        <ele>406.0247</ele>
        <time>2021-07-08T10:20:34Z</time>
      </trkpt>
      <trkpt lat="41.2972" lon="-7.73657">
        <ele>405.6811</ele>
        <time>2021-07-08T10:20:50Z</time>
      </trkpt>
      <trkpt lat="41.29722" lon="-7.73661">
        <ele>405.5586</ele>
        <time>2021-07-08T10:21:07Z</time>
      </trkpt>
      <trkpt lat="41.29717" lon="-7.73665">
        <ele>404.6195</ele>
        <time>2021-07-08T10:21:51Z</time>
      </trkpt>
      <trkpt lat="41.29702" lon="-7.73663">
        <ele>407.112</ele>
        <time>2021-07-08T10:22:02Z</time>
      </trkpt>
      <trkpt lat="41.29698" lon="-7.73657">
        <ele>407.5741</ele>
        <time>2021-07-08T10:22:13Z</time>
      </trkpt>
      <trkpt lat="41.29692" lon="-7.73658">
        <ele>407.9876</ele>
        <time>2021-07-08T10:22:24Z</time>
      </trkpt>
      <trkpt lat="41.29689" lon="-7.73654">
        <ele>408.584</ele>
        <time>2021-07-08T10:22:48Z</time>
      </trkpt>
      <trkpt lat="41.29685" lon="-7.73641">
        <ele>409.4019</ele>
        <time>2021-07-08T10:22:59Z</time>
      </trkpt>
      <trkpt lat="41.29682" lon="-7.73637">
        <ele>409.6869</ele>
        <time>2021-07-08T10:23:22Z</time>
      </trkpt>
      <trkpt lat="41.29684" lon="-7.73642">
        <ele>407.813</ele>
        <time>2021-07-08T10:23:35Z</time>
      </trkpt>
      <trkpt lat="41.29681" lon="-7.73635">
        <ele>409.3464</ele>
        <time>2021-07-08T10:24:07Z</time>
      </trkpt>
      <trkpt lat="41.29664" lon="-7.73557">
        <ele>412.7477</ele>
        <time>2021-07-08T10:24:18Z</time>
      </trkpt>
      <trkpt lat="41.29619" lon="-7.7343">
        <ele>417.0243</ele>
        <time>2021-07-08T10:24:29Z</time>
      </trkpt>
      <trkpt lat="41.29571" lon="-7.7334">
        <ele>423.006</ele>
        <time>2021-07-08T10:24:40Z</time>
      </trkpt>
      <trkpt lat="41.295" lon="-7.73238">
        <ele>432.2774</ele>
        <time>2021-07-08T10:24:51Z</time>
      </trkpt>
      <trkpt lat="41.2949" lon="-7.73212">
        <ele>432.6838</ele>
        <time>2021-07-08T10:25:02Z</time>
      </trkpt>
      <trkpt lat="41.29603" lon="-7.73155">
        <ele>431.5915</ele>
        <time>2021-07-08T10:25:13Z</time>
      </trkpt>
      <trkpt lat="41.29747" lon="-7.73212">
        <ele>435.1611</ele>
        <time>2021-07-08T10:25:24Z</time>
      </trkpt>
      <trkpt lat="41.29869" lon="-7.7322">
        <ele>426.7836</ele>
        <time>2021-07-08T10:25:35Z</time>
      </trkpt>
      <trkpt lat="41.2994" lon="-7.73201">
        <ele>423.6841</ele>
        <time>2021-07-08T10:25:46Z</time>
      </trkpt>
      <trkpt lat="41.30055" lon="-7.73154">
        <ele>424.3936</ele>
        <time>2021-07-08T10:25:57Z</time>
      </trkpt>
      <trkpt lat="41.30174" lon="-7.73029">
        <ele>425.786</ele>
        <time>2021-07-08T10:26:08Z</time>
      </trkpt>
      <trkpt lat="41.30309" lon="-7.73154">
        <ele>423.3026</ele>
        <time>2021-07-08T10:26:19Z</time>
      </trkpt>
      <trkpt lat="41.30297" lon="-7.73347">
        <ele>416.2522</ele>
        <time>2021-07-08T10:26:30Z</time>
      </trkpt>
      <trkpt lat="41.30432" lon="-7.73372">
        <ele>405.3814</ele>
        <time>2021-07-08T10:26:41Z</time>
      </trkpt>
      <trkpt lat="41.30551" lon="-7.73367">
        <ele>402.9719</ele>
        <time>2021-07-08T10:26:52Z</time>
      </trkpt>
      <trkpt lat="41.30625" lon="-7.73448">
        <ele>402.2119</ele>
        <time>2021-07-08T10:27:03Z</time>
      </trkpt>
      <trkpt lat="41.30661" lon="-7.73623">
        <ele>409.061</ele>
        <time>2021-07-08T10:27:14Z</time>
      </trkpt>
      <trkpt lat="41.30599" lon="-7.73761">
        <ele>413.5949</ele>
        <time>2021-07-08T10:27:25Z</time>
      </trkpt>
      <trkpt lat="41.30495" lon="-7.73862">
        <ele>419.3269</ele>
        <time>2021-07-08T10:27:36Z</time>
      </trkpt>
      <trkpt lat="41.30425" lon="-7.73921">
        <ele>424.3125</ele>
        <time>2021-07-08T10:27:47Z</time>
      </trkpt>
      <trkpt lat="41.30342" lon="-7.73981">
        <ele>428.5018</ele>
        <time>2021-07-08T10:27:58Z</time>
      </trkpt>
      <trkpt lat="41.30351" lon="-7.74063">
        <ele>431.1916</ele>
        <time>2021-07-08T10:28:09Z</time>
      </trkpt>
      <trkpt lat="41.30431" lon="-7.74043">
        <ele>432.5231</ele>
        <time>2021-07-08T10:28:20Z</time>
      </trkpt>
      <trkpt lat="41.30563" lon="-7.74009">
        <ele>434.0546</ele>
        <time>2021-07-08T10:28:31Z</time>
      </trkpt>
      <trkpt lat="41.30672" lon="-7.73906">
        <ele>441.5331</ele>
        <time>2021-07-08T10:28:42Z</time>
      </trkpt>
      <trkpt lat="41.30734" lon="-7.73766">
        <ele>440.2914</ele>
        <time>2021-07-08T10:28:53Z</time>
      </trkpt>
      <trkpt lat="41.30801" lon="-7.73636">
        <ele>439.3594</ele>
        <time>2021-07-08T10:29:04Z</time>
      </trkpt>
      <trkpt lat="41.30863" lon="-7.73514">
        <ele>445.095</ele>
        <time>2021-07-08T10:29:15Z</time>
      </trkpt>
      <trkpt lat="41.30936" lon="-7.73476">
        <ele>445.6428</ele>
        <time>2021-07-08T10:29:26Z</time>
      </trkpt>
      <trkpt lat="41.31058" lon="-7.73484">
        <ele>450.7738</ele>
        <time>2021-07-08T10:29:37Z</time>
      </trkpt>
      <trkpt lat="41.31172" lon="-7.73449">
        <ele>454.2439</ele>
        <time>2021-07-08T10:29:48Z</time>
      </trkpt>
      <trkpt lat="41.31273" lon="-7.73399">
        <ele>457.457</ele>
        <time>2021-07-08T10:29:59Z</time>
      </trkpt>
      <trkpt lat="41.31293" lon="-7.73261">
        <ele>459.2778</ele>
        <time>2021-07-08T10:30:10Z</time>
      </trkpt>
      <trkpt lat="41.31374" lon="-7.73116">
        <ele>460.5081</ele>
        <time>2021-07-08T10:30:21Z</time>
      </trkpt>
      <trkpt lat="41.31528" lon="-7.72886">
        <ele>459.7643</ele>
        <time>2021-07-08T10:30:32Z</time>
      </trkpt>
      <trkpt lat="41.31664" lon="-7.72648">
        <ele>452.5092</ele>
        <time>2021-07-08T10:30:43Z</time>
      </trkpt>
      <trkpt lat="41.31618" lon="-7.72364">
        <ele>455.0214</ele>
        <time>2021-07-08T10:30:54Z</time>
      </trkpt>
      <trkpt lat="41.31567" lon="-7.72033">
        <ele>470.8005</ele>
        <time>2021-07-08T10:31:05Z</time>
      </trkpt>
      <trkpt lat="41.31552" lon="-7.71727">
        <ele>490.1852</ele>
        <time>2021-07-08T10:31:16Z</time>
      </trkpt>
      <trkpt lat="41.31639" lon="-7.71437">
        <ele>508.4507</ele>
        <time>2021-07-08T10:31:27Z</time>
      </trkpt>
      <trkpt lat="41.3165" lon="-7.71126">
        <ele>524.2442</ele>
        <time>2021-07-08T10:31:38Z</time>
      </trkpt>
      <trkpt lat="41.31615" lon="-7.70793">
        <ele>542.5931</ele>
        <time>2021-07-08T10:31:49Z</time>
      </trkpt>
      <trkpt lat="41.31713" lon="-7.70519">
        <ele>552.1668</ele>
        <time>2021-07-08T10:32:00Z</time>
      </trkpt>
      <trkpt lat="41.31925" lon="-7.70343">
        <ele>565.3539</ele>
        <time>2021-07-08T10:32:11Z</time>
      </trkpt>
      <trkpt lat="41.3214" lon="-7.70176">
        <ele>578.041</ele>
        <time>2021-07-08T10:32:22Z</time>
      </trkpt>
      <trkpt lat="41.32354" lon="-7.69979">
        <ele>592.9123</ele>
        <time>2021-07-08T10:32:33Z</time>
      </trkpt>
      <trkpt lat="41.32456" lon="-7.69666">
        <ele>607.3076</ele>
        <time>2021-07-08T10:32:44Z</time>
      </trkpt>
      <trkpt lat="41.32509" lon="-7.6932">
        <ele>615.3163</ele>
        <time>2021-07-08T10:32:55Z</time>
      </trkpt>
      <trkpt lat="41.3265" lon="-7.68969">
        <ele>616.8978</ele>
        <time>2021-07-08T10:33:06Z</time>
      </trkpt>
      <trkpt lat="41.32698" lon="-7.68616">
        <ele>631.1459</ele>
        <time>2021-07-08T10:33:17Z</time>
      </trkpt>
      <trkpt lat="41.32667" lon="-7.68287">
        <ele>644.6979</ele>
        <time>2021-07-08T10:33:28Z</time>
      </trkpt>
      <trkpt lat="41.32692" lon="-7.67932">
        <ele>662.8437</ele>
        <time>2021-07-08T10:33:39Z</time>
      </trkpt>
      <trkpt lat="41.32851" lon="-7.67663">
        <ele>679.6302</ele>
        <time>2021-07-08T10:33:50Z</time>
      </trkpt>
      <trkpt lat="41.32832" lon="-7.67465">
        <ele>691.8525</ele>
        <time>2021-07-08T10:34:01Z</time>
      </trkpt>
      <trkpt lat="41.32772" lon="-7.67389">
        <ele>694.5333</ele>
        <time>2021-07-08T10:34:12Z</time>
      </trkpt>
      <trkpt lat="41.32876" lon="-7.67276">
        <ele>695.5863</ele>
        <time>2021-07-08T10:34:23Z</time>
      </trkpt>
      <trkpt lat="41.32964" lon="-7.67013">
        <ele>688.2812</ele>
        <time>2021-07-08T10:34:34Z</time>
      </trkpt>
      <trkpt lat="41.32953" lon="-7.66811">
        <ele>693.0254</ele>
        <time>2021-07-08T10:34:45Z</time>
      </trkpt>
      <trkpt lat="41.33108" lon="-7.66673">
        <ele>701.0204</ele>
        <time>2021-07-08T10:34:56Z</time>
      </trkpt>
      <trkpt lat="41.33254" lon="-7.6652">
        <ele>707.0868</ele>
        <time>2021-07-08T10:35:07Z</time>
      </trkpt>
      <trkpt lat="41.3344" lon="-7.66436">
        <ele>715.0684</ele>
        <time>2021-07-08T10:35:18Z</time>
      </trkpt>
      <trkpt lat="41.33629" lon="-7.66369">
        <ele>724.8061</ele>
        <time>2021-07-08T10:35:29Z</time>
      </trkpt>
      <trkpt lat="41.33768" lon="-7.66261">
        <ele>729.4813</ele>
        <time>2021-07-08T10:35:40Z</time>
      </trkpt>
      <trkpt lat="41.33904" lon="-7.6609">
        <ele>728.6555</ele>
        <time>2021-07-08T10:35:51Z</time>
      </trkpt>
      <trkpt lat="41.34067" lon="-7.65909">
        <ele>732.7789</ele>
        <time>2021-07-08T10:36:02Z</time>
      </trkpt>
      <trkpt lat="41.34227" lon="-7.6573">
        <ele>737.4084</ele>
        <time>2021-07-08T10:36:13Z</time>
      </trkpt>
      <trkpt lat="41.3438" lon="-7.65539">
        <ele>746.3403</ele>
        <time>2021-07-08T10:36:24Z</time>
      </trkpt>
      <trkpt lat="41.34458" lon="-7.65349">
        <ele>743.7557</ele>
        <time>2021-07-08T10:36:35Z</time>
      </trkpt>
      <trkpt lat="41.34612" lon="-7.65206">
        <ele>749.6733</ele>
        <time>2021-07-08T10:36:46Z</time>
      </trkpt>
      <trkpt lat="41.34846" lon="-7.65097">
        <ele>764.0023</ele>
        <time>2021-07-08T10:36:57Z</time>
      </trkpt>
      <trkpt lat="41.35068" lon="-7.64994">
        <ele>774.6235</ele>
        <time>2021-07-08T10:37:08Z</time>
      </trkpt>
      <trkpt lat="41.35244" lon="-7.64823">
        <ele>788.2831</ele>
        <time>2021-07-08T10:37:19Z</time>
      </trkpt>
      <trkpt lat="41.35384" lon="-7.64665">
        <ele>792.4684</ele>
        <time>2021-07-08T10:37:30Z</time>
      </trkpt>
      <trkpt lat="41.35573" lon="-7.64501">
        <ele>805.6346</ele>
        <time>2021-07-08T10:37:41Z</time>
      </trkpt>
      <trkpt lat="41.35796" lon="-7.64402">
        <ele>814.0898</ele>
        <time>2021-07-08T10:37:52Z</time>
      </trkpt>
      <trkpt lat="41.36005" lon="-7.64327">
        <ele>818.6381</ele>
        <time>2021-07-08T10:38:03Z</time>
      </trkpt>
      <trkpt lat="41.36226" lon="-7.64235">
        <ele>828.7755</ele>
        <time>2021-07-08T10:38:14Z</time>
      </trkpt>
      <trkpt lat="41.36257" lon="-7.6403">
        <ele>831.1254</ele>
        <time>2021-07-08T10:38:25Z</time>
      </trkpt>
      <trkpt lat="41.36152" lon="-7.63736">
        <ele>821.6207</ele>
        <time>2021-07-08T10:38:36Z</time>
      </trkpt>
      <trkpt lat="41.36031" lon="-7.6349">
        <ele>816.4184</ele>
        <time>2021-07-08T10:38:47Z</time>
      </trkpt>
      <trkpt lat="41.35853" lon="-7.6328">
        <ele>806.9222</ele>
        <time>2021-07-08T10:38:58Z</time>
      </trkpt>
      <trkpt lat="41.35769" lon="-7.63058">
        <ele>795.5626</ele>
        <time>2021-07-08T10:39:09Z</time>
      </trkpt>
      <trkpt lat="41.35723" lon="-7.62786">
        <ele>788.8406</ele>
        <time>2021-07-08T10:39:20Z</time>
      </trkpt>
      <trkpt lat="41.35764" lon="-7.62572">
        <ele>780.8662</ele>
        <time>2021-07-08T10:39:31Z</time>
      </trkpt>
      <trkpt lat="41.35709" lon="-7.62365">
        <ele>774.4734</ele>
        <time>2021-07-08T10:39:42Z</time>
      </trkpt>
      <trkpt lat="41.35623" lon="-7.62203">
        <ele>774.0998</ele>
        <time>2021-07-08T10:39:53Z</time>
      </trkpt>
      <trkpt lat="41.35649" lon="-7.61996">
        <ele>765.1896</ele>
        <time>2021-07-08T10:40:04Z</time>
      </trkpt>
      <trkpt lat="41.35732" lon="-7.61749">
        <ele>755.41</ele>
        <time>2021-07-08T10:40:15Z</time>
      </trkpt>
      <trkpt lat="41.35697" lon="-7.61479">
        <ele>743.8923</ele>
        <time>2021-07-08T10:40:26Z</time>
      </trkpt>
      <trkpt lat="41.35591" lon="-7.61326">
        <ele>734.8395</ele>
        <time>2021-07-08T10:40:37Z</time>
      </trkpt>
      <trkpt lat="41.35423" lon="-7.61289">
        <ele>724.7338</ele>
        <time>2021-07-08T10:40:48Z</time>
      </trkpt>
      <trkpt lat="41.35273" lon="-7.61143">
        <ele>714.1062</ele>
        <time>2021-07-08T10:40:59Z</time>
      </trkpt>
      <trkpt lat="41.35354" lon="-7.60937">
        <ele>710.2892</ele>
        <time>2021-07-08T10:41:10Z</time>
      </trkpt>
      <trkpt lat="41.35276" lon="-7.60826">
        <ele>705.95</ele>
        <time>2021-07-08T10:41:21Z</time>
      </trkpt>
      <trkpt lat="41.35143" lon="-7.60636">
        <ele>692.611</ele>
        <time>2021-07-08T10:41:32Z</time>
      </trkpt>
      <trkpt lat="41.35113" lon="-7.60422">
        <ele>678.0832</ele>
        <time>2021-07-08T10:41:43Z</time>
      </trkpt>
      <trkpt lat="41.35268" lon="-7.60265">
        <ele>667.7555</ele>
        <time>2021-07-08T10:41:54Z</time>
      </trkpt>
      <trkpt lat="41.35222" lon="-7.60081">
        <ele>660.473</ele>
        <time>2021-07-08T10:42:05Z</time>
      </trkpt>
      <trkpt lat="41.35141" lon="-7.60018">
        <ele>654.7283</ele>
        <time>2021-07-08T10:42:16Z</time>
      </trkpt>
      <trkpt lat="41.35075" lon="-7.59824">
        <ele>644.5282</ele>
        <time>2021-07-08T10:42:27Z</time>
      </trkpt>
      <trkpt lat="41.34937" lon="-7.59858">
        <ele>641.4147</ele>
        <time>2021-07-08T10:42:38Z</time>
      </trkpt>
      <trkpt lat="41.34766" lon="-7.59682">
        <ele>630.6114</ele>
        <time>2021-07-08T10:42:49Z</time>
      </trkpt>
      <trkpt lat="41.34609" lon="-7.59512">
        <ele>621.1286</ele>
        <time>2021-07-08T10:43:00Z</time>
      </trkpt>
      <trkpt lat="41.3463" lon="-7.5933">
        <ele>612.6617</ele>
        <time>2021-07-08T10:43:11Z</time>
      </trkpt>
      <trkpt lat="41.34803" lon="-7.59272">
        <ele>603.4457</ele>
        <time>2021-07-08T10:43:22Z</time>
      </trkpt>
      <trkpt lat="41.34903" lon="-7.59154">
        <ele>596.8637</ele>
        <time>2021-07-08T10:43:33Z</time>
      </trkpt>
      <trkpt lat="41.35005" lon="-7.59283">
        <ele>593.2792</ele>
        <time>2021-07-08T10:43:44Z</time>
      </trkpt>
      <trkpt lat="41.35185" lon="-7.59263">
        <ele>583.1462</ele>
        <time>2021-07-08T10:43:55Z</time>
      </trkpt>
      <trkpt lat="41.35225" lon="-7.59141">
        <ele>579.4475</ele>
        <time>2021-07-08T10:44:06Z</time>
      </trkpt>
      <trkpt lat="41.35164" lon="-7.58976">
        <ele>578.8485</ele>
        <time>2021-07-08T10:44:17Z</time>
      </trkpt>
      <trkpt lat="41.35276" lon="-7.58823">
        <ele>575.3312</ele>
        <time>2021-07-08T10:44:28Z</time>
      </trkpt>
      <trkpt lat="41.35383" lon="-7.58691">
        <ele>577.7401</ele>
        <time>2021-07-08T10:44:39Z</time>
      </trkpt>
      <trkpt lat="41.35469" lon="-7.5851">
        <ele>582.6105</ele>
        <time>2021-07-08T10:44:50Z</time>
      </trkpt>
      <trkpt lat="41.35562" lon="-7.58297">
        <ele>594.5882</ele>
        <time>2021-07-08T10:45:01Z</time>
      </trkpt>
      <trkpt lat="41.35649" lon="-7.58027">
        <ele>593.4814</ele>
        <time>2021-07-08T10:45:12Z</time>
      </trkpt>
      <trkpt lat="41.35621" lon="-7.57744">
        <ele>591.8842</ele>
        <time>2021-07-08T10:45:23Z</time>
      </trkpt>
      <trkpt lat="41.35565" lon="-7.57558">
        <ele>594.4189</ele>
        <time>2021-07-08T10:45:34Z</time>
      </trkpt>
      <trkpt lat="41.35669" lon="-7.57361">
        <ele>597.8636</ele>
        <time>2021-07-08T10:45:45Z</time>
      </trkpt>
      <trkpt lat="41.35904" lon="-7.57305">
        <ele>601.0131</ele>
        <time>2021-07-08T10:45:56Z</time>
      </trkpt>
      <trkpt lat="41.36143" lon="-7.57234">
        <ele>601.1485</ele>
        <time>2021-07-08T10:46:07Z</time>
      </trkpt>
      <trkpt lat="41.3633" lon="-7.57123">
        <ele>612.5266</ele>
        <time>2021-07-08T10:46:18Z</time>
      </trkpt>
      <trkpt lat="41.365" lon="-7.56991">
        <ele>623.6013</ele>
        <time>2021-07-08T10:46:29Z</time>
      </trkpt>
      <trkpt lat="41.36699" lon="-7.56823">
        <ele>633.3279</ele>
        <time>2021-07-08T10:46:40Z</time>
      </trkpt>
      <trkpt lat="41.36882" lon="-7.56685">
        <ele>637.4191</ele>
        <time>2021-07-08T10:46:51Z</time>
      </trkpt>
      <trkpt lat="41.37021" lon="-7.56505">
        <ele>641.9064</ele>
        <time>2021-07-08T10:47:02Z</time>
      </trkpt>
      <trkpt lat="41.37158" lon="-7.56267">
        <ele>648.9064</ele>
        <time>2021-07-08T10:47:13Z</time>
      </trkpt>
      <trkpt lat="41.37309" lon="-7.56032">
        <ele>655.1099</ele>
        <time>2021-07-08T10:47:24Z</time>
      </trkpt>
      <trkpt lat="41.37505" lon="-7.55845">
        <ele>665.469</ele>
        <time>2021-07-08T10:47:35Z</time>
      </trkpt>
      <trkpt lat="41.37609" lon="-7.55581">
        <ele>671.9893</ele>
        <time>2021-07-08T10:47:46Z</time>
      </trkpt>
      <trkpt lat="41.37685" lon="-7.55311">
        <ele>685.3254</ele>
        <time>2021-07-08T10:47:57Z</time>
      </trkpt>
      <trkpt lat="41.37764" lon="-7.55053">
        <ele>696.2611</ele>
        <time>2021-07-08T10:48:08Z</time>
      </trkpt>
      <trkpt lat="41.3779" lon="-7.54738">
        <ele>707.7413</ele>
        <time>2021-07-08T10:48:19Z</time>
      </trkpt>
      <trkpt lat="41.37643" lon="-7.54565">
        <ele>712.6158</ele>
        <time>2021-07-08T10:48:30Z</time>
      </trkpt>
      <trkpt lat="41.37476" lon="-7.54451">
        <ele>719.3637</ele>
        <time>2021-07-08T10:48:41Z</time>
      </trkpt>
      <trkpt lat="41.3739" lon="-7.54298">
        <ele>722.8326</ele>
        <time>2021-07-08T10:48:52Z</time>
      </trkpt>
      <trkpt lat="41.37285" lon="-7.54334">
        <ele>724.3122</ele>
        <time>2021-07-08T10:49:03Z</time>
      </trkpt>
      <trkpt lat="41.37239" lon="-7.54257">
        <ele>719.7464</ele>
        <time>2021-07-08T10:49:14Z</time>
      </trkpt>
      <trkpt lat="41.37045" lon="-7.54183">
        <ele>709.6268</ele>
        <time>2021-07-08T10:49:25Z</time>
      </trkpt>
      <trkpt lat="41.37008" lon="-7.53957">
        <ele>701.435</ele>
        <time>2021-07-08T10:49:36Z</time>
      </trkpt>
      <trkpt lat="41.3702" lon="-7.53706">
        <ele>695.1529</ele>
        <time>2021-07-08T10:49:47Z</time>
      </trkpt>
      <trkpt lat="41.37028" lon="-7.53423">
        <ele>689.2037</ele>
        <time>2021-07-08T10:49:58Z</time>
      </trkpt>
      <trkpt lat="41.37114" lon="-7.53202">
        <ele>691.6791</ele>
        <time>2021-07-08T10:50:09Z</time>
      </trkpt>
      <trkpt lat="41.37205" lon="-7.52944">
        <ele>690.8214</ele>
        <time>2021-07-08T10:50:20Z</time>
      </trkpt>
      <trkpt lat="41.3736" lon="-7.52687">
        <ele>698.9979</ele>
        <time>2021-07-08T10:50:31Z</time>
      </trkpt>
      <trkpt lat="41.37549" lon="-7.52489">
        <ele>708.3349</ele>
        <time>2021-07-08T10:50:42Z</time>
      </trkpt>
      <trkpt lat="41.37661" lon="-7.52279">
        <ele>718.0778</ele>
        <time>2021-07-08T10:50:53Z</time>
      </trkpt>
      <trkpt lat="41.37747" lon="-7.52012">
        <ele>732.9281</ele>
        <time>2021-07-08T10:51:04Z</time>
      </trkpt>
      <trkpt lat="41.37817" lon="-7.51753">
        <ele>743.0945</ele>
        <time>2021-07-08T10:51:15Z</time>
      </trkpt>
      <trkpt lat="41.37936" lon="-7.5156">
        <ele>755.2003</ele>
        <time>2021-07-08T10:51:26Z</time>
      </trkpt>
      <trkpt lat="41.38009" lon="-7.51368">
        <ele>763.8222</ele>
        <time>2021-07-08T10:51:37Z</time>
      </trkpt>
      <trkpt lat="41.38046" lon="-7.5117">
        <ele>771.8025</ele>
        <time>2021-07-08T10:51:48Z</time>
      </trkpt>
      <trkpt lat="41.3788" lon="-7.51034">
        <ele>780.1856</ele>
        <time>2021-07-08T10:51:59Z</time>
      </trkpt>
      <trkpt lat="41.37632" lon="-7.50932">
        <ele>773.2236</ele>
        <time>2021-07-08T10:52:10Z</time>
      </trkpt>
      <trkpt lat="41.37389" lon="-7.5082">
        <ele>762.5137</ele>
        <time>2021-07-08T10:52:21Z</time>
      </trkpt>
      <trkpt lat="41.37165" lon="-7.50626">
        <ele>750.9951</ele>
        <time>2021-07-08T10:52:32Z</time>
      </trkpt>
      <trkpt lat="41.3699" lon="-7.50365">
        <ele>739.259</ele>
        <time>2021-07-08T10:52:43Z</time>
      </trkpt>
      <trkpt lat="41.36821" lon="-7.50081">
        <ele>724.4292</ele>
        <time>2021-07-08T10:52:54Z</time>
      </trkpt>
      <trkpt lat="41.36647" lon="-7.49791">
        <ele>703.5017</ele>
        <time>2021-07-08T10:53:05Z</time>
      </trkpt>
      <trkpt lat="41.36458" lon="-7.49522">
        <ele>686.4614</ele>
        <time>2021-07-08T10:53:16Z</time>
      </trkpt>
      <trkpt lat="41.36208" lon="-7.49354">
        <ele>684.2071</ele>
        <time>2021-07-08T10:53:27Z</time>
      </trkpt>
      <trkpt lat="41.3593" lon="-7.49309">
        <ele>685.5274</ele>
        <time>2021-07-08T10:53:38Z</time>
      </trkpt>
      <trkpt lat="41.3567" lon="-7.49192">
        <ele>698.9748</ele>
        <time>2021-07-08T10:53:49Z</time>
      </trkpt>
      <trkpt lat="41.3547" lon="-7.48935">
        <ele>714.0075</ele>
        <time>2021-07-08T10:54:00Z</time>
      </trkpt>
      <trkpt lat="41.35373" lon="-7.48589">
        <ele>730.8287</ele>
        <time>2021-07-08T10:54:11Z</time>
      </trkpt>
      <trkpt lat="41.35394" lon="-7.48224">
        <ele>738.0634</ele>
        <time>2021-07-08T10:54:22Z</time>
      </trkpt>
      <trkpt lat="41.3542" lon="-7.47865">
        <ele>743.079</ele>
        <time>2021-07-08T10:54:33Z</time>
      </trkpt>
      <trkpt lat="41.35338" lon="-7.4753">
        <ele>762.9363</ele>
        <time>2021-07-08T10:54:44Z</time>
      </trkpt>
      <trkpt lat="41.35134" lon="-7.47249">
        <ele>774.8627</ele>
        <time>2021-07-08T10:54:55Z</time>
      </trkpt>
      <trkpt lat="41.34875" lon="-7.47124">
        <ele>776.3353</ele>
        <time>2021-07-08T10:55:06Z</time>
      </trkpt>
      <trkpt lat="41.34602" lon="-7.4709">
        <ele>771.2759</ele>
        <time>2021-07-08T10:55:17Z</time>
      </trkpt>
      <trkpt lat="41.3435" lon="-7.46929">
        <ele>756.8359</ele>
        <time>2021-07-08T10:55:28Z</time>
      </trkpt>
      <trkpt lat="41.34172" lon="-7.46636">
        <ele>743.7302</ele>
        <time>2021-07-08T10:55:39Z</time>
      </trkpt>
      <trkpt lat="41.34109" lon="-7.46261">
        <ele>731.1873</ele>
        <time>2021-07-08T10:55:50Z</time>
      </trkpt>
      <trkpt lat="41.34064" lon="-7.45893">
        <ele>719.9534</ele>
        <time>2021-07-08T10:56:01Z</time>
      </trkpt>
      <trkpt lat="41.33931" lon="-7.45569">
        <ele>717.6298</ele>
        <time>2021-07-08T10:56:12Z</time>
      </trkpt>
      <trkpt lat="41.33722" lon="-7.45316">
        <ele>720.5935</ele>
        <time>2021-07-08T10:56:23Z</time>
      </trkpt>
      <trkpt lat="41.33505" lon="-7.45062">
        <ele>714.9788</ele>
        <time>2021-07-08T10:56:34Z</time>
      </trkpt>
      <trkpt lat="41.33355" lon="-7.44734">
        <ele>710.1328</ele>
        <time>2021-07-08T10:56:45Z</time>
      </trkpt>
      <trkpt lat="41.33208" lon="-7.44405">
        <ele>695.3669</ele>
        <time>2021-07-08T10:56:56Z</time>
      </trkpt>
      <trkpt lat="41.33065" lon="-7.44074">
        <ele>691.192</ele>
        <time>2021-07-08T10:57:07Z</time>
      </trkpt>
      <trkpt lat="41.32954" lon="-7.43719">
        <ele>673.4824</ele>
        <time>2021-07-08T10:57:18Z</time>
      </trkpt>
      <trkpt lat="41.32971" lon="-7.43326">
        <ele>658.4878</ele>
        <time>2021-07-08T10:57:29Z</time>
      </trkpt>
      <trkpt lat="41.32992" lon="-7.42939">
        <ele>636.9026</ele>
        <time>2021-07-08T10:57:40Z</time>
      </trkpt>
      <trkpt lat="41.3296" lon="-7.42566">
        <ele>620.8745</ele>
        <time>2021-07-08T10:57:51Z</time>
      </trkpt>
      <trkpt lat="41.32813" lon="-7.42232">
        <ele>602.2959</ele>
        <time>2021-07-08T10:58:02Z</time>
      </trkpt>
      <trkpt lat="41.32665" lon="-7.41906">
        <ele>577.1175</ele>
        <time>2021-07-08T10:58:13Z</time>
      </trkpt>
      <trkpt lat="41.32517" lon="-7.41579">
        <ele>565.0443</ele>
        <time>2021-07-08T10:58:24Z</time>
      </trkpt>
      <trkpt lat="41.32479" lon="-7.412">
        <ele>550.7707</ele>
        <time>2021-07-08T10:58:35Z</time>
      </trkpt>
      <trkpt lat="41.32484" lon="-7.40812">
        <ele>517.0997</ele>
        <time>2021-07-08T10:58:46Z</time>
      </trkpt>
      <trkpt lat="41.32462" lon="-7.40434">
        <ele>497.9568</ele>
        <time>2021-07-08T10:58:57Z</time>
      </trkpt>
      <trkpt lat="41.32416" lon="-7.40069">
        <ele>479.0351</ele>
        <time>2021-07-08T10:59:08Z</time>
      </trkpt>
      <trkpt lat="41.32526" lon="-7.39727">
        <ele>460.1717</ele>
        <time>2021-07-08T10:59:19Z</time>
      </trkpt>
      <trkpt lat="41.32486" lon="-7.39357">
        <ele>453.0171</ele>
        <time>2021-07-08T10:59:30Z</time>
      </trkpt>
      <trkpt lat="41.32342" lon="-7.39064">
        <ele>418.2884</ele>
        <time>2021-07-08T10:59:41Z</time>
      </trkpt>
      <trkpt lat="41.32352" lon="-7.38699">
        <ele>399.5158</ele>
        <time>2021-07-08T10:59:52Z</time>
      </trkpt>
      <trkpt lat="41.32219" lon="-7.38364">
        <ele>382.1781</ele>
        <time>2021-07-08T11:00:03Z</time>
      </trkpt>
      <trkpt lat="41.3201" lon="-7.3812">
        <ele>358.5898</ele>
        <time>2021-07-08T11:00:14Z</time>
      </trkpt>
      <trkpt lat="41.31905" lon="-7.37769">
        <ele>346.9158</ele>
        <time>2021-07-08T11:00:25Z</time>
      </trkpt>
      <trkpt lat="41.31993" lon="-7.37438">
        <ele>317.4265</ele>
        <time>2021-07-08T11:00:36Z</time>
      </trkpt>
      <trkpt lat="41.32217" lon="-7.37223">
        <ele>296.9404</ele>
        <time>2021-07-08T11:00:47Z</time>
      </trkpt>
      <trkpt lat="41.3233" lon="-7.36893">
        <ele>284.1252</ele>
        <time>2021-07-08T11:00:58Z</time>
      </trkpt>
      <trkpt lat="41.32215" lon="-7.36575">
        <ele>286.0599</ele>
        <time>2021-07-08T11:01:09Z</time>
      </trkpt>
      <trkpt lat="41.32062" lon="-7.36271">
        <ele>304.4205</ele>
        <time>2021-07-08T11:01:20Z</time>
      </trkpt>
      <trkpt lat="41.31896" lon="-7.35988">
        <ele>326.346</ele>
        <time>2021-07-08T11:01:31Z</time>
      </trkpt>
      <trkpt lat="41.31711" lon="-7.35703">
        <ele>352.5025</ele>
        <time>2021-07-08T11:01:42Z</time>
      </trkpt>
      <trkpt lat="41.31645" lon="-7.35329">
        <ele>376.3733</ele>
        <time>2021-07-08T11:01:53Z</time>
      </trkpt>
      <trkpt lat="41.31509" lon="-7.34997">
        <ele>394.7852</ele>
        <time>2021-07-08T11:02:04Z</time>
      </trkpt>
      <trkpt lat="41.31254" lon="-7.34799">
        <ele>416.2587</ele>
        <time>2021-07-08T11:02:15Z</time>
      </trkpt>
      <trkpt lat="41.30979" lon="-7.34636">
        <ele>444.0454</ele>
        <time>2021-07-08T11:02:26Z</time>
      </trkpt>
      <trkpt lat="41.30717" lon="-7.34482">
        <ele>462.556</ele>
        <time>2021-07-08T11:02:37Z</time>
      </trkpt>
      <trkpt lat="41.30452" lon="-7.34315">
        <ele>478.7649</ele>
        <time>2021-07-08T11:02:48Z</time>
      </trkpt>
      <trkpt lat="41.30241" lon="-7.34044">
        <ele>492.0975</ele>
        <time>2021-07-08T11:02:59Z</time>
      </trkpt>
      <trkpt lat="41.30049" lon="-7.33756">
        <ele>493.8765</ele>
        <time>2021-07-08T11:03:10Z</time>
      </trkpt>
      <trkpt lat="41.29826" lon="-7.33507">
        <ele>492.455</ele>
        <time>2021-07-08T11:03:21Z</time>
      </trkpt>
      <trkpt lat="41.29544" lon="-7.33396">
        <ele>502.903</ele>
        <time>2021-07-08T11:03:32Z</time>
      </trkpt>
      <trkpt lat="41.2925" lon="-7.33439">
        <ele>523.2073</ele>
        <time>2021-07-08T11:03:43Z</time>
      </trkpt>
      <trkpt lat="41.28953" lon="-7.33458">
        <ele>546.2758</ele>
        <time>2021-07-08T11:03:54Z</time>
      </trkpt>
      <trkpt lat="41.28664" lon="-7.33506">
        <ele>565.6188</ele>
        <time>2021-07-08T11:04:05Z</time>
      </trkpt>
      <trkpt lat="41.28375" lon="-7.3362">
        <ele>581.67</ele>
        <time>2021-07-08T11:04:16Z</time>
      </trkpt>
      <trkpt lat="41.28074" lon="-7.33615">
        <ele>604.5736</ele>
        <time>2021-07-08T11:04:27Z</time>
      </trkpt>
      <trkpt lat="41.27807" lon="-7.33453">
        <ele>624.4729</ele>
        <time>2021-07-08T11:04:38Z</time>
      </trkpt>
      <trkpt lat="41.27607" lon="-7.33166">
        <ele>637.6711</ele>
        <time>2021-07-08T11:04:49Z</time>
      </trkpt>
      <trkpt lat="41.27431" lon="-7.3284">
        <ele>642.848</ele>
        <time>2021-07-08T11:05:00Z</time>
      </trkpt>
      <trkpt lat="41.27254" lon="-7.32515">
        <ele>642.1668</ele>
        <time>2021-07-08T11:05:11Z</time>
      </trkpt>
      <trkpt lat="41.27077" lon="-7.3219">
        <ele>642.5876</ele>
        <time>2021-07-08T11:05:22Z</time>
      </trkpt>
      <trkpt lat="41.26914" lon="-7.31849">
        <ele>655.523</ele>
        <time>2021-07-08T11:05:33Z</time>
      </trkpt>
      <trkpt lat="41.2686" lon="-7.31457">
        <ele>671.9071</ele>
        <time>2021-07-08T11:05:44Z</time>
      </trkpt>
      <trkpt lat="41.26925" lon="-7.31076">
        <ele>687.8933</ele>
        <time>2021-07-08T11:05:55Z</time>
      </trkpt>
      <trkpt lat="41.27093" lon="-7.30751">
        <ele>714.9679</ele>
        <time>2021-07-08T11:06:06Z</time>
      </trkpt>
      <trkpt lat="41.27227" lon="-7.30404">
        <ele>735.334</ele>
        <time>2021-07-08T11:06:17Z</time>
      </trkpt>
      <trkpt lat="41.27232" lon="-7.30018">
        <ele>750.5525</ele>
        <time>2021-07-08T11:06:28Z</time>
      </trkpt>
      <trkpt lat="41.27103" lon="-7.29677">
        <ele>775.4238</ele>
        <time>2021-07-08T11:06:39Z</time>
      </trkpt>
      <trkpt lat="41.26878" lon="-7.29433">
        <ele>778.1742</ele>
        <time>2021-07-08T11:06:50Z</time>
      </trkpt>
      <trkpt lat="41.26623" lon="-7.29227">
        <ele>781.195</ele>
        <time>2021-07-08T11:07:01Z</time>
      </trkpt>
      <trkpt lat="41.26362" lon="-7.29016">
        <ele>768.7886</ele>
        <time>2021-07-08T11:07:12Z</time>
      </trkpt>
      <trkpt lat="41.2611" lon="-7.28796">
        <ele>757.1818</ele>
        <time>2021-07-08T11:07:23Z</time>
      </trkpt>
      <trkpt lat="41.25906" lon="-7.28498">
        <ele>746.5696</ele>
        <time>2021-07-08T11:07:34Z</time>
      </trkpt>
      <trkpt lat="41.25781" lon="-7.28139">
        <ele>736.7759</ele>
        <time>2021-07-08T11:07:45Z</time>
      </trkpt>
      <trkpt lat="41.2572" lon="-7.27741">
        <ele>740.9265</ele>
        <time>2021-07-08T11:07:56Z</time>
      </trkpt>
      <trkpt lat="41.25663" lon="-7.27346">
        <ele>751.6095</ele>
        <time>2021-07-08T11:08:07Z</time>
      </trkpt>
      <trkpt lat="41.25608" lon="-7.2695">
        <ele>763.526</ele>
        <time>2021-07-08T11:08:18Z</time>
      </trkpt>
      <trkpt lat="41.25568" lon="-7.26545">
        <ele>771.2017</ele>
        <time>2021-07-08T11:08:29Z</time>
      </trkpt>
      <trkpt lat="41.2561" lon="-7.26135">
        <ele>782.7234</ele>
        <time>2021-07-08T11:08:40Z</time>
      </trkpt>
      <trkpt lat="41.25689" lon="-7.25722">
        <ele>793.8431</ele>
        <time>2021-07-08T11:08:51Z</time>
      </trkpt>
      <trkpt lat="41.25765" lon="-7.25317">
        <ele>803.5272</ele>
        <time>2021-07-08T11:09:02Z</time>
      </trkpt>
      <trkpt lat="41.2584" lon="-7.24915">
        <ele>810.434</ele>
        <time>2021-07-08T11:09:13Z</time>
      </trkpt>
      <trkpt lat="41.25913" lon="-7.24521">
        <ele>807.0269</ele>
        <time>2021-07-08T11:09:24Z</time>
      </trkpt>
      <trkpt lat="41.2602" lon="-7.24148">
        <ele>791.8824</ele>
        <time>2021-07-08T11:09:35Z</time>
      </trkpt>
      <trkpt lat="41.26193" lon="-7.23815">
        <ele>779.5278</ele>
        <time>2021-07-08T11:09:46Z</time>
      </trkpt>
      <trkpt lat="41.26382" lon="-7.23484">
        <ele>766.7381</ele>
        <time>2021-07-08T11:09:57Z</time>
      </trkpt>
      <trkpt lat="41.26552" lon="-7.2319">
        <ele>750.976</ele>
        <time>2021-07-08T11:10:08Z</time>
      </trkpt>
      <trkpt lat="41.26705" lon="-7.22842">
        <ele>733.6693</ele>
        <time>2021-07-08T11:10:19Z</time>
      </trkpt>
      <trkpt lat="41.26756" lon="-7.22439">
        <ele>715.049</ele>
        <time>2021-07-08T11:10:30Z</time>
      </trkpt>
      <trkpt lat="41.26763" lon="-7.22027">
        <ele>699.3241</ele>
        <time>2021-07-08T11:10:41Z</time>
      </trkpt>
      <trkpt lat="41.2677" lon="-7.21578">
        <ele>699.2698</ele>
        <time>2021-07-08T11:10:52Z</time>
      </trkpt>
      <trkpt lat="41.26813" lon="-7.21168">
        <ele>698.8994</ele>
        <time>2021-07-08T11:11:03Z</time>
      </trkpt>
      <trkpt lat="41.2696" lon="-7.20806">
        <ele>691.81</ele>
        <time>2021-07-08T11:11:14Z</time>
      </trkpt>
      <trkpt lat="41.27117" lon="-7.20455">
        <ele>674.8346</ele>
        <time>2021-07-08T11:11:25Z</time>
      </trkpt>
      <trkpt lat="41.27273" lon="-7.20111">
        <ele>667.3743</ele>
        <time>2021-07-08T11:11:36Z</time>
      </trkpt>
      <trkpt lat="41.27476" lon="-7.19822">
        <ele>676.5397</ele>
        <time>2021-07-08T11:11:47Z</time>
      </trkpt>
      <trkpt lat="41.2776" lon="-7.19678">
        <ele>690.1169</ele>
        <time>2021-07-08T11:11:58Z</time>
      </trkpt>
      <trkpt lat="41.28052" lon="-7.19567">
        <ele>697.0201</ele>
        <time>2021-07-08T11:12:09Z</time>
      </trkpt>
      <trkpt lat="41.28329" lon="-7.19396">
        <ele>679.0612</ele>
        <time>2021-07-08T11:12:20Z</time>
      </trkpt>
      <trkpt lat="41.28632" lon="-7.19283">
        <ele>660.8683</ele>
        <time>2021-07-08T11:12:31Z</time>
      </trkpt>
      <trkpt lat="41.28936" lon="-7.19187">
        <ele>645.8689</ele>
        <time>2021-07-08T11:12:42Z</time>
      </trkpt>
      <trkpt lat="41.29227" lon="-7.19043">
        <ele>641.6506</ele>
        <time>2021-07-08T11:12:53Z</time>
      </trkpt>
      <trkpt lat="41.29517" lon="-7.1889">
        <ele>650.8153</ele>
        <time>2021-07-08T11:13:04Z</time>
      </trkpt>
      <trkpt lat="41.29797" lon="-7.18738">
        <ele>651.0288</ele>
        <time>2021-07-08T11:13:15Z</time>
      </trkpt>
      <trkpt lat="41.30024" lon="-7.18483">
        <ele>633.1913</ele>
        <time>2021-07-08T11:13:26Z</time>
      </trkpt>
      <trkpt lat="41.30136" lon="-7.18115">
        <ele>628.3417</ele>
        <time>2021-07-08T11:13:37Z</time>
      </trkpt>
      <trkpt lat="41.30121" lon="-7.1775">
        <ele>622.4437</ele>
        <time>2021-07-08T11:13:48Z</time>
      </trkpt>
      <trkpt lat="41.30069" lon="-7.17345">
        <ele>614.3188</ele>
        <time>2021-07-08T11:13:59Z</time>
      </trkpt>
      <trkpt lat="41.30015" lon="-7.16946">
        <ele>599.4413</ele>
        <time>2021-07-08T11:14:10Z</time>
      </trkpt>
      <trkpt lat="41.29968" lon="-7.16545">
        <ele>588.0708</ele>
        <time>2021-07-08T11:14:21Z</time>
      </trkpt>
      <trkpt lat="41.30011" lon="-7.16153">
        <ele>575.5201</ele>
        <time>2021-07-08T11:14:32Z</time>
      </trkpt>
      <trkpt lat="41.3009" lon="-7.15775">
        <ele>560.896</ele>
        <time>2021-07-08T11:14:43Z</time>
      </trkpt>
      <trkpt lat="41.30096" lon="-7.15376">
        <ele>544.9598</ele>
        <time>2021-07-08T11:14:54Z</time>
      </trkpt>
      <trkpt lat="41.30093" lon="-7.14973">
        <ele>532.3099</ele>
        <time>2021-07-08T11:15:05Z</time>
      </trkpt>
      <trkpt lat="41.30091" lon="-7.14571">
        <ele>518.214</ele>
        <time>2021-07-08T11:15:16Z</time>
      </trkpt>
      <trkpt lat="41.30118" lon="-7.14172">
        <ele>505.7188</ele>
        <time>2021-07-08T11:15:27Z</time>
      </trkpt>
      <trkpt lat="41.30244" lon="-7.13822">
        <ele>498.7176</ele>
        <time>2021-07-08T11:15:38Z</time>
      </trkpt>
      <trkpt lat="41.3039" lon="-7.13485">
        <ele>502.2531</ele>
        <time>2021-07-08T11:15:49Z</time>
      </trkpt>
      <trkpt lat="41.3054" lon="-7.1315">
        <ele>489.5618</ele>
        <time>2021-07-08T11:16:00Z</time>
      </trkpt>
      <trkpt lat="41.30718" lon="-7.12825">
        <ele>465.5486</ele>
        <time>2021-07-08T11:16:11Z</time>
      </trkpt>
      <trkpt lat="41.30947" lon="-7.12565">
        <ele>444.1847</ele>
        <time>2021-07-08T11:16:22Z</time>
      </trkpt>
      <trkpt lat="41.31223" lon="-7.12436">
        <ele>433.6449</ele>
        <time>2021-07-08T11:16:33Z</time>
      </trkpt>
      <trkpt lat="41.31521" lon="-7.12386">
        <ele>420.9663</ele>
        <time>2021-07-08T11:16:44Z</time>
      </trkpt>
      <trkpt lat="41.31715" lon="-7.12095">
        <ele>389.8774</ele>
        <time>2021-07-08T11:16:55Z</time>
      </trkpt>
      <trkpt lat="41.31773" lon="-7.11698">
        <ele>362.4556</ele>
        <time>2021-07-08T11:17:06Z</time>
      </trkpt>
      <trkpt lat="41.31963" lon="-7.11356">
        <ele>351.5725</ele>
        <time>2021-07-08T11:17:17Z</time>
      </trkpt>
      <trkpt lat="41.32252" lon="-7.11252">
        <ele>334.9138</ele>
        <time>2021-07-08T11:17:28Z</time>
      </trkpt>
      <trkpt lat="41.32516" lon="-7.11085">
        <ele>324.1785</ele>
        <time>2021-07-08T11:17:39Z</time>
      </trkpt>
      <trkpt lat="41.32615" lon="-7.10731">
        <ele>315.3873</ele>
        <time>2021-07-08T11:17:50Z</time>
      </trkpt>
      <trkpt lat="41.32495" lon="-7.10366">
        <ele>307.8417</ele>
        <time>2021-07-08T11:18:01Z</time>
      </trkpt>
      <trkpt lat="41.32317" lon="-7.1004">
        <ele>294.578</ele>
        <time>2021-07-08T11:18:12Z</time>
      </trkpt>
      <trkpt lat="41.32256" lon="-7.09646">
        <ele>272.0401</ele>
        <time>2021-07-08T11:18:23Z</time>
      </trkpt>
      <trkpt lat="41.32209" lon="-7.09255">
        <ele>264.5746</ele>
        <time>2021-07-08T11:18:34Z</time>
      </trkpt>
      <trkpt lat="41.32172" lon="-7.08863">
        <ele>252.4703</ele>
        <time>2021-07-08T11:18:45Z</time>
      </trkpt>
      <trkpt lat="41.32237" lon="-7.0849">
        <ele>244.304</ele>
        <time>2021-07-08T11:18:56Z</time>
      </trkpt>
      <trkpt lat="41.32355" lon="-7.08235">
        <ele>241.779</ele>
        <time>2021-07-08T11:19:07Z</time>
      </trkpt>
      <trkpt lat="41.32325" lon="-7.0798">
        <ele>229.5206</ele>
        <time>2021-07-08T11:19:18Z</time>
      </trkpt>
      <trkpt lat="41.32085" lon="-7.07839">
        <ele>211.2906</ele>
        <time>2021-07-08T11:19:29Z</time>
      </trkpt>
      <trkpt lat="41.31783" lon="-7.07829">
        <ele>198.9158</ele>
        <time>2021-07-08T11:19:40Z</time>
      </trkpt>
      <trkpt lat="41.31507" lon="-7.07967">
        <ele>192.8916</ele>
        <time>2021-07-08T11:19:51Z</time>
      </trkpt>
      <trkpt lat="41.31232" lon="-7.08085">
        <ele>190.3183</ele>
        <time>2021-07-08T11:20:02Z</time>
      </trkpt>
      <trkpt lat="41.30944" lon="-7.08037">
        <ele>188.458</ele>
        <time>2021-07-08T11:20:13Z</time>
      </trkpt>
      <trkpt lat="41.30709" lon="-7.07811">
        <ele>191.2778</ele>
        <time>2021-07-08T11:20:24Z</time>
      </trkpt>
      <trkpt lat="41.30513" lon="-7.0756">
        <ele>186.153</ele>
        <time>2021-07-08T11:20:35Z</time>
      </trkpt>
      <trkpt lat="41.30251" lon="-7.07372">
        <ele>177.3141</ele>
        <time>2021-07-08T11:20:46Z</time>
      </trkpt>
      <trkpt lat="41.30006" lon="-7.07362">
        <ele>175.9611</ele>
        <time>2021-07-08T11:20:57Z</time>
      </trkpt>
      <trkpt lat="41.29868" lon="-7.07406">
        <ele>174.6821</ele>
        <time>2021-07-08T11:21:08Z</time>
      </trkpt>
      <trkpt lat="41.2985" lon="-7.0708">
        <ele>187.2199</ele>
        <time>2021-07-08T11:21:19Z</time>
      </trkpt>
      <trkpt lat="41.3" lon="-7.06774">
        <ele>207.7246</ele>
        <time>2021-07-08T11:21:30Z</time>
      </trkpt>
      <trkpt lat="41.3023" lon="-7.06574">
        <ele>215.1826</ele>
        <time>2021-07-08T11:21:41Z</time>
      </trkpt>
      <trkpt lat="41.30505" lon="-7.06459">
        <ele>234.2527</ele>
        <time>2021-07-08T11:21:52Z</time>
      </trkpt>
      <trkpt lat="41.30745" lon="-7.06292">
        <ele>230.566</ele>
        <time>2021-07-08T11:22:03Z</time>
      </trkpt>
      <trkpt lat="41.30854" lon="-7.06017">
        <ele>241.6621</ele>
        <time>2021-07-08T11:22:14Z</time>
      </trkpt>
      <trkpt lat="41.30836" lon="-7.05666">
        <ele>243.8483</ele>
        <time>2021-07-08T11:22:25Z</time>
      </trkpt>
      <trkpt lat="41.30785" lon="-7.05277">
        <ele>247.4808</ele>
        <time>2021-07-08T11:22:36Z</time>
      </trkpt>
      <trkpt lat="41.30746" lon="-7.04902">
        <ele>252.6052</ele>
        <time>2021-07-08T11:22:47Z</time>
      </trkpt>
      <trkpt lat="41.30782" lon="-7.04522">
        <ele>269.8994</ele>
        <time>2021-07-08T11:22:58Z</time>
      </trkpt>
      <trkpt lat="41.30907" lon="-7.04174">
        <ele>281.1788</ele>
        <time>2021-07-08T11:23:09Z</time>
      </trkpt>
      <trkpt lat="41.31105" lon="-7.03897">
        <ele>303.5554</ele>
        <time>2021-07-08T11:23:20Z</time>
      </trkpt>
      <trkpt lat="41.3135" lon="-7.03633">
        <ele>314.7618</ele>
        <time>2021-07-08T11:23:31Z</time>
      </trkpt>
      <trkpt lat="41.31566" lon="-7.03384">
        <ele>328.0718</ele>
        <time>2021-07-08T11:23:42Z</time>
      </trkpt>
      <trkpt lat="41.31703" lon="-7.03047">
        <ele>341.3328</ele>
        <time>2021-07-08T11:23:53Z</time>
      </trkpt>
      <trkpt lat="41.31753" lon="-7.02669">
        <ele>360.8269</ele>
        <time>2021-07-08T11:24:04Z</time>
      </trkpt>
      <trkpt lat="41.31775" lon="-7.02291">
        <ele>377.0071</ele>
        <time>2021-07-08T11:24:15Z</time>
      </trkpt>
      <trkpt lat="41.317" lon="-7.0192">
        <ele>390.3454</ele>
        <time>2021-07-08T11:24:26Z</time>
      </trkpt>
      <trkpt lat="41.31739" lon="-7.0154">
        <ele>395.6097</ele>
        <time>2021-07-08T11:24:37Z</time>
      </trkpt>
      <trkpt lat="41.31888" lon="-7.01203">
        <ele>409.3109</ele>
        <time>2021-07-08T11:24:48Z</time>
      </trkpt>
      <trkpt lat="41.31924" lon="-7.00845">
        <ele>424.221</ele>
        <time>2021-07-08T11:24:59Z</time>
      </trkpt>
      <trkpt lat="41.31849" lon="-7.00483">
        <ele>437.1769</ele>
        <time>2021-07-08T11:25:10Z</time>
      </trkpt>
      <trkpt lat="41.31764" lon="-7.00117">
        <ele>451.1616</ele>
        <time>2021-07-08T11:25:21Z</time>
      </trkpt>
      <trkpt lat="41.31772" lon="-6.9973">
        <ele>466.3162</ele>
        <time>2021-07-08T11:25:32Z</time>
      </trkpt>
      <trkpt lat="41.31817" lon="-6.99346">
        <ele>485.7089</ele>
        <time>2021-07-08T11:25:43Z</time>
      </trkpt>
      <trkpt lat="41.31893" lon="-6.98979">
        <ele>488.1358</ele>
        <time>2021-07-08T11:25:54Z</time>
      </trkpt>
      <trkpt lat="41.32078" lon="-6.98682">
        <ele>501.5785</ele>
        <time>2021-07-08T11:26:05Z</time>
      </trkpt>
      <trkpt lat="41.32267" lon="-6.98387">
        <ele>508.3114</ele>
        <time>2021-07-08T11:26:16Z</time>
      </trkpt>
      <trkpt lat="41.32364" lon="-6.98016">
        <ele>515.0966</ele>
        <time>2021-07-08T11:26:27Z</time>
      </trkpt>
      <trkpt lat="41.32449" lon="-6.97638">
        <ele>514.6245</ele>
        <time>2021-07-08T11:26:38Z</time>
      </trkpt>
      <trkpt lat="41.32595" lon="-6.97291">
        <ele>513.3162</ele>
        <time>2021-07-08T11:26:49Z</time>
      </trkpt>
      <trkpt lat="41.32775" lon="-6.96973">
        <ele>512.3554</ele>
        <time>2021-07-08T11:27:00Z</time>
      </trkpt>
      <trkpt lat="41.32926" lon="-6.96629">
        <ele>504.7729</ele>
        <time>2021-07-08T11:27:11Z</time>
      </trkpt>
      <trkpt lat="41.33012" lon="-6.96244">
        <ele>499.5264</ele>
        <time>2021-07-08T11:27:22Z</time>
      </trkpt>
      <trkpt lat="41.33039" lon="-6.9585">
        <ele>497.0306</ele>
        <time>2021-07-08T11:27:33Z</time>
      </trkpt>
      <trkpt lat="41.32969" lon="-6.95467">
        <ele>491.3454</ele>
        <time>2021-07-08T11:27:44Z</time>
      </trkpt>
      <trkpt lat="41.32891" lon="-6.95105">
        <ele>483.7355</ele>
        <time>2021-07-08T11:27:55Z</time>
      </trkpt>
      <trkpt lat="41.32735" lon="-6.94791">
        <ele>475.9483</ele>
        <time>2021-07-08T11:28:06Z</time>
      </trkpt>
      <trkpt lat="41.32594" lon="-6.94454">
        <ele>477.2117</ele>
        <time>2021-07-08T11:28:17Z</time>
      </trkpt>
      <trkpt lat="41.32526" lon="-6.94068">
        <ele>453.6051</ele>
        <time>2021-07-08T11:28:28Z</time>
      </trkpt>
      <trkpt lat="41.32458" lon="-6.93687">
        <ele>437.8383</ele>
        <time>2021-07-08T11:28:39Z</time>
      </trkpt>
      <trkpt lat="41.3232" lon="-6.93341">
        <ele>419.6454</ele>
        <time>2021-07-08T11:28:50Z</time>
      </trkpt>
      <trkpt lat="41.32109" lon="-6.93133">
        <ele>402.3972</ele>
        <time>2021-07-08T11:29:01Z</time>
      </trkpt>
      <trkpt lat="41.31843" lon="-6.9297">
        <ele>389.4994</ele>
        <time>2021-07-08T11:29:12Z</time>
      </trkpt>
      <trkpt lat="41.31563" lon="-6.92841">
        <ele>365.092</ele>
        <time>2021-07-08T11:29:23Z</time>
      </trkpt>
      <trkpt lat="41.31267" lon="-6.9275">
        <ele>340.9612</ele>
        <time>2021-07-08T11:29:34Z</time>
      </trkpt>
      <trkpt lat="41.31001" lon="-6.92568">
        <ele>318.3485</ele>
        <time>2021-07-08T11:29:45Z</time>
      </trkpt>
      <trkpt lat="41.30815" lon="-6.9226">
        <ele>302.1698</ele>
        <time>2021-07-08T11:29:56Z</time>
      </trkpt>
      <trkpt lat="41.30739" lon="-6.91876">
        <ele>295.527</ele>
        <time>2021-07-08T11:30:07Z</time>
      </trkpt>
      <trkpt lat="41.30774" lon="-6.91488">
        <ele>306.0568</ele>
        <time>2021-07-08T11:30:18Z</time>
      </trkpt>
      <trkpt lat="41.30827" lon="-6.91096">
        <ele>323.1922</ele>
        <time>2021-07-08T11:30:29Z</time>
      </trkpt>
      <trkpt lat="41.30711" lon="-6.90743">
        <ele>333.6817</ele>
        <time>2021-07-08T11:30:40Z</time>
      </trkpt>
      <trkpt lat="41.30486" lon="-6.90487">
        <ele>346.0842</ele>
        <time>2021-07-08T11:30:51Z</time>
      </trkpt>
      <trkpt lat="41.30344" lon="-6.90145">
        <ele>358.0159</ele>
        <time>2021-07-08T11:31:02Z</time>
      </trkpt>
      <trkpt lat="41.3009" lon="-6.89976">
        <ele>374.5632</ele>
        <time>2021-07-08T11:31:13Z</time>
      </trkpt>
      <trkpt lat="41.29795" lon="-6.89962">
        <ele>391.7782</ele>
        <time>2021-07-08T11:31:24Z</time>
      </trkpt>
      <trkpt lat="41.29571" lon="-6.89714">
        <ele>405.2332</ele>
        <time>2021-07-08T11:31:35Z</time>
      </trkpt>
      <trkpt lat="41.29291" lon="-6.89589">
        <ele>413.9741</ele>
        <time>2021-07-08T11:31:46Z</time>
      </trkpt>
      <trkpt lat="41.28995" lon="-6.8958">
        <ele>425.502</ele>
        <time>2021-07-08T11:31:57Z</time>
      </trkpt>
      <trkpt lat="41.2872" lon="-6.89437">
        <ele>435.7708</ele>
        <time>2021-07-08T11:32:08Z</time>
      </trkpt>
      <trkpt lat="41.28432" lon="-6.89365">
        <ele>435.7108</ele>
        <time>2021-07-08T11:32:19Z</time>
      </trkpt>
      <trkpt lat="41.28131" lon="-6.8939">
        <ele>422.5227</ele>
        <time>2021-07-08T11:32:30Z</time>
      </trkpt>
      <trkpt lat="41.27828" lon="-6.89416">
        <ele>400.4963</ele>
        <time>2021-07-08T11:32:41Z</time>
      </trkpt>
      <trkpt lat="41.27633" lon="-6.89214">
        <ele>380.0622</ele>
        <time>2021-07-08T11:32:52Z</time>
      </trkpt>
      <trkpt lat="41.27806" lon="-6.88944">
        <ele>359.04</ele>
        <time>2021-07-08T11:33:03Z</time>
      </trkpt>
      <trkpt lat="41.27965" lon="-6.88677">
        <ele>335.7312</ele>
        <time>2021-07-08T11:33:14Z</time>
      </trkpt>
      <trkpt lat="41.2795" lon="-6.88341">
        <ele>317.6375</ele>
        <time>2021-07-08T11:33:25Z</time>
      </trkpt>
      <trkpt lat="41.2816" lon="-6.88116">
        <ele>303.5139</ele>
        <time>2021-07-08T11:33:36Z</time>
      </trkpt>
      <trkpt lat="41.28358" lon="-6.87855">
        <ele>290.0931</ele>
        <time>2021-07-08T11:33:47Z</time>
      </trkpt>
      <trkpt lat="41.28587" lon="-6.87717">
        <ele>279.7092</ele>
        <time>2021-07-08T11:33:58Z</time>
      </trkpt>
      <trkpt lat="41.28722" lon="-6.87451">
        <ele>263.9922</ele>
        <time>2021-07-08T11:34:09Z</time>
      </trkpt>
      <trkpt lat="41.28602" lon="-6.8715">
        <ele>264.9504</ele>
        <time>2021-07-08T11:34:20Z</time>
      </trkpt>
      <trkpt lat="41.28346" lon="-6.87081">
        <ele>282.3141</ele>
        <time>2021-07-08T11:34:31Z</time>
      </trkpt>
      <trkpt lat="41.28093" lon="-6.87038">
        <ele>304.5903</ele>
        <time>2021-07-08T11:34:42Z</time>
      </trkpt>
      <trkpt lat="41.27878" lon="-6.87177">
        <ele>322.0817</ele>
        <time>2021-07-08T11:34:53Z</time>
      </trkpt>
      <trkpt lat="41.27693" lon="-6.87389">
        <ele>340.8887</ele>
        <time>2021-07-08T11:35:04Z</time>
      </trkpt>
      <trkpt lat="41.2755" lon="-6.87134">
        <ele>358.1273</ele>
        <time>2021-07-08T11:35:15Z</time>
      </trkpt>
      <trkpt lat="41.27399" lon="-6.86915">
        <ele>374.8207</ele>
        <time>2021-07-08T11:35:26Z</time>
      </trkpt>
      <trkpt lat="41.27229" lon="-6.86703">
        <ele>390.1338</ele>
        <time>2021-07-08T11:35:37Z</time>
      </trkpt>
      <trkpt lat="41.27123" lon="-6.86408">
        <ele>408.9451</ele>
        <time>2021-07-08T11:35:48Z</time>
      </trkpt>
      <trkpt lat="41.27096" lon="-6.86049">
        <ele>429.9542</ele>
        <time>2021-07-08T11:35:59Z</time>
      </trkpt>
      <trkpt lat="41.27076" lon="-6.85685">
        <ele>451.0536</ele>
        <time>2021-07-08T11:36:10Z</time>
      </trkpt>
      <trkpt lat="41.2701" lon="-6.85327">
        <ele>476.4828</ele>
        <time>2021-07-08T11:36:21Z</time>
      </trkpt>
      <trkpt lat="41.26833" lon="-6.85027">
        <ele>498.4642</ele>
        <time>2021-07-08T11:36:32Z</time>
      </trkpt>
      <trkpt lat="41.26664" lon="-6.84712">
        <ele>513.6257</ele>
        <time>2021-07-08T11:36:43Z</time>
      </trkpt>
      <trkpt lat="41.26602" lon="-6.84326">
        <ele>520.5326</ele>
        <time>2021-07-08T11:36:54Z</time>
      </trkpt>
      <trkpt lat="41.26549" lon="-6.83912">
        <ele>528.1829</ele>
        <time>2021-07-08T11:37:05Z</time>
      </trkpt>
      <trkpt lat="41.26503" lon="-6.83521">
        <ele>527.6188</ele>
        <time>2021-07-08T11:37:16Z</time>
      </trkpt>
      <trkpt lat="41.26394" lon="-6.83155">
        <ele>524.4271</ele>
        <time>2021-07-08T11:37:27Z</time>
      </trkpt>
      <trkpt lat="41.26189" lon="-6.82866">
        <ele>519.9378</ele>
        <time>2021-07-08T11:37:38Z</time>
      </trkpt>
      <trkpt lat="41.25928" lon="-6.82687">
        <ele>516.2312</ele>
        <time>2021-07-08T11:37:49Z</time>
      </trkpt>
      <trkpt lat="41.25679" lon="-6.82502">
        <ele>511.1629</ele>
        <time>2021-07-08T11:38:00Z</time>
      </trkpt>
      <trkpt lat="41.25525" lon="-6.82184">
        <ele>514.3631</ele>
        <time>2021-07-08T11:38:11Z</time>
      </trkpt>
      <trkpt lat="41.25502" lon="-6.81809">
        <ele>518.7553</ele>
        <time>2021-07-08T11:38:22Z</time>
      </trkpt>
      <trkpt lat="41.25558" lon="-6.8143">
        <ele>524.8772</ele>
        <time>2021-07-08T11:38:33Z</time>
      </trkpt>
      <trkpt lat="41.25617" lon="-6.81051">
        <ele>532.8494</ele>
        <time>2021-07-08T11:38:44Z</time>
      </trkpt>
      <trkpt lat="41.25698" lon="-6.80682">
        <ele>542.7149</ele>
        <time>2021-07-08T11:38:55Z</time>
      </trkpt>
      <trkpt lat="41.25788" lon="-6.80328">
        <ele>553.7017</ele>
        <time>2021-07-08T11:39:06Z</time>
      </trkpt>
      <trkpt lat="41.25839" lon="-6.79958">
        <ele>562.7683</ele>
        <time>2021-07-08T11:39:17Z</time>
      </trkpt>
      <trkpt lat="41.25883" lon="-6.7958">
        <ele>572.4767</ele>
        <time>2021-07-08T11:39:28Z</time>
      </trkpt>
      <trkpt lat="41.2593" lon="-6.79194">
        <ele>581.9045</ele>
        <time>2021-07-08T11:39:39Z</time>
      </trkpt>
      <trkpt lat="41.26005" lon="-6.78816">
        <ele>585.0734</ele>
        <time>2021-07-08T11:39:50Z</time>
      </trkpt>
      <trkpt lat="41.26168" lon="-6.78485">
        <ele>582.392</ele>
        <time>2021-07-08T11:40:01Z</time>
      </trkpt>
      <trkpt lat="41.26354" lon="-6.78176">
        <ele>580.6413</ele>
        <time>2021-07-08T11:40:12Z</time>
      </trkpt>
      <trkpt lat="41.26463" lon="-6.77809">
        <ele>577.6934</ele>
        <time>2021-07-08T11:40:23Z</time>
      </trkpt>
      <trkpt lat="41.26478" lon="-6.7742">
        <ele>581.6555</ele>
        <time>2021-07-08T11:40:34Z</time>
      </trkpt>
      <trkpt lat="41.26472" lon="-6.77038">
        <ele>591.0057</ele>
        <time>2021-07-08T11:40:45Z</time>
      </trkpt>
      <trkpt lat="41.26514" lon="-6.76648">
        <ele>602.7544</ele>
        <time>2021-07-08T11:40:56Z</time>
      </trkpt>
      <trkpt lat="41.26565" lon="-6.76263">
        <ele>613.7265</ele>
        <time>2021-07-08T11:41:07Z</time>
      </trkpt>
      <trkpt lat="41.26644" lon="-6.75895">
        <ele>618.7605</ele>
        <time>2021-07-08T11:41:18Z</time>
      </trkpt>
      <trkpt lat="41.26721" lon="-6.75611">
        <ele>621.5594</ele>
        <time>2021-07-08T11:41:29Z</time>
      </trkpt>
      <trkpt lat="41.26727" lon="-6.75413">
        <ele>616.5946</ele>
        <time>2021-07-08T11:41:40Z</time>
      </trkpt>
      <trkpt lat="41.26707" lon="-6.75159">
        <ele>612.0713</ele>
        <time>2021-07-08T11:41:51Z</time>
      </trkpt>
      <trkpt lat="41.26608" lon="-6.7485">
        <ele>615.7038</ele>
        <time>2021-07-08T11:42:02Z</time>
      </trkpt>
      <trkpt lat="41.26649" lon="-6.74506">
        <ele>621.8093</ele>
        <time>2021-07-08T11:42:13Z</time>
      </trkpt>
      <trkpt lat="41.2667" lon="-6.74203">
        <ele>623.8443</ele>
        <time>2021-07-08T11:42:24Z</time>
      </trkpt>
      <trkpt lat="41.26528" lon="-6.73943">
        <ele>639.9937</ele>
        <time>2021-07-08T11:42:35Z</time>
      </trkpt>
      <trkpt lat="41.26317" lon="-6.74011">
        <ele>661.9867</ele>
        <time>2021-07-08T11:42:46Z</time>
      </trkpt>
      <trkpt lat="41.26137" lon="-6.74095">
        <ele>674.7084</ele>
        <time>2021-07-08T11:42:57Z</time>
      </trkpt>
      <trkpt lat="41.26068" lon="-6.73785">
        <ele>683.4549</ele>
        <time>2021-07-08T11:43:08Z</time>
      </trkpt>
      <trkpt lat="41.26111" lon="-6.73428">
        <ele>694.3056</ele>
        <time>2021-07-08T11:43:19Z</time>
      </trkpt>
      <trkpt lat="41.25978" lon="-6.73196">
        <ele>706.8944</ele>
        <time>2021-07-08T11:43:30Z</time>
      </trkpt>
      <trkpt lat="41.25785" lon="-6.72976">
        <ele>726.2954</ele>
        <time>2021-07-08T11:43:41Z</time>
      </trkpt>
      <trkpt lat="41.2557" lon="-6.72892">
        <ele>742.7395</ele>
        <time>2021-07-08T11:43:52Z</time>
      </trkpt>
      <trkpt lat="41.2537" lon="-6.73036">
        <ele>753.3429</ele>
        <time>2021-07-08T11:44:03Z</time>
      </trkpt>
      <trkpt lat="41.25188" lon="-6.73181">
        <ele>739.187</ele>
        <time>2021-07-08T11:44:14Z</time>
      </trkpt>
      <trkpt lat="41.25" lon="-6.73156">
        <ele>726.8732</ele>
        <time>2021-07-08T11:44:25Z</time>
      </trkpt>
      <trkpt lat="41.24938" lon="-6.72863">
        <ele>713.29</ele>
        <time>2021-07-08T11:44:36Z</time>
      </trkpt>
      <trkpt lat="41.2492" lon="-6.72532">
        <ele>697.7693</ele>
        <time>2021-07-08T11:44:47Z</time>
      </trkpt>
      <trkpt lat="41.24947" lon="-6.72188">
        <ele>681.7807</ele>
        <time>2021-07-08T11:44:58Z</time>
      </trkpt>
      <trkpt lat="41.24965" lon="-6.71892">
        <ele>667.2303</ele>
        <time>2021-07-08T11:45:09Z</time>
      </trkpt>
      <trkpt lat="41.24833" lon="-6.7178">
        <ele>666.343</ele>
        <time>2021-07-08T11:45:20Z</time>
      </trkpt>
      <trkpt lat="41.24666" lon="-6.72035">
        <ele>668.4497</ele>
        <time>2021-07-08T11:45:31Z</time>
      </trkpt>
      <trkpt lat="41.24497" lon="-6.72331">
        <ele>675.2822</ele>
        <time>2021-07-08T11:45:42Z</time>
      </trkpt>
      <trkpt lat="41.24279" lon="-6.72403">
        <ele>679.0461</ele>
        <time>2021-07-08T11:45:53Z</time>
      </trkpt>
      <trkpt lat="41.24058" lon="-6.72454">
        <ele>665.8643</ele>
        <time>2021-07-08T11:46:04Z</time>
      </trkpt>
      <trkpt lat="41.23989" lon="-6.72803">
        <ele>654.0118</ele>
        <time>2021-07-08T11:46:15Z</time>
      </trkpt>
      <trkpt lat="41.23795" lon="-6.73004">
        <ele>656.3025</ele>
        <time>2021-07-08T11:46:26Z</time>
      </trkpt>
      <trkpt lat="41.23659" lon="-6.7327">
        <ele>657.7018</ele>
        <time>2021-07-08T11:46:37Z</time>
      </trkpt>
      <trkpt lat="41.2347" lon="-6.73409">
        <ele>662.7512</ele>
        <time>2021-07-08T11:46:48Z</time>
      </trkpt>
      <trkpt lat="41.23192" lon="-6.73427">
        <ele>667.0612</ele>
        <time>2021-07-08T11:46:59Z</time>
      </trkpt>
      <trkpt lat="41.22931" lon="-6.7345">
        <ele>675.0667</ele>
        <time>2021-07-08T11:47:10Z</time>
      </trkpt>
      <trkpt lat="41.22652" lon="-6.73614">
        <ele>672.5621</ele>
        <time>2021-07-08T11:47:21Z</time>
      </trkpt>
      <trkpt lat="41.22386" lon="-6.73773">
        <ele>677.1877</ele>
        <time>2021-07-08T11:47:32Z</time>
      </trkpt>
      <trkpt lat="41.22113" lon="-6.73932">
        <ele>680.3435</ele>
        <time>2021-07-08T11:47:43Z</time>
      </trkpt>
      <trkpt lat="41.21842" lon="-6.74089">
        <ele>685.4101</ele>
        <time>2021-07-08T11:47:54Z</time>
      </trkpt>
      <trkpt lat="41.21576" lon="-6.74246">
        <ele>693.7005</ele>
        <time>2021-07-08T11:48:05Z</time>
      </trkpt>
      <trkpt lat="41.21317" lon="-6.744">
        <ele>708.6166</ele>
        <time>2021-07-08T11:48:16Z</time>
      </trkpt>
      <trkpt lat="41.21109" lon="-6.74628">
        <ele>719.679</ele>
        <time>2021-07-08T11:48:27Z</time>
      </trkpt>
      <trkpt lat="41.20962" lon="-6.7481">
        <ele>710.3554</ele>
        <time>2021-07-08T11:48:38Z</time>
      </trkpt>
      <trkpt lat="41.20729" lon="-6.74805">
        <ele>698.5686</ele>
        <time>2021-07-08T11:48:49Z</time>
      </trkpt>
      <trkpt lat="41.20617" lon="-6.74609">
        <ele>701.1363</ele>
        <time>2021-07-08T11:49:00Z</time>
      </trkpt>
      <trkpt lat="41.20493" lon="-6.74318">
        <ele>700.9493</ele>
        <time>2021-07-08T11:49:11Z</time>
      </trkpt>
      <trkpt lat="41.20302" lon="-6.74067">
        <ele>692.6577</ele>
        <time>2021-07-08T11:49:22Z</time>
      </trkpt>
      <trkpt lat="41.20134" lon="-6.73862">
        <ele>691.2971</ele>
        <time>2021-07-08T11:49:33Z</time>
      </trkpt>
      <trkpt lat="41.19938" lon="-6.73966">
        <ele>696.3277</ele>
        <time>2021-07-08T11:49:44Z</time>
      </trkpt>
      <trkpt lat="41.19736" lon="-6.74022">
        <ele>702.0472</ele>
        <time>2021-07-08T11:49:55Z</time>
      </trkpt>
      <trkpt lat="41.1959" lon="-6.7381">
        <ele>709.9165</ele>
        <time>2021-07-08T11:50:06Z</time>
      </trkpt>
      <trkpt lat="41.19467" lon="-6.73615">
        <ele>715.1639</ele>
        <time>2021-07-08T11:50:17Z</time>
      </trkpt>
      <trkpt lat="41.19422" lon="-6.73494">
        <ele>718.1449</ele>
        <time>2021-07-08T11:50:28Z</time>
      </trkpt>
      <trkpt lat="41.19433" lon="-6.73332">
        <ele>712.2837</ele>
        <time>2021-07-08T11:50:39Z</time>
      </trkpt>
      <trkpt lat="41.19408" lon="-6.73211">
        <ele>711.3079</ele>
        <time>2021-07-08T11:50:50Z</time>
      </trkpt>
      <trkpt lat="41.19386" lon="-6.73107">
        <ele>709.3809</ele>
        <time>2021-07-08T11:51:01Z</time>
      </trkpt>
      <trkpt lat="41.19343" lon="-6.73056">
        <ele>708.1864</ele>
        <time>2021-07-08T11:51:12Z</time>
      </trkpt>
      <trkpt lat="41.19326" lon="-6.72953">
        <ele>702.4953</ele>
        <time>2021-07-08T11:51:23Z</time>
      </trkpt>
      <trkpt lat="41.19254" lon="-6.72965">
        <ele>705.7749</ele>
        <time>2021-07-08T11:51:34Z</time>
      </trkpt>
      <trkpt lat="41.19175" lon="-6.72971">
        <ele>707.5432</ele>
        <time>2021-07-08T11:51:45Z</time>
      </trkpt>
      <trkpt lat="41.19101" lon="-6.73069">
        <ele>696.3041</ele>
        <time>2021-07-08T11:51:56Z</time>
      </trkpt>
      <trkpt lat="41.19069" lon="-6.73194">
        <ele>694.6228</ele>
        <time>2021-07-08T11:52:07Z</time>
      </trkpt>
      <trkpt lat="41.19061" lon="-6.73196">
        <ele>696.3593</ele>
        <time>2021-07-08T11:52:24Z</time>
      </trkpt>
      <trkpt lat="41.19043" lon="-6.73218">
        <ele>695.1624</ele>
        <time>2021-07-08T11:52:35Z</time>
      </trkpt>
      <trkpt lat="41.19039" lon="-6.73222">
        <ele>693.8873</ele>
        <time>2021-07-08T11:52:48Z</time>
      </trkpt>
      <trkpt lat="41.1897" lon="-6.73285">
        <ele>688.3016</ele>
        <time>2021-07-08T11:52:59Z</time>
      </trkpt>
      <trkpt lat="41.18881" lon="-6.73294">
        <ele>690.7421</ele>
        <time>2021-07-08T11:53:10Z</time>
      </trkpt>
      <trkpt lat="41.18782" lon="-6.73252">
        <ele>698.0045</ele>
        <time>2021-07-08T11:53:21Z</time>
      </trkpt>
      <trkpt lat="41.18684" lon="-6.73255">
        <ele>702.1327</ele>
        <time>2021-07-08T11:53:32Z</time>
      </trkpt>
      <trkpt lat="41.1859" lon="-6.73308">
        <ele>695.1274</ele>
        <time>2021-07-08T11:53:43Z</time>
      </trkpt>
      <trkpt lat="41.18483" lon="-6.7334">
        <ele>691.3473</ele>
        <time>2021-07-08T11:53:54Z</time>
      </trkpt>
      <trkpt lat="41.18423" lon="-6.73379">
        <ele>688.8566</ele>
        <time>2021-07-08T11:54:05Z</time>
      </trkpt>
      <trkpt lat="41.1836" lon="-6.73406">
        <ele>688.4757</ele>
        <time>2021-07-08T11:54:16Z</time>
      </trkpt>
      <trkpt lat="41.18271" lon="-6.73436">
        <ele>692.1364</ele>
        <time>2021-07-08T11:54:27Z</time>
      </trkpt>
      <trkpt lat="41.18188" lon="-6.73453">
        <ele>693.4449</ele>
        <time>2021-07-08T11:54:38Z</time>
      </trkpt>
      <trkpt lat="41.18169" lon="-6.73491">
        <ele>692.7131</ele>
        <time>2021-07-08T11:54:49Z</time>
      </trkpt>
      <trkpt lat="41.18162" lon="-6.73601">
        <ele>693.8289</ele>
        <time>2021-07-08T11:55:00Z</time>
      </trkpt>
      <trkpt lat="41.18183" lon="-6.73682">
        <ele>700.5577</ele>
        <time>2021-07-08T11:55:11Z</time>
      </trkpt>
      <trkpt lat="41.18271" lon="-6.73741">
        <ele>707.0198</ele>
        <time>2021-07-08T11:55:22Z</time>
      </trkpt>
      <trkpt lat="41.18351" lon="-6.73738">
        <ele>711.0347</ele>
        <time>2021-07-08T11:55:33Z</time>
      </trkpt>
      <trkpt lat="41.18364" lon="-6.73809">
        <ele>710.8341</ele>
        <time>2021-07-08T11:55:44Z</time>
      </trkpt>
      <trkpt lat="41.18305" lon="-6.73857">
        <ele>710.486</ele>
        <time>2021-07-08T11:55:55Z</time>
      </trkpt>
      <trkpt lat="41.18195" lon="-6.73933">
        <ele>702.6284</ele>
        <time>2021-07-08T11:56:06Z</time>
      </trkpt>
      <trkpt lat="41.18088" lon="-6.74042">
        <ele>693.5573</ele>
        <time>2021-07-08T11:56:17Z</time>
      </trkpt>
      <trkpt lat="41.18002" lon="-6.74128">
        <ele>687.642</ele>
        <time>2021-07-08T11:56:28Z</time>
      </trkpt>
      <trkpt lat="41.17975" lon="-6.74152">
        <ele>686.3354</ele>
        <time>2021-07-08T11:56:39Z</time>
      </trkpt>
      <trkpt lat="41.17979" lon="-6.74241">
        <ele>685.6162</ele>
        <time>2021-07-08T11:56:50Z</time>
      </trkpt>
      <trkpt lat="41.17999" lon="-6.74308">
        <ele>677.2717</ele>
        <time>2021-07-08T11:57:01Z</time>
      </trkpt>
      <trkpt lat="41.1803" lon="-6.74369">
        <ele>670.5286</ele>
        <time>2021-07-08T11:57:12Z</time>
      </trkpt>
      <trkpt lat="41.18072" lon="-6.74448">
        <ele>662.8801</ele>
        <time>2021-07-08T11:57:23Z</time>
      </trkpt>
      <trkpt lat="41.18126" lon="-6.74515">
        <ele>654.705</ele>
        <time>2021-07-08T11:57:34Z</time>
      </trkpt>
      <trkpt lat="41.18183" lon="-6.74574">
        <ele>654.8288</ele>
        <time>2021-07-08T11:57:45Z</time>
      </trkpt>
      <trkpt lat="41.18254" lon="-6.74593">
        <ele>657.5195</ele>
        <time>2021-07-08T11:57:56Z</time>
      </trkpt>
      <trkpt lat="41.18302" lon="-6.74623">
        <ele>659.7801</ele>
        <time>2021-07-08T11:58:07Z</time>
      </trkpt>
      <trkpt lat="41.18329" lon="-6.74709">
        <ele>661.8823</ele>
        <time>2021-07-08T11:58:18Z</time>
      </trkpt>
      <trkpt lat="41.18397" lon="-6.74756">
        <ele>677.4729</ele>
        <time>2021-07-08T11:58:29Z</time>
      </trkpt>
      <trkpt lat="41.18435" lon="-6.74826">
        <ele>694.2636</ele>
        <time>2021-07-08T11:58:40Z</time>
      </trkpt>
      <trkpt lat="41.18484" lon="-6.74884">
        <ele>699.0408</ele>
        <time>2021-07-08T11:58:51Z</time>
      </trkpt>
      <trkpt lat="41.18529" lon="-6.7497">
        <ele>697.04</ele>
        <time>2021-07-08T11:59:02Z</time>
      </trkpt>
      <trkpt lat="41.18566" lon="-6.7501">
        <ele>694.8239</ele>
        <time>2021-07-08T11:59:13Z</time>
      </trkpt>
      <trkpt lat="41.18609" lon="-6.75032">
        <ele>700.5918</ele>
        <time>2021-07-08T11:59:24Z</time>
      </trkpt>
      <trkpt lat="41.18658" lon="-6.75074">
        <ele>705.4397</ele>
        <time>2021-07-08T11:59:35Z</time>
      </trkpt>
      <trkpt lat="41.18687" lon="-6.75165">
        <ele>701.0035</ele>
        <time>2021-07-08T11:59:46Z</time>
      </trkpt>
      <trkpt lat="41.18742" lon="-6.75218">
        <ele>703.3146</ele>
        <time>2021-07-08T11:59:57Z</time>
      </trkpt>
      <trkpt lat="41.18719" lon="-6.7527">
        <ele>705.1745</ele>
        <time>2021-07-08T12:00:08Z</time>
      </trkpt>
      <trkpt lat="41.18694" lon="-6.75334">
        <ele>704.3921</ele>
        <time>2021-07-08T12:00:19Z</time>
      </trkpt>
      <trkpt lat="41.18677" lon="-6.75438">
        <ele>708.9851</ele>
        <time>2021-07-08T12:00:30Z</time>
      </trkpt>
      <trkpt lat="41.1867" lon="-6.75523">
        <ele>714.443</ele>
        <time>2021-07-08T12:00:41Z</time>
      </trkpt>
      <trkpt lat="41.1864" lon="-6.75561">
        <ele>713.8007</ele>
        <time>2021-07-08T12:00:52Z</time>
      </trkpt>
      <trkpt lat="41.18551" lon="-6.75594">
        <ele>709.9799</ele>
        <time>2021-07-08T12:01:03Z</time>
      </trkpt>
      <trkpt lat="41.18454" lon="-6.75607">
        <ele>703.8951</ele>
        <time>2021-07-08T12:01:14Z</time>
      </trkpt>
      <trkpt lat="41.18384" lon="-6.75651">
        <ele>696.2571</ele>
        <time>2021-07-08T12:01:25Z</time>
      </trkpt>
      <trkpt lat="41.18317" lon="-6.75711">
        <ele>694.669</ele>
        <time>2021-07-08T12:01:36Z</time>
      </trkpt>
      <trkpt lat="41.1826" lon="-6.75754">
        <ele>698.5155</ele>
        <time>2021-07-08T12:01:47Z</time>
      </trkpt>
      <trkpt lat="41.18219" lon="-6.75827">
        <ele>700.1895</ele>
        <time>2021-07-08T12:01:58Z</time>
      </trkpt>
      <trkpt lat="41.18159" lon="-6.75854">
        <ele>698.455</ele>
        <time>2021-07-08T12:02:09Z</time>
      </trkpt>
      <trkpt lat="41.18101" lon="-6.75886">
        <ele>701.5489</ele>
        <time>2021-07-08T12:02:20Z</time>
      </trkpt>
      <trkpt lat="41.18041" lon="-6.75939">
        <ele>702.3391</ele>
        <time>2021-07-08T12:02:31Z</time>
      </trkpt>
      <trkpt lat="41.17975" lon="-6.76007">
        <ele>704.1248</ele>
        <time>2021-07-08T12:02:42Z</time>
      </trkpt>
      <trkpt lat="41.17921" lon="-6.76052">
        <ele>700.7548</ele>
        <time>2021-07-08T12:02:53Z</time>
      </trkpt>
      <trkpt lat="41.17885" lon="-6.76107">
        <ele>698.705</ele>
        <time>2021-07-08T12:03:04Z</time>
      </trkpt>
      <trkpt lat="41.17848" lon="-6.76167">
        <ele>692.895</ele>
        <time>2021-07-08T12:03:15Z</time>
      </trkpt>
      <trkpt lat="41.17809" lon="-6.76225">
        <ele>687.4204</ele>
        <time>2021-07-08T12:03:26Z</time>
      </trkpt>
      <trkpt lat="41.17763" lon="-6.7626">
        <ele>682.3784</ele>
        <time>2021-07-08T12:03:37Z</time>
      </trkpt>
      <trkpt lat="41.17703" lon="-6.76277">
        <ele>681.2654</ele>
        <time>2021-07-08T12:03:48Z</time>
      </trkpt>
      <trkpt lat="41.17646" lon="-6.76289">
        <ele>684.8258</ele>
        <time>2021-07-08T12:03:59Z</time>
      </trkpt>
      <trkpt lat="41.17608" lon="-6.76334">
        <ele>683.6849</ele>
        <time>2021-07-08T12:04:10Z</time>
      </trkpt>
      <trkpt lat="41.17555" lon="-6.76347">
        <ele>683.0628</ele>
        <time>2021-07-08T12:04:21Z</time>
      </trkpt>
      <trkpt lat="41.17493" lon="-6.76367">
        <ele>684.5394</ele>
        <time>2021-07-08T12:04:32Z</time>
      </trkpt>
      <trkpt lat="41.17418" lon="-6.76378">
        <ele>690.4459</ele>
        <time>2021-07-08T12:04:43Z</time>
      </trkpt>
      <trkpt lat="41.17343" lon="-6.76406">
        <ele>696.5463</ele>
        <time>2021-07-08T12:04:54Z</time>
      </trkpt>
      <trkpt lat="41.17272" lon="-6.7644">
        <ele>695.3096</ele>
        <time>2021-07-08T12:05:05Z</time>
      </trkpt>
      <trkpt lat="41.17191" lon="-6.765">
        <ele>694.7737</ele>
        <time>2021-07-08T12:05:16Z</time>
      </trkpt>
      <trkpt lat="41.17126" lon="-6.76515">
        <ele>695.8458</ele>
        <time>2021-07-08T12:05:27Z</time>
      </trkpt>
      <trkpt lat="41.1709" lon="-6.76533">
        <ele>697.7215</ele>
        <time>2021-07-08T12:05:38Z</time>
      </trkpt>
      <trkpt lat="41.1709" lon="-6.76532">
        <ele>696.5539</ele>
        <time>2021-07-08T12:06:38Z</time>
      </trkpt>
      <trkpt lat="41.1709" lon="-6.76532">
        <ele>696.5539</ele>
        <time>2021-07-08T12:07:37Z</time>
      </trkpt>
      <trkpt lat="41.17087" lon="-6.76529">
        <ele>696.126</ele>
        <time>2021-07-08T12:08:19Z</time>
      </trkpt>
      <trkpt lat="41.17084" lon="-6.76526">
        <ele>696.4678</ele>
        <time>2021-07-08T12:08:35Z</time>
      </trkpt>
      <trkpt lat="41.17084" lon="-6.76529">
        <ele>696.7539</ele>
        <time>2021-07-08T12:09:35Z</time>
      </trkpt>
      <trkpt lat="41.17088" lon="-6.7653">
        <ele>696.8083</ele>
        <time>2021-07-08T12:09:49Z</time>
      </trkpt>
      <trkpt lat="41.1709" lon="-6.76533">
        <ele>696.8346</ele>
        <time>2021-07-08T12:10:49Z</time>
      </trkpt>
      <trkpt lat="41.1709" lon="-6.76533">
        <ele>696.8346</ele>
        <time>2021-07-08T12:11:49Z</time>
      </trkpt>
      <trkpt lat="41.1709" lon="-6.76534">
        <ele>695.7219</ele>
        <time>2021-07-08T12:12:49Z</time>
      </trkpt>
      <trkpt lat="41.17089" lon="-6.76541">
        <ele>695.2634</ele>
        <time>2021-07-08T12:13:46Z</time>
      </trkpt>
      <trkpt lat="41.17087" lon="-6.76549">
        <ele>694.6598</ele>
        <time>2021-07-08T12:13:57Z</time>
      </trkpt>
      <trkpt lat="41.17084" lon="-6.76559">
        <ele>693.4213</ele>
        <time>2021-07-08T12:14:08Z</time>
      </trkpt>
      <trkpt lat="41.17077" lon="-6.76586">
        <ele>692.6749</ele>
        <time>2021-07-08T12:14:19Z</time>
      </trkpt>
      <trkpt lat="41.17074" lon="-6.76594">
        <ele>693.3273</ele>
        <time>2021-07-08T12:14:40Z</time>
      </trkpt>
      <trkpt lat="41.17064" lon="-6.76644">
        <ele>691.2341</ele>
        <time>2021-07-08T12:14:51Z</time>
      </trkpt>
      <trkpt lat="41.17044" lon="-6.76685">
        <ele>688.9344</ele>
        <time>2021-07-08T12:15:02Z</time>
      </trkpt>
      <trkpt lat="41.17011" lon="-6.76715">
        <ele>688.1579</ele>
        <time>2021-07-08T12:15:13Z</time>
      </trkpt>
      <trkpt lat="41.16987" lon="-6.7676">
        <ele>684.9106</ele>
        <time>2021-07-08T12:15:24Z</time>
      </trkpt>
      <trkpt lat="41.16962" lon="-6.76804">
        <ele>681.3711</ele>
        <time>2021-07-08T12:15:35Z</time>
      </trkpt>
      <trkpt lat="41.1695" lon="-6.76852">
        <ele>678.2101</ele>
        <time>2021-07-08T12:15:46Z</time>
      </trkpt>
      <trkpt lat="41.1694" lon="-6.76892">
        <ele>673.276</ele>
        <time>2021-07-08T12:15:57Z</time>
      </trkpt>
      <trkpt lat="41.16933" lon="-6.76907">
        <ele>672.324</ele>
        <time>2021-07-08T12:16:08Z</time>
      </trkpt>
      <trkpt lat="41.1693" lon="-6.7695">
        <ele>669.3096</ele>
        <time>2021-07-08T12:16:19Z</time>
      </trkpt>
      <trkpt lat="41.16928" lon="-6.76993">
        <ele>668.1627</ele>
        <time>2021-07-08T12:16:30Z</time>
      </trkpt>
      <trkpt lat="41.16921" lon="-6.77023">
        <ele>664.0324</ele>
        <time>2021-07-08T12:16:41Z</time>
      </trkpt>
      <trkpt lat="41.16925" lon="-6.77053">
        <ele>662.0734</ele>
        <time>2021-07-08T12:16:52Z</time>
      </trkpt>
      <trkpt lat="41.16934" lon="-6.77088">
        <ele>658.4844</ele>
        <time>2021-07-08T12:17:03Z</time>
      </trkpt>
      <trkpt lat="41.16941" lon="-6.77115">
        <ele>657.5674</ele>
        <time>2021-07-08T12:17:14Z</time>
      </trkpt>
      <trkpt lat="41.16945" lon="-6.77155">
        <ele>654.7886</ele>
        <time>2021-07-08T12:17:25Z</time>
      </trkpt>
      <trkpt lat="41.16929" lon="-6.77183">
        <ele>653.1878</ele>
        <time>2021-07-08T12:17:36Z</time>
      </trkpt>
      <trkpt lat="41.16893" lon="-6.77202">
        <ele>650.663</ele>
        <time>2021-07-08T12:17:47Z</time>
      </trkpt>
      <trkpt lat="41.16861" lon="-6.77217">
        <ele>651.2027</ele>
        <time>2021-07-08T12:17:58Z</time>
      </trkpt>
      <trkpt lat="41.16844" lon="-6.77255">
        <ele>652.3615</ele>
        <time>2021-07-08T12:18:09Z</time>
      </trkpt>
      <trkpt lat="41.16816" lon="-6.77288">
        <ele>650.3122</ele>
        <time>2021-07-08T12:18:21Z</time>
      </trkpt>
      <trkpt lat="41.16803" lon="-6.7732">
        <ele>648.4587</ele>
        <time>2021-07-08T12:18:32Z</time>
      </trkpt>
      <trkpt lat="41.16783" lon="-6.77343">
        <ele>644.8545</ele>
        <time>2021-07-08T12:18:43Z</time>
      </trkpt>
      <trkpt lat="41.16762" lon="-6.77377">
        <ele>643.1573</ele>
        <time>2021-07-08T12:18:54Z</time>
      </trkpt>
      <trkpt lat="41.16751" lon="-6.77396">
        <ele>641.9129</ele>
        <time>2021-07-08T12:19:05Z</time>
      </trkpt>
      <trkpt lat="41.16747" lon="-6.774">
        <ele>641.4131</ele>
        <time>2021-07-08T12:19:21Z</time>
      </trkpt>
      <trkpt lat="41.16745" lon="-6.77403">
        <ele>640.5539</ele>
        <time>2021-07-08T12:19:32Z</time>
      </trkpt>
      <trkpt lat="41.16736" lon="-6.77413">
        <ele>640.1517</ele>
        <time>2021-07-08T12:19:43Z</time>
      </trkpt>
      <trkpt lat="41.16728" lon="-6.77422">
        <ele>639.9512</ele>
        <time>2021-07-08T12:19:54Z</time>
      </trkpt>
      <trkpt lat="41.16727" lon="-6.77421">
        <ele>639.3066</ele>
        <time>2021-07-08T12:20:54Z</time>
      </trkpt>
      <trkpt lat="41.16723" lon="-6.77426">
        <ele>639.7524</ele>
        <time>2021-07-08T12:21:37Z</time>
      </trkpt>
      <trkpt lat="41.16688" lon="-6.77432">
        <ele>641.4486</ele>
        <time>2021-07-08T12:21:48Z</time>
      </trkpt>
      <trkpt lat="41.16657" lon="-6.7744">
        <ele>638.7852</ele>
        <time>2021-07-08T12:21:59Z</time>
      </trkpt>
      <trkpt lat="41.16627" lon="-6.77436">
        <ele>635.1313</ele>
        <time>2021-07-08T12:22:10Z</time>
      </trkpt>
      <trkpt lat="41.16597" lon="-6.77454">
        <ele>634.9232</ele>
        <time>2021-07-08T12:22:21Z</time>
      </trkpt>
      <trkpt lat="41.16553" lon="-6.77437">
        <ele>635.1114</ele>
        <time>2021-07-08T12:22:33Z</time>
      </trkpt>
      <trkpt lat="41.16512" lon="-6.77429">
        <ele>636.8237</ele>
        <time>2021-07-08T12:22:44Z</time>
      </trkpt>
      <trkpt lat="41.16459" lon="-6.77398">
        <ele>634.3643</ele>
        <time>2021-07-08T12:22:55Z</time>
      </trkpt>
      <trkpt lat="41.16399" lon="-6.77338">
        <ele>636.7323</ele>
        <time>2021-07-08T12:23:06Z</time>
      </trkpt>
      <trkpt lat="41.16361" lon="-6.77266">
        <ele>638.9329</ele>
        <time>2021-07-08T12:23:17Z</time>
      </trkpt>
      <trkpt lat="41.16312" lon="-6.77183">
        <ele>640.1799</ele>
        <time>2021-07-08T12:23:28Z</time>
      </trkpt>
      <trkpt lat="41.1626" lon="-6.77106">
        <ele>641.8061</ele>
        <time>2021-07-08T12:23:39Z</time>
      </trkpt>
      <trkpt lat="41.16202" lon="-6.77032">
        <ele>645.1849</ele>
        <time>2021-07-08T12:23:50Z</time>
      </trkpt>
      <trkpt lat="41.16133" lon="-6.77047">
        <ele>637.4605</ele>
        <time>2021-07-08T12:24:01Z</time>
      </trkpt>
      <trkpt lat="41.16067" lon="-6.77102">
        <ele>637.5892</ele>
        <time>2021-07-08T12:24:12Z</time>
      </trkpt>
      <trkpt lat="41.15983" lon="-6.77127">
        <ele>636.4692</ele>
        <time>2021-07-08T12:24:23Z</time>
      </trkpt>
      <trkpt lat="41.15899" lon="-6.77168">
        <ele>630.7693</ele>
        <time>2021-07-08T12:24:34Z</time>
      </trkpt>
      <trkpt lat="41.15807" lon="-6.77219">
        <ele>628.0613</ele>
        <time>2021-07-08T12:24:45Z</time>
      </trkpt>
      <trkpt lat="41.15748" lon="-6.77269">
        <ele>625.8144</ele>
        <time>2021-07-08T12:24:56Z</time>
      </trkpt>
      <trkpt lat="41.1571" lon="-6.77306">
        <ele>622.7405</ele>
        <time>2021-07-08T12:25:07Z</time>
      </trkpt>
      <trkpt lat="41.15661" lon="-6.77312">
        <ele>616.2957</ele>
        <time>2021-07-08T12:25:18Z</time>
      </trkpt>
      <trkpt lat="41.15611" lon="-6.77323">
        <ele>609.8138</ele>
        <time>2021-07-08T12:25:29Z</time>
      </trkpt>
      <trkpt lat="41.15542" lon="-6.7732">
        <ele>604.5957</ele>
        <time>2021-07-08T12:25:40Z</time>
      </trkpt>
      <trkpt lat="41.15487" lon="-6.77351">
        <ele>598.7119</ele>
        <time>2021-07-08T12:25:51Z</time>
      </trkpt>
      <trkpt lat="41.15428" lon="-6.77393">
        <ele>593.8085</ele>
        <time>2021-07-08T12:26:02Z</time>
      </trkpt>
      <trkpt lat="41.15374" lon="-6.77428">
        <ele>589.4248</ele>
        <time>2021-07-08T12:26:13Z</time>
      </trkpt>
      <trkpt lat="41.15349" lon="-6.77475">
        <ele>583.7645</ele>
        <time>2021-07-08T12:26:24Z</time>
      </trkpt>
      <trkpt lat="41.15354" lon="-6.77553">
        <ele>577.0214</ele>
        <time>2021-07-08T12:26:35Z</time>
      </trkpt>
      <trkpt lat="41.15332" lon="-6.77616">
        <ele>568.8893</ele>
        <time>2021-07-08T12:26:46Z</time>
      </trkpt>
      <trkpt lat="41.15295" lon="-6.77665">
        <ele>559.0207</ele>
        <time>2021-07-08T12:26:57Z</time>
      </trkpt>
      <trkpt lat="41.1526" lon="-6.77702">
        <ele>550.6983</ele>
        <time>2021-07-08T12:27:08Z</time>
      </trkpt>
      <trkpt lat="41.15243" lon="-6.7777">
        <ele>541.4065</ele>
        <time>2021-07-08T12:27:19Z</time>
      </trkpt>
      <trkpt lat="41.15256" lon="-6.77848">
        <ele>525.9316</ele>
        <time>2021-07-08T12:27:31Z</time>
      </trkpt>
      <trkpt lat="41.15312" lon="-6.77871">
        <ele>530.925</ele>
        <time>2021-07-08T12:27:42Z</time>
      </trkpt>
      <trkpt lat="41.15322" lon="-6.77944">
        <ele>544.3693</ele>
        <time>2021-07-08T12:27:53Z</time>
      </trkpt>
      <trkpt lat="41.15261" lon="-6.7797">
        <ele>533.8478</ele>
        <time>2021-07-08T12:28:04Z</time>
      </trkpt>
      <trkpt lat="41.15199" lon="-6.7803">
        <ele>533.0713</ele>
        <time>2021-07-08T12:28:15Z</time>
      </trkpt>
      <trkpt lat="41.15158" lon="-6.78152">
        <ele>542.8348</ele>
        <time>2021-07-08T12:28:26Z</time>
      </trkpt>
      <trkpt lat="41.15117" lon="-6.78282">
        <ele>543.955</ele>
        <time>2021-07-08T12:28:37Z</time>
      </trkpt>
      <trkpt lat="41.15062" lon="-6.78354">
        <ele>539.4216</ele>
        <time>2021-07-08T12:28:48Z</time>
      </trkpt>
      <trkpt lat="41.15018" lon="-6.7841">
        <ele>549.6598</ele>
        <time>2021-07-08T12:28:59Z</time>
      </trkpt>
      <trkpt lat="41.14955" lon="-6.78445">
        <ele>556.2442</ele>
        <time>2021-07-08T12:29:10Z</time>
      </trkpt>
      <trkpt lat="41.14908" lon="-6.78417">
        <ele>550.0554</ele>
        <time>2021-07-08T12:29:21Z</time>
      </trkpt>
      <trkpt lat="41.14857" lon="-6.78383">
        <ele>543.4093</ele>
        <time>2021-07-08T12:29:32Z</time>
      </trkpt>
      <trkpt lat="41.14794" lon="-6.78359">
        <ele>533.2662</ele>
        <time>2021-07-08T12:29:43Z</time>
      </trkpt>
      <trkpt lat="41.1473" lon="-6.78341">
        <ele>523.2751</ele>
        <time>2021-07-08T12:29:54Z</time>
      </trkpt>
      <trkpt lat="41.14681" lon="-6.78336">
        <ele>526.524</ele>
        <time>2021-07-08T12:30:05Z</time>
      </trkpt>
      <trkpt lat="41.14649" lon="-6.78286">
        <ele>518.9034</ele>
        <time>2021-07-08T12:30:16Z</time>
      </trkpt>
      <trkpt lat="41.14648" lon="-6.78237">
        <ele>509.6393</ele>
        <time>2021-07-08T12:30:27Z</time>
      </trkpt>
      <trkpt lat="41.14627" lon="-6.78163">
        <ele>502.2991</ele>
        <time>2021-07-08T12:30:38Z</time>
      </trkpt>
      <trkpt lat="41.14603" lon="-6.78082">
        <ele>497.1794</ele>
        <time>2021-07-08T12:30:49Z</time>
      </trkpt>
      <trkpt lat="41.14556" lon="-6.78061">
        <ele>487.5033</ele>
        <time>2021-07-08T12:31:00Z</time>
      </trkpt>
      <trkpt lat="41.14515" lon="-6.78163">
        <ele>478.5309</ele>
        <time>2021-07-08T12:31:11Z</time>
      </trkpt>
      <trkpt lat="41.14433" lon="-6.78143">
        <ele>467.9408</ele>
        <time>2021-07-08T12:31:22Z</time>
      </trkpt>
      <trkpt lat="41.14475" lon="-6.78076">
        <ele>459.0511</ele>
        <time>2021-07-08T12:31:33Z</time>
      </trkpt>
      <trkpt lat="41.14435" lon="-6.7789">
        <ele>441.6117</ele>
        <time>2021-07-08T12:31:44Z</time>
      </trkpt>
      <trkpt lat="41.14401" lon="-6.77768">
        <ele>422.5785</ele>
        <time>2021-07-08T12:31:55Z</time>
      </trkpt>
      <trkpt lat="41.14431" lon="-6.77641">
        <ele>411.9957</ele>
        <time>2021-07-08T12:32:06Z</time>
      </trkpt>
      <trkpt lat="41.14531" lon="-6.77557">
        <ele>399.0066</ele>
        <time>2021-07-08T12:32:17Z</time>
      </trkpt>
      <trkpt lat="41.14586" lon="-6.77518">
        <ele>386.765</ele>
        <time>2021-07-08T12:32:28Z</time>
      </trkpt>
      <trkpt lat="41.14526" lon="-6.77444">
        <ele>373.7908</ele>
        <time>2021-07-08T12:32:39Z</time>
      </trkpt>
      <trkpt lat="41.14512" lon="-6.77392">
        <ele>364.2822</ele>
        <time>2021-07-08T12:32:50Z</time>
      </trkpt>
      <trkpt lat="41.14444" lon="-6.7743">
        <ele>352.9193</ele>
        <time>2021-07-08T12:33:01Z</time>
      </trkpt>
      <trkpt lat="41.14371" lon="-6.77449">
        <ele>340.8457</ele>
        <time>2021-07-08T12:33:12Z</time>
      </trkpt>
      <trkpt lat="41.14281" lon="-6.7742">
        <ele>325.1512</ele>
        <time>2021-07-08T12:33:23Z</time>
      </trkpt>
      <trkpt lat="41.14206" lon="-6.77408">
        <ele>310.2877</ele>
        <time>2021-07-08T12:33:34Z</time>
      </trkpt>
      <trkpt lat="41.1426" lon="-6.77341">
        <ele>296.6455</ele>
        <time>2021-07-08T12:33:45Z</time>
      </trkpt>
      <trkpt lat="41.14248" lon="-6.77213">
        <ele>281.0862</ele>
        <time>2021-07-08T12:33:56Z</time>
      </trkpt>
      <trkpt lat="41.1417" lon="-6.77168">
        <ele>283.102</ele>
        <time>2021-07-08T12:34:07Z</time>
      </trkpt>
      <trkpt lat="41.14076" lon="-6.77127">
        <ele>271.8006</ele>
        <time>2021-07-08T12:34:18Z</time>
      </trkpt>
      <trkpt lat="41.13963" lon="-6.77152">
        <ele>258.1311</ele>
        <time>2021-07-08T12:34:29Z</time>
      </trkpt>
      <trkpt lat="41.13894" lon="-6.77136">
        <ele>242.9972</ele>
        <time>2021-07-08T12:34:40Z</time>
      </trkpt>
      <trkpt lat="41.13804" lon="-6.77081">
        <ele>225.4107</ele>
        <time>2021-07-08T12:34:51Z</time>
      </trkpt>
      <trkpt lat="41.13732" lon="-6.76992">
        <ele>214.192</ele>
        <time>2021-07-08T12:35:02Z</time>
      </trkpt>
      <trkpt lat="41.13644" lon="-6.77053">
        <ele>200.627</ele>
        <time>2021-07-08T12:35:13Z</time>
      </trkpt>
      <trkpt lat="41.1357" lon="-6.77067">
        <ele>191.8679</ele>
        <time>2021-07-08T12:35:24Z</time>
      </trkpt>
      <trkpt lat="41.13623" lon="-6.77117">
        <ele>187.7104</ele>
        <time>2021-07-08T12:35:35Z</time>
      </trkpt>
      <trkpt lat="41.13617" lon="-6.7719">
        <ele>193.0483</ele>
        <time>2021-07-08T12:35:46Z</time>
      </trkpt>
      <trkpt lat="41.13722" lon="-6.77275">
        <ele>202.2668</ele>
        <time>2021-07-08T12:35:57Z</time>
      </trkpt>
      <trkpt lat="41.13717" lon="-6.7736">
        <ele>195.9915</ele>
        <time>2021-07-08T12:36:08Z</time>
      </trkpt>
      <trkpt lat="41.13626" lon="-6.77373">
        <ele>203.6369</ele>
        <time>2021-07-08T12:36:19Z</time>
      </trkpt>
      <trkpt lat="41.13519" lon="-6.77423">
        <ele>213.2455</ele>
        <time>2021-07-08T12:36:30Z</time>
      </trkpt>
      <trkpt lat="41.13366" lon="-6.77437">
        <ele>233.004</ele>
        <time>2021-07-08T12:36:41Z</time>
      </trkpt>
      <trkpt lat="41.13249" lon="-6.77447">
        <ele>230.4853</ele>
        <time>2021-07-08T12:36:52Z</time>
      </trkpt>
      <trkpt lat="41.13187" lon="-6.77431">
        <ele>224.6627</ele>
        <time>2021-07-08T12:37:03Z</time>
      </trkpt>
      <trkpt lat="41.13104" lon="-6.77431">
        <ele>215.292</ele>
        <time>2021-07-08T12:37:14Z</time>
      </trkpt>
      <trkpt lat="41.13027" lon="-6.77505">
        <ele>198.8531</ele>
        <time>2021-07-08T12:37:25Z</time>
      </trkpt>
      <trkpt lat="41.12986" lon="-6.77567">
        <ele>195.0237</ele>
        <time>2021-07-08T12:37:36Z</time>
      </trkpt>
      <trkpt lat="41.12909" lon="-6.77487">
        <ele>203.6765</ele>
        <time>2021-07-08T12:37:47Z</time>
      </trkpt>
      <trkpt lat="41.12793" lon="-6.77485">
        <ele>214.1183</ele>
        <time>2021-07-08T12:37:58Z</time>
      </trkpt>
      <trkpt lat="41.12646" lon="-6.77418">
        <ele>231.5612</ele>
        <time>2021-07-08T12:38:09Z</time>
      </trkpt>
      <trkpt lat="41.12555" lon="-6.77458">
        <ele>242.8555</ele>
        <time>2021-07-08T12:38:20Z</time>
      </trkpt>
      <trkpt lat="41.1247" lon="-6.77443">
        <ele>242.5666</ele>
        <time>2021-07-08T12:38:31Z</time>
      </trkpt>
      <trkpt lat="41.12337" lon="-6.77474">
        <ele>253.7723</ele>
        <time>2021-07-08T12:38:42Z</time>
      </trkpt>
      <trkpt lat="41.12213" lon="-6.77447">
        <ele>266.7989</ele>
        <time>2021-07-08T12:38:53Z</time>
      </trkpt>
      <trkpt lat="41.12093" lon="-6.77411">
        <ele>285.3348</ele>
        <time>2021-07-08T12:39:04Z</time>
      </trkpt>
      <trkpt lat="41.12042" lon="-6.77485">
        <ele>273.551</ele>
        <time>2021-07-08T12:39:15Z</time>
      </trkpt>
      <trkpt lat="41.11962" lon="-6.77495">
        <ele>274.9023</ele>
        <time>2021-07-08T12:39:26Z</time>
      </trkpt>
      <trkpt lat="41.11855" lon="-6.77522">
        <ele>285.9258</ele>
        <time>2021-07-08T12:39:37Z</time>
      </trkpt>
      <trkpt lat="41.11737" lon="-6.77472">
        <ele>288.2451</ele>
        <time>2021-07-08T12:39:48Z</time>
      </trkpt>
      <trkpt lat="41.11659" lon="-6.77382">
        <ele>301.1623</ele>
        <time>2021-07-08T12:39:59Z</time>
      </trkpt>
      <trkpt lat="41.11539" lon="-6.77309">
        <ele>320.4102</ele>
        <time>2021-07-08T12:40:10Z</time>
      </trkpt>
      <trkpt lat="41.11395" lon="-6.77226">
        <ele>340.6514</ele>
        <time>2021-07-08T12:40:21Z</time>
      </trkpt>
      <trkpt lat="41.11275" lon="-6.77217">
        <ele>356.7395</ele>
        <time>2021-07-08T12:40:32Z</time>
      </trkpt>
      <trkpt lat="41.11243" lon="-6.77206">
        <ele>352.3235</ele>
        <time>2021-07-08T12:40:43Z</time>
      </trkpt>
      <trkpt lat="41.11198" lon="-6.77239">
        <ele>344.3235</ele>
        <time>2021-07-08T12:40:54Z</time>
      </trkpt>
      <trkpt lat="41.11135" lon="-6.77166">
        <ele>341.1949</ele>
        <time>2021-07-08T12:41:05Z</time>
      </trkpt>
      <trkpt lat="41.11064" lon="-6.77089">
        <ele>329.0915</ele>
        <time>2021-07-08T12:41:16Z</time>
      </trkpt>
      <trkpt lat="41.11001" lon="-6.77036">
        <ele>321.0402</ele>
        <time>2021-07-08T12:41:27Z</time>
      </trkpt>
      <trkpt lat="41.10914" lon="-6.76963">
        <ele>312.3411</ele>
        <time>2021-07-08T12:41:38Z</time>
      </trkpt>
      <trkpt lat="41.10844" lon="-6.76863">
        <ele>315.853</ele>
        <time>2021-07-08T12:41:49Z</time>
      </trkpt>
      <trkpt lat="41.10783" lon="-6.76844">
        <ele>316.391</ele>
        <time>2021-07-08T12:42:00Z</time>
      </trkpt>
      <trkpt lat="41.10707" lon="-6.7687">
        <ele>303.3761</ele>
        <time>2021-07-08T12:42:11Z</time>
      </trkpt>
      <trkpt lat="41.10626" lon="-6.76895">
        <ele>294.9412</ele>
        <time>2021-07-08T12:42:22Z</time>
      </trkpt>
      <trkpt lat="41.10585" lon="-6.76953">
        <ele>301.964</ele>
        <time>2021-07-08T12:42:33Z</time>
      </trkpt>
      <trkpt lat="41.10595" lon="-6.77021">
        <ele>314.6957</ele>
        <time>2021-07-08T12:42:44Z</time>
      </trkpt>
      <trkpt lat="41.10543" lon="-6.77042">
        <ele>329.0134</ele>
        <time>2021-07-08T12:42:55Z</time>
      </trkpt>
      <trkpt lat="41.10587" lon="-6.77075">
        <ele>336.793</ele>
        <time>2021-07-08T12:43:06Z</time>
      </trkpt>
      <trkpt lat="41.10606" lon="-6.77117">
        <ele>336.4631</ele>
        <time>2021-07-08T12:43:17Z</time>
      </trkpt>
      <trkpt lat="41.10581" lon="-6.77209">
        <ele>339.7735</ele>
        <time>2021-07-08T12:43:28Z</time>
      </trkpt>
      <trkpt lat="41.10534" lon="-6.77291">
        <ele>336.538</ele>
        <time>2021-07-08T12:43:39Z</time>
      </trkpt>
      <trkpt lat="41.10477" lon="-6.77335">
        <ele>342.8728</ele>
        <time>2021-07-08T12:43:50Z</time>
      </trkpt>
      <trkpt lat="41.10415" lon="-6.77362">
        <ele>348.8392</ele>
        <time>2021-07-08T12:44:01Z</time>
      </trkpt>
      <trkpt lat="41.10414" lon="-6.77438">
        <ele>374.1338</ele>
        <time>2021-07-08T12:44:12Z</time>
      </trkpt>
      <trkpt lat="41.10413" lon="-6.77527">
        <ele>386.2049</ele>
        <time>2021-07-08T12:44:23Z</time>
      </trkpt>
      <trkpt lat="41.10428" lon="-6.77603">
        <ele>384.0795</ele>
        <time>2021-07-08T12:44:34Z</time>
      </trkpt>
      <trkpt lat="41.10472" lon="-6.77662">
        <ele>375.5085</ele>
        <time>2021-07-08T12:44:45Z</time>
      </trkpt>
      <trkpt lat="41.10502" lon="-6.77719">
        <ele>377.7918</ele>
        <time>2021-07-08T12:44:56Z</time>
      </trkpt>
      <trkpt lat="41.10474" lon="-6.77808">
        <ele>381.4135</ele>
        <time>2021-07-08T12:45:07Z</time>
      </trkpt>
      <trkpt lat="41.10456" lon="-6.77941">
        <ele>377.2347</ele>
        <time>2021-07-08T12:45:18Z</time>
      </trkpt>
      <trkpt lat="41.10363" lon="-6.77974">
        <ele>377.3115</ele>
        <time>2021-07-08T12:45:29Z</time>
      </trkpt>
      <trkpt lat="41.10306" lon="-6.7803">
        <ele>367.9401</ele>
        <time>2021-07-08T12:45:40Z</time>
      </trkpt>
      <trkpt lat="41.10351" lon="-6.78119">
        <ele>419.8138</ele>
        <time>2021-07-08T12:45:51Z</time>
      </trkpt>
      <trkpt lat="41.10401" lon="-6.78234">
        <ele>446.5256</ele>
        <time>2021-07-08T12:46:02Z</time>
      </trkpt>
      <trkpt lat="41.10454" lon="-6.78269">
        <ele>443.6017</ele>
        <time>2021-07-08T12:46:13Z</time>
      </trkpt>
      <trkpt lat="41.10394" lon="-6.78266">
        <ele>447.28</ele>
        <time>2021-07-08T12:46:24Z</time>
      </trkpt>
      <trkpt lat="41.10295" lon="-6.78246">
        <ele>446.3039</ele>
        <time>2021-07-08T12:46:35Z</time>
      </trkpt>
      <trkpt lat="41.10288" lon="-6.78273">
        <ele>454.3742</ele>
        <time>2021-07-08T12:46:46Z</time>
      </trkpt>
      <trkpt lat="41.10332" lon="-6.78346">
        <ele>465.4935</ele>
        <time>2021-07-08T12:46:57Z</time>
      </trkpt>
      <trkpt lat="41.10253" lon="-6.78421">
        <ele>479.988</ele>
        <time>2021-07-08T12:47:08Z</time>
      </trkpt>
      <trkpt lat="41.10304" lon="-6.78522">
        <ele>487.0112</ele>
        <time>2021-07-08T12:47:19Z</time>
      </trkpt>
      <trkpt lat="41.10334" lon="-6.78636">
        <ele>493.684</ele>
        <time>2021-07-08T12:47:30Z</time>
      </trkpt>
      <trkpt lat="41.1039" lon="-6.78733">
        <ele>495.5771</ele>
        <time>2021-07-08T12:47:41Z</time>
      </trkpt>
      <trkpt lat="41.10461" lon="-6.78814">
        <ele>505.6908</ele>
        <time>2021-07-08T12:47:52Z</time>
      </trkpt>
      <trkpt lat="41.10463" lon="-6.78905">
        <ele>515.7733</ele>
        <time>2021-07-08T12:48:03Z</time>
      </trkpt>
      <trkpt lat="41.10445" lon="-6.78919">
        <ele>524.709</ele>
        <time>2021-07-08T12:48:14Z</time>
      </trkpt>
      <trkpt lat="41.10365" lon="-6.78923">
        <ele>519.2355</ele>
        <time>2021-07-08T12:48:25Z</time>
      </trkpt>
      <trkpt lat="41.10282" lon="-6.78958">
        <ele>517.3031</ele>
        <time>2021-07-08T12:48:36Z</time>
      </trkpt>
      <trkpt lat="41.10204" lon="-6.79">
        <ele>509.2426</ele>
        <time>2021-07-08T12:48:47Z</time>
      </trkpt>
      <trkpt lat="41.10118" lon="-6.79053">
        <ele>504.4916</ele>
        <time>2021-07-08T12:48:58Z</time>
      </trkpt>
      <trkpt lat="41.10124" lon="-6.79105">
        <ele>503.4524</ele>
        <time>2021-07-08T12:49:09Z</time>
      </trkpt>
      <trkpt lat="41.10124" lon="-6.7919">
        <ele>499.0338</ele>
        <time>2021-07-08T12:49:20Z</time>
      </trkpt>
      <trkpt lat="41.10106" lon="-6.79257">
        <ele>487.6711</ele>
        <time>2021-07-08T12:49:31Z</time>
      </trkpt>
      <trkpt lat="41.10056" lon="-6.79305">
        <ele>489.4298</ele>
        <time>2021-07-08T12:49:42Z</time>
      </trkpt>
      <trkpt lat="41.10019" lon="-6.79396">
        <ele>492.984</ele>
        <time>2021-07-08T12:49:53Z</time>
      </trkpt>
      <trkpt lat="41.09972" lon="-6.79468">
        <ele>490.2117</ele>
        <time>2021-07-08T12:50:04Z</time>
      </trkpt>
      <trkpt lat="41.09935" lon="-6.79536">
        <ele>480.8874</ele>
        <time>2021-07-08T12:50:15Z</time>
      </trkpt>
      <trkpt lat="41.09929" lon="-6.79544">
        <ele>488.0183</ele>
        <time>2021-07-08T12:50:26Z</time>
      </trkpt>
      <trkpt lat="41.0993" lon="-6.79545">
        <ele>486.9782</ele>
        <time>2021-07-08T12:51:26Z</time>
      </trkpt>
      <trkpt lat="41.09923" lon="-6.79578">
        <ele>482.3359</ele>
        <time>2021-07-08T12:51:37Z</time>
      </trkpt>
      <trkpt lat="41.09935" lon="-6.79641">
        <ele>476.7093</ele>
        <time>2021-07-08T12:51:48Z</time>
      </trkpt>
      <trkpt lat="41.09962" lon="-6.79707">
        <ele>473.3007</ele>
        <time>2021-07-08T12:51:59Z</time>
      </trkpt>
      <trkpt lat="41.09963" lon="-6.79777">
        <ele>465.441</ele>
        <time>2021-07-08T12:52:10Z</time>
      </trkpt>
      <trkpt lat="41.09912" lon="-6.79814">
        <ele>463.3073</ele>
        <time>2021-07-08T12:52:21Z</time>
      </trkpt>
      <trkpt lat="41.09841" lon="-6.79818">
        <ele>465.5118</ele>
        <time>2021-07-08T12:52:32Z</time>
      </trkpt>
      <trkpt lat="41.09772" lon="-6.79814">
        <ele>468.2889</ele>
        <time>2021-07-08T12:52:43Z</time>
      </trkpt>
      <trkpt lat="41.09705" lon="-6.79827">
        <ele>458.3431</ele>
        <time>2021-07-08T12:52:54Z</time>
      </trkpt>
      <trkpt lat="41.09657" lon="-6.79843">
        <ele>439.9639</ele>
        <time>2021-07-08T12:53:05Z</time>
      </trkpt>
      <trkpt lat="41.09608" lon="-6.79887">
        <ele>441.072</ele>
        <time>2021-07-08T12:53:16Z</time>
      </trkpt>
      <trkpt lat="41.09586" lon="-6.79971">
        <ele>438.7546</ele>
        <time>2021-07-08T12:53:27Z</time>
      </trkpt>
      <trkpt lat="41.09606" lon="-6.80062">
        <ele>430.1282</ele>
        <time>2021-07-08T12:53:38Z</time>
      </trkpt>
      <trkpt lat="41.09615" lon="-6.80107">
        <ele>431.0996</ele>
        <time>2021-07-08T12:53:49Z</time>
      </trkpt>
      <trkpt lat="41.09612" lon="-6.80114">
        <ele>437.8817</ele>
        <time>2021-07-08T12:54:00Z</time>
      </trkpt>
      <trkpt lat="41.09614" lon="-6.80125">
        <ele>435.2343</ele>
        <time>2021-07-08T12:54:11Z</time>
      </trkpt>
      <trkpt lat="41.09614" lon="-6.80116">
        <ele>435.1517</ele>
        <time>2021-07-08T12:54:22Z</time>
      </trkpt>
      <trkpt lat="41.09614" lon="-6.80106">
        <ele>435.1943</ele>
        <time>2021-07-08T12:54:34Z</time>
      </trkpt>
      <trkpt lat="41.09591" lon="-6.80013">
        <ele>440.6002</ele>
        <time>2021-07-08T12:54:45Z</time>
      </trkpt>
      <trkpt lat="41.09589" lon="-6.80016">
        <ele>436.803</ele>
        <time>2021-07-08T12:54:59Z</time>
      </trkpt>
      <trkpt lat="41.09593" lon="-6.80053">
        <ele>428.8377</ele>
        <time>2021-07-08T12:55:10Z</time>
      </trkpt>
      <trkpt lat="41.09594" lon="-6.80079">
        <ele>424.6781</ele>
        <time>2021-07-08T12:55:21Z</time>
      </trkpt>
      <trkpt lat="41.09585" lon="-6.80099">
        <ele>419.8628</ele>
        <time>2021-07-08T12:55:32Z</time>
      </trkpt>
      <trkpt lat="41.09582" lon="-6.8014">
        <ele>411.9106</ele>
        <time>2021-07-08T12:55:43Z</time>
      </trkpt>
      <trkpt lat="41.09576" lon="-6.8018">
        <ele>406.5209</ele>
        <time>2021-07-08T12:55:54Z</time>
      </trkpt>
      <trkpt lat="41.09566" lon="-6.8021">
        <ele>407.8051</ele>
        <time>2021-07-08T12:56:05Z</time>
      </trkpt>
      <trkpt lat="41.09549" lon="-6.8026">
        <ele>408.5918</ele>
        <time>2021-07-08T12:56:16Z</time>
      </trkpt>
      <trkpt lat="41.09532" lon="-6.80238">
        <ele>411.6731</ele>
        <time>2021-07-08T12:56:27Z</time>
      </trkpt>
      <trkpt lat="41.09518" lon="-6.80211">
        <ele>417.4696</ele>
        <time>2021-07-08T12:56:38Z</time>
      </trkpt>
      <trkpt lat="41.09489" lon="-6.80262">
        <ele>423.2168</ele>
        <time>2021-07-08T12:56:49Z</time>
      </trkpt>
      <trkpt lat="41.09453" lon="-6.80317">
        <ele>426.4832</ele>
        <time>2021-07-08T12:57:00Z</time>
      </trkpt>
      <trkpt lat="41.09394" lon="-6.80355">
        <ele>427.4521</ele>
        <time>2021-07-08T12:57:11Z</time>
      </trkpt>
      <trkpt lat="41.09362" lon="-6.80403">
        <ele>436.0263</ele>
        <time>2021-07-08T12:57:22Z</time>
      </trkpt>
      <trkpt lat="41.09327" lon="-6.80477">
        <ele>447.7455</ele>
        <time>2021-07-08T12:57:33Z</time>
      </trkpt>
      <trkpt lat="41.09301" lon="-6.80536">
        <ele>459.4716</ele>
        <time>2021-07-08T12:57:44Z</time>
      </trkpt>
      <trkpt lat="41.09259" lon="-6.80562">
        <ele>465.2769</ele>
        <time>2021-07-08T12:57:55Z</time>
      </trkpt>
      <trkpt lat="41.09218" lon="-6.80565">
        <ele>471.4548</ele>
        <time>2021-07-08T12:58:06Z</time>
      </trkpt>
      <trkpt lat="41.09176" lon="-6.80605">
        <ele>466.0202</ele>
        <time>2021-07-08T12:58:17Z</time>
      </trkpt>
      <trkpt lat="41.09142" lon="-6.8062">
        <ele>466.3988</ele>
        <time>2021-07-08T12:58:28Z</time>
      </trkpt>
      <trkpt lat="41.09083" lon="-6.80657">
        <ele>465.2722</ele>
        <time>2021-07-08T12:58:39Z</time>
      </trkpt>
      <trkpt lat="41.09051" lon="-6.80728">
        <ele>466.6073</ele>
        <time>2021-07-08T12:58:50Z</time>
      </trkpt>
      <trkpt lat="41.09011" lon="-6.80774">
        <ele>465.3582</ele>
        <time>2021-07-08T12:59:01Z</time>
      </trkpt>
      <trkpt lat="41.08999" lon="-6.80791">
        <ele>466.7216</ele>
        <time>2021-07-08T12:59:12Z</time>
      </trkpt>
      <trkpt lat="41.09015" lon="-6.80822">
        <ele>468.2328</ele>
        <time>2021-07-08T12:59:23Z</time>
      </trkpt>
      <trkpt lat="41.09041" lon="-6.80855">
        <ele>470.2174</ele>
        <time>2021-07-08T12:59:34Z</time>
      </trkpt>
      <trkpt lat="41.09037" lon="-6.80852">
        <ele>472.3238</ele>
        <time>2021-07-08T12:59:45Z</time>
      </trkpt>
      <trkpt lat="41.09007" lon="-6.80816">
        <ele>468.6974</ele>
        <time>2021-07-08T12:59:56Z</time>
      </trkpt>
      <trkpt lat="41.08968" lon="-6.80796">
        <ele>463.5063</ele>
        <time>2021-07-08T13:00:07Z</time>
      </trkpt>
      <trkpt lat="41.08939" lon="-6.80861">
        <ele>462.0851</ele>
        <time>2021-07-08T13:00:18Z</time>
      </trkpt>
      <trkpt lat="41.08906" lon="-6.80865">
        <ele>458.4313</ele>
        <time>2021-07-08T13:00:29Z</time>
      </trkpt>
      <trkpt lat="41.08988" lon="-6.80908">
        <ele>459.9951</ele>
        <time>2021-07-08T13:00:40Z</time>
      </trkpt>
      <trkpt lat="41.09008" lon="-6.80957">
        <ele>465.884</ele>
        <time>2021-07-08T13:00:51Z</time>
      </trkpt>
      <trkpt lat="41.09005" lon="-6.8096">
        <ele>472.4873</ele>
        <time>2021-07-08T13:01:04Z</time>
      </trkpt>
      <trkpt lat="41.09003" lon="-6.8096">
        <ele>480.2374</ele>
        <time>2021-07-08T13:02:04Z</time>
      </trkpt>
      <trkpt lat="41.08967" lon="-6.80909">
        <ele>476.0572</ele>
        <time>2021-07-08T13:02:15Z</time>
      </trkpt>
      <trkpt lat="41.08903" lon="-6.80902">
        <ele>468.2167</ele>
        <time>2021-07-08T13:02:26Z</time>
      </trkpt>
      <trkpt lat="41.08852" lon="-6.81022">
        <ele>469.7615</ele>
        <time>2021-07-08T13:02:37Z</time>
      </trkpt>
      <trkpt lat="41.08801" lon="-6.81123">
        <ele>474.408</ele>
        <time>2021-07-08T13:02:48Z</time>
      </trkpt>
      <trkpt lat="41.08725" lon="-6.81229">
        <ele>488.1142</ele>
        <time>2021-07-08T13:02:59Z</time>
      </trkpt>
      <trkpt lat="41.08702" lon="-6.81332">
        <ele>501.4376</ele>
        <time>2021-07-08T13:03:10Z</time>
      </trkpt>
      <trkpt lat="41.08596" lon="-6.81363">
        <ele>510.1668</ele>
        <time>2021-07-08T13:03:21Z</time>
      </trkpt>
      <trkpt lat="41.08492" lon="-6.81489">
        <ele>519.4575</ele>
        <time>2021-07-08T13:03:32Z</time>
      </trkpt>
      <trkpt lat="41.08462" lon="-6.81519">
        <ele>522.9408</ele>
        <time>2021-07-08T13:03:43Z</time>
      </trkpt>
      <trkpt lat="41.08395" lon="-6.81595">
        <ele>516.6092</ele>
        <time>2021-07-08T13:03:54Z</time>
      </trkpt>
      <trkpt lat="41.08306" lon="-6.81649">
        <ele>514.1424</ele>
        <time>2021-07-08T13:04:05Z</time>
      </trkpt>
      <trkpt lat="41.08238" lon="-6.81753">
        <ele>523.2031</ele>
        <time>2021-07-08T13:04:16Z</time>
      </trkpt>
      <trkpt lat="41.08196" lon="-6.81873">
        <ele>520.4979</ele>
        <time>2021-07-08T13:04:27Z</time>
      </trkpt>
      <trkpt lat="41.08168" lon="-6.82">
        <ele>519.3224</ele>
        <time>2021-07-08T13:04:38Z</time>
      </trkpt>
      <trkpt lat="41.08098" lon="-6.82121">
        <ele>531.8485</ele>
        <time>2021-07-08T13:04:49Z</time>
      </trkpt>
      <trkpt lat="41.08074" lon="-6.82281">
        <ele>541.842</ele>
        <time>2021-07-08T13:05:00Z</time>
      </trkpt>
      <trkpt lat="41.08063" lon="-6.82333">
        <ele>540.7738</ele>
        <time>2021-07-08T13:05:11Z</time>
      </trkpt>
      <trkpt lat="41.07971" lon="-6.82347">
        <ele>542.151</ele>
        <time>2021-07-08T13:05:22Z</time>
      </trkpt>
      <trkpt lat="41.07943" lon="-6.82307">
        <ele>543.6353</ele>
        <time>2021-07-08T13:05:33Z</time>
      </trkpt>
      <trkpt lat="41.07924" lon="-6.82225">
        <ele>539.644</ele>
        <time>2021-07-08T13:05:44Z</time>
      </trkpt>
      <trkpt lat="41.07879" lon="-6.82241">
        <ele>530.8232</ele>
        <time>2021-07-08T13:05:55Z</time>
      </trkpt>
      <trkpt lat="41.07816" lon="-6.82306">
        <ele>520.9104</ele>
        <time>2021-07-08T13:06:06Z</time>
      </trkpt>
      <trkpt lat="41.07735" lon="-6.82342">
        <ele>515.4716</ele>
        <time>2021-07-08T13:06:17Z</time>
      </trkpt>
      <trkpt lat="41.07673" lon="-6.82394">
        <ele>504.9792</ele>
        <time>2021-07-08T13:06:28Z</time>
      </trkpt>
      <trkpt lat="41.07633" lon="-6.82379">
        <ele>501.4382</ele>
        <time>2021-07-08T13:06:39Z</time>
      </trkpt>
      <trkpt lat="41.0757" lon="-6.82436">
        <ele>497.0698</ele>
        <time>2021-07-08T13:06:50Z</time>
      </trkpt>
      <trkpt lat="41.07504" lon="-6.82436">
        <ele>489.3997</ele>
        <time>2021-07-08T13:07:01Z</time>
      </trkpt>
      <trkpt lat="41.07422" lon="-6.82476">
        <ele>484.5271</ele>
        <time>2021-07-08T13:07:12Z</time>
      </trkpt>
      <trkpt lat="41.07335" lon="-6.82473">
        <ele>479.8438</ele>
        <time>2021-07-08T13:07:23Z</time>
      </trkpt>
      <trkpt lat="41.07266" lon="-6.82458">
        <ele>474.4763</ele>
        <time>2021-07-08T13:07:34Z</time>
      </trkpt>
      <trkpt lat="41.07196" lon="-6.82453">
        <ele>470.7321</ele>
        <time>2021-07-08T13:07:45Z</time>
      </trkpt>
      <trkpt lat="41.07115" lon="-6.82467">
        <ele>466.6293</ele>
        <time>2021-07-08T13:07:56Z</time>
      </trkpt>
      <trkpt lat="41.07061" lon="-6.82537">
        <ele>461.0902</ele>
        <time>2021-07-08T13:08:07Z</time>
      </trkpt>
      <trkpt lat="41.06988" lon="-6.82577">
        <ele>456.0906</ele>
        <time>2021-07-08T13:08:18Z</time>
      </trkpt>
      <trkpt lat="41.06895" lon="-6.82606">
        <ele>453.7392</ele>
        <time>2021-07-08T13:08:29Z</time>
      </trkpt>
      <trkpt lat="41.06819" lon="-6.82588">
        <ele>460.2035</ele>
        <time>2021-07-08T13:08:40Z</time>
      </trkpt>
      <trkpt lat="41.06778" lon="-6.82673">
        <ele>461.0661</ele>
        <time>2021-07-08T13:08:51Z</time>
      </trkpt>
      <trkpt lat="41.06741" lon="-6.82754">
        <ele>458.2505</ele>
        <time>2021-07-08T13:09:02Z</time>
      </trkpt>
      <trkpt lat="41.06722" lon="-6.82825">
        <ele>453.957</ele>
        <time>2021-07-08T13:09:13Z</time>
      </trkpt>
      <trkpt lat="41.06654" lon="-6.82792">
        <ele>466.2584</ele>
        <time>2021-07-08T13:09:24Z</time>
      </trkpt>
      <trkpt lat="41.06614" lon="-6.82733">
        <ele>473.525</ele>
        <time>2021-07-08T13:09:35Z</time>
      </trkpt>
      <trkpt lat="41.06558" lon="-6.82711">
        <ele>468.5928</ele>
        <time>2021-07-08T13:09:46Z</time>
      </trkpt>
      <trkpt lat="41.06551" lon="-6.82642">
        <ele>466.5163</ele>
        <time>2021-07-08T13:09:57Z</time>
      </trkpt>
      <trkpt lat="41.06553" lon="-6.82557">
        <ele>479.9497</ele>
        <time>2021-07-08T13:10:08Z</time>
      </trkpt>
      <trkpt lat="41.06513" lon="-6.82543">
        <ele>491.0139</ele>
        <time>2021-07-08T13:10:19Z</time>
      </trkpt>
      <trkpt lat="41.06483" lon="-6.82587">
        <ele>499.3648</ele>
        <time>2021-07-08T13:10:30Z</time>
      </trkpt>
      <trkpt lat="41.06429" lon="-6.82647">
        <ele>506.6749</ele>
        <time>2021-07-08T13:10:41Z</time>
      </trkpt>
      <trkpt lat="41.06367" lon="-6.82717">
        <ele>516.5982</ele>
        <time>2021-07-08T13:10:52Z</time>
      </trkpt>
      <trkpt lat="41.06314" lon="-6.82766">
        <ele>526.9336</ele>
        <time>2021-07-08T13:11:03Z</time>
      </trkpt>
      <trkpt lat="41.06307" lon="-6.82738">
        <ele>534.2332</ele>
        <time>2021-07-08T13:11:14Z</time>
      </trkpt>
      <trkpt lat="41.06303" lon="-6.82746">
        <ele>535.5953</ele>
        <time>2021-07-08T13:11:25Z</time>
      </trkpt>
      <trkpt lat="41.06301" lon="-6.82755">
        <ele>537.2572</ele>
        <time>2021-07-08T13:11:36Z</time>
      </trkpt>
      <trkpt lat="41.06274" lon="-6.82744">
        <ele>544.5722</ele>
        <time>2021-07-08T13:11:47Z</time>
      </trkpt>
      <trkpt lat="41.06296" lon="-6.82776">
        <ele>547.6126</ele>
        <time>2021-07-08T13:11:58Z</time>
      </trkpt>
      <trkpt lat="41.06286" lon="-6.82774">
        <ele>547.1694</ele>
        <time>2021-07-08T13:12:09Z</time>
      </trkpt>
      <trkpt lat="41.06303" lon="-6.8275">
        <ele>551.6655</ele>
        <time>2021-07-08T13:12:20Z</time>
      </trkpt>
      <trkpt lat="41.06311" lon="-6.82726">
        <ele>553.4736</ele>
        <time>2021-07-08T13:12:31Z</time>
      </trkpt>
      <trkpt lat="41.06313" lon="-6.82721">
        <ele>554.1732</ele>
        <time>2021-07-08T13:12:44Z</time>
      </trkpt>
      <trkpt lat="41.06313" lon="-6.8272">
        <ele>554.4012</ele>
        <time>2021-07-08T13:13:44Z</time>
      </trkpt>
      <trkpt lat="41.0628" lon="-6.82701">
        <ele>554.4012</ele>
        <time>2021-07-08T13:14:19Z</time>
      </trkpt>
      <trkpt lat="41.0628" lon="-6.82701">
        <ele>554.4012</ele>
        <time>2021-07-08T13:15:19Z</time>
      </trkpt>
      <trkpt lat="41.0628" lon="-6.82701">
        <ele>554.4012</ele>
        <time>2021-07-08T13:16:19Z</time>
      </trkpt>
      <trkpt lat="41.0628" lon="-6.82701">
        <ele>554.4012</ele>
        <time>2021-07-08T13:17:19Z</time>
      </trkpt>
      <trkpt lat="41.0628" lon="-6.82701">
        <ele>554.4012</ele>
        <time>2021-07-08T13:18:19Z</time>
      </trkpt>
      <trkpt lat="41.06283" lon="-6.82707">
        <ele>552.993</ele>
        <time>2021-07-08T13:18:30Z</time>
      </trkpt>
      <trkpt lat="41.06285" lon="-6.82698">
        <ele>551.7334</ele>
        <time>2021-07-08T13:19:03Z</time>
      </trkpt>
      <trkpt lat="41.06324" lon="-6.82631">
        <ele>552.5339</ele>
        <time>2021-07-08T13:19:14Z</time>
      </trkpt>
      <trkpt lat="41.0634" lon="-6.82586">
        <ele>550.1532</ele>
        <time>2021-07-08T13:19:25Z</time>
      </trkpt>
      <trkpt lat="41.06337" lon="-6.8256">
        <ele>553.613</ele>
        <time>2021-07-08T13:19:36Z</time>
      </trkpt>
      <trkpt lat="41.06335" lon="-6.82508">
        <ele>559.3357</ele>
        <time>2021-07-08T13:19:47Z</time>
      </trkpt>
      <trkpt lat="41.06304" lon="-6.8255">
        <ele>571.5624</ele>
        <time>2021-07-08T13:19:58Z</time>
      </trkpt>
      <trkpt lat="41.06256" lon="-6.82618">
        <ele>584.3597</ele>
        <time>2021-07-08T13:20:09Z</time>
      </trkpt>
      <trkpt lat="41.06236" lon="-6.82612">
        <ele>591.0029</ele>
        <time>2021-07-08T13:20:20Z</time>
      </trkpt>
      <trkpt lat="41.06237" lon="-6.82604">
        <ele>591.9514</ele>
        <time>2021-07-08T13:20:31Z</time>
      </trkpt>
      <trkpt lat="41.06241" lon="-6.82547">
        <ele>597.374</ele>
        <time>2021-07-08T13:20:42Z</time>
      </trkpt>
      <trkpt lat="41.06233" lon="-6.82457">
        <ele>611.8388</ele>
        <time>2021-07-08T13:20:53Z</time>
      </trkpt>
      <trkpt lat="41.06229" lon="-6.82433">
        <ele>619.1126</ele>
        <time>2021-07-08T13:21:04Z</time>
      </trkpt>
      <trkpt lat="41.06194" lon="-6.82514">
        <ele>625.269</ele>
        <time>2021-07-08T13:21:15Z</time>
      </trkpt>
      <trkpt lat="41.06182" lon="-6.82548">
        <ele>629.7731</ele>
        <time>2021-07-08T13:21:26Z</time>
      </trkpt>
      <trkpt lat="41.06177" lon="-6.82474">
        <ele>634.7698</ele>
        <time>2021-07-08T13:21:37Z</time>
      </trkpt>
      <trkpt lat="41.06177" lon="-6.82392">
        <ele>644.5298</ele>
        <time>2021-07-08T13:21:48Z</time>
      </trkpt>
      <trkpt lat="41.06161" lon="-6.82406">
        <ele>651.4078</ele>
        <time>2021-07-08T13:21:59Z</time>
      </trkpt>
      <trkpt lat="41.06119" lon="-6.82469">
        <ele>656.4907</ele>
        <time>2021-07-08T13:22:10Z</time>
      </trkpt>
      <trkpt lat="41.06086" lon="-6.8243">
        <ele>664.1636</ele>
        <time>2021-07-08T13:22:21Z</time>
      </trkpt>
      <trkpt lat="41.06063" lon="-6.82346">
        <ele>676.5891</ele>
        <time>2021-07-08T13:22:32Z</time>
      </trkpt>
      <trkpt lat="41.0605" lon="-6.82279">
        <ele>679.3475</ele>
        <time>2021-07-08T13:22:43Z</time>
      </trkpt>
      <trkpt lat="41.06011" lon="-6.82195">
        <ele>672.838</ele>
        <time>2021-07-08T13:22:54Z</time>
      </trkpt>
      <trkpt lat="41.0596" lon="-6.82113">
        <ele>664.4799</ele>
        <time>2021-07-08T13:23:05Z</time>
      </trkpt>
      <trkpt lat="41.05932" lon="-6.82037">
        <ele>669.8395</ele>
        <time>2021-07-08T13:23:16Z</time>
      </trkpt>
      <trkpt lat="41.05865" lon="-6.82059">
        <ele>687.5711</ele>
        <time>2021-07-08T13:23:27Z</time>
      </trkpt>
      <trkpt lat="41.05792" lon="-6.82092">
        <ele>698.2575</ele>
        <time>2021-07-08T13:23:38Z</time>
      </trkpt>
      <trkpt lat="41.05723" lon="-6.82126">
        <ele>703.5682</ele>
        <time>2021-07-08T13:23:49Z</time>
      </trkpt>
      <trkpt lat="41.05653" lon="-6.82152">
        <ele>709.5432</ele>
        <time>2021-07-08T13:24:00Z</time>
      </trkpt>
      <trkpt lat="41.05674" lon="-6.82053">
        <ele>717.711</ele>
        <time>2021-07-08T13:24:11Z</time>
      </trkpt>
      <trkpt lat="41.0569" lon="-6.81954">
        <ele>725.195</ele>
        <time>2021-07-08T13:24:22Z</time>
      </trkpt>
      <trkpt lat="41.05672" lon="-6.8192">
        <ele>725.8399</ele>
        <time>2021-07-08T13:24:33Z</time>
      </trkpt>
      <trkpt lat="41.05652" lon="-6.81899">
        <ele>721.756</ele>
        <time>2021-07-08T13:24:44Z</time>
      </trkpt>
      <trkpt lat="41.05605" lon="-6.81897">
        <ele>712.557</ele>
        <time>2021-07-08T13:24:55Z</time>
      </trkpt>
      <trkpt lat="41.05562" lon="-6.81898">
        <ele>704.7171</ele>
        <time>2021-07-08T13:25:06Z</time>
      </trkpt>
      <trkpt lat="41.05513" lon="-6.81901">
        <ele>698.4131</ele>
        <time>2021-07-08T13:25:17Z</time>
      </trkpt>
      <trkpt lat="41.05438" lon="-6.81889">
        <ele>690.0774</ele>
        <time>2021-07-08T13:25:28Z</time>
      </trkpt>
      <trkpt lat="41.05373" lon="-6.81879">
        <ele>682.3399</ele>
        <time>2021-07-08T13:25:39Z</time>
      </trkpt>
      <trkpt lat="41.05309" lon="-6.81886">
        <ele>680.1877</ele>
        <time>2021-07-08T13:25:50Z</time>
      </trkpt>
      <trkpt lat="41.05157" lon="-6.81951">
        <ele>680.9143</ele>
        <time>2021-07-08T13:26:01Z</time>
      </trkpt>
      <trkpt lat="41.05001" lon="-6.82081">
        <ele>697.0792</ele>
        <time>2021-07-08T13:26:12Z</time>
      </trkpt>
      <trkpt lat="41.04845" lon="-6.82123">
        <ele>700.3816</ele>
        <time>2021-07-08T13:26:23Z</time>
      </trkpt>
      <trkpt lat="41.0475" lon="-6.82123">
        <ele>696.0588</ele>
        <time>2021-07-08T13:26:34Z</time>
      </trkpt>
      <trkpt lat="41.04681" lon="-6.8197">
        <ele>686.5466</ele>
        <time>2021-07-08T13:26:45Z</time>
      </trkpt>
      <trkpt lat="41.04676" lon="-6.81905">
        <ele>679.9934</ele>
        <time>2021-07-08T13:26:56Z</time>
      </trkpt>
      <trkpt lat="41.04677" lon="-6.81904">
        <ele>679.1859</ele>
        <time>2021-07-08T13:27:55Z</time>
      </trkpt>
      <trkpt lat="41.04676" lon="-6.81905">
        <ele>678.7034</ele>
        <time>2021-07-08T13:28:53Z</time>
      </trkpt>
      <trkpt lat="41.04667" lon="-6.81895">
        <ele>678.4896</ele>
        <time>2021-07-08T13:29:04Z</time>
      </trkpt>
      <trkpt lat="41.04666" lon="-6.81894">
        <ele>677.5897</ele>
        <time>2021-07-08T13:30:03Z</time>
      </trkpt>
      <trkpt lat="41.04669" lon="-6.81886">
        <ele>676.9503</ele>
        <time>2021-07-08T13:30:14Z</time>
      </trkpt>
      <trkpt lat="41.04673" lon="-6.81883">
        <ele>675.5484</ele>
        <time>2021-07-08T13:30:45Z</time>
      </trkpt>
      <trkpt lat="41.04678" lon="-6.81883">
        <ele>675.9495</ele>
        <time>2021-07-08T13:30:56Z</time>
      </trkpt>
      <trkpt lat="41.04677" lon="-6.81888">
        <ele>677.7615</ele>
        <time>2021-07-08T13:31:15Z</time>
      </trkpt>
      <trkpt lat="41.0467" lon="-6.81892">
        <ele>678.9547</ele>
        <time>2021-07-08T13:31:26Z</time>
      </trkpt>
      <trkpt lat="41.04667" lon="-6.81895">
        <ele>678.6165</ele>
        <time>2021-07-08T13:31:56Z</time>
      </trkpt>
      <trkpt lat="41.04668" lon="-6.81894">
        <ele>678.6001</ele>
        <time>2021-07-08T13:32:56Z</time>
      </trkpt>
      <trkpt lat="41.04666" lon="-6.81894">
        <ele>678.4959</ele>
        <time>2021-07-08T13:33:56Z</time>
      </trkpt>
      <trkpt lat="41.04671" lon="-6.81882">
        <ele>676.8481</ele>
        <time>2021-07-08T13:34:07Z</time>
      </trkpt>
      <trkpt lat="41.04671" lon="-6.81888">
        <ele>678.1879</ele>
        <time>2021-07-08T13:34:23Z</time>
      </trkpt>
      <trkpt lat="41.04668" lon="-6.81893">
        <ele>679.0146</ele>
        <time>2021-07-08T13:34:34Z</time>
      </trkpt>
      <trkpt lat="41.04667" lon="-6.81896">
        <ele>679.1379</ele>
        <time>2021-07-08T13:35:33Z</time>
      </trkpt>
      <trkpt lat="41.04671" lon="-6.81898">
        <ele>680.1512</ele>
        <time>2021-07-08T13:36:22Z</time>
      </trkpt>
      <trkpt lat="41.04667" lon="-6.819">
        <ele>679.124</ele>
        <time>2021-07-08T13:36:40Z</time>
      </trkpt>
      <trkpt lat="41.04669" lon="-6.81895">
        <ele>679.5809</ele>
        <time>2021-07-08T13:37:01Z</time>
      </trkpt>
      <trkpt lat="41.04667" lon="-6.81895">
        <ele>679.2553</ele>
        <time>2021-07-08T13:38:01Z</time>
      </trkpt>
      <trkpt lat="41.04668" lon="-6.81895">
        <ele>678.8986</ele>
        <time>2021-07-08T13:39:00Z</time>
      </trkpt>
      <trkpt lat="41.04666" lon="-6.81895">
        <ele>677.0951</ele>
        <time>2021-07-08T13:39:59Z</time>
      </trkpt>
      <trkpt lat="41.04666" lon="-6.8189">
        <ele>677.9374</ele>
        <time>2021-07-08T13:40:32Z</time>
      </trkpt>
      <trkpt lat="41.04666" lon="-6.8189">
        <ele>675.6998</ele>
        <time>2021-07-08T13:41:32Z</time>
      </trkpt>
      <trkpt lat="41.04666" lon="-6.8189">
        <ele>673.6355</ele>
        <time>2021-07-08T13:42:32Z</time>
      </trkpt>
      <trkpt lat="41.04666" lon="-6.81895">
        <ele>678.5826</ele>
        <time>2021-07-08T13:43:24Z</time>
      </trkpt>
      <trkpt lat="41.04666" lon="-6.81892">
        <ele>678.1879</ele>
        <time>2021-07-08T13:44:24Z</time>
      </trkpt>
      <trkpt lat="41.04666" lon="-6.81892">
        <ele>677.3975</ele>
        <time>2021-07-08T13:45:23Z</time>
      </trkpt>
      <trkpt lat="41.04667" lon="-6.81892">
        <ele>678.2728</ele>
        <time>2021-07-08T13:46:23Z</time>
      </trkpt>
      <trkpt lat="41.04666" lon="-6.81894">
        <ele>677.9482</ele>
        <time>2021-07-08T13:47:22Z</time>
      </trkpt>
      <trkpt lat="41.04667" lon="-6.81895">
        <ele>678.8022</ele>
        <time>2021-07-08T13:48:22Z</time>
      </trkpt>
      <trkpt lat="41.04667" lon="-6.81895">
        <ele>678.2074</ele>
        <time>2021-07-08T13:49:22Z</time>
      </trkpt>
      <trkpt lat="41.04666" lon="-6.81892">
        <ele>676.08</ele>
        <time>2021-07-08T13:50:21Z</time>
      </trkpt>
      <trkpt lat="41.04666" lon="-6.81893">
        <ele>678.0709</ele>
        <time>2021-07-08T13:51:20Z</time>
      </trkpt>
      <trkpt lat="41.04667" lon="-6.81894">
        <ele>678.1398</ele>
        <time>2021-07-08T13:52:18Z</time>
      </trkpt>
      <trkpt lat="41.04669" lon="-6.81899">
        <ele>679.3843</ele>
        <time>2021-07-08T13:52:52Z</time>
      </trkpt>
      <trkpt lat="41.04669" lon="-6.81894">
        <ele>679.2945</ele>
        <time>2021-07-08T13:53:24Z</time>
      </trkpt>
      <trkpt lat="41.04666" lon="-6.81893">
        <ele>678.1719</ele>
        <time>2021-07-08T13:54:23Z</time>
      </trkpt>
      <trkpt lat="41.04666" lon="-6.81894">
        <ele>677.3503</ele>
        <time>2021-07-08T13:55:22Z</time>
      </trkpt>
      <trkpt lat="41.04667" lon="-6.81898">
        <ele>678.5336</ele>
        <time>2021-07-08T13:56:20Z</time>
      </trkpt>
      <trkpt lat="41.04678" lon="-6.81898">
        <ele>679.51</ele>
        <time>2021-07-08T13:56:31Z</time>
      </trkpt>
      <trkpt lat="41.04673" lon="-6.81896">
        <ele>679.6524</ele>
        <time>2021-07-08T13:56:43Z</time>
      </trkpt>
      <trkpt lat="41.04669" lon="-6.81897">
        <ele>678.9059</ele>
        <time>2021-07-08T13:57:32Z</time>
      </trkpt>
      <trkpt lat="41.04667" lon="-6.81895">
        <ele>677.8221</ele>
        <time>2021-07-08T13:58:31Z</time>
      </trkpt>
      <trkpt lat="41.04667" lon="-6.81893">
        <ele>677.6208</ele>
        <time>2021-07-08T13:59:31Z</time>
      </trkpt>
      <trkpt lat="41.04667" lon="-6.81891">
        <ele>677.6695</ele>
        <time>2021-07-08T14:00:30Z</time>
      </trkpt>
      <trkpt lat="41.04666" lon="-6.81895">
        <ele>678.3039</ele>
        <time>2021-07-08T14:01:24Z</time>
      </trkpt>
      <trkpt lat="41.04667" lon="-6.81895">
        <ele>678.9194</ele>
        <time>2021-07-08T14:02:23Z</time>
      </trkpt>
      <trkpt lat="41.04667" lon="-6.81896">
        <ele>678.8556</ele>
        <time>2021-07-08T14:03:22Z</time>
      </trkpt>
      <trkpt lat="41.04667" lon="-6.81894">
        <ele>678.1756</ele>
        <time>2021-07-08T14:04:21Z</time>
      </trkpt>
      <trkpt lat="41.04669" lon="-6.81895">
        <ele>678.5789</ele>
        <time>2021-07-08T14:05:20Z</time>
      </trkpt>
      <trkpt lat="41.04669" lon="-6.81894">
        <ele>678.1009</ele>
        <time>2021-07-08T14:06:19Z</time>
      </trkpt>
      <trkpt lat="41.04668" lon="-6.81894">
        <ele>678.9296</ele>
        <time>2021-07-08T14:07:18Z</time>
      </trkpt>
      <trkpt lat="41.04668" lon="-6.81895">
        <ele>679.1497</ele>
        <time>2021-07-08T14:08:17Z</time>
      </trkpt>
      <trkpt lat="41.04666" lon="-6.81894">
        <ele>678.1287</ele>
        <time>2021-07-08T14:09:16Z</time>
      </trkpt>
      <trkpt lat="41.04666" lon="-6.81893">
        <ele>678.3237</ele>
        <time>2021-07-08T14:10:15Z</time>
      </trkpt>
      <trkpt lat="41.04667" lon="-6.81894">
        <ele>678.4774</ele>
        <time>2021-07-08T14:11:14Z</time>
      </trkpt>
      <trkpt lat="41.04666" lon="-6.81894">
        <ele>677.591</ele>
        <time>2021-07-08T14:12:13Z</time>
      </trkpt>
      <trkpt lat="41.04667" lon="-6.81895">
        <ele>677.8754</ele>
        <time>2021-07-08T14:13:11Z</time>
      </trkpt>
      <trkpt lat="41.04667" lon="-6.81894">
        <ele>678.3838</ele>
        <time>2021-07-08T14:14:10Z</time>
      </trkpt>
      <trkpt lat="41.04667" lon="-6.81895">
        <ele>678.3157</ele>
        <time>2021-07-08T14:15:09Z</time>
      </trkpt>
      <trkpt lat="41.04668" lon="-6.81894">
        <ele>678.3461</ele>
        <time>2021-07-08T14:16:09Z</time>
      </trkpt>
      <trkpt lat="41.04666" lon="-6.81894">
        <ele>678.2156</ele>
        <time>2021-07-08T14:17:09Z</time>
      </trkpt>
      <trkpt lat="41.04667" lon="-6.81894">
        <ele>678.0096</ele>
        <time>2021-07-08T14:18:09Z</time>
      </trkpt>
      <trkpt lat="41.04666" lon="-6.81895">
        <ele>678.4976</ele>
        <time>2021-07-08T14:19:09Z</time>
      </trkpt>
      <trkpt lat="41.04666" lon="-6.81896">
        <ele>677.7439</ele>
        <time>2021-07-08T14:20:09Z</time>
      </trkpt>
      <trkpt lat="41.04668" lon="-6.81895">
        <ele>678.9034</ele>
        <time>2021-07-08T14:21:09Z</time>
      </trkpt>
      <trkpt lat="41.04666" lon="-6.81895">
        <ele>678.0903</ele>
        <time>2021-07-08T14:22:08Z</time>
      </trkpt>
      <trkpt lat="41.04668" lon="-6.81897">
        <ele>679.361</ele>
        <time>2021-07-08T14:23:07Z</time>
      </trkpt>
      <trkpt lat="41.04668" lon="-6.81895">
        <ele>679.1122</ele>
        <time>2021-07-08T14:24:06Z</time>
      </trkpt>
      <trkpt lat="41.04667" lon="-6.81895">
        <ele>679.0682</ele>
        <time>2021-07-08T14:25:05Z</time>
      </trkpt>
      <trkpt lat="41.04669" lon="-6.81899">
        <ele>679.6414</ele>
        <time>2021-07-08T14:25:17Z</time>
      </trkpt>
      <trkpt lat="41.04669" lon="-6.81899">
        <ele>679.8909</ele>
        <time>2021-07-08T14:26:17Z</time>
      </trkpt>
      <trkpt lat="41.04669" lon="-6.81896">
        <ele>678.7917</ele>
        <time>2021-07-08T14:27:15Z</time>
      </trkpt>
      <trkpt lat="41.04669" lon="-6.81893">
        <ele>678.6702</ele>
        <time>2021-07-08T14:28:14Z</time>
      </trkpt>
      <trkpt lat="41.04669" lon="-6.81896">
        <ele>679.107</ele>
        <time>2021-07-08T14:29:13Z</time>
      </trkpt>
      <trkpt lat="41.04669" lon="-6.81896">
        <ele>679.107</ele>
        <time>2021-07-08T14:30:12Z</time>
      </trkpt>
      <trkpt lat="41.04669" lon="-6.81896">
        <ele>679.107</ele>
        <time>2021-07-08T14:31:11Z</time>
      </trkpt>
      <trkpt lat="41.0467" lon="-6.81896">
        <ele>678.9106</ele>
        <time>2021-07-08T14:32:10Z</time>
      </trkpt>
      <trkpt lat="41.04674" lon="-6.81896">
        <ele>679.2556</ele>
        <time>2021-07-08T14:32:22Z</time>
      </trkpt>
      <trkpt lat="41.04701" lon="-6.81995">
        <ele>689.1654</ele>
        <time>2021-07-08T14:32:33Z</time>
      </trkpt>
      <trkpt lat="41.0475" lon="-6.82113">
        <ele>695.32</ele>
        <time>2021-07-08T14:32:44Z</time>
      </trkpt>
      <trkpt lat="41.04716" lon="-6.82184">
        <ele>698.162</ele>
        <time>2021-07-08T14:32:55Z</time>
      </trkpt>
      <trkpt lat="41.04634" lon="-6.82268">
        <ele>699.8847</ele>
        <time>2021-07-08T14:33:06Z</time>
      </trkpt>
      <trkpt lat="41.04577" lon="-6.82413">
        <ele>701.1864</ele>
        <time>2021-07-08T14:33:17Z</time>
      </trkpt>
      <trkpt lat="41.04539" lon="-6.82567">
        <ele>700.3579</ele>
        <time>2021-07-08T14:33:28Z</time>
      </trkpt>
      <trkpt lat="41.04507" lon="-6.82708">
        <ele>696.9734</ele>
        <time>2021-07-08T14:33:39Z</time>
      </trkpt>
      <trkpt lat="41.04481" lon="-6.82857">
        <ele>685.9341</ele>
        <time>2021-07-08T14:33:50Z</time>
      </trkpt>
      <trkpt lat="41.04468" lon="-6.83023">
        <ele>687.7219</ele>
        <time>2021-07-08T14:34:01Z</time>
      </trkpt>
      <trkpt lat="41.04422" lon="-6.83165">
        <ele>697.8127</ele>
        <time>2021-07-08T14:34:12Z</time>
      </trkpt>
      <trkpt lat="41.04335" lon="-6.83262">
        <ele>703.6198</ele>
        <time>2021-07-08T14:34:23Z</time>
      </trkpt>
      <trkpt lat="41.0422" lon="-6.83346">
        <ele>691.7553</ele>
        <time>2021-07-08T14:34:34Z</time>
      </trkpt>
      <trkpt lat="41.04146" lon="-6.83451">
        <ele>689.206</ele>
        <time>2021-07-08T14:34:45Z</time>
      </trkpt>
      <trkpt lat="41.04056" lon="-6.83587">
        <ele>694.9702</ele>
        <time>2021-07-08T14:34:56Z</time>
      </trkpt>
      <trkpt lat="41.04059" lon="-6.83741">
        <ele>689.9757</ele>
        <time>2021-07-08T14:35:07Z</time>
      </trkpt>
      <trkpt lat="41.04093" lon="-6.8388">
        <ele>684.4295</ele>
        <time>2021-07-08T14:35:18Z</time>
      </trkpt>
      <trkpt lat="41.04108" lon="-6.84026">
        <ele>679.3843</ele>
        <time>2021-07-08T14:35:29Z</time>
      </trkpt>
      <trkpt lat="41.0411" lon="-6.8418">
        <ele>677.5546</ele>
        <time>2021-07-08T14:35:40Z</time>
      </trkpt>
      <trkpt lat="41.04114" lon="-6.84321">
        <ele>672.7731</ele>
        <time>2021-07-08T14:35:51Z</time>
      </trkpt>
      <trkpt lat="41.0412" lon="-6.84524">
        <ele>678.5891</ele>
        <time>2021-07-08T14:36:02Z</time>
      </trkpt>
      <trkpt lat="41.04124" lon="-6.84737">
        <ele>671.9513</ele>
        <time>2021-07-08T14:36:13Z</time>
      </trkpt>
      <trkpt lat="41.0411" lon="-6.84921">
        <ele>672.3784</ele>
        <time>2021-07-08T14:36:24Z</time>
      </trkpt>
      <trkpt lat="41.0408" lon="-6.8511">
        <ele>674.9939</ele>
        <time>2021-07-08T14:36:35Z</time>
      </trkpt>
      <trkpt lat="41.04101" lon="-6.85207">
        <ele>667.9625</ele>
        <time>2021-07-08T14:36:46Z</time>
      </trkpt>
      <trkpt lat="41.04138" lon="-6.85313">
        <ele>657.4934</ele>
        <time>2021-07-08T14:36:57Z</time>
      </trkpt>
      <trkpt lat="41.04154" lon="-6.85462">
        <ele>660.7113</ele>
        <time>2021-07-08T14:37:08Z</time>
      </trkpt>
      <trkpt lat="41.04166" lon="-6.85607">
        <ele>668.0275</ele>
        <time>2021-07-08T14:37:19Z</time>
      </trkpt>
      <trkpt lat="41.04161" lon="-6.85707">
        <ele>662.2053</ele>
        <time>2021-07-08T14:37:30Z</time>
      </trkpt>
      <trkpt lat="41.04144" lon="-6.85771">
        <ele>656.1474</ele>
        <time>2021-07-08T14:37:41Z</time>
      </trkpt>
      <trkpt lat="41.04146" lon="-6.85838">
        <ele>650.6363</ele>
        <time>2021-07-08T14:37:52Z</time>
      </trkpt>
      <trkpt lat="41.04174" lon="-6.85916">
        <ele>642.8264</ele>
        <time>2021-07-08T14:38:03Z</time>
      </trkpt>
      <trkpt lat="41.04221" lon="-6.8599">
        <ele>635.9783</ele>
        <time>2021-07-08T14:38:14Z</time>
      </trkpt>
      <trkpt lat="41.04288" lon="-6.86046">
        <ele>641.6997</ele>
        <time>2021-07-08T14:38:25Z</time>
      </trkpt>
      <trkpt lat="41.04373" lon="-6.86126">
        <ele>646.8997</ele>
        <time>2021-07-08T14:38:36Z</time>
      </trkpt>
      <trkpt lat="41.04439" lon="-6.86203">
        <ele>647.8199</ele>
        <time>2021-07-08T14:38:47Z</time>
      </trkpt>
      <trkpt lat="41.04453" lon="-6.86274">
        <ele>643.9817</ele>
        <time>2021-07-08T14:38:58Z</time>
      </trkpt>
      <trkpt lat="41.04383" lon="-6.86385">
        <ele>644.4876</ele>
        <time>2021-07-08T14:39:09Z</time>
      </trkpt>
      <trkpt lat="41.04381" lon="-6.86534">
        <ele>642.8177</ele>
        <time>2021-07-08T14:39:20Z</time>
      </trkpt>
      <trkpt lat="41.04377" lon="-6.86712">
        <ele>646.567</ele>
        <time>2021-07-08T14:39:31Z</time>
      </trkpt>
      <trkpt lat="41.04365" lon="-6.86868">
        <ele>656.0594</ele>
        <time>2021-07-08T14:39:42Z</time>
      </trkpt>
      <trkpt lat="41.04358" lon="-6.86992">
        <ele>650.0871</ele>
        <time>2021-07-08T14:39:53Z</time>
      </trkpt>
      <trkpt lat="41.04345" lon="-6.87137">
        <ele>641.781</ele>
        <time>2021-07-08T14:40:04Z</time>
      </trkpt>
      <trkpt lat="41.04338" lon="-6.87283">
        <ele>640.7671</ele>
        <time>2021-07-08T14:40:15Z</time>
      </trkpt>
      <trkpt lat="41.04353" lon="-6.87403">
        <ele>651.0718</ele>
        <time>2021-07-08T14:40:26Z</time>
      </trkpt>
      <trkpt lat="41.04366" lon="-6.87549">
        <ele>660.7472</ele>
        <time>2021-07-08T14:40:37Z</time>
      </trkpt>
      <trkpt lat="41.04371" lon="-6.87705">
        <ele>664.5859</ele>
        <time>2021-07-08T14:40:48Z</time>
      </trkpt>
      <trkpt lat="41.04356" lon="-6.87832">
        <ele>664.1514</ele>
        <time>2021-07-08T14:40:59Z</time>
      </trkpt>
      <trkpt lat="41.04339" lon="-6.87948">
        <ele>658.4399</ele>
        <time>2021-07-08T14:41:10Z</time>
      </trkpt>
      <trkpt lat="41.04357" lon="-6.88109">
        <ele>657.6029</ele>
        <time>2021-07-08T14:41:21Z</time>
      </trkpt>
      <trkpt lat="41.04321" lon="-6.88255">
        <ele>659.088</ele>
        <time>2021-07-08T14:41:32Z</time>
      </trkpt>
      <trkpt lat="41.04255" lon="-6.88369">
        <ele>662.2145</ele>
        <time>2021-07-08T14:41:43Z</time>
      </trkpt>
      <trkpt lat="41.04252" lon="-6.88491">
        <ele>655.4957</ele>
        <time>2021-07-08T14:41:54Z</time>
      </trkpt>
      <trkpt lat="41.04267" lon="-6.88578">
        <ele>657.9033</ele>
        <time>2021-07-08T14:42:05Z</time>
      </trkpt>
      <trkpt lat="41.04266" lon="-6.8856">
        <ele>657.1364</ele>
        <time>2021-07-08T14:42:16Z</time>
      </trkpt>
      <trkpt lat="41.04262" lon="-6.88526">
        <ele>654.7336</ele>
        <time>2021-07-08T14:42:27Z</time>
      </trkpt>
      <trkpt lat="41.04216" lon="-6.88498">
        <ele>648.7114</ele>
        <time>2021-07-08T14:42:38Z</time>
      </trkpt>
      <trkpt lat="41.04174" lon="-6.88478">
        <ele>646.5279</ele>
        <time>2021-07-08T14:42:49Z</time>
      </trkpt>
      <trkpt lat="41.04174" lon="-6.88499">
        <ele>642.0424</ele>
        <time>2021-07-08T14:43:00Z</time>
      </trkpt>
      <trkpt lat="41.04187" lon="-6.88548">
        <ele>636.1154</ele>
        <time>2021-07-08T14:43:11Z</time>
      </trkpt>
      <trkpt lat="41.0419" lon="-6.8863">
        <ele>635.9615</ele>
        <time>2021-07-08T14:43:22Z</time>
      </trkpt>
      <trkpt lat="41.04183" lon="-6.88714">
        <ele>634.9765</ele>
        <time>2021-07-08T14:43:33Z</time>
      </trkpt>
      <trkpt lat="41.04185" lon="-6.88758">
        <ele>631.7428</ele>
        <time>2021-07-08T14:43:44Z</time>
      </trkpt>
      <trkpt lat="41.04185" lon="-6.88802">
        <ele>624.7382</ele>
        <time>2021-07-08T14:43:55Z</time>
      </trkpt>
      <trkpt lat="41.04192" lon="-6.88866">
        <ele>617.0963</ele>
        <time>2021-07-08T14:44:06Z</time>
      </trkpt>
      <trkpt lat="41.04197" lon="-6.8892">
        <ele>610.1594</ele>
        <time>2021-07-08T14:44:17Z</time>
      </trkpt>
      <trkpt lat="41.04203" lon="-6.88986">
        <ele>602.1009</ele>
        <time>2021-07-08T14:44:28Z</time>
      </trkpt>
      <trkpt lat="41.04209" lon="-6.8905">
        <ele>594.2884</ele>
        <time>2021-07-08T14:44:39Z</time>
      </trkpt>
      <trkpt lat="41.04211" lon="-6.89121">
        <ele>585.8774</ele>
        <time>2021-07-08T14:44:50Z</time>
      </trkpt>
      <trkpt lat="41.04212" lon="-6.89198">
        <ele>573.9687</ele>
        <time>2021-07-08T14:45:01Z</time>
      </trkpt>
      <trkpt lat="41.04218" lon="-6.89246">
        <ele>568.9894</ele>
        <time>2021-07-08T14:45:12Z</time>
      </trkpt>
      <trkpt lat="41.04218" lon="-6.89245">
        <ele>569.6456</ele>
        <time>2021-07-08T14:46:12Z</time>
      </trkpt>
      <trkpt lat="41.04219" lon="-6.89251">
        <ele>569.9133</ele>
        <time>2021-07-08T14:46:44Z</time>
      </trkpt>
      <trkpt lat="41.0422" lon="-6.89258">
        <ele>567.4288</ele>
        <time>2021-07-08T14:47:35Z</time>
      </trkpt>
      <trkpt lat="41.04236" lon="-6.89303">
        <ele>563.2113</ele>
        <time>2021-07-08T14:47:46Z</time>
      </trkpt>
      <trkpt lat="41.0425" lon="-6.89344">
        <ele>555.3858</ele>
        <time>2021-07-08T14:47:57Z</time>
      </trkpt>
      <trkpt lat="41.04275" lon="-6.89409">
        <ele>547.0792</ele>
        <time>2021-07-08T14:48:08Z</time>
      </trkpt>
      <trkpt lat="41.04293" lon="-6.89486">
        <ele>537.811</ele>
        <time>2021-07-08T14:48:19Z</time>
      </trkpt>
      <trkpt lat="41.04303" lon="-6.89536">
        <ele>532.6263</ele>
        <time>2021-07-08T14:48:30Z</time>
      </trkpt>
      <trkpt lat="41.04272" lon="-6.895">
        <ele>524.6582</ele>
        <time>2021-07-08T14:48:41Z</time>
      </trkpt>
      <trkpt lat="41.04231" lon="-6.89438">
        <ele>517.5241</ele>
        <time>2021-07-08T14:48:52Z</time>
      </trkpt>
      <trkpt lat="41.04173" lon="-6.89382">
        <ele>506.1753</ele>
        <time>2021-07-08T14:49:03Z</time>
      </trkpt>
      <trkpt lat="41.04106" lon="-6.89334">
        <ele>498.663</ele>
        <time>2021-07-08T14:49:14Z</time>
      </trkpt>
      <trkpt lat="41.04075" lon="-6.89249">
        <ele>489.7053</ele>
        <time>2021-07-08T14:49:25Z</time>
      </trkpt>
      <trkpt lat="41.04045" lon="-6.89142">
        <ele>486.8457</ele>
        <time>2021-07-08T14:49:36Z</time>
      </trkpt>
      <trkpt lat="41.03992" lon="-6.89041">
        <ele>481.4327</ele>
        <time>2021-07-08T14:49:47Z</time>
      </trkpt>
      <trkpt lat="41.03958" lon="-6.88935">
        <ele>468.6191</ele>
        <time>2021-07-08T14:49:58Z</time>
      </trkpt>
      <trkpt lat="41.0393" lon="-6.88894">
        <ele>465.4441</ele>
        <time>2021-07-08T14:50:09Z</time>
      </trkpt>
      <trkpt lat="41.03935" lon="-6.88933">
        <ele>463.7287</ele>
        <time>2021-07-08T14:50:20Z</time>
      </trkpt>
      <trkpt lat="41.03927" lon="-6.89021">
        <ele>454.0207</ele>
        <time>2021-07-08T14:50:31Z</time>
      </trkpt>
      <trkpt lat="41.03878" lon="-6.89088">
        <ele>441.5903</ele>
        <time>2021-07-08T14:50:42Z</time>
      </trkpt>
      <trkpt lat="41.03882" lon="-6.89113">
        <ele>438.0236</ele>
        <time>2021-07-08T14:50:53Z</time>
      </trkpt>
      <trkpt lat="41.03923" lon="-6.8916">
        <ele>432.1485</ele>
        <time>2021-07-08T14:51:04Z</time>
      </trkpt>
      <trkpt lat="41.03954" lon="-6.89223">
        <ele>423.041</ele>
        <time>2021-07-08T14:51:15Z</time>
      </trkpt>
      <trkpt lat="41.03948" lon="-6.89302">
        <ele>421.4506</ele>
        <time>2021-07-08T14:51:26Z</time>
      </trkpt>
      <trkpt lat="41.03942" lon="-6.89313">
        <ele>418.413</ele>
        <time>2021-07-08T14:51:37Z</time>
      </trkpt>
      <trkpt lat="41.03922" lon="-6.89359">
        <ele>412.9897</ele>
        <time>2021-07-08T14:51:48Z</time>
      </trkpt>
      <trkpt lat="41.03895" lon="-6.89431">
        <ele>405.388</ele>
        <time>2021-07-08T14:51:59Z</time>
      </trkpt>
      <trkpt lat="41.03896" lon="-6.89492">
        <ele>398.9254</ele>
        <time>2021-07-08T14:52:10Z</time>
      </trkpt>
      <trkpt lat="41.03946" lon="-6.89536">
        <ele>389.8156</ele>
        <time>2021-07-08T14:52:21Z</time>
      </trkpt>
      <trkpt lat="41.03992" lon="-6.89596">
        <ele>380.122</ele>
        <time>2021-07-08T14:52:32Z</time>
      </trkpt>
      <trkpt lat="41.04009" lon="-6.89644">
        <ele>378.1791</ele>
        <time>2021-07-08T14:52:43Z</time>
      </trkpt>
      <trkpt lat="41.03961" lon="-6.89683">
        <ele>366.798</ele>
        <time>2021-07-08T14:52:54Z</time>
      </trkpt>
      <trkpt lat="41.03936" lon="-6.89741">
        <ele>359.1098</ele>
        <time>2021-07-08T14:53:05Z</time>
      </trkpt>
      <trkpt lat="41.03945" lon="-6.89799">
        <ele>350.6903</ele>
        <time>2021-07-08T14:53:16Z</time>
      </trkpt>
      <trkpt lat="41.03979" lon="-6.89825">
        <ele>345.1395</ele>
        <time>2021-07-08T14:53:27Z</time>
      </trkpt>
      <trkpt lat="41.03948" lon="-6.89834">
        <ele>338.9209</ele>
        <time>2021-07-08T14:53:38Z</time>
      </trkpt>
      <trkpt lat="41.03896" lon="-6.89827">
        <ele>333.006</ele>
        <time>2021-07-08T14:53:49Z</time>
      </trkpt>
      <trkpt lat="41.03892" lon="-6.89831">
        <ele>331.1604</ele>
        <time>2021-07-08T14:54:00Z</time>
      </trkpt>
      <trkpt lat="41.03911" lon="-6.89868">
        <ele>324.6413</ele>
        <time>2021-07-08T14:54:11Z</time>
      </trkpt>
      <trkpt lat="41.03971" lon="-6.89909">
        <ele>316.879</ele>
        <time>2021-07-08T14:54:22Z</time>
      </trkpt>
      <trkpt lat="41.03986" lon="-6.89923">
        <ele>310.7219</ele>
        <time>2021-07-08T14:54:33Z</time>
      </trkpt>
      <trkpt lat="41.03939" lon="-6.8993">
        <ele>306.5302</ele>
        <time>2021-07-08T14:54:44Z</time>
      </trkpt>
      <trkpt lat="41.03941" lon="-6.89955">
        <ele>300.0375</ele>
        <time>2021-07-08T14:54:55Z</time>
      </trkpt>
      <trkpt lat="41.03967" lon="-6.9001">
        <ele>291.825</ele>
        <time>2021-07-08T14:55:06Z</time>
      </trkpt>
      <trkpt lat="41.03935" lon="-6.90002">
        <ele>286.9835</ele>
        <time>2021-07-08T14:55:17Z</time>
      </trkpt>
      <trkpt lat="41.03918" lon="-6.89999">
        <ele>284.0289</ele>
        <time>2021-07-08T14:55:28Z</time>
      </trkpt>
      <trkpt lat="41.03928" lon="-6.90047">
        <ele>281.1079</ele>
        <time>2021-07-08T14:55:39Z</time>
      </trkpt>
      <trkpt lat="41.03945" lon="-6.90075">
        <ele>277.1244</ele>
        <time>2021-07-08T14:55:50Z</time>
      </trkpt>
      <trkpt lat="41.03998" lon="-6.90056">
        <ele>273.0404</ele>
        <time>2021-07-08T14:56:01Z</time>
      </trkpt>
      <trkpt lat="41.04043" lon="-6.90016">
        <ele>263.8887</ele>
        <time>2021-07-08T14:56:12Z</time>
      </trkpt>
      <trkpt lat="41.04076" lon="-6.90024">
        <ele>262.2985</ele>
        <time>2021-07-08T14:56:23Z</time>
      </trkpt>
      <trkpt lat="41.04112" lon="-6.90071">
        <ele>252.5878</ele>
        <time>2021-07-08T14:56:34Z</time>
      </trkpt>
      <trkpt lat="41.04168" lon="-6.90092">
        <ele>243.1845</ele>
        <time>2021-07-08T14:56:45Z</time>
      </trkpt>
      <trkpt lat="41.0417" lon="-6.90155">
        <ele>239.4592</ele>
        <time>2021-07-08T14:56:56Z</time>
      </trkpt>
      <trkpt lat="41.04155" lon="-6.90221">
        <ele>229.6791</ele>
        <time>2021-07-08T14:57:07Z</time>
      </trkpt>
      <trkpt lat="41.04139" lon="-6.90203">
        <ele>222.4978</ele>
        <time>2021-07-08T14:57:18Z</time>
      </trkpt>
      <trkpt lat="41.04119" lon="-6.90166">
        <ele>220.15</ele>
        <time>2021-07-08T14:57:29Z</time>
      </trkpt>
      <trkpt lat="41.04119" lon="-6.90172">
        <ele>219.0292</ele>
        <time>2021-07-08T14:57:51Z</time>
      </trkpt>
      <trkpt lat="41.04114" lon="-6.9021">
        <ele>215.3897</ele>
        <time>2021-07-08T14:58:02Z</time>
      </trkpt>
      <trkpt lat="41.04081" lon="-6.90268">
        <ele>207.5857</ele>
        <time>2021-07-08T14:58:13Z</time>
      </trkpt>
      <trkpt lat="41.04055" lon="-6.90335">
        <ele>198.784</ele>
        <time>2021-07-08T14:58:24Z</time>
      </trkpt>
      <trkpt lat="41.04085" lon="-6.90387">
        <ele>194.9002</ele>
        <time>2021-07-08T14:58:35Z</time>
      </trkpt>
      <trkpt lat="41.04054" lon="-6.90376">
        <ele>191.5405</ele>
        <time>2021-07-08T14:58:46Z</time>
      </trkpt>
      <trkpt lat="41.04025" lon="-6.90308">
        <ele>189.507</ele>
        <time>2021-07-08T14:58:57Z</time>
      </trkpt>
      <trkpt lat="41.04008" lon="-6.90258">
        <ele>191.7507</ele>
        <time>2021-07-08T14:59:08Z</time>
      </trkpt>
      <trkpt lat="41.0394" lon="-6.90299">
        <ele>190.7426</ele>
        <time>2021-07-08T14:59:19Z</time>
      </trkpt>
      <trkpt lat="41.03923" lon="-6.9037">
        <ele>179.7257</ele>
        <time>2021-07-08T14:59:30Z</time>
      </trkpt>
      <trkpt lat="41.03942" lon="-6.90437">
        <ele>170.2837</ele>
        <time>2021-07-08T14:59:41Z</time>
      </trkpt>
      <trkpt lat="41.03933" lon="-6.90538">
        <ele>162.5632</ele>
        <time>2021-07-08T14:59:52Z</time>
      </trkpt>
      <trkpt lat="41.03889" lon="-6.90536">
        <ele>160.2429</ele>
        <time>2021-07-08T15:00:03Z</time>
      </trkpt>
      <trkpt lat="41.03865" lon="-6.90502">
        <ele>156.9387</ele>
        <time>2021-07-08T15:00:14Z</time>
      </trkpt>
      <trkpt lat="41.0386" lon="-6.90528">
        <ele>154.116</ele>
        <time>2021-07-08T15:00:25Z</time>
      </trkpt>
      <trkpt lat="41.03885" lon="-6.90598">
        <ele>140.6489</ele>
        <time>2021-07-08T15:00:36Z</time>
      </trkpt>
      <trkpt lat="41.03855" lon="-6.90594">
        <ele>136.6227</ele>
        <time>2021-07-08T15:00:47Z</time>
      </trkpt>
      <trkpt lat="41.03796" lon="-6.90632">
        <ele>138.3576</ele>
        <time>2021-07-08T15:00:58Z</time>
      </trkpt>
      <trkpt lat="41.03781" lon="-6.90682">
        <ele>135.4058</ele>
        <time>2021-07-08T15:01:09Z</time>
      </trkpt>
      <trkpt lat="41.03821" lon="-6.90859">
        <ele>139.7251</ele>
        <time>2021-07-08T15:01:20Z</time>
      </trkpt>
      <trkpt lat="41.03897" lon="-6.91048">
        <ele>140.7899</ele>
        <time>2021-07-08T15:01:31Z</time>
      </trkpt>
      <trkpt lat="41.03935" lon="-6.91267">
        <ele>140.3449</ele>
        <time>2021-07-08T15:01:42Z</time>
      </trkpt>
      <trkpt lat="41.03972" lon="-6.91527">
        <ele>140.7035</ele>
        <time>2021-07-08T15:01:53Z</time>
      </trkpt>
      <trkpt lat="41.03986" lon="-6.91735">
        <ele>143.0604</ele>
        <time>2021-07-08T15:02:04Z</time>
      </trkpt>
      <trkpt lat="41.03919" lon="-6.91924">
        <ele>141.2717</ele>
        <time>2021-07-08T15:02:15Z</time>
      </trkpt>
      <trkpt lat="41.03854" lon="-6.92106">
        <ele>144.8533</ele>
        <time>2021-07-08T15:02:26Z</time>
      </trkpt>
      <trkpt lat="41.03727" lon="-6.92279">
        <ele>142.2112</ele>
        <time>2021-07-08T15:02:37Z</time>
      </trkpt>
      <trkpt lat="41.03554" lon="-6.9241">
        <ele>138.9094</ele>
        <time>2021-07-08T15:02:48Z</time>
      </trkpt>
      <trkpt lat="41.03434" lon="-6.92592">
        <ele>136.1839</ele>
        <time>2021-07-08T15:02:59Z</time>
      </trkpt>
      <trkpt lat="41.03319" lon="-6.92788">
        <ele>141.2509</ele>
        <time>2021-07-08T15:03:10Z</time>
      </trkpt>
      <trkpt lat="41.03237" lon="-6.92967">
        <ele>145.5388</ele>
        <time>2021-07-08T15:03:21Z</time>
      </trkpt>
      <trkpt lat="41.03155" lon="-6.93183">
        <ele>147.5396</ele>
        <time>2021-07-08T15:03:32Z</time>
      </trkpt>
      <trkpt lat="41.03177" lon="-6.93382">
        <ele>149.3239</ele>
        <time>2021-07-08T15:03:43Z</time>
      </trkpt>
      <trkpt lat="41.03161" lon="-6.93573">
        <ele>151.3513</ele>
        <time>2021-07-08T15:03:54Z</time>
      </trkpt>
      <trkpt lat="41.03089" lon="-6.93787">
        <ele>153.6181</ele>
        <time>2021-07-08T15:04:05Z</time>
      </trkpt>
      <trkpt lat="41.03087" lon="-6.94021">
        <ele>146.1453</ele>
        <time>2021-07-08T15:04:16Z</time>
      </trkpt>
      <trkpt lat="41.0301" lon="-6.94137">
        <ele>137.2155</ele>
        <time>2021-07-08T15:04:27Z</time>
      </trkpt>
      <trkpt lat="41.0286" lon="-6.94156">
        <ele>123.6748</ele>
        <time>2021-07-08T15:04:38Z</time>
      </trkpt>
      <trkpt lat="41.02774" lon="-6.94126">
        <ele>125.3938</ele>
        <time>2021-07-08T15:04:49Z</time>
      </trkpt>
      <trkpt lat="41.0274" lon="-6.94064">
        <ele>135.7404</ele>
        <time>2021-07-08T15:05:00Z</time>
      </trkpt>
      <trkpt lat="41.02785" lon="-6.94171">
        <ele>137.6965</ele>
        <time>2021-07-08T15:05:11Z</time>
      </trkpt>
      <trkpt lat="41.02828" lon="-6.94293">
        <ele>138.9259</ele>
        <time>2021-07-08T15:05:22Z</time>
      </trkpt>
      <trkpt lat="41.02849" lon="-6.94404">
        <ele>134.7762</ele>
        <time>2021-07-08T15:05:33Z</time>
      </trkpt>
      <trkpt lat="41.02854" lon="-6.94557">
        <ele>115.652</ele>
        <time>2021-07-08T15:05:44Z</time>
      </trkpt>
      <trkpt lat="41.02845" lon="-6.94679">
        <ele>46.96827</ele>
        <time>2021-07-08T15:05:55Z</time>
      </trkpt>
      <trkpt lat="41.02803" lon="-6.94699">
        <ele>144.0554</ele>
        <time>2021-07-08T15:06:06Z</time>
      </trkpt>
      <trkpt lat="41.02715" lon="-6.94713">
        <ele>147.7812</ele>
        <time>2021-07-08T15:06:17Z</time>
      </trkpt>
      <trkpt lat="41.02653" lon="-6.94763">
        <ele>154.2548</ele>
        <time>2021-07-08T15:06:28Z</time>
      </trkpt>
      <trkpt lat="41.02712" lon="-6.94786">
        <ele>156.5212</ele>
        <time>2021-07-08T15:06:39Z</time>
      </trkpt>
      <trkpt lat="41.0277" lon="-6.94818">
        <ele>161.1773</ele>
        <time>2021-07-08T15:06:50Z</time>
      </trkpt>
      <trkpt lat="41.02759" lon="-6.94826">
        <ele>163.244</ele>
        <time>2021-07-08T15:07:01Z</time>
      </trkpt>
      <trkpt lat="41.02763" lon="-6.94898">
        <ele>169.8271</ele>
        <time>2021-07-08T15:07:12Z</time>
      </trkpt>
      <trkpt lat="41.0275" lon="-6.94962">
        <ele>171.8393</ele>
        <time>2021-07-08T15:07:23Z</time>
      </trkpt>
      <trkpt lat="41.02745" lon="-6.94985">
        <ele>174.3833</ele>
        <time>2021-07-08T15:07:34Z</time>
      </trkpt>
      <trkpt lat="41.02745" lon="-6.94984">
        <ele>174.2916</ele>
        <time>2021-07-08T15:08:33Z</time>
      </trkpt>
      <trkpt lat="41.02746" lon="-6.94984">
        <ele>174.4896</ele>
        <time>2021-07-08T15:09:33Z</time>
      </trkpt>
      <trkpt lat="41.02741" lon="-6.95014">
        <ele>176.1599</ele>
        <time>2021-07-08T15:09:44Z</time>
      </trkpt>
      <trkpt lat="41.02733" lon="-6.95096">
        <ele>179.081</ele>
        <time>2021-07-08T15:09:55Z</time>
      </trkpt>
      <trkpt lat="41.02717" lon="-6.95045">
        <ele>185.1308</ele>
        <time>2021-07-08T15:10:06Z</time>
      </trkpt>
      <trkpt lat="41.02695" lon="-6.94932">
        <ele>192.2664</ele>
        <time>2021-07-08T15:10:17Z</time>
      </trkpt>
      <trkpt lat="41.02668" lon="-6.94956">
        <ele>198.5482</ele>
        <time>2021-07-08T15:10:28Z</time>
      </trkpt>
      <trkpt lat="41.02641" lon="-6.95062">
        <ele>215.0027</ele>
        <time>2021-07-08T15:10:39Z</time>
      </trkpt>
      <trkpt lat="41.02589" lon="-6.95135">
        <ele>229.2975</ele>
        <time>2021-07-08T15:10:50Z</time>
      </trkpt>
      <trkpt lat="41.02565" lon="-6.95197">
        <ele>224.3205</ele>
        <time>2021-07-08T15:11:01Z</time>
      </trkpt>
      <trkpt lat="41.0252" lon="-6.95249">
        <ele>212.0986</ele>
        <time>2021-07-08T15:11:12Z</time>
      </trkpt>
      <trkpt lat="41.02472" lon="-6.953">
        <ele>208.9073</ele>
        <time>2021-07-08T15:11:23Z</time>
      </trkpt>
      <trkpt lat="41.02469" lon="-6.95346">
        <ele>214.7439</ele>
        <time>2021-07-08T15:11:34Z</time>
      </trkpt>
      <trkpt lat="41.02453" lon="-6.95391">
        <ele>220.9343</ele>
        <time>2021-07-08T15:11:45Z</time>
      </trkpt>
      <trkpt lat="41.02409" lon="-6.95428">
        <ele>230.8086</ele>
        <time>2021-07-08T15:11:56Z</time>
      </trkpt>
      <trkpt lat="41.02338" lon="-6.95384">
        <ele>237.0585</ele>
        <time>2021-07-08T15:12:07Z</time>
      </trkpt>
      <trkpt lat="41.0225" lon="-6.95432">
        <ele>241.383</ele>
        <time>2021-07-08T15:12:18Z</time>
      </trkpt>
      <trkpt lat="41.02154" lon="-6.95465">
        <ele>252.3919</ele>
        <time>2021-07-08T15:12:29Z</time>
      </trkpt>
      <trkpt lat="41.02058" lon="-6.95492">
        <ele>265.8796</ele>
        <time>2021-07-08T15:12:40Z</time>
      </trkpt>
      <trkpt lat="41.01985" lon="-6.9551">
        <ele>264.1062</ele>
        <time>2021-07-08T15:12:51Z</time>
      </trkpt>
      <trkpt lat="41.01907" lon="-6.95518">
        <ele>262.34</ele>
        <time>2021-07-08T15:13:02Z</time>
      </trkpt>
      <trkpt lat="41.01835" lon="-6.95529">
        <ele>257.9117</ele>
        <time>2021-07-08T15:13:13Z</time>
      </trkpt>
      <trkpt lat="41.01808" lon="-6.95535">
        <ele>251.1719</ele>
        <time>2021-07-08T15:13:24Z</time>
      </trkpt>
      <trkpt lat="41.01806" lon="-6.95535">
        <ele>251.4229</ele>
        <time>2021-07-08T15:14:24Z</time>
      </trkpt>
      <trkpt lat="41.01802" lon="-6.95536">
        <ele>250.5231</ele>
        <time>2021-07-08T15:14:54Z</time>
      </trkpt>
      <trkpt lat="41.01731" lon="-6.95552">
        <ele>248.4936</ele>
        <time>2021-07-08T15:15:05Z</time>
      </trkpt>
      <trkpt lat="41.01655" lon="-6.95565">
        <ele>242.6724</ele>
        <time>2021-07-08T15:15:16Z</time>
      </trkpt>
      <trkpt lat="41.01593" lon="-6.95569">
        <ele>235.5649</ele>
        <time>2021-07-08T15:15:27Z</time>
      </trkpt>
      <trkpt lat="41.01521" lon="-6.95596">
        <ele>230.7164</ele>
        <time>2021-07-08T15:15:38Z</time>
      </trkpt>
      <trkpt lat="41.01439" lon="-6.95641">
        <ele>225.5842</ele>
        <time>2021-07-08T15:15:49Z</time>
      </trkpt>
      <trkpt lat="41.01379" lon="-6.95679">
        <ele>222.0851</ele>
        <time>2021-07-08T15:16:00Z</time>
      </trkpt>
      <trkpt lat="41.01286" lon="-6.95697">
        <ele>234.6836</ele>
        <time>2021-07-08T15:16:11Z</time>
      </trkpt>
      <trkpt lat="41.01181" lon="-6.95708">
        <ele>253.846</ele>
        <time>2021-07-08T15:16:22Z</time>
      </trkpt>
      <trkpt lat="41.0109" lon="-6.95692">
        <ele>268.6538</ele>
        <time>2021-07-08T15:16:33Z</time>
      </trkpt>
      <trkpt lat="41.01025" lon="-6.95645">
        <ele>255.0092</ele>
        <time>2021-07-08T15:16:44Z</time>
      </trkpt>
      <trkpt lat="41.00981" lon="-6.95564">
        <ele>255.3198</ele>
        <time>2021-07-08T15:16:55Z</time>
      </trkpt>
      <trkpt lat="41.00963" lon="-6.95453">
        <ele>262.9033</ele>
        <time>2021-07-08T15:17:06Z</time>
      </trkpt>
      <trkpt lat="41.00911" lon="-6.95368">
        <ele>265.8126</ele>
        <time>2021-07-08T15:17:17Z</time>
      </trkpt>
      <trkpt lat="41.00876" lon="-6.95254">
        <ele>271.0457</ele>
        <time>2021-07-08T15:17:28Z</time>
      </trkpt>
      <trkpt lat="41.00824" lon="-6.95162">
        <ele>273.3104</ele>
        <time>2021-07-08T15:17:39Z</time>
      </trkpt>
      <trkpt lat="41.00808" lon="-6.95103">
        <ele>278.0149</ele>
        <time>2021-07-08T15:17:50Z</time>
      </trkpt>
      <trkpt lat="41.00788" lon="-6.94994">
        <ele>277.0897</ele>
        <time>2021-07-08T15:18:01Z</time>
      </trkpt>
      <trkpt lat="41.00747" lon="-6.94908">
        <ele>279.8961</ele>
        <time>2021-07-08T15:18:12Z</time>
      </trkpt>
      <trkpt lat="41.00712" lon="-6.94864">
        <ele>287.3625</ele>
        <time>2021-07-08T15:18:23Z</time>
      </trkpt>
      <trkpt lat="41.00633" lon="-6.9489">
        <ele>289.6214</ele>
        <time>2021-07-08T15:18:34Z</time>
      </trkpt>
      <trkpt lat="41.0059" lon="-6.94853">
        <ele>291.9554</ele>
        <time>2021-07-08T15:18:45Z</time>
      </trkpt>
      <trkpt lat="41.0062" lon="-6.94828">
        <ele>282.9992</ele>
        <time>2021-07-08T15:18:56Z</time>
      </trkpt>
      <trkpt lat="41.00639" lon="-6.94801">
        <ele>277.8473</ele>
        <time>2021-07-08T15:19:07Z</time>
      </trkpt>
      <trkpt lat="41.0066" lon="-6.947">
        <ele>267.7781</ele>
        <time>2021-07-08T15:19:18Z</time>
      </trkpt>
      <trkpt lat="41.00627" lon="-6.94615">
        <ele>259.6354</ele>
        <time>2021-07-08T15:19:29Z</time>
      </trkpt>
      <trkpt lat="41.00589" lon="-6.94569">
        <ele>254.6106</ele>
        <time>2021-07-08T15:19:40Z</time>
      </trkpt>
      <trkpt lat="41.00603" lon="-6.9447">
        <ele>248.1104</ele>
        <time>2021-07-08T15:19:51Z</time>
      </trkpt>
      <trkpt lat="41.00631" lon="-6.94367">
        <ele>244.0303</ele>
        <time>2021-07-08T15:20:02Z</time>
      </trkpt>
      <trkpt lat="41.00647" lon="-6.94257">
        <ele>232.2607</ele>
        <time>2021-07-08T15:20:13Z</time>
      </trkpt>
      <trkpt lat="41.00657" lon="-6.94151">
        <ele>227.0472</ele>
        <time>2021-07-08T15:20:24Z</time>
      </trkpt>
      <trkpt lat="41.00658" lon="-6.94066">
        <ele>228.6824</ele>
        <time>2021-07-08T15:20:35Z</time>
      </trkpt>
      <trkpt lat="41.00672" lon="-6.93983">
        <ele>223.0544</ele>
        <time>2021-07-08T15:20:46Z</time>
      </trkpt>
      <trkpt lat="41.00716" lon="-6.93907">
        <ele>209.7499</ele>
        <time>2021-07-08T15:20:57Z</time>
      </trkpt>
      <trkpt lat="41.00701" lon="-6.93843">
        <ele>205.9675</ele>
        <time>2021-07-08T15:21:08Z</time>
      </trkpt>
      <trkpt lat="41.0064" lon="-6.9386">
        <ele>207.5516</ele>
        <time>2021-07-08T15:21:19Z</time>
      </trkpt>
      <trkpt lat="41.00612" lon="-6.93839">
        <ele>205.5009</ele>
        <time>2021-07-08T15:21:30Z</time>
      </trkpt>
      <trkpt lat="41.00592" lon="-6.93762">
        <ele>200.1194</ele>
        <time>2021-07-08T15:21:41Z</time>
      </trkpt>
      <trkpt lat="41.00558" lon="-6.93706">
        <ele>196.6874</ele>
        <time>2021-07-08T15:21:52Z</time>
      </trkpt>
      <trkpt lat="41.00489" lon="-6.93734">
        <ele>195.4278</ele>
        <time>2021-07-08T15:22:03Z</time>
      </trkpt>
      <trkpt lat="41.0042" lon="-6.93739">
        <ele>190.8485</ele>
        <time>2021-07-08T15:22:14Z</time>
      </trkpt>
      <trkpt lat="41.00418" lon="-6.93682">
        <ele>185.1108</ele>
        <time>2021-07-08T15:22:25Z</time>
      </trkpt>
      <trkpt lat="41.00482" lon="-6.93629">
        <ele>183.3384</ele>
        <time>2021-07-08T15:22:36Z</time>
      </trkpt>
      <trkpt lat="41.00508" lon="-6.93544">
        <ele>184.671</ele>
        <time>2021-07-08T15:22:47Z</time>
      </trkpt>
      <trkpt lat="41.00545" lon="-6.93486">
        <ele>183.9222</ele>
        <time>2021-07-08T15:22:58Z</time>
      </trkpt>
      <trkpt lat="41.0058" lon="-6.93459">
        <ele>182.8743</ele>
        <time>2021-07-08T15:23:09Z</time>
      </trkpt>
      <trkpt lat="41.00553" lon="-6.93368">
        <ele>198.0795</ele>
        <time>2021-07-08T15:23:20Z</time>
      </trkpt>
      <trkpt lat="41.00505" lon="-6.93338">
        <ele>211.9291</ele>
        <time>2021-07-08T15:23:31Z</time>
      </trkpt>
      <trkpt lat="41.00478" lon="-6.93301">
        <ele>220.4886</ele>
        <time>2021-07-08T15:23:42Z</time>
      </trkpt>
      <trkpt lat="41.00452" lon="-6.93234">
        <ele>233.1143</ele>
        <time>2021-07-08T15:23:53Z</time>
      </trkpt>
      <trkpt lat="41.00496" lon="-6.93138">
        <ele>249.296</ele>
        <time>2021-07-08T15:24:04Z</time>
      </trkpt>
      <trkpt lat="41.0053" lon="-6.93053">
        <ele>264.1277</ele>
        <time>2021-07-08T15:24:15Z</time>
      </trkpt>
      <trkpt lat="41.00517" lon="-6.93038">
        <ele>273.979</ele>
        <time>2021-07-08T15:24:26Z</time>
      </trkpt>
      <trkpt lat="41.00501" lon="-6.93025">
        <ele>279.9495</ele>
        <time>2021-07-08T15:24:37Z</time>
      </trkpt>
      <trkpt lat="41.00565" lon="-6.9298">
        <ele>288.4365</ele>
        <time>2021-07-08T15:24:48Z</time>
      </trkpt>
      <trkpt lat="41.00565" lon="-6.9298">
        <ele>288.3336</ele>
        <time>2021-07-08T15:25:48Z</time>
      </trkpt>
      <trkpt lat="41.0057" lon="-6.92976">
        <ele>288.7341</ele>
        <time>2021-07-08T15:26:00Z</time>
      </trkpt>
      <trkpt lat="41.00581" lon="-6.92937">
        <ele>294.2975</ele>
        <time>2021-07-08T15:26:11Z</time>
      </trkpt>
      <trkpt lat="41.00577" lon="-6.92936">
        <ele>293.4187</ele>
        <time>2021-07-08T15:27:04Z</time>
      </trkpt>
      <trkpt lat="41.00496" lon="-6.92922">
        <ele>307.6302</ele>
        <time>2021-07-08T15:27:15Z</time>
      </trkpt>
      <trkpt lat="41.00415" lon="-6.92951">
        <ele>325.3072</ele>
        <time>2021-07-08T15:27:26Z</time>
      </trkpt>
      <trkpt lat="41.0035" lon="-6.92976">
        <ele>345.142</ele>
        <time>2021-07-08T15:27:37Z</time>
      </trkpt>
      <trkpt lat="41.00302" lon="-6.92955">
        <ele>360.7428</ele>
        <time>2021-07-08T15:27:48Z</time>
      </trkpt>
      <trkpt lat="41.00293" lon="-6.92958">
        <ele>362.5964</ele>
        <time>2021-07-08T15:27:59Z</time>
      </trkpt>
      <trkpt lat="41.00287" lon="-6.9296">
        <ele>365.3148</ele>
        <time>2021-07-08T15:28:44Z</time>
      </trkpt>
      <trkpt lat="41.00239" lon="-6.92976">
        <ele>377.0201</ele>
        <time>2021-07-08T15:28:55Z</time>
      </trkpt>
      <trkpt lat="41.00187" lon="-6.93009">
        <ele>390.6956</ele>
        <time>2021-07-08T15:29:06Z</time>
      </trkpt>
      <trkpt lat="41.00126" lon="-6.9304">
        <ele>408.4391</ele>
        <time>2021-07-08T15:29:17Z</time>
      </trkpt>
      <trkpt lat="41.00126" lon="-6.93038">
        <ele>408.9829</ele>
        <time>2021-07-08T15:30:17Z</time>
      </trkpt>
      <trkpt lat="41.00122" lon="-6.93041">
        <ele>408.0797</ele>
        <time>2021-07-08T15:30:32Z</time>
      </trkpt>
      <trkpt lat="41.00032" lon="-6.93059">
        <ele>420.6354</ele>
        <time>2021-07-08T15:30:43Z</time>
      </trkpt>
      <trkpt lat="40.99983" lon="-6.93007">
        <ele>435.3451</ele>
        <time>2021-07-08T15:30:54Z</time>
      </trkpt>
      <trkpt lat="40.99919" lon="-6.92973">
        <ele>449.8118</ele>
        <time>2021-07-08T15:31:05Z</time>
      </trkpt>
      <trkpt lat="40.99863" lon="-6.92937">
        <ele>460.9836</ele>
        <time>2021-07-08T15:31:16Z</time>
      </trkpt>
      <trkpt lat="40.99851" lon="-6.92924">
        <ele>458.1154</ele>
        <time>2021-07-08T15:31:27Z</time>
      </trkpt>
      <trkpt lat="40.99852" lon="-6.92927">
        <ele>457.2868</ele>
        <time>2021-07-08T15:32:27Z</time>
      </trkpt>
      <trkpt lat="40.9985" lon="-6.92923">
        <ele>457.3649</ele>
        <time>2021-07-08T15:32:55Z</time>
      </trkpt>
      <trkpt lat="40.99846" lon="-6.92916">
        <ele>457.825</ele>
        <time>2021-07-08T15:33:06Z</time>
      </trkpt>
      <trkpt lat="40.99845" lon="-6.9292">
        <ele>458.4528</ele>
        <time>2021-07-08T15:34:06Z</time>
      </trkpt>
      <trkpt lat="40.99844" lon="-6.92919">
        <ele>457.8924</ele>
        <time>2021-07-08T15:35:06Z</time>
      </trkpt>
      <trkpt lat="40.99845" lon="-6.92919">
        <ele>458.0421</ele>
        <time>2021-07-08T15:36:06Z</time>
      </trkpt>
      <trkpt lat="40.99846" lon="-6.92918">
        <ele>458.0516</ele>
        <time>2021-07-08T15:37:06Z</time>
      </trkpt>
      <trkpt lat="40.99845" lon="-6.92917">
        <ele>457.8327</ele>
        <time>2021-07-08T15:38:06Z</time>
      </trkpt>
      <trkpt lat="40.99846" lon="-6.92917">
        <ele>457.9805</ele>
        <time>2021-07-08T15:39:05Z</time>
      </trkpt>
      <trkpt lat="40.99845" lon="-6.92919">
        <ele>457.5698</ele>
        <time>2021-07-08T15:40:05Z</time>
      </trkpt>
      <trkpt lat="40.99843" lon="-6.9292">
        <ele>458.3201</ele>
        <time>2021-07-08T15:41:04Z</time>
      </trkpt>
      <trkpt lat="40.99847" lon="-6.9292">
        <ele>458.2959</ele>
        <time>2021-07-08T15:41:17Z</time>
      </trkpt>
      <trkpt lat="40.99852" lon="-6.92926">
        <ele>457.8946</ele>
        <time>2021-07-08T15:41:28Z</time>
      </trkpt>
      <trkpt lat="40.99852" lon="-6.92925">
        <ele>457.4572</ele>
        <time>2021-07-08T15:42:27Z</time>
      </trkpt>
      <trkpt lat="40.99852" lon="-6.92925">
        <ele>457.9113</ele>
        <time>2021-07-08T15:43:27Z</time>
      </trkpt>
      <trkpt lat="40.99835" lon="-6.929">
        <ele>459.0756</ele>
        <time>2021-07-08T15:43:38Z</time>
      </trkpt>
      <trkpt lat="40.99742" lon="-6.92854">
        <ele>462.7434</ele>
        <time>2021-07-08T15:43:49Z</time>
      </trkpt>
      <trkpt lat="40.99648" lon="-6.92839">
        <ele>466.34</ele>
        <time>2021-07-08T15:44:00Z</time>
      </trkpt>
      <trkpt lat="40.99567" lon="-6.92863">
        <ele>467.9207</ele>
        <time>2021-07-08T15:44:11Z</time>
      </trkpt>
      <trkpt lat="40.9951" lon="-6.92901">
        <ele>460.1442</ele>
        <time>2021-07-08T15:44:22Z</time>
      </trkpt>
      <trkpt lat="40.99444" lon="-6.92872">
        <ele>461.0024</ele>
        <time>2021-07-08T15:44:33Z</time>
      </trkpt>
      <trkpt lat="40.99379" lon="-6.92815">
        <ele>467.966</ele>
        <time>2021-07-08T15:44:44Z</time>
      </trkpt>
      <trkpt lat="40.99313" lon="-6.92761">
        <ele>469.8042</ele>
        <time>2021-07-08T15:44:55Z</time>
      </trkpt>
      <trkpt lat="40.99264" lon="-6.92668">
        <ele>466.0501</ele>
        <time>2021-07-08T15:45:06Z</time>
      </trkpt>
      <trkpt lat="40.99185" lon="-6.92585">
        <ele>462.977</ele>
        <time>2021-07-08T15:45:17Z</time>
      </trkpt>
      <trkpt lat="40.99109" lon="-6.92505">
        <ele>463.7151</ele>
        <time>2021-07-08T15:45:29Z</time>
      </trkpt>
      <trkpt lat="40.99025" lon="-6.92475">
        <ele>470.5417</ele>
        <time>2021-07-08T15:45:40Z</time>
      </trkpt>
      <trkpt lat="40.98977" lon="-6.92537">
        <ele>478.5505</ele>
        <time>2021-07-08T15:45:51Z</time>
      </trkpt>
      <trkpt lat="40.98917" lon="-6.92606">
        <ele>482.3099</ele>
        <time>2021-07-08T15:46:02Z</time>
      </trkpt>
      <trkpt lat="40.98887" lon="-6.92541">
        <ele>492.1531</ele>
        <time>2021-07-08T15:46:13Z</time>
      </trkpt>
      <trkpt lat="40.98877" lon="-6.92454">
        <ele>495.9834</ele>
        <time>2021-07-08T15:46:24Z</time>
      </trkpt>
      <trkpt lat="40.98848" lon="-6.92388">
        <ele>494.8812</ele>
        <time>2021-07-08T15:46:35Z</time>
      </trkpt>
      <trkpt lat="40.98804" lon="-6.92366">
        <ele>501.5554</ele>
        <time>2021-07-08T15:46:46Z</time>
      </trkpt>
      <trkpt lat="40.98759" lon="-6.92355">
        <ele>506.1701</ele>
        <time>2021-07-08T15:46:57Z</time>
      </trkpt>
      <trkpt lat="40.98729" lon="-6.92324">
        <ele>508.5369</ele>
        <time>2021-07-08T15:47:08Z</time>
      </trkpt>
      <trkpt lat="40.98691" lon="-6.92311">
        <ele>513.2064</ele>
        <time>2021-07-08T15:47:19Z</time>
      </trkpt>
      <trkpt lat="40.98686" lon="-6.92297">
        <ele>515.097</ele>
        <time>2021-07-08T15:47:30Z</time>
      </trkpt>
      <trkpt lat="40.98683" lon="-6.92273">
        <ele>517.7564</ele>
        <time>2021-07-08T15:47:41Z</time>
      </trkpt>
      <trkpt lat="40.98677" lon="-6.92244">
        <ele>517.8835</ele>
        <time>2021-07-08T15:47:52Z</time>
      </trkpt>
      <trkpt lat="40.98674" lon="-6.92233">
        <ele>517.9016</ele>
        <time>2021-07-08T15:48:03Z</time>
      </trkpt>
      <trkpt lat="40.98672" lon="-6.92227">
        <ele>518.4339</ele>
        <time>2021-07-08T15:48:28Z</time>
      </trkpt>
      <trkpt lat="40.98664" lon="-6.92215">
        <ele>519.7326</ele>
        <time>2021-07-08T15:48:39Z</time>
      </trkpt>
      <trkpt lat="40.98649" lon="-6.92205">
        <ele>523.5866</ele>
        <time>2021-07-08T15:48:50Z</time>
      </trkpt>
      <trkpt lat="40.98625" lon="-6.92196">
        <ele>527.4426</ele>
        <time>2021-07-08T15:49:01Z</time>
      </trkpt>
      <trkpt lat="40.98622" lon="-6.92191">
        <ele>527.9855</ele>
        <time>2021-07-08T15:49:12Z</time>
      </trkpt>
      <trkpt lat="40.98622" lon="-6.92187">
        <ele>528.883</ele>
        <time>2021-07-08T15:50:10Z</time>
      </trkpt>
      <trkpt lat="40.9861" lon="-6.92193">
        <ele>529.7844</ele>
        <time>2021-07-08T15:50:21Z</time>
      </trkpt>
      <trkpt lat="40.98603" lon="-6.92198">
        <ele>530.5939</ele>
        <time>2021-07-08T15:50:32Z</time>
      </trkpt>
      <trkpt lat="40.98585" lon="-6.92197">
        <ele>535.4747</ele>
        <time>2021-07-08T15:50:43Z</time>
      </trkpt>
      <trkpt lat="40.98567" lon="-6.92192">
        <ele>536.1981</ele>
        <time>2021-07-08T15:50:54Z</time>
      </trkpt>
      <trkpt lat="40.98545" lon="-6.92192">
        <ele>536.5263</ele>
        <time>2021-07-08T15:51:05Z</time>
      </trkpt>
      <trkpt lat="40.98546" lon="-6.92192">
        <ele>536.4541</ele>
        <time>2021-07-08T15:52:05Z</time>
      </trkpt>
      <trkpt lat="40.98544" lon="-6.92194">
        <ele>537.079</ele>
        <time>2021-07-08T15:53:04Z</time>
      </trkpt>
      <trkpt lat="40.98544" lon="-6.92192">
        <ele>536.3934</ele>
        <time>2021-07-08T15:54:04Z</time>
      </trkpt>
      <trkpt lat="40.98544" lon="-6.92192">
        <ele>536.3934</ele>
        <time>2021-07-08T15:55:04Z</time>
      </trkpt>
      <trkpt lat="40.98544" lon="-6.92192">
        <ele>536.3934</ele>
        <time>2021-07-08T15:56:04Z</time>
      </trkpt>
      <trkpt lat="40.98545" lon="-6.92192">
        <ele>536.587</ele>
        <time>2021-07-08T15:57:04Z</time>
      </trkpt>
      <trkpt lat="40.98543" lon="-6.92194">
        <ele>536.4802</ele>
        <time>2021-07-08T15:58:04Z</time>
      </trkpt>
      <trkpt lat="40.9854" lon="-6.92191">
        <ele>536.5946</ele>
        <time>2021-07-08T15:58:26Z</time>
      </trkpt>
      <trkpt lat="40.98516" lon="-6.92188">
        <ele>537.5379</ele>
        <time>2021-07-08T15:58:37Z</time>
      </trkpt>
      <trkpt lat="40.98503" lon="-6.92186">
        <ele>537.6505</ele>
        <time>2021-07-08T15:58:48Z</time>
      </trkpt>
      <trkpt lat="40.98469" lon="-6.92186">
        <ele>536.631</ele>
        <time>2021-07-08T15:58:59Z</time>
      </trkpt>
      <trkpt lat="40.9843" lon="-6.9218">
        <ele>537.289</ele>
        <time>2021-07-08T15:59:10Z</time>
      </trkpt>
      <trkpt lat="40.98402" lon="-6.92174">
        <ele>537.3716</ele>
        <time>2021-07-08T15:59:21Z</time>
      </trkpt>
      <trkpt lat="40.98375" lon="-6.92163">
        <ele>537.4254</ele>
        <time>2021-07-08T15:59:32Z</time>
      </trkpt>
      <trkpt lat="40.98341" lon="-6.92133">
        <ele>536.0631</ele>
        <time>2021-07-08T15:59:43Z</time>
      </trkpt>
      <trkpt lat="40.98293" lon="-6.92115">
        <ele>534.7639</ele>
        <time>2021-07-08T15:59:54Z</time>
      </trkpt>
      <trkpt lat="40.98245" lon="-6.92097">
        <ele>534.3609</ele>
        <time>2021-07-08T16:00:05Z</time>
      </trkpt>
      <trkpt lat="40.98171" lon="-6.92109">
        <ele>537.099</ele>
        <time>2021-07-08T16:00:16Z</time>
      </trkpt>
      <trkpt lat="40.98101" lon="-6.92104">
        <ele>541.2534</ele>
        <time>2021-07-08T16:00:27Z</time>
      </trkpt>
      <trkpt lat="40.98042" lon="-6.9214">
        <ele>538.8884</ele>
        <time>2021-07-08T16:00:38Z</time>
      </trkpt>
      <trkpt lat="40.9799" lon="-6.92158">
        <ele>547.2276</ele>
        <time>2021-07-08T16:00:49Z</time>
      </trkpt>
      <trkpt lat="40.97976" lon="-6.92223">
        <ele>551.2426</ele>
        <time>2021-07-08T16:01:00Z</time>
      </trkpt>
      <trkpt lat="40.98" lon="-6.92272">
        <ele>551.3207</ele>
        <time>2021-07-08T16:01:12Z</time>
      </trkpt>
      <trkpt lat="40.97975" lon="-6.92271">
        <ele>560.3559</ele>
        <time>2021-07-08T16:01:23Z</time>
      </trkpt>
      <trkpt lat="40.9793" lon="-6.92299">
        <ele>555.1172</ele>
        <time>2021-07-08T16:01:34Z</time>
      </trkpt>
      <trkpt lat="40.97879" lon="-6.92282">
        <ele>560.1007</ele>
        <time>2021-07-08T16:01:45Z</time>
      </trkpt>
      <trkpt lat="40.97833" lon="-6.92248">
        <ele>557.6127</ele>
        <time>2021-07-08T16:01:56Z</time>
      </trkpt>
      <trkpt lat="40.97778" lon="-6.92246">
        <ele>561.7447</ele>
        <time>2021-07-08T16:02:07Z</time>
      </trkpt>
      <trkpt lat="40.97705" lon="-6.92257">
        <ele>532.1676</ele>
        <time>2021-07-08T16:02:18Z</time>
      </trkpt>
      <trkpt lat="40.97636" lon="-6.92245">
        <ele>577.7132</ele>
        <time>2021-07-08T16:02:29Z</time>
      </trkpt>
      <trkpt lat="40.97584" lon="-6.92249">
        <ele>579.3033</ele>
        <time>2021-07-08T16:02:40Z</time>
      </trkpt>
      <trkpt lat="40.97521" lon="-6.92291">
        <ele>582.613</ele>
        <time>2021-07-08T16:02:51Z</time>
      </trkpt>
      <trkpt lat="40.97443" lon="-6.92319">
        <ele>581.2563</ele>
        <time>2021-07-08T16:03:02Z</time>
      </trkpt>
      <trkpt lat="40.97373" lon="-6.92328">
        <ele>579.8322</ele>
        <time>2021-07-08T16:03:13Z</time>
      </trkpt>
      <trkpt lat="40.97299" lon="-6.92366">
        <ele>575.4724</ele>
        <time>2021-07-08T16:03:24Z</time>
      </trkpt>
      <trkpt lat="40.9728" lon="-6.92365">
        <ele>574.0943</ele>
        <time>2021-07-08T16:03:35Z</time>
      </trkpt>
      <trkpt lat="40.97274" lon="-6.92367">
        <ele>573.777</ele>
        <time>2021-07-08T16:03:52Z</time>
      </trkpt>
      <trkpt lat="40.97233" lon="-6.92369">
        <ele>573.0808</ele>
        <time>2021-07-08T16:04:03Z</time>
      </trkpt>
      <trkpt lat="40.97223" lon="-6.92411">
        <ele>569.4199</ele>
        <time>2021-07-08T16:04:14Z</time>
      </trkpt>
      <trkpt lat="40.9718" lon="-6.92417">
        <ele>567.2952</ele>
        <time>2021-07-08T16:04:25Z</time>
      </trkpt>
      <trkpt lat="40.97121" lon="-6.92377">
        <ele>565.6294</ele>
        <time>2021-07-08T16:04:36Z</time>
      </trkpt>
      <trkpt lat="40.97072" lon="-6.92382">
        <ele>562.9804</ele>
        <time>2021-07-08T16:04:47Z</time>
      </trkpt>
      <trkpt lat="40.97017" lon="-6.92377">
        <ele>560.3687</ele>
        <time>2021-07-08T16:04:58Z</time>
      </trkpt>
      <trkpt lat="40.96965" lon="-6.92393">
        <ele>558.2674</ele>
        <time>2021-07-08T16:05:09Z</time>
      </trkpt>
      <trkpt lat="40.9692" lon="-6.92414">
        <ele>559.4272</ele>
        <time>2021-07-08T16:05:20Z</time>
      </trkpt>
      <trkpt lat="40.96852" lon="-6.92415">
        <ele>556.637</ele>
        <time>2021-07-08T16:05:31Z</time>
      </trkpt>
      <trkpt lat="40.96786" lon="-6.92442">
        <ele>553.3474</ele>
        <time>2021-07-08T16:05:42Z</time>
      </trkpt>
      <trkpt lat="40.96709" lon="-6.92463">
        <ele>552.3096</ele>
        <time>2021-07-08T16:05:53Z</time>
      </trkpt>
      <trkpt lat="40.96649" lon="-6.92491">
        <ele>553.7678</ele>
        <time>2021-07-08T16:06:04Z</time>
      </trkpt>
      <trkpt lat="40.9654" lon="-6.92465">
        <ele>559.8398</ele>
        <time>2021-07-08T16:06:15Z</time>
      </trkpt>
      <trkpt lat="40.96455" lon="-6.92513">
        <ele>565.2182</ele>
        <time>2021-07-08T16:06:26Z</time>
      </trkpt>
      <trkpt lat="40.96359" lon="-6.92548">
        <ele>568.0112</ele>
        <time>2021-07-08T16:06:37Z</time>
      </trkpt>
      <trkpt lat="40.9628" lon="-6.9253">
        <ele>570.5253</ele>
        <time>2021-07-08T16:06:48Z</time>
      </trkpt>
      <trkpt lat="40.96206" lon="-6.92534">
        <ele>568.5056</ele>
        <time>2021-07-08T16:06:59Z</time>
      </trkpt>
      <trkpt lat="40.96137" lon="-6.92525">
        <ele>580.436</ele>
        <time>2021-07-08T16:07:10Z</time>
      </trkpt>
      <trkpt lat="40.96158" lon="-6.92468">
        <ele>586.0497</ele>
        <time>2021-07-08T16:07:21Z</time>
      </trkpt>
      <trkpt lat="40.96116" lon="-6.92414">
        <ele>586.6971</ele>
        <time>2021-07-08T16:07:32Z</time>
      </trkpt>
      <trkpt lat="40.96076" lon="-6.92352">
        <ele>588.6191</ele>
        <time>2021-07-08T16:07:43Z</time>
      </trkpt>
      <trkpt lat="40.96041" lon="-6.9227">
        <ele>582.8281</ele>
        <time>2021-07-08T16:07:54Z</time>
      </trkpt>
      <trkpt lat="40.95972" lon="-6.92284">
        <ele>585.1586</ele>
        <time>2021-07-08T16:08:05Z</time>
      </trkpt>
      <trkpt lat="40.95882" lon="-6.92316">
        <ele>591.0595</ele>
        <time>2021-07-08T16:08:16Z</time>
      </trkpt>
      <trkpt lat="40.95817" lon="-6.92335">
        <ele>592.5651</ele>
        <time>2021-07-08T16:08:27Z</time>
      </trkpt>
      <trkpt lat="40.95728" lon="-6.9235">
        <ele>592.796</ele>
        <time>2021-07-08T16:08:38Z</time>
      </trkpt>
      <trkpt lat="40.95627" lon="-6.92385">
        <ele>594.9634</ele>
        <time>2021-07-08T16:08:49Z</time>
      </trkpt>
      <trkpt lat="40.95531" lon="-6.9246">
        <ele>603.1424</ele>
        <time>2021-07-08T16:09:00Z</time>
      </trkpt>
      <trkpt lat="40.95456" lon="-6.92536">
        <ele>607.8726</ele>
        <time>2021-07-08T16:09:11Z</time>
      </trkpt>
      <trkpt lat="40.95328" lon="-6.92546">
        <ele>612.1006</ele>
        <time>2021-07-08T16:09:22Z</time>
      </trkpt>
      <trkpt lat="40.95218" lon="-6.92492">
        <ele>615.6685</ele>
        <time>2021-07-08T16:09:33Z</time>
      </trkpt>
      <trkpt lat="40.95149" lon="-6.92469">
        <ele>618.4058</ele>
        <time>2021-07-08T16:09:44Z</time>
      </trkpt>
      <trkpt lat="40.95133" lon="-6.92506">
        <ele>627.0771</ele>
        <time>2021-07-08T16:09:55Z</time>
      </trkpt>
      <trkpt lat="40.95072" lon="-6.92546">
        <ele>627.4576</ele>
        <time>2021-07-08T16:10:06Z</time>
      </trkpt>
      <trkpt lat="40.95014" lon="-6.92605">
        <ele>614.0775</ele>
        <time>2021-07-08T16:10:17Z</time>
      </trkpt>
      <trkpt lat="40.94955" lon="-6.92671">
        <ele>612.0385</ele>
        <time>2021-07-08T16:10:28Z</time>
      </trkpt>
      <trkpt lat="40.94919" lon="-6.92678">
        <ele>617.2411</ele>
        <time>2021-07-08T16:10:39Z</time>
      </trkpt>
      <trkpt lat="40.94896" lon="-6.92588">
        <ele>621.8522</ele>
        <time>2021-07-08T16:10:50Z</time>
      </trkpt>
      <trkpt lat="40.94831" lon="-6.92519">
        <ele>618.3008</ele>
        <time>2021-07-08T16:11:01Z</time>
      </trkpt>
      <trkpt lat="40.94796" lon="-6.92464">
        <ele>612.0401</ele>
        <time>2021-07-08T16:11:12Z</time>
      </trkpt>
      <trkpt lat="40.94799" lon="-6.92463">
        <ele>610.9606</ele>
        <time>2021-07-08T16:11:27Z</time>
      </trkpt>
      <trkpt lat="40.94803" lon="-6.92465">
        <ele>610.7819</ele>
        <time>2021-07-08T16:11:56Z</time>
      </trkpt>
      <trkpt lat="40.94803" lon="-6.9247">
        <ele>610.476</ele>
        <time>2021-07-08T16:12:34Z</time>
      </trkpt>
      <trkpt lat="40.94799" lon="-6.92469">
        <ele>610.6151</ele>
        <time>2021-07-08T16:12:56Z</time>
      </trkpt>
      <trkpt lat="40.948" lon="-6.92464">
        <ele>610.5417</ele>
        <time>2021-07-08T16:13:07Z</time>
      </trkpt>
      <trkpt lat="40.94801" lon="-6.92469">
        <ele>611.1845</ele>
        <time>2021-07-08T16:13:18Z</time>
      </trkpt>
      <trkpt lat="40.94805" lon="-6.92468">
        <ele>610.8567</ele>
        <time>2021-07-08T16:13:43Z</time>
      </trkpt>
      <trkpt lat="40.94805" lon="-6.92468">
        <ele>610.0658</ele>
        <time>2021-07-08T16:14:43Z</time>
      </trkpt>
      <trkpt lat="40.94806" lon="-6.92467">
        <ele>610.6952</ele>
        <time>2021-07-08T16:15:43Z</time>
      </trkpt>
      <trkpt lat="40.94805" lon="-6.92463">
        <ele>611.0325</ele>
        <time>2021-07-08T16:16:43Z</time>
      </trkpt>
      <trkpt lat="40.94803" lon="-6.92467">
        <ele>611.6937</ele>
        <time>2021-07-08T16:17:38Z</time>
      </trkpt>
      <trkpt lat="40.94802" lon="-6.92462">
        <ele>611.1327</ele>
        <time>2021-07-08T16:17:59Z</time>
      </trkpt>
      <trkpt lat="40.94805" lon="-6.92464">
        <ele>611.2102</ele>
        <time>2021-07-08T16:18:59Z</time>
      </trkpt>
      <trkpt lat="40.94806" lon="-6.92465">
        <ele>611.0948</ele>
        <time>2021-07-08T16:19:59Z</time>
      </trkpt>
      <trkpt lat="40.94786" lon="-6.92448">
        <ele>610.3948</ele>
        <time>2021-07-08T16:20:10Z</time>
      </trkpt>
      <trkpt lat="40.94678" lon="-6.92536">
        <ele>609.9499</ele>
        <time>2021-07-08T16:20:21Z</time>
      </trkpt>
      <trkpt lat="40.94559" lon="-6.92644">
        <ele>613.5017</ele>
        <time>2021-07-08T16:20:32Z</time>
      </trkpt>
      <trkpt lat="40.94426" lon="-6.92752">
        <ele>612.5439</ele>
        <time>2021-07-08T16:20:43Z</time>
      </trkpt>
      <trkpt lat="40.94286" lon="-6.92865">
        <ele>612.0001</ele>
        <time>2021-07-08T16:20:54Z</time>
      </trkpt>
      <trkpt lat="40.94136" lon="-6.92988">
        <ele>605.811</ele>
        <time>2021-07-08T16:21:05Z</time>
      </trkpt>
      <trkpt lat="40.93903" lon="-6.9316">
        <ele>599.5599</ele>
        <time>2021-07-08T16:21:16Z</time>
      </trkpt>
      <trkpt lat="40.93667" lon="-6.93284">
        <ele>594.389</ele>
        <time>2021-07-08T16:21:27Z</time>
      </trkpt>
      <trkpt lat="40.93413" lon="-6.9339">
        <ele>593.5965</ele>
        <time>2021-07-08T16:21:38Z</time>
      </trkpt>
      <trkpt lat="40.93184" lon="-6.93478">
        <ele>593.3197</ele>
        <time>2021-07-08T16:21:49Z</time>
      </trkpt>
      <trkpt lat="40.9296" lon="-6.9332">
        <ele>584.1812</ele>
        <time>2021-07-08T16:22:00Z</time>
      </trkpt>
      <trkpt lat="40.92748" lon="-6.93269">
        <ele>579.4595</ele>
        <time>2021-07-08T16:22:11Z</time>
      </trkpt>
      <trkpt lat="40.92539" lon="-6.93346">
        <ele>575.9314</ele>
        <time>2021-07-08T16:22:22Z</time>
      </trkpt>
      <trkpt lat="40.92419" lon="-6.93557">
        <ele>565.5044</ele>
        <time>2021-07-08T16:22:33Z</time>
      </trkpt>
      <trkpt lat="40.92309" lon="-6.93781">
        <ele>556.3106</ele>
        <time>2021-07-08T16:22:44Z</time>
      </trkpt>
      <trkpt lat="40.92186" lon="-6.93904">
        <ele>563.0056</ele>
        <time>2021-07-08T16:22:55Z</time>
      </trkpt>
      <trkpt lat="40.9218" lon="-6.94038">
        <ele>571.1809</ele>
        <time>2021-07-08T16:23:06Z</time>
      </trkpt>
      <trkpt lat="40.92037" lon="-6.94127">
        <ele>579.4333</ele>
        <time>2021-07-08T16:23:17Z</time>
      </trkpt>
      <trkpt lat="40.91886" lon="-6.94282">
        <ele>591.996</ele>
        <time>2021-07-08T16:23:28Z</time>
      </trkpt>
      <trkpt lat="40.91719" lon="-6.94358">
        <ele>601.6665</ele>
        <time>2021-07-08T16:23:39Z</time>
      </trkpt>
      <trkpt lat="40.91614" lon="-6.94578">
        <ele>611.0652</ele>
        <time>2021-07-08T16:23:50Z</time>
      </trkpt>
      <trkpt lat="40.91514" lon="-6.94767">
        <ele>621.97</ele>
        <time>2021-07-08T16:24:01Z</time>
      </trkpt>
      <trkpt lat="40.91335" lon="-6.94945">
        <ele>628.1023</ele>
        <time>2021-07-08T16:24:12Z</time>
      </trkpt>
      <trkpt lat="40.91154" lon="-6.95132">
        <ele>630.6063</ele>
        <time>2021-07-08T16:24:23Z</time>
      </trkpt>
      <trkpt lat="40.9102" lon="-6.95377">
        <ele>629.0352</ele>
        <time>2021-07-08T16:24:34Z</time>
      </trkpt>
      <trkpt lat="40.9091" lon="-6.95627">
        <ele>626.2363</ele>
        <time>2021-07-08T16:24:45Z</time>
      </trkpt>
      <trkpt lat="40.90742" lon="-6.95795">
        <ele>625.1487</ele>
        <time>2021-07-08T16:24:56Z</time>
      </trkpt>
      <trkpt lat="40.90509" lon="-6.95871">
        <ele>626.8602</ele>
        <time>2021-07-08T16:25:07Z</time>
      </trkpt>
      <trkpt lat="40.90294" lon="-6.95947">
        <ele>632.2708</ele>
        <time>2021-07-08T16:25:18Z</time>
      </trkpt>
      <trkpt lat="40.90095" lon="-6.9601">
        <ele>635.2829</ele>
        <time>2021-07-08T16:25:29Z</time>
      </trkpt>
      <trkpt lat="40.89924" lon="-6.9609">
        <ele>638.7962</ele>
        <time>2021-07-08T16:25:40Z</time>
      </trkpt>
      <trkpt lat="40.89836" lon="-6.96167">
        <ele>636.5948</ele>
        <time>2021-07-08T16:25:51Z</time>
      </trkpt>
      <trkpt lat="40.89749" lon="-6.96235">
        <ele>630.6983</ele>
        <time>2021-07-08T16:26:02Z</time>
      </trkpt>
      <trkpt lat="40.89675" lon="-6.96272">
        <ele>628.7201</ele>
        <time>2021-07-08T16:26:13Z</time>
      </trkpt>
      <trkpt lat="40.89615" lon="-6.96304">
        <ele>633.0978</ele>
        <time>2021-07-08T16:26:24Z</time>
      </trkpt>
      <trkpt lat="40.8953" lon="-6.96289">
        <ele>638.5172</ele>
        <time>2021-07-08T16:26:35Z</time>
      </trkpt>
      <trkpt lat="40.89455" lon="-6.96282">
        <ele>639.3282</ele>
        <time>2021-07-08T16:26:46Z</time>
      </trkpt>
      <trkpt lat="40.89442" lon="-6.96212">
        <ele>645.44</ele>
        <time>2021-07-08T16:26:57Z</time>
      </trkpt>
      <trkpt lat="40.89443" lon="-6.96195">
        <ele>639.8257</ele>
        <time>2021-07-08T16:27:08Z</time>
      </trkpt>
      <trkpt lat="40.89392" lon="-6.96181">
        <ele>639.9309</ele>
        <time>2021-07-08T16:27:19Z</time>
      </trkpt>
      <trkpt lat="40.89389" lon="-6.96176">
        <ele>648.0301</ele>
        <time>2021-07-08T16:27:49Z</time>
      </trkpt>
      <trkpt lat="40.89347" lon="-6.96164">
        <ele>644.8818</ele>
        <time>2021-07-08T16:28:00Z</time>
      </trkpt>
      <trkpt lat="40.89229" lon="-6.96131">
        <ele>644.5368</ele>
        <time>2021-07-08T16:28:11Z</time>
      </trkpt>
      <trkpt lat="40.89106" lon="-6.96094">
        <ele>650.6937</ele>
        <time>2021-07-08T16:28:22Z</time>
      </trkpt>
      <trkpt lat="40.8894" lon="-6.96046">
        <ele>655.6472</ele>
        <time>2021-07-08T16:28:33Z</time>
      </trkpt>
      <trkpt lat="40.88805" lon="-6.96089">
        <ele>660.0518</ele>
        <time>2021-07-08T16:28:44Z</time>
      </trkpt>
      <trkpt lat="40.88741" lon="-6.96246">
        <ele>663.7861</ele>
        <time>2021-07-08T16:28:55Z</time>
      </trkpt>
      <trkpt lat="40.8869" lon="-6.96298">
        <ele>663.8256</ele>
        <time>2021-07-08T16:29:06Z</time>
      </trkpt>
      <trkpt lat="40.88548" lon="-6.96339">
        <ele>671.235</ele>
        <time>2021-07-08T16:29:17Z</time>
      </trkpt>
      <trkpt lat="40.88458" lon="-6.96451">
        <ele>678.783</ele>
        <time>2021-07-08T16:29:28Z</time>
      </trkpt>
      <trkpt lat="40.88456" lon="-6.96608">
        <ele>680.9922</ele>
        <time>2021-07-08T16:29:39Z</time>
      </trkpt>
      <trkpt lat="40.88419" lon="-6.96563">
        <ele>684.8295</ele>
        <time>2021-07-08T16:29:50Z</time>
      </trkpt>
      <trkpt lat="40.88449" lon="-6.96563">
        <ele>683.6849</ele>
        <time>2021-07-08T16:30:01Z</time>
      </trkpt>
      <trkpt lat="40.88446" lon="-6.9656">
        <ele>682.8353</ele>
        <time>2021-07-08T16:30:39Z</time>
      </trkpt>
      <trkpt lat="40.8845" lon="-6.96564">
        <ele>681.939</ele>
        <time>2021-07-08T16:31:36Z</time>
      </trkpt>
      <trkpt lat="40.88449" lon="-6.96568">
        <ele>681.7802</ele>
        <time>2021-07-08T16:32:15Z</time>
      </trkpt>
      <trkpt lat="40.88445" lon="-6.96582">
        <ele>682.3502</ele>
        <time>2021-07-08T16:32:26Z</time>
      </trkpt>
      <trkpt lat="40.88443" lon="-6.96577">
        <ele>687.2306</ele>
        <time>2021-07-08T16:32:58Z</time>
      </trkpt>
      <trkpt lat="40.88443" lon="-6.96581">
        <ele>686.4963</ele>
        <time>2021-07-08T16:33:57Z</time>
      </trkpt>
      <trkpt lat="40.8844" lon="-6.96588">
        <ele>685.5501</ele>
        <time>2021-07-08T16:34:26Z</time>
      </trkpt>
      <trkpt lat="40.88439" lon="-6.96592">
        <ele>684.646</ele>
        <time>2021-07-08T16:34:46Z</time>
      </trkpt>
      <trkpt lat="40.88424" lon="-6.96585">
        <ele>682.9986</ele>
        <time>2021-07-08T16:35:08Z</time>
      </trkpt>
      <trkpt lat="40.88421" lon="-6.96582">
        <ele>682.5992</ele>
        <time>2021-07-08T16:35:42Z</time>
      </trkpt>
      <trkpt lat="40.88415" lon="-6.96594">
        <ele>679.2548</ele>
        <time>2021-07-08T16:36:00Z</time>
      </trkpt>
      <trkpt lat="40.88418" lon="-6.96587">
        <ele>678.0672</ele>
        <time>2021-07-08T16:36:18Z</time>
      </trkpt>
      <trkpt lat="40.88422" lon="-6.9658">
        <ele>677.0154</ele>
        <time>2021-07-08T16:36:29Z</time>
      </trkpt>
      <trkpt lat="40.88424" lon="-6.96575">
        <ele>675.1407</ele>
        <time>2021-07-08T16:36:40Z</time>
      </trkpt>
      <trkpt lat="40.88426" lon="-6.96579">
        <ele>674.3629</ele>
        <time>2021-07-08T16:37:02Z</time>
      </trkpt>
      <trkpt lat="40.88413" lon="-6.96587">
        <ele>680.1979</ele>
        <time>2021-07-08T16:37:13Z</time>
      </trkpt>
      <trkpt lat="40.88421" lon="-6.96595">
        <ele>688.1823</ele>
        <time>2021-07-08T16:37:24Z</time>
      </trkpt>
      <trkpt lat="40.88419" lon="-6.9659">
        <ele>688.0851</ele>
        <time>2021-07-08T16:37:40Z</time>
      </trkpt>
      <trkpt lat="40.88413" lon="-6.9659">
        <ele>693.3481</ele>
        <time>2021-07-08T16:37:51Z</time>
      </trkpt>
      <trkpt lat="40.88418" lon="-6.96591">
        <ele>686.1773</ele>
        <time>2021-07-08T16:38:03Z</time>
      </trkpt>
      <trkpt lat="40.88422" lon="-6.96593">
        <ele>680.4528</ele>
        <time>2021-07-08T16:38:32Z</time>
      </trkpt>
      <trkpt lat="40.8841" lon="-6.96542">
        <ele>688.3324</ele>
        <time>2021-07-08T16:39:22Z</time>
      </trkpt>
      <trkpt lat="40.88405" lon="-6.96542">
        <ele>688.639</ele>
        <time>2021-07-08T16:39:35Z</time>
      </trkpt>
      <trkpt lat="40.88391" lon="-6.96548">
        <ele>690.0761</ele>
        <time>2021-07-08T16:39:46Z</time>
      </trkpt>
      <trkpt lat="40.88387" lon="-6.96546">
        <ele>690.8463</ele>
        <time>2021-07-08T16:40:05Z</time>
      </trkpt>
      <trkpt lat="40.88386" lon="-6.96536">
        <ele>691.9756</ele>
        <time>2021-07-08T16:40:16Z</time>
      </trkpt>
      <trkpt lat="40.88421" lon="-6.96591">
        <ele>680.3059</ele>
        <time>2021-07-08T16:40:42Z</time>
      </trkpt>
      <trkpt lat="40.88422" lon="-6.96593">
        <ele>680.3059</ele>
        <time>2021-07-08T16:41:41Z</time>
      </trkpt>
      <trkpt lat="40.88422" lon="-6.96593">
        <ele>680.3059</ele>
        <time>2021-07-08T16:42:40Z</time>
      </trkpt>
      <trkpt lat="40.88425" lon="-6.96589">
        <ele>689.4135</ele>
        <time>2021-07-08T16:42:52Z</time>
      </trkpt>
      <trkpt lat="40.88422" lon="-6.96593">
        <ele>689</ele>
        <time>2021-07-08T16:43:45Z</time>
      </trkpt>
      <trkpt lat="40.88421" lon="-6.96583">
        <ele>690.7117</ele>
        <time>2021-07-08T16:44:41Z</time>
      </trkpt>
      <trkpt lat="40.8843" lon="-6.96581">
        <ele>688.7019</ele>
        <time>2021-07-08T16:44:59Z</time>
      </trkpt>
      <trkpt lat="40.8841" lon="-6.96579">
        <ele>688.8453</ele>
        <time>2021-07-08T16:45:10Z</time>
      </trkpt>
      <trkpt lat="40.88409" lon="-6.96584">
        <ele>689.3827</ele>
        <time>2021-07-08T16:45:23Z</time>
      </trkpt>
      <trkpt lat="40.88424" lon="-6.9659">
        <ele>688.4769</ele>
        <time>2021-07-08T16:45:34Z</time>
      </trkpt>
      <trkpt lat="40.88417" lon="-6.96593">
        <ele>688.8279</ele>
        <time>2021-07-08T16:45:45Z</time>
      </trkpt>
      <trkpt lat="40.88421" lon="-6.96591">
        <ele>688.8541</ele>
        <time>2021-07-08T16:45:57Z</time>
      </trkpt>
      <trkpt lat="40.88406" lon="-6.96598">
        <ele>689.2002</ele>
        <time>2021-07-08T16:46:08Z</time>
      </trkpt>
      <trkpt lat="40.88413" lon="-6.96581">
        <ele>688.9963</ele>
        <time>2021-07-08T16:46:19Z</time>
      </trkpt>
      <trkpt lat="40.88425" lon="-6.96583">
        <ele>689.0346</ele>
        <time>2021-07-08T16:46:30Z</time>
      </trkpt>
      <trkpt lat="40.88418" lon="-6.96583">
        <ele>688.7224</ele>
        <time>2021-07-08T16:46:41Z</time>
      </trkpt>
      <trkpt lat="40.88422" lon="-6.96585">
        <ele>689.5871</ele>
        <time>2021-07-08T16:47:22Z</time>
      </trkpt>
      <trkpt lat="40.88419" lon="-6.96582">
        <ele>688.6565</ele>
        <time>2021-07-08T16:48:15Z</time>
      </trkpt>
      <trkpt lat="40.88416" lon="-6.96586">
        <ele>689.3546</ele>
        <time>2021-07-08T16:48:34Z</time>
      </trkpt>
      <trkpt lat="40.88412" lon="-6.96589">
        <ele>689.1932</ele>
        <time>2021-07-08T16:48:51Z</time>
      </trkpt>
      <trkpt lat="40.88421" lon="-6.96584">
        <ele>690.4107</ele>
        <time>2021-07-08T16:49:02Z</time>
      </trkpt>
      <trkpt lat="40.88419" lon="-6.96588">
        <ele>688.5099</ele>
        <time>2021-07-08T16:49:15Z</time>
      </trkpt>
      <trkpt lat="40.88423" lon="-6.96584">
        <ele>687.629</ele>
        <time>2021-07-08T16:49:26Z</time>
      </trkpt>
      <trkpt lat="40.8842" lon="-6.96581">
        <ele>688.3581</ele>
        <time>2021-07-08T16:49:37Z</time>
      </trkpt>
      <trkpt lat="40.88429" lon="-6.96582">
        <ele>688.4572</ele>
        <time>2021-07-08T16:49:48Z</time>
      </trkpt>
      <trkpt lat="40.88425" lon="-6.96585">
        <ele>688.2432</ele>
        <time>2021-07-08T16:50:01Z</time>
      </trkpt>
      <trkpt lat="40.88418" lon="-6.96583">
        <ele>688.4138</ele>
        <time>2021-07-08T16:50:12Z</time>
      </trkpt>
      <trkpt lat="40.88413" lon="-6.96588">
        <ele>687.3176</ele>
        <time>2021-07-08T16:50:24Z</time>
      </trkpt>
      <trkpt lat="40.8842" lon="-6.96601">
        <ele>691.2259</ele>
        <time>2021-07-08T16:50:35Z</time>
      </trkpt>
      <trkpt lat="40.88423" lon="-6.96596">
        <ele>688.1894</ele>
        <time>2021-07-08T16:50:46Z</time>
      </trkpt>
      <trkpt lat="40.88424" lon="-6.9659">
        <ele>688.5771</ele>
        <time>2021-07-08T16:50:57Z</time>
      </trkpt>
      <trkpt lat="40.88423" lon="-6.96591">
        <ele>688.3091</ele>
        <time>2021-07-08T16:51:56Z</time>
      </trkpt>
      <trkpt lat="40.88426" lon="-6.96588">
        <ele>687.0756</ele>
        <time>2021-07-08T16:52:18Z</time>
      </trkpt>
      <trkpt lat="40.88425" lon="-6.96583">
        <ele>688.3874</ele>
        <time>2021-07-08T16:52:55Z</time>
      </trkpt>
      <trkpt lat="40.88429" lon="-6.96589">
        <ele>688.8767</ele>
        <time>2021-07-08T16:53:20Z</time>
      </trkpt>
      <trkpt lat="40.88434" lon="-6.96577">
        <ele>689.2412</ele>
        <time>2021-07-08T16:53:31Z</time>
      </trkpt>
      <trkpt lat="40.88428" lon="-6.96583">
        <ele>688.1093</ele>
        <time>2021-07-08T16:53:42Z</time>
      </trkpt>
      <trkpt lat="40.88424" lon="-6.96584">
        <ele>688.8727</ele>
        <time>2021-07-08T16:53:54Z</time>
      </trkpt>
      <trkpt lat="40.88422" lon="-6.96588">
        <ele>688.227</ele>
        <time>2021-07-08T16:54:08Z</time>
      </trkpt>
      <trkpt lat="40.88425" lon="-6.96593">
        <ele>688.4869</ele>
        <time>2021-07-08T16:54:30Z</time>
      </trkpt>
      <trkpt lat="40.88428" lon="-6.96599">
        <ele>688.6063</ele>
        <time>2021-07-08T16:54:42Z</time>
      </trkpt>
      <trkpt lat="40.88428" lon="-6.96598">
        <ele>687.6231</ele>
        <time>2021-07-08T16:55:42Z</time>
      </trkpt>
      <trkpt lat="40.88428" lon="-6.96598">
        <ele>687.6231</ele>
        <time>2021-07-08T16:56:42Z</time>
      </trkpt>
      <trkpt lat="40.88428" lon="-6.96598">
        <ele>687.2048</ele>
        <time>2021-07-08T16:57:42Z</time>
      </trkpt>
      <trkpt lat="40.88431" lon="-6.966">
        <ele>689.1706</ele>
        <time>2021-07-08T16:58:07Z</time>
      </trkpt>
      <trkpt lat="40.8845" lon="-6.96608">
        <ele>685.489</ele>
        <time>2021-07-08T16:58:18Z</time>
      </trkpt>
      <trkpt lat="40.88459" lon="-6.96482">
        <ele>683.1031</ele>
        <time>2021-07-08T16:58:29Z</time>
      </trkpt>
      <trkpt lat="40.88475" lon="-6.96366">
        <ele>680.3785</ele>
        <time>2021-07-08T16:58:40Z</time>
      </trkpt>
      <trkpt lat="40.88617" lon="-6.96313">
        <ele>671.7908</ele>
        <time>2021-07-08T16:58:51Z</time>
      </trkpt>
      <trkpt lat="40.88737" lon="-6.96254">
        <ele>665.7459</ele>
        <time>2021-07-08T16:59:02Z</time>
      </trkpt>
      <trkpt lat="40.88802" lon="-6.96088">
        <ele>662.2715</ele>
        <time>2021-07-08T16:59:13Z</time>
      </trkpt>
      <trkpt lat="40.88931" lon="-6.96032">
        <ele>658.1096</ele>
        <time>2021-07-08T16:59:24Z</time>
      </trkpt>
      <trkpt lat="40.89069" lon="-6.96072">
        <ele>652.5823</ele>
        <time>2021-07-08T16:59:35Z</time>
      </trkpt>
      <trkpt lat="40.8921" lon="-6.96114">
        <ele>647.7926</ele>
        <time>2021-07-08T16:59:46Z</time>
      </trkpt>
      <trkpt lat="40.89353" lon="-6.96155">
        <ele>641.9949</ele>
        <time>2021-07-08T16:59:57Z</time>
      </trkpt>
      <trkpt lat="40.8949" lon="-6.96196">
        <ele>637.4915</ele>
        <time>2021-07-08T17:00:08Z</time>
      </trkpt>
      <trkpt lat="40.89603" lon="-6.9623">
        <ele>634.7601</ele>
        <time>2021-07-08T17:00:19Z</time>
      </trkpt>
      <trkpt lat="40.89643" lon="-6.96249">
        <ele>632.6482</ele>
        <time>2021-07-08T17:00:30Z</time>
      </trkpt>
      <trkpt lat="40.89681" lon="-6.96263">
        <ele>632.1468</ele>
        <time>2021-07-08T17:00:41Z</time>
      </trkpt>
      <trkpt lat="40.89739" lon="-6.96231">
        <ele>634.2185</ele>
        <time>2021-07-08T17:00:52Z</time>
      </trkpt>
      <trkpt lat="40.89827" lon="-6.96173">
        <ele>637.0106</ele>
        <time>2021-07-08T17:01:03Z</time>
      </trkpt>
      <trkpt lat="40.8986" lon="-6.96045">
        <ele>638.6992</ele>
        <time>2021-07-08T17:01:14Z</time>
      </trkpt>
      <trkpt lat="40.89871" lon="-6.95794">
        <ele>642.2248</ele>
        <time>2021-07-08T17:01:25Z</time>
      </trkpt>
      <trkpt lat="40.89921" lon="-6.95528">
        <ele>639.0117</ele>
        <time>2021-07-08T17:01:36Z</time>
      </trkpt>
      <trkpt lat="40.90017" lon="-6.9524">
        <ele>640.7226</ele>
        <time>2021-07-08T17:01:47Z</time>
      </trkpt>
      <trkpt lat="40.90126" lon="-6.94942">
        <ele>642.8743</ele>
        <time>2021-07-08T17:01:58Z</time>
      </trkpt>
      <trkpt lat="40.90186" lon="-6.94647">
        <ele>636.371</ele>
        <time>2021-07-08T17:02:09Z</time>
      </trkpt>
      <trkpt lat="40.90201" lon="-6.94355">
        <ele>630.0753</ele>
        <time>2021-07-08T17:02:20Z</time>
      </trkpt>
      <trkpt lat="40.90174" lon="-6.94065">
        <ele>622.0466</ele>
        <time>2021-07-08T17:02:31Z</time>
      </trkpt>
      <trkpt lat="40.90132" lon="-6.93748">
        <ele>611.0581</ele>
        <time>2021-07-08T17:02:42Z</time>
      </trkpt>
      <trkpt lat="40.90174" lon="-6.93445">
        <ele>611.623</ele>
        <time>2021-07-08T17:02:53Z</time>
      </trkpt>
      <trkpt lat="40.90199" lon="-6.93122">
        <ele>600.6908</ele>
        <time>2021-07-08T17:03:04Z</time>
      </trkpt>
      <trkpt lat="40.90285" lon="-6.9281">
        <ele>590.9584</ele>
        <time>2021-07-08T17:03:15Z</time>
      </trkpt>
      <trkpt lat="40.90284" lon="-6.92485">
        <ele>587.8444</ele>
        <time>2021-07-08T17:03:26Z</time>
      </trkpt>
      <trkpt lat="40.90289" lon="-6.92138">
        <ele>587.194</ele>
        <time>2021-07-08T17:03:37Z</time>
      </trkpt>
      <trkpt lat="40.90329" lon="-6.91779">
        <ele>600.9633</ele>
        <time>2021-07-08T17:03:48Z</time>
      </trkpt>
      <trkpt lat="40.90368" lon="-6.91406">
        <ele>615.2091</ele>
        <time>2021-07-08T17:03:59Z</time>
      </trkpt>
      <trkpt lat="40.90381" lon="-6.91126">
        <ele>612.3333</ele>
        <time>2021-07-08T17:04:10Z</time>
      </trkpt>
      <trkpt lat="40.90356" lon="-6.90913">
        <ele>611.5602</ele>
        <time>2021-07-08T17:04:21Z</time>
      </trkpt>
      <trkpt lat="40.9032" lon="-6.90688">
        <ele>609.1369</ele>
        <time>2021-07-08T17:04:32Z</time>
      </trkpt>
      <trkpt lat="40.90376" lon="-6.90442">
        <ele>607.3587</ele>
        <time>2021-07-08T17:04:43Z</time>
      </trkpt>
      <trkpt lat="40.90422" lon="-6.90243">
        <ele>609.1183</ele>
        <time>2021-07-08T17:04:54Z</time>
      </trkpt>
      <trkpt lat="40.90464" lon="-6.90124">
        <ele>609.9971</ele>
        <time>2021-07-08T17:05:05Z</time>
      </trkpt>
      <trkpt lat="40.90493" lon="-6.90067">
        <ele>613.5844</ele>
        <time>2021-07-08T17:05:16Z</time>
      </trkpt>
      <trkpt lat="40.90517" lon="-6.89984">
        <ele>611.2634</ele>
        <time>2021-07-08T17:05:27Z</time>
      </trkpt>
      <trkpt lat="40.90513" lon="-6.89929">
        <ele>612.6888</ele>
        <time>2021-07-08T17:05:38Z</time>
      </trkpt>
      <trkpt lat="40.90515" lon="-6.89853">
        <ele>613.6395</ele>
        <time>2021-07-08T17:05:49Z</time>
      </trkpt>
      <trkpt lat="40.90554" lon="-6.89796">
        <ele>616.1589</ele>
        <time>2021-07-08T17:06:00Z</time>
      </trkpt>
      <trkpt lat="40.90544" lon="-6.89709">
        <ele>622.1177</ele>
        <time>2021-07-08T17:06:11Z</time>
      </trkpt>
      <trkpt lat="40.90504" lon="-6.89627">
        <ele>626.8484</ele>
        <time>2021-07-08T17:06:22Z</time>
      </trkpt>
      <trkpt lat="40.90464" lon="-6.8952">
        <ele>628.6378</ele>
        <time>2021-07-08T17:06:33Z</time>
      </trkpt>
      <trkpt lat="40.90461" lon="-6.89493">
        <ele>626.2085</ele>
        <time>2021-07-08T17:06:44Z</time>
      </trkpt>
      <trkpt lat="40.90458" lon="-6.8948">
        <ele>623.5533</ele>
        <time>2021-07-08T17:07:03Z</time>
      </trkpt>
      <trkpt lat="40.90441" lon="-6.89416">
        <ele>621.5497</ele>
        <time>2021-07-08T17:07:09Z</time>
      </trkpt>
      <trkpt lat="40.90426" lon="-6.89368">
        <ele>621.9164</ele>
        <time>2021-07-08T17:07:15Z</time>
      </trkpt>
      <trkpt lat="40.90425" lon="-6.89361">
        <ele>622.6528</ele>
        <time>2021-07-08T17:07:50Z</time>
      </trkpt>
      <trkpt lat="40.90368" lon="-6.89165">
        <ele>623.9414</ele>
        <time>2021-07-08T17:08:01Z</time>
      </trkpt>
      <trkpt lat="40.90269" lon="-6.89041">
        <ele>626.0253</ele>
        <time>2021-07-08T17:08:12Z</time>
      </trkpt>
      <trkpt lat="40.90096" lon="-6.88919">
        <ele>626.3967</ele>
        <time>2021-07-08T17:08:23Z</time>
      </trkpt>
      <trkpt lat="40.89927" lon="-6.88801">
        <ele>627.8188</ele>
        <time>2021-07-08T17:08:34Z</time>
      </trkpt>
      <trkpt lat="40.89787" lon="-6.88708">
        <ele>631.3784</ele>
        <time>2021-07-08T17:08:45Z</time>
      </trkpt>
      <trkpt lat="40.89653" lon="-6.88557">
        <ele>635.2421</ele>
        <time>2021-07-08T17:08:56Z</time>
      </trkpt>
      <trkpt lat="40.89546" lon="-6.88436">
        <ele>634.5573</ele>
        <time>2021-07-08T17:09:07Z</time>
      </trkpt>
      <trkpt lat="40.8946" lon="-6.88323">
        <ele>631.8206</ele>
        <time>2021-07-08T17:09:18Z</time>
      </trkpt>
      <trkpt lat="40.89322" lon="-6.88283">
        <ele>629.4898</ele>
        <time>2021-07-08T17:09:29Z</time>
      </trkpt>
      <trkpt lat="40.89181" lon="-6.88227">
        <ele>630.867</ele>
        <time>2021-07-08T17:09:40Z</time>
      </trkpt>
      <trkpt lat="40.8907" lon="-6.88131">
        <ele>635.8553</ele>
        <time>2021-07-08T17:09:51Z</time>
      </trkpt>
      <trkpt lat="40.88968" lon="-6.88046">
        <ele>635.0032</ele>
        <time>2021-07-08T17:10:02Z</time>
      </trkpt>
      <trkpt lat="40.88873" lon="-6.87995">
        <ele>630.7508</ele>
        <time>2021-07-08T17:10:13Z</time>
      </trkpt>
      <trkpt lat="40.88787" lon="-6.87954">
        <ele>630.35</ele>
        <time>2021-07-08T17:10:24Z</time>
      </trkpt>
      <trkpt lat="40.88758" lon="-6.87904">
        <ele>629.1042</ele>
        <time>2021-07-08T17:10:35Z</time>
      </trkpt>
      <trkpt lat="40.88702" lon="-6.87927">
        <ele>630.3051</ele>
        <time>2021-07-08T17:10:46Z</time>
      </trkpt>
      <trkpt lat="40.8871" lon="-6.87929">
        <ele>630.1334</ele>
        <time>2021-07-08T17:10:57Z</time>
      </trkpt>
      <trkpt lat="40.88692" lon="-6.87886">
        <ele>630.3744</ele>
        <time>2021-07-08T17:11:08Z</time>
      </trkpt>
      <trkpt lat="40.88629" lon="-6.87767">
        <ele>630.4099</ele>
        <time>2021-07-08T17:11:19Z</time>
      </trkpt>
      <trkpt lat="40.88579" lon="-6.87684">
        <ele>631.451</ele>
        <time>2021-07-08T17:11:30Z</time>
      </trkpt>
      <trkpt lat="40.88537" lon="-6.8762">
        <ele>625.0872</ele>
        <time>2021-07-08T17:11:41Z</time>
      </trkpt>
      <trkpt lat="40.88465" lon="-6.87575">
        <ele>623.0954</ele>
        <time>2021-07-08T17:11:52Z</time>
      </trkpt>
      <trkpt lat="40.88408" lon="-6.87487">
        <ele>620.3985</ele>
        <time>2021-07-08T17:12:03Z</time>
      </trkpt>
      <trkpt lat="40.88411" lon="-6.8741">
        <ele>616.35</ele>
        <time>2021-07-08T17:12:14Z</time>
      </trkpt>
      <trkpt lat="40.88366" lon="-6.87297">
        <ele>620.0544</ele>
        <time>2021-07-08T17:12:25Z</time>
      </trkpt>
      <trkpt lat="40.88334" lon="-6.8721">
        <ele>609.754</ele>
        <time>2021-07-08T17:12:36Z</time>
      </trkpt>
      <trkpt lat="40.88335" lon="-6.87139">
        <ele>603.4363</ele>
        <time>2021-07-08T17:12:47Z</time>
      </trkpt>
      <trkpt lat="40.88345" lon="-6.87049">
        <ele>609.8189</ele>
        <time>2021-07-08T17:12:58Z</time>
      </trkpt>
      <trkpt lat="40.88331" lon="-6.86966">
        <ele>620.4935</ele>
        <time>2021-07-08T17:13:09Z</time>
      </trkpt>
      <trkpt lat="40.88304" lon="-6.86913">
        <ele>625.8489</ele>
        <time>2021-07-08T17:13:20Z</time>
      </trkpt>
      <trkpt lat="40.88276" lon="-6.86834">
        <ele>618.2425</ele>
        <time>2021-07-08T17:13:31Z</time>
      </trkpt>
      <trkpt lat="40.88259" lon="-6.86756">
        <ele>610.4239</ele>
        <time>2021-07-08T17:13:42Z</time>
      </trkpt>
      <trkpt lat="40.88281" lon="-6.86659">
        <ele>617.1759</ele>
        <time>2021-07-08T17:13:53Z</time>
      </trkpt>
      <trkpt lat="40.88212" lon="-6.86643">
        <ele>624.6449</ele>
        <time>2021-07-08T17:14:04Z</time>
      </trkpt>
      <trkpt lat="40.88131" lon="-6.86627">
        <ele>624.6394</ele>
        <time>2021-07-08T17:14:15Z</time>
      </trkpt>
      <trkpt lat="40.88054" lon="-6.86682">
        <ele>631.7062</ele>
        <time>2021-07-08T17:14:26Z</time>
      </trkpt>
      <trkpt lat="40.87981" lon="-6.86674">
        <ele>636.4192</ele>
        <time>2021-07-08T17:14:37Z</time>
      </trkpt>
      <trkpt lat="40.87892" lon="-6.86669">
        <ele>641.3666</ele>
        <time>2021-07-08T17:14:48Z</time>
      </trkpt>
      <trkpt lat="40.87836" lon="-6.86659">
        <ele>634.385</ele>
        <time>2021-07-08T17:14:59Z</time>
      </trkpt>
      <trkpt lat="40.87776" lon="-6.86663">
        <ele>623.4853</ele>
        <time>2021-07-08T17:15:10Z</time>
      </trkpt>
      <trkpt lat="40.87709" lon="-6.86649">
        <ele>621.2276</ele>
        <time>2021-07-08T17:15:21Z</time>
      </trkpt>
      <trkpt lat="40.87632" lon="-6.86636">
        <ele>642.8075</ele>
        <time>2021-07-08T17:15:32Z</time>
      </trkpt>
      <trkpt lat="40.87555" lon="-6.86589">
        <ele>650.9832</ele>
        <time>2021-07-08T17:15:43Z</time>
      </trkpt>
      <trkpt lat="40.87488" lon="-6.86513">
        <ele>656.3081</ele>
        <time>2021-07-08T17:15:54Z</time>
      </trkpt>
      <trkpt lat="40.87441" lon="-6.86442">
        <ele>653.7544</ele>
        <time>2021-07-08T17:16:05Z</time>
      </trkpt>
      <trkpt lat="40.87457" lon="-6.86373">
        <ele>658.3193</ele>
        <time>2021-07-08T17:16:16Z</time>
      </trkpt>
      <trkpt lat="40.8751" lon="-6.86302">
        <ele>652.8158</ele>
        <time>2021-07-08T17:16:27Z</time>
      </trkpt>
      <trkpt lat="40.8754" lon="-6.86202">
        <ele>649.9981</ele>
        <time>2021-07-08T17:16:38Z</time>
      </trkpt>
      <trkpt lat="40.87549" lon="-6.86103">
        <ele>639.8906</ele>
        <time>2021-07-08T17:16:49Z</time>
      </trkpt>
      <trkpt lat="40.87539" lon="-6.86023">
        <ele>629.0722</ele>
        <time>2021-07-08T17:17:00Z</time>
      </trkpt>
      <trkpt lat="40.87543" lon="-6.86005">
        <ele>631.7218</ele>
        <time>2021-07-08T17:17:11Z</time>
      </trkpt>
      <trkpt lat="40.87546" lon="-6.86003">
        <ele>653.799</ele>
        <time>2021-07-08T17:17:32Z</time>
      </trkpt>
      <trkpt lat="40.87547" lon="-6.85998">
        <ele>656.8555</ele>
        <time>2021-07-08T17:17:43Z</time>
      </trkpt>
      <trkpt lat="40.87527" lon="-6.85991">
        <ele>651.6167</ele>
        <time>2021-07-08T17:17:54Z</time>
      </trkpt>
      <trkpt lat="40.87484" lon="-6.85991">
        <ele>649.8648</ele>
        <time>2021-07-08T17:18:05Z</time>
      </trkpt>
      <trkpt lat="40.87431" lon="-6.86001">
        <ele>647.3479</ele>
        <time>2021-07-08T17:18:16Z</time>
      </trkpt>
      <trkpt lat="40.8737" lon="-6.86023">
        <ele>648.5302</ele>
        <time>2021-07-08T17:18:27Z</time>
      </trkpt>
      <trkpt lat="40.8737" lon="-6.86029">
        <ele>657.947</ele>
        <time>2021-07-08T17:18:39Z</time>
      </trkpt>
      <trkpt lat="40.87357" lon="-6.86037">
        <ele>671.8799</ele>
        <time>2021-07-08T17:18:50Z</time>
      </trkpt>
      <trkpt lat="40.87285" lon="-6.86025">
        <ele>682.4967</ele>
        <time>2021-07-08T17:19:01Z</time>
      </trkpt>
      <trkpt lat="40.87221" lon="-6.86001">
        <ele>680.8748</ele>
        <time>2021-07-08T17:19:12Z</time>
      </trkpt>
      <trkpt lat="40.87153" lon="-6.86007">
        <ele>686.8878</ele>
        <time>2021-07-08T17:19:23Z</time>
      </trkpt>
      <trkpt lat="40.87085" lon="-6.85928">
        <ele>684.4375</ele>
        <time>2021-07-08T17:19:34Z</time>
      </trkpt>
      <trkpt lat="40.86925" lon="-6.85836">
        <ele>683.8819</ele>
        <time>2021-07-08T17:19:45Z</time>
      </trkpt>
      <trkpt lat="40.86794" lon="-6.85865">
        <ele>676.0126</ele>
        <time>2021-07-08T17:19:56Z</time>
      </trkpt>
      <trkpt lat="40.86699" lon="-6.85908">
        <ele>671.6097</ele>
        <time>2021-07-08T17:20:07Z</time>
      </trkpt>
      <trkpt lat="40.86518" lon="-6.8598">
        <ele>668.5416</ele>
        <time>2021-07-08T17:20:18Z</time>
      </trkpt>
      <trkpt lat="40.86333" lon="-6.85999">
        <ele>664.9465</ele>
        <time>2021-07-08T17:20:29Z</time>
      </trkpt>
      <trkpt lat="40.86269" lon="-6.85965">
        <ele>665.3045</ele>
        <time>2021-07-08T17:20:40Z</time>
      </trkpt>
      <trkpt lat="40.86209" lon="-6.85757">
        <ele>662.8758</ele>
        <time>2021-07-08T17:20:51Z</time>
      </trkpt>
      <trkpt lat="40.86161" lon="-6.85562">
        <ele>658.8854</ele>
        <time>2021-07-08T17:21:02Z</time>
      </trkpt>
      <trkpt lat="40.86151" lon="-6.85401">
        <ele>654.9772</ele>
        <time>2021-07-08T17:21:13Z</time>
      </trkpt>
      <trkpt lat="40.8614" lon="-6.85251">
        <ele>654.0641</ele>
        <time>2021-07-08T17:21:24Z</time>
      </trkpt>
      <trkpt lat="40.86118" lon="-6.85078">
        <ele>642.5405</ele>
        <time>2021-07-08T17:21:35Z</time>
      </trkpt>
      <trkpt lat="40.86063" lon="-6.84958">
        <ele>646.0888</ele>
        <time>2021-07-08T17:21:46Z</time>
      </trkpt>
      <trkpt lat="40.86039" lon="-6.84862">
        <ele>651.821</ele>
        <time>2021-07-08T17:21:57Z</time>
      </trkpt>
      <trkpt lat="40.86021" lon="-6.84775">
        <ele>661.8832</ele>
        <time>2021-07-08T17:22:08Z</time>
      </trkpt>
      <trkpt lat="40.8602" lon="-6.84768">
        <ele>663.6142</ele>
        <time>2021-07-08T17:22:19Z</time>
      </trkpt>
      <trkpt lat="40.86001" lon="-6.84691">
        <ele>651.1736</ele>
        <time>2021-07-08T17:22:30Z</time>
      </trkpt>
      <trkpt lat="40.85955" lon="-6.84549">
        <ele>645.8192</ele>
        <time>2021-07-08T17:22:41Z</time>
      </trkpt>
      <trkpt lat="40.85917" lon="-6.84351">
        <ele>648.4325</ele>
        <time>2021-07-08T17:22:52Z</time>
      </trkpt>
      <trkpt lat="40.85878" lon="-6.84182">
        <ele>651.1224</ele>
        <time>2021-07-08T17:23:03Z</time>
      </trkpt>
      <trkpt lat="40.85844" lon="-6.8406">
        <ele>640.3297</ele>
        <time>2021-07-08T17:23:14Z</time>
      </trkpt>
      <trkpt lat="40.85802" lon="-6.83903">
        <ele>643.7489</ele>
        <time>2021-07-08T17:23:25Z</time>
      </trkpt>
      <trkpt lat="40.85746" lon="-6.83776">
        <ele>649.0271</ele>
        <time>2021-07-08T17:23:36Z</time>
      </trkpt>
      <trkpt lat="40.85699" lon="-6.83643">
        <ele>651.5148</ele>
        <time>2021-07-08T17:23:47Z</time>
      </trkpt>
      <trkpt lat="40.8565" lon="-6.83502">
        <ele>656.4666</ele>
        <time>2021-07-08T17:23:58Z</time>
      </trkpt>
      <trkpt lat="40.85588" lon="-6.83376">
        <ele>656.3798</ele>
        <time>2021-07-08T17:24:09Z</time>
      </trkpt>
      <trkpt lat="40.85578" lon="-6.83236">
        <ele>660.5867</ele>
        <time>2021-07-08T17:24:20Z</time>
      </trkpt>
      <trkpt lat="40.85542" lon="-6.83096">
        <ele>666.5698</ele>
        <time>2021-07-08T17:24:31Z</time>
      </trkpt>
      <trkpt lat="40.85507" lon="-6.82997">
        <ele>663.0697</ele>
        <time>2021-07-08T17:24:42Z</time>
      </trkpt>
      <trkpt lat="40.8548" lon="-6.82911">
        <ele>658.4735</ele>
        <time>2021-07-08T17:24:53Z</time>
      </trkpt>
      <trkpt lat="40.85437" lon="-6.82885">
        <ele>650.5746</ele>
        <time>2021-07-08T17:25:04Z</time>
      </trkpt>
      <trkpt lat="40.85372" lon="-6.8288">
        <ele>642.629</ele>
        <time>2021-07-08T17:25:15Z</time>
      </trkpt>
      <trkpt lat="40.85341" lon="-6.82791">
        <ele>641.2337</ele>
        <time>2021-07-08T17:25:26Z</time>
      </trkpt>
      <trkpt lat="40.85353" lon="-6.82677">
        <ele>633.6857</ele>
        <time>2021-07-08T17:25:37Z</time>
      </trkpt>
      <trkpt lat="40.85313" lon="-6.82597">
        <ele>626.2729</ele>
        <time>2021-07-08T17:25:48Z</time>
      </trkpt>
      <trkpt lat="40.85261" lon="-6.82492">
        <ele>629.3136</ele>
        <time>2021-07-08T17:25:59Z</time>
      </trkpt>
      <trkpt lat="40.85204" lon="-6.82409">
        <ele>624.3142</ele>
        <time>2021-07-08T17:26:10Z</time>
      </trkpt>
      <trkpt lat="40.85149" lon="-6.82352">
        <ele>609.5861</ele>
        <time>2021-07-08T17:26:21Z</time>
      </trkpt>
      <trkpt lat="40.85114" lon="-6.82242">
        <ele>602.4058</ele>
        <time>2021-07-08T17:26:32Z</time>
      </trkpt>
      <trkpt lat="40.85081" lon="-6.82135">
        <ele>602.2791</ele>
        <time>2021-07-08T17:26:43Z</time>
      </trkpt>
      <trkpt lat="40.85047" lon="-6.82093">
        <ele>601.6464</ele>
        <time>2021-07-08T17:26:54Z</time>
      </trkpt>
      <trkpt lat="40.85005" lon="-6.82007">
        <ele>602.1041</ele>
        <time>2021-07-08T17:27:05Z</time>
      </trkpt>
      <trkpt lat="40.84937" lon="-6.8194">
        <ele>599.63</ele>
        <time>2021-07-08T17:27:16Z</time>
      </trkpt>
      <trkpt lat="40.84855" lon="-6.81948">
        <ele>595.6627</ele>
        <time>2021-07-08T17:27:27Z</time>
      </trkpt>
      <trkpt lat="40.84808" lon="-6.82007">
        <ele>596.3519</ele>
        <time>2021-07-08T17:27:38Z</time>
      </trkpt>
      <trkpt lat="40.84764" lon="-6.82071">
        <ele>588.9101</ele>
        <time>2021-07-08T17:27:49Z</time>
      </trkpt>
      <trkpt lat="40.84721" lon="-6.82083">
        <ele>584.1531</ele>
        <time>2021-07-08T17:28:00Z</time>
      </trkpt>
      <trkpt lat="40.84713" lon="-6.8216">
        <ele>576.6611</ele>
        <time>2021-07-08T17:28:11Z</time>
      </trkpt>
      <trkpt lat="40.8473" lon="-6.82238">
        <ele>571.0085</ele>
        <time>2021-07-08T17:28:22Z</time>
      </trkpt>
      <trkpt lat="40.84744" lon="-6.82311">
        <ele>568.7755</ele>
        <time>2021-07-08T17:28:33Z</time>
      </trkpt>
      <trkpt lat="40.84678" lon="-6.82399">
        <ele>566.902</ele>
        <time>2021-07-08T17:28:44Z</time>
      </trkpt>
      <trkpt lat="40.84675" lon="-6.82486">
        <ele>563.8313</ele>
        <time>2021-07-08T17:28:55Z</time>
      </trkpt>
      <trkpt lat="40.84616" lon="-6.82501">
        <ele>561.9266</ele>
        <time>2021-07-08T17:29:06Z</time>
      </trkpt>
      <trkpt lat="40.84555" lon="-6.82557">
        <ele>561.4274</ele>
        <time>2021-07-08T17:29:17Z</time>
      </trkpt>
      <trkpt lat="40.84512" lon="-6.82655">
        <ele>562.1883</ele>
        <time>2021-07-08T17:29:28Z</time>
      </trkpt>
      <trkpt lat="40.84481" lon="-6.82742">
        <ele>565.8662</ele>
        <time>2021-07-08T17:29:39Z</time>
      </trkpt>
      <trkpt lat="40.84405" lon="-6.82764">
        <ele>565.0865</ele>
        <time>2021-07-08T17:29:50Z</time>
      </trkpt>
      <trkpt lat="40.84363" lon="-6.82756">
        <ele>572.6722</ele>
        <time>2021-07-08T17:30:01Z</time>
      </trkpt>
      <trkpt lat="40.84375" lon="-6.82844">
        <ele>582.5262</ele>
        <time>2021-07-08T17:30:12Z</time>
      </trkpt>
      <trkpt lat="40.84359" lon="-6.82896">
        <ele>583.2238</ele>
        <time>2021-07-08T17:30:23Z</time>
      </trkpt>
      <trkpt lat="40.84355" lon="-6.8297">
        <ele>584.5322</ele>
        <time>2021-07-08T17:30:34Z</time>
      </trkpt>
      <trkpt lat="40.84348" lon="-6.83014">
        <ele>585.2811</ele>
        <time>2021-07-08T17:30:45Z</time>
      </trkpt>
      <trkpt lat="40.84341" lon="-6.83004">
        <ele>582.4328</ele>
        <time>2021-07-08T17:30:56Z</time>
      </trkpt>
      <trkpt lat="40.84294" lon="-6.82989">
        <ele>576.4203</ele>
        <time>2021-07-08T17:31:07Z</time>
      </trkpt>
      <trkpt lat="40.84228" lon="-6.83001">
        <ele>571.9072</ele>
        <time>2021-07-08T17:31:18Z</time>
      </trkpt>
      <trkpt lat="40.8419" lon="-6.82998">
        <ele>566.6073</ele>
        <time>2021-07-08T17:31:29Z</time>
      </trkpt>
      <trkpt lat="40.84148" lon="-6.83003">
        <ele>565.0874</ele>
        <time>2021-07-08T17:31:40Z</time>
      </trkpt>
      <trkpt lat="40.84144" lon="-6.82963">
        <ele>571.5866</ele>
        <time>2021-07-08T17:31:51Z</time>
      </trkpt>
      <trkpt lat="40.84122" lon="-6.82953">
        <ele>576.1526</ele>
        <time>2021-07-08T17:32:02Z</time>
      </trkpt>
      <trkpt lat="40.84094" lon="-6.82951">
        <ele>577.1528</ele>
        <time>2021-07-08T17:32:13Z</time>
      </trkpt>
      <trkpt lat="40.84059" lon="-6.8295">
        <ele>584.4637</ele>
        <time>2021-07-08T17:32:24Z</time>
      </trkpt>
      <trkpt lat="40.84029" lon="-6.82975">
        <ele>586.5114</ele>
        <time>2021-07-08T17:32:35Z</time>
      </trkpt>
      <trkpt lat="40.84022" lon="-6.82984">
        <ele>593.7343</ele>
        <time>2021-07-08T17:32:46Z</time>
      </trkpt>
      <trkpt lat="40.84019" lon="-6.82987">
        <ele>592.5742</ele>
        <time>2021-07-08T17:33:45Z</time>
      </trkpt>
      <trkpt lat="40.83991" lon="-6.83006">
        <ele>598.9307</ele>
        <time>2021-07-08T17:33:56Z</time>
      </trkpt>
      <trkpt lat="40.83966" lon="-6.83067">
        <ele>603.6285</ele>
        <time>2021-07-08T17:34:07Z</time>
      </trkpt>
      <trkpt lat="40.83963" lon="-6.83065">
        <ele>604.9425</ele>
        <time>2021-07-08T17:35:04Z</time>
      </trkpt>
      <trkpt lat="40.83956" lon="-6.83048">
        <ele>608.0573</ele>
        <time>2021-07-08T17:35:15Z</time>
      </trkpt>
      <trkpt lat="40.83956" lon="-6.83048">
        <ele>607.8143</ele>
        <time>2021-07-08T17:36:15Z</time>
      </trkpt>
      <trkpt lat="40.83955" lon="-6.83043">
        <ele>608.1933</ele>
        <time>2021-07-08T17:36:56Z</time>
      </trkpt>
      <trkpt lat="40.83937" lon="-6.82989">
        <ele>610.7642</ele>
        <time>2021-07-08T17:37:07Z</time>
      </trkpt>
      <trkpt lat="40.83934" lon="-6.82984">
        <ele>611.7075</ele>
        <time>2021-07-08T17:37:18Z</time>
      </trkpt>
      <trkpt lat="40.83931" lon="-6.82981">
        <ele>612.5292</ele>
        <time>2021-07-08T17:38:08Z</time>
      </trkpt>
      <trkpt lat="40.83932" lon="-6.82981">
        <ele>612.5044</ele>
        <time>2021-07-08T17:39:08Z</time>
      </trkpt>
      <trkpt lat="40.83928" lon="-6.82975">
        <ele>613.1175</ele>
        <time>2021-07-08T17:39:29Z</time>
      </trkpt>
      <trkpt lat="40.83865" lon="-6.82959">
        <ele>615.9095</ele>
        <time>2021-07-08T17:39:40Z</time>
      </trkpt>
      <trkpt lat="40.8378" lon="-6.82964">
        <ele>617.1333</ele>
        <time>2021-07-08T17:39:51Z</time>
      </trkpt>
      <trkpt lat="40.83701" lon="-6.82951">
        <ele>618.5287</ele>
        <time>2021-07-08T17:40:02Z</time>
      </trkpt>
      <trkpt lat="40.83631" lon="-6.82931">
        <ele>631.387</ele>
        <time>2021-07-08T17:40:13Z</time>
      </trkpt>
      <trkpt lat="40.83562" lon="-6.82928">
        <ele>629.035</ele>
        <time>2021-07-08T17:40:24Z</time>
      </trkpt>
      <trkpt lat="40.83494" lon="-6.8294">
        <ele>635.585</ele>
        <time>2021-07-08T17:40:35Z</time>
      </trkpt>
      <trkpt lat="40.83405" lon="-6.82953">
        <ele>645.8115</ele>
        <time>2021-07-08T17:40:46Z</time>
      </trkpt>
      <trkpt lat="40.83321" lon="-6.82905">
        <ele>645.6129</ele>
        <time>2021-07-08T17:40:57Z</time>
      </trkpt>
      <trkpt lat="40.83291" lon="-6.82939">
        <ele>649.8429</ele>
        <time>2021-07-08T17:41:08Z</time>
      </trkpt>
      <trkpt lat="40.83284" lon="-6.82954">
        <ele>650.9069</ele>
        <time>2021-07-08T17:41:19Z</time>
      </trkpt>
      <trkpt lat="40.83292" lon="-6.8293">
        <ele>648.4322</ele>
        <time>2021-07-08T17:41:30Z</time>
      </trkpt>
      <trkpt lat="40.83291" lon="-6.82901">
        <ele>646.8138</ele>
        <time>2021-07-08T17:41:41Z</time>
      </trkpt>
      <trkpt lat="40.83296" lon="-6.82896">
        <ele>645.8704</ele>
        <time>2021-07-08T17:41:57Z</time>
      </trkpt>
      <trkpt lat="40.83302" lon="-6.82897">
        <ele>646.0235</ele>
        <time>2021-07-08T17:42:08Z</time>
      </trkpt>
      <trkpt lat="40.83301" lon="-6.82897">
        <ele>646.1971</ele>
        <time>2021-07-08T17:43:07Z</time>
      </trkpt>
      <trkpt lat="40.83298" lon="-6.82897">
        <ele>646.0221</ele>
        <time>2021-07-08T17:43:56Z</time>
      </trkpt>
      <trkpt lat="40.83282" lon="-6.82963">
        <ele>649.4494</ele>
        <time>2021-07-08T17:44:07Z</time>
      </trkpt>
      <trkpt lat="40.83235" lon="-6.83013">
        <ele>652.7675</ele>
        <time>2021-07-08T17:44:18Z</time>
      </trkpt>
      <trkpt lat="40.83138" lon="-6.83031">
        <ele>652.8865</ele>
        <time>2021-07-08T17:44:29Z</time>
      </trkpt>
      <trkpt lat="40.83043" lon="-6.8305">
        <ele>667.3482</ele>
        <time>2021-07-08T17:44:40Z</time>
      </trkpt>
      <trkpt lat="40.82993" lon="-6.83112">
        <ele>675.7349</ele>
        <time>2021-07-08T17:44:51Z</time>
      </trkpt>
      <trkpt lat="40.82984" lon="-6.83241">
        <ele>675.7533</ele>
        <time>2021-07-08T17:45:02Z</time>
      </trkpt>
      <trkpt lat="40.82982" lon="-6.83371">
        <ele>675.5062</ele>
        <time>2021-07-08T17:45:13Z</time>
      </trkpt>
      <trkpt lat="40.8296" lon="-6.83494">
        <ele>678.6968</ele>
        <time>2021-07-08T17:45:24Z</time>
      </trkpt>
      <trkpt lat="40.82961" lon="-6.83593">
        <ele>675.5599</ele>
        <time>2021-07-08T17:45:35Z</time>
      </trkpt>
      <trkpt lat="40.82949" lon="-6.83662">
        <ele>671.4678</ele>
        <time>2021-07-08T17:45:46Z</time>
      </trkpt>
      <trkpt lat="40.82998" lon="-6.83742">
        <ele>667.0335</ele>
        <time>2021-07-08T17:45:57Z</time>
      </trkpt>
      <trkpt lat="40.83047" lon="-6.83826">
        <ele>665.3474</ele>
        <time>2021-07-08T17:46:08Z</time>
      </trkpt>
      <trkpt lat="40.83" lon="-6.8387">
        <ele>663.3624</ele>
        <time>2021-07-08T17:46:19Z</time>
      </trkpt>
      <trkpt lat="40.8294" lon="-6.8394">
        <ele>669.1818</ele>
        <time>2021-07-08T17:46:30Z</time>
      </trkpt>
      <trkpt lat="40.82962" lon="-6.84051">
        <ele>666.413</ele>
        <time>2021-07-08T17:46:41Z</time>
      </trkpt>
      <trkpt lat="40.83021" lon="-6.84143">
        <ele>664.2973</ele>
        <time>2021-07-08T17:46:52Z</time>
      </trkpt>
      <trkpt lat="40.83049" lon="-6.84245">
        <ele>658.7033</ele>
        <time>2021-07-08T17:47:03Z</time>
      </trkpt>
      <trkpt lat="40.8309" lon="-6.84284">
        <ele>660.1952</ele>
        <time>2021-07-08T17:47:14Z</time>
      </trkpt>
      <trkpt lat="40.8307" lon="-6.84373">
        <ele>664.9492</ele>
        <time>2021-07-08T17:47:25Z</time>
      </trkpt>
      <trkpt lat="40.82976" lon="-6.84414">
        <ele>667.0591</ele>
        <time>2021-07-08T17:47:36Z</time>
      </trkpt>
      <trkpt lat="40.82924" lon="-6.84483">
        <ele>668.6587</ele>
        <time>2021-07-08T17:47:47Z</time>
      </trkpt>
      <trkpt lat="40.82819" lon="-6.84589">
        <ele>674.3609</ele>
        <time>2021-07-08T17:47:58Z</time>
      </trkpt>
      <trkpt lat="40.82682" lon="-6.84671">
        <ele>671.5434</ele>
        <time>2021-07-08T17:48:09Z</time>
      </trkpt>
      <trkpt lat="40.8256" lon="-6.84707">
        <ele>677.2922</ele>
        <time>2021-07-08T17:48:20Z</time>
      </trkpt>
      <trkpt lat="40.82471" lon="-6.84726">
        <ele>679.1649</ele>
        <time>2021-07-08T17:48:31Z</time>
      </trkpt>
      <trkpt lat="40.82349" lon="-6.84707">
        <ele>677.4353</ele>
        <time>2021-07-08T17:48:42Z</time>
      </trkpt>
      <trkpt lat="40.82225" lon="-6.84699">
        <ele>665.0726</ele>
        <time>2021-07-08T17:48:53Z</time>
      </trkpt>
      <trkpt lat="40.82104" lon="-6.84691">
        <ele>662.9156</ele>
        <time>2021-07-08T17:49:04Z</time>
      </trkpt>
      <trkpt lat="40.82033" lon="-6.84628">
        <ele>676.4536</ele>
        <time>2021-07-08T17:49:15Z</time>
      </trkpt>
      <trkpt lat="40.81971" lon="-6.84568">
        <ele>678.0496</ele>
        <time>2021-07-08T17:49:26Z</time>
      </trkpt>
      <trkpt lat="40.81914" lon="-6.84544">
        <ele>672.9813</ele>
        <time>2021-07-08T17:49:37Z</time>
      </trkpt>
      <trkpt lat="40.81898" lon="-6.84491">
        <ele>668.4577</ele>
        <time>2021-07-08T17:49:48Z</time>
      </trkpt>
      <trkpt lat="40.81872" lon="-6.8445">
        <ele>666.9184</ele>
        <time>2021-07-08T17:49:59Z</time>
      </trkpt>
      <trkpt lat="40.8184" lon="-6.84394">
        <ele>668.2477</ele>
        <time>2021-07-08T17:50:10Z</time>
      </trkpt>
      <trkpt lat="40.81765" lon="-6.84344">
        <ele>672.3976</ele>
        <time>2021-07-08T17:50:22Z</time>
      </trkpt>
      <trkpt lat="40.81681" lon="-6.84293">
        <ele>676.0131</ele>
        <time>2021-07-08T17:50:33Z</time>
      </trkpt>
      <trkpt lat="40.81606" lon="-6.84238">
        <ele>675.9942</ele>
        <time>2021-07-08T17:50:44Z</time>
      </trkpt>
      <trkpt lat="40.81536" lon="-6.84196">
        <ele>677.6123</ele>
        <time>2021-07-08T17:50:55Z</time>
      </trkpt>
      <trkpt lat="40.81456" lon="-6.84184">
        <ele>680.4484</ele>
        <time>2021-07-08T17:51:06Z</time>
      </trkpt>
      <trkpt lat="40.8137" lon="-6.8418">
        <ele>684.2885</ele>
        <time>2021-07-08T17:51:17Z</time>
      </trkpt>
      <trkpt lat="40.81283" lon="-6.84245">
        <ele>686.4742</ele>
        <time>2021-07-08T17:51:28Z</time>
      </trkpt>
      <trkpt lat="40.81186" lon="-6.84314">
        <ele>688.9406</ele>
        <time>2021-07-08T17:51:39Z</time>
      </trkpt>
      <trkpt lat="40.81119" lon="-6.84359">
        <ele>692.2036</ele>
        <time>2021-07-08T17:51:50Z</time>
      </trkpt>
      <trkpt lat="40.81017" lon="-6.8438">
        <ele>695.3319</ele>
        <time>2021-07-08T17:52:01Z</time>
      </trkpt>
      <trkpt lat="40.80952" lon="-6.84306">
        <ele>694.3184</ele>
        <time>2021-07-08T17:52:12Z</time>
      </trkpt>
      <trkpt lat="40.80873" lon="-6.84273">
        <ele>695.9256</ele>
        <time>2021-07-08T17:52:23Z</time>
      </trkpt>
      <trkpt lat="40.80803" lon="-6.84231">
        <ele>702.0686</ele>
        <time>2021-07-08T17:52:35Z</time>
      </trkpt>
      <trkpt lat="40.80698" lon="-6.84219">
        <ele>708.3866</ele>
        <time>2021-07-08T17:52:46Z</time>
      </trkpt>
      <trkpt lat="40.80591" lon="-6.84191">
        <ele>712.6248</ele>
        <time>2021-07-08T17:52:57Z</time>
      </trkpt>
      <trkpt lat="40.80498" lon="-6.84141">
        <ele>714.0406</ele>
        <time>2021-07-08T17:53:08Z</time>
      </trkpt>
      <trkpt lat="40.8043" lon="-6.8413">
        <ele>716.0611</ele>
        <time>2021-07-08T17:53:19Z</time>
      </trkpt>
      <trkpt lat="40.80363" lon="-6.84059">
        <ele>720.5766</ele>
        <time>2021-07-08T17:53:30Z</time>
      </trkpt>
      <trkpt lat="40.80306" lon="-6.83945">
        <ele>718.1499</ele>
        <time>2021-07-08T17:53:41Z</time>
      </trkpt>
      <trkpt lat="40.80253" lon="-6.83871">
        <ele>722.9504</ele>
        <time>2021-07-08T17:53:52Z</time>
      </trkpt>
      <trkpt lat="40.80178" lon="-6.83816">
        <ele>723.4696</ele>
        <time>2021-07-08T17:54:03Z</time>
      </trkpt>
      <trkpt lat="40.80094" lon="-6.83781">
        <ele>719.5701</ele>
        <time>2021-07-08T17:54:14Z</time>
      </trkpt>
      <trkpt lat="40.80014" lon="-6.83757">
        <ele>718.4362</ele>
        <time>2021-07-08T17:54:25Z</time>
      </trkpt>
      <trkpt lat="40.79896" lon="-6.83779">
        <ele>718.4621</ele>
        <time>2021-07-08T17:54:36Z</time>
      </trkpt>
      <trkpt lat="40.79783" lon="-6.83768">
        <ele>717.5755</ele>
        <time>2021-07-08T17:54:47Z</time>
      </trkpt>
      <trkpt lat="40.79694" lon="-6.83858">
        <ele>718.977</ele>
        <time>2021-07-08T17:54:58Z</time>
      </trkpt>
      <trkpt lat="40.79657" lon="-6.83956">
        <ele>720.7522</ele>
        <time>2021-07-08T17:55:09Z</time>
      </trkpt>
      <trkpt lat="40.79602" lon="-6.84043">
        <ele>722.6773</ele>
        <time>2021-07-08T17:55:20Z</time>
      </trkpt>
      <trkpt lat="40.79554" lon="-6.84101">
        <ele>722.7988</ele>
        <time>2021-07-08T17:55:31Z</time>
      </trkpt>
      <trkpt lat="40.79494" lon="-6.84135">
        <ele>721.9925</ele>
        <time>2021-07-08T17:55:42Z</time>
      </trkpt>
      <trkpt lat="40.79389" lon="-6.84114">
        <ele>723.5878</ele>
        <time>2021-07-08T17:55:53Z</time>
      </trkpt>
      <trkpt lat="40.79298" lon="-6.84074">
        <ele>723.7845</ele>
        <time>2021-07-08T17:56:04Z</time>
      </trkpt>
      <trkpt lat="40.79156" lon="-6.84007">
        <ele>721.5318</ele>
        <time>2021-07-08T17:56:15Z</time>
      </trkpt>
      <trkpt lat="40.79053" lon="-6.83991">
        <ele>720.6412</ele>
        <time>2021-07-08T17:56:26Z</time>
      </trkpt>
      <trkpt lat="40.79051" lon="-6.83987">
        <ele>725.8869</ele>
        <time>2021-07-08T17:56:37Z</time>
      </trkpt>
      <trkpt lat="40.79046" lon="-6.83987">
        <ele>725.8655</ele>
        <time>2021-07-08T17:57:09Z</time>
      </trkpt>
      <trkpt lat="40.79042" lon="-6.83986">
        <ele>726.7025</ele>
        <time>2021-07-08T17:57:56Z</time>
      </trkpt>
      <trkpt lat="40.78958" lon="-6.83977">
        <ele>724.8308</ele>
        <time>2021-07-08T17:58:07Z</time>
      </trkpt>
      <trkpt lat="40.78893" lon="-6.83984">
        <ele>727.0437</ele>
        <time>2021-07-08T17:58:18Z</time>
      </trkpt>
      <trkpt lat="40.78833" lon="-6.83964">
        <ele>726.5833</ele>
        <time>2021-07-08T17:58:29Z</time>
      </trkpt>
      <trkpt lat="40.78776" lon="-6.83946">
        <ele>723.5976</ele>
        <time>2021-07-08T17:58:40Z</time>
      </trkpt>
      <trkpt lat="40.78729" lon="-6.83976">
        <ele>723.4533</ele>
        <time>2021-07-08T17:58:51Z</time>
      </trkpt>
      <trkpt lat="40.78664" lon="-6.83957">
        <ele>723.1446</ele>
        <time>2021-07-08T17:59:02Z</time>
      </trkpt>
      <trkpt lat="40.78604" lon="-6.83946">
        <ele>724.0417</ele>
        <time>2021-07-08T17:59:13Z</time>
      </trkpt>
      <trkpt lat="40.78559" lon="-6.83931">
        <ele>724.9678</ele>
        <time>2021-07-08T17:59:24Z</time>
      </trkpt>
      <trkpt lat="40.78515" lon="-6.83933">
        <ele>724.3298</ele>
        <time>2021-07-08T17:59:35Z</time>
      </trkpt>
      <trkpt lat="40.78459" lon="-6.83932">
        <ele>723.9249</ele>
        <time>2021-07-08T17:59:46Z</time>
      </trkpt>
      <trkpt lat="40.78403" lon="-6.83973">
        <ele>724.6539</ele>
        <time>2021-07-08T17:59:57Z</time>
      </trkpt>
      <trkpt lat="40.7835" lon="-6.83968">
        <ele>723.1744</ele>
        <time>2021-07-08T18:00:08Z</time>
      </trkpt>
      <trkpt lat="40.78289" lon="-6.83963">
        <ele>720.9159</ele>
        <time>2021-07-08T18:00:19Z</time>
      </trkpt>
      <trkpt lat="40.78217" lon="-6.83983">
        <ele>723.0842</ele>
        <time>2021-07-08T18:00:30Z</time>
      </trkpt>
      <trkpt lat="40.78159" lon="-6.84066">
        <ele>726.0861</ele>
        <time>2021-07-08T18:00:41Z</time>
      </trkpt>
      <trkpt lat="40.78104" lon="-6.84123">
        <ele>724.7412</ele>
        <time>2021-07-08T18:00:52Z</time>
      </trkpt>
      <trkpt lat="40.78039" lon="-6.84168">
        <ele>725.4341</ele>
        <time>2021-07-08T18:01:03Z</time>
      </trkpt>
      <trkpt lat="40.77967" lon="-6.8416">
        <ele>722.1206</ele>
        <time>2021-07-08T18:01:14Z</time>
      </trkpt>
      <trkpt lat="40.77908" lon="-6.8412">
        <ele>726.3568</ele>
        <time>2021-07-08T18:01:25Z</time>
      </trkpt>
      <trkpt lat="40.77872" lon="-6.84061">
        <ele>730.5114</ele>
        <time>2021-07-08T18:01:36Z</time>
      </trkpt>
      <trkpt lat="40.77804" lon="-6.84076">
        <ele>729.1306</ele>
        <time>2021-07-08T18:01:47Z</time>
      </trkpt>
      <trkpt lat="40.77691" lon="-6.84076">
        <ele>726.3117</ele>
        <time>2021-07-08T18:01:58Z</time>
      </trkpt>
      <trkpt lat="40.77555" lon="-6.84063">
        <ele>728.4591</ele>
        <time>2021-07-08T18:02:09Z</time>
      </trkpt>
      <trkpt lat="40.77436" lon="-6.84076">
        <ele>728.2736</ele>
        <time>2021-07-08T18:02:20Z</time>
      </trkpt>
      <trkpt lat="40.77334" lon="-6.84081">
        <ele>722.4551</ele>
        <time>2021-07-08T18:02:31Z</time>
      </trkpt>
      <trkpt lat="40.77227" lon="-6.84126">
        <ele>721.0113</ele>
        <time>2021-07-08T18:02:42Z</time>
      </trkpt>
      <trkpt lat="40.77115" lon="-6.84159">
        <ele>722.3756</ele>
        <time>2021-07-08T18:02:53Z</time>
      </trkpt>
      <trkpt lat="40.77021" lon="-6.84272">
        <ele>727.8681</ele>
        <time>2021-07-08T18:03:04Z</time>
      </trkpt>
      <trkpt lat="40.77007" lon="-6.84389">
        <ele>729.2573</ele>
        <time>2021-07-08T18:03:16Z</time>
      </trkpt>
      <trkpt lat="40.76935" lon="-6.84448">
        <ele>724.8369</ele>
        <time>2021-07-08T18:03:27Z</time>
      </trkpt>
      <trkpt lat="40.7688" lon="-6.84482">
        <ele>720.8935</ele>
        <time>2021-07-08T18:03:38Z</time>
      </trkpt>
      <trkpt lat="40.76877" lon="-6.84475">
        <ele>721.7713</ele>
        <time>2021-07-08T18:03:49Z</time>
      </trkpt>
      <trkpt lat="40.76877" lon="-6.84474">
        <ele>721.8424</ele>
        <time>2021-07-08T18:04:48Z</time>
      </trkpt>
      <trkpt lat="40.76877" lon="-6.84466">
        <ele>721.9101</ele>
        <time>2021-07-08T18:05:02Z</time>
      </trkpt>
      <trkpt lat="40.76861" lon="-6.8436">
        <ele>723.002</ele>
        <time>2021-07-08T18:05:13Z</time>
      </trkpt>
      <trkpt lat="40.7682" lon="-6.84258">
        <ele>726.3409</ele>
        <time>2021-07-08T18:05:24Z</time>
      </trkpt>
      <trkpt lat="40.76798" lon="-6.84153">
        <ele>727.4326</ele>
        <time>2021-07-08T18:05:35Z</time>
      </trkpt>
      <trkpt lat="40.76731" lon="-6.84107">
        <ele>724.9879</ele>
        <time>2021-07-08T18:05:46Z</time>
      </trkpt>
      <trkpt lat="40.76658" lon="-6.84098">
        <ele>723.3317</ele>
        <time>2021-07-08T18:05:57Z</time>
      </trkpt>
      <trkpt lat="40.76584" lon="-6.84075">
        <ele>724.6792</ele>
        <time>2021-07-08T18:06:08Z</time>
      </trkpt>
      <trkpt lat="40.76531" lon="-6.84045">
        <ele>728.2526</ele>
        <time>2021-07-08T18:06:19Z</time>
      </trkpt>
      <trkpt lat="40.76437" lon="-6.84054">
        <ele>729.2923</ele>
        <time>2021-07-08T18:06:30Z</time>
      </trkpt>
      <trkpt lat="40.76372" lon="-6.84092">
        <ele>731.954</ele>
        <time>2021-07-08T18:06:41Z</time>
      </trkpt>
      <trkpt lat="40.76295" lon="-6.8406">
        <ele>736.3747</ele>
        <time>2021-07-08T18:06:52Z</time>
      </trkpt>
      <trkpt lat="40.76204" lon="-6.84082">
        <ele>734.1963</ele>
        <time>2021-07-08T18:07:03Z</time>
      </trkpt>
      <trkpt lat="40.76124" lon="-6.84088">
        <ele>732.1631</ele>
        <time>2021-07-08T18:07:14Z</time>
      </trkpt>
      <trkpt lat="40.76024" lon="-6.8409">
        <ele>740.5136</ele>
        <time>2021-07-08T18:07:25Z</time>
      </trkpt>
      <trkpt lat="40.75914" lon="-6.84096">
        <ele>744.9241</ele>
        <time>2021-07-08T18:07:36Z</time>
      </trkpt>
      <trkpt lat="40.75787" lon="-6.84098">
        <ele>744.7118</ele>
        <time>2021-07-08T18:07:47Z</time>
      </trkpt>
      <trkpt lat="40.75665" lon="-6.84135">
        <ele>747.278</ele>
        <time>2021-07-08T18:07:58Z</time>
      </trkpt>
      <trkpt lat="40.75549" lon="-6.84171">
        <ele>742.6601</ele>
        <time>2021-07-08T18:08:09Z</time>
      </trkpt>
      <trkpt lat="40.75428" lon="-6.84194">
        <ele>738.7922</ele>
        <time>2021-07-08T18:08:20Z</time>
      </trkpt>
      <trkpt lat="40.75314" lon="-6.84207">
        <ele>741.2217</ele>
        <time>2021-07-08T18:08:31Z</time>
      </trkpt>
      <trkpt lat="40.75197" lon="-6.84168">
        <ele>749.7656</ele>
        <time>2021-07-08T18:08:42Z</time>
      </trkpt>
      <trkpt lat="40.75093" lon="-6.84109">
        <ele>753.0982</ele>
        <time>2021-07-08T18:08:53Z</time>
      </trkpt>
      <trkpt lat="40.75008" lon="-6.84085">
        <ele>742.3127</ele>
        <time>2021-07-08T18:09:04Z</time>
      </trkpt>
      <trkpt lat="40.74898" lon="-6.84072">
        <ele>739.8459</ele>
        <time>2021-07-08T18:09:15Z</time>
      </trkpt>
      <trkpt lat="40.7478" lon="-6.84056">
        <ele>742.1843</ele>
        <time>2021-07-08T18:09:26Z</time>
      </trkpt>
      <trkpt lat="40.74693" lon="-6.8413">
        <ele>742.4183</ele>
        <time>2021-07-08T18:09:37Z</time>
      </trkpt>
      <trkpt lat="40.74546" lon="-6.84178">
        <ele>740.5144</ele>
        <time>2021-07-08T18:09:48Z</time>
      </trkpt>
      <trkpt lat="40.74415" lon="-6.84172">
        <ele>738.3754</ele>
        <time>2021-07-08T18:09:59Z</time>
      </trkpt>
      <trkpt lat="40.74279" lon="-6.84151">
        <ele>740.1281</ele>
        <time>2021-07-08T18:10:10Z</time>
      </trkpt>
      <trkpt lat="40.74172" lon="-6.84157">
        <ele>739.9581</ele>
        <time>2021-07-08T18:10:21Z</time>
      </trkpt>
      <trkpt lat="40.74167" lon="-6.84155">
        <ele>739.2191</ele>
        <time>2021-07-08T18:10:34Z</time>
      </trkpt>
      <trkpt lat="40.74102" lon="-6.84091">
        <ele>738.9543</ele>
        <time>2021-07-08T18:10:45Z</time>
      </trkpt>
      <trkpt lat="40.74007" lon="-6.84059">
        <ele>735.7719</ele>
        <time>2021-07-08T18:10:56Z</time>
      </trkpt>
      <trkpt lat="40.73896" lon="-6.83968">
        <ele>735.0368</ele>
        <time>2021-07-08T18:11:07Z</time>
      </trkpt>
      <trkpt lat="40.73847" lon="-6.83879">
        <ele>739.0315</ele>
        <time>2021-07-08T18:11:18Z</time>
      </trkpt>
      <trkpt lat="40.73763" lon="-6.83889">
        <ele>739.8992</ele>
        <time>2021-07-08T18:11:29Z</time>
      </trkpt>
      <trkpt lat="40.7368" lon="-6.83834">
        <ele>740.588</ele>
        <time>2021-07-08T18:11:40Z</time>
      </trkpt>
      <trkpt lat="40.73555" lon="-6.83806">
        <ele>742.2622</ele>
        <time>2021-07-08T18:11:51Z</time>
      </trkpt>
      <trkpt lat="40.73414" lon="-6.83801">
        <ele>742.9637</ele>
        <time>2021-07-08T18:12:02Z</time>
      </trkpt>
      <trkpt lat="40.73369" lon="-6.83716">
        <ele>746.9883</ele>
        <time>2021-07-08T18:12:13Z</time>
      </trkpt>
      <trkpt lat="40.73318" lon="-6.83596">
        <ele>749.2501</ele>
        <time>2021-07-08T18:12:24Z</time>
      </trkpt>
      <trkpt lat="40.73238" lon="-6.83532">
        <ele>743.584</ele>
        <time>2021-07-08T18:12:35Z</time>
      </trkpt>
      <trkpt lat="40.73129" lon="-6.83484">
        <ele>738.6572</ele>
        <time>2021-07-08T18:12:46Z</time>
      </trkpt>
      <trkpt lat="40.73031" lon="-6.83416">
        <ele>732.4899</ele>
        <time>2021-07-08T18:12:57Z</time>
      </trkpt>
      <trkpt lat="40.72946" lon="-6.8334">
        <ele>730.7382</ele>
        <time>2021-07-08T18:13:08Z</time>
      </trkpt>
      <trkpt lat="40.72808" lon="-6.83264">
        <ele>730.0379</ele>
        <time>2021-07-08T18:13:19Z</time>
      </trkpt>
      <trkpt lat="40.7277" lon="-6.83254">
        <ele>729.0492</ele>
        <time>2021-07-08T18:13:30Z</time>
      </trkpt>
      <trkpt lat="40.72766" lon="-6.83222">
        <ele>728.3032</ele>
        <time>2021-07-08T18:13:41Z</time>
      </trkpt>
      <trkpt lat="40.72772" lon="-6.83093">
        <ele>723.8747</ele>
        <time>2021-07-08T18:13:52Z</time>
      </trkpt>
      <trkpt lat="40.72738" lon="-6.82976">
        <ele>720.6346</ele>
        <time>2021-07-08T18:14:03Z</time>
      </trkpt>
      <trkpt lat="40.72662" lon="-6.82902">
        <ele>716.109</ele>
        <time>2021-07-08T18:14:14Z</time>
      </trkpt>
      <trkpt lat="40.72573" lon="-6.82851">
        <ele>717.9195</ele>
        <time>2021-07-08T18:14:25Z</time>
      </trkpt>
      <trkpt lat="40.72431" lon="-6.8291">
        <ele>723.8713</ele>
        <time>2021-07-08T18:14:36Z</time>
      </trkpt>
      <trkpt lat="40.72249" lon="-6.82997">
        <ele>727.7611</ele>
        <time>2021-07-08T18:14:47Z</time>
      </trkpt>
      <trkpt lat="40.72033" lon="-6.82952">
        <ele>735.2863</ele>
        <time>2021-07-08T18:14:58Z</time>
      </trkpt>
      <trkpt lat="40.71819" lon="-6.82802">
        <ele>742.3958</ele>
        <time>2021-07-08T18:15:09Z</time>
      </trkpt>
      <trkpt lat="40.7163" lon="-6.82672">
        <ele>732.9582</ele>
        <time>2021-07-08T18:15:20Z</time>
      </trkpt>
      <trkpt lat="40.71426" lon="-6.82626">
        <ele>731.1051</ele>
        <time>2021-07-08T18:15:31Z</time>
      </trkpt>
      <trkpt lat="40.71267" lon="-6.82484">
        <ele>737.4133</ele>
        <time>2021-07-08T18:15:42Z</time>
      </trkpt>
      <trkpt lat="40.71039" lon="-6.82385">
        <ele>742.0777</ele>
        <time>2021-07-08T18:15:53Z</time>
      </trkpt>
      <trkpt lat="40.70816" lon="-6.82297">
        <ele>747.5346</ele>
        <time>2021-07-08T18:16:04Z</time>
      </trkpt>
      <trkpt lat="40.70643" lon="-6.8223">
        <ele>748.583</ele>
        <time>2021-07-08T18:16:15Z</time>
      </trkpt>
      <trkpt lat="40.70505" lon="-6.82322">
        <ele>750.0379</ele>
        <time>2021-07-08T18:16:26Z</time>
      </trkpt>
      <trkpt lat="40.7039" lon="-6.82313">
        <ele>753.0302</ele>
        <time>2021-07-08T18:16:37Z</time>
      </trkpt>
      <trkpt lat="40.70369" lon="-6.8237">
        <ele>755.0119</ele>
        <time>2021-07-08T18:16:48Z</time>
      </trkpt>
      <trkpt lat="40.70295" lon="-6.82407">
        <ele>752.2769</ele>
        <time>2021-07-08T18:16:59Z</time>
      </trkpt>
      <trkpt lat="40.70158" lon="-6.82419">
        <ele>748.2286</ele>
        <time>2021-07-08T18:17:10Z</time>
      </trkpt>
      <trkpt lat="40.70097" lon="-6.82281">
        <ele>748.7149</ele>
        <time>2021-07-08T18:17:22Z</time>
      </trkpt>
      <trkpt lat="40.69998" lon="-6.82185">
        <ele>750.1317</ele>
        <time>2021-07-08T18:17:33Z</time>
      </trkpt>
      <trkpt lat="40.69848" lon="-6.82168">
        <ele>751.1973</ele>
        <time>2021-07-08T18:17:44Z</time>
      </trkpt>
      <trkpt lat="40.69738" lon="-6.82194">
        <ele>748.4983</ele>
        <time>2021-07-08T18:17:55Z</time>
      </trkpt>
      <trkpt lat="40.69577" lon="-6.82153">
        <ele>750.8015</ele>
        <time>2021-07-08T18:18:06Z</time>
      </trkpt>
      <trkpt lat="40.69396" lon="-6.82144">
        <ele>753.0082</ele>
        <time>2021-07-08T18:18:17Z</time>
      </trkpt>
      <trkpt lat="40.6922" lon="-6.82152">
        <ele>753.9412</ele>
        <time>2021-07-08T18:18:28Z</time>
      </trkpt>
      <trkpt lat="40.69061" lon="-6.82211">
        <ele>757.7285</ele>
        <time>2021-07-08T18:18:39Z</time>
      </trkpt>
      <trkpt lat="40.68924" lon="-6.82263">
        <ele>761.3924</ele>
        <time>2021-07-08T18:18:50Z</time>
      </trkpt>
      <trkpt lat="40.68796" lon="-6.8236">
        <ele>767.5492</ele>
        <time>2021-07-08T18:19:01Z</time>
      </trkpt>
      <trkpt lat="40.68634" lon="-6.82381">
        <ele>770.4953</ele>
        <time>2021-07-08T18:19:12Z</time>
      </trkpt>
      <trkpt lat="40.68477" lon="-6.82427">
        <ele>771.7163</ele>
        <time>2021-07-08T18:19:23Z</time>
      </trkpt>
      <trkpt lat="40.68297" lon="-6.82479">
        <ele>774.7556</ele>
        <time>2021-07-08T18:19:34Z</time>
      </trkpt>
      <trkpt lat="40.68116" lon="-6.82493">
        <ele>775.5498</ele>
        <time>2021-07-08T18:19:45Z</time>
      </trkpt>
      <trkpt lat="40.67972" lon="-6.82552">
        <ele>777.2051</ele>
        <time>2021-07-08T18:19:56Z</time>
      </trkpt>
      <trkpt lat="40.67799" lon="-6.82648">
        <ele>774.1977</ele>
        <time>2021-07-08T18:20:07Z</time>
      </trkpt>
      <trkpt lat="40.67635" lon="-6.82772">
        <ele>774.3916</ele>
        <time>2021-07-08T18:20:18Z</time>
      </trkpt>
      <trkpt lat="40.67473" lon="-6.82826">
        <ele>778.6681</ele>
        <time>2021-07-08T18:20:29Z</time>
      </trkpt>
      <trkpt lat="40.67339" lon="-6.82943">
        <ele>776.5005</ele>
        <time>2021-07-08T18:20:40Z</time>
      </trkpt>
      <trkpt lat="40.6719" lon="-6.83101">
        <ele>779.3888</ele>
        <time>2021-07-08T18:20:51Z</time>
      </trkpt>
      <trkpt lat="40.67044" lon="-6.83278">
        <ele>778.7799</ele>
        <time>2021-07-08T18:21:02Z</time>
      </trkpt>
      <trkpt lat="40.66881" lon="-6.83405">
        <ele>777.0418</ele>
        <time>2021-07-08T18:21:13Z</time>
      </trkpt>
      <trkpt lat="40.6673" lon="-6.83531">
        <ele>770.4689</ele>
        <time>2021-07-08T18:21:24Z</time>
      </trkpt>
      <trkpt lat="40.66589" lon="-6.83714">
        <ele>771.5849</ele>
        <time>2021-07-08T18:21:35Z</time>
      </trkpt>
      <trkpt lat="40.66459" lon="-6.83839">
        <ele>769.8859</ele>
        <time>2021-07-08T18:21:46Z</time>
      </trkpt>
      <trkpt lat="40.66328" lon="-6.83974">
        <ele>767.1374</ele>
        <time>2021-07-08T18:21:57Z</time>
      </trkpt>
      <trkpt lat="40.66266" lon="-6.84041">
        <ele>769.6618</ele>
        <time>2021-07-08T18:22:08Z</time>
      </trkpt>
      <trkpt lat="40.66197" lon="-6.84079">
        <ele>771.9403</ele>
        <time>2021-07-08T18:22:19Z</time>
      </trkpt>
      <trkpt lat="40.66132" lon="-6.84096">
        <ele>776.189</ele>
        <time>2021-07-08T18:22:30Z</time>
      </trkpt>
      <trkpt lat="40.66086" lon="-6.84091">
        <ele>771.6331</ele>
        <time>2021-07-08T18:22:41Z</time>
      </trkpt>
      <trkpt lat="40.66071" lon="-6.84001">
        <ele>775.5917</ele>
        <time>2021-07-08T18:22:52Z</time>
      </trkpt>
      <trkpt lat="40.66062" lon="-6.83878">
        <ele>777.6712</ele>
        <time>2021-07-08T18:23:03Z</time>
      </trkpt>
      <trkpt lat="40.66047" lon="-6.83712">
        <ele>777.8552</ele>
        <time>2021-07-08T18:23:14Z</time>
      </trkpt>
      <trkpt lat="40.66024" lon="-6.83614">
        <ele>782.1022</ele>
        <time>2021-07-08T18:23:25Z</time>
      </trkpt>
      <trkpt lat="40.65976" lon="-6.83492">
        <ele>782.4205</ele>
        <time>2021-07-08T18:23:36Z</time>
      </trkpt>
      <trkpt lat="40.66005" lon="-6.83357">
        <ele>780.5248</ele>
        <time>2021-07-08T18:23:47Z</time>
      </trkpt>
      <trkpt lat="40.65999" lon="-6.83211">
        <ele>779.1488</ele>
        <time>2021-07-08T18:23:58Z</time>
      </trkpt>
      <trkpt lat="40.65915" lon="-6.83108">
        <ele>777.3053</ele>
        <time>2021-07-08T18:24:09Z</time>
      </trkpt>
      <trkpt lat="40.65843" lon="-6.82982">
        <ele>776.3894</ele>
        <time>2021-07-08T18:24:20Z</time>
      </trkpt>
      <trkpt lat="40.65772" lon="-6.82884">
        <ele>776.5539</ele>
        <time>2021-07-08T18:24:31Z</time>
      </trkpt>
      <trkpt lat="40.65743" lon="-6.82782">
        <ele>772.2251</ele>
        <time>2021-07-08T18:24:42Z</time>
      </trkpt>
      <trkpt lat="40.6575" lon="-6.82643">
        <ele>766.8715</ele>
        <time>2021-07-08T18:24:53Z</time>
      </trkpt>
      <trkpt lat="40.65743" lon="-6.82529">
        <ele>763.9547</ele>
        <time>2021-07-08T18:25:04Z</time>
      </trkpt>
      <trkpt lat="40.65716" lon="-6.82409">
        <ele>763.0749</ele>
        <time>2021-07-08T18:25:15Z</time>
      </trkpt>
      <trkpt lat="40.65681" lon="-6.82302">
        <ele>760.1934</ele>
        <time>2021-07-08T18:25:26Z</time>
      </trkpt>
      <trkpt lat="40.65654" lon="-6.82207">
        <ele>772.6742</ele>
        <time>2021-07-08T18:25:37Z</time>
      </trkpt>
      <trkpt lat="40.65636" lon="-6.82094">
        <ele>769.1866</ele>
        <time>2021-07-08T18:25:48Z</time>
      </trkpt>
      <trkpt lat="40.65601" lon="-6.82">
        <ele>768.3682</ele>
        <time>2021-07-08T18:25:59Z</time>
      </trkpt>
      <trkpt lat="40.65557" lon="-6.81937">
        <ele>768.9412</ele>
        <time>2021-07-08T18:26:10Z</time>
      </trkpt>
      <trkpt lat="40.65492" lon="-6.81877">
        <ele>769.3308</ele>
        <time>2021-07-08T18:26:21Z</time>
      </trkpt>
      <trkpt lat="40.65464" lon="-6.81825">
        <ele>765.8392</ele>
        <time>2021-07-08T18:26:32Z</time>
      </trkpt>
      <trkpt lat="40.65423" lon="-6.81765">
        <ele>763.5666</ele>
        <time>2021-07-08T18:26:43Z</time>
      </trkpt>
      <trkpt lat="40.65368" lon="-6.8168">
        <ele>760.9836</ele>
        <time>2021-07-08T18:26:54Z</time>
      </trkpt>
      <trkpt lat="40.65282" lon="-6.81649">
        <ele>761.1949</ele>
        <time>2021-07-08T18:27:05Z</time>
      </trkpt>
      <trkpt lat="40.65202" lon="-6.8162">
        <ele>757.5557</ele>
        <time>2021-07-08T18:27:16Z</time>
      </trkpt>
      <trkpt lat="40.65138" lon="-6.81588">
        <ele>756.5052</ele>
        <time>2021-07-08T18:27:27Z</time>
      </trkpt>
      <trkpt lat="40.651" lon="-6.81509">
        <ele>752.6264</ele>
        <time>2021-07-08T18:27:38Z</time>
      </trkpt>
      <trkpt lat="40.64996" lon="-6.8129">
        <ele>744.5556</ele>
        <time>2021-07-08T18:27:49Z</time>
      </trkpt>
      <trkpt lat="40.6487" lon="-6.81062">
        <ele>745.6293</ele>
        <time>2021-07-08T18:28:00Z</time>
      </trkpt>
      <trkpt lat="40.64832" lon="-6.81024">
        <ele>745.9694</ele>
        <time>2021-07-08T18:28:11Z</time>
      </trkpt>
      <trkpt lat="40.64868" lon="-6.81098">
        <ele>741.1191</ele>
        <time>2021-07-08T18:28:22Z</time>
      </trkpt>
      <trkpt lat="40.64853" lon="-6.81112">
        <ele>742.2023</ele>
        <time>2021-07-08T18:28:33Z</time>
      </trkpt>
      <trkpt lat="40.64848" lon="-6.81114">
        <ele>744.3405</ele>
        <time>2021-07-08T18:28:44Z</time>
      </trkpt>
      <trkpt lat="40.64864" lon="-6.81103">
        <ele>744.1345</ele>
        <time>2021-07-08T18:28:55Z</time>
      </trkpt>
      <trkpt lat="40.64884" lon="-6.81107">
        <ele>744.1951</ele>
        <time>2021-07-08T18:29:06Z</time>
      </trkpt>
      <trkpt lat="40.64886" lon="-6.81112">
        <ele>748.8081</ele>
        <time>2021-07-08T18:29:42Z</time>
      </trkpt>
      <trkpt lat="40.64882" lon="-6.81105">
        <ele>748.5179</ele>
        <time>2021-07-08T18:29:53Z</time>
      </trkpt>
      <trkpt lat="40.64832" lon="-6.81018">
        <ele>749.9176</ele>
        <time>2021-07-08T18:30:04Z</time>
      </trkpt>
      <trkpt lat="40.64832" lon="-6.81008">
        <ele>748.7597</ele>
        <time>2021-07-08T18:30:15Z</time>
      </trkpt>
      <trkpt lat="40.648" lon="-6.80951">
        <ele>749.9635</ele>
        <time>2021-07-08T18:30:26Z</time>
      </trkpt>
      <trkpt lat="40.64684" lon="-6.80731">
        <ele>758.309</ele>
        <time>2021-07-08T18:30:37Z</time>
      </trkpt>
      <trkpt lat="40.64612" lon="-6.80495">
        <ele>763.3405</ele>
        <time>2021-07-08T18:30:48Z</time>
      </trkpt>
      <trkpt lat="40.64585" lon="-6.80233">
        <ele>773.485</ele>
        <time>2021-07-08T18:30:59Z</time>
      </trkpt>
      <trkpt lat="40.64556" lon="-6.80136">
        <ele>772.4287</ele>
        <time>2021-07-08T18:31:10Z</time>
      </trkpt>
      <trkpt lat="40.6455" lon="-6.80135">
        <ele>772.9647</ele>
        <time>2021-07-08T18:31:28Z</time>
      </trkpt>
      <trkpt lat="40.64366" lon="-6.80191">
        <ele>779.4548</ele>
        <time>2021-07-08T18:31:39Z</time>
      </trkpt>
      <trkpt lat="40.6411" lon="-6.8027">
        <ele>787.4394</ele>
        <time>2021-07-08T18:31:50Z</time>
      </trkpt>
      <trkpt lat="40.63848" lon="-6.80351">
        <ele>795.2214</ele>
        <time>2021-07-08T18:32:01Z</time>
      </trkpt>
      <trkpt lat="40.63593" lon="-6.80432">
        <ele>789.8274</ele>
        <time>2021-07-08T18:32:12Z</time>
      </trkpt>
      <trkpt lat="40.63333" lon="-6.80514">
        <ele>788.1318</ele>
        <time>2021-07-08T18:32:23Z</time>
      </trkpt>
      <trkpt lat="40.63084" lon="-6.80653">
        <ele>790.787</ele>
        <time>2021-07-08T18:32:34Z</time>
      </trkpt>
      <trkpt lat="40.62841" lon="-6.80824">
        <ele>788.9148</ele>
        <time>2021-07-08T18:32:45Z</time>
      </trkpt>
      <trkpt lat="40.62594" lon="-6.80996">
        <ele>788.4096</ele>
        <time>2021-07-08T18:32:56Z</time>
      </trkpt>
      <trkpt lat="40.6235" lon="-6.81165">
        <ele>791.3903</ele>
        <time>2021-07-08T18:33:07Z</time>
      </trkpt>
      <trkpt lat="40.62109" lon="-6.81333">
        <ele>788.7512</ele>
        <time>2021-07-08T18:33:18Z</time>
      </trkpt>
      <trkpt lat="40.61865" lon="-6.81504">
        <ele>790.1114</ele>
        <time>2021-07-08T18:33:29Z</time>
      </trkpt>
      <trkpt lat="40.61647" lon="-6.81661">
        <ele>791.8881</ele>
        <time>2021-07-08T18:33:40Z</time>
      </trkpt>
      <trkpt lat="40.61464" lon="-6.81762">
        <ele>788.5661</ele>
        <time>2021-07-08T18:33:51Z</time>
      </trkpt>
      <trkpt lat="40.6133" lon="-6.81819">
        <ele>782.6573</ele>
        <time>2021-07-08T18:34:02Z</time>
      </trkpt>
      <trkpt lat="40.61233" lon="-6.819">
        <ele>783.4698</ele>
        <time>2021-07-08T18:34:13Z</time>
      </trkpt>
      <trkpt lat="40.61173" lon="-6.81958">
        <ele>784.2921</ele>
        <time>2021-07-08T18:34:24Z</time>
      </trkpt>
      <trkpt lat="40.61061" lon="-6.82049">
        <ele>791.415</ele>
        <time>2021-07-08T18:34:35Z</time>
      </trkpt>
      <trkpt lat="40.60922" lon="-6.82104">
        <ele>788.5211</ele>
        <time>2021-07-08T18:34:46Z</time>
      </trkpt>
      <trkpt lat="40.60825" lon="-6.82129">
        <ele>786.086</ele>
        <time>2021-07-08T18:34:57Z</time>
      </trkpt>
      <trkpt lat="40.60779" lon="-6.82212">
        <ele>786.2892</ele>
        <time>2021-07-08T18:35:08Z</time>
      </trkpt>
      <trkpt lat="40.60728" lon="-6.82409">
        <ele>787.5576</ele>
        <time>2021-07-08T18:35:19Z</time>
      </trkpt>
      <trkpt lat="40.60811" lon="-6.82598">
        <ele>793.4393</ele>
        <time>2021-07-08T18:35:30Z</time>
      </trkpt>
      <trkpt lat="40.60902" lon="-6.8274">
        <ele>790.0573</ele>
        <time>2021-07-08T18:35:41Z</time>
      </trkpt>
      <trkpt lat="40.61014" lon="-6.82836">
        <ele>781.3955</ele>
        <time>2021-07-08T18:35:52Z</time>
      </trkpt>
      <trkpt lat="40.61084" lon="-6.82926">
        <ele>777.7932</ele>
        <time>2021-07-08T18:36:03Z</time>
      </trkpt>
      <trkpt lat="40.61089" lon="-6.83046">
        <ele>773.9818</ele>
        <time>2021-07-08T18:36:14Z</time>
      </trkpt>
      <trkpt lat="40.61169" lon="-6.83186">
        <ele>769.4442</ele>
        <time>2021-07-08T18:36:25Z</time>
      </trkpt>
      <trkpt lat="40.61264" lon="-6.83297">
        <ele>764.9421</ele>
        <time>2021-07-08T18:36:36Z</time>
      </trkpt>
      <trkpt lat="40.61367" lon="-6.83409">
        <ele>760.6367</ele>
        <time>2021-07-08T18:36:47Z</time>
      </trkpt>
      <trkpt lat="40.61432" lon="-6.83522">
        <ele>761.0732</ele>
        <time>2021-07-08T18:36:58Z</time>
      </trkpt>
      <trkpt lat="40.61482" lon="-6.83681">
        <ele>765.5902</ele>
        <time>2021-07-08T18:37:09Z</time>
      </trkpt>
      <trkpt lat="40.61524" lon="-6.83827">
        <ele>771.1805</ele>
        <time>2021-07-08T18:37:20Z</time>
      </trkpt>
      <trkpt lat="40.61455" lon="-6.83842">
        <ele>774.8015</ele>
        <time>2021-07-08T18:37:31Z</time>
      </trkpt>
      <trkpt lat="40.61382" lon="-6.83859">
        <ele>773.0476</ele>
        <time>2021-07-08T18:37:42Z</time>
      </trkpt>
      <trkpt lat="40.61294" lon="-6.8393">
        <ele>773.3618</ele>
        <time>2021-07-08T18:37:53Z</time>
      </trkpt>
      <trkpt lat="40.61219" lon="-6.8399">
        <ele>770.2364</ele>
        <time>2021-07-08T18:38:04Z</time>
      </trkpt>
      <trkpt lat="40.61187" lon="-6.8405">
        <ele>770.3814</ele>
        <time>2021-07-08T18:38:15Z</time>
      </trkpt>
      <trkpt lat="40.61158" lon="-6.84069">
        <ele>772.9118</ele>
        <time>2021-07-08T18:38:26Z</time>
      </trkpt>
      <trkpt lat="40.61158" lon="-6.84069">
        <ele>775.5271</ele>
        <time>2021-07-08T18:39:26Z</time>
      </trkpt>
      <trkpt lat="40.61159" lon="-6.84069">
        <ele>774.1785</ele>
        <time>2021-07-08T18:40:26Z</time>
      </trkpt>
      <trkpt lat="40.61163" lon="-6.84071">
        <ele>773.362</ele>
        <time>2021-07-08T18:41:07Z</time>
      </trkpt>
      <trkpt lat="40.61161" lon="-6.8407">
        <ele>770.8713</ele>
        <time>2021-07-08T18:42:07Z</time>
      </trkpt>
      <trkpt lat="40.61162" lon="-6.84071">
        <ele>771.0183</ele>
        <time>2021-07-08T18:43:07Z</time>
      </trkpt>
      <trkpt lat="40.61161" lon="-6.84072">
        <ele>769.9487</ele>
        <time>2021-07-08T18:44:07Z</time>
      </trkpt>
      <trkpt lat="40.61161" lon="-6.84071">
        <ele>768.6885</ele>
        <time>2021-07-08T18:45:07Z</time>
      </trkpt>
      <trkpt lat="40.61162" lon="-6.84071">
        <ele>772.7598</ele>
        <time>2021-07-08T18:46:07Z</time>
      </trkpt>
      <trkpt lat="40.61159" lon="-6.84069">
        <ele>772.0866</ele>
        <time>2021-07-08T18:47:07Z</time>
      </trkpt>
      <trkpt lat="40.61158" lon="-6.84069">
        <ele>775.1212</ele>
        <time>2021-07-08T18:48:07Z</time>
      </trkpt>
      <trkpt lat="40.61151" lon="-6.8407">
        <ele>774.5478</ele>
        <time>2021-07-08T18:49:02Z</time>
      </trkpt>
      <trkpt lat="40.61041" lon="-6.84104">
        <ele>772.597</ele>
        <time>2021-07-08T18:49:13Z</time>
      </trkpt>
      <trkpt lat="40.60936" lon="-6.84173">
        <ele>766.894</ele>
        <time>2021-07-08T18:49:24Z</time>
      </trkpt>
      <trkpt lat="40.60847" lon="-6.84211">
        <ele>759.6566</ele>
        <time>2021-07-08T18:49:35Z</time>
      </trkpt>
      <trkpt lat="40.60724" lon="-6.84261">
        <ele>761.6243</ele>
        <time>2021-07-08T18:49:46Z</time>
      </trkpt>
      <trkpt lat="40.6062" lon="-6.84373">
        <ele>764.2808</ele>
        <time>2021-07-08T18:49:57Z</time>
      </trkpt>
      <trkpt lat="40.60517" lon="-6.84484">
        <ele>764.3203</ele>
        <time>2021-07-08T18:50:08Z</time>
      </trkpt>
      <trkpt lat="40.60383" lon="-6.84569">
        <ele>762.3069</ele>
        <time>2021-07-08T18:50:19Z</time>
      </trkpt>
      <trkpt lat="40.60268" lon="-6.84627">
        <ele>758.8993</ele>
        <time>2021-07-08T18:50:30Z</time>
      </trkpt>
      <trkpt lat="40.60179" lon="-6.84712">
        <ele>755.629</ele>
        <time>2021-07-08T18:50:41Z</time>
      </trkpt>
      <trkpt lat="40.60083" lon="-6.84862">
        <ele>755.0599</ele>
        <time>2021-07-08T18:50:52Z</time>
      </trkpt>
      <trkpt lat="40.60023" lon="-6.85024">
        <ele>770.9733</ele>
        <time>2021-07-08T18:51:03Z</time>
      </trkpt>
      <trkpt lat="40.60023" lon="-6.85208">
        <ele>784.3525</ele>
        <time>2021-07-08T18:51:14Z</time>
      </trkpt>
      <trkpt lat="40.60023" lon="-6.8539">
        <ele>787.2821</ele>
        <time>2021-07-08T18:51:25Z</time>
      </trkpt>
      <trkpt lat="40.60072" lon="-6.8556">
        <ele>791.5588</ele>
        <time>2021-07-08T18:51:36Z</time>
      </trkpt>
      <trkpt lat="40.60145" lon="-6.85673">
        <ele>795.5111</ele>
        <time>2021-07-08T18:51:47Z</time>
      </trkpt>
      <trkpt lat="40.60229" lon="-6.85809">
        <ele>801.3515</ele>
        <time>2021-07-08T18:51:58Z</time>
      </trkpt>
      <trkpt lat="40.60271" lon="-6.85983">
        <ele>804.9088</ele>
        <time>2021-07-08T18:52:09Z</time>
      </trkpt>
      <trkpt lat="40.60303" lon="-6.86102">
        <ele>808.0409</ele>
        <time>2021-07-08T18:52:20Z</time>
      </trkpt>
      <trkpt lat="40.60226" lon="-6.86175">
        <ele>804.206</ele>
        <time>2021-07-08T18:52:31Z</time>
      </trkpt>
      <trkpt lat="40.60105" lon="-6.86268">
        <ele>793.8958</ele>
        <time>2021-07-08T18:52:42Z</time>
      </trkpt>
      <trkpt lat="40.59967" lon="-6.86328">
        <ele>792.0595</ele>
        <time>2021-07-08T18:52:53Z</time>
      </trkpt>
      <trkpt lat="40.59837" lon="-6.86429">
        <ele>795.7078</ele>
        <time>2021-07-08T18:53:04Z</time>
      </trkpt>
      <trkpt lat="40.59732" lon="-6.8643">
        <ele>806.0617</ele>
        <time>2021-07-08T18:53:15Z</time>
      </trkpt>
      <trkpt lat="40.5964" lon="-6.86452">
        <ele>804.404</ele>
        <time>2021-07-08T18:53:26Z</time>
      </trkpt>
      <trkpt lat="40.5955" lon="-6.86506">
        <ele>808.4648</ele>
        <time>2021-07-08T18:53:37Z</time>
      </trkpt>
      <trkpt lat="40.59464" lon="-6.86597">
        <ele>808.1121</ele>
        <time>2021-07-08T18:53:48Z</time>
      </trkpt>
      <trkpt lat="40.5937" lon="-6.8664">
        <ele>806.1008</ele>
        <time>2021-07-08T18:53:59Z</time>
      </trkpt>
      <trkpt lat="40.59252" lon="-6.86642">
        <ele>804.7274</ele>
        <time>2021-07-08T18:54:10Z</time>
      </trkpt>
      <trkpt lat="40.59162" lon="-6.8664">
        <ele>802.6311</ele>
        <time>2021-07-08T18:54:21Z</time>
      </trkpt>
      <trkpt lat="40.59066" lon="-6.8666">
        <ele>801.1297</ele>
        <time>2021-07-08T18:54:32Z</time>
      </trkpt>
      <trkpt lat="40.5897" lon="-6.86753">
        <ele>798.4443</ele>
        <time>2021-07-08T18:54:43Z</time>
      </trkpt>
      <trkpt lat="40.58845" lon="-6.86824">
        <ele>798.821</ele>
        <time>2021-07-08T18:54:54Z</time>
      </trkpt>
      <trkpt lat="40.58726" lon="-6.86889">
        <ele>797.643</ele>
        <time>2021-07-08T18:55:05Z</time>
      </trkpt>
      <trkpt lat="40.58605" lon="-6.8689">
        <ele>795.9951</ele>
        <time>2021-07-08T18:55:16Z</time>
      </trkpt>
      <trkpt lat="40.58485" lon="-6.86929">
        <ele>795.9704</ele>
        <time>2021-07-08T18:55:27Z</time>
      </trkpt>
      <trkpt lat="40.58393" lon="-6.86978">
        <ele>796.4422</ele>
        <time>2021-07-08T18:55:38Z</time>
      </trkpt>
      <trkpt lat="40.58267" lon="-6.8702">
        <ele>797.5278</ele>
        <time>2021-07-08T18:55:50Z</time>
      </trkpt>
      <trkpt lat="40.58143" lon="-6.87077">
        <ele>801.1517</ele>
        <time>2021-07-08T18:56:01Z</time>
      </trkpt>
      <trkpt lat="40.58025" lon="-6.87105">
        <ele>802.1567</ele>
        <time>2021-07-08T18:56:12Z</time>
      </trkpt>
      <trkpt lat="40.57911" lon="-6.87191">
        <ele>801.9239</ele>
        <time>2021-07-08T18:56:23Z</time>
      </trkpt>
      <trkpt lat="40.57784" lon="-6.87255">
        <ele>803.4185</ele>
        <time>2021-07-08T18:56:34Z</time>
      </trkpt>
      <trkpt lat="40.57667" lon="-6.87307">
        <ele>802.6883</ele>
        <time>2021-07-08T18:56:45Z</time>
      </trkpt>
      <trkpt lat="40.57537" lon="-6.87373">
        <ele>804.5975</ele>
        <time>2021-07-08T18:56:56Z</time>
      </trkpt>
      <trkpt lat="40.57406" lon="-6.87441">
        <ele>807.6354</ele>
        <time>2021-07-08T18:57:07Z</time>
      </trkpt>
      <trkpt lat="40.57271" lon="-6.87536">
        <ele>813.5336</ele>
        <time>2021-07-08T18:57:18Z</time>
      </trkpt>
      <trkpt lat="40.57145" lon="-6.87644">
        <ele>815.612</ele>
        <time>2021-07-08T18:57:29Z</time>
      </trkpt>
      <trkpt lat="40.57028" lon="-6.87732">
        <ele>821.4775</ele>
        <time>2021-07-08T18:57:40Z</time>
      </trkpt>
      <trkpt lat="40.56942" lon="-6.87748">
        <ele>824.5535</ele>
        <time>2021-07-08T18:57:51Z</time>
      </trkpt>
      <trkpt lat="40.56811" lon="-6.8768">
        <ele>821.3894</ele>
        <time>2021-07-08T18:58:02Z</time>
      </trkpt>
      <trkpt lat="40.56675" lon="-6.87671">
        <ele>821.6177</ele>
        <time>2021-07-08T18:58:13Z</time>
      </trkpt>
      <trkpt lat="40.56535" lon="-6.87697">
        <ele>820.394</ele>
        <time>2021-07-08T18:58:24Z</time>
      </trkpt>
      <trkpt lat="40.56404" lon="-6.87696">
        <ele>824.25</ele>
        <time>2021-07-08T18:58:35Z</time>
      </trkpt>
      <trkpt lat="40.56278" lon="-6.87652">
        <ele>825.025</ele>
        <time>2021-07-08T18:58:46Z</time>
      </trkpt>
      <trkpt lat="40.56162" lon="-6.87596">
        <ele>822.3522</ele>
        <time>2021-07-08T18:58:57Z</time>
      </trkpt>
      <trkpt lat="40.56055" lon="-6.87541">
        <ele>822.9892</ele>
        <time>2021-07-08T18:59:08Z</time>
      </trkpt>
      <trkpt lat="40.55924" lon="-6.87532">
        <ele>822.1036</ele>
        <time>2021-07-08T18:59:19Z</time>
      </trkpt>
      <trkpt lat="40.55764" lon="-6.8752">
        <ele>822.48</ele>
        <time>2021-07-08T18:59:30Z</time>
      </trkpt>
      <trkpt lat="40.55621" lon="-6.87496">
        <ele>822.1885</ele>
        <time>2021-07-08T18:59:42Z</time>
      </trkpt>
      <trkpt lat="40.55482" lon="-6.87501">
        <ele>821.968</ele>
        <time>2021-07-08T18:59:53Z</time>
      </trkpt>
      <trkpt lat="40.55422" lon="-6.87468">
        <ele>821.7763</ele>
        <time>2021-07-08T19:00:04Z</time>
      </trkpt>
      <trkpt lat="40.553" lon="-6.87451">
        <ele>820.8438</ele>
        <time>2021-07-08T19:00:15Z</time>
      </trkpt>
      <trkpt lat="40.55153" lon="-6.87446">
        <ele>817.8918</ele>
        <time>2021-07-08T19:00:26Z</time>
      </trkpt>
      <trkpt lat="40.55072" lon="-6.87442">
        <ele>816.3471</ele>
        <time>2021-07-08T19:00:37Z</time>
      </trkpt>
      <trkpt lat="40.5493" lon="-6.87471">
        <ele>816.8888</ele>
        <time>2021-07-08T19:00:48Z</time>
      </trkpt>
      <trkpt lat="40.54774" lon="-6.87554">
        <ele>819.9335</ele>
        <time>2021-07-08T19:00:59Z</time>
      </trkpt>
      <trkpt lat="40.54578" lon="-6.87661">
        <ele>817.9855</ele>
        <time>2021-07-08T19:01:10Z</time>
      </trkpt>
      <trkpt lat="40.54402" lon="-6.8777">
        <ele>806.8845</ele>
        <time>2021-07-08T19:01:21Z</time>
      </trkpt>
      <trkpt lat="40.54252" lon="-6.87805">
        <ele>819.6441</ele>
        <time>2021-07-08T19:01:32Z</time>
      </trkpt>
      <trkpt lat="40.5403" lon="-6.87856">
        <ele>809.8743</ele>
        <time>2021-07-08T19:01:43Z</time>
      </trkpt>
      <trkpt lat="40.53883" lon="-6.87936">
        <ele>820.6106</ele>
        <time>2021-07-08T19:01:54Z</time>
      </trkpt>
      <trkpt lat="40.53707" lon="-6.87979">
        <ele>824.6902</ele>
        <time>2021-07-08T19:02:05Z</time>
      </trkpt>
      <trkpt lat="40.53553" lon="-6.87993">
        <ele>828.0233</ele>
        <time>2021-07-08T19:02:16Z</time>
      </trkpt>
      <trkpt lat="40.53364" lon="-6.88001">
        <ele>818.0532</ele>
        <time>2021-07-08T19:02:27Z</time>
      </trkpt>
      <trkpt lat="40.53189" lon="-6.88008">
        <ele>823.1017</ele>
        <time>2021-07-08T19:02:38Z</time>
      </trkpt>
      <trkpt lat="40.5303" lon="-6.8804">
        <ele>826.107</ele>
        <time>2021-07-08T19:02:49Z</time>
      </trkpt>
      <trkpt lat="40.52877" lon="-6.88109">
        <ele>825.5817</ele>
        <time>2021-07-08T19:03:00Z</time>
      </trkpt>
      <trkpt lat="40.52733" lon="-6.88197">
        <ele>822.9749</ele>
        <time>2021-07-08T19:03:11Z</time>
      </trkpt>
      <trkpt lat="40.52567" lon="-6.88234">
        <ele>822.2657</ele>
        <time>2021-07-08T19:03:22Z</time>
      </trkpt>
      <trkpt lat="40.5241" lon="-6.88237">
        <ele>823.1052</ele>
        <time>2021-07-08T19:03:33Z</time>
      </trkpt>
      <trkpt lat="40.52265" lon="-6.883">
        <ele>826.3199</ele>
        <time>2021-07-08T19:03:44Z</time>
      </trkpt>
      <trkpt lat="40.52106" lon="-6.88327">
        <ele>826.9234</ele>
        <time>2021-07-08T19:03:55Z</time>
      </trkpt>
      <trkpt lat="40.51895" lon="-6.88389">
        <ele>827.3533</ele>
        <time>2021-07-08T19:04:06Z</time>
      </trkpt>
      <trkpt lat="40.51714" lon="-6.88439">
        <ele>832.4449</ele>
        <time>2021-07-08T19:04:17Z</time>
      </trkpt>
      <trkpt lat="40.51548" lon="-6.88431">
        <ele>835.3223</ele>
        <time>2021-07-08T19:04:28Z</time>
      </trkpt>
      <trkpt lat="40.51376" lon="-6.8846">
        <ele>839.4302</ele>
        <time>2021-07-08T19:04:39Z</time>
      </trkpt>
      <trkpt lat="40.51218" lon="-6.88516">
        <ele>838.2755</ele>
        <time>2021-07-08T19:04:50Z</time>
      </trkpt>
      <trkpt lat="40.51053" lon="-6.88571">
        <ele>842.2278</ele>
        <time>2021-07-08T19:05:01Z</time>
      </trkpt>
      <trkpt lat="40.5091" lon="-6.88619">
        <ele>841.3904</ele>
        <time>2021-07-08T19:05:12Z</time>
      </trkpt>
      <trkpt lat="40.50753" lon="-6.88601">
        <ele>840.8451</ele>
        <time>2021-07-08T19:05:23Z</time>
      </trkpt>
      <trkpt lat="40.50566" lon="-6.88552">
        <ele>843.2821</ele>
        <time>2021-07-08T19:05:34Z</time>
      </trkpt>
      <trkpt lat="40.50401" lon="-6.88554">
        <ele>845.2746</ele>
        <time>2021-07-08T19:05:45Z</time>
      </trkpt>
      <trkpt lat="40.50239" lon="-6.88563">
        <ele>847.7802</ele>
        <time>2021-07-08T19:05:56Z</time>
      </trkpt>
      <trkpt lat="40.50083" lon="-6.88553">
        <ele>858.022</ele>
        <time>2021-07-08T19:06:07Z</time>
      </trkpt>
      <trkpt lat="40.49926" lon="-6.88583">
        <ele>862.0615</ele>
        <time>2021-07-08T19:06:18Z</time>
      </trkpt>
      <trkpt lat="40.49796" lon="-6.88678">
        <ele>853.7969</ele>
        <time>2021-07-08T19:06:29Z</time>
      </trkpt>
      <trkpt lat="40.49681" lon="-6.88748">
        <ele>853.9017</ele>
        <time>2021-07-08T19:06:40Z</time>
      </trkpt>
      <trkpt lat="40.49506" lon="-6.88713">
        <ele>839.1347</ele>
        <time>2021-07-08T19:06:51Z</time>
      </trkpt>
      <trkpt lat="40.49334" lon="-6.88685">
        <ele>842.0882</ele>
        <time>2021-07-08T19:07:02Z</time>
      </trkpt>
      <trkpt lat="40.49192" lon="-6.88656">
        <ele>845.6088</ele>
        <time>2021-07-08T19:07:13Z</time>
      </trkpt>
      <trkpt lat="40.49056" lon="-6.88603">
        <ele>846.6241</ele>
        <time>2021-07-08T19:07:24Z</time>
      </trkpt>
      <trkpt lat="40.48971" lon="-6.88582">
        <ele>851.2894</ele>
        <time>2021-07-08T19:07:35Z</time>
      </trkpt>
      <trkpt lat="40.48851" lon="-6.8864">
        <ele>850.7132</ele>
        <time>2021-07-08T19:07:46Z</time>
      </trkpt>
      <trkpt lat="40.48746" lon="-6.88697">
        <ele>847.1359</ele>
        <time>2021-07-08T19:07:57Z</time>
      </trkpt>
      <trkpt lat="40.48668" lon="-6.88723">
        <ele>847.108</ele>
        <time>2021-07-08T19:08:08Z</time>
      </trkpt>
      <trkpt lat="40.48586" lon="-6.88769">
        <ele>848.8209</ele>
        <time>2021-07-08T19:08:19Z</time>
      </trkpt>
      <trkpt lat="40.4847" lon="-6.8885">
        <ele>848.1283</ele>
        <time>2021-07-08T19:08:30Z</time>
      </trkpt>
      <trkpt lat="40.48362" lon="-6.88905">
        <ele>848.9828</ele>
        <time>2021-07-08T19:08:41Z</time>
      </trkpt>
      <trkpt lat="40.48261" lon="-6.88954">
        <ele>849.3288</ele>
        <time>2021-07-08T19:08:52Z</time>
      </trkpt>
      <trkpt lat="40.48163" lon="-6.8901">
        <ele>849.9334</ele>
        <time>2021-07-08T19:09:03Z</time>
      </trkpt>
      <trkpt lat="40.48037" lon="-6.8906">
        <ele>848.0062</ele>
        <time>2021-07-08T19:09:14Z</time>
      </trkpt>
      <trkpt lat="40.47914" lon="-6.89064">
        <ele>847.4497</ele>
        <time>2021-07-08T19:09:25Z</time>
      </trkpt>
      <trkpt lat="40.47768" lon="-6.89007">
        <ele>837.8269</ele>
        <time>2021-07-08T19:09:36Z</time>
      </trkpt>
      <trkpt lat="40.47631" lon="-6.88948">
        <ele>837.8576</ele>
        <time>2021-07-08T19:09:47Z</time>
      </trkpt>
      <trkpt lat="40.47522" lon="-6.88862">
        <ele>834.3603</ele>
        <time>2021-07-08T19:09:58Z</time>
      </trkpt>
      <trkpt lat="40.4742" lon="-6.8887">
        <ele>834.0106</ele>
        <time>2021-07-08T19:10:09Z</time>
      </trkpt>
      <trkpt lat="40.47303" lon="-6.88828">
        <ele>838.2502</ele>
        <time>2021-07-08T19:10:20Z</time>
      </trkpt>
      <trkpt lat="40.47214" lon="-6.88787">
        <ele>836.1519</ele>
        <time>2021-07-08T19:10:31Z</time>
      </trkpt>
      <trkpt lat="40.47131" lon="-6.88736">
        <ele>824.8211</ele>
        <time>2021-07-08T19:10:42Z</time>
      </trkpt>
      <trkpt lat="40.47038" lon="-6.88715">
        <ele>812.8368</ele>
        <time>2021-07-08T19:10:53Z</time>
      </trkpt>
      <trkpt lat="40.46937" lon="-6.88697">
        <ele>818.1943</ele>
        <time>2021-07-08T19:11:04Z</time>
      </trkpt>
      <trkpt lat="40.4683" lon="-6.88719">
        <ele>818.2272</ele>
        <time>2021-07-08T19:11:15Z</time>
      </trkpt>
      <trkpt lat="40.46734" lon="-6.88765">
        <ele>816.3978</ele>
        <time>2021-07-08T19:11:26Z</time>
      </trkpt>
      <trkpt lat="40.46635" lon="-6.88763">
        <ele>817.2866</ele>
        <time>2021-07-08T19:11:37Z</time>
      </trkpt>
      <trkpt lat="40.46561" lon="-6.88756">
        <ele>812.4861</ele>
        <time>2021-07-08T19:11:48Z</time>
      </trkpt>
      <trkpt lat="40.46481" lon="-6.88739">
        <ele>806.3357</ele>
        <time>2021-07-08T19:11:59Z</time>
      </trkpt>
      <trkpt lat="40.46396" lon="-6.88768">
        <ele>805.1411</ele>
        <time>2021-07-08T19:12:10Z</time>
      </trkpt>
      <trkpt lat="40.46327" lon="-6.88794">
        <ele>808.7118</ele>
        <time>2021-07-08T19:12:21Z</time>
      </trkpt>
      <trkpt lat="40.46254" lon="-6.88804">
        <ele>811.9305</ele>
        <time>2021-07-08T19:12:32Z</time>
      </trkpt>
      <trkpt lat="40.46186" lon="-6.88839">
        <ele>811.9902</ele>
        <time>2021-07-08T19:12:43Z</time>
      </trkpt>
      <trkpt lat="40.46097" lon="-6.88891">
        <ele>815.4134</ele>
        <time>2021-07-08T19:12:54Z</time>
      </trkpt>
      <trkpt lat="40.4602" lon="-6.88943">
        <ele>814.3511</ele>
        <time>2021-07-08T19:13:05Z</time>
      </trkpt>
      <trkpt lat="40.45969" lon="-6.89043">
        <ele>814.2035</ele>
        <time>2021-07-08T19:13:16Z</time>
      </trkpt>
      <trkpt lat="40.45923" lon="-6.8916">
        <ele>813.2425</ele>
        <time>2021-07-08T19:13:27Z</time>
      </trkpt>
      <trkpt lat="40.45915" lon="-6.89301">
        <ele>814.2406</ele>
        <time>2021-07-08T19:13:38Z</time>
      </trkpt>
      <trkpt lat="40.45906" lon="-6.89356">
        <ele>816.9544</ele>
        <time>2021-07-08T19:13:49Z</time>
      </trkpt>
      <trkpt lat="40.45907" lon="-6.89356">
        <ele>815.7005</ele>
        <time>2021-07-08T19:14:49Z</time>
      </trkpt>
      <trkpt lat="40.45906" lon="-6.89361">
        <ele>816.2064</ele>
        <time>2021-07-08T19:15:23Z</time>
      </trkpt>
      <trkpt lat="40.45913" lon="-6.89515">
        <ele>815.1909</ele>
        <time>2021-07-08T19:15:34Z</time>
      </trkpt>
      <trkpt lat="40.45871" lon="-6.89679">
        <ele>807.58</ele>
        <time>2021-07-08T19:15:45Z</time>
      </trkpt>
      <trkpt lat="40.45771" lon="-6.89783">
        <ele>803.5554</ele>
        <time>2021-07-08T19:15:56Z</time>
      </trkpt>
      <trkpt lat="40.45691" lon="-6.89884">
        <ele>794.5728</ele>
        <time>2021-07-08T19:16:07Z</time>
      </trkpt>
      <trkpt lat="40.45568" lon="-6.89961">
        <ele>782.0091</ele>
        <time>2021-07-08T19:16:18Z</time>
      </trkpt>
      <trkpt lat="40.45494" lon="-6.90169">
        <ele>782.991</ele>
        <time>2021-07-08T19:16:29Z</time>
      </trkpt>
      <trkpt lat="40.45449" lon="-6.9047">
        <ele>792.5377</ele>
        <time>2021-07-08T19:16:40Z</time>
      </trkpt>
      <trkpt lat="40.45406" lon="-6.90762">
        <ele>795.4463</ele>
        <time>2021-07-08T19:16:51Z</time>
      </trkpt>
      <trkpt lat="40.45445" lon="-6.9097">
        <ele>796.8096</ele>
        <time>2021-07-08T19:17:02Z</time>
      </trkpt>
      <trkpt lat="40.45464" lon="-6.91107">
        <ele>799.353</ele>
        <time>2021-07-08T19:17:13Z</time>
      </trkpt>
      <trkpt lat="40.45459" lon="-6.91108">
        <ele>800.6364</ele>
        <time>2021-07-08T19:17:25Z</time>
      </trkpt>
      <trkpt lat="40.45305" lon="-6.91209">
        <ele>806.4168</ele>
        <time>2021-07-08T19:17:36Z</time>
      </trkpt>
      <trkpt lat="40.4514" lon="-6.91254">
        <ele>804.8387</ele>
        <time>2021-07-08T19:17:47Z</time>
      </trkpt>
      <trkpt lat="40.45013" lon="-6.9135">
        <ele>792.566</ele>
        <time>2021-07-08T19:17:58Z</time>
      </trkpt>
      <trkpt lat="40.4492" lon="-6.9146">
        <ele>783.4457</ele>
        <time>2021-07-08T19:18:09Z</time>
      </trkpt>
      <trkpt lat="40.44817" lon="-6.91514">
        <ele>779.0852</ele>
        <time>2021-07-08T19:18:20Z</time>
      </trkpt>
      <trkpt lat="40.4476" lon="-6.9156">
        <ele>773.9834</ele>
        <time>2021-07-08T19:18:31Z</time>
      </trkpt>
      <trkpt lat="40.44703" lon="-6.91562">
        <ele>770.0643</ele>
        <time>2021-07-08T19:18:42Z</time>
      </trkpt>
      <trkpt lat="40.44646" lon="-6.91589">
        <ele>770.0884</ele>
        <time>2021-07-08T19:18:53Z</time>
      </trkpt>
      <trkpt lat="40.44539" lon="-6.91604">
        <ele>770.3444</ele>
        <time>2021-07-08T19:19:04Z</time>
      </trkpt>
      <trkpt lat="40.4442" lon="-6.91641">
        <ele>772.0388</ele>
        <time>2021-07-08T19:19:15Z</time>
      </trkpt>
      <trkpt lat="40.44299" lon="-6.91704">
        <ele>769.064</ele>
        <time>2021-07-08T19:19:26Z</time>
      </trkpt>
      <trkpt lat="40.44244" lon="-6.91736">
        <ele>773.2524</ele>
        <time>2021-07-08T19:19:37Z</time>
      </trkpt>
      <trkpt lat="40.4418" lon="-6.91762">
        <ele>774.1662</ele>
        <time>2021-07-08T19:19:48Z</time>
      </trkpt>
      <trkpt lat="40.44121" lon="-6.91778">
        <ele>766.5643</ele>
        <time>2021-07-08T19:19:59Z</time>
      </trkpt>
      <trkpt lat="40.44061" lon="-6.91803">
        <ele>760.402</ele>
        <time>2021-07-08T19:20:10Z</time>
      </trkpt>
      <trkpt lat="40.44014" lon="-6.91785">
        <ele>756.0484</ele>
        <time>2021-07-08T19:20:21Z</time>
      </trkpt>
      <trkpt lat="40.43972" lon="-6.91716">
        <ele>751.9651</ele>
        <time>2021-07-08T19:20:32Z</time>
      </trkpt>
      <trkpt lat="40.43902" lon="-6.91697">
        <ele>750.4186</ele>
        <time>2021-07-08T19:20:43Z</time>
      </trkpt>
      <trkpt lat="40.43835" lon="-6.91675">
        <ele>751.8472</ele>
        <time>2021-07-08T19:20:54Z</time>
      </trkpt>
      <trkpt lat="40.43778" lon="-6.91632">
        <ele>756.6455</ele>
        <time>2021-07-08T19:21:05Z</time>
      </trkpt>
      <trkpt lat="40.43719" lon="-6.91628">
        <ele>757.0736</ele>
        <time>2021-07-08T19:21:16Z</time>
      </trkpt>
      <trkpt lat="40.43663" lon="-6.91616">
        <ele>757.985</ele>
        <time>2021-07-08T19:21:27Z</time>
      </trkpt>
      <trkpt lat="40.43603" lon="-6.9164">
        <ele>756.8652</ele>
        <time>2021-07-08T19:21:38Z</time>
      </trkpt>
      <trkpt lat="40.43535" lon="-6.91636">
        <ele>756.0723</ele>
        <time>2021-07-08T19:21:49Z</time>
      </trkpt>
      <trkpt lat="40.43464" lon="-6.91657">
        <ele>757.3151</ele>
        <time>2021-07-08T19:22:00Z</time>
      </trkpt>
      <trkpt lat="40.4339" lon="-6.9163">
        <ele>758.199</ele>
        <time>2021-07-08T19:22:11Z</time>
      </trkpt>
      <trkpt lat="40.43332" lon="-6.91645">
        <ele>759.2357</ele>
        <time>2021-07-08T19:22:22Z</time>
      </trkpt>
      <trkpt lat="40.43279" lon="-6.91675">
        <ele>760.2976</ele>
        <time>2021-07-08T19:22:33Z</time>
      </trkpt>
      <trkpt lat="40.43225" lon="-6.91691">
        <ele>764.2384</ele>
        <time>2021-07-08T19:22:44Z</time>
      </trkpt>
      <trkpt lat="40.43168" lon="-6.91675">
        <ele>767.0975</ele>
        <time>2021-07-08T19:22:55Z</time>
      </trkpt>
      <trkpt lat="40.43116" lon="-6.91652">
        <ele>769.3837</ele>
        <time>2021-07-08T19:23:06Z</time>
      </trkpt>
      <trkpt lat="40.43082" lon="-6.91613">
        <ele>767.8973</ele>
        <time>2021-07-08T19:23:17Z</time>
      </trkpt>
      <trkpt lat="40.43025" lon="-6.91608">
        <ele>770.0333</ele>
        <time>2021-07-08T19:23:28Z</time>
      </trkpt>
      <trkpt lat="40.4297" lon="-6.91568">
        <ele>770.722</ele>
        <time>2021-07-08T19:23:39Z</time>
      </trkpt>
      <trkpt lat="40.42913" lon="-6.915">
        <ele>770.8818</ele>
        <time>2021-07-08T19:23:50Z</time>
      </trkpt>
      <trkpt lat="40.42862" lon="-6.91452">
        <ele>773.0675</ele>
        <time>2021-07-08T19:24:01Z</time>
      </trkpt>
      <trkpt lat="40.42788" lon="-6.91481">
        <ele>778.4035</ele>
        <time>2021-07-08T19:24:12Z</time>
      </trkpt>
      <trkpt lat="40.42721" lon="-6.91489">
        <ele>779.7514</ele>
        <time>2021-07-08T19:24:23Z</time>
      </trkpt>
      <trkpt lat="40.42653" lon="-6.91524">
        <ele>778.1498</ele>
        <time>2021-07-08T19:24:34Z</time>
      </trkpt>
      <trkpt lat="40.42617" lon="-6.91523">
        <ele>779.0915</ele>
        <time>2021-07-08T19:24:45Z</time>
      </trkpt>
      <trkpt lat="40.42559" lon="-6.91489">
        <ele>782.2321</ele>
        <time>2021-07-08T19:24:56Z</time>
      </trkpt>
      <trkpt lat="40.42506" lon="-6.91406">
        <ele>786.3361</ele>
        <time>2021-07-08T19:25:07Z</time>
      </trkpt>
      <trkpt lat="40.42427" lon="-6.91355">
        <ele>788.3207</ele>
        <time>2021-07-08T19:25:18Z</time>
      </trkpt>
      <trkpt lat="40.42387" lon="-6.91301">
        <ele>786.1662</ele>
        <time>2021-07-08T19:25:29Z</time>
      </trkpt>
      <trkpt lat="40.42358" lon="-6.91266">
        <ele>790.3989</ele>
        <time>2021-07-08T19:25:40Z</time>
      </trkpt>
      <trkpt lat="40.42267" lon="-6.9127">
        <ele>789.8466</ele>
        <time>2021-07-08T19:25:51Z</time>
      </trkpt>
      <trkpt lat="40.42199" lon="-6.91265">
        <ele>790.9244</ele>
        <time>2021-07-08T19:26:02Z</time>
      </trkpt>
      <trkpt lat="40.42158" lon="-6.9121">
        <ele>794.2644</ele>
        <time>2021-07-08T19:26:13Z</time>
      </trkpt>
      <trkpt lat="40.42125" lon="-6.91352">
        <ele>795.9322</ele>
        <time>2021-07-08T19:26:24Z</time>
      </trkpt>
      <trkpt lat="40.42149" lon="-6.91588">
        <ele>798.8135</ele>
        <time>2021-07-08T19:26:35Z</time>
      </trkpt>
      <trkpt lat="40.42113" lon="-6.91816">
        <ele>786.2596</ele>
        <time>2021-07-08T19:26:46Z</time>
      </trkpt>
      <trkpt lat="40.41944" lon="-6.91919">
        <ele>774.3419</ele>
        <time>2021-07-08T19:26:57Z</time>
      </trkpt>
      <trkpt lat="40.41811" lon="-6.91959">
        <ele>768.7885</ele>
        <time>2021-07-08T19:27:08Z</time>
      </trkpt>
      <trkpt lat="40.41754" lon="-6.91949">
        <ele>769.8756</ele>
        <time>2021-07-08T19:27:19Z</time>
      </trkpt>
      <trkpt lat="40.41667" lon="-6.92016">
        <ele>770.0357</ele>
        <time>2021-07-08T19:27:30Z</time>
      </trkpt>
      <trkpt lat="40.41573" lon="-6.92059">
        <ele>771.56</ele>
        <time>2021-07-08T19:27:41Z</time>
      </trkpt>
      <trkpt lat="40.41444" lon="-6.92075">
        <ele>772.6214</ele>
        <time>2021-07-08T19:27:52Z</time>
      </trkpt>
      <trkpt lat="40.4134" lon="-6.92134">
        <ele>774.3744</ele>
        <time>2021-07-08T19:28:03Z</time>
      </trkpt>
      <trkpt lat="40.41237" lon="-6.92153">
        <ele>777.7428</ele>
        <time>2021-07-08T19:28:14Z</time>
      </trkpt>
      <trkpt lat="40.41129" lon="-6.92143">
        <ele>775.0071</ele>
        <time>2021-07-08T19:28:25Z</time>
      </trkpt>
      <trkpt lat="40.41002" lon="-6.92125">
        <ele>772.888</ele>
        <time>2021-07-08T19:28:36Z</time>
      </trkpt>
      <trkpt lat="40.40911" lon="-6.9208">
        <ele>776.2342</ele>
        <time>2021-07-08T19:28:47Z</time>
      </trkpt>
      <trkpt lat="40.40822" lon="-6.92007">
        <ele>779.0498</ele>
        <time>2021-07-08T19:28:58Z</time>
      </trkpt>
      <trkpt lat="40.40719" lon="-6.91972">
        <ele>778.8742</ele>
        <time>2021-07-08T19:29:09Z</time>
      </trkpt>
      <trkpt lat="40.40588" lon="-6.91902">
        <ele>779.2391</ele>
        <time>2021-07-08T19:29:20Z</time>
      </trkpt>
      <trkpt lat="40.40476" lon="-6.91849">
        <ele>784.4021</ele>
        <time>2021-07-08T19:29:31Z</time>
      </trkpt>
      <trkpt lat="40.40377" lon="-6.91838">
        <ele>782.8603</ele>
        <time>2021-07-08T19:29:42Z</time>
      </trkpt>
      <trkpt lat="40.40289" lon="-6.91792">
        <ele>778.2822</ele>
        <time>2021-07-08T19:29:53Z</time>
      </trkpt>
      <trkpt lat="40.40218" lon="-6.91761">
        <ele>772.4478</ele>
        <time>2021-07-08T19:30:04Z</time>
      </trkpt>
      <trkpt lat="40.40171" lon="-6.91737">
        <ele>777.0563</ele>
        <time>2021-07-08T19:30:15Z</time>
      </trkpt>
      <trkpt lat="40.40098" lon="-6.91695">
        <ele>772.5798</ele>
        <time>2021-07-08T19:30:26Z</time>
      </trkpt>
      <trkpt lat="40.39995" lon="-6.91643">
        <ele>774.5967</ele>
        <time>2021-07-08T19:30:37Z</time>
      </trkpt>
      <trkpt lat="40.39876" lon="-6.91593">
        <ele>782.1971</ele>
        <time>2021-07-08T19:30:48Z</time>
      </trkpt>
      <trkpt lat="40.398" lon="-6.91554">
        <ele>790.6651</ele>
        <time>2021-07-08T19:30:59Z</time>
      </trkpt>
      <trkpt lat="40.39796" lon="-6.9155">
        <ele>793.2819</ele>
        <time>2021-07-08T19:31:17Z</time>
      </trkpt>
      <trkpt lat="40.39704" lon="-6.91547">
        <ele>800.1663</ele>
        <time>2021-07-08T19:31:28Z</time>
      </trkpt>
      <trkpt lat="40.39586" lon="-6.91506">
        <ele>803.5047</ele>
        <time>2021-07-08T19:31:39Z</time>
      </trkpt>
      <trkpt lat="40.3961" lon="-6.91678">
        <ele>791.2792</ele>
        <time>2021-07-08T19:31:50Z</time>
      </trkpt>
      <trkpt lat="40.39569" lon="-6.91764">
        <ele>784.6818</ele>
        <time>2021-07-08T19:32:01Z</time>
      </trkpt>
      <trkpt lat="40.39435" lon="-6.91749">
        <ele>783.6308</ele>
        <time>2021-07-08T19:32:12Z</time>
      </trkpt>
      <trkpt lat="40.39311" lon="-6.91746">
        <ele>778.7251</ele>
        <time>2021-07-08T19:32:23Z</time>
      </trkpt>
      <trkpt lat="40.39273" lon="-6.91745">
        <ele>786.7383</ele>
        <time>2021-07-08T19:32:34Z</time>
      </trkpt>
      <trkpt lat="40.39269" lon="-6.91745">
        <ele>786.4233</ele>
        <time>2021-07-08T19:33:25Z</time>
      </trkpt>
      <trkpt lat="40.39264" lon="-6.91755">
        <ele>785.3768</ele>
        <time>2021-07-08T19:33:38Z</time>
      </trkpt>
      <trkpt lat="40.39203" lon="-6.91933">
        <ele>783.4361</ele>
        <time>2021-07-08T19:33:49Z</time>
      </trkpt>
      <trkpt lat="40.39139" lon="-6.92138">
        <ele>781.8585</ele>
        <time>2021-07-08T19:34:00Z</time>
      </trkpt>
      <trkpt lat="40.39004" lon="-6.92316">
        <ele>793.2333</ele>
        <time>2021-07-08T19:34:11Z</time>
      </trkpt>
      <trkpt lat="40.38855" lon="-6.92501">
        <ele>802.7166</ele>
        <time>2021-07-08T19:34:22Z</time>
      </trkpt>
      <trkpt lat="40.38766" lon="-6.92709">
        <ele>809.4023</ele>
        <time>2021-07-08T19:34:33Z</time>
      </trkpt>
      <trkpt lat="40.38706" lon="-6.92756">
        <ele>811.6404</ele>
        <time>2021-07-08T19:34:44Z</time>
      </trkpt>
      <trkpt lat="40.38644" lon="-6.92718">
        <ele>811.5397</ele>
        <time>2021-07-08T19:34:55Z</time>
      </trkpt>
      <trkpt lat="40.38608" lon="-6.92627">
        <ele>801.1981</ele>
        <time>2021-07-08T19:35:06Z</time>
      </trkpt>
      <trkpt lat="40.38618" lon="-6.92592">
        <ele>801.2403</ele>
        <time>2021-07-08T19:35:17Z</time>
      </trkpt>
      <trkpt lat="40.38595" lon="-6.92519">
        <ele>804.0396</ele>
        <time>2021-07-08T19:35:28Z</time>
      </trkpt>
      <trkpt lat="40.38522" lon="-6.92455">
        <ele>807.4869</ele>
        <time>2021-07-08T19:35:39Z</time>
      </trkpt>
      <trkpt lat="40.38414" lon="-6.92373">
        <ele>806.014</ele>
        <time>2021-07-08T19:35:50Z</time>
      </trkpt>
      <trkpt lat="40.38326" lon="-6.92331">
        <ele>805.2737</ele>
        <time>2021-07-08T19:36:01Z</time>
      </trkpt>
      <trkpt lat="40.38296" lon="-6.92376">
        <ele>803.1023</ele>
        <time>2021-07-08T19:36:12Z</time>
      </trkpt>
      <trkpt lat="40.38203" lon="-6.92522">
        <ele>803.3153</ele>
        <time>2021-07-08T19:36:23Z</time>
      </trkpt>
      <trkpt lat="40.38134" lon="-6.926">
        <ele>804.0509</ele>
        <time>2021-07-08T19:36:34Z</time>
      </trkpt>
      <trkpt lat="40.38124" lon="-6.92612">
        <ele>805.893</ele>
        <time>2021-07-08T19:36:45Z</time>
      </trkpt>
      <trkpt lat="40.38142" lon="-6.9268">
        <ele>805.9881</ele>
        <time>2021-07-08T19:36:56Z</time>
      </trkpt>
      <trkpt lat="40.38174" lon="-6.92737">
        <ele>802.119</ele>
        <time>2021-07-08T19:37:07Z</time>
      </trkpt>
      <trkpt lat="40.38147" lon="-6.92839">
        <ele>802.6432</ele>
        <time>2021-07-08T19:37:18Z</time>
      </trkpt>
      <trkpt lat="40.38093" lon="-6.92947">
        <ele>803.3048</ele>
        <time>2021-07-08T19:37:29Z</time>
      </trkpt>
      <trkpt lat="40.38048" lon="-6.93058">
        <ele>801.6888</ele>
        <time>2021-07-08T19:37:40Z</time>
      </trkpt>
      <trkpt lat="40.38033" lon="-6.93153">
        <ele>801.566</ele>
        <time>2021-07-08T19:37:51Z</time>
      </trkpt>
      <trkpt lat="40.38006" lon="-6.93188">
        <ele>803.9042</ele>
        <time>2021-07-08T19:38:02Z</time>
      </trkpt>
      <trkpt lat="40.37968" lon="-6.93207">
        <ele>809.8831</ele>
        <time>2021-07-08T19:38:13Z</time>
      </trkpt>
      <trkpt lat="40.37906" lon="-6.93219">
        <ele>805.6734</ele>
        <time>2021-07-08T19:38:24Z</time>
      </trkpt>
      <trkpt lat="40.37815" lon="-6.93261">
        <ele>807.7465</ele>
        <time>2021-07-08T19:38:35Z</time>
      </trkpt>
      <trkpt lat="40.37724" lon="-6.93325">
        <ele>807.0364</ele>
        <time>2021-07-08T19:38:46Z</time>
      </trkpt>
      <trkpt lat="40.37694" lon="-6.93343">
        <ele>808.5132</ele>
        <time>2021-07-08T19:38:57Z</time>
      </trkpt>
      <trkpt lat="40.37762" lon="-6.93299">
        <ele>807.9788</ele>
        <time>2021-07-08T19:39:08Z</time>
      </trkpt>
      <trkpt lat="40.37864" lon="-6.93226">
        <ele>804.9225</ele>
        <time>2021-07-08T19:39:19Z</time>
      </trkpt>
      <trkpt lat="40.37947" lon="-6.93215">
        <ele>808.3268</ele>
        <time>2021-07-08T19:39:30Z</time>
      </trkpt>
      <trkpt lat="40.38012" lon="-6.93183">
        <ele>803.1395</ele>
        <time>2021-07-08T19:39:41Z</time>
      </trkpt>
      <trkpt lat="40.38024" lon="-6.93168">
        <ele>801.8817</ele>
        <time>2021-07-08T19:39:52Z</time>
      </trkpt>
      <trkpt lat="40.38028" lon="-6.93162">
        <ele>801.5395</ele>
        <time>2021-07-08T19:40:03Z</time>
      </trkpt>
      <trkpt lat="40.38031" lon="-6.93158">
        <ele>799.6114</ele>
        <time>2021-07-08T19:40:52Z</time>
      </trkpt>
      <trkpt lat="40.38031" lon="-6.93158">
        <ele>804.9825</ele>
        <time>2021-07-08T19:41:52Z</time>
      </trkpt>
    </trkseg>
  </trk>
  <trk>
    <name><![CDATA[Road trip fait P/E_4]]></name>
    <extensions>
      <line xmlns="http://www.topografix.com/GPX/gpx_style/0/2">
        <color>888800</color>
        <width>4</width>
      </line>
    </extensions>
    <trkseg>
      <trkpt lat="40.38031" lon="-6.93158">
        <ele>801.8798</ele>
        <time>2021-07-08T19:43:00Z</time>
      </trkpt>
      <trkpt lat="40.38031" lon="-6.93158">
        <ele>801.8798</ele>
        <time>2021-07-08T19:43:00Z</time>
      </trkpt>
      <trkpt lat="40.38025" lon="-6.93166">
        <ele>805.5468</ele>
        <time>2021-07-09T08:13:18Z</time>
      </trkpt>
      <trkpt lat="40.38025" lon="-6.93166">
        <ele>805.9021</ele>
        <time>2021-07-09T08:14:18Z</time>
      </trkpt>
      <trkpt lat="40.38025" lon="-6.93166">
        <ele>805.9021</ele>
        <time>2021-07-09T08:15:18Z</time>
      </trkpt>
      <trkpt lat="40.38025" lon="-6.93166">
        <ele>805.9021</ele>
        <time>2021-07-09T08:16:18Z</time>
      </trkpt>
      <trkpt lat="40.38027" lon="-6.93163">
        <ele>806.6161</ele>
        <time>2021-07-09T08:17:18Z</time>
      </trkpt>
      <trkpt lat="40.38025" lon="-6.93166">
        <ele>805.816</ele>
        <time>2021-07-09T08:18:18Z</time>
      </trkpt>
      <trkpt lat="40.38025" lon="-6.93166">
        <ele>805.5795</ele>
        <time>2021-07-09T08:19:17Z</time>
      </trkpt>
      <trkpt lat="40.38031" lon="-6.93158">
        <ele>807.3607</ele>
        <time>2021-07-09T08:19:30Z</time>
      </trkpt>
      <trkpt lat="40.38042" lon="-6.93084">
        <ele>804.2538</ele>
        <time>2021-07-09T08:19:41Z</time>
      </trkpt>
      <trkpt lat="40.38073" lon="-6.92993">
        <ele>802.9557</ele>
        <time>2021-07-09T08:19:52Z</time>
      </trkpt>
      <trkpt lat="40.38119" lon="-6.92895">
        <ele>804.0135</ele>
        <time>2021-07-09T08:20:03Z</time>
      </trkpt>
      <trkpt lat="40.38168" lon="-6.92783">
        <ele>803.9706</ele>
        <time>2021-07-09T08:20:14Z</time>
      </trkpt>
      <trkpt lat="40.38172" lon="-6.92722">
        <ele>802.3983</ele>
        <time>2021-07-09T08:20:25Z</time>
      </trkpt>
      <trkpt lat="40.38167" lon="-6.92714">
        <ele>802.3668</ele>
        <time>2021-07-09T08:20:36Z</time>
      </trkpt>
      <trkpt lat="40.38164" lon="-6.92708">
        <ele>802.9828</ele>
        <time>2021-07-09T08:20:49Z</time>
      </trkpt>
      <trkpt lat="40.38125" lon="-6.92623">
        <ele>805.7674</ele>
        <time>2021-07-09T08:21:00Z</time>
      </trkpt>
      <trkpt lat="40.38211" lon="-6.92513">
        <ele>803.6984</ele>
        <time>2021-07-09T08:21:11Z</time>
      </trkpt>
      <trkpt lat="40.38296" lon="-6.92377">
        <ele>802.7656</ele>
        <time>2021-07-09T08:21:22Z</time>
      </trkpt>
      <trkpt lat="40.38376" lon="-6.92338">
        <ele>801.7325</ele>
        <time>2021-07-09T08:21:33Z</time>
      </trkpt>
      <trkpt lat="40.38497" lon="-6.92445">
        <ele>802.5067</ele>
        <time>2021-07-09T08:21:44Z</time>
      </trkpt>
      <trkpt lat="40.3859" lon="-6.92515">
        <ele>805.7377</ele>
        <time>2021-07-09T08:21:55Z</time>
      </trkpt>
      <trkpt lat="40.38643" lon="-6.92565">
        <ele>803.8106</ele>
        <time>2021-07-09T08:22:06Z</time>
      </trkpt>
      <trkpt lat="40.38616" lon="-6.92675">
        <ele>808.7214</ele>
        <time>2021-07-09T08:22:17Z</time>
      </trkpt>
      <trkpt lat="40.38677" lon="-6.92742">
        <ele>817.3201</ele>
        <time>2021-07-09T08:22:28Z</time>
      </trkpt>
      <trkpt lat="40.38736" lon="-6.92761">
        <ele>811.5636</ele>
        <time>2021-07-09T08:22:39Z</time>
      </trkpt>
      <trkpt lat="40.38778" lon="-6.9268">
        <ele>810.4848</ele>
        <time>2021-07-09T08:22:50Z</time>
      </trkpt>
      <trkpt lat="40.38875" lon="-6.92464">
        <ele>803.6324</ele>
        <time>2021-07-09T08:23:01Z</time>
      </trkpt>
      <trkpt lat="40.39018" lon="-6.92297">
        <ele>792.9016</ele>
        <time>2021-07-09T08:23:12Z</time>
      </trkpt>
      <trkpt lat="40.39114" lon="-6.92168">
        <ele>784.2578</ele>
        <time>2021-07-09T08:23:23Z</time>
      </trkpt>
      <trkpt lat="40.3918" lon="-6.91996">
        <ele>781.3016</ele>
        <time>2021-07-09T08:23:34Z</time>
      </trkpt>
      <trkpt lat="40.3924" lon="-6.91834">
        <ele>781.0262</ele>
        <time>2021-07-09T08:23:45Z</time>
      </trkpt>
      <trkpt lat="40.39243" lon="-6.91693">
        <ele>789.7068</ele>
        <time>2021-07-09T08:23:56Z</time>
      </trkpt>
      <trkpt lat="40.39125" lon="-6.91568">
        <ele>798.1232</ele>
        <time>2021-07-09T08:24:07Z</time>
      </trkpt>
      <trkpt lat="40.38997" lon="-6.91476">
        <ele>803.902</ele>
        <time>2021-07-09T08:24:18Z</time>
      </trkpt>
      <trkpt lat="40.38956" lon="-6.91305">
        <ele>818.8362</ele>
        <time>2021-07-09T08:24:29Z</time>
      </trkpt>
      <trkpt lat="40.38915" lon="-6.91145">
        <ele>831.642</ele>
        <time>2021-07-09T08:24:40Z</time>
      </trkpt>
      <trkpt lat="40.38865" lon="-6.91066">
        <ele>837.1895</ele>
        <time>2021-07-09T08:24:51Z</time>
      </trkpt>
      <trkpt lat="40.38777" lon="-6.91041">
        <ele>832.1641</ele>
        <time>2021-07-09T08:25:02Z</time>
      </trkpt>
      <trkpt lat="40.38704" lon="-6.91051">
        <ele>825.388</ele>
        <time>2021-07-09T08:25:13Z</time>
      </trkpt>
      <trkpt lat="40.38678" lon="-6.91069">
        <ele>824.3662</ele>
        <time>2021-07-09T08:25:24Z</time>
      </trkpt>
      <trkpt lat="40.38598" lon="-6.91123">
        <ele>824.7595</ele>
        <time>2021-07-09T08:25:35Z</time>
      </trkpt>
      <trkpt lat="40.38485" lon="-6.91122">
        <ele>822.2828</ele>
        <time>2021-07-09T08:25:46Z</time>
      </trkpt>
      <trkpt lat="40.38371" lon="-6.91098">
        <ele>820.8732</ele>
        <time>2021-07-09T08:25:57Z</time>
      </trkpt>
      <trkpt lat="40.38291" lon="-6.91028">
        <ele>817.4193</ele>
        <time>2021-07-09T08:26:08Z</time>
      </trkpt>
      <trkpt lat="40.38212" lon="-6.90981">
        <ele>822.29</ele>
        <time>2021-07-09T08:26:19Z</time>
      </trkpt>
      <trkpt lat="40.38093" lon="-6.90932">
        <ele>832.0175</ele>
        <time>2021-07-09T08:26:30Z</time>
      </trkpt>
      <trkpt lat="40.38017" lon="-6.90841">
        <ele>831.7862</ele>
        <time>2021-07-09T08:26:41Z</time>
      </trkpt>
      <trkpt lat="40.37945" lon="-6.90765">
        <ele>828.4094</ele>
        <time>2021-07-09T08:26:52Z</time>
      </trkpt>
      <trkpt lat="40.37888" lon="-6.90694">
        <ele>830.0154</ele>
        <time>2021-07-09T08:27:03Z</time>
      </trkpt>
      <trkpt lat="40.37825" lon="-6.90731">
        <ele>828.8621</ele>
        <time>2021-07-09T08:27:14Z</time>
      </trkpt>
      <trkpt lat="40.3771" lon="-6.90764">
        <ele>824.9</ele>
        <time>2021-07-09T08:27:25Z</time>
      </trkpt>
      <trkpt lat="40.37669" lon="-6.90751">
        <ele>822.2321</ele>
        <time>2021-07-09T08:27:36Z</time>
      </trkpt>
      <trkpt lat="40.37669" lon="-6.90756">
        <ele>821.7631</ele>
        <time>2021-07-09T08:27:59Z</time>
      </trkpt>
      <trkpt lat="40.37629" lon="-6.90797">
        <ele>816.3887</ele>
        <time>2021-07-09T08:28:10Z</time>
      </trkpt>
      <trkpt lat="40.37573" lon="-6.90765">
        <ele>819.3782</ele>
        <time>2021-07-09T08:28:21Z</time>
      </trkpt>
      <trkpt lat="40.37535" lon="-6.90868">
        <ele>824.3896</ele>
        <time>2021-07-09T08:28:32Z</time>
      </trkpt>
      <trkpt lat="40.37506" lon="-6.90995">
        <ele>833.0657</ele>
        <time>2021-07-09T08:28:43Z</time>
      </trkpt>
      <trkpt lat="40.374" lon="-6.91049">
        <ele>836.1317</ele>
        <time>2021-07-09T08:28:54Z</time>
      </trkpt>
      <trkpt lat="40.37336" lon="-6.91108">
        <ele>832.8128</ele>
        <time>2021-07-09T08:29:05Z</time>
      </trkpt>
      <trkpt lat="40.37208" lon="-6.91061">
        <ele>831.2963</ele>
        <time>2021-07-09T08:29:16Z</time>
      </trkpt>
      <trkpt lat="40.37134" lon="-6.91053">
        <ele>832.8908</ele>
        <time>2021-07-09T08:29:27Z</time>
      </trkpt>
      <trkpt lat="40.37052" lon="-6.91017">
        <ele>837.0045</ele>
        <time>2021-07-09T08:29:38Z</time>
      </trkpt>
      <trkpt lat="40.36966" lon="-6.91043">
        <ele>838.9116</ele>
        <time>2021-07-09T08:29:49Z</time>
      </trkpt>
      <trkpt lat="40.36858" lon="-6.9107">
        <ele>845.1672</ele>
        <time>2021-07-09T08:30:00Z</time>
      </trkpt>
      <trkpt lat="40.36744" lon="-6.91096">
        <ele>844.1157</ele>
        <time>2021-07-09T08:30:11Z</time>
      </trkpt>
      <trkpt lat="40.36655" lon="-6.91146">
        <ele>843.7888</ele>
        <time>2021-07-09T08:30:22Z</time>
      </trkpt>
      <trkpt lat="40.36582" lon="-6.91219">
        <ele>845.2183</ele>
        <time>2021-07-09T08:30:33Z</time>
      </trkpt>
      <trkpt lat="40.36515" lon="-6.91302">
        <ele>845.3136</ele>
        <time>2021-07-09T08:30:44Z</time>
      </trkpt>
      <trkpt lat="40.36429" lon="-6.91368">
        <ele>847.8873</ele>
        <time>2021-07-09T08:30:55Z</time>
      </trkpt>
      <trkpt lat="40.36332" lon="-6.91414">
        <ele>843.8634</ele>
        <time>2021-07-09T08:31:06Z</time>
      </trkpt>
      <trkpt lat="40.3624" lon="-6.91423">
        <ele>847.9898</ele>
        <time>2021-07-09T08:31:17Z</time>
      </trkpt>
      <trkpt lat="40.36139" lon="-6.91398">
        <ele>849.0215</ele>
        <time>2021-07-09T08:31:28Z</time>
      </trkpt>
      <trkpt lat="40.36035" lon="-6.91377">
        <ele>850.7843</ele>
        <time>2021-07-09T08:31:39Z</time>
      </trkpt>
      <trkpt lat="40.35977" lon="-6.91381">
        <ele>851.0118</ele>
        <time>2021-07-09T08:31:50Z</time>
      </trkpt>
      <trkpt lat="40.35931" lon="-6.9144">
        <ele>856.0696</ele>
        <time>2021-07-09T08:32:01Z</time>
      </trkpt>
      <trkpt lat="40.35859" lon="-6.91475">
        <ele>861.7136</ele>
        <time>2021-07-09T08:32:12Z</time>
      </trkpt>
      <trkpt lat="40.35777" lon="-6.91488">
        <ele>870.3462</ele>
        <time>2021-07-09T08:32:23Z</time>
      </trkpt>
      <trkpt lat="40.35697" lon="-6.91431">
        <ele>869.9015</ele>
        <time>2021-07-09T08:32:34Z</time>
      </trkpt>
      <trkpt lat="40.35648" lon="-6.91381">
        <ele>869.3093</ele>
        <time>2021-07-09T08:32:45Z</time>
      </trkpt>
      <trkpt lat="40.35573" lon="-6.91328">
        <ele>872.3163</ele>
        <time>2021-07-09T08:32:56Z</time>
      </trkpt>
      <trkpt lat="40.35522" lon="-6.91254">
        <ele>879.8641</ele>
        <time>2021-07-09T08:33:07Z</time>
      </trkpt>
      <trkpt lat="40.35491" lon="-6.91176">
        <ele>886.754</ele>
        <time>2021-07-09T08:33:18Z</time>
      </trkpt>
      <trkpt lat="40.35447" lon="-6.91182">
        <ele>890.4124</ele>
        <time>2021-07-09T08:33:29Z</time>
      </trkpt>
      <trkpt lat="40.35364" lon="-6.912">
        <ele>902.2794</ele>
        <time>2021-07-09T08:33:40Z</time>
      </trkpt>
      <trkpt lat="40.35263" lon="-6.91178">
        <ele>910.3974</ele>
        <time>2021-07-09T08:33:51Z</time>
      </trkpt>
      <trkpt lat="40.35175" lon="-6.91155">
        <ele>920.0641</ele>
        <time>2021-07-09T08:34:02Z</time>
      </trkpt>
      <trkpt lat="40.35084" lon="-6.91138">
        <ele>929.2097</ele>
        <time>2021-07-09T08:34:13Z</time>
      </trkpt>
      <trkpt lat="40.34986" lon="-6.91175">
        <ele>932.5465</ele>
        <time>2021-07-09T08:34:24Z</time>
      </trkpt>
      <trkpt lat="40.34878" lon="-6.91137">
        <ele>936.9706</ele>
        <time>2021-07-09T08:34:35Z</time>
      </trkpt>
      <trkpt lat="40.3479" lon="-6.91069">
        <ele>944.4393</ele>
        <time>2021-07-09T08:34:46Z</time>
      </trkpt>
      <trkpt lat="40.34725" lon="-6.90963">
        <ele>958.3524</ele>
        <time>2021-07-09T08:34:57Z</time>
      </trkpt>
      <trkpt lat="40.34652" lon="-6.90865">
        <ele>950.3064</ele>
        <time>2021-07-09T08:35:08Z</time>
      </trkpt>
      <trkpt lat="40.34577" lon="-6.90776">
        <ele>951.3655</ele>
        <time>2021-07-09T08:35:19Z</time>
      </trkpt>
      <trkpt lat="40.34478" lon="-6.90727">
        <ele>954.2365</ele>
        <time>2021-07-09T08:35:30Z</time>
      </trkpt>
      <trkpt lat="40.34385" lon="-6.90693">
        <ele>959.3313</ele>
        <time>2021-07-09T08:35:41Z</time>
      </trkpt>
      <trkpt lat="40.34279" lon="-6.90658">
        <ele>966.1325</ele>
        <time>2021-07-09T08:35:52Z</time>
      </trkpt>
      <trkpt lat="40.34229" lon="-6.90639">
        <ele>973.0753</ele>
        <time>2021-07-09T08:36:03Z</time>
      </trkpt>
      <trkpt lat="40.34225" lon="-6.90639">
        <ele>972.6053</ele>
        <time>2021-07-09T08:36:33Z</time>
      </trkpt>
      <trkpt lat="40.34121" lon="-6.90566">
        <ele>978.5449</ele>
        <time>2021-07-09T08:36:44Z</time>
      </trkpt>
      <trkpt lat="40.33941" lon="-6.90482">
        <ele>986.2609</ele>
        <time>2021-07-09T08:36:55Z</time>
      </trkpt>
      <trkpt lat="40.33763" lon="-6.9047">
        <ele>991.4038</ele>
        <time>2021-07-09T08:37:06Z</time>
      </trkpt>
      <trkpt lat="40.33561" lon="-6.90418">
        <ele>1004.701</ele>
        <time>2021-07-09T08:37:17Z</time>
      </trkpt>
      <trkpt lat="40.33349" lon="-6.90387">
        <ele>1014.912</ele>
        <time>2021-07-09T08:37:28Z</time>
      </trkpt>
      <trkpt lat="40.3315" lon="-6.90326">
        <ele>1038.581</ele>
        <time>2021-07-09T08:37:39Z</time>
      </trkpt>
      <trkpt lat="40.32973" lon="-6.90217">
        <ele>1048.085</ele>
        <time>2021-07-09T08:37:50Z</time>
      </trkpt>
      <trkpt lat="40.32833" lon="-6.90248">
        <ele>1054.854</ele>
        <time>2021-07-09T08:38:01Z</time>
      </trkpt>
      <trkpt lat="40.32756" lon="-6.90438">
        <ele>1064.662</ele>
        <time>2021-07-09T08:38:12Z</time>
      </trkpt>
      <trkpt lat="40.32643" lon="-6.90642">
        <ele>1061.973</ele>
        <time>2021-07-09T08:38:23Z</time>
      </trkpt>
      <trkpt lat="40.32469" lon="-6.90644">
        <ele>1081.431</ele>
        <time>2021-07-09T08:38:34Z</time>
      </trkpt>
      <trkpt lat="40.32374" lon="-6.9056">
        <ele>1089.256</ele>
        <time>2021-07-09T08:38:45Z</time>
      </trkpt>
      <trkpt lat="40.3234" lon="-6.90565">
        <ele>1090.067</ele>
        <time>2021-07-09T08:38:56Z</time>
      </trkpt>
      <trkpt lat="40.32339" lon="-6.90561">
        <ele>1088.733</ele>
        <time>2021-07-09T08:39:14Z</time>
      </trkpt>
      <trkpt lat="40.32333" lon="-6.90561">
        <ele>1089.924</ele>
        <time>2021-07-09T08:39:53Z</time>
      </trkpt>
      <trkpt lat="40.32219" lon="-6.90619">
        <ele>1096.894</ele>
        <time>2021-07-09T08:40:04Z</time>
      </trkpt>
      <trkpt lat="40.32118" lon="-6.90704">
        <ele>1103.451</ele>
        <time>2021-07-09T08:40:15Z</time>
      </trkpt>
      <trkpt lat="40.32005" lon="-6.90547">
        <ele>1108.459</ele>
        <time>2021-07-09T08:40:26Z</time>
      </trkpt>
      <trkpt lat="40.31854" lon="-6.90448">
        <ele>1116.1</ele>
        <time>2021-07-09T08:40:37Z</time>
      </trkpt>
      <trkpt lat="40.31656" lon="-6.90445">
        <ele>1112.439</ele>
        <time>2021-07-09T08:40:48Z</time>
      </trkpt>
      <trkpt lat="40.31466" lon="-6.90367">
        <ele>1112.111</ele>
        <time>2021-07-09T08:40:59Z</time>
      </trkpt>
      <trkpt lat="40.31316" lon="-6.90331">
        <ele>1105.845</ele>
        <time>2021-07-09T08:41:10Z</time>
      </trkpt>
      <trkpt lat="40.3116" lon="-6.90261">
        <ele>1087.84</ele>
        <time>2021-07-09T08:41:21Z</time>
      </trkpt>
      <trkpt lat="40.3098" lon="-6.90163">
        <ele>1090.905</ele>
        <time>2021-07-09T08:41:32Z</time>
      </trkpt>
      <trkpt lat="40.30786" lon="-6.9013">
        <ele>1076.934</ele>
        <time>2021-07-09T08:41:43Z</time>
      </trkpt>
      <trkpt lat="40.306" lon="-6.90019">
        <ele>1061.156</ele>
        <time>2021-07-09T08:41:54Z</time>
      </trkpt>
      <trkpt lat="40.30423" lon="-6.89896">
        <ele>1058.081</ele>
        <time>2021-07-09T08:42:05Z</time>
      </trkpt>
      <trkpt lat="40.30267" lon="-6.89723">
        <ele>1044.418</ele>
        <time>2021-07-09T08:42:16Z</time>
      </trkpt>
      <trkpt lat="40.30069" lon="-6.89779">
        <ele>1039.915</ele>
        <time>2021-07-09T08:42:27Z</time>
      </trkpt>
      <trkpt lat="40.2988" lon="-6.89789">
        <ele>1036.686</ele>
        <time>2021-07-09T08:42:38Z</time>
      </trkpt>
      <trkpt lat="40.29647" lon="-6.89738">
        <ele>1017.983</ele>
        <time>2021-07-09T08:42:49Z</time>
      </trkpt>
      <trkpt lat="40.29424" lon="-6.89689">
        <ele>1002.025</ele>
        <time>2021-07-09T08:43:00Z</time>
      </trkpt>
      <trkpt lat="40.29221" lon="-6.89647">
        <ele>997.6233</ele>
        <time>2021-07-09T08:43:11Z</time>
      </trkpt>
      <trkpt lat="40.29024" lon="-6.89615">
        <ele>986.9769</ele>
        <time>2021-07-09T08:43:22Z</time>
      </trkpt>
      <trkpt lat="40.28857" lon="-6.89543">
        <ele>969.2396</ele>
        <time>2021-07-09T08:43:33Z</time>
      </trkpt>
      <trkpt lat="40.28803" lon="-6.89456">
        <ele>968.9633</ele>
        <time>2021-07-09T08:43:44Z</time>
      </trkpt>
      <trkpt lat="40.28769" lon="-6.89384">
        <ele>965.4944</ele>
        <time>2021-07-09T08:43:55Z</time>
      </trkpt>
      <trkpt lat="40.28734" lon="-6.89342">
        <ele>951.7902</ele>
        <time>2021-07-09T08:44:06Z</time>
      </trkpt>
      <trkpt lat="40.28696" lon="-6.89297">
        <ele>944.592</ele>
        <time>2021-07-09T08:44:17Z</time>
      </trkpt>
      <trkpt lat="40.28661" lon="-6.89293">
        <ele>947.5293</ele>
        <time>2021-07-09T08:44:28Z</time>
      </trkpt>
      <trkpt lat="40.28616" lon="-6.89422">
        <ele>948.0777</ele>
        <time>2021-07-09T08:44:39Z</time>
      </trkpt>
      <trkpt lat="40.28565" lon="-6.8962">
        <ele>955.9348</ele>
        <time>2021-07-09T08:44:50Z</time>
      </trkpt>
      <trkpt lat="40.28506" lon="-6.89816">
        <ele>957.631</ele>
        <time>2021-07-09T08:45:01Z</time>
      </trkpt>
      <trkpt lat="40.28395" lon="-6.89968">
        <ele>950.2513</ele>
        <time>2021-07-09T08:45:12Z</time>
      </trkpt>
      <trkpt lat="40.28297" lon="-6.90027">
        <ele>952.6454</ele>
        <time>2021-07-09T08:45:23Z</time>
      </trkpt>
      <trkpt lat="40.28149" lon="-6.90063">
        <ele>947.2312</ele>
        <time>2021-07-09T08:45:34Z</time>
      </trkpt>
      <trkpt lat="40.28024" lon="-6.90079">
        <ele>938.7678</ele>
        <time>2021-07-09T08:45:45Z</time>
      </trkpt>
      <trkpt lat="40.27921" lon="-6.90086">
        <ele>932.3565</ele>
        <time>2021-07-09T08:45:56Z</time>
      </trkpt>
      <trkpt lat="40.27836" lon="-6.90094">
        <ele>930.1373</ele>
        <time>2021-07-09T08:46:07Z</time>
      </trkpt>
      <trkpt lat="40.27755" lon="-6.90161">
        <ele>925.2868</ele>
        <time>2021-07-09T08:46:18Z</time>
      </trkpt>
      <trkpt lat="40.27667" lon="-6.90246">
        <ele>921.7605</ele>
        <time>2021-07-09T08:46:29Z</time>
      </trkpt>
      <trkpt lat="40.27593" lon="-6.90275">
        <ele>913.1061</ele>
        <time>2021-07-09T08:46:40Z</time>
      </trkpt>
      <trkpt lat="40.27528" lon="-6.90295">
        <ele>916.0622</ele>
        <time>2021-07-09T08:46:51Z</time>
      </trkpt>
      <trkpt lat="40.27473" lon="-6.90386">
        <ele>920.5081</ele>
        <time>2021-07-09T08:47:02Z</time>
      </trkpt>
      <trkpt lat="40.27403" lon="-6.90425">
        <ele>920.8624</ele>
        <time>2021-07-09T08:47:13Z</time>
      </trkpt>
      <trkpt lat="40.27318" lon="-6.90528">
        <ele>909.6021</ele>
        <time>2021-07-09T08:47:24Z</time>
      </trkpt>
      <trkpt lat="40.27321" lon="-6.9064">
        <ele>914.387</ele>
        <time>2021-07-09T08:47:35Z</time>
      </trkpt>
      <trkpt lat="40.27283" lon="-6.90782">
        <ele>910.496</ele>
        <time>2021-07-09T08:47:46Z</time>
      </trkpt>
      <trkpt lat="40.27277" lon="-6.90909">
        <ele>904.8177</ele>
        <time>2021-07-09T08:47:57Z</time>
      </trkpt>
      <trkpt lat="40.27247" lon="-6.9101">
        <ele>900.9345</ele>
        <time>2021-07-09T08:48:08Z</time>
      </trkpt>
      <trkpt lat="40.27188" lon="-6.91043">
        <ele>906.781</ele>
        <time>2021-07-09T08:48:19Z</time>
      </trkpt>
      <trkpt lat="40.27121" lon="-6.91082">
        <ele>925.346</ele>
        <time>2021-07-09T08:48:30Z</time>
      </trkpt>
      <trkpt lat="40.27069" lon="-6.91114">
        <ele>932.2227</ele>
        <time>2021-07-09T08:48:41Z</time>
      </trkpt>
      <trkpt lat="40.27064" lon="-6.91114">
        <ele>939.7536</ele>
        <time>2021-07-09T08:48:52Z</time>
      </trkpt>
      <trkpt lat="40.2706" lon="-6.91115">
        <ele>945.0256</ele>
        <time>2021-07-09T08:49:07Z</time>
      </trkpt>
      <trkpt lat="40.27061" lon="-6.91117">
        <ele>949.1801</ele>
        <time>2021-07-09T08:50:07Z</time>
      </trkpt>
      <trkpt lat="40.27057" lon="-6.91115">
        <ele>952.7283</ele>
        <time>2021-07-09T08:50:40Z</time>
      </trkpt>
      <trkpt lat="40.27052" lon="-6.91113">
        <ele>955.0864</ele>
        <time>2021-07-09T08:51:11Z</time>
      </trkpt>
      <trkpt lat="40.26974" lon="-6.91125">
        <ele>951.5568</ele>
        <time>2021-07-09T08:51:22Z</time>
      </trkpt>
      <trkpt lat="40.26903" lon="-6.91081">
        <ele>949.5074</ele>
        <time>2021-07-09T08:51:33Z</time>
      </trkpt>
      <trkpt lat="40.26812" lon="-6.91091">
        <ele>957.0951</ele>
        <time>2021-07-09T08:51:44Z</time>
      </trkpt>
      <trkpt lat="40.26716" lon="-6.91079">
        <ele>971.4265</ele>
        <time>2021-07-09T08:51:55Z</time>
      </trkpt>
      <trkpt lat="40.26648" lon="-6.91094">
        <ele>975.7893</ele>
        <time>2021-07-09T08:52:06Z</time>
      </trkpt>
      <trkpt lat="40.26573" lon="-6.91102">
        <ele>968.3586</ele>
        <time>2021-07-09T08:52:17Z</time>
      </trkpt>
      <trkpt lat="40.26479" lon="-6.91136">
        <ele>965.2533</ele>
        <time>2021-07-09T08:52:28Z</time>
      </trkpt>
      <trkpt lat="40.26399" lon="-6.91185">
        <ele>959.9161</ele>
        <time>2021-07-09T08:52:39Z</time>
      </trkpt>
      <trkpt lat="40.26303" lon="-6.91246">
        <ele>956.9834</ele>
        <time>2021-07-09T08:52:50Z</time>
      </trkpt>
      <trkpt lat="40.2617" lon="-6.91356">
        <ele>946.7966</ele>
        <time>2021-07-09T08:53:01Z</time>
      </trkpt>
      <trkpt lat="40.26052" lon="-6.9141">
        <ele>940.2655</ele>
        <time>2021-07-09T08:53:12Z</time>
      </trkpt>
      <trkpt lat="40.25922" lon="-6.91468">
        <ele>948.8136</ele>
        <time>2021-07-09T08:53:23Z</time>
      </trkpt>
      <trkpt lat="40.25805" lon="-6.9147">
        <ele>959.3408</ele>
        <time>2021-07-09T08:53:34Z</time>
      </trkpt>
      <trkpt lat="40.25712" lon="-6.91528">
        <ele>961.0547</ele>
        <time>2021-07-09T08:53:45Z</time>
      </trkpt>
      <trkpt lat="40.25636" lon="-6.91669">
        <ele>975.3984</ele>
        <time>2021-07-09T08:53:56Z</time>
      </trkpt>
      <trkpt lat="40.25647" lon="-6.9181">
        <ele>982.616</ele>
        <time>2021-07-09T08:54:07Z</time>
      </trkpt>
      <trkpt lat="40.25715" lon="-6.92003">
        <ele>993.4532</ele>
        <time>2021-07-09T08:54:18Z</time>
      </trkpt>
      <trkpt lat="40.25762" lon="-6.92173">
        <ele>981.7109</ele>
        <time>2021-07-09T08:54:29Z</time>
      </trkpt>
      <trkpt lat="40.25758" lon="-6.92375">
        <ele>975.3046</ele>
        <time>2021-07-09T08:54:40Z</time>
      </trkpt>
      <trkpt lat="40.25773" lon="-6.92482">
        <ele>976.1528</ele>
        <time>2021-07-09T08:54:51Z</time>
      </trkpt>
      <trkpt lat="40.25812" lon="-6.92601">
        <ele>980.4983</ele>
        <time>2021-07-09T08:55:02Z</time>
      </trkpt>
      <trkpt lat="40.2579" lon="-6.92782">
        <ele>983.9082</ele>
        <time>2021-07-09T08:55:13Z</time>
      </trkpt>
      <trkpt lat="40.25739" lon="-6.92947">
        <ele>979.6596</ele>
        <time>2021-07-09T08:55:24Z</time>
      </trkpt>
      <trkpt lat="40.25751" lon="-6.9306">
        <ele>981.8771</ele>
        <time>2021-07-09T08:55:35Z</time>
      </trkpt>
      <trkpt lat="40.25781" lon="-6.93185">
        <ele>979.2345</ele>
        <time>2021-07-09T08:55:46Z</time>
      </trkpt>
      <trkpt lat="40.25777" lon="-6.93268">
        <ele>973.9137</ele>
        <time>2021-07-09T08:55:57Z</time>
      </trkpt>
      <trkpt lat="40.25778" lon="-6.93343">
        <ele>970.7424</ele>
        <time>2021-07-09T08:56:08Z</time>
      </trkpt>
      <trkpt lat="40.25784" lon="-6.93429">
        <ele>974.1024</ele>
        <time>2021-07-09T08:56:19Z</time>
      </trkpt>
      <trkpt lat="40.2581" lon="-6.93528">
        <ele>987.6515</ele>
        <time>2021-07-09T08:56:30Z</time>
      </trkpt>
      <trkpt lat="40.25852" lon="-6.93709">
        <ele>987.2751</ele>
        <time>2021-07-09T08:56:41Z</time>
      </trkpt>
      <trkpt lat="40.25822" lon="-6.9385">
        <ele>997.9421</ele>
        <time>2021-07-09T08:56:52Z</time>
      </trkpt>
      <trkpt lat="40.25747" lon="-6.94002">
        <ele>1009.059</ele>
        <time>2021-07-09T08:57:03Z</time>
      </trkpt>
      <trkpt lat="40.25707" lon="-6.94147">
        <ele>1000.568</ele>
        <time>2021-07-09T08:57:14Z</time>
      </trkpt>
      <trkpt lat="40.25666" lon="-6.94365">
        <ele>1005.226</ele>
        <time>2021-07-09T08:57:25Z</time>
      </trkpt>
      <trkpt lat="40.25661" lon="-6.9456">
        <ele>1008.714</ele>
        <time>2021-07-09T08:57:36Z</time>
      </trkpt>
      <trkpt lat="40.257" lon="-6.94781">
        <ele>1012.495</ele>
        <time>2021-07-09T08:57:47Z</time>
      </trkpt>
      <trkpt lat="40.25733" lon="-6.94974">
        <ele>1012.324</ele>
        <time>2021-07-09T08:57:58Z</time>
      </trkpt>
      <trkpt lat="40.25754" lon="-6.95108">
        <ele>1019.554</ele>
        <time>2021-07-09T08:58:09Z</time>
      </trkpt>
      <trkpt lat="40.25722" lon="-6.95157">
        <ele>1015.15</ele>
        <time>2021-07-09T08:58:20Z</time>
      </trkpt>
      <trkpt lat="40.25673" lon="-6.95199">
        <ele>1010.966</ele>
        <time>2021-07-09T08:58:31Z</time>
      </trkpt>
      <trkpt lat="40.25615" lon="-6.95248">
        <ele>1000.143</ele>
        <time>2021-07-09T08:58:42Z</time>
      </trkpt>
      <trkpt lat="40.25539" lon="-6.95285">
        <ele>991.3575</ele>
        <time>2021-07-09T08:58:53Z</time>
      </trkpt>
      <trkpt lat="40.25403" lon="-6.95349">
        <ele>994.6368</ele>
        <time>2021-07-09T08:59:04Z</time>
      </trkpt>
      <trkpt lat="40.25364" lon="-6.9537">
        <ele>996.1968</ele>
        <time>2021-07-09T08:59:15Z</time>
      </trkpt>
      <trkpt lat="40.25368" lon="-6.95367">
        <ele>995.4858</ele>
        <time>2021-07-09T08:59:29Z</time>
      </trkpt>
      <trkpt lat="40.25378" lon="-6.95361">
        <ele>993.8278</ele>
        <time>2021-07-09T08:59:40Z</time>
      </trkpt>
      <trkpt lat="40.25382" lon="-6.95362">
        <ele>992.3728</ele>
        <time>2021-07-09T08:59:52Z</time>
      </trkpt>
      <trkpt lat="40.25372" lon="-6.95367">
        <ele>993.497</ele>
        <time>2021-07-09T09:00:03Z</time>
      </trkpt>
      <trkpt lat="40.25367" lon="-6.9537">
        <ele>993.5304</ele>
        <time>2021-07-09T09:00:14Z</time>
      </trkpt>
      <trkpt lat="40.25359" lon="-6.95369">
        <ele>994.9888</ele>
        <time>2021-07-09T09:00:49Z</time>
      </trkpt>
      <trkpt lat="40.25331" lon="-6.95381">
        <ele>992.2551</ele>
        <time>2021-07-09T09:01:00Z</time>
      </trkpt>
      <trkpt lat="40.25328" lon="-6.9538">
        <ele>993.4163</ele>
        <time>2021-07-09T09:01:22Z</time>
      </trkpt>
      <trkpt lat="40.25323" lon="-6.95387">
        <ele>997.2186</ele>
        <time>2021-07-09T09:02:03Z</time>
      </trkpt>
      <trkpt lat="40.25258" lon="-6.95443">
        <ele>983.8224</ele>
        <time>2021-07-09T09:02:14Z</time>
      </trkpt>
      <trkpt lat="40.25191" lon="-6.95493">
        <ele>971.5095</ele>
        <time>2021-07-09T09:02:25Z</time>
      </trkpt>
      <trkpt lat="40.25099" lon="-6.95486">
        <ele>984.6881</ele>
        <time>2021-07-09T09:02:36Z</time>
      </trkpt>
      <trkpt lat="40.24996" lon="-6.95449">
        <ele>1003.811</ele>
        <time>2021-07-09T09:02:47Z</time>
      </trkpt>
      <trkpt lat="40.24908" lon="-6.95436">
        <ele>1014.127</ele>
        <time>2021-07-09T09:02:58Z</time>
      </trkpt>
      <trkpt lat="40.24896" lon="-6.95457">
        <ele>1011.017</ele>
        <time>2021-07-09T09:03:09Z</time>
      </trkpt>
      <trkpt lat="40.24896" lon="-6.95462">
        <ele>1014.834</ele>
        <time>2021-07-09T09:03:42Z</time>
      </trkpt>
      <trkpt lat="40.24895" lon="-6.95469">
        <ele>1016.419</ele>
        <time>2021-07-09T09:04:10Z</time>
      </trkpt>
      <trkpt lat="40.24859" lon="-6.95501">
        <ele>1004.943</ele>
        <time>2021-07-09T09:04:21Z</time>
      </trkpt>
      <trkpt lat="40.24829" lon="-6.95537">
        <ele>990.165</ele>
        <time>2021-07-09T09:04:32Z</time>
      </trkpt>
      <trkpt lat="40.24788" lon="-6.95563">
        <ele>985.0717</ele>
        <time>2021-07-09T09:04:43Z</time>
      </trkpt>
      <trkpt lat="40.24754" lon="-6.95592">
        <ele>976.9924</ele>
        <time>2021-07-09T09:04:54Z</time>
      </trkpt>
      <trkpt lat="40.24717" lon="-6.95626">
        <ele>968.5712</ele>
        <time>2021-07-09T09:05:05Z</time>
      </trkpt>
      <trkpt lat="40.24683" lon="-6.95653">
        <ele>958.9044</ele>
        <time>2021-07-09T09:05:16Z</time>
      </trkpt>
      <trkpt lat="40.24646" lon="-6.95712">
        <ele>950.5175</ele>
        <time>2021-07-09T09:05:27Z</time>
      </trkpt>
      <trkpt lat="40.24583" lon="-6.95832">
        <ele>946.7035</ele>
        <time>2021-07-09T09:05:38Z</time>
      </trkpt>
      <trkpt lat="40.24502" lon="-6.95948">
        <ele>932.2327</ele>
        <time>2021-07-09T09:05:49Z</time>
      </trkpt>
      <trkpt lat="40.24424" lon="-6.96046">
        <ele>928.0716</ele>
        <time>2021-07-09T09:06:00Z</time>
      </trkpt>
      <trkpt lat="40.24305" lon="-6.96154">
        <ele>925.3288</ele>
        <time>2021-07-09T09:06:11Z</time>
      </trkpt>
      <trkpt lat="40.24157" lon="-6.96231">
        <ele>920.2212</ele>
        <time>2021-07-09T09:06:22Z</time>
      </trkpt>
      <trkpt lat="40.24054" lon="-6.96265">
        <ele>909.949</ele>
        <time>2021-07-09T09:06:33Z</time>
      </trkpt>
      <trkpt lat="40.23981" lon="-6.96284">
        <ele>904.8271</ele>
        <time>2021-07-09T09:06:44Z</time>
      </trkpt>
      <trkpt lat="40.23939" lon="-6.96375">
        <ele>902.1111</ele>
        <time>2021-07-09T09:06:55Z</time>
      </trkpt>
      <trkpt lat="40.23922" lon="-6.96471">
        <ele>899.2772</ele>
        <time>2021-07-09T09:07:06Z</time>
      </trkpt>
      <trkpt lat="40.23875" lon="-6.96532">
        <ele>887.3749</ele>
        <time>2021-07-09T09:07:17Z</time>
      </trkpt>
      <trkpt lat="40.23823" lon="-6.96677">
        <ele>893.8043</ele>
        <time>2021-07-09T09:07:28Z</time>
      </trkpt>
      <trkpt lat="40.2385" lon="-6.96813">
        <ele>891.7861</ele>
        <time>2021-07-09T09:07:39Z</time>
      </trkpt>
      <trkpt lat="40.23866" lon="-6.96948">
        <ele>889.569</ele>
        <time>2021-07-09T09:07:50Z</time>
      </trkpt>
      <trkpt lat="40.23836" lon="-6.9709">
        <ele>892.6204</ele>
        <time>2021-07-09T09:08:01Z</time>
      </trkpt>
      <trkpt lat="40.23842" lon="-6.97157">
        <ele>892.3569</ele>
        <time>2021-07-09T09:08:12Z</time>
      </trkpt>
      <trkpt lat="40.23868" lon="-6.97294">
        <ele>893.8696</ele>
        <time>2021-07-09T09:08:23Z</time>
      </trkpt>
      <trkpt lat="40.23924" lon="-6.97358">
        <ele>888.7166</ele>
        <time>2021-07-09T09:08:34Z</time>
      </trkpt>
      <trkpt lat="40.23964" lon="-6.97476">
        <ele>884.9624</ele>
        <time>2021-07-09T09:08:45Z</time>
      </trkpt>
      <trkpt lat="40.23994" lon="-6.97573">
        <ele>876.206</ele>
        <time>2021-07-09T09:08:56Z</time>
      </trkpt>
      <trkpt lat="40.24062" lon="-6.97646">
        <ele>883.2306</ele>
        <time>2021-07-09T09:09:07Z</time>
      </trkpt>
      <trkpt lat="40.24072" lon="-6.9778">
        <ele>877.5757</ele>
        <time>2021-07-09T09:09:18Z</time>
      </trkpt>
      <trkpt lat="40.24063" lon="-6.97931">
        <ele>878.03</ele>
        <time>2021-07-09T09:09:29Z</time>
      </trkpt>
      <trkpt lat="40.2401" lon="-6.98062">
        <ele>873.9538</ele>
        <time>2021-07-09T09:09:40Z</time>
      </trkpt>
      <trkpt lat="40.23975" lon="-6.98148">
        <ele>863.6354</ele>
        <time>2021-07-09T09:09:51Z</time>
      </trkpt>
      <trkpt lat="40.23928" lon="-6.98232">
        <ele>828.247</ele>
        <time>2021-07-09T09:10:02Z</time>
      </trkpt>
      <trkpt lat="40.23863" lon="-6.98325">
        <ele>827.7389</ele>
        <time>2021-07-09T09:10:13Z</time>
      </trkpt>
      <trkpt lat="40.2381" lon="-6.98457">
        <ele>818.9561</ele>
        <time>2021-07-09T09:10:24Z</time>
      </trkpt>
      <trkpt lat="40.23759" lon="-6.98574">
        <ele>821.4938</ele>
        <time>2021-07-09T09:10:35Z</time>
      </trkpt>
      <trkpt lat="40.23687" lon="-6.98729">
        <ele>823.2333</ele>
        <time>2021-07-09T09:10:46Z</time>
      </trkpt>
      <trkpt lat="40.23641" lon="-6.98895">
        <ele>821.9404</ele>
        <time>2021-07-09T09:10:57Z</time>
      </trkpt>
      <trkpt lat="40.23597" lon="-6.99068">
        <ele>829.1925</ele>
        <time>2021-07-09T09:11:08Z</time>
      </trkpt>
      <trkpt lat="40.236" lon="-6.99153">
        <ele>824.772</ele>
        <time>2021-07-09T09:11:19Z</time>
      </trkpt>
      <trkpt lat="40.23596" lon="-6.99263">
        <ele>812.3528</ele>
        <time>2021-07-09T09:11:30Z</time>
      </trkpt>
      <trkpt lat="40.23557" lon="-6.99423">
        <ele>812.5101</ele>
        <time>2021-07-09T09:11:41Z</time>
      </trkpt>
      <trkpt lat="40.23555" lon="-6.99638">
        <ele>826.9871</ele>
        <time>2021-07-09T09:11:52Z</time>
      </trkpt>
      <trkpt lat="40.23534" lon="-6.99831">
        <ele>845.022</ele>
        <time>2021-07-09T09:12:03Z</time>
      </trkpt>
      <trkpt lat="40.23418" lon="-6.99975">
        <ele>845.211</ele>
        <time>2021-07-09T09:12:14Z</time>
      </trkpt>
      <trkpt lat="40.23284" lon="-7.00108">
        <ele>846.133</ele>
        <time>2021-07-09T09:12:25Z</time>
      </trkpt>
      <trkpt lat="40.23179" lon="-7.0028">
        <ele>848.2382</ele>
        <time>2021-07-09T09:12:36Z</time>
      </trkpt>
      <trkpt lat="40.23067" lon="-7.00408">
        <ele>833.0902</ele>
        <time>2021-07-09T09:12:47Z</time>
      </trkpt>
      <trkpt lat="40.22964" lon="-7.00541">
        <ele>832.8356</ele>
        <time>2021-07-09T09:12:58Z</time>
      </trkpt>
      <trkpt lat="40.22879" lon="-7.00682">
        <ele>837.9881</ele>
        <time>2021-07-09T09:13:09Z</time>
      </trkpt>
      <trkpt lat="40.22804" lon="-7.00778">
        <ele>828.9746</ele>
        <time>2021-07-09T09:13:20Z</time>
      </trkpt>
      <trkpt lat="40.22787" lon="-7.00801">
        <ele>829.7115</ele>
        <time>2021-07-09T09:13:31Z</time>
      </trkpt>
      <trkpt lat="40.22783" lon="-7.00808">
        <ele>829.5045</ele>
        <time>2021-07-09T09:13:49Z</time>
      </trkpt>
      <trkpt lat="40.22729" lon="-7.00916">
        <ele>831.0535</ele>
        <time>2021-07-09T09:14:00Z</time>
      </trkpt>
      <trkpt lat="40.22676" lon="-7.01086">
        <ele>850.079</ele>
        <time>2021-07-09T09:14:11Z</time>
      </trkpt>
      <trkpt lat="40.22619" lon="-7.01225">
        <ele>859.7041</ele>
        <time>2021-07-09T09:14:22Z</time>
      </trkpt>
      <trkpt lat="40.22611" lon="-7.01234">
        <ele>859.0169</ele>
        <time>2021-07-09T09:14:33Z</time>
      </trkpt>
      <trkpt lat="40.22611" lon="-7.01234">
        <ele>854.67</ele>
        <time>2021-07-09T09:15:33Z</time>
      </trkpt>
      <trkpt lat="40.22611" lon="-7.01235">
        <ele>854.8242</ele>
        <time>2021-07-09T09:16:33Z</time>
      </trkpt>
      <trkpt lat="40.22611" lon="-7.01237">
        <ele>854.1771</ele>
        <time>2021-07-09T09:17:33Z</time>
      </trkpt>
      <trkpt lat="40.22614" lon="-7.01233">
        <ele>855.5767</ele>
        <time>2021-07-09T09:17:44Z</time>
      </trkpt>
      <trkpt lat="40.22611" lon="-7.01235">
        <ele>855.0121</ele>
        <time>2021-07-09T09:18:01Z</time>
      </trkpt>
      <trkpt lat="40.22613" lon="-7.01232">
        <ele>853.6578</ele>
        <time>2021-07-09T09:19:01Z</time>
      </trkpt>
      <trkpt lat="40.22609" lon="-7.01237">
        <ele>855.317</ele>
        <time>2021-07-09T09:19:35Z</time>
      </trkpt>
      <trkpt lat="40.22565" lon="-7.0129">
        <ele>851.3353</ele>
        <time>2021-07-09T09:19:46Z</time>
      </trkpt>
      <trkpt lat="40.22552" lon="-7.01314">
        <ele>850.2466</ele>
        <time>2021-07-09T09:19:57Z</time>
      </trkpt>
      <trkpt lat="40.22548" lon="-7.01328">
        <ele>849.2452</ele>
        <time>2021-07-09T09:20:08Z</time>
      </trkpt>
      <trkpt lat="40.22549" lon="-7.01323">
        <ele>851.7623</ele>
        <time>2021-07-09T09:20:39Z</time>
      </trkpt>
      <trkpt lat="40.22584" lon="-7.01254">
        <ele>854.9812</ele>
        <time>2021-07-09T09:20:50Z</time>
      </trkpt>
      <trkpt lat="40.22586" lon="-7.01239">
        <ele>853.884</ele>
        <time>2021-07-09T09:21:01Z</time>
      </trkpt>
      <trkpt lat="40.22587" lon="-7.01238">
        <ele>853.7986</ele>
        <time>2021-07-09T09:22:01Z</time>
      </trkpt>
      <trkpt lat="40.22586" lon="-7.01237">
        <ele>854.9239</ele>
        <time>2021-07-09T09:23:01Z</time>
      </trkpt>
      <trkpt lat="40.22583" lon="-7.01241">
        <ele>854.1761</ele>
        <time>2021-07-09T09:23:22Z</time>
      </trkpt>
      <trkpt lat="40.22552" lon="-7.01257">
        <ele>849.9669</ele>
        <time>2021-07-09T09:23:33Z</time>
      </trkpt>
      <trkpt lat="40.22544" lon="-7.01257">
        <ele>847.7461</ele>
        <time>2021-07-09T09:23:44Z</time>
      </trkpt>
      <trkpt lat="40.22525" lon="-7.01254">
        <ele>842.5276</ele>
        <time>2021-07-09T09:23:55Z</time>
      </trkpt>
      <trkpt lat="40.22509" lon="-7.01244">
        <ele>837.6472</ele>
        <time>2021-07-09T09:24:06Z</time>
      </trkpt>
      <trkpt lat="40.22498" lon="-7.01238">
        <ele>831.1919</ele>
        <time>2021-07-09T09:24:17Z</time>
      </trkpt>
      <trkpt lat="40.22494" lon="-7.01235">
        <ele>829.6544</ele>
        <time>2021-07-09T09:24:28Z</time>
      </trkpt>
      <trkpt lat="40.22481" lon="-7.01226">
        <ele>825.0942</ele>
        <time>2021-07-09T09:24:39Z</time>
      </trkpt>
      <trkpt lat="40.22478" lon="-7.01224">
        <ele>824.231</ele>
        <time>2021-07-09T09:24:51Z</time>
      </trkpt>
      <trkpt lat="40.22468" lon="-7.01219">
        <ele>818.0315</ele>
        <time>2021-07-09T09:25:02Z</time>
      </trkpt>
      <trkpt lat="40.22452" lon="-7.01208">
        <ele>811.2079</ele>
        <time>2021-07-09T09:25:13Z</time>
      </trkpt>
      <trkpt lat="40.22427" lon="-7.01195">
        <ele>805.1209</ele>
        <time>2021-07-09T09:25:24Z</time>
      </trkpt>
      <trkpt lat="40.22397" lon="-7.01186">
        <ele>801.7085</ele>
        <time>2021-07-09T09:25:35Z</time>
      </trkpt>
      <trkpt lat="40.22389" lon="-7.01181">
        <ele>799.8005</ele>
        <time>2021-07-09T09:25:57Z</time>
      </trkpt>
      <trkpt lat="40.223" lon="-7.01102">
        <ele>809.9452</ele>
        <time>2021-07-09T09:26:08Z</time>
      </trkpt>
      <trkpt lat="40.22177" lon="-7.01155">
        <ele>826.4804</ele>
        <time>2021-07-09T09:26:19Z</time>
      </trkpt>
      <trkpt lat="40.22093" lon="-7.01215">
        <ele>829.3873</ele>
        <time>2021-07-09T09:26:30Z</time>
      </trkpt>
      <trkpt lat="40.22023" lon="-7.01273">
        <ele>821.1674</ele>
        <time>2021-07-09T09:26:41Z</time>
      </trkpt>
      <trkpt lat="40.21973" lon="-7.01288">
        <ele>813.9337</ele>
        <time>2021-07-09T09:26:52Z</time>
      </trkpt>
      <trkpt lat="40.21921" lon="-7.01287">
        <ele>801.0515</ele>
        <time>2021-07-09T09:27:03Z</time>
      </trkpt>
      <trkpt lat="40.21855" lon="-7.01286">
        <ele>785.2891</ele>
        <time>2021-07-09T09:27:14Z</time>
      </trkpt>
      <trkpt lat="40.21734" lon="-7.01328">
        <ele>772.5744</ele>
        <time>2021-07-09T09:27:25Z</time>
      </trkpt>
      <trkpt lat="40.21619" lon="-7.01401">
        <ele>776.2905</ele>
        <time>2021-07-09T09:27:36Z</time>
      </trkpt>
      <trkpt lat="40.21556" lon="-7.01512">
        <ele>769.8094</ele>
        <time>2021-07-09T09:27:47Z</time>
      </trkpt>
      <trkpt lat="40.21522" lon="-7.01525">
        <ele>766.1135</ele>
        <time>2021-07-09T09:27:58Z</time>
      </trkpt>
      <trkpt lat="40.21489" lon="-7.01525">
        <ele>759.0364</ele>
        <time>2021-07-09T09:28:09Z</time>
      </trkpt>
      <trkpt lat="40.21443" lon="-7.01531">
        <ele>744.5657</ele>
        <time>2021-07-09T09:28:20Z</time>
      </trkpt>
      <trkpt lat="40.2136" lon="-7.01531">
        <ele>729.3949</ele>
        <time>2021-07-09T09:28:31Z</time>
      </trkpt>
      <trkpt lat="40.21203" lon="-7.01562">
        <ele>721.5738</ele>
        <time>2021-07-09T09:28:42Z</time>
      </trkpt>
      <trkpt lat="40.2104" lon="-7.01628">
        <ele>750.8482</ele>
        <time>2021-07-09T09:28:53Z</time>
      </trkpt>
      <trkpt lat="40.20906" lon="-7.01691">
        <ele>774.3863</ele>
        <time>2021-07-09T09:29:04Z</time>
      </trkpt>
      <trkpt lat="40.20768" lon="-7.018">
        <ele>797.3136</ele>
        <time>2021-07-09T09:29:15Z</time>
      </trkpt>
      <trkpt lat="40.20667" lon="-7.01856">
        <ele>811.139</ele>
        <time>2021-07-09T09:29:26Z</time>
      </trkpt>
      <trkpt lat="40.20647" lon="-7.01863">
        <ele>814.29</ele>
        <time>2021-07-09T09:29:37Z</time>
      </trkpt>
      <trkpt lat="40.2064" lon="-7.01881">
        <ele>816.4416</ele>
        <time>2021-07-09T09:29:48Z</time>
      </trkpt>
      <trkpt lat="40.20614" lon="-7.01922">
        <ele>816.5935</ele>
        <time>2021-07-09T09:29:59Z</time>
      </trkpt>
      <trkpt lat="40.20612" lon="-7.01922">
        <ele>817.0817</ele>
        <time>2021-07-09T09:30:59Z</time>
      </trkpt>
      <trkpt lat="40.2056" lon="-7.02017">
        <ele>815.1852</ele>
        <time>2021-07-09T09:31:11Z</time>
      </trkpt>
      <trkpt lat="40.20446" lon="-7.02121">
        <ele>811.5294</ele>
        <time>2021-07-09T09:31:22Z</time>
      </trkpt>
      <trkpt lat="40.20324" lon="-7.02133">
        <ele>811.2646</ele>
        <time>2021-07-09T09:31:33Z</time>
      </trkpt>
      <trkpt lat="40.20215" lon="-7.02146">
        <ele>808.8243</ele>
        <time>2021-07-09T09:31:44Z</time>
      </trkpt>
      <trkpt lat="40.20168" lon="-7.02187">
        <ele>809.5643</ele>
        <time>2021-07-09T09:31:55Z</time>
      </trkpt>
      <trkpt lat="40.20193" lon="-7.02321">
        <ele>802.8843</ele>
        <time>2021-07-09T09:32:06Z</time>
      </trkpt>
      <trkpt lat="40.20154" lon="-7.02407">
        <ele>790.1352</ele>
        <time>2021-07-09T09:32:17Z</time>
      </trkpt>
      <trkpt lat="40.2016" lon="-7.02477">
        <ele>777.4798</ele>
        <time>2021-07-09T09:32:28Z</time>
      </trkpt>
      <trkpt lat="40.20197" lon="-7.02562">
        <ele>752.6223</ele>
        <time>2021-07-09T09:32:39Z</time>
      </trkpt>
      <trkpt lat="40.20195" lon="-7.02674">
        <ele>752.6862</ele>
        <time>2021-07-09T09:32:50Z</time>
      </trkpt>
      <trkpt lat="40.20212" lon="-7.02802">
        <ele>757.0343</ele>
        <time>2021-07-09T09:33:01Z</time>
      </trkpt>
      <trkpt lat="40.20223" lon="-7.02983">
        <ele>761.6379</ele>
        <time>2021-07-09T09:33:12Z</time>
      </trkpt>
      <trkpt lat="40.20155" lon="-7.03151">
        <ele>745.4418</ele>
        <time>2021-07-09T09:33:23Z</time>
      </trkpt>
      <trkpt lat="40.2007" lon="-7.03348">
        <ele>740.4841</ele>
        <time>2021-07-09T09:33:34Z</time>
      </trkpt>
      <trkpt lat="40.1996" lon="-7.03479">
        <ele>744.0066</ele>
        <time>2021-07-09T09:33:45Z</time>
      </trkpt>
      <trkpt lat="40.19871" lon="-7.03523">
        <ele>734.0663</ele>
        <time>2021-07-09T09:33:56Z</time>
      </trkpt>
      <trkpt lat="40.19788" lon="-7.03576">
        <ele>716.6625</ele>
        <time>2021-07-09T09:34:07Z</time>
      </trkpt>
      <trkpt lat="40.19716" lon="-7.03641">
        <ele>706.4132</ele>
        <time>2021-07-09T09:34:18Z</time>
      </trkpt>
      <trkpt lat="40.19694" lon="-7.03759">
        <ele>692.7523</ele>
        <time>2021-07-09T09:34:29Z</time>
      </trkpt>
      <trkpt lat="40.19674" lon="-7.03875">
        <ele>688.7838</ele>
        <time>2021-07-09T09:34:40Z</time>
      </trkpt>
      <trkpt lat="40.19643" lon="-7.03901">
        <ele>687.3193</ele>
        <time>2021-07-09T09:34:51Z</time>
      </trkpt>
      <trkpt lat="40.1965" lon="-7.03823">
        <ele>676.7054</ele>
        <time>2021-07-09T09:35:02Z</time>
      </trkpt>
      <trkpt lat="40.19611" lon="-7.03732">
        <ele>660.5751</ele>
        <time>2021-07-09T09:35:13Z</time>
      </trkpt>
      <trkpt lat="40.19569" lon="-7.03676">
        <ele>650.6266</ele>
        <time>2021-07-09T09:35:24Z</time>
      </trkpt>
      <trkpt lat="40.19552" lon="-7.03623">
        <ele>642.9673</ele>
        <time>2021-07-09T09:35:35Z</time>
      </trkpt>
      <trkpt lat="40.19502" lon="-7.03561">
        <ele>636.7974</ele>
        <time>2021-07-09T09:35:46Z</time>
      </trkpt>
      <trkpt lat="40.1944" lon="-7.03552">
        <ele>619.1422</ele>
        <time>2021-07-09T09:35:57Z</time>
      </trkpt>
      <trkpt lat="40.19436" lon="-7.03615">
        <ele>610.1119</ele>
        <time>2021-07-09T09:36:08Z</time>
      </trkpt>
      <trkpt lat="40.19419" lon="-7.03681">
        <ele>616.2552</ele>
        <time>2021-07-09T09:36:20Z</time>
      </trkpt>
      <trkpt lat="40.19344" lon="-7.03684">
        <ele>604.3956</ele>
        <time>2021-07-09T09:36:31Z</time>
      </trkpt>
      <trkpt lat="40.19288" lon="-7.03635">
        <ele>594.0128</ele>
        <time>2021-07-09T09:36:42Z</time>
      </trkpt>
      <trkpt lat="40.19234" lon="-7.03587">
        <ele>574.6597</ele>
        <time>2021-07-09T09:36:53Z</time>
      </trkpt>
      <trkpt lat="40.19168" lon="-7.03604">
        <ele>548.7415</ele>
        <time>2021-07-09T09:37:04Z</time>
      </trkpt>
      <trkpt lat="40.19083" lon="-7.0365">
        <ele>531.2428</ele>
        <time>2021-07-09T09:37:15Z</time>
      </trkpt>
      <trkpt lat="40.18982" lon="-7.0369">
        <ele>520.293</ele>
        <time>2021-07-09T09:37:26Z</time>
      </trkpt>
      <trkpt lat="40.18905" lon="-7.03734">
        <ele>531.2603</ele>
        <time>2021-07-09T09:37:37Z</time>
      </trkpt>
      <trkpt lat="40.18882" lon="-7.03697">
        <ele>546.7845</ele>
        <time>2021-07-09T09:37:48Z</time>
      </trkpt>
      <trkpt lat="40.18852" lon="-7.03674">
        <ele>563.1096</ele>
        <time>2021-07-09T09:37:59Z</time>
      </trkpt>
      <trkpt lat="40.1884" lon="-7.03664">
        <ele>574.0559</ele>
        <time>2021-07-09T09:38:10Z</time>
      </trkpt>
      <trkpt lat="40.18841" lon="-7.0367">
        <ele>563.6893</ele>
        <time>2021-07-09T09:38:21Z</time>
      </trkpt>
      <trkpt lat="40.18843" lon="-7.03671">
        <ele>530.0639</ele>
        <time>2021-07-09T09:39:21Z</time>
      </trkpt>
      <trkpt lat="40.18845" lon="-7.0367">
        <ele>530.2736</ele>
        <time>2021-07-09T09:40:21Z</time>
      </trkpt>
      <trkpt lat="40.18844" lon="-7.03668">
        <ele>528.0607</ele>
        <time>2021-07-09T09:41:21Z</time>
      </trkpt>
      <trkpt lat="40.18835" lon="-7.03665">
        <ele>531.3405</ele>
        <time>2021-07-09T09:41:40Z</time>
      </trkpt>
      <trkpt lat="40.18753" lon="-7.03623">
        <ele>523.2134</ele>
        <time>2021-07-09T09:41:51Z</time>
      </trkpt>
      <trkpt lat="40.18683" lon="-7.03523">
        <ele>515.5672</ele>
        <time>2021-07-09T09:42:02Z</time>
      </trkpt>
      <trkpt lat="40.18639" lon="-7.03406">
        <ele>509.7426</ele>
        <time>2021-07-09T09:42:13Z</time>
      </trkpt>
      <trkpt lat="40.18609" lon="-7.03265">
        <ele>506.7734</ele>
        <time>2021-07-09T09:42:24Z</time>
      </trkpt>
      <trkpt lat="40.18567" lon="-7.03149">
        <ele>504.4776</ele>
        <time>2021-07-09T09:42:35Z</time>
      </trkpt>
      <trkpt lat="40.18511" lon="-7.03061">
        <ele>507.1026</ele>
        <time>2021-07-09T09:42:46Z</time>
      </trkpt>
      <trkpt lat="40.18448" lon="-7.02991">
        <ele>510.7219</ele>
        <time>2021-07-09T09:42:57Z</time>
      </trkpt>
      <trkpt lat="40.18391" lon="-7.02963">
        <ele>510.7876</ele>
        <time>2021-07-09T09:43:08Z</time>
      </trkpt>
      <trkpt lat="40.18311" lon="-7.02947">
        <ele>515.8148</ele>
        <time>2021-07-09T09:43:19Z</time>
      </trkpt>
      <trkpt lat="40.1828" lon="-7.029">
        <ele>518.8939</ele>
        <time>2021-07-09T09:43:30Z</time>
      </trkpt>
      <trkpt lat="40.18247" lon="-7.02886">
        <ele>518.4563</ele>
        <time>2021-07-09T09:43:41Z</time>
      </trkpt>
      <trkpt lat="40.18239" lon="-7.02884">
        <ele>519.2184</ele>
        <time>2021-07-09T09:44:13Z</time>
      </trkpt>
      <trkpt lat="40.18197" lon="-7.02865">
        <ele>519.621</ele>
        <time>2021-07-09T09:44:24Z</time>
      </trkpt>
      <trkpt lat="40.18193" lon="-7.02738">
        <ele>522.1411</ele>
        <time>2021-07-09T09:44:35Z</time>
      </trkpt>
      <trkpt lat="40.18136" lon="-7.02781">
        <ele>523.3299</ele>
        <time>2021-07-09T09:44:46Z</time>
      </trkpt>
      <trkpt lat="40.18076" lon="-7.02729">
        <ele>520.3418</ele>
        <time>2021-07-09T09:44:57Z</time>
      </trkpt>
      <trkpt lat="40.18011" lon="-7.02647">
        <ele>524.0268</ele>
        <time>2021-07-09T09:45:08Z</time>
      </trkpt>
      <trkpt lat="40.17989" lon="-7.02759">
        <ele>532.999</ele>
        <time>2021-07-09T09:45:19Z</time>
      </trkpt>
      <trkpt lat="40.1795" lon="-7.02815">
        <ele>534.783</ele>
        <time>2021-07-09T09:45:30Z</time>
      </trkpt>
      <trkpt lat="40.17867" lon="-7.02778">
        <ele>542.6142</ele>
        <time>2021-07-09T09:45:41Z</time>
      </trkpt>
      <trkpt lat="40.17788" lon="-7.02736">
        <ele>548.0605</ele>
        <time>2021-07-09T09:45:52Z</time>
      </trkpt>
      <trkpt lat="40.17763" lon="-7.02633">
        <ele>537.5812</ele>
        <time>2021-07-09T09:46:03Z</time>
      </trkpt>
      <trkpt lat="40.17703" lon="-7.02545">
        <ele>527.3268</ele>
        <time>2021-07-09T09:46:14Z</time>
      </trkpt>
      <trkpt lat="40.17639" lon="-7.02449">
        <ele>516.2402</ele>
        <time>2021-07-09T09:46:25Z</time>
      </trkpt>
      <trkpt lat="40.17573" lon="-7.02358">
        <ele>511.1931</ele>
        <time>2021-07-09T09:46:36Z</time>
      </trkpt>
      <trkpt lat="40.17519" lon="-7.02407">
        <ele>501.1497</ele>
        <time>2021-07-09T09:46:47Z</time>
      </trkpt>
      <trkpt lat="40.17516" lon="-7.02486">
        <ele>492.9816</ele>
        <time>2021-07-09T09:46:59Z</time>
      </trkpt>
      <trkpt lat="40.17495" lon="-7.02597">
        <ele>489.2326</ele>
        <time>2021-07-09T09:47:10Z</time>
      </trkpt>
      <trkpt lat="40.17406" lon="-7.02644">
        <ele>486.1658</ele>
        <time>2021-07-09T09:47:21Z</time>
      </trkpt>
      <trkpt lat="40.17313" lon="-7.02681">
        <ele>487.0897</ele>
        <time>2021-07-09T09:47:32Z</time>
      </trkpt>
      <trkpt lat="40.17243" lon="-7.02758">
        <ele>489.603</ele>
        <time>2021-07-09T09:47:43Z</time>
      </trkpt>
      <trkpt lat="40.172" lon="-7.02884">
        <ele>478.8947</ele>
        <time>2021-07-09T09:47:54Z</time>
      </trkpt>
      <trkpt lat="40.17182" lon="-7.02955">
        <ele>475.0899</ele>
        <time>2021-07-09T09:48:05Z</time>
      </trkpt>
      <trkpt lat="40.17095" lon="-7.02955">
        <ele>481.1943</ele>
        <time>2021-07-09T09:48:16Z</time>
      </trkpt>
      <trkpt lat="40.17033" lon="-7.03085">
        <ele>488.2407</ele>
        <time>2021-07-09T09:48:27Z</time>
      </trkpt>
      <trkpt lat="40.16973" lon="-7.03129">
        <ele>502.0488</ele>
        <time>2021-07-09T09:48:38Z</time>
      </trkpt>
      <trkpt lat="40.16901" lon="-7.03234">
        <ele>509.9965</ele>
        <time>2021-07-09T09:48:49Z</time>
      </trkpt>
      <trkpt lat="40.16788" lon="-7.03307">
        <ele>505.4258</ele>
        <time>2021-07-09T09:49:00Z</time>
      </trkpt>
      <trkpt lat="40.16665" lon="-7.03346">
        <ele>484.496</ele>
        <time>2021-07-09T09:49:11Z</time>
      </trkpt>
      <trkpt lat="40.16547" lon="-7.03371">
        <ele>478.512</ele>
        <time>2021-07-09T09:49:22Z</time>
      </trkpt>
      <trkpt lat="40.16441" lon="-7.03473">
        <ele>466.3965</ele>
        <time>2021-07-09T09:49:33Z</time>
      </trkpt>
      <trkpt lat="40.16328" lon="-7.0357">
        <ele>457.4899</ele>
        <time>2021-07-09T09:49:44Z</time>
      </trkpt>
      <trkpt lat="40.16223" lon="-7.03557">
        <ele>445.0934</ele>
        <time>2021-07-09T09:49:55Z</time>
      </trkpt>
      <trkpt lat="40.16102" lon="-7.03544">
        <ele>435.1992</ele>
        <time>2021-07-09T09:50:06Z</time>
      </trkpt>
      <trkpt lat="40.15978" lon="-7.03538">
        <ele>422.4442</ele>
        <time>2021-07-09T09:50:17Z</time>
      </trkpt>
      <trkpt lat="40.15917" lon="-7.03504">
        <ele>419.654</ele>
        <time>2021-07-09T09:50:28Z</time>
      </trkpt>
      <trkpt lat="40.15827" lon="-7.03436">
        <ele>424.0264</ele>
        <time>2021-07-09T09:50:39Z</time>
      </trkpt>
      <trkpt lat="40.15753" lon="-7.03494">
        <ele>430.4765</ele>
        <time>2021-07-09T09:50:50Z</time>
      </trkpt>
      <trkpt lat="40.15683" lon="-7.03577">
        <ele>443.4729</ele>
        <time>2021-07-09T09:51:01Z</time>
      </trkpt>
      <trkpt lat="40.15587" lon="-7.03661">
        <ele>453.7816</ele>
        <time>2021-07-09T09:51:12Z</time>
      </trkpt>
      <trkpt lat="40.15498" lon="-7.03761">
        <ele>457.197</ele>
        <time>2021-07-09T09:51:23Z</time>
      </trkpt>
      <trkpt lat="40.15404" lon="-7.03867">
        <ele>458.4233</ele>
        <time>2021-07-09T09:51:34Z</time>
      </trkpt>
      <trkpt lat="40.1528" lon="-7.03943">
        <ele>463.528</ele>
        <time>2021-07-09T09:51:45Z</time>
      </trkpt>
      <trkpt lat="40.15162" lon="-7.04023">
        <ele>475.0534</ele>
        <time>2021-07-09T09:51:56Z</time>
      </trkpt>
      <trkpt lat="40.15011" lon="-7.04045">
        <ele>469.6438</ele>
        <time>2021-07-09T09:52:07Z</time>
      </trkpt>
      <trkpt lat="40.14888" lon="-7.04041">
        <ele>455.7059</ele>
        <time>2021-07-09T09:52:18Z</time>
      </trkpt>
      <trkpt lat="40.14771" lon="-7.04108">
        <ele>447.3221</ele>
        <time>2021-07-09T09:52:29Z</time>
      </trkpt>
      <trkpt lat="40.14684" lon="-7.04209">
        <ele>428.6401</ele>
        <time>2021-07-09T09:52:40Z</time>
      </trkpt>
      <trkpt lat="40.14655" lon="-7.04239">
        <ele>433.1129</ele>
        <time>2021-07-09T09:52:51Z</time>
      </trkpt>
      <trkpt lat="40.14651" lon="-7.04242">
        <ele>447.6969</ele>
        <time>2021-07-09T09:53:04Z</time>
      </trkpt>
      <trkpt lat="40.14641" lon="-7.04137">
        <ele>460.9163</ele>
        <time>2021-07-09T09:53:15Z</time>
      </trkpt>
      <trkpt lat="40.14687" lon="-7.0386">
        <ele>470.6805</ele>
        <time>2021-07-09T09:53:26Z</time>
      </trkpt>
      <trkpt lat="40.14694" lon="-7.03572">
        <ele>463.2317</ele>
        <time>2021-07-09T09:53:37Z</time>
      </trkpt>
      <trkpt lat="40.14582" lon="-7.03359">
        <ele>443.0384</ele>
        <time>2021-07-09T09:53:48Z</time>
      </trkpt>
      <trkpt lat="40.14485" lon="-7.0317">
        <ele>441.2304</ele>
        <time>2021-07-09T09:53:59Z</time>
      </trkpt>
      <trkpt lat="40.14418" lon="-7.03113">
        <ele>433.7015</ele>
        <time>2021-07-09T09:54:10Z</time>
      </trkpt>
      <trkpt lat="40.14357" lon="-7.03135">
        <ele>420.9891</ele>
        <time>2021-07-09T09:54:21Z</time>
      </trkpt>
      <trkpt lat="40.14298" lon="-7.03151">
        <ele>393.1671</ele>
        <time>2021-07-09T09:54:32Z</time>
      </trkpt>
      <trkpt lat="40.14248" lon="-7.03002">
        <ele>350.6316</ele>
        <time>2021-07-09T09:54:43Z</time>
      </trkpt>
      <trkpt lat="40.14217" lon="-7.02959">
        <ele>420.6289</ele>
        <time>2021-07-09T09:54:54Z</time>
      </trkpt>
      <trkpt lat="40.14153" lon="-7.02878">
        <ele>423.4743</ele>
        <time>2021-07-09T09:55:05Z</time>
      </trkpt>
      <trkpt lat="40.14093" lon="-7.02794">
        <ele>422.9727</ele>
        <time>2021-07-09T09:55:16Z</time>
      </trkpt>
      <trkpt lat="40.14035" lon="-7.02689">
        <ele>420.8064</ele>
        <time>2021-07-09T09:55:27Z</time>
      </trkpt>
      <trkpt lat="40.13984" lon="-7.0262">
        <ele>428.2625</ele>
        <time>2021-07-09T09:55:38Z</time>
      </trkpt>
      <trkpt lat="40.13978" lon="-7.02623">
        <ele>428.5094</ele>
        <time>2021-07-09T09:56:19Z</time>
      </trkpt>
      <trkpt lat="40.13919" lon="-7.0264">
        <ele>427.2109</ele>
        <time>2021-07-09T09:56:30Z</time>
      </trkpt>
      <trkpt lat="40.13914" lon="-7.02638">
        <ele>428.4718</ele>
        <time>2021-07-09T09:56:53Z</time>
      </trkpt>
      <trkpt lat="40.1383" lon="-7.02591">
        <ele>425.5524</ele>
        <time>2021-07-09T09:57:04Z</time>
      </trkpt>
      <trkpt lat="40.13757" lon="-7.025">
        <ele>430.6288</ele>
        <time>2021-07-09T09:57:15Z</time>
      </trkpt>
      <trkpt lat="40.13658" lon="-7.02448">
        <ele>428.271</ele>
        <time>2021-07-09T09:57:26Z</time>
      </trkpt>
      <trkpt lat="40.13567" lon="-7.02412">
        <ele>430.5443</ele>
        <time>2021-07-09T09:57:37Z</time>
      </trkpt>
      <trkpt lat="40.13548" lon="-7.02291">
        <ele>427.8598</ele>
        <time>2021-07-09T09:57:48Z</time>
      </trkpt>
      <trkpt lat="40.13507" lon="-7.02234">
        <ele>424.7536</ele>
        <time>2021-07-09T09:57:59Z</time>
      </trkpt>
      <trkpt lat="40.13432" lon="-7.02222">
        <ele>417.5247</ele>
        <time>2021-07-09T09:58:10Z</time>
      </trkpt>
      <trkpt lat="40.13362" lon="-7.02197">
        <ele>408.1868</ele>
        <time>2021-07-09T09:58:21Z</time>
      </trkpt>
      <trkpt lat="40.13327" lon="-7.02093">
        <ele>406.9376</ele>
        <time>2021-07-09T09:58:32Z</time>
      </trkpt>
      <trkpt lat="40.13333" lon="-7.01992">
        <ele>404.0936</ele>
        <time>2021-07-09T09:58:43Z</time>
      </trkpt>
      <trkpt lat="40.13291" lon="-7.0193">
        <ele>401.2843</ele>
        <time>2021-07-09T09:58:54Z</time>
      </trkpt>
      <trkpt lat="40.13207" lon="-7.01893">
        <ele>402.0088</ele>
        <time>2021-07-09T09:59:05Z</time>
      </trkpt>
      <trkpt lat="40.13127" lon="-7.01829">
        <ele>402.0083</ele>
        <time>2021-07-09T09:59:16Z</time>
      </trkpt>
      <trkpt lat="40.13073" lon="-7.01759">
        <ele>399.2335</ele>
        <time>2021-07-09T09:59:27Z</time>
      </trkpt>
      <trkpt lat="40.13002" lon="-7.01702">
        <ele>393.5985</ele>
        <time>2021-07-09T09:59:38Z</time>
      </trkpt>
      <trkpt lat="40.12897" lon="-7.01715">
        <ele>388.657</ele>
        <time>2021-07-09T09:59:49Z</time>
      </trkpt>
      <trkpt lat="40.12806" lon="-7.01747">
        <ele>385.5833</ele>
        <time>2021-07-09T10:00:00Z</time>
      </trkpt>
      <trkpt lat="40.12722" lon="-7.01707">
        <ele>380.4197</ele>
        <time>2021-07-09T10:00:11Z</time>
      </trkpt>
      <trkpt lat="40.12636" lon="-7.01689">
        <ele>371.5841</ele>
        <time>2021-07-09T10:00:22Z</time>
      </trkpt>
      <trkpt lat="40.12565" lon="-7.01587">
        <ele>373.2636</ele>
        <time>2021-07-09T10:00:33Z</time>
      </trkpt>
      <trkpt lat="40.12552" lon="-7.01429">
        <ele>377.6386</ele>
        <time>2021-07-09T10:00:44Z</time>
      </trkpt>
      <trkpt lat="40.12501" lon="-7.01325">
        <ele>370.1076</ele>
        <time>2021-07-09T10:00:55Z</time>
      </trkpt>
      <trkpt lat="40.12434" lon="-7.01279">
        <ele>370.7017</ele>
        <time>2021-07-09T10:01:06Z</time>
      </trkpt>
      <trkpt lat="40.12369" lon="-7.01162">
        <ele>375.7804</ele>
        <time>2021-07-09T10:01:17Z</time>
      </trkpt>
      <trkpt lat="40.12354" lon="-7.01094">
        <ele>373.2453</ele>
        <time>2021-07-09T10:01:28Z</time>
      </trkpt>
      <trkpt lat="40.12355" lon="-7.01096">
        <ele>376.4235</ele>
        <time>2021-07-09T10:02:28Z</time>
      </trkpt>
      <trkpt lat="40.12361" lon="-7.01073">
        <ele>375.2152</ele>
        <time>2021-07-09T10:02:39Z</time>
      </trkpt>
      <trkpt lat="40.12345" lon="-7.00994">
        <ele>369.1749</ele>
        <time>2021-07-09T10:02:50Z</time>
      </trkpt>
      <trkpt lat="40.12265" lon="-7.00926">
        <ele>361.2348</ele>
        <time>2021-07-09T10:03:01Z</time>
      </trkpt>
      <trkpt lat="40.12183" lon="-7.00834">
        <ele>357.4452</ele>
        <time>2021-07-09T10:03:12Z</time>
      </trkpt>
      <trkpt lat="40.12143" lon="-7.00697">
        <ele>358.0236</ele>
        <time>2021-07-09T10:03:23Z</time>
      </trkpt>
      <trkpt lat="40.12079" lon="-7.00582">
        <ele>355.8398</ele>
        <time>2021-07-09T10:03:34Z</time>
      </trkpt>
      <trkpt lat="40.12017" lon="-7.00439">
        <ele>353.9496</ele>
        <time>2021-07-09T10:03:45Z</time>
      </trkpt>
      <trkpt lat="40.11966" lon="-7.00283">
        <ele>357.5419</ele>
        <time>2021-07-09T10:03:56Z</time>
      </trkpt>
      <trkpt lat="40.11942" lon="-7.00178">
        <ele>356.281</ele>
        <time>2021-07-09T10:04:07Z</time>
      </trkpt>
      <trkpt lat="40.11879" lon="-7.00063">
        <ele>349.6366</ele>
        <time>2021-07-09T10:04:18Z</time>
      </trkpt>
      <trkpt lat="40.1183" lon="-6.9997">
        <ele>348.9505</ele>
        <time>2021-07-09T10:04:29Z</time>
      </trkpt>
      <trkpt lat="40.11736" lon="-6.99945">
        <ele>347.1293</ele>
        <time>2021-07-09T10:04:40Z</time>
      </trkpt>
      <trkpt lat="40.11636" lon="-6.9995">
        <ele>351.7038</ele>
        <time>2021-07-09T10:04:51Z</time>
      </trkpt>
      <trkpt lat="40.11539" lon="-6.9999">
        <ele>349.3289</ele>
        <time>2021-07-09T10:05:02Z</time>
      </trkpt>
      <trkpt lat="40.1152" lon="-6.99998">
        <ele>348.1021</ele>
        <time>2021-07-09T10:05:13Z</time>
      </trkpt>
      <trkpt lat="40.11514" lon="-7">
        <ele>347.8546</ele>
        <time>2021-07-09T10:05:24Z</time>
      </trkpt>
      <trkpt lat="40.11461" lon="-7.00025">
        <ele>351.1717</ele>
        <time>2021-07-09T10:05:35Z</time>
      </trkpt>
      <trkpt lat="40.11393" lon="-7.00049">
        <ele>344.4612</ele>
        <time>2021-07-09T10:05:46Z</time>
      </trkpt>
      <trkpt lat="40.11304" lon="-7.00028">
        <ele>340.0701</ele>
        <time>2021-07-09T10:05:57Z</time>
      </trkpt>
      <trkpt lat="40.11203" lon="-7.00017">
        <ele>338.1668</ele>
        <time>2021-07-09T10:06:08Z</time>
      </trkpt>
      <trkpt lat="40.11148" lon="-7.00046">
        <ele>333.3364</ele>
        <time>2021-07-09T10:06:19Z</time>
      </trkpt>
      <trkpt lat="40.11149" lon="-7.00046">
        <ele>328.7814</ele>
        <time>2021-07-09T10:07:18Z</time>
      </trkpt>
      <trkpt lat="40.11149" lon="-7.00046">
        <ele>328.7814</ele>
        <time>2021-07-09T10:08:18Z</time>
      </trkpt>
      <trkpt lat="40.11146" lon="-7.00053">
        <ele>331.4759</ele>
        <time>2021-07-09T10:09:07Z</time>
      </trkpt>
      <trkpt lat="40.11122" lon="-7.00077">
        <ele>328.9678</ele>
        <time>2021-07-09T10:09:18Z</time>
      </trkpt>
      <trkpt lat="40.11123" lon="-7.00076">
        <ele>335.5482</ele>
        <time>2021-07-09T10:10:18Z</time>
      </trkpt>
      <trkpt lat="40.11124" lon="-7.00077">
        <ele>338.1945</ele>
        <time>2021-07-09T10:11:17Z</time>
      </trkpt>
      <trkpt lat="40.1112" lon="-7.00075">
        <ele>337.8933</ele>
        <time>2021-07-09T10:11:50Z</time>
      </trkpt>
      <trkpt lat="40.11084" lon="-7.00008">
        <ele>342.3079</ele>
        <time>2021-07-09T10:12:01Z</time>
      </trkpt>
      <trkpt lat="40.11099" lon="-6.99897">
        <ele>360.1577</ele>
        <time>2021-07-09T10:12:12Z</time>
      </trkpt>
      <trkpt lat="40.11113" lon="-6.99806">
        <ele>362.2798</ele>
        <time>2021-07-09T10:12:23Z</time>
      </trkpt>
      <trkpt lat="40.11081" lon="-6.99681">
        <ele>366.633</ele>
        <time>2021-07-09T10:12:34Z</time>
      </trkpt>
      <trkpt lat="40.11013" lon="-6.99585">
        <ele>365.6248</ele>
        <time>2021-07-09T10:12:45Z</time>
      </trkpt>
      <trkpt lat="40.10952" lon="-6.99612">
        <ele>371.8038</ele>
        <time>2021-07-09T10:12:56Z</time>
      </trkpt>
      <trkpt lat="40.10861" lon="-6.99629">
        <ele>378.7018</ele>
        <time>2021-07-09T10:13:07Z</time>
      </trkpt>
      <trkpt lat="40.10765" lon="-6.99561">
        <ele>382.3706</ele>
        <time>2021-07-09T10:13:18Z</time>
      </trkpt>
      <trkpt lat="40.10695" lon="-6.99442">
        <ele>387.5478</ele>
        <time>2021-07-09T10:13:29Z</time>
      </trkpt>
      <trkpt lat="40.10618" lon="-6.99342">
        <ele>392.5381</ele>
        <time>2021-07-09T10:13:40Z</time>
      </trkpt>
      <trkpt lat="40.10536" lon="-6.99293">
        <ele>399.6658</ele>
        <time>2021-07-09T10:13:51Z</time>
      </trkpt>
      <trkpt lat="40.10442" lon="-6.99296">
        <ele>405.7286</ele>
        <time>2021-07-09T10:14:02Z</time>
      </trkpt>
      <trkpt lat="40.10364" lon="-6.9928">
        <ele>411.4757</ele>
        <time>2021-07-09T10:14:13Z</time>
      </trkpt>
      <trkpt lat="40.10322" lon="-6.99265">
        <ele>415.4852</ele>
        <time>2021-07-09T10:14:24Z</time>
      </trkpt>
      <trkpt lat="40.10296" lon="-6.99282">
        <ele>413.0765</ele>
        <time>2021-07-09T10:14:35Z</time>
      </trkpt>
      <trkpt lat="40.10214" lon="-6.99316">
        <ele>404.5279</ele>
        <time>2021-07-09T10:14:46Z</time>
      </trkpt>
      <trkpt lat="40.10137" lon="-6.9937">
        <ele>400.9362</ele>
        <time>2021-07-09T10:14:57Z</time>
      </trkpt>
      <trkpt lat="40.10093" lon="-6.99473">
        <ele>404.1095</ele>
        <time>2021-07-09T10:15:08Z</time>
      </trkpt>
      <trkpt lat="40.10013" lon="-6.99555">
        <ele>407.0753</ele>
        <time>2021-07-09T10:15:19Z</time>
      </trkpt>
      <trkpt lat="40.09938" lon="-6.99632">
        <ele>408.986</ele>
        <time>2021-07-09T10:15:30Z</time>
      </trkpt>
      <trkpt lat="40.0987" lon="-6.99713">
        <ele>417.1763</ele>
        <time>2021-07-09T10:15:41Z</time>
      </trkpt>
      <trkpt lat="40.09851" lon="-6.99724">
        <ele>415.3503</ele>
        <time>2021-07-09T10:15:52Z</time>
      </trkpt>
      <trkpt lat="40.09848" lon="-6.99713">
        <ele>417.9037</ele>
        <time>2021-07-09T10:16:03Z</time>
      </trkpt>
      <trkpt lat="40.09782" lon="-6.99734">
        <ele>421.6161</ele>
        <time>2021-07-09T10:16:14Z</time>
      </trkpt>
      <trkpt lat="40.09728" lon="-6.9977">
        <ele>427.5482</ele>
        <time>2021-07-09T10:16:25Z</time>
      </trkpt>
      <trkpt lat="40.09677" lon="-6.99824">
        <ele>430.4708</ele>
        <time>2021-07-09T10:16:36Z</time>
      </trkpt>
      <trkpt lat="40.09577" lon="-6.99826">
        <ele>428.4755</ele>
        <time>2021-07-09T10:16:47Z</time>
      </trkpt>
      <trkpt lat="40.09496" lon="-6.99872">
        <ele>429.8422</ele>
        <time>2021-07-09T10:16:58Z</time>
      </trkpt>
      <trkpt lat="40.09381" lon="-6.99929">
        <ele>433.4449</ele>
        <time>2021-07-09T10:17:09Z</time>
      </trkpt>
      <trkpt lat="40.09262" lon="-6.99964">
        <ele>427.3487</ele>
        <time>2021-07-09T10:17:20Z</time>
      </trkpt>
      <trkpt lat="40.09154" lon="-7.00007">
        <ele>426.7826</ele>
        <time>2021-07-09T10:17:31Z</time>
      </trkpt>
      <trkpt lat="40.09076" lon="-7.0005">
        <ele>432.6726</ele>
        <time>2021-07-09T10:17:42Z</time>
      </trkpt>
      <trkpt lat="40.08981" lon="-7.00089">
        <ele>431.2946</ele>
        <time>2021-07-09T10:17:53Z</time>
      </trkpt>
      <trkpt lat="40.08878" lon="-7.0014">
        <ele>438.2988</ele>
        <time>2021-07-09T10:18:04Z</time>
      </trkpt>
      <trkpt lat="40.08769" lon="-7.00187">
        <ele>448.5307</ele>
        <time>2021-07-09T10:18:15Z</time>
      </trkpt>
      <trkpt lat="40.0866" lon="-7.00229">
        <ele>446.4943</ele>
        <time>2021-07-09T10:18:26Z</time>
      </trkpt>
      <trkpt lat="40.08561" lon="-7.00266">
        <ele>448.5076</ele>
        <time>2021-07-09T10:18:37Z</time>
      </trkpt>
      <trkpt lat="40.08503" lon="-7.00276">
        <ele>454.787</ele>
        <time>2021-07-09T10:18:48Z</time>
      </trkpt>
      <trkpt lat="40.08478" lon="-7.0017">
        <ele>455.2109</ele>
        <time>2021-07-09T10:18:59Z</time>
      </trkpt>
      <trkpt lat="40.08451" lon="-7.00041">
        <ele>460.8555</ele>
        <time>2021-07-09T10:19:10Z</time>
      </trkpt>
      <trkpt lat="40.08393" lon="-6.99922">
        <ele>461.4999</ele>
        <time>2021-07-09T10:19:21Z</time>
      </trkpt>
      <trkpt lat="40.08426" lon="-6.99811">
        <ele>460.1492</ele>
        <time>2021-07-09T10:19:32Z</time>
      </trkpt>
      <trkpt lat="40.0838" lon="-6.99746">
        <ele>455.5679</ele>
        <time>2021-07-09T10:19:43Z</time>
      </trkpt>
      <trkpt lat="40.08327" lon="-6.99635">
        <ele>453.8576</ele>
        <time>2021-07-09T10:19:54Z</time>
      </trkpt>
      <trkpt lat="40.08292" lon="-6.99538">
        <ele>449.3052</ele>
        <time>2021-07-09T10:20:05Z</time>
      </trkpt>
      <trkpt lat="40.0824" lon="-6.99405">
        <ele>452.0487</ele>
        <time>2021-07-09T10:20:16Z</time>
      </trkpt>
      <trkpt lat="40.08174" lon="-6.99307">
        <ele>454.4565</ele>
        <time>2021-07-09T10:20:27Z</time>
      </trkpt>
      <trkpt lat="40.08087" lon="-6.99269">
        <ele>452.3962</ele>
        <time>2021-07-09T10:20:38Z</time>
      </trkpt>
      <trkpt lat="40.08001" lon="-6.99253">
        <ele>445.8669</ele>
        <time>2021-07-09T10:20:49Z</time>
      </trkpt>
      <trkpt lat="40.07911" lon="-6.99217">
        <ele>447.1966</ele>
        <time>2021-07-09T10:21:00Z</time>
      </trkpt>
      <trkpt lat="40.07811" lon="-6.99192">
        <ele>450.1661</ele>
        <time>2021-07-09T10:21:11Z</time>
      </trkpt>
      <trkpt lat="40.07723" lon="-6.99159">
        <ele>459.9954</ele>
        <time>2021-07-09T10:21:22Z</time>
      </trkpt>
      <trkpt lat="40.07663" lon="-6.99092">
        <ele>452.2383</ele>
        <time>2021-07-09T10:21:33Z</time>
      </trkpt>
      <trkpt lat="40.07573" lon="-6.9904">
        <ele>456.1185</ele>
        <time>2021-07-09T10:21:44Z</time>
      </trkpt>
      <trkpt lat="40.07492" lon="-6.99057">
        <ele>458.4368</ele>
        <time>2021-07-09T10:21:55Z</time>
      </trkpt>
      <trkpt lat="40.07445" lon="-6.98969">
        <ele>459.6791</ele>
        <time>2021-07-09T10:22:06Z</time>
      </trkpt>
      <trkpt lat="40.07392" lon="-6.98832">
        <ele>446.3196</ele>
        <time>2021-07-09T10:22:17Z</time>
      </trkpt>
      <trkpt lat="40.07357" lon="-6.98733">
        <ele>417.1782</ele>
        <time>2021-07-09T10:22:28Z</time>
      </trkpt>
      <trkpt lat="40.07383" lon="-6.98622">
        <ele>414.7752</ele>
        <time>2021-07-09T10:22:39Z</time>
      </trkpt>
      <trkpt lat="40.07418" lon="-6.9849">
        <ele>431.7401</ele>
        <time>2021-07-09T10:22:50Z</time>
      </trkpt>
      <trkpt lat="40.07382" lon="-6.98412">
        <ele>435.7722</ele>
        <time>2021-07-09T10:23:01Z</time>
      </trkpt>
      <trkpt lat="40.07295" lon="-6.98375">
        <ele>440.4761</ele>
        <time>2021-07-09T10:23:12Z</time>
      </trkpt>
      <trkpt lat="40.07247" lon="-6.98397">
        <ele>417.3045</ele>
        <time>2021-07-09T10:23:23Z</time>
      </trkpt>
      <trkpt lat="40.07189" lon="-6.98413">
        <ele>425.2492</ele>
        <time>2021-07-09T10:23:34Z</time>
      </trkpt>
      <trkpt lat="40.07148" lon="-6.98371">
        <ele>438.4635</ele>
        <time>2021-07-09T10:23:45Z</time>
      </trkpt>
      <trkpt lat="40.07138" lon="-6.98335">
        <ele>445.9086</ele>
        <time>2021-07-09T10:23:56Z</time>
      </trkpt>
      <trkpt lat="40.0709" lon="-6.98374">
        <ele>459.8001</ele>
        <time>2021-07-09T10:24:07Z</time>
      </trkpt>
      <trkpt lat="40.07037" lon="-6.98417">
        <ele>467.1109</ele>
        <time>2021-07-09T10:24:18Z</time>
      </trkpt>
      <trkpt lat="40.06954" lon="-6.9844">
        <ele>458.2614</ele>
        <time>2021-07-09T10:24:29Z</time>
      </trkpt>
      <trkpt lat="40.06887" lon="-6.98463">
        <ele>455.6378</ele>
        <time>2021-07-09T10:24:40Z</time>
      </trkpt>
      <trkpt lat="40.06782" lon="-6.98514">
        <ele>441.3673</ele>
        <time>2021-07-09T10:24:51Z</time>
      </trkpt>
      <trkpt lat="40.06677" lon="-6.98606">
        <ele>440.509</ele>
        <time>2021-07-09T10:25:02Z</time>
      </trkpt>
      <trkpt lat="40.06572" lon="-6.98708">
        <ele>440.1288</ele>
        <time>2021-07-09T10:25:13Z</time>
      </trkpt>
      <trkpt lat="40.06471" lon="-6.98751">
        <ele>449.0216</ele>
        <time>2021-07-09T10:25:24Z</time>
      </trkpt>
      <trkpt lat="40.06407" lon="-6.98821">
        <ele>444.4988</ele>
        <time>2021-07-09T10:25:35Z</time>
      </trkpt>
      <trkpt lat="40.06401" lon="-6.9895">
        <ele>451.7639</ele>
        <time>2021-07-09T10:25:46Z</time>
      </trkpt>
      <trkpt lat="40.06382" lon="-6.99045">
        <ele>467.1436</ele>
        <time>2021-07-09T10:25:57Z</time>
      </trkpt>
      <trkpt lat="40.0635" lon="-6.99001">
        <ele>500.426</ele>
        <time>2021-07-09T10:26:08Z</time>
      </trkpt>
      <trkpt lat="40.06276" lon="-6.98986">
        <ele>529.4445</ele>
        <time>2021-07-09T10:26:19Z</time>
      </trkpt>
      <trkpt lat="40.06311" lon="-6.99078">
        <ele>548.1973</ele>
        <time>2021-07-09T10:26:30Z</time>
      </trkpt>
      <trkpt lat="40.06328" lon="-6.99224">
        <ele>550.5099</ele>
        <time>2021-07-09T10:26:41Z</time>
      </trkpt>
      <trkpt lat="40.0635" lon="-6.99367">
        <ele>559.7928</ele>
        <time>2021-07-09T10:26:52Z</time>
      </trkpt>
      <trkpt lat="40.06313" lon="-6.99522">
        <ele>568.4749</ele>
        <time>2021-07-09T10:27:03Z</time>
      </trkpt>
      <trkpt lat="40.06253" lon="-6.99634">
        <ele>557.3016</ele>
        <time>2021-07-09T10:27:14Z</time>
      </trkpt>
      <trkpt lat="40.06165" lon="-6.99689">
        <ele>567.3929</ele>
        <time>2021-07-09T10:27:25Z</time>
      </trkpt>
      <trkpt lat="40.0607" lon="-6.99694">
        <ele>593.7865</ele>
        <time>2021-07-09T10:27:36Z</time>
      </trkpt>
      <trkpt lat="40.06064" lon="-6.99694">
        <ele>614.6025</ele>
        <time>2021-07-09T10:27:47Z</time>
      </trkpt>
      <trkpt lat="40.06061" lon="-6.99687">
        <ele>634.7727</ele>
        <time>2021-07-09T10:27:58Z</time>
      </trkpt>
      <trkpt lat="40.06059" lon="-6.99693">
        <ele>630.5174</ele>
        <time>2021-07-09T10:28:09Z</time>
      </trkpt>
      <trkpt lat="40.0595" lon="-6.99747">
        <ele>618.7632</ele>
        <time>2021-07-09T10:28:20Z</time>
      </trkpt>
      <trkpt lat="40.05799" lon="-6.99852">
        <ele>604.5822</ele>
        <time>2021-07-09T10:28:31Z</time>
      </trkpt>
      <trkpt lat="40.0566" lon="-6.99887">
        <ele>595.1843</ele>
        <time>2021-07-09T10:28:42Z</time>
      </trkpt>
      <trkpt lat="40.05503" lon="-6.99948">
        <ele>597.0013</ele>
        <time>2021-07-09T10:28:53Z</time>
      </trkpt>
      <trkpt lat="40.05412" lon="-7.00114">
        <ele>582.6624</ele>
        <time>2021-07-09T10:29:04Z</time>
      </trkpt>
      <trkpt lat="40.05338" lon="-7.0023">
        <ele>561.8158</ele>
        <time>2021-07-09T10:29:15Z</time>
      </trkpt>
      <trkpt lat="40.05257" lon="-7.00304">
        <ele>554.5033</ele>
        <time>2021-07-09T10:29:26Z</time>
      </trkpt>
      <trkpt lat="40.05153" lon="-7.00388">
        <ele>545.9199</ele>
        <time>2021-07-09T10:29:37Z</time>
      </trkpt>
      <trkpt lat="40.05013" lon="-7.0044">
        <ele>536.5503</ele>
        <time>2021-07-09T10:29:48Z</time>
      </trkpt>
      <trkpt lat="40.04873" lon="-7.00485">
        <ele>527.5694</ele>
        <time>2021-07-09T10:29:59Z</time>
      </trkpt>
      <trkpt lat="40.04786" lon="-7.00617">
        <ele>512.7923</ele>
        <time>2021-07-09T10:30:10Z</time>
      </trkpt>
      <trkpt lat="40.04714" lon="-7.00695">
        <ele>502.5703</ele>
        <time>2021-07-09T10:30:21Z</time>
      </trkpt>
      <trkpt lat="40.04659" lon="-7.00871">
        <ele>515.2042</ele>
        <time>2021-07-09T10:30:32Z</time>
      </trkpt>
      <trkpt lat="40.04585" lon="-7.00982">
        <ele>522.0541</ele>
        <time>2021-07-09T10:30:43Z</time>
      </trkpt>
      <trkpt lat="40.04492" lon="-7.00982">
        <ele>523.6366</ele>
        <time>2021-07-09T10:30:54Z</time>
      </trkpt>
      <trkpt lat="40.04391" lon="-7.00979">
        <ele>534.451</ele>
        <time>2021-07-09T10:31:05Z</time>
      </trkpt>
      <trkpt lat="40.04352" lon="-7.00982">
        <ele>532.9423</ele>
        <time>2021-07-09T10:31:16Z</time>
      </trkpt>
      <trkpt lat="40.0435" lon="-7.00986">
        <ele>531.5681</ele>
        <time>2021-07-09T10:31:30Z</time>
      </trkpt>
      <trkpt lat="40.04344" lon="-7.00989">
        <ele>531.8396</ele>
        <time>2021-07-09T10:32:02Z</time>
      </trkpt>
      <trkpt lat="40.04265" lon="-7.01023">
        <ele>524.7938</ele>
        <time>2021-07-09T10:32:13Z</time>
      </trkpt>
      <trkpt lat="40.04257" lon="-7.01031">
        <ele>522.9905</ele>
        <time>2021-07-09T10:32:24Z</time>
      </trkpt>
      <trkpt lat="40.04257" lon="-7.0104">
        <ele>522.1064</ele>
        <time>2021-07-09T10:32:35Z</time>
      </trkpt>
      <trkpt lat="40.04258" lon="-7.01041">
        <ele>521.1573</ele>
        <time>2021-07-09T10:33:35Z</time>
      </trkpt>
      <trkpt lat="40.04259" lon="-7.01042">
        <ele>523.0515</ele>
        <time>2021-07-09T10:34:33Z</time>
      </trkpt>
      <trkpt lat="40.04259" lon="-7.01042">
        <ele>520.8655</ele>
        <time>2021-07-09T10:35:33Z</time>
      </trkpt>
      <trkpt lat="40.04262" lon="-7.0104">
        <ele>520.4773</ele>
        <time>2021-07-09T10:35:53Z</time>
      </trkpt>
      <trkpt lat="40.04228" lon="-7.01005">
        <ele>515.9256</ele>
        <time>2021-07-09T10:36:04Z</time>
      </trkpt>
      <trkpt lat="40.04118" lon="-7.00942">
        <ele>499.8789</ele>
        <time>2021-07-09T10:36:15Z</time>
      </trkpt>
      <trkpt lat="40.03936" lon="-7.00959">
        <ele>484.782</ele>
        <time>2021-07-09T10:36:26Z</time>
      </trkpt>
      <trkpt lat="40.03789" lon="-7.01048">
        <ele>474.7357</ele>
        <time>2021-07-09T10:36:37Z</time>
      </trkpt>
      <trkpt lat="40.03622" lon="-7.01172">
        <ele>460.0587</ele>
        <time>2021-07-09T10:36:48Z</time>
      </trkpt>
      <trkpt lat="40.03527" lon="-7.0132">
        <ele>455.5975</ele>
        <time>2021-07-09T10:36:59Z</time>
      </trkpt>
      <trkpt lat="40.03483" lon="-7.01319">
        <ele>458.0161</ele>
        <time>2021-07-09T10:37:10Z</time>
      </trkpt>
      <trkpt lat="40.0338" lon="-7.01155">
        <ele>461.824</ele>
        <time>2021-07-09T10:37:21Z</time>
      </trkpt>
      <trkpt lat="40.03269" lon="-7.00979">
        <ele>461.9338</ele>
        <time>2021-07-09T10:37:32Z</time>
      </trkpt>
      <trkpt lat="40.03255" lon="-7.00925">
        <ele>462.8101</ele>
        <time>2021-07-09T10:37:43Z</time>
      </trkpt>
      <trkpt lat="40.03265" lon="-7.00936">
        <ele>460.9774</ele>
        <time>2021-07-09T10:37:54Z</time>
      </trkpt>
      <trkpt lat="40.03263" lon="-7.00939">
        <ele>459.7039</ele>
        <time>2021-07-09T10:38:08Z</time>
      </trkpt>
      <trkpt lat="40.03261" lon="-7.00945">
        <ele>456.3995</ele>
        <time>2021-07-09T10:38:19Z</time>
      </trkpt>
      <trkpt lat="40.03265" lon="-7.00945">
        <ele>459.0786</ele>
        <time>2021-07-09T10:39:17Z</time>
      </trkpt>
      <trkpt lat="40.03265" lon="-7.00945">
        <ele>458.8054</ele>
        <time>2021-07-09T10:40:17Z</time>
      </trkpt>
      <trkpt lat="40.03264" lon="-7.00947">
        <ele>464.8342</ele>
        <time>2021-07-09T10:41:17Z</time>
      </trkpt>
      <trkpt lat="40.03266" lon="-7.00948">
        <ele>466.5132</ele>
        <time>2021-07-09T10:42:17Z</time>
      </trkpt>
      <trkpt lat="40.03269" lon="-7.00958">
        <ele>465.9733</ele>
        <time>2021-07-09T10:43:05Z</time>
      </trkpt>
      <trkpt lat="40.03279" lon="-7.00987">
        <ele>464.5852</ele>
        <time>2021-07-09T10:43:16Z</time>
      </trkpt>
      <trkpt lat="40.03343" lon="-7.01092">
        <ele>462.7263</ele>
        <time>2021-07-09T10:43:27Z</time>
      </trkpt>
      <trkpt lat="40.03415" lon="-7.01206">
        <ele>459.7359</ele>
        <time>2021-07-09T10:43:38Z</time>
      </trkpt>
      <trkpt lat="40.03352" lon="-7.01214">
        <ele>463.8871</ele>
        <time>2021-07-09T10:43:49Z</time>
      </trkpt>
      <trkpt lat="40.03285" lon="-7.01223">
        <ele>459.3833</ele>
        <time>2021-07-09T10:44:00Z</time>
      </trkpt>
      <trkpt lat="40.03205" lon="-7.01187">
        <ele>454.1615</ele>
        <time>2021-07-09T10:44:11Z</time>
      </trkpt>
      <trkpt lat="40.03113" lon="-7.01138">
        <ele>450.5341</ele>
        <time>2021-07-09T10:44:22Z</time>
      </trkpt>
      <trkpt lat="40.03006" lon="-7.01132">
        <ele>435.4133</ele>
        <time>2021-07-09T10:44:33Z</time>
      </trkpt>
      <trkpt lat="40.02924" lon="-7.0109">
        <ele>434.1251</ele>
        <time>2021-07-09T10:44:44Z</time>
      </trkpt>
      <trkpt lat="40.02849" lon="-7.01136">
        <ele>434.3498</ele>
        <time>2021-07-09T10:44:55Z</time>
      </trkpt>
      <trkpt lat="40.02795" lon="-7.01104">
        <ele>447.2112</ele>
        <time>2021-07-09T10:45:06Z</time>
      </trkpt>
      <trkpt lat="40.02716" lon="-7.01018">
        <ele>460.9177</ele>
        <time>2021-07-09T10:45:17Z</time>
      </trkpt>
      <trkpt lat="40.02641" lon="-7.01">
        <ele>463.1712</ele>
        <time>2021-07-09T10:45:28Z</time>
      </trkpt>
      <trkpt lat="40.02583" lon="-7.01017">
        <ele>468.1714</ele>
        <time>2021-07-09T10:45:39Z</time>
      </trkpt>
      <trkpt lat="40.02563" lon="-7.01015">
        <ele>472.531</ele>
        <time>2021-07-09T10:45:50Z</time>
      </trkpt>
      <trkpt lat="40.02565" lon="-7.01015">
        <ele>466.4131</ele>
        <time>2021-07-09T10:46:49Z</time>
      </trkpt>
      <trkpt lat="40.02567" lon="-7.01016">
        <ele>468.272</ele>
        <time>2021-07-09T10:47:47Z</time>
      </trkpt>
      <trkpt lat="40.02563" lon="-7.01015">
        <ele>468.481</ele>
        <time>2021-07-09T10:47:59Z</time>
      </trkpt>
      <trkpt lat="40.02559" lon="-7.01016">
        <ele>467.9292</ele>
        <time>2021-07-09T10:48:10Z</time>
      </trkpt>
      <trkpt lat="40.02555" lon="-7.01021">
        <ele>467.6644</ele>
        <time>2021-07-09T10:48:40Z</time>
      </trkpt>
      <trkpt lat="40.02473" lon="-7.01064">
        <ele>457.0424</ele>
        <time>2021-07-09T10:48:51Z</time>
      </trkpt>
      <trkpt lat="40.02365" lon="-7.01098">
        <ele>450.512</ele>
        <time>2021-07-09T10:49:02Z</time>
      </trkpt>
      <trkpt lat="40.02271" lon="-7.01129">
        <ele>444.5659</ele>
        <time>2021-07-09T10:49:13Z</time>
      </trkpt>
      <trkpt lat="40.0221" lon="-7.01103">
        <ele>440.7468</ele>
        <time>2021-07-09T10:49:24Z</time>
      </trkpt>
      <trkpt lat="40.02105" lon="-7.01116">
        <ele>450.6087</ele>
        <time>2021-07-09T10:49:35Z</time>
      </trkpt>
      <trkpt lat="40.02022" lon="-7.01185">
        <ele>461.5413</ele>
        <time>2021-07-09T10:49:46Z</time>
      </trkpt>
      <trkpt lat="40.01902" lon="-7.01165">
        <ele>466.2118</ele>
        <time>2021-07-09T10:49:57Z</time>
      </trkpt>
      <trkpt lat="40.01785" lon="-7.01127">
        <ele>471.9194</ele>
        <time>2021-07-09T10:50:08Z</time>
      </trkpt>
      <trkpt lat="40.01675" lon="-7.0111">
        <ele>475.5099</ele>
        <time>2021-07-09T10:50:19Z</time>
      </trkpt>
      <trkpt lat="40.01613" lon="-7.01125">
        <ele>467.023</ele>
        <time>2021-07-09T10:50:30Z</time>
      </trkpt>
      <trkpt lat="40.0155" lon="-7.0128">
        <ele>465.4538</ele>
        <time>2021-07-09T10:50:41Z</time>
      </trkpt>
      <trkpt lat="40.01501" lon="-7.01452">
        <ele>463.4698</ele>
        <time>2021-07-09T10:50:52Z</time>
      </trkpt>
      <trkpt lat="40.01411" lon="-7.01562">
        <ele>456.1623</ele>
        <time>2021-07-09T10:51:03Z</time>
      </trkpt>
      <trkpt lat="40.01274" lon="-7.0161">
        <ele>464.733</ele>
        <time>2021-07-09T10:51:14Z</time>
      </trkpt>
      <trkpt lat="40.01141" lon="-7.01696">
        <ele>465.9146</ele>
        <time>2021-07-09T10:51:25Z</time>
      </trkpt>
      <trkpt lat="40.01059" lon="-7.01803">
        <ele>471.8526</ele>
        <time>2021-07-09T10:51:36Z</time>
      </trkpt>
      <trkpt lat="40.00974" lon="-7.01902">
        <ele>469.0271</ele>
        <time>2021-07-09T10:51:47Z</time>
      </trkpt>
      <trkpt lat="40.00971" lon="-7.01906">
        <ele>470.2063</ele>
        <time>2021-07-09T10:51:59Z</time>
      </trkpt>
      <trkpt lat="40.00917" lon="-7.02022">
        <ele>460.8596</ele>
        <time>2021-07-09T10:52:10Z</time>
      </trkpt>
      <trkpt lat="40.00772" lon="-7.02071">
        <ele>470.3572</ele>
        <time>2021-07-09T10:52:21Z</time>
      </trkpt>
      <trkpt lat="40.00643" lon="-7.02038">
        <ele>463.4746</ele>
        <time>2021-07-09T10:52:32Z</time>
      </trkpt>
      <trkpt lat="40.00473" lon="-7.02111">
        <ele>458.8149</ele>
        <time>2021-07-09T10:52:43Z</time>
      </trkpt>
      <trkpt lat="40.00331" lon="-7.02246">
        <ele>448.3902</ele>
        <time>2021-07-09T10:52:54Z</time>
      </trkpt>
      <trkpt lat="40.00248" lon="-7.02285">
        <ele>444.9417</ele>
        <time>2021-07-09T10:53:05Z</time>
      </trkpt>
      <trkpt lat="40.00298" lon="-7.02266">
        <ele>450.437</ele>
        <time>2021-07-09T10:53:16Z</time>
      </trkpt>
      <trkpt lat="40.00362" lon="-7.02393">
        <ele>451.475</ele>
        <time>2021-07-09T10:53:27Z</time>
      </trkpt>
      <trkpt lat="40.00335" lon="-7.02567">
        <ele>455.7242</ele>
        <time>2021-07-09T10:53:38Z</time>
      </trkpt>
      <trkpt lat="40.0029" lon="-7.02756">
        <ele>450.5677</ele>
        <time>2021-07-09T10:53:49Z</time>
      </trkpt>
      <trkpt lat="40.00179" lon="-7.02798">
        <ele>444.6103</ele>
        <time>2021-07-09T10:54:00Z</time>
      </trkpt>
      <trkpt lat="40.00048" lon="-7.0291">
        <ele>439.921</ele>
        <time>2021-07-09T10:54:11Z</time>
      </trkpt>
      <trkpt lat="39.9991" lon="-7.02947">
        <ele>441.1421</ele>
        <time>2021-07-09T10:54:22Z</time>
      </trkpt>
      <trkpt lat="39.99861" lon="-7.03011">
        <ele>443.9187</ele>
        <time>2021-07-09T10:54:33Z</time>
      </trkpt>
      <trkpt lat="39.999" lon="-7.03174">
        <ele>445.9249</ele>
        <time>2021-07-09T10:54:44Z</time>
      </trkpt>
      <trkpt lat="39.99895" lon="-7.03321">
        <ele>448.0122</ele>
        <time>2021-07-09T10:54:55Z</time>
      </trkpt>
      <trkpt lat="39.99926" lon="-7.03477">
        <ele>441.0384</ele>
        <time>2021-07-09T10:55:06Z</time>
      </trkpt>
      <trkpt lat="39.99944" lon="-7.03497">
        <ele>441.7048</ele>
        <time>2021-07-09T10:55:17Z</time>
      </trkpt>
      <trkpt lat="39.9995" lon="-7.03503">
        <ele>440.6117</ele>
        <time>2021-07-09T10:55:28Z</time>
      </trkpt>
      <trkpt lat="39.99955" lon="-7.03511">
        <ele>442.0142</ele>
        <time>2021-07-09T10:55:57Z</time>
      </trkpt>
      <trkpt lat="40.0004" lon="-7.03557">
        <ele>435.5941</ele>
        <time>2021-07-09T10:56:08Z</time>
      </trkpt>
      <trkpt lat="40.00125" lon="-7.03642">
        <ele>431.3084</ele>
        <time>2021-07-09T10:56:19Z</time>
      </trkpt>
      <trkpt lat="40.00181" lon="-7.03756">
        <ele>432.5077</ele>
        <time>2021-07-09T10:56:30Z</time>
      </trkpt>
      <trkpt lat="40.00247" lon="-7.03854">
        <ele>433.6733</ele>
        <time>2021-07-09T10:56:41Z</time>
      </trkpt>
      <trkpt lat="40.00292" lon="-7.03997">
        <ele>430.7311</ele>
        <time>2021-07-09T10:56:52Z</time>
      </trkpt>
      <trkpt lat="40.00314" lon="-7.0413">
        <ele>419.5915</ele>
        <time>2021-07-09T10:57:03Z</time>
      </trkpt>
      <trkpt lat="40.00378" lon="-7.04224">
        <ele>422.5194</ele>
        <time>2021-07-09T10:57:14Z</time>
      </trkpt>
      <trkpt lat="40.00432" lon="-7.04346">
        <ele>423.046</ele>
        <time>2021-07-09T10:57:25Z</time>
      </trkpt>
      <trkpt lat="40.00477" lon="-7.04482">
        <ele>430.16</ele>
        <time>2021-07-09T10:57:36Z</time>
      </trkpt>
      <trkpt lat="40.00517" lon="-7.04634">
        <ele>427.6288</ele>
        <time>2021-07-09T10:57:47Z</time>
      </trkpt>
      <trkpt lat="40.0054" lon="-7.04739">
        <ele>422.3962</ele>
        <time>2021-07-09T10:57:58Z</time>
      </trkpt>
      <trkpt lat="40.00547" lon="-7.04741">
        <ele>415.9016</ele>
        <time>2021-07-09T10:58:09Z</time>
      </trkpt>
      <trkpt lat="40.00556" lon="-7.04749">
        <ele>419.0309</ele>
        <time>2021-07-09T10:58:20Z</time>
      </trkpt>
      <trkpt lat="40.0056" lon="-7.04753">
        <ele>413.2445</ele>
        <time>2021-07-09T10:59:00Z</time>
      </trkpt>
      <trkpt lat="40.00619" lon="-7.04823">
        <ele>407.9317</ele>
        <time>2021-07-09T10:59:11Z</time>
      </trkpt>
      <trkpt lat="40.00601" lon="-7.04957">
        <ele>405.1565</ele>
        <time>2021-07-09T10:59:22Z</time>
      </trkpt>
      <trkpt lat="40.00615" lon="-7.05073">
        <ele>407.16</ele>
        <time>2021-07-09T10:59:33Z</time>
      </trkpt>
      <trkpt lat="40.00614" lon="-7.05189">
        <ele>404.7725</ele>
        <time>2021-07-09T10:59:44Z</time>
      </trkpt>
      <trkpt lat="40.00646" lon="-7.05232">
        <ele>404.3714</ele>
        <time>2021-07-09T10:59:55Z</time>
      </trkpt>
      <trkpt lat="40.00652" lon="-7.05233">
        <ele>401.8849</ele>
        <time>2021-07-09T11:00:25Z</time>
      </trkpt>
      <trkpt lat="40.00656" lon="-7.05242">
        <ele>404.8602</ele>
        <time>2021-07-09T11:00:36Z</time>
      </trkpt>
      <trkpt lat="40.00659" lon="-7.05247">
        <ele>405.6084</ele>
        <time>2021-07-09T11:00:53Z</time>
      </trkpt>
      <trkpt lat="40.00673" lon="-7.0534">
        <ele>396.9828</ele>
        <time>2021-07-09T11:01:04Z</time>
      </trkpt>
      <trkpt lat="40.00693" lon="-7.05452">
        <ele>401.4069</ele>
        <time>2021-07-09T11:01:15Z</time>
      </trkpt>
      <trkpt lat="40.00672" lon="-7.05563">
        <ele>394.3604</ele>
        <time>2021-07-09T11:01:26Z</time>
      </trkpt>
      <trkpt lat="40.00678" lon="-7.0559">
        <ele>395.0901</ele>
        <time>2021-07-09T11:01:37Z</time>
      </trkpt>
      <trkpt lat="40.00761" lon="-7.05631">
        <ele>392.7325</ele>
        <time>2021-07-09T11:01:48Z</time>
      </trkpt>
      <trkpt lat="40.00829" lon="-7.05681">
        <ele>387.6178</ele>
        <time>2021-07-09T11:01:59Z</time>
      </trkpt>
      <trkpt lat="40.0091" lon="-7.05696">
        <ele>380.9795</ele>
        <time>2021-07-09T11:02:10Z</time>
      </trkpt>
      <trkpt lat="40.00967" lon="-7.05644">
        <ele>384.1504</ele>
        <time>2021-07-09T11:02:21Z</time>
      </trkpt>
      <trkpt lat="40.01023" lon="-7.05624">
        <ele>381.9284</ele>
        <time>2021-07-09T11:02:32Z</time>
      </trkpt>
      <trkpt lat="40.01108" lon="-7.05603">
        <ele>388.4477</ele>
        <time>2021-07-09T11:02:43Z</time>
      </trkpt>
      <trkpt lat="40.01193" lon="-7.05535">
        <ele>388.7792</ele>
        <time>2021-07-09T11:02:54Z</time>
      </trkpt>
      <trkpt lat="40.01253" lon="-7.05425">
        <ele>390.3415</ele>
        <time>2021-07-09T11:03:05Z</time>
      </trkpt>
      <trkpt lat="40.01279" lon="-7.05395">
        <ele>390.063</ele>
        <time>2021-07-09T11:03:16Z</time>
      </trkpt>
      <trkpt lat="40.01367" lon="-7.05462">
        <ele>386.7671</ele>
        <time>2021-07-09T11:03:27Z</time>
      </trkpt>
      <trkpt lat="40.0146" lon="-7.05432">
        <ele>387.3375</ele>
        <time>2021-07-09T11:03:38Z</time>
      </trkpt>
      <trkpt lat="40.01479" lon="-7.0541">
        <ele>388.7279</ele>
        <time>2021-07-09T11:03:49Z</time>
      </trkpt>
      <trkpt lat="40.01483" lon="-7.05406">
        <ele>389.5903</ele>
        <time>2021-07-09T11:04:07Z</time>
      </trkpt>
      <trkpt lat="40.01488" lon="-7.05406">
        <ele>388.8071</ele>
        <time>2021-07-09T11:04:45Z</time>
      </trkpt>
      <trkpt lat="40.01504" lon="-7.05414">
        <ele>387.9819</ele>
        <time>2021-07-09T11:04:56Z</time>
      </trkpt>
      <trkpt lat="40.01507" lon="-7.05431">
        <ele>387.5</ele>
        <time>2021-07-09T11:05:07Z</time>
      </trkpt>
      <trkpt lat="40.01503" lon="-7.05465">
        <ele>387.8163</ele>
        <time>2021-07-09T11:05:18Z</time>
      </trkpt>
      <trkpt lat="40.01503" lon="-7.05478">
        <ele>388.1611</ele>
        <time>2021-07-09T11:05:29Z</time>
      </trkpt>
      <trkpt lat="40.01525" lon="-7.05573">
        <ele>387.295</ele>
        <time>2021-07-09T11:05:40Z</time>
      </trkpt>
      <trkpt lat="40.01594" lon="-7.05674">
        <ele>383.8004</ele>
        <time>2021-07-09T11:05:51Z</time>
      </trkpt>
      <trkpt lat="40.01676" lon="-7.05723">
        <ele>386.6666</ele>
        <time>2021-07-09T11:06:02Z</time>
      </trkpt>
      <trkpt lat="40.01732" lon="-7.05756">
        <ele>387.6242</ele>
        <time>2021-07-09T11:06:13Z</time>
      </trkpt>
      <trkpt lat="40.01804" lon="-7.05796">
        <ele>389.0319</ele>
        <time>2021-07-09T11:06:24Z</time>
      </trkpt>
      <trkpt lat="40.01889" lon="-7.05833">
        <ele>391.8247</ele>
        <time>2021-07-09T11:06:35Z</time>
      </trkpt>
      <trkpt lat="40.02012" lon="-7.05902">
        <ele>390.4884</ele>
        <time>2021-07-09T11:06:46Z</time>
      </trkpt>
      <trkpt lat="40.02129" lon="-7.05937">
        <ele>388.6439</ele>
        <time>2021-07-09T11:06:57Z</time>
      </trkpt>
      <trkpt lat="40.02211" lon="-7.05927">
        <ele>385.9158</ele>
        <time>2021-07-09T11:07:08Z</time>
      </trkpt>
      <trkpt lat="40.02284" lon="-7.05954">
        <ele>385.0504</ele>
        <time>2021-07-09T11:07:19Z</time>
      </trkpt>
      <trkpt lat="40.02363" lon="-7.06072">
        <ele>386.1832</ele>
        <time>2021-07-09T11:07:30Z</time>
      </trkpt>
      <trkpt lat="40.02465" lon="-7.0614">
        <ele>390.0223</ele>
        <time>2021-07-09T11:07:41Z</time>
      </trkpt>
      <trkpt lat="40.02581" lon="-7.06182">
        <ele>391.5638</ele>
        <time>2021-07-09T11:07:52Z</time>
      </trkpt>
      <trkpt lat="40.0271" lon="-7.06235">
        <ele>388.4173</ele>
        <time>2021-07-09T11:08:03Z</time>
      </trkpt>
      <trkpt lat="40.02801" lon="-7.06333">
        <ele>386.1835</ele>
        <time>2021-07-09T11:08:14Z</time>
      </trkpt>
      <trkpt lat="40.02894" lon="-7.06449">
        <ele>390.7654</ele>
        <time>2021-07-09T11:08:25Z</time>
      </trkpt>
      <trkpt lat="40.02982" lon="-7.06542">
        <ele>393.8072</ele>
        <time>2021-07-09T11:08:36Z</time>
      </trkpt>
      <trkpt lat="40.03059" lon="-7.06632">
        <ele>387.6806</ele>
        <time>2021-07-09T11:08:47Z</time>
      </trkpt>
      <trkpt lat="40.03185" lon="-7.06657">
        <ele>392.2616</ele>
        <time>2021-07-09T11:08:58Z</time>
      </trkpt>
      <trkpt lat="40.03302" lon="-7.06706">
        <ele>400.0483</ele>
        <time>2021-07-09T11:09:09Z</time>
      </trkpt>
      <trkpt lat="40.03447" lon="-7.06775">
        <ele>402.7241</ele>
        <time>2021-07-09T11:09:20Z</time>
      </trkpt>
      <trkpt lat="40.03579" lon="-7.06819">
        <ele>404.7326</ele>
        <time>2021-07-09T11:09:31Z</time>
      </trkpt>
      <trkpt lat="40.03699" lon="-7.06924">
        <ele>404.5545</ele>
        <time>2021-07-09T11:09:42Z</time>
      </trkpt>
      <trkpt lat="40.03835" lon="-7.07052">
        <ele>407.3312</ele>
        <time>2021-07-09T11:09:53Z</time>
      </trkpt>
      <trkpt lat="40.03938" lon="-7.07189">
        <ele>418.6371</ele>
        <time>2021-07-09T11:10:04Z</time>
      </trkpt>
      <trkpt lat="40.04034" lon="-7.07252">
        <ele>418.6601</ele>
        <time>2021-07-09T11:10:15Z</time>
      </trkpt>
      <trkpt lat="40.04112" lon="-7.07381">
        <ele>423.4859</ele>
        <time>2021-07-09T11:10:26Z</time>
      </trkpt>
      <trkpt lat="40.04226" lon="-7.07412">
        <ele>429.3857</ele>
        <time>2021-07-09T11:10:37Z</time>
      </trkpt>
      <trkpt lat="40.04191" lon="-7.07454">
        <ele>427.222</ele>
        <time>2021-07-09T11:10:48Z</time>
      </trkpt>
      <trkpt lat="40.04098" lon="-7.07559">
        <ele>428.5863</ele>
        <time>2021-07-09T11:10:59Z</time>
      </trkpt>
      <trkpt lat="40.04048" lon="-7.07666">
        <ele>427.1097</ele>
        <time>2021-07-09T11:11:10Z</time>
      </trkpt>
      <trkpt lat="40.0398" lon="-7.07749">
        <ele>425.5992</ele>
        <time>2021-07-09T11:11:21Z</time>
      </trkpt>
      <trkpt lat="40.03932" lon="-7.07846">
        <ele>424.1227</ele>
        <time>2021-07-09T11:11:32Z</time>
      </trkpt>
      <trkpt lat="40.03865" lon="-7.07934">
        <ele>421.2634</ele>
        <time>2021-07-09T11:11:43Z</time>
      </trkpt>
      <trkpt lat="40.03843" lon="-7.08041">
        <ele>409.7009</ele>
        <time>2021-07-09T11:11:54Z</time>
      </trkpt>
      <trkpt lat="40.03831" lon="-7.08122">
        <ele>405.4543</ele>
        <time>2021-07-09T11:12:05Z</time>
      </trkpt>
      <trkpt lat="40.0382" lon="-7.082">
        <ele>417.1954</ele>
        <time>2021-07-09T11:12:16Z</time>
      </trkpt>
      <trkpt lat="40.03795" lon="-7.0835">
        <ele>420.1138</ele>
        <time>2021-07-09T11:12:27Z</time>
      </trkpt>
      <trkpt lat="40.03744" lon="-7.08442">
        <ele>427.9843</ele>
        <time>2021-07-09T11:12:38Z</time>
      </trkpt>
      <trkpt lat="40.03669" lon="-7.08497">
        <ele>432.697</ele>
        <time>2021-07-09T11:12:49Z</time>
      </trkpt>
      <trkpt lat="40.03595" lon="-7.08531">
        <ele>438.0361</ele>
        <time>2021-07-09T11:13:00Z</time>
      </trkpt>
      <trkpt lat="40.03546" lon="-7.0862">
        <ele>440.7847</ele>
        <time>2021-07-09T11:13:11Z</time>
      </trkpt>
      <trkpt lat="40.03515" lon="-7.08705">
        <ele>442.833</ele>
        <time>2021-07-09T11:13:22Z</time>
      </trkpt>
      <trkpt lat="40.03495" lon="-7.08789">
        <ele>444.8854</ele>
        <time>2021-07-09T11:13:33Z</time>
      </trkpt>
      <trkpt lat="40.03533" lon="-7.08894">
        <ele>446.8512</ele>
        <time>2021-07-09T11:13:44Z</time>
      </trkpt>
      <trkpt lat="40.03571" lon="-7.09033">
        <ele>456.6796</ele>
        <time>2021-07-09T11:13:55Z</time>
      </trkpt>
      <trkpt lat="40.0358" lon="-7.09186">
        <ele>462.3898</ele>
        <time>2021-07-09T11:14:06Z</time>
      </trkpt>
      <trkpt lat="40.03634" lon="-7.09307">
        <ele>468.7119</ele>
        <time>2021-07-09T11:14:17Z</time>
      </trkpt>
      <trkpt lat="40.03713" lon="-7.09379">
        <ele>466.1446</ele>
        <time>2021-07-09T11:14:28Z</time>
      </trkpt>
      <trkpt lat="40.03806" lon="-7.09379">
        <ele>473.2117</ele>
        <time>2021-07-09T11:14:39Z</time>
      </trkpt>
      <trkpt lat="40.03881" lon="-7.09418">
        <ele>470.1143</ele>
        <time>2021-07-09T11:14:50Z</time>
      </trkpt>
      <trkpt lat="40.03952" lon="-7.09492">
        <ele>471.8083</ele>
        <time>2021-07-09T11:15:01Z</time>
      </trkpt>
      <trkpt lat="40.0397" lon="-7.09602">
        <ele>467.6471</ele>
        <time>2021-07-09T11:15:12Z</time>
      </trkpt>
      <trkpt lat="40.03957" lon="-7.09632">
        <ele>469.4196</ele>
        <time>2021-07-09T11:15:23Z</time>
      </trkpt>
      <trkpt lat="40.0391" lon="-7.09719">
        <ele>471.3634</ele>
        <time>2021-07-09T11:15:34Z</time>
      </trkpt>
      <trkpt lat="40.03899" lon="-7.09907">
        <ele>479.0051</ele>
        <time>2021-07-09T11:15:45Z</time>
      </trkpt>
      <trkpt lat="40.03876" lon="-7.10042">
        <ele>487.1406</ele>
        <time>2021-07-09T11:15:56Z</time>
      </trkpt>
      <trkpt lat="40.03799" lon="-7.10157">
        <ele>491.718</ele>
        <time>2021-07-09T11:16:07Z</time>
      </trkpt>
      <trkpt lat="40.03715" lon="-7.10254">
        <ele>489.3306</ele>
        <time>2021-07-09T11:16:18Z</time>
      </trkpt>
      <trkpt lat="40.03574" lon="-7.10349">
        <ele>499.5048</ele>
        <time>2021-07-09T11:16:29Z</time>
      </trkpt>
      <trkpt lat="40.03489" lon="-7.10471">
        <ele>506.3102</ele>
        <time>2021-07-09T11:16:40Z</time>
      </trkpt>
      <trkpt lat="40.03469" lon="-7.10542">
        <ele>505.2449</ele>
        <time>2021-07-09T11:16:51Z</time>
      </trkpt>
      <trkpt lat="40.03473" lon="-7.10555">
        <ele>501.2077</ele>
        <time>2021-07-09T11:17:02Z</time>
      </trkpt>
      <trkpt lat="40.03511" lon="-7.10638">
        <ele>498.952</ele>
        <time>2021-07-09T11:17:13Z</time>
      </trkpt>
      <trkpt lat="40.03546" lon="-7.10688">
        <ele>504.2202</ele>
        <time>2021-07-09T11:17:24Z</time>
      </trkpt>
      <trkpt lat="40.03576" lon="-7.10695">
        <ele>506.2648</ele>
        <time>2021-07-09T11:17:35Z</time>
      </trkpt>
      <trkpt lat="40.03583" lon="-7.10692">
        <ele>507.7195</ele>
        <time>2021-07-09T11:17:50Z</time>
      </trkpt>
      <trkpt lat="40.03636" lon="-7.10693">
        <ele>512.3709</ele>
        <time>2021-07-09T11:18:01Z</time>
      </trkpt>
      <trkpt lat="40.03685" lon="-7.10679">
        <ele>513.0345</ele>
        <time>2021-07-09T11:18:12Z</time>
      </trkpt>
      <trkpt lat="40.03724" lon="-7.10694">
        <ele>508.9185</ele>
        <time>2021-07-09T11:18:23Z</time>
      </trkpt>
      <trkpt lat="40.03774" lon="-7.10695">
        <ele>510.7712</ele>
        <time>2021-07-09T11:18:34Z</time>
      </trkpt>
      <trkpt lat="40.03813" lon="-7.10724">
        <ele>496.5522</ele>
        <time>2021-07-09T11:18:45Z</time>
      </trkpt>
      <trkpt lat="40.03816" lon="-7.10715">
        <ele>517.8695</ele>
        <time>2021-07-09T11:18:56Z</time>
      </trkpt>
      <trkpt lat="40.03815" lon="-7.10716">
        <ele>523.4681</ele>
        <time>2021-07-09T11:19:56Z</time>
      </trkpt>
      <trkpt lat="40.03818" lon="-7.10712">
        <ele>519.5664</ele>
        <time>2021-07-09T11:20:14Z</time>
      </trkpt>
      <trkpt lat="40.03815" lon="-7.10709">
        <ele>518.8721</ele>
        <time>2021-07-09T11:20:28Z</time>
      </trkpt>
      <trkpt lat="40.03818" lon="-7.10712">
        <ele>519.1868</ele>
        <time>2021-07-09T11:20:39Z</time>
      </trkpt>
      <trkpt lat="40.03816" lon="-7.10717">
        <ele>518.2567</ele>
        <time>2021-07-09T11:21:18Z</time>
      </trkpt>
      <trkpt lat="40.03832" lon="-7.10735">
        <ele>526.1513</ele>
        <time>2021-07-09T11:21:29Z</time>
      </trkpt>
      <trkpt lat="40.03829" lon="-7.10737">
        <ele>525.0845</ele>
        <time>2021-07-09T11:21:49Z</time>
      </trkpt>
      <trkpt lat="40.0383" lon="-7.10742">
        <ele>525.0466</ele>
        <time>2021-07-09T11:22:09Z</time>
      </trkpt>
      <trkpt lat="40.03826" lon="-7.10741">
        <ele>526.336</ele>
        <time>2021-07-09T11:22:37Z</time>
      </trkpt>
      <trkpt lat="40.03857" lon="-7.10748">
        <ele>530.0202</ele>
        <time>2021-07-09T11:22:48Z</time>
      </trkpt>
      <trkpt lat="40.03906" lon="-7.10746">
        <ele>539.187</ele>
        <time>2021-07-09T11:22:59Z</time>
      </trkpt>
      <trkpt lat="40.03951" lon="-7.10774">
        <ele>545.8153</ele>
        <time>2021-07-09T11:23:10Z</time>
      </trkpt>
      <trkpt lat="40.03989" lon="-7.10805">
        <ele>555.6567</ele>
        <time>2021-07-09T11:23:21Z</time>
      </trkpt>
      <trkpt lat="40.04022" lon="-7.10849">
        <ele>563.2698</ele>
        <time>2021-07-09T11:23:32Z</time>
      </trkpt>
      <trkpt lat="40.04052" lon="-7.10892">
        <ele>569.4569</ele>
        <time>2021-07-09T11:23:43Z</time>
      </trkpt>
      <trkpt lat="40.04059" lon="-7.10942">
        <ele>577.0844</ele>
        <time>2021-07-09T11:23:54Z</time>
      </trkpt>
      <trkpt lat="40.04061" lon="-7.10946">
        <ele>579.2432</ele>
        <time>2021-07-09T11:24:05Z</time>
      </trkpt>
      <trkpt lat="40.04049" lon="-7.1094">
        <ele>578.7378</ele>
        <time>2021-07-09T11:24:16Z</time>
      </trkpt>
      <trkpt lat="40.0405" lon="-7.10941">
        <ele>583.0967</ele>
        <time>2021-07-09T11:25:16Z</time>
      </trkpt>
      <trkpt lat="40.04057" lon="-7.11005">
        <ele>590.2554</ele>
        <time>2021-07-09T11:25:27Z</time>
      </trkpt>
      <trkpt lat="40.04055" lon="-7.11042">
        <ele>592.8025</ele>
        <time>2021-07-09T11:25:38Z</time>
      </trkpt>
      <trkpt lat="40.04047" lon="-7.11036">
        <ele>594.6198</ele>
        <time>2021-07-09T11:25:49Z</time>
      </trkpt>
      <trkpt lat="40.04047" lon="-7.1103">
        <ele>594.0765</ele>
        <time>2021-07-09T11:26:20Z</time>
      </trkpt>
      <trkpt lat="40.04051" lon="-7.11029">
        <ele>596.7697</ele>
        <time>2021-07-09T11:26:38Z</time>
      </trkpt>
      <trkpt lat="40.04052" lon="-7.11035">
        <ele>597.7228</ele>
        <time>2021-07-09T11:27:00Z</time>
      </trkpt>
      <trkpt lat="40.04049" lon="-7.11035">
        <ele>597.1022</ele>
        <time>2021-07-09T11:27:59Z</time>
      </trkpt>
      <trkpt lat="40.04027" lon="-7.11019">
        <ele>600.7872</ele>
        <time>2021-07-09T11:28:10Z</time>
      </trkpt>
      <trkpt lat="40.0402" lon="-7.11165">
        <ele>616.6186</ele>
        <time>2021-07-09T11:28:21Z</time>
      </trkpt>
      <trkpt lat="40.03993" lon="-7.11311">
        <ele>626.5225</ele>
        <time>2021-07-09T11:28:32Z</time>
      </trkpt>
      <trkpt lat="40.03999" lon="-7.11406">
        <ele>639.9398</ele>
        <time>2021-07-09T11:28:43Z</time>
      </trkpt>
      <trkpt lat="40.03996" lon="-7.11409">
        <ele>638.1043</ele>
        <time>2021-07-09T11:28:54Z</time>
      </trkpt>
      <trkpt lat="40.03944" lon="-7.11429">
        <ele>642.722</ele>
        <time>2021-07-09T11:29:05Z</time>
      </trkpt>
      <trkpt lat="40.03936" lon="-7.11385">
        <ele>647.7307</ele>
        <time>2021-07-09T11:29:16Z</time>
      </trkpt>
      <trkpt lat="40.03925" lon="-7.11391">
        <ele>653.5349</ele>
        <time>2021-07-09T11:29:27Z</time>
      </trkpt>
      <trkpt lat="40.03921" lon="-7.11406">
        <ele>657.1508</ele>
        <time>2021-07-09T11:29:38Z</time>
      </trkpt>
      <trkpt lat="40.03908" lon="-7.11489">
        <ele>665.4991</ele>
        <time>2021-07-09T11:29:49Z</time>
      </trkpt>
      <trkpt lat="40.03895" lon="-7.11507">
        <ele>666.2665</ele>
        <time>2021-07-09T11:30:00Z</time>
      </trkpt>
      <trkpt lat="40.03875" lon="-7.11494">
        <ele>672.0096</ele>
        <time>2021-07-09T11:30:11Z</time>
      </trkpt>
      <trkpt lat="40.03869" lon="-7.11515">
        <ele>666.356</ele>
        <time>2021-07-09T11:30:22Z</time>
      </trkpt>
      <trkpt lat="40.03853" lon="-7.11522">
        <ele>657.7786</ele>
        <time>2021-07-09T11:30:33Z</time>
      </trkpt>
      <trkpt lat="40.03838" lon="-7.11539">
        <ele>655.016</ele>
        <time>2021-07-09T11:30:44Z</time>
      </trkpt>
      <trkpt lat="40.03836" lon="-7.11544">
        <ele>651.0434</ele>
        <time>2021-07-09T11:30:55Z</time>
      </trkpt>
      <trkpt lat="40.03861" lon="-7.11562">
        <ele>645.3667</ele>
        <time>2021-07-09T11:31:06Z</time>
      </trkpt>
      <trkpt lat="40.03872" lon="-7.11589">
        <ele>640.6286</ele>
        <time>2021-07-09T11:31:17Z</time>
      </trkpt>
      <trkpt lat="40.03886" lon="-7.11597">
        <ele>643.4537</ele>
        <time>2021-07-09T11:31:28Z</time>
      </trkpt>
      <trkpt lat="40.03888" lon="-7.116">
        <ele>637.8293</ele>
        <time>2021-07-09T11:32:09Z</time>
      </trkpt>
      <trkpt lat="40.03899" lon="-7.11621">
        <ele>636.4511</ele>
        <time>2021-07-09T11:32:20Z</time>
      </trkpt>
      <trkpt lat="40.03882" lon="-7.11638">
        <ele>631.0983</ele>
        <time>2021-07-09T11:32:31Z</time>
      </trkpt>
      <trkpt lat="40.03882" lon="-7.11687">
        <ele>621.8109</ele>
        <time>2021-07-09T11:32:42Z</time>
      </trkpt>
      <trkpt lat="40.03883" lon="-7.11701">
        <ele>618.5493</ele>
        <time>2021-07-09T11:32:53Z</time>
      </trkpt>
      <trkpt lat="40.03884" lon="-7.11704">
        <ele>619.8266</ele>
        <time>2021-07-09T11:33:53Z</time>
      </trkpt>
      <trkpt lat="40.03881" lon="-7.11704">
        <ele>620.1637</ele>
        <time>2021-07-09T11:34:53Z</time>
      </trkpt>
      <trkpt lat="40.03883" lon="-7.11707">
        <ele>620.6843</ele>
        <time>2021-07-09T11:35:26Z</time>
      </trkpt>
      <trkpt lat="40.03878" lon="-7.11641">
        <ele>628.6197</ele>
        <time>2021-07-09T11:35:37Z</time>
      </trkpt>
      <trkpt lat="40.03912" lon="-7.11617">
        <ele>635.1983</ele>
        <time>2021-07-09T11:35:48Z</time>
      </trkpt>
      <trkpt lat="40.03972" lon="-7.11597">
        <ele>637.8006</ele>
        <time>2021-07-09T11:35:59Z</time>
      </trkpt>
      <trkpt lat="40.03954" lon="-7.11558">
        <ele>644.2656</ele>
        <time>2021-07-09T11:36:10Z</time>
      </trkpt>
      <trkpt lat="40.03947" lon="-7.11569">
        <ele>653.8172</ele>
        <time>2021-07-09T11:36:21Z</time>
      </trkpt>
      <trkpt lat="40.03943" lon="-7.11577">
        <ele>656.9662</ele>
        <time>2021-07-09T11:36:32Z</time>
      </trkpt>
      <trkpt lat="40.03942" lon="-7.11576">
        <ele>657.7313</ele>
        <time>2021-07-09T11:37:31Z</time>
      </trkpt>
      <trkpt lat="40.03904" lon="-7.11575">
        <ele>656.2243</ele>
        <time>2021-07-09T11:37:42Z</time>
      </trkpt>
      <trkpt lat="40.03902" lon="-7.11534">
        <ele>659.6739</ele>
        <time>2021-07-09T11:37:53Z</time>
      </trkpt>
      <trkpt lat="40.03876" lon="-7.11497">
        <ele>665.8789</ele>
        <time>2021-07-09T11:38:04Z</time>
      </trkpt>
      <trkpt lat="40.03837" lon="-7.11491">
        <ele>671.3115</ele>
        <time>2021-07-09T11:38:15Z</time>
      </trkpt>
      <trkpt lat="40.03838" lon="-7.11486">
        <ele>680.3428</ele>
        <time>2021-07-09T11:38:43Z</time>
      </trkpt>
      <trkpt lat="40.03835" lon="-7.11486">
        <ele>677.7977</ele>
        <time>2021-07-09T11:39:43Z</time>
      </trkpt>
      <trkpt lat="40.03835" lon="-7.11485">
        <ele>677.663</ele>
        <time>2021-07-09T11:40:43Z</time>
      </trkpt>
      <trkpt lat="40.03828" lon="-7.11473">
        <ele>680.7561</ele>
        <time>2021-07-09T11:40:54Z</time>
      </trkpt>
      <trkpt lat="40.038" lon="-7.11483">
        <ele>688.5327</ele>
        <time>2021-07-09T11:41:05Z</time>
      </trkpt>
      <trkpt lat="40.03782" lon="-7.11484">
        <ele>690.2657</ele>
        <time>2021-07-09T11:41:16Z</time>
      </trkpt>
      <trkpt lat="40.03779" lon="-7.11481">
        <ele>690.9057</ele>
        <time>2021-07-09T11:41:27Z</time>
      </trkpt>
      <trkpt lat="40.03776" lon="-7.11483">
        <ele>689.1287</ele>
        <time>2021-07-09T11:41:39Z</time>
      </trkpt>
      <trkpt lat="40.03776" lon="-7.11483">
        <ele>688.2576</ele>
        <time>2021-07-09T11:42:39Z</time>
      </trkpt>
      <trkpt lat="40.03781" lon="-7.11486">
        <ele>689.6776</ele>
        <time>2021-07-09T11:42:57Z</time>
      </trkpt>
      <trkpt lat="40.03777" lon="-7.11482">
        <ele>685.2961</ele>
        <time>2021-07-09T11:43:21Z</time>
      </trkpt>
      <trkpt lat="40.03774" lon="-7.11482">
        <ele>683.4989</ele>
        <time>2021-07-09T11:44:15Z</time>
      </trkpt>
      <trkpt lat="40.03774" lon="-7.11482">
        <ele>683.9802</ele>
        <time>2021-07-09T11:45:14Z</time>
      </trkpt>
      <trkpt lat="40.03776" lon="-7.11481">
        <ele>684.212</ele>
        <time>2021-07-09T11:46:14Z</time>
      </trkpt>
      <trkpt lat="40.03776" lon="-7.1148">
        <ele>684.0422</ele>
        <time>2021-07-09T11:47:14Z</time>
      </trkpt>
      <trkpt lat="40.03777" lon="-7.11479">
        <ele>684.5122</ele>
        <time>2021-07-09T11:48:14Z</time>
      </trkpt>
      <trkpt lat="40.03776" lon="-7.1148">
        <ele>683.8748</ele>
        <time>2021-07-09T11:49:13Z</time>
      </trkpt>
      <trkpt lat="40.03779" lon="-7.11484">
        <ele>684.839</ele>
        <time>2021-07-09T11:49:34Z</time>
      </trkpt>
      <trkpt lat="40.03778" lon="-7.11477">
        <ele>683.5713</ele>
        <time>2021-07-09T11:49:49Z</time>
      </trkpt>
      <trkpt lat="40.03778" lon="-7.11477">
        <ele>684.7034</ele>
        <time>2021-07-09T11:50:49Z</time>
      </trkpt>
      <trkpt lat="40.03778" lon="-7.11483">
        <ele>684.0107</ele>
        <time>2021-07-09T11:51:24Z</time>
      </trkpt>
      <trkpt lat="40.03774" lon="-7.11472">
        <ele>687.8246</ele>
        <time>2021-07-09T11:51:35Z</time>
      </trkpt>
      <trkpt lat="40.03784" lon="-7.1148">
        <ele>683.4145</ele>
        <time>2021-07-09T11:51:46Z</time>
      </trkpt>
      <trkpt lat="40.03802" lon="-7.11478">
        <ele>677.208</ele>
        <time>2021-07-09T11:51:57Z</time>
      </trkpt>
      <trkpt lat="40.03817" lon="-7.11471">
        <ele>677.7356</ele>
        <time>2021-07-09T11:52:08Z</time>
      </trkpt>
      <trkpt lat="40.0383" lon="-7.11479">
        <ele>672.5041</ele>
        <time>2021-07-09T11:52:19Z</time>
      </trkpt>
      <trkpt lat="40.03843" lon="-7.11487">
        <ele>668.6603</ele>
        <time>2021-07-09T11:52:30Z</time>
      </trkpt>
      <trkpt lat="40.0387" lon="-7.11492">
        <ele>664.6363</ele>
        <time>2021-07-09T11:52:41Z</time>
      </trkpt>
      <trkpt lat="40.03896" lon="-7.11513">
        <ele>659.7011</ele>
        <time>2021-07-09T11:52:52Z</time>
      </trkpt>
      <trkpt lat="40.03888" lon="-7.11542">
        <ele>656.9099</ele>
        <time>2021-07-09T11:53:03Z</time>
      </trkpt>
      <trkpt lat="40.03905" lon="-7.11579">
        <ele>649.5418</ele>
        <time>2021-07-09T11:53:14Z</time>
      </trkpt>
      <trkpt lat="40.03934" lon="-7.1158">
        <ele>648.3949</ele>
        <time>2021-07-09T11:53:25Z</time>
      </trkpt>
      <trkpt lat="40.03954" lon="-7.11559">
        <ele>645.0646</ele>
        <time>2021-07-09T11:53:36Z</time>
      </trkpt>
      <trkpt lat="40.03971" lon="-7.11595">
        <ele>636.9134</ele>
        <time>2021-07-09T11:53:47Z</time>
      </trkpt>
      <trkpt lat="40.03936" lon="-7.11612">
        <ele>633.5702</ele>
        <time>2021-07-09T11:53:58Z</time>
      </trkpt>
      <trkpt lat="40.0389" lon="-7.11628">
        <ele>628.6788</ele>
        <time>2021-07-09T11:54:09Z</time>
      </trkpt>
      <trkpt lat="40.03881" lon="-7.1169">
        <ele>614.2764</ele>
        <time>2021-07-09T11:54:20Z</time>
      </trkpt>
      <trkpt lat="40.03921" lon="-7.11674">
        <ele>612.9011</ele>
        <time>2021-07-09T11:54:31Z</time>
      </trkpt>
      <trkpt lat="40.04005" lon="-7.11647">
        <ele>607.766</ele>
        <time>2021-07-09T11:54:42Z</time>
      </trkpt>
      <trkpt lat="40.04086" lon="-7.11632">
        <ele>597.3482</ele>
        <time>2021-07-09T11:54:53Z</time>
      </trkpt>
      <trkpt lat="40.04144" lon="-7.1161">
        <ele>593.5936</ele>
        <time>2021-07-09T11:55:04Z</time>
      </trkpt>
      <trkpt lat="40.04179" lon="-7.11634">
        <ele>589.6225</ele>
        <time>2021-07-09T11:55:15Z</time>
      </trkpt>
      <trkpt lat="40.04202" lon="-7.11638">
        <ele>584.5201</ele>
        <time>2021-07-09T11:55:26Z</time>
      </trkpt>
      <trkpt lat="40.04208" lon="-7.11641">
        <ele>582.6867</ele>
        <time>2021-07-09T11:56:25Z</time>
      </trkpt>
      <trkpt lat="40.04232" lon="-7.11704">
        <ele>576.5546</ele>
        <time>2021-07-09T11:56:36Z</time>
      </trkpt>
      <trkpt lat="40.04228" lon="-7.11708">
        <ele>577.3769</ele>
        <time>2021-07-09T11:56:47Z</time>
      </trkpt>
      <trkpt lat="40.04225" lon="-7.11686">
        <ele>579.1627</ele>
        <time>2021-07-09T11:56:58Z</time>
      </trkpt>
      <trkpt lat="40.04168" lon="-7.11636">
        <ele>587.2935</ele>
        <time>2021-07-09T11:57:09Z</time>
      </trkpt>
      <trkpt lat="40.04104" lon="-7.1163">
        <ele>597.435</ele>
        <time>2021-07-09T11:57:20Z</time>
      </trkpt>
      <trkpt lat="40.04007" lon="-7.11645">
        <ele>607.4132</ele>
        <time>2021-07-09T11:57:31Z</time>
      </trkpt>
      <trkpt lat="40.03922" lon="-7.11675">
        <ele>610.7377</ele>
        <time>2021-07-09T11:57:42Z</time>
      </trkpt>
      <trkpt lat="40.03881" lon="-7.11688">
        <ele>614.6259</ele>
        <time>2021-07-09T11:57:53Z</time>
      </trkpt>
      <trkpt lat="40.03897" lon="-7.11628">
        <ele>626.6954</ele>
        <time>2021-07-09T11:58:04Z</time>
      </trkpt>
      <trkpt lat="40.0396" lon="-7.11605">
        <ele>633.4146</ele>
        <time>2021-07-09T11:58:15Z</time>
      </trkpt>
      <trkpt lat="40.0397" lon="-7.11576">
        <ele>639.7424</ele>
        <time>2021-07-09T11:58:26Z</time>
      </trkpt>
      <trkpt lat="40.03952" lon="-7.11552">
        <ele>644.7338</ele>
        <time>2021-07-09T11:58:37Z</time>
      </trkpt>
      <trkpt lat="40.03932" lon="-7.1152">
        <ele>647.6165</ele>
        <time>2021-07-09T11:58:48Z</time>
      </trkpt>
      <trkpt lat="40.0393" lon="-7.11478">
        <ele>650.0628</ele>
        <time>2021-07-09T11:58:59Z</time>
      </trkpt>
      <trkpt lat="40.03945" lon="-7.11427">
        <ele>645.3042</ele>
        <time>2021-07-09T11:59:10Z</time>
      </trkpt>
      <trkpt lat="40.03986" lon="-7.11413">
        <ele>634.6847</ele>
        <time>2021-07-09T11:59:21Z</time>
      </trkpt>
      <trkpt lat="40.04" lon="-7.11412">
        <ele>628.2328</ele>
        <time>2021-07-09T11:59:32Z</time>
      </trkpt>
      <trkpt lat="40.03997" lon="-7.11413">
        <ele>628.3079</ele>
        <time>2021-07-09T12:00:09Z</time>
      </trkpt>
      <trkpt lat="40.03994" lon="-7.11417">
        <ele>629.8254</ele>
        <time>2021-07-09T12:00:56Z</time>
      </trkpt>
      <trkpt lat="40.03989" lon="-7.1142">
        <ele>630.2423</ele>
        <time>2021-07-09T12:01:07Z</time>
      </trkpt>
      <trkpt lat="40.03991" lon="-7.11421">
        <ele>630.9319</ele>
        <time>2021-07-09T12:02:07Z</time>
      </trkpt>
      <trkpt lat="40.03988" lon="-7.11419">
        <ele>631.1589</ele>
        <time>2021-07-09T12:02:53Z</time>
      </trkpt>
      <trkpt lat="40.03987" lon="-7.11419">
        <ele>631.5546</ele>
        <time>2021-07-09T12:03:52Z</time>
      </trkpt>
      <trkpt lat="40.03988" lon="-7.11421">
        <ele>631.3417</ele>
        <time>2021-07-09T12:04:52Z</time>
      </trkpt>
      <trkpt lat="40.03989" lon="-7.1142">
        <ele>631.8075</ele>
        <time>2021-07-09T12:05:52Z</time>
      </trkpt>
      <trkpt lat="40.03989" lon="-7.11419">
        <ele>632.6111</ele>
        <time>2021-07-09T12:06:52Z</time>
      </trkpt>
      <trkpt lat="40.03989" lon="-7.11419">
        <ele>632.6111</ele>
        <time>2021-07-09T12:07:52Z</time>
      </trkpt>
      <trkpt lat="40.03988" lon="-7.11419">
        <ele>632.2628</ele>
        <time>2021-07-09T12:08:52Z</time>
      </trkpt>
      <trkpt lat="40.03988" lon="-7.1142">
        <ele>631.4229</ele>
        <time>2021-07-09T12:09:52Z</time>
      </trkpt>
      <trkpt lat="40.03989" lon="-7.1142">
        <ele>631.7435</ele>
        <time>2021-07-09T12:10:52Z</time>
      </trkpt>
      <trkpt lat="40.03989" lon="-7.1142">
        <ele>631.7435</ele>
        <time>2021-07-09T12:11:52Z</time>
      </trkpt>
      <trkpt lat="40.0399" lon="-7.11421">
        <ele>631.346</ele>
        <time>2021-07-09T12:12:52Z</time>
      </trkpt>
      <trkpt lat="40.03988" lon="-7.11418">
        <ele>631.5635</ele>
        <time>2021-07-09T12:13:52Z</time>
      </trkpt>
      <trkpt lat="40.03988" lon="-7.11418">
        <ele>631.5635</ele>
        <time>2021-07-09T12:14:52Z</time>
      </trkpt>
      <trkpt lat="40.03986" lon="-7.11421">
        <ele>632.1051</ele>
        <time>2021-07-09T12:15:52Z</time>
      </trkpt>
      <trkpt lat="40.03986" lon="-7.11421">
        <ele>632.1051</ele>
        <time>2021-07-09T12:16:52Z</time>
      </trkpt>
      <trkpt lat="40.03986" lon="-7.11421">
        <ele>632.1051</ele>
        <time>2021-07-09T12:17:52Z</time>
      </trkpt>
      <trkpt lat="40.03988" lon="-7.11424">
        <ele>631.8612</ele>
        <time>2021-07-09T12:18:52Z</time>
      </trkpt>
      <trkpt lat="40.03987" lon="-7.1142">
        <ele>631.7715</ele>
        <time>2021-07-09T12:19:52Z</time>
      </trkpt>
      <trkpt lat="40.03988" lon="-7.11418">
        <ele>632.4694</ele>
        <time>2021-07-09T12:20:51Z</time>
      </trkpt>
      <trkpt lat="40.0399" lon="-7.11423">
        <ele>629.1833</ele>
        <time>2021-07-09T12:21:09Z</time>
      </trkpt>
      <trkpt lat="40.03986" lon="-7.11424">
        <ele>631.3368</ele>
        <time>2021-07-09T12:22:05Z</time>
      </trkpt>
      <trkpt lat="40.03989" lon="-7.1142">
        <ele>631.6961</ele>
        <time>2021-07-09T12:22:19Z</time>
      </trkpt>
      <trkpt lat="40.03989" lon="-7.11421">
        <ele>630.2118</ele>
        <time>2021-07-09T12:23:18Z</time>
      </trkpt>
      <trkpt lat="40.03989" lon="-7.11421">
        <ele>631.0757</ele>
        <time>2021-07-09T12:24:17Z</time>
      </trkpt>
      <trkpt lat="40.03988" lon="-7.11422">
        <ele>629.9455</ele>
        <time>2021-07-09T12:25:16Z</time>
      </trkpt>
      <trkpt lat="40.03991" lon="-7.11425">
        <ele>631.9142</ele>
        <time>2021-07-09T12:25:48Z</time>
      </trkpt>
      <trkpt lat="40.03989" lon="-7.11424">
        <ele>631.4273</ele>
        <time>2021-07-09T12:26:46Z</time>
      </trkpt>
      <trkpt lat="40.03989" lon="-7.1142">
        <ele>630.1515</ele>
        <time>2021-07-09T12:27:44Z</time>
      </trkpt>
      <trkpt lat="40.03988" lon="-7.1142">
        <ele>630.6929</ele>
        <time>2021-07-09T12:28:43Z</time>
      </trkpt>
      <trkpt lat="40.03989" lon="-7.11421">
        <ele>631.0648</ele>
        <time>2021-07-09T12:29:42Z</time>
      </trkpt>
      <trkpt lat="40.0399" lon="-7.11421">
        <ele>630.7703</ele>
        <time>2021-07-09T12:30:41Z</time>
      </trkpt>
      <trkpt lat="40.0399" lon="-7.11421">
        <ele>630.7703</ele>
        <time>2021-07-09T12:31:40Z</time>
      </trkpt>
      <trkpt lat="40.03988" lon="-7.11421">
        <ele>631.1067</ele>
        <time>2021-07-09T12:32:39Z</time>
      </trkpt>
      <trkpt lat="40.03988" lon="-7.1142">
        <ele>631.2058</ele>
        <time>2021-07-09T12:33:38Z</time>
      </trkpt>
      <trkpt lat="40.03988" lon="-7.11419">
        <ele>631.6703</ele>
        <time>2021-07-09T12:34:37Z</time>
      </trkpt>
      <trkpt lat="40.03988" lon="-7.1142">
        <ele>631.5789</ele>
        <time>2021-07-09T12:35:36Z</time>
      </trkpt>
      <trkpt lat="40.03987" lon="-7.11419">
        <ele>631.7879</ele>
        <time>2021-07-09T12:36:35Z</time>
      </trkpt>
      <trkpt lat="40.03987" lon="-7.11419">
        <ele>631.7879</ele>
        <time>2021-07-09T12:37:34Z</time>
      </trkpt>
      <trkpt lat="40.03987" lon="-7.11419">
        <ele>632.3017</ele>
        <time>2021-07-09T12:38:33Z</time>
      </trkpt>
      <trkpt lat="40.03988" lon="-7.11421">
        <ele>631.3959</ele>
        <time>2021-07-09T12:39:31Z</time>
      </trkpt>
      <trkpt lat="40.04" lon="-7.11416">
        <ele>627.8469</ele>
        <time>2021-07-09T12:39:42Z</time>
      </trkpt>
      <trkpt lat="40.04" lon="-7.11413">
        <ele>627.9792</ele>
        <time>2021-07-09T12:40:41Z</time>
      </trkpt>
      <trkpt lat="40.04001" lon="-7.11413">
        <ele>628.7139</ele>
        <time>2021-07-09T12:41:40Z</time>
      </trkpt>
      <trkpt lat="40.04001" lon="-7.11414">
        <ele>628.5716</ele>
        <time>2021-07-09T12:42:39Z</time>
      </trkpt>
      <trkpt lat="40.03998" lon="-7.11412">
        <ele>629.7163</ele>
        <time>2021-07-09T12:43:37Z</time>
      </trkpt>
      <trkpt lat="40.03998" lon="-7.11407">
        <ele>628.8783</ele>
        <time>2021-07-09T12:43:48Z</time>
      </trkpt>
      <trkpt lat="40.03997" lon="-7.11399">
        <ele>628.7597</ele>
        <time>2021-07-09T12:44:10Z</time>
      </trkpt>
      <trkpt lat="40.03992" lon="-7.11334">
        <ele>626.8647</ele>
        <time>2021-07-09T12:44:21Z</time>
      </trkpt>
      <trkpt lat="40.04004" lon="-7.11275">
        <ele>621.7522</ele>
        <time>2021-07-09T12:44:32Z</time>
      </trkpt>
      <trkpt lat="40.0401" lon="-7.11243">
        <ele>616.5725</ele>
        <time>2021-07-09T12:44:43Z</time>
      </trkpt>
      <trkpt lat="40.04014" lon="-7.11242">
        <ele>616.3713</ele>
        <time>2021-07-09T12:45:08Z</time>
      </trkpt>
      <trkpt lat="40.04017" lon="-7.1115">
        <ele>609.5818</ele>
        <time>2021-07-09T12:45:19Z</time>
      </trkpt>
      <trkpt lat="40.0402" lon="-7.11056">
        <ele>601.468</ele>
        <time>2021-07-09T12:45:30Z</time>
      </trkpt>
      <trkpt lat="40.0403" lon="-7.10993">
        <ele>592.4812</ele>
        <time>2021-07-09T12:45:41Z</time>
      </trkpt>
      <trkpt lat="40.04048" lon="-7.11027">
        <ele>588.6243</ele>
        <time>2021-07-09T12:45:52Z</time>
      </trkpt>
      <trkpt lat="40.04056" lon="-7.11061">
        <ele>589.274</ele>
        <time>2021-07-09T12:46:03Z</time>
      </trkpt>
      <trkpt lat="40.04104" lon="-7.1123">
        <ele>573.7749</ele>
        <time>2021-07-09T12:46:14Z</time>
      </trkpt>
      <trkpt lat="40.04187" lon="-7.11278">
        <ele>560.1513</ele>
        <time>2021-07-09T12:46:25Z</time>
      </trkpt>
      <trkpt lat="40.04181" lon="-7.11424">
        <ele>558.8846</ele>
        <time>2021-07-09T12:46:36Z</time>
      </trkpt>
      <trkpt lat="40.04288" lon="-7.11523">
        <ele>548.0959</ele>
        <time>2021-07-09T12:46:47Z</time>
      </trkpt>
      <trkpt lat="40.04403" lon="-7.11521">
        <ele>530.6893</ele>
        <time>2021-07-09T12:46:58Z</time>
      </trkpt>
      <trkpt lat="40.04493" lon="-7.11591">
        <ele>526.0093</ele>
        <time>2021-07-09T12:47:09Z</time>
      </trkpt>
      <trkpt lat="40.0458" lon="-7.11588">
        <ele>525.4582</ele>
        <time>2021-07-09T12:47:20Z</time>
      </trkpt>
      <trkpt lat="40.04612" lon="-7.11638">
        <ele>528.6795</ele>
        <time>2021-07-09T12:47:31Z</time>
      </trkpt>
      <trkpt lat="40.04636" lon="-7.11724">
        <ele>534.4675</ele>
        <time>2021-07-09T12:47:42Z</time>
      </trkpt>
      <trkpt lat="40.04635" lon="-7.11772">
        <ele>546.2545</ele>
        <time>2021-07-09T12:47:53Z</time>
      </trkpt>
      <trkpt lat="40.04576" lon="-7.11812">
        <ele>560.0086</ele>
        <time>2021-07-09T12:48:04Z</time>
      </trkpt>
      <trkpt lat="40.04503" lon="-7.11833">
        <ele>559.6691</ele>
        <time>2021-07-09T12:48:15Z</time>
      </trkpt>
      <trkpt lat="40.04425" lon="-7.11761">
        <ele>562.22</ele>
        <time>2021-07-09T12:48:26Z</time>
      </trkpt>
      <trkpt lat="40.04356" lon="-7.11734">
        <ele>568.9777</ele>
        <time>2021-07-09T12:48:37Z</time>
      </trkpt>
      <trkpt lat="40.04344" lon="-7.11734">
        <ele>572.4604</ele>
        <time>2021-07-09T12:48:48Z</time>
      </trkpt>
      <trkpt lat="40.04341" lon="-7.11738">
        <ele>572.3244</ele>
        <time>2021-07-09T12:49:38Z</time>
      </trkpt>
      <trkpt lat="40.04263" lon="-7.11743">
        <ele>575.1139</ele>
        <time>2021-07-09T12:49:49Z</time>
      </trkpt>
      <trkpt lat="40.04207" lon="-7.11642">
        <ele>582.0266</ele>
        <time>2021-07-09T12:50:00Z</time>
      </trkpt>
      <trkpt lat="40.04137" lon="-7.11607">
        <ele>593.1744</ele>
        <time>2021-07-09T12:50:11Z</time>
      </trkpt>
      <trkpt lat="40.04087" lon="-7.11632">
        <ele>600.213</ele>
        <time>2021-07-09T12:50:22Z</time>
      </trkpt>
      <trkpt lat="40.04077" lon="-7.11637">
        <ele>599.4892</ele>
        <time>2021-07-09T12:50:33Z</time>
      </trkpt>
      <trkpt lat="40.04083" lon="-7.11641">
        <ele>598.1061</ele>
        <time>2021-07-09T12:50:45Z</time>
      </trkpt>
      <trkpt lat="40.04087" lon="-7.11657">
        <ele>593.7162</ele>
        <time>2021-07-09T12:50:56Z</time>
      </trkpt>
      <trkpt lat="40.04066" lon="-7.1168">
        <ele>589.236</ele>
        <time>2021-07-09T12:51:07Z</time>
      </trkpt>
      <trkpt lat="40.04076" lon="-7.1171">
        <ele>580.8619</ele>
        <time>2021-07-09T12:51:18Z</time>
      </trkpt>
      <trkpt lat="40.04051" lon="-7.11721">
        <ele>578.4441</ele>
        <time>2021-07-09T12:51:29Z</time>
      </trkpt>
      <trkpt lat="40.04029" lon="-7.11738">
        <ele>573.5731</ele>
        <time>2021-07-09T12:51:40Z</time>
      </trkpt>
      <trkpt lat="40.04019" lon="-7.11751">
        <ele>569.3644</ele>
        <time>2021-07-09T12:51:51Z</time>
      </trkpt>
      <trkpt lat="40.03997" lon="-7.11759">
        <ele>564.3143</ele>
        <time>2021-07-09T12:52:02Z</time>
      </trkpt>
      <trkpt lat="40.03969" lon="-7.1179">
        <ele>558.9405</ele>
        <time>2021-07-09T12:52:13Z</time>
      </trkpt>
      <trkpt lat="40.03935" lon="-7.11826">
        <ele>552.1865</ele>
        <time>2021-07-09T12:52:24Z</time>
      </trkpt>
      <trkpt lat="40.03911" lon="-7.11839">
        <ele>552.5688</ele>
        <time>2021-07-09T12:52:35Z</time>
      </trkpt>
      <trkpt lat="40.039" lon="-7.11844">
        <ele>552.2074</ele>
        <time>2021-07-09T12:52:46Z</time>
      </trkpt>
      <trkpt lat="40.03872" lon="-7.11863">
        <ele>547.9727</ele>
        <time>2021-07-09T12:52:57Z</time>
      </trkpt>
      <trkpt lat="40.03827" lon="-7.11895">
        <ele>538.335</ele>
        <time>2021-07-09T12:53:08Z</time>
      </trkpt>
      <trkpt lat="40.03797" lon="-7.11904">
        <ele>529.9933</ele>
        <time>2021-07-09T12:53:19Z</time>
      </trkpt>
      <trkpt lat="40.03774" lon="-7.1187">
        <ele>530.4757</ele>
        <time>2021-07-09T12:53:30Z</time>
      </trkpt>
      <trkpt lat="40.03735" lon="-7.11868">
        <ele>527.2944</ele>
        <time>2021-07-09T12:53:41Z</time>
      </trkpt>
      <trkpt lat="40.03697" lon="-7.11895">
        <ele>517.8295</ele>
        <time>2021-07-09T12:53:52Z</time>
      </trkpt>
      <trkpt lat="40.03672" lon="-7.11938">
        <ele>513.2997</ele>
        <time>2021-07-09T12:54:03Z</time>
      </trkpt>
      <trkpt lat="40.03663" lon="-7.11983">
        <ele>513.0308</ele>
        <time>2021-07-09T12:54:14Z</time>
      </trkpt>
      <trkpt lat="40.03635" lon="-7.12018">
        <ele>507.9433</ele>
        <time>2021-07-09T12:54:25Z</time>
      </trkpt>
      <trkpt lat="40.03586" lon="-7.12032">
        <ele>503.3283</ele>
        <time>2021-07-09T12:54:36Z</time>
      </trkpt>
      <trkpt lat="40.03566" lon="-7.12081">
        <ele>498.7626</ele>
        <time>2021-07-09T12:54:47Z</time>
      </trkpt>
      <trkpt lat="40.03557" lon="-7.12132">
        <ele>490.0962</ele>
        <time>2021-07-09T12:54:58Z</time>
      </trkpt>
      <trkpt lat="40.03535" lon="-7.1218">
        <ele>484.3027</ele>
        <time>2021-07-09T12:55:09Z</time>
      </trkpt>
      <trkpt lat="40.03489" lon="-7.12221">
        <ele>479.3079</ele>
        <time>2021-07-09T12:55:20Z</time>
      </trkpt>
      <trkpt lat="40.03445" lon="-7.12253">
        <ele>472.6381</ele>
        <time>2021-07-09T12:55:31Z</time>
      </trkpt>
      <trkpt lat="40.03399" lon="-7.12266">
        <ele>469.4551</ele>
        <time>2021-07-09T12:55:42Z</time>
      </trkpt>
      <trkpt lat="40.03347" lon="-7.12274">
        <ele>466.4397</ele>
        <time>2021-07-09T12:55:53Z</time>
      </trkpt>
      <trkpt lat="40.03311" lon="-7.12306">
        <ele>464.6544</ele>
        <time>2021-07-09T12:56:04Z</time>
      </trkpt>
      <trkpt lat="40.0329" lon="-7.12315">
        <ele>463.1658</ele>
        <time>2021-07-09T12:56:15Z</time>
      </trkpt>
      <trkpt lat="40.03286" lon="-7.12316">
        <ele>462.8347</ele>
        <time>2021-07-09T12:56:26Z</time>
      </trkpt>
      <trkpt lat="40.03284" lon="-7.12318">
        <ele>462.2817</ele>
        <time>2021-07-09T12:57:26Z</time>
      </trkpt>
      <trkpt lat="40.03284" lon="-7.12318">
        <ele>462.2817</ele>
        <time>2021-07-09T12:58:26Z</time>
      </trkpt>
      <trkpt lat="40.03279" lon="-7.12319">
        <ele>460.7691</ele>
        <time>2021-07-09T12:59:03Z</time>
      </trkpt>
      <trkpt lat="40.03253" lon="-7.12325">
        <ele>456.7848</ele>
        <time>2021-07-09T12:59:14Z</time>
      </trkpt>
      <trkpt lat="40.03224" lon="-7.12338">
        <ele>459.3343</ele>
        <time>2021-07-09T12:59:25Z</time>
      </trkpt>
      <trkpt lat="40.0322" lon="-7.1234">
        <ele>458.5431</ele>
        <time>2021-07-09T12:59:36Z</time>
      </trkpt>
      <trkpt lat="40.0322" lon="-7.12338">
        <ele>458.6097</ele>
        <time>2021-07-09T13:00:36Z</time>
      </trkpt>
      <trkpt lat="40.0322" lon="-7.12338">
        <ele>458.6097</ele>
        <time>2021-07-09T13:01:36Z</time>
      </trkpt>
      <trkpt lat="40.0322" lon="-7.12338">
        <ele>458.6097</ele>
        <time>2021-07-09T13:02:36Z</time>
      </trkpt>
      <trkpt lat="40.0322" lon="-7.12338">
        <ele>458.6097</ele>
        <time>2021-07-09T13:03:36Z</time>
      </trkpt>
      <trkpt lat="40.03219" lon="-7.12336">
        <ele>459.9619</ele>
        <time>2021-07-09T13:04:36Z</time>
      </trkpt>
      <trkpt lat="40.03225" lon="-7.12336">
        <ele>458.8401</ele>
        <time>2021-07-09T13:04:47Z</time>
      </trkpt>
      <trkpt lat="40.03251" lon="-7.12328">
        <ele>457.5542</ele>
        <time>2021-07-09T13:04:58Z</time>
      </trkpt>
      <trkpt lat="40.03251" lon="-7.12328">
        <ele>457.1918</ele>
        <time>2021-07-09T13:05:57Z</time>
      </trkpt>
      <trkpt lat="40.03251" lon="-7.12333">
        <ele>456.2251</ele>
        <time>2021-07-09T13:06:27Z</time>
      </trkpt>
      <trkpt lat="40.03251" lon="-7.12331">
        <ele>456.7487</ele>
        <time>2021-07-09T13:07:26Z</time>
      </trkpt>
      <trkpt lat="40.03251" lon="-7.12327">
        <ele>457.7705</ele>
        <time>2021-07-09T13:08:26Z</time>
      </trkpt>
      <trkpt lat="40.0325" lon="-7.12325">
        <ele>457.6181</ele>
        <time>2021-07-09T13:09:25Z</time>
      </trkpt>
      <trkpt lat="40.03251" lon="-7.12325">
        <ele>457.6169</ele>
        <time>2021-07-09T13:10:25Z</time>
      </trkpt>
      <trkpt lat="40.03251" lon="-7.12329">
        <ele>457.652</ele>
        <time>2021-07-09T13:11:25Z</time>
      </trkpt>
      <trkpt lat="40.03251" lon="-7.12329">
        <ele>457.5886</ele>
        <time>2021-07-09T13:12:25Z</time>
      </trkpt>
      <trkpt lat="40.03251" lon="-7.12329">
        <ele>457.5886</ele>
        <time>2021-07-09T13:13:25Z</time>
      </trkpt>
      <trkpt lat="40.03251" lon="-7.12329">
        <ele>457.5886</ele>
        <time>2021-07-09T13:14:25Z</time>
      </trkpt>
      <trkpt lat="40.03251" lon="-7.12329">
        <ele>457.5886</ele>
        <time>2021-07-09T13:15:25Z</time>
      </trkpt>
      <trkpt lat="40.03251" lon="-7.12329">
        <ele>457.5886</ele>
        <time>2021-07-09T13:16:25Z</time>
      </trkpt>
      <trkpt lat="40.0325" lon="-7.12329">
        <ele>457.7514</ele>
        <time>2021-07-09T13:17:25Z</time>
      </trkpt>
      <trkpt lat="40.0325" lon="-7.12328">
        <ele>457.6257</ele>
        <time>2021-07-09T13:18:24Z</time>
      </trkpt>
      <trkpt lat="40.0325" lon="-7.12328">
        <ele>457.6452</ele>
        <time>2021-07-09T13:19:24Z</time>
      </trkpt>
      <trkpt lat="40.03251" lon="-7.12327">
        <ele>457.7111</ele>
        <time>2021-07-09T13:20:23Z</time>
      </trkpt>
      <trkpt lat="40.03251" lon="-7.12327">
        <ele>457.4999</ele>
        <time>2021-07-09T13:21:23Z</time>
      </trkpt>
      <trkpt lat="40.03251" lon="-7.12326">
        <ele>457.6514</ele>
        <time>2021-07-09T13:22:22Z</time>
      </trkpt>
      <trkpt lat="40.03252" lon="-7.12329">
        <ele>457.9237</ele>
        <time>2021-07-09T13:23:22Z</time>
      </trkpt>
      <trkpt lat="40.03251" lon="-7.12328">
        <ele>457.8201</ele>
        <time>2021-07-09T13:24:21Z</time>
      </trkpt>
      <trkpt lat="40.03251" lon="-7.12329">
        <ele>457.7499</ele>
        <time>2021-07-09T13:25:21Z</time>
      </trkpt>
      <trkpt lat="40.03252" lon="-7.1233">
        <ele>457.9075</ele>
        <time>2021-07-09T13:26:20Z</time>
      </trkpt>
      <trkpt lat="40.03256" lon="-7.12327">
        <ele>457.623</ele>
        <time>2021-07-09T13:27:11Z</time>
      </trkpt>
      <trkpt lat="40.03263" lon="-7.12326">
        <ele>458.1153</ele>
        <time>2021-07-09T13:27:22Z</time>
      </trkpt>
      <trkpt lat="40.03261" lon="-7.12325">
        <ele>458.501</ele>
        <time>2021-07-09T13:28:21Z</time>
      </trkpt>
      <trkpt lat="40.03261" lon="-7.12326">
        <ele>458.6235</ele>
        <time>2021-07-09T13:29:21Z</time>
      </trkpt>
      <trkpt lat="40.03262" lon="-7.12324">
        <ele>458.6055</ele>
        <time>2021-07-09T13:30:21Z</time>
      </trkpt>
      <trkpt lat="40.03257" lon="-7.12328">
        <ele>458.2501</ele>
        <time>2021-07-09T13:30:32Z</time>
      </trkpt>
      <trkpt lat="40.03253" lon="-7.12326">
        <ele>458.3179</ele>
        <time>2021-07-09T13:31:08Z</time>
      </trkpt>
      <trkpt lat="40.03254" lon="-7.12325">
        <ele>458.1809</ele>
        <time>2021-07-09T13:32:08Z</time>
      </trkpt>
      <trkpt lat="40.03254" lon="-7.12323">
        <ele>458.2069</ele>
        <time>2021-07-09T13:33:07Z</time>
      </trkpt>
      <trkpt lat="40.03253" lon="-7.12324">
        <ele>458.4768</ele>
        <time>2021-07-09T13:34:07Z</time>
      </trkpt>
      <trkpt lat="40.03254" lon="-7.12323">
        <ele>458.2144</ele>
        <time>2021-07-09T13:35:07Z</time>
      </trkpt>
      <trkpt lat="40.03254" lon="-7.12323">
        <ele>458.2262</ele>
        <time>2021-07-09T13:36:07Z</time>
      </trkpt>
      <trkpt lat="40.03254" lon="-7.12323">
        <ele>458.2262</ele>
        <time>2021-07-09T13:37:07Z</time>
      </trkpt>
      <trkpt lat="40.03254" lon="-7.12323">
        <ele>458.2262</ele>
        <time>2021-07-09T13:38:07Z</time>
      </trkpt>
      <trkpt lat="40.03254" lon="-7.12323">
        <ele>458.2262</ele>
        <time>2021-07-09T13:39:07Z</time>
      </trkpt>
      <trkpt lat="40.03254" lon="-7.12323">
        <ele>458.2262</ele>
        <time>2021-07-09T13:40:07Z</time>
      </trkpt>
      <trkpt lat="40.03254" lon="-7.12323">
        <ele>458.2262</ele>
        <time>2021-07-09T13:41:07Z</time>
      </trkpt>
      <trkpt lat="40.03254" lon="-7.12323">
        <ele>458.2262</ele>
        <time>2021-07-09T13:42:07Z</time>
      </trkpt>
      <trkpt lat="40.03254" lon="-7.12323">
        <ele>458.2262</ele>
        <time>2021-07-09T13:43:06Z</time>
      </trkpt>
      <trkpt lat="40.03254" lon="-7.12323">
        <ele>458.2262</ele>
        <time>2021-07-09T13:44:06Z</time>
      </trkpt>
      <trkpt lat="40.03254" lon="-7.12323">
        <ele>458.2262</ele>
        <time>2021-07-09T13:45:05Z</time>
      </trkpt>
      <trkpt lat="40.03253" lon="-7.12328">
        <ele>459.0253</ele>
        <time>2021-07-09T13:51:14Z</time>
      </trkpt>
      <trkpt lat="40.03257" lon="-7.12319">
        <ele>458.2553</ele>
        <time>2021-07-09T13:51:25Z</time>
      </trkpt>
      <trkpt lat="40.03258" lon="-7.1232">
        <ele>458.4424</ele>
        <time>2021-07-09T13:52:25Z</time>
      </trkpt>
      <trkpt lat="40.03253" lon="-7.12323">
        <ele>457.9584</ele>
        <time>2021-07-09T13:53:18Z</time>
      </trkpt>
      <trkpt lat="40.03253" lon="-7.12322">
        <ele>457.81</ele>
        <time>2021-07-09T13:54:18Z</time>
      </trkpt>
      <trkpt lat="40.03254" lon="-7.1232">
        <ele>456.8661</ele>
        <time>2021-07-09T13:55:18Z</time>
      </trkpt>
      <trkpt lat="40.03253" lon="-7.12322">
        <ele>458.1396</ele>
        <time>2021-07-09T13:56:18Z</time>
      </trkpt>
      <trkpt lat="40.03253" lon="-7.12322">
        <ele>458.1396</ele>
        <time>2021-07-09T13:57:18Z</time>
      </trkpt>
      <trkpt lat="40.03249" lon="-7.12325">
        <ele>457.9624</ele>
        <time>2021-07-09T13:57:41Z</time>
      </trkpt>
      <trkpt lat="40.03194" lon="-7.12338">
        <ele>459.6146</ele>
        <time>2021-07-09T13:57:52Z</time>
      </trkpt>
      <trkpt lat="40.03153" lon="-7.12349">
        <ele>459.4884</ele>
        <time>2021-07-09T13:58:03Z</time>
      </trkpt>
      <trkpt lat="40.03134" lon="-7.12358">
        <ele>457.4077</ele>
        <time>2021-07-09T13:58:14Z</time>
      </trkpt>
      <trkpt lat="40.03112" lon="-7.1238">
        <ele>453.9297</ele>
        <time>2021-07-09T13:58:25Z</time>
      </trkpt>
      <trkpt lat="40.03079" lon="-7.12387">
        <ele>452.8375</ele>
        <time>2021-07-09T13:58:36Z</time>
      </trkpt>
      <trkpt lat="40.03025" lon="-7.12333">
        <ele>457.4327</ele>
        <time>2021-07-09T13:58:47Z</time>
      </trkpt>
      <trkpt lat="40.02961" lon="-7.12349">
        <ele>444.5834</ele>
        <time>2021-07-09T13:58:58Z</time>
      </trkpt>
      <trkpt lat="40.02942" lon="-7.12399">
        <ele>444.815</ele>
        <time>2021-07-09T13:59:09Z</time>
      </trkpt>
      <trkpt lat="40.0293" lon="-7.12465">
        <ele>444.2471</ele>
        <time>2021-07-09T13:59:20Z</time>
      </trkpt>
      <trkpt lat="40.02837" lon="-7.1252">
        <ele>437.8658</ele>
        <time>2021-07-09T13:59:31Z</time>
      </trkpt>
      <trkpt lat="40.02784" lon="-7.12521">
        <ele>433.8112</ele>
        <time>2021-07-09T13:59:42Z</time>
      </trkpt>
      <trkpt lat="40.02783" lon="-7.12523">
        <ele>434.4583</ele>
        <time>2021-07-09T14:00:41Z</time>
      </trkpt>
      <trkpt lat="40.02786" lon="-7.12525">
        <ele>434.9756</ele>
        <time>2021-07-09T14:01:41Z</time>
      </trkpt>
      <trkpt lat="40.02785" lon="-7.12524">
        <ele>434.7649</ele>
        <time>2021-07-09T14:02:40Z</time>
      </trkpt>
      <trkpt lat="40.02784" lon="-7.12523">
        <ele>434.608</ele>
        <time>2021-07-09T14:03:40Z</time>
      </trkpt>
      <trkpt lat="40.02784" lon="-7.12524">
        <ele>434.4948</ele>
        <time>2021-07-09T14:04:39Z</time>
      </trkpt>
      <trkpt lat="40.02773" lon="-7.12523">
        <ele>433.8805</ele>
        <time>2021-07-09T14:04:50Z</time>
      </trkpt>
      <trkpt lat="40.02717" lon="-7.12521">
        <ele>426.6158</ele>
        <time>2021-07-09T14:05:01Z</time>
      </trkpt>
      <trkpt lat="40.02634" lon="-7.12554">
        <ele>416.2607</ele>
        <time>2021-07-09T14:05:12Z</time>
      </trkpt>
      <trkpt lat="40.0259" lon="-7.12598">
        <ele>410.7221</ele>
        <time>2021-07-09T14:05:23Z</time>
      </trkpt>
      <trkpt lat="40.02529" lon="-7.12649">
        <ele>407.1832</ele>
        <time>2021-07-09T14:05:34Z</time>
      </trkpt>
      <trkpt lat="40.0247" lon="-7.1275">
        <ele>411.5444</ele>
        <time>2021-07-09T14:05:45Z</time>
      </trkpt>
      <trkpt lat="40.02412" lon="-7.12842">
        <ele>400.5531</ele>
        <time>2021-07-09T14:05:56Z</time>
      </trkpt>
      <trkpt lat="40.02401" lon="-7.12936">
        <ele>388.6458</ele>
        <time>2021-07-09T14:06:07Z</time>
      </trkpt>
      <trkpt lat="40.02341" lon="-7.12972">
        <ele>389.4917</ele>
        <time>2021-07-09T14:06:18Z</time>
      </trkpt>
      <trkpt lat="40.02288" lon="-7.12906">
        <ele>392.1491</ele>
        <time>2021-07-09T14:06:29Z</time>
      </trkpt>
      <trkpt lat="40.02171" lon="-7.12918">
        <ele>398.4229</ele>
        <time>2021-07-09T14:06:40Z</time>
      </trkpt>
      <trkpt lat="40.02081" lon="-7.12898">
        <ele>395.3193</ele>
        <time>2021-07-09T14:06:51Z</time>
      </trkpt>
      <trkpt lat="40.01998" lon="-7.12826">
        <ele>399.3046</ele>
        <time>2021-07-09T14:07:02Z</time>
      </trkpt>
      <trkpt lat="40.01905" lon="-7.12786">
        <ele>399.0768</ele>
        <time>2021-07-09T14:07:13Z</time>
      </trkpt>
      <trkpt lat="40.01774" lon="-7.12943">
        <ele>404.1828</ele>
        <time>2021-07-09T14:07:24Z</time>
      </trkpt>
      <trkpt lat="40.01641" lon="-7.13143">
        <ele>411.0033</ele>
        <time>2021-07-09T14:07:35Z</time>
      </trkpt>
      <trkpt lat="40.01515" lon="-7.13396">
        <ele>418.9463</ele>
        <time>2021-07-09T14:07:46Z</time>
      </trkpt>
      <trkpt lat="40.0138" lon="-7.13548">
        <ele>421.3923</ele>
        <time>2021-07-09T14:07:57Z</time>
      </trkpt>
      <trkpt lat="40.01393" lon="-7.13711">
        <ele>417.2638</ele>
        <time>2021-07-09T14:08:08Z</time>
      </trkpt>
      <trkpt lat="40.01425" lon="-7.13937">
        <ele>403.5574</ele>
        <time>2021-07-09T14:08:19Z</time>
      </trkpt>
      <trkpt lat="40.01518" lon="-7.14074">
        <ele>394.7145</ele>
        <time>2021-07-09T14:08:30Z</time>
      </trkpt>
      <trkpt lat="40.01438" lon="-7.1431">
        <ele>387.7586</ele>
        <time>2021-07-09T14:08:41Z</time>
      </trkpt>
      <trkpt lat="40.01279" lon="-7.1446">
        <ele>375.758</ele>
        <time>2021-07-09T14:08:52Z</time>
      </trkpt>
      <trkpt lat="40.01121" lon="-7.14608">
        <ele>362.8634</ele>
        <time>2021-07-09T14:09:03Z</time>
      </trkpt>
      <trkpt lat="40.0095" lon="-7.14673">
        <ele>341.3422</ele>
        <time>2021-07-09T14:09:14Z</time>
      </trkpt>
      <trkpt lat="40.00817" lon="-7.14882">
        <ele>329.4606</ele>
        <time>2021-07-09T14:09:25Z</time>
      </trkpt>
      <trkpt lat="40.00686" lon="-7.15086">
        <ele>322.1683</ele>
        <time>2021-07-09T14:09:36Z</time>
      </trkpt>
      <trkpt lat="40.0057" lon="-7.15271">
        <ele>316.0593</ele>
        <time>2021-07-09T14:09:47Z</time>
      </trkpt>
      <trkpt lat="40.00525" lon="-7.15423">
        <ele>303.8928</ele>
        <time>2021-07-09T14:09:58Z</time>
      </trkpt>
      <trkpt lat="40.00439" lon="-7.15385">
        <ele>301.7392</ele>
        <time>2021-07-09T14:10:09Z</time>
      </trkpt>
      <trkpt lat="40.00221" lon="-7.15266">
        <ele>289.8959</ele>
        <time>2021-07-09T14:10:20Z</time>
      </trkpt>
      <trkpt lat="40.0003" lon="-7.15162">
        <ele>277.4037</ele>
        <time>2021-07-09T14:10:31Z</time>
      </trkpt>
      <trkpt lat="39.99888" lon="-7.15084">
        <ele>272.3244</ele>
        <time>2021-07-09T14:10:42Z</time>
      </trkpt>
      <trkpt lat="39.99889" lon="-7.14932">
        <ele>276.039</ele>
        <time>2021-07-09T14:10:53Z</time>
      </trkpt>
      <trkpt lat="39.99874" lon="-7.14672">
        <ele>277.1078</ele>
        <time>2021-07-09T14:11:04Z</time>
      </trkpt>
      <trkpt lat="39.99853" lon="-7.14552">
        <ele>283.064</ele>
        <time>2021-07-09T14:11:15Z</time>
      </trkpt>
      <trkpt lat="39.9983" lon="-7.14452">
        <ele>282.2255</ele>
        <time>2021-07-09T14:11:26Z</time>
      </trkpt>
      <trkpt lat="39.99825" lon="-7.14447">
        <ele>282.1655</ele>
        <time>2021-07-09T14:11:49Z</time>
      </trkpt>
      <trkpt lat="39.99745" lon="-7.14442">
        <ele>280.654</ele>
        <time>2021-07-09T14:12:00Z</time>
      </trkpt>
      <trkpt lat="39.99702" lon="-7.14431">
        <ele>284.6467</ele>
        <time>2021-07-09T14:12:11Z</time>
      </trkpt>
      <trkpt lat="39.99676" lon="-7.14394">
        <ele>281.1449</ele>
        <time>2021-07-09T14:12:22Z</time>
      </trkpt>
      <trkpt lat="39.99648" lon="-7.14371">
        <ele>281.2278</ele>
        <time>2021-07-09T14:12:33Z</time>
      </trkpt>
      <trkpt lat="39.99651" lon="-7.14299">
        <ele>279.0065</ele>
        <time>2021-07-09T14:12:44Z</time>
      </trkpt>
      <trkpt lat="39.9964" lon="-7.14281">
        <ele>277.0482</ele>
        <time>2021-07-09T14:12:55Z</time>
      </trkpt>
      <trkpt lat="39.99581" lon="-7.14269">
        <ele>268.5155</ele>
        <time>2021-07-09T14:13:06Z</time>
      </trkpt>
      <trkpt lat="39.99548" lon="-7.14232">
        <ele>268.5452</ele>
        <time>2021-07-09T14:13:17Z</time>
      </trkpt>
      <trkpt lat="39.99553" lon="-7.14167">
        <ele>264.5045</ele>
        <time>2021-07-09T14:13:28Z</time>
      </trkpt>
      <trkpt lat="39.99536" lon="-7.14087">
        <ele>269.8955</ele>
        <time>2021-07-09T14:13:39Z</time>
      </trkpt>
      <trkpt lat="39.99598" lon="-7.13987">
        <ele>275.195</ele>
        <time>2021-07-09T14:13:50Z</time>
      </trkpt>
      <trkpt lat="39.9963" lon="-7.13884">
        <ele>271.4233</ele>
        <time>2021-07-09T14:14:01Z</time>
      </trkpt>
      <trkpt lat="39.99673" lon="-7.13749">
        <ele>272.9554</ele>
        <time>2021-07-09T14:14:12Z</time>
      </trkpt>
      <trkpt lat="39.9975" lon="-7.13606">
        <ele>278.1699</ele>
        <time>2021-07-09T14:14:23Z</time>
      </trkpt>
      <trkpt lat="39.99789" lon="-7.13482">
        <ele>290.0844</ele>
        <time>2021-07-09T14:14:34Z</time>
      </trkpt>
      <trkpt lat="39.99782" lon="-7.13365">
        <ele>300.2008</ele>
        <time>2021-07-09T14:14:45Z</time>
      </trkpt>
      <trkpt lat="39.99799" lon="-7.13225">
        <ele>303.5368</ele>
        <time>2021-07-09T14:14:56Z</time>
      </trkpt>
      <trkpt lat="39.99797" lon="-7.13078">
        <ele>324.8665</ele>
        <time>2021-07-09T14:15:07Z</time>
      </trkpt>
      <trkpt lat="39.99799" lon="-7.12955">
        <ele>324.7069</ele>
        <time>2021-07-09T14:15:18Z</time>
      </trkpt>
      <trkpt lat="39.99861" lon="-7.12786">
        <ele>316.7484</ele>
        <time>2021-07-09T14:15:29Z</time>
      </trkpt>
      <trkpt lat="39.99922" lon="-7.12637">
        <ele>326.467</ele>
        <time>2021-07-09T14:15:40Z</time>
      </trkpt>
      <trkpt lat="39.9994" lon="-7.1247">
        <ele>324.1259</ele>
        <time>2021-07-09T14:15:51Z</time>
      </trkpt>
      <trkpt lat="39.99973" lon="-7.12323">
        <ele>317.5879</ele>
        <time>2021-07-09T14:16:02Z</time>
      </trkpt>
      <trkpt lat="39.9995" lon="-7.12196">
        <ele>316.2844</ele>
        <time>2021-07-09T14:16:13Z</time>
      </trkpt>
      <trkpt lat="39.99935" lon="-7.12036">
        <ele>309.8962</ele>
        <time>2021-07-09T14:16:24Z</time>
      </trkpt>
      <trkpt lat="39.99898" lon="-7.11891">
        <ele>311.9781</ele>
        <time>2021-07-09T14:16:35Z</time>
      </trkpt>
      <trkpt lat="39.99841" lon="-7.11848">
        <ele>314.0976</ele>
        <time>2021-07-09T14:16:46Z</time>
      </trkpt>
      <trkpt lat="39.99755" lon="-7.11831">
        <ele>319.1959</ele>
        <time>2021-07-09T14:16:57Z</time>
      </trkpt>
      <trkpt lat="39.99665" lon="-7.11902">
        <ele>326.4357</ele>
        <time>2021-07-09T14:17:08Z</time>
      </trkpt>
      <trkpt lat="39.99619" lon="-7.11967">
        <ele>339.167</ele>
        <time>2021-07-09T14:17:19Z</time>
      </trkpt>
      <trkpt lat="39.99556" lon="-7.11924">
        <ele>348.5715</ele>
        <time>2021-07-09T14:17:30Z</time>
      </trkpt>
      <trkpt lat="39.995" lon="-7.11852">
        <ele>349.2846</ele>
        <time>2021-07-09T14:17:41Z</time>
      </trkpt>
      <trkpt lat="39.99445" lon="-7.11767">
        <ele>349.6368</ele>
        <time>2021-07-09T14:17:52Z</time>
      </trkpt>
      <trkpt lat="39.99409" lon="-7.11636">
        <ele>331.003</ele>
        <time>2021-07-09T14:18:03Z</time>
      </trkpt>
      <trkpt lat="39.9935" lon="-7.11559">
        <ele>343.9856</ele>
        <time>2021-07-09T14:18:14Z</time>
      </trkpt>
      <trkpt lat="39.99268" lon="-7.11456">
        <ele>349.5067</ele>
        <time>2021-07-09T14:18:25Z</time>
      </trkpt>
      <trkpt lat="39.99215" lon="-7.11347">
        <ele>347.5092</ele>
        <time>2021-07-09T14:18:36Z</time>
      </trkpt>
      <trkpt lat="39.99142" lon="-7.11263">
        <ele>337.1206</ele>
        <time>2021-07-09T14:18:47Z</time>
      </trkpt>
      <trkpt lat="39.99095" lon="-7.11197">
        <ele>343.9562</ele>
        <time>2021-07-09T14:18:58Z</time>
      </trkpt>
      <trkpt lat="39.99076" lon="-7.11123">
        <ele>360.7805</ele>
        <time>2021-07-09T14:19:09Z</time>
      </trkpt>
      <trkpt lat="39.99039" lon="-7.1103">
        <ele>363.0272</ele>
        <time>2021-07-09T14:19:20Z</time>
      </trkpt>
      <trkpt lat="39.9899" lon="-7.10933">
        <ele>356.1194</ele>
        <time>2021-07-09T14:19:31Z</time>
      </trkpt>
      <trkpt lat="39.98948" lon="-7.10839">
        <ele>366.909</ele>
        <time>2021-07-09T14:19:42Z</time>
      </trkpt>
      <trkpt lat="39.98871" lon="-7.10791">
        <ele>376.2543</ele>
        <time>2021-07-09T14:19:53Z</time>
      </trkpt>
      <trkpt lat="39.98794" lon="-7.10711">
        <ele>383.537</ele>
        <time>2021-07-09T14:20:04Z</time>
      </trkpt>
      <trkpt lat="39.98724" lon="-7.10718">
        <ele>378.8969</ele>
        <time>2021-07-09T14:20:15Z</time>
      </trkpt>
      <trkpt lat="39.98613" lon="-7.10844">
        <ele>392.2741</ele>
        <time>2021-07-09T14:20:26Z</time>
      </trkpt>
      <trkpt lat="39.98506" lon="-7.10888">
        <ele>396.1814</ele>
        <time>2021-07-09T14:20:37Z</time>
      </trkpt>
      <trkpt lat="39.98394" lon="-7.10946">
        <ele>397.1878</ele>
        <time>2021-07-09T14:20:48Z</time>
      </trkpt>
      <trkpt lat="39.98329" lon="-7.1099">
        <ele>404.5835</ele>
        <time>2021-07-09T14:20:59Z</time>
      </trkpt>
      <trkpt lat="39.9827" lon="-7.10982">
        <ele>408.8248</ele>
        <time>2021-07-09T14:21:10Z</time>
      </trkpt>
      <trkpt lat="39.98186" lon="-7.10955">
        <ele>407.2964</ele>
        <time>2021-07-09T14:21:21Z</time>
      </trkpt>
      <trkpt lat="39.98096" lon="-7.1099">
        <ele>401.9618</ele>
        <time>2021-07-09T14:21:32Z</time>
      </trkpt>
      <trkpt lat="39.98001" lon="-7.10947">
        <ele>406.3815</ele>
        <time>2021-07-09T14:21:43Z</time>
      </trkpt>
      <trkpt lat="39.97897" lon="-7.1094">
        <ele>408.3197</ele>
        <time>2021-07-09T14:21:54Z</time>
      </trkpt>
      <trkpt lat="39.9789" lon="-7.10981">
        <ele>410.7117</ele>
        <time>2021-07-09T14:22:05Z</time>
      </trkpt>
      <trkpt lat="39.97887" lon="-7.10978">
        <ele>412.4457</ele>
        <time>2021-07-09T14:22:31Z</time>
      </trkpt>
      <trkpt lat="39.97869" lon="-7.10919">
        <ele>411.4465</ele>
        <time>2021-07-09T14:22:42Z</time>
      </trkpt>
      <trkpt lat="39.97857" lon="-7.10835">
        <ele>408.0299</ele>
        <time>2021-07-09T14:22:53Z</time>
      </trkpt>
      <trkpt lat="39.97937" lon="-7.10746">
        <ele>411.9487</ele>
        <time>2021-07-09T14:23:04Z</time>
      </trkpt>
      <trkpt lat="39.9798" lon="-7.10646">
        <ele>404.7879</ele>
        <time>2021-07-09T14:23:15Z</time>
      </trkpt>
      <trkpt lat="39.97958" lon="-7.10538">
        <ele>395.607</ele>
        <time>2021-07-09T14:23:26Z</time>
      </trkpt>
      <trkpt lat="39.98008" lon="-7.10462">
        <ele>396.1358</ele>
        <time>2021-07-09T14:23:37Z</time>
      </trkpt>
      <trkpt lat="39.98065" lon="-7.10395">
        <ele>393.0519</ele>
        <time>2021-07-09T14:23:48Z</time>
      </trkpt>
      <trkpt lat="39.98124" lon="-7.10351">
        <ele>398.7836</ele>
        <time>2021-07-09T14:23:59Z</time>
      </trkpt>
      <trkpt lat="39.9814" lon="-7.10326">
        <ele>393.2395</ele>
        <time>2021-07-09T14:24:10Z</time>
      </trkpt>
      <trkpt lat="39.98127" lon="-7.10232">
        <ele>392.755</ele>
        <time>2021-07-09T14:24:21Z</time>
      </trkpt>
      <trkpt lat="39.98068" lon="-7.10207">
        <ele>386.8147</ele>
        <time>2021-07-09T14:24:32Z</time>
      </trkpt>
      <trkpt lat="39.97984" lon="-7.10178">
        <ele>379.3695</ele>
        <time>2021-07-09T14:24:43Z</time>
      </trkpt>
      <trkpt lat="39.97941" lon="-7.10124">
        <ele>384.3252</ele>
        <time>2021-07-09T14:24:54Z</time>
      </trkpt>
      <trkpt lat="39.97854" lon="-7.10158">
        <ele>392.4648</ele>
        <time>2021-07-09T14:25:05Z</time>
      </trkpt>
      <trkpt lat="39.97782" lon="-7.10173">
        <ele>401.6303</ele>
        <time>2021-07-09T14:25:16Z</time>
      </trkpt>
      <trkpt lat="39.97741" lon="-7.10065">
        <ele>402.3681</ele>
        <time>2021-07-09T14:25:27Z</time>
      </trkpt>
      <trkpt lat="39.9768" lon="-7.10014">
        <ele>398.4304</ele>
        <time>2021-07-09T14:25:38Z</time>
      </trkpt>
      <trkpt lat="39.97629" lon="-7.09978">
        <ele>390.8436</ele>
        <time>2021-07-09T14:25:49Z</time>
      </trkpt>
      <trkpt lat="39.97555" lon="-7.10053">
        <ele>399.9095</ele>
        <time>2021-07-09T14:26:00Z</time>
      </trkpt>
      <trkpt lat="39.97474" lon="-7.10083">
        <ele>403.1465</ele>
        <time>2021-07-09T14:26:11Z</time>
      </trkpt>
      <trkpt lat="39.97395" lon="-7.10082">
        <ele>391.7092</ele>
        <time>2021-07-09T14:26:22Z</time>
      </trkpt>
      <trkpt lat="39.97299" lon="-7.10101">
        <ele>402.7787</ele>
        <time>2021-07-09T14:26:33Z</time>
      </trkpt>
      <trkpt lat="39.97214" lon="-7.10097">
        <ele>408.302</ele>
        <time>2021-07-09T14:26:44Z</time>
      </trkpt>
      <trkpt lat="39.97102" lon="-7.10106">
        <ele>421.1847</ele>
        <time>2021-07-09T14:26:55Z</time>
      </trkpt>
      <trkpt lat="39.96987" lon="-7.10145">
        <ele>422.1945</ele>
        <time>2021-07-09T14:27:06Z</time>
      </trkpt>
      <trkpt lat="39.96885" lon="-7.10173">
        <ele>424.0902</ele>
        <time>2021-07-09T14:27:17Z</time>
      </trkpt>
      <trkpt lat="39.96814" lon="-7.10137">
        <ele>430.2904</ele>
        <time>2021-07-09T14:27:28Z</time>
      </trkpt>
      <trkpt lat="39.9675" lon="-7.10056">
        <ele>425.8646</ele>
        <time>2021-07-09T14:27:39Z</time>
      </trkpt>
      <trkpt lat="39.96701" lon="-7.09926">
        <ele>424.4252</ele>
        <time>2021-07-09T14:27:50Z</time>
      </trkpt>
      <trkpt lat="39.96609" lon="-7.09908">
        <ele>422.4259</ele>
        <time>2021-07-09T14:28:01Z</time>
      </trkpt>
      <trkpt lat="39.96549" lon="-7.09812">
        <ele>424.4707</ele>
        <time>2021-07-09T14:28:12Z</time>
      </trkpt>
      <trkpt lat="39.96474" lon="-7.0973">
        <ele>428.4905</ele>
        <time>2021-07-09T14:28:23Z</time>
      </trkpt>
      <trkpt lat="39.96434" lon="-7.09732">
        <ele>429.8375</ele>
        <time>2021-07-09T14:28:34Z</time>
      </trkpt>
      <trkpt lat="39.96368" lon="-7.09814">
        <ele>426.487</ele>
        <time>2021-07-09T14:28:45Z</time>
      </trkpt>
      <trkpt lat="39.96316" lon="-7.09917">
        <ele>422.9977</ele>
        <time>2021-07-09T14:28:56Z</time>
      </trkpt>
      <trkpt lat="39.96237" lon="-7.10034">
        <ele>424.3794</ele>
        <time>2021-07-09T14:29:07Z</time>
      </trkpt>
      <trkpt lat="39.96156" lon="-7.10188">
        <ele>423.1346</ele>
        <time>2021-07-09T14:29:18Z</time>
      </trkpt>
      <trkpt lat="39.96077" lon="-7.10309">
        <ele>422.1629</ele>
        <time>2021-07-09T14:29:29Z</time>
      </trkpt>
      <trkpt lat="39.96021" lon="-7.1042">
        <ele>423.0799</ele>
        <time>2021-07-09T14:29:40Z</time>
      </trkpt>
      <trkpt lat="39.95918" lon="-7.1047">
        <ele>419.8946</ele>
        <time>2021-07-09T14:29:51Z</time>
      </trkpt>
      <trkpt lat="39.95809" lon="-7.10416">
        <ele>418.1055</ele>
        <time>2021-07-09T14:30:02Z</time>
      </trkpt>
      <trkpt lat="39.95707" lon="-7.10349">
        <ele>416.1174</ele>
        <time>2021-07-09T14:30:13Z</time>
      </trkpt>
      <trkpt lat="39.95592" lon="-7.10405">
        <ele>416.1065</ele>
        <time>2021-07-09T14:30:24Z</time>
      </trkpt>
      <trkpt lat="39.95448" lon="-7.10478">
        <ele>416.898</ele>
        <time>2021-07-09T14:30:35Z</time>
      </trkpt>
      <trkpt lat="39.95371" lon="-7.10534">
        <ele>406.0213</ele>
        <time>2021-07-09T14:30:46Z</time>
      </trkpt>
      <trkpt lat="39.95328" lon="-7.10535">
        <ele>409.3118</ele>
        <time>2021-07-09T14:30:57Z</time>
      </trkpt>
      <trkpt lat="39.95334" lon="-7.10536">
        <ele>409.357</ele>
        <time>2021-07-09T14:31:16Z</time>
      </trkpt>
      <trkpt lat="39.95357" lon="-7.10559">
        <ele>411.8634</ele>
        <time>2021-07-09T14:31:27Z</time>
      </trkpt>
      <trkpt lat="39.95289" lon="-7.10607">
        <ele>410.701</ele>
        <time>2021-07-09T14:31:38Z</time>
      </trkpt>
      <trkpt lat="39.95204" lon="-7.10628">
        <ele>408.2518</ele>
        <time>2021-07-09T14:31:49Z</time>
      </trkpt>
      <trkpt lat="39.95121" lon="-7.10657">
        <ele>407.2489</ele>
        <time>2021-07-09T14:32:00Z</time>
      </trkpt>
      <trkpt lat="39.95054" lon="-7.10708">
        <ele>409.5871</ele>
        <time>2021-07-09T14:32:11Z</time>
      </trkpt>
      <trkpt lat="39.9497" lon="-7.10769">
        <ele>365.92</ele>
        <time>2021-07-09T14:32:22Z</time>
      </trkpt>
      <trkpt lat="39.94921" lon="-7.10819">
        <ele>401.082</ele>
        <time>2021-07-09T14:32:33Z</time>
      </trkpt>
      <trkpt lat="39.94875" lon="-7.10776">
        <ele>399.8226</ele>
        <time>2021-07-09T14:32:44Z</time>
      </trkpt>
      <trkpt lat="39.94793" lon="-7.10827">
        <ele>398.4687</ele>
        <time>2021-07-09T14:32:55Z</time>
      </trkpt>
      <trkpt lat="39.94737" lon="-7.10935">
        <ele>399.582</ele>
        <time>2021-07-09T14:33:06Z</time>
      </trkpt>
      <trkpt lat="39.94667" lon="-7.11037">
        <ele>400.5198</ele>
        <time>2021-07-09T14:33:17Z</time>
      </trkpt>
      <trkpt lat="39.94581" lon="-7.11129">
        <ele>397.3115</ele>
        <time>2021-07-09T14:33:28Z</time>
      </trkpt>
      <trkpt lat="39.94483" lon="-7.11161">
        <ele>397.4032</ele>
        <time>2021-07-09T14:33:39Z</time>
      </trkpt>
      <trkpt lat="39.94431" lon="-7.11282">
        <ele>394.3738</ele>
        <time>2021-07-09T14:33:50Z</time>
      </trkpt>
      <trkpt lat="39.94401" lon="-7.11411">
        <ele>390.8758</ele>
        <time>2021-07-09T14:34:01Z</time>
      </trkpt>
      <trkpt lat="39.9439" lon="-7.11527">
        <ele>389.4105</ele>
        <time>2021-07-09T14:34:12Z</time>
      </trkpt>
      <trkpt lat="39.94384" lon="-7.11663">
        <ele>386.0006</ele>
        <time>2021-07-09T14:34:23Z</time>
      </trkpt>
      <trkpt lat="39.94382" lon="-7.11795">
        <ele>389.5594</ele>
        <time>2021-07-09T14:34:34Z</time>
      </trkpt>
      <trkpt lat="39.94432" lon="-7.11876">
        <ele>391.3201</ele>
        <time>2021-07-09T14:34:45Z</time>
      </trkpt>
      <trkpt lat="39.94436" lon="-7.11882">
        <ele>390.4863</ele>
        <time>2021-07-09T14:34:56Z</time>
      </trkpt>
      <trkpt lat="39.94438" lon="-7.11882">
        <ele>390.1747</ele>
        <time>2021-07-09T14:35:56Z</time>
      </trkpt>
      <trkpt lat="39.94441" lon="-7.11883">
        <ele>390.2661</ele>
        <time>2021-07-09T14:36:44Z</time>
      </trkpt>
      <trkpt lat="39.94459" lon="-7.11913">
        <ele>389.171</ele>
        <time>2021-07-09T14:36:55Z</time>
      </trkpt>
      <trkpt lat="39.94547" lon="-7.12062">
        <ele>381.9635</ele>
        <time>2021-07-09T14:37:06Z</time>
      </trkpt>
      <trkpt lat="39.94563" lon="-7.12195">
        <ele>384.4911</ele>
        <time>2021-07-09T14:37:17Z</time>
      </trkpt>
      <trkpt lat="39.94588" lon="-7.12365">
        <ele>374.7405</ele>
        <time>2021-07-09T14:37:28Z</time>
      </trkpt>
      <trkpt lat="39.94623" lon="-7.12499">
        <ele>366.2306</ele>
        <time>2021-07-09T14:37:39Z</time>
      </trkpt>
      <trkpt lat="39.94616" lon="-7.12566">
        <ele>359.9456</ele>
        <time>2021-07-09T14:37:50Z</time>
      </trkpt>
      <trkpt lat="39.94537" lon="-7.12696">
        <ele>351.9293</ele>
        <time>2021-07-09T14:38:01Z</time>
      </trkpt>
      <trkpt lat="39.94431" lon="-7.1284">
        <ele>352.1531</ele>
        <time>2021-07-09T14:38:12Z</time>
      </trkpt>
      <trkpt lat="39.94354" lon="-7.12956">
        <ele>350.1469</ele>
        <time>2021-07-09T14:38:23Z</time>
      </trkpt>
      <trkpt lat="39.94242" lon="-7.13041">
        <ele>356.5226</ele>
        <time>2021-07-09T14:38:34Z</time>
      </trkpt>
      <trkpt lat="39.94116" lon="-7.13071">
        <ele>353.1562</ele>
        <time>2021-07-09T14:38:45Z</time>
      </trkpt>
      <trkpt lat="39.94016" lon="-7.13175">
        <ele>349.6205</ele>
        <time>2021-07-09T14:38:56Z</time>
      </trkpt>
      <trkpt lat="39.93909" lon="-7.13255">
        <ele>346.2229</ele>
        <time>2021-07-09T14:39:07Z</time>
      </trkpt>
      <trkpt lat="39.93784" lon="-7.13324">
        <ele>351.8081</ele>
        <time>2021-07-09T14:39:18Z</time>
      </trkpt>
      <trkpt lat="39.93651" lon="-7.13388">
        <ele>352.4066</ele>
        <time>2021-07-09T14:39:29Z</time>
      </trkpt>
      <trkpt lat="39.93531" lon="-7.1346">
        <ele>348.8814</ele>
        <time>2021-07-09T14:39:40Z</time>
      </trkpt>
      <trkpt lat="39.93419" lon="-7.13551">
        <ele>353.0525</ele>
        <time>2021-07-09T14:39:51Z</time>
      </trkpt>
      <trkpt lat="39.93285" lon="-7.13623">
        <ele>352.419</ele>
        <time>2021-07-09T14:40:02Z</time>
      </trkpt>
      <trkpt lat="39.93156" lon="-7.13702">
        <ele>348.3776</ele>
        <time>2021-07-09T14:40:13Z</time>
      </trkpt>
      <trkpt lat="39.93017" lon="-7.13718">
        <ele>347.4417</ele>
        <time>2021-07-09T14:40:24Z</time>
      </trkpt>
      <trkpt lat="39.92892" lon="-7.13756">
        <ele>343.0208</ele>
        <time>2021-07-09T14:40:35Z</time>
      </trkpt>
      <trkpt lat="39.92801" lon="-7.13801">
        <ele>340.3435</ele>
        <time>2021-07-09T14:40:46Z</time>
      </trkpt>
      <trkpt lat="39.9274" lon="-7.1394">
        <ele>339.7684</ele>
        <time>2021-07-09T14:40:57Z</time>
      </trkpt>
      <trkpt lat="39.92631" lon="-7.14036">
        <ele>336.6372</ele>
        <time>2021-07-09T14:41:08Z</time>
      </trkpt>
      <trkpt lat="39.92528" lon="-7.14112">
        <ele>341.0521</ele>
        <time>2021-07-09T14:41:19Z</time>
      </trkpt>
      <trkpt lat="39.92407" lon="-7.14116">
        <ele>343.6984</ele>
        <time>2021-07-09T14:41:30Z</time>
      </trkpt>
      <trkpt lat="39.92275" lon="-7.14101">
        <ele>345.1755</ele>
        <time>2021-07-09T14:41:41Z</time>
      </trkpt>
      <trkpt lat="39.92132" lon="-7.14147">
        <ele>348.119</ele>
        <time>2021-07-09T14:41:52Z</time>
      </trkpt>
      <trkpt lat="39.92005" lon="-7.14208">
        <ele>346.0892</ele>
        <time>2021-07-09T14:42:03Z</time>
      </trkpt>
      <trkpt lat="39.91891" lon="-7.14324">
        <ele>338.8225</ele>
        <time>2021-07-09T14:42:14Z</time>
      </trkpt>
      <trkpt lat="39.91806" lon="-7.14471">
        <ele>339.8719</ele>
        <time>2021-07-09T14:42:25Z</time>
      </trkpt>
      <trkpt lat="39.91723" lon="-7.14615">
        <ele>340.3006</ele>
        <time>2021-07-09T14:42:36Z</time>
      </trkpt>
      <trkpt lat="39.91662" lon="-7.14763">
        <ele>328.8535</ele>
        <time>2021-07-09T14:42:47Z</time>
      </trkpt>
      <trkpt lat="39.91562" lon="-7.14859">
        <ele>333.8852</ele>
        <time>2021-07-09T14:42:58Z</time>
      </trkpt>
      <trkpt lat="39.91437" lon="-7.14906">
        <ele>334.3662</ele>
        <time>2021-07-09T14:43:09Z</time>
      </trkpt>
      <trkpt lat="39.91338" lon="-7.14999">
        <ele>336.7765</ele>
        <time>2021-07-09T14:43:20Z</time>
      </trkpt>
      <trkpt lat="39.91264" lon="-7.15134">
        <ele>342.2952</ele>
        <time>2021-07-09T14:43:31Z</time>
      </trkpt>
      <trkpt lat="39.912" lon="-7.15281">
        <ele>339.3609</ele>
        <time>2021-07-09T14:43:42Z</time>
      </trkpt>
      <trkpt lat="39.91163" lon="-7.15471">
        <ele>325.9687</ele>
        <time>2021-07-09T14:43:53Z</time>
      </trkpt>
      <trkpt lat="39.9113" lon="-7.15679">
        <ele>325.3255</ele>
        <time>2021-07-09T14:44:04Z</time>
      </trkpt>
      <trkpt lat="39.91106" lon="-7.15867">
        <ele>321.6584</ele>
        <time>2021-07-09T14:44:15Z</time>
      </trkpt>
      <trkpt lat="39.91091" lon="-7.16045">
        <ele>333.7993</ele>
        <time>2021-07-09T14:44:26Z</time>
      </trkpt>
      <trkpt lat="39.91027" lon="-7.16176">
        <ele>342.2884</ele>
        <time>2021-07-09T14:44:37Z</time>
      </trkpt>
      <trkpt lat="39.91001" lon="-7.16338">
        <ele>338.5374</ele>
        <time>2021-07-09T14:44:48Z</time>
      </trkpt>
      <trkpt lat="39.90981" lon="-7.16508">
        <ele>325.4728</ele>
        <time>2021-07-09T14:44:59Z</time>
      </trkpt>
      <trkpt lat="39.90916" lon="-7.16661">
        <ele>324.0805</ele>
        <time>2021-07-09T14:45:10Z</time>
      </trkpt>
      <trkpt lat="39.9089" lon="-7.16795">
        <ele>324.4393</ele>
        <time>2021-07-09T14:45:21Z</time>
      </trkpt>
      <trkpt lat="39.90858" lon="-7.16932">
        <ele>322.6048</ele>
        <time>2021-07-09T14:45:32Z</time>
      </trkpt>
      <trkpt lat="39.90891" lon="-7.17046">
        <ele>332.8944</ele>
        <time>2021-07-09T14:45:43Z</time>
      </trkpt>
      <trkpt lat="39.90843" lon="-7.17189">
        <ele>334.6719</ele>
        <time>2021-07-09T14:45:54Z</time>
      </trkpt>
      <trkpt lat="39.90871" lon="-7.17313">
        <ele>332.8371</ele>
        <time>2021-07-09T14:46:05Z</time>
      </trkpt>
      <trkpt lat="39.91004" lon="-7.17424">
        <ele>322.1215</ele>
        <time>2021-07-09T14:46:16Z</time>
      </trkpt>
      <trkpt lat="39.91161" lon="-7.17546">
        <ele>318.6158</ele>
        <time>2021-07-09T14:46:27Z</time>
      </trkpt>
      <trkpt lat="39.91326" lon="-7.17654">
        <ele>316.4642</ele>
        <time>2021-07-09T14:46:38Z</time>
      </trkpt>
      <trkpt lat="39.91508" lon="-7.17749">
        <ele>313.1864</ele>
        <time>2021-07-09T14:46:49Z</time>
      </trkpt>
      <trkpt lat="39.91686" lon="-7.17848">
        <ele>307.9978</ele>
        <time>2021-07-09T14:47:00Z</time>
      </trkpt>
      <trkpt lat="39.91868" lon="-7.17919">
        <ele>292.7293</ele>
        <time>2021-07-09T14:47:11Z</time>
      </trkpt>
      <trkpt lat="39.92097" lon="-7.18009">
        <ele>301.3369</ele>
        <time>2021-07-09T14:47:22Z</time>
      </trkpt>
      <trkpt lat="39.92235" lon="-7.18144">
        <ele>305.0219</ele>
        <time>2021-07-09T14:47:33Z</time>
      </trkpt>
      <trkpt lat="39.92362" lon="-7.18295">
        <ele>302.832</ele>
        <time>2021-07-09T14:47:44Z</time>
      </trkpt>
      <trkpt lat="39.92528" lon="-7.18375">
        <ele>311.1345</ele>
        <time>2021-07-09T14:47:55Z</time>
      </trkpt>
      <trkpt lat="39.92615" lon="-7.18508">
        <ele>303.7633</ele>
        <time>2021-07-09T14:48:06Z</time>
      </trkpt>
      <trkpt lat="39.92673" lon="-7.18516">
        <ele>296.4826</ele>
        <time>2021-07-09T14:48:17Z</time>
      </trkpt>
      <trkpt lat="39.92705" lon="-7.18637">
        <ele>284.3178</ele>
        <time>2021-07-09T14:48:28Z</time>
      </trkpt>
      <trkpt lat="39.92693" lon="-7.18891">
        <ele>265.4819</ele>
        <time>2021-07-09T14:48:39Z</time>
      </trkpt>
      <trkpt lat="39.92764" lon="-7.1913">
        <ele>252.9343</ele>
        <time>2021-07-09T14:48:50Z</time>
      </trkpt>
      <trkpt lat="39.92776" lon="-7.19326">
        <ele>246.2049</ele>
        <time>2021-07-09T14:49:01Z</time>
      </trkpt>
      <trkpt lat="39.92884" lon="-7.19383">
        <ele>242.4771</ele>
        <time>2021-07-09T14:49:12Z</time>
      </trkpt>
      <trkpt lat="39.93084" lon="-7.19355">
        <ele>246.2531</ele>
        <time>2021-07-09T14:49:23Z</time>
      </trkpt>
      <trkpt lat="39.93271" lon="-7.19228">
        <ele>257.0539</ele>
        <time>2021-07-09T14:49:34Z</time>
      </trkpt>
      <trkpt lat="39.93498" lon="-7.19118">
        <ele>268.5646</ele>
        <time>2021-07-09T14:49:45Z</time>
      </trkpt>
      <trkpt lat="39.93716" lon="-7.1909">
        <ele>281.1868</ele>
        <time>2021-07-09T14:49:56Z</time>
      </trkpt>
      <trkpt lat="39.93923" lon="-7.19132">
        <ele>295.1729</ele>
        <time>2021-07-09T14:50:07Z</time>
      </trkpt>
      <trkpt lat="39.94009" lon="-7.1917">
        <ele>290.4286</ele>
        <time>2021-07-09T14:50:18Z</time>
      </trkpt>
      <trkpt lat="39.94142" lon="-7.19215">
        <ele>285.2395</ele>
        <time>2021-07-09T14:50:29Z</time>
      </trkpt>
      <trkpt lat="39.94292" lon="-7.19286">
        <ele>277.238</ele>
        <time>2021-07-09T14:50:40Z</time>
      </trkpt>
      <trkpt lat="39.94428" lon="-7.19393">
        <ele>273.9629</ele>
        <time>2021-07-09T14:50:51Z</time>
      </trkpt>
      <trkpt lat="39.94546" lon="-7.1954">
        <ele>265.869</ele>
        <time>2021-07-09T14:51:02Z</time>
      </trkpt>
      <trkpt lat="39.9468" lon="-7.19628">
        <ele>262.5133</ele>
        <time>2021-07-09T14:51:13Z</time>
      </trkpt>
      <trkpt lat="39.94704" lon="-7.19769">
        <ele>263.7367</ele>
        <time>2021-07-09T14:51:24Z</time>
      </trkpt>
      <trkpt lat="39.94563" lon="-7.19895">
        <ele>267.9752</ele>
        <time>2021-07-09T14:51:35Z</time>
      </trkpt>
      <trkpt lat="39.94447" lon="-7.20007">
        <ele>268.5446</ele>
        <time>2021-07-09T14:51:46Z</time>
      </trkpt>
      <trkpt lat="39.9437" lon="-7.20121">
        <ele>263.3906</ele>
        <time>2021-07-09T14:51:57Z</time>
      </trkpt>
      <trkpt lat="39.94266" lon="-7.20073">
        <ele>276.7313</ele>
        <time>2021-07-09T14:52:08Z</time>
      </trkpt>
      <trkpt lat="39.9425" lon="-7.20003">
        <ele>279.5372</ele>
        <time>2021-07-09T14:52:19Z</time>
      </trkpt>
      <trkpt lat="39.94243" lon="-7.20018">
        <ele>278.9221</ele>
        <time>2021-07-09T14:52:30Z</time>
      </trkpt>
      <trkpt lat="39.94282" lon="-7.20092">
        <ele>273.1864</ele>
        <time>2021-07-09T14:52:41Z</time>
      </trkpt>
      <trkpt lat="39.9424" lon="-7.20099">
        <ele>265.3761</ele>
        <time>2021-07-09T14:52:52Z</time>
      </trkpt>
      <trkpt lat="39.94178" lon="-7.20041">
        <ele>260.7152</ele>
        <time>2021-07-09T14:53:03Z</time>
      </trkpt>
      <trkpt lat="39.94114" lon="-7.20025">
        <ele>253.6975</ele>
        <time>2021-07-09T14:53:14Z</time>
      </trkpt>
      <trkpt lat="39.94114" lon="-7.20081">
        <ele>246.1156</ele>
        <time>2021-07-09T14:53:25Z</time>
      </trkpt>
      <trkpt lat="39.94159" lon="-7.20164">
        <ele>237.2439</ele>
        <time>2021-07-09T14:53:36Z</time>
      </trkpt>
      <trkpt lat="39.94221" lon="-7.20225">
        <ele>238.3394</ele>
        <time>2021-07-09T14:53:47Z</time>
      </trkpt>
      <trkpt lat="39.94313" lon="-7.202">
        <ele>238.0682</ele>
        <time>2021-07-09T14:53:58Z</time>
      </trkpt>
      <trkpt lat="39.94366" lon="-7.2017">
        <ele>238.562</ele>
        <time>2021-07-09T14:54:09Z</time>
      </trkpt>
      <trkpt lat="39.94364" lon="-7.20175">
        <ele>241.7481</ele>
        <time>2021-07-09T14:54:20Z</time>
      </trkpt>
      <trkpt lat="39.94306" lon="-7.2021">
        <ele>238.8226</ele>
        <time>2021-07-09T14:54:31Z</time>
      </trkpt>
      <trkpt lat="39.94291" lon="-7.20217">
        <ele>238.2887</ele>
        <time>2021-07-09T14:54:42Z</time>
      </trkpt>
      <trkpt lat="39.94297" lon="-7.20217">
        <ele>235.5887</ele>
        <time>2021-07-09T14:54:53Z</time>
      </trkpt>
      <trkpt lat="39.94303" lon="-7.20217">
        <ele>233.6706</ele>
        <time>2021-07-09T14:55:23Z</time>
      </trkpt>
      <trkpt lat="39.94309" lon="-7.20213">
        <ele>231.3905</ele>
        <time>2021-07-09T14:55:34Z</time>
      </trkpt>
      <trkpt lat="39.94305" lon="-7.20212">
        <ele>229.4479</ele>
        <time>2021-07-09T14:55:45Z</time>
      </trkpt>
      <trkpt lat="39.94311" lon="-7.20211">
        <ele>227.6522</ele>
        <time>2021-07-09T14:56:13Z</time>
      </trkpt>
      <trkpt lat="39.94353" lon="-7.20203">
        <ele>213.2522</ele>
        <time>2021-07-09T14:56:24Z</time>
      </trkpt>
      <trkpt lat="39.94378" lon="-7.20202">
        <ele>216.0896</ele>
        <time>2021-07-09T14:56:35Z</time>
      </trkpt>
      <trkpt lat="39.94383" lon="-7.20225">
        <ele>218.6864</ele>
        <time>2021-07-09T14:56:46Z</time>
      </trkpt>
      <trkpt lat="39.94379" lon="-7.20224">
        <ele>222.3743</ele>
        <time>2021-07-09T14:57:03Z</time>
      </trkpt>
      <trkpt lat="39.94376" lon="-7.2023">
        <ele>222.968</ele>
        <time>2021-07-09T14:57:15Z</time>
      </trkpt>
      <trkpt lat="39.94338" lon="-7.2027">
        <ele>216.3076</ele>
        <time>2021-07-09T14:57:26Z</time>
      </trkpt>
      <trkpt lat="39.94289" lon="-7.20322">
        <ele>214.8747</ele>
        <time>2021-07-09T14:57:37Z</time>
      </trkpt>
      <trkpt lat="39.94223" lon="-7.20355">
        <ele>232.6999</ele>
        <time>2021-07-09T14:57:48Z</time>
      </trkpt>
      <trkpt lat="39.94179" lon="-7.20379">
        <ele>236.2873</ele>
        <time>2021-07-09T14:57:59Z</time>
      </trkpt>
      <trkpt lat="39.94155" lon="-7.20443">
        <ele>242.8928</ele>
        <time>2021-07-09T14:58:10Z</time>
      </trkpt>
      <trkpt lat="39.94101" lon="-7.20438">
        <ele>252.4464</ele>
        <time>2021-07-09T14:58:21Z</time>
      </trkpt>
      <trkpt lat="39.94023" lon="-7.20414">
        <ele>255.1301</ele>
        <time>2021-07-09T14:58:32Z</time>
      </trkpt>
      <trkpt lat="39.93974" lon="-7.2043">
        <ele>250.7165</ele>
        <time>2021-07-09T14:58:43Z</time>
      </trkpt>
      <trkpt lat="39.93944" lon="-7.20489">
        <ele>248.9641</ele>
        <time>2021-07-09T14:58:54Z</time>
      </trkpt>
      <trkpt lat="39.93886" lon="-7.2053">
        <ele>250.9056</ele>
        <time>2021-07-09T14:59:05Z</time>
      </trkpt>
      <trkpt lat="39.93839" lon="-7.20579">
        <ele>255.0536</ele>
        <time>2021-07-09T14:59:16Z</time>
      </trkpt>
      <trkpt lat="39.93795" lon="-7.20608">
        <ele>260.224</ele>
        <time>2021-07-09T14:59:27Z</time>
      </trkpt>
      <trkpt lat="39.93823" lon="-7.20663">
        <ele>265.1844</ele>
        <time>2021-07-09T14:59:38Z</time>
      </trkpt>
      <trkpt lat="39.93877" lon="-7.20715">
        <ele>272.9882</ele>
        <time>2021-07-09T14:59:49Z</time>
      </trkpt>
      <trkpt lat="39.93895" lon="-7.20807">
        <ele>278.0894</ele>
        <time>2021-07-09T15:00:00Z</time>
      </trkpt>
      <trkpt lat="39.93933" lon="-7.20883">
        <ele>282.2205</ele>
        <time>2021-07-09T15:00:11Z</time>
      </trkpt>
      <trkpt lat="39.9389" lon="-7.20951">
        <ele>285.7584</ele>
        <time>2021-07-09T15:00:22Z</time>
      </trkpt>
      <trkpt lat="39.93821" lon="-7.20959">
        <ele>287.4957</ele>
        <time>2021-07-09T15:00:33Z</time>
      </trkpt>
      <trkpt lat="39.93763" lon="-7.20989">
        <ele>296.4654</ele>
        <time>2021-07-09T15:00:44Z</time>
      </trkpt>
      <trkpt lat="39.93763" lon="-7.21019">
        <ele>297.1893</ele>
        <time>2021-07-09T15:00:55Z</time>
      </trkpt>
      <trkpt lat="39.93759" lon="-7.21024">
        <ele>297.3324</ele>
        <time>2021-07-09T15:01:47Z</time>
      </trkpt>
      <trkpt lat="39.93757" lon="-7.2103">
        <ele>296.642</ele>
        <time>2021-07-09T15:01:58Z</time>
      </trkpt>
      <trkpt lat="39.93753" lon="-7.21035">
        <ele>293.5973</ele>
        <time>2021-07-09T15:02:37Z</time>
      </trkpt>
      <trkpt lat="39.93713" lon="-7.21109">
        <ele>288.0909</ele>
        <time>2021-07-09T15:02:48Z</time>
      </trkpt>
      <trkpt lat="39.93731" lon="-7.21227">
        <ele>295.6002</ele>
        <time>2021-07-09T15:02:59Z</time>
      </trkpt>
      <trkpt lat="39.93713" lon="-7.21294">
        <ele>303.3066</ele>
        <time>2021-07-09T15:03:10Z</time>
      </trkpt>
      <trkpt lat="39.93745" lon="-7.21374">
        <ele>310.1956</ele>
        <time>2021-07-09T15:03:21Z</time>
      </trkpt>
      <trkpt lat="39.93792" lon="-7.21386">
        <ele>317.7745</ele>
        <time>2021-07-09T15:03:32Z</time>
      </trkpt>
      <trkpt lat="39.93844" lon="-7.21421">
        <ele>324.6339</ele>
        <time>2021-07-09T15:03:43Z</time>
      </trkpt>
      <trkpt lat="39.93883" lon="-7.21466">
        <ele>328.2991</ele>
        <time>2021-07-09T15:03:54Z</time>
      </trkpt>
      <trkpt lat="39.93953" lon="-7.21445">
        <ele>330.3749</ele>
        <time>2021-07-09T15:04:05Z</time>
      </trkpt>
      <trkpt lat="39.94016" lon="-7.21392">
        <ele>337.0159</ele>
        <time>2021-07-09T15:04:16Z</time>
      </trkpt>
      <trkpt lat="39.94093" lon="-7.21367">
        <ele>341.1928</ele>
        <time>2021-07-09T15:04:27Z</time>
      </trkpt>
      <trkpt lat="39.94116" lon="-7.21291">
        <ele>338.4469</ele>
        <time>2021-07-09T15:04:38Z</time>
      </trkpt>
      <trkpt lat="39.94163" lon="-7.21201">
        <ele>342.6175</ele>
        <time>2021-07-09T15:04:49Z</time>
      </trkpt>
      <trkpt lat="39.94169" lon="-7.21186">
        <ele>340.0095</ele>
        <time>2021-07-09T15:05:00Z</time>
      </trkpt>
      <trkpt lat="39.94169" lon="-7.21184">
        <ele>342.631</ele>
        <time>2021-07-09T15:06:00Z</time>
      </trkpt>
      <trkpt lat="39.94173" lon="-7.21179">
        <ele>337.4406</ele>
        <time>2021-07-09T15:06:57Z</time>
      </trkpt>
      <trkpt lat="39.94177" lon="-7.21174">
        <ele>337.4342</ele>
        <time>2021-07-09T15:07:08Z</time>
      </trkpt>
      <trkpt lat="39.94182" lon="-7.21173">
        <ele>338.7164</ele>
        <time>2021-07-09T15:07:41Z</time>
      </trkpt>
      <trkpt lat="39.94239" lon="-7.21127">
        <ele>337.4125</ele>
        <time>2021-07-09T15:07:52Z</time>
      </trkpt>
      <trkpt lat="39.94285" lon="-7.21123">
        <ele>345.9011</ele>
        <time>2021-07-09T15:08:03Z</time>
      </trkpt>
      <trkpt lat="39.9433" lon="-7.2111">
        <ele>356.8033</ele>
        <time>2021-07-09T15:08:14Z</time>
      </trkpt>
      <trkpt lat="39.9436" lon="-7.21197">
        <ele>366.7886</ele>
        <time>2021-07-09T15:08:25Z</time>
      </trkpt>
      <trkpt lat="39.94431" lon="-7.21278">
        <ele>375.3674</ele>
        <time>2021-07-09T15:08:36Z</time>
      </trkpt>
      <trkpt lat="39.94503" lon="-7.21315">
        <ele>372.6501</ele>
        <time>2021-07-09T15:08:47Z</time>
      </trkpt>
      <trkpt lat="39.94575" lon="-7.21434">
        <ele>381.0533</ele>
        <time>2021-07-09T15:08:58Z</time>
      </trkpt>
      <trkpt lat="39.94695" lon="-7.21508">
        <ele>380.6727</ele>
        <time>2021-07-09T15:09:09Z</time>
      </trkpt>
      <trkpt lat="39.94807" lon="-7.21558">
        <ele>373.9675</ele>
        <time>2021-07-09T15:09:20Z</time>
      </trkpt>
      <trkpt lat="39.94874" lon="-7.21583">
        <ele>369.0391</ele>
        <time>2021-07-09T15:09:31Z</time>
      </trkpt>
      <trkpt lat="39.94918" lon="-7.21633">
        <ele>369.7681</ele>
        <time>2021-07-09T15:09:42Z</time>
      </trkpt>
      <trkpt lat="39.94917" lon="-7.21704">
        <ele>373.1085</ele>
        <time>2021-07-09T15:09:53Z</time>
      </trkpt>
      <trkpt lat="39.94832" lon="-7.21797">
        <ele>382.5652</ele>
        <time>2021-07-09T15:10:04Z</time>
      </trkpt>
      <trkpt lat="39.94771" lon="-7.21912">
        <ele>377.8292</ele>
        <time>2021-07-09T15:10:15Z</time>
      </trkpt>
      <trkpt lat="39.94763" lon="-7.22048">
        <ele>372.3893</ele>
        <time>2021-07-09T15:10:26Z</time>
      </trkpt>
      <trkpt lat="39.94766" lon="-7.22126">
        <ele>368.6807</ele>
        <time>2021-07-09T15:10:37Z</time>
      </trkpt>
      <trkpt lat="39.94766" lon="-7.22122">
        <ele>368.7555</ele>
        <time>2021-07-09T15:11:36Z</time>
      </trkpt>
      <trkpt lat="39.94765" lon="-7.22126">
        <ele>368.1422</ele>
        <time>2021-07-09T15:12:02Z</time>
      </trkpt>
      <trkpt lat="39.94763" lon="-7.2212">
        <ele>371.7703</ele>
        <time>2021-07-09T15:12:15Z</time>
      </trkpt>
      <trkpt lat="39.94763" lon="-7.22065">
        <ele>372.3574</ele>
        <time>2021-07-09T15:12:26Z</time>
      </trkpt>
      <trkpt lat="39.9476" lon="-7.2203">
        <ele>373.3644</ele>
        <time>2021-07-09T15:12:37Z</time>
      </trkpt>
      <trkpt lat="39.94754" lon="-7.21972">
        <ele>375.1221</ele>
        <time>2021-07-09T15:12:48Z</time>
      </trkpt>
      <trkpt lat="39.9479" lon="-7.2186">
        <ele>377.455</ele>
        <time>2021-07-09T15:12:59Z</time>
      </trkpt>
      <trkpt lat="39.94829" lon="-7.21802">
        <ele>382.7987</ele>
        <time>2021-07-09T15:13:10Z</time>
      </trkpt>
      <trkpt lat="39.94869" lon="-7.21763">
        <ele>382.138</ele>
        <time>2021-07-09T15:13:21Z</time>
      </trkpt>
      <trkpt lat="39.94936" lon="-7.21684">
        <ele>370.8273</ele>
        <time>2021-07-09T15:13:32Z</time>
      </trkpt>
      <trkpt lat="39.94965" lon="-7.21644">
        <ele>371.5284</ele>
        <time>2021-07-09T15:13:43Z</time>
      </trkpt>
      <trkpt lat="39.94985" lon="-7.21604">
        <ele>373.0874</ele>
        <time>2021-07-09T15:13:54Z</time>
      </trkpt>
      <trkpt lat="39.94998" lon="-7.21641">
        <ele>373.7488</ele>
        <time>2021-07-09T15:14:05Z</time>
      </trkpt>
      <trkpt lat="39.95006" lon="-7.21694">
        <ele>375.2324</ele>
        <time>2021-07-09T15:14:16Z</time>
      </trkpt>
      <trkpt lat="39.95006" lon="-7.21692">
        <ele>371.8649</ele>
        <time>2021-07-09T15:15:15Z</time>
      </trkpt>
      <trkpt lat="39.9502" lon="-7.21753">
        <ele>374.2192</ele>
        <time>2021-07-09T15:15:26Z</time>
      </trkpt>
      <trkpt lat="39.95024" lon="-7.21864">
        <ele>384.1652</ele>
        <time>2021-07-09T15:15:37Z</time>
      </trkpt>
      <trkpt lat="39.95013" lon="-7.21946">
        <ele>387.7103</ele>
        <time>2021-07-09T15:15:48Z</time>
      </trkpt>
      <trkpt lat="39.95006" lon="-7.21963">
        <ele>386.3943</ele>
        <time>2021-07-09T15:15:59Z</time>
      </trkpt>
      <trkpt lat="39.95003" lon="-7.21971">
        <ele>384.2505</ele>
        <time>2021-07-09T15:16:29Z</time>
      </trkpt>
      <trkpt lat="39.94979" lon="-7.22064">
        <ele>377.8634</ele>
        <time>2021-07-09T15:16:40Z</time>
      </trkpt>
      <trkpt lat="39.94978" lon="-7.22095">
        <ele>380.9636</ele>
        <time>2021-07-09T15:16:51Z</time>
      </trkpt>
      <trkpt lat="39.94961" lon="-7.22147">
        <ele>378.0915</ele>
        <time>2021-07-09T15:17:02Z</time>
      </trkpt>
      <trkpt lat="39.9492" lon="-7.22186">
        <ele>375.3906</ele>
        <time>2021-07-09T15:17:13Z</time>
      </trkpt>
      <trkpt lat="39.94858" lon="-7.22273">
        <ele>369.6764</ele>
        <time>2021-07-09T15:17:24Z</time>
      </trkpt>
      <trkpt lat="39.94775" lon="-7.2221">
        <ele>366.6391</ele>
        <time>2021-07-09T15:17:35Z</time>
      </trkpt>
      <trkpt lat="39.94728" lon="-7.22221">
        <ele>364.8993</ele>
        <time>2021-07-09T15:17:46Z</time>
      </trkpt>
      <trkpt lat="39.94624" lon="-7.22338">
        <ele>366.3502</ele>
        <time>2021-07-09T15:17:57Z</time>
      </trkpt>
      <trkpt lat="39.94517" lon="-7.22482">
        <ele>370.5274</ele>
        <time>2021-07-09T15:18:08Z</time>
      </trkpt>
      <trkpt lat="39.94394" lon="-7.22591">
        <ele>372.3041</ele>
        <time>2021-07-09T15:18:19Z</time>
      </trkpt>
      <trkpt lat="39.94261" lon="-7.22618">
        <ele>371.0046</ele>
        <time>2021-07-09T15:18:30Z</time>
      </trkpt>
      <trkpt lat="39.94166" lon="-7.22626">
        <ele>366.6806</ele>
        <time>2021-07-09T15:18:41Z</time>
      </trkpt>
      <trkpt lat="39.94026" lon="-7.2272">
        <ele>367.0115</ele>
        <time>2021-07-09T15:18:52Z</time>
      </trkpt>
      <trkpt lat="39.93921" lon="-7.22702">
        <ele>377.3111</ele>
        <time>2021-07-09T15:19:03Z</time>
      </trkpt>
      <trkpt lat="39.93844" lon="-7.22873">
        <ele>384.501</ele>
        <time>2021-07-09T15:19:14Z</time>
      </trkpt>
      <trkpt lat="39.93739" lon="-7.23033">
        <ele>389.6658</ele>
        <time>2021-07-09T15:19:25Z</time>
      </trkpt>
      <trkpt lat="39.9362" lon="-7.23133">
        <ele>397.8678</ele>
        <time>2021-07-09T15:19:36Z</time>
      </trkpt>
      <trkpt lat="39.9353" lon="-7.23245">
        <ele>391.8739</ele>
        <time>2021-07-09T15:19:47Z</time>
      </trkpt>
      <trkpt lat="39.93448" lon="-7.23317">
        <ele>382.9796</ele>
        <time>2021-07-09T15:19:58Z</time>
      </trkpt>
      <trkpt lat="39.93389" lon="-7.23416">
        <ele>379.8986</ele>
        <time>2021-07-09T15:20:09Z</time>
      </trkpt>
      <trkpt lat="39.93284" lon="-7.23464">
        <ele>379.0024</ele>
        <time>2021-07-09T15:20:20Z</time>
      </trkpt>
      <trkpt lat="39.93163" lon="-7.23439">
        <ele>375.3925</ele>
        <time>2021-07-09T15:20:31Z</time>
      </trkpt>
      <trkpt lat="39.93036" lon="-7.23513">
        <ele>375.2675</ele>
        <time>2021-07-09T15:20:42Z</time>
      </trkpt>
      <trkpt lat="39.93016" lon="-7.23536">
        <ele>377.1194</ele>
        <time>2021-07-09T15:20:53Z</time>
      </trkpt>
      <trkpt lat="39.93175" lon="-7.23575">
        <ele>385.2239</ele>
        <time>2021-07-09T15:21:04Z</time>
      </trkpt>
      <trkpt lat="39.93283" lon="-7.23744">
        <ele>386.1148</ele>
        <time>2021-07-09T15:21:15Z</time>
      </trkpt>
      <trkpt lat="39.93325" lon="-7.23851">
        <ele>387.8304</ele>
        <time>2021-07-09T15:21:26Z</time>
      </trkpt>
      <trkpt lat="39.93313" lon="-7.23824">
        <ele>386.6028</ele>
        <time>2021-07-09T15:21:37Z</time>
      </trkpt>
      <trkpt lat="39.9334" lon="-7.23808">
        <ele>392.4222</ele>
        <time>2021-07-09T15:21:48Z</time>
      </trkpt>
      <trkpt lat="39.93337" lon="-7.23804">
        <ele>395.5302</ele>
        <time>2021-07-09T15:22:28Z</time>
      </trkpt>
      <trkpt lat="39.93342" lon="-7.23801">
        <ele>392.9653</ele>
        <time>2021-07-09T15:23:05Z</time>
      </trkpt>
      <trkpt lat="39.93323" lon="-7.23812">
        <ele>443.833</ele>
        <time>2021-07-09T15:43:46Z</time>
      </trkpt>
      <trkpt lat="39.93341" lon="-7.23824">
        <ele>418.7306</ele>
        <time>2021-07-09T15:43:57Z</time>
      </trkpt>
      <trkpt lat="39.93347" lon="-7.23816">
        <ele>422.4356</ele>
        <time>2021-07-09T15:44:08Z</time>
      </trkpt>
      <trkpt lat="39.93336" lon="-7.2381">
        <ele>385.6745</ele>
        <time>2021-07-09T15:44:21Z</time>
      </trkpt>
      <trkpt lat="39.93337" lon="-7.23808">
        <ele>385.8882</ele>
        <time>2021-07-09T15:45:20Z</time>
      </trkpt>
      <trkpt lat="39.93339" lon="-7.23808">
        <ele>386.6053</ele>
        <time>2021-07-09T15:46:19Z</time>
      </trkpt>
      <trkpt lat="39.93336" lon="-7.23805">
        <ele>387.1058</ele>
        <time>2021-07-09T15:46:57Z</time>
      </trkpt>
      <trkpt lat="39.93332" lon="-7.23809">
        <ele>387.1969</ele>
        <time>2021-07-09T15:47:20Z</time>
      </trkpt>
      <trkpt lat="39.93299" lon="-7.23875">
        <ele>386.0656</ele>
        <time>2021-07-09T15:47:31Z</time>
      </trkpt>
      <trkpt lat="39.93183" lon="-7.23925">
        <ele>392.4354</ele>
        <time>2021-07-09T15:47:42Z</time>
      </trkpt>
      <trkpt lat="39.93077" lon="-7.24054">
        <ele>398.9033</ele>
        <time>2021-07-09T15:47:53Z</time>
      </trkpt>
      <trkpt lat="39.92984" lon="-7.24218">
        <ele>404.7243</ele>
        <time>2021-07-09T15:48:04Z</time>
      </trkpt>
      <trkpt lat="39.9284" lon="-7.24314">
        <ele>404.7239</ele>
        <time>2021-07-09T15:48:15Z</time>
      </trkpt>
      <trkpt lat="39.92687" lon="-7.24358">
        <ele>399.5561</ele>
        <time>2021-07-09T15:48:26Z</time>
      </trkpt>
      <trkpt lat="39.92535" lon="-7.24381">
        <ele>392.6574</ele>
        <time>2021-07-09T15:48:37Z</time>
      </trkpt>
      <trkpt lat="39.92414" lon="-7.24315">
        <ele>388.8584</ele>
        <time>2021-07-09T15:48:48Z</time>
      </trkpt>
      <trkpt lat="39.92329" lon="-7.24225">
        <ele>382.5502</ele>
        <time>2021-07-09T15:48:59Z</time>
      </trkpt>
      <trkpt lat="39.92245" lon="-7.2425">
        <ele>379.7623</ele>
        <time>2021-07-09T15:49:10Z</time>
      </trkpt>
      <trkpt lat="39.92236" lon="-7.24339">
        <ele>377.734</ele>
        <time>2021-07-09T15:49:21Z</time>
      </trkpt>
      <trkpt lat="39.92167" lon="-7.24436">
        <ele>376.9226</ele>
        <time>2021-07-09T15:49:32Z</time>
      </trkpt>
      <trkpt lat="39.92112" lon="-7.24593">
        <ele>383.6081</ele>
        <time>2021-07-09T15:49:43Z</time>
      </trkpt>
      <trkpt lat="39.9209" lon="-7.2477">
        <ele>378.2112</ele>
        <time>2021-07-09T15:49:54Z</time>
      </trkpt>
      <trkpt lat="39.92161" lon="-7.24991">
        <ele>380.5859</ele>
        <time>2021-07-09T15:50:05Z</time>
      </trkpt>
      <trkpt lat="39.92145" lon="-7.25224">
        <ele>383.545</ele>
        <time>2021-07-09T15:50:16Z</time>
      </trkpt>
      <trkpt lat="39.92182" lon="-7.25465">
        <ele>375.1175</ele>
        <time>2021-07-09T15:50:27Z</time>
      </trkpt>
      <trkpt lat="39.92141" lon="-7.25771">
        <ele>381.9177</ele>
        <time>2021-07-09T15:50:38Z</time>
      </trkpt>
      <trkpt lat="39.9211" lon="-7.26014">
        <ele>389.2143</ele>
        <time>2021-07-09T15:50:49Z</time>
      </trkpt>
      <trkpt lat="39.92163" lon="-7.26226">
        <ele>377.9286</ele>
        <time>2021-07-09T15:51:00Z</time>
      </trkpt>
      <trkpt lat="39.92155" lon="-7.26477">
        <ele>390.5226</ele>
        <time>2021-07-09T15:51:11Z</time>
      </trkpt>
      <trkpt lat="39.92146" lon="-7.26662">
        <ele>380.9449</ele>
        <time>2021-07-09T15:51:22Z</time>
      </trkpt>
      <trkpt lat="39.92138" lon="-7.26925">
        <ele>365.4538</ele>
        <time>2021-07-09T15:51:33Z</time>
      </trkpt>
      <trkpt lat="39.92086" lon="-7.27104">
        <ele>361.2925</ele>
        <time>2021-07-09T15:51:44Z</time>
      </trkpt>
      <trkpt lat="39.91974" lon="-7.27238">
        <ele>354.7486</ele>
        <time>2021-07-09T15:51:55Z</time>
      </trkpt>
      <trkpt lat="39.91824" lon="-7.27337">
        <ele>349.792</ele>
        <time>2021-07-09T15:52:06Z</time>
      </trkpt>
      <trkpt lat="39.91695" lon="-7.27458">
        <ele>344.7503</ele>
        <time>2021-07-09T15:52:17Z</time>
      </trkpt>
      <trkpt lat="39.91567" lon="-7.27678">
        <ele>344.1615</ele>
        <time>2021-07-09T15:52:28Z</time>
      </trkpt>
      <trkpt lat="39.91446" lon="-7.27838">
        <ele>334.1355</ele>
        <time>2021-07-09T15:52:39Z</time>
      </trkpt>
      <trkpt lat="39.91343" lon="-7.27999">
        <ele>325.6981</ele>
        <time>2021-07-09T15:52:50Z</time>
      </trkpt>
      <trkpt lat="39.91193" lon="-7.27985">
        <ele>319.7305</ele>
        <time>2021-07-09T15:53:01Z</time>
      </trkpt>
      <trkpt lat="39.91044" lon="-7.28115">
        <ele>313.1156</ele>
        <time>2021-07-09T15:53:12Z</time>
      </trkpt>
      <trkpt lat="39.90882" lon="-7.28243">
        <ele>304.6628</ele>
        <time>2021-07-09T15:53:23Z</time>
      </trkpt>
      <trkpt lat="39.90779" lon="-7.2846">
        <ele>294.1281</ele>
        <time>2021-07-09T15:53:34Z</time>
      </trkpt>
      <trkpt lat="39.90735" lon="-7.28661">
        <ele>283.4001</ele>
        <time>2021-07-09T15:53:45Z</time>
      </trkpt>
      <trkpt lat="39.90657" lon="-7.28721">
        <ele>280.6066</ele>
        <time>2021-07-09T15:53:56Z</time>
      </trkpt>
      <trkpt lat="39.90596" lon="-7.28762">
        <ele>281.191</ele>
        <time>2021-07-09T15:54:07Z</time>
      </trkpt>
      <trkpt lat="39.90554" lon="-7.28851">
        <ele>279.9876</ele>
        <time>2021-07-09T15:54:18Z</time>
      </trkpt>
      <trkpt lat="39.90431" lon="-7.2887">
        <ele>274.0487</ele>
        <time>2021-07-09T15:54:29Z</time>
      </trkpt>
      <trkpt lat="39.90311" lon="-7.28863">
        <ele>273.0427</ele>
        <time>2021-07-09T15:54:40Z</time>
      </trkpt>
      <trkpt lat="39.90211" lon="-7.28936">
        <ele>279.4995</ele>
        <time>2021-07-09T15:54:51Z</time>
      </trkpt>
      <trkpt lat="39.9007" lon="-7.2901">
        <ele>280.8709</ele>
        <time>2021-07-09T15:55:02Z</time>
      </trkpt>
      <trkpt lat="39.8995" lon="-7.29025">
        <ele>278.3532</ele>
        <time>2021-07-09T15:55:13Z</time>
      </trkpt>
      <trkpt lat="39.89893" lon="-7.28918">
        <ele>237.2879</ele>
        <time>2021-07-09T15:55:24Z</time>
      </trkpt>
      <trkpt lat="39.89799" lon="-7.28865">
        <ele>251.9829</ele>
        <time>2021-07-09T15:55:35Z</time>
      </trkpt>
      <trkpt lat="39.89718" lon="-7.28896">
        <ele>250.6858</ele>
        <time>2021-07-09T15:55:46Z</time>
      </trkpt>
      <trkpt lat="39.89624" lon="-7.28889">
        <ele>234.9591</ele>
        <time>2021-07-09T15:55:57Z</time>
      </trkpt>
      <trkpt lat="39.89517" lon="-7.28875">
        <ele>219.3836</ele>
        <time>2021-07-09T15:56:08Z</time>
      </trkpt>
      <trkpt lat="39.89448" lon="-7.28794">
        <ele>206.4852</ele>
        <time>2021-07-09T15:56:19Z</time>
      </trkpt>
      <trkpt lat="39.89395" lon="-7.28707">
        <ele>195.0929</ele>
        <time>2021-07-09T15:56:30Z</time>
      </trkpt>
      <trkpt lat="39.89302" lon="-7.2864">
        <ele>186.6972</ele>
        <time>2021-07-09T15:56:41Z</time>
      </trkpt>
      <trkpt lat="39.89238" lon="-7.28651">
        <ele>183.8251</ele>
        <time>2021-07-09T15:56:52Z</time>
      </trkpt>
      <trkpt lat="39.89161" lon="-7.2868">
        <ele>177.7749</ele>
        <time>2021-07-09T15:57:03Z</time>
      </trkpt>
      <trkpt lat="39.89116" lon="-7.28765">
        <ele>178.3116</ele>
        <time>2021-07-09T15:57:14Z</time>
      </trkpt>
      <trkpt lat="39.89125" lon="-7.28874">
        <ele>177.6563</ele>
        <time>2021-07-09T15:57:25Z</time>
      </trkpt>
      <trkpt lat="39.89043" lon="-7.28809">
        <ele>171.9178</ele>
        <time>2021-07-09T15:57:36Z</time>
      </trkpt>
      <trkpt lat="39.88893" lon="-7.28719">
        <ele>167.2778</ele>
        <time>2021-07-09T15:57:47Z</time>
      </trkpt>
      <trkpt lat="39.88701" lon="-7.28694">
        <ele>166.7244</ele>
        <time>2021-07-09T15:57:58Z</time>
      </trkpt>
      <trkpt lat="39.88527" lon="-7.28641">
        <ele>166.627</ele>
        <time>2021-07-09T15:58:09Z</time>
      </trkpt>
      <trkpt lat="39.88413" lon="-7.28613">
        <ele>166.9159</ele>
        <time>2021-07-09T15:58:20Z</time>
      </trkpt>
      <trkpt lat="39.88427" lon="-7.2844">
        <ele>166.3809</ele>
        <time>2021-07-09T15:58:31Z</time>
      </trkpt>
      <trkpt lat="39.88427" lon="-7.28218">
        <ele>171.0191</ele>
        <time>2021-07-09T15:58:42Z</time>
      </trkpt>
      <trkpt lat="39.88243" lon="-7.28179">
        <ele>177.0659</ele>
        <time>2021-07-09T15:58:53Z</time>
      </trkpt>
      <trkpt lat="39.88075" lon="-7.28073">
        <ele>176.6577</ele>
        <time>2021-07-09T15:59:04Z</time>
      </trkpt>
      <trkpt lat="39.87876" lon="-7.27988">
        <ele>181.7619</ele>
        <time>2021-07-09T15:59:15Z</time>
      </trkpt>
      <trkpt lat="39.87761" lon="-7.27844">
        <ele>184.4828</ele>
        <time>2021-07-09T15:59:26Z</time>
      </trkpt>
      <trkpt lat="39.87758" lon="-7.27627">
        <ele>175.25</ele>
        <time>2021-07-09T15:59:37Z</time>
      </trkpt>
      <trkpt lat="39.87766" lon="-7.27485">
        <ele>177.2666</ele>
        <time>2021-07-09T15:59:48Z</time>
      </trkpt>
      <trkpt lat="39.87686" lon="-7.27524">
        <ele>185.2856</ele>
        <time>2021-07-09T15:59:59Z</time>
      </trkpt>
      <trkpt lat="39.87455" lon="-7.27596">
        <ele>193.3236</ele>
        <time>2021-07-09T16:00:10Z</time>
      </trkpt>
      <trkpt lat="39.8722" lon="-7.27578">
        <ele>196.4178</ele>
        <time>2021-07-09T16:00:21Z</time>
      </trkpt>
      <trkpt lat="39.87067" lon="-7.27557">
        <ele>189.3824</ele>
        <time>2021-07-09T16:00:32Z</time>
      </trkpt>
      <trkpt lat="39.8693" lon="-7.27645">
        <ele>182.597</ele>
        <time>2021-07-09T16:00:43Z</time>
      </trkpt>
      <trkpt lat="39.86828" lon="-7.27669">
        <ele>169.3777</ele>
        <time>2021-07-09T16:00:54Z</time>
      </trkpt>
      <trkpt lat="39.86721" lon="-7.27649">
        <ele>177.4042</ele>
        <time>2021-07-09T16:01:05Z</time>
      </trkpt>
      <trkpt lat="39.86595" lon="-7.27647">
        <ele>182.6416</ele>
        <time>2021-07-09T16:01:16Z</time>
      </trkpt>
      <trkpt lat="39.8647" lon="-7.2764">
        <ele>190.5347</ele>
        <time>2021-07-09T16:01:27Z</time>
      </trkpt>
      <trkpt lat="39.86362" lon="-7.27649">
        <ele>191.9659</ele>
        <time>2021-07-09T16:01:38Z</time>
      </trkpt>
      <trkpt lat="39.86243" lon="-7.2762">
        <ele>191.6597</ele>
        <time>2021-07-09T16:01:49Z</time>
      </trkpt>
      <trkpt lat="39.86142" lon="-7.27603">
        <ele>185.869</ele>
        <time>2021-07-09T16:02:00Z</time>
      </trkpt>
      <trkpt lat="39.86024" lon="-7.27527">
        <ele>191.275</ele>
        <time>2021-07-09T16:02:11Z</time>
      </trkpt>
      <trkpt lat="39.85945" lon="-7.27431">
        <ele>193.4309</ele>
        <time>2021-07-09T16:02:22Z</time>
      </trkpt>
      <trkpt lat="39.85873" lon="-7.27418">
        <ele>189.5284</ele>
        <time>2021-07-09T16:02:33Z</time>
      </trkpt>
      <trkpt lat="39.8577" lon="-7.27499">
        <ele>191.2241</ele>
        <time>2021-07-09T16:02:44Z</time>
      </trkpt>
      <trkpt lat="39.85681" lon="-7.27642">
        <ele>200.8326</ele>
        <time>2021-07-09T16:02:55Z</time>
      </trkpt>
      <trkpt lat="39.85546" lon="-7.27781">
        <ele>196.8027</ele>
        <time>2021-07-09T16:03:06Z</time>
      </trkpt>
      <trkpt lat="39.85443" lon="-7.27845">
        <ele>193.7812</ele>
        <time>2021-07-09T16:03:17Z</time>
      </trkpt>
      <trkpt lat="39.85274" lon="-7.27793">
        <ele>193.8805</ele>
        <time>2021-07-09T16:03:28Z</time>
      </trkpt>
      <trkpt lat="39.85095" lon="-7.27689">
        <ele>195.4242</ele>
        <time>2021-07-09T16:03:39Z</time>
      </trkpt>
      <trkpt lat="39.84964" lon="-7.27576">
        <ele>198.6359</ele>
        <time>2021-07-09T16:03:50Z</time>
      </trkpt>
      <trkpt lat="39.84852" lon="-7.27438">
        <ele>201.8651</ele>
        <time>2021-07-09T16:04:01Z</time>
      </trkpt>
      <trkpt lat="39.84783" lon="-7.2729">
        <ele>202.8273</ele>
        <time>2021-07-09T16:04:12Z</time>
      </trkpt>
      <trkpt lat="39.84756" lon="-7.27062">
        <ele>203.8036</ele>
        <time>2021-07-09T16:04:23Z</time>
      </trkpt>
      <trkpt lat="39.84632" lon="-7.26949">
        <ele>205.5841</ele>
        <time>2021-07-09T16:04:34Z</time>
      </trkpt>
      <trkpt lat="39.84522" lon="-7.26832">
        <ele>209.487</ele>
        <time>2021-07-09T16:04:45Z</time>
      </trkpt>
      <trkpt lat="39.84415" lon="-7.26759">
        <ele>208.2336</ele>
        <time>2021-07-09T16:04:56Z</time>
      </trkpt>
      <trkpt lat="39.84344" lon="-7.2664">
        <ele>204.699</ele>
        <time>2021-07-09T16:05:07Z</time>
      </trkpt>
      <trkpt lat="39.84195" lon="-7.26605">
        <ele>208.2377</ele>
        <time>2021-07-09T16:05:18Z</time>
      </trkpt>
      <trkpt lat="39.8405" lon="-7.26586">
        <ele>212.226</ele>
        <time>2021-07-09T16:05:29Z</time>
      </trkpt>
      <trkpt lat="39.8393" lon="-7.26508">
        <ele>214.1516</ele>
        <time>2021-07-09T16:05:40Z</time>
      </trkpt>
      <trkpt lat="39.83871" lon="-7.26494">
        <ele>214.9411</ele>
        <time>2021-07-09T16:05:51Z</time>
      </trkpt>
      <trkpt lat="39.83795" lon="-7.26417">
        <ele>216.939</ele>
        <time>2021-07-09T16:06:02Z</time>
      </trkpt>
      <trkpt lat="39.83678" lon="-7.26292">
        <ele>219.2062</ele>
        <time>2021-07-09T16:06:13Z</time>
      </trkpt>
      <trkpt lat="39.8358" lon="-7.26165">
        <ele>224.2537</ele>
        <time>2021-07-09T16:06:24Z</time>
      </trkpt>
      <trkpt lat="39.8353" lon="-7.26006">
        <ele>222.7308</ele>
        <time>2021-07-09T16:06:35Z</time>
      </trkpt>
      <trkpt lat="39.83501" lon="-7.26003">
        <ele>221.8935</ele>
        <time>2021-07-09T16:06:46Z</time>
      </trkpt>
      <trkpt lat="39.83455" lon="-7.26043">
        <ele>214.7381</ele>
        <time>2021-07-09T16:06:57Z</time>
      </trkpt>
      <trkpt lat="39.83415" lon="-7.26032">
        <ele>219.1349</ele>
        <time>2021-07-09T16:07:08Z</time>
      </trkpt>
      <trkpt lat="39.83402" lon="-7.26022">
        <ele>218.6005</ele>
        <time>2021-07-09T16:07:19Z</time>
      </trkpt>
      <trkpt lat="39.83363" lon="-7.26004">
        <ele>216.4055</ele>
        <time>2021-07-09T16:07:30Z</time>
      </trkpt>
      <trkpt lat="39.83343" lon="-7.25999">
        <ele>216.0095</ele>
        <time>2021-07-09T16:07:41Z</time>
      </trkpt>
      <trkpt lat="39.83324" lon="-7.25976">
        <ele>221.9852</ele>
        <time>2021-07-09T16:07:52Z</time>
      </trkpt>
      <trkpt lat="39.83312" lon="-7.25973">
        <ele>228.5741</ele>
        <time>2021-07-09T16:08:03Z</time>
      </trkpt>
      <trkpt lat="39.83294" lon="-7.25968">
        <ele>225.4056</ele>
        <time>2021-07-09T16:08:14Z</time>
      </trkpt>
      <trkpt lat="39.83275" lon="-7.26042">
        <ele>225.0089</ele>
        <time>2021-07-09T16:08:25Z</time>
      </trkpt>
      <trkpt lat="39.83277" lon="-7.26091">
        <ele>217.1962</ele>
        <time>2021-07-09T16:08:36Z</time>
      </trkpt>
      <trkpt lat="39.83233" lon="-7.26075">
        <ele>220.2274</ele>
        <time>2021-07-09T16:08:47Z</time>
      </trkpt>
      <trkpt lat="39.83163" lon="-7.26093">
        <ele>210.5055</ele>
        <time>2021-07-09T16:08:58Z</time>
      </trkpt>
      <trkpt lat="39.83071" lon="-7.26128">
        <ele>208.4153</ele>
        <time>2021-07-09T16:09:09Z</time>
      </trkpt>
      <trkpt lat="39.82944" lon="-7.26078">
        <ele>211.1815</ele>
        <time>2021-07-09T16:09:20Z</time>
      </trkpt>
      <trkpt lat="39.82767" lon="-7.2603">
        <ele>214.5661</ele>
        <time>2021-07-09T16:09:31Z</time>
      </trkpt>
      <trkpt lat="39.82552" lon="-7.26058">
        <ele>224.0246</ele>
        <time>2021-07-09T16:09:42Z</time>
      </trkpt>
      <trkpt lat="39.82338" lon="-7.26018">
        <ele>237.6731</ele>
        <time>2021-07-09T16:09:53Z</time>
      </trkpt>
      <trkpt lat="39.82124" lon="-7.26056">
        <ele>243.0456</ele>
        <time>2021-07-09T16:10:04Z</time>
      </trkpt>
      <trkpt lat="39.81893" lon="-7.26185">
        <ele>246.1054</ele>
        <time>2021-07-09T16:10:15Z</time>
      </trkpt>
      <trkpt lat="39.81688" lon="-7.26283">
        <ele>241.5949</ele>
        <time>2021-07-09T16:10:26Z</time>
      </trkpt>
      <trkpt lat="39.8156" lon="-7.26368">
        <ele>240.8056</ele>
        <time>2021-07-09T16:10:37Z</time>
      </trkpt>
      <trkpt lat="39.81433" lon="-7.26527">
        <ele>243.7027</ele>
        <time>2021-07-09T16:10:48Z</time>
      </trkpt>
      <trkpt lat="39.8126" lon="-7.26644">
        <ele>237.2549</ele>
        <time>2021-07-09T16:10:59Z</time>
      </trkpt>
      <trkpt lat="39.81026" lon="-7.26681">
        <ele>232.3427</ele>
        <time>2021-07-09T16:11:10Z</time>
      </trkpt>
      <trkpt lat="39.8089" lon="-7.26769">
        <ele>232.2102</ele>
        <time>2021-07-09T16:11:21Z</time>
      </trkpt>
      <trkpt lat="39.80814" lon="-7.26976">
        <ele>232.2068</ele>
        <time>2021-07-09T16:11:32Z</time>
      </trkpt>
      <trkpt lat="39.80795" lon="-7.27193">
        <ele>231.6431</ele>
        <time>2021-07-09T16:11:43Z</time>
      </trkpt>
      <trkpt lat="39.8085" lon="-7.27416">
        <ele>230.2835</ele>
        <time>2021-07-09T16:11:54Z</time>
      </trkpt>
      <trkpt lat="39.80813" lon="-7.27634">
        <ele>225.5965</ele>
        <time>2021-07-09T16:12:05Z</time>
      </trkpt>
      <trkpt lat="39.80775" lon="-7.27936">
        <ele>219.2139</ele>
        <time>2021-07-09T16:12:16Z</time>
      </trkpt>
      <trkpt lat="39.80753" lon="-7.28224">
        <ele>218.4995</ele>
        <time>2021-07-09T16:12:27Z</time>
      </trkpt>
      <trkpt lat="39.80682" lon="-7.28499">
        <ele>222.049</ele>
        <time>2021-07-09T16:12:38Z</time>
      </trkpt>
      <trkpt lat="39.80615" lon="-7.28784">
        <ele>224.2144</ele>
        <time>2021-07-09T16:12:49Z</time>
      </trkpt>
      <trkpt lat="39.8053" lon="-7.29051">
        <ele>225.241</ele>
        <time>2021-07-09T16:13:00Z</time>
      </trkpt>
      <trkpt lat="39.80489" lon="-7.2928">
        <ele>223.6938</ele>
        <time>2021-07-09T16:13:11Z</time>
      </trkpt>
      <trkpt lat="39.80459" lon="-7.2951">
        <ele>225.0361</ele>
        <time>2021-07-09T16:13:22Z</time>
      </trkpt>
      <trkpt lat="39.80439" lon="-7.29742">
        <ele>214.7925</ele>
        <time>2021-07-09T16:13:33Z</time>
      </trkpt>
      <trkpt lat="39.80339" lon="-7.29912">
        <ele>203.7575</ele>
        <time>2021-07-09T16:13:44Z</time>
      </trkpt>
      <trkpt lat="39.8023" lon="-7.30122">
        <ele>201.2861</ele>
        <time>2021-07-09T16:13:55Z</time>
      </trkpt>
      <trkpt lat="39.8016" lon="-7.30354">
        <ele>199.6263</ele>
        <time>2021-07-09T16:14:06Z</time>
      </trkpt>
      <trkpt lat="39.80055" lon="-7.30591">
        <ele>195.8269</ele>
        <time>2021-07-09T16:14:17Z</time>
      </trkpt>
      <trkpt lat="39.79974" lon="-7.30851">
        <ele>186.7887</ele>
        <time>2021-07-09T16:14:28Z</time>
      </trkpt>
      <trkpt lat="39.79802" lon="-7.31025">
        <ele>181.3095</ele>
        <time>2021-07-09T16:14:39Z</time>
      </trkpt>
      <trkpt lat="39.79657" lon="-7.31204">
        <ele>178.71</ele>
        <time>2021-07-09T16:14:50Z</time>
      </trkpt>
      <trkpt lat="39.79562" lon="-7.31365">
        <ele>178.406</ele>
        <time>2021-07-09T16:15:01Z</time>
      </trkpt>
      <trkpt lat="39.7949" lon="-7.31516">
        <ele>174.4735</ele>
        <time>2021-07-09T16:15:12Z</time>
      </trkpt>
      <trkpt lat="39.79423" lon="-7.31713">
        <ele>170.1468</ele>
        <time>2021-07-09T16:15:23Z</time>
      </trkpt>
      <trkpt lat="39.79355" lon="-7.31985">
        <ele>168.7189</ele>
        <time>2021-07-09T16:15:34Z</time>
      </trkpt>
      <trkpt lat="39.7927" lon="-7.32158">
        <ele>163.7033</ele>
        <time>2021-07-09T16:15:45Z</time>
      </trkpt>
      <trkpt lat="39.79284" lon="-7.32372">
        <ele>162.8762</ele>
        <time>2021-07-09T16:15:56Z</time>
      </trkpt>
      <trkpt lat="39.79309" lon="-7.32536">
        <ele>163.8319</ele>
        <time>2021-07-09T16:16:07Z</time>
      </trkpt>
      <trkpt lat="39.79329" lon="-7.32696">
        <ele>163.0041</ele>
        <time>2021-07-09T16:16:18Z</time>
      </trkpt>
      <trkpt lat="39.79273" lon="-7.32859">
        <ele>163.8564</ele>
        <time>2021-07-09T16:16:29Z</time>
      </trkpt>
      <trkpt lat="39.79274" lon="-7.33013">
        <ele>164.4147</ele>
        <time>2021-07-09T16:16:40Z</time>
      </trkpt>
      <trkpt lat="39.79311" lon="-7.33246">
        <ele>164.5918</ele>
        <time>2021-07-09T16:16:51Z</time>
      </trkpt>
      <trkpt lat="39.79395" lon="-7.3338">
        <ele>158.4946</ele>
        <time>2021-07-09T16:17:02Z</time>
      </trkpt>
      <trkpt lat="39.7944" lon="-7.3359">
        <ele>157.2499</ele>
        <time>2021-07-09T16:17:13Z</time>
      </trkpt>
      <trkpt lat="39.79429" lon="-7.33743">
        <ele>152.4506</ele>
        <time>2021-07-09T16:17:24Z</time>
      </trkpt>
      <trkpt lat="39.79382" lon="-7.33855">
        <ele>148.9499</ele>
        <time>2021-07-09T16:17:35Z</time>
      </trkpt>
      <trkpt lat="39.79365" lon="-7.3391">
        <ele>151.8761</ele>
        <time>2021-07-09T16:17:46Z</time>
      </trkpt>
      <trkpt lat="39.79271" lon="-7.33906">
        <ele>151.0335</ele>
        <time>2021-07-09T16:17:57Z</time>
      </trkpt>
      <trkpt lat="39.79181" lon="-7.33842">
        <ele>152.9889</ele>
        <time>2021-07-09T16:18:08Z</time>
      </trkpt>
      <trkpt lat="39.7915" lon="-7.33861">
        <ele>153.6019</ele>
        <time>2021-07-09T16:18:19Z</time>
      </trkpt>
      <trkpt lat="39.79179" lon="-7.33847">
        <ele>167.2273</ele>
        <time>2021-07-09T16:18:30Z</time>
      </trkpt>
      <trkpt lat="39.79218" lon="-7.33913">
        <ele>162.8724</ele>
        <time>2021-07-09T16:18:41Z</time>
      </trkpt>
      <trkpt lat="39.79233" lon="-7.34011">
        <ele>157.7621</ele>
        <time>2021-07-09T16:18:52Z</time>
      </trkpt>
      <trkpt lat="39.79257" lon="-7.34146">
        <ele>149.9909</ele>
        <time>2021-07-09T16:19:03Z</time>
      </trkpt>
      <trkpt lat="39.79265" lon="-7.34293">
        <ele>144.1008</ele>
        <time>2021-07-09T16:19:14Z</time>
      </trkpt>
      <trkpt lat="39.79283" lon="-7.34453">
        <ele>146.1435</ele>
        <time>2021-07-09T16:19:25Z</time>
      </trkpt>
      <trkpt lat="39.79238" lon="-7.34621">
        <ele>154.5554</ele>
        <time>2021-07-09T16:19:36Z</time>
      </trkpt>
      <trkpt lat="39.79177" lon="-7.34769">
        <ele>152.9225</ele>
        <time>2021-07-09T16:19:47Z</time>
      </trkpt>
      <trkpt lat="39.79057" lon="-7.34849">
        <ele>143.8644</ele>
        <time>2021-07-09T16:19:58Z</time>
      </trkpt>
      <trkpt lat="39.78946" lon="-7.34939">
        <ele>142.5479</ele>
        <time>2021-07-09T16:20:09Z</time>
      </trkpt>
      <trkpt lat="39.78853" lon="-7.35053">
        <ele>150.2662</ele>
        <time>2021-07-09T16:20:20Z</time>
      </trkpt>
      <trkpt lat="39.78822" lon="-7.35243">
        <ele>148.0154</ele>
        <time>2021-07-09T16:20:31Z</time>
      </trkpt>
      <trkpt lat="39.78841" lon="-7.35409">
        <ele>149.7724</ele>
        <time>2021-07-09T16:20:42Z</time>
      </trkpt>
      <trkpt lat="39.78835" lon="-7.35584">
        <ele>146.8554</ele>
        <time>2021-07-09T16:20:53Z</time>
      </trkpt>
      <trkpt lat="39.78776" lon="-7.3574">
        <ele>144.2573</ele>
        <time>2021-07-09T16:21:04Z</time>
      </trkpt>
      <trkpt lat="39.78696" lon="-7.35914">
        <ele>146.634</ele>
        <time>2021-07-09T16:21:15Z</time>
      </trkpt>
      <trkpt lat="39.7864" lon="-7.36068">
        <ele>146.1604</ele>
        <time>2021-07-09T16:21:26Z</time>
      </trkpt>
      <trkpt lat="39.78633" lon="-7.36259">
        <ele>145.0401</ele>
        <time>2021-07-09T16:21:37Z</time>
      </trkpt>
      <trkpt lat="39.78656" lon="-7.36461">
        <ele>141.4977</ele>
        <time>2021-07-09T16:21:48Z</time>
      </trkpt>
      <trkpt lat="39.78745" lon="-7.36609">
        <ele>143.8986</ele>
        <time>2021-07-09T16:21:59Z</time>
      </trkpt>
      <trkpt lat="39.78837" lon="-7.36708">
        <ele>139.4938</ele>
        <time>2021-07-09T16:22:10Z</time>
      </trkpt>
      <trkpt lat="39.789" lon="-7.36776">
        <ele>138.8768</ele>
        <time>2021-07-09T16:22:21Z</time>
      </trkpt>
      <trkpt lat="39.78934" lon="-7.36916">
        <ele>140.0312</ele>
        <time>2021-07-09T16:22:32Z</time>
      </trkpt>
      <trkpt lat="39.78898" lon="-7.37073">
        <ele>141.3801</ele>
        <time>2021-07-09T16:22:43Z</time>
      </trkpt>
      <trkpt lat="39.78924" lon="-7.37238">
        <ele>141.785</ele>
        <time>2021-07-09T16:22:54Z</time>
      </trkpt>
      <trkpt lat="39.78988" lon="-7.37394">
        <ele>140.111</ele>
        <time>2021-07-09T16:23:05Z</time>
      </trkpt>
      <trkpt lat="39.79005" lon="-7.37535">
        <ele>136.6392</ele>
        <time>2021-07-09T16:23:16Z</time>
      </trkpt>
      <trkpt lat="39.79017" lon="-7.37691">
        <ele>140.6151</ele>
        <time>2021-07-09T16:23:27Z</time>
      </trkpt>
      <trkpt lat="39.79029" lon="-7.37868">
        <ele>135.8829</ele>
        <time>2021-07-09T16:23:38Z</time>
      </trkpt>
      <trkpt lat="39.7901" lon="-7.38045">
        <ele>123.419</ele>
        <time>2021-07-09T16:23:49Z</time>
      </trkpt>
      <trkpt lat="39.79011" lon="-7.38222">
        <ele>132.3232</ele>
        <time>2021-07-09T16:24:00Z</time>
      </trkpt>
      <trkpt lat="39.79013" lon="-7.38336">
        <ele>145.0761</ele>
        <time>2021-07-09T16:24:11Z</time>
      </trkpt>
      <trkpt lat="39.7897" lon="-7.38404">
        <ele>158.6884</ele>
        <time>2021-07-09T16:24:22Z</time>
      </trkpt>
      <trkpt lat="39.78905" lon="-7.38309">
        <ele>138.5964</ele>
        <time>2021-07-09T16:24:33Z</time>
      </trkpt>
      <trkpt lat="39.78796" lon="-7.38225">
        <ele>145.5441</ele>
        <time>2021-07-09T16:24:44Z</time>
      </trkpt>
      <trkpt lat="39.78657" lon="-7.38127">
        <ele>151.2719</ele>
        <time>2021-07-09T16:24:55Z</time>
      </trkpt>
      <trkpt lat="39.78538" lon="-7.38012">
        <ele>164.7958</ele>
        <time>2021-07-09T16:25:06Z</time>
      </trkpt>
      <trkpt lat="39.78453" lon="-7.38002">
        <ele>173.4454</ele>
        <time>2021-07-09T16:25:17Z</time>
      </trkpt>
      <trkpt lat="39.78378" lon="-7.38064">
        <ele>168.1721</ele>
        <time>2021-07-09T16:25:28Z</time>
      </trkpt>
      <trkpt lat="39.78323" lon="-7.38142">
        <ele>161.3307</ele>
        <time>2021-07-09T16:25:39Z</time>
      </trkpt>
      <trkpt lat="39.78216" lon="-7.38135">
        <ele>164.947</ele>
        <time>2021-07-09T16:25:50Z</time>
      </trkpt>
      <trkpt lat="39.78088" lon="-7.38131">
        <ele>156.2706</ele>
        <time>2021-07-09T16:26:01Z</time>
      </trkpt>
      <trkpt lat="39.77951" lon="-7.38117">
        <ele>156.3213</ele>
        <time>2021-07-09T16:26:12Z</time>
      </trkpt>
      <trkpt lat="39.77799" lon="-7.38109">
        <ele>125.224</ele>
        <time>2021-07-09T16:26:23Z</time>
      </trkpt>
      <trkpt lat="39.77698" lon="-7.38071">
        <ele>143.0605</ele>
        <time>2021-07-09T16:26:34Z</time>
      </trkpt>
      <trkpt lat="39.7759" lon="-7.38052">
        <ele>136.9022</ele>
        <time>2021-07-09T16:26:45Z</time>
      </trkpt>
      <trkpt lat="39.77478" lon="-7.37994">
        <ele>161.0528</ele>
        <time>2021-07-09T16:26:56Z</time>
      </trkpt>
      <trkpt lat="39.77386" lon="-7.37898">
        <ele>157.5208</ele>
        <time>2021-07-09T16:27:07Z</time>
      </trkpt>
      <trkpt lat="39.7728" lon="-7.3774">
        <ele>162.124</ele>
        <time>2021-07-09T16:27:18Z</time>
      </trkpt>
      <trkpt lat="39.77147" lon="-7.37612">
        <ele>156.0969</ele>
        <time>2021-07-09T16:27:29Z</time>
      </trkpt>
      <trkpt lat="39.77" lon="-7.37506">
        <ele>161.4214</ele>
        <time>2021-07-09T16:27:40Z</time>
      </trkpt>
      <trkpt lat="39.76886" lon="-7.37371">
        <ele>167.8789</ele>
        <time>2021-07-09T16:27:51Z</time>
      </trkpt>
      <trkpt lat="39.76785" lon="-7.37311">
        <ele>167.1457</ele>
        <time>2021-07-09T16:28:02Z</time>
      </trkpt>
      <trkpt lat="39.76663" lon="-7.37354">
        <ele>169.647</ele>
        <time>2021-07-09T16:28:13Z</time>
      </trkpt>
      <trkpt lat="39.76522" lon="-7.37325">
        <ele>174.7571</ele>
        <time>2021-07-09T16:28:24Z</time>
      </trkpt>
      <trkpt lat="39.76434" lon="-7.3737">
        <ele>178.0716</ele>
        <time>2021-07-09T16:28:35Z</time>
      </trkpt>
      <trkpt lat="39.76301" lon="-7.37448">
        <ele>188.9722</ele>
        <time>2021-07-09T16:28:46Z</time>
      </trkpt>
      <trkpt lat="39.76178" lon="-7.37475">
        <ele>204.7288</ele>
        <time>2021-07-09T16:28:57Z</time>
      </trkpt>
      <trkpt lat="39.7605" lon="-7.37484">
        <ele>212.2637</ele>
        <time>2021-07-09T16:29:08Z</time>
      </trkpt>
      <trkpt lat="39.75933" lon="-7.37523">
        <ele>213.3028</ele>
        <time>2021-07-09T16:29:19Z</time>
      </trkpt>
      <trkpt lat="39.75793" lon="-7.37527">
        <ele>218.1358</ele>
        <time>2021-07-09T16:29:30Z</time>
      </trkpt>
      <trkpt lat="39.75661" lon="-7.37484">
        <ele>222.0974</ele>
        <time>2021-07-09T16:29:41Z</time>
      </trkpt>
      <trkpt lat="39.75536" lon="-7.37463">
        <ele>226.19</ele>
        <time>2021-07-09T16:29:52Z</time>
      </trkpt>
      <trkpt lat="39.754" lon="-7.37447">
        <ele>231.1512</ele>
        <time>2021-07-09T16:30:03Z</time>
      </trkpt>
      <trkpt lat="39.75265" lon="-7.37443">
        <ele>236.7873</ele>
        <time>2021-07-09T16:30:14Z</time>
      </trkpt>
      <trkpt lat="39.75167" lon="-7.37491">
        <ele>241.4233</ele>
        <time>2021-07-09T16:30:25Z</time>
      </trkpt>
      <trkpt lat="39.75064" lon="-7.37474">
        <ele>245.5126</ele>
        <time>2021-07-09T16:30:36Z</time>
      </trkpt>
      <trkpt lat="39.74975" lon="-7.3748">
        <ele>249.7804</ele>
        <time>2021-07-09T16:30:47Z</time>
      </trkpt>
      <trkpt lat="39.749" lon="-7.37476">
        <ele>252.7759</ele>
        <time>2021-07-09T16:30:58Z</time>
      </trkpt>
      <trkpt lat="39.74796" lon="-7.37512">
        <ele>250.9527</ele>
        <time>2021-07-09T16:31:09Z</time>
      </trkpt>
      <trkpt lat="39.74706" lon="-7.37617">
        <ele>241.5608</ele>
        <time>2021-07-09T16:31:20Z</time>
      </trkpt>
      <trkpt lat="39.74646" lon="-7.37733">
        <ele>200.5936</ele>
        <time>2021-07-09T16:31:31Z</time>
      </trkpt>
      <trkpt lat="39.74551" lon="-7.37855">
        <ele>199.1038</ele>
        <time>2021-07-09T16:31:42Z</time>
      </trkpt>
      <trkpt lat="39.74429" lon="-7.37922">
        <ele>218.6805</ele>
        <time>2021-07-09T16:31:53Z</time>
      </trkpt>
      <trkpt lat="39.74341" lon="-7.38007">
        <ele>233.8128</ele>
        <time>2021-07-09T16:32:04Z</time>
      </trkpt>
      <trkpt lat="39.74265" lon="-7.38088">
        <ele>249.2427</ele>
        <time>2021-07-09T16:32:15Z</time>
      </trkpt>
      <trkpt lat="39.74204" lon="-7.38159">
        <ele>252.9216</ele>
        <time>2021-07-09T16:32:26Z</time>
      </trkpt>
      <trkpt lat="39.74136" lon="-7.38411">
        <ele>232.4326</ele>
        <time>2021-07-09T16:32:37Z</time>
      </trkpt>
      <trkpt lat="39.74098" lon="-7.38715">
        <ele>224.9297</ele>
        <time>2021-07-09T16:32:48Z</time>
      </trkpt>
      <trkpt lat="39.74094" lon="-7.39022">
        <ele>220.584</ele>
        <time>2021-07-09T16:32:59Z</time>
      </trkpt>
      <trkpt lat="39.74123" lon="-7.39327">
        <ele>218.3459</ele>
        <time>2021-07-09T16:33:10Z</time>
      </trkpt>
      <trkpt lat="39.7407" lon="-7.39632">
        <ele>218.252</ele>
        <time>2021-07-09T16:33:21Z</time>
      </trkpt>
      <trkpt lat="39.74169" lon="-7.39901">
        <ele>235.2166</ele>
        <time>2021-07-09T16:33:32Z</time>
      </trkpt>
      <trkpt lat="39.74311" lon="-7.4015">
        <ele>237.9625</ele>
        <time>2021-07-09T16:33:43Z</time>
      </trkpt>
      <trkpt lat="39.74431" lon="-7.40408">
        <ele>241.7291</ele>
        <time>2021-07-09T16:33:54Z</time>
      </trkpt>
      <trkpt lat="39.74543" lon="-7.40665">
        <ele>237.5501</ele>
        <time>2021-07-09T16:34:05Z</time>
      </trkpt>
      <trkpt lat="39.74652" lon="-7.40915">
        <ele>236.0762</ele>
        <time>2021-07-09T16:34:16Z</time>
      </trkpt>
      <trkpt lat="39.74704" lon="-7.41093">
        <ele>237.3776</ele>
        <time>2021-07-09T16:34:27Z</time>
      </trkpt>
      <trkpt lat="39.74752" lon="-7.412">
        <ele>235.3642</ele>
        <time>2021-07-09T16:34:38Z</time>
      </trkpt>
      <trkpt lat="39.74781" lon="-7.41296">
        <ele>232.3756</ele>
        <time>2021-07-09T16:34:49Z</time>
      </trkpt>
      <trkpt lat="39.74877" lon="-7.41324">
        <ele>234.118</ele>
        <time>2021-07-09T16:35:00Z</time>
      </trkpt>
      <trkpt lat="39.74979" lon="-7.41338">
        <ele>231.789</ele>
        <time>2021-07-09T16:35:11Z</time>
      </trkpt>
      <trkpt lat="39.75087" lon="-7.4129">
        <ele>223.4805</ele>
        <time>2021-07-09T16:35:22Z</time>
      </trkpt>
      <trkpt lat="39.75213" lon="-7.41253">
        <ele>224.0905</ele>
        <time>2021-07-09T16:35:33Z</time>
      </trkpt>
      <trkpt lat="39.75329" lon="-7.41289">
        <ele>215.7047</ele>
        <time>2021-07-09T16:35:44Z</time>
      </trkpt>
      <trkpt lat="39.7544" lon="-7.41301">
        <ele>153.2355</ele>
        <time>2021-07-09T16:35:55Z</time>
      </trkpt>
      <trkpt lat="39.75543" lon="-7.41287">
        <ele>210.2303</ele>
        <time>2021-07-09T16:36:06Z</time>
      </trkpt>
      <trkpt lat="39.7566" lon="-7.41335">
        <ele>207.4073</ele>
        <time>2021-07-09T16:36:17Z</time>
      </trkpt>
      <trkpt lat="39.75776" lon="-7.4133">
        <ele>204.8094</ele>
        <time>2021-07-09T16:36:28Z</time>
      </trkpt>
      <trkpt lat="39.75883" lon="-7.41357">
        <ele>198.9689</ele>
        <time>2021-07-09T16:36:39Z</time>
      </trkpt>
      <trkpt lat="39.76001" lon="-7.41349">
        <ele>200.5323</ele>
        <time>2021-07-09T16:36:50Z</time>
      </trkpt>
      <trkpt lat="39.76124" lon="-7.41375">
        <ele>201.4969</ele>
        <time>2021-07-09T16:37:01Z</time>
      </trkpt>
      <trkpt lat="39.76217" lon="-7.4134">
        <ele>202.1562</ele>
        <time>2021-07-09T16:37:12Z</time>
      </trkpt>
      <trkpt lat="39.76221" lon="-7.41343">
        <ele>204.7586</ele>
        <time>2021-07-09T16:37:57Z</time>
      </trkpt>
      <trkpt lat="39.76229" lon="-7.41345">
        <ele>199.1265</ele>
        <time>2021-07-09T16:38:33Z</time>
      </trkpt>
      <trkpt lat="39.76307" lon="-7.41411">
        <ele>194.4003</ele>
        <time>2021-07-09T16:38:44Z</time>
      </trkpt>
      <trkpt lat="39.76368" lon="-7.41494">
        <ele>196.2719</ele>
        <time>2021-07-09T16:38:55Z</time>
      </trkpt>
      <trkpt lat="39.76419" lon="-7.41567">
        <ele>198.4048</ele>
        <time>2021-07-09T16:39:06Z</time>
      </trkpt>
      <trkpt lat="39.76448" lon="-7.41711">
        <ele>199.3395</ele>
        <time>2021-07-09T16:39:17Z</time>
      </trkpt>
      <trkpt lat="39.76466" lon="-7.41878">
        <ele>195.7152</ele>
        <time>2021-07-09T16:39:28Z</time>
      </trkpt>
      <trkpt lat="39.76461" lon="-7.41993">
        <ele>194.2231</ele>
        <time>2021-07-09T16:39:39Z</time>
      </trkpt>
      <trkpt lat="39.7647" lon="-7.42092">
        <ele>180.8271</ele>
        <time>2021-07-09T16:39:50Z</time>
      </trkpt>
      <trkpt lat="39.76514" lon="-7.42181">
        <ele>176.1745</ele>
        <time>2021-07-09T16:40:01Z</time>
      </trkpt>
      <trkpt lat="39.76465" lon="-7.42257">
        <ele>176.2671</ele>
        <time>2021-07-09T16:40:12Z</time>
      </trkpt>
      <trkpt lat="39.76448" lon="-7.42278">
        <ele>175.9505</ele>
        <time>2021-07-09T16:40:23Z</time>
      </trkpt>
      <trkpt lat="39.76443" lon="-7.4228">
        <ele>182.8976</ele>
        <time>2021-07-09T16:40:36Z</time>
      </trkpt>
      <trkpt lat="39.76443" lon="-7.42285">
        <ele>179.1455</ele>
        <time>2021-07-09T16:41:19Z</time>
      </trkpt>
      <trkpt lat="39.76431" lon="-7.42287">
        <ele>178.6177</ele>
        <time>2021-07-09T16:41:30Z</time>
      </trkpt>
      <trkpt lat="39.76475" lon="-7.42253">
        <ele>170.3068</ele>
        <time>2021-07-09T16:41:41Z</time>
      </trkpt>
      <trkpt lat="39.76478" lon="-7.42258">
        <ele>185.5342</ele>
        <time>2021-07-09T16:42:17Z</time>
      </trkpt>
      <trkpt lat="39.76473" lon="-7.42266">
        <ele>185.9446</ele>
        <time>2021-07-09T16:42:28Z</time>
      </trkpt>
      <trkpt lat="39.76468" lon="-7.42268">
        <ele>186.2216</ele>
        <time>2021-07-09T16:42:48Z</time>
      </trkpt>
      <trkpt lat="39.76438" lon="-7.42307">
        <ele>178.9693</ele>
        <time>2021-07-09T16:42:59Z</time>
      </trkpt>
      <trkpt lat="39.76412" lon="-7.42331">
        <ele>177.4497</ele>
        <time>2021-07-09T16:43:10Z</time>
      </trkpt>
      <trkpt lat="39.76397" lon="-7.42353">
        <ele>177.8426</ele>
        <time>2021-07-09T16:43:21Z</time>
      </trkpt>
      <trkpt lat="39.76395" lon="-7.42357">
        <ele>177.5815</ele>
        <time>2021-07-09T16:44:10Z</time>
      </trkpt>
      <trkpt lat="39.76389" lon="-7.42364">
        <ele>177.2773</ele>
        <time>2021-07-09T16:44:21Z</time>
      </trkpt>
      <trkpt lat="39.76384" lon="-7.42369">
        <ele>177.5993</ele>
        <time>2021-07-09T16:44:54Z</time>
      </trkpt>
      <trkpt lat="39.76371" lon="-7.42413">
        <ele>177.5079</ele>
        <time>2021-07-09T16:45:05Z</time>
      </trkpt>
      <trkpt lat="39.76364" lon="-7.42494">
        <ele>179.5086</ele>
        <time>2021-07-09T16:45:16Z</time>
      </trkpt>
      <trkpt lat="39.76345" lon="-7.42586">
        <ele>179.6606</ele>
        <time>2021-07-09T16:45:27Z</time>
      </trkpt>
      <trkpt lat="39.76329" lon="-7.42687">
        <ele>178.4329</ele>
        <time>2021-07-09T16:45:38Z</time>
      </trkpt>
      <trkpt lat="39.76296" lon="-7.42794">
        <ele>177.2551</ele>
        <time>2021-07-09T16:45:49Z</time>
      </trkpt>
      <trkpt lat="39.76266" lon="-7.42908">
        <ele>177.9112</ele>
        <time>2021-07-09T16:46:00Z</time>
      </trkpt>
      <trkpt lat="39.76228" lon="-7.43006">
        <ele>182.3482</ele>
        <time>2021-07-09T16:46:11Z</time>
      </trkpt>
      <trkpt lat="39.76187" lon="-7.43084">
        <ele>182.2377</ele>
        <time>2021-07-09T16:46:22Z</time>
      </trkpt>
      <trkpt lat="39.76172" lon="-7.4321">
        <ele>187.7786</ele>
        <time>2021-07-09T16:46:33Z</time>
      </trkpt>
      <trkpt lat="39.76162" lon="-7.43344">
        <ele>187.3136</ele>
        <time>2021-07-09T16:46:44Z</time>
      </trkpt>
      <trkpt lat="39.76178" lon="-7.43488">
        <ele>188.2825</ele>
        <time>2021-07-09T16:46:55Z</time>
      </trkpt>
      <trkpt lat="39.76183" lon="-7.43633">
        <ele>185.8325</ele>
        <time>2021-07-09T16:47:06Z</time>
      </trkpt>
      <trkpt lat="39.76213" lon="-7.43773">
        <ele>182.1835</ele>
        <time>2021-07-09T16:47:17Z</time>
      </trkpt>
      <trkpt lat="39.76284" lon="-7.43864">
        <ele>183.2764</ele>
        <time>2021-07-09T16:47:28Z</time>
      </trkpt>
      <trkpt lat="39.76316" lon="-7.43953">
        <ele>175.8667</ele>
        <time>2021-07-09T16:47:39Z</time>
      </trkpt>
      <trkpt lat="39.76382" lon="-7.43994">
        <ele>172.131</ele>
        <time>2021-07-09T16:47:50Z</time>
      </trkpt>
      <trkpt lat="39.76422" lon="-7.44067">
        <ele>164.1943</ele>
        <time>2021-07-09T16:48:01Z</time>
      </trkpt>
      <trkpt lat="39.7649" lon="-7.44158">
        <ele>158.8998</ele>
        <time>2021-07-09T16:48:12Z</time>
      </trkpt>
      <trkpt lat="39.76541" lon="-7.44247">
        <ele>158.0237</ele>
        <time>2021-07-09T16:48:23Z</time>
      </trkpt>
      <trkpt lat="39.76566" lon="-7.44335">
        <ele>140.1769</ele>
        <time>2021-07-09T16:48:34Z</time>
      </trkpt>
      <trkpt lat="39.76573" lon="-7.44429">
        <ele>116.0736</ele>
        <time>2021-07-09T16:48:45Z</time>
      </trkpt>
      <trkpt lat="39.76576" lon="-7.44529">
        <ele>117.833</ele>
        <time>2021-07-09T16:48:56Z</time>
      </trkpt>
      <trkpt lat="39.76579" lon="-7.44594">
        <ele>130.6466</ele>
        <time>2021-07-09T16:49:07Z</time>
      </trkpt>
      <trkpt lat="39.76572" lon="-7.44583">
        <ele>163.6436</ele>
        <time>2021-07-09T16:49:18Z</time>
      </trkpt>
      <trkpt lat="39.76569" lon="-7.44576">
        <ele>190.6652</ele>
        <time>2021-07-09T16:49:29Z</time>
      </trkpt>
      <trkpt lat="39.76573" lon="-7.44591">
        <ele>179.9427</ele>
        <time>2021-07-09T16:49:40Z</time>
      </trkpt>
      <trkpt lat="39.76579" lon="-7.44598">
        <ele>150.6786</ele>
        <time>2021-07-09T16:49:51Z</time>
      </trkpt>
      <trkpt lat="39.7658" lon="-7.44604">
        <ele>135.6439</ele>
        <time>2021-07-09T16:50:11Z</time>
      </trkpt>
      <trkpt lat="39.76601" lon="-7.44665">
        <ele>114.7145</ele>
        <time>2021-07-09T16:50:22Z</time>
      </trkpt>
      <trkpt lat="39.76596" lon="-7.44742">
        <ele>115.6206</ele>
        <time>2021-07-09T16:50:33Z</time>
      </trkpt>
      <trkpt lat="39.76571" lon="-7.44771">
        <ele>119.7293</ele>
        <time>2021-07-09T16:50:44Z</time>
      </trkpt>
      <trkpt lat="39.76511" lon="-7.44685">
        <ele>123.3383</ele>
        <time>2021-07-09T16:50:55Z</time>
      </trkpt>
      <trkpt lat="39.76482" lon="-7.44592">
        <ele>110.0198</ele>
        <time>2021-07-09T16:51:06Z</time>
      </trkpt>
      <trkpt lat="39.76498" lon="-7.44673">
        <ele>121.6838</ele>
        <time>2021-07-09T16:51:17Z</time>
      </trkpt>
      <trkpt lat="39.76567" lon="-7.44846">
        <ele>128.8824</ele>
        <time>2021-07-09T16:51:28Z</time>
      </trkpt>
      <trkpt lat="39.76538" lon="-7.44972">
        <ele>130.4069</ele>
        <time>2021-07-09T16:51:39Z</time>
      </trkpt>
      <trkpt lat="39.76491" lon="-7.45078">
        <ele>132.3681</ele>
        <time>2021-07-09T16:51:50Z</time>
      </trkpt>
      <trkpt lat="39.76464" lon="-7.45175">
        <ele>138.9553</ele>
        <time>2021-07-09T16:52:01Z</time>
      </trkpt>
      <trkpt lat="39.76423" lon="-7.45211">
        <ele>147.4466</ele>
        <time>2021-07-09T16:52:12Z</time>
      </trkpt>
      <trkpt lat="39.76348" lon="-7.45227">
        <ele>159.9574</ele>
        <time>2021-07-09T16:52:23Z</time>
      </trkpt>
      <trkpt lat="39.76284" lon="-7.45128">
        <ele>166.1115</ele>
        <time>2021-07-09T16:52:34Z</time>
      </trkpt>
      <trkpt lat="39.76211" lon="-7.45034">
        <ele>176.8724</ele>
        <time>2021-07-09T16:52:45Z</time>
      </trkpt>
      <trkpt lat="39.76147" lon="-7.44928">
        <ele>185.9056</ele>
        <time>2021-07-09T16:52:56Z</time>
      </trkpt>
      <trkpt lat="39.76029" lon="-7.44882">
        <ele>190.7209</ele>
        <time>2021-07-09T16:53:07Z</time>
      </trkpt>
      <trkpt lat="39.75916" lon="-7.44864">
        <ele>190.475</ele>
        <time>2021-07-09T16:53:18Z</time>
      </trkpt>
      <trkpt lat="39.75816" lon="-7.44947">
        <ele>189.5313</ele>
        <time>2021-07-09T16:53:29Z</time>
      </trkpt>
      <trkpt lat="39.75699" lon="-7.44932">
        <ele>194.1158</ele>
        <time>2021-07-09T16:53:40Z</time>
      </trkpt>
      <trkpt lat="39.75579" lon="-7.44976">
        <ele>198.5599</ele>
        <time>2021-07-09T16:53:51Z</time>
      </trkpt>
      <trkpt lat="39.75464" lon="-7.44928">
        <ele>200.6555</ele>
        <time>2021-07-09T16:54:02Z</time>
      </trkpt>
      <trkpt lat="39.75353" lon="-7.44845">
        <ele>202.3857</ele>
        <time>2021-07-09T16:54:13Z</time>
      </trkpt>
      <trkpt lat="39.75256" lon="-7.44785">
        <ele>203.0535</ele>
        <time>2021-07-09T16:54:24Z</time>
      </trkpt>
      <trkpt lat="39.75198" lon="-7.44851">
        <ele>205.4534</ele>
        <time>2021-07-09T16:54:35Z</time>
      </trkpt>
      <trkpt lat="39.752" lon="-7.44991">
        <ele>203.9707</ele>
        <time>2021-07-09T16:54:46Z</time>
      </trkpt>
      <trkpt lat="39.75199" lon="-7.45112">
        <ele>202.0651</ele>
        <time>2021-07-09T16:54:57Z</time>
      </trkpt>
      <trkpt lat="39.75141" lon="-7.45179">
        <ele>198.5014</ele>
        <time>2021-07-09T16:55:08Z</time>
      </trkpt>
      <trkpt lat="39.75096" lon="-7.45276">
        <ele>203.5611</ele>
        <time>2021-07-09T16:55:19Z</time>
      </trkpt>
      <trkpt lat="39.75075" lon="-7.45411">
        <ele>206.4096</ele>
        <time>2021-07-09T16:55:30Z</time>
      </trkpt>
      <trkpt lat="39.75047" lon="-7.45548">
        <ele>207.5613</ele>
        <time>2021-07-09T16:55:41Z</time>
      </trkpt>
      <trkpt lat="39.75002" lon="-7.45668">
        <ele>202.8487</ele>
        <time>2021-07-09T16:55:52Z</time>
      </trkpt>
      <trkpt lat="39.74947" lon="-7.4579">
        <ele>203.0898</ele>
        <time>2021-07-09T16:56:03Z</time>
      </trkpt>
      <trkpt lat="39.74878" lon="-7.45902">
        <ele>198.0766</ele>
        <time>2021-07-09T16:56:14Z</time>
      </trkpt>
      <trkpt lat="39.74833" lon="-7.45986">
        <ele>197.0611</ele>
        <time>2021-07-09T16:56:25Z</time>
      </trkpt>
      <trkpt lat="39.74829" lon="-7.45993">
        <ele>199.2107</ele>
        <time>2021-07-09T16:56:44Z</time>
      </trkpt>
      <trkpt lat="39.74804" lon="-7.46058">
        <ele>192.9863</ele>
        <time>2021-07-09T16:56:55Z</time>
      </trkpt>
      <trkpt lat="39.7477" lon="-7.46139">
        <ele>186.4967</ele>
        <time>2021-07-09T16:57:06Z</time>
      </trkpt>
      <trkpt lat="39.74734" lon="-7.46212">
        <ele>173.9269</ele>
        <time>2021-07-09T16:57:17Z</time>
      </trkpt>
      <trkpt lat="39.74683" lon="-7.46324">
        <ele>172.8982</ele>
        <time>2021-07-09T16:57:28Z</time>
      </trkpt>
      <trkpt lat="39.74669" lon="-7.4646">
        <ele>172.9592</ele>
        <time>2021-07-09T16:57:39Z</time>
      </trkpt>
      <trkpt lat="39.74659" lon="-7.46561">
        <ele>180.8031</ele>
        <time>2021-07-09T16:57:50Z</time>
      </trkpt>
      <trkpt lat="39.74592" lon="-7.46559">
        <ele>173.6879</ele>
        <time>2021-07-09T16:58:01Z</time>
      </trkpt>
      <trkpt lat="39.7451" lon="-7.4664">
        <ele>164.9371</ele>
        <time>2021-07-09T16:58:12Z</time>
      </trkpt>
      <trkpt lat="39.74424" lon="-7.46727">
        <ele>164.6676</ele>
        <time>2021-07-09T16:58:23Z</time>
      </trkpt>
      <trkpt lat="39.74332" lon="-7.468">
        <ele>169.3738</ele>
        <time>2021-07-09T16:58:34Z</time>
      </trkpt>
      <trkpt lat="39.74254" lon="-7.46907">
        <ele>169.9956</ele>
        <time>2021-07-09T16:58:45Z</time>
      </trkpt>
      <trkpt lat="39.7419" lon="-7.47011">
        <ele>173.3357</ele>
        <time>2021-07-09T16:58:56Z</time>
      </trkpt>
      <trkpt lat="39.74101" lon="-7.4708">
        <ele>179.804</ele>
        <time>2021-07-09T16:59:07Z</time>
      </trkpt>
      <trkpt lat="39.74016" lon="-7.47048">
        <ele>183.836</ele>
        <time>2021-07-09T16:59:18Z</time>
      </trkpt>
      <trkpt lat="39.73963" lon="-7.47023">
        <ele>189.0517</ele>
        <time>2021-07-09T16:59:29Z</time>
      </trkpt>
      <trkpt lat="39.73998" lon="-7.47129">
        <ele>187.4374</ele>
        <time>2021-07-09T16:59:40Z</time>
      </trkpt>
      <trkpt lat="39.74038" lon="-7.47203">
        <ele>167.0355</ele>
        <time>2021-07-09T16:59:51Z</time>
      </trkpt>
      <trkpt lat="39.74043" lon="-7.47287">
        <ele>125.3309</ele>
        <time>2021-07-09T17:00:02Z</time>
      </trkpt>
      <trkpt lat="39.73975" lon="-7.47314">
        <ele>132.4112</ele>
        <time>2021-07-09T17:00:13Z</time>
      </trkpt>
      <trkpt lat="39.73888" lon="-7.47348">
        <ele>121.9383</ele>
        <time>2021-07-09T17:00:24Z</time>
      </trkpt>
      <trkpt lat="39.73828" lon="-7.4743">
        <ele>163.6777</ele>
        <time>2021-07-09T17:00:35Z</time>
      </trkpt>
      <trkpt lat="39.73756" lon="-7.47505">
        <ele>173.937</ele>
        <time>2021-07-09T17:00:46Z</time>
      </trkpt>
      <trkpt lat="39.73657" lon="-7.47529">
        <ele>195.6797</ele>
        <time>2021-07-09T17:00:57Z</time>
      </trkpt>
      <trkpt lat="39.73567" lon="-7.4757">
        <ele>221.4415</ele>
        <time>2021-07-09T17:01:08Z</time>
      </trkpt>
      <trkpt lat="39.735" lon="-7.47574">
        <ele>268.7155</ele>
        <time>2021-07-09T17:01:19Z</time>
      </trkpt>
      <trkpt lat="39.73499" lon="-7.47604">
        <ele>220.8725</ele>
        <time>2021-07-09T17:01:30Z</time>
      </trkpt>
      <trkpt lat="39.73448" lon="-7.47671">
        <ele>223.3542</ele>
        <time>2021-07-09T17:01:41Z</time>
      </trkpt>
      <trkpt lat="39.73425" lon="-7.47743">
        <ele>227.241</ele>
        <time>2021-07-09T17:01:52Z</time>
      </trkpt>
      <trkpt lat="39.735" lon="-7.47867">
        <ele>224.0781</ele>
        <time>2021-07-09T17:02:03Z</time>
      </trkpt>
      <trkpt lat="39.73576" lon="-7.47926">
        <ele>219.2112</ele>
        <time>2021-07-09T17:02:14Z</time>
      </trkpt>
      <trkpt lat="39.73657" lon="-7.47981">
        <ele>218.5641</ele>
        <time>2021-07-09T17:02:25Z</time>
      </trkpt>
      <trkpt lat="39.73694" lon="-7.4809">
        <ele>216.8662</ele>
        <time>2021-07-09T17:02:36Z</time>
      </trkpt>
      <trkpt lat="39.73752" lon="-7.48175">
        <ele>212.7034</ele>
        <time>2021-07-09T17:02:47Z</time>
      </trkpt>
      <trkpt lat="39.7371" lon="-7.483">
        <ele>215.8495</ele>
        <time>2021-07-09T17:02:58Z</time>
      </trkpt>
      <trkpt lat="39.73721" lon="-7.48423">
        <ele>216.4592</ele>
        <time>2021-07-09T17:03:09Z</time>
      </trkpt>
      <trkpt lat="39.73763" lon="-7.48537">
        <ele>216.4052</ele>
        <time>2021-07-09T17:03:20Z</time>
      </trkpt>
      <trkpt lat="39.73742" lon="-7.48639">
        <ele>210.3652</ele>
        <time>2021-07-09T17:03:31Z</time>
      </trkpt>
      <trkpt lat="39.73722" lon="-7.48697">
        <ele>201.9397</ele>
        <time>2021-07-09T17:03:42Z</time>
      </trkpt>
      <trkpt lat="39.73756" lon="-7.48749">
        <ele>193.5617</ele>
        <time>2021-07-09T17:03:53Z</time>
      </trkpt>
      <trkpt lat="39.73797" lon="-7.48793">
        <ele>186.0032</ele>
        <time>2021-07-09T17:04:04Z</time>
      </trkpt>
      <trkpt lat="39.73783" lon="-7.48861">
        <ele>184.1553</ele>
        <time>2021-07-09T17:04:15Z</time>
      </trkpt>
      <trkpt lat="39.73748" lon="-7.48943">
        <ele>181.1571</ele>
        <time>2021-07-09T17:04:26Z</time>
      </trkpt>
      <trkpt lat="39.73755" lon="-7.4904">
        <ele>172.4322</ele>
        <time>2021-07-09T17:04:37Z</time>
      </trkpt>
      <trkpt lat="39.73776" lon="-7.49126">
        <ele>167.5415</ele>
        <time>2021-07-09T17:04:48Z</time>
      </trkpt>
      <trkpt lat="39.73776" lon="-7.49212">
        <ele>163.3001</ele>
        <time>2021-07-09T17:04:59Z</time>
      </trkpt>
      <trkpt lat="39.73755" lon="-7.49271">
        <ele>151.6178</ele>
        <time>2021-07-09T17:05:10Z</time>
      </trkpt>
      <trkpt lat="39.73732" lon="-7.49352">
        <ele>147.1968</ele>
        <time>2021-07-09T17:05:21Z</time>
      </trkpt>
      <trkpt lat="39.73712" lon="-7.49351">
        <ele>146.3396</ele>
        <time>2021-07-09T17:05:32Z</time>
      </trkpt>
      <trkpt lat="39.73703" lon="-7.49345">
        <ele>149.756</ele>
        <time>2021-07-09T17:05:43Z</time>
      </trkpt>
      <trkpt lat="39.73639" lon="-7.49428">
        <ele>144.4572</ele>
        <time>2021-07-09T17:05:54Z</time>
      </trkpt>
      <trkpt lat="39.73567" lon="-7.49437">
        <ele>137.5205</ele>
        <time>2021-07-09T17:06:05Z</time>
      </trkpt>
      <trkpt lat="39.73564" lon="-7.4944">
        <ele>133.5004</ele>
        <time>2021-07-09T17:06:35Z</time>
      </trkpt>
      <trkpt lat="39.73567" lon="-7.49439">
        <ele>130.783</ele>
        <time>2021-07-09T17:07:20Z</time>
      </trkpt>
      <trkpt lat="39.73567" lon="-7.49442">
        <ele>125.6953</ele>
        <time>2021-07-09T17:08:19Z</time>
      </trkpt>
      <trkpt lat="39.73566" lon="-7.49437">
        <ele>125.41</ele>
        <time>2021-07-09T17:08:38Z</time>
      </trkpt>
      <trkpt lat="39.73567" lon="-7.49435">
        <ele>127.0019</ele>
        <time>2021-07-09T17:09:37Z</time>
      </trkpt>
      <trkpt lat="39.73566" lon="-7.49434">
        <ele>127.2254</ele>
        <time>2021-07-09T17:10:37Z</time>
      </trkpt>
      <trkpt lat="39.73564" lon="-7.49438">
        <ele>126.9124</ele>
        <time>2021-07-09T17:11:36Z</time>
      </trkpt>
      <trkpt lat="39.73563" lon="-7.49436">
        <ele>125.8271</ele>
        <time>2021-07-09T17:12:35Z</time>
      </trkpt>
      <trkpt lat="39.73565" lon="-7.49435">
        <ele>126.4153</ele>
        <time>2021-07-09T17:13:35Z</time>
      </trkpt>
      <trkpt lat="39.73564" lon="-7.49434">
        <ele>122.6384</ele>
        <time>2021-07-09T17:14:35Z</time>
      </trkpt>
      <trkpt lat="39.73565" lon="-7.4944">
        <ele>125.4654</ele>
        <time>2021-07-09T17:15:02Z</time>
      </trkpt>
      <trkpt lat="39.73568" lon="-7.49437">
        <ele>121.7848</ele>
        <time>2021-07-09T17:15:21Z</time>
      </trkpt>
      <trkpt lat="39.73578" lon="-7.49437">
        <ele>119.5174</ele>
        <time>2021-07-09T17:15:32Z</time>
      </trkpt>
      <trkpt lat="39.73581" lon="-7.49446">
        <ele>117.7594</ele>
        <time>2021-07-09T17:15:43Z</time>
      </trkpt>
      <trkpt lat="39.73589" lon="-7.49452">
        <ele>115.6801</ele>
        <time>2021-07-09T17:15:54Z</time>
      </trkpt>
      <trkpt lat="39.73598" lon="-7.49455">
        <ele>112.494</ele>
        <time>2021-07-09T17:16:05Z</time>
      </trkpt>
      <trkpt lat="39.73607" lon="-7.49456">
        <ele>111.6257</ele>
        <time>2021-07-09T17:16:16Z</time>
      </trkpt>
      <trkpt lat="39.73616" lon="-7.49458">
        <ele>108.9299</ele>
        <time>2021-07-09T17:16:27Z</time>
      </trkpt>
      <trkpt lat="39.7362" lon="-7.49459">
        <ele>109.5331</ele>
        <time>2021-07-09T17:17:06Z</time>
      </trkpt>
      <trkpt lat="39.7362" lon="-7.49461">
        <ele>110.1995</ele>
        <time>2021-07-09T17:18:06Z</time>
      </trkpt>
      <trkpt lat="39.73616" lon="-7.4946">
        <ele>114.3088</ele>
        <time>2021-07-09T17:18:18Z</time>
      </trkpt>
      <trkpt lat="39.73614" lon="-7.49455">
        <ele>111.5045</ele>
        <time>2021-07-09T17:18:52Z</time>
      </trkpt>
      <trkpt lat="39.73597" lon="-7.49458">
        <ele>115.9494</ele>
        <time>2021-07-09T17:19:03Z</time>
      </trkpt>
      <trkpt lat="39.73585" lon="-7.49453">
        <ele>118.0974</ele>
        <time>2021-07-09T17:19:14Z</time>
      </trkpt>
      <trkpt lat="39.73577" lon="-7.49448">
        <ele>120.3976</ele>
        <time>2021-07-09T17:19:25Z</time>
      </trkpt>
      <trkpt lat="39.73571" lon="-7.49435">
        <ele>120.8526</ele>
        <time>2021-07-09T17:19:36Z</time>
      </trkpt>
      <trkpt lat="39.73563" lon="-7.49438">
        <ele>120.5341</ele>
        <time>2021-07-09T17:19:47Z</time>
      </trkpt>
      <trkpt lat="39.73563" lon="-7.49438">
        <ele>124.36</ele>
        <time>2021-07-09T17:20:46Z</time>
      </trkpt>
      <trkpt lat="39.73566" lon="-7.49441">
        <ele>124.6307</ele>
        <time>2021-07-09T17:21:01Z</time>
      </trkpt>
      <trkpt lat="39.73566" lon="-7.49437">
        <ele>124.028</ele>
        <time>2021-07-09T17:22:01Z</time>
      </trkpt>
      <trkpt lat="39.73564" lon="-7.49438">
        <ele>123.872</ele>
        <time>2021-07-09T17:23:00Z</time>
      </trkpt>
      <trkpt lat="39.73564" lon="-7.49438">
        <ele>123.872</ele>
        <time>2021-07-09T17:23:59Z</time>
      </trkpt>
      <trkpt lat="39.73568" lon="-7.49441">
        <ele>123.4361</ele>
        <time>2021-07-09T17:24:28Z</time>
      </trkpt>
      <trkpt lat="39.73568" lon="-7.49441">
        <ele>123.2728</ele>
        <time>2021-07-09T17:25:27Z</time>
      </trkpt>
      <trkpt lat="39.73568" lon="-7.49441">
        <ele>123.2728</ele>
        <time>2021-07-09T17:26:26Z</time>
      </trkpt>
      <trkpt lat="39.73567" lon="-7.4944">
        <ele>124.9787</ele>
        <time>2021-07-09T17:27:26Z</time>
      </trkpt>
      <trkpt lat="39.73564" lon="-7.49438">
        <ele>124.5022</ele>
        <time>2021-07-09T17:28:26Z</time>
      </trkpt>
      <trkpt lat="39.73564" lon="-7.49437">
        <ele>123.9011</ele>
        <time>2021-07-09T17:29:26Z</time>
      </trkpt>
      <trkpt lat="39.73566" lon="-7.49438">
        <ele>124.1473</ele>
        <time>2021-07-09T17:30:25Z</time>
      </trkpt>
      <trkpt lat="39.73564" lon="-7.4944">
        <ele>124.1463</ele>
        <time>2021-07-09T17:31:24Z</time>
      </trkpt>
      <trkpt lat="39.73564" lon="-7.49439">
        <ele>124.1758</ele>
        <time>2021-07-09T17:32:23Z</time>
      </trkpt>
      <trkpt lat="39.73563" lon="-7.49435">
        <ele>124.2628</ele>
        <time>2021-07-09T17:33:04Z</time>
      </trkpt>
      <trkpt lat="39.73618" lon="-7.49429">
        <ele>127.7733</ele>
        <time>2021-07-09T17:33:15Z</time>
      </trkpt>
      <trkpt lat="39.73661" lon="-7.49412">
        <ele>133.492</ele>
        <time>2021-07-09T17:33:26Z</time>
      </trkpt>
      <trkpt lat="39.7367" lon="-7.4943">
        <ele>132.2148</ele>
        <time>2021-07-09T17:33:48Z</time>
      </trkpt>
      <trkpt lat="39.73675" lon="-7.49605">
        <ele>135.4503</ele>
        <time>2021-07-09T17:33:59Z</time>
      </trkpt>
      <trkpt lat="39.73761" lon="-7.49786">
        <ele>150.8467</ele>
        <time>2021-07-09T17:34:10Z</time>
      </trkpt>
      <trkpt lat="39.73735" lon="-7.49968">
        <ele>166.8944</ele>
        <time>2021-07-09T17:34:21Z</time>
      </trkpt>
      <trkpt lat="39.73629" lon="-7.50139">
        <ele>177.6391</ele>
        <time>2021-07-09T17:34:32Z</time>
      </trkpt>
      <trkpt lat="39.73646" lon="-7.50435">
        <ele>184.0957</ele>
        <time>2021-07-09T17:34:43Z</time>
      </trkpt>
      <trkpt lat="39.73664" lon="-7.50744">
        <ele>199.7028</ele>
        <time>2021-07-09T17:34:54Z</time>
      </trkpt>
      <trkpt lat="39.73683" lon="-7.5102">
        <ele>197.2362</ele>
        <time>2021-07-09T17:35:05Z</time>
      </trkpt>
      <trkpt lat="39.73721" lon="-7.51317">
        <ele>198.3477</ele>
        <time>2021-07-09T17:35:16Z</time>
      </trkpt>
      <trkpt lat="39.73686" lon="-7.51612">
        <ele>192.6865</ele>
        <time>2021-07-09T17:35:27Z</time>
      </trkpt>
      <trkpt lat="39.73611" lon="-7.51826">
        <ele>202.2577</ele>
        <time>2021-07-09T17:35:38Z</time>
      </trkpt>
      <trkpt lat="39.734" lon="-7.51895">
        <ele>186.2536</ele>
        <time>2021-07-09T17:35:49Z</time>
      </trkpt>
      <trkpt lat="39.73174" lon="-7.51943">
        <ele>176.5319</ele>
        <time>2021-07-09T17:36:00Z</time>
      </trkpt>
      <trkpt lat="39.72953" lon="-7.52015">
        <ele>165.9309</ele>
        <time>2021-07-09T17:36:11Z</time>
      </trkpt>
      <trkpt lat="39.72738" lon="-7.52189">
        <ele>153.4048</ele>
        <time>2021-07-09T17:36:22Z</time>
      </trkpt>
      <trkpt lat="39.72539" lon="-7.52363">
        <ele>147.6507</ele>
        <time>2021-07-09T17:36:33Z</time>
      </trkpt>
      <trkpt lat="39.72385" lon="-7.52523">
        <ele>148.8587</ele>
        <time>2021-07-09T17:36:44Z</time>
      </trkpt>
      <trkpt lat="39.72295" lon="-7.52616">
        <ele>149.1295</ele>
        <time>2021-07-09T17:36:55Z</time>
      </trkpt>
      <trkpt lat="39.72243" lon="-7.52628">
        <ele>146.2353</ele>
        <time>2021-07-09T17:37:06Z</time>
      </trkpt>
      <trkpt lat="39.72222" lon="-7.52598">
        <ele>142.2363</ele>
        <time>2021-07-09T17:37:17Z</time>
      </trkpt>
      <trkpt lat="39.72221" lon="-7.52599">
        <ele>144.8688</ele>
        <time>2021-07-09T17:38:16Z</time>
      </trkpt>
      <trkpt lat="39.72224" lon="-7.52603">
        <ele>143.8691</ele>
        <time>2021-07-09T17:39:04Z</time>
      </trkpt>
      <trkpt lat="39.72242" lon="-7.52672">
        <ele>144.4857</ele>
        <time>2021-07-09T17:39:15Z</time>
      </trkpt>
      <trkpt lat="39.72135" lon="-7.52782">
        <ele>147.2549</ele>
        <time>2021-07-09T17:39:26Z</time>
      </trkpt>
      <trkpt lat="39.7206" lon="-7.52892">
        <ele>148.0329</ele>
        <time>2021-07-09T17:39:37Z</time>
      </trkpt>
      <trkpt lat="39.72009" lon="-7.52993">
        <ele>148.853</ele>
        <time>2021-07-09T17:39:48Z</time>
      </trkpt>
      <trkpt lat="39.71968" lon="-7.53151">
        <ele>150.3651</ele>
        <time>2021-07-09T17:39:59Z</time>
      </trkpt>
      <trkpt lat="39.71975" lon="-7.5332">
        <ele>152.8724</ele>
        <time>2021-07-09T17:40:10Z</time>
      </trkpt>
      <trkpt lat="39.71981" lon="-7.53461">
        <ele>158.1479</ele>
        <time>2021-07-09T17:40:21Z</time>
      </trkpt>
      <trkpt lat="39.71923" lon="-7.53485">
        <ele>158.9275</ele>
        <time>2021-07-09T17:40:32Z</time>
      </trkpt>
      <trkpt lat="39.71857" lon="-7.53548">
        <ele>155.84</ele>
        <time>2021-07-09T17:40:43Z</time>
      </trkpt>
      <trkpt lat="39.71791" lon="-7.53498">
        <ele>154.3931</ele>
        <time>2021-07-09T17:40:54Z</time>
      </trkpt>
      <trkpt lat="39.7174" lon="-7.5341">
        <ele>148.9733</ele>
        <time>2021-07-09T17:41:05Z</time>
      </trkpt>
      <trkpt lat="39.71745" lon="-7.53322">
        <ele>149.0294</ele>
        <time>2021-07-09T17:41:16Z</time>
      </trkpt>
      <trkpt lat="39.71696" lon="-7.53282">
        <ele>149.306</ele>
        <time>2021-07-09T17:41:27Z</time>
      </trkpt>
      <trkpt lat="39.71684" lon="-7.53278">
        <ele>150.5833</ele>
        <time>2021-07-09T17:41:38Z</time>
      </trkpt>
      <trkpt lat="39.71661" lon="-7.53213">
        <ele>152.3597</ele>
        <time>2021-07-09T17:41:49Z</time>
      </trkpt>
      <trkpt lat="39.71646" lon="-7.53062">
        <ele>164.3812</ele>
        <time>2021-07-09T17:42:00Z</time>
      </trkpt>
      <trkpt lat="39.71634" lon="-7.52931">
        <ele>166.0405</ele>
        <time>2021-07-09T17:42:11Z</time>
      </trkpt>
      <trkpt lat="39.71627" lon="-7.52825">
        <ele>155.258</ele>
        <time>2021-07-09T17:42:22Z</time>
      </trkpt>
      <trkpt lat="39.71653" lon="-7.52712">
        <ele>153.8658</ele>
        <time>2021-07-09T17:42:33Z</time>
      </trkpt>
      <trkpt lat="39.71631" lon="-7.526">
        <ele>167.5533</ele>
        <time>2021-07-09T17:42:44Z</time>
      </trkpt>
      <trkpt lat="39.71571" lon="-7.52456">
        <ele>177.6045</ele>
        <time>2021-07-09T17:42:55Z</time>
      </trkpt>
      <trkpt lat="39.71505" lon="-7.52352">
        <ele>182.4091</ele>
        <time>2021-07-09T17:43:06Z</time>
      </trkpt>
      <trkpt lat="39.71428" lon="-7.52222">
        <ele>191.6721</ele>
        <time>2021-07-09T17:43:17Z</time>
      </trkpt>
      <trkpt lat="39.71334" lon="-7.52137">
        <ele>188.1226</ele>
        <time>2021-07-09T17:43:28Z</time>
      </trkpt>
      <trkpt lat="39.71203" lon="-7.52031">
        <ele>195.0147</ele>
        <time>2021-07-09T17:43:39Z</time>
      </trkpt>
      <trkpt lat="39.71123" lon="-7.51917">
        <ele>204.7919</ele>
        <time>2021-07-09T17:43:50Z</time>
      </trkpt>
      <trkpt lat="39.71065" lon="-7.51783">
        <ele>215.1812</ele>
        <time>2021-07-09T17:44:01Z</time>
      </trkpt>
      <trkpt lat="39.71035" lon="-7.51645">
        <ele>224.2657</ele>
        <time>2021-07-09T17:44:12Z</time>
      </trkpt>
      <trkpt lat="39.71003" lon="-7.51507">
        <ele>231.6852</ele>
        <time>2021-07-09T17:44:23Z</time>
      </trkpt>
      <trkpt lat="39.70969" lon="-7.51382">
        <ele>236.4604</ele>
        <time>2021-07-09T17:44:34Z</time>
      </trkpt>
      <trkpt lat="39.70867" lon="-7.51256">
        <ele>241.7744</ele>
        <time>2021-07-09T17:44:45Z</time>
      </trkpt>
      <trkpt lat="39.70727" lon="-7.51186">
        <ele>247.0754</ele>
        <time>2021-07-09T17:44:56Z</time>
      </trkpt>
      <trkpt lat="39.70577" lon="-7.51149">
        <ele>248.3226</ele>
        <time>2021-07-09T17:45:07Z</time>
      </trkpt>
      <trkpt lat="39.70431" lon="-7.51201">
        <ele>246.6861</ele>
        <time>2021-07-09T17:45:18Z</time>
      </trkpt>
      <trkpt lat="39.70312" lon="-7.51186">
        <ele>248.67</ele>
        <time>2021-07-09T17:45:29Z</time>
      </trkpt>
      <trkpt lat="39.70215" lon="-7.51095">
        <ele>250.243</ele>
        <time>2021-07-09T17:45:40Z</time>
      </trkpt>
      <trkpt lat="39.70097" lon="-7.51177">
        <ele>242.2017</ele>
        <time>2021-07-09T17:45:51Z</time>
      </trkpt>
      <trkpt lat="39.70012" lon="-7.51308">
        <ele>242.3845</ele>
        <time>2021-07-09T17:46:02Z</time>
      </trkpt>
      <trkpt lat="39.6993" lon="-7.51444">
        <ele>238.9211</ele>
        <time>2021-07-09T17:46:13Z</time>
      </trkpt>
      <trkpt lat="39.69808" lon="-7.51512">
        <ele>238.6469</ele>
        <time>2021-07-09T17:46:24Z</time>
      </trkpt>
      <trkpt lat="39.6972" lon="-7.51633">
        <ele>235.9133</ele>
        <time>2021-07-09T17:46:35Z</time>
      </trkpt>
      <trkpt lat="39.69661" lon="-7.5175">
        <ele>230.6916</ele>
        <time>2021-07-09T17:46:46Z</time>
      </trkpt>
      <trkpt lat="39.69588" lon="-7.51679">
        <ele>230.5946</ele>
        <time>2021-07-09T17:46:57Z</time>
      </trkpt>
      <trkpt lat="39.6947" lon="-7.51622">
        <ele>234.1598</ele>
        <time>2021-07-09T17:47:08Z</time>
      </trkpt>
      <trkpt lat="39.69345" lon="-7.51578">
        <ele>233.323</ele>
        <time>2021-07-09T17:47:19Z</time>
      </trkpt>
      <trkpt lat="39.69222" lon="-7.51471">
        <ele>243.3965</ele>
        <time>2021-07-09T17:47:30Z</time>
      </trkpt>
      <trkpt lat="39.69106" lon="-7.51376">
        <ele>253.8229</ele>
        <time>2021-07-09T17:47:41Z</time>
      </trkpt>
      <trkpt lat="39.68978" lon="-7.51384">
        <ele>258.1215</ele>
        <time>2021-07-09T17:47:52Z</time>
      </trkpt>
      <trkpt lat="39.6891" lon="-7.51439">
        <ele>260.4865</ele>
        <time>2021-07-09T17:48:03Z</time>
      </trkpt>
      <trkpt lat="39.68912" lon="-7.5162">
        <ele>259.9015</ele>
        <time>2021-07-09T17:48:14Z</time>
      </trkpt>
      <trkpt lat="39.68912" lon="-7.51801">
        <ele>254.3278</ele>
        <time>2021-07-09T17:48:25Z</time>
      </trkpt>
      <trkpt lat="39.68901" lon="-7.51994">
        <ele>249.95</ele>
        <time>2021-07-09T17:48:36Z</time>
      </trkpt>
      <trkpt lat="39.68843" lon="-7.5215">
        <ele>257.2532</ele>
        <time>2021-07-09T17:48:47Z</time>
      </trkpt>
      <trkpt lat="39.68796" lon="-7.52279">
        <ele>260.1845</ele>
        <time>2021-07-09T17:48:58Z</time>
      </trkpt>
      <trkpt lat="39.688" lon="-7.52423">
        <ele>252.0035</ele>
        <time>2021-07-09T17:49:09Z</time>
      </trkpt>
      <trkpt lat="39.68707" lon="-7.52482">
        <ele>255.4601</ele>
        <time>2021-07-09T17:49:20Z</time>
      </trkpt>
      <trkpt lat="39.68567" lon="-7.52487">
        <ele>252.9568</ele>
        <time>2021-07-09T17:49:31Z</time>
      </trkpt>
      <trkpt lat="39.68415" lon="-7.52532">
        <ele>260.4742</ele>
        <time>2021-07-09T17:49:42Z</time>
      </trkpt>
      <trkpt lat="39.6829" lon="-7.52493">
        <ele>254.5177</ele>
        <time>2021-07-09T17:49:53Z</time>
      </trkpt>
      <trkpt lat="39.6825" lon="-7.52608">
        <ele>248.4725</ele>
        <time>2021-07-09T17:50:04Z</time>
      </trkpt>
      <trkpt lat="39.68222" lon="-7.52747">
        <ele>235.6331</ele>
        <time>2021-07-09T17:50:15Z</time>
      </trkpt>
      <trkpt lat="39.68134" lon="-7.52818">
        <ele>239.0297</ele>
        <time>2021-07-09T17:50:26Z</time>
      </trkpt>
      <trkpt lat="39.68066" lon="-7.5287">
        <ele>246.7372</ele>
        <time>2021-07-09T17:50:37Z</time>
      </trkpt>
      <trkpt lat="39.68029" lon="-7.52911">
        <ele>252.5204</ele>
        <time>2021-07-09T17:50:48Z</time>
      </trkpt>
      <trkpt lat="39.67936" lon="-7.52969">
        <ele>252.5342</ele>
        <time>2021-07-09T17:50:59Z</time>
      </trkpt>
      <trkpt lat="39.67863" lon="-7.53012">
        <ele>256.5488</ele>
        <time>2021-07-09T17:51:10Z</time>
      </trkpt>
      <trkpt lat="39.678" lon="-7.53067">
        <ele>246.5662</ele>
        <time>2021-07-09T17:51:21Z</time>
      </trkpt>
      <trkpt lat="39.67742" lon="-7.53131">
        <ele>231.0852</ele>
        <time>2021-07-09T17:51:32Z</time>
      </trkpt>
      <trkpt lat="39.67703" lon="-7.53238">
        <ele>241.3087</ele>
        <time>2021-07-09T17:51:43Z</time>
      </trkpt>
      <trkpt lat="39.67667" lon="-7.53323">
        <ele>248.5688</ele>
        <time>2021-07-09T17:51:54Z</time>
      </trkpt>
      <trkpt lat="39.67635" lon="-7.53394">
        <ele>258.4236</ele>
        <time>2021-07-09T17:52:05Z</time>
      </trkpt>
      <trkpt lat="39.67562" lon="-7.53539">
        <ele>251.2747</ele>
        <time>2021-07-09T17:52:16Z</time>
      </trkpt>
      <trkpt lat="39.67522" lon="-7.53727">
        <ele>243.5842</ele>
        <time>2021-07-09T17:52:27Z</time>
      </trkpt>
      <trkpt lat="39.67451" lon="-7.53855">
        <ele>243.4252</ele>
        <time>2021-07-09T17:52:38Z</time>
      </trkpt>
      <trkpt lat="39.67354" lon="-7.53944">
        <ele>240.8895</ele>
        <time>2021-07-09T17:52:49Z</time>
      </trkpt>
      <trkpt lat="39.67219" lon="-7.53987">
        <ele>240.7469</ele>
        <time>2021-07-09T17:53:00Z</time>
      </trkpt>
      <trkpt lat="39.67092" lon="-7.5399">
        <ele>237.7993</ele>
        <time>2021-07-09T17:53:11Z</time>
      </trkpt>
      <trkpt lat="39.67019" lon="-7.541">
        <ele>222.8244</ele>
        <time>2021-07-09T17:53:22Z</time>
      </trkpt>
      <trkpt lat="39.67018" lon="-7.54225">
        <ele>216.8104</ele>
        <time>2021-07-09T17:53:33Z</time>
      </trkpt>
      <trkpt lat="39.66974" lon="-7.54351">
        <ele>222.5915</ele>
        <time>2021-07-09T17:53:44Z</time>
      </trkpt>
      <trkpt lat="39.6685" lon="-7.54374">
        <ele>232.0378</ele>
        <time>2021-07-09T17:53:55Z</time>
      </trkpt>
      <trkpt lat="39.66753" lon="-7.54494">
        <ele>241.8576</ele>
        <time>2021-07-09T17:54:06Z</time>
      </trkpt>
      <trkpt lat="39.66665" lon="-7.54545">
        <ele>247.0384</ele>
        <time>2021-07-09T17:54:17Z</time>
      </trkpt>
      <trkpt lat="39.66658" lon="-7.54679">
        <ele>249.1805</ele>
        <time>2021-07-09T17:54:28Z</time>
      </trkpt>
      <trkpt lat="39.6667" lon="-7.5478">
        <ele>241.2162</ele>
        <time>2021-07-09T17:54:39Z</time>
      </trkpt>
      <trkpt lat="39.66692" lon="-7.5491">
        <ele>229.3852</ele>
        <time>2021-07-09T17:54:50Z</time>
      </trkpt>
      <trkpt lat="39.66691" lon="-7.55012">
        <ele>220.0507</ele>
        <time>2021-07-09T17:55:01Z</time>
      </trkpt>
      <trkpt lat="39.66659" lon="-7.55132">
        <ele>210.4093</ele>
        <time>2021-07-09T17:55:12Z</time>
      </trkpt>
      <trkpt lat="39.66644" lon="-7.55269">
        <ele>208.1634</ele>
        <time>2021-07-09T17:55:23Z</time>
      </trkpt>
      <trkpt lat="39.66598" lon="-7.55344">
        <ele>202.9886</ele>
        <time>2021-07-09T17:55:34Z</time>
      </trkpt>
      <trkpt lat="39.66511" lon="-7.55372">
        <ele>196.9933</ele>
        <time>2021-07-09T17:55:45Z</time>
      </trkpt>
      <trkpt lat="39.66521" lon="-7.55423">
        <ele>191.0375</ele>
        <time>2021-07-09T17:55:56Z</time>
      </trkpt>
      <trkpt lat="39.66554" lon="-7.55509">
        <ele>186.2888</ele>
        <time>2021-07-09T17:56:07Z</time>
      </trkpt>
      <trkpt lat="39.6663" lon="-7.55611">
        <ele>181.7723</ele>
        <time>2021-07-09T17:56:18Z</time>
      </trkpt>
      <trkpt lat="39.66667" lon="-7.55683">
        <ele>178.7291</ele>
        <time>2021-07-09T17:56:29Z</time>
      </trkpt>
      <trkpt lat="39.66703" lon="-7.55721">
        <ele>173.6294</ele>
        <time>2021-07-09T17:56:40Z</time>
      </trkpt>
      <trkpt lat="39.66768" lon="-7.55757">
        <ele>163.1899</ele>
        <time>2021-07-09T17:56:51Z</time>
      </trkpt>
      <trkpt lat="39.66806" lon="-7.55781">
        <ele>155.0663</ele>
        <time>2021-07-09T17:57:02Z</time>
      </trkpt>
      <trkpt lat="39.66766" lon="-7.55823">
        <ele>148.6332</ele>
        <time>2021-07-09T17:57:13Z</time>
      </trkpt>
      <trkpt lat="39.66775" lon="-7.55862">
        <ele>144.2168</ele>
        <time>2021-07-09T17:57:24Z</time>
      </trkpt>
      <trkpt lat="39.66834" lon="-7.5587">
        <ele>132.2179</ele>
        <time>2021-07-09T17:57:35Z</time>
      </trkpt>
      <trkpt lat="39.6694" lon="-7.55902">
        <ele>129.9632</ele>
        <time>2021-07-09T17:57:46Z</time>
      </trkpt>
      <trkpt lat="39.66993" lon="-7.55937">
        <ele>140.8916</ele>
        <time>2021-07-09T17:57:57Z</time>
      </trkpt>
      <trkpt lat="39.67024" lon="-7.56095">
        <ele>160.6351</ele>
        <time>2021-07-09T17:58:08Z</time>
      </trkpt>
      <trkpt lat="39.67036" lon="-7.56218">
        <ele>179.6467</ele>
        <time>2021-07-09T17:58:19Z</time>
      </trkpt>
      <trkpt lat="39.66998" lon="-7.56331">
        <ele>191.5531</ele>
        <time>2021-07-09T17:58:30Z</time>
      </trkpt>
      <trkpt lat="39.66973" lon="-7.56452">
        <ele>189.9946</ele>
        <time>2021-07-09T17:58:41Z</time>
      </trkpt>
      <trkpt lat="39.66933" lon="-7.56612">
        <ele>194.037</ele>
        <time>2021-07-09T17:58:52Z</time>
      </trkpt>
      <trkpt lat="39.66912" lon="-7.56774">
        <ele>192.8636</ele>
        <time>2021-07-09T17:59:03Z</time>
      </trkpt>
      <trkpt lat="39.66961" lon="-7.56874">
        <ele>194.5918</ele>
        <time>2021-07-09T17:59:14Z</time>
      </trkpt>
      <trkpt lat="39.66986" lon="-7.56975">
        <ele>199.6385</ele>
        <time>2021-07-09T17:59:25Z</time>
      </trkpt>
      <trkpt lat="39.6698" lon="-7.56979">
        <ele>200.1118</ele>
        <time>2021-07-09T17:59:36Z</time>
      </trkpt>
      <trkpt lat="39.6693" lon="-7.56997">
        <ele>197.8748</ele>
        <time>2021-07-09T17:59:47Z</time>
      </trkpt>
      <trkpt lat="39.6684" lon="-7.57029">
        <ele>184.139</ele>
        <time>2021-07-09T17:59:58Z</time>
      </trkpt>
      <trkpt lat="39.66791" lon="-7.57126">
        <ele>184.9881</ele>
        <time>2021-07-09T18:00:09Z</time>
      </trkpt>
      <trkpt lat="39.66735" lon="-7.57217">
        <ele>174.5543</ele>
        <time>2021-07-09T18:00:20Z</time>
      </trkpt>
      <trkpt lat="39.66709" lon="-7.57315">
        <ele>183.3208</ele>
        <time>2021-07-09T18:00:31Z</time>
      </trkpt>
      <trkpt lat="39.66747" lon="-7.57403">
        <ele>189.1085</ele>
        <time>2021-07-09T18:00:42Z</time>
      </trkpt>
      <trkpt lat="39.6675" lon="-7.5744">
        <ele>192.7603</ele>
        <time>2021-07-09T18:00:53Z</time>
      </trkpt>
      <trkpt lat="39.66686" lon="-7.57512">
        <ele>207.8343</ele>
        <time>2021-07-09T18:01:04Z</time>
      </trkpt>
      <trkpt lat="39.66653" lon="-7.57585">
        <ele>217.5127</ele>
        <time>2021-07-09T18:01:15Z</time>
      </trkpt>
      <trkpt lat="39.66695" lon="-7.57666">
        <ele>209.0553</ele>
        <time>2021-07-09T18:01:26Z</time>
      </trkpt>
      <trkpt lat="39.66752" lon="-7.57804">
        <ele>191.2182</ele>
        <time>2021-07-09T18:01:37Z</time>
      </trkpt>
      <trkpt lat="39.66729" lon="-7.57954">
        <ele>181.4372</ele>
        <time>2021-07-09T18:01:48Z</time>
      </trkpt>
      <trkpt lat="39.66717" lon="-7.58137">
        <ele>180.8579</ele>
        <time>2021-07-09T18:01:59Z</time>
      </trkpt>
      <trkpt lat="39.66807" lon="-7.583">
        <ele>177.4806</ele>
        <time>2021-07-09T18:02:10Z</time>
      </trkpt>
      <trkpt lat="39.66938" lon="-7.58445">
        <ele>164.3152</ele>
        <time>2021-07-09T18:02:21Z</time>
      </trkpt>
      <trkpt lat="39.67091" lon="-7.5853">
        <ele>151.1491</ele>
        <time>2021-07-09T18:02:32Z</time>
      </trkpt>
      <trkpt lat="39.67097" lon="-7.58656">
        <ele>137.2752</ele>
        <time>2021-07-09T18:02:43Z</time>
      </trkpt>
      <trkpt lat="39.67198" lon="-7.58865">
        <ele>123.8986</ele>
        <time>2021-07-09T18:02:54Z</time>
      </trkpt>
      <trkpt lat="39.67222" lon="-7.59127">
        <ele>130.4964</ele>
        <time>2021-07-09T18:03:05Z</time>
      </trkpt>
      <trkpt lat="39.67115" lon="-7.59324">
        <ele>138.2129</ele>
        <time>2021-07-09T18:03:16Z</time>
      </trkpt>
      <trkpt lat="39.67076" lon="-7.59324">
        <ele>139.3633</ele>
        <time>2021-07-09T18:03:27Z</time>
      </trkpt>
      <trkpt lat="39.67048" lon="-7.59247">
        <ele>143.4094</ele>
        <time>2021-07-09T18:03:38Z</time>
      </trkpt>
      <trkpt lat="39.66985" lon="-7.59248">
        <ele>141.976</ele>
        <time>2021-07-09T18:03:49Z</time>
      </trkpt>
      <trkpt lat="39.66892" lon="-7.59315">
        <ele>117.3321</ele>
        <time>2021-07-09T18:04:00Z</time>
      </trkpt>
      <trkpt lat="39.66814" lon="-7.59343">
        <ele>116.2367</ele>
        <time>2021-07-09T18:04:11Z</time>
      </trkpt>
      <trkpt lat="39.66746" lon="-7.59369">
        <ele>118.7993</ele>
        <time>2021-07-09T18:04:22Z</time>
      </trkpt>
      <trkpt lat="39.66663" lon="-7.59368">
        <ele>117.2916</ele>
        <time>2021-07-09T18:04:33Z</time>
      </trkpt>
      <trkpt lat="39.66535" lon="-7.5937">
        <ele>126.6621</ele>
        <time>2021-07-09T18:04:44Z</time>
      </trkpt>
      <trkpt lat="39.66411" lon="-7.59399">
        <ele>143.4399</ele>
        <time>2021-07-09T18:04:55Z</time>
      </trkpt>
      <trkpt lat="39.66304" lon="-7.59423">
        <ele>145.8741</ele>
        <time>2021-07-09T18:05:06Z</time>
      </trkpt>
      <trkpt lat="39.66242" lon="-7.59439">
        <ele>128.5596</ele>
        <time>2021-07-09T18:05:17Z</time>
      </trkpt>
      <trkpt lat="39.66205" lon="-7.59428">
        <ele>117.1813</ele>
        <time>2021-07-09T18:05:29Z</time>
      </trkpt>
      <trkpt lat="39.66198" lon="-7.59451">
        <ele>110.79</ele>
        <time>2021-07-09T18:05:40Z</time>
      </trkpt>
      <trkpt lat="39.66181" lon="-7.59481">
        <ele>114.5016</ele>
        <time>2021-07-09T18:05:51Z</time>
      </trkpt>
      <trkpt lat="39.6616" lon="-7.59484">
        <ele>115.0262</ele>
        <time>2021-07-09T18:06:02Z</time>
      </trkpt>
      <trkpt lat="39.66148" lon="-7.59496">
        <ele>118.3257</ele>
        <time>2021-07-09T18:06:13Z</time>
      </trkpt>
      <trkpt lat="39.66147" lon="-7.59497">
        <ele>115.356</ele>
        <time>2021-07-09T18:07:12Z</time>
      </trkpt>
      <trkpt lat="39.66147" lon="-7.59497">
        <ele>115.356</ele>
        <time>2021-07-09T18:08:12Z</time>
      </trkpt>
      <trkpt lat="39.66147" lon="-7.59497">
        <ele>115.356</ele>
        <time>2021-07-09T18:09:11Z</time>
      </trkpt>
      <trkpt lat="39.66142" lon="-7.59505">
        <ele>114.3636</ele>
        <time>2021-07-09T18:09:55Z</time>
      </trkpt>
      <trkpt lat="39.66075" lon="-7.59571">
        <ele>132.8831</ele>
        <time>2021-07-09T18:10:06Z</time>
      </trkpt>
      <trkpt lat="39.66004" lon="-7.59609">
        <ele>134.6325</ele>
        <time>2021-07-09T18:10:17Z</time>
      </trkpt>
      <trkpt lat="39.66002" lon="-7.59611">
        <ele>134.9664</ele>
        <time>2021-07-09T18:11:17Z</time>
      </trkpt>
      <trkpt lat="39.66002" lon="-7.59612">
        <ele>137.736</ele>
        <time>2021-07-09T18:12:17Z</time>
      </trkpt>
      <trkpt lat="39.66003" lon="-7.5961">
        <ele>140.5653</ele>
        <time>2021-07-09T18:13:17Z</time>
      </trkpt>
      <trkpt lat="39.66003" lon="-7.5961">
        <ele>141.0163</ele>
        <time>2021-07-09T18:14:17Z</time>
      </trkpt>
      <trkpt lat="39.66002" lon="-7.5961">
        <ele>141.5938</ele>
        <time>2021-07-09T18:15:16Z</time>
      </trkpt>
      <trkpt lat="39.66002" lon="-7.59613">
        <ele>141.3108</ele>
        <time>2021-07-09T18:16:16Z</time>
      </trkpt>
      <trkpt lat="39.66003" lon="-7.59608">
        <ele>144.224</ele>
        <time>2021-07-09T18:16:40Z</time>
      </trkpt>
      <trkpt lat="39.66006" lon="-7.59606">
        <ele>143.9057</ele>
        <time>2021-07-09T18:17:10Z</time>
      </trkpt>
      <trkpt lat="39.66004" lon="-7.59612">
        <ele>144.9986</ele>
        <time>2021-07-09T18:17:21Z</time>
      </trkpt>
      <trkpt lat="39.66004" lon="-7.59613">
        <ele>147.4128</ele>
        <time>2021-07-09T18:18:21Z</time>
      </trkpt>
      <trkpt lat="39.66003" lon="-7.59613">
        <ele>145.6018</ele>
        <time>2021-07-09T18:19:21Z</time>
      </trkpt>
      <trkpt lat="39.66002" lon="-7.59614">
        <ele>146.216</ele>
        <time>2021-07-09T18:20:20Z</time>
      </trkpt>
      <trkpt lat="39.66002" lon="-7.59609">
        <ele>145.2185</ele>
        <time>2021-07-09T18:21:11Z</time>
      </trkpt>
      <trkpt lat="39.66003" lon="-7.5961">
        <ele>144.9795</ele>
        <time>2021-07-09T18:22:10Z</time>
      </trkpt>
      <trkpt lat="39.65999" lon="-7.5961">
        <ele>145.2689</ele>
        <time>2021-07-09T18:22:29Z</time>
      </trkpt>
      <trkpt lat="39.6599" lon="-7.59615">
        <ele>146.6477</ele>
        <time>2021-07-09T18:22:47Z</time>
      </trkpt>
      <trkpt lat="39.65938" lon="-7.59633">
        <ele>140.8066</ele>
        <time>2021-07-09T18:22:58Z</time>
      </trkpt>
      <trkpt lat="39.65915" lon="-7.5964">
        <ele>136.5128</ele>
        <time>2021-07-09T18:23:09Z</time>
      </trkpt>
      <trkpt lat="39.65891" lon="-7.59641">
        <ele>130.6094</ele>
        <time>2021-07-09T18:23:20Z</time>
      </trkpt>
      <trkpt lat="39.65856" lon="-7.59654">
        <ele>123.3442</ele>
        <time>2021-07-09T18:23:31Z</time>
      </trkpt>
      <trkpt lat="39.65774" lon="-7.59671">
        <ele>146.4693</ele>
        <time>2021-07-09T18:23:42Z</time>
      </trkpt>
      <trkpt lat="39.65765" lon="-7.59672">
        <ele>143.8568</ele>
        <time>2021-07-09T18:23:53Z</time>
      </trkpt>
      <trkpt lat="39.65759" lon="-7.59669">
        <ele>142.9933</ele>
        <time>2021-07-09T18:24:06Z</time>
      </trkpt>
      <trkpt lat="39.65741" lon="-7.59656">
        <ele>139.4413</ele>
        <time>2021-07-09T18:24:17Z</time>
      </trkpt>
      <trkpt lat="39.65718" lon="-7.5964">
        <ele>130.8869</ele>
        <time>2021-07-09T18:24:28Z</time>
      </trkpt>
      <trkpt lat="39.65685" lon="-7.59621">
        <ele>121.2798</ele>
        <time>2021-07-09T18:24:39Z</time>
      </trkpt>
      <trkpt lat="39.65598" lon="-7.59585">
        <ele>136.0084</ele>
        <time>2021-07-09T18:24:50Z</time>
      </trkpt>
      <trkpt lat="39.65571" lon="-7.59611">
        <ele>137.3097</ele>
        <time>2021-07-09T18:25:01Z</time>
      </trkpt>
      <trkpt lat="39.65568" lon="-7.59752">
        <ele>144.7305</ele>
        <time>2021-07-09T18:25:12Z</time>
      </trkpt>
      <trkpt lat="39.65537" lon="-7.59905">
        <ele>152.8105</ele>
        <time>2021-07-09T18:25:23Z</time>
      </trkpt>
      <trkpt lat="39.65448" lon="-7.59976">
        <ele>155.3255</ele>
        <time>2021-07-09T18:25:34Z</time>
      </trkpt>
      <trkpt lat="39.65438" lon="-7.60059">
        <ele>147.4551</ele>
        <time>2021-07-09T18:25:45Z</time>
      </trkpt>
      <trkpt lat="39.65455" lon="-7.60149">
        <ele>147.9178</ele>
        <time>2021-07-09T18:25:56Z</time>
      </trkpt>
      <trkpt lat="39.65475" lon="-7.60179">
        <ele>148.303</ele>
        <time>2021-07-09T18:26:07Z</time>
      </trkpt>
      <trkpt lat="39.65479" lon="-7.60187">
        <ele>149.8599</ele>
        <time>2021-07-09T18:26:25Z</time>
      </trkpt>
      <trkpt lat="39.65529" lon="-7.6027">
        <ele>151.635</ele>
        <time>2021-07-09T18:26:36Z</time>
      </trkpt>
      <trkpt lat="39.65555" lon="-7.60344">
        <ele>154.7182</ele>
        <time>2021-07-09T18:26:47Z</time>
      </trkpt>
      <trkpt lat="39.65574" lon="-7.60416">
        <ele>163.198</ele>
        <time>2021-07-09T18:26:58Z</time>
      </trkpt>
      <trkpt lat="39.65606" lon="-7.60526">
        <ele>170.2928</ele>
        <time>2021-07-09T18:27:09Z</time>
      </trkpt>
      <trkpt lat="39.65632" lon="-7.60622">
        <ele>182.3467</ele>
        <time>2021-07-09T18:27:20Z</time>
      </trkpt>
      <trkpt lat="39.65679" lon="-7.60749">
        <ele>190.8339</ele>
        <time>2021-07-09T18:27:31Z</time>
      </trkpt>
      <trkpt lat="39.65704" lon="-7.6082">
        <ele>196.1666</ele>
        <time>2021-07-09T18:27:42Z</time>
      </trkpt>
      <trkpt lat="39.65701" lon="-7.60827">
        <ele>194.9129</ele>
        <time>2021-07-09T18:28:02Z</time>
      </trkpt>
      <trkpt lat="39.65639" lon="-7.60932">
        <ele>186.4033</ele>
        <time>2021-07-09T18:28:13Z</time>
      </trkpt>
      <trkpt lat="39.65559" lon="-7.61023">
        <ele>193.959</ele>
        <time>2021-07-09T18:28:24Z</time>
      </trkpt>
      <trkpt lat="39.65475" lon="-7.61099">
        <ele>201.7579</ele>
        <time>2021-07-09T18:28:35Z</time>
      </trkpt>
      <trkpt lat="39.65411" lon="-7.61179">
        <ele>200.0737</ele>
        <time>2021-07-09T18:28:46Z</time>
      </trkpt>
      <trkpt lat="39.6536" lon="-7.61287">
        <ele>192.6586</ele>
        <time>2021-07-09T18:28:57Z</time>
      </trkpt>
      <trkpt lat="39.65294" lon="-7.61353">
        <ele>192.6408</ele>
        <time>2021-07-09T18:29:08Z</time>
      </trkpt>
      <trkpt lat="39.65186" lon="-7.61371">
        <ele>194.2703</ele>
        <time>2021-07-09T18:29:19Z</time>
      </trkpt>
      <trkpt lat="39.65066" lon="-7.61383">
        <ele>195.6242</ele>
        <time>2021-07-09T18:29:30Z</time>
      </trkpt>
      <trkpt lat="39.64951" lon="-7.61383">
        <ele>196.2872</ele>
        <time>2021-07-09T18:29:41Z</time>
      </trkpt>
      <trkpt lat="39.6484" lon="-7.61402">
        <ele>192.9465</ele>
        <time>2021-07-09T18:29:52Z</time>
      </trkpt>
      <trkpt lat="39.64752" lon="-7.61491">
        <ele>188.2667</ele>
        <time>2021-07-09T18:30:03Z</time>
      </trkpt>
      <trkpt lat="39.64684" lon="-7.61611">
        <ele>187.9781</ele>
        <time>2021-07-09T18:30:14Z</time>
      </trkpt>
      <trkpt lat="39.64628" lon="-7.61727">
        <ele>171.83</ele>
        <time>2021-07-09T18:30:25Z</time>
      </trkpt>
      <trkpt lat="39.64554" lon="-7.61812">
        <ele>179.617</ele>
        <time>2021-07-09T18:30:36Z</time>
      </trkpt>
      <trkpt lat="39.645" lon="-7.61895">
        <ele>173.4427</ele>
        <time>2021-07-09T18:30:47Z</time>
      </trkpt>
      <trkpt lat="39.64462" lon="-7.6196">
        <ele>162.1553</ele>
        <time>2021-07-09T18:30:58Z</time>
      </trkpt>
      <trkpt lat="39.64405" lon="-7.62032">
        <ele>181.1733</ele>
        <time>2021-07-09T18:31:09Z</time>
      </trkpt>
      <trkpt lat="39.64322" lon="-7.62088">
        <ele>187.8119</ele>
        <time>2021-07-09T18:31:20Z</time>
      </trkpt>
      <trkpt lat="39.64237" lon="-7.62107">
        <ele>171.7655</ele>
        <time>2021-07-09T18:31:31Z</time>
      </trkpt>
      <trkpt lat="39.64138" lon="-7.62096">
        <ele>162.513</ele>
        <time>2021-07-09T18:31:42Z</time>
      </trkpt>
      <trkpt lat="39.64035" lon="-7.62048">
        <ele>181.0709</ele>
        <time>2021-07-09T18:31:53Z</time>
      </trkpt>
      <trkpt lat="39.63933" lon="-7.62078">
        <ele>181.7055</ele>
        <time>2021-07-09T18:32:04Z</time>
      </trkpt>
      <trkpt lat="39.63835" lon="-7.62112">
        <ele>177.9954</ele>
        <time>2021-07-09T18:32:15Z</time>
      </trkpt>
      <trkpt lat="39.63757" lon="-7.62184">
        <ele>178.0336</ele>
        <time>2021-07-09T18:32:26Z</time>
      </trkpt>
      <trkpt lat="39.6371" lon="-7.62278">
        <ele>176.4345</ele>
        <time>2021-07-09T18:32:37Z</time>
      </trkpt>
      <trkpt lat="39.63718" lon="-7.62429">
        <ele>178.8036</ele>
        <time>2021-07-09T18:32:48Z</time>
      </trkpt>
      <trkpt lat="39.63723" lon="-7.62577">
        <ele>181.9396</ele>
        <time>2021-07-09T18:32:59Z</time>
      </trkpt>
      <trkpt lat="39.63727" lon="-7.62722">
        <ele>180.6335</ele>
        <time>2021-07-09T18:33:10Z</time>
      </trkpt>
      <trkpt lat="39.63729" lon="-7.62864">
        <ele>180.296</ele>
        <time>2021-07-09T18:33:21Z</time>
      </trkpt>
      <trkpt lat="39.63741" lon="-7.63004">
        <ele>180.0837</ele>
        <time>2021-07-09T18:33:32Z</time>
      </trkpt>
      <trkpt lat="39.63732" lon="-7.63153">
        <ele>177.4843</ele>
        <time>2021-07-09T18:33:43Z</time>
      </trkpt>
      <trkpt lat="39.63738" lon="-7.6329">
        <ele>176.2333</ele>
        <time>2021-07-09T18:33:54Z</time>
      </trkpt>
      <trkpt lat="39.63737" lon="-7.63443">
        <ele>181.0292</ele>
        <time>2021-07-09T18:34:05Z</time>
      </trkpt>
      <trkpt lat="39.63731" lon="-7.63617">
        <ele>181.548</ele>
        <time>2021-07-09T18:34:16Z</time>
      </trkpt>
      <trkpt lat="39.6374" lon="-7.63773">
        <ele>177.6698</ele>
        <time>2021-07-09T18:34:27Z</time>
      </trkpt>
      <trkpt lat="39.63805" lon="-7.63897">
        <ele>179.011</ele>
        <time>2021-07-09T18:34:38Z</time>
      </trkpt>
      <trkpt lat="39.6385" lon="-7.63973">
        <ele>182.7296</ele>
        <time>2021-07-09T18:34:49Z</time>
      </trkpt>
      <trkpt lat="39.63866" lon="-7.63987">
        <ele>180.3482</ele>
        <time>2021-07-09T18:35:01Z</time>
      </trkpt>
      <trkpt lat="39.63863" lon="-7.63985">
        <ele>182.7274</ele>
        <time>2021-07-09T18:35:35Z</time>
      </trkpt>
      <trkpt lat="39.63866" lon="-7.63987">
        <ele>180.3585</ele>
        <time>2021-07-09T18:36:24Z</time>
      </trkpt>
      <trkpt lat="39.63869" lon="-7.63993">
        <ele>181.3035</ele>
        <time>2021-07-09T18:37:03Z</time>
      </trkpt>
      <trkpt lat="39.63898" lon="-7.64127">
        <ele>181.1375</ele>
        <time>2021-07-09T18:37:14Z</time>
      </trkpt>
      <trkpt lat="39.63938" lon="-7.643">
        <ele>181.0677</ele>
        <time>2021-07-09T18:37:25Z</time>
      </trkpt>
      <trkpt lat="39.6396" lon="-7.64426">
        <ele>178.5361</ele>
        <time>2021-07-09T18:37:36Z</time>
      </trkpt>
      <trkpt lat="39.64006" lon="-7.64455">
        <ele>171.2528</ele>
        <time>2021-07-09T18:37:47Z</time>
      </trkpt>
      <trkpt lat="39.64056" lon="-7.64502">
        <ele>160.1408</ele>
        <time>2021-07-09T18:37:58Z</time>
      </trkpt>
      <trkpt lat="39.64137" lon="-7.64592">
        <ele>153.28</ele>
        <time>2021-07-09T18:38:09Z</time>
      </trkpt>
      <trkpt lat="39.64208" lon="-7.64721">
        <ele>148.9832</ele>
        <time>2021-07-09T18:38:20Z</time>
      </trkpt>
      <trkpt lat="39.64318" lon="-7.64777">
        <ele>150.1242</ele>
        <time>2021-07-09T18:38:31Z</time>
      </trkpt>
      <trkpt lat="39.64411" lon="-7.64841">
        <ele>141.6503</ele>
        <time>2021-07-09T18:38:42Z</time>
      </trkpt>
      <trkpt lat="39.64515" lon="-7.64873">
        <ele>136.6335</ele>
        <time>2021-07-09T18:38:53Z</time>
      </trkpt>
      <trkpt lat="39.64598" lon="-7.64969">
        <ele>131.0997</ele>
        <time>2021-07-09T18:39:04Z</time>
      </trkpt>
      <trkpt lat="39.64676" lon="-7.65074">
        <ele>129.5693</ele>
        <time>2021-07-09T18:39:15Z</time>
      </trkpt>
      <trkpt lat="39.64752" lon="-7.65163">
        <ele>125.3522</ele>
        <time>2021-07-09T18:39:26Z</time>
      </trkpt>
      <trkpt lat="39.64822" lon="-7.65252">
        <ele>122.6376</ele>
        <time>2021-07-09T18:39:37Z</time>
      </trkpt>
      <trkpt lat="39.64882" lon="-7.65331">
        <ele>110.7854</ele>
        <time>2021-07-09T18:39:48Z</time>
      </trkpt>
      <trkpt lat="39.64927" lon="-7.6537">
        <ele>110.5065</ele>
        <time>2021-07-09T18:39:59Z</time>
      </trkpt>
      <trkpt lat="39.65021" lon="-7.65324">
        <ele>101.6017</ele>
        <time>2021-07-09T18:40:10Z</time>
      </trkpt>
      <trkpt lat="39.651" lon="-7.65387">
        <ele>87.15374</ele>
        <time>2021-07-09T18:40:21Z</time>
      </trkpt>
      <trkpt lat="39.65198" lon="-7.65512">
        <ele>95.80061</ele>
        <time>2021-07-09T18:40:32Z</time>
      </trkpt>
      <trkpt lat="39.65315" lon="-7.65593">
        <ele>102.6389</ele>
        <time>2021-07-09T18:40:43Z</time>
      </trkpt>
      <trkpt lat="39.65403" lon="-7.65608">
        <ele>105.3576</ele>
        <time>2021-07-09T18:40:54Z</time>
      </trkpt>
      <trkpt lat="39.65446" lon="-7.65697">
        <ele>100.5597</ele>
        <time>2021-07-09T18:41:05Z</time>
      </trkpt>
      <trkpt lat="39.65475" lon="-7.65781">
        <ele>87.62699</ele>
        <time>2021-07-09T18:41:16Z</time>
      </trkpt>
      <trkpt lat="39.65553" lon="-7.65797">
        <ele>82.633</ele>
        <time>2021-07-09T18:41:27Z</time>
      </trkpt>
      <trkpt lat="39.65629" lon="-7.65779">
        <ele>85.53667</ele>
        <time>2021-07-09T18:41:38Z</time>
      </trkpt>
      <trkpt lat="39.65656" lon="-7.65773">
        <ele>91.79613</ele>
        <time>2021-07-09T18:41:49Z</time>
      </trkpt>
      <trkpt lat="39.65631" lon="-7.65957">
        <ele>102.5361</ele>
        <time>2021-07-09T18:42:00Z</time>
      </trkpt>
      <trkpt lat="39.65665" lon="-7.66028">
        <ele>118.3936</ele>
        <time>2021-07-09T18:42:11Z</time>
      </trkpt>
      <trkpt lat="39.65672" lon="-7.66045">
        <ele>122.4597</ele>
        <time>2021-07-09T18:42:22Z</time>
      </trkpt>
      <trkpt lat="39.65674" lon="-7.66049">
        <ele>97.55235</ele>
        <time>2021-07-09T18:42:49Z</time>
      </trkpt>
      <trkpt lat="39.65676" lon="-7.66051">
        <ele>85.44991</ele>
        <time>2021-07-09T18:43:49Z</time>
      </trkpt>
      <trkpt lat="39.65676" lon="-7.66051">
        <ele>85.44991</ele>
        <time>2021-07-09T18:44:49Z</time>
      </trkpt>
      <trkpt lat="39.65678" lon="-7.66055">
        <ele>80.66017</ele>
        <time>2021-07-09T18:45:18Z</time>
      </trkpt>
      <trkpt lat="39.65681" lon="-7.6606">
        <ele>84.16101</ele>
        <time>2021-07-09T18:45:36Z</time>
      </trkpt>
      <trkpt lat="39.65685" lon="-7.66059">
        <ele>75.11323</ele>
        <time>2021-07-09T18:45:47Z</time>
      </trkpt>
      <trkpt lat="39.65682" lon="-7.66055">
        <ele>84.47732</ele>
        <time>2021-07-09T18:46:13Z</time>
      </trkpt>
      <trkpt lat="39.65679" lon="-7.66055">
        <ele>83.15912</ele>
        <time>2021-07-09T18:46:24Z</time>
      </trkpt>
      <trkpt lat="39.65682" lon="-7.66055">
        <ele>91.40732</ele>
        <time>2021-07-09T18:46:55Z</time>
      </trkpt>
      <trkpt lat="39.65679" lon="-7.66054">
        <ele>92.61987</ele>
        <time>2021-07-09T18:47:53Z</time>
      </trkpt>
      <trkpt lat="39.65679" lon="-7.66059">
        <ele>93.22411</ele>
        <time>2021-07-09T18:48:12Z</time>
      </trkpt>
      <trkpt lat="39.65678" lon="-7.66059">
        <ele>92.96711</ele>
        <time>2021-07-09T18:49:12Z</time>
      </trkpt>
      <trkpt lat="39.65679" lon="-7.6606">
        <ele>92.33004</ele>
        <time>2021-07-09T18:50:12Z</time>
      </trkpt>
      <trkpt lat="39.65672" lon="-7.66076">
        <ele>91.83532</ele>
        <time>2021-07-09T18:50:23Z</time>
      </trkpt>
      <trkpt lat="39.65653" lon="-7.66096">
        <ele>94.4236</ele>
        <time>2021-07-09T18:50:34Z</time>
      </trkpt>
      <trkpt lat="39.65678" lon="-7.66214">
        <ele>96.60066</ele>
        <time>2021-07-09T18:50:45Z</time>
      </trkpt>
      <trkpt lat="39.65665" lon="-7.6645">
        <ele>101.1769</ele>
        <time>2021-07-09T18:50:56Z</time>
      </trkpt>
      <trkpt lat="39.65571" lon="-7.66657">
        <ele>92.91301</ele>
        <time>2021-07-09T18:51:07Z</time>
      </trkpt>
      <trkpt lat="39.65467" lon="-7.66846">
        <ele>81.72276</ele>
        <time>2021-07-09T18:51:18Z</time>
      </trkpt>
      <trkpt lat="39.65349" lon="-7.66975">
        <ele>85.46503</ele>
        <time>2021-07-09T18:51:29Z</time>
      </trkpt>
      <trkpt lat="39.65287" lon="-7.67129">
        <ele>97.89075</ele>
        <time>2021-07-09T18:51:40Z</time>
      </trkpt>
      <trkpt lat="39.65219" lon="-7.67293">
        <ele>101.7297</ele>
        <time>2021-07-09T18:51:51Z</time>
      </trkpt>
      <trkpt lat="39.65043" lon="-7.67375">
        <ele>101.6415</ele>
        <time>2021-07-09T18:52:02Z</time>
      </trkpt>
      <trkpt lat="39.64896" lon="-7.67553">
        <ele>104.3171</ele>
        <time>2021-07-09T18:52:13Z</time>
      </trkpt>
      <trkpt lat="39.64779" lon="-7.67706">
        <ele>99.96641</ele>
        <time>2021-07-09T18:52:24Z</time>
      </trkpt>
      <trkpt lat="39.64636" lon="-7.6761">
        <ele>100.5917</ele>
        <time>2021-07-09T18:52:35Z</time>
      </trkpt>
      <trkpt lat="39.64629" lon="-7.67413">
        <ele>108.2853</ele>
        <time>2021-07-09T18:52:46Z</time>
      </trkpt>
      <trkpt lat="39.64588" lon="-7.67181">
        <ele>118.3451</ele>
        <time>2021-07-09T18:52:57Z</time>
      </trkpt>
      <trkpt lat="39.64442" lon="-7.67042">
        <ele>127.383</ele>
        <time>2021-07-09T18:53:08Z</time>
      </trkpt>
      <trkpt lat="39.64329" lon="-7.67007">
        <ele>134.5688</ele>
        <time>2021-07-09T18:53:19Z</time>
      </trkpt>
      <trkpt lat="39.64351" lon="-7.67026">
        <ele>132.4802</ele>
        <time>2021-07-09T18:53:30Z</time>
      </trkpt>
      <trkpt lat="39.64332" lon="-7.66987">
        <ele>126.3577</ele>
        <time>2021-07-09T18:53:41Z</time>
      </trkpt>
      <trkpt lat="39.64292" lon="-7.6694">
        <ele>125.4968</ele>
        <time>2021-07-09T18:53:52Z</time>
      </trkpt>
      <trkpt lat="39.64239" lon="-7.66889">
        <ele>117.4875</ele>
        <time>2021-07-09T18:54:03Z</time>
      </trkpt>
      <trkpt lat="39.6418" lon="-7.6684">
        <ele>106.9733</ele>
        <time>2021-07-09T18:54:14Z</time>
      </trkpt>
      <trkpt lat="39.64138" lon="-7.66795">
        <ele>62.33442</ele>
        <time>2021-07-09T18:54:25Z</time>
      </trkpt>
      <trkpt lat="39.64109" lon="-7.66794">
        <ele>27.34349</ele>
        <time>2021-07-09T18:54:36Z</time>
      </trkpt>
      <trkpt lat="39.64074" lon="-7.66703">
        <ele>97.76389</ele>
        <time>2021-07-09T18:54:47Z</time>
      </trkpt>
      <trkpt lat="39.64046" lon="-7.66668">
        <ele>92.97147</ele>
        <time>2021-07-09T18:54:58Z</time>
      </trkpt>
      <trkpt lat="39.63992" lon="-7.66626">
        <ele>91.39209</ele>
        <time>2021-07-09T18:55:09Z</time>
      </trkpt>
      <trkpt lat="39.63933" lon="-7.66593">
        <ele>90.919</ele>
        <time>2021-07-09T18:55:20Z</time>
      </trkpt>
      <trkpt lat="39.63866" lon="-7.66551">
        <ele>93.30111</ele>
        <time>2021-07-09T18:55:31Z</time>
      </trkpt>
      <trkpt lat="39.638" lon="-7.66509">
        <ele>87.05159</ele>
        <time>2021-07-09T18:55:42Z</time>
      </trkpt>
      <trkpt lat="39.63738" lon="-7.66454">
        <ele>88.88178</ele>
        <time>2021-07-09T18:55:53Z</time>
      </trkpt>
      <trkpt lat="39.63663" lon="-7.66392">
        <ele>91.29716</ele>
        <time>2021-07-09T18:56:04Z</time>
      </trkpt>
      <trkpt lat="39.63597" lon="-7.66332">
        <ele>96.91872</ele>
        <time>2021-07-09T18:56:15Z</time>
      </trkpt>
      <trkpt lat="39.63546" lon="-7.663">
        <ele>96.24675</ele>
        <time>2021-07-09T18:56:26Z</time>
      </trkpt>
      <trkpt lat="39.63498" lon="-7.66251">
        <ele>94.22758</ele>
        <time>2021-07-09T18:56:37Z</time>
      </trkpt>
      <trkpt lat="39.6346" lon="-7.66203">
        <ele>93.84121</ele>
        <time>2021-07-09T18:56:48Z</time>
      </trkpt>
      <trkpt lat="39.63399" lon="-7.6616">
        <ele>90.25002</ele>
        <time>2021-07-09T18:56:59Z</time>
      </trkpt>
      <trkpt lat="39.63329" lon="-7.66094">
        <ele>89.76088</ele>
        <time>2021-07-09T18:57:10Z</time>
      </trkpt>
      <trkpt lat="39.63273" lon="-7.66023">
        <ele>89.22511</ele>
        <time>2021-07-09T18:57:21Z</time>
      </trkpt>
      <trkpt lat="39.63206" lon="-7.6594">
        <ele>90.7472</ele>
        <time>2021-07-09T18:57:32Z</time>
      </trkpt>
      <trkpt lat="39.63144" lon="-7.65862">
        <ele>90.12628</ele>
        <time>2021-07-09T18:57:43Z</time>
      </trkpt>
      <trkpt lat="39.63083" lon="-7.65802">
        <ele>97.90859</ele>
        <time>2021-07-09T18:57:54Z</time>
      </trkpt>
      <trkpt lat="39.63023" lon="-7.6579">
        <ele>101.8774</ele>
        <time>2021-07-09T18:58:05Z</time>
      </trkpt>
      <trkpt lat="39.63059" lon="-7.65729">
        <ele>102.0185</ele>
        <time>2021-07-09T18:58:16Z</time>
      </trkpt>
      <trkpt lat="39.6302" lon="-7.6567">
        <ele>94.42365</ele>
        <time>2021-07-09T18:58:27Z</time>
      </trkpt>
      <trkpt lat="39.62964" lon="-7.65594">
        <ele>92.75737</ele>
        <time>2021-07-09T18:58:38Z</time>
      </trkpt>
      <trkpt lat="39.6294" lon="-7.65535">
        <ele>84.85153</ele>
        <time>2021-07-09T18:58:49Z</time>
      </trkpt>
      <trkpt lat="39.62907" lon="-7.65513">
        <ele>81.19101</ele>
        <time>2021-07-09T18:59:00Z</time>
      </trkpt>
      <trkpt lat="39.62879" lon="-7.65447">
        <ele>94.74173</ele>
        <time>2021-07-09T18:59:11Z</time>
      </trkpt>
      <trkpt lat="39.62834" lon="-7.65408">
        <ele>96.79017</ele>
        <time>2021-07-09T18:59:22Z</time>
      </trkpt>
      <trkpt lat="39.62812" lon="-7.65343">
        <ele>103.6184</ele>
        <time>2021-07-09T18:59:33Z</time>
      </trkpt>
      <trkpt lat="39.62751" lon="-7.65315">
        <ele>103.1159</ele>
        <time>2021-07-09T18:59:44Z</time>
      </trkpt>
      <trkpt lat="39.6273" lon="-7.6526">
        <ele>104.9695</ele>
        <time>2021-07-09T18:59:55Z</time>
      </trkpt>
      <trkpt lat="39.62646" lon="-7.65226">
        <ele>114.0623</ele>
        <time>2021-07-09T19:00:06Z</time>
      </trkpt>
      <trkpt lat="39.62577" lon="-7.65213">
        <ele>114.9936</ele>
        <time>2021-07-09T19:00:17Z</time>
      </trkpt>
      <trkpt lat="39.62542" lon="-7.65216">
        <ele>111.9947</ele>
        <time>2021-07-09T19:00:28Z</time>
      </trkpt>
      <trkpt lat="39.6251" lon="-7.65251">
        <ele>103.5357</ele>
        <time>2021-07-09T19:00:39Z</time>
      </trkpt>
      <trkpt lat="39.6248" lon="-7.6529">
        <ele>108.3743</ele>
        <time>2021-07-09T19:00:50Z</time>
      </trkpt>
      <trkpt lat="39.62492" lon="-7.6522">
        <ele>115.0832</ele>
        <time>2021-07-09T19:01:01Z</time>
      </trkpt>
      <trkpt lat="39.62498" lon="-7.65161">
        <ele>103.4964</ele>
        <time>2021-07-09T19:01:12Z</time>
      </trkpt>
      <trkpt lat="39.62461" lon="-7.6523">
        <ele>116.495</ele>
        <time>2021-07-09T19:01:23Z</time>
      </trkpt>
      <trkpt lat="39.62413" lon="-7.65234">
        <ele>113.8894</ele>
        <time>2021-07-09T19:01:34Z</time>
      </trkpt>
      <trkpt lat="39.62407" lon="-7.65235">
        <ele>112.854</ele>
        <time>2021-07-09T19:01:58Z</time>
      </trkpt>
      <trkpt lat="39.62336" lon="-7.65225">
        <ele>109.1612</ele>
        <time>2021-07-09T19:02:09Z</time>
      </trkpt>
      <trkpt lat="39.62274" lon="-7.65179">
        <ele>106.3528</ele>
        <time>2021-07-09T19:02:20Z</time>
      </trkpt>
      <trkpt lat="39.62215" lon="-7.65131">
        <ele>103.1111</ele>
        <time>2021-07-09T19:02:31Z</time>
      </trkpt>
      <trkpt lat="39.6221" lon="-7.65039">
        <ele>97.08558</ele>
        <time>2021-07-09T19:02:42Z</time>
      </trkpt>
      <trkpt lat="39.6223" lon="-7.64963">
        <ele>90.5852</ele>
        <time>2021-07-09T19:02:53Z</time>
      </trkpt>
      <trkpt lat="39.62234" lon="-7.64919">
        <ele>83.56979</ele>
        <time>2021-07-09T19:03:04Z</time>
      </trkpt>
      <trkpt lat="39.6227" lon="-7.64868">
        <ele>74.16729</ele>
        <time>2021-07-09T19:03:15Z</time>
      </trkpt>
      <trkpt lat="39.62251" lon="-7.64818">
        <ele>91.10158</ele>
        <time>2021-07-09T19:03:26Z</time>
      </trkpt>
      <trkpt lat="39.6219" lon="-7.64854">
        <ele>91.28966</ele>
        <time>2021-07-09T19:03:37Z</time>
      </trkpt>
      <trkpt lat="39.62224" lon="-7.64801">
        <ele>97.36604</ele>
        <time>2021-07-09T19:03:48Z</time>
      </trkpt>
      <trkpt lat="39.62214" lon="-7.64736">
        <ele>104.8508</ele>
        <time>2021-07-09T19:03:59Z</time>
      </trkpt>
      <trkpt lat="39.62132" lon="-7.64639">
        <ele>109.1131</ele>
        <time>2021-07-09T19:04:10Z</time>
      </trkpt>
      <trkpt lat="39.62067" lon="-7.64504">
        <ele>111.5294</ele>
        <time>2021-07-09T19:04:21Z</time>
      </trkpt>
      <trkpt lat="39.62011" lon="-7.64371">
        <ele>118.4007</ele>
        <time>2021-07-09T19:04:32Z</time>
      </trkpt>
      <trkpt lat="39.61984" lon="-7.6426">
        <ele>113.882</ele>
        <time>2021-07-09T19:04:43Z</time>
      </trkpt>
      <trkpt lat="39.61946" lon="-7.64168">
        <ele>108.7294</ele>
        <time>2021-07-09T19:04:54Z</time>
      </trkpt>
      <trkpt lat="39.61905" lon="-7.64109">
        <ele>113.1217</ele>
        <time>2021-07-09T19:05:05Z</time>
      </trkpt>
      <trkpt lat="39.61892" lon="-7.64014">
        <ele>113.4618</ele>
        <time>2021-07-09T19:05:16Z</time>
      </trkpt>
      <trkpt lat="39.61854" lon="-7.63986">
        <ele>110.6968</ele>
        <time>2021-07-09T19:05:27Z</time>
      </trkpt>
      <trkpt lat="39.61818" lon="-7.63915">
        <ele>110.121</ele>
        <time>2021-07-09T19:05:38Z</time>
      </trkpt>
      <trkpt lat="39.61781" lon="-7.63872">
        <ele>113.2096</ele>
        <time>2021-07-09T19:05:49Z</time>
      </trkpt>
      <trkpt lat="39.61737" lon="-7.63797">
        <ele>117.4133</ele>
        <time>2021-07-09T19:06:00Z</time>
      </trkpt>
      <trkpt lat="39.61658" lon="-7.63774">
        <ele>130.2933</ele>
        <time>2021-07-09T19:06:11Z</time>
      </trkpt>
      <trkpt lat="39.61678" lon="-7.63737">
        <ele>135.9877</ele>
        <time>2021-07-09T19:06:22Z</time>
      </trkpt>
      <trkpt lat="39.61657" lon="-7.637">
        <ele>135.2381</ele>
        <time>2021-07-09T19:06:33Z</time>
      </trkpt>
      <trkpt lat="39.61568" lon="-7.63726">
        <ele>140.1216</ele>
        <time>2021-07-09T19:06:44Z</time>
      </trkpt>
      <trkpt lat="39.61489" lon="-7.63686">
        <ele>144.7426</ele>
        <time>2021-07-09T19:06:55Z</time>
      </trkpt>
      <trkpt lat="39.61406" lon="-7.63555">
        <ele>150.5029</ele>
        <time>2021-07-09T19:07:06Z</time>
      </trkpt>
      <trkpt lat="39.61373" lon="-7.63453">
        <ele>132.7406</ele>
        <time>2021-07-09T19:07:17Z</time>
      </trkpt>
      <trkpt lat="39.61343" lon="-7.63345">
        <ele>138.6916</ele>
        <time>2021-07-09T19:07:28Z</time>
      </trkpt>
      <trkpt lat="39.61333" lon="-7.63238">
        <ele>170.9972</ele>
        <time>2021-07-09T19:07:39Z</time>
      </trkpt>
      <trkpt lat="39.61283" lon="-7.63107">
        <ele>175.9852</ele>
        <time>2021-07-09T19:07:50Z</time>
      </trkpt>
      <trkpt lat="39.61257" lon="-7.6297">
        <ele>164.8529</ele>
        <time>2021-07-09T19:08:01Z</time>
      </trkpt>
      <trkpt lat="39.61262" lon="-7.62874">
        <ele>167.4844</ele>
        <time>2021-07-09T19:08:12Z</time>
      </trkpt>
      <trkpt lat="39.61242" lon="-7.62737">
        <ele>179.9374</ele>
        <time>2021-07-09T19:08:23Z</time>
      </trkpt>
      <trkpt lat="39.61189" lon="-7.62623">
        <ele>182.3923</ele>
        <time>2021-07-09T19:08:34Z</time>
      </trkpt>
      <trkpt lat="39.61113" lon="-7.62518">
        <ele>192.039</ele>
        <time>2021-07-09T19:08:45Z</time>
      </trkpt>
      <trkpt lat="39.61057" lon="-7.62396">
        <ele>199.5117</ele>
        <time>2021-07-09T19:08:56Z</time>
      </trkpt>
      <trkpt lat="39.60999" lon="-7.62297">
        <ele>201.7877</ele>
        <time>2021-07-09T19:09:07Z</time>
      </trkpt>
      <trkpt lat="39.60934" lon="-7.62232">
        <ele>208.7473</ele>
        <time>2021-07-09T19:09:18Z</time>
      </trkpt>
      <trkpt lat="39.60884" lon="-7.62118">
        <ele>226.0314</ele>
        <time>2021-07-09T19:09:29Z</time>
      </trkpt>
      <trkpt lat="39.60863" lon="-7.62028">
        <ele>221.385</ele>
        <time>2021-07-09T19:09:40Z</time>
      </trkpt>
      <trkpt lat="39.6082" lon="-7.61953">
        <ele>221.6693</ele>
        <time>2021-07-09T19:09:51Z</time>
      </trkpt>
      <trkpt lat="39.60841" lon="-7.61873">
        <ele>221.0141</ele>
        <time>2021-07-09T19:10:02Z</time>
      </trkpt>
      <trkpt lat="39.60864" lon="-7.61794">
        <ele>227.6026</ele>
        <time>2021-07-09T19:10:13Z</time>
      </trkpt>
      <trkpt lat="39.60797" lon="-7.61689">
        <ele>226.7201</ele>
        <time>2021-07-09T19:10:24Z</time>
      </trkpt>
      <trkpt lat="39.60766" lon="-7.61537">
        <ele>232.4339</ele>
        <time>2021-07-09T19:10:35Z</time>
      </trkpt>
      <trkpt lat="39.60771" lon="-7.61413">
        <ele>233.1443</ele>
        <time>2021-07-09T19:10:46Z</time>
      </trkpt>
      <trkpt lat="39.60786" lon="-7.61283">
        <ele>234.9332</ele>
        <time>2021-07-09T19:10:57Z</time>
      </trkpt>
      <trkpt lat="39.60815" lon="-7.61176">
        <ele>239.7439</ele>
        <time>2021-07-09T19:11:08Z</time>
      </trkpt>
      <trkpt lat="39.6081" lon="-7.61136">
        <ele>237.509</ele>
        <time>2021-07-09T19:11:19Z</time>
      </trkpt>
      <trkpt lat="39.60747" lon="-7.61113">
        <ele>239.3017</ele>
        <time>2021-07-09T19:11:30Z</time>
      </trkpt>
      <trkpt lat="39.60747" lon="-7.60914">
        <ele>230.3897</ele>
        <time>2021-07-09T19:11:41Z</time>
      </trkpt>
      <trkpt lat="39.60744" lon="-7.60634">
        <ele>231.4204</ele>
        <time>2021-07-09T19:11:52Z</time>
      </trkpt>
      <trkpt lat="39.60704" lon="-7.60386">
        <ele>241.899</ele>
        <time>2021-07-09T19:12:03Z</time>
      </trkpt>
      <trkpt lat="39.607" lon="-7.60238">
        <ele>250.0424</ele>
        <time>2021-07-09T19:12:14Z</time>
      </trkpt>
      <trkpt lat="39.60652" lon="-7.60175">
        <ele>238.7436</ele>
        <time>2021-07-09T19:12:25Z</time>
      </trkpt>
      <trkpt lat="39.60603" lon="-7.60119">
        <ele>234.0079</ele>
        <time>2021-07-09T19:12:36Z</time>
      </trkpt>
      <trkpt lat="39.60547" lon="-7.60061">
        <ele>228.9241</ele>
        <time>2021-07-09T19:12:47Z</time>
      </trkpt>
      <trkpt lat="39.60504" lon="-7.59978">
        <ele>228.8888</ele>
        <time>2021-07-09T19:12:58Z</time>
      </trkpt>
      <trkpt lat="39.60456" lon="-7.59908">
        <ele>229.3343</ele>
        <time>2021-07-09T19:13:09Z</time>
      </trkpt>
      <trkpt lat="39.60403" lon="-7.59866">
        <ele>224.7479</ele>
        <time>2021-07-09T19:13:20Z</time>
      </trkpt>
      <trkpt lat="39.60357" lon="-7.59812">
        <ele>221.3752</ele>
        <time>2021-07-09T19:13:31Z</time>
      </trkpt>
      <trkpt lat="39.60287" lon="-7.59775">
        <ele>231.899</ele>
        <time>2021-07-09T19:13:42Z</time>
      </trkpt>
      <trkpt lat="39.60215" lon="-7.59744">
        <ele>240.1202</ele>
        <time>2021-07-09T19:13:53Z</time>
      </trkpt>
      <trkpt lat="39.60114" lon="-7.59734">
        <ele>247.7899</ele>
        <time>2021-07-09T19:14:04Z</time>
      </trkpt>
      <trkpt lat="39.60048" lon="-7.59702">
        <ele>251.4344</ele>
        <time>2021-07-09T19:14:15Z</time>
      </trkpt>
      <trkpt lat="39.5996" lon="-7.59743">
        <ele>243.4808</ele>
        <time>2021-07-09T19:14:26Z</time>
      </trkpt>
      <trkpt lat="39.59886" lon="-7.59773">
        <ele>232.5164</ele>
        <time>2021-07-09T19:14:37Z</time>
      </trkpt>
      <trkpt lat="39.59805" lon="-7.59825">
        <ele>233.2045</ele>
        <time>2021-07-09T19:14:48Z</time>
      </trkpt>
      <trkpt lat="39.59779" lon="-7.59934">
        <ele>226.499</ele>
        <time>2021-07-09T19:14:59Z</time>
      </trkpt>
      <trkpt lat="39.59729" lon="-7.59962">
        <ele>224.6844</ele>
        <time>2021-07-09T19:15:10Z</time>
      </trkpt>
      <trkpt lat="39.5967" lon="-7.59982">
        <ele>220.215</ele>
        <time>2021-07-09T19:15:21Z</time>
      </trkpt>
      <trkpt lat="39.59622" lon="-7.59987">
        <ele>216.9677</ele>
        <time>2021-07-09T19:15:32Z</time>
      </trkpt>
      <trkpt lat="39.59549" lon="-7.59992">
        <ele>221.7359</ele>
        <time>2021-07-09T19:15:43Z</time>
      </trkpt>
      <trkpt lat="39.59483" lon="-7.59989">
        <ele>223.1542</ele>
        <time>2021-07-09T19:15:54Z</time>
      </trkpt>
      <trkpt lat="39.5942" lon="-7.59959">
        <ele>223.2829</ele>
        <time>2021-07-09T19:16:05Z</time>
      </trkpt>
      <trkpt lat="39.59352" lon="-7.59996">
        <ele>221.2027</ele>
        <time>2021-07-09T19:16:16Z</time>
      </trkpt>
      <trkpt lat="39.5927" lon="-7.60064">
        <ele>202.7117</ele>
        <time>2021-07-09T19:16:27Z</time>
      </trkpt>
      <trkpt lat="39.59215" lon="-7.60121">
        <ele>192.4775</ele>
        <time>2021-07-09T19:16:38Z</time>
      </trkpt>
      <trkpt lat="39.59186" lon="-7.60146">
        <ele>190.1084</ele>
        <time>2021-07-09T19:16:49Z</time>
      </trkpt>
      <trkpt lat="39.59154" lon="-7.60179">
        <ele>187.6097</ele>
        <time>2021-07-09T19:17:00Z</time>
      </trkpt>
      <trkpt lat="39.59132" lon="-7.60191">
        <ele>186.527</ele>
        <time>2021-07-09T19:17:11Z</time>
      </trkpt>
      <trkpt lat="39.59117" lon="-7.60184">
        <ele>187.4007</ele>
        <time>2021-07-09T19:17:22Z</time>
      </trkpt>
      <trkpt lat="39.59104" lon="-7.60165">
        <ele>185.0283</ele>
        <time>2021-07-09T19:17:33Z</time>
      </trkpt>
      <trkpt lat="39.59087" lon="-7.60175">
        <ele>181.7319</ele>
        <time>2021-07-09T19:17:44Z</time>
      </trkpt>
      <trkpt lat="39.59071" lon="-7.60216">
        <ele>176.9557</ele>
        <time>2021-07-09T19:17:55Z</time>
      </trkpt>
      <trkpt lat="39.59049" lon="-7.60214">
        <ele>171.0034</ele>
        <time>2021-07-09T19:18:06Z</time>
      </trkpt>
      <trkpt lat="39.58987" lon="-7.6025">
        <ele>177.3684</ele>
        <time>2021-07-09T19:18:17Z</time>
      </trkpt>
      <trkpt lat="39.5894" lon="-7.60287">
        <ele>206.163</ele>
        <time>2021-07-09T19:18:28Z</time>
      </trkpt>
      <trkpt lat="39.58878" lon="-7.60282">
        <ele>216.1479</ele>
        <time>2021-07-09T19:18:39Z</time>
      </trkpt>
      <trkpt lat="39.58812" lon="-7.60271">
        <ele>233.4093</ele>
        <time>2021-07-09T19:18:50Z</time>
      </trkpt>
      <trkpt lat="39.58795" lon="-7.60268">
        <ele>232.6388</ele>
        <time>2021-07-09T19:19:01Z</time>
      </trkpt>
      <trkpt lat="39.58786" lon="-7.60264">
        <ele>232.0387</ele>
        <time>2021-07-09T19:19:37Z</time>
      </trkpt>
      <trkpt lat="39.58698" lon="-7.60262">
        <ele>241.4795</ele>
        <time>2021-07-09T19:19:48Z</time>
      </trkpt>
      <trkpt lat="39.58632" lon="-7.60264">
        <ele>236.6313</ele>
        <time>2021-07-09T19:19:59Z</time>
      </trkpt>
      <trkpt lat="39.5856" lon="-7.60317">
        <ele>238.7288</ele>
        <time>2021-07-09T19:20:10Z</time>
      </trkpt>
      <trkpt lat="39.5848" lon="-7.60268">
        <ele>240.984</ele>
        <time>2021-07-09T19:20:21Z</time>
      </trkpt>
      <trkpt lat="39.58405" lon="-7.60249">
        <ele>241.9647</ele>
        <time>2021-07-09T19:20:32Z</time>
      </trkpt>
      <trkpt lat="39.58356" lon="-7.60252">
        <ele>251.6986</ele>
        <time>2021-07-09T19:20:43Z</time>
      </trkpt>
      <trkpt lat="39.58268" lon="-7.60283">
        <ele>260.6112</ele>
        <time>2021-07-09T19:20:54Z</time>
      </trkpt>
      <trkpt lat="39.58188" lon="-7.60293">
        <ele>261.7966</ele>
        <time>2021-07-09T19:21:05Z</time>
      </trkpt>
      <trkpt lat="39.58142" lon="-7.60169">
        <ele>263.1013</ele>
        <time>2021-07-09T19:21:16Z</time>
      </trkpt>
      <trkpt lat="39.58095" lon="-7.60029">
        <ele>266.4205</ele>
        <time>2021-07-09T19:21:27Z</time>
      </trkpt>
      <trkpt lat="39.58061" lon="-7.59905">
        <ele>269.6947</ele>
        <time>2021-07-09T19:21:38Z</time>
      </trkpt>
      <trkpt lat="39.58015" lon="-7.59833">
        <ele>278.2649</ele>
        <time>2021-07-09T19:21:49Z</time>
      </trkpt>
      <trkpt lat="39.57943" lon="-7.59777">
        <ele>280.2901</ele>
        <time>2021-07-09T19:22:00Z</time>
      </trkpt>
      <trkpt lat="39.57898" lon="-7.59689">
        <ele>280.6126</ele>
        <time>2021-07-09T19:22:11Z</time>
      </trkpt>
      <trkpt lat="39.57865" lon="-7.59624">
        <ele>287.3242</ele>
        <time>2021-07-09T19:22:22Z</time>
      </trkpt>
      <trkpt lat="39.57803" lon="-7.59651">
        <ele>290.8056</ele>
        <time>2021-07-09T19:22:33Z</time>
      </trkpt>
      <trkpt lat="39.57779" lon="-7.59652">
        <ele>290.7868</ele>
        <time>2021-07-09T19:22:44Z</time>
      </trkpt>
      <trkpt lat="39.57824" lon="-7.59656">
        <ele>285.8413</ele>
        <time>2021-07-09T19:22:55Z</time>
      </trkpt>
      <trkpt lat="39.57763" lon="-7.59724">
        <ele>283.9387</ele>
        <time>2021-07-09T19:23:06Z</time>
      </trkpt>
      <trkpt lat="39.57662" lon="-7.59765">
        <ele>285.4267</ele>
        <time>2021-07-09T19:23:17Z</time>
      </trkpt>
      <trkpt lat="39.57598" lon="-7.59814">
        <ele>276.5633</ele>
        <time>2021-07-09T19:23:28Z</time>
      </trkpt>
      <trkpt lat="39.57515" lon="-7.59858">
        <ele>281.3054</ele>
        <time>2021-07-09T19:23:39Z</time>
      </trkpt>
      <trkpt lat="39.57433" lon="-7.59901">
        <ele>286.2318</ele>
        <time>2021-07-09T19:23:50Z</time>
      </trkpt>
      <trkpt lat="39.57365" lon="-7.5992">
        <ele>294.0406</ele>
        <time>2021-07-09T19:24:01Z</time>
      </trkpt>
      <trkpt lat="39.57356" lon="-7.60016">
        <ele>291.1506</ele>
        <time>2021-07-09T19:24:12Z</time>
      </trkpt>
      <trkpt lat="39.57372" lon="-7.60253">
        <ele>285.9626</ele>
        <time>2021-07-09T19:24:23Z</time>
      </trkpt>
      <trkpt lat="39.5737" lon="-7.60248">
        <ele>284.7914</ele>
        <time>2021-07-09T19:24:34Z</time>
      </trkpt>
      <trkpt lat="39.57311" lon="-7.60253">
        <ele>278.7533</ele>
        <time>2021-07-09T19:24:45Z</time>
      </trkpt>
      <trkpt lat="39.57207" lon="-7.6017">
        <ele>273.3488</ele>
        <time>2021-07-09T19:24:56Z</time>
      </trkpt>
      <trkpt lat="39.57118" lon="-7.60086">
        <ele>279.6503</ele>
        <time>2021-07-09T19:25:07Z</time>
      </trkpt>
      <trkpt lat="39.57045" lon="-7.6003">
        <ele>289.5595</ele>
        <time>2021-07-09T19:25:18Z</time>
      </trkpt>
      <trkpt lat="39.56983" lon="-7.60005">
        <ele>288.0986</ele>
        <time>2021-07-09T19:25:29Z</time>
      </trkpt>
      <trkpt lat="39.56867" lon="-7.60002">
        <ele>280.7031</ele>
        <time>2021-07-09T19:25:40Z</time>
      </trkpt>
      <trkpt lat="39.56781" lon="-7.60012">
        <ele>278.0846</ele>
        <time>2021-07-09T19:25:51Z</time>
      </trkpt>
      <trkpt lat="39.56786" lon="-7.60011">
        <ele>278.1581</ele>
        <time>2021-07-09T19:26:03Z</time>
      </trkpt>
      <trkpt lat="39.56798" lon="-7.59994">
        <ele>278.292</ele>
        <time>2021-07-09T19:26:14Z</time>
      </trkpt>
      <trkpt lat="39.56711" lon="-7.59932">
        <ele>273.3619</ele>
        <time>2021-07-09T19:26:25Z</time>
      </trkpt>
      <trkpt lat="39.56613" lon="-7.5985">
        <ele>273.3569</ele>
        <time>2021-07-09T19:26:36Z</time>
      </trkpt>
      <trkpt lat="39.56524" lon="-7.59805">
        <ele>262.5895</ele>
        <time>2021-07-09T19:26:47Z</time>
      </trkpt>
      <trkpt lat="39.56425" lon="-7.59782">
        <ele>261.6507</ele>
        <time>2021-07-09T19:26:58Z</time>
      </trkpt>
      <trkpt lat="39.5631" lon="-7.59755">
        <ele>271.7766</ele>
        <time>2021-07-09T19:27:09Z</time>
      </trkpt>
      <trkpt lat="39.56172" lon="-7.59721">
        <ele>274.7953</ele>
        <time>2021-07-09T19:27:20Z</time>
      </trkpt>
      <trkpt lat="39.56076" lon="-7.59739">
        <ele>272.5736</ele>
        <time>2021-07-09T19:27:31Z</time>
      </trkpt>
      <trkpt lat="39.5598" lon="-7.59717">
        <ele>271.0265</ele>
        <time>2021-07-09T19:27:42Z</time>
      </trkpt>
      <trkpt lat="39.55913" lon="-7.59702">
        <ele>266.8769</ele>
        <time>2021-07-09T19:27:53Z</time>
      </trkpt>
      <trkpt lat="39.55909" lon="-7.59695">
        <ele>264.024</ele>
        <time>2021-07-09T19:28:04Z</time>
      </trkpt>
      <trkpt lat="39.5588" lon="-7.5965">
        <ele>262.9861</ele>
        <time>2021-07-09T19:28:15Z</time>
      </trkpt>
      <trkpt lat="39.55833" lon="-7.59602">
        <ele>255.8553</ele>
        <time>2021-07-09T19:28:26Z</time>
      </trkpt>
      <trkpt lat="39.55768" lon="-7.59575">
        <ele>255.3565</ele>
        <time>2021-07-09T19:28:37Z</time>
      </trkpt>
      <trkpt lat="39.55699" lon="-7.59556">
        <ele>253.9229</ele>
        <time>2021-07-09T19:28:48Z</time>
      </trkpt>
      <trkpt lat="39.5562" lon="-7.59504">
        <ele>254.1129</ele>
        <time>2021-07-09T19:28:59Z</time>
      </trkpt>
      <trkpt lat="39.5553" lon="-7.59529">
        <ele>258.4322</ele>
        <time>2021-07-09T19:29:10Z</time>
      </trkpt>
      <trkpt lat="39.55458" lon="-7.59522">
        <ele>268.151</ele>
        <time>2021-07-09T19:29:21Z</time>
      </trkpt>
      <trkpt lat="39.55357" lon="-7.5948">
        <ele>268.9589</ele>
        <time>2021-07-09T19:29:32Z</time>
      </trkpt>
      <trkpt lat="39.55276" lon="-7.59416">
        <ele>264.3369</ele>
        <time>2021-07-09T19:29:43Z</time>
      </trkpt>
      <trkpt lat="39.55196" lon="-7.59358">
        <ele>254.1852</ele>
        <time>2021-07-09T19:29:54Z</time>
      </trkpt>
      <trkpt lat="39.55116" lon="-7.59329">
        <ele>250.0956</ele>
        <time>2021-07-09T19:30:05Z</time>
      </trkpt>
      <trkpt lat="39.55043" lon="-7.59303">
        <ele>247.2258</ele>
        <time>2021-07-09T19:30:16Z</time>
      </trkpt>
      <trkpt lat="39.55036" lon="-7.59298">
        <ele>246.7685</ele>
        <time>2021-07-09T19:30:27Z</time>
      </trkpt>
      <trkpt lat="39.54979" lon="-7.59349">
        <ele>246.4924</ele>
        <time>2021-07-09T19:30:38Z</time>
      </trkpt>
      <trkpt lat="39.5479" lon="-7.59351">
        <ele>249.3122</ele>
        <time>2021-07-09T19:30:49Z</time>
      </trkpt>
      <trkpt lat="39.54624" lon="-7.59498">
        <ele>262.9287</ele>
        <time>2021-07-09T19:31:00Z</time>
      </trkpt>
      <trkpt lat="39.54435" lon="-7.59694">
        <ele>271.4636</ele>
        <time>2021-07-09T19:31:11Z</time>
      </trkpt>
      <trkpt lat="39.54259" lon="-7.59877">
        <ele>272.2674</ele>
        <time>2021-07-09T19:31:22Z</time>
      </trkpt>
      <trkpt lat="39.54151" lon="-7.59946">
        <ele>268.9639</ele>
        <time>2021-07-09T19:31:33Z</time>
      </trkpt>
      <trkpt lat="39.5407" lon="-7.60047">
        <ele>263.3008</ele>
        <time>2021-07-09T19:31:44Z</time>
      </trkpt>
      <trkpt lat="39.54061" lon="-7.59965">
        <ele>270.0352</ele>
        <time>2021-07-09T19:31:55Z</time>
      </trkpt>
      <trkpt lat="39.54093" lon="-7.59832">
        <ele>282.677</ele>
        <time>2021-07-09T19:32:06Z</time>
      </trkpt>
      <trkpt lat="39.54096" lon="-7.59722">
        <ele>295.4647</ele>
        <time>2021-07-09T19:32:17Z</time>
      </trkpt>
      <trkpt lat="39.54119" lon="-7.59635">
        <ele>289.7815</ele>
        <time>2021-07-09T19:32:28Z</time>
      </trkpt>
      <trkpt lat="39.54131" lon="-7.59541">
        <ele>281.7583</ele>
        <time>2021-07-09T19:32:39Z</time>
      </trkpt>
      <trkpt lat="39.54144" lon="-7.59491">
        <ele>277.5864</ele>
        <time>2021-07-09T19:32:50Z</time>
      </trkpt>
      <trkpt lat="39.54094" lon="-7.59465">
        <ele>278.0287</ele>
        <time>2021-07-09T19:33:01Z</time>
      </trkpt>
      <trkpt lat="39.54039" lon="-7.59426">
        <ele>279.0688</ele>
        <time>2021-07-09T19:33:12Z</time>
      </trkpt>
      <trkpt lat="39.53994" lon="-7.5936">
        <ele>279.3656</ele>
        <time>2021-07-09T19:33:23Z</time>
      </trkpt>
      <trkpt lat="39.53961" lon="-7.59285">
        <ele>280.4282</ele>
        <time>2021-07-09T19:33:34Z</time>
      </trkpt>
      <trkpt lat="39.53915" lon="-7.59201">
        <ele>281.4682</ele>
        <time>2021-07-09T19:33:45Z</time>
      </trkpt>
      <trkpt lat="39.53885" lon="-7.59127">
        <ele>281.9372</ele>
        <time>2021-07-09T19:33:56Z</time>
      </trkpt>
      <trkpt lat="39.53826" lon="-7.58959">
        <ele>284.6773</ele>
        <time>2021-07-09T19:34:07Z</time>
      </trkpt>
      <trkpt lat="39.53771" lon="-7.58798">
        <ele>282.9615</ele>
        <time>2021-07-09T19:34:18Z</time>
      </trkpt>
      <trkpt lat="39.53693" lon="-7.58693">
        <ele>287.5391</ele>
        <time>2021-07-09T19:34:29Z</time>
      </trkpt>
      <trkpt lat="39.53704" lon="-7.58535">
        <ele>287.7268</ele>
        <time>2021-07-09T19:34:40Z</time>
      </trkpt>
      <trkpt lat="39.53706" lon="-7.58528">
        <ele>288.4918</ele>
        <time>2021-07-09T19:34:51Z</time>
      </trkpt>
      <trkpt lat="39.53708" lon="-7.58522">
        <ele>287.581</ele>
        <time>2021-07-09T19:35:15Z</time>
      </trkpt>
      <trkpt lat="39.53754" lon="-7.5844">
        <ele>283.4245</ele>
        <time>2021-07-09T19:35:26Z</time>
      </trkpt>
      <trkpt lat="39.53771" lon="-7.58414">
        <ele>283.2806</ele>
        <time>2021-07-09T19:35:37Z</time>
      </trkpt>
      <trkpt lat="39.53774" lon="-7.58411">
        <ele>284.363</ele>
        <time>2021-07-09T19:36:31Z</time>
      </trkpt>
      <trkpt lat="39.53847" lon="-7.58348">
        <ele>287.4179</ele>
        <time>2021-07-09T19:36:42Z</time>
      </trkpt>
      <trkpt lat="39.53899" lon="-7.58248">
        <ele>291.1507</ele>
        <time>2021-07-09T19:36:53Z</time>
      </trkpt>
      <trkpt lat="39.53978" lon="-7.5816">
        <ele>295.2203</ele>
        <time>2021-07-09T19:37:04Z</time>
      </trkpt>
      <trkpt lat="39.54044" lon="-7.58125">
        <ele>295.3025</ele>
        <time>2021-07-09T19:37:15Z</time>
      </trkpt>
      <trkpt lat="39.54064" lon="-7.58009">
        <ele>299.7438</ele>
        <time>2021-07-09T19:37:26Z</time>
      </trkpt>
      <trkpt lat="39.54105" lon="-7.57929">
        <ele>304.6671</ele>
        <time>2021-07-09T19:37:37Z</time>
      </trkpt>
      <trkpt lat="39.5412" lon="-7.57822">
        <ele>302.0995</ele>
        <time>2021-07-09T19:37:48Z</time>
      </trkpt>
      <trkpt lat="39.54129" lon="-7.57692">
        <ele>300.7324</ele>
        <time>2021-07-09T19:37:59Z</time>
      </trkpt>
      <trkpt lat="39.54153" lon="-7.57571">
        <ele>303.5996</ele>
        <time>2021-07-09T19:38:10Z</time>
      </trkpt>
      <trkpt lat="39.54207" lon="-7.57479">
        <ele>308.6636</ele>
        <time>2021-07-09T19:38:21Z</time>
      </trkpt>
      <trkpt lat="39.54243" lon="-7.57362">
        <ele>309.1324</ele>
        <time>2021-07-09T19:38:32Z</time>
      </trkpt>
      <trkpt lat="39.54269" lon="-7.57229">
        <ele>310.6648</ele>
        <time>2021-07-09T19:38:43Z</time>
      </trkpt>
      <trkpt lat="39.54256" lon="-7.57101">
        <ele>311.2639</ele>
        <time>2021-07-09T19:38:54Z</time>
      </trkpt>
      <trkpt lat="39.54231" lon="-7.56955">
        <ele>312.7694</ele>
        <time>2021-07-09T19:39:05Z</time>
      </trkpt>
      <trkpt lat="39.5423" lon="-7.56811">
        <ele>312.5728</ele>
        <time>2021-07-09T19:39:16Z</time>
      </trkpt>
      <trkpt lat="39.5423" lon="-7.56677">
        <ele>313.7906</ele>
        <time>2021-07-09T19:39:27Z</time>
      </trkpt>
      <trkpt lat="39.54228" lon="-7.56621">
        <ele>316.6516</ele>
        <time>2021-07-09T19:39:38Z</time>
      </trkpt>
      <trkpt lat="39.54228" lon="-7.56613">
        <ele>315.0791</ele>
        <time>2021-07-09T19:39:58Z</time>
      </trkpt>
      <trkpt lat="39.54227" lon="-7.56608">
        <ele>314.6039</ele>
        <time>2021-07-09T19:40:23Z</time>
      </trkpt>
      <trkpt lat="39.5423" lon="-7.56461">
        <ele>316.1802</ele>
        <time>2021-07-09T19:40:34Z</time>
      </trkpt>
      <trkpt lat="39.54231" lon="-7.56298">
        <ele>314.7011</ele>
        <time>2021-07-09T19:40:45Z</time>
      </trkpt>
      <trkpt lat="39.54239" lon="-7.56217">
        <ele>316.3373</ele>
        <time>2021-07-09T19:40:56Z</time>
      </trkpt>
      <trkpt lat="39.54189" lon="-7.56038">
        <ele>318.9677</ele>
        <time>2021-07-09T19:41:07Z</time>
      </trkpt>
      <trkpt lat="39.54108" lon="-7.55887">
        <ele>322.5398</ele>
        <time>2021-07-09T19:41:18Z</time>
      </trkpt>
      <trkpt lat="39.54053" lon="-7.55694">
        <ele>318.7717</ele>
        <time>2021-07-09T19:41:29Z</time>
      </trkpt>
      <trkpt lat="39.54018" lon="-7.55499">
        <ele>318.2423</ele>
        <time>2021-07-09T19:41:40Z</time>
      </trkpt>
      <trkpt lat="39.53973" lon="-7.5536">
        <ele>317.7916</ele>
        <time>2021-07-09T19:41:51Z</time>
      </trkpt>
      <trkpt lat="39.539" lon="-7.55249">
        <ele>318.0239</ele>
        <time>2021-07-09T19:42:02Z</time>
      </trkpt>
      <trkpt lat="39.53849" lon="-7.55135">
        <ele>317.4037</ele>
        <time>2021-07-09T19:42:13Z</time>
      </trkpt>
      <trkpt lat="39.53771" lon="-7.55004">
        <ele>317.1665</ele>
        <time>2021-07-09T19:42:24Z</time>
      </trkpt>
      <trkpt lat="39.5374" lon="-7.54829">
        <ele>317.7193</ele>
        <time>2021-07-09T19:42:35Z</time>
      </trkpt>
      <trkpt lat="39.53698" lon="-7.54643">
        <ele>316.9403</ele>
        <time>2021-07-09T19:42:46Z</time>
      </trkpt>
      <trkpt lat="39.53664" lon="-7.54459">
        <ele>319.8204</ele>
        <time>2021-07-09T19:42:57Z</time>
      </trkpt>
      <trkpt lat="39.53612" lon="-7.54274">
        <ele>314.6592</ele>
        <time>2021-07-09T19:43:08Z</time>
      </trkpt>
      <trkpt lat="39.53599" lon="-7.54123">
        <ele>309.4889</ele>
        <time>2021-07-09T19:43:19Z</time>
      </trkpt>
      <trkpt lat="39.53583" lon="-7.53941">
        <ele>307.1715</ele>
        <time>2021-07-09T19:43:30Z</time>
      </trkpt>
      <trkpt lat="39.53556" lon="-7.5375">
        <ele>313.0919</ele>
        <time>2021-07-09T19:43:41Z</time>
      </trkpt>
      <trkpt lat="39.5349" lon="-7.53577">
        <ele>316.199</ele>
        <time>2021-07-09T19:43:52Z</time>
      </trkpt>
      <trkpt lat="39.5346" lon="-7.53407">
        <ele>317.4755</ele>
        <time>2021-07-09T19:44:03Z</time>
      </trkpt>
      <trkpt lat="39.53477" lon="-7.53248">
        <ele>317.9398</ele>
        <time>2021-07-09T19:44:14Z</time>
      </trkpt>
      <trkpt lat="39.5337" lon="-7.53152">
        <ele>315.0579</ele>
        <time>2021-07-09T19:44:25Z</time>
      </trkpt>
      <trkpt lat="39.53263" lon="-7.53125">
        <ele>307.6873</ele>
        <time>2021-07-09T19:44:36Z</time>
      </trkpt>
      <trkpt lat="39.53133" lon="-7.53126">
        <ele>302.8615</ele>
        <time>2021-07-09T19:44:47Z</time>
      </trkpt>
      <trkpt lat="39.5301" lon="-7.53129">
        <ele>299.2345</ele>
        <time>2021-07-09T19:44:58Z</time>
      </trkpt>
      <trkpt lat="39.52921" lon="-7.53065">
        <ele>298.0927</ele>
        <time>2021-07-09T19:45:09Z</time>
      </trkpt>
      <trkpt lat="39.52813" lon="-7.53014">
        <ele>306.138</ele>
        <time>2021-07-09T19:45:20Z</time>
      </trkpt>
      <trkpt lat="39.52768" lon="-7.52909">
        <ele>318.4284</ele>
        <time>2021-07-09T19:45:31Z</time>
      </trkpt>
      <trkpt lat="39.52701" lon="-7.52823">
        <ele>319.3168</ele>
        <time>2021-07-09T19:45:42Z</time>
      </trkpt>
      <trkpt lat="39.52584" lon="-7.52755">
        <ele>311.7738</ele>
        <time>2021-07-09T19:45:53Z</time>
      </trkpt>
      <trkpt lat="39.5248" lon="-7.52694">
        <ele>305.3257</ele>
        <time>2021-07-09T19:46:04Z</time>
      </trkpt>
      <trkpt lat="39.52379" lon="-7.52634">
        <ele>303.8168</ele>
        <time>2021-07-09T19:46:15Z</time>
      </trkpt>
      <trkpt lat="39.5225" lon="-7.52556">
        <ele>303.9855</ele>
        <time>2021-07-09T19:46:26Z</time>
      </trkpt>
      <trkpt lat="39.52121" lon="-7.52503">
        <ele>316.0279</ele>
        <time>2021-07-09T19:46:37Z</time>
      </trkpt>
      <trkpt lat="39.5209" lon="-7.5249">
        <ele>317.3797</ele>
        <time>2021-07-09T19:46:48Z</time>
      </trkpt>
      <trkpt lat="39.52087" lon="-7.52532">
        <ele>319.415</ele>
        <time>2021-07-09T19:46:59Z</time>
      </trkpt>
      <trkpt lat="39.52084" lon="-7.52532">
        <ele>320.0836</ele>
        <time>2021-07-09T19:47:17Z</time>
      </trkpt>
      <trkpt lat="39.51992" lon="-7.5252">
        <ele>326.6469</ele>
        <time>2021-07-09T19:47:28Z</time>
      </trkpt>
      <trkpt lat="39.51895" lon="-7.52554">
        <ele>332.2478</ele>
        <time>2021-07-09T19:47:39Z</time>
      </trkpt>
      <trkpt lat="39.51785" lon="-7.52637">
        <ele>339.8601</ele>
        <time>2021-07-09T19:47:50Z</time>
      </trkpt>
      <trkpt lat="39.51688" lon="-7.5271">
        <ele>344.7214</ele>
        <time>2021-07-09T19:48:01Z</time>
      </trkpt>
      <trkpt lat="39.51582" lon="-7.52727">
        <ele>351.7187</ele>
        <time>2021-07-09T19:48:12Z</time>
      </trkpt>
      <trkpt lat="39.51516" lon="-7.52691">
        <ele>352.4572</ele>
        <time>2021-07-09T19:48:23Z</time>
      </trkpt>
      <trkpt lat="39.51458" lon="-7.52682">
        <ele>349.0859</ele>
        <time>2021-07-09T19:48:34Z</time>
      </trkpt>
      <trkpt lat="39.51414" lon="-7.52623">
        <ele>348.6384</ele>
        <time>2021-07-09T19:48:45Z</time>
      </trkpt>
      <trkpt lat="39.51342" lon="-7.52483">
        <ele>346.0119</ele>
        <time>2021-07-09T19:48:56Z</time>
      </trkpt>
      <trkpt lat="39.51275" lon="-7.52394">
        <ele>347.6307</ele>
        <time>2021-07-09T19:49:07Z</time>
      </trkpt>
      <trkpt lat="39.51277" lon="-7.52393">
        <ele>347.2659</ele>
        <time>2021-07-09T19:50:07Z</time>
      </trkpt>
      <trkpt lat="39.51262" lon="-7.52408">
        <ele>347.7828</ele>
        <time>2021-07-09T19:50:18Z</time>
      </trkpt>
      <trkpt lat="39.51135" lon="-7.5251">
        <ele>352.0046</ele>
        <time>2021-07-09T19:50:29Z</time>
      </trkpt>
      <trkpt lat="39.50988" lon="-7.52535">
        <ele>354.7705</ele>
        <time>2021-07-09T19:50:40Z</time>
      </trkpt>
      <trkpt lat="39.50928" lon="-7.52547">
        <ele>357.0413</ele>
        <time>2021-07-09T19:50:51Z</time>
      </trkpt>
      <trkpt lat="39.50809" lon="-7.52448">
        <ele>361.7507</ele>
        <time>2021-07-09T19:51:02Z</time>
      </trkpt>
      <trkpt lat="39.50662" lon="-7.5253">
        <ele>364.2926</ele>
        <time>2021-07-09T19:51:13Z</time>
      </trkpt>
      <trkpt lat="39.50496" lon="-7.52624">
        <ele>364.3293</ele>
        <time>2021-07-09T19:51:24Z</time>
      </trkpt>
      <trkpt lat="39.50386" lon="-7.5274">
        <ele>365.1402</ele>
        <time>2021-07-09T19:51:35Z</time>
      </trkpt>
      <trkpt lat="39.50279" lon="-7.52876">
        <ele>369.0789</ele>
        <time>2021-07-09T19:51:46Z</time>
      </trkpt>
      <trkpt lat="39.50119" lon="-7.52941">
        <ele>368.2943</ele>
        <time>2021-07-09T19:51:57Z</time>
      </trkpt>
      <trkpt lat="39.4999" lon="-7.53114">
        <ele>366.5374</ele>
        <time>2021-07-09T19:52:08Z</time>
      </trkpt>
      <trkpt lat="39.49907" lon="-7.53277">
        <ele>365.1719</ele>
        <time>2021-07-09T19:52:19Z</time>
      </trkpt>
      <trkpt lat="39.49822" lon="-7.53536">
        <ele>363.5199</ele>
        <time>2021-07-09T19:52:30Z</time>
      </trkpt>
      <trkpt lat="39.49794" lon="-7.53767">
        <ele>358.9172</ele>
        <time>2021-07-09T19:52:41Z</time>
      </trkpt>
      <trkpt lat="39.49717" lon="-7.54008">
        <ele>352.7043</ele>
        <time>2021-07-09T19:52:52Z</time>
      </trkpt>
      <trkpt lat="39.49621" lon="-7.54179">
        <ele>349.6441</ele>
        <time>2021-07-09T19:53:03Z</time>
      </trkpt>
      <trkpt lat="39.49394" lon="-7.54223">
        <ele>349.8621</ele>
        <time>2021-07-09T19:53:14Z</time>
      </trkpt>
      <trkpt lat="39.49153" lon="-7.54316">
        <ele>341.345</ele>
        <time>2021-07-09T19:53:25Z</time>
      </trkpt>
      <trkpt lat="39.48934" lon="-7.54407">
        <ele>337.882</ele>
        <time>2021-07-09T19:53:36Z</time>
      </trkpt>
      <trkpt lat="39.48739" lon="-7.54496">
        <ele>331.5666</ele>
        <time>2021-07-09T19:53:47Z</time>
      </trkpt>
      <trkpt lat="39.4854" lon="-7.54656">
        <ele>328.4208</ele>
        <time>2021-07-09T19:53:58Z</time>
      </trkpt>
      <trkpt lat="39.48342" lon="-7.54803">
        <ele>318.6482</ele>
        <time>2021-07-09T19:54:09Z</time>
      </trkpt>
      <trkpt lat="39.48206" lon="-7.5494">
        <ele>314.958</ele>
        <time>2021-07-09T19:54:20Z</time>
      </trkpt>
      <trkpt lat="39.48163" lon="-7.54971">
        <ele>313.4047</ele>
        <time>2021-07-09T19:54:31Z</time>
      </trkpt>
      <trkpt lat="39.48155" lon="-7.54974">
        <ele>318.8024</ele>
        <time>2021-07-09T19:54:49Z</time>
      </trkpt>
      <trkpt lat="39.48194" lon="-7.54946">
        <ele>317.5939</ele>
        <time>2021-07-09T19:55:00Z</time>
      </trkpt>
      <trkpt lat="39.48279" lon="-7.54857">
        <ele>317.2383</ele>
        <time>2021-07-09T19:55:11Z</time>
      </trkpt>
      <trkpt lat="39.48275" lon="-7.5486">
        <ele>318.655</ele>
        <time>2021-07-09T19:55:22Z</time>
      </trkpt>
      <trkpt lat="39.48153" lon="-7.5497">
        <ele>316.6207</ele>
        <time>2021-07-09T19:55:33Z</time>
      </trkpt>
      <trkpt lat="39.48051" lon="-7.55101">
        <ele>314.941</ele>
        <time>2021-07-09T19:55:44Z</time>
      </trkpt>
      <trkpt lat="39.47922" lon="-7.55118">
        <ele>311.8843</ele>
        <time>2021-07-09T19:55:55Z</time>
      </trkpt>
      <trkpt lat="39.47769" lon="-7.55279">
        <ele>314.0419</ele>
        <time>2021-07-09T19:56:06Z</time>
      </trkpt>
      <trkpt lat="39.47689" lon="-7.55462">
        <ele>315.4977</ele>
        <time>2021-07-09T19:56:17Z</time>
      </trkpt>
      <trkpt lat="39.47689" lon="-7.55669">
        <ele>316.3049</ele>
        <time>2021-07-09T19:56:28Z</time>
      </trkpt>
      <trkpt lat="39.47787" lon="-7.55915">
        <ele>323.9131</ele>
        <time>2021-07-09T19:56:39Z</time>
      </trkpt>
      <trkpt lat="39.47759" lon="-7.56126">
        <ele>333.6993</ele>
        <time>2021-07-09T19:56:50Z</time>
      </trkpt>
      <trkpt lat="39.47656" lon="-7.56259">
        <ele>331.8121</ele>
        <time>2021-07-09T19:57:01Z</time>
      </trkpt>
      <trkpt lat="39.47412" lon="-7.56262">
        <ele>334.6772</ele>
        <time>2021-07-09T19:57:12Z</time>
      </trkpt>
      <trkpt lat="39.47213" lon="-7.5627">
        <ele>326.6867</ele>
        <time>2021-07-09T19:57:23Z</time>
      </trkpt>
      <trkpt lat="39.47103" lon="-7.56187">
        <ele>326.8456</ele>
        <time>2021-07-09T19:57:34Z</time>
      </trkpt>
      <trkpt lat="39.46998" lon="-7.5595">
        <ele>319.1973</ele>
        <time>2021-07-09T19:57:45Z</time>
      </trkpt>
      <trkpt lat="39.4688" lon="-7.55812">
        <ele>317.8097</ele>
        <time>2021-07-09T19:57:56Z</time>
      </trkpt>
      <trkpt lat="39.46714" lon="-7.55685">
        <ele>326.5641</ele>
        <time>2021-07-09T19:58:07Z</time>
      </trkpt>
      <trkpt lat="39.46596" lon="-7.55543">
        <ele>328.3245</ele>
        <time>2021-07-09T19:58:18Z</time>
      </trkpt>
      <trkpt lat="39.46495" lon="-7.5536">
        <ele>328.557</ele>
        <time>2021-07-09T19:58:29Z</time>
      </trkpt>
      <trkpt lat="39.46366" lon="-7.55266">
        <ele>324.4602</ele>
        <time>2021-07-09T19:58:40Z</time>
      </trkpt>
      <trkpt lat="39.46339" lon="-7.55112">
        <ele>320.1234</ele>
        <time>2021-07-09T19:58:51Z</time>
      </trkpt>
      <trkpt lat="39.46289" lon="-7.54984">
        <ele>316.296</ele>
        <time>2021-07-09T19:59:02Z</time>
      </trkpt>
      <trkpt lat="39.46275" lon="-7.54884">
        <ele>316.106</ele>
        <time>2021-07-09T19:59:13Z</time>
      </trkpt>
      <trkpt lat="39.46387" lon="-7.54777">
        <ele>316.3401</ele>
        <time>2021-07-09T19:59:24Z</time>
      </trkpt>
      <trkpt lat="39.46385" lon="-7.54599">
        <ele>316.9053</ele>
        <time>2021-07-09T19:59:35Z</time>
      </trkpt>
      <trkpt lat="39.46361" lon="-7.54475">
        <ele>314.6335</ele>
        <time>2021-07-09T19:59:46Z</time>
      </trkpt>
      <trkpt lat="39.46337" lon="-7.54407">
        <ele>311.5769</ele>
        <time>2021-07-09T19:59:57Z</time>
      </trkpt>
      <trkpt lat="39.46396" lon="-7.54409">
        <ele>314.5568</ele>
        <time>2021-07-09T20:00:08Z</time>
      </trkpt>
      <trkpt lat="39.46436" lon="-7.54398">
        <ele>310.7903</ele>
        <time>2021-07-09T20:00:19Z</time>
      </trkpt>
      <trkpt lat="39.46454" lon="-7.54392">
        <ele>309.5402</ele>
        <time>2021-07-09T20:00:30Z</time>
      </trkpt>
      <trkpt lat="39.46463" lon="-7.54413">
        <ele>310.7708</ele>
        <time>2021-07-09T20:00:41Z</time>
      </trkpt>
      <trkpt lat="39.46452" lon="-7.5439">
        <ele>310.1215</ele>
        <time>2021-07-09T20:00:52Z</time>
      </trkpt>
      <trkpt lat="39.46446" lon="-7.54396">
        <ele>311.1065</ele>
        <time>2021-07-09T20:01:03Z</time>
      </trkpt>
      <trkpt lat="39.46446" lon="-7.54398">
        <ele>314.2334</ele>
        <time>2021-07-09T20:02:02Z</time>
      </trkpt>
      <trkpt lat="39.46442" lon="-7.54399">
        <ele>314.2049</ele>
        <time>2021-07-09T20:02:16Z</time>
      </trkpt>
      <trkpt lat="39.46456" lon="-7.54391">
        <ele>313.2911</ele>
        <time>2021-07-09T20:02:27Z</time>
      </trkpt>
      <trkpt lat="39.4648" lon="-7.54443">
        <ele>311.1262</ele>
        <time>2021-07-09T20:02:38Z</time>
      </trkpt>
      <trkpt lat="39.46502" lon="-7.54487">
        <ele>310.306</ele>
        <time>2021-07-09T20:02:49Z</time>
      </trkpt>
      <trkpt lat="39.46515" lon="-7.54497">
        <ele>310.897</ele>
        <time>2021-07-09T20:03:00Z</time>
      </trkpt>
      <trkpt lat="39.46511" lon="-7.54496">
        <ele>312.7123</ele>
        <time>2021-07-09T20:03:30Z</time>
      </trkpt>
    </trkseg>
  </trk>
  <trk>
    <name><![CDATA[Road trip fait P/E_5]]></name>
    <extensions>
      <line xmlns="http://www.topografix.com/GPX/gpx_style/0/2">
        <color>0000FF</color>
        <width>4</width>
      </line>
    </extensions>
    <trkseg>
      <trkpt lat="39.46512" lon="-7.54496">
        <ele>313.1103</ele>
        <time>2021-07-09T20:03:32Z</time>
      </trkpt>
      <trkpt lat="39.46512" lon="-7.54496">
        <ele>313.1103</ele>
        <time>2021-07-09T20:03:32Z</time>
      </trkpt>
      <trkpt lat="39.46514" lon="-7.54503">
        <ele>310.1652</ele>
        <time>2021-07-10T07:45:07Z</time>
      </trkpt>
      <trkpt lat="39.46509" lon="-7.54506">
        <ele>309.2717</ele>
        <time>2021-07-10T07:45:59Z</time>
      </trkpt>
      <trkpt lat="39.46506" lon="-7.545">
        <ele>309.2554</ele>
        <time>2021-07-10T07:46:10Z</time>
      </trkpt>
      <trkpt lat="39.4649" lon="-7.54478">
        <ele>308.1128</ele>
        <time>2021-07-10T07:46:21Z</time>
      </trkpt>
      <trkpt lat="39.4645" lon="-7.54398">
        <ele>309.3858</ele>
        <time>2021-07-10T07:46:32Z</time>
      </trkpt>
      <trkpt lat="39.46417" lon="-7.54404">
        <ele>312.679</ele>
        <time>2021-07-10T07:46:43Z</time>
      </trkpt>
      <trkpt lat="39.46355" lon="-7.54397">
        <ele>313.5671</ele>
        <time>2021-07-10T07:46:54Z</time>
      </trkpt>
      <trkpt lat="39.46305" lon="-7.54347">
        <ele>317.5822</ele>
        <time>2021-07-10T07:47:05Z</time>
      </trkpt>
      <trkpt lat="39.46208" lon="-7.54254">
        <ele>328.1381</ele>
        <time>2021-07-10T07:47:16Z</time>
      </trkpt>
      <trkpt lat="39.46094" lon="-7.54125">
        <ele>337.0458</ele>
        <time>2021-07-10T07:47:27Z</time>
      </trkpt>
      <trkpt lat="39.45952" lon="-7.54041">
        <ele>336.1097</ele>
        <time>2021-07-10T07:47:38Z</time>
      </trkpt>
      <trkpt lat="39.45823" lon="-7.53888">
        <ele>325.4272</ele>
        <time>2021-07-10T07:47:49Z</time>
      </trkpt>
      <trkpt lat="39.45698" lon="-7.53773">
        <ele>319.5578</ele>
        <time>2021-07-10T07:48:00Z</time>
      </trkpt>
      <trkpt lat="39.45537" lon="-7.53654">
        <ele>314.7485</ele>
        <time>2021-07-10T07:48:11Z</time>
      </trkpt>
      <trkpt lat="39.45372" lon="-7.53491">
        <ele>317.5698</ele>
        <time>2021-07-10T07:48:22Z</time>
      </trkpt>
      <trkpt lat="39.45213" lon="-7.53377">
        <ele>319.3858</ele>
        <time>2021-07-10T07:48:33Z</time>
      </trkpt>
      <trkpt lat="39.45144" lon="-7.53113">
        <ele>320.8348</ele>
        <time>2021-07-10T07:48:44Z</time>
      </trkpt>
      <trkpt lat="39.45143" lon="-7.52796">
        <ele>335.8306</ele>
        <time>2021-07-10T07:48:55Z</time>
      </trkpt>
      <trkpt lat="39.45143" lon="-7.52473">
        <ele>343.2809</ele>
        <time>2021-07-10T07:49:06Z</time>
      </trkpt>
      <trkpt lat="39.45042" lon="-7.52254">
        <ele>348.7406</ele>
        <time>2021-07-10T07:49:17Z</time>
      </trkpt>
      <trkpt lat="39.44848" lon="-7.52053">
        <ele>361.1718</ele>
        <time>2021-07-10T07:49:28Z</time>
      </trkpt>
      <trkpt lat="39.4468" lon="-7.51804">
        <ele>367.38</ele>
        <time>2021-07-10T07:49:39Z</time>
      </trkpt>
      <trkpt lat="39.44525" lon="-7.51527">
        <ele>371.0091</ele>
        <time>2021-07-10T07:49:50Z</time>
      </trkpt>
      <trkpt lat="39.44358" lon="-7.51261">
        <ele>378.0177</ele>
        <time>2021-07-10T07:50:01Z</time>
      </trkpt>
      <trkpt lat="39.44174" lon="-7.51054">
        <ele>383.1813</ele>
        <time>2021-07-10T07:50:12Z</time>
      </trkpt>
      <trkpt lat="39.4396" lon="-7.50898">
        <ele>383.9432</ele>
        <time>2021-07-10T07:50:23Z</time>
      </trkpt>
      <trkpt lat="39.43727" lon="-7.50773">
        <ele>389.224</ele>
        <time>2021-07-10T07:50:34Z</time>
      </trkpt>
      <trkpt lat="39.43479" lon="-7.50668">
        <ele>387.7428</ele>
        <time>2021-07-10T07:50:45Z</time>
      </trkpt>
      <trkpt lat="39.43285" lon="-7.50589">
        <ele>386.249</ele>
        <time>2021-07-10T07:50:56Z</time>
      </trkpt>
      <trkpt lat="39.43239" lon="-7.50552">
        <ele>385.6471</ele>
        <time>2021-07-10T07:51:07Z</time>
      </trkpt>
      <trkpt lat="39.43155" lon="-7.5034">
        <ele>384.3031</ele>
        <time>2021-07-10T07:51:18Z</time>
      </trkpt>
      <trkpt lat="39.43043" lon="-7.50053">
        <ele>376.3957</ele>
        <time>2021-07-10T07:51:29Z</time>
      </trkpt>
      <trkpt lat="39.42932" lon="-7.49767">
        <ele>385.5461</ele>
        <time>2021-07-10T07:51:40Z</time>
      </trkpt>
      <trkpt lat="39.42844" lon="-7.49464">
        <ele>386.1406</ele>
        <time>2021-07-10T07:51:51Z</time>
      </trkpt>
      <trkpt lat="39.42833" lon="-7.49156">
        <ele>397.9602</ele>
        <time>2021-07-10T07:52:02Z</time>
      </trkpt>
      <trkpt lat="39.42848" lon="-7.48832">
        <ele>411.0873</ele>
        <time>2021-07-10T07:52:13Z</time>
      </trkpt>
      <trkpt lat="39.42799" lon="-7.48525">
        <ele>429.7145</ele>
        <time>2021-07-10T07:52:24Z</time>
      </trkpt>
      <trkpt lat="39.42637" lon="-7.48275">
        <ele>441.4335</ele>
        <time>2021-07-10T07:52:35Z</time>
      </trkpt>
      <trkpt lat="39.42527" lon="-7.4799">
        <ele>456.4157</ele>
        <time>2021-07-10T07:52:46Z</time>
      </trkpt>
      <trkpt lat="39.42442" lon="-7.47686">
        <ele>474.145</ele>
        <time>2021-07-10T07:52:57Z</time>
      </trkpt>
      <trkpt lat="39.42265" lon="-7.47457">
        <ele>486.6159</ele>
        <time>2021-07-10T07:53:08Z</time>
      </trkpt>
      <trkpt lat="39.42081" lon="-7.47235">
        <ele>500.7889</ele>
        <time>2021-07-10T07:53:19Z</time>
      </trkpt>
      <trkpt lat="39.41937" lon="-7.4706">
        <ele>505.8664</ele>
        <time>2021-07-10T07:53:30Z</time>
      </trkpt>
      <trkpt lat="39.41864" lon="-7.46929">
        <ele>507.0635</ele>
        <time>2021-07-10T07:53:41Z</time>
      </trkpt>
      <trkpt lat="39.41859" lon="-7.46916">
        <ele>507.3622</ele>
        <time>2021-07-10T07:53:52Z</time>
      </trkpt>
      <trkpt lat="39.41857" lon="-7.4691">
        <ele>504.8493</ele>
        <time>2021-07-10T07:54:06Z</time>
      </trkpt>
      <trkpt lat="39.41806" lon="-7.46778">
        <ele>511.6417</ele>
        <time>2021-07-10T07:54:17Z</time>
      </trkpt>
      <trkpt lat="39.41712" lon="-7.46604">
        <ele>514.5762</ele>
        <time>2021-07-10T07:54:28Z</time>
      </trkpt>
      <trkpt lat="39.41628" lon="-7.46432">
        <ele>515.5344</ele>
        <time>2021-07-10T07:54:39Z</time>
      </trkpt>
      <trkpt lat="39.4151" lon="-7.46271">
        <ele>517.788</ele>
        <time>2021-07-10T07:54:50Z</time>
      </trkpt>
      <trkpt lat="39.41474" lon="-7.46187">
        <ele>522.9957</ele>
        <time>2021-07-10T07:55:01Z</time>
      </trkpt>
      <trkpt lat="39.41478" lon="-7.46188">
        <ele>525.8639</ele>
        <time>2021-07-10T07:55:12Z</time>
      </trkpt>
      <trkpt lat="39.41432" lon="-7.46151">
        <ele>527.1703</ele>
        <time>2021-07-10T07:55:23Z</time>
      </trkpt>
      <trkpt lat="39.41312" lon="-7.46069">
        <ele>535.6795</ele>
        <time>2021-07-10T07:55:34Z</time>
      </trkpt>
      <trkpt lat="39.41249" lon="-7.459">
        <ele>537.139</ele>
        <time>2021-07-10T07:55:45Z</time>
      </trkpt>
      <trkpt lat="39.41148" lon="-7.45706">
        <ele>537.5201</ele>
        <time>2021-07-10T07:55:56Z</time>
      </trkpt>
      <trkpt lat="39.41003" lon="-7.45507">
        <ele>547.324</ele>
        <time>2021-07-10T07:56:07Z</time>
      </trkpt>
      <trkpt lat="39.40855" lon="-7.45328">
        <ele>559.3372</ele>
        <time>2021-07-10T07:56:18Z</time>
      </trkpt>
      <trkpt lat="39.40761" lon="-7.45114">
        <ele>558.3329</ele>
        <time>2021-07-10T07:56:29Z</time>
      </trkpt>
      <trkpt lat="39.40672" lon="-7.44943">
        <ele>568.2156</ele>
        <time>2021-07-10T07:56:40Z</time>
      </trkpt>
      <trkpt lat="39.40597" lon="-7.44667">
        <ele>584.0489</ele>
        <time>2021-07-10T07:56:51Z</time>
      </trkpt>
      <trkpt lat="39.40607" lon="-7.44543">
        <ele>588.4802</ele>
        <time>2021-07-10T07:57:02Z</time>
      </trkpt>
      <trkpt lat="39.40579" lon="-7.44527">
        <ele>595.509</ele>
        <time>2021-07-10T07:57:13Z</time>
      </trkpt>
      <trkpt lat="39.40577" lon="-7.44523">
        <ele>600.103</ele>
        <time>2021-07-10T07:57:31Z</time>
      </trkpt>
      <trkpt lat="39.40574" lon="-7.44521">
        <ele>599.5371</ele>
        <time>2021-07-10T07:57:48Z</time>
      </trkpt>
      <trkpt lat="39.40491" lon="-7.44571">
        <ele>609.2423</ele>
        <time>2021-07-10T07:57:59Z</time>
      </trkpt>
      <trkpt lat="39.40425" lon="-7.44462">
        <ele>618.7147</ele>
        <time>2021-07-10T07:58:10Z</time>
      </trkpt>
      <trkpt lat="39.40381" lon="-7.44612">
        <ele>634.5654</ele>
        <time>2021-07-10T07:58:21Z</time>
      </trkpt>
      <trkpt lat="39.40361" lon="-7.44785">
        <ele>643.8825</ele>
        <time>2021-07-10T07:58:32Z</time>
      </trkpt>
      <trkpt lat="39.40311" lon="-7.44905">
        <ele>649.2358</ele>
        <time>2021-07-10T07:58:43Z</time>
      </trkpt>
      <trkpt lat="39.40297" lon="-7.44924">
        <ele>650.6635</ele>
        <time>2021-07-10T07:58:54Z</time>
      </trkpt>
      <trkpt lat="39.40309" lon="-7.44932">
        <ele>651.3594</ele>
        <time>2021-07-10T07:59:19Z</time>
      </trkpt>
      <trkpt lat="39.40306" lon="-7.4493">
        <ele>650.7408</ele>
        <time>2021-07-10T07:59:40Z</time>
      </trkpt>
      <trkpt lat="39.403" lon="-7.44928">
        <ele>645.7178</ele>
        <time>2021-07-10T07:59:51Z</time>
      </trkpt>
      <trkpt lat="39.40304" lon="-7.44931">
        <ele>644.6696</ele>
        <time>2021-07-10T08:00:02Z</time>
      </trkpt>
      <trkpt lat="39.40299" lon="-7.44928">
        <ele>644.9887</ele>
        <time>2021-07-10T08:00:47Z</time>
      </trkpt>
      <trkpt lat="39.40288" lon="-7.44931">
        <ele>647.2923</ele>
        <time>2021-07-10T08:00:58Z</time>
      </trkpt>
      <trkpt lat="39.40166" lon="-7.44949">
        <ele>660.337</ele>
        <time>2021-07-10T08:01:09Z</time>
      </trkpt>
      <trkpt lat="39.40167" lon="-7.44822">
        <ele>673.522</ele>
        <time>2021-07-10T08:01:20Z</time>
      </trkpt>
      <trkpt lat="39.40059" lon="-7.44811">
        <ele>690.8857</ele>
        <time>2021-07-10T08:01:31Z</time>
      </trkpt>
      <trkpt lat="39.39981" lon="-7.44936">
        <ele>699.4721</ele>
        <time>2021-07-10T08:01:42Z</time>
      </trkpt>
      <trkpt lat="39.39849" lon="-7.44876">
        <ele>704.1237</ele>
        <time>2021-07-10T08:01:53Z</time>
      </trkpt>
      <trkpt lat="39.39737" lon="-7.4475">
        <ele>708.8696</ele>
        <time>2021-07-10T08:02:04Z</time>
      </trkpt>
      <trkpt lat="39.39829" lon="-7.44546">
        <ele>711.2886</ele>
        <time>2021-07-10T08:02:15Z</time>
      </trkpt>
      <trkpt lat="39.39737" lon="-7.4439">
        <ele>707.8378</ele>
        <time>2021-07-10T08:02:26Z</time>
      </trkpt>
      <trkpt lat="39.39599" lon="-7.44215">
        <ele>698.7701</ele>
        <time>2021-07-10T08:02:37Z</time>
      </trkpt>
      <trkpt lat="39.39434" lon="-7.4414">
        <ele>693.1908</ele>
        <time>2021-07-10T08:02:48Z</time>
      </trkpt>
      <trkpt lat="39.39324" lon="-7.4402">
        <ele>690.2963</ele>
        <time>2021-07-10T08:02:59Z</time>
      </trkpt>
      <trkpt lat="39.39156" lon="-7.43938">
        <ele>683.6541</ele>
        <time>2021-07-10T08:03:10Z</time>
      </trkpt>
      <trkpt lat="39.38984" lon="-7.43812">
        <ele>677.2266</ele>
        <time>2021-07-10T08:03:21Z</time>
      </trkpt>
      <trkpt lat="39.38851" lon="-7.43665">
        <ele>674.5055</ele>
        <time>2021-07-10T08:03:32Z</time>
      </trkpt>
      <trkpt lat="39.38694" lon="-7.43687">
        <ele>672.0238</ele>
        <time>2021-07-10T08:03:43Z</time>
      </trkpt>
      <trkpt lat="39.38615" lon="-7.43546">
        <ele>670.7411</ele>
        <time>2021-07-10T08:03:54Z</time>
      </trkpt>
      <trkpt lat="39.38553" lon="-7.43336">
        <ele>667.905</ele>
        <time>2021-07-10T08:04:05Z</time>
      </trkpt>
      <trkpt lat="39.38599" lon="-7.43136">
        <ele>666.5472</ele>
        <time>2021-07-10T08:04:16Z</time>
      </trkpt>
      <trkpt lat="39.38574" lon="-7.42971">
        <ele>658.7417</ele>
        <time>2021-07-10T08:04:27Z</time>
      </trkpt>
      <trkpt lat="39.38397" lon="-7.42906">
        <ele>651.6187</ele>
        <time>2021-07-10T08:04:38Z</time>
      </trkpt>
      <trkpt lat="39.38214" lon="-7.42903">
        <ele>643.1632</ele>
        <time>2021-07-10T08:04:49Z</time>
      </trkpt>
      <trkpt lat="39.38056" lon="-7.43007">
        <ele>635.3918</ele>
        <time>2021-07-10T08:05:00Z</time>
      </trkpt>
      <trkpt lat="39.37927" lon="-7.43067">
        <ele>630.7541</ele>
        <time>2021-07-10T08:05:11Z</time>
      </trkpt>
      <trkpt lat="39.37811" lon="-7.43144">
        <ele>623.8864</ele>
        <time>2021-07-10T08:05:22Z</time>
      </trkpt>
      <trkpt lat="39.37698" lon="-7.4317">
        <ele>618.1164</ele>
        <time>2021-07-10T08:05:33Z</time>
      </trkpt>
      <trkpt lat="39.37602" lon="-7.4305">
        <ele>614.9031</ele>
        <time>2021-07-10T08:05:44Z</time>
      </trkpt>
      <trkpt lat="39.37475" lon="-7.43039">
        <ele>616.4068</ele>
        <time>2021-07-10T08:05:55Z</time>
      </trkpt>
      <trkpt lat="39.3734" lon="-7.43063">
        <ele>614.2542</ele>
        <time>2021-07-10T08:06:06Z</time>
      </trkpt>
      <trkpt lat="39.37264" lon="-7.43201">
        <ele>608.23</ele>
        <time>2021-07-10T08:06:17Z</time>
      </trkpt>
      <trkpt lat="39.37254" lon="-7.43311">
        <ele>601.3462</ele>
        <time>2021-07-10T08:06:28Z</time>
      </trkpt>
      <trkpt lat="39.37243" lon="-7.43476">
        <ele>593.4679</ele>
        <time>2021-07-10T08:06:39Z</time>
      </trkpt>
      <trkpt lat="39.3709" lon="-7.43523">
        <ele>577.9929</ele>
        <time>2021-07-10T08:06:50Z</time>
      </trkpt>
      <trkpt lat="39.36933" lon="-7.43588">
        <ele>558.8837</ele>
        <time>2021-07-10T08:07:01Z</time>
      </trkpt>
      <trkpt lat="39.36862" lon="-7.435">
        <ele>546.6767</ele>
        <time>2021-07-10T08:07:12Z</time>
      </trkpt>
      <trkpt lat="39.36818" lon="-7.43396">
        <ele>531.6478</ele>
        <time>2021-07-10T08:07:23Z</time>
      </trkpt>
      <trkpt lat="39.36673" lon="-7.43403">
        <ele>513.9492</ele>
        <time>2021-07-10T08:07:34Z</time>
      </trkpt>
      <trkpt lat="39.36597" lon="-7.43453">
        <ele>504.1129</ele>
        <time>2021-07-10T08:07:45Z</time>
      </trkpt>
      <trkpt lat="39.36531" lon="-7.43666">
        <ele>500.1058</ele>
        <time>2021-07-10T08:07:56Z</time>
      </trkpt>
      <trkpt lat="39.36506" lon="-7.43913">
        <ele>481.2669</ele>
        <time>2021-07-10T08:08:07Z</time>
      </trkpt>
      <trkpt lat="39.36537" lon="-7.44113">
        <ele>466.2884</ele>
        <time>2021-07-10T08:08:18Z</time>
      </trkpt>
      <trkpt lat="39.36662" lon="-7.44248">
        <ele>464.638</ele>
        <time>2021-07-10T08:08:29Z</time>
      </trkpt>
      <trkpt lat="39.3666" lon="-7.4433">
        <ele>467.5006</ele>
        <time>2021-07-10T08:08:40Z</time>
      </trkpt>
      <trkpt lat="39.365" lon="-7.44336">
        <ele>458.6035</ele>
        <time>2021-07-10T08:08:51Z</time>
      </trkpt>
      <trkpt lat="39.36324" lon="-7.44367">
        <ele>452.5359</ele>
        <time>2021-07-10T08:09:02Z</time>
      </trkpt>
      <trkpt lat="39.36163" lon="-7.44413">
        <ele>448.6681</ele>
        <time>2021-07-10T08:09:13Z</time>
      </trkpt>
      <trkpt lat="39.36016" lon="-7.44464">
        <ele>450.9738</ele>
        <time>2021-07-10T08:09:24Z</time>
      </trkpt>
      <trkpt lat="39.35875" lon="-7.44486">
        <ele>446.8204</ele>
        <time>2021-07-10T08:09:35Z</time>
      </trkpt>
      <trkpt lat="39.3574" lon="-7.44518">
        <ele>442.8596</ele>
        <time>2021-07-10T08:09:46Z</time>
      </trkpt>
      <trkpt lat="39.35614" lon="-7.4453">
        <ele>438.7855</ele>
        <time>2021-07-10T08:09:57Z</time>
      </trkpt>
      <trkpt lat="39.355" lon="-7.44631">
        <ele>434.5</ele>
        <time>2021-07-10T08:10:08Z</time>
      </trkpt>
      <trkpt lat="39.35357" lon="-7.44699">
        <ele>435.094</ele>
        <time>2021-07-10T08:10:19Z</time>
      </trkpt>
      <trkpt lat="39.35213" lon="-7.44741">
        <ele>435.8269</ele>
        <time>2021-07-10T08:10:30Z</time>
      </trkpt>
      <trkpt lat="39.35091" lon="-7.44806">
        <ele>438.1302</ele>
        <time>2021-07-10T08:10:41Z</time>
      </trkpt>
      <trkpt lat="39.34971" lon="-7.44878">
        <ele>439.9053</ele>
        <time>2021-07-10T08:10:52Z</time>
      </trkpt>
      <trkpt lat="39.34866" lon="-7.44891">
        <ele>431.9831</ele>
        <time>2021-07-10T08:11:03Z</time>
      </trkpt>
      <trkpt lat="39.34766" lon="-7.44879">
        <ele>425.1623</ele>
        <time>2021-07-10T08:11:14Z</time>
      </trkpt>
      <trkpt lat="39.34619" lon="-7.44882">
        <ele>420.1042</ele>
        <time>2021-07-10T08:11:25Z</time>
      </trkpt>
      <trkpt lat="39.34495" lon="-7.44857">
        <ele>415.0608</ele>
        <time>2021-07-10T08:11:36Z</time>
      </trkpt>
      <trkpt lat="39.34362" lon="-7.44769">
        <ele>421.4627</ele>
        <time>2021-07-10T08:11:47Z</time>
      </trkpt>
      <trkpt lat="39.34226" lon="-7.44718">
        <ele>425.8865</ele>
        <time>2021-07-10T08:11:58Z</time>
      </trkpt>
      <trkpt lat="39.34108" lon="-7.44683">
        <ele>434.1309</ele>
        <time>2021-07-10T08:12:09Z</time>
      </trkpt>
      <trkpt lat="39.3401" lon="-7.44628">
        <ele>438.3988</ele>
        <time>2021-07-10T08:12:20Z</time>
      </trkpt>
      <trkpt lat="39.33903" lon="-7.44575">
        <ele>432.9016</ele>
        <time>2021-07-10T08:12:31Z</time>
      </trkpt>
      <trkpt lat="39.33802" lon="-7.44459">
        <ele>436.6359</ele>
        <time>2021-07-10T08:12:42Z</time>
      </trkpt>
      <trkpt lat="39.33723" lon="-7.44407">
        <ele>438.8981</ele>
        <time>2021-07-10T08:12:53Z</time>
      </trkpt>
      <trkpt lat="39.33616" lon="-7.44354">
        <ele>437.7407</ele>
        <time>2021-07-10T08:13:04Z</time>
      </trkpt>
      <trkpt lat="39.33572" lon="-7.44304">
        <ele>440.3516</ele>
        <time>2021-07-10T08:13:15Z</time>
      </trkpt>
      <trkpt lat="39.33566" lon="-7.44298">
        <ele>441.3152</ele>
        <time>2021-07-10T08:13:26Z</time>
      </trkpt>
      <trkpt lat="39.33443" lon="-7.44412">
        <ele>439.2467</ele>
        <time>2021-07-10T08:13:37Z</time>
      </trkpt>
      <trkpt lat="39.33259" lon="-7.44482">
        <ele>440.4346</ele>
        <time>2021-07-10T08:13:48Z</time>
      </trkpt>
      <trkpt lat="39.33114" lon="-7.44502">
        <ele>440.7744</ele>
        <time>2021-07-10T08:13:59Z</time>
      </trkpt>
      <trkpt lat="39.32999" lon="-7.44507">
        <ele>438.695</ele>
        <time>2021-07-10T08:14:10Z</time>
      </trkpt>
      <trkpt lat="39.33036" lon="-7.44606">
        <ele>436.711</ele>
        <time>2021-07-10T08:14:21Z</time>
      </trkpt>
      <trkpt lat="39.3307" lon="-7.44752">
        <ele>440.0732</ele>
        <time>2021-07-10T08:14:32Z</time>
      </trkpt>
      <trkpt lat="39.33094" lon="-7.44992">
        <ele>449.6995</ele>
        <time>2021-07-10T08:14:43Z</time>
      </trkpt>
      <trkpt lat="39.33114" lon="-7.4528">
        <ele>458.6215</ele>
        <time>2021-07-10T08:14:54Z</time>
      </trkpt>
      <trkpt lat="39.33104" lon="-7.45538">
        <ele>468.4726</ele>
        <time>2021-07-10T08:15:05Z</time>
      </trkpt>
      <trkpt lat="39.33087" lon="-7.45728">
        <ele>481.4357</ele>
        <time>2021-07-10T08:15:16Z</time>
      </trkpt>
      <trkpt lat="39.33006" lon="-7.45686">
        <ele>473.9576</ele>
        <time>2021-07-10T08:15:27Z</time>
      </trkpt>
      <trkpt lat="39.32905" lon="-7.45761">
        <ele>471.3233</ele>
        <time>2021-07-10T08:15:38Z</time>
      </trkpt>
      <trkpt lat="39.32761" lon="-7.45643">
        <ele>463.3005</ele>
        <time>2021-07-10T08:15:49Z</time>
      </trkpt>
      <trkpt lat="39.32622" lon="-7.45487">
        <ele>456.1322</ele>
        <time>2021-07-10T08:16:00Z</time>
      </trkpt>
      <trkpt lat="39.32455" lon="-7.45318">
        <ele>471.0121</ele>
        <time>2021-07-10T08:16:11Z</time>
      </trkpt>
      <trkpt lat="39.3231" lon="-7.45143">
        <ele>468.5673</ele>
        <time>2021-07-10T08:16:22Z</time>
      </trkpt>
      <trkpt lat="39.32107" lon="-7.45009">
        <ele>471.1348</ele>
        <time>2021-07-10T08:16:33Z</time>
      </trkpt>
      <trkpt lat="39.31896" lon="-7.44907">
        <ele>471.8292</ele>
        <time>2021-07-10T08:16:44Z</time>
      </trkpt>
      <trkpt lat="39.31673" lon="-7.44818">
        <ele>472.9249</ele>
        <time>2021-07-10T08:16:55Z</time>
      </trkpt>
      <trkpt lat="39.31482" lon="-7.44665">
        <ele>467.368</ele>
        <time>2021-07-10T08:17:06Z</time>
      </trkpt>
      <trkpt lat="39.31292" lon="-7.44511">
        <ele>472.2671</ele>
        <time>2021-07-10T08:17:17Z</time>
      </trkpt>
      <trkpt lat="39.31137" lon="-7.44421">
        <ele>473.8808</ele>
        <time>2021-07-10T08:17:28Z</time>
      </trkpt>
      <trkpt lat="39.30999" lon="-7.4435">
        <ele>472.4676</ele>
        <time>2021-07-10T08:17:39Z</time>
      </trkpt>
      <trkpt lat="39.30974" lon="-7.44307">
        <ele>472.3747</ele>
        <time>2021-07-10T08:17:50Z</time>
      </trkpt>
      <trkpt lat="39.30866" lon="-7.44283">
        <ele>469.2761</ele>
        <time>2021-07-10T08:18:01Z</time>
      </trkpt>
      <trkpt lat="39.30759" lon="-7.44233">
        <ele>466.7798</ele>
        <time>2021-07-10T08:18:12Z</time>
      </trkpt>
      <trkpt lat="39.30626" lon="-7.44149">
        <ele>463.5776</ele>
        <time>2021-07-10T08:18:23Z</time>
      </trkpt>
      <trkpt lat="39.30563" lon="-7.44144">
        <ele>463.8321</ele>
        <time>2021-07-10T08:18:34Z</time>
      </trkpt>
      <trkpt lat="39.30474" lon="-7.44108">
        <ele>453.5891</ele>
        <time>2021-07-10T08:18:45Z</time>
      </trkpt>
      <trkpt lat="39.30331" lon="-7.44011">
        <ele>443.4962</ele>
        <time>2021-07-10T08:18:56Z</time>
      </trkpt>
      <trkpt lat="39.30175" lon="-7.43955">
        <ele>431.7094</ele>
        <time>2021-07-10T08:19:07Z</time>
      </trkpt>
      <trkpt lat="39.30004" lon="-7.43955">
        <ele>422.394</ele>
        <time>2021-07-10T08:19:18Z</time>
      </trkpt>
      <trkpt lat="39.29829" lon="-7.43907">
        <ele>414.7011</ele>
        <time>2021-07-10T08:19:29Z</time>
      </trkpt>
      <trkpt lat="39.29747" lon="-7.43919">
        <ele>412.8419</ele>
        <time>2021-07-10T08:19:40Z</time>
      </trkpt>
      <trkpt lat="39.29712" lon="-7.4394">
        <ele>410.4781</ele>
        <time>2021-07-10T08:19:51Z</time>
      </trkpt>
      <trkpt lat="39.29658" lon="-7.43874">
        <ele>402.9754</ele>
        <time>2021-07-10T08:20:02Z</time>
      </trkpt>
      <trkpt lat="39.29539" lon="-7.43943">
        <ele>392.9472</ele>
        <time>2021-07-10T08:20:13Z</time>
      </trkpt>
      <trkpt lat="39.29389" lon="-7.43999">
        <ele>386.2357</ele>
        <time>2021-07-10T08:20:24Z</time>
      </trkpt>
      <trkpt lat="39.29267" lon="-7.44097">
        <ele>377.9001</ele>
        <time>2021-07-10T08:20:35Z</time>
      </trkpt>
      <trkpt lat="39.29223" lon="-7.44205">
        <ele>379.0695</ele>
        <time>2021-07-10T08:20:46Z</time>
      </trkpt>
      <trkpt lat="39.29076" lon="-7.44264">
        <ele>372.4898</ele>
        <time>2021-07-10T08:20:57Z</time>
      </trkpt>
      <trkpt lat="39.28876" lon="-7.44337">
        <ele>367.3901</ele>
        <time>2021-07-10T08:21:08Z</time>
      </trkpt>
      <trkpt lat="39.28676" lon="-7.44446">
        <ele>361.8636</ele>
        <time>2021-07-10T08:21:19Z</time>
      </trkpt>
      <trkpt lat="39.28469" lon="-7.44529">
        <ele>362.8736</ele>
        <time>2021-07-10T08:21:30Z</time>
      </trkpt>
      <trkpt lat="39.28241" lon="-7.44568">
        <ele>352.7786</ele>
        <time>2021-07-10T08:21:41Z</time>
      </trkpt>
      <trkpt lat="39.28081" lon="-7.4448">
        <ele>335.5952</ele>
        <time>2021-07-10T08:21:52Z</time>
      </trkpt>
      <trkpt lat="39.28098" lon="-7.44368">
        <ele>349.2519</ele>
        <time>2021-07-10T08:22:03Z</time>
      </trkpt>
      <trkpt lat="39.27964" lon="-7.44404">
        <ele>346.7427</ele>
        <time>2021-07-10T08:22:14Z</time>
      </trkpt>
      <trkpt lat="39.27914" lon="-7.44382">
        <ele>341.2617</ele>
        <time>2021-07-10T08:22:25Z</time>
      </trkpt>
      <trkpt lat="39.27803" lon="-7.44382">
        <ele>345.1174</ele>
        <time>2021-07-10T08:22:36Z</time>
      </trkpt>
      <trkpt lat="39.2769" lon="-7.44366">
        <ele>341.5376</ele>
        <time>2021-07-10T08:22:47Z</time>
      </trkpt>
      <trkpt lat="39.27556" lon="-7.44358">
        <ele>346.6978</ele>
        <time>2021-07-10T08:22:58Z</time>
      </trkpt>
      <trkpt lat="39.2742" lon="-7.44322">
        <ele>351.4711</ele>
        <time>2021-07-10T08:23:09Z</time>
      </trkpt>
      <trkpt lat="39.27297" lon="-7.4435">
        <ele>345.925</ele>
        <time>2021-07-10T08:23:20Z</time>
      </trkpt>
      <trkpt lat="39.27154" lon="-7.44387">
        <ele>345.5165</ele>
        <time>2021-07-10T08:23:31Z</time>
      </trkpt>
      <trkpt lat="39.27018" lon="-7.4443">
        <ele>349.146</ele>
        <time>2021-07-10T08:23:42Z</time>
      </trkpt>
      <trkpt lat="39.26888" lon="-7.44477">
        <ele>352.4008</ele>
        <time>2021-07-10T08:23:53Z</time>
      </trkpt>
      <trkpt lat="39.26749" lon="-7.44445">
        <ele>330.8547</ele>
        <time>2021-07-10T08:24:04Z</time>
      </trkpt>
      <trkpt lat="39.26611" lon="-7.44431">
        <ele>329.6687</ele>
        <time>2021-07-10T08:24:15Z</time>
      </trkpt>
      <trkpt lat="39.26465" lon="-7.4445">
        <ele>328.0735</ele>
        <time>2021-07-10T08:24:26Z</time>
      </trkpt>
      <trkpt lat="39.26373" lon="-7.44435">
        <ele>325.3015</ele>
        <time>2021-07-10T08:24:37Z</time>
      </trkpt>
      <trkpt lat="39.26369" lon="-7.44499">
        <ele>334.5404</ele>
        <time>2021-07-10T08:24:48Z</time>
      </trkpt>
      <trkpt lat="39.26369" lon="-7.44596">
        <ele>344.3456</ele>
        <time>2021-07-10T08:24:59Z</time>
      </trkpt>
      <trkpt lat="39.26271" lon="-7.44793">
        <ele>335.7212</ele>
        <time>2021-07-10T08:25:10Z</time>
      </trkpt>
      <trkpt lat="39.26124" lon="-7.45076">
        <ele>319.7818</ele>
        <time>2021-07-10T08:25:21Z</time>
      </trkpt>
      <trkpt lat="39.26037" lon="-7.45263">
        <ele>333.9489</ele>
        <time>2021-07-10T08:25:32Z</time>
      </trkpt>
      <trkpt lat="39.25935" lon="-7.45507">
        <ele>326.0616</ele>
        <time>2021-07-10T08:25:43Z</time>
      </trkpt>
      <trkpt lat="39.2583" lon="-7.45765">
        <ele>325.5997</ele>
        <time>2021-07-10T08:25:54Z</time>
      </trkpt>
      <trkpt lat="39.25694" lon="-7.46094">
        <ele>318.5383</ele>
        <time>2021-07-10T08:26:05Z</time>
      </trkpt>
      <trkpt lat="39.2557" lon="-7.46273">
        <ele>315.1833</ele>
        <time>2021-07-10T08:26:16Z</time>
      </trkpt>
      <trkpt lat="39.25356" lon="-7.46462">
        <ele>312.2337</ele>
        <time>2021-07-10T08:26:27Z</time>
      </trkpt>
      <trkpt lat="39.25145" lon="-7.46651">
        <ele>323.0002</ele>
        <time>2021-07-10T08:26:38Z</time>
      </trkpt>
      <trkpt lat="39.25033" lon="-7.46815">
        <ele>323.0876</ele>
        <time>2021-07-10T08:26:49Z</time>
      </trkpt>
      <trkpt lat="39.24967" lon="-7.47001">
        <ele>324.3685</ele>
        <time>2021-07-10T08:27:00Z</time>
      </trkpt>
      <trkpt lat="39.24962" lon="-7.4701">
        <ele>321.7836</ele>
        <time>2021-07-10T08:27:11Z</time>
      </trkpt>
      <trkpt lat="39.24865" lon="-7.47189">
        <ele>320.5748</ele>
        <time>2021-07-10T08:27:22Z</time>
      </trkpt>
      <trkpt lat="39.24728" lon="-7.47442">
        <ele>320.9484</ele>
        <time>2021-07-10T08:27:33Z</time>
      </trkpt>
      <trkpt lat="39.24628" lon="-7.47683">
        <ele>320.005</ele>
        <time>2021-07-10T08:27:44Z</time>
      </trkpt>
      <trkpt lat="39.24554" lon="-7.47926">
        <ele>305.726</ele>
        <time>2021-07-10T08:27:55Z</time>
      </trkpt>
      <trkpt lat="39.24498" lon="-7.48193">
        <ele>297.6901</ele>
        <time>2021-07-10T08:28:06Z</time>
      </trkpt>
      <trkpt lat="39.24443" lon="-7.48432">
        <ele>286.5693</ele>
        <time>2021-07-10T08:28:17Z</time>
      </trkpt>
      <trkpt lat="39.24405" lon="-7.48528">
        <ele>298.5839</ele>
        <time>2021-07-10T08:28:28Z</time>
      </trkpt>
      <trkpt lat="39.24325" lon="-7.48505">
        <ele>301.148</ele>
        <time>2021-07-10T08:28:39Z</time>
      </trkpt>
      <trkpt lat="39.24226" lon="-7.48474">
        <ele>292.4401</ele>
        <time>2021-07-10T08:28:50Z</time>
      </trkpt>
      <trkpt lat="39.24129" lon="-7.48443">
        <ele>286.1668</ele>
        <time>2021-07-10T08:29:01Z</time>
      </trkpt>
      <trkpt lat="39.24054" lon="-7.48423">
        <ele>287.7344</ele>
        <time>2021-07-10T08:29:12Z</time>
      </trkpt>
      <trkpt lat="39.23976" lon="-7.48361">
        <ele>291.5149</ele>
        <time>2021-07-10T08:29:23Z</time>
      </trkpt>
      <trkpt lat="39.2389" lon="-7.48367">
        <ele>291.7652</ele>
        <time>2021-07-10T08:29:34Z</time>
      </trkpt>
      <trkpt lat="39.23816" lon="-7.48423">
        <ele>292.6209</ele>
        <time>2021-07-10T08:29:45Z</time>
      </trkpt>
      <trkpt lat="39.23714" lon="-7.48506">
        <ele>287.9566</ele>
        <time>2021-07-10T08:29:56Z</time>
      </trkpt>
      <trkpt lat="39.23605" lon="-7.48541">
        <ele>292.4971</ele>
        <time>2021-07-10T08:30:07Z</time>
      </trkpt>
      <trkpt lat="39.2351" lon="-7.48559">
        <ele>297.0767</ele>
        <time>2021-07-10T08:30:18Z</time>
      </trkpt>
      <trkpt lat="39.23422" lon="-7.48609">
        <ele>296.8037</ele>
        <time>2021-07-10T08:30:29Z</time>
      </trkpt>
      <trkpt lat="39.23325" lon="-7.48613">
        <ele>294.7568</ele>
        <time>2021-07-10T08:30:40Z</time>
      </trkpt>
      <trkpt lat="39.23223" lon="-7.48551">
        <ele>289.8791</ele>
        <time>2021-07-10T08:30:51Z</time>
      </trkpt>
      <trkpt lat="39.23149" lon="-7.48487">
        <ele>286.8739</ele>
        <time>2021-07-10T08:31:02Z</time>
      </trkpt>
      <trkpt lat="39.2319" lon="-7.48367">
        <ele>290.4142</ele>
        <time>2021-07-10T08:31:13Z</time>
      </trkpt>
      <trkpt lat="39.23229" lon="-7.48257">
        <ele>292.0983</ele>
        <time>2021-07-10T08:31:24Z</time>
      </trkpt>
      <trkpt lat="39.23208" lon="-7.48238">
        <ele>292.3941</ele>
        <time>2021-07-10T08:31:35Z</time>
      </trkpt>
      <trkpt lat="39.23208" lon="-7.48236">
        <ele>291.8965</ele>
        <time>2021-07-10T08:32:35Z</time>
      </trkpt>
      <trkpt lat="39.2321" lon="-7.48235">
        <ele>292.6563</ele>
        <time>2021-07-10T08:33:34Z</time>
      </trkpt>
      <trkpt lat="39.23209" lon="-7.48236">
        <ele>291.6836</ele>
        <time>2021-07-10T08:34:34Z</time>
      </trkpt>
      <trkpt lat="39.2321" lon="-7.48235">
        <ele>292.4413</ele>
        <time>2021-07-10T08:35:33Z</time>
      </trkpt>
      <trkpt lat="39.23209" lon="-7.48236">
        <ele>291.1025</ele>
        <time>2021-07-10T08:36:32Z</time>
      </trkpt>
      <trkpt lat="39.23201" lon="-7.48235">
        <ele>291.3827</ele>
        <time>2021-07-10T08:37:24Z</time>
      </trkpt>
      <trkpt lat="39.23148" lon="-7.48194">
        <ele>285.4264</ele>
        <time>2021-07-10T08:37:35Z</time>
      </trkpt>
      <trkpt lat="39.23161" lon="-7.48093">
        <ele>290.2652</ele>
        <time>2021-07-10T08:37:46Z</time>
      </trkpt>
      <trkpt lat="39.2315" lon="-7.48018">
        <ele>291.5549</ele>
        <time>2021-07-10T08:37:57Z</time>
      </trkpt>
      <trkpt lat="39.23103" lon="-7.47941">
        <ele>295.3985</ele>
        <time>2021-07-10T08:38:08Z</time>
      </trkpt>
      <trkpt lat="39.23016" lon="-7.47851">
        <ele>292.2126</ele>
        <time>2021-07-10T08:38:19Z</time>
      </trkpt>
      <trkpt lat="39.22914" lon="-7.47842">
        <ele>292.8755</ele>
        <time>2021-07-10T08:38:30Z</time>
      </trkpt>
      <trkpt lat="39.22818" lon="-7.47824">
        <ele>287.9927</ele>
        <time>2021-07-10T08:38:41Z</time>
      </trkpt>
      <trkpt lat="39.22747" lon="-7.47819">
        <ele>285.9263</ele>
        <time>2021-07-10T08:38:52Z</time>
      </trkpt>
      <trkpt lat="39.22625" lon="-7.47772">
        <ele>293.606</ele>
        <time>2021-07-10T08:39:03Z</time>
      </trkpt>
      <trkpt lat="39.22499" lon="-7.47777">
        <ele>294.8824</ele>
        <time>2021-07-10T08:39:14Z</time>
      </trkpt>
      <trkpt lat="39.22371" lon="-7.47819">
        <ele>294.4399</ele>
        <time>2021-07-10T08:39:25Z</time>
      </trkpt>
      <trkpt lat="39.22239" lon="-7.47809">
        <ele>291.4896</ele>
        <time>2021-07-10T08:39:36Z</time>
      </trkpt>
      <trkpt lat="39.22105" lon="-7.47809">
        <ele>292.7533</ele>
        <time>2021-07-10T08:39:47Z</time>
      </trkpt>
      <trkpt lat="39.21993" lon="-7.47805">
        <ele>292.4545</ele>
        <time>2021-07-10T08:39:58Z</time>
      </trkpt>
      <trkpt lat="39.21854" lon="-7.47849">
        <ele>294.7064</ele>
        <time>2021-07-10T08:40:09Z</time>
      </trkpt>
      <trkpt lat="39.21745" lon="-7.47954">
        <ele>296.381</ele>
        <time>2021-07-10T08:40:20Z</time>
      </trkpt>
      <trkpt lat="39.21646" lon="-7.48005">
        <ele>300.8073</ele>
        <time>2021-07-10T08:40:31Z</time>
      </trkpt>
      <trkpt lat="39.21576" lon="-7.48071">
        <ele>299.1388</ele>
        <time>2021-07-10T08:40:42Z</time>
      </trkpt>
      <trkpt lat="39.21489" lon="-7.48096">
        <ele>300.0165</ele>
        <time>2021-07-10T08:40:53Z</time>
      </trkpt>
      <trkpt lat="39.21383" lon="-7.48105">
        <ele>299.8535</ele>
        <time>2021-07-10T08:41:04Z</time>
      </trkpt>
      <trkpt lat="39.21288" lon="-7.48108">
        <ele>294.9149</ele>
        <time>2021-07-10T08:41:15Z</time>
      </trkpt>
      <trkpt lat="39.21236" lon="-7.48136">
        <ele>298.0374</ele>
        <time>2021-07-10T08:41:26Z</time>
      </trkpt>
      <trkpt lat="39.21205" lon="-7.48045">
        <ele>293.5956</ele>
        <time>2021-07-10T08:41:37Z</time>
      </trkpt>
      <trkpt lat="39.21168" lon="-7.47941">
        <ele>284.0581</ele>
        <time>2021-07-10T08:41:48Z</time>
      </trkpt>
      <trkpt lat="39.21124" lon="-7.47858">
        <ele>300.0966</ele>
        <time>2021-07-10T08:41:59Z</time>
      </trkpt>
      <trkpt lat="39.21042" lon="-7.47783">
        <ele>302.9321</ele>
        <time>2021-07-10T08:42:10Z</time>
      </trkpt>
      <trkpt lat="39.20962" lon="-7.47737">
        <ele>304.9257</ele>
        <time>2021-07-10T08:42:21Z</time>
      </trkpt>
      <trkpt lat="39.20887" lon="-7.47711">
        <ele>301.9664</ele>
        <time>2021-07-10T08:42:32Z</time>
      </trkpt>
      <trkpt lat="39.20828" lon="-7.47705">
        <ele>300.0446</ele>
        <time>2021-07-10T08:42:43Z</time>
      </trkpt>
      <trkpt lat="39.20672" lon="-7.47646">
        <ele>297.7427</ele>
        <time>2021-07-10T08:42:54Z</time>
      </trkpt>
      <trkpt lat="39.20582" lon="-7.47604">
        <ele>297.9257</ele>
        <time>2021-07-10T08:43:05Z</time>
      </trkpt>
      <trkpt lat="39.20588" lon="-7.47485">
        <ele>296.3674</ele>
        <time>2021-07-10T08:43:16Z</time>
      </trkpt>
      <trkpt lat="39.20615" lon="-7.47338">
        <ele>295.9774</ele>
        <time>2021-07-10T08:43:27Z</time>
      </trkpt>
      <trkpt lat="39.20613" lon="-7.47203">
        <ele>297.4328</ele>
        <time>2021-07-10T08:43:38Z</time>
      </trkpt>
      <trkpt lat="39.20525" lon="-7.47072">
        <ele>298.0395</ele>
        <time>2021-07-10T08:43:49Z</time>
      </trkpt>
      <trkpt lat="39.20432" lon="-7.46984">
        <ele>295.4562</ele>
        <time>2021-07-10T08:44:00Z</time>
      </trkpt>
      <trkpt lat="39.20417" lon="-7.46891">
        <ele>295.5341</ele>
        <time>2021-07-10T08:44:11Z</time>
      </trkpt>
      <trkpt lat="39.20314" lon="-7.46814">
        <ele>300.1662</ele>
        <time>2021-07-10T08:44:22Z</time>
      </trkpt>
      <trkpt lat="39.20243" lon="-7.4669">
        <ele>304.5564</ele>
        <time>2021-07-10T08:44:33Z</time>
      </trkpt>
      <trkpt lat="39.20193" lon="-7.46594">
        <ele>299.4303</ele>
        <time>2021-07-10T08:44:44Z</time>
      </trkpt>
      <trkpt lat="39.20133" lon="-7.46494">
        <ele>298.8211</ele>
        <time>2021-07-10T08:44:55Z</time>
      </trkpt>
      <trkpt lat="39.20054" lon="-7.46427">
        <ele>293.039</ele>
        <time>2021-07-10T08:45:06Z</time>
      </trkpt>
      <trkpt lat="39.19965" lon="-7.46384">
        <ele>306.5202</ele>
        <time>2021-07-10T08:45:17Z</time>
      </trkpt>
      <trkpt lat="39.199" lon="-7.46305">
        <ele>313.5981</ele>
        <time>2021-07-10T08:45:28Z</time>
      </trkpt>
      <trkpt lat="39.19845" lon="-7.46256">
        <ele>308.7089</ele>
        <time>2021-07-10T08:45:39Z</time>
      </trkpt>
      <trkpt lat="39.19754" lon="-7.46358">
        <ele>303.7514</ele>
        <time>2021-07-10T08:45:50Z</time>
      </trkpt>
      <trkpt lat="39.19672" lon="-7.46525">
        <ele>288.4845</ele>
        <time>2021-07-10T08:46:01Z</time>
      </trkpt>
      <trkpt lat="39.19592" lon="-7.46696">
        <ele>309.1339</ele>
        <time>2021-07-10T08:46:12Z</time>
      </trkpt>
      <trkpt lat="39.19562" lon="-7.46893">
        <ele>316.3903</ele>
        <time>2021-07-10T08:46:23Z</time>
      </trkpt>
      <trkpt lat="39.19496" lon="-7.47069">
        <ele>318.4049</ele>
        <time>2021-07-10T08:46:34Z</time>
      </trkpt>
      <trkpt lat="39.19474" lon="-7.47267">
        <ele>311.3489</ele>
        <time>2021-07-10T08:46:45Z</time>
      </trkpt>
      <trkpt lat="39.19445" lon="-7.47472">
        <ele>314.3155</ele>
        <time>2021-07-10T08:46:56Z</time>
      </trkpt>
      <trkpt lat="39.19442" lon="-7.47666">
        <ele>318.0904</ele>
        <time>2021-07-10T08:47:07Z</time>
      </trkpt>
      <trkpt lat="39.19429" lon="-7.47849">
        <ele>316.646</ele>
        <time>2021-07-10T08:47:18Z</time>
      </trkpt>
      <trkpt lat="39.19429" lon="-7.48027">
        <ele>312.6938</ele>
        <time>2021-07-10T08:47:29Z</time>
      </trkpt>
      <trkpt lat="39.19353" lon="-7.48192">
        <ele>317.9055</ele>
        <time>2021-07-10T08:47:40Z</time>
      </trkpt>
      <trkpt lat="39.19285" lon="-7.48366">
        <ele>323.907</ele>
        <time>2021-07-10T08:47:51Z</time>
      </trkpt>
      <trkpt lat="39.19313" lon="-7.48663">
        <ele>319.6932</ele>
        <time>2021-07-10T08:48:02Z</time>
      </trkpt>
      <trkpt lat="39.1934" lon="-7.48965">
        <ele>324.9983</ele>
        <time>2021-07-10T08:48:13Z</time>
      </trkpt>
      <trkpt lat="39.19371" lon="-7.49193">
        <ele>325.872</ele>
        <time>2021-07-10T08:48:24Z</time>
      </trkpt>
      <trkpt lat="39.194" lon="-7.49405">
        <ele>325.0175</ele>
        <time>2021-07-10T08:48:35Z</time>
      </trkpt>
      <trkpt lat="39.19404" lon="-7.4958">
        <ele>322.3365</ele>
        <time>2021-07-10T08:48:46Z</time>
      </trkpt>
      <trkpt lat="39.19342" lon="-7.49733">
        <ele>324.6038</ele>
        <time>2021-07-10T08:48:57Z</time>
      </trkpt>
      <trkpt lat="39.19253" lon="-7.49881">
        <ele>326.5433</ele>
        <time>2021-07-10T08:49:08Z</time>
      </trkpt>
      <trkpt lat="39.1916" lon="-7.50029">
        <ele>326.9883</ele>
        <time>2021-07-10T08:49:19Z</time>
      </trkpt>
      <trkpt lat="39.19067" lon="-7.50168">
        <ele>327.2398</ele>
        <time>2021-07-10T08:49:30Z</time>
      </trkpt>
      <trkpt lat="39.18989" lon="-7.50325">
        <ele>331.1651</ele>
        <time>2021-07-10T08:49:41Z</time>
      </trkpt>
      <trkpt lat="39.18906" lon="-7.505">
        <ele>333.4286</ele>
        <time>2021-07-10T08:49:52Z</time>
      </trkpt>
      <trkpt lat="39.18818" lon="-7.50683">
        <ele>339.3557</ele>
        <time>2021-07-10T08:50:03Z</time>
      </trkpt>
      <trkpt lat="39.18716" lon="-7.50828">
        <ele>332.4616</ele>
        <time>2021-07-10T08:50:14Z</time>
      </trkpt>
      <trkpt lat="39.18625" lon="-7.5097">
        <ele>325.0071</ele>
        <time>2021-07-10T08:50:25Z</time>
      </trkpt>
      <trkpt lat="39.18561" lon="-7.512">
        <ele>322.5427</ele>
        <time>2021-07-10T08:50:36Z</time>
      </trkpt>
      <trkpt lat="39.18481" lon="-7.51388">
        <ele>326.0351</ele>
        <time>2021-07-10T08:50:47Z</time>
      </trkpt>
      <trkpt lat="39.18379" lon="-7.51564">
        <ele>323.192</ele>
        <time>2021-07-10T08:50:58Z</time>
      </trkpt>
      <trkpt lat="39.1834" lon="-7.51821">
        <ele>331.7218</ele>
        <time>2021-07-10T08:51:09Z</time>
      </trkpt>
      <trkpt lat="39.18262" lon="-7.52047">
        <ele>333.7074</ele>
        <time>2021-07-10T08:51:20Z</time>
      </trkpt>
      <trkpt lat="39.18177" lon="-7.52272">
        <ele>334.9526</ele>
        <time>2021-07-10T08:51:31Z</time>
      </trkpt>
      <trkpt lat="39.18154" lon="-7.52513">
        <ele>336.9133</ele>
        <time>2021-07-10T08:51:42Z</time>
      </trkpt>
      <trkpt lat="39.18222" lon="-7.5274">
        <ele>339.5956</ele>
        <time>2021-07-10T08:51:53Z</time>
      </trkpt>
      <trkpt lat="39.1825" lon="-7.52833">
        <ele>340.9716</ele>
        <time>2021-07-10T08:52:04Z</time>
      </trkpt>
      <trkpt lat="39.18248" lon="-7.52834">
        <ele>339.456</ele>
        <time>2021-07-10T08:53:04Z</time>
      </trkpt>
      <trkpt lat="39.18249" lon="-7.52834">
        <ele>338.8571</ele>
        <time>2021-07-10T08:54:04Z</time>
      </trkpt>
      <trkpt lat="39.18251" lon="-7.52834">
        <ele>338.8409</ele>
        <time>2021-07-10T08:55:04Z</time>
      </trkpt>
      <trkpt lat="39.18248" lon="-7.52832">
        <ele>339.5579</ele>
        <time>2021-07-10T08:56:04Z</time>
      </trkpt>
      <trkpt lat="39.1825" lon="-7.52832">
        <ele>340.8097</ele>
        <time>2021-07-10T08:57:04Z</time>
      </trkpt>
      <trkpt lat="39.18248" lon="-7.52832">
        <ele>341.8243</ele>
        <time>2021-07-10T08:58:04Z</time>
      </trkpt>
      <trkpt lat="39.18248" lon="-7.52832">
        <ele>341.8243</ele>
        <time>2021-07-10T08:59:04Z</time>
      </trkpt>
      <trkpt lat="39.18248" lon="-7.52832">
        <ele>341.8243</ele>
        <time>2021-07-10T09:00:04Z</time>
      </trkpt>
      <trkpt lat="39.18251" lon="-7.52843">
        <ele>342.5338</ele>
        <time>2021-07-10T09:00:34Z</time>
      </trkpt>
      <trkpt lat="39.18315" lon="-7.53006">
        <ele>341.7429</ele>
        <time>2021-07-10T09:00:45Z</time>
      </trkpt>
      <trkpt lat="39.18412" lon="-7.53232">
        <ele>332.7205</ele>
        <time>2021-07-10T09:00:56Z</time>
      </trkpt>
      <trkpt lat="39.1852" lon="-7.53487">
        <ele>326.9126</ele>
        <time>2021-07-10T09:01:07Z</time>
      </trkpt>
      <trkpt lat="39.18635" lon="-7.5369">
        <ele>322.4161</ele>
        <time>2021-07-10T09:01:18Z</time>
      </trkpt>
      <trkpt lat="39.18789" lon="-7.53935">
        <ele>321.4593</ele>
        <time>2021-07-10T09:01:29Z</time>
      </trkpt>
      <trkpt lat="39.18902" lon="-7.54149">
        <ele>326.9162</ele>
        <time>2021-07-10T09:01:40Z</time>
      </trkpt>
      <trkpt lat="39.18962" lon="-7.54433">
        <ele>330.7995</ele>
        <time>2021-07-10T09:01:51Z</time>
      </trkpt>
      <trkpt lat="39.19017" lon="-7.54699">
        <ele>326.9762</ele>
        <time>2021-07-10T09:02:02Z</time>
      </trkpt>
      <trkpt lat="39.1905" lon="-7.54892">
        <ele>308.6339</ele>
        <time>2021-07-10T09:02:13Z</time>
      </trkpt>
      <trkpt lat="39.1898" lon="-7.5508">
        <ele>299.2191</ele>
        <time>2021-07-10T09:02:24Z</time>
      </trkpt>
      <trkpt lat="39.1894" lon="-7.55382">
        <ele>266.7548</ele>
        <time>2021-07-10T09:02:35Z</time>
      </trkpt>
      <trkpt lat="39.18897" lon="-7.55636">
        <ele>294.8958</ele>
        <time>2021-07-10T09:02:46Z</time>
      </trkpt>
      <trkpt lat="39.18906" lon="-7.55865">
        <ele>310.386</ele>
        <time>2021-07-10T09:02:57Z</time>
      </trkpt>
      <trkpt lat="39.1895" lon="-7.56135">
        <ele>314.8227</ele>
        <time>2021-07-10T09:03:08Z</time>
      </trkpt>
      <trkpt lat="39.18981" lon="-7.56378">
        <ele>310.6099</ele>
        <time>2021-07-10T09:03:19Z</time>
      </trkpt>
      <trkpt lat="39.19036" lon="-7.56689">
        <ele>308.6816</ele>
        <time>2021-07-10T09:03:30Z</time>
      </trkpt>
      <trkpt lat="39.19098" lon="-7.56968">
        <ele>309.0508</ele>
        <time>2021-07-10T09:03:41Z</time>
      </trkpt>
      <trkpt lat="39.19182" lon="-7.57223">
        <ele>314.7316</ele>
        <time>2021-07-10T09:03:52Z</time>
      </trkpt>
      <trkpt lat="39.19265" lon="-7.57474">
        <ele>323.9513</ele>
        <time>2021-07-10T09:04:03Z</time>
      </trkpt>
      <trkpt lat="39.1932" lon="-7.57724">
        <ele>332.9114</ele>
        <time>2021-07-10T09:04:14Z</time>
      </trkpt>
      <trkpt lat="39.19357" lon="-7.57936">
        <ele>327.2977</ele>
        <time>2021-07-10T09:04:25Z</time>
      </trkpt>
      <trkpt lat="39.19484" lon="-7.5819">
        <ele>328.0938</ele>
        <time>2021-07-10T09:04:36Z</time>
      </trkpt>
      <trkpt lat="39.19618" lon="-7.58379">
        <ele>329.5723</ele>
        <time>2021-07-10T09:04:47Z</time>
      </trkpt>
      <trkpt lat="39.19761" lon="-7.58559">
        <ele>328.5653</ele>
        <time>2021-07-10T09:04:58Z</time>
      </trkpt>
      <trkpt lat="39.19851" lon="-7.58803">
        <ele>322.6857</ele>
        <time>2021-07-10T09:05:09Z</time>
      </trkpt>
      <trkpt lat="39.19935" lon="-7.59028">
        <ele>318.5795</ele>
        <time>2021-07-10T09:05:20Z</time>
      </trkpt>
      <trkpt lat="39.20029" lon="-7.5922">
        <ele>307.9219</ele>
        <time>2021-07-10T09:05:31Z</time>
      </trkpt>
      <trkpt lat="39.20212" lon="-7.59384">
        <ele>304.2103</ele>
        <time>2021-07-10T09:05:42Z</time>
      </trkpt>
      <trkpt lat="39.20378" lon="-7.59569">
        <ele>302.6385</ele>
        <time>2021-07-10T09:05:53Z</time>
      </trkpt>
      <trkpt lat="39.20535" lon="-7.59781">
        <ele>296.3849</ele>
        <time>2021-07-10T09:06:04Z</time>
      </trkpt>
      <trkpt lat="39.2073" lon="-7.59933">
        <ele>298.5095</ele>
        <time>2021-07-10T09:06:15Z</time>
      </trkpt>
      <trkpt lat="39.20921" lon="-7.60072">
        <ele>305.1737</ele>
        <time>2021-07-10T09:06:26Z</time>
      </trkpt>
      <trkpt lat="39.21061" lon="-7.60275">
        <ele>298.7406</ele>
        <time>2021-07-10T09:06:37Z</time>
      </trkpt>
      <trkpt lat="39.21181" lon="-7.6051">
        <ele>293.8496</ele>
        <time>2021-07-10T09:06:48Z</time>
      </trkpt>
      <trkpt lat="39.21276" lon="-7.60818">
        <ele>290.1819</ele>
        <time>2021-07-10T09:06:59Z</time>
      </trkpt>
      <trkpt lat="39.21347" lon="-7.61034">
        <ele>280.2952</ele>
        <time>2021-07-10T09:07:10Z</time>
      </trkpt>
      <trkpt lat="39.21313" lon="-7.61189">
        <ele>274.7272</ele>
        <time>2021-07-10T09:07:21Z</time>
      </trkpt>
      <trkpt lat="39.21184" lon="-7.61492">
        <ele>277.9113</ele>
        <time>2021-07-10T09:07:32Z</time>
      </trkpt>
      <trkpt lat="39.21068" lon="-7.61766">
        <ele>289.7241</ele>
        <time>2021-07-10T09:07:43Z</time>
      </trkpt>
      <trkpt lat="39.20998" lon="-7.62029">
        <ele>296.5032</ele>
        <time>2021-07-10T09:07:54Z</time>
      </trkpt>
      <trkpt lat="39.20928" lon="-7.62379">
        <ele>299.2361</ele>
        <time>2021-07-10T09:08:05Z</time>
      </trkpt>
      <trkpt lat="39.20876" lon="-7.62645">
        <ele>299.383</ele>
        <time>2021-07-10T09:08:16Z</time>
      </trkpt>
      <trkpt lat="39.20791" lon="-7.62912">
        <ele>297.576</ele>
        <time>2021-07-10T09:08:27Z</time>
      </trkpt>
      <trkpt lat="39.20796" lon="-7.63187">
        <ele>291.0045</ele>
        <time>2021-07-10T09:08:38Z</time>
      </trkpt>
      <trkpt lat="39.2081" lon="-7.63518">
        <ele>292.0921</ele>
        <time>2021-07-10T09:08:49Z</time>
      </trkpt>
      <trkpt lat="39.2075" lon="-7.63855">
        <ele>296.1033</ele>
        <time>2021-07-10T09:09:00Z</time>
      </trkpt>
      <trkpt lat="39.20626" lon="-7.64186">
        <ele>300.965</ele>
        <time>2021-07-10T09:09:11Z</time>
      </trkpt>
      <trkpt lat="39.20532" lon="-7.64438">
        <ele>302.6113</ele>
        <time>2021-07-10T09:09:22Z</time>
      </trkpt>
      <trkpt lat="39.20451" lon="-7.64656">
        <ele>297.2164</ele>
        <time>2021-07-10T09:09:33Z</time>
      </trkpt>
      <trkpt lat="39.20328" lon="-7.64887">
        <ele>287.7409</ele>
        <time>2021-07-10T09:09:44Z</time>
      </trkpt>
      <trkpt lat="39.20222" lon="-7.65126">
        <ele>277.3123</ele>
        <time>2021-07-10T09:09:55Z</time>
      </trkpt>
      <trkpt lat="39.20121" lon="-7.65374">
        <ele>270.9766</ele>
        <time>2021-07-10T09:10:06Z</time>
      </trkpt>
      <trkpt lat="39.20047" lon="-7.65594">
        <ele>265.3249</ele>
        <time>2021-07-10T09:10:17Z</time>
      </trkpt>
      <trkpt lat="39.20028" lon="-7.65714">
        <ele>273.7214</ele>
        <time>2021-07-10T09:10:28Z</time>
      </trkpt>
      <trkpt lat="39.20035" lon="-7.65787">
        <ele>293.8306</ele>
        <time>2021-07-10T09:10:39Z</time>
      </trkpt>
      <trkpt lat="39.20031" lon="-7.65784">
        <ele>314.0489</ele>
        <time>2021-07-10T09:10:50Z</time>
      </trkpt>
      <trkpt lat="39.20066" lon="-7.65792">
        <ele>315.0226</ele>
        <time>2021-07-10T09:11:01Z</time>
      </trkpt>
      <trkpt lat="39.2012" lon="-7.65801">
        <ele>321.6849</ele>
        <time>2021-07-10T09:11:12Z</time>
      </trkpt>
      <trkpt lat="39.2009" lon="-7.65799">
        <ele>303.4994</ele>
        <time>2021-07-10T09:11:23Z</time>
      </trkpt>
      <trkpt lat="39.20023" lon="-7.658">
        <ele>289.0113</ele>
        <time>2021-07-10T09:11:34Z</time>
      </trkpt>
      <trkpt lat="39.19958" lon="-7.65805">
        <ele>281.9964</ele>
        <time>2021-07-10T09:11:45Z</time>
      </trkpt>
      <trkpt lat="39.19926" lon="-7.6582">
        <ele>275.8875</ele>
        <time>2021-07-10T09:11:56Z</time>
      </trkpt>
      <trkpt lat="39.19921" lon="-7.65822">
        <ele>278.4321</ele>
        <time>2021-07-10T09:12:07Z</time>
      </trkpt>
      <trkpt lat="39.19917" lon="-7.65823">
        <ele>278.2133</ele>
        <time>2021-07-10T09:12:45Z</time>
      </trkpt>
      <trkpt lat="39.1992" lon="-7.6582">
        <ele>277.2988</ele>
        <time>2021-07-10T09:13:26Z</time>
      </trkpt>
      <trkpt lat="39.19915" lon="-7.6582">
        <ele>277.7988</ele>
        <time>2021-07-10T09:13:41Z</time>
      </trkpt>
      <trkpt lat="39.19873" lon="-7.65861">
        <ele>273.3932</ele>
        <time>2021-07-10T09:13:52Z</time>
      </trkpt>
      <trkpt lat="39.1988" lon="-7.65945">
        <ele>270.6904</ele>
        <time>2021-07-10T09:14:03Z</time>
      </trkpt>
      <trkpt lat="39.19841" lon="-7.65989">
        <ele>269.4759</ele>
        <time>2021-07-10T09:14:14Z</time>
      </trkpt>
      <trkpt lat="39.19843" lon="-7.65928">
        <ele>271.6826</ele>
        <time>2021-07-10T09:14:25Z</time>
      </trkpt>
      <trkpt lat="39.19879" lon="-7.65842">
        <ele>278.3266</ele>
        <time>2021-07-10T09:14:36Z</time>
      </trkpt>
      <trkpt lat="39.19873" lon="-7.65813">
        <ele>278.592</ele>
        <time>2021-07-10T09:14:47Z</time>
      </trkpt>
      <trkpt lat="39.19873" lon="-7.65787">
        <ele>274.5329</ele>
        <time>2021-07-10T09:14:58Z</time>
      </trkpt>
      <trkpt lat="39.19877" lon="-7.65784">
        <ele>275.3645</ele>
        <time>2021-07-10T09:15:09Z</time>
      </trkpt>
      <trkpt lat="39.19875" lon="-7.65789">
        <ele>285.3183</ele>
        <time>2021-07-10T09:15:49Z</time>
      </trkpt>
      <trkpt lat="39.19878" lon="-7.65806">
        <ele>272.5689</ele>
        <time>2021-07-10T09:25:04Z</time>
      </trkpt>
      <trkpt lat="39.19882" lon="-7.658">
        <ele>272.7584</ele>
        <time>2021-07-10T09:25:15Z</time>
      </trkpt>
      <trkpt lat="39.19885" lon="-7.65803">
        <ele>276.1613</ele>
        <time>2021-07-10T09:25:34Z</time>
      </trkpt>
      <trkpt lat="39.19884" lon="-7.65798">
        <ele>276.7904</ele>
        <time>2021-07-10T09:25:45Z</time>
      </trkpt>
      <trkpt lat="39.19885" lon="-7.65797">
        <ele>273.4462</ele>
        <time>2021-07-10T09:26:45Z</time>
      </trkpt>
      <trkpt lat="39.19885" lon="-7.65795">
        <ele>273.5004</ele>
        <time>2021-07-10T09:27:45Z</time>
      </trkpt>
      <trkpt lat="39.19887" lon="-7.65797">
        <ele>270.5176</ele>
        <time>2021-07-10T09:28:45Z</time>
      </trkpt>
      <trkpt lat="39.19887" lon="-7.65797">
        <ele>270.5176</ele>
        <time>2021-07-10T09:29:45Z</time>
      </trkpt>
      <trkpt lat="39.19881" lon="-7.65799">
        <ele>270.2775</ele>
        <time>2021-07-10T09:30:38Z</time>
      </trkpt>
      <trkpt lat="39.19885" lon="-7.65799">
        <ele>272.1604</ele>
        <time>2021-07-10T09:31:12Z</time>
      </trkpt>
      <trkpt lat="39.19888" lon="-7.658">
        <ele>274.9353</ele>
        <time>2021-07-10T09:32:12Z</time>
      </trkpt>
      <trkpt lat="39.19889" lon="-7.65794">
        <ele>278.2753</ele>
        <time>2021-07-10T09:32:26Z</time>
      </trkpt>
      <trkpt lat="39.19886" lon="-7.65794">
        <ele>278.6696</ele>
        <time>2021-07-10T09:33:25Z</time>
      </trkpt>
      <trkpt lat="39.19884" lon="-7.65797">
        <ele>277.2081</ele>
        <time>2021-07-10T09:34:04Z</time>
      </trkpt>
      <trkpt lat="39.19882" lon="-7.65796">
        <ele>275.1708</ele>
        <time>2021-07-10T09:35:03Z</time>
      </trkpt>
      <trkpt lat="39.19881" lon="-7.65798">
        <ele>278.7147</ele>
        <time>2021-07-10T09:36:02Z</time>
      </trkpt>
      <trkpt lat="39.19885" lon="-7.65798">
        <ele>275.6927</ele>
        <time>2021-07-10T09:36:48Z</time>
      </trkpt>
      <trkpt lat="39.19882" lon="-7.65801">
        <ele>275.0594</ele>
        <time>2021-07-10T09:37:27Z</time>
      </trkpt>
      <trkpt lat="39.19882" lon="-7.65799">
        <ele>274.398</ele>
        <time>2021-07-10T09:38:26Z</time>
      </trkpt>
      <trkpt lat="39.19885" lon="-7.65795">
        <ele>270.7758</ele>
        <time>2021-07-10T09:39:07Z</time>
      </trkpt>
      <trkpt lat="39.19884" lon="-7.65797">
        <ele>269.7192</ele>
        <time>2021-07-10T09:40:05Z</time>
      </trkpt>
      <trkpt lat="39.19885" lon="-7.65791">
        <ele>269.0736</ele>
        <time>2021-07-10T09:40:52Z</time>
      </trkpt>
      <trkpt lat="39.19886" lon="-7.65797">
        <ele>269.8139</ele>
        <time>2021-07-10T09:41:12Z</time>
      </trkpt>
      <trkpt lat="39.19898" lon="-7.65808">
        <ele>269.8255</ele>
        <time>2021-07-10T09:41:23Z</time>
      </trkpt>
      <trkpt lat="39.19898" lon="-7.65813">
        <ele>269.7411</ele>
        <time>2021-07-10T09:41:34Z</time>
      </trkpt>
      <trkpt lat="39.19896" lon="-7.65808">
        <ele>269.2957</ele>
        <time>2021-07-10T09:41:51Z</time>
      </trkpt>
      <trkpt lat="39.19887" lon="-7.65796">
        <ele>268.7951</ele>
        <time>2021-07-10T09:42:02Z</time>
      </trkpt>
      <trkpt lat="39.19886" lon="-7.6579">
        <ele>269.519</ele>
        <time>2021-07-10T09:42:37Z</time>
      </trkpt>
      <trkpt lat="39.19884" lon="-7.65786">
        <ele>269.596</ele>
        <time>2021-07-10T09:42:56Z</time>
      </trkpt>
      <trkpt lat="39.19887" lon="-7.6579">
        <ele>268.474</ele>
        <time>2021-07-10T09:43:07Z</time>
      </trkpt>
      <trkpt lat="39.19884" lon="-7.65785">
        <ele>269.8998</ele>
        <time>2021-07-10T09:43:40Z</time>
      </trkpt>
      <trkpt lat="39.19881" lon="-7.65779">
        <ele>269.0233</ele>
        <time>2021-07-10T09:43:51Z</time>
      </trkpt>
      <trkpt lat="39.19881" lon="-7.65785">
        <ele>269.6427</ele>
        <time>2021-07-10T09:44:11Z</time>
      </trkpt>
      <trkpt lat="39.19877" lon="-7.65787">
        <ele>269.1292</ele>
        <time>2021-07-10T09:44:22Z</time>
      </trkpt>
      <trkpt lat="39.19877" lon="-7.65792">
        <ele>269.1249</ele>
        <time>2021-07-10T09:45:01Z</time>
      </trkpt>
      <trkpt lat="39.19876" lon="-7.65791">
        <ele>268.9445</ele>
        <time>2021-07-10T09:46:00Z</time>
      </trkpt>
      <trkpt lat="39.1988" lon="-7.65791">
        <ele>271.0147</ele>
        <time>2021-07-10T09:46:55Z</time>
      </trkpt>
      <trkpt lat="39.19921" lon="-7.65805">
        <ele>271.2704</ele>
        <time>2021-07-10T09:47:06Z</time>
      </trkpt>
      <trkpt lat="39.19927" lon="-7.65853">
        <ele>273.7685</ele>
        <time>2021-07-10T09:47:17Z</time>
      </trkpt>
      <trkpt lat="39.19953" lon="-7.65892">
        <ele>276.4638</ele>
        <time>2021-07-10T09:47:28Z</time>
      </trkpt>
      <trkpt lat="39.19984" lon="-7.65964">
        <ele>275.5621</ele>
        <time>2021-07-10T09:47:39Z</time>
      </trkpt>
      <trkpt lat="39.20006" lon="-7.66026">
        <ele>275.6363</ele>
        <time>2021-07-10T09:47:50Z</time>
      </trkpt>
      <trkpt lat="39.20008" lon="-7.66036">
        <ele>274.4394</ele>
        <time>2021-07-10T09:48:01Z</time>
      </trkpt>
      <trkpt lat="39.20038" lon="-7.66023">
        <ele>278.1644</ele>
        <time>2021-07-10T09:48:12Z</time>
      </trkpt>
      <trkpt lat="39.20061" lon="-7.66087">
        <ele>276.1572</ele>
        <time>2021-07-10T09:48:23Z</time>
      </trkpt>
      <trkpt lat="39.20121" lon="-7.66135">
        <ele>279.2977</ele>
        <time>2021-07-10T09:48:34Z</time>
      </trkpt>
      <trkpt lat="39.2019" lon="-7.66192">
        <ele>278.6432</ele>
        <time>2021-07-10T09:48:45Z</time>
      </trkpt>
      <trkpt lat="39.20292" lon="-7.66289">
        <ele>276.9422</ele>
        <time>2021-07-10T09:48:56Z</time>
      </trkpt>
      <trkpt lat="39.2041" lon="-7.66374">
        <ele>279.4942</ele>
        <time>2021-07-10T09:49:07Z</time>
      </trkpt>
      <trkpt lat="39.20594" lon="-7.66469">
        <ele>279.2256</ele>
        <time>2021-07-10T09:49:18Z</time>
      </trkpt>
      <trkpt lat="39.20806" lon="-7.66576">
        <ele>280.3188</ele>
        <time>2021-07-10T09:49:29Z</time>
      </trkpt>
      <trkpt lat="39.21027" lon="-7.66649">
        <ele>279.2717</ele>
        <time>2021-07-10T09:49:40Z</time>
      </trkpt>
      <trkpt lat="39.21246" lon="-7.66732">
        <ele>280.9055</ele>
        <time>2021-07-10T09:49:51Z</time>
      </trkpt>
      <trkpt lat="39.21449" lon="-7.6679">
        <ele>277.4778</ele>
        <time>2021-07-10T09:50:02Z</time>
      </trkpt>
      <trkpt lat="39.21664" lon="-7.66944">
        <ele>277.5679</ele>
        <time>2021-07-10T09:50:13Z</time>
      </trkpt>
      <trkpt lat="39.21891" lon="-7.67085">
        <ele>272.9358</ele>
        <time>2021-07-10T09:50:24Z</time>
      </trkpt>
      <trkpt lat="39.22115" lon="-7.67201">
        <ele>271.7545</ele>
        <time>2021-07-10T09:50:35Z</time>
      </trkpt>
      <trkpt lat="39.22269" lon="-7.6733">
        <ele>267.5082</ele>
        <time>2021-07-10T09:50:46Z</time>
      </trkpt>
      <trkpt lat="39.22415" lon="-7.67579">
        <ele>266.0191</ele>
        <time>2021-07-10T09:50:57Z</time>
      </trkpt>
      <trkpt lat="39.22558" lon="-7.678">
        <ele>258.6643</ele>
        <time>2021-07-10T09:51:08Z</time>
      </trkpt>
      <trkpt lat="39.22733" lon="-7.68004">
        <ele>242.5833</ele>
        <time>2021-07-10T09:51:19Z</time>
      </trkpt>
      <trkpt lat="39.22922" lon="-7.68224">
        <ele>226.5149</ele>
        <time>2021-07-10T09:51:30Z</time>
      </trkpt>
      <trkpt lat="39.23105" lon="-7.68436">
        <ele>228.6188</ele>
        <time>2021-07-10T09:51:41Z</time>
      </trkpt>
      <trkpt lat="39.23275" lon="-7.68596">
        <ele>239.104</ele>
        <time>2021-07-10T09:51:52Z</time>
      </trkpt>
      <trkpt lat="39.23434" lon="-7.68797">
        <ele>231.2007</ele>
        <time>2021-07-10T09:52:03Z</time>
      </trkpt>
      <trkpt lat="39.23562" lon="-7.68941">
        <ele>237.2492</ele>
        <time>2021-07-10T09:52:14Z</time>
      </trkpt>
      <trkpt lat="39.236" lon="-7.69138">
        <ele>233.3339</ele>
        <time>2021-07-10T09:52:25Z</time>
      </trkpt>
      <trkpt lat="39.23679" lon="-7.69314">
        <ele>239.3995</ele>
        <time>2021-07-10T09:52:36Z</time>
      </trkpt>
      <trkpt lat="39.23746" lon="-7.69549">
        <ele>237.4863</ele>
        <time>2021-07-10T09:52:47Z</time>
      </trkpt>
      <trkpt lat="39.23843" lon="-7.6974">
        <ele>225.2605</ele>
        <time>2021-07-10T09:52:58Z</time>
      </trkpt>
      <trkpt lat="39.23942" lon="-7.69943">
        <ele>228.1323</ele>
        <time>2021-07-10T09:53:09Z</time>
      </trkpt>
      <trkpt lat="39.24066" lon="-7.70115">
        <ele>225.5204</ele>
        <time>2021-07-10T09:53:20Z</time>
      </trkpt>
      <trkpt lat="39.24143" lon="-7.70319">
        <ele>224.1094</ele>
        <time>2021-07-10T09:53:31Z</time>
      </trkpt>
      <trkpt lat="39.24216" lon="-7.7048">
        <ele>224.498</ele>
        <time>2021-07-10T09:53:42Z</time>
      </trkpt>
      <trkpt lat="39.24169" lon="-7.70638">
        <ele>225.9141</ele>
        <time>2021-07-10T09:53:53Z</time>
      </trkpt>
      <trkpt lat="39.24174" lon="-7.70845">
        <ele>225.0318</ele>
        <time>2021-07-10T09:54:04Z</time>
      </trkpt>
      <trkpt lat="39.24126" lon="-7.71067">
        <ele>220.9212</ele>
        <time>2021-07-10T09:54:15Z</time>
      </trkpt>
      <trkpt lat="39.23998" lon="-7.71298">
        <ele>216.814</ele>
        <time>2021-07-10T09:54:26Z</time>
      </trkpt>
      <trkpt lat="39.23881" lon="-7.71513">
        <ele>218.1677</ele>
        <time>2021-07-10T09:54:37Z</time>
      </trkpt>
      <trkpt lat="39.23843" lon="-7.71759">
        <ele>213.3781</ele>
        <time>2021-07-10T09:54:48Z</time>
      </trkpt>
      <trkpt lat="39.23834" lon="-7.72012">
        <ele>216.1592</ele>
        <time>2021-07-10T09:54:59Z</time>
      </trkpt>
      <trkpt lat="39.23831" lon="-7.72259">
        <ele>212.0896</ele>
        <time>2021-07-10T09:55:10Z</time>
      </trkpt>
      <trkpt lat="39.23801" lon="-7.72427">
        <ele>209.955</ele>
        <time>2021-07-10T09:55:21Z</time>
      </trkpt>
      <trkpt lat="39.23694" lon="-7.72539">
        <ele>208.6894</ele>
        <time>2021-07-10T09:55:32Z</time>
      </trkpt>
      <trkpt lat="39.23568" lon="-7.72648">
        <ele>201.6787</ele>
        <time>2021-07-10T09:55:43Z</time>
      </trkpt>
      <trkpt lat="39.23374" lon="-7.72722">
        <ele>195.7794</ele>
        <time>2021-07-10T09:55:54Z</time>
      </trkpt>
      <trkpt lat="39.2321" lon="-7.72825">
        <ele>196.7891</ele>
        <time>2021-07-10T09:56:05Z</time>
      </trkpt>
      <trkpt lat="39.23122" lon="-7.72994">
        <ele>192.2176</ele>
        <time>2021-07-10T09:56:16Z</time>
      </trkpt>
      <trkpt lat="39.2312" lon="-7.73196">
        <ele>188.7632</ele>
        <time>2021-07-10T09:56:27Z</time>
      </trkpt>
      <trkpt lat="39.2311" lon="-7.73427">
        <ele>187.9461</ele>
        <time>2021-07-10T09:56:38Z</time>
      </trkpt>
      <trkpt lat="39.23061" lon="-7.73664">
        <ele>187.5459</ele>
        <time>2021-07-10T09:56:49Z</time>
      </trkpt>
      <trkpt lat="39.23018" lon="-7.73866">
        <ele>192.1903</ele>
        <time>2021-07-10T09:57:00Z</time>
      </trkpt>
      <trkpt lat="39.22901" lon="-7.74036">
        <ele>193.3944</ele>
        <time>2021-07-10T09:57:11Z</time>
      </trkpt>
      <trkpt lat="39.22763" lon="-7.74174">
        <ele>189.6519</ele>
        <time>2021-07-10T09:57:22Z</time>
      </trkpt>
      <trkpt lat="39.22732" lon="-7.74403">
        <ele>191.5392</ele>
        <time>2021-07-10T09:57:33Z</time>
      </trkpt>
      <trkpt lat="39.22732" lon="-7.74632">
        <ele>193.056</ele>
        <time>2021-07-10T09:57:44Z</time>
      </trkpt>
      <trkpt lat="39.22625" lon="-7.74798">
        <ele>191.4802</ele>
        <time>2021-07-10T09:57:55Z</time>
      </trkpt>
      <trkpt lat="39.22476" lon="-7.74957">
        <ele>186.1366</ele>
        <time>2021-07-10T09:58:06Z</time>
      </trkpt>
      <trkpt lat="39.22322" lon="-7.75056">
        <ele>180.0725</ele>
        <time>2021-07-10T09:58:17Z</time>
      </trkpt>
      <trkpt lat="39.22141" lon="-7.75141">
        <ele>168.1056</ele>
        <time>2021-07-10T09:58:28Z</time>
      </trkpt>
      <trkpt lat="39.22054" lon="-7.75252">
        <ele>159.9705</ele>
        <time>2021-07-10T09:58:39Z</time>
      </trkpt>
      <trkpt lat="39.21985" lon="-7.75324">
        <ele>165.5429</ele>
        <time>2021-07-10T09:58:50Z</time>
      </trkpt>
      <trkpt lat="39.21857" lon="-7.75266">
        <ele>176.2416</ele>
        <time>2021-07-10T09:59:01Z</time>
      </trkpt>
      <trkpt lat="39.21773" lon="-7.75349">
        <ele>178.8761</ele>
        <time>2021-07-10T09:59:12Z</time>
      </trkpt>
      <trkpt lat="39.21724" lon="-7.7567">
        <ele>182.8638</ele>
        <time>2021-07-10T09:59:23Z</time>
      </trkpt>
      <trkpt lat="39.21682" lon="-7.75934">
        <ele>185.4692</ele>
        <time>2021-07-10T09:59:34Z</time>
      </trkpt>
      <trkpt lat="39.21689" lon="-7.76193">
        <ele>186.7091</ele>
        <time>2021-07-10T09:59:46Z</time>
      </trkpt>
      <trkpt lat="39.21648" lon="-7.76443">
        <ele>192.2779</ele>
        <time>2021-07-10T09:59:57Z</time>
      </trkpt>
      <trkpt lat="39.21583" lon="-7.76617">
        <ele>196.8578</ele>
        <time>2021-07-10T10:00:08Z</time>
      </trkpt>
      <trkpt lat="39.21468" lon="-7.76747">
        <ele>190.3183</ele>
        <time>2021-07-10T10:00:19Z</time>
      </trkpt>
      <trkpt lat="39.21359" lon="-7.76805">
        <ele>178.6365</ele>
        <time>2021-07-10T10:00:30Z</time>
      </trkpt>
      <trkpt lat="39.21339" lon="-7.76871">
        <ele>173.9968</ele>
        <time>2021-07-10T10:00:41Z</time>
      </trkpt>
      <trkpt lat="39.21439" lon="-7.77106">
        <ele>172.558</ele>
        <time>2021-07-10T10:00:52Z</time>
      </trkpt>
      <trkpt lat="39.2158" lon="-7.7743">
        <ele>172.8132</ele>
        <time>2021-07-10T10:01:03Z</time>
      </trkpt>
      <trkpt lat="39.21684" lon="-7.77727">
        <ele>176.0019</ele>
        <time>2021-07-10T10:01:14Z</time>
      </trkpt>
      <trkpt lat="39.21723" lon="-7.78062">
        <ele>175.0104</ele>
        <time>2021-07-10T10:01:25Z</time>
      </trkpt>
      <trkpt lat="39.21713" lon="-7.78361">
        <ele>164.7444</ele>
        <time>2021-07-10T10:01:36Z</time>
      </trkpt>
      <trkpt lat="39.21696" lon="-7.78684">
        <ele>158.5016</ele>
        <time>2021-07-10T10:01:47Z</time>
      </trkpt>
      <trkpt lat="39.2168" lon="-7.7901">
        <ele>162.4011</ele>
        <time>2021-07-10T10:01:58Z</time>
      </trkpt>
      <trkpt lat="39.21676" lon="-7.79304">
        <ele>165.379</ele>
        <time>2021-07-10T10:02:09Z</time>
      </trkpt>
      <trkpt lat="39.2168" lon="-7.79468">
        <ele>167.9746</ele>
        <time>2021-07-10T10:02:20Z</time>
      </trkpt>
      <trkpt lat="39.21537" lon="-7.79493">
        <ele>172.2336</ele>
        <time>2021-07-10T10:02:31Z</time>
      </trkpt>
      <trkpt lat="39.21315" lon="-7.79529">
        <ele>168.9236</ele>
        <time>2021-07-10T10:02:42Z</time>
      </trkpt>
      <trkpt lat="39.2107" lon="-7.79572">
        <ele>165.8645</ele>
        <time>2021-07-10T10:02:53Z</time>
      </trkpt>
      <trkpt lat="39.20851" lon="-7.79627">
        <ele>165.3115</ele>
        <time>2021-07-10T10:03:04Z</time>
      </trkpt>
      <trkpt lat="39.20703" lon="-7.79736">
        <ele>166.3268</ele>
        <time>2021-07-10T10:03:15Z</time>
      </trkpt>
      <trkpt lat="39.20652" lon="-7.79968">
        <ele>167.2504</ele>
        <time>2021-07-10T10:03:26Z</time>
      </trkpt>
      <trkpt lat="39.20526" lon="-7.80188">
        <ele>173.906</ele>
        <time>2021-07-10T10:03:37Z</time>
      </trkpt>
      <trkpt lat="39.20321" lon="-7.80314">
        <ele>179.0562</ele>
        <time>2021-07-10T10:03:48Z</time>
      </trkpt>
      <trkpt lat="39.20121" lon="-7.80392">
        <ele>175.1544</ele>
        <time>2021-07-10T10:03:59Z</time>
      </trkpt>
      <trkpt lat="39.19946" lon="-7.80386">
        <ele>180.542</ele>
        <time>2021-07-10T10:04:10Z</time>
      </trkpt>
      <trkpt lat="39.1981" lon="-7.80508">
        <ele>171.7612</ele>
        <time>2021-07-10T10:04:21Z</time>
      </trkpt>
      <trkpt lat="39.19614" lon="-7.8062">
        <ele>168.3661</ele>
        <time>2021-07-10T10:04:32Z</time>
      </trkpt>
      <trkpt lat="39.1949" lon="-7.80657">
        <ele>164.3916</ele>
        <time>2021-07-10T10:04:43Z</time>
      </trkpt>
      <trkpt lat="39.19445" lon="-7.80703">
        <ele>152.555</ele>
        <time>2021-07-10T10:04:54Z</time>
      </trkpt>
      <trkpt lat="39.19379" lon="-7.80781">
        <ele>145.9899</ele>
        <time>2021-07-10T10:05:05Z</time>
      </trkpt>
      <trkpt lat="39.19329" lon="-7.80867">
        <ele>140.8418</ele>
        <time>2021-07-10T10:05:16Z</time>
      </trkpt>
      <trkpt lat="39.19325" lon="-7.81007">
        <ele>142.1417</ele>
        <time>2021-07-10T10:05:27Z</time>
      </trkpt>
      <trkpt lat="39.19341" lon="-7.81165">
        <ele>143.3388</ele>
        <time>2021-07-10T10:05:38Z</time>
      </trkpt>
      <trkpt lat="39.19358" lon="-7.81317">
        <ele>147.1856</ele>
        <time>2021-07-10T10:05:49Z</time>
      </trkpt>
      <trkpt lat="39.1945" lon="-7.81404">
        <ele>155.1446</ele>
        <time>2021-07-10T10:06:00Z</time>
      </trkpt>
      <trkpt lat="39.19539" lon="-7.81486">
        <ele>154.676</ele>
        <time>2021-07-10T10:06:11Z</time>
      </trkpt>
      <trkpt lat="39.196" lon="-7.81663">
        <ele>167.2279</ele>
        <time>2021-07-10T10:06:22Z</time>
      </trkpt>
      <trkpt lat="39.19647" lon="-7.81824">
        <ele>178.9854</ele>
        <time>2021-07-10T10:06:33Z</time>
      </trkpt>
      <trkpt lat="39.19662" lon="-7.81995">
        <ele>188.0732</ele>
        <time>2021-07-10T10:06:44Z</time>
      </trkpt>
      <trkpt lat="39.1967" lon="-7.82154">
        <ele>191.131</ele>
        <time>2021-07-10T10:06:55Z</time>
      </trkpt>
      <trkpt lat="39.19632" lon="-7.82275">
        <ele>200.8929</ele>
        <time>2021-07-10T10:07:06Z</time>
      </trkpt>
      <trkpt lat="39.19575" lon="-7.82414">
        <ele>202.9722</ele>
        <time>2021-07-10T10:07:17Z</time>
      </trkpt>
      <trkpt lat="39.19533" lon="-7.82557">
        <ele>205.868</ele>
        <time>2021-07-10T10:07:28Z</time>
      </trkpt>
      <trkpt lat="39.19482" lon="-7.82703">
        <ele>206.105</ele>
        <time>2021-07-10T10:07:39Z</time>
      </trkpt>
      <trkpt lat="39.19412" lon="-7.82792">
        <ele>199.1139</ele>
        <time>2021-07-10T10:07:50Z</time>
      </trkpt>
      <trkpt lat="39.19326" lon="-7.82872">
        <ele>194.9798</ele>
        <time>2021-07-10T10:08:01Z</time>
      </trkpt>
      <trkpt lat="39.19266" lon="-7.8299">
        <ele>205.3712</ele>
        <time>2021-07-10T10:08:12Z</time>
      </trkpt>
      <trkpt lat="39.19175" lon="-7.83087">
        <ele>205.8733</ele>
        <time>2021-07-10T10:08:23Z</time>
      </trkpt>
      <trkpt lat="39.19142" lon="-7.83104">
        <ele>167.145</ele>
        <time>2021-07-10T10:08:34Z</time>
      </trkpt>
      <trkpt lat="39.19127" lon="-7.83118">
        <ele>187.6115</ele>
        <time>2021-07-10T10:08:45Z</time>
      </trkpt>
      <trkpt lat="39.19074" lon="-7.83125">
        <ele>206.4159</ele>
        <time>2021-07-10T10:08:56Z</time>
      </trkpt>
      <trkpt lat="39.19077" lon="-7.83123">
        <ele>208.0384</ele>
        <time>2021-07-10T10:09:12Z</time>
      </trkpt>
      <trkpt lat="39.19126" lon="-7.83123">
        <ele>207.8608</ele>
        <time>2021-07-10T10:09:23Z</time>
      </trkpt>
      <trkpt lat="39.19173" lon="-7.83092">
        <ele>204.1083</ele>
        <time>2021-07-10T10:09:35Z</time>
      </trkpt>
      <trkpt lat="39.19176" lon="-7.83103">
        <ele>204.2668</ele>
        <time>2021-07-10T10:09:46Z</time>
      </trkpt>
      <trkpt lat="39.19145" lon="-7.83136">
        <ele>208.9088</ele>
        <time>2021-07-10T10:09:57Z</time>
      </trkpt>
      <trkpt lat="39.19112" lon="-7.83215">
        <ele>210.3632</ele>
        <time>2021-07-10T10:10:08Z</time>
      </trkpt>
      <trkpt lat="39.19086" lon="-7.83263">
        <ele>207.6936</ele>
        <time>2021-07-10T10:10:19Z</time>
      </trkpt>
      <trkpt lat="39.19082" lon="-7.83267">
        <ele>206.0196</ele>
        <time>2021-07-10T10:11:10Z</time>
      </trkpt>
      <trkpt lat="39.19077" lon="-7.83265">
        <ele>205.3115</ele>
        <time>2021-07-10T10:11:24Z</time>
      </trkpt>
      <trkpt lat="39.19024" lon="-7.83255">
        <ele>199.8363</ele>
        <time>2021-07-10T10:11:35Z</time>
      </trkpt>
      <trkpt lat="39.18963" lon="-7.83243">
        <ele>191.8274</ele>
        <time>2021-07-10T10:11:46Z</time>
      </trkpt>
      <trkpt lat="39.18902" lon="-7.83236">
        <ele>194.3455</ele>
        <time>2021-07-10T10:11:57Z</time>
      </trkpt>
      <trkpt lat="39.18822" lon="-7.83282">
        <ele>186.4089</ele>
        <time>2021-07-10T10:12:08Z</time>
      </trkpt>
      <trkpt lat="39.18732" lon="-7.83326">
        <ele>164.3354</ele>
        <time>2021-07-10T10:12:19Z</time>
      </trkpt>
      <trkpt lat="39.18632" lon="-7.83381">
        <ele>135.8963</ele>
        <time>2021-07-10T10:12:30Z</time>
      </trkpt>
      <trkpt lat="39.18543" lon="-7.83423">
        <ele>94.6795</ele>
        <time>2021-07-10T10:12:41Z</time>
      </trkpt>
      <trkpt lat="39.18483" lon="-7.83459">
        <ele>106.5187</ele>
        <time>2021-07-10T10:12:52Z</time>
      </trkpt>
      <trkpt lat="39.1842" lon="-7.83441">
        <ele>158.7638</ele>
        <time>2021-07-10T10:13:03Z</time>
      </trkpt>
      <trkpt lat="39.18371" lon="-7.8342">
        <ele>178.5485</ele>
        <time>2021-07-10T10:13:14Z</time>
      </trkpt>
      <trkpt lat="39.18339" lon="-7.83454">
        <ele>174.5252</ele>
        <time>2021-07-10T10:13:25Z</time>
      </trkpt>
      <trkpt lat="39.18295" lon="-7.83505">
        <ele>167.0011</ele>
        <time>2021-07-10T10:13:36Z</time>
      </trkpt>
      <trkpt lat="39.18283" lon="-7.83519">
        <ele>167.1607</ele>
        <time>2021-07-10T10:13:47Z</time>
      </trkpt>
      <trkpt lat="39.1828" lon="-7.83525">
        <ele>167.2346</ele>
        <time>2021-07-10T10:14:20Z</time>
      </trkpt>
      <trkpt lat="39.18277" lon="-7.83529">
        <ele>167.0629</ele>
        <time>2021-07-10T10:14:34Z</time>
      </trkpt>
      <trkpt lat="39.18234" lon="-7.83575">
        <ele>163.8299</ele>
        <time>2021-07-10T10:14:45Z</time>
      </trkpt>
      <trkpt lat="39.18183" lon="-7.83632">
        <ele>161.3431</ele>
        <time>2021-07-10T10:14:56Z</time>
      </trkpt>
      <trkpt lat="39.18153" lon="-7.83698">
        <ele>155.6749</ele>
        <time>2021-07-10T10:15:07Z</time>
      </trkpt>
      <trkpt lat="39.18195" lon="-7.83828">
        <ele>149.5807</ele>
        <time>2021-07-10T10:15:18Z</time>
      </trkpt>
      <trkpt lat="39.18215" lon="-7.83954">
        <ele>143.1556</ele>
        <time>2021-07-10T10:15:29Z</time>
      </trkpt>
      <trkpt lat="39.18195" lon="-7.84122">
        <ele>139.3464</ele>
        <time>2021-07-10T10:15:40Z</time>
      </trkpt>
      <trkpt lat="39.18148" lon="-7.84288">
        <ele>139.5609</ele>
        <time>2021-07-10T10:15:51Z</time>
      </trkpt>
      <trkpt lat="39.1809" lon="-7.8447">
        <ele>134.534</ele>
        <time>2021-07-10T10:16:02Z</time>
      </trkpt>
      <trkpt lat="39.18047" lon="-7.84594">
        <ele>121.0837</ele>
        <time>2021-07-10T10:16:13Z</time>
      </trkpt>
      <trkpt lat="39.17984" lon="-7.84787">
        <ele>138.1925</ele>
        <time>2021-07-10T10:16:24Z</time>
      </trkpt>
      <trkpt lat="39.17915" lon="-7.84996">
        <ele>140.1579</ele>
        <time>2021-07-10T10:16:35Z</time>
      </trkpt>
      <trkpt lat="39.179" lon="-7.85163">
        <ele>141.1854</ele>
        <time>2021-07-10T10:16:46Z</time>
      </trkpt>
      <trkpt lat="39.17899" lon="-7.8519">
        <ele>142.0758</ele>
        <time>2021-07-10T10:16:57Z</time>
      </trkpt>
      <trkpt lat="39.17899" lon="-7.85196">
        <ele>142.5768</ele>
        <time>2021-07-10T10:17:16Z</time>
      </trkpt>
      <trkpt lat="39.17899" lon="-7.85213">
        <ele>142.7126</ele>
        <time>2021-07-10T10:17:27Z</time>
      </trkpt>
      <trkpt lat="39.179" lon="-7.85268">
        <ele>143.3708</ele>
        <time>2021-07-10T10:17:38Z</time>
      </trkpt>
      <trkpt lat="39.17914" lon="-7.85446">
        <ele>147.1387</ele>
        <time>2021-07-10T10:17:49Z</time>
      </trkpt>
      <trkpt lat="39.17927" lon="-7.85641">
        <ele>151.5874</ele>
        <time>2021-07-10T10:18:00Z</time>
      </trkpt>
      <trkpt lat="39.1795" lon="-7.85846">
        <ele>151.5566</ele>
        <time>2021-07-10T10:18:11Z</time>
      </trkpt>
      <trkpt lat="39.17982" lon="-7.86069">
        <ele>156.8117</ele>
        <time>2021-07-10T10:18:22Z</time>
      </trkpt>
      <trkpt lat="39.1801" lon="-7.86263">
        <ele>160.3423</ele>
        <time>2021-07-10T10:18:33Z</time>
      </trkpt>
      <trkpt lat="39.18025" lon="-7.86431">
        <ele>163.5954</ele>
        <time>2021-07-10T10:18:44Z</time>
      </trkpt>
      <trkpt lat="39.18002" lon="-7.86561">
        <ele>170.426</ele>
        <time>2021-07-10T10:18:55Z</time>
      </trkpt>
      <trkpt lat="39.18006" lon="-7.86628">
        <ele>170.6328</ele>
        <time>2021-07-10T10:19:06Z</time>
      </trkpt>
      <trkpt lat="39.17964" lon="-7.86666">
        <ele>167.6371</ele>
        <time>2021-07-10T10:19:17Z</time>
      </trkpt>
      <trkpt lat="39.17964" lon="-7.86671">
        <ele>167.0612</ele>
        <time>2021-07-10T10:19:47Z</time>
      </trkpt>
      <trkpt lat="39.17963" lon="-7.86676">
        <ele>166.7749</ele>
        <time>2021-07-10T10:19:58Z</time>
      </trkpt>
      <trkpt lat="39.17961" lon="-7.8668">
        <ele>166.6214</ele>
        <time>2021-07-10T10:20:13Z</time>
      </trkpt>
      <trkpt lat="39.17827" lon="-7.86657">
        <ele>167.0486</ele>
        <time>2021-07-10T10:20:24Z</time>
      </trkpt>
      <trkpt lat="39.17657" lon="-7.86639">
        <ele>165.9983</ele>
        <time>2021-07-10T10:20:35Z</time>
      </trkpt>
      <trkpt lat="39.17544" lon="-7.86795">
        <ele>163.4082</ele>
        <time>2021-07-10T10:20:46Z</time>
      </trkpt>
      <trkpt lat="39.1738" lon="-7.86935">
        <ele>173.6266</ele>
        <time>2021-07-10T10:20:57Z</time>
      </trkpt>
      <trkpt lat="39.17264" lon="-7.86989">
        <ele>186.709</ele>
        <time>2021-07-10T10:21:08Z</time>
      </trkpt>
      <trkpt lat="39.17205" lon="-7.87072">
        <ele>188.6604</ele>
        <time>2021-07-10T10:21:19Z</time>
      </trkpt>
      <trkpt lat="39.17152" lon="-7.87157">
        <ele>192.0318</ele>
        <time>2021-07-10T10:21:30Z</time>
      </trkpt>
      <trkpt lat="39.17153" lon="-7.87291">
        <ele>189.5795</ele>
        <time>2021-07-10T10:21:41Z</time>
      </trkpt>
      <trkpt lat="39.17202" lon="-7.87511">
        <ele>191.8228</ele>
        <time>2021-07-10T10:21:52Z</time>
      </trkpt>
      <trkpt lat="39.17301" lon="-7.87774">
        <ele>196.9911</ele>
        <time>2021-07-10T10:22:03Z</time>
      </trkpt>
      <trkpt lat="39.17342" lon="-7.88029">
        <ele>200.5584</ele>
        <time>2021-07-10T10:22:14Z</time>
      </trkpt>
      <trkpt lat="39.17315" lon="-7.88268">
        <ele>197.1195</ele>
        <time>2021-07-10T10:22:25Z</time>
      </trkpt>
      <trkpt lat="39.17152" lon="-7.88472">
        <ele>199.7087</ele>
        <time>2021-07-10T10:22:36Z</time>
      </trkpt>
      <trkpt lat="39.16953" lon="-7.88647">
        <ele>199.7697</ele>
        <time>2021-07-10T10:22:47Z</time>
      </trkpt>
      <trkpt lat="39.16745" lon="-7.88793">
        <ele>203.8069</ele>
        <time>2021-07-10T10:22:58Z</time>
      </trkpt>
      <trkpt lat="39.1656" lon="-7.88787">
        <ele>207.6382</ele>
        <time>2021-07-10T10:23:09Z</time>
      </trkpt>
      <trkpt lat="39.16353" lon="-7.88646">
        <ele>201.2357</ele>
        <time>2021-07-10T10:23:20Z</time>
      </trkpt>
      <trkpt lat="39.16132" lon="-7.88497">
        <ele>200.2329</ele>
        <time>2021-07-10T10:23:31Z</time>
      </trkpt>
      <trkpt lat="39.15903" lon="-7.88343">
        <ele>202.8821</ele>
        <time>2021-07-10T10:23:42Z</time>
      </trkpt>
      <trkpt lat="39.15678" lon="-7.88191">
        <ele>201.2632</ele>
        <time>2021-07-10T10:23:53Z</time>
      </trkpt>
      <trkpt lat="39.15455" lon="-7.88179">
        <ele>200.3617</ele>
        <time>2021-07-10T10:24:04Z</time>
      </trkpt>
      <trkpt lat="39.15219" lon="-7.88214">
        <ele>198.6847</ele>
        <time>2021-07-10T10:24:15Z</time>
      </trkpt>
      <trkpt lat="39.15" lon="-7.88224">
        <ele>200.9795</ele>
        <time>2021-07-10T10:24:26Z</time>
      </trkpt>
      <trkpt lat="39.1482" lon="-7.88188">
        <ele>204.2912</ele>
        <time>2021-07-10T10:24:37Z</time>
      </trkpt>
      <trkpt lat="39.14733" lon="-7.88268">
        <ele>204.7845</ele>
        <time>2021-07-10T10:24:48Z</time>
      </trkpt>
      <trkpt lat="39.14643" lon="-7.88436">
        <ele>199.957</ele>
        <time>2021-07-10T10:24:59Z</time>
      </trkpt>
      <trkpt lat="39.14519" lon="-7.88585">
        <ele>188.0812</ele>
        <time>2021-07-10T10:25:10Z</time>
      </trkpt>
      <trkpt lat="39.14439" lon="-7.88753">
        <ele>200.0068</ele>
        <time>2021-07-10T10:25:21Z</time>
      </trkpt>
      <trkpt lat="39.1437" lon="-7.88944">
        <ele>205.9903</ele>
        <time>2021-07-10T10:25:32Z</time>
      </trkpt>
      <trkpt lat="39.14318" lon="-7.89117">
        <ele>195.7704</ele>
        <time>2021-07-10T10:25:43Z</time>
      </trkpt>
      <trkpt lat="39.143" lon="-7.89274">
        <ele>183.271</ele>
        <time>2021-07-10T10:25:54Z</time>
      </trkpt>
      <trkpt lat="39.14341" lon="-7.89444">
        <ele>193.5877</ele>
        <time>2021-07-10T10:26:05Z</time>
      </trkpt>
      <trkpt lat="39.14325" lon="-7.89568">
        <ele>208.4992</ele>
        <time>2021-07-10T10:26:16Z</time>
      </trkpt>
      <trkpt lat="39.14233" lon="-7.89692">
        <ele>203.199</ele>
        <time>2021-07-10T10:26:27Z</time>
      </trkpt>
      <trkpt lat="39.14184" lon="-7.89802">
        <ele>179.5105</ele>
        <time>2021-07-10T10:26:38Z</time>
      </trkpt>
      <trkpt lat="39.14205" lon="-7.89964">
        <ele>185.0434</ele>
        <time>2021-07-10T10:26:49Z</time>
      </trkpt>
      <trkpt lat="39.14257" lon="-7.90166">
        <ele>182.3896</ele>
        <time>2021-07-10T10:27:00Z</time>
      </trkpt>
      <trkpt lat="39.14265" lon="-7.90361">
        <ele>163.8223</ele>
        <time>2021-07-10T10:27:11Z</time>
      </trkpt>
      <trkpt lat="39.14232" lon="-7.90564">
        <ele>163.2283</ele>
        <time>2021-07-10T10:27:22Z</time>
      </trkpt>
      <trkpt lat="39.14164" lon="-7.9075">
        <ele>171.2325</ele>
        <time>2021-07-10T10:27:33Z</time>
      </trkpt>
      <trkpt lat="39.14195" lon="-7.90932">
        <ele>178.9026</ele>
        <time>2021-07-10T10:27:44Z</time>
      </trkpt>
      <trkpt lat="39.14195" lon="-7.91116">
        <ele>187.505</ele>
        <time>2021-07-10T10:27:55Z</time>
      </trkpt>
      <trkpt lat="39.14147" lon="-7.91263">
        <ele>178.3786</ele>
        <time>2021-07-10T10:28:06Z</time>
      </trkpt>
      <trkpt lat="39.1415" lon="-7.91458">
        <ele>173.6519</ele>
        <time>2021-07-10T10:28:17Z</time>
      </trkpt>
      <trkpt lat="39.14155" lon="-7.9162">
        <ele>163.0638</ele>
        <time>2021-07-10T10:28:28Z</time>
      </trkpt>
      <trkpt lat="39.14244" lon="-7.91764">
        <ele>148.2193</ele>
        <time>2021-07-10T10:28:39Z</time>
      </trkpt>
      <trkpt lat="39.14257" lon="-7.91778">
        <ele>152.6442</ele>
        <time>2021-07-10T10:28:50Z</time>
      </trkpt>
      <trkpt lat="39.14257" lon="-7.91773">
        <ele>179.6475</ele>
        <time>2021-07-10T10:29:27Z</time>
      </trkpt>
      <trkpt lat="39.14255" lon="-7.91777">
        <ele>159.2864</ele>
        <time>2021-07-10T10:30:14Z</time>
      </trkpt>
      <trkpt lat="39.14255" lon="-7.91776">
        <ele>159.618</ele>
        <time>2021-07-10T10:31:13Z</time>
      </trkpt>
      <trkpt lat="39.14259" lon="-7.91776">
        <ele>158.5686</ele>
        <time>2021-07-10T10:31:50Z</time>
      </trkpt>
      <trkpt lat="39.1426" lon="-7.91782">
        <ele>161.4716</ele>
        <time>2021-07-10T10:32:15Z</time>
      </trkpt>
      <trkpt lat="39.14258" lon="-7.9178">
        <ele>161.8762</ele>
        <time>2021-07-10T10:33:15Z</time>
      </trkpt>
      <trkpt lat="39.14258" lon="-7.9178">
        <ele>161.8762</ele>
        <time>2021-07-10T10:34:15Z</time>
      </trkpt>
      <trkpt lat="39.14261" lon="-7.91788">
        <ele>162.7738</ele>
        <time>2021-07-10T10:34:49Z</time>
      </trkpt>
      <trkpt lat="39.14332" lon="-7.91898">
        <ele>162.6468</ele>
        <time>2021-07-10T10:35:00Z</time>
      </trkpt>
      <trkpt lat="39.14418" lon="-7.92034">
        <ele>163.7381</ele>
        <time>2021-07-10T10:35:11Z</time>
      </trkpt>
      <trkpt lat="39.14491" lon="-7.92138">
        <ele>162.8732</ele>
        <time>2021-07-10T10:35:22Z</time>
      </trkpt>
      <trkpt lat="39.14507" lon="-7.92261">
        <ele>161.3747</ele>
        <time>2021-07-10T10:35:33Z</time>
      </trkpt>
      <trkpt lat="39.14466" lon="-7.92347">
        <ele>166.2553</ele>
        <time>2021-07-10T10:35:44Z</time>
      </trkpt>
      <trkpt lat="39.14409" lon="-7.92426">
        <ele>163.9952</ele>
        <time>2021-07-10T10:35:55Z</time>
      </trkpt>
      <trkpt lat="39.14387" lon="-7.9254">
        <ele>168.0072</ele>
        <time>2021-07-10T10:36:06Z</time>
      </trkpt>
      <trkpt lat="39.14434" lon="-7.92724">
        <ele>172.5477</ele>
        <time>2021-07-10T10:36:17Z</time>
      </trkpt>
      <trkpt lat="39.14428" lon="-7.92927">
        <ele>173.9474</ele>
        <time>2021-07-10T10:36:28Z</time>
      </trkpt>
      <trkpt lat="39.14443" lon="-7.93121">
        <ele>182.94</ele>
        <time>2021-07-10T10:36:39Z</time>
      </trkpt>
      <trkpt lat="39.14469" lon="-7.93301">
        <ele>190.2341</ele>
        <time>2021-07-10T10:36:50Z</time>
      </trkpt>
      <trkpt lat="39.14492" lon="-7.93497">
        <ele>196.2673</ele>
        <time>2021-07-10T10:37:01Z</time>
      </trkpt>
      <trkpt lat="39.14569" lon="-7.93642">
        <ele>196.8791</ele>
        <time>2021-07-10T10:37:12Z</time>
      </trkpt>
      <trkpt lat="39.14685" lon="-7.93806">
        <ele>198.8635</ele>
        <time>2021-07-10T10:37:23Z</time>
      </trkpt>
      <trkpt lat="39.14654" lon="-7.93932">
        <ele>204.7871</ele>
        <time>2021-07-10T10:37:34Z</time>
      </trkpt>
      <trkpt lat="39.14523" lon="-7.93993">
        <ele>209.035</ele>
        <time>2021-07-10T10:37:45Z</time>
      </trkpt>
      <trkpt lat="39.14489" lon="-7.94152">
        <ele>204.2517</ele>
        <time>2021-07-10T10:37:56Z</time>
      </trkpt>
      <trkpt lat="39.14526" lon="-7.94304">
        <ele>198.1452</ele>
        <time>2021-07-10T10:38:07Z</time>
      </trkpt>
      <trkpt lat="39.14659" lon="-7.94405">
        <ele>173.1405</ele>
        <time>2021-07-10T10:38:18Z</time>
      </trkpt>
      <trkpt lat="39.1474" lon="-7.94529">
        <ele>175.8779</ele>
        <time>2021-07-10T10:38:29Z</time>
      </trkpt>
      <trkpt lat="39.1482" lon="-7.94551">
        <ele>185.4758</ele>
        <time>2021-07-10T10:38:40Z</time>
      </trkpt>
      <trkpt lat="39.14932" lon="-7.94506">
        <ele>200.4281</ele>
        <time>2021-07-10T10:38:51Z</time>
      </trkpt>
      <trkpt lat="39.15046" lon="-7.94537">
        <ele>196.4133</ele>
        <time>2021-07-10T10:39:02Z</time>
      </trkpt>
      <trkpt lat="39.1515" lon="-7.94662">
        <ele>209.2724</ele>
        <time>2021-07-10T10:39:13Z</time>
      </trkpt>
      <trkpt lat="39.15184" lon="-7.94819">
        <ele>219.3092</ele>
        <time>2021-07-10T10:39:24Z</time>
      </trkpt>
      <trkpt lat="39.1516" lon="-7.95001">
        <ele>214.2201</ele>
        <time>2021-07-10T10:39:35Z</time>
      </trkpt>
      <trkpt lat="39.1515" lon="-7.95207">
        <ele>199.9086</ele>
        <time>2021-07-10T10:39:46Z</time>
      </trkpt>
      <trkpt lat="39.15102" lon="-7.95375">
        <ele>191.2456</ele>
        <time>2021-07-10T10:39:57Z</time>
      </trkpt>
      <trkpt lat="39.15057" lon="-7.95536">
        <ele>200.5171</ele>
        <time>2021-07-10T10:40:08Z</time>
      </trkpt>
      <trkpt lat="39.15049" lon="-7.95651">
        <ele>217.7564</ele>
        <time>2021-07-10T10:40:19Z</time>
      </trkpt>
      <trkpt lat="39.15111" lon="-7.9588">
        <ele>218.7278</ele>
        <time>2021-07-10T10:40:30Z</time>
      </trkpt>
      <trkpt lat="39.15187" lon="-7.96031">
        <ele>231.7018</ele>
        <time>2021-07-10T10:40:41Z</time>
      </trkpt>
      <trkpt lat="39.15316" lon="-7.96206">
        <ele>231.566</ele>
        <time>2021-07-10T10:40:52Z</time>
      </trkpt>
      <trkpt lat="39.15462" lon="-7.96427">
        <ele>230.8474</ele>
        <time>2021-07-10T10:41:03Z</time>
      </trkpt>
      <trkpt lat="39.15644" lon="-7.96624">
        <ele>231.2215</ele>
        <time>2021-07-10T10:41:14Z</time>
      </trkpt>
      <trkpt lat="39.15801" lon="-7.96845">
        <ele>226.92</ele>
        <time>2021-07-10T10:41:25Z</time>
      </trkpt>
      <trkpt lat="39.15916" lon="-7.97133">
        <ele>224.2123</ele>
        <time>2021-07-10T10:41:36Z</time>
      </trkpt>
      <trkpt lat="39.15992" lon="-7.97442">
        <ele>219.5131</ele>
        <time>2021-07-10T10:41:47Z</time>
      </trkpt>
      <trkpt lat="39.16042" lon="-7.9777">
        <ele>226.851</ele>
        <time>2021-07-10T10:41:58Z</time>
      </trkpt>
      <trkpt lat="39.16038" lon="-7.9805">
        <ele>231.0115</ele>
        <time>2021-07-10T10:42:09Z</time>
      </trkpt>
      <trkpt lat="39.1601" lon="-7.98314">
        <ele>224.0564</ele>
        <time>2021-07-10T10:42:20Z</time>
      </trkpt>
      <trkpt lat="39.15979" lon="-7.98542">
        <ele>223.453</ele>
        <time>2021-07-10T10:42:31Z</time>
      </trkpt>
      <trkpt lat="39.15927" lon="-7.9877">
        <ele>227.8489</ele>
        <time>2021-07-10T10:42:42Z</time>
      </trkpt>
      <trkpt lat="39.15934" lon="-7.98964">
        <ele>225.6989</ele>
        <time>2021-07-10T10:42:53Z</time>
      </trkpt>
      <trkpt lat="39.15957" lon="-7.99101">
        <ele>230.9868</ele>
        <time>2021-07-10T10:43:04Z</time>
      </trkpt>
      <trkpt lat="39.1599" lon="-7.99205">
        <ele>223.5534</ele>
        <time>2021-07-10T10:43:15Z</time>
      </trkpt>
      <trkpt lat="39.16017" lon="-7.9931">
        <ele>221.6612</ele>
        <time>2021-07-10T10:43:26Z</time>
      </trkpt>
      <trkpt lat="39.16036" lon="-7.99422">
        <ele>223.4559</ele>
        <time>2021-07-10T10:43:37Z</time>
      </trkpt>
      <trkpt lat="39.16027" lon="-7.99455">
        <ele>224.0328</ele>
        <time>2021-07-10T10:43:48Z</time>
      </trkpt>
      <trkpt lat="39.15997" lon="-7.99539">
        <ele>226.4362</ele>
        <time>2021-07-10T10:43:59Z</time>
      </trkpt>
      <trkpt lat="39.15953" lon="-7.99648">
        <ele>225.8428</ele>
        <time>2021-07-10T10:44:10Z</time>
      </trkpt>
      <trkpt lat="39.15909" lon="-7.99746">
        <ele>225.2236</ele>
        <time>2021-07-10T10:44:21Z</time>
      </trkpt>
      <trkpt lat="39.15904" lon="-7.99788">
        <ele>229.4399</ele>
        <time>2021-07-10T10:44:32Z</time>
      </trkpt>
      <trkpt lat="39.15904" lon="-7.99841">
        <ele>232.9105</ele>
        <time>2021-07-10T10:44:43Z</time>
      </trkpt>
      <trkpt lat="39.15911" lon="-7.99904">
        <ele>232.9367</ele>
        <time>2021-07-10T10:44:54Z</time>
      </trkpt>
      <trkpt lat="39.15937" lon="-8.00011">
        <ele>229.2738</ele>
        <time>2021-07-10T10:45:05Z</time>
      </trkpt>
      <trkpt lat="39.15941" lon="-8.00179">
        <ele>230.6525</ele>
        <time>2021-07-10T10:45:16Z</time>
      </trkpt>
      <trkpt lat="39.15939" lon="-8.00374">
        <ele>243.3877</ele>
        <time>2021-07-10T10:45:27Z</time>
      </trkpt>
      <trkpt lat="39.15917" lon="-8.00527">
        <ele>246.6777</ele>
        <time>2021-07-10T10:45:38Z</time>
      </trkpt>
      <trkpt lat="39.15975" lon="-8.00672">
        <ele>230.8318</ele>
        <time>2021-07-10T10:45:49Z</time>
      </trkpt>
      <trkpt lat="39.16051" lon="-8.00858">
        <ele>191.9676</ele>
        <time>2021-07-10T10:46:00Z</time>
      </trkpt>
      <trkpt lat="39.16103" lon="-8.01054">
        <ele>177.8191</ele>
        <time>2021-07-10T10:46:11Z</time>
      </trkpt>
      <trkpt lat="39.16141" lon="-8.01276">
        <ele>190.8849</ele>
        <time>2021-07-10T10:46:22Z</time>
      </trkpt>
      <trkpt lat="39.16177" lon="-8.01493">
        <ele>199.7774</ele>
        <time>2021-07-10T10:46:33Z</time>
      </trkpt>
      <trkpt lat="39.16227" lon="-8.01703">
        <ele>214.9758</ele>
        <time>2021-07-10T10:46:44Z</time>
      </trkpt>
      <trkpt lat="39.16254" lon="-8.01898">
        <ele>223.3568</ele>
        <time>2021-07-10T10:46:55Z</time>
      </trkpt>
      <trkpt lat="39.16239" lon="-8.02087">
        <ele>230.5751</ele>
        <time>2021-07-10T10:47:06Z</time>
      </trkpt>
      <trkpt lat="39.16168" lon="-8.0231">
        <ele>226.412</ele>
        <time>2021-07-10T10:47:17Z</time>
      </trkpt>
      <trkpt lat="39.16144" lon="-8.02482">
        <ele>209.6795</ele>
        <time>2021-07-10T10:47:28Z</time>
      </trkpt>
      <trkpt lat="39.16084" lon="-8.02661">
        <ele>207.8445</ele>
        <time>2021-07-10T10:47:39Z</time>
      </trkpt>
      <trkpt lat="39.16047" lon="-8.02873">
        <ele>203.0064</ele>
        <time>2021-07-10T10:47:50Z</time>
      </trkpt>
      <trkpt lat="39.16045" lon="-8.03058">
        <ele>201.9323</ele>
        <time>2021-07-10T10:48:01Z</time>
      </trkpt>
      <trkpt lat="39.15974" lon="-8.03246">
        <ele>200.7205</ele>
        <time>2021-07-10T10:48:12Z</time>
      </trkpt>
      <trkpt lat="39.15892" lon="-8.03454">
        <ele>196.8208</ele>
        <time>2021-07-10T10:48:23Z</time>
      </trkpt>
      <trkpt lat="39.15808" lon="-8.03643">
        <ele>196.1024</ele>
        <time>2021-07-10T10:48:34Z</time>
      </trkpt>
      <trkpt lat="39.15704" lon="-8.03765">
        <ele>189.0897</ele>
        <time>2021-07-10T10:48:45Z</time>
      </trkpt>
      <trkpt lat="39.15643" lon="-8.03951">
        <ele>179.7737</ele>
        <time>2021-07-10T10:48:56Z</time>
      </trkpt>
      <trkpt lat="39.15584" lon="-8.04157">
        <ele>175.2198</ele>
        <time>2021-07-10T10:49:07Z</time>
      </trkpt>
      <trkpt lat="39.15535" lon="-8.04381">
        <ele>169.483</ele>
        <time>2021-07-10T10:49:18Z</time>
      </trkpt>
      <trkpt lat="39.15521" lon="-8.04564">
        <ele>172.6725</ele>
        <time>2021-07-10T10:49:29Z</time>
      </trkpt>
      <trkpt lat="39.15548" lon="-8.04786">
        <ele>172.6459</ele>
        <time>2021-07-10T10:49:40Z</time>
      </trkpt>
      <trkpt lat="39.1552" lon="-8.05017">
        <ele>173.5734</ele>
        <time>2021-07-10T10:49:51Z</time>
      </trkpt>
      <trkpt lat="39.15486" lon="-8.05227">
        <ele>177.4235</ele>
        <time>2021-07-10T10:50:02Z</time>
      </trkpt>
      <trkpt lat="39.15375" lon="-8.05372">
        <ele>176.662</ele>
        <time>2021-07-10T10:50:13Z</time>
      </trkpt>
      <trkpt lat="39.15238" lon="-8.05514">
        <ele>177.71</ele>
        <time>2021-07-10T10:50:24Z</time>
      </trkpt>
      <trkpt lat="39.15122" lon="-8.05691">
        <ele>179.883</ele>
        <time>2021-07-10T10:50:35Z</time>
      </trkpt>
      <trkpt lat="39.15" lon="-8.05827">
        <ele>182.3683</ele>
        <time>2021-07-10T10:50:46Z</time>
      </trkpt>
      <trkpt lat="39.1487" lon="-8.05979">
        <ele>183.701</ele>
        <time>2021-07-10T10:50:57Z</time>
      </trkpt>
      <trkpt lat="39.14739" lon="-8.0613">
        <ele>182.7911</ele>
        <time>2021-07-10T10:51:08Z</time>
      </trkpt>
      <trkpt lat="39.14634" lon="-8.06287">
        <ele>178.2926</ele>
        <time>2021-07-10T10:51:19Z</time>
      </trkpt>
      <trkpt lat="39.14593" lon="-8.06503">
        <ele>178.9745</ele>
        <time>2021-07-10T10:51:30Z</time>
      </trkpt>
      <trkpt lat="39.14561" lon="-8.06709">
        <ele>179.358</ele>
        <time>2021-07-10T10:51:41Z</time>
      </trkpt>
      <trkpt lat="39.14435" lon="-8.06798">
        <ele>171.5414</ele>
        <time>2021-07-10T10:51:52Z</time>
      </trkpt>
      <trkpt lat="39.14303" lon="-8.06858">
        <ele>165.5897</ele>
        <time>2021-07-10T10:52:03Z</time>
      </trkpt>
      <trkpt lat="39.14198" lon="-8.07015">
        <ele>164.7377</ele>
        <time>2021-07-10T10:52:14Z</time>
      </trkpt>
      <trkpt lat="39.14048" lon="-8.07079">
        <ele>174.2589</ele>
        <time>2021-07-10T10:52:25Z</time>
      </trkpt>
      <trkpt lat="39.13894" lon="-8.07124">
        <ele>178.5305</ele>
        <time>2021-07-10T10:52:36Z</time>
      </trkpt>
      <trkpt lat="39.13768" lon="-8.07252">
        <ele>187.8659</ele>
        <time>2021-07-10T10:52:47Z</time>
      </trkpt>
      <trkpt lat="39.13611" lon="-8.07343">
        <ele>186.1764</ele>
        <time>2021-07-10T10:52:58Z</time>
      </trkpt>
      <trkpt lat="39.13485" lon="-8.07445">
        <ele>181.3422</ele>
        <time>2021-07-10T10:53:09Z</time>
      </trkpt>
      <trkpt lat="39.13343" lon="-8.07567">
        <ele>177.2434</ele>
        <time>2021-07-10T10:53:20Z</time>
      </trkpt>
      <trkpt lat="39.13197" lon="-8.07666">
        <ele>179.4231</ele>
        <time>2021-07-10T10:53:31Z</time>
      </trkpt>
      <trkpt lat="39.13063" lon="-8.07749">
        <ele>175.6239</ele>
        <time>2021-07-10T10:53:42Z</time>
      </trkpt>
      <trkpt lat="39.13021" lon="-8.07926">
        <ele>167.8931</ele>
        <time>2021-07-10T10:53:53Z</time>
      </trkpt>
      <trkpt lat="39.12965" lon="-8.08083">
        <ele>167.7513</ele>
        <time>2021-07-10T10:54:04Z</time>
      </trkpt>
      <trkpt lat="39.1283" lon="-8.08188">
        <ele>169.3903</ele>
        <time>2021-07-10T10:54:15Z</time>
      </trkpt>
      <trkpt lat="39.12661" lon="-8.0827">
        <ele>164.5563</ele>
        <time>2021-07-10T10:54:26Z</time>
      </trkpt>
      <trkpt lat="39.12523" lon="-8.08405">
        <ele>158.4484</ele>
        <time>2021-07-10T10:54:37Z</time>
      </trkpt>
      <trkpt lat="39.12448" lon="-8.08551">
        <ele>165.2412</ele>
        <time>2021-07-10T10:54:48Z</time>
      </trkpt>
      <trkpt lat="39.12305" lon="-8.08657">
        <ele>164.5097</ele>
        <time>2021-07-10T10:54:59Z</time>
      </trkpt>
      <trkpt lat="39.12158" lon="-8.08712">
        <ele>178.7725</ele>
        <time>2021-07-10T10:55:10Z</time>
      </trkpt>
      <trkpt lat="39.1208" lon="-8.08859">
        <ele>177.8377</ele>
        <time>2021-07-10T10:55:21Z</time>
      </trkpt>
      <trkpt lat="39.12024" lon="-8.09005">
        <ele>176.4802</ele>
        <time>2021-07-10T10:55:32Z</time>
      </trkpt>
      <trkpt lat="39.11958" lon="-8.09154">
        <ele>172.4358</ele>
        <time>2021-07-10T10:55:43Z</time>
      </trkpt>
      <trkpt lat="39.11837" lon="-8.09229">
        <ele>173.4601</ele>
        <time>2021-07-10T10:55:54Z</time>
      </trkpt>
      <trkpt lat="39.11713" lon="-8.09322">
        <ele>170.2504</ele>
        <time>2021-07-10T10:56:05Z</time>
      </trkpt>
      <trkpt lat="39.11657" lon="-8.09448">
        <ele>156.3592</ele>
        <time>2021-07-10T10:56:16Z</time>
      </trkpt>
      <trkpt lat="39.1163" lon="-8.09595">
        <ele>143.8713</ele>
        <time>2021-07-10T10:56:27Z</time>
      </trkpt>
      <trkpt lat="39.11553" lon="-8.0967">
        <ele>136.5445</ele>
        <time>2021-07-10T10:56:38Z</time>
      </trkpt>
      <trkpt lat="39.11428" lon="-8.09677">
        <ele>133.3481</ele>
        <time>2021-07-10T10:56:49Z</time>
      </trkpt>
      <trkpt lat="39.11361" lon="-8.09729">
        <ele>133.7528</ele>
        <time>2021-07-10T10:57:00Z</time>
      </trkpt>
      <trkpt lat="39.11284" lon="-8.098">
        <ele>133.3278</ele>
        <time>2021-07-10T10:57:11Z</time>
      </trkpt>
      <trkpt lat="39.11232" lon="-8.09899">
        <ele>129.2271</ele>
        <time>2021-07-10T10:57:22Z</time>
      </trkpt>
      <trkpt lat="39.11189" lon="-8.10038">
        <ele>126.9934</ele>
        <time>2021-07-10T10:57:33Z</time>
      </trkpt>
      <trkpt lat="39.1112" lon="-8.1018">
        <ele>126.2217</ele>
        <time>2021-07-10T10:57:44Z</time>
      </trkpt>
      <trkpt lat="39.1104" lon="-8.10278">
        <ele>119.8565</ele>
        <time>2021-07-10T10:57:55Z</time>
      </trkpt>
      <trkpt lat="39.10925" lon="-8.10328">
        <ele>117.6253</ele>
        <time>2021-07-10T10:58:06Z</time>
      </trkpt>
      <trkpt lat="39.10816" lon="-8.1039">
        <ele>111.8256</ele>
        <time>2021-07-10T10:58:17Z</time>
      </trkpt>
      <trkpt lat="39.10731" lon="-8.10457">
        <ele>106.0595</ele>
        <time>2021-07-10T10:58:28Z</time>
      </trkpt>
      <trkpt lat="39.10665" lon="-8.10548">
        <ele>101.7898</ele>
        <time>2021-07-10T10:58:39Z</time>
      </trkpt>
      <trkpt lat="39.10602" lon="-8.10612">
        <ele>100.3296</ele>
        <time>2021-07-10T10:58:50Z</time>
      </trkpt>
      <trkpt lat="39.10532" lon="-8.10701">
        <ele>99.89687</ele>
        <time>2021-07-10T10:59:01Z</time>
      </trkpt>
      <trkpt lat="39.1043" lon="-8.10762">
        <ele>94.87902</ele>
        <time>2021-07-10T10:59:12Z</time>
      </trkpt>
      <trkpt lat="39.10365" lon="-8.10775">
        <ele>90.39009</ele>
        <time>2021-07-10T10:59:23Z</time>
      </trkpt>
      <trkpt lat="39.10362" lon="-8.1077">
        <ele>92.35567</ele>
        <time>2021-07-10T10:59:34Z</time>
      </trkpt>
      <trkpt lat="39.10361" lon="-8.10765">
        <ele>85.04443</ele>
        <time>2021-07-10T10:59:47Z</time>
      </trkpt>
      <trkpt lat="39.10363" lon="-8.10761">
        <ele>87.61766</ele>
        <time>2021-07-10T11:00:07Z</time>
      </trkpt>
      <trkpt lat="39.10366" lon="-8.10765">
        <ele>91.72925</ele>
        <time>2021-07-10T11:00:23Z</time>
      </trkpt>
      <trkpt lat="39.10347" lon="-8.10736">
        <ele>92.89801</ele>
        <time>2021-07-10T11:00:34Z</time>
      </trkpt>
      <trkpt lat="39.10309" lon="-8.10669">
        <ele>87.48002</ele>
        <time>2021-07-10T11:00:45Z</time>
      </trkpt>
      <trkpt lat="39.10278" lon="-8.10567">
        <ele>81.67963</ele>
        <time>2021-07-10T11:00:56Z</time>
      </trkpt>
      <trkpt lat="39.10234" lon="-8.10452">
        <ele>81.24953</ele>
        <time>2021-07-10T11:01:07Z</time>
      </trkpt>
      <trkpt lat="39.1021" lon="-8.10322">
        <ele>86.79117</ele>
        <time>2021-07-10T11:01:18Z</time>
      </trkpt>
      <trkpt lat="39.10201" lon="-8.10194">
        <ele>91.41004</ele>
        <time>2021-07-10T11:01:29Z</time>
      </trkpt>
      <trkpt lat="39.10191" lon="-8.10072">
        <ele>93.04067</ele>
        <time>2021-07-10T11:01:40Z</time>
      </trkpt>
      <trkpt lat="39.10139" lon="-8.09984">
        <ele>79.64492</ele>
        <time>2021-07-10T11:01:51Z</time>
      </trkpt>
      <trkpt lat="39.10054" lon="-8.09883">
        <ele>88.04609</ele>
        <time>2021-07-10T11:02:02Z</time>
      </trkpt>
      <trkpt lat="39.09968" lon="-8.09748">
        <ele>94.6254</ele>
        <time>2021-07-10T11:02:13Z</time>
      </trkpt>
      <trkpt lat="39.0993" lon="-8.09668">
        <ele>100.4122</ele>
        <time>2021-07-10T11:02:24Z</time>
      </trkpt>
      <trkpt lat="39.09944" lon="-8.09613">
        <ele>104.1667</ele>
        <time>2021-07-10T11:02:35Z</time>
      </trkpt>
      <trkpt lat="39.0992" lon="-8.09546">
        <ele>102.545</ele>
        <time>2021-07-10T11:02:46Z</time>
      </trkpt>
      <trkpt lat="39.09921" lon="-8.09555">
        <ele>97.89418</ele>
        <time>2021-07-10T11:02:58Z</time>
      </trkpt>
      <trkpt lat="39.09941" lon="-8.09636">
        <ele>91.48689</ele>
        <time>2021-07-10T11:03:09Z</time>
      </trkpt>
      <trkpt lat="39.09928" lon="-8.09668">
        <ele>87.76091</ele>
        <time>2021-07-10T11:03:20Z</time>
      </trkpt>
      <trkpt lat="39.09928" lon="-8.09663">
        <ele>93.24796</ele>
        <time>2021-07-10T11:03:42Z</time>
      </trkpt>
      <trkpt lat="39.0993" lon="-8.09658">
        <ele>92.79015</ele>
        <time>2021-07-10T11:04:02Z</time>
      </trkpt>
      <trkpt lat="39.09933" lon="-8.09656">
        <ele>90.32496</ele>
        <time>2021-07-10T11:04:13Z</time>
      </trkpt>
      <trkpt lat="39.0993" lon="-8.09659">
        <ele>90.97007</ele>
        <time>2021-07-10T11:04:43Z</time>
      </trkpt>
      <trkpt lat="39.09928" lon="-8.09667">
        <ele>90.13942</ele>
        <time>2021-07-10T11:04:54Z</time>
      </trkpt>
      <trkpt lat="39.09928" lon="-8.09676">
        <ele>90.67554</ele>
        <time>2021-07-10T11:05:48Z</time>
      </trkpt>
      <trkpt lat="39.09923" lon="-8.09681">
        <ele>90.57784</ele>
        <time>2021-07-10T11:05:59Z</time>
      </trkpt>
      <trkpt lat="39.09929" lon="-8.09667">
        <ele>90.29939</ele>
        <time>2021-07-10T11:06:10Z</time>
      </trkpt>
      <trkpt lat="39.09939" lon="-8.09588">
        <ele>93.4843</ele>
        <time>2021-07-10T11:06:21Z</time>
      </trkpt>
      <trkpt lat="39.09894" lon="-8.09488">
        <ele>94.67117</ele>
        <time>2021-07-10T11:06:32Z</time>
      </trkpt>
      <trkpt lat="39.09825" lon="-8.09424">
        <ele>88.89578</ele>
        <time>2021-07-10T11:06:43Z</time>
      </trkpt>
      <trkpt lat="39.09767" lon="-8.0935">
        <ele>88.39908</ele>
        <time>2021-07-10T11:06:54Z</time>
      </trkpt>
      <trkpt lat="39.09724" lon="-8.09218">
        <ele>86.85265</ele>
        <time>2021-07-10T11:07:05Z</time>
      </trkpt>
      <trkpt lat="39.09711" lon="-8.0908">
        <ele>87.2943</ele>
        <time>2021-07-10T11:07:16Z</time>
      </trkpt>
      <trkpt lat="39.09739" lon="-8.08979">
        <ele>87.83308</ele>
        <time>2021-07-10T11:07:27Z</time>
      </trkpt>
      <trkpt lat="39.0979" lon="-8.08883">
        <ele>84.49851</ele>
        <time>2021-07-10T11:07:38Z</time>
      </trkpt>
      <trkpt lat="39.0987" lon="-8.08821">
        <ele>87.78122</ele>
        <time>2021-07-10T11:07:49Z</time>
      </trkpt>
      <trkpt lat="39.0989" lon="-8.08763">
        <ele>86.23793</ele>
        <time>2021-07-10T11:08:00Z</time>
      </trkpt>
      <trkpt lat="39.09898" lon="-8.08717">
        <ele>84.61437</ele>
        <time>2021-07-10T11:08:11Z</time>
      </trkpt>
      <trkpt lat="39.09906" lon="-8.08682">
        <ele>87.65272</ele>
        <time>2021-07-10T11:08:22Z</time>
      </trkpt>
      <trkpt lat="39.09867" lon="-8.08677">
        <ele>83.97629</ele>
        <time>2021-07-10T11:08:33Z</time>
      </trkpt>
      <trkpt lat="39.09819" lon="-8.08675">
        <ele>84.77809</ele>
        <time>2021-07-10T11:08:44Z</time>
      </trkpt>
      <trkpt lat="39.09789" lon="-8.08701">
        <ele>86.32071</ele>
        <time>2021-07-10T11:08:55Z</time>
      </trkpt>
      <trkpt lat="39.09742" lon="-8.08741">
        <ele>84.76147</ele>
        <time>2021-07-10T11:09:06Z</time>
      </trkpt>
      <trkpt lat="39.0969" lon="-8.08773">
        <ele>82.04358</ele>
        <time>2021-07-10T11:09:17Z</time>
      </trkpt>
      <trkpt lat="39.09621" lon="-8.08807">
        <ele>79.58657</ele>
        <time>2021-07-10T11:09:28Z</time>
      </trkpt>
      <trkpt lat="39.0958" lon="-8.08758">
        <ele>80.58016</ele>
        <time>2021-07-10T11:09:39Z</time>
      </trkpt>
      <trkpt lat="39.09509" lon="-8.08675">
        <ele>81.4588</ele>
        <time>2021-07-10T11:09:50Z</time>
      </trkpt>
      <trkpt lat="39.09469" lon="-8.08593">
        <ele>83.65607</ele>
        <time>2021-07-10T11:10:01Z</time>
      </trkpt>
      <trkpt lat="39.09459" lon="-8.08518">
        <ele>86.93895</ele>
        <time>2021-07-10T11:10:12Z</time>
      </trkpt>
      <trkpt lat="39.09442" lon="-8.08469">
        <ele>88.40498</ele>
        <time>2021-07-10T11:10:23Z</time>
      </trkpt>
      <trkpt lat="39.09386" lon="-8.08372">
        <ele>88.14866</ele>
        <time>2021-07-10T11:10:34Z</time>
      </trkpt>
      <trkpt lat="39.09357" lon="-8.08281">
        <ele>90.16441</ele>
        <time>2021-07-10T11:10:45Z</time>
      </trkpt>
      <trkpt lat="39.09301" lon="-8.08207">
        <ele>86.57549</ele>
        <time>2021-07-10T11:10:56Z</time>
      </trkpt>
      <trkpt lat="39.09271" lon="-8.0812">
        <ele>87.14695</ele>
        <time>2021-07-10T11:11:07Z</time>
      </trkpt>
      <trkpt lat="39.09249" lon="-8.08008">
        <ele>91.43599</ele>
        <time>2021-07-10T11:11:18Z</time>
      </trkpt>
      <trkpt lat="39.09164" lon="-8.07927">
        <ele>92.92731</ele>
        <time>2021-07-10T11:11:29Z</time>
      </trkpt>
      <trkpt lat="39.09083" lon="-8.07813">
        <ele>88.09638</ele>
        <time>2021-07-10T11:11:40Z</time>
      </trkpt>
      <trkpt lat="39.09018" lon="-8.07674">
        <ele>92.15002</ele>
        <time>2021-07-10T11:11:51Z</time>
      </trkpt>
      <trkpt lat="39.08969" lon="-8.07535">
        <ele>97.20937</ele>
        <time>2021-07-10T11:12:02Z</time>
      </trkpt>
      <trkpt lat="39.08891" lon="-8.07546">
        <ele>90.53456</ele>
        <time>2021-07-10T11:12:13Z</time>
      </trkpt>
      <trkpt lat="39.08831" lon="-8.07502">
        <ele>84.99922</ele>
        <time>2021-07-10T11:12:24Z</time>
      </trkpt>
      <trkpt lat="39.08787" lon="-8.07416">
        <ele>82.4998</ele>
        <time>2021-07-10T11:12:35Z</time>
      </trkpt>
      <trkpt lat="39.08787" lon="-8.07347">
        <ele>84.94353</ele>
        <time>2021-07-10T11:12:46Z</time>
      </trkpt>
      <trkpt lat="39.0877" lon="-8.0723">
        <ele>87.2858</ele>
        <time>2021-07-10T11:12:57Z</time>
      </trkpt>
      <trkpt lat="39.08768" lon="-8.07107">
        <ele>86.56332</ele>
        <time>2021-07-10T11:13:08Z</time>
      </trkpt>
      <trkpt lat="39.08755" lon="-8.07045">
        <ele>84.4967</ele>
        <time>2021-07-10T11:13:19Z</time>
      </trkpt>
      <trkpt lat="39.08691" lon="-8.071">
        <ele>81.70969</ele>
        <time>2021-07-10T11:13:30Z</time>
      </trkpt>
      <trkpt lat="39.08664" lon="-8.0718">
        <ele>81.43327</ele>
        <time>2021-07-10T11:13:41Z</time>
      </trkpt>
      <trkpt lat="39.08588" lon="-8.07159">
        <ele>82.2779</ele>
        <time>2021-07-10T11:13:52Z</time>
      </trkpt>
      <trkpt lat="39.08598" lon="-8.07257">
        <ele>82.19141</ele>
        <time>2021-07-10T11:14:03Z</time>
      </trkpt>
      <trkpt lat="39.08586" lon="-8.07403">
        <ele>82.59366</ele>
        <time>2021-07-10T11:14:14Z</time>
      </trkpt>
      <trkpt lat="39.08506" lon="-8.07444">
        <ele>91.66939</ele>
        <time>2021-07-10T11:14:25Z</time>
      </trkpt>
      <trkpt lat="39.08399" lon="-8.07412">
        <ele>70.75231</ele>
        <time>2021-07-10T11:14:36Z</time>
      </trkpt>
      <trkpt lat="39.08298" lon="-8.07405">
        <ele>121.9742</ele>
        <time>2021-07-10T11:14:47Z</time>
      </trkpt>
      <trkpt lat="39.082" lon="-8.07497">
        <ele>123.1642</ele>
        <time>2021-07-10T11:14:58Z</time>
      </trkpt>
      <trkpt lat="39.08177" lon="-8.07629">
        <ele>131.7194</ele>
        <time>2021-07-10T11:15:09Z</time>
      </trkpt>
      <trkpt lat="39.08128" lon="-8.07746">
        <ele>142.3951</ele>
        <time>2021-07-10T11:15:20Z</time>
      </trkpt>
      <trkpt lat="39.08094" lon="-8.07808">
        <ele>148.6709</ele>
        <time>2021-07-10T11:15:31Z</time>
      </trkpt>
      <trkpt lat="39.0809" lon="-8.07809">
        <ele>148.9429</ele>
        <time>2021-07-10T11:15:43Z</time>
      </trkpt>
      <trkpt lat="39.08018" lon="-8.07877">
        <ele>147.3261</ele>
        <time>2021-07-10T11:15:54Z</time>
      </trkpt>
      <trkpt lat="39.07959" lon="-8.07973">
        <ele>148.895</ele>
        <time>2021-07-10T11:16:05Z</time>
      </trkpt>
      <trkpt lat="39.07887" lon="-8.08025">
        <ele>148.1661</ele>
        <time>2021-07-10T11:16:16Z</time>
      </trkpt>
      <trkpt lat="39.0788" lon="-8.08185">
        <ele>150.4601</ele>
        <time>2021-07-10T11:16:27Z</time>
      </trkpt>
      <trkpt lat="39.07828" lon="-8.08367">
        <ele>151.0794</ele>
        <time>2021-07-10T11:16:38Z</time>
      </trkpt>
      <trkpt lat="39.0775" lon="-8.08437">
        <ele>151.997</ele>
        <time>2021-07-10T11:16:49Z</time>
      </trkpt>
      <trkpt lat="39.07704" lon="-8.08489">
        <ele>154.2564</ele>
        <time>2021-07-10T11:17:00Z</time>
      </trkpt>
      <trkpt lat="39.07603" lon="-8.08574">
        <ele>152.5815</ele>
        <time>2021-07-10T11:17:11Z</time>
      </trkpt>
      <trkpt lat="39.0752" lon="-8.08682">
        <ele>153.6165</ele>
        <time>2021-07-10T11:17:22Z</time>
      </trkpt>
      <trkpt lat="39.07394" lon="-8.08705">
        <ele>154.1021</ele>
        <time>2021-07-10T11:17:33Z</time>
      </trkpt>
      <trkpt lat="39.07229" lon="-8.08728">
        <ele>151.9377</ele>
        <time>2021-07-10T11:17:44Z</time>
      </trkpt>
      <trkpt lat="39.07114" lon="-8.08677">
        <ele>155.5882</ele>
        <time>2021-07-10T11:17:55Z</time>
      </trkpt>
      <trkpt lat="39.07023" lon="-8.08624">
        <ele>158.7937</ele>
        <time>2021-07-10T11:18:06Z</time>
      </trkpt>
      <trkpt lat="39.06933" lon="-8.08534">
        <ele>157.9236</ele>
        <time>2021-07-10T11:18:17Z</time>
      </trkpt>
      <trkpt lat="39.06842" lon="-8.08402">
        <ele>154.2737</ele>
        <time>2021-07-10T11:18:28Z</time>
      </trkpt>
      <trkpt lat="39.06781" lon="-8.08277">
        <ele>155.0812</ele>
        <time>2021-07-10T11:18:39Z</time>
      </trkpt>
      <trkpt lat="39.06751" lon="-8.08147">
        <ele>154.1448</ele>
        <time>2021-07-10T11:18:50Z</time>
      </trkpt>
      <trkpt lat="39.06685" lon="-8.08031">
        <ele>153.8799</ele>
        <time>2021-07-10T11:19:01Z</time>
      </trkpt>
      <trkpt lat="39.06639" lon="-8.07875">
        <ele>152.8398</ele>
        <time>2021-07-10T11:19:12Z</time>
      </trkpt>
      <trkpt lat="39.06578" lon="-8.07731">
        <ele>154.3811</ele>
        <time>2021-07-10T11:19:23Z</time>
      </trkpt>
      <trkpt lat="39.06478" lon="-8.07638">
        <ele>150.8704</ele>
        <time>2021-07-10T11:19:34Z</time>
      </trkpt>
      <trkpt lat="39.06363" lon="-8.07619">
        <ele>142.2534</ele>
        <time>2021-07-10T11:19:45Z</time>
      </trkpt>
      <trkpt lat="39.06262" lon="-8.07509">
        <ele>159.9783</ele>
        <time>2021-07-10T11:19:56Z</time>
      </trkpt>
      <trkpt lat="39.06235" lon="-8.07349">
        <ele>170.0786</ele>
        <time>2021-07-10T11:20:07Z</time>
      </trkpt>
      <trkpt lat="39.06289" lon="-8.07192">
        <ele>161.3333</ele>
        <time>2021-07-10T11:20:18Z</time>
      </trkpt>
      <trkpt lat="39.06234" lon="-8.07047">
        <ele>161.1974</ele>
        <time>2021-07-10T11:20:29Z</time>
      </trkpt>
      <trkpt lat="39.06118" lon="-8.06988">
        <ele>162.4943</ele>
        <time>2021-07-10T11:20:40Z</time>
      </trkpt>
      <trkpt lat="39.06014" lon="-8.06889">
        <ele>160.3359</ele>
        <time>2021-07-10T11:20:51Z</time>
      </trkpt>
      <trkpt lat="39.05925" lon="-8.06743">
        <ele>160.3848</ele>
        <time>2021-07-10T11:21:02Z</time>
      </trkpt>
      <trkpt lat="39.05855" lon="-8.06596">
        <ele>157.8528</ele>
        <time>2021-07-10T11:21:13Z</time>
      </trkpt>
      <trkpt lat="39.05861" lon="-8.06469">
        <ele>157.7805</ele>
        <time>2021-07-10T11:21:24Z</time>
      </trkpt>
      <trkpt lat="39.05945" lon="-8.06357">
        <ele>156.0283</ele>
        <time>2021-07-10T11:21:35Z</time>
      </trkpt>
      <trkpt lat="39.06002" lon="-8.06222">
        <ele>157.2807</ele>
        <time>2021-07-10T11:21:46Z</time>
      </trkpt>
      <trkpt lat="39.06021" lon="-8.06101">
        <ele>158.7707</ele>
        <time>2021-07-10T11:21:57Z</time>
      </trkpt>
      <trkpt lat="39.05952" lon="-8.05979">
        <ele>163.3254</ele>
        <time>2021-07-10T11:22:08Z</time>
      </trkpt>
      <trkpt lat="39.05898" lon="-8.05854">
        <ele>166.8632</ele>
        <time>2021-07-10T11:22:19Z</time>
      </trkpt>
      <trkpt lat="39.05898" lon="-8.05678">
        <ele>166.8758</ele>
        <time>2021-07-10T11:22:30Z</time>
      </trkpt>
      <trkpt lat="39.05895" lon="-8.0552">
        <ele>163.2625</ele>
        <time>2021-07-10T11:22:41Z</time>
      </trkpt>
      <trkpt lat="39.05958" lon="-8.05348">
        <ele>159.2068</ele>
        <time>2021-07-10T11:22:52Z</time>
      </trkpt>
      <trkpt lat="39.05996" lon="-8.05194">
        <ele>157.3825</ele>
        <time>2021-07-10T11:23:03Z</time>
      </trkpt>
      <trkpt lat="39.05991" lon="-8.05053">
        <ele>158.5843</ele>
        <time>2021-07-10T11:23:14Z</time>
      </trkpt>
      <trkpt lat="39.06022" lon="-8.04872">
        <ele>163.7735</ele>
        <time>2021-07-10T11:23:25Z</time>
      </trkpt>
      <trkpt lat="39.06101" lon="-8.04763">
        <ele>165.9422</ele>
        <time>2021-07-10T11:23:36Z</time>
      </trkpt>
      <trkpt lat="39.06158" lon="-8.04643">
        <ele>165.515</ele>
        <time>2021-07-10T11:23:47Z</time>
      </trkpt>
      <trkpt lat="39.06202" lon="-8.04519">
        <ele>164.9694</ele>
        <time>2021-07-10T11:23:58Z</time>
      </trkpt>
      <trkpt lat="39.06183" lon="-8.0434">
        <ele>165.9906</ele>
        <time>2021-07-10T11:24:09Z</time>
      </trkpt>
      <trkpt lat="39.06141" lon="-8.042">
        <ele>160.4461</ele>
        <time>2021-07-10T11:24:20Z</time>
      </trkpt>
      <trkpt lat="39.06117" lon="-8.04068">
        <ele>170.5618</ele>
        <time>2021-07-10T11:24:31Z</time>
      </trkpt>
      <trkpt lat="39.06088" lon="-8.03939">
        <ele>179.0742</ele>
        <time>2021-07-10T11:24:42Z</time>
      </trkpt>
      <trkpt lat="39.0607" lon="-8.0378">
        <ele>178.4287</ele>
        <time>2021-07-10T11:24:53Z</time>
      </trkpt>
      <trkpt lat="39.05978" lon="-8.03651">
        <ele>175.1518</ele>
        <time>2021-07-10T11:25:04Z</time>
      </trkpt>
      <trkpt lat="39.05893" lon="-8.03506">
        <ele>170.7609</ele>
        <time>2021-07-10T11:25:15Z</time>
      </trkpt>
      <trkpt lat="39.0587" lon="-8.03467">
        <ele>176.0352</ele>
        <time>2021-07-10T11:25:26Z</time>
      </trkpt>
      <trkpt lat="39.05718" lon="-8.03401">
        <ele>180.0243</ele>
        <time>2021-07-10T11:25:37Z</time>
      </trkpt>
      <trkpt lat="39.05542" lon="-8.03392">
        <ele>175.7656</ele>
        <time>2021-07-10T11:25:48Z</time>
      </trkpt>
      <trkpt lat="39.05308" lon="-8.03457">
        <ele>174.3754</ele>
        <time>2021-07-10T11:25:59Z</time>
      </trkpt>
      <trkpt lat="39.05095" lon="-8.03534">
        <ele>168.7827</ele>
        <time>2021-07-10T11:26:10Z</time>
      </trkpt>
      <trkpt lat="39.04836" lon="-8.03551">
        <ele>164.5471</ele>
        <time>2021-07-10T11:26:21Z</time>
      </trkpt>
      <trkpt lat="39.04608" lon="-8.03556">
        <ele>162.8776</ele>
        <time>2021-07-10T11:26:32Z</time>
      </trkpt>
      <trkpt lat="39.04375" lon="-8.03612">
        <ele>161.6314</ele>
        <time>2021-07-10T11:26:43Z</time>
      </trkpt>
      <trkpt lat="39.04151" lon="-8.0373">
        <ele>149.7187</ele>
        <time>2021-07-10T11:26:54Z</time>
      </trkpt>
      <trkpt lat="39.03928" lon="-8.038">
        <ele>158.615</ele>
        <time>2021-07-10T11:27:05Z</time>
      </trkpt>
      <trkpt lat="39.03712" lon="-8.03859">
        <ele>157.7716</ele>
        <time>2021-07-10T11:27:16Z</time>
      </trkpt>
      <trkpt lat="39.03485" lon="-8.03874">
        <ele>149.6393</ele>
        <time>2021-07-10T11:27:27Z</time>
      </trkpt>
      <trkpt lat="39.03259" lon="-8.03851">
        <ele>135.9584</ele>
        <time>2021-07-10T11:27:38Z</time>
      </trkpt>
      <trkpt lat="39.03104" lon="-8.03835">
        <ele>134.7224</ele>
        <time>2021-07-10T11:27:49Z</time>
      </trkpt>
      <trkpt lat="39.03115" lon="-8.03756">
        <ele>136.9363</ele>
        <time>2021-07-10T11:28:00Z</time>
      </trkpt>
      <trkpt lat="39.0314" lon="-8.03604">
        <ele>136.6266</ele>
        <time>2021-07-10T11:28:11Z</time>
      </trkpt>
      <trkpt lat="39.03208" lon="-8.03502">
        <ele>151.5056</ele>
        <time>2021-07-10T11:28:22Z</time>
      </trkpt>
      <trkpt lat="39.03267" lon="-8.03391">
        <ele>155.2038</ele>
        <time>2021-07-10T11:28:33Z</time>
      </trkpt>
      <trkpt lat="39.03297" lon="-8.03268">
        <ele>151.0256</ele>
        <time>2021-07-10T11:28:44Z</time>
      </trkpt>
      <trkpt lat="39.03298" lon="-8.0308">
        <ele>155.6786</ele>
        <time>2021-07-10T11:28:55Z</time>
      </trkpt>
      <trkpt lat="39.0329" lon="-8.02871">
        <ele>163.4229</ele>
        <time>2021-07-10T11:29:06Z</time>
      </trkpt>
      <trkpt lat="39.033" lon="-8.02678">
        <ele>158.944</ele>
        <time>2021-07-10T11:29:17Z</time>
      </trkpt>
      <trkpt lat="39.03295" lon="-8.02474">
        <ele>167.0399</ele>
        <time>2021-07-10T11:29:28Z</time>
      </trkpt>
      <trkpt lat="39.03326" lon="-8.02303">
        <ele>167.8536</ele>
        <time>2021-07-10T11:29:39Z</time>
      </trkpt>
      <trkpt lat="39.03425" lon="-8.02208">
        <ele>166.2295</ele>
        <time>2021-07-10T11:29:50Z</time>
      </trkpt>
      <trkpt lat="39.03491" lon="-8.02069">
        <ele>165.2053</ele>
        <time>2021-07-10T11:30:02Z</time>
      </trkpt>
      <trkpt lat="39.03524" lon="-8.01869">
        <ele>172.5633</ele>
        <time>2021-07-10T11:30:13Z</time>
      </trkpt>
      <trkpt lat="39.0361" lon="-8.01678">
        <ele>161.9811</ele>
        <time>2021-07-10T11:30:24Z</time>
      </trkpt>
      <trkpt lat="39.03722" lon="-8.01563">
        <ele>164.0275</ele>
        <time>2021-07-10T11:30:35Z</time>
      </trkpt>
      <trkpt lat="39.03811" lon="-8.01425">
        <ele>173.4406</ele>
        <time>2021-07-10T11:30:46Z</time>
      </trkpt>
      <trkpt lat="39.03861" lon="-8.0126">
        <ele>177.3749</ele>
        <time>2021-07-10T11:30:57Z</time>
      </trkpt>
      <trkpt lat="39.03851" lon="-8.0111">
        <ele>173.8271</ele>
        <time>2021-07-10T11:31:08Z</time>
      </trkpt>
      <trkpt lat="39.03791" lon="-8.00942">
        <ele>175.7967</ele>
        <time>2021-07-10T11:31:19Z</time>
      </trkpt>
      <trkpt lat="39.03782" lon="-8.00828">
        <ele>172.1985</ele>
        <time>2021-07-10T11:31:30Z</time>
      </trkpt>
      <trkpt lat="39.03764" lon="-8.00802">
        <ele>170.4376</ele>
        <time>2021-07-10T11:31:41Z</time>
      </trkpt>
      <trkpt lat="39.03751" lon="-8.00789">
        <ele>169.7695</ele>
        <time>2021-07-10T11:31:52Z</time>
      </trkpt>
      <trkpt lat="39.0369" lon="-8.00688">
        <ele>165.7816</ele>
        <time>2021-07-10T11:32:03Z</time>
      </trkpt>
      <trkpt lat="39.03637" lon="-8.00545">
        <ele>174.0494</ele>
        <time>2021-07-10T11:32:14Z</time>
      </trkpt>
      <trkpt lat="39.03559" lon="-8.00434">
        <ele>179.2246</ele>
        <time>2021-07-10T11:32:25Z</time>
      </trkpt>
      <trkpt lat="39.0345" lon="-8.00364">
        <ele>180.3377</ele>
        <time>2021-07-10T11:32:36Z</time>
      </trkpt>
      <trkpt lat="39.03389" lon="-8.00243">
        <ele>178.506</ele>
        <time>2021-07-10T11:32:47Z</time>
      </trkpt>
      <trkpt lat="39.03349" lon="-8.00068">
        <ele>181.0199</ele>
        <time>2021-07-10T11:32:58Z</time>
      </trkpt>
      <trkpt lat="39.03287" lon="-7.99873">
        <ele>169.1216</ele>
        <time>2021-07-10T11:33:09Z</time>
      </trkpt>
      <trkpt lat="39.03197" lon="-7.99736">
        <ele>155.9373</ele>
        <time>2021-07-10T11:33:20Z</time>
      </trkpt>
      <trkpt lat="39.03089" lon="-7.99614">
        <ele>163.7974</ele>
        <time>2021-07-10T11:33:31Z</time>
      </trkpt>
      <trkpt lat="39.02973" lon="-7.99486">
        <ele>167.3938</ele>
        <time>2021-07-10T11:33:42Z</time>
      </trkpt>
      <trkpt lat="39.02865" lon="-7.99357">
        <ele>167.2991</ele>
        <time>2021-07-10T11:33:53Z</time>
      </trkpt>
      <trkpt lat="39.02724" lon="-7.99311">
        <ele>167.8588</ele>
        <time>2021-07-10T11:34:04Z</time>
      </trkpt>
      <trkpt lat="39.02605" lon="-7.99211">
        <ele>176.2354</ele>
        <time>2021-07-10T11:34:15Z</time>
      </trkpt>
      <trkpt lat="39.0253" lon="-7.99095">
        <ele>185.9106</ele>
        <time>2021-07-10T11:34:26Z</time>
      </trkpt>
      <trkpt lat="39.02508" lon="-7.98911">
        <ele>187.4813</ele>
        <time>2021-07-10T11:34:37Z</time>
      </trkpt>
      <trkpt lat="39.02476" lon="-7.98742">
        <ele>184.179</ele>
        <time>2021-07-10T11:34:48Z</time>
      </trkpt>
      <trkpt lat="39.02503" lon="-7.98583">
        <ele>179.3819</ele>
        <time>2021-07-10T11:34:59Z</time>
      </trkpt>
      <trkpt lat="39.0249" lon="-7.98421">
        <ele>173.2203</ele>
        <time>2021-07-10T11:35:10Z</time>
      </trkpt>
      <trkpt lat="39.02411" lon="-7.98236">
        <ele>160.8116</ele>
        <time>2021-07-10T11:35:21Z</time>
      </trkpt>
      <trkpt lat="39.02283" lon="-7.9815">
        <ele>164.1277</ele>
        <time>2021-07-10T11:35:32Z</time>
      </trkpt>
      <trkpt lat="39.02137" lon="-7.98131">
        <ele>174.2645</ele>
        <time>2021-07-10T11:35:43Z</time>
      </trkpt>
      <trkpt lat="39.02008" lon="-7.98039">
        <ele>176.811</ele>
        <time>2021-07-10T11:35:54Z</time>
      </trkpt>
      <trkpt lat="39.01905" lon="-7.97945">
        <ele>181.8947</ele>
        <time>2021-07-10T11:36:05Z</time>
      </trkpt>
      <trkpt lat="39.01827" lon="-7.97849">
        <ele>166.1506</ele>
        <time>2021-07-10T11:36:16Z</time>
      </trkpt>
      <trkpt lat="39.01738" lon="-7.97773">
        <ele>164.1002</ele>
        <time>2021-07-10T11:36:27Z</time>
      </trkpt>
      <trkpt lat="39.01696" lon="-7.97686">
        <ele>130.4274</ele>
        <time>2021-07-10T11:36:38Z</time>
      </trkpt>
      <trkpt lat="39.01643" lon="-7.97577">
        <ele>131.4185</ele>
        <time>2021-07-10T11:36:49Z</time>
      </trkpt>
      <trkpt lat="39.01622" lon="-7.97474">
        <ele>124.2818</ele>
        <time>2021-07-10T11:37:00Z</time>
      </trkpt>
      <trkpt lat="39.01598" lon="-7.97408">
        <ele>112.9727</ele>
        <time>2021-07-10T11:37:11Z</time>
      </trkpt>
      <trkpt lat="39.01541" lon="-7.97319">
        <ele>125.5268</ele>
        <time>2021-07-10T11:37:22Z</time>
      </trkpt>
      <trkpt lat="39.01486" lon="-7.97326">
        <ele>147.0911</ele>
        <time>2021-07-10T11:37:33Z</time>
      </trkpt>
      <trkpt lat="39.0154" lon="-7.97452">
        <ele>167.7707</ele>
        <time>2021-07-10T11:37:44Z</time>
      </trkpt>
      <trkpt lat="39.01582" lon="-7.9753">
        <ele>166.3202</ele>
        <time>2021-07-10T11:37:55Z</time>
      </trkpt>
      <trkpt lat="39.01519" lon="-7.9758">
        <ele>150.8864</ele>
        <time>2021-07-10T11:38:06Z</time>
      </trkpt>
      <trkpt lat="39.01446" lon="-7.97633">
        <ele>128.6335</ele>
        <time>2021-07-10T11:38:17Z</time>
      </trkpt>
      <trkpt lat="39.01449" lon="-7.97734">
        <ele>128.125</ele>
        <time>2021-07-10T11:38:28Z</time>
      </trkpt>
      <trkpt lat="39.01344" lon="-7.97787">
        <ele>152.5809</ele>
        <time>2021-07-10T11:38:39Z</time>
      </trkpt>
      <trkpt lat="39.01256" lon="-7.97688">
        <ele>175.5232</ele>
        <time>2021-07-10T11:38:50Z</time>
      </trkpt>
      <trkpt lat="39.01149" lon="-7.97605">
        <ele>178.3159</ele>
        <time>2021-07-10T11:39:01Z</time>
      </trkpt>
      <trkpt lat="39.0104" lon="-7.97494">
        <ele>180.898</ele>
        <time>2021-07-10T11:39:12Z</time>
      </trkpt>
      <trkpt lat="39.01011" lon="-7.97481">
        <ele>181.0088</ele>
        <time>2021-07-10T11:39:23Z</time>
      </trkpt>
      <trkpt lat="39.0099" lon="-7.97399">
        <ele>179.7786</ele>
        <time>2021-07-10T11:39:34Z</time>
      </trkpt>
      <trkpt lat="39.0097" lon="-7.97416">
        <ele>178.1803</ele>
        <time>2021-07-10T11:39:45Z</time>
      </trkpt>
      <trkpt lat="39.00964" lon="-7.97586">
        <ele>172.6186</ele>
        <time>2021-07-10T11:39:56Z</time>
      </trkpt>
      <trkpt lat="39.01021" lon="-7.97782">
        <ele>160.7396</ele>
        <time>2021-07-10T11:40:07Z</time>
      </trkpt>
      <trkpt lat="39.00993" lon="-7.98001">
        <ele>146.3645</ele>
        <time>2021-07-10T11:40:18Z</time>
      </trkpt>
      <trkpt lat="39.0089" lon="-7.98195">
        <ele>131.2227</ele>
        <time>2021-07-10T11:40:29Z</time>
      </trkpt>
      <trkpt lat="39.00832" lon="-7.98405">
        <ele>118.6622</ele>
        <time>2021-07-10T11:40:40Z</time>
      </trkpt>
      <trkpt lat="39.00812" lon="-7.98641">
        <ele>100.7582</ele>
        <time>2021-07-10T11:40:51Z</time>
      </trkpt>
      <trkpt lat="39.0082" lon="-7.98936">
        <ele>91.53151</ele>
        <time>2021-07-10T11:41:02Z</time>
      </trkpt>
      <trkpt lat="39.00756" lon="-7.99192">
        <ele>99.91436</ele>
        <time>2021-07-10T11:41:13Z</time>
      </trkpt>
      <trkpt lat="39.00576" lon="-7.9936">
        <ele>101.1078</ele>
        <time>2021-07-10T11:41:24Z</time>
      </trkpt>
      <trkpt lat="39.0041" lon="-7.99577">
        <ele>100.2967</ele>
        <time>2021-07-10T11:41:35Z</time>
      </trkpt>
      <trkpt lat="39.00297" lon="-7.99682">
        <ele>103.4686</ele>
        <time>2021-07-10T11:41:46Z</time>
      </trkpt>
      <trkpt lat="39.00182" lon="-7.99779">
        <ele>99.50685</ele>
        <time>2021-07-10T11:41:57Z</time>
      </trkpt>
      <trkpt lat="39.00123" lon="-7.99928">
        <ele>96.16825</ele>
        <time>2021-07-10T11:42:08Z</time>
      </trkpt>
      <trkpt lat="39.00031" lon="-8.0016">
        <ele>94.29026</ele>
        <time>2021-07-10T11:42:19Z</time>
      </trkpt>
      <trkpt lat="38.99956" lon="-8.00355">
        <ele>94.12164</ele>
        <time>2021-07-10T11:42:30Z</time>
      </trkpt>
      <trkpt lat="38.99882" lon="-8.0046">
        <ele>94.36454</ele>
        <time>2021-07-10T11:42:41Z</time>
      </trkpt>
      <trkpt lat="38.99772" lon="-8.00504">
        <ele>91.34095</ele>
        <time>2021-07-10T11:42:52Z</time>
      </trkpt>
      <trkpt lat="38.99715" lon="-8.00545">
        <ele>89.194</ele>
        <time>2021-07-10T11:43:03Z</time>
      </trkpt>
      <trkpt lat="38.99705" lon="-8.00589">
        <ele>87.68689</ele>
        <time>2021-07-10T11:43:14Z</time>
      </trkpt>
      <trkpt lat="38.99706" lon="-8.00534">
        <ele>87.80487</ele>
        <time>2021-07-10T11:43:25Z</time>
      </trkpt>
      <trkpt lat="38.99664" lon="-8.00524">
        <ele>90.46282</ele>
        <time>2021-07-10T11:43:36Z</time>
      </trkpt>
      <trkpt lat="38.99646" lon="-8.00513">
        <ele>90.80957</ele>
        <time>2021-07-10T11:43:47Z</time>
      </trkpt>
      <trkpt lat="38.99673" lon="-8.00526">
        <ele>89.26576</ele>
        <time>2021-07-10T11:43:58Z</time>
      </trkpt>
      <trkpt lat="38.99704" lon="-8.00532">
        <ele>88.4733</ele>
        <time>2021-07-10T11:44:09Z</time>
      </trkpt>
      <trkpt lat="38.99704" lon="-8.00533">
        <ele>88.23481</ele>
        <time>2021-07-10T11:45:09Z</time>
      </trkpt>
      <trkpt lat="38.99704" lon="-8.0054">
        <ele>89.79403</ele>
        <time>2021-07-10T11:45:51Z</time>
      </trkpt>
      <trkpt lat="38.9973" lon="-8.0052">
        <ele>90.93965</ele>
        <time>2021-07-10T11:46:02Z</time>
      </trkpt>
      <trkpt lat="38.99672" lon="-8.0047">
        <ele>92.04435</ele>
        <time>2021-07-10T11:46:13Z</time>
      </trkpt>
      <trkpt lat="38.99558" lon="-8.00451">
        <ele>85.55643</ele>
        <time>2021-07-10T11:46:24Z</time>
      </trkpt>
      <trkpt lat="38.9939" lon="-8.00501">
        <ele>94.60702</ele>
        <time>2021-07-10T11:46:35Z</time>
      </trkpt>
      <trkpt lat="38.99253" lon="-8.00569">
        <ele>94.68012</ele>
        <time>2021-07-10T11:46:46Z</time>
      </trkpt>
      <trkpt lat="38.99102" lon="-8.00548">
        <ele>95.27317</ele>
        <time>2021-07-10T11:46:57Z</time>
      </trkpt>
      <trkpt lat="38.9893" lon="-8.0051">
        <ele>95.05886</ele>
        <time>2021-07-10T11:47:08Z</time>
      </trkpt>
      <trkpt lat="38.98852" lon="-8.00488">
        <ele>94.28163</ele>
        <time>2021-07-10T11:47:19Z</time>
      </trkpt>
      <trkpt lat="38.98849" lon="-8.00487">
        <ele>93.83306</ele>
        <time>2021-07-10T11:47:30Z</time>
      </trkpt>
      <trkpt lat="38.98838" lon="-8.00486">
        <ele>93.4997</ele>
        <time>2021-07-10T11:48:04Z</time>
      </trkpt>
      <trkpt lat="38.98738" lon="-8.00452">
        <ele>93.32764</ele>
        <time>2021-07-10T11:48:15Z</time>
      </trkpt>
      <trkpt lat="38.98598" lon="-8.00414">
        <ele>92.2176</ele>
        <time>2021-07-10T11:48:26Z</time>
      </trkpt>
      <trkpt lat="38.98455" lon="-8.00371">
        <ele>91.86513</ele>
        <time>2021-07-10T11:48:37Z</time>
      </trkpt>
      <trkpt lat="38.9832" lon="-8.00313">
        <ele>92.47821</ele>
        <time>2021-07-10T11:48:48Z</time>
      </trkpt>
      <trkpt lat="38.98208" lon="-8.00247">
        <ele>88.74209</ele>
        <time>2021-07-10T11:48:59Z</time>
      </trkpt>
      <trkpt lat="38.98083" lon="-8.00204">
        <ele>89.49352</ele>
        <time>2021-07-10T11:49:10Z</time>
      </trkpt>
      <trkpt lat="38.97971" lon="-8.00116">
        <ele>86.87166</ele>
        <time>2021-07-10T11:49:21Z</time>
      </trkpt>
      <trkpt lat="38.97873" lon="-8.00037">
        <ele>87.97566</ele>
        <time>2021-07-10T11:49:32Z</time>
      </trkpt>
      <trkpt lat="38.97747" lon="-7.99965">
        <ele>90.15953</ele>
        <time>2021-07-10T11:49:43Z</time>
      </trkpt>
      <trkpt lat="38.97645" lon="-7.99864">
        <ele>92.24226</ele>
        <time>2021-07-10T11:49:54Z</time>
      </trkpt>
      <trkpt lat="38.97507" lon="-7.99809">
        <ele>92.2161</ele>
        <time>2021-07-10T11:50:05Z</time>
      </trkpt>
      <trkpt lat="38.97344" lon="-7.99772">
        <ele>92.88649</ele>
        <time>2021-07-10T11:50:16Z</time>
      </trkpt>
      <trkpt lat="38.97183" lon="-7.99739">
        <ele>91.07033</ele>
        <time>2021-07-10T11:50:27Z</time>
      </trkpt>
      <trkpt lat="38.97012" lon="-7.99701">
        <ele>89.45235</ele>
        <time>2021-07-10T11:50:38Z</time>
      </trkpt>
      <trkpt lat="38.96839" lon="-7.99664">
        <ele>91.254</ele>
        <time>2021-07-10T11:50:49Z</time>
      </trkpt>
      <trkpt lat="38.96715" lon="-7.99674">
        <ele>90.538</ele>
        <time>2021-07-10T11:51:00Z</time>
      </trkpt>
      <trkpt lat="38.96614" lon="-7.99693">
        <ele>91.68171</ele>
        <time>2021-07-10T11:51:11Z</time>
      </trkpt>
      <trkpt lat="38.96538" lon="-7.99535">
        <ele>91.19035</ele>
        <time>2021-07-10T11:51:22Z</time>
      </trkpt>
      <trkpt lat="38.96455" lon="-7.99517">
        <ele>96.92317</ele>
        <time>2021-07-10T11:51:33Z</time>
      </trkpt>
      <trkpt lat="38.96342" lon="-7.99529">
        <ele>100.896</ele>
        <time>2021-07-10T11:51:44Z</time>
      </trkpt>
      <trkpt lat="38.96296" lon="-7.99526">
        <ele>101.923</ele>
        <time>2021-07-10T11:51:55Z</time>
      </trkpt>
      <trkpt lat="38.96184" lon="-7.99678">
        <ele>102.1111</ele>
        <time>2021-07-10T11:52:06Z</time>
      </trkpt>
      <trkpt lat="38.96025" lon="-7.99892">
        <ele>102.4286</ele>
        <time>2021-07-10T11:52:17Z</time>
      </trkpt>
      <trkpt lat="38.9588" lon="-8.00086">
        <ele>101.0757</ele>
        <time>2021-07-10T11:52:28Z</time>
      </trkpt>
      <trkpt lat="38.95731" lon="-8.00268">
        <ele>96.71293</ele>
        <time>2021-07-10T11:52:39Z</time>
      </trkpt>
      <trkpt lat="38.95563" lon="-8.00379">
        <ele>100.7205</ele>
        <time>2021-07-10T11:52:50Z</time>
      </trkpt>
      <trkpt lat="38.95382" lon="-8.00498">
        <ele>107.8432</ele>
        <time>2021-07-10T11:53:01Z</time>
      </trkpt>
      <trkpt lat="38.95245" lon="-8.0059">
        <ele>102.1038</ele>
        <time>2021-07-10T11:53:12Z</time>
      </trkpt>
      <trkpt lat="38.95241" lon="-8.00593">
        <ele>102.4256</ele>
        <time>2021-07-10T11:53:23Z</time>
      </trkpt>
      <trkpt lat="38.95166" lon="-8.0065">
        <ele>104.207</ele>
        <time>2021-07-10T11:53:34Z</time>
      </trkpt>
      <trkpt lat="38.95005" lon="-8.00763">
        <ele>107.6255</ele>
        <time>2021-07-10T11:53:45Z</time>
      </trkpt>
      <trkpt lat="38.94899" lon="-8.00889">
        <ele>104.4869</ele>
        <time>2021-07-10T11:53:56Z</time>
      </trkpt>
      <trkpt lat="38.94868" lon="-8.01087">
        <ele>100.8352</ele>
        <time>2021-07-10T11:54:07Z</time>
      </trkpt>
      <trkpt lat="38.94819" lon="-8.01394">
        <ele>95.41297</ele>
        <time>2021-07-10T11:54:18Z</time>
      </trkpt>
      <trkpt lat="38.94739" lon="-8.01697">
        <ele>86.97742</ele>
        <time>2021-07-10T11:54:29Z</time>
      </trkpt>
      <trkpt lat="38.94664" lon="-8.01975">
        <ele>83.69189</ele>
        <time>2021-07-10T11:54:40Z</time>
      </trkpt>
      <trkpt lat="38.94663" lon="-8.02204">
        <ele>81.13246</ele>
        <time>2021-07-10T11:54:51Z</time>
      </trkpt>
      <trkpt lat="38.94682" lon="-8.02332">
        <ele>80.00319</ele>
        <time>2021-07-10T11:55:02Z</time>
      </trkpt>
      <trkpt lat="38.94702" lon="-8.02459">
        <ele>87.89282</ele>
        <time>2021-07-10T11:55:13Z</time>
      </trkpt>
      <trkpt lat="38.94584" lon="-8.02592">
        <ele>93.84065</ele>
        <time>2021-07-10T11:55:24Z</time>
      </trkpt>
      <trkpt lat="38.94413" lon="-8.02676">
        <ele>99.41362</ele>
        <time>2021-07-10T11:55:35Z</time>
      </trkpt>
      <trkpt lat="38.94295" lon="-8.02854">
        <ele>91.36805</ele>
        <time>2021-07-10T11:55:46Z</time>
      </trkpt>
      <trkpt lat="38.94216" lon="-8.0311">
        <ele>94.30852</ele>
        <time>2021-07-10T11:55:57Z</time>
      </trkpt>
      <trkpt lat="38.9426" lon="-8.03402">
        <ele>91.4119</ele>
        <time>2021-07-10T11:56:08Z</time>
      </trkpt>
      <trkpt lat="38.94313" lon="-8.0371">
        <ele>96.25673</ele>
        <time>2021-07-10T11:56:19Z</time>
      </trkpt>
      <trkpt lat="38.94371" lon="-8.04044">
        <ele>100.0508</ele>
        <time>2021-07-10T11:56:30Z</time>
      </trkpt>
      <trkpt lat="38.94413" lon="-8.04276">
        <ele>92.75456</ele>
        <time>2021-07-10T11:56:41Z</time>
      </trkpt>
      <trkpt lat="38.94559" lon="-8.04426">
        <ele>75.3359</ele>
        <time>2021-07-10T11:56:52Z</time>
      </trkpt>
      <trkpt lat="38.94647" lon="-8.04654">
        <ele>71.77671</ele>
        <time>2021-07-10T11:57:03Z</time>
      </trkpt>
      <trkpt lat="38.94738" lon="-8.04944">
        <ele>86.43416</ele>
        <time>2021-07-10T11:57:14Z</time>
      </trkpt>
      <trkpt lat="38.94835" lon="-8.05202">
        <ele>89.74611</ele>
        <time>2021-07-10T11:57:25Z</time>
      </trkpt>
      <trkpt lat="38.94892" lon="-8.0543">
        <ele>87.66692</ele>
        <time>2021-07-10T11:57:36Z</time>
      </trkpt>
      <trkpt lat="38.94848" lon="-8.05668">
        <ele>91.07042</ele>
        <time>2021-07-10T11:57:47Z</time>
      </trkpt>
      <trkpt lat="38.94885" lon="-8.05985">
        <ele>87.87162</ele>
        <time>2021-07-10T11:57:58Z</time>
      </trkpt>
      <trkpt lat="38.94866" lon="-8.06276">
        <ele>86.41266</ele>
        <time>2021-07-10T11:58:09Z</time>
      </trkpt>
      <trkpt lat="38.94819" lon="-8.06548">
        <ele>81.90789</ele>
        <time>2021-07-10T11:58:20Z</time>
      </trkpt>
      <trkpt lat="38.94735" lon="-8.06727">
        <ele>79.78842</ele>
        <time>2021-07-10T11:58:31Z</time>
      </trkpt>
      <trkpt lat="38.94721" lon="-8.06757">
        <ele>83.93887</ele>
        <time>2021-07-10T11:58:42Z</time>
      </trkpt>
      <trkpt lat="38.94719" lon="-8.06762">
        <ele>88.36419</ele>
        <time>2021-07-10T11:58:57Z</time>
      </trkpt>
      <trkpt lat="38.94799" lon="-8.06876">
        <ele>88.96603</ele>
        <time>2021-07-10T11:59:08Z</time>
      </trkpt>
      <trkpt lat="38.94955" lon="-8.06977">
        <ele>88.88124</ele>
        <time>2021-07-10T11:59:19Z</time>
      </trkpt>
      <trkpt lat="38.95098" lon="-8.07073">
        <ele>94.78866</ele>
        <time>2021-07-10T11:59:30Z</time>
      </trkpt>
      <trkpt lat="38.95125" lon="-8.07199">
        <ele>104.0965</ele>
        <time>2021-07-10T11:59:41Z</time>
      </trkpt>
      <trkpt lat="38.95159" lon="-8.07268">
        <ele>105.6012</ele>
        <time>2021-07-10T11:59:52Z</time>
      </trkpt>
      <trkpt lat="38.95174" lon="-8.07274">
        <ele>106.1997</ele>
        <time>2021-07-10T12:00:03Z</time>
      </trkpt>
      <trkpt lat="38.95207" lon="-8.07273">
        <ele>106.564</ele>
        <time>2021-07-10T12:00:14Z</time>
      </trkpt>
      <trkpt lat="38.95237" lon="-8.07313">
        <ele>109.4987</ele>
        <time>2021-07-10T12:00:25Z</time>
      </trkpt>
      <trkpt lat="38.9528" lon="-8.07412">
        <ele>99.74867</ele>
        <time>2021-07-10T12:00:36Z</time>
      </trkpt>
      <trkpt lat="38.95284" lon="-8.07435">
        <ele>103.6624</ele>
        <time>2021-07-10T12:00:47Z</time>
      </trkpt>
      <trkpt lat="38.95275" lon="-8.07425">
        <ele>108.7919</ele>
        <time>2021-07-10T12:00:58Z</time>
      </trkpt>
      <trkpt lat="38.95279" lon="-8.07425">
        <ele>115.8313</ele>
        <time>2021-07-10T12:01:44Z</time>
      </trkpt>
      <trkpt lat="38.95284" lon="-8.07432">
        <ele>115.3393</ele>
        <time>2021-07-10T12:01:55Z</time>
      </trkpt>
      <trkpt lat="38.95286" lon="-8.07435">
        <ele>121.3472</ele>
        <time>2021-07-10T12:02:26Z</time>
      </trkpt>
      <trkpt lat="38.95281" lon="-8.07433">
        <ele>122.3535</ele>
        <time>2021-07-10T12:02:40Z</time>
      </trkpt>
      <trkpt lat="38.95284" lon="-8.07431">
        <ele>125.4162</ele>
        <time>2021-07-10T12:03:04Z</time>
      </trkpt>
      <trkpt lat="38.95288" lon="-8.07431">
        <ele>125.605</ele>
        <time>2021-07-10T12:03:44Z</time>
      </trkpt>
      <trkpt lat="38.95291" lon="-8.07431">
        <ele>124.7793</ele>
        <time>2021-07-10T12:03:56Z</time>
      </trkpt>
      <trkpt lat="38.95288" lon="-8.07432">
        <ele>120.389</ele>
        <time>2021-07-10T12:04:32Z</time>
      </trkpt>
      <trkpt lat="38.95284" lon="-8.07434">
        <ele>120.6999</ele>
        <time>2021-07-10T12:05:11Z</time>
      </trkpt>
      <trkpt lat="38.95282" lon="-8.07431">
        <ele>114.0951</ele>
        <time>2021-07-10T12:05:29Z</time>
      </trkpt>
      <trkpt lat="38.95285" lon="-8.07429">
        <ele>115.562</ele>
        <time>2021-07-10T12:06:06Z</time>
      </trkpt>
      <trkpt lat="38.95281" lon="-8.07427">
        <ele>119.5748</ele>
        <time>2021-07-10T12:06:28Z</time>
      </trkpt>
      <trkpt lat="38.95285" lon="-8.07426">
        <ele>118.99</ele>
        <time>2021-07-10T12:06:40Z</time>
      </trkpt>
      <trkpt lat="38.95284" lon="-8.0743">
        <ele>118.8052</ele>
        <time>2021-07-10T12:07:32Z</time>
      </trkpt>
      <trkpt lat="38.95283" lon="-8.07426">
        <ele>115.2953</ele>
        <time>2021-07-10T12:08:29Z</time>
      </trkpt>
      <trkpt lat="38.95282" lon="-8.07427">
        <ele>110.8732</ele>
        <time>2021-07-10T12:09:29Z</time>
      </trkpt>
      <trkpt lat="38.95285" lon="-8.0743">
        <ele>115.7211</ele>
        <time>2021-07-10T12:10:11Z</time>
      </trkpt>
      <trkpt lat="38.95283" lon="-8.07426">
        <ele>114.2486</ele>
        <time>2021-07-10T12:10:28Z</time>
      </trkpt>
      <trkpt lat="38.9528" lon="-8.07422">
        <ele>109.5807</ele>
        <time>2021-07-10T12:10:48Z</time>
      </trkpt>
      <trkpt lat="38.95276" lon="-8.07419">
        <ele>109.5358</ele>
        <time>2021-07-10T12:11:05Z</time>
      </trkpt>
      <trkpt lat="38.95271" lon="-8.07417">
        <ele>103.2362</ele>
        <time>2021-07-10T12:11:26Z</time>
      </trkpt>
      <trkpt lat="38.95237" lon="-8.07365">
        <ele>107.2624</ele>
        <time>2021-07-10T12:11:37Z</time>
      </trkpt>
      <trkpt lat="38.95211" lon="-8.07313">
        <ele>108.1525</ele>
        <time>2021-07-10T12:11:48Z</time>
      </trkpt>
      <trkpt lat="38.95195" lon="-8.07243">
        <ele>107.2865</ele>
        <time>2021-07-10T12:11:59Z</time>
      </trkpt>
      <trkpt lat="38.95171" lon="-8.07165">
        <ele>107.3321</ele>
        <time>2021-07-10T12:12:10Z</time>
      </trkpt>
      <trkpt lat="38.95162" lon="-8.07132">
        <ele>105.2569</ele>
        <time>2021-07-10T12:12:21Z</time>
      </trkpt>
      <trkpt lat="38.95158" lon="-8.07129">
        <ele>105.7054</ele>
        <time>2021-07-10T12:12:44Z</time>
      </trkpt>
      <trkpt lat="38.95155" lon="-8.07178">
        <ele>104.6624</ele>
        <time>2021-07-10T12:12:55Z</time>
      </trkpt>
      <trkpt lat="38.95158" lon="-8.07245">
        <ele>104.7128</ele>
        <time>2021-07-10T12:13:06Z</time>
      </trkpt>
      <trkpt lat="38.95176" lon="-8.07273">
        <ele>108.7769</ele>
        <time>2021-07-10T12:13:17Z</time>
      </trkpt>
      <trkpt lat="38.95212" lon="-8.07276">
        <ele>105.7562</ele>
        <time>2021-07-10T12:13:28Z</time>
      </trkpt>
      <trkpt lat="38.95251" lon="-8.07335">
        <ele>103.5438</ele>
        <time>2021-07-10T12:13:39Z</time>
      </trkpt>
      <trkpt lat="38.95283" lon="-8.07415">
        <ele>99.04358</ele>
        <time>2021-07-10T12:13:50Z</time>
      </trkpt>
      <trkpt lat="38.95328" lon="-8.07452">
        <ele>100.0406</ele>
        <time>2021-07-10T12:14:01Z</time>
      </trkpt>
      <trkpt lat="38.95429" lon="-8.07487">
        <ele>106.0676</ele>
        <time>2021-07-10T12:14:12Z</time>
      </trkpt>
      <trkpt lat="38.95471" lon="-8.07502">
        <ele>111.6393</ele>
        <time>2021-07-10T12:14:23Z</time>
      </trkpt>
      <trkpt lat="38.95482" lon="-8.07482">
        <ele>111.843</ele>
        <time>2021-07-10T12:14:34Z</time>
      </trkpt>
      <trkpt lat="38.95483" lon="-8.07484">
        <ele>110.5453</ele>
        <time>2021-07-10T12:15:34Z</time>
      </trkpt>
      <trkpt lat="38.95485" lon="-8.07481">
        <ele>110.7773</ele>
        <time>2021-07-10T12:16:34Z</time>
      </trkpt>
      <trkpt lat="38.95488" lon="-8.07477">
        <ele>111.3696</ele>
        <time>2021-07-10T12:16:53Z</time>
      </trkpt>
      <trkpt lat="38.95532" lon="-8.07389">
        <ele>106.2599</ele>
        <time>2021-07-10T12:17:04Z</time>
      </trkpt>
      <trkpt lat="38.95502" lon="-8.07337">
        <ele>101.5783</ele>
        <time>2021-07-10T12:17:15Z</time>
      </trkpt>
      <trkpt lat="38.95487" lon="-8.0733">
        <ele>101.5068</ele>
        <time>2021-07-10T12:17:26Z</time>
      </trkpt>
      <trkpt lat="38.95451" lon="-8.07312">
        <ele>101.0547</ele>
        <time>2021-07-10T12:17:37Z</time>
      </trkpt>
      <trkpt lat="38.95344" lon="-8.0731">
        <ele>102.4406</ele>
        <time>2021-07-10T12:17:48Z</time>
      </trkpt>
      <trkpt lat="38.95252" lon="-8.073">
        <ele>105.5653</ele>
        <time>2021-07-10T12:17:59Z</time>
      </trkpt>
      <trkpt lat="38.95244" lon="-8.07301">
        <ele>104.9009</ele>
        <time>2021-07-10T12:18:10Z</time>
      </trkpt>
      <trkpt lat="38.95243" lon="-8.07296">
        <ele>105.286</ele>
        <time>2021-07-10T12:18:24Z</time>
      </trkpt>
      <trkpt lat="38.95211" lon="-8.07265">
        <ele>105.2682</ele>
        <time>2021-07-10T12:18:35Z</time>
      </trkpt>
      <trkpt lat="38.95174" lon="-8.0727">
        <ele>106.7031</ele>
        <time>2021-07-10T12:18:46Z</time>
      </trkpt>
      <trkpt lat="38.95147" lon="-8.07335">
        <ele>104.3252</ele>
        <time>2021-07-10T12:18:57Z</time>
      </trkpt>
      <trkpt lat="38.95085" lon="-8.07356">
        <ele>94.94032</ele>
        <time>2021-07-10T12:19:08Z</time>
      </trkpt>
      <trkpt lat="38.94964" lon="-8.07426">
        <ele>85.23998</ele>
        <time>2021-07-10T12:19:19Z</time>
      </trkpt>
      <trkpt lat="38.94855" lon="-8.07494">
        <ele>82.1932</ele>
        <time>2021-07-10T12:19:30Z</time>
      </trkpt>
      <trkpt lat="38.94716" lon="-8.07587">
        <ele>80.57014</ele>
        <time>2021-07-10T12:19:41Z</time>
      </trkpt>
      <trkpt lat="38.94569" lon="-8.07645">
        <ele>78.23529</ele>
        <time>2021-07-10T12:19:52Z</time>
      </trkpt>
      <trkpt lat="38.94485" lon="-8.07688">
        <ele>76.74753</ele>
        <time>2021-07-10T12:20:03Z</time>
      </trkpt>
      <trkpt lat="38.9448" lon="-8.07692">
        <ele>76.53808</ele>
        <time>2021-07-10T12:20:14Z</time>
      </trkpt>
      <trkpt lat="38.94499" lon="-8.07793">
        <ele>77.00239</ele>
        <time>2021-07-10T12:20:25Z</time>
      </trkpt>
      <trkpt lat="38.94535" lon="-8.07949">
        <ele>73.18102</ele>
        <time>2021-07-10T12:20:36Z</time>
      </trkpt>
      <trkpt lat="38.94547" lon="-8.08078">
        <ele>70.56731</ele>
        <time>2021-07-10T12:20:47Z</time>
      </trkpt>
      <trkpt lat="38.94505" lon="-8.08178">
        <ele>68.79451</ele>
        <time>2021-07-10T12:20:58Z</time>
      </trkpt>
      <trkpt lat="38.94384" lon="-8.08163">
        <ele>66.5209</ele>
        <time>2021-07-10T12:21:09Z</time>
      </trkpt>
      <trkpt lat="38.94271" lon="-8.08182">
        <ele>64.27395</ele>
        <time>2021-07-10T12:21:20Z</time>
      </trkpt>
      <trkpt lat="38.94289" lon="-8.08286">
        <ele>63.58496</ele>
        <time>2021-07-10T12:21:31Z</time>
      </trkpt>
      <trkpt lat="38.94321" lon="-8.08371">
        <ele>63.248</ele>
        <time>2021-07-10T12:21:42Z</time>
      </trkpt>
      <trkpt lat="38.94352" lon="-8.08487">
        <ele>62.79</ele>
        <time>2021-07-10T12:21:53Z</time>
      </trkpt>
      <trkpt lat="38.94401" lon="-8.0864">
        <ele>64.33738</ele>
        <time>2021-07-10T12:22:04Z</time>
      </trkpt>
      <trkpt lat="38.94463" lon="-8.08655">
        <ele>68.93123</ele>
        <time>2021-07-10T12:22:15Z</time>
      </trkpt>
      <trkpt lat="38.94511" lon="-8.08649">
        <ele>68.44685</ele>
        <time>2021-07-10T12:22:26Z</time>
      </trkpt>
      <trkpt lat="38.94507" lon="-8.08647">
        <ele>69.96255</ele>
        <time>2021-07-10T12:22:37Z</time>
      </trkpt>
      <trkpt lat="38.94462" lon="-8.08716">
        <ele>72.13622</ele>
        <time>2021-07-10T12:22:48Z</time>
      </trkpt>
      <trkpt lat="38.94494" lon="-8.08851">
        <ele>85.29087</ele>
        <time>2021-07-10T12:22:59Z</time>
      </trkpt>
      <trkpt lat="38.94585" lon="-8.08878">
        <ele>87.27638</ele>
        <time>2021-07-10T12:23:10Z</time>
      </trkpt>
      <trkpt lat="38.94671" lon="-8.0888">
        <ele>89.39598</ele>
        <time>2021-07-10T12:23:21Z</time>
      </trkpt>
      <trkpt lat="38.94725" lon="-8.08896">
        <ele>95.29795</ele>
        <time>2021-07-10T12:23:32Z</time>
      </trkpt>
      <trkpt lat="38.9478" lon="-8.08982">
        <ele>107.6081</ele>
        <time>2021-07-10T12:23:43Z</time>
      </trkpt>
      <trkpt lat="38.94823" lon="-8.09077">
        <ele>114.1545</ele>
        <time>2021-07-10T12:23:54Z</time>
      </trkpt>
      <trkpt lat="38.94866" lon="-8.09191">
        <ele>117.0339</ele>
        <time>2021-07-10T12:24:05Z</time>
      </trkpt>
      <trkpt lat="38.94904" lon="-8.0932">
        <ele>126.7489</ele>
        <time>2021-07-10T12:24:16Z</time>
      </trkpt>
      <trkpt lat="38.94989" lon="-8.09417">
        <ele>131.3899</ele>
        <time>2021-07-10T12:24:27Z</time>
      </trkpt>
      <trkpt lat="38.95011" lon="-8.09546">
        <ele>130.9374</ele>
        <time>2021-07-10T12:24:38Z</time>
      </trkpt>
      <trkpt lat="38.95" lon="-8.09607">
        <ele>124.8298</ele>
        <time>2021-07-10T12:24:49Z</time>
      </trkpt>
      <trkpt lat="38.9501" lon="-8.09666">
        <ele>119.735</ele>
        <time>2021-07-10T12:25:00Z</time>
      </trkpt>
      <trkpt lat="38.95015" lon="-8.09698">
        <ele>115.5578</ele>
        <time>2021-07-10T12:25:11Z</time>
      </trkpt>
      <trkpt lat="38.95031" lon="-8.09788">
        <ele>110.4479</ele>
        <time>2021-07-10T12:25:22Z</time>
      </trkpt>
      <trkpt lat="38.95079" lon="-8.09862">
        <ele>104.4184</ele>
        <time>2021-07-10T12:25:33Z</time>
      </trkpt>
      <trkpt lat="38.9515" lon="-8.09962">
        <ele>102.2793</ele>
        <time>2021-07-10T12:25:44Z</time>
      </trkpt>
      <trkpt lat="38.95165" lon="-8.10079">
        <ele>97.39908</ele>
        <time>2021-07-10T12:25:55Z</time>
      </trkpt>
      <trkpt lat="38.95234" lon="-8.10151">
        <ele>93.54796</ele>
        <time>2021-07-10T12:26:06Z</time>
      </trkpt>
      <trkpt lat="38.95315" lon="-8.10248">
        <ele>90.53042</ele>
        <time>2021-07-10T12:26:17Z</time>
      </trkpt>
      <trkpt lat="38.95405" lon="-8.10314">
        <ele>87.68347</ele>
        <time>2021-07-10T12:26:28Z</time>
      </trkpt>
      <trkpt lat="38.95428" lon="-8.10404">
        <ele>89.96659</ele>
        <time>2021-07-10T12:26:39Z</time>
      </trkpt>
      <trkpt lat="38.95414" lon="-8.10513">
        <ele>88.3862</ele>
        <time>2021-07-10T12:26:50Z</time>
      </trkpt>
      <trkpt lat="38.95461" lon="-8.1061">
        <ele>86.88981</ele>
        <time>2021-07-10T12:27:01Z</time>
      </trkpt>
      <trkpt lat="38.95493" lon="-8.10709">
        <ele>76.68014</ele>
        <time>2021-07-10T12:27:12Z</time>
      </trkpt>
      <trkpt lat="38.95501" lon="-8.1073">
        <ele>74.44185</ele>
        <time>2021-07-10T12:27:23Z</time>
      </trkpt>
      <trkpt lat="38.95508" lon="-8.10737">
        <ele>71.77814</ele>
        <time>2021-07-10T12:27:34Z</time>
      </trkpt>
      <trkpt lat="38.95492" lon="-8.10791">
        <ele>68.92646</ele>
        <time>2021-07-10T12:27:45Z</time>
      </trkpt>
      <trkpt lat="38.95485" lon="-8.10919">
        <ele>67.21877</ele>
        <time>2021-07-10T12:27:56Z</time>
      </trkpt>
      <trkpt lat="38.95476" lon="-8.11075">
        <ele>61.4774</ele>
        <time>2021-07-10T12:28:07Z</time>
      </trkpt>
      <trkpt lat="38.95489" lon="-8.1113">
        <ele>70.27143</ele>
        <time>2021-07-10T12:28:18Z</time>
      </trkpt>
      <trkpt lat="38.95548" lon="-8.11199">
        <ele>78.49578</ele>
        <time>2021-07-10T12:28:29Z</time>
      </trkpt>
      <trkpt lat="38.95506" lon="-8.11195">
        <ele>77.9348</ele>
        <time>2021-07-10T12:28:40Z</time>
      </trkpt>
      <trkpt lat="38.95403" lon="-8.11153">
        <ele>76.93978</ele>
        <time>2021-07-10T12:28:51Z</time>
      </trkpt>
      <trkpt lat="38.95325" lon="-8.11097">
        <ele>77.25735</ele>
        <time>2021-07-10T12:29:02Z</time>
      </trkpt>
      <trkpt lat="38.95251" lon="-8.11013">
        <ele>72.87327</ele>
        <time>2021-07-10T12:29:13Z</time>
      </trkpt>
      <trkpt lat="38.95194" lon="-8.10993">
        <ele>77.38736</ele>
        <time>2021-07-10T12:29:24Z</time>
      </trkpt>
      <trkpt lat="38.95149" lon="-8.11106">
        <ele>81.67473</ele>
        <time>2021-07-10T12:29:35Z</time>
      </trkpt>
      <trkpt lat="38.95102" lon="-8.11207">
        <ele>82.88674</ele>
        <time>2021-07-10T12:29:46Z</time>
      </trkpt>
      <trkpt lat="38.9512" lon="-8.11313">
        <ele>87.19265</ele>
        <time>2021-07-10T12:29:57Z</time>
      </trkpt>
      <trkpt lat="38.95154" lon="-8.11413">
        <ele>87.8914</ele>
        <time>2021-07-10T12:30:08Z</time>
      </trkpt>
      <trkpt lat="38.95131" lon="-8.11543">
        <ele>91.48994</ele>
        <time>2021-07-10T12:30:19Z</time>
      </trkpt>
      <trkpt lat="38.95076" lon="-8.11574">
        <ele>97.75689</ele>
        <time>2021-07-10T12:30:30Z</time>
      </trkpt>
      <trkpt lat="38.95018" lon="-8.11626">
        <ele>101.1112</ele>
        <time>2021-07-10T12:30:41Z</time>
      </trkpt>
      <trkpt lat="38.94969" lon="-8.11661">
        <ele>105.1383</ele>
        <time>2021-07-10T12:30:52Z</time>
      </trkpt>
      <trkpt lat="38.9488" lon="-8.11623">
        <ele>104.7381</ele>
        <time>2021-07-10T12:31:03Z</time>
      </trkpt>
      <trkpt lat="38.94787" lon="-8.11636">
        <ele>111.1906</ele>
        <time>2021-07-10T12:31:14Z</time>
      </trkpt>
      <trkpt lat="38.94698" lon="-8.11679">
        <ele>125.1284</ele>
        <time>2021-07-10T12:31:25Z</time>
      </trkpt>
      <trkpt lat="38.94656" lon="-8.11686">
        <ele>129.3186</ele>
        <time>2021-07-10T12:31:36Z</time>
      </trkpt>
      <trkpt lat="38.94619" lon="-8.11694">
        <ele>126.8822</ele>
        <time>2021-07-10T12:31:47Z</time>
      </trkpt>
      <trkpt lat="38.94564" lon="-8.11708">
        <ele>123.6563</ele>
        <time>2021-07-10T12:31:58Z</time>
      </trkpt>
      <trkpt lat="38.9451" lon="-8.11666">
        <ele>124.2569</ele>
        <time>2021-07-10T12:32:09Z</time>
      </trkpt>
      <trkpt lat="38.94443" lon="-8.11628">
        <ele>127.8714</ele>
        <time>2021-07-10T12:32:20Z</time>
      </trkpt>
      <trkpt lat="38.94364" lon="-8.11573">
        <ele>136.9828</ele>
        <time>2021-07-10T12:32:31Z</time>
      </trkpt>
      <trkpt lat="38.94324" lon="-8.11454">
        <ele>139.4001</ele>
        <time>2021-07-10T12:32:42Z</time>
      </trkpt>
      <trkpt lat="38.94255" lon="-8.11407">
        <ele>141.9975</ele>
        <time>2021-07-10T12:32:53Z</time>
      </trkpt>
      <trkpt lat="38.9422" lon="-8.11329">
        <ele>143.9554</ele>
        <time>2021-07-10T12:33:04Z</time>
      </trkpt>
      <trkpt lat="38.94183" lon="-8.11218">
        <ele>141.665</ele>
        <time>2021-07-10T12:33:15Z</time>
      </trkpt>
      <trkpt lat="38.94131" lon="-8.11127">
        <ele>145.5315</ele>
        <time>2021-07-10T12:33:26Z</time>
      </trkpt>
      <trkpt lat="38.94102" lon="-8.11108">
        <ele>144.7114</ele>
        <time>2021-07-10T12:33:37Z</time>
      </trkpt>
      <trkpt lat="38.94077" lon="-8.11201">
        <ele>152.3714</ele>
        <time>2021-07-10T12:33:48Z</time>
      </trkpt>
      <trkpt lat="38.94037" lon="-8.11293">
        <ele>156.3355</ele>
        <time>2021-07-10T12:33:59Z</time>
      </trkpt>
      <trkpt lat="38.93984" lon="-8.11335">
        <ele>156.6667</ele>
        <time>2021-07-10T12:34:10Z</time>
      </trkpt>
      <trkpt lat="38.93977" lon="-8.11344">
        <ele>158.1659</ele>
        <time>2021-07-10T12:34:21Z</time>
      </trkpt>
      <trkpt lat="38.93935" lon="-8.11332">
        <ele>156.4697</ele>
        <time>2021-07-10T12:34:32Z</time>
      </trkpt>
      <trkpt lat="38.93888" lon="-8.1131">
        <ele>151.5145</ele>
        <time>2021-07-10T12:34:43Z</time>
      </trkpt>
      <trkpt lat="38.93838" lon="-8.11288">
        <ele>152.2718</ele>
        <time>2021-07-10T12:34:54Z</time>
      </trkpt>
      <trkpt lat="38.93774" lon="-8.11268">
        <ele>150.3398</ele>
        <time>2021-07-10T12:35:05Z</time>
      </trkpt>
      <trkpt lat="38.93705" lon="-8.11287">
        <ele>147.8877</ele>
        <time>2021-07-10T12:35:16Z</time>
      </trkpt>
      <trkpt lat="38.93636" lon="-8.11319">
        <ele>145.8833</ele>
        <time>2021-07-10T12:35:27Z</time>
      </trkpt>
      <trkpt lat="38.93578" lon="-8.11359">
        <ele>142.986</ele>
        <time>2021-07-10T12:35:38Z</time>
      </trkpt>
      <trkpt lat="38.93519" lon="-8.11437">
        <ele>143.8838</ele>
        <time>2021-07-10T12:35:49Z</time>
      </trkpt>
      <trkpt lat="38.93511" lon="-8.11545">
        <ele>142.6557</ele>
        <time>2021-07-10T12:36:00Z</time>
      </trkpt>
      <trkpt lat="38.93482" lon="-8.11644">
        <ele>136.6189</ele>
        <time>2021-07-10T12:36:11Z</time>
      </trkpt>
      <trkpt lat="38.93431" lon="-8.11742">
        <ele>136.5414</ele>
        <time>2021-07-10T12:36:22Z</time>
      </trkpt>
      <trkpt lat="38.93354" lon="-8.11804">
        <ele>141.6676</ele>
        <time>2021-07-10T12:36:33Z</time>
      </trkpt>
      <trkpt lat="38.93302" lon="-8.11907">
        <ele>141.3777</ele>
        <time>2021-07-10T12:36:44Z</time>
      </trkpt>
      <trkpt lat="38.93297" lon="-8.11954">
        <ele>141.3439</ele>
        <time>2021-07-10T12:36:55Z</time>
      </trkpt>
      <trkpt lat="38.93294" lon="-8.11957">
        <ele>141.2334</ele>
        <time>2021-07-10T12:37:09Z</time>
      </trkpt>
      <trkpt lat="38.93297" lon="-8.11957">
        <ele>140.5378</ele>
        <time>2021-07-10T12:37:56Z</time>
      </trkpt>
      <trkpt lat="38.93298" lon="-8.11956">
        <ele>140.9421</ele>
        <time>2021-07-10T12:38:55Z</time>
      </trkpt>
      <trkpt lat="38.93295" lon="-8.1196">
        <ele>141.0967</ele>
        <time>2021-07-10T12:39:31Z</time>
      </trkpt>
      <trkpt lat="38.93295" lon="-8.11971">
        <ele>141.1258</ele>
        <time>2021-07-10T12:40:13Z</time>
      </trkpt>
      <trkpt lat="38.93284" lon="-8.12009">
        <ele>140.7828</ele>
        <time>2021-07-10T12:40:24Z</time>
      </trkpt>
      <trkpt lat="38.93371" lon="-8.12172">
        <ele>143.7233</ele>
        <time>2021-07-10T12:40:35Z</time>
      </trkpt>
      <trkpt lat="38.93531" lon="-8.12404">
        <ele>140.2421</ele>
        <time>2021-07-10T12:40:46Z</time>
      </trkpt>
      <trkpt lat="38.93748" lon="-8.12536">
        <ele>131.3478</ele>
        <time>2021-07-10T12:40:57Z</time>
      </trkpt>
      <trkpt lat="38.93914" lon="-8.12786">
        <ele>117.5373</ele>
        <time>2021-07-10T12:41:08Z</time>
      </trkpt>
      <trkpt lat="38.94085" lon="-8.12936">
        <ele>102.3416</ele>
        <time>2021-07-10T12:41:19Z</time>
      </trkpt>
      <trkpt lat="38.94197" lon="-8.13145">
        <ele>95.78899</ele>
        <time>2021-07-10T12:41:30Z</time>
      </trkpt>
      <trkpt lat="38.94297" lon="-8.13359">
        <ele>109.3938</ele>
        <time>2021-07-10T12:41:41Z</time>
      </trkpt>
      <trkpt lat="38.94351" lon="-8.1359">
        <ele>121.1034</ele>
        <time>2021-07-10T12:41:52Z</time>
      </trkpt>
      <trkpt lat="38.94384" lon="-8.13843">
        <ele>110.0243</ele>
        <time>2021-07-10T12:42:03Z</time>
      </trkpt>
      <trkpt lat="38.94431" lon="-8.14074">
        <ele>103.5405</ele>
        <time>2021-07-10T12:42:14Z</time>
      </trkpt>
      <trkpt lat="38.94535" lon="-8.14229">
        <ele>98.35802</ele>
        <time>2021-07-10T12:42:25Z</time>
      </trkpt>
      <trkpt lat="38.94598" lon="-8.14282">
        <ele>96.23052</ele>
        <time>2021-07-10T12:42:36Z</time>
      </trkpt>
      <trkpt lat="38.94602" lon="-8.14358">
        <ele>94.18763</ele>
        <time>2021-07-10T12:42:47Z</time>
      </trkpt>
      <trkpt lat="38.94599" lon="-8.14505">
        <ele>91.22061</ele>
        <time>2021-07-10T12:42:58Z</time>
      </trkpt>
      <trkpt lat="38.94595" lon="-8.14663">
        <ele>86.54147</ele>
        <time>2021-07-10T12:43:09Z</time>
      </trkpt>
      <trkpt lat="38.94603" lon="-8.14739">
        <ele>87.03357</ele>
        <time>2021-07-10T12:43:20Z</time>
      </trkpt>
      <trkpt lat="38.94575" lon="-8.14852">
        <ele>83.00082</ele>
        <time>2021-07-10T12:43:31Z</time>
      </trkpt>
      <trkpt lat="38.94536" lon="-8.15022">
        <ele>78.52909</ele>
        <time>2021-07-10T12:43:42Z</time>
      </trkpt>
      <trkpt lat="38.94494" lon="-8.1519">
        <ele>88.17177</ele>
        <time>2021-07-10T12:43:53Z</time>
      </trkpt>
      <trkpt lat="38.94443" lon="-8.15355">
        <ele>89.70192</ele>
        <time>2021-07-10T12:44:04Z</time>
      </trkpt>
      <trkpt lat="38.94389" lon="-8.15508">
        <ele>90.4695</ele>
        <time>2021-07-10T12:44:15Z</time>
      </trkpt>
      <trkpt lat="38.94361" lon="-8.15643">
        <ele>95.15867</ele>
        <time>2021-07-10T12:44:26Z</time>
      </trkpt>
      <trkpt lat="38.94365" lon="-8.15706">
        <ele>95.80063</ele>
        <time>2021-07-10T12:44:37Z</time>
      </trkpt>
      <trkpt lat="38.94361" lon="-8.15778">
        <ele>97.65352</ele>
        <time>2021-07-10T12:44:48Z</time>
      </trkpt>
      <trkpt lat="38.94344" lon="-8.1576">
        <ele>98.98961</ele>
        <time>2021-07-10T12:44:59Z</time>
      </trkpt>
      <trkpt lat="38.94344" lon="-8.15751">
        <ele>98.74683</ele>
        <time>2021-07-10T12:45:10Z</time>
      </trkpt>
      <trkpt lat="38.94346" lon="-8.15747">
        <ele>98.58931</ele>
        <time>2021-07-10T12:45:28Z</time>
      </trkpt>
      <trkpt lat="38.94346" lon="-8.15747">
        <ele>98.28033</ele>
        <time>2021-07-10T12:46:28Z</time>
      </trkpt>
      <trkpt lat="38.94348" lon="-8.15748">
        <ele>98.30605</ele>
        <time>2021-07-10T12:47:28Z</time>
      </trkpt>
      <trkpt lat="38.94346" lon="-8.15747">
        <ele>98.41616</ele>
        <time>2021-07-10T12:48:28Z</time>
      </trkpt>
      <trkpt lat="38.94345" lon="-8.15743">
        <ele>98.29436</ele>
        <time>2021-07-10T12:49:27Z</time>
      </trkpt>
      <trkpt lat="38.94347" lon="-8.15685">
        <ele>96.42616</ele>
        <time>2021-07-10T12:49:38Z</time>
      </trkpt>
      <trkpt lat="38.94413" lon="-8.15707">
        <ele>91.50589</ele>
        <time>2021-07-10T12:49:49Z</time>
      </trkpt>
      <trkpt lat="38.945" lon="-8.15795">
        <ele>80.96232</ele>
        <time>2021-07-10T12:50:00Z</time>
      </trkpt>
      <trkpt lat="38.9451" lon="-8.1597">
        <ele>81.87556</ele>
        <time>2021-07-10T12:50:11Z</time>
      </trkpt>
      <trkpt lat="38.9458" lon="-8.15979">
        <ele>75.20717</ele>
        <time>2021-07-10T12:50:22Z</time>
      </trkpt>
      <trkpt lat="38.94619" lon="-8.15953">
        <ele>73.46145</ele>
        <time>2021-07-10T12:50:33Z</time>
      </trkpt>
      <trkpt lat="38.9462" lon="-8.15923">
        <ele>73.24834</ele>
        <time>2021-07-10T12:50:44Z</time>
      </trkpt>
      <trkpt lat="38.94625" lon="-8.1592">
        <ele>73.46254</ele>
        <time>2021-07-10T12:51:23Z</time>
      </trkpt>
      <trkpt lat="38.94625" lon="-8.15921">
        <ele>72.80768</ele>
        <time>2021-07-10T12:52:23Z</time>
      </trkpt>
      <trkpt lat="38.94622" lon="-8.15922">
        <ele>72.22378</ele>
        <time>2021-07-10T12:52:53Z</time>
      </trkpt>
      <trkpt lat="38.94619" lon="-8.15919">
        <ele>73.72172</ele>
        <time>2021-07-10T12:53:04Z</time>
      </trkpt>
      <trkpt lat="38.94618" lon="-8.15923">
        <ele>73.52992</ele>
        <time>2021-07-10T12:53:16Z</time>
      </trkpt>
      <trkpt lat="38.94619" lon="-8.15929">
        <ele>72.44404</ele>
        <time>2021-07-10T12:53:27Z</time>
      </trkpt>
      <trkpt lat="38.9462" lon="-8.15941">
        <ele>73.63013</ele>
        <time>2021-07-10T12:53:38Z</time>
      </trkpt>
      <trkpt lat="38.94627" lon="-8.15944">
        <ele>72.65698</ele>
        <time>2021-07-10T12:53:49Z</time>
      </trkpt>
      <trkpt lat="38.94636" lon="-8.15941">
        <ele>71.73455</ele>
        <time>2021-07-10T12:54:00Z</time>
      </trkpt>
      <trkpt lat="38.94644" lon="-8.15937">
        <ele>72.27175</ele>
        <time>2021-07-10T12:54:11Z</time>
      </trkpt>
      <trkpt lat="38.94636" lon="-8.15931">
        <ele>72.77822</ele>
        <time>2021-07-10T12:54:22Z</time>
      </trkpt>
      <trkpt lat="38.94625" lon="-8.15931">
        <ele>69.37635</ele>
        <time>2021-07-10T12:54:33Z</time>
      </trkpt>
      <trkpt lat="38.94626" lon="-8.15923">
        <ele>73.09074</ele>
        <time>2021-07-10T12:54:44Z</time>
      </trkpt>
      <trkpt lat="38.94625" lon="-8.15929">
        <ele>72.91588</ele>
        <time>2021-07-10T12:55:04Z</time>
      </trkpt>
      <trkpt lat="38.94622" lon="-8.15933">
        <ele>73.02543</ele>
        <time>2021-07-10T12:55:15Z</time>
      </trkpt>
      <trkpt lat="38.94617" lon="-8.15928">
        <ele>73.22261</ele>
        <time>2021-07-10T12:55:26Z</time>
      </trkpt>
      <trkpt lat="38.94627" lon="-8.15922">
        <ele>74.1445</ele>
        <time>2021-07-10T12:55:37Z</time>
      </trkpt>
      <trkpt lat="38.9463" lon="-8.15926">
        <ele>73.29953</ele>
        <time>2021-07-10T12:55:57Z</time>
      </trkpt>
      <trkpt lat="38.94621" lon="-8.15934">
        <ele>72.85782</ele>
        <time>2021-07-10T12:56:08Z</time>
      </trkpt>
      <trkpt lat="38.94619" lon="-8.15942">
        <ele>99.08894</ele>
        <time>2021-07-10T12:56:33Z</time>
      </trkpt>
      <trkpt lat="38.9462" lon="-8.15941">
        <ele>99.08894</ele>
        <time>2021-07-10T12:57:32Z</time>
      </trkpt>
      <trkpt lat="38.94604" lon="-8.15944">
        <ele>76.13962</ele>
        <time>2021-07-10T12:57:44Z</time>
      </trkpt>
      <trkpt lat="38.9461" lon="-8.15938">
        <ele>72.81581</ele>
        <time>2021-07-10T12:57:55Z</time>
      </trkpt>
      <trkpt lat="38.94612" lon="-8.15943">
        <ele>70.6808</ele>
        <time>2021-07-10T12:58:06Z</time>
      </trkpt>
      <trkpt lat="38.94567" lon="-8.15928">
        <ele>79.14468</ele>
        <time>2021-07-10T12:58:19Z</time>
      </trkpt>
      <trkpt lat="38.94611" lon="-8.15928">
        <ele>75.45552</ele>
        <time>2021-07-10T12:58:30Z</time>
      </trkpt>
      <trkpt lat="38.94601" lon="-8.1593">
        <ele>74.14348</ele>
        <time>2021-07-10T12:58:41Z</time>
      </trkpt>
      <trkpt lat="38.94587" lon="-8.15935">
        <ele>74.24095</ele>
        <time>2021-07-10T12:58:52Z</time>
      </trkpt>
      <trkpt lat="38.94597" lon="-8.15941">
        <ele>73.76865</ele>
        <time>2021-07-10T12:59:03Z</time>
      </trkpt>
      <trkpt lat="38.94593" lon="-8.15932">
        <ele>74.01964</ele>
        <time>2021-07-10T12:59:14Z</time>
      </trkpt>
      <trkpt lat="38.94575" lon="-8.15927">
        <ele>73.17155</ele>
        <time>2021-07-10T12:59:25Z</time>
      </trkpt>
      <trkpt lat="38.9459" lon="-8.15949">
        <ele>74.44477</ele>
        <time>2021-07-10T12:59:36Z</time>
      </trkpt>
      <trkpt lat="38.94597" lon="-8.15927">
        <ele>71.58922</ele>
        <time>2021-07-10T12:59:47Z</time>
      </trkpt>
      <trkpt lat="38.94618" lon="-8.1591">
        <ele>79.4843</ele>
        <time>2021-07-10T13:00:04Z</time>
      </trkpt>
      <trkpt lat="38.94588" lon="-8.15935">
        <ele>74.2288</ele>
        <time>2021-07-10T13:00:15Z</time>
      </trkpt>
      <trkpt lat="38.94592" lon="-8.15933">
        <ele>75.79281</ele>
        <time>2021-07-10T13:00:26Z</time>
      </trkpt>
      <trkpt lat="38.94596" lon="-8.15936">
        <ele>74.66371</ele>
        <time>2021-07-10T13:00:37Z</time>
      </trkpt>
      <trkpt lat="38.94602" lon="-8.15938">
        <ele>70.32307</ele>
        <time>2021-07-10T13:00:50Z</time>
      </trkpt>
      <trkpt lat="38.94576" lon="-8.15934">
        <ele>75.63104</ele>
        <time>2021-07-10T13:01:01Z</time>
      </trkpt>
      <trkpt lat="38.94602" lon="-8.1594">
        <ele>74.0219</ele>
        <time>2021-07-10T13:01:12Z</time>
      </trkpt>
      <trkpt lat="38.94597" lon="-8.15936">
        <ele>72.70485</ele>
        <time>2021-07-10T13:01:23Z</time>
      </trkpt>
      <trkpt lat="38.94591" lon="-8.15936">
        <ele>73.29644</ele>
        <time>2021-07-10T13:01:34Z</time>
      </trkpt>
      <trkpt lat="38.94617" lon="-8.15925">
        <ele>75.06718</ele>
        <time>2021-07-10T13:01:45Z</time>
      </trkpt>
      <trkpt lat="38.9463" lon="-8.15919">
        <ele>72.32445</ele>
        <time>2021-07-10T13:01:56Z</time>
      </trkpt>
      <trkpt lat="38.94627" lon="-8.15921">
        <ele>75.92276</ele>
        <time>2021-07-10T13:02:14Z</time>
      </trkpt>
      <trkpt lat="38.94623" lon="-8.15919">
        <ele>71.79469</ele>
        <time>2021-07-10T13:02:25Z</time>
      </trkpt>
      <trkpt lat="38.94629" lon="-8.15917">
        <ele>72.19776</ele>
        <time>2021-07-10T13:02:36Z</time>
      </trkpt>
      <trkpt lat="38.94621" lon="-8.15926">
        <ele>74.12323</ele>
        <time>2021-07-10T13:02:47Z</time>
      </trkpt>
      <trkpt lat="38.94623" lon="-8.15923">
        <ele>71.98922</ele>
        <time>2021-07-10T13:02:58Z</time>
      </trkpt>
      <trkpt lat="38.94627" lon="-8.15924">
        <ele>72.585</ele>
        <time>2021-07-10T13:03:11Z</time>
      </trkpt>
      <trkpt lat="38.94629" lon="-8.15921">
        <ele>72.81405</ele>
        <time>2021-07-10T13:03:24Z</time>
      </trkpt>
      <trkpt lat="38.94628" lon="-8.15925">
        <ele>72.30738</ele>
        <time>2021-07-10T13:03:37Z</time>
      </trkpt>
      <trkpt lat="38.94614" lon="-8.15923">
        <ele>72.95894</ele>
        <time>2021-07-10T13:03:48Z</time>
      </trkpt>
      <trkpt lat="38.94615" lon="-8.15929">
        <ele>75.38594</ele>
        <time>2021-07-10T13:03:59Z</time>
      </trkpt>
      <trkpt lat="38.94613" lon="-8.15933">
        <ele>73.879</ele>
        <time>2021-07-10T13:04:11Z</time>
      </trkpt>
      <trkpt lat="38.94618" lon="-8.1593">
        <ele>74.40041</ele>
        <time>2021-07-10T13:04:22Z</time>
      </trkpt>
      <trkpt lat="38.94604" lon="-8.15942">
        <ele>73.19868</ele>
        <time>2021-07-10T13:04:33Z</time>
      </trkpt>
      <trkpt lat="38.94616" lon="-8.15943">
        <ele>74.46977</ele>
        <time>2021-07-10T13:04:44Z</time>
      </trkpt>
      <trkpt lat="38.94628" lon="-8.15943">
        <ele>72.33579</ele>
        <time>2021-07-10T13:04:55Z</time>
      </trkpt>
      <trkpt lat="38.94627" lon="-8.15938">
        <ele>72.38917</ele>
        <time>2021-07-10T13:05:17Z</time>
      </trkpt>
      <trkpt lat="38.94626" lon="-8.15948">
        <ele>72.23297</ele>
        <time>2021-07-10T13:05:28Z</time>
      </trkpt>
      <trkpt lat="38.94618" lon="-8.15942">
        <ele>72.94752</ele>
        <time>2021-07-10T13:05:39Z</time>
      </trkpt>
      <trkpt lat="38.94637" lon="-8.15946">
        <ele>72.40288</ele>
        <time>2021-07-10T13:05:50Z</time>
      </trkpt>
      <trkpt lat="38.94651" lon="-8.15945">
        <ele>72.01566</ele>
        <time>2021-07-10T13:06:01Z</time>
      </trkpt>
      <trkpt lat="38.9464" lon="-8.15944">
        <ele>70.72471</ele>
        <time>2021-07-10T13:06:12Z</time>
      </trkpt>
      <trkpt lat="38.94645" lon="-8.15947">
        <ele>71.41612</ele>
        <time>2021-07-10T13:06:23Z</time>
      </trkpt>
      <trkpt lat="38.94626" lon="-8.15947">
        <ele>72.91451</ele>
        <time>2021-07-10T13:06:34Z</time>
      </trkpt>
      <trkpt lat="38.94624" lon="-8.15931">
        <ele>72.82815</ele>
        <time>2021-07-10T13:06:45Z</time>
      </trkpt>
      <trkpt lat="38.94622" lon="-8.15923">
        <ele>73.20382</ele>
        <time>2021-07-10T13:06:56Z</time>
      </trkpt>
      <trkpt lat="38.94623" lon="-8.15925">
        <ele>72.96065</ele>
        <time>2021-07-10T13:07:55Z</time>
      </trkpt>
      <trkpt lat="38.94627" lon="-8.15924">
        <ele>72.87286</ele>
        <time>2021-07-10T13:08:31Z</time>
      </trkpt>
      <trkpt lat="38.94623" lon="-8.15924">
        <ele>72.79906</ele>
        <time>2021-07-10T13:09:01Z</time>
      </trkpt>
      <trkpt lat="38.94621" lon="-8.15924">
        <ele>73.24465</ele>
        <time>2021-07-10T13:10:00Z</time>
      </trkpt>
      <trkpt lat="38.94625" lon="-8.15924">
        <ele>72.4514</ele>
        <time>2021-07-10T13:10:46Z</time>
      </trkpt>
      <trkpt lat="38.94628" lon="-8.15921">
        <ele>72.83967</ele>
        <time>2021-07-10T13:11:05Z</time>
      </trkpt>
      <trkpt lat="38.94631" lon="-8.15924">
        <ele>72.20144</ele>
        <time>2021-07-10T13:11:17Z</time>
      </trkpt>
      <trkpt lat="38.94625" lon="-8.15924">
        <ele>72.84448</ele>
        <time>2021-07-10T13:11:28Z</time>
      </trkpt>
      <trkpt lat="38.94621" lon="-8.15925">
        <ele>72.1003</ele>
        <time>2021-07-10T13:12:01Z</time>
      </trkpt>
      <trkpt lat="38.94625" lon="-8.15923">
        <ele>72.39273</ele>
        <time>2021-07-10T13:12:16Z</time>
      </trkpt>
      <trkpt lat="38.94628" lon="-8.15923">
        <ele>73.5682</ele>
        <time>2021-07-10T13:13:15Z</time>
      </trkpt>
      <trkpt lat="38.94627" lon="-8.15922">
        <ele>72.8762</ele>
        <time>2021-07-10T13:14:14Z</time>
      </trkpt>
      <trkpt lat="38.94628" lon="-8.15923">
        <ele>72.93449</ele>
        <time>2021-07-10T13:15:13Z</time>
      </trkpt>
      <trkpt lat="38.9463" lon="-8.15924">
        <ele>73.57649</ele>
        <time>2021-07-10T13:16:11Z</time>
      </trkpt>
      <trkpt lat="38.94627" lon="-8.1592">
        <ele>72.8011</ele>
        <time>2021-07-10T13:17:06Z</time>
      </trkpt>
      <trkpt lat="38.94627" lon="-8.1592">
        <ele>72.91035</ele>
        <time>2021-07-10T13:18:05Z</time>
      </trkpt>
      <trkpt lat="38.94624" lon="-8.15921">
        <ele>72.03875</ele>
        <time>2021-07-10T13:18:30Z</time>
      </trkpt>
      <trkpt lat="38.94626" lon="-8.15922">
        <ele>72.14677</ele>
        <time>2021-07-10T13:19:29Z</time>
      </trkpt>
      <trkpt lat="38.94626" lon="-8.15922">
        <ele>72.14677</ele>
        <time>2021-07-10T13:20:28Z</time>
      </trkpt>
      <trkpt lat="38.94618" lon="-8.15922">
        <ele>72.78032</ele>
        <time>2021-07-10T13:21:22Z</time>
      </trkpt>
      <trkpt lat="38.94623" lon="-8.15924">
        <ele>72.19864</ele>
        <time>2021-07-10T13:21:33Z</time>
      </trkpt>
      <trkpt lat="38.94623" lon="-8.15923">
        <ele>72.67831</ele>
        <time>2021-07-10T13:22:32Z</time>
      </trkpt>
      <trkpt lat="38.94625" lon="-8.15923">
        <ele>70.39243</ele>
        <time>2021-07-10T13:23:32Z</time>
      </trkpt>
      <trkpt lat="38.94625" lon="-8.15923">
        <ele>70.39243</ele>
        <time>2021-07-10T13:24:32Z</time>
      </trkpt>
      <trkpt lat="38.94624" lon="-8.1592">
        <ele>72.88709</ele>
        <time>2021-07-10T13:25:32Z</time>
      </trkpt>
      <trkpt lat="38.94624" lon="-8.1592">
        <ele>72.88709</ele>
        <time>2021-07-10T13:26:32Z</time>
      </trkpt>
      <trkpt lat="38.94624" lon="-8.1592">
        <ele>72.88709</ele>
        <time>2021-07-10T13:27:32Z</time>
      </trkpt>
      <trkpt lat="38.94624" lon="-8.1592">
        <ele>72.88709</ele>
        <time>2021-07-10T13:28:32Z</time>
      </trkpt>
      <trkpt lat="38.94626" lon="-8.1592">
        <ele>72.97564</ele>
        <time>2021-07-10T13:29:32Z</time>
      </trkpt>
      <trkpt lat="38.94633" lon="-8.1592">
        <ele>72.2092</ele>
        <time>2021-07-10T13:29:43Z</time>
      </trkpt>
      <trkpt lat="38.94642" lon="-8.15923">
        <ele>72.50454</ele>
        <time>2021-07-10T13:30:24Z</time>
      </trkpt>
      <trkpt lat="38.94639" lon="-8.15919">
        <ele>72.04288</ele>
        <time>2021-07-10T13:31:17Z</time>
      </trkpt>
      <trkpt lat="38.94639" lon="-8.15919">
        <ele>72.04288</ele>
        <time>2021-07-10T13:32:16Z</time>
      </trkpt>
      <trkpt lat="38.94635" lon="-8.15919">
        <ele>72.88</ele>
        <time>2021-07-10T13:32:41Z</time>
      </trkpt>
      <trkpt lat="38.94634" lon="-8.15914">
        <ele>72.75797</ele>
        <time>2021-07-10T13:33:15Z</time>
      </trkpt>
      <trkpt lat="38.94635" lon="-8.1595">
        <ele>71.76646</ele>
        <time>2021-07-10T13:33:26Z</time>
      </trkpt>
      <trkpt lat="38.9463" lon="-8.15972">
        <ele>72.77225</ele>
        <time>2021-07-10T13:33:37Z</time>
      </trkpt>
      <trkpt lat="38.94545" lon="-8.15987">
        <ele>79.30402</ele>
        <time>2021-07-10T13:33:48Z</time>
      </trkpt>
      <trkpt lat="38.94515" lon="-8.15998">
        <ele>80.90165</ele>
        <time>2021-07-10T13:33:59Z</time>
      </trkpt>
      <trkpt lat="38.94496" lon="-8.1585">
        <ele>82.37723</ele>
        <time>2021-07-10T13:34:10Z</time>
      </trkpt>
      <trkpt lat="38.94443" lon="-8.15728">
        <ele>88.57857</ele>
        <time>2021-07-10T13:34:21Z</time>
      </trkpt>
      <trkpt lat="38.94374" lon="-8.15694">
        <ele>95.31981</ele>
        <time>2021-07-10T13:34:32Z</time>
      </trkpt>
      <trkpt lat="38.94364" lon="-8.15819">
        <ele>98.81534</ele>
        <time>2021-07-10T13:34:43Z</time>
      </trkpt>
      <trkpt lat="38.94365" lon="-8.1599">
        <ele>104.1852</ele>
        <time>2021-07-10T13:34:54Z</time>
      </trkpt>
      <trkpt lat="38.9431" lon="-8.16147">
        <ele>104.2061</ele>
        <time>2021-07-10T13:35:05Z</time>
      </trkpt>
      <trkpt lat="38.94217" lon="-8.16281">
        <ele>110.9695</ele>
        <time>2021-07-10T13:35:16Z</time>
      </trkpt>
      <trkpt lat="38.94116" lon="-8.16428">
        <ele>123.1012</ele>
        <time>2021-07-10T13:35:27Z</time>
      </trkpt>
      <trkpt lat="38.93976" lon="-8.16538">
        <ele>127.5421</ele>
        <time>2021-07-10T13:35:38Z</time>
      </trkpt>
      <trkpt lat="38.93865" lon="-8.16597">
        <ele>130.2372</ele>
        <time>2021-07-10T13:35:49Z</time>
      </trkpt>
      <trkpt lat="38.93716" lon="-8.16631">
        <ele>138.7118</ele>
        <time>2021-07-10T13:36:00Z</time>
      </trkpt>
      <trkpt lat="38.93565" lon="-8.16736">
        <ele>148.3408</ele>
        <time>2021-07-10T13:36:11Z</time>
      </trkpt>
      <trkpt lat="38.93428" lon="-8.16868">
        <ele>149.2092</ele>
        <time>2021-07-10T13:36:22Z</time>
      </trkpt>
      <trkpt lat="38.93295" lon="-8.16893">
        <ele>151.3369</ele>
        <time>2021-07-10T13:36:33Z</time>
      </trkpt>
      <trkpt lat="38.93069" lon="-8.16923">
        <ele>146.1994</ele>
        <time>2021-07-10T13:36:44Z</time>
      </trkpt>
      <trkpt lat="38.92841" lon="-8.17002">
        <ele>150.7838</ele>
        <time>2021-07-10T13:36:55Z</time>
      </trkpt>
      <trkpt lat="38.92595" lon="-8.17097">
        <ele>147.0952</ele>
        <time>2021-07-10T13:37:06Z</time>
      </trkpt>
      <trkpt lat="38.92354" lon="-8.17229">
        <ele>145.7847</ele>
        <time>2021-07-10T13:37:17Z</time>
      </trkpt>
      <trkpt lat="38.92121" lon="-8.17393">
        <ele>145.661</ele>
        <time>2021-07-10T13:37:28Z</time>
      </trkpt>
      <trkpt lat="38.91896" lon="-8.17577">
        <ele>146.3866</ele>
        <time>2021-07-10T13:37:39Z</time>
      </trkpt>
      <trkpt lat="38.91629" lon="-8.17649">
        <ele>145.9449</ele>
        <time>2021-07-10T13:37:50Z</time>
      </trkpt>
      <trkpt lat="38.91388" lon="-8.17763">
        <ele>141.962</ele>
        <time>2021-07-10T13:38:01Z</time>
      </trkpt>
      <trkpt lat="38.91133" lon="-8.17831">
        <ele>140.1064</ele>
        <time>2021-07-10T13:38:12Z</time>
      </trkpt>
      <trkpt lat="38.90881" lon="-8.17899">
        <ele>139.4907</ele>
        <time>2021-07-10T13:38:23Z</time>
      </trkpt>
      <trkpt lat="38.90624" lon="-8.17936">
        <ele>134.0747</ele>
        <time>2021-07-10T13:38:34Z</time>
      </trkpt>
      <trkpt lat="38.90366" lon="-8.17887">
        <ele>131.1205</ele>
        <time>2021-07-10T13:38:45Z</time>
      </trkpt>
      <trkpt lat="38.90128" lon="-8.17782">
        <ele>124.8588</ele>
        <time>2021-07-10T13:38:56Z</time>
      </trkpt>
      <trkpt lat="38.89888" lon="-8.17668">
        <ele>117.8365</ele>
        <time>2021-07-10T13:39:07Z</time>
      </trkpt>
      <trkpt lat="38.89647" lon="-8.17585">
        <ele>114.6747</ele>
        <time>2021-07-10T13:39:18Z</time>
      </trkpt>
      <trkpt lat="38.89408" lon="-8.17508">
        <ele>107.9429</ele>
        <time>2021-07-10T13:39:29Z</time>
      </trkpt>
      <trkpt lat="38.89169" lon="-8.17454">
        <ele>100.5556</ele>
        <time>2021-07-10T13:39:40Z</time>
      </trkpt>
      <trkpt lat="38.88941" lon="-8.17461">
        <ele>99.5275</ele>
        <time>2021-07-10T13:39:51Z</time>
      </trkpt>
      <trkpt lat="38.88702" lon="-8.17481">
        <ele>93.19443</ele>
        <time>2021-07-10T13:40:02Z</time>
      </trkpt>
      <trkpt lat="38.88484" lon="-8.17451">
        <ele>92.84681</ele>
        <time>2021-07-10T13:40:13Z</time>
      </trkpt>
      <trkpt lat="38.88336" lon="-8.17332">
        <ele>83.40633</ele>
        <time>2021-07-10T13:40:24Z</time>
      </trkpt>
      <trkpt lat="38.88168" lon="-8.17301">
        <ele>78.38743</ele>
        <time>2021-07-10T13:40:35Z</time>
      </trkpt>
      <trkpt lat="38.87967" lon="-8.17379">
        <ele>79.8156</ele>
        <time>2021-07-10T13:40:46Z</time>
      </trkpt>
      <trkpt lat="38.87786" lon="-8.17236">
        <ele>86.1232</ele>
        <time>2021-07-10T13:40:57Z</time>
      </trkpt>
      <trkpt lat="38.87643" lon="-8.16968">
        <ele>91.33874</ele>
        <time>2021-07-10T13:41:08Z</time>
      </trkpt>
      <trkpt lat="38.87529" lon="-8.16659">
        <ele>93.51686</ele>
        <time>2021-07-10T13:41:19Z</time>
      </trkpt>
      <trkpt lat="38.87414" lon="-8.16351">
        <ele>97.07425</ele>
        <time>2021-07-10T13:41:30Z</time>
      </trkpt>
      <trkpt lat="38.87306" lon="-8.16058">
        <ele>99.20769</ele>
        <time>2021-07-10T13:41:41Z</time>
      </trkpt>
      <trkpt lat="38.87162" lon="-8.15827">
        <ele>102.2782</ele>
        <time>2021-07-10T13:41:52Z</time>
      </trkpt>
      <trkpt lat="38.87146" lon="-8.15587">
        <ele>107.113</ele>
        <time>2021-07-10T13:42:03Z</time>
      </trkpt>
      <trkpt lat="38.87171" lon="-8.15487">
        <ele>106.5824</ele>
        <time>2021-07-10T13:42:14Z</time>
      </trkpt>
      <trkpt lat="38.87175" lon="-8.1548">
        <ele>110.3558</ele>
        <time>2021-07-10T13:43:08Z</time>
      </trkpt>
      <trkpt lat="38.87172" lon="-8.15366">
        <ele>110.2795</ele>
        <time>2021-07-10T13:43:19Z</time>
      </trkpt>
      <trkpt lat="38.87136" lon="-8.15233">
        <ele>116.8069</ele>
        <time>2021-07-10T13:43:30Z</time>
      </trkpt>
      <trkpt lat="38.87035" lon="-8.15143">
        <ele>127.8049</ele>
        <time>2021-07-10T13:43:41Z</time>
      </trkpt>
      <trkpt lat="38.86841" lon="-8.15055">
        <ele>144.9188</ele>
        <time>2021-07-10T13:43:52Z</time>
      </trkpt>
      <trkpt lat="38.86642" lon="-8.15107">
        <ele>145.2944</ele>
        <time>2021-07-10T13:44:03Z</time>
      </trkpt>
      <trkpt lat="38.86461" lon="-8.15212">
        <ele>146.035</ele>
        <time>2021-07-10T13:44:14Z</time>
      </trkpt>
      <trkpt lat="38.86478" lon="-8.15359">
        <ele>142.2992</ele>
        <time>2021-07-10T13:44:25Z</time>
      </trkpt>
      <trkpt lat="38.86582" lon="-8.15514">
        <ele>145.411</ele>
        <time>2021-07-10T13:44:36Z</time>
      </trkpt>
      <trkpt lat="38.86649" lon="-8.15682">
        <ele>144.6013</ele>
        <time>2021-07-10T13:44:47Z</time>
      </trkpt>
      <trkpt lat="38.86648" lon="-8.15899">
        <ele>138.5984</ele>
        <time>2021-07-10T13:44:58Z</time>
      </trkpt>
      <trkpt lat="38.86709" lon="-8.16133">
        <ele>137.0797</ele>
        <time>2021-07-10T13:45:09Z</time>
      </trkpt>
      <trkpt lat="38.86811" lon="-8.16317">
        <ele>139.446</ele>
        <time>2021-07-10T13:45:20Z</time>
      </trkpt>
      <trkpt lat="38.86815" lon="-8.16504">
        <ele>134.0659</ele>
        <time>2021-07-10T13:45:31Z</time>
      </trkpt>
      <trkpt lat="38.86686" lon="-8.16664">
        <ele>129.6476</ele>
        <time>2021-07-10T13:45:42Z</time>
      </trkpt>
      <trkpt lat="38.86534" lon="-8.168">
        <ele>127.0891</ele>
        <time>2021-07-10T13:45:53Z</time>
      </trkpt>
      <trkpt lat="38.86426" lon="-8.16952">
        <ele>121.3964</ele>
        <time>2021-07-10T13:46:04Z</time>
      </trkpt>
      <trkpt lat="38.86349" lon="-8.17125">
        <ele>115.5337</ele>
        <time>2021-07-10T13:46:15Z</time>
      </trkpt>
      <trkpt lat="38.86327" lon="-8.17144">
        <ele>115.1813</ele>
        <time>2021-07-10T13:46:27Z</time>
      </trkpt>
      <trkpt lat="38.86326" lon="-8.17144">
        <ele>116.7114</ele>
        <time>2021-07-10T13:47:27Z</time>
      </trkpt>
      <trkpt lat="38.86328" lon="-8.1714">
        <ele>110.4453</ele>
        <time>2021-07-10T13:52:07Z</time>
      </trkpt>
      <trkpt lat="38.86327" lon="-8.17145">
        <ele>114.6667</ele>
        <time>2021-07-10T13:52:36Z</time>
      </trkpt>
      <trkpt lat="38.86327" lon="-8.17143">
        <ele>114.7075</ele>
        <time>2021-07-10T14:10:59Z</time>
      </trkpt>
      <trkpt lat="38.86331" lon="-8.17143">
        <ele>114.5384</ele>
        <time>2021-07-10T14:11:15Z</time>
      </trkpt>
      <trkpt lat="38.86329" lon="-8.17137">
        <ele>114.6123</ele>
        <time>2021-07-10T14:11:26Z</time>
      </trkpt>
      <trkpt lat="38.86328" lon="-8.17142">
        <ele>115.2439</ele>
        <time>2021-07-10T14:12:10Z</time>
      </trkpt>
      <trkpt lat="38.86328" lon="-8.17141">
        <ele>113.3702</ele>
        <time>2021-07-10T14:13:08Z</time>
      </trkpt>
      <trkpt lat="38.86327" lon="-8.17143">
        <ele>114.1292</ele>
        <time>2021-07-10T14:14:06Z</time>
      </trkpt>
      <trkpt lat="38.86325" lon="-8.17145">
        <ele>114.4333</ele>
        <time>2021-07-10T14:15:05Z</time>
      </trkpt>
      <trkpt lat="38.86325" lon="-8.17145">
        <ele>114.4333</ele>
        <time>2021-07-10T14:16:04Z</time>
      </trkpt>
      <trkpt lat="38.86325" lon="-8.17145">
        <ele>114.4333</ele>
        <time>2021-07-10T14:17:03Z</time>
      </trkpt>
      <trkpt lat="38.86321" lon="-8.17151">
        <ele>112.8989</ele>
        <time>2021-07-10T14:17:49Z</time>
      </trkpt>
      <trkpt lat="38.86253" lon="-8.17243">
        <ele>109.5847</ele>
        <time>2021-07-10T14:18:00Z</time>
      </trkpt>
      <trkpt lat="38.86191" lon="-8.17358">
        <ele>108.2443</ele>
        <time>2021-07-10T14:18:11Z</time>
      </trkpt>
      <trkpt lat="38.86119" lon="-8.17451">
        <ele>101.5209</ele>
        <time>2021-07-10T14:18:22Z</time>
      </trkpt>
      <trkpt lat="38.86176" lon="-8.17612">
        <ele>96.2108</ele>
        <time>2021-07-10T14:18:33Z</time>
      </trkpt>
      <trkpt lat="38.86196" lon="-8.17803">
        <ele>96.17769</ele>
        <time>2021-07-10T14:18:44Z</time>
      </trkpt>
      <trkpt lat="38.86213" lon="-8.17981">
        <ele>87.3626</ele>
        <time>2021-07-10T14:18:55Z</time>
      </trkpt>
      <trkpt lat="38.8634" lon="-8.18046">
        <ele>85.22935</ele>
        <time>2021-07-10T14:19:06Z</time>
      </trkpt>
      <trkpt lat="38.86494" lon="-8.18022">
        <ele>84.44974</ele>
        <time>2021-07-10T14:19:17Z</time>
      </trkpt>
      <trkpt lat="38.86628" lon="-8.18139">
        <ele>83.44068</ele>
        <time>2021-07-10T14:19:28Z</time>
      </trkpt>
      <trkpt lat="38.86745" lon="-8.18267">
        <ele>82.82196</ele>
        <time>2021-07-10T14:19:39Z</time>
      </trkpt>
      <trkpt lat="38.86845" lon="-8.18328">
        <ele>83.70276</ele>
        <time>2021-07-10T14:19:50Z</time>
      </trkpt>
      <trkpt lat="38.86908" lon="-8.18474">
        <ele>90.12584</ele>
        <time>2021-07-10T14:20:01Z</time>
      </trkpt>
      <trkpt lat="38.86997" lon="-8.18677">
        <ele>89.19179</ele>
        <time>2021-07-10T14:20:12Z</time>
      </trkpt>
      <trkpt lat="38.87044" lon="-8.1885">
        <ele>100.2903</ele>
        <time>2021-07-10T14:20:23Z</time>
      </trkpt>
      <trkpt lat="38.87069" lon="-8.19009">
        <ele>107.7504</ele>
        <time>2021-07-10T14:20:34Z</time>
      </trkpt>
      <trkpt lat="38.86995" lon="-8.1924">
        <ele>115.0139</ele>
        <time>2021-07-10T14:20:45Z</time>
      </trkpt>
      <trkpt lat="38.86935" lon="-8.19432">
        <ele>128.6337</ele>
        <time>2021-07-10T14:20:56Z</time>
      </trkpt>
      <trkpt lat="38.86876" lon="-8.19561">
        <ele>140.1565</ele>
        <time>2021-07-10T14:21:07Z</time>
      </trkpt>
      <trkpt lat="38.86741" lon="-8.19563">
        <ele>142.9705</ele>
        <time>2021-07-10T14:21:18Z</time>
      </trkpt>
      <trkpt lat="38.86587" lon="-8.19553">
        <ele>142.4232</ele>
        <time>2021-07-10T14:21:29Z</time>
      </trkpt>
      <trkpt lat="38.86466" lon="-8.19631">
        <ele>148.3121</ele>
        <time>2021-07-10T14:21:40Z</time>
      </trkpt>
      <trkpt lat="38.86316" lon="-8.19737">
        <ele>147.6042</ele>
        <time>2021-07-10T14:21:51Z</time>
      </trkpt>
      <trkpt lat="38.8622" lon="-8.19803">
        <ele>145.1988</ele>
        <time>2021-07-10T14:22:02Z</time>
      </trkpt>
      <trkpt lat="38.86264" lon="-8.199">
        <ele>142.1757</ele>
        <time>2021-07-10T14:22:13Z</time>
      </trkpt>
      <trkpt lat="38.86369" lon="-8.20016">
        <ele>142.2419</ele>
        <time>2021-07-10T14:22:24Z</time>
      </trkpt>
      <trkpt lat="38.86381" lon="-8.2014">
        <ele>147.3098</ele>
        <time>2021-07-10T14:22:35Z</time>
      </trkpt>
      <trkpt lat="38.86349" lon="-8.20332">
        <ele>152.5956</ele>
        <time>2021-07-10T14:22:46Z</time>
      </trkpt>
      <trkpt lat="38.86378" lon="-8.20459">
        <ele>151.6828</ele>
        <time>2021-07-10T14:22:57Z</time>
      </trkpt>
      <trkpt lat="38.86458" lon="-8.20591">
        <ele>145.9589</ele>
        <time>2021-07-10T14:23:08Z</time>
      </trkpt>
      <trkpt lat="38.86551" lon="-8.20766">
        <ele>153.8612</ele>
        <time>2021-07-10T14:23:19Z</time>
      </trkpt>
      <trkpt lat="38.86591" lon="-8.2094">
        <ele>151.894</ele>
        <time>2021-07-10T14:23:30Z</time>
      </trkpt>
      <trkpt lat="38.86699" lon="-8.21056">
        <ele>145.9405</ele>
        <time>2021-07-10T14:23:41Z</time>
      </trkpt>
      <trkpt lat="38.86815" lon="-8.21155">
        <ele>141.0446</ele>
        <time>2021-07-10T14:23:52Z</time>
      </trkpt>
      <trkpt lat="38.86834" lon="-8.21322">
        <ele>139.4048</ele>
        <time>2021-07-10T14:24:03Z</time>
      </trkpt>
      <trkpt lat="38.86831" lon="-8.21505">
        <ele>139.8366</ele>
        <time>2021-07-10T14:24:14Z</time>
      </trkpt>
      <trkpt lat="38.86756" lon="-8.21668">
        <ele>139.6687</ele>
        <time>2021-07-10T14:24:25Z</time>
      </trkpt>
      <trkpt lat="38.86769" lon="-8.21847">
        <ele>141.7106</ele>
        <time>2021-07-10T14:24:36Z</time>
      </trkpt>
      <trkpt lat="38.86856" lon="-8.22003">
        <ele>140.5127</ele>
        <time>2021-07-10T14:24:47Z</time>
      </trkpt>
      <trkpt lat="38.86875" lon="-8.22143">
        <ele>134.2009</ele>
        <time>2021-07-10T14:24:58Z</time>
      </trkpt>
      <trkpt lat="38.86963" lon="-8.2225">
        <ele>133.5891</ele>
        <time>2021-07-10T14:25:09Z</time>
      </trkpt>
      <trkpt lat="38.87059" lon="-8.22384">
        <ele>140.5523</ele>
        <time>2021-07-10T14:25:20Z</time>
      </trkpt>
      <trkpt lat="38.8708" lon="-8.22571">
        <ele>134.891</ele>
        <time>2021-07-10T14:25:31Z</time>
      </trkpt>
      <trkpt lat="38.87101" lon="-8.22771">
        <ele>133.5237</ele>
        <time>2021-07-10T14:25:42Z</time>
      </trkpt>
      <trkpt lat="38.87159" lon="-8.22883">
        <ele>134.3342</ele>
        <time>2021-07-10T14:25:53Z</time>
      </trkpt>
      <trkpt lat="38.87283" lon="-8.22968">
        <ele>140.9401</ele>
        <time>2021-07-10T14:26:04Z</time>
      </trkpt>
      <trkpt lat="38.87337" lon="-8.23047">
        <ele>129.858</ele>
        <time>2021-07-10T14:26:15Z</time>
      </trkpt>
      <trkpt lat="38.87306" lon="-8.23233">
        <ele>113.618</ele>
        <time>2021-07-10T14:26:26Z</time>
      </trkpt>
      <trkpt lat="38.87293" lon="-8.23418">
        <ele>121.7069</ele>
        <time>2021-07-10T14:26:37Z</time>
      </trkpt>
      <trkpt lat="38.87262" lon="-8.23575">
        <ele>126.6265</ele>
        <time>2021-07-10T14:26:48Z</time>
      </trkpt>
      <trkpt lat="38.87285" lon="-8.23711">
        <ele>121.8574</ele>
        <time>2021-07-10T14:26:59Z</time>
      </trkpt>
      <trkpt lat="38.87378" lon="-8.23837">
        <ele>128.7153</ele>
        <time>2021-07-10T14:27:10Z</time>
      </trkpt>
      <trkpt lat="38.8744" lon="-8.23955">
        <ele>135.8763</ele>
        <time>2021-07-10T14:27:21Z</time>
      </trkpt>
      <trkpt lat="38.87478" lon="-8.24077">
        <ele>137.7161</ele>
        <time>2021-07-10T14:27:32Z</time>
      </trkpt>
      <trkpt lat="38.8748" lon="-8.24241">
        <ele>134.7784</ele>
        <time>2021-07-10T14:27:43Z</time>
      </trkpt>
      <trkpt lat="38.87494" lon="-8.24414">
        <ele>131.7978</ele>
        <time>2021-07-10T14:27:54Z</time>
      </trkpt>
      <trkpt lat="38.87577" lon="-8.24526">
        <ele>113.0544</ele>
        <time>2021-07-10T14:28:05Z</time>
      </trkpt>
      <trkpt lat="38.8767" lon="-8.2461">
        <ele>111.5945</ele>
        <time>2021-07-10T14:28:16Z</time>
      </trkpt>
      <trkpt lat="38.87685" lon="-8.24743">
        <ele>119.3</ele>
        <time>2021-07-10T14:28:27Z</time>
      </trkpt>
      <trkpt lat="38.87616" lon="-8.24863">
        <ele>122.5837</ele>
        <time>2021-07-10T14:28:38Z</time>
      </trkpt>
      <trkpt lat="38.87492" lon="-8.24943">
        <ele>123.957</ele>
        <time>2021-07-10T14:28:49Z</time>
      </trkpt>
      <trkpt lat="38.87367" lon="-8.24986">
        <ele>127.9111</ele>
        <time>2021-07-10T14:29:00Z</time>
      </trkpt>
      <trkpt lat="38.8732" lon="-8.25053">
        <ele>124.2899</ele>
        <time>2021-07-10T14:29:11Z</time>
      </trkpt>
      <trkpt lat="38.87319" lon="-8.25192">
        <ele>119.9391</ele>
        <time>2021-07-10T14:29:22Z</time>
      </trkpt>
      <trkpt lat="38.87252" lon="-8.25292">
        <ele>106.2196</ele>
        <time>2021-07-10T14:29:33Z</time>
      </trkpt>
      <trkpt lat="38.87121" lon="-8.25315">
        <ele>92.67892</ele>
        <time>2021-07-10T14:29:44Z</time>
      </trkpt>
      <trkpt lat="38.8702" lon="-8.25333">
        <ele>86.69686</ele>
        <time>2021-07-10T14:29:55Z</time>
      </trkpt>
      <trkpt lat="38.86918" lon="-8.25341">
        <ele>83.00313</ele>
        <time>2021-07-10T14:30:06Z</time>
      </trkpt>
      <trkpt lat="38.86812" lon="-8.25366">
        <ele>80.51936</ele>
        <time>2021-07-10T14:30:17Z</time>
      </trkpt>
      <trkpt lat="38.86678" lon="-8.25436">
        <ele>78.69923</ele>
        <time>2021-07-10T14:30:28Z</time>
      </trkpt>
      <trkpt lat="38.86585" lon="-8.25517">
        <ele>71.76527</ele>
        <time>2021-07-10T14:30:39Z</time>
      </trkpt>
      <trkpt lat="38.86608" lon="-8.25658">
        <ele>55.31816</ele>
        <time>2021-07-10T14:30:50Z</time>
      </trkpt>
      <trkpt lat="38.86673" lon="-8.2582">
        <ele>61.14293</ele>
        <time>2021-07-10T14:31:01Z</time>
      </trkpt>
      <trkpt lat="38.86667" lon="-8.25904">
        <ele>66.98887</ele>
        <time>2021-07-10T14:31:12Z</time>
      </trkpt>
      <trkpt lat="38.86474" lon="-8.25959">
        <ele>75.52489</ele>
        <time>2021-07-10T14:31:23Z</time>
      </trkpt>
      <trkpt lat="38.86328" lon="-8.25996">
        <ele>80.3921</ele>
        <time>2021-07-10T14:31:34Z</time>
      </trkpt>
      <trkpt lat="38.86205" lon="-8.26023">
        <ele>85.8982</ele>
        <time>2021-07-10T14:31:45Z</time>
      </trkpt>
      <trkpt lat="38.86137" lon="-8.26105">
        <ele>73.09048</ele>
        <time>2021-07-10T14:31:56Z</time>
      </trkpt>
      <trkpt lat="38.85985" lon="-8.262">
        <ele>80.63273</ele>
        <time>2021-07-10T14:32:07Z</time>
      </trkpt>
      <trkpt lat="38.85909" lon="-8.26297">
        <ele>100.4184</ele>
        <time>2021-07-10T14:32:18Z</time>
      </trkpt>
      <trkpt lat="38.85815" lon="-8.26352">
        <ele>110.0446</ele>
        <time>2021-07-10T14:32:29Z</time>
      </trkpt>
      <trkpt lat="38.85762" lon="-8.26311">
        <ele>114.3189</ele>
        <time>2021-07-10T14:32:40Z</time>
      </trkpt>
      <trkpt lat="38.85755" lon="-8.26142">
        <ele>103.8099</ele>
        <time>2021-07-10T14:32:51Z</time>
      </trkpt>
      <trkpt lat="38.85713" lon="-8.25998">
        <ele>93.31503</ele>
        <time>2021-07-10T14:33:02Z</time>
      </trkpt>
      <trkpt lat="38.85735" lon="-8.25864">
        <ele>103.9393</ele>
        <time>2021-07-10T14:33:13Z</time>
      </trkpt>
      <trkpt lat="38.85681" lon="-8.2576">
        <ele>99.70555</ele>
        <time>2021-07-10T14:33:24Z</time>
      </trkpt>
      <trkpt lat="38.85556" lon="-8.25733">
        <ele>110.4914</ele>
        <time>2021-07-10T14:33:35Z</time>
      </trkpt>
      <trkpt lat="38.8541" lon="-8.25672">
        <ele>111.9874</ele>
        <time>2021-07-10T14:33:46Z</time>
      </trkpt>
      <trkpt lat="38.85292" lon="-8.25632">
        <ele>114.0683</ele>
        <time>2021-07-10T14:33:57Z</time>
      </trkpt>
      <trkpt lat="38.85187" lon="-8.25525">
        <ele>118.564</ele>
        <time>2021-07-10T14:34:08Z</time>
      </trkpt>
      <trkpt lat="38.85081" lon="-8.2542">
        <ele>120.5815</ele>
        <time>2021-07-10T14:34:19Z</time>
      </trkpt>
      <trkpt lat="38.8494" lon="-8.25387">
        <ele>112.9096</ele>
        <time>2021-07-10T14:34:30Z</time>
      </trkpt>
      <trkpt lat="38.84802" lon="-8.25307">
        <ele>114.4027</ele>
        <time>2021-07-10T14:34:41Z</time>
      </trkpt>
      <trkpt lat="38.8465" lon="-8.25216">
        <ele>111.322</ele>
        <time>2021-07-10T14:34:52Z</time>
      </trkpt>
      <trkpt lat="38.84502" lon="-8.25192">
        <ele>105.4142</ele>
        <time>2021-07-10T14:35:03Z</time>
      </trkpt>
      <trkpt lat="38.84339" lon="-8.25191">
        <ele>111.2479</ele>
        <time>2021-07-10T14:35:14Z</time>
      </trkpt>
      <trkpt lat="38.84202" lon="-8.25191">
        <ele>123.7307</ele>
        <time>2021-07-10T14:35:25Z</time>
      </trkpt>
      <trkpt lat="38.84105" lon="-8.25189">
        <ele>120.6742</ele>
        <time>2021-07-10T14:35:36Z</time>
      </trkpt>
      <trkpt lat="38.84022" lon="-8.25099">
        <ele>120.1614</ele>
        <time>2021-07-10T14:35:47Z</time>
      </trkpt>
      <trkpt lat="38.83955" lon="-8.2498">
        <ele>110.5851</ele>
        <time>2021-07-10T14:35:58Z</time>
      </trkpt>
      <trkpt lat="38.8389" lon="-8.24862">
        <ele>110.9587</ele>
        <time>2021-07-10T14:36:09Z</time>
      </trkpt>
      <trkpt lat="38.83863" lon="-8.24675">
        <ele>119.3639</ele>
        <time>2021-07-10T14:36:20Z</time>
      </trkpt>
      <trkpt lat="38.83786" lon="-8.24496">
        <ele>129.7165</ele>
        <time>2021-07-10T14:36:31Z</time>
      </trkpt>
      <trkpt lat="38.83675" lon="-8.24452">
        <ele>134.153</ele>
        <time>2021-07-10T14:36:42Z</time>
      </trkpt>
      <trkpt lat="38.83539" lon="-8.24456">
        <ele>132.8919</ele>
        <time>2021-07-10T14:36:53Z</time>
      </trkpt>
      <trkpt lat="38.83437" lon="-8.24456">
        <ele>124.6572</ele>
        <time>2021-07-10T14:37:04Z</time>
      </trkpt>
      <trkpt lat="38.83303" lon="-8.24422">
        <ele>116.4646</ele>
        <time>2021-07-10T14:37:15Z</time>
      </trkpt>
      <trkpt lat="38.83185" lon="-8.24348">
        <ele>108.5873</ele>
        <time>2021-07-10T14:37:26Z</time>
      </trkpt>
      <trkpt lat="38.83103" lon="-8.24255">
        <ele>107.3954</ele>
        <time>2021-07-10T14:37:37Z</time>
      </trkpt>
      <trkpt lat="38.83153" lon="-8.24094">
        <ele>102.4803</ele>
        <time>2021-07-10T14:37:48Z</time>
      </trkpt>
      <trkpt lat="38.83082" lon="-8.24065">
        <ele>106.5414</ele>
        <time>2021-07-10T14:37:59Z</time>
      </trkpt>
      <trkpt lat="38.82939" lon="-8.2421">
        <ele>106.8487</ele>
        <time>2021-07-10T14:38:10Z</time>
      </trkpt>
      <trkpt lat="38.82774" lon="-8.24341">
        <ele>95.3793</ele>
        <time>2021-07-10T14:38:21Z</time>
      </trkpt>
      <trkpt lat="38.82648" lon="-8.24415">
        <ele>81.0813</ele>
        <time>2021-07-10T14:38:32Z</time>
      </trkpt>
      <trkpt lat="38.82517" lon="-8.24386">
        <ele>103.7128</ele>
        <time>2021-07-10T14:38:43Z</time>
      </trkpt>
      <trkpt lat="38.8243" lon="-8.24449">
        <ele>84.39695</ele>
        <time>2021-07-10T14:38:54Z</time>
      </trkpt>
      <trkpt lat="38.82343" lon="-8.24491">
        <ele>72.14057</ele>
        <time>2021-07-10T14:39:05Z</time>
      </trkpt>
      <trkpt lat="38.82237" lon="-8.24534">
        <ele>84.97717</ele>
        <time>2021-07-10T14:39:16Z</time>
      </trkpt>
      <trkpt lat="38.82141" lon="-8.24691">
        <ele>29.73479</ele>
        <time>2021-07-10T14:39:27Z</time>
      </trkpt>
      <trkpt lat="38.82009" lon="-8.24677">
        <ele>91.90088</ele>
        <time>2021-07-10T14:39:38Z</time>
      </trkpt>
      <trkpt lat="38.81868" lon="-8.24631">
        <ele>90.28968</ele>
        <time>2021-07-10T14:39:49Z</time>
      </trkpt>
      <trkpt lat="38.81773" lon="-8.24559">
        <ele>84.23009</ele>
        <time>2021-07-10T14:40:00Z</time>
      </trkpt>
      <trkpt lat="38.81696" lon="-8.24453">
        <ele>92.38275</ele>
        <time>2021-07-10T14:40:11Z</time>
      </trkpt>
      <trkpt lat="38.81637" lon="-8.24337">
        <ele>94.89671</ele>
        <time>2021-07-10T14:40:22Z</time>
      </trkpt>
      <trkpt lat="38.81564" lon="-8.24199">
        <ele>91.90922</ele>
        <time>2021-07-10T14:40:33Z</time>
      </trkpt>
      <trkpt lat="38.81507" lon="-8.24188">
        <ele>90.99406</ele>
        <time>2021-07-10T14:40:45Z</time>
      </trkpt>
      <trkpt lat="38.81392" lon="-8.24099">
        <ele>93.76453</ele>
        <time>2021-07-10T14:40:56Z</time>
      </trkpt>
      <trkpt lat="38.81257" lon="-8.23985">
        <ele>92.64239</ele>
        <time>2021-07-10T14:41:07Z</time>
      </trkpt>
      <trkpt lat="38.8113" lon="-8.23907">
        <ele>91.03199</ele>
        <time>2021-07-10T14:41:18Z</time>
      </trkpt>
      <trkpt lat="38.81022" lon="-8.23738">
        <ele>93.636</ele>
        <time>2021-07-10T14:41:29Z</time>
      </trkpt>
      <trkpt lat="38.80908" lon="-8.2356">
        <ele>93.23234</ele>
        <time>2021-07-10T14:41:40Z</time>
      </trkpt>
      <trkpt lat="38.80831" lon="-8.23361">
        <ele>92.94441</ele>
        <time>2021-07-10T14:41:51Z</time>
      </trkpt>
      <trkpt lat="38.80735" lon="-8.23289">
        <ele>95.91338</ele>
        <time>2021-07-10T14:42:02Z</time>
      </trkpt>
      <trkpt lat="38.80637" lon="-8.23213">
        <ele>100.5448</ele>
        <time>2021-07-10T14:42:13Z</time>
      </trkpt>
      <trkpt lat="38.80524" lon="-8.23159">
        <ele>98.13777</ele>
        <time>2021-07-10T14:42:24Z</time>
      </trkpt>
      <trkpt lat="38.8047" lon="-8.23054">
        <ele>107.1443</ele>
        <time>2021-07-10T14:42:35Z</time>
      </trkpt>
      <trkpt lat="38.80441" lon="-8.22985">
        <ele>113.9583</ele>
        <time>2021-07-10T14:42:46Z</time>
      </trkpt>
      <trkpt lat="38.80438" lon="-8.22981">
        <ele>118.6366</ele>
        <time>2021-07-10T14:42:59Z</time>
      </trkpt>
      <trkpt lat="38.80332" lon="-8.22867">
        <ele>128.2446</ele>
        <time>2021-07-10T14:43:10Z</time>
      </trkpt>
      <trkpt lat="38.80211" lon="-8.22819">
        <ele>136.4995</ele>
        <time>2021-07-10T14:43:21Z</time>
      </trkpt>
      <trkpt lat="38.80084" lon="-8.22812">
        <ele>141.7969</ele>
        <time>2021-07-10T14:43:32Z</time>
      </trkpt>
      <trkpt lat="38.79939" lon="-8.22825">
        <ele>143.8164</ele>
        <time>2021-07-10T14:43:43Z</time>
      </trkpt>
      <trkpt lat="38.79801" lon="-8.22862">
        <ele>149.5586</ele>
        <time>2021-07-10T14:43:54Z</time>
      </trkpt>
      <trkpt lat="38.79644" lon="-8.22849">
        <ele>155.6503</ele>
        <time>2021-07-10T14:44:05Z</time>
      </trkpt>
      <trkpt lat="38.79477" lon="-8.22836">
        <ele>161.5623</ele>
        <time>2021-07-10T14:44:16Z</time>
      </trkpt>
      <trkpt lat="38.79283" lon="-8.22806">
        <ele>169.2757</ele>
        <time>2021-07-10T14:44:27Z</time>
      </trkpt>
      <trkpt lat="38.79122" lon="-8.2271">
        <ele>170.0758</ele>
        <time>2021-07-10T14:44:38Z</time>
      </trkpt>
      <trkpt lat="38.78951" lon="-8.22664">
        <ele>166.3283</ele>
        <time>2021-07-10T14:44:49Z</time>
      </trkpt>
      <trkpt lat="38.78783" lon="-8.22653">
        <ele>172.4152</ele>
        <time>2021-07-10T14:45:00Z</time>
      </trkpt>
      <trkpt lat="38.78692" lon="-8.2254">
        <ele>168.4349</ele>
        <time>2021-07-10T14:45:11Z</time>
      </trkpt>
      <trkpt lat="38.78525" lon="-8.22589">
        <ele>165.0958</ele>
        <time>2021-07-10T14:45:22Z</time>
      </trkpt>
      <trkpt lat="38.7836" lon="-8.22632">
        <ele>148.2417</ele>
        <time>2021-07-10T14:45:33Z</time>
      </trkpt>
      <trkpt lat="38.78181" lon="-8.2267">
        <ele>161.9263</ele>
        <time>2021-07-10T14:45:44Z</time>
      </trkpt>
      <trkpt lat="38.78059" lon="-8.22691">
        <ele>174.4558</ele>
        <time>2021-07-10T14:45:55Z</time>
      </trkpt>
      <trkpt lat="38.77986" lon="-8.22704">
        <ele>177.3041</ele>
        <time>2021-07-10T14:46:06Z</time>
      </trkpt>
      <trkpt lat="38.77818" lon="-8.22778">
        <ele>176.9123</ele>
        <time>2021-07-10T14:46:17Z</time>
      </trkpt>
      <trkpt lat="38.77585" lon="-8.22898">
        <ele>171.7433</ele>
        <time>2021-07-10T14:46:28Z</time>
      </trkpt>
      <trkpt lat="38.77389" lon="-8.22988">
        <ele>158.4198</ele>
        <time>2021-07-10T14:46:39Z</time>
      </trkpt>
      <trkpt lat="38.77228" lon="-8.22979">
        <ele>151.685</ele>
        <time>2021-07-10T14:46:50Z</time>
      </trkpt>
      <trkpt lat="38.77104" lon="-8.22984">
        <ele>139.4463</ele>
        <time>2021-07-10T14:47:01Z</time>
      </trkpt>
      <trkpt lat="38.76936" lon="-8.23049">
        <ele>162.4649</ele>
        <time>2021-07-10T14:47:12Z</time>
      </trkpt>
      <trkpt lat="38.7669" lon="-8.23136">
        <ele>168.7634</ele>
        <time>2021-07-10T14:47:23Z</time>
      </trkpt>
      <trkpt lat="38.76491" lon="-8.23201">
        <ele>176.6107</ele>
        <time>2021-07-10T14:47:34Z</time>
      </trkpt>
      <trkpt lat="38.76398" lon="-8.23236">
        <ele>179.8744</ele>
        <time>2021-07-10T14:47:45Z</time>
      </trkpt>
      <trkpt lat="38.76488" lon="-8.23433">
        <ele>175.1669</ele>
        <time>2021-07-10T14:47:56Z</time>
      </trkpt>
      <trkpt lat="38.76607" lon="-8.23694">
        <ele>172.4952</ele>
        <time>2021-07-10T14:48:07Z</time>
      </trkpt>
      <trkpt lat="38.76724" lon="-8.23961">
        <ele>165.4003</ele>
        <time>2021-07-10T14:48:18Z</time>
      </trkpt>
      <trkpt lat="38.76814" lon="-8.24175">
        <ele>160.8161</ele>
        <time>2021-07-10T14:48:29Z</time>
      </trkpt>
      <trkpt lat="38.76875" lon="-8.2431">
        <ele>165.8638</ele>
        <time>2021-07-10T14:48:40Z</time>
      </trkpt>
      <trkpt lat="38.76819" lon="-8.24383">
        <ele>168.1004</ele>
        <time>2021-07-10T14:48:51Z</time>
      </trkpt>
      <trkpt lat="38.76709" lon="-8.2445">
        <ele>163.1438</ele>
        <time>2021-07-10T14:49:02Z</time>
      </trkpt>
      <trkpt lat="38.76629" lon="-8.24639">
        <ele>155.2899</ele>
        <time>2021-07-10T14:49:13Z</time>
      </trkpt>
      <trkpt lat="38.7657" lon="-8.2489">
        <ele>164.8427</ele>
        <time>2021-07-10T14:49:24Z</time>
      </trkpt>
      <trkpt lat="38.76559" lon="-8.25133">
        <ele>160.3744</ele>
        <time>2021-07-10T14:49:35Z</time>
      </trkpt>
      <trkpt lat="38.76548" lon="-8.25415">
        <ele>153.9501</ele>
        <time>2021-07-10T14:49:46Z</time>
      </trkpt>
      <trkpt lat="38.76576" lon="-8.25683">
        <ele>153.9883</ele>
        <time>2021-07-10T14:49:57Z</time>
      </trkpt>
      <trkpt lat="38.76566" lon="-8.25903">
        <ele>159.739</ele>
        <time>2021-07-10T14:50:08Z</time>
      </trkpt>
      <trkpt lat="38.765" lon="-8.26065">
        <ele>159.2918</ele>
        <time>2021-07-10T14:50:19Z</time>
      </trkpt>
      <trkpt lat="38.76364" lon="-8.26102">
        <ele>164.2701</ele>
        <time>2021-07-10T14:50:30Z</time>
      </trkpt>
      <trkpt lat="38.76182" lon="-8.26166">
        <ele>166.2696</ele>
        <time>2021-07-10T14:50:41Z</time>
      </trkpt>
      <trkpt lat="38.76018" lon="-8.26095">
        <ele>168.7399</ele>
        <time>2021-07-10T14:50:52Z</time>
      </trkpt>
      <trkpt lat="38.75856" lon="-8.2601">
        <ele>165.3045</ele>
        <time>2021-07-10T14:51:03Z</time>
      </trkpt>
      <trkpt lat="38.75662" lon="-8.26047">
        <ele>159.9997</ele>
        <time>2021-07-10T14:51:14Z</time>
      </trkpt>
      <trkpt lat="38.75511" lon="-8.26155">
        <ele>159.2009</ele>
        <time>2021-07-10T14:51:25Z</time>
      </trkpt>
      <trkpt lat="38.75378" lon="-8.26294">
        <ele>147.4084</ele>
        <time>2021-07-10T14:51:36Z</time>
      </trkpt>
      <trkpt lat="38.7522" lon="-8.26351">
        <ele>141.1836</ele>
        <time>2021-07-10T14:51:47Z</time>
      </trkpt>
      <trkpt lat="38.75121" lon="-8.26408">
        <ele>137.6125</ele>
        <time>2021-07-10T14:51:58Z</time>
      </trkpt>
      <trkpt lat="38.75004" lon="-8.26363">
        <ele>144.3814</ele>
        <time>2021-07-10T14:52:09Z</time>
      </trkpt>
      <trkpt lat="38.74974" lon="-8.2645">
        <ele>146.4982</ele>
        <time>2021-07-10T14:52:20Z</time>
      </trkpt>
      <trkpt lat="38.7491" lon="-8.26593">
        <ele>149.4399</ele>
        <time>2021-07-10T14:52:31Z</time>
      </trkpt>
      <trkpt lat="38.74753" lon="-8.26709">
        <ele>152.6837</ele>
        <time>2021-07-10T14:52:42Z</time>
      </trkpt>
      <trkpt lat="38.74569" lon="-8.26782">
        <ele>158.2508</ele>
        <time>2021-07-10T14:52:53Z</time>
      </trkpt>
      <trkpt lat="38.74472" lon="-8.26933">
        <ele>164.941</ele>
        <time>2021-07-10T14:53:04Z</time>
      </trkpt>
      <trkpt lat="38.74502" lon="-8.27139">
        <ele>160.3651</ele>
        <time>2021-07-10T14:53:15Z</time>
      </trkpt>
      <trkpt lat="38.74416" lon="-8.27267">
        <ele>159.1129</ele>
        <time>2021-07-10T14:53:26Z</time>
      </trkpt>
      <trkpt lat="38.74283" lon="-8.27276">
        <ele>158.3355</ele>
        <time>2021-07-10T14:53:37Z</time>
      </trkpt>
      <trkpt lat="38.74199" lon="-8.27396">
        <ele>161.6826</ele>
        <time>2021-07-10T14:53:48Z</time>
      </trkpt>
      <trkpt lat="38.74115" lon="-8.27497">
        <ele>162.4071</ele>
        <time>2021-07-10T14:53:59Z</time>
      </trkpt>
      <trkpt lat="38.73998" lon="-8.27516">
        <ele>172.1784</ele>
        <time>2021-07-10T14:54:10Z</time>
      </trkpt>
      <trkpt lat="38.73867" lon="-8.27538">
        <ele>181.4162</ele>
        <time>2021-07-10T14:54:21Z</time>
      </trkpt>
      <trkpt lat="38.73719" lon="-8.27572">
        <ele>181.5943</ele>
        <time>2021-07-10T14:54:32Z</time>
      </trkpt>
      <trkpt lat="38.736" lon="-8.27639">
        <ele>180.8655</ele>
        <time>2021-07-10T14:54:43Z</time>
      </trkpt>
      <trkpt lat="38.73482" lon="-8.27682">
        <ele>187.9717</ele>
        <time>2021-07-10T14:54:54Z</time>
      </trkpt>
      <trkpt lat="38.73354" lon="-8.27703">
        <ele>183.9056</ele>
        <time>2021-07-10T14:55:05Z</time>
      </trkpt>
      <trkpt lat="38.73189" lon="-8.27688">
        <ele>183.6573</ele>
        <time>2021-07-10T14:55:16Z</time>
      </trkpt>
      <trkpt lat="38.73039" lon="-8.27606">
        <ele>184.7261</ele>
        <time>2021-07-10T14:55:27Z</time>
      </trkpt>
      <trkpt lat="38.7291" lon="-8.27552">
        <ele>187.5965</ele>
        <time>2021-07-10T14:55:38Z</time>
      </trkpt>
      <trkpt lat="38.72773" lon="-8.27505">
        <ele>193.8854</ele>
        <time>2021-07-10T14:55:49Z</time>
      </trkpt>
      <trkpt lat="38.72605" lon="-8.27525">
        <ele>195.2209</ele>
        <time>2021-07-10T14:56:00Z</time>
      </trkpt>
      <trkpt lat="38.72432" lon="-8.2756">
        <ele>195.5424</ele>
        <time>2021-07-10T14:56:11Z</time>
      </trkpt>
      <trkpt lat="38.72195" lon="-8.27583">
        <ele>198.4455</ele>
        <time>2021-07-10T14:56:22Z</time>
      </trkpt>
      <trkpt lat="38.72016" lon="-8.27573">
        <ele>195.7951</ele>
        <time>2021-07-10T14:56:33Z</time>
      </trkpt>
      <trkpt lat="38.71817" lon="-8.2752">
        <ele>198.8371</ele>
        <time>2021-07-10T14:56:44Z</time>
      </trkpt>
      <trkpt lat="38.71684" lon="-8.27604">
        <ele>201.41</ele>
        <time>2021-07-10T14:56:55Z</time>
      </trkpt>
      <trkpt lat="38.71502" lon="-8.2781">
        <ele>195.8338</ele>
        <time>2021-07-10T14:57:06Z</time>
      </trkpt>
      <trkpt lat="38.71299" lon="-8.28013">
        <ele>190.5529</ele>
        <time>2021-07-10T14:57:17Z</time>
      </trkpt>
      <trkpt lat="38.71093" lon="-8.28111">
        <ele>187.0574</ele>
        <time>2021-07-10T14:57:28Z</time>
      </trkpt>
      <trkpt lat="38.70893" lon="-8.28243">
        <ele>182.4421</ele>
        <time>2021-07-10T14:57:39Z</time>
      </trkpt>
      <trkpt lat="38.70818" lon="-8.28294">
        <ele>181.0822</ele>
        <time>2021-07-10T14:57:50Z</time>
      </trkpt>
      <trkpt lat="38.7081" lon="-8.28299">
        <ele>182.625</ele>
        <time>2021-07-10T14:58:05Z</time>
      </trkpt>
      <trkpt lat="38.70634" lon="-8.28408">
        <ele>180.0741</ele>
        <time>2021-07-10T14:58:16Z</time>
      </trkpt>
      <trkpt lat="38.70529" lon="-8.28474">
        <ele>177.2585</ele>
        <time>2021-07-10T14:58:27Z</time>
      </trkpt>
      <trkpt lat="38.70449" lon="-8.28474">
        <ele>178.5658</ele>
        <time>2021-07-10T14:58:38Z</time>
      </trkpt>
      <trkpt lat="38.70383" lon="-8.28469">
        <ele>178.1304</ele>
        <time>2021-07-10T14:58:49Z</time>
      </trkpt>
      <trkpt lat="38.70295" lon="-8.28403">
        <ele>178.0093</ele>
        <time>2021-07-10T14:59:00Z</time>
      </trkpt>
      <trkpt lat="38.70235" lon="-8.28333">
        <ele>179.0571</ele>
        <time>2021-07-10T14:59:11Z</time>
      </trkpt>
      <trkpt lat="38.70127" lon="-8.28286">
        <ele>183.1193</ele>
        <time>2021-07-10T14:59:22Z</time>
      </trkpt>
      <trkpt lat="38.70007" lon="-8.28255">
        <ele>183.9655</ele>
        <time>2021-07-10T14:59:33Z</time>
      </trkpt>
      <trkpt lat="38.69869" lon="-8.28235">
        <ele>181.4803</ele>
        <time>2021-07-10T14:59:45Z</time>
      </trkpt>
      <trkpt lat="38.69755" lon="-8.28235">
        <ele>183.8876</ele>
        <time>2021-07-10T14:59:56Z</time>
      </trkpt>
      <trkpt lat="38.69644" lon="-8.28264">
        <ele>185.1813</ele>
        <time>2021-07-10T15:00:07Z</time>
      </trkpt>
      <trkpt lat="38.6953" lon="-8.28271">
        <ele>180.7739</ele>
        <time>2021-07-10T15:00:18Z</time>
      </trkpt>
      <trkpt lat="38.69403" lon="-8.28242">
        <ele>176.5619</ele>
        <time>2021-07-10T15:00:29Z</time>
      </trkpt>
      <trkpt lat="38.69273" lon="-8.28217">
        <ele>177.5956</ele>
        <time>2021-07-10T15:00:40Z</time>
      </trkpt>
      <trkpt lat="38.69194" lon="-8.28231">
        <ele>175.9994</ele>
        <time>2021-07-10T15:00:51Z</time>
      </trkpt>
      <trkpt lat="38.69093" lon="-8.28283">
        <ele>175.0922</ele>
        <time>2021-07-10T15:01:02Z</time>
      </trkpt>
      <trkpt lat="38.68977" lon="-8.28341">
        <ele>167.2924</ele>
        <time>2021-07-10T15:01:13Z</time>
      </trkpt>
      <trkpt lat="38.6891" lon="-8.28379">
        <ele>170.392</ele>
        <time>2021-07-10T15:01:24Z</time>
      </trkpt>
      <trkpt lat="38.68908" lon="-8.28382">
        <ele>174.8993</ele>
        <time>2021-07-10T15:01:35Z</time>
      </trkpt>
      <trkpt lat="38.68904" lon="-8.28387">
        <ele>174.4281</ele>
        <time>2021-07-10T15:02:06Z</time>
      </trkpt>
      <trkpt lat="38.68863" lon="-8.28439">
        <ele>168.7038</ele>
        <time>2021-07-10T15:02:17Z</time>
      </trkpt>
      <trkpt lat="38.6883" lon="-8.28475">
        <ele>165.0711</ele>
        <time>2021-07-10T15:02:28Z</time>
      </trkpt>
      <trkpt lat="38.68826" lon="-8.28482">
        <ele>165.8643</ele>
        <time>2021-07-10T15:02:53Z</time>
      </trkpt>
      <trkpt lat="38.68774" lon="-8.28558">
        <ele>163.1875</ele>
        <time>2021-07-10T15:03:04Z</time>
      </trkpt>
      <trkpt lat="38.68665" lon="-8.28583">
        <ele>158.0081</ele>
        <time>2021-07-10T15:03:15Z</time>
      </trkpt>
      <trkpt lat="38.68571" lon="-8.28591">
        <ele>152.4903</ele>
        <time>2021-07-10T15:03:26Z</time>
      </trkpt>
      <trkpt lat="38.6849" lon="-8.28625">
        <ele>142.7118</ele>
        <time>2021-07-10T15:03:37Z</time>
      </trkpt>
      <trkpt lat="38.68405" lon="-8.28547">
        <ele>139.5739</ele>
        <time>2021-07-10T15:03:48Z</time>
      </trkpt>
      <trkpt lat="38.68364" lon="-8.28473">
        <ele>134.3515</ele>
        <time>2021-07-10T15:03:59Z</time>
      </trkpt>
      <trkpt lat="38.68321" lon="-8.28431">
        <ele>128.0572</ele>
        <time>2021-07-10T15:04:10Z</time>
      </trkpt>
      <trkpt lat="38.68295" lon="-8.28384">
        <ele>125.0153</ele>
        <time>2021-07-10T15:04:21Z</time>
      </trkpt>
      <trkpt lat="38.68257" lon="-8.28397">
        <ele>123.0078</ele>
        <time>2021-07-10T15:04:32Z</time>
      </trkpt>
      <trkpt lat="38.68215" lon="-8.28375">
        <ele>123.9542</ele>
        <time>2021-07-10T15:04:43Z</time>
      </trkpt>
      <trkpt lat="38.6815" lon="-8.28356">
        <ele>128.8901</ele>
        <time>2021-07-10T15:04:54Z</time>
      </trkpt>
      <trkpt lat="38.68126" lon="-8.28351">
        <ele>131.0651</ele>
        <time>2021-07-10T15:05:05Z</time>
      </trkpt>
      <trkpt lat="38.68102" lon="-8.28417">
        <ele>131.3115</ele>
        <time>2021-07-10T15:05:16Z</time>
      </trkpt>
      <trkpt lat="38.68035" lon="-8.28507">
        <ele>131.9759</ele>
        <time>2021-07-10T15:05:27Z</time>
      </trkpt>
      <trkpt lat="38.67955" lon="-8.28539">
        <ele>130.6804</ele>
        <time>2021-07-10T15:05:38Z</time>
      </trkpt>
      <trkpt lat="38.67861" lon="-8.28586">
        <ele>137.3381</ele>
        <time>2021-07-10T15:05:49Z</time>
      </trkpt>
      <trkpt lat="38.67759" lon="-8.28596">
        <ele>145.0857</ele>
        <time>2021-07-10T15:06:00Z</time>
      </trkpt>
      <trkpt lat="38.67593" lon="-8.28589">
        <ele>148.75</ele>
        <time>2021-07-10T15:06:11Z</time>
      </trkpt>
      <trkpt lat="38.6745" lon="-8.28618">
        <ele>155.1267</ele>
        <time>2021-07-10T15:06:22Z</time>
      </trkpt>
      <trkpt lat="38.67385" lon="-8.28514">
        <ele>168.8137</ele>
        <time>2021-07-10T15:06:33Z</time>
      </trkpt>
      <trkpt lat="38.6733" lon="-8.28275">
        <ele>183.4479</ele>
        <time>2021-07-10T15:06:44Z</time>
      </trkpt>
      <trkpt lat="38.67249" lon="-8.28058">
        <ele>176.7174</ele>
        <time>2021-07-10T15:06:55Z</time>
      </trkpt>
      <trkpt lat="38.67132" lon="-8.27806">
        <ele>173.0043</ele>
        <time>2021-07-10T15:07:06Z</time>
      </trkpt>
      <trkpt lat="38.67018" lon="-8.27562">
        <ele>174.6421</ele>
        <time>2021-07-10T15:07:17Z</time>
      </trkpt>
      <trkpt lat="38.66894" lon="-8.27407">
        <ele>171.9836</ele>
        <time>2021-07-10T15:07:28Z</time>
      </trkpt>
      <trkpt lat="38.668" lon="-8.27201">
        <ele>156.0402</ele>
        <time>2021-07-10T15:07:39Z</time>
      </trkpt>
      <trkpt lat="38.66659" lon="-8.27011">
        <ele>183.2387</ele>
        <time>2021-07-10T15:07:50Z</time>
      </trkpt>
      <trkpt lat="38.66491" lon="-8.269">
        <ele>185.867</ele>
        <time>2021-07-10T15:08:01Z</time>
      </trkpt>
      <trkpt lat="38.66319" lon="-8.26859">
        <ele>187.6028</ele>
        <time>2021-07-10T15:08:12Z</time>
      </trkpt>
      <trkpt lat="38.66238" lon="-8.26781">
        <ele>192.5835</ele>
        <time>2021-07-10T15:08:23Z</time>
      </trkpt>
      <trkpt lat="38.66303" lon="-8.26629">
        <ele>188.4539</ele>
        <time>2021-07-10T15:08:34Z</time>
      </trkpt>
      <trkpt lat="38.66356" lon="-8.26413">
        <ele>182.6367</ele>
        <time>2021-07-10T15:08:45Z</time>
      </trkpt>
      <trkpt lat="38.66468" lon="-8.2623">
        <ele>179.7087</ele>
        <time>2021-07-10T15:08:56Z</time>
      </trkpt>
      <trkpt lat="38.66526" lon="-8.261">
        <ele>179.3165</ele>
        <time>2021-07-10T15:09:07Z</time>
      </trkpt>
      <trkpt lat="38.66512" lon="-8.25885">
        <ele>169.0325</ele>
        <time>2021-07-10T15:09:18Z</time>
      </trkpt>
      <trkpt lat="38.66458" lon="-8.25694">
        <ele>168.1005</ele>
        <time>2021-07-10T15:09:29Z</time>
      </trkpt>
      <trkpt lat="38.66331" lon="-8.25567">
        <ele>170.9848</ele>
        <time>2021-07-10T15:09:40Z</time>
      </trkpt>
      <trkpt lat="38.66253" lon="-8.25464">
        <ele>173.3286</ele>
        <time>2021-07-10T15:09:51Z</time>
      </trkpt>
      <trkpt lat="38.66238" lon="-8.25321">
        <ele>170.5231</ele>
        <time>2021-07-10T15:10:02Z</time>
      </trkpt>
      <trkpt lat="38.66253" lon="-8.25025">
        <ele>159.4975</ele>
        <time>2021-07-10T15:10:13Z</time>
      </trkpt>
      <trkpt lat="38.66268" lon="-8.2483">
        <ele>152.9039</ele>
        <time>2021-07-10T15:10:24Z</time>
      </trkpt>
      <trkpt lat="38.66317" lon="-8.24661">
        <ele>147.2322</ele>
        <time>2021-07-10T15:10:35Z</time>
      </trkpt>
      <trkpt lat="38.66367" lon="-8.2455">
        <ele>148.6275</ele>
        <time>2021-07-10T15:10:46Z</time>
      </trkpt>
      <trkpt lat="38.6642" lon="-8.24469">
        <ele>153.9212</ele>
        <time>2021-07-10T15:10:57Z</time>
      </trkpt>
      <trkpt lat="38.66397" lon="-8.24519">
        <ele>153.8327</ele>
        <time>2021-07-10T15:11:08Z</time>
      </trkpt>
      <trkpt lat="38.66363" lon="-8.24567">
        <ele>144.3397</ele>
        <time>2021-07-10T15:11:19Z</time>
      </trkpt>
      <trkpt lat="38.66347" lon="-8.24575">
        <ele>147.0933</ele>
        <time>2021-07-10T15:11:30Z</time>
      </trkpt>
      <trkpt lat="38.6642" lon="-8.24466">
        <ele>146.0048</ele>
        <time>2021-07-10T15:11:41Z</time>
      </trkpt>
      <trkpt lat="38.66391" lon="-8.2436">
        <ele>150.2265</ele>
        <time>2021-07-10T15:11:52Z</time>
      </trkpt>
      <trkpt lat="38.66276" lon="-8.2415">
        <ele>154.7715</ele>
        <time>2021-07-10T15:12:03Z</time>
      </trkpt>
      <trkpt lat="38.66151" lon="-8.23975">
        <ele>162.3139</ele>
        <time>2021-07-10T15:12:14Z</time>
      </trkpt>
      <trkpt lat="38.6614" lon="-8.2396">
        <ele>161.786</ele>
        <time>2021-07-10T15:12:25Z</time>
      </trkpt>
      <trkpt lat="38.66142" lon="-8.23956">
        <ele>161.574</ele>
        <time>2021-07-10T15:12:44Z</time>
      </trkpt>
      <trkpt lat="38.66138" lon="-8.23955">
        <ele>161.1483</ele>
        <time>2021-07-10T15:13:15Z</time>
      </trkpt>
      <trkpt lat="38.66135" lon="-8.2396">
        <ele>161.4282</ele>
        <time>2021-07-10T15:13:40Z</time>
      </trkpt>
      <trkpt lat="38.66138" lon="-8.23958">
        <ele>161.3358</ele>
        <time>2021-07-10T15:14:40Z</time>
      </trkpt>
      <trkpt lat="38.66122" lon="-8.23895">
        <ele>163.3387</ele>
        <time>2021-07-10T15:14:51Z</time>
      </trkpt>
      <trkpt lat="38.66082" lon="-8.23728">
        <ele>163.5604</ele>
        <time>2021-07-10T15:15:02Z</time>
      </trkpt>
      <trkpt lat="38.6602" lon="-8.23581">
        <ele>159.8248</ele>
        <time>2021-07-10T15:15:13Z</time>
      </trkpt>
      <trkpt lat="38.65914" lon="-8.23524">
        <ele>156.7643</ele>
        <time>2021-07-10T15:15:24Z</time>
      </trkpt>
      <trkpt lat="38.65789" lon="-8.23508">
        <ele>155.7976</ele>
        <time>2021-07-10T15:15:35Z</time>
      </trkpt>
      <trkpt lat="38.65656" lon="-8.23396">
        <ele>165.8991</ele>
        <time>2021-07-10T15:15:46Z</time>
      </trkpt>
      <trkpt lat="38.65538" lon="-8.23335">
        <ele>172.9742</ele>
        <time>2021-07-10T15:15:57Z</time>
      </trkpt>
      <trkpt lat="38.65406" lon="-8.23209">
        <ele>188.9741</ele>
        <time>2021-07-10T15:16:08Z</time>
      </trkpt>
      <trkpt lat="38.65313" lon="-8.23049">
        <ele>195.6929</ele>
        <time>2021-07-10T15:16:19Z</time>
      </trkpt>
      <trkpt lat="38.65291" lon="-8.22917">
        <ele>199.6575</ele>
        <time>2021-07-10T15:16:30Z</time>
      </trkpt>
      <trkpt lat="38.65345" lon="-8.2283">
        <ele>203.2188</ele>
        <time>2021-07-10T15:16:41Z</time>
      </trkpt>
      <trkpt lat="38.65374" lon="-8.22684">
        <ele>211.6733</ele>
        <time>2021-07-10T15:16:52Z</time>
      </trkpt>
      <trkpt lat="38.65393" lon="-8.22583">
        <ele>214.5089</ele>
        <time>2021-07-10T15:17:03Z</time>
      </trkpt>
      <trkpt lat="38.65425" lon="-8.22468">
        <ele>211.3097</ele>
        <time>2021-07-10T15:17:14Z</time>
      </trkpt>
      <trkpt lat="38.65369" lon="-8.22382">
        <ele>214.6145</ele>
        <time>2021-07-10T15:17:25Z</time>
      </trkpt>
      <trkpt lat="38.65268" lon="-8.22275">
        <ele>218.232</ele>
        <time>2021-07-10T15:17:36Z</time>
      </trkpt>
      <trkpt lat="38.65168" lon="-8.22176">
        <ele>226.2725</ele>
        <time>2021-07-10T15:17:47Z</time>
      </trkpt>
      <trkpt lat="38.65092" lon="-8.2211">
        <ele>226.3298</ele>
        <time>2021-07-10T15:17:58Z</time>
      </trkpt>
      <trkpt lat="38.65053" lon="-8.2201">
        <ele>222.8258</ele>
        <time>2021-07-10T15:18:09Z</time>
      </trkpt>
      <trkpt lat="38.65047" lon="-8.21998">
        <ele>224.6591</ele>
        <time>2021-07-10T15:18:20Z</time>
      </trkpt>
      <trkpt lat="38.65001" lon="-8.21985">
        <ele>227.2594</ele>
        <time>2021-07-10T15:18:31Z</time>
      </trkpt>
      <trkpt lat="38.64992" lon="-8.21876">
        <ele>225.1028</ele>
        <time>2021-07-10T15:18:42Z</time>
      </trkpt>
      <trkpt lat="38.64946" lon="-8.21855">
        <ele>225.2972</ele>
        <time>2021-07-10T15:18:53Z</time>
      </trkpt>
      <trkpt lat="38.64958" lon="-8.21862">
        <ele>224.6069</ele>
        <time>2021-07-10T15:19:04Z</time>
      </trkpt>
      <trkpt lat="38.64966" lon="-8.2186">
        <ele>225.2031</ele>
        <time>2021-07-10T15:19:15Z</time>
      </trkpt>
      <trkpt lat="38.64966" lon="-8.21855">
        <ele>225.2219</ele>
        <time>2021-07-10T15:19:42Z</time>
      </trkpt>
      <trkpt lat="38.64966" lon="-8.21855">
        <ele>225.2222</ele>
        <time>2021-07-10T15:20:42Z</time>
      </trkpt>
      <trkpt lat="38.6498" lon="-8.21871">
        <ele>224.7658</ele>
        <time>2021-07-10T15:22:25Z</time>
      </trkpt>
      <trkpt lat="38.64965" lon="-8.2187">
        <ele>223.9614</ele>
        <time>2021-07-10T15:22:36Z</time>
      </trkpt>
      <trkpt lat="38.64967" lon="-8.21865">
        <ele>224.5031</ele>
        <time>2021-07-10T15:23:02Z</time>
      </trkpt>
      <trkpt lat="38.64966" lon="-8.2186">
        <ele>224.6049</ele>
        <time>2021-07-10T15:23:43Z</time>
      </trkpt>
      <trkpt lat="38.64964" lon="-8.21856">
        <ele>225.0439</ele>
        <time>2021-07-10T15:24:10Z</time>
      </trkpt>
      <trkpt lat="38.6496" lon="-8.21855">
        <ele>226.4539</ele>
        <time>2021-07-10T15:24:41Z</time>
      </trkpt>
      <trkpt lat="38.64963" lon="-8.21859">
        <ele>225.5372</ele>
        <time>2021-07-10T15:24:52Z</time>
      </trkpt>
      <trkpt lat="38.64961" lon="-8.21863">
        <ele>224.8836</ele>
        <time>2021-07-10T15:25:41Z</time>
      </trkpt>
      <trkpt lat="38.6496" lon="-8.21859">
        <ele>225.0453</ele>
        <time>2021-07-10T15:26:15Z</time>
      </trkpt>
      <trkpt lat="38.64962" lon="-8.21855">
        <ele>225.8806</ele>
        <time>2021-07-10T15:26:34Z</time>
      </trkpt>
      <trkpt lat="38.64961" lon="-8.2186">
        <ele>225.1824</ele>
        <time>2021-07-10T15:27:05Z</time>
      </trkpt>
      <trkpt lat="38.64962" lon="-8.21854">
        <ele>225.2063</ele>
        <time>2021-07-10T15:27:36Z</time>
      </trkpt>
      <trkpt lat="38.64961" lon="-8.21859">
        <ele>225.5135</ele>
        <time>2021-07-10T15:27:57Z</time>
      </trkpt>
      <trkpt lat="38.64962" lon="-8.21863">
        <ele>224.8736</ele>
        <time>2021-07-10T15:28:28Z</time>
      </trkpt>
      <trkpt lat="38.64964" lon="-8.21868">
        <ele>224.3697</ele>
        <time>2021-07-10T15:28:41Z</time>
      </trkpt>
      <trkpt lat="38.64963" lon="-8.21868">
        <ele>224.7478</ele>
        <time>2021-07-10T15:29:40Z</time>
      </trkpt>
      <trkpt lat="38.64963" lon="-8.21863">
        <ele>224.54</ele>
        <time>2021-07-10T15:29:57Z</time>
      </trkpt>
      <trkpt lat="38.64962" lon="-8.21859">
        <ele>225.3649</ele>
        <time>2021-07-10T15:30:12Z</time>
      </trkpt>
      <trkpt lat="38.64962" lon="-8.21863">
        <ele>224.8144</ele>
        <time>2021-07-10T15:30:39Z</time>
      </trkpt>
      <trkpt lat="38.64963" lon="-8.21864">
        <ele>223.6175</ele>
        <time>2021-07-10T15:31:39Z</time>
      </trkpt>
      <trkpt lat="38.64965" lon="-8.21868">
        <ele>225.8148</ele>
        <time>2021-07-10T15:32:07Z</time>
      </trkpt>
      <trkpt lat="38.64968" lon="-8.21872">
        <ele>223.6439</ele>
        <time>2021-07-10T15:33:09Z</time>
      </trkpt>
      <trkpt lat="38.64964" lon="-8.21879">
        <ele>223.6</ele>
        <time>2021-07-10T15:33:20Z</time>
      </trkpt>
      <trkpt lat="38.64963" lon="-8.21874">
        <ele>224.7817</ele>
        <time>2021-07-10T15:33:41Z</time>
      </trkpt>
      <trkpt lat="38.64963" lon="-8.2187">
        <ele>225.4125</ele>
        <time>2021-07-10T15:33:59Z</time>
      </trkpt>
      <trkpt lat="38.64963" lon="-8.21863">
        <ele>224.1328</ele>
        <time>2021-07-10T15:34:32Z</time>
      </trkpt>
      <trkpt lat="38.64963" lon="-8.21859">
        <ele>224.8445</ele>
        <time>2021-07-10T15:34:43Z</time>
      </trkpt>
      <trkpt lat="38.64965" lon="-8.21852">
        <ele>225.5952</ele>
        <time>2021-07-10T15:34:54Z</time>
      </trkpt>
      <trkpt lat="38.64961" lon="-8.21857">
        <ele>225.5037</ele>
        <time>2021-07-10T15:35:05Z</time>
      </trkpt>
      <trkpt lat="38.64961" lon="-8.21862">
        <ele>224.3685</ele>
        <time>2021-07-10T15:35:23Z</time>
      </trkpt>
      <trkpt lat="38.64961" lon="-8.21867">
        <ele>224.2135</ele>
        <time>2021-07-10T15:35:34Z</time>
      </trkpt>
      <trkpt lat="38.64963" lon="-8.21872">
        <ele>223.842</ele>
        <time>2021-07-10T15:36:04Z</time>
      </trkpt>
      <trkpt lat="38.64966" lon="-8.21868">
        <ele>225.3884</ele>
        <time>2021-07-10T15:36:22Z</time>
      </trkpt>
      <trkpt lat="38.64965" lon="-8.21865">
        <ele>223.7336</ele>
        <time>2021-07-10T15:37:22Z</time>
      </trkpt>
      <trkpt lat="38.64965" lon="-8.21871">
        <ele>223.9899</ele>
        <time>2021-07-10T15:38:02Z</time>
      </trkpt>
      <trkpt lat="38.64982" lon="-8.2187">
        <ele>224.8168</ele>
        <time>2021-07-10T15:46:41Z</time>
      </trkpt>
      <trkpt lat="38.64969" lon="-8.21853">
        <ele>224.8818</ele>
        <time>2021-07-10T15:46:52Z</time>
      </trkpt>
      <trkpt lat="38.64966" lon="-8.21857">
        <ele>225.2814</ele>
        <time>2021-07-10T15:47:07Z</time>
      </trkpt>
      <trkpt lat="38.64967" lon="-8.21856">
        <ele>225.056</ele>
        <time>2021-07-10T15:48:07Z</time>
      </trkpt>
      <trkpt lat="38.64966" lon="-8.21849">
        <ele>225.5938</ele>
        <time>2021-07-10T15:48:22Z</time>
      </trkpt>
      <trkpt lat="38.64965" lon="-8.21845">
        <ele>226.9308</ele>
        <time>2021-07-10T15:48:34Z</time>
      </trkpt>
      <trkpt lat="38.64976" lon="-8.21899">
        <ele>222.6039</ele>
        <time>2021-07-10T15:48:45Z</time>
      </trkpt>
      <trkpt lat="38.64941" lon="-8.21943">
        <ele>218.0599</ele>
        <time>2021-07-10T15:48:56Z</time>
      </trkpt>
      <trkpt lat="38.64913" lon="-8.21911">
        <ele>218.0754</ele>
        <time>2021-07-10T15:49:07Z</time>
      </trkpt>
      <trkpt lat="38.64927" lon="-8.21845">
        <ele>224.4708</ele>
        <time>2021-07-10T15:49:18Z</time>
      </trkpt>
      <trkpt lat="38.64978" lon="-8.21843">
        <ele>225.9609</ele>
        <time>2021-07-10T15:49:29Z</time>
      </trkpt>
      <trkpt lat="38.64953" lon="-8.21719">
        <ele>232.0972</ele>
        <time>2021-07-10T15:49:40Z</time>
      </trkpt>
      <trkpt lat="38.64915" lon="-8.21554">
        <ele>237.0681</ele>
        <time>2021-07-10T15:49:51Z</time>
      </trkpt>
      <trkpt lat="38.64873" lon="-8.21384">
        <ele>244.08</ele>
        <time>2021-07-10T15:50:02Z</time>
      </trkpt>
      <trkpt lat="38.64833" lon="-8.21215">
        <ele>243.7477</ele>
        <time>2021-07-10T15:50:13Z</time>
      </trkpt>
      <trkpt lat="38.648" lon="-8.21085">
        <ele>241.4702</ele>
        <time>2021-07-10T15:50:24Z</time>
      </trkpt>
      <trkpt lat="38.64764" lon="-8.20942">
        <ele>241.335</ele>
        <time>2021-07-10T15:50:35Z</time>
      </trkpt>
      <trkpt lat="38.64727" lon="-8.20794">
        <ele>242.1232</ele>
        <time>2021-07-10T15:50:46Z</time>
      </trkpt>
      <trkpt lat="38.64689" lon="-8.20636">
        <ele>234.5919</ele>
        <time>2021-07-10T15:50:57Z</time>
      </trkpt>
      <trkpt lat="38.64651" lon="-8.20487">
        <ele>230.4383</ele>
        <time>2021-07-10T15:51:08Z</time>
      </trkpt>
      <trkpt lat="38.64619" lon="-8.20351">
        <ele>229.9382</ele>
        <time>2021-07-10T15:51:19Z</time>
      </trkpt>
      <trkpt lat="38.64587" lon="-8.20414">
        <ele>228.992</ele>
        <time>2021-07-10T15:51:30Z</time>
      </trkpt>
      <trkpt lat="38.64562" lon="-8.20545">
        <ele>227.1288</ele>
        <time>2021-07-10T15:51:41Z</time>
      </trkpt>
      <trkpt lat="38.64529" lon="-8.20677">
        <ele>227.7446</ele>
        <time>2021-07-10T15:51:52Z</time>
      </trkpt>
      <trkpt lat="38.64498" lon="-8.20767">
        <ele>227.6512</ele>
        <time>2021-07-10T15:52:03Z</time>
      </trkpt>
      <trkpt lat="38.64456" lon="-8.20885">
        <ele>227.7512</ele>
        <time>2021-07-10T15:52:14Z</time>
      </trkpt>
      <trkpt lat="38.64456" lon="-8.20969">
        <ele>228.8216</ele>
        <time>2021-07-10T15:52:25Z</time>
      </trkpt>
      <trkpt lat="38.64416" lon="-8.21017">
        <ele>231.8772</ele>
        <time>2021-07-10T15:52:36Z</time>
      </trkpt>
      <trkpt lat="38.644" lon="-8.21076">
        <ele>234.3239</ele>
        <time>2021-07-10T15:52:47Z</time>
      </trkpt>
      <trkpt lat="38.64372" lon="-8.21214">
        <ele>244.6487</ele>
        <time>2021-07-10T15:52:58Z</time>
      </trkpt>
      <trkpt lat="38.64346" lon="-8.21308">
        <ele>250.7578</ele>
        <time>2021-07-10T15:53:09Z</time>
      </trkpt>
      <trkpt lat="38.64243" lon="-8.21242">
        <ele>246.7662</ele>
        <time>2021-07-10T15:53:20Z</time>
      </trkpt>
      <trkpt lat="38.64128" lon="-8.21121">
        <ele>234.3628</ele>
        <time>2021-07-10T15:53:31Z</time>
      </trkpt>
      <trkpt lat="38.63999" lon="-8.20995">
        <ele>228.8624</ele>
        <time>2021-07-10T15:53:42Z</time>
      </trkpt>
      <trkpt lat="38.63876" lon="-8.20803">
        <ele>214.4107</ele>
        <time>2021-07-10T15:53:53Z</time>
      </trkpt>
      <trkpt lat="38.63708" lon="-8.20769">
        <ele>204.0071</ele>
        <time>2021-07-10T15:54:04Z</time>
      </trkpt>
      <trkpt lat="38.63554" lon="-8.20706">
        <ele>198.5242</ele>
        <time>2021-07-10T15:54:15Z</time>
      </trkpt>
      <trkpt lat="38.63443" lon="-8.20656">
        <ele>189.4278</ele>
        <time>2021-07-10T15:54:26Z</time>
      </trkpt>
      <trkpt lat="38.63384" lon="-8.20664">
        <ele>192.2041</ele>
        <time>2021-07-10T15:54:37Z</time>
      </trkpt>
      <trkpt lat="38.63296" lon="-8.20733">
        <ele>196.0037</ele>
        <time>2021-07-10T15:54:48Z</time>
      </trkpt>
      <trkpt lat="38.63099" lon="-8.20811">
        <ele>201.4851</ele>
        <time>2021-07-10T15:54:59Z</time>
      </trkpt>
      <trkpt lat="38.6295" lon="-8.20881">
        <ele>211.9389</ele>
        <time>2021-07-10T15:55:10Z</time>
      </trkpt>
      <trkpt lat="38.62739" lon="-8.2088">
        <ele>211.5597</ele>
        <time>2021-07-10T15:55:21Z</time>
      </trkpt>
      <trkpt lat="38.62526" lon="-8.20925">
        <ele>232.2976</ele>
        <time>2021-07-10T15:55:32Z</time>
      </trkpt>
      <trkpt lat="38.62301" lon="-8.20938">
        <ele>232.9373</ele>
        <time>2021-07-10T15:55:43Z</time>
      </trkpt>
      <trkpt lat="38.62073" lon="-8.20923">
        <ele>235.5416</ele>
        <time>2021-07-10T15:55:54Z</time>
      </trkpt>
      <trkpt lat="38.61886" lon="-8.20871">
        <ele>241.214</ele>
        <time>2021-07-10T15:56:05Z</time>
      </trkpt>
      <trkpt lat="38.61649" lon="-8.20852">
        <ele>254.4742</ele>
        <time>2021-07-10T15:56:16Z</time>
      </trkpt>
      <trkpt lat="38.61474" lon="-8.20767">
        <ele>253.4887</ele>
        <time>2021-07-10T15:56:27Z</time>
      </trkpt>
      <trkpt lat="38.61306" lon="-8.20719">
        <ele>253.8589</ele>
        <time>2021-07-10T15:56:38Z</time>
      </trkpt>
      <trkpt lat="38.61201" lon="-8.20684">
        <ele>256.8588</ele>
        <time>2021-07-10T15:56:49Z</time>
      </trkpt>
      <trkpt lat="38.61137" lon="-8.20642">
        <ele>260.694</ele>
        <time>2021-07-10T15:57:00Z</time>
      </trkpt>
      <trkpt lat="38.61043" lon="-8.20534">
        <ele>262.3274</ele>
        <time>2021-07-10T15:57:11Z</time>
      </trkpt>
      <trkpt lat="38.61011" lon="-8.20574">
        <ele>263.9377</ele>
        <time>2021-07-10T15:57:22Z</time>
      </trkpt>
      <trkpt lat="38.6101" lon="-8.20579">
        <ele>264.4604</ele>
        <time>2021-07-10T15:57:34Z</time>
      </trkpt>
      <trkpt lat="38.60914" lon="-8.20742">
        <ele>258.7013</ele>
        <time>2021-07-10T15:57:45Z</time>
      </trkpt>
      <trkpt lat="38.60799" lon="-8.20936">
        <ele>268.4624</ele>
        <time>2021-07-10T15:57:56Z</time>
      </trkpt>
      <trkpt lat="38.60678" lon="-8.2114">
        <ele>279.8233</ele>
        <time>2021-07-10T15:58:07Z</time>
      </trkpt>
      <trkpt lat="38.60561" lon="-8.21336">
        <ele>296.0115</ele>
        <time>2021-07-10T15:58:18Z</time>
      </trkpt>
      <trkpt lat="38.60485" lon="-8.21464">
        <ele>294.672</ele>
        <time>2021-07-10T15:58:29Z</time>
      </trkpt>
      <trkpt lat="38.60445" lon="-8.2149">
        <ele>296.543</ele>
        <time>2021-07-10T15:58:40Z</time>
      </trkpt>
      <trkpt lat="38.60357" lon="-8.21479">
        <ele>302.1558</ele>
        <time>2021-07-10T15:58:51Z</time>
      </trkpt>
      <trkpt lat="38.60268" lon="-8.21468">
        <ele>311.1561</ele>
        <time>2021-07-10T15:59:02Z</time>
      </trkpt>
      <trkpt lat="38.60197" lon="-8.21495">
        <ele>317.7051</ele>
        <time>2021-07-10T15:59:13Z</time>
      </trkpt>
      <trkpt lat="38.60237" lon="-8.21591">
        <ele>321.5576</ele>
        <time>2021-07-10T15:59:24Z</time>
      </trkpt>
      <trkpt lat="38.60249" lon="-8.21769">
        <ele>321.2674</ele>
        <time>2021-07-10T15:59:35Z</time>
      </trkpt>
      <trkpt lat="38.60264" lon="-8.21932">
        <ele>319.3024</ele>
        <time>2021-07-10T15:59:46Z</time>
      </trkpt>
      <trkpt lat="38.60275" lon="-8.22077">
        <ele>313.1354</ele>
        <time>2021-07-10T15:59:57Z</time>
      </trkpt>
      <trkpt lat="38.60302" lon="-8.22187">
        <ele>315.682</ele>
        <time>2021-07-10T16:00:08Z</time>
      </trkpt>
      <trkpt lat="38.60285" lon="-8.22241">
        <ele>318.8932</ele>
        <time>2021-07-10T16:00:19Z</time>
      </trkpt>
      <trkpt lat="38.60223" lon="-8.22318">
        <ele>317.5839</ele>
        <time>2021-07-10T16:00:30Z</time>
      </trkpt>
      <trkpt lat="38.60191" lon="-8.22398">
        <ele>317.4333</ele>
        <time>2021-07-10T16:00:41Z</time>
      </trkpt>
      <trkpt lat="38.60148" lon="-8.22483">
        <ele>314.4098</ele>
        <time>2021-07-10T16:00:52Z</time>
      </trkpt>
      <trkpt lat="38.60087" lon="-8.22553">
        <ele>308.4599</ele>
        <time>2021-07-10T16:01:03Z</time>
      </trkpt>
      <trkpt lat="38.60042" lon="-8.22602">
        <ele>306.2727</ele>
        <time>2021-07-10T16:01:14Z</time>
      </trkpt>
      <trkpt lat="38.59994" lon="-8.22637">
        <ele>304.6441</ele>
        <time>2021-07-10T16:01:25Z</time>
      </trkpt>
      <trkpt lat="38.59989" lon="-8.22641">
        <ele>306.7736</ele>
        <time>2021-07-10T16:01:43Z</time>
      </trkpt>
      <trkpt lat="38.59999" lon="-8.22713">
        <ele>306.0062</ele>
        <time>2021-07-10T16:01:54Z</time>
      </trkpt>
      <trkpt lat="38.59987" lon="-8.22804">
        <ele>298.4916</ele>
        <time>2021-07-10T16:02:05Z</time>
      </trkpt>
      <trkpt lat="38.60021" lon="-8.22894">
        <ele>298.3412</ele>
        <time>2021-07-10T16:02:17Z</time>
      </trkpt>
      <trkpt lat="38.60088" lon="-8.23016">
        <ele>293.5026</ele>
        <time>2021-07-10T16:02:28Z</time>
      </trkpt>
      <trkpt lat="38.60158" lon="-8.23101">
        <ele>307.9186</ele>
        <time>2021-07-10T16:02:39Z</time>
      </trkpt>
      <trkpt lat="38.60181" lon="-8.23266">
        <ele>309.1395</ele>
        <time>2021-07-10T16:02:50Z</time>
      </trkpt>
      <trkpt lat="38.60215" lon="-8.23408">
        <ele>305.3592</ele>
        <time>2021-07-10T16:03:01Z</time>
      </trkpt>
      <trkpt lat="38.60257" lon="-8.2353">
        <ele>299.5515</ele>
        <time>2021-07-10T16:03:12Z</time>
      </trkpt>
      <trkpt lat="38.60311" lon="-8.23618">
        <ele>297.8928</ele>
        <time>2021-07-10T16:03:23Z</time>
      </trkpt>
      <trkpt lat="38.60272" lon="-8.23764">
        <ele>293.2857</ele>
        <time>2021-07-10T16:03:34Z</time>
      </trkpt>
      <trkpt lat="38.60239" lon="-8.23858">
        <ele>291.2323</ele>
        <time>2021-07-10T16:03:45Z</time>
      </trkpt>
      <trkpt lat="38.60089" lon="-8.23813">
        <ele>292.6458</ele>
        <time>2021-07-10T16:03:56Z</time>
      </trkpt>
      <trkpt lat="38.59831" lon="-8.23787">
        <ele>281.8161</ele>
        <time>2021-07-10T16:04:07Z</time>
      </trkpt>
      <trkpt lat="38.59612" lon="-8.23777">
        <ele>276.5632</ele>
        <time>2021-07-10T16:04:18Z</time>
      </trkpt>
      <trkpt lat="38.59444" lon="-8.23852">
        <ele>265.0698</ele>
        <time>2021-07-10T16:04:29Z</time>
      </trkpt>
      <trkpt lat="38.59273" lon="-8.23978">
        <ele>257.0254</ele>
        <time>2021-07-10T16:04:40Z</time>
      </trkpt>
      <trkpt lat="38.59096" lon="-8.24038">
        <ele>248.7834</ele>
        <time>2021-07-10T16:04:51Z</time>
      </trkpt>
      <trkpt lat="38.59029" lon="-8.24066">
        <ele>246.0259</ele>
        <time>2021-07-10T16:05:02Z</time>
      </trkpt>
      <trkpt lat="38.58947" lon="-8.24151">
        <ele>242.1471</ele>
        <time>2021-07-10T16:05:13Z</time>
      </trkpt>
      <trkpt lat="38.58875" lon="-8.24222">
        <ele>241.2259</ele>
        <time>2021-07-10T16:05:24Z</time>
      </trkpt>
      <trkpt lat="38.58854" lon="-8.24334">
        <ele>250.1455</ele>
        <time>2021-07-10T16:05:35Z</time>
      </trkpt>
      <trkpt lat="38.58851" lon="-8.24429">
        <ele>262.9546</ele>
        <time>2021-07-10T16:05:46Z</time>
      </trkpt>
      <trkpt lat="38.58884" lon="-8.24547">
        <ele>271.863</ele>
        <time>2021-07-10T16:05:57Z</time>
      </trkpt>
      <trkpt lat="38.58845" lon="-8.24658">
        <ele>277.4596</ele>
        <time>2021-07-10T16:06:08Z</time>
      </trkpt>
      <trkpt lat="38.5877" lon="-8.24746">
        <ele>275.1445</ele>
        <time>2021-07-10T16:06:19Z</time>
      </trkpt>
      <trkpt lat="38.58709" lon="-8.24847">
        <ele>273.6531</ele>
        <time>2021-07-10T16:06:30Z</time>
      </trkpt>
      <trkpt lat="38.58668" lon="-8.24962">
        <ele>258.9017</ele>
        <time>2021-07-10T16:06:41Z</time>
      </trkpt>
      <trkpt lat="38.58635" lon="-8.25074">
        <ele>262.0622</ele>
        <time>2021-07-10T16:06:52Z</time>
      </trkpt>
      <trkpt lat="38.58627" lon="-8.25197">
        <ele>264.8541</ele>
        <time>2021-07-10T16:07:03Z</time>
      </trkpt>
      <trkpt lat="38.58647" lon="-8.25312">
        <ele>259.432</ele>
        <time>2021-07-10T16:07:14Z</time>
      </trkpt>
      <trkpt lat="38.58642" lon="-8.25359">
        <ele>260.1456</ele>
        <time>2021-07-10T16:07:25Z</time>
      </trkpt>
      <trkpt lat="38.58645" lon="-8.25364">
        <ele>264.4215</ele>
        <time>2021-07-10T16:07:40Z</time>
      </trkpt>
      <trkpt lat="38.58522" lon="-8.2542">
        <ele>264.4819</ele>
        <time>2021-07-10T16:07:51Z</time>
      </trkpt>
      <trkpt lat="38.58405" lon="-8.25554">
        <ele>260.6373</ele>
        <time>2021-07-10T16:08:02Z</time>
      </trkpt>
      <trkpt lat="38.58353" lon="-8.25678">
        <ele>259.4171</ele>
        <time>2021-07-10T16:08:13Z</time>
      </trkpt>
      <trkpt lat="38.58283" lon="-8.25852">
        <ele>259.5001</ele>
        <time>2021-07-10T16:08:24Z</time>
      </trkpt>
      <trkpt lat="38.58235" lon="-8.26016">
        <ele>257.7225</ele>
        <time>2021-07-10T16:08:35Z</time>
      </trkpt>
      <trkpt lat="38.58236" lon="-8.26041">
        <ele>256.4977</ele>
        <time>2021-07-10T16:08:46Z</time>
      </trkpt>
      <trkpt lat="38.58238" lon="-8.26041">
        <ele>254.7954</ele>
        <time>2021-07-10T16:09:46Z</time>
      </trkpt>
      <trkpt lat="38.58291" lon="-8.26065">
        <ele>257.1751</ele>
        <time>2021-07-10T16:09:57Z</time>
      </trkpt>
      <trkpt lat="38.58392" lon="-8.26126">
        <ele>260.5142</ele>
        <time>2021-07-10T16:10:08Z</time>
      </trkpt>
      <trkpt lat="38.5846" lon="-8.2629">
        <ele>251.7098</ele>
        <time>2021-07-10T16:10:19Z</time>
      </trkpt>
      <trkpt lat="38.58527" lon="-8.26468">
        <ele>250.1273</ele>
        <time>2021-07-10T16:10:30Z</time>
      </trkpt>
      <trkpt lat="38.58553" lon="-8.26648">
        <ele>258.1492</ele>
        <time>2021-07-10T16:10:41Z</time>
      </trkpt>
      <trkpt lat="38.58578" lon="-8.26853">
        <ele>256.0867</ele>
        <time>2021-07-10T16:10:52Z</time>
      </trkpt>
      <trkpt lat="38.58594" lon="-8.27069">
        <ele>256.3113</ele>
        <time>2021-07-10T16:11:03Z</time>
      </trkpt>
      <trkpt lat="38.58618" lon="-8.2724">
        <ele>255.4269</ele>
        <time>2021-07-10T16:11:14Z</time>
      </trkpt>
      <trkpt lat="38.58635" lon="-8.27423">
        <ele>255.5892</ele>
        <time>2021-07-10T16:11:25Z</time>
      </trkpt>
      <trkpt lat="38.58606" lon="-8.27551">
        <ele>250.8211</ele>
        <time>2021-07-10T16:11:36Z</time>
      </trkpt>
      <trkpt lat="38.58467" lon="-8.27655">
        <ele>243.0062</ele>
        <time>2021-07-10T16:11:47Z</time>
      </trkpt>
      <trkpt lat="38.58415" lon="-8.27752">
        <ele>237.934</ele>
        <time>2021-07-10T16:11:58Z</time>
      </trkpt>
      <trkpt lat="38.5843" lon="-8.2798">
        <ele>243.5077</ele>
        <time>2021-07-10T16:12:09Z</time>
      </trkpt>
      <trkpt lat="38.58387" lon="-8.28171">
        <ele>239.7325</ele>
        <time>2021-07-10T16:12:20Z</time>
      </trkpt>
      <trkpt lat="38.58331" lon="-8.2831">
        <ele>234.638</ele>
        <time>2021-07-10T16:12:31Z</time>
      </trkpt>
      <trkpt lat="38.58329" lon="-8.28426">
        <ele>230.6562</ele>
        <time>2021-07-10T16:12:42Z</time>
      </trkpt>
      <trkpt lat="38.58365" lon="-8.28629">
        <ele>223.4121</ele>
        <time>2021-07-10T16:12:53Z</time>
      </trkpt>
      <trkpt lat="38.5839" lon="-8.28717">
        <ele>228.8651</ele>
        <time>2021-07-10T16:13:04Z</time>
      </trkpt>
      <trkpt lat="38.5856" lon="-8.28682">
        <ele>235.7617</ele>
        <time>2021-07-10T16:13:15Z</time>
      </trkpt>
      <trkpt lat="38.58764" lon="-8.28644">
        <ele>242.831</ele>
        <time>2021-07-10T16:13:26Z</time>
      </trkpt>
      <trkpt lat="38.58908" lon="-8.28623">
        <ele>243.2466</ele>
        <time>2021-07-10T16:13:37Z</time>
      </trkpt>
      <trkpt lat="38.58876" lon="-8.28749">
        <ele>240.0019</ele>
        <time>2021-07-10T16:13:48Z</time>
      </trkpt>
      <trkpt lat="38.58768" lon="-8.29068">
        <ele>234.8902</ele>
        <time>2021-07-10T16:13:59Z</time>
      </trkpt>
      <trkpt lat="38.58667" lon="-8.29325">
        <ele>235.969</ele>
        <time>2021-07-10T16:14:10Z</time>
      </trkpt>
      <trkpt lat="38.58488" lon="-8.29461">
        <ele>235.5361</ele>
        <time>2021-07-10T16:14:21Z</time>
      </trkpt>
      <trkpt lat="38.58415" lon="-8.29501">
        <ele>232.9259</ele>
        <time>2021-07-10T16:14:32Z</time>
      </trkpt>
      <trkpt lat="38.58534" lon="-8.29454">
        <ele>233.6252</ele>
        <time>2021-07-10T16:14:43Z</time>
      </trkpt>
      <trkpt lat="38.58607" lon="-8.2948">
        <ele>229.6359</ele>
        <time>2021-07-10T16:14:54Z</time>
      </trkpt>
      <trkpt lat="38.58707" lon="-8.29678">
        <ele>226.8151</ele>
        <time>2021-07-10T16:15:05Z</time>
      </trkpt>
      <trkpt lat="38.58784" lon="-8.29858">
        <ele>231.2479</ele>
        <time>2021-07-10T16:15:16Z</time>
      </trkpt>
      <trkpt lat="38.58844" lon="-8.29993">
        <ele>222.682</ele>
        <time>2021-07-10T16:15:27Z</time>
      </trkpt>
      <trkpt lat="38.58775" lon="-8.30056">
        <ele>219.6799</ele>
        <time>2021-07-10T16:15:38Z</time>
      </trkpt>
      <trkpt lat="38.58643" lon="-8.30131">
        <ele>216.69</ele>
        <time>2021-07-10T16:15:49Z</time>
      </trkpt>
      <trkpt lat="38.58575" lon="-8.30258">
        <ele>217.1082</ele>
        <time>2021-07-10T16:16:00Z</time>
      </trkpt>
      <trkpt lat="38.58492" lon="-8.30442">
        <ele>219.649</ele>
        <time>2021-07-10T16:16:11Z</time>
      </trkpt>
      <trkpt lat="38.58375" lon="-8.3061">
        <ele>212.3716</ele>
        <time>2021-07-10T16:16:22Z</time>
      </trkpt>
      <trkpt lat="38.58285" lon="-8.3079">
        <ele>214.5857</ele>
        <time>2021-07-10T16:16:33Z</time>
      </trkpt>
      <trkpt lat="38.5817" lon="-8.30923">
        <ele>216.0948</ele>
        <time>2021-07-10T16:16:44Z</time>
      </trkpt>
      <trkpt lat="38.58088" lon="-8.31144">
        <ele>213.0534</ele>
        <time>2021-07-10T16:16:55Z</time>
      </trkpt>
      <trkpt lat="38.58029" lon="-8.31355">
        <ele>204.8581</ele>
        <time>2021-07-10T16:17:06Z</time>
      </trkpt>
      <trkpt lat="38.57952" lon="-8.3158">
        <ele>203.4162</ele>
        <time>2021-07-10T16:17:17Z</time>
      </trkpt>
      <trkpt lat="38.57944" lon="-8.31718">
        <ele>202.9067</ele>
        <time>2021-07-10T16:17:28Z</time>
      </trkpt>
      <trkpt lat="38.57913" lon="-8.31799">
        <ele>204.7987</ele>
        <time>2021-07-10T16:17:39Z</time>
      </trkpt>
      <trkpt lat="38.57867" lon="-8.31949">
        <ele>197.8243</ele>
        <time>2021-07-10T16:17:50Z</time>
      </trkpt>
      <trkpt lat="38.57813" lon="-8.32126">
        <ele>194.3447</ele>
        <time>2021-07-10T16:18:01Z</time>
      </trkpt>
      <trkpt lat="38.57815" lon="-8.32283">
        <ele>187.037</ele>
        <time>2021-07-10T16:18:12Z</time>
      </trkpt>
      <trkpt lat="38.57785" lon="-8.3238">
        <ele>181.2568</ele>
        <time>2021-07-10T16:18:23Z</time>
      </trkpt>
      <trkpt lat="38.57691" lon="-8.32482">
        <ele>190.6677</ele>
        <time>2021-07-10T16:18:34Z</time>
      </trkpt>
      <trkpt lat="38.57583" lon="-8.3263">
        <ele>195.6256</ele>
        <time>2021-07-10T16:18:45Z</time>
      </trkpt>
      <trkpt lat="38.57484" lon="-8.32799">
        <ele>200.4827</ele>
        <time>2021-07-10T16:18:56Z</time>
      </trkpt>
      <trkpt lat="38.57425" lon="-8.32966">
        <ele>201.9011</ele>
        <time>2021-07-10T16:19:07Z</time>
      </trkpt>
      <trkpt lat="38.5735" lon="-8.33161">
        <ele>208.5656</ele>
        <time>2021-07-10T16:19:18Z</time>
      </trkpt>
      <trkpt lat="38.57263" lon="-8.33275">
        <ele>207.891</ele>
        <time>2021-07-10T16:19:29Z</time>
      </trkpt>
      <trkpt lat="38.57181" lon="-8.33417">
        <ele>213.3358</ele>
        <time>2021-07-10T16:19:40Z</time>
      </trkpt>
      <trkpt lat="38.5707" lon="-8.3354">
        <ele>213.6866</ele>
        <time>2021-07-10T16:19:51Z</time>
      </trkpt>
      <trkpt lat="38.56967" lon="-8.33613">
        <ele>214.8438</ele>
        <time>2021-07-10T16:20:02Z</time>
      </trkpt>
      <trkpt lat="38.56958" lon="-8.33683">
        <ele>214.6671</ele>
        <time>2021-07-10T16:20:13Z</time>
      </trkpt>
      <trkpt lat="38.56958" lon="-8.33999">
        <ele>206.3198</ele>
        <time>2021-07-10T16:20:24Z</time>
      </trkpt>
      <trkpt lat="38.56961" lon="-8.34349">
        <ele>201.7524</ele>
        <time>2021-07-10T16:20:35Z</time>
      </trkpt>
      <trkpt lat="38.56946" lon="-8.34636">
        <ele>200.4826</ele>
        <time>2021-07-10T16:20:46Z</time>
      </trkpt>
      <trkpt lat="38.56888" lon="-8.34884">
        <ele>207.5908</ele>
        <time>2021-07-10T16:20:57Z</time>
      </trkpt>
      <trkpt lat="38.56892" lon="-8.35126">
        <ele>211.8721</ele>
        <time>2021-07-10T16:21:08Z</time>
      </trkpt>
      <trkpt lat="38.5695" lon="-8.35419">
        <ele>203.8754</ele>
        <time>2021-07-10T16:21:19Z</time>
      </trkpt>
      <trkpt lat="38.56974" lon="-8.3567">
        <ele>203.1047</ele>
        <time>2021-07-10T16:21:30Z</time>
      </trkpt>
      <trkpt lat="38.56988" lon="-8.35812">
        <ele>198.9659</ele>
        <time>2021-07-10T16:21:41Z</time>
      </trkpt>
      <trkpt lat="38.56988" lon="-8.35807">
        <ele>200.659</ele>
        <time>2021-07-10T16:21:54Z</time>
      </trkpt>
      <trkpt lat="38.56988" lon="-8.35814">
        <ele>201.6355</ele>
        <time>2021-07-10T16:22:10Z</time>
      </trkpt>
      <trkpt lat="38.56996" lon="-8.35994">
        <ele>199.2191</ele>
        <time>2021-07-10T16:22:21Z</time>
      </trkpt>
      <trkpt lat="38.57004" lon="-8.36347">
        <ele>199.659</ele>
        <time>2021-07-10T16:22:32Z</time>
      </trkpt>
      <trkpt lat="38.5701" lon="-8.36602">
        <ele>195.0678</ele>
        <time>2021-07-10T16:22:43Z</time>
      </trkpt>
      <trkpt lat="38.5706" lon="-8.36871">
        <ele>196.3488</ele>
        <time>2021-07-10T16:22:54Z</time>
      </trkpt>
      <trkpt lat="38.5712" lon="-8.37142">
        <ele>204.7533</ele>
        <time>2021-07-10T16:23:05Z</time>
      </trkpt>
      <trkpt lat="38.57237" lon="-8.37331">
        <ele>209.3701</ele>
        <time>2021-07-10T16:23:16Z</time>
      </trkpt>
      <trkpt lat="38.57397" lon="-8.37454">
        <ele>210.2918</ele>
        <time>2021-07-10T16:23:27Z</time>
      </trkpt>
      <trkpt lat="38.57566" lon="-8.3755">
        <ele>211.761</ele>
        <time>2021-07-10T16:23:38Z</time>
      </trkpt>
      <trkpt lat="38.57726" lon="-8.37672">
        <ele>207.9635</ele>
        <time>2021-07-10T16:23:49Z</time>
      </trkpt>
      <trkpt lat="38.57891" lon="-8.3783">
        <ele>211.9345</ele>
        <time>2021-07-10T16:24:00Z</time>
      </trkpt>
      <trkpt lat="38.58048" lon="-8.37975">
        <ele>215.643</ele>
        <time>2021-07-10T16:24:11Z</time>
      </trkpt>
      <trkpt lat="38.5814" lon="-8.3815">
        <ele>212.004</ele>
        <time>2021-07-10T16:24:22Z</time>
      </trkpt>
      <trkpt lat="38.58196" lon="-8.3829">
        <ele>205.698</ele>
        <time>2021-07-10T16:24:33Z</time>
      </trkpt>
      <trkpt lat="38.58197" lon="-8.38289">
        <ele>205.9229</ele>
        <time>2021-07-10T16:25:33Z</time>
      </trkpt>
      <trkpt lat="38.5821" lon="-8.38322">
        <ele>204.4459</ele>
        <time>2021-07-10T16:25:44Z</time>
      </trkpt>
      <trkpt lat="38.58276" lon="-8.38491">
        <ele>208.295</ele>
        <time>2021-07-10T16:25:55Z</time>
      </trkpt>
      <trkpt lat="38.5832" lon="-8.3864">
        <ele>205.1052</ele>
        <time>2021-07-10T16:26:06Z</time>
      </trkpt>
      <trkpt lat="38.58326" lon="-8.38714">
        <ele>205.7431</ele>
        <time>2021-07-10T16:26:17Z</time>
      </trkpt>
      <trkpt lat="38.58326" lon="-8.38723">
        <ele>207.4311</ele>
        <time>2021-07-10T16:26:29Z</time>
      </trkpt>
      <trkpt lat="38.58294" lon="-8.38908">
        <ele>197.4624</ele>
        <time>2021-07-10T16:26:40Z</time>
      </trkpt>
      <trkpt lat="38.58285" lon="-8.38954">
        <ele>196.1022</ele>
        <time>2021-07-10T16:26:51Z</time>
      </trkpt>
      <trkpt lat="38.58286" lon="-8.38949">
        <ele>195.4956</ele>
        <time>2021-07-10T16:27:18Z</time>
      </trkpt>
      <trkpt lat="38.58285" lon="-8.3895">
        <ele>195.4674</ele>
        <time>2021-07-10T16:28:18Z</time>
      </trkpt>
      <trkpt lat="38.5828" lon="-8.38951">
        <ele>196.3618</ele>
        <time>2021-07-10T16:28:56Z</time>
      </trkpt>
      <trkpt lat="38.58282" lon="-8.38943">
        <ele>195.938</ele>
        <time>2021-07-10T16:29:08Z</time>
      </trkpt>
      <trkpt lat="38.58293" lon="-8.38913">
        <ele>196.25</ele>
        <time>2021-07-10T16:29:20Z</time>
      </trkpt>
      <trkpt lat="38.58294" lon="-8.38914">
        <ele>192.4073</ele>
        <time>2021-07-10T16:30:20Z</time>
      </trkpt>
      <trkpt lat="38.58297" lon="-8.38906">
        <ele>194.584</ele>
        <time>2021-07-10T16:31:04Z</time>
      </trkpt>
      <trkpt lat="38.58325" lon="-8.38717">
        <ele>202.0787</ele>
        <time>2021-07-10T16:31:15Z</time>
      </trkpt>
      <trkpt lat="38.58275" lon="-8.38491">
        <ele>207.5988</ele>
        <time>2021-07-10T16:31:26Z</time>
      </trkpt>
      <trkpt lat="38.5818" lon="-8.38255">
        <ele>202.7808</ele>
        <time>2021-07-10T16:31:37Z</time>
      </trkpt>
      <trkpt lat="38.58082" lon="-8.38021">
        <ele>210.8807</ele>
        <time>2021-07-10T16:31:48Z</time>
      </trkpt>
      <trkpt lat="38.5792" lon="-8.37857">
        <ele>208.5193</ele>
        <time>2021-07-10T16:31:59Z</time>
      </trkpt>
      <trkpt lat="38.57737" lon="-8.37683">
        <ele>203.0241</ele>
        <time>2021-07-10T16:32:10Z</time>
      </trkpt>
      <trkpt lat="38.57552" lon="-8.37538">
        <ele>209.0183</ele>
        <time>2021-07-10T16:32:21Z</time>
      </trkpt>
      <trkpt lat="38.57365" lon="-8.37437">
        <ele>214.3435</ele>
        <time>2021-07-10T16:32:32Z</time>
      </trkpt>
      <trkpt lat="38.57195" lon="-8.37291">
        <ele>210.8774</ele>
        <time>2021-07-10T16:32:43Z</time>
      </trkpt>
      <trkpt lat="38.57099" lon="-8.3706">
        <ele>206.7884</ele>
        <time>2021-07-10T16:32:54Z</time>
      </trkpt>
      <trkpt lat="38.57034" lon="-8.3677">
        <ele>194.9404</ele>
        <time>2021-07-10T16:33:05Z</time>
      </trkpt>
      <trkpt lat="38.57004" lon="-8.36505">
        <ele>201.4005</ele>
        <time>2021-07-10T16:33:16Z</time>
      </trkpt>
      <trkpt lat="38.56998" lon="-8.36244">
        <ele>198.8238</ele>
        <time>2021-07-10T16:33:27Z</time>
      </trkpt>
      <trkpt lat="38.56995" lon="-8.36019">
        <ele>196.8739</ele>
        <time>2021-07-10T16:33:38Z</time>
      </trkpt>
      <trkpt lat="38.56983" lon="-8.35796">
        <ele>194.0719</ele>
        <time>2021-07-10T16:33:49Z</time>
      </trkpt>
      <trkpt lat="38.5696" lon="-8.35558">
        <ele>196.9292</ele>
        <time>2021-07-10T16:34:00Z</time>
      </trkpt>
      <trkpt lat="38.56935" lon="-8.35302">
        <ele>199.7475</ele>
        <time>2021-07-10T16:34:11Z</time>
      </trkpt>
      <trkpt lat="38.56878" lon="-8.35073">
        <ele>201.6316</ele>
        <time>2021-07-10T16:34:22Z</time>
      </trkpt>
      <trkpt lat="38.56899" lon="-8.34836">
        <ele>203.2715</ele>
        <time>2021-07-10T16:34:33Z</time>
      </trkpt>
      <trkpt lat="38.56943" lon="-8.34637">
        <ele>206.3294</ele>
        <time>2021-07-10T16:34:44Z</time>
      </trkpt>
      <trkpt lat="38.5696" lon="-8.34443">
        <ele>203.6493</ele>
        <time>2021-07-10T16:34:55Z</time>
      </trkpt>
      <trkpt lat="38.56957" lon="-8.34142">
        <ele>200.4058</ele>
        <time>2021-07-10T16:35:06Z</time>
      </trkpt>
      <trkpt lat="38.56956" lon="-8.33799">
        <ele>201.5613</ele>
        <time>2021-07-10T16:35:17Z</time>
      </trkpt>
      <trkpt lat="38.56955" lon="-8.33432">
        <ele>202.7971</ele>
        <time>2021-07-10T16:35:28Z</time>
      </trkpt>
      <trkpt lat="38.5692" lon="-8.33072">
        <ele>205.6705</ele>
        <time>2021-07-10T16:35:39Z</time>
      </trkpt>
      <trkpt lat="38.56869" lon="-8.32715">
        <ele>209.749</ele>
        <time>2021-07-10T16:35:50Z</time>
      </trkpt>
      <trkpt lat="38.56819" lon="-8.32357">
        <ele>207.5789</ele>
        <time>2021-07-10T16:36:01Z</time>
      </trkpt>
      <trkpt lat="38.56775" lon="-8.32034">
        <ele>211.5912</ele>
        <time>2021-07-10T16:36:12Z</time>
      </trkpt>
      <trkpt lat="38.56758" lon="-8.3167">
        <ele>210.118</ele>
        <time>2021-07-10T16:36:23Z</time>
      </trkpt>
      <trkpt lat="38.56743" lon="-8.31308">
        <ele>213.2127</ele>
        <time>2021-07-10T16:36:34Z</time>
      </trkpt>
      <trkpt lat="38.56717" lon="-8.30986">
        <ele>217.2997</ele>
        <time>2021-07-10T16:36:45Z</time>
      </trkpt>
      <trkpt lat="38.56563" lon="-8.307">
        <ele>215.7693</ele>
        <time>2021-07-10T16:36:56Z</time>
      </trkpt>
      <trkpt lat="38.56417" lon="-8.30419">
        <ele>219.7681</ele>
        <time>2021-07-10T16:37:07Z</time>
      </trkpt>
      <trkpt lat="38.56362" lon="-8.30086">
        <ele>216.4487</ele>
        <time>2021-07-10T16:37:18Z</time>
      </trkpt>
      <trkpt lat="38.56329" lon="-8.29921">
        <ele>216.8504</ele>
        <time>2021-07-10T16:37:29Z</time>
      </trkpt>
      <trkpt lat="38.56188" lon="-8.29926">
        <ele>219.6248</ele>
        <time>2021-07-10T16:37:40Z</time>
      </trkpt>
      <trkpt lat="38.55926" lon="-8.29977">
        <ele>220.6067</ele>
        <time>2021-07-10T16:37:51Z</time>
      </trkpt>
      <trkpt lat="38.55649" lon="-8.30032">
        <ele>214.3664</ele>
        <time>2021-07-10T16:38:02Z</time>
      </trkpt>
      <trkpt lat="38.5537" lon="-8.3009">
        <ele>213.3117</ele>
        <time>2021-07-10T16:38:13Z</time>
      </trkpt>
      <trkpt lat="38.5511" lon="-8.3014">
        <ele>216.9697</ele>
        <time>2021-07-10T16:38:24Z</time>
      </trkpt>
      <trkpt lat="38.54823" lon="-8.30199">
        <ele>219.3816</ele>
        <time>2021-07-10T16:38:35Z</time>
      </trkpt>
      <trkpt lat="38.54532" lon="-8.30258">
        <ele>212.6542</ele>
        <time>2021-07-10T16:38:46Z</time>
      </trkpt>
      <trkpt lat="38.54249" lon="-8.30316">
        <ele>207.997</ele>
        <time>2021-07-10T16:38:57Z</time>
      </trkpt>
      <trkpt lat="38.53959" lon="-8.30372">
        <ele>203.8918</ele>
        <time>2021-07-10T16:39:08Z</time>
      </trkpt>
      <trkpt lat="38.53647" lon="-8.30434">
        <ele>198.4472</ele>
        <time>2021-07-10T16:39:19Z</time>
      </trkpt>
      <trkpt lat="38.53357" lon="-8.30491">
        <ele>195.0721</ele>
        <time>2021-07-10T16:39:30Z</time>
      </trkpt>
      <trkpt lat="38.5307" lon="-8.30551">
        <ele>193.2074</ele>
        <time>2021-07-10T16:39:41Z</time>
      </trkpt>
      <trkpt lat="38.52776" lon="-8.30607">
        <ele>190.3053</ele>
        <time>2021-07-10T16:39:52Z</time>
      </trkpt>
      <trkpt lat="38.52477" lon="-8.30665">
        <ele>187.9496</ele>
        <time>2021-07-10T16:40:03Z</time>
      </trkpt>
      <trkpt lat="38.52182" lon="-8.30728">
        <ele>186.7266</ele>
        <time>2021-07-10T16:40:14Z</time>
      </trkpt>
      <trkpt lat="38.51912" lon="-8.30781">
        <ele>186.8903</ele>
        <time>2021-07-10T16:40:25Z</time>
      </trkpt>
      <trkpt lat="38.51622" lon="-8.30838">
        <ele>181.6707</ele>
        <time>2021-07-10T16:40:36Z</time>
      </trkpt>
      <trkpt lat="38.51335" lon="-8.30822">
        <ele>174.7834</ele>
        <time>2021-07-10T16:40:47Z</time>
      </trkpt>
      <trkpt lat="38.51048" lon="-8.308">
        <ele>169.9161</ele>
        <time>2021-07-10T16:40:58Z</time>
      </trkpt>
      <trkpt lat="38.50813" lon="-8.30786">
        <ele>167.7568</ele>
        <time>2021-07-10T16:41:09Z</time>
      </trkpt>
      <trkpt lat="38.5061" lon="-8.30766">
        <ele>167.9332</ele>
        <time>2021-07-10T16:41:20Z</time>
      </trkpt>
      <trkpt lat="38.50398" lon="-8.30751">
        <ele>164.4187</ele>
        <time>2021-07-10T16:41:31Z</time>
      </trkpt>
      <trkpt lat="38.50141" lon="-8.30733">
        <ele>162.2169</ele>
        <time>2021-07-10T16:41:42Z</time>
      </trkpt>
      <trkpt lat="38.4992" lon="-8.30847">
        <ele>158.3525</ele>
        <time>2021-07-10T16:41:53Z</time>
      </trkpt>
      <trkpt lat="38.49797" lon="-8.312">
        <ele>146.9327</ele>
        <time>2021-07-10T16:42:04Z</time>
      </trkpt>
      <trkpt lat="38.49825" lon="-8.31571">
        <ele>148.9316</ele>
        <time>2021-07-10T16:42:15Z</time>
      </trkpt>
      <trkpt lat="38.49846" lon="-8.31895">
        <ele>157.6375</ele>
        <time>2021-07-10T16:42:26Z</time>
      </trkpt>
      <trkpt lat="38.49736" lon="-8.3223">
        <ele>155.5255</ele>
        <time>2021-07-10T16:42:37Z</time>
      </trkpt>
      <trkpt lat="38.49542" lon="-8.32521">
        <ele>152.1604</ele>
        <time>2021-07-10T16:42:48Z</time>
      </trkpt>
      <trkpt lat="38.49353" lon="-8.32803">
        <ele>155.2133</ele>
        <time>2021-07-10T16:42:59Z</time>
      </trkpt>
      <trkpt lat="38.49191" lon="-8.331">
        <ele>149.8941</ele>
        <time>2021-07-10T16:43:10Z</time>
      </trkpt>
      <trkpt lat="38.49129" lon="-8.33458">
        <ele>144.6163</ele>
        <time>2021-07-10T16:43:21Z</time>
      </trkpt>
      <trkpt lat="38.4907" lon="-8.33821">
        <ele>142.2421</ele>
        <time>2021-07-10T16:43:32Z</time>
      </trkpt>
      <trkpt lat="38.49014" lon="-8.34177">
        <ele>139.4839</ele>
        <time>2021-07-10T16:43:43Z</time>
      </trkpt>
      <trkpt lat="38.48956" lon="-8.34534">
        <ele>127.8477</ele>
        <time>2021-07-10T16:43:54Z</time>
      </trkpt>
      <trkpt lat="38.489" lon="-8.34881">
        <ele>120.7967</ele>
        <time>2021-07-10T16:44:05Z</time>
      </trkpt>
      <trkpt lat="38.4879" lon="-8.35147">
        <ele>111.2992</ele>
        <time>2021-07-10T16:44:16Z</time>
      </trkpt>
      <trkpt lat="38.48597" lon="-8.35313">
        <ele>104.1237</ele>
        <time>2021-07-10T16:44:27Z</time>
      </trkpt>
      <trkpt lat="38.48581" lon="-8.35598">
        <ele>98.57295</ele>
        <time>2021-07-10T16:44:38Z</time>
      </trkpt>
      <trkpt lat="38.48634" lon="-8.35921">
        <ele>94.76459</ele>
        <time>2021-07-10T16:44:49Z</time>
      </trkpt>
      <trkpt lat="38.48561" lon="-8.36181">
        <ele>84.49955</ele>
        <time>2021-07-10T16:45:00Z</time>
      </trkpt>
      <trkpt lat="38.48353" lon="-8.36352">
        <ele>63.99876</ele>
        <time>2021-07-10T16:45:11Z</time>
      </trkpt>
      <trkpt lat="38.48107" lon="-8.36452">
        <ele>73.93673</ele>
        <time>2021-07-10T16:45:22Z</time>
      </trkpt>
      <trkpt lat="38.47962" lon="-8.36695">
        <ele>90.23189</ele>
        <time>2021-07-10T16:45:33Z</time>
      </trkpt>
      <trkpt lat="38.47855" lon="-8.36924">
        <ele>103.553</ele>
        <time>2021-07-10T16:45:44Z</time>
      </trkpt>
      <trkpt lat="38.47625" lon="-8.36976">
        <ele>121.2553</ele>
        <time>2021-07-10T16:45:55Z</time>
      </trkpt>
      <trkpt lat="38.47451" lon="-8.37172">
        <ele>118.7392</ele>
        <time>2021-07-10T16:46:06Z</time>
      </trkpt>
      <trkpt lat="38.4726" lon="-8.37216">
        <ele>115.6641</ele>
        <time>2021-07-10T16:46:17Z</time>
      </trkpt>
      <trkpt lat="38.47179" lon="-8.37207">
        <ele>117.714</ele>
        <time>2021-07-10T16:46:28Z</time>
      </trkpt>
      <trkpt lat="38.47173" lon="-8.37206">
        <ele>118.4075</ele>
        <time>2021-07-10T16:46:48Z</time>
      </trkpt>
      <trkpt lat="38.46989" lon="-8.37167">
        <ele>125.056</ele>
        <time>2021-07-10T16:46:59Z</time>
      </trkpt>
      <trkpt lat="38.46741" lon="-8.37124">
        <ele>121.4143</ele>
        <time>2021-07-10T16:47:10Z</time>
      </trkpt>
      <trkpt lat="38.46505" lon="-8.37201">
        <ele>113.0229</ele>
        <time>2021-07-10T16:47:21Z</time>
      </trkpt>
      <trkpt lat="38.4628" lon="-8.37418">
        <ele>101.9106</ele>
        <time>2021-07-10T16:47:32Z</time>
      </trkpt>
      <trkpt lat="38.46044" lon="-8.37643">
        <ele>92.70395</ele>
        <time>2021-07-10T16:47:43Z</time>
      </trkpt>
      <trkpt lat="38.45787" lon="-8.37887">
        <ele>78.94475</ele>
        <time>2021-07-10T16:47:54Z</time>
      </trkpt>
      <trkpt lat="38.45562" lon="-8.38113">
        <ele>69.51327</ele>
        <time>2021-07-10T16:48:05Z</time>
      </trkpt>
      <trkpt lat="38.45415" lon="-8.38432">
        <ele>62.76307</ele>
        <time>2021-07-10T16:48:16Z</time>
      </trkpt>
      <trkpt lat="38.45266" lon="-8.38751">
        <ele>53.13266</ele>
        <time>2021-07-10T16:48:27Z</time>
      </trkpt>
      <trkpt lat="38.45087" lon="-8.38976">
        <ele>45.13968</ele>
        <time>2021-07-10T16:48:38Z</time>
      </trkpt>
      <trkpt lat="38.44957" lon="-8.391">
        <ele>38.73579</ele>
        <time>2021-07-10T16:48:49Z</time>
      </trkpt>
      <trkpt lat="38.44835" lon="-8.39161">
        <ele>33.70264</ele>
        <time>2021-07-10T16:49:00Z</time>
      </trkpt>
      <trkpt lat="38.44767" lon="-8.39171">
        <ele>32.65689</ele>
        <time>2021-07-10T16:49:11Z</time>
      </trkpt>
      <trkpt lat="38.4474" lon="-8.39104">
        <ele>36.01667</ele>
        <time>2021-07-10T16:49:22Z</time>
      </trkpt>
      <trkpt lat="38.447" lon="-8.39009">
        <ele>36.37951</ele>
        <time>2021-07-10T16:49:33Z</time>
      </trkpt>
      <trkpt lat="38.44674" lon="-8.38866">
        <ele>32.45772</ele>
        <time>2021-07-10T16:49:44Z</time>
      </trkpt>
      <trkpt lat="38.44651" lon="-8.38531">
        <ele>34.75608</ele>
        <time>2021-07-10T16:49:55Z</time>
      </trkpt>
      <trkpt lat="38.44634" lon="-8.38234">
        <ele>40.08787</ele>
        <time>2021-07-10T16:50:06Z</time>
      </trkpt>
      <trkpt lat="38.44633" lon="-8.3799">
        <ele>42.59439</ele>
        <time>2021-07-10T16:50:17Z</time>
      </trkpt>
      <trkpt lat="38.44634" lon="-8.37944">
        <ele>43.5341</ele>
        <time>2021-07-10T16:50:28Z</time>
      </trkpt>
      <trkpt lat="38.44629" lon="-8.37945">
        <ele>43.9112</ele>
        <time>2021-07-10T16:50:39Z</time>
      </trkpt>
      <trkpt lat="38.44631" lon="-8.38051">
        <ele>40.51303</ele>
        <time>2021-07-10T16:50:50Z</time>
      </trkpt>
      <trkpt lat="38.44636" lon="-8.38308">
        <ele>39.89811</ele>
        <time>2021-07-10T16:51:01Z</time>
      </trkpt>
      <trkpt lat="38.44655" lon="-8.38605">
        <ele>33.0392</ele>
        <time>2021-07-10T16:51:12Z</time>
      </trkpt>
      <trkpt lat="38.44673" lon="-8.38862">
        <ele>31.97446</ele>
        <time>2021-07-10T16:51:23Z</time>
      </trkpt>
      <trkpt lat="38.44698" lon="-8.39007">
        <ele>38.7328</ele>
        <time>2021-07-10T16:51:34Z</time>
      </trkpt>
      <trkpt lat="38.44751" lon="-8.39135">
        <ele>35.9873</ele>
        <time>2021-07-10T16:51:45Z</time>
      </trkpt>
      <trkpt lat="38.44766" lon="-8.39186">
        <ele>37.09329</ele>
        <time>2021-07-10T16:51:56Z</time>
      </trkpt>
      <trkpt lat="38.44762" lon="-8.39185">
        <ele>43.52942</ele>
        <time>2021-07-10T16:52:10Z</time>
      </trkpt>
      <trkpt lat="38.4476" lon="-8.39183">
        <ele>52.35419</ele>
        <time>2021-07-10T16:53:10Z</time>
      </trkpt>
    </trkseg>
  </trk>
  <trk>
    <name><![CDATA[Road trip fait P/E_6]]></name>
    <extensions>
      <line xmlns="http://www.topografix.com/GPX/gpx_style/0/2">
        <color>00FFFF</color>
        <width>4</width>
      </line>
    </extensions>
    <trkseg>
      <trkpt lat="38.44762" lon="-8.39182">
        <ele>49.44886</ele>
        <time>2021-07-10T16:53:30Z</time>
      </trkpt>
      <trkpt lat="38.44762" lon="-8.39182">
        <ele>49.44886</ele>
        <time>2021-07-10T16:53:30Z</time>
      </trkpt>
      <trkpt lat="38.44763" lon="-8.3918">
        <ele>41.07985</ele>
        <time>2021-07-11T07:28:28Z</time>
      </trkpt>
      <trkpt lat="38.44762" lon="-8.39178">
        <ele>41.32999</ele>
        <time>2021-07-11T07:29:27Z</time>
      </trkpt>
      <trkpt lat="38.44757" lon="-8.39185">
        <ele>40.68852</ele>
        <time>2021-07-11T07:29:49Z</time>
      </trkpt>
      <trkpt lat="38.4475" lon="-8.39209">
        <ele>39.21075</ele>
        <time>2021-07-11T07:30:00Z</time>
      </trkpt>
      <trkpt lat="38.4475" lon="-8.39214">
        <ele>38.4057</ele>
        <time>2021-07-11T07:30:11Z</time>
      </trkpt>
      <trkpt lat="38.4464" lon="-8.39289">
        <ele>35.79854</ele>
        <time>2021-07-11T07:30:22Z</time>
      </trkpt>
      <trkpt lat="38.44543" lon="-8.39356">
        <ele>34.39853</ele>
        <time>2021-07-11T07:30:33Z</time>
      </trkpt>
      <trkpt lat="38.44373" lon="-8.39359">
        <ele>31.91421</ele>
        <time>2021-07-11T07:30:44Z</time>
      </trkpt>
      <trkpt lat="38.44207" lon="-8.39406">
        <ele>32.77756</ele>
        <time>2021-07-11T07:30:55Z</time>
      </trkpt>
      <trkpt lat="38.44042" lon="-8.3946">
        <ele>33.15334</ele>
        <time>2021-07-11T07:31:06Z</time>
      </trkpt>
      <trkpt lat="38.43868" lon="-8.39569">
        <ele>37.61776</ele>
        <time>2021-07-11T07:31:17Z</time>
      </trkpt>
      <trkpt lat="38.43765" lon="-8.39737">
        <ele>39.14702</ele>
        <time>2021-07-11T07:31:28Z</time>
      </trkpt>
      <trkpt lat="38.43709" lon="-8.39948">
        <ele>34.46755</ele>
        <time>2021-07-11T07:31:39Z</time>
      </trkpt>
      <trkpt lat="38.43603" lon="-8.40126">
        <ele>38.70729</ele>
        <time>2021-07-11T07:31:50Z</time>
      </trkpt>
      <trkpt lat="38.43439" lon="-8.40288">
        <ele>41.13802</ele>
        <time>2021-07-11T07:32:01Z</time>
      </trkpt>
      <trkpt lat="38.43251" lon="-8.40476">
        <ele>32.99099</ele>
        <time>2021-07-11T07:32:12Z</time>
      </trkpt>
      <trkpt lat="38.43058" lon="-8.40669">
        <ele>34.37501</ele>
        <time>2021-07-11T07:32:23Z</time>
      </trkpt>
      <trkpt lat="38.42853" lon="-8.40799">
        <ele>33.35065</ele>
        <time>2021-07-11T07:32:34Z</time>
      </trkpt>
      <trkpt lat="38.42653" lon="-8.40805">
        <ele>30.64581</ele>
        <time>2021-07-11T07:32:45Z</time>
      </trkpt>
      <trkpt lat="38.42498" lon="-8.40872">
        <ele>20.19288</ele>
        <time>2021-07-11T07:32:56Z</time>
      </trkpt>
      <trkpt lat="38.42399" lon="-8.40915">
        <ele>15.91094</ele>
        <time>2021-07-11T07:33:07Z</time>
      </trkpt>
      <trkpt lat="38.42294" lon="-8.40688">
        <ele>12.35328</ele>
        <time>2021-07-11T07:33:18Z</time>
      </trkpt>
      <trkpt lat="38.42168" lon="-8.40576">
        <ele>14.25582</ele>
        <time>2021-07-11T07:33:29Z</time>
      </trkpt>
      <trkpt lat="38.42115" lon="-8.40355">
        <ele>22.87069</ele>
        <time>2021-07-11T07:33:40Z</time>
      </trkpt>
      <trkpt lat="38.42094" lon="-8.40124">
        <ele>32.54709</ele>
        <time>2021-07-11T07:33:51Z</time>
      </trkpt>
      <trkpt lat="38.42101" lon="-8.39908">
        <ele>41.0607</ele>
        <time>2021-07-11T07:34:02Z</time>
      </trkpt>
      <trkpt lat="38.42145" lon="-8.39712">
        <ele>47.36654</ele>
        <time>2021-07-11T07:34:13Z</time>
      </trkpt>
      <trkpt lat="38.42204" lon="-8.39628">
        <ele>47.85535</ele>
        <time>2021-07-11T07:34:24Z</time>
      </trkpt>
      <trkpt lat="38.42248" lon="-8.39519">
        <ele>56.3653</ele>
        <time>2021-07-11T07:34:35Z</time>
      </trkpt>
      <trkpt lat="38.42266" lon="-8.39386">
        <ele>64.70778</ele>
        <time>2021-07-11T07:34:46Z</time>
      </trkpt>
      <trkpt lat="38.42122" lon="-8.3938">
        <ele>65.38726</ele>
        <time>2021-07-11T07:34:57Z</time>
      </trkpt>
      <trkpt lat="38.42021" lon="-8.39342">
        <ele>66.51605</ele>
        <time>2021-07-11T07:35:08Z</time>
      </trkpt>
      <trkpt lat="38.42068" lon="-8.39226">
        <ele>59.96958</ele>
        <time>2021-07-11T07:35:19Z</time>
      </trkpt>
      <trkpt lat="38.4195" lon="-8.39223">
        <ele>55.63788</ele>
        <time>2021-07-11T07:35:30Z</time>
      </trkpt>
      <trkpt lat="38.41826" lon="-8.39197">
        <ele>54.83165</ele>
        <time>2021-07-11T07:35:41Z</time>
      </trkpt>
      <trkpt lat="38.41707" lon="-8.39204">
        <ele>53.56549</ele>
        <time>2021-07-11T07:35:52Z</time>
      </trkpt>
      <trkpt lat="38.41641" lon="-8.39225">
        <ele>63.57622</ele>
        <time>2021-07-11T07:36:03Z</time>
      </trkpt>
      <trkpt lat="38.41563" lon="-8.39184">
        <ele>70.85536</ele>
        <time>2021-07-11T07:36:14Z</time>
      </trkpt>
      <trkpt lat="38.41527" lon="-8.39111">
        <ele>78.55141</ele>
        <time>2021-07-11T07:36:25Z</time>
      </trkpt>
      <trkpt lat="38.41565" lon="-8.39046">
        <ele>75.20055</ele>
        <time>2021-07-11T07:36:36Z</time>
      </trkpt>
      <trkpt lat="38.41487" lon="-8.38946">
        <ele>83.27585</ele>
        <time>2021-07-11T07:36:47Z</time>
      </trkpt>
      <trkpt lat="38.41394" lon="-8.38848">
        <ele>86.71607</ele>
        <time>2021-07-11T07:36:58Z</time>
      </trkpt>
      <trkpt lat="38.41323" lon="-8.38744">
        <ele>85.6858</ele>
        <time>2021-07-11T07:37:09Z</time>
      </trkpt>
      <trkpt lat="38.41219" lon="-8.38696">
        <ele>89.41809</ele>
        <time>2021-07-11T07:37:20Z</time>
      </trkpt>
      <trkpt lat="38.41124" lon="-8.38664">
        <ele>95.02849</ele>
        <time>2021-07-11T07:37:31Z</time>
      </trkpt>
      <trkpt lat="38.41008" lon="-8.38591">
        <ele>98.38811</ele>
        <time>2021-07-11T07:37:42Z</time>
      </trkpt>
      <trkpt lat="38.4091" lon="-8.38503">
        <ele>105.9367</ele>
        <time>2021-07-11T07:37:53Z</time>
      </trkpt>
      <trkpt lat="38.40806" lon="-8.38463">
        <ele>111.1151</ele>
        <time>2021-07-11T07:38:04Z</time>
      </trkpt>
      <trkpt lat="38.40705" lon="-8.38465">
        <ele>114.1495</ele>
        <time>2021-07-11T07:38:15Z</time>
      </trkpt>
      <trkpt lat="38.40622" lon="-8.38387">
        <ele>107.8445</ele>
        <time>2021-07-11T07:38:26Z</time>
      </trkpt>
      <trkpt lat="38.40538" lon="-8.38398">
        <ele>104.8161</ele>
        <time>2021-07-11T07:38:37Z</time>
      </trkpt>
      <trkpt lat="38.40509" lon="-8.3839">
        <ele>109.1974</ele>
        <time>2021-07-11T07:38:48Z</time>
      </trkpt>
      <trkpt lat="38.40454" lon="-8.38339">
        <ele>101.5879</ele>
        <time>2021-07-11T07:38:59Z</time>
      </trkpt>
      <trkpt lat="38.40414" lon="-8.3827">
        <ele>93.16075</ele>
        <time>2021-07-11T07:39:10Z</time>
      </trkpt>
      <trkpt lat="38.40348" lon="-8.38208">
        <ele>86.98161</ele>
        <time>2021-07-11T07:39:21Z</time>
      </trkpt>
      <trkpt lat="38.40266" lon="-8.38198">
        <ele>87.3257</ele>
        <time>2021-07-11T07:39:32Z</time>
      </trkpt>
      <trkpt lat="38.40193" lon="-8.38197">
        <ele>92.0408</ele>
        <time>2021-07-11T07:39:43Z</time>
      </trkpt>
      <trkpt lat="38.40129" lon="-8.38132">
        <ele>85.53748</ele>
        <time>2021-07-11T07:39:54Z</time>
      </trkpt>
      <trkpt lat="38.40083" lon="-8.38042">
        <ele>84.59416</ele>
        <time>2021-07-11T07:40:05Z</time>
      </trkpt>
      <trkpt lat="38.40042" lon="-8.37924">
        <ele>90.60018</ele>
        <time>2021-07-11T07:40:16Z</time>
      </trkpt>
      <trkpt lat="38.39975" lon="-8.37834">
        <ele>92.71191</ele>
        <time>2021-07-11T07:40:27Z</time>
      </trkpt>
      <trkpt lat="38.39871" lon="-8.37766">
        <ele>99.91054</ele>
        <time>2021-07-11T07:40:38Z</time>
      </trkpt>
      <trkpt lat="38.39788" lon="-8.37724">
        <ele>104.7623</ele>
        <time>2021-07-11T07:40:49Z</time>
      </trkpt>
      <trkpt lat="38.39733" lon="-8.37668">
        <ele>104.7449</ele>
        <time>2021-07-11T07:41:00Z</time>
      </trkpt>
      <trkpt lat="38.39658" lon="-8.37747">
        <ele>107.1168</ele>
        <time>2021-07-11T07:41:11Z</time>
      </trkpt>
      <trkpt lat="38.39547" lon="-8.37731">
        <ele>107.3802</ele>
        <time>2021-07-11T07:41:22Z</time>
      </trkpt>
      <trkpt lat="38.39493" lon="-8.3763">
        <ele>106.1735</ele>
        <time>2021-07-11T07:41:33Z</time>
      </trkpt>
      <trkpt lat="38.39436" lon="-8.37471">
        <ele>105.7405</ele>
        <time>2021-07-11T07:41:44Z</time>
      </trkpt>
      <trkpt lat="38.39349" lon="-8.3732">
        <ele>106.8464</ele>
        <time>2021-07-11T07:41:55Z</time>
      </trkpt>
      <trkpt lat="38.39233" lon="-8.37214">
        <ele>105.3798</ele>
        <time>2021-07-11T07:42:06Z</time>
      </trkpt>
      <trkpt lat="38.39121" lon="-8.37153">
        <ele>104.8438</ele>
        <time>2021-07-11T07:42:17Z</time>
      </trkpt>
      <trkpt lat="38.39011" lon="-8.37053">
        <ele>102.6751</ele>
        <time>2021-07-11T07:42:28Z</time>
      </trkpt>
      <trkpt lat="38.38916" lon="-8.36954">
        <ele>99.64468</ele>
        <time>2021-07-11T07:42:39Z</time>
      </trkpt>
      <trkpt lat="38.38828" lon="-8.36845">
        <ele>104.4661</ele>
        <time>2021-07-11T07:42:50Z</time>
      </trkpt>
      <trkpt lat="38.38731" lon="-8.36694">
        <ele>112.6817</ele>
        <time>2021-07-11T07:43:01Z</time>
      </trkpt>
      <trkpt lat="38.38638" lon="-8.36538">
        <ele>127.9845</ele>
        <time>2021-07-11T07:43:12Z</time>
      </trkpt>
      <trkpt lat="38.38557" lon="-8.36431">
        <ele>127.6524</ele>
        <time>2021-07-11T07:43:23Z</time>
      </trkpt>
      <trkpt lat="38.38534" lon="-8.36403">
        <ele>121.999</ele>
        <time>2021-07-11T07:43:34Z</time>
      </trkpt>
      <trkpt lat="38.38542" lon="-8.36345">
        <ele>125.9146</ele>
        <time>2021-07-11T07:43:45Z</time>
      </trkpt>
      <trkpt lat="38.38603" lon="-8.36111">
        <ele>127.8568</ele>
        <time>2021-07-11T07:43:56Z</time>
      </trkpt>
      <trkpt lat="38.38598" lon="-8.35851">
        <ele>123.5232</ele>
        <time>2021-07-11T07:44:07Z</time>
      </trkpt>
      <trkpt lat="38.38442" lon="-8.35663">
        <ele>122.9728</ele>
        <time>2021-07-11T07:44:18Z</time>
      </trkpt>
      <trkpt lat="38.38238" lon="-8.35483">
        <ele>121.8971</ele>
        <time>2021-07-11T07:44:29Z</time>
      </trkpt>
      <trkpt lat="38.38107" lon="-8.35226">
        <ele>116.0392</ele>
        <time>2021-07-11T07:44:40Z</time>
      </trkpt>
      <trkpt lat="38.38071" lon="-8.34967">
        <ele>113.4099</ele>
        <time>2021-07-11T07:44:51Z</time>
      </trkpt>
      <trkpt lat="38.3806" lon="-8.34828">
        <ele>112.9548</ele>
        <time>2021-07-11T07:45:02Z</time>
      </trkpt>
      <trkpt lat="38.37927" lon="-8.34762">
        <ele>114.1894</ele>
        <time>2021-07-11T07:45:13Z</time>
      </trkpt>
      <trkpt lat="38.3776" lon="-8.34679">
        <ele>109.3156</ele>
        <time>2021-07-11T07:45:24Z</time>
      </trkpt>
      <trkpt lat="38.37609" lon="-8.34587">
        <ele>107.2594</ele>
        <time>2021-07-11T07:45:35Z</time>
      </trkpt>
      <trkpt lat="38.37426" lon="-8.34499">
        <ele>107.165</ele>
        <time>2021-07-11T07:45:46Z</time>
      </trkpt>
      <trkpt lat="38.37295" lon="-8.34458">
        <ele>111.3526</ele>
        <time>2021-07-11T07:45:57Z</time>
      </trkpt>
      <trkpt lat="38.37113" lon="-8.34405">
        <ele>109.3199</ele>
        <time>2021-07-11T07:46:08Z</time>
      </trkpt>
      <trkpt lat="38.36965" lon="-8.34401">
        <ele>105.7956</ele>
        <time>2021-07-11T07:46:19Z</time>
      </trkpt>
      <trkpt lat="38.368" lon="-8.34314">
        <ele>107.6044</ele>
        <time>2021-07-11T07:46:30Z</time>
      </trkpt>
      <trkpt lat="38.36649" lon="-8.34238">
        <ele>108.8633</ele>
        <time>2021-07-11T07:46:41Z</time>
      </trkpt>
      <trkpt lat="38.36537" lon="-8.34215">
        <ele>109.553</ele>
        <time>2021-07-11T07:46:52Z</time>
      </trkpt>
      <trkpt lat="38.36434" lon="-8.34355">
        <ele>107.9105</ele>
        <time>2021-07-11T07:47:03Z</time>
      </trkpt>
      <trkpt lat="38.36263" lon="-8.34537">
        <ele>107.0342</ele>
        <time>2021-07-11T07:47:14Z</time>
      </trkpt>
      <trkpt lat="38.36116" lon="-8.34623">
        <ele>105.7015</ele>
        <time>2021-07-11T07:47:25Z</time>
      </trkpt>
      <trkpt lat="38.35929" lon="-8.34698">
        <ele>103.2951</ele>
        <time>2021-07-11T07:47:36Z</time>
      </trkpt>
      <trkpt lat="38.35741" lon="-8.34758">
        <ele>103.8606</ele>
        <time>2021-07-11T07:47:47Z</time>
      </trkpt>
      <trkpt lat="38.35627" lon="-8.34823">
        <ele>103.2948</ele>
        <time>2021-07-11T07:47:58Z</time>
      </trkpt>
      <trkpt lat="38.35611" lon="-8.34875">
        <ele>104.7761</ele>
        <time>2021-07-11T07:48:09Z</time>
      </trkpt>
      <trkpt lat="38.35552" lon="-8.34986">
        <ele>108.684</ele>
        <time>2021-07-11T07:48:20Z</time>
      </trkpt>
      <trkpt lat="38.35465" lon="-8.34981">
        <ele>110.678</ele>
        <time>2021-07-11T07:48:31Z</time>
      </trkpt>
      <trkpt lat="38.35325" lon="-8.34977">
        <ele>110.3046</ele>
        <time>2021-07-11T07:48:42Z</time>
      </trkpt>
      <trkpt lat="38.35208" lon="-8.35038">
        <ele>104.2958</ele>
        <time>2021-07-11T07:48:53Z</time>
      </trkpt>
      <trkpt lat="38.35142" lon="-8.35154">
        <ele>104.1583</ele>
        <time>2021-07-11T07:49:04Z</time>
      </trkpt>
      <trkpt lat="38.35041" lon="-8.35261">
        <ele>104.0897</ele>
        <time>2021-07-11T07:49:15Z</time>
      </trkpt>
      <trkpt lat="38.34975" lon="-8.35401">
        <ele>104.9868</ele>
        <time>2021-07-11T07:49:26Z</time>
      </trkpt>
      <trkpt lat="38.34917" lon="-8.3557">
        <ele>106.6716</ele>
        <time>2021-07-11T07:49:37Z</time>
      </trkpt>
      <trkpt lat="38.3484" lon="-8.35736">
        <ele>108.9687</ele>
        <time>2021-07-11T07:49:48Z</time>
      </trkpt>
      <trkpt lat="38.34736" lon="-8.35903">
        <ele>109.9124</ele>
        <time>2021-07-11T07:49:59Z</time>
      </trkpt>
      <trkpt lat="38.34675" lon="-8.36103">
        <ele>108.3633</ele>
        <time>2021-07-11T07:50:10Z</time>
      </trkpt>
      <trkpt lat="38.34607" lon="-8.36247">
        <ele>105.6638</ele>
        <time>2021-07-11T07:50:21Z</time>
      </trkpt>
      <trkpt lat="38.3451" lon="-8.36344">
        <ele>103.772</ele>
        <time>2021-07-11T07:50:32Z</time>
      </trkpt>
      <trkpt lat="38.3436" lon="-8.36385">
        <ele>99.00807</ele>
        <time>2021-07-11T07:50:43Z</time>
      </trkpt>
      <trkpt lat="38.34234" lon="-8.36415">
        <ele>99.12649</ele>
        <time>2021-07-11T07:50:54Z</time>
      </trkpt>
      <trkpt lat="38.34128" lon="-8.36402">
        <ele>103.3844</ele>
        <time>2021-07-11T07:51:05Z</time>
      </trkpt>
      <trkpt lat="38.34002" lon="-8.36479">
        <ele>104.3072</ele>
        <time>2021-07-11T07:51:16Z</time>
      </trkpt>
      <trkpt lat="38.33903" lon="-8.36546">
        <ele>101.5901</ele>
        <time>2021-07-11T07:51:27Z</time>
      </trkpt>
      <trkpt lat="38.33802" lon="-8.36649">
        <ele>96.19707</ele>
        <time>2021-07-11T07:51:38Z</time>
      </trkpt>
      <trkpt lat="38.33709" lon="-8.36719">
        <ele>90.89751</ele>
        <time>2021-07-11T07:51:49Z</time>
      </trkpt>
      <trkpt lat="38.33606" lon="-8.36817">
        <ele>93.81854</ele>
        <time>2021-07-11T07:52:00Z</time>
      </trkpt>
      <trkpt lat="38.33515" lon="-8.36957">
        <ele>96.05918</ele>
        <time>2021-07-11T07:52:11Z</time>
      </trkpt>
      <trkpt lat="38.33405" lon="-8.37122">
        <ele>94.77895</ele>
        <time>2021-07-11T07:52:22Z</time>
      </trkpt>
      <trkpt lat="38.33317" lon="-8.37253">
        <ele>97.29172</ele>
        <time>2021-07-11T07:52:33Z</time>
      </trkpt>
      <trkpt lat="38.33228" lon="-8.3741">
        <ele>97.0997</ele>
        <time>2021-07-11T07:52:44Z</time>
      </trkpt>
      <trkpt lat="38.33146" lon="-8.37576">
        <ele>100.0863</ele>
        <time>2021-07-11T07:52:55Z</time>
      </trkpt>
      <trkpt lat="38.33049" lon="-8.37762">
        <ele>100.8827</ele>
        <time>2021-07-11T07:53:06Z</time>
      </trkpt>
      <trkpt lat="38.32962" lon="-8.37943">
        <ele>95.43798</ele>
        <time>2021-07-11T07:53:17Z</time>
      </trkpt>
      <trkpt lat="38.32884" lon="-8.38095">
        <ele>95.89968</ele>
        <time>2021-07-11T07:53:28Z</time>
      </trkpt>
      <trkpt lat="38.32799" lon="-8.38265">
        <ele>98.90456</ele>
        <time>2021-07-11T07:53:39Z</time>
      </trkpt>
      <trkpt lat="38.32712" lon="-8.3844">
        <ele>98.99999</ele>
        <time>2021-07-11T07:53:50Z</time>
      </trkpt>
      <trkpt lat="38.32629" lon="-8.38604">
        <ele>98.96427</ele>
        <time>2021-07-11T07:54:01Z</time>
      </trkpt>
      <trkpt lat="38.32545" lon="-8.38769">
        <ele>96.04859</ele>
        <time>2021-07-11T07:54:12Z</time>
      </trkpt>
      <trkpt lat="38.32463" lon="-8.38935">
        <ele>97.31299</ele>
        <time>2021-07-11T07:54:23Z</time>
      </trkpt>
      <trkpt lat="38.32385" lon="-8.39075">
        <ele>94.43357</ele>
        <time>2021-07-11T07:54:34Z</time>
      </trkpt>
      <trkpt lat="38.32286" lon="-8.39157">
        <ele>91.18174</ele>
        <time>2021-07-11T07:54:45Z</time>
      </trkpt>
      <trkpt lat="38.3222" lon="-8.39322">
        <ele>90.79518</ele>
        <time>2021-07-11T07:54:56Z</time>
      </trkpt>
      <trkpt lat="38.3216" lon="-8.39488">
        <ele>90.15004</ele>
        <time>2021-07-11T07:55:07Z</time>
      </trkpt>
      <trkpt lat="38.32097" lon="-8.39577">
        <ele>90.67709</ele>
        <time>2021-07-11T07:55:18Z</time>
      </trkpt>
      <trkpt lat="38.31971" lon="-8.39617">
        <ele>86.9097</ele>
        <time>2021-07-11T07:55:29Z</time>
      </trkpt>
      <trkpt lat="38.31846" lon="-8.39664">
        <ele>80.59606</ele>
        <time>2021-07-11T07:55:40Z</time>
      </trkpt>
      <trkpt lat="38.31741" lon="-8.39699">
        <ele>89.72776</ele>
        <time>2021-07-11T07:55:51Z</time>
      </trkpt>
      <trkpt lat="38.31641" lon="-8.39753">
        <ele>87.09957</ele>
        <time>2021-07-11T07:56:02Z</time>
      </trkpt>
      <trkpt lat="38.31561" lon="-8.39787">
        <ele>89.39593</ele>
        <time>2021-07-11T07:56:13Z</time>
      </trkpt>
      <trkpt lat="38.31459" lon="-8.39822">
        <ele>95.7569</ele>
        <time>2021-07-11T07:56:24Z</time>
      </trkpt>
      <trkpt lat="38.31362" lon="-8.399">
        <ele>92.45533</ele>
        <time>2021-07-11T07:56:35Z</time>
      </trkpt>
      <trkpt lat="38.31265" lon="-8.39966">
        <ele>91.75716</ele>
        <time>2021-07-11T07:56:46Z</time>
      </trkpt>
      <trkpt lat="38.31153" lon="-8.40016">
        <ele>89.91071</ele>
        <time>2021-07-11T07:56:57Z</time>
      </trkpt>
      <trkpt lat="38.31045" lon="-8.40041">
        <ele>88.76639</ele>
        <time>2021-07-11T07:57:08Z</time>
      </trkpt>
      <trkpt lat="38.30987" lon="-8.40105">
        <ele>86.48709</ele>
        <time>2021-07-11T07:57:19Z</time>
      </trkpt>
      <trkpt lat="38.30937" lon="-8.40219">
        <ele>85.40453</ele>
        <time>2021-07-11T07:57:30Z</time>
      </trkpt>
      <trkpt lat="38.30835" lon="-8.40264">
        <ele>83.36863</ele>
        <time>2021-07-11T07:57:41Z</time>
      </trkpt>
      <trkpt lat="38.3075" lon="-8.40327">
        <ele>82.12328</ele>
        <time>2021-07-11T07:57:52Z</time>
      </trkpt>
      <trkpt lat="38.30658" lon="-8.40378">
        <ele>82.13715</ele>
        <time>2021-07-11T07:58:03Z</time>
      </trkpt>
      <trkpt lat="38.30582" lon="-8.40457">
        <ele>79.15491</ele>
        <time>2021-07-11T07:58:14Z</time>
      </trkpt>
      <trkpt lat="38.30515" lon="-8.40524">
        <ele>78.74073</ele>
        <time>2021-07-11T07:58:25Z</time>
      </trkpt>
      <trkpt lat="38.30477" lon="-8.40637">
        <ele>79.1534</ele>
        <time>2021-07-11T07:58:36Z</time>
      </trkpt>
      <trkpt lat="38.30506" lon="-8.40769">
        <ele>77.20804</ele>
        <time>2021-07-11T07:58:47Z</time>
      </trkpt>
      <trkpt lat="38.30503" lon="-8.40871">
        <ele>76.42966</ele>
        <time>2021-07-11T07:58:58Z</time>
      </trkpt>
      <trkpt lat="38.30466" lon="-8.40986">
        <ele>77.31667</ele>
        <time>2021-07-11T07:59:09Z</time>
      </trkpt>
      <trkpt lat="38.30429" lon="-8.41127">
        <ele>77.29568</ele>
        <time>2021-07-11T07:59:20Z</time>
      </trkpt>
      <trkpt lat="38.30378" lon="-8.41229">
        <ele>75.15847</ele>
        <time>2021-07-11T07:59:31Z</time>
      </trkpt>
      <trkpt lat="38.30375" lon="-8.41227">
        <ele>73.31738</ele>
        <time>2021-07-11T07:59:53Z</time>
      </trkpt>
      <trkpt lat="38.30365" lon="-8.41103">
        <ele>80.95272</ele>
        <time>2021-07-11T08:00:04Z</time>
      </trkpt>
      <trkpt lat="38.30396" lon="-8.40833">
        <ele>76.00514</ele>
        <time>2021-07-11T08:00:15Z</time>
      </trkpt>
      <trkpt lat="38.30285" lon="-8.40663">
        <ele>74.7067</ele>
        <time>2021-07-11T08:00:26Z</time>
      </trkpt>
      <trkpt lat="38.30083" lon="-8.40484">
        <ele>68.68619</ele>
        <time>2021-07-11T08:00:37Z</time>
      </trkpt>
      <trkpt lat="38.29881" lon="-8.4044">
        <ele>73.69189</ele>
        <time>2021-07-11T08:00:48Z</time>
      </trkpt>
      <trkpt lat="38.29671" lon="-8.40477">
        <ele>65.0827</ele>
        <time>2021-07-11T08:00:59Z</time>
      </trkpt>
      <trkpt lat="38.29499" lon="-8.40537">
        <ele>62.14346</ele>
        <time>2021-07-11T08:01:10Z</time>
      </trkpt>
      <trkpt lat="38.29323" lon="-8.40389">
        <ele>52.32295</ele>
        <time>2021-07-11T08:01:21Z</time>
      </trkpt>
      <trkpt lat="38.29115" lon="-8.40329">
        <ele>35.6349</ele>
        <time>2021-07-11T08:01:32Z</time>
      </trkpt>
      <trkpt lat="38.2896" lon="-8.40446">
        <ele>21.22502</ele>
        <time>2021-07-11T08:01:43Z</time>
      </trkpt>
      <trkpt lat="38.28795" lon="-8.40485">
        <ele>9.339877</ele>
        <time>2021-07-11T08:01:54Z</time>
      </trkpt>
      <trkpt lat="38.28659" lon="-8.40374">
        <ele>8.577981</ele>
        <time>2021-07-11T08:02:05Z</time>
      </trkpt>
      <trkpt lat="38.2848" lon="-8.40167">
        <ele>11.37455</ele>
        <time>2021-07-11T08:02:16Z</time>
      </trkpt>
      <trkpt lat="38.28304" lon="-8.39968">
        <ele>15.65587</ele>
        <time>2021-07-11T08:02:27Z</time>
      </trkpt>
      <trkpt lat="38.28126" lon="-8.39766">
        <ele>22.00021</ele>
        <time>2021-07-11T08:02:38Z</time>
      </trkpt>
      <trkpt lat="38.2795" lon="-8.39566">
        <ele>23.49577</ele>
        <time>2021-07-11T08:02:49Z</time>
      </trkpt>
      <trkpt lat="38.27809" lon="-8.39383">
        <ele>16.51927</ele>
        <time>2021-07-11T08:03:00Z</time>
      </trkpt>
      <trkpt lat="38.27858" lon="-8.39105">
        <ele>8.307227</ele>
        <time>2021-07-11T08:03:11Z</time>
      </trkpt>
      <trkpt lat="38.2791" lon="-8.38799">
        <ele>8.631122</ele>
        <time>2021-07-11T08:03:22Z</time>
      </trkpt>
      <trkpt lat="38.27918" lon="-8.38485">
        <ele>8.199545</ele>
        <time>2021-07-11T08:03:33Z</time>
      </trkpt>
      <trkpt lat="38.27901" lon="-8.38184">
        <ele>7.52035</ele>
        <time>2021-07-11T08:03:44Z</time>
      </trkpt>
      <trkpt lat="38.27817" lon="-8.37913">
        <ele>8.678909</ele>
        <time>2021-07-11T08:03:55Z</time>
      </trkpt>
      <trkpt lat="38.27657" lon="-8.37666">
        <ele>7.603717</ele>
        <time>2021-07-11T08:04:06Z</time>
      </trkpt>
      <trkpt lat="38.27458" lon="-8.37552">
        <ele>13.92664</ele>
        <time>2021-07-11T08:04:17Z</time>
      </trkpt>
      <trkpt lat="38.27393" lon="-8.37335">
        <ele>19.36648</ele>
        <time>2021-07-11T08:04:28Z</time>
      </trkpt>
      <trkpt lat="38.27359" lon="-8.37018">
        <ele>12.4089</ele>
        <time>2021-07-11T08:04:39Z</time>
      </trkpt>
      <trkpt lat="38.27326" lon="-8.36714">
        <ele>11.40395</ele>
        <time>2021-07-11T08:04:50Z</time>
      </trkpt>
      <trkpt lat="38.2725" lon="-8.3642">
        <ele>10.74357</ele>
        <time>2021-07-11T08:05:01Z</time>
      </trkpt>
      <trkpt lat="38.27178" lon="-8.36136">
        <ele>12.80627</ele>
        <time>2021-07-11T08:05:12Z</time>
      </trkpt>
      <trkpt lat="38.27189" lon="-8.35906">
        <ele>9.855091</ele>
        <time>2021-07-11T08:05:23Z</time>
      </trkpt>
      <trkpt lat="38.27103" lon="-8.35838">
        <ele>13.31753</ele>
        <time>2021-07-11T08:05:34Z</time>
      </trkpt>
      <trkpt lat="38.26945" lon="-8.3573">
        <ele>19.74515</ele>
        <time>2021-07-11T08:05:45Z</time>
      </trkpt>
      <trkpt lat="38.26787" lon="-8.3549">
        <ele>30.2905</ele>
        <time>2021-07-11T08:05:56Z</time>
      </trkpt>
      <trkpt lat="38.26668" lon="-8.35232">
        <ele>32.63341</ele>
        <time>2021-07-11T08:06:07Z</time>
      </trkpt>
      <trkpt lat="38.26608" lon="-8.34937">
        <ele>44.34011</ele>
        <time>2021-07-11T08:06:18Z</time>
      </trkpt>
      <trkpt lat="38.26568" lon="-8.34743">
        <ele>49.97196</ele>
        <time>2021-07-11T08:06:29Z</time>
      </trkpt>
      <trkpt lat="38.2652" lon="-8.34718">
        <ele>49.80681</ele>
        <time>2021-07-11T08:06:40Z</time>
      </trkpt>
      <trkpt lat="38.26405" lon="-8.3492">
        <ele>49.74598</ele>
        <time>2021-07-11T08:06:51Z</time>
      </trkpt>
      <trkpt lat="38.26269" lon="-8.35151">
        <ele>51.19224</ele>
        <time>2021-07-11T08:07:02Z</time>
      </trkpt>
      <trkpt lat="38.26104" lon="-8.35344">
        <ele>48.16707</ele>
        <time>2021-07-11T08:07:13Z</time>
      </trkpt>
      <trkpt lat="38.25901" lon="-8.3556">
        <ele>49.24151</ele>
        <time>2021-07-11T08:07:24Z</time>
      </trkpt>
      <trkpt lat="38.25701" lon="-8.357">
        <ele>39.96884</ele>
        <time>2021-07-11T08:07:35Z</time>
      </trkpt>
      <trkpt lat="38.25478" lon="-8.35756">
        <ele>23.53268</ele>
        <time>2021-07-11T08:07:46Z</time>
      </trkpt>
      <trkpt lat="38.2534" lon="-8.35802">
        <ele>11.75172</ele>
        <time>2021-07-11T08:07:57Z</time>
      </trkpt>
      <trkpt lat="38.25306" lon="-8.35897">
        <ele>10.25844</ele>
        <time>2021-07-11T08:08:08Z</time>
      </trkpt>
      <trkpt lat="38.25162" lon="-8.3591">
        <ele>9.183672</ele>
        <time>2021-07-11T08:08:19Z</time>
      </trkpt>
      <trkpt lat="38.25074" lon="-8.35862">
        <ele>7.637437</ele>
        <time>2021-07-11T08:08:30Z</time>
      </trkpt>
      <trkpt lat="38.2493" lon="-8.359">
        <ele>7.896779</ele>
        <time>2021-07-11T08:08:41Z</time>
      </trkpt>
      <trkpt lat="38.24892" lon="-8.35909">
        <ele>9.198165</ele>
        <time>2021-07-11T08:08:52Z</time>
      </trkpt>
      <trkpt lat="38.24891" lon="-8.3591">
        <ele>9.277379</ele>
        <time>2021-07-11T08:09:52Z</time>
      </trkpt>
      <trkpt lat="38.24886" lon="-8.35908">
        <ele>8.998999</ele>
        <time>2021-07-11T08:10:11Z</time>
      </trkpt>
      <trkpt lat="38.24827" lon="-8.35815">
        <ele>9.382694</ele>
        <time>2021-07-11T08:10:22Z</time>
      </trkpt>
      <trkpt lat="38.24811" lon="-8.35787">
        <ele>9.386321</ele>
        <time>2021-07-11T08:10:33Z</time>
      </trkpt>
      <trkpt lat="38.24779" lon="-8.35719">
        <ele>9.925876</ele>
        <time>2021-07-11T08:10:44Z</time>
      </trkpt>
      <trkpt lat="38.24738" lon="-8.35645">
        <ele>10.56497</ele>
        <time>2021-07-11T08:10:55Z</time>
      </trkpt>
      <trkpt lat="38.24705" lon="-8.35483">
        <ele>5.438033</ele>
        <time>2021-07-11T08:11:06Z</time>
      </trkpt>
      <trkpt lat="38.24715" lon="-8.35311">
        <ele>5.292246</ele>
        <time>2021-07-11T08:11:17Z</time>
      </trkpt>
      <trkpt lat="38.24688" lon="-8.35118">
        <ele>6.94417</ele>
        <time>2021-07-11T08:11:28Z</time>
      </trkpt>
      <trkpt lat="38.24667" lon="-8.34979">
        <ele>11.11526</ele>
        <time>2021-07-11T08:11:39Z</time>
      </trkpt>
      <trkpt lat="38.24645" lon="-8.34869">
        <ele>20.96247</ele>
        <time>2021-07-11T08:11:50Z</time>
      </trkpt>
      <trkpt lat="38.24647" lon="-8.34874">
        <ele>18.21759</ele>
        <time>2021-07-11T08:12:01Z</time>
      </trkpt>
      <trkpt lat="38.2465" lon="-8.34875">
        <ele>15.93756</ele>
        <time>2021-07-11T08:12:15Z</time>
      </trkpt>
      <trkpt lat="38.24648" lon="-8.34878">
        <ele>11.00835</ele>
        <time>2021-07-11T08:13:14Z</time>
      </trkpt>
      <trkpt lat="38.24648" lon="-8.34879">
        <ele>7.802497</ele>
        <time>2021-07-11T08:14:14Z</time>
      </trkpt>
      <trkpt lat="38.24647" lon="-8.34874">
        <ele>8.001434</ele>
        <time>2021-07-11T08:15:09Z</time>
      </trkpt>
      <trkpt lat="38.2465" lon="-8.3487">
        <ele>8.500644</ele>
        <time>2021-07-11T08:15:27Z</time>
      </trkpt>
      <trkpt lat="38.24702" lon="-8.34795">
        <ele>8.873346</ele>
        <time>2021-07-11T08:15:38Z</time>
      </trkpt>
      <trkpt lat="38.247" lon="-8.34735">
        <ele>9.054477</ele>
        <time>2021-07-11T08:15:49Z</time>
      </trkpt>
      <trkpt lat="38.24699" lon="-8.34729">
        <ele>10.7502</ele>
        <time>2021-07-11T08:16:28Z</time>
      </trkpt>
      <trkpt lat="38.24695" lon="-8.34648">
        <ele>9.203674</ele>
        <time>2021-07-11T08:16:39Z</time>
      </trkpt>
      <trkpt lat="38.24701" lon="-8.34554">
        <ele>8.537509</ele>
        <time>2021-07-11T08:16:50Z</time>
      </trkpt>
      <trkpt lat="38.24696" lon="-8.34462">
        <ele>9.069308</ele>
        <time>2021-07-11T08:17:01Z</time>
      </trkpt>
      <trkpt lat="38.24686" lon="-8.34407">
        <ele>9.621271</ele>
        <time>2021-07-11T08:17:12Z</time>
      </trkpt>
      <trkpt lat="38.24653" lon="-8.34326">
        <ele>9.275342</ele>
        <time>2021-07-11T08:17:23Z</time>
      </trkpt>
      <trkpt lat="38.24643" lon="-8.34242">
        <ele>8.49753</ele>
        <time>2021-07-11T08:17:34Z</time>
      </trkpt>
      <trkpt lat="38.24632" lon="-8.34153">
        <ele>9.337034</ele>
        <time>2021-07-11T08:17:45Z</time>
      </trkpt>
      <trkpt lat="38.24615" lon="-8.34047">
        <ele>8.538822</ele>
        <time>2021-07-11T08:17:56Z</time>
      </trkpt>
      <trkpt lat="38.24588" lon="-8.33953">
        <ele>9.856685</ele>
        <time>2021-07-11T08:18:07Z</time>
      </trkpt>
      <trkpt lat="38.24552" lon="-8.33832">
        <ele>9.365033</ele>
        <time>2021-07-11T08:18:18Z</time>
      </trkpt>
      <trkpt lat="38.24519" lon="-8.33727">
        <ele>11.05442</ele>
        <time>2021-07-11T08:18:29Z</time>
      </trkpt>
      <trkpt lat="38.24472" lon="-8.33629">
        <ele>11.94819</ele>
        <time>2021-07-11T08:18:40Z</time>
      </trkpt>
      <trkpt lat="38.24426" lon="-8.3355">
        <ele>9.470507</ele>
        <time>2021-07-11T08:18:51Z</time>
      </trkpt>
      <trkpt lat="38.24365" lon="-8.33471">
        <ele>12.33873</ele>
        <time>2021-07-11T08:19:02Z</time>
      </trkpt>
      <trkpt lat="38.2429" lon="-8.33413">
        <ele>11.03699</ele>
        <time>2021-07-11T08:19:13Z</time>
      </trkpt>
      <trkpt lat="38.24213" lon="-8.33351">
        <ele>10.75713</ele>
        <time>2021-07-11T08:19:24Z</time>
      </trkpt>
      <trkpt lat="38.24133" lon="-8.33309">
        <ele>11.52784</ele>
        <time>2021-07-11T08:19:35Z</time>
      </trkpt>
      <trkpt lat="38.2405" lon="-8.33293">
        <ele>11.59301</ele>
        <time>2021-07-11T08:19:46Z</time>
      </trkpt>
      <trkpt lat="38.23974" lon="-8.33264">
        <ele>13.71649</ele>
        <time>2021-07-11T08:19:57Z</time>
      </trkpt>
      <trkpt lat="38.23888" lon="-8.33249">
        <ele>14.86415</ele>
        <time>2021-07-11T08:20:08Z</time>
      </trkpt>
      <trkpt lat="38.23808" lon="-8.33255">
        <ele>10.83716</ele>
        <time>2021-07-11T08:20:19Z</time>
      </trkpt>
      <trkpt lat="38.23732" lon="-8.33246">
        <ele>7.486288</ele>
        <time>2021-07-11T08:20:30Z</time>
      </trkpt>
      <trkpt lat="38.23644" lon="-8.33251">
        <ele>6.953699</ele>
        <time>2021-07-11T08:20:41Z</time>
      </trkpt>
      <trkpt lat="38.2356" lon="-8.33273">
        <ele>10.23732</ele>
        <time>2021-07-11T08:20:52Z</time>
      </trkpt>
      <trkpt lat="38.23467" lon="-8.33295">
        <ele>10.67693</ele>
        <time>2021-07-11T08:21:03Z</time>
      </trkpt>
      <trkpt lat="38.23375" lon="-8.33324">
        <ele>8.349859</ele>
        <time>2021-07-11T08:21:14Z</time>
      </trkpt>
      <trkpt lat="38.23269" lon="-8.33353">
        <ele>6.460981</ele>
        <time>2021-07-11T08:21:25Z</time>
      </trkpt>
      <trkpt lat="38.23169" lon="-8.33366">
        <ele>2.471184</ele>
        <time>2021-07-11T08:21:36Z</time>
      </trkpt>
      <trkpt lat="38.23082" lon="-8.33379">
        <ele>7.839363</ele>
        <time>2021-07-11T08:21:47Z</time>
      </trkpt>
      <trkpt lat="38.22988" lon="-8.33376">
        <ele>10.02694</ele>
        <time>2021-07-11T08:21:58Z</time>
      </trkpt>
      <trkpt lat="38.22867" lon="-8.33357">
        <ele>8.922056</ele>
        <time>2021-07-11T08:22:09Z</time>
      </trkpt>
      <trkpt lat="38.22767" lon="-8.33342">
        <ele>10.32244</ele>
        <time>2021-07-11T08:22:20Z</time>
      </trkpt>
      <trkpt lat="38.22682" lon="-8.33325">
        <ele>8.923465</ele>
        <time>2021-07-11T08:22:31Z</time>
      </trkpt>
      <trkpt lat="38.22574" lon="-8.333">
        <ele>8.13251</ele>
        <time>2021-07-11T08:22:42Z</time>
      </trkpt>
      <trkpt lat="38.22489" lon="-8.33264">
        <ele>9.365492</ele>
        <time>2021-07-11T08:22:53Z</time>
      </trkpt>
      <trkpt lat="38.2243" lon="-8.33228">
        <ele>9.300894</ele>
        <time>2021-07-11T08:23:04Z</time>
      </trkpt>
      <trkpt lat="38.22356" lon="-8.33175">
        <ele>8.652783</ele>
        <time>2021-07-11T08:23:15Z</time>
      </trkpt>
      <trkpt lat="38.22267" lon="-8.33107">
        <ele>8.847508</ele>
        <time>2021-07-11T08:23:26Z</time>
      </trkpt>
      <trkpt lat="38.22186" lon="-8.33056">
        <ele>9.175436</ele>
        <time>2021-07-11T08:23:37Z</time>
      </trkpt>
      <trkpt lat="38.22094" lon="-8.32993">
        <ele>9.771261</ele>
        <time>2021-07-11T08:23:48Z</time>
      </trkpt>
      <trkpt lat="38.22015" lon="-8.32936">
        <ele>8.083141</ele>
        <time>2021-07-11T08:23:59Z</time>
      </trkpt>
      <trkpt lat="38.21942" lon="-8.32899">
        <ele>8.062124</ele>
        <time>2021-07-11T08:24:10Z</time>
      </trkpt>
      <trkpt lat="38.21845" lon="-8.32867">
        <ele>13.14949</ele>
        <time>2021-07-11T08:24:21Z</time>
      </trkpt>
      <trkpt lat="38.21762" lon="-8.32794">
        <ele>12.58373</ele>
        <time>2021-07-11T08:24:32Z</time>
      </trkpt>
      <trkpt lat="38.2169" lon="-8.32722">
        <ele>16.10121</ele>
        <time>2021-07-11T08:24:43Z</time>
      </trkpt>
      <trkpt lat="38.21651" lon="-8.32668">
        <ele>13.73083</ele>
        <time>2021-07-11T08:24:54Z</time>
      </trkpt>
      <trkpt lat="38.21621" lon="-8.32605">
        <ele>12.06607</ele>
        <time>2021-07-11T08:25:05Z</time>
      </trkpt>
      <trkpt lat="38.21557" lon="-8.32541">
        <ele>11.29921</ele>
        <time>2021-07-11T08:25:16Z</time>
      </trkpt>
      <trkpt lat="38.21495" lon="-8.325">
        <ele>11.50065</ele>
        <time>2021-07-11T08:25:27Z</time>
      </trkpt>
      <trkpt lat="38.21413" lon="-8.32502">
        <ele>8.740051</ele>
        <time>2021-07-11T08:25:38Z</time>
      </trkpt>
      <trkpt lat="38.21303" lon="-8.32454">
        <ele>10.26407</ele>
        <time>2021-07-11T08:25:49Z</time>
      </trkpt>
      <trkpt lat="38.21163" lon="-8.32439">
        <ele>10.73764</ele>
        <time>2021-07-11T08:26:00Z</time>
      </trkpt>
      <trkpt lat="38.21022" lon="-8.32434">
        <ele>9.976716</ele>
        <time>2021-07-11T08:26:11Z</time>
      </trkpt>
      <trkpt lat="38.20845" lon="-8.32443">
        <ele>9.738493</ele>
        <time>2021-07-11T08:26:22Z</time>
      </trkpt>
      <trkpt lat="38.20657" lon="-8.32456">
        <ele>8.954148</ele>
        <time>2021-07-11T08:26:33Z</time>
      </trkpt>
      <trkpt lat="38.20474" lon="-8.32458">
        <ele>5.169032</ele>
        <time>2021-07-11T08:26:44Z</time>
      </trkpt>
      <trkpt lat="38.20308" lon="-8.32426">
        <ele>8.516481</ele>
        <time>2021-07-11T08:26:55Z</time>
      </trkpt>
      <trkpt lat="38.20158" lon="-8.32325">
        <ele>4.246837</ele>
        <time>2021-07-11T08:27:06Z</time>
      </trkpt>
      <trkpt lat="38.20027" lon="-8.32214">
        <ele>1.800289</ele>
        <time>2021-07-11T08:27:17Z</time>
      </trkpt>
      <trkpt lat="38.19929" lon="-8.32108">
        <ele>5.068121</ele>
        <time>2021-07-11T08:27:28Z</time>
      </trkpt>
      <trkpt lat="38.19843" lon="-8.32019">
        <ele>12.33119</ele>
        <time>2021-07-11T08:27:39Z</time>
      </trkpt>
      <trkpt lat="38.1974" lon="-8.31864">
        <ele>17.46079</ele>
        <time>2021-07-11T08:27:50Z</time>
      </trkpt>
      <trkpt lat="38.19665" lon="-8.31706">
        <ele>17.7698</ele>
        <time>2021-07-11T08:28:01Z</time>
      </trkpt>
      <trkpt lat="38.1963" lon="-8.31543">
        <ele>4.828489</ele>
        <time>2021-07-11T08:28:12Z</time>
      </trkpt>
      <trkpt lat="38.19618" lon="-8.31324">
        <ele>11.83972</ele>
        <time>2021-07-11T08:28:23Z</time>
      </trkpt>
      <trkpt lat="38.19588" lon="-8.3116">
        <ele>13.09957</ele>
        <time>2021-07-11T08:28:34Z</time>
      </trkpt>
      <trkpt lat="38.19533" lon="-8.30985">
        <ele>14.24353</ele>
        <time>2021-07-11T08:28:45Z</time>
      </trkpt>
      <trkpt lat="38.19479" lon="-8.30823">
        <ele>14.50321</ele>
        <time>2021-07-11T08:28:56Z</time>
      </trkpt>
      <trkpt lat="38.1939" lon="-8.30663">
        <ele>14.07191</ele>
        <time>2021-07-11T08:29:07Z</time>
      </trkpt>
      <trkpt lat="38.19301" lon="-8.30522">
        <ele>18.02759</ele>
        <time>2021-07-11T08:29:18Z</time>
      </trkpt>
      <trkpt lat="38.192" lon="-8.30398">
        <ele>15.68317</ele>
        <time>2021-07-11T08:29:29Z</time>
      </trkpt>
      <trkpt lat="38.19093" lon="-8.30304">
        <ele>12.85856</ele>
        <time>2021-07-11T08:29:40Z</time>
      </trkpt>
      <trkpt lat="38.18959" lon="-8.30257">
        <ele>12.36989</ele>
        <time>2021-07-11T08:29:51Z</time>
      </trkpt>
      <trkpt lat="38.18874" lon="-8.30242">
        <ele>11.57231</ele>
        <time>2021-07-11T08:30:02Z</time>
      </trkpt>
      <trkpt lat="38.18767" lon="-8.30308">
        <ele>12.57203</ele>
        <time>2021-07-11T08:30:13Z</time>
      </trkpt>
      <trkpt lat="38.18668" lon="-8.30386">
        <ele>17.07957</ele>
        <time>2021-07-11T08:30:24Z</time>
      </trkpt>
      <trkpt lat="38.1857" lon="-8.30511">
        <ele>14.55817</ele>
        <time>2021-07-11T08:30:35Z</time>
      </trkpt>
      <trkpt lat="38.18481" lon="-8.30628">
        <ele>13.18701</ele>
        <time>2021-07-11T08:30:46Z</time>
      </trkpt>
      <trkpt lat="38.18411" lon="-8.30747">
        <ele>12.30003</ele>
        <time>2021-07-11T08:30:57Z</time>
      </trkpt>
      <trkpt lat="38.18374" lon="-8.30906">
        <ele>12.96577</ele>
        <time>2021-07-11T08:31:08Z</time>
      </trkpt>
      <trkpt lat="38.18346" lon="-8.31082">
        <ele>14.68612</ele>
        <time>2021-07-11T08:31:19Z</time>
      </trkpt>
      <trkpt lat="38.18327" lon="-8.3127">
        <ele>18.10874</ele>
        <time>2021-07-11T08:31:30Z</time>
      </trkpt>
      <trkpt lat="38.18315" lon="-8.31413">
        <ele>15.44247</ele>
        <time>2021-07-11T08:31:41Z</time>
      </trkpt>
      <trkpt lat="38.18279" lon="-8.31496">
        <ele>16.99286</ele>
        <time>2021-07-11T08:31:52Z</time>
      </trkpt>
      <trkpt lat="38.18238" lon="-8.31653">
        <ele>17.00259</ele>
        <time>2021-07-11T08:32:03Z</time>
      </trkpt>
      <trkpt lat="38.18156" lon="-8.31787">
        <ele>17.80516</ele>
        <time>2021-07-11T08:32:14Z</time>
      </trkpt>
      <trkpt lat="38.18068" lon="-8.31872">
        <ele>17.59651</ele>
        <time>2021-07-11T08:32:25Z</time>
      </trkpt>
      <trkpt lat="38.17978" lon="-8.31965">
        <ele>20.21974</ele>
        <time>2021-07-11T08:32:36Z</time>
      </trkpt>
      <trkpt lat="38.17848" lon="-8.32112">
        <ele>19.24809</ele>
        <time>2021-07-11T08:32:47Z</time>
      </trkpt>
      <trkpt lat="38.17775" lon="-8.32199">
        <ele>20.62706</ele>
        <time>2021-07-11T08:32:58Z</time>
      </trkpt>
      <trkpt lat="38.17753" lon="-8.32226">
        <ele>19.89031</ele>
        <time>2021-07-11T08:33:09Z</time>
      </trkpt>
      <trkpt lat="38.17754" lon="-8.32225">
        <ele>20.07071</ele>
        <time>2021-07-11T08:34:09Z</time>
      </trkpt>
      <trkpt lat="38.17755" lon="-8.32225">
        <ele>18.0968</ele>
        <time>2021-07-11T08:35:09Z</time>
      </trkpt>
      <trkpt lat="38.17754" lon="-8.32225">
        <ele>18.68562</ele>
        <time>2021-07-11T08:36:08Z</time>
      </trkpt>
      <trkpt lat="38.17754" lon="-8.32226">
        <ele>18.29059</ele>
        <time>2021-07-11T08:37:08Z</time>
      </trkpt>
      <trkpt lat="38.17754" lon="-8.32225">
        <ele>19.76525</ele>
        <time>2021-07-11T08:38:08Z</time>
      </trkpt>
      <trkpt lat="38.17751" lon="-8.3223">
        <ele>19.48975</ele>
        <time>2021-07-11T08:38:23Z</time>
      </trkpt>
      <trkpt lat="38.17697" lon="-8.32283">
        <ele>19.23543</ele>
        <time>2021-07-11T08:38:34Z</time>
      </trkpt>
      <trkpt lat="38.17611" lon="-8.32343">
        <ele>16.5959</ele>
        <time>2021-07-11T08:38:45Z</time>
      </trkpt>
      <trkpt lat="38.17516" lon="-8.32408">
        <ele>11.1016</ele>
        <time>2021-07-11T08:38:56Z</time>
      </trkpt>
      <trkpt lat="38.17411" lon="-8.32482">
        <ele>5.367895</ele>
        <time>2021-07-11T08:39:07Z</time>
      </trkpt>
      <trkpt lat="38.17298" lon="-8.32576">
        <ele>17.05101</ele>
        <time>2021-07-11T08:39:18Z</time>
      </trkpt>
      <trkpt lat="38.17166" lon="-8.32671">
        <ele>16.39121</ele>
        <time>2021-07-11T08:39:29Z</time>
      </trkpt>
      <trkpt lat="38.17018" lon="-8.32726">
        <ele>13.23242</ele>
        <time>2021-07-11T08:39:40Z</time>
      </trkpt>
      <trkpt lat="38.16893" lon="-8.32775">
        <ele>14.81548</ele>
        <time>2021-07-11T08:39:51Z</time>
      </trkpt>
      <trkpt lat="38.16784" lon="-8.32853">
        <ele>15.22618</ele>
        <time>2021-07-11T08:40:03Z</time>
      </trkpt>
      <trkpt lat="38.16706" lon="-8.32909">
        <ele>13.27043</ele>
        <time>2021-07-11T08:40:14Z</time>
      </trkpt>
      <trkpt lat="38.16671" lon="-8.32843">
        <ele>15.44605</ele>
        <time>2021-07-11T08:40:25Z</time>
      </trkpt>
      <trkpt lat="38.16587" lon="-8.32807">
        <ele>14.20818</ele>
        <time>2021-07-11T08:40:36Z</time>
      </trkpt>
      <trkpt lat="38.16463" lon="-8.32798">
        <ele>11.48942</ele>
        <time>2021-07-11T08:40:47Z</time>
      </trkpt>
      <trkpt lat="38.16343" lon="-8.32796">
        <ele>10.10186</ele>
        <time>2021-07-11T08:40:58Z</time>
      </trkpt>
      <trkpt lat="38.1624" lon="-8.32811">
        <ele>11.11065</ele>
        <time>2021-07-11T08:41:09Z</time>
      </trkpt>
      <trkpt lat="38.16121" lon="-8.32824">
        <ele>11.11062</ele>
        <time>2021-07-11T08:41:20Z</time>
      </trkpt>
      <trkpt lat="38.16012" lon="-8.32844">
        <ele>11.91089</ele>
        <time>2021-07-11T08:41:31Z</time>
      </trkpt>
      <trkpt lat="38.15914" lon="-8.32865">
        <ele>11.76381</ele>
        <time>2021-07-11T08:41:42Z</time>
      </trkpt>
      <trkpt lat="38.15815" lon="-8.32924">
        <ele>13.95344</ele>
        <time>2021-07-11T08:41:53Z</time>
      </trkpt>
      <trkpt lat="38.15746" lon="-8.33016">
        <ele>11.88166</ele>
        <time>2021-07-11T08:42:04Z</time>
      </trkpt>
      <trkpt lat="38.1569" lon="-8.33193">
        <ele>13.97101</ele>
        <time>2021-07-11T08:42:15Z</time>
      </trkpt>
      <trkpt lat="38.15599" lon="-8.33344">
        <ele>9.954024</ele>
        <time>2021-07-11T08:42:26Z</time>
      </trkpt>
      <trkpt lat="38.15502" lon="-8.33489">
        <ele>11.48675</ele>
        <time>2021-07-11T08:42:37Z</time>
      </trkpt>
      <trkpt lat="38.15383" lon="-8.33614">
        <ele>9.64102</ele>
        <time>2021-07-11T08:42:48Z</time>
      </trkpt>
      <trkpt lat="38.1527" lon="-8.33724">
        <ele>10.68578</ele>
        <time>2021-07-11T08:42:59Z</time>
      </trkpt>
      <trkpt lat="38.15166" lon="-8.3379">
        <ele>7.105177</ele>
        <time>2021-07-11T08:43:10Z</time>
      </trkpt>
      <trkpt lat="38.15069" lon="-8.33889">
        <ele>23.06408</ele>
        <time>2021-07-11T08:43:21Z</time>
      </trkpt>
      <trkpt lat="38.14973" lon="-8.33964">
        <ele>23.13625</ele>
        <time>2021-07-11T08:43:32Z</time>
      </trkpt>
      <trkpt lat="38.15014" lon="-8.34126">
        <ele>28.21146</ele>
        <time>2021-07-11T08:43:43Z</time>
      </trkpt>
      <trkpt lat="38.1504" lon="-8.34272">
        <ele>31.14513</ele>
        <time>2021-07-11T08:43:54Z</time>
      </trkpt>
      <trkpt lat="38.15014" lon="-8.34391">
        <ele>33.2154</ele>
        <time>2021-07-11T08:44:05Z</time>
      </trkpt>
      <trkpt lat="38.14972" lon="-8.34535">
        <ele>38.28878</ele>
        <time>2021-07-11T08:44:16Z</time>
      </trkpt>
      <trkpt lat="38.14935" lon="-8.34697">
        <ele>45.32768</ele>
        <time>2021-07-11T08:44:27Z</time>
      </trkpt>
      <trkpt lat="38.14858" lon="-8.34813">
        <ele>46.06677</ele>
        <time>2021-07-11T08:44:38Z</time>
      </trkpt>
      <trkpt lat="38.14751" lon="-8.34877">
        <ele>40.8522</ele>
        <time>2021-07-11T08:44:49Z</time>
      </trkpt>
      <trkpt lat="38.14621" lon="-8.35021">
        <ele>38.63885</ele>
        <time>2021-07-11T08:45:00Z</time>
      </trkpt>
      <trkpt lat="38.14433" lon="-8.35213">
        <ele>34.7759</ele>
        <time>2021-07-11T08:45:11Z</time>
      </trkpt>
      <trkpt lat="38.143" lon="-8.35427">
        <ele>33.13666</ele>
        <time>2021-07-11T08:45:22Z</time>
      </trkpt>
      <trkpt lat="38.14205" lon="-8.3562">
        <ele>29.0846</ele>
        <time>2021-07-11T08:45:33Z</time>
      </trkpt>
      <trkpt lat="38.14121" lon="-8.35714">
        <ele>26.78889</ele>
        <time>2021-07-11T08:45:44Z</time>
      </trkpt>
      <trkpt lat="38.13999" lon="-8.35601">
        <ele>24.42141</ele>
        <time>2021-07-11T08:45:55Z</time>
      </trkpt>
      <trkpt lat="38.13864" lon="-8.35679">
        <ele>23.84344</ele>
        <time>2021-07-11T08:46:06Z</time>
      </trkpt>
      <trkpt lat="38.13663" lon="-8.35825">
        <ele>27.07905</ele>
        <time>2021-07-11T08:46:17Z</time>
      </trkpt>
      <trkpt lat="38.1346" lon="-8.35937">
        <ele>28.51563</ele>
        <time>2021-07-11T08:46:28Z</time>
      </trkpt>
      <trkpt lat="38.1329" lon="-8.36019">
        <ele>25.19337</ele>
        <time>2021-07-11T08:46:39Z</time>
      </trkpt>
      <trkpt lat="38.13216" lon="-8.3617">
        <ele>22.71109</ele>
        <time>2021-07-11T08:46:50Z</time>
      </trkpt>
      <trkpt lat="38.13197" lon="-8.36274">
        <ele>16.20412</ele>
        <time>2021-07-11T08:47:01Z</time>
      </trkpt>
      <trkpt lat="38.13064" lon="-8.3632">
        <ele>17.36736</ele>
        <time>2021-07-11T08:47:12Z</time>
      </trkpt>
      <trkpt lat="38.12958" lon="-8.36399">
        <ele>18.6417</ele>
        <time>2021-07-11T08:47:23Z</time>
      </trkpt>
      <trkpt lat="38.1289" lon="-8.36293">
        <ele>20.627</ele>
        <time>2021-07-11T08:47:34Z</time>
      </trkpt>
      <trkpt lat="38.12815" lon="-8.36049">
        <ele>17.80517</ele>
        <time>2021-07-11T08:47:45Z</time>
      </trkpt>
      <trkpt lat="38.12725" lon="-8.35874">
        <ele>18.45482</ele>
        <time>2021-07-11T08:47:56Z</time>
      </trkpt>
      <trkpt lat="38.12581" lon="-8.35734">
        <ele>16.1197</ele>
        <time>2021-07-11T08:48:07Z</time>
      </trkpt>
      <trkpt lat="38.12392" lon="-8.35696">
        <ele>18.98368</ele>
        <time>2021-07-11T08:48:19Z</time>
      </trkpt>
      <trkpt lat="38.12181" lon="-8.35721">
        <ele>16.57221</ele>
        <time>2021-07-11T08:48:30Z</time>
      </trkpt>
      <trkpt lat="38.11974" lon="-8.35782">
        <ele>14.92834</ele>
        <time>2021-07-11T08:48:41Z</time>
      </trkpt>
      <trkpt lat="38.11738" lon="-8.35901">
        <ele>14.12096</ele>
        <time>2021-07-11T08:48:52Z</time>
      </trkpt>
      <trkpt lat="38.1154" lon="-8.36004">
        <ele>13.37392</ele>
        <time>2021-07-11T08:49:03Z</time>
      </trkpt>
      <trkpt lat="38.11419" lon="-8.36078">
        <ele>16.49139</ele>
        <time>2021-07-11T08:49:14Z</time>
      </trkpt>
      <trkpt lat="38.11405" lon="-8.36083">
        <ele>16.16572</ele>
        <time>2021-07-11T08:49:25Z</time>
      </trkpt>
      <trkpt lat="38.11329" lon="-8.35949">
        <ele>17.69097</ele>
        <time>2021-07-11T08:49:36Z</time>
      </trkpt>
      <trkpt lat="38.11234" lon="-8.3578">
        <ele>19.44641</ele>
        <time>2021-07-11T08:49:47Z</time>
      </trkpt>
      <trkpt lat="38.11208" lon="-8.35728">
        <ele>23.62964</ele>
        <time>2021-07-11T08:49:58Z</time>
      </trkpt>
      <trkpt lat="38.11165" lon="-8.35646">
        <ele>25.70915</ele>
        <time>2021-07-11T08:50:09Z</time>
      </trkpt>
      <trkpt lat="38.11055" lon="-8.35446">
        <ele>22.91453</ele>
        <time>2021-07-11T08:50:20Z</time>
      </trkpt>
      <trkpt lat="38.10998" lon="-8.35178">
        <ele>28.64797</ele>
        <time>2021-07-11T08:50:31Z</time>
      </trkpt>
      <trkpt lat="38.10844" lon="-8.35035">
        <ele>34.67677</ele>
        <time>2021-07-11T08:50:42Z</time>
      </trkpt>
      <trkpt lat="38.10619" lon="-8.34906">
        <ele>33.45613</ele>
        <time>2021-07-11T08:50:53Z</time>
      </trkpt>
      <trkpt lat="38.1041" lon="-8.34786">
        <ele>36.08877</ele>
        <time>2021-07-11T08:51:04Z</time>
      </trkpt>
      <trkpt lat="38.10201" lon="-8.34664">
        <ele>44.66872</ele>
        <time>2021-07-11T08:51:15Z</time>
      </trkpt>
      <trkpt lat="38.10004" lon="-8.34553">
        <ele>45.67546</ele>
        <time>2021-07-11T08:51:26Z</time>
      </trkpt>
      <trkpt lat="38.09813" lon="-8.34444">
        <ele>45.94884</ele>
        <time>2021-07-11T08:51:37Z</time>
      </trkpt>
      <trkpt lat="38.09617" lon="-8.34325">
        <ele>55.06336</ele>
        <time>2021-07-11T08:51:48Z</time>
      </trkpt>
      <trkpt lat="38.09457" lon="-8.34174">
        <ele>61.41791</ele>
        <time>2021-07-11T08:51:59Z</time>
      </trkpt>
      <trkpt lat="38.09292" lon="-8.34005">
        <ele>59.97302</ele>
        <time>2021-07-11T08:52:10Z</time>
      </trkpt>
      <trkpt lat="38.09116" lon="-8.33828">
        <ele>65.4878</ele>
        <time>2021-07-11T08:52:21Z</time>
      </trkpt>
      <trkpt lat="38.08938" lon="-8.33649">
        <ele>72.71671</ele>
        <time>2021-07-11T08:52:32Z</time>
      </trkpt>
      <trkpt lat="38.08816" lon="-8.33528">
        <ele>73.15122</ele>
        <time>2021-07-11T08:52:43Z</time>
      </trkpt>
      <trkpt lat="38.08774" lon="-8.33585">
        <ele>74.3855</ele>
        <time>2021-07-11T08:52:54Z</time>
      </trkpt>
      <trkpt lat="38.08719" lon="-8.33698">
        <ele>76.96145</ele>
        <time>2021-07-11T08:53:05Z</time>
      </trkpt>
      <trkpt lat="38.08624" lon="-8.33768">
        <ele>79.04024</ele>
        <time>2021-07-11T08:53:16Z</time>
      </trkpt>
      <trkpt lat="38.08475" lon="-8.33798">
        <ele>74.80634</ele>
        <time>2021-07-11T08:53:27Z</time>
      </trkpt>
      <trkpt lat="38.08353" lon="-8.33784">
        <ele>76.15964</ele>
        <time>2021-07-11T08:53:38Z</time>
      </trkpt>
      <trkpt lat="38.08227" lon="-8.33766">
        <ele>74.91911</ele>
        <time>2021-07-11T08:53:49Z</time>
      </trkpt>
      <trkpt lat="38.08102" lon="-8.33767">
        <ele>79.67414</ele>
        <time>2021-07-11T08:54:00Z</time>
      </trkpt>
      <trkpt lat="38.07979" lon="-8.33756">
        <ele>81.01618</ele>
        <time>2021-07-11T08:54:11Z</time>
      </trkpt>
      <trkpt lat="38.07873" lon="-8.33742">
        <ele>83.4757</ele>
        <time>2021-07-11T08:54:22Z</time>
      </trkpt>
      <trkpt lat="38.07839" lon="-8.33816">
        <ele>85.86628</ele>
        <time>2021-07-11T08:54:33Z</time>
      </trkpt>
      <trkpt lat="38.07803" lon="-8.3394">
        <ele>81.17676</ele>
        <time>2021-07-11T08:54:44Z</time>
      </trkpt>
      <trkpt lat="38.07748" lon="-8.34085">
        <ele>80.27397</ele>
        <time>2021-07-11T08:54:55Z</time>
      </trkpt>
      <trkpt lat="38.07687" lon="-8.3423">
        <ele>83.85132</ele>
        <time>2021-07-11T08:55:06Z</time>
      </trkpt>
      <trkpt lat="38.07637" lon="-8.34375">
        <ele>86.57661</ele>
        <time>2021-07-11T08:55:17Z</time>
      </trkpt>
      <trkpt lat="38.07628" lon="-8.34542">
        <ele>82.41908</ele>
        <time>2021-07-11T08:55:28Z</time>
      </trkpt>
      <trkpt lat="38.07639" lon="-8.34696">
        <ele>79.53</ele>
        <time>2021-07-11T08:55:39Z</time>
      </trkpt>
      <trkpt lat="38.0764" lon="-8.34706">
        <ele>80.58387</ele>
        <time>2021-07-11T08:55:50Z</time>
      </trkpt>
      <trkpt lat="38.07638" lon="-8.34711">
        <ele>80.98091</ele>
        <time>2021-07-11T08:56:03Z</time>
      </trkpt>
      <trkpt lat="38.07641" lon="-8.3481">
        <ele>81.7726</ele>
        <time>2021-07-11T08:56:14Z</time>
      </trkpt>
      <trkpt lat="38.07644" lon="-8.34951">
        <ele>83.46334</ele>
        <time>2021-07-11T08:56:25Z</time>
      </trkpt>
      <trkpt lat="38.07645" lon="-8.35131">
        <ele>86.43622</ele>
        <time>2021-07-11T08:56:36Z</time>
      </trkpt>
      <trkpt lat="38.07649" lon="-8.35282">
        <ele>84.44841</ele>
        <time>2021-07-11T08:56:47Z</time>
      </trkpt>
      <trkpt lat="38.07637" lon="-8.3543">
        <ele>82.20535</ele>
        <time>2021-07-11T08:56:58Z</time>
      </trkpt>
      <trkpt lat="38.07632" lon="-8.35588">
        <ele>84.35578</ele>
        <time>2021-07-11T08:57:09Z</time>
      </trkpt>
      <trkpt lat="38.07608" lon="-8.35743">
        <ele>90.22716</ele>
        <time>2021-07-11T08:57:20Z</time>
      </trkpt>
      <trkpt lat="38.07519" lon="-8.35909">
        <ele>92.59695</ele>
        <time>2021-07-11T08:57:31Z</time>
      </trkpt>
      <trkpt lat="38.0738" lon="-8.36003">
        <ele>92.64973</ele>
        <time>2021-07-11T08:57:42Z</time>
      </trkpt>
      <trkpt lat="38.07326" lon="-8.36052">
        <ele>83.54848</ele>
        <time>2021-07-11T08:57:53Z</time>
      </trkpt>
      <trkpt lat="38.0741" lon="-8.36004">
        <ele>86.00458</ele>
        <time>2021-07-11T08:58:04Z</time>
      </trkpt>
      <trkpt lat="38.07471" lon="-8.36121">
        <ele>86.46501</ele>
        <time>2021-07-11T08:58:15Z</time>
      </trkpt>
      <trkpt lat="38.07451" lon="-8.36243">
        <ele>85.11737</ele>
        <time>2021-07-11T08:58:26Z</time>
      </trkpt>
      <trkpt lat="38.07361" lon="-8.36407">
        <ele>85.76277</ele>
        <time>2021-07-11T08:58:37Z</time>
      </trkpt>
      <trkpt lat="38.0728" lon="-8.36568">
        <ele>81.57455</ele>
        <time>2021-07-11T08:58:48Z</time>
      </trkpt>
      <trkpt lat="38.07195" lon="-8.36739">
        <ele>83.96851</ele>
        <time>2021-07-11T08:58:59Z</time>
      </trkpt>
      <trkpt lat="38.07128" lon="-8.3688">
        <ele>83.19952</ele>
        <time>2021-07-11T08:59:10Z</time>
      </trkpt>
      <trkpt lat="38.07057" lon="-8.37021">
        <ele>82.64489</ele>
        <time>2021-07-11T08:59:21Z</time>
      </trkpt>
      <trkpt lat="38.06983" lon="-8.37168">
        <ele>78.64925</ele>
        <time>2021-07-11T08:59:32Z</time>
      </trkpt>
      <trkpt lat="38.0693" lon="-8.37283">
        <ele>81.80545</ele>
        <time>2021-07-11T08:59:43Z</time>
      </trkpt>
      <trkpt lat="38.06857" lon="-8.37418">
        <ele>82.3934</ele>
        <time>2021-07-11T08:59:54Z</time>
      </trkpt>
      <trkpt lat="38.06784" lon="-8.37562">
        <ele>78.92994</ele>
        <time>2021-07-11T09:00:05Z</time>
      </trkpt>
      <trkpt lat="38.067" lon="-8.37726">
        <ele>78.00962</ele>
        <time>2021-07-11T09:00:16Z</time>
      </trkpt>
      <trkpt lat="38.06617" lon="-8.37889">
        <ele>75.62832</ele>
        <time>2021-07-11T09:00:27Z</time>
      </trkpt>
      <trkpt lat="38.06548" lon="-8.38027">
        <ele>79.87579</ele>
        <time>2021-07-11T09:00:38Z</time>
      </trkpt>
      <trkpt lat="38.06457" lon="-8.38211">
        <ele>84.12076</ele>
        <time>2021-07-11T09:00:49Z</time>
      </trkpt>
      <trkpt lat="38.0644" lon="-8.38274">
        <ele>84.44281</ele>
        <time>2021-07-11T09:01:00Z</time>
      </trkpt>
      <trkpt lat="38.06442" lon="-8.38287">
        <ele>86.72461</ele>
        <time>2021-07-11T09:01:11Z</time>
      </trkpt>
      <trkpt lat="38.06442" lon="-8.38372">
        <ele>85.5574</ele>
        <time>2021-07-11T09:01:22Z</time>
      </trkpt>
      <trkpt lat="38.06491" lon="-8.38485">
        <ele>79.894</ele>
        <time>2021-07-11T09:01:33Z</time>
      </trkpt>
      <trkpt lat="38.06538" lon="-8.38616">
        <ele>78.02365</ele>
        <time>2021-07-11T09:01:44Z</time>
      </trkpt>
      <trkpt lat="38.06568" lon="-8.38687">
        <ele>75.54345</ele>
        <time>2021-07-11T09:01:55Z</time>
      </trkpt>
      <trkpt lat="38.06503" lon="-8.38742">
        <ele>75.02871</ele>
        <time>2021-07-11T09:02:06Z</time>
      </trkpt>
      <trkpt lat="38.06409" lon="-8.38872">
        <ele>74.27622</ele>
        <time>2021-07-11T09:02:17Z</time>
      </trkpt>
      <trkpt lat="38.0633" lon="-8.38955">
        <ele>70.15744</ele>
        <time>2021-07-11T09:02:28Z</time>
      </trkpt>
      <trkpt lat="38.06249" lon="-8.39014">
        <ele>67.05749</ele>
        <time>2021-07-11T09:02:39Z</time>
      </trkpt>
      <trkpt lat="38.06169" lon="-8.39083">
        <ele>63.45374</ele>
        <time>2021-07-11T09:02:50Z</time>
      </trkpt>
      <trkpt lat="38.06099" lon="-8.39186">
        <ele>66.0207</ele>
        <time>2021-07-11T09:03:01Z</time>
      </trkpt>
      <trkpt lat="38.06037" lon="-8.39239">
        <ele>64.39791</ele>
        <time>2021-07-11T09:03:12Z</time>
      </trkpt>
      <trkpt lat="38.06007" lon="-8.3932">
        <ele>55.67413</ele>
        <time>2021-07-11T09:03:23Z</time>
      </trkpt>
      <trkpt lat="38.05958" lon="-8.39391">
        <ele>58.54313</ele>
        <time>2021-07-11T09:03:34Z</time>
      </trkpt>
      <trkpt lat="38.05903" lon="-8.3946">
        <ele>59.43044</ele>
        <time>2021-07-11T09:03:45Z</time>
      </trkpt>
      <trkpt lat="38.05907" lon="-8.39583">
        <ele>54.16085</ele>
        <time>2021-07-11T09:03:56Z</time>
      </trkpt>
      <trkpt lat="38.05851" lon="-8.3968">
        <ele>49.69865</ele>
        <time>2021-07-11T09:04:07Z</time>
      </trkpt>
      <trkpt lat="38.05793" lon="-8.39723">
        <ele>46.96329</ele>
        <time>2021-07-11T09:04:18Z</time>
      </trkpt>
      <trkpt lat="38.05737" lon="-8.398">
        <ele>41.71892</ele>
        <time>2021-07-11T09:04:29Z</time>
      </trkpt>
      <trkpt lat="38.05674" lon="-8.39815">
        <ele>33.92772</ele>
        <time>2021-07-11T09:04:40Z</time>
      </trkpt>
      <trkpt lat="38.05696" lon="-8.39871">
        <ele>30.60025</ele>
        <time>2021-07-11T09:04:51Z</time>
      </trkpt>
      <trkpt lat="38.05773" lon="-8.39907">
        <ele>28.56198</ele>
        <time>2021-07-11T09:05:02Z</time>
      </trkpt>
      <trkpt lat="38.05837" lon="-8.39947">
        <ele>25.31558</ele>
        <time>2021-07-11T09:05:13Z</time>
      </trkpt>
      <trkpt lat="38.05855" lon="-8.39986">
        <ele>21.27425</ele>
        <time>2021-07-11T09:05:24Z</time>
      </trkpt>
      <trkpt lat="38.05856" lon="-8.39988">
        <ele>25.14112</ele>
        <time>2021-07-11T09:06:24Z</time>
      </trkpt>
      <trkpt lat="38.05855" lon="-8.39993">
        <ele>24.41272</ele>
        <time>2021-07-11T09:07:02Z</time>
      </trkpt>
      <trkpt lat="38.0585" lon="-8.40019">
        <ele>25.2018</ele>
        <time>2021-07-11T09:07:13Z</time>
      </trkpt>
      <trkpt lat="38.05836" lon="-8.40036">
        <ele>24.53748</ele>
        <time>2021-07-11T09:07:24Z</time>
      </trkpt>
      <trkpt lat="38.05833" lon="-8.40039">
        <ele>27.14215</ele>
        <time>2021-07-11T09:07:36Z</time>
      </trkpt>
      <trkpt lat="38.05829" lon="-8.40039">
        <ele>30.04077</ele>
        <time>2021-07-11T09:08:35Z</time>
      </trkpt>
      <trkpt lat="38.05782" lon="-8.40038">
        <ele>35.01311</ele>
        <time>2021-07-11T09:08:46Z</time>
      </trkpt>
      <trkpt lat="38.05737" lon="-8.40068">
        <ele>34.64038</ele>
        <time>2021-07-11T09:08:57Z</time>
      </trkpt>
      <trkpt lat="38.05701" lon="-8.40147">
        <ele>41.4191</ele>
        <time>2021-07-11T09:09:08Z</time>
      </trkpt>
      <trkpt lat="38.05614" lon="-8.40207">
        <ele>54.48719</ele>
        <time>2021-07-11T09:09:19Z</time>
      </trkpt>
      <trkpt lat="38.05527" lon="-8.40209">
        <ele>62.48139</ele>
        <time>2021-07-11T09:09:30Z</time>
      </trkpt>
      <trkpt lat="38.05447" lon="-8.40251">
        <ele>68.64081</ele>
        <time>2021-07-11T09:09:41Z</time>
      </trkpt>
      <trkpt lat="38.05373" lon="-8.40287">
        <ele>71.18455</ele>
        <time>2021-07-11T09:09:52Z</time>
      </trkpt>
      <trkpt lat="38.05312" lon="-8.40363">
        <ele>74.84579</ele>
        <time>2021-07-11T09:10:03Z</time>
      </trkpt>
      <trkpt lat="38.05215" lon="-8.40405">
        <ele>70.41244</ele>
        <time>2021-07-11T09:10:14Z</time>
      </trkpt>
      <trkpt lat="38.05116" lon="-8.40397">
        <ele>69.28148</ele>
        <time>2021-07-11T09:10:25Z</time>
      </trkpt>
      <trkpt lat="38.05087" lon="-8.4051">
        <ele>70.24613</ele>
        <time>2021-07-11T09:10:36Z</time>
      </trkpt>
      <trkpt lat="38.0506" lon="-8.40549">
        <ele>73.19759</ele>
        <time>2021-07-11T09:10:47Z</time>
      </trkpt>
      <trkpt lat="38.04999" lon="-8.40509">
        <ele>68.03254</ele>
        <time>2021-07-11T09:10:58Z</time>
      </trkpt>
      <trkpt lat="38.04951" lon="-8.40615">
        <ele>66.41276</ele>
        <time>2021-07-11T09:11:09Z</time>
      </trkpt>
      <trkpt lat="38.04895" lon="-8.40713">
        <ele>60.54292</ele>
        <time>2021-07-11T09:11:20Z</time>
      </trkpt>
      <trkpt lat="38.04872" lon="-8.40772">
        <ele>54.96492</ele>
        <time>2021-07-11T09:11:31Z</time>
      </trkpt>
      <trkpt lat="38.04859" lon="-8.40863">
        <ele>50.79385</ele>
        <time>2021-07-11T09:11:42Z</time>
      </trkpt>
      <trkpt lat="38.04803" lon="-8.40942">
        <ele>46.20235</ele>
        <time>2021-07-11T09:11:53Z</time>
      </trkpt>
      <trkpt lat="38.04737" lon="-8.40993">
        <ele>44.39626</ele>
        <time>2021-07-11T09:12:04Z</time>
      </trkpt>
      <trkpt lat="38.04768" lon="-8.41084">
        <ele>40.25768</ele>
        <time>2021-07-11T09:12:15Z</time>
      </trkpt>
      <trkpt lat="38.04845" lon="-8.41149">
        <ele>40.24033</ele>
        <time>2021-07-11T09:12:26Z</time>
      </trkpt>
      <trkpt lat="38.04892" lon="-8.41206">
        <ele>35.42579</ele>
        <time>2021-07-11T09:12:37Z</time>
      </trkpt>
      <trkpt lat="38.04895" lon="-8.41218">
        <ele>37.87145</ele>
        <time>2021-07-11T09:12:48Z</time>
      </trkpt>
      <trkpt lat="38.04894" lon="-8.41227">
        <ele>39.07135</ele>
        <time>2021-07-11T09:13:19Z</time>
      </trkpt>
      <trkpt lat="38.04896" lon="-8.41237">
        <ele>39.66545</ele>
        <time>2021-07-11T09:13:30Z</time>
      </trkpt>
      <trkpt lat="38.04895" lon="-8.41247">
        <ele>38.65595</ele>
        <time>2021-07-11T09:14:06Z</time>
      </trkpt>
      <trkpt lat="38.04877" lon="-8.41307">
        <ele>41.60258</ele>
        <time>2021-07-11T09:14:17Z</time>
      </trkpt>
      <trkpt lat="38.04873" lon="-8.41387">
        <ele>44.02246</ele>
        <time>2021-07-11T09:14:28Z</time>
      </trkpt>
      <trkpt lat="38.04821" lon="-8.41445">
        <ele>50.67766</ele>
        <time>2021-07-11T09:14:39Z</time>
      </trkpt>
      <trkpt lat="38.04796" lon="-8.41517">
        <ele>56.45896</ele>
        <time>2021-07-11T09:14:50Z</time>
      </trkpt>
      <trkpt lat="38.04754" lon="-8.41576">
        <ele>65.42965</ele>
        <time>2021-07-11T09:15:01Z</time>
      </trkpt>
      <trkpt lat="38.04709" lon="-8.4159">
        <ele>70.15077</ele>
        <time>2021-07-11T09:15:12Z</time>
      </trkpt>
      <trkpt lat="38.04682" lon="-8.41592">
        <ele>72.19541</ele>
        <time>2021-07-11T09:15:23Z</time>
      </trkpt>
      <trkpt lat="38.04625" lon="-8.41613">
        <ele>74.93009</ele>
        <time>2021-07-11T09:15:34Z</time>
      </trkpt>
      <trkpt lat="38.04528" lon="-8.41665">
        <ele>75.34631</ele>
        <time>2021-07-11T09:15:45Z</time>
      </trkpt>
      <trkpt lat="38.04459" lon="-8.41759">
        <ele>75.48673</ele>
        <time>2021-07-11T09:15:56Z</time>
      </trkpt>
      <trkpt lat="38.04398" lon="-8.41886">
        <ele>78.50246</ele>
        <time>2021-07-11T09:16:07Z</time>
      </trkpt>
      <trkpt lat="38.04323" lon="-8.42017">
        <ele>81.02404</ele>
        <time>2021-07-11T09:16:18Z</time>
      </trkpt>
      <trkpt lat="38.04256" lon="-8.42122">
        <ele>80.42228</ele>
        <time>2021-07-11T09:16:29Z</time>
      </trkpt>
      <trkpt lat="38.04245" lon="-8.4214">
        <ele>79.98516</ele>
        <time>2021-07-11T09:16:40Z</time>
      </trkpt>
      <trkpt lat="38.04241" lon="-8.42143">
        <ele>80.92064</ele>
        <time>2021-07-11T09:17:15Z</time>
      </trkpt>
      <trkpt lat="38.04239" lon="-8.42149">
        <ele>83.40709</ele>
        <time>2021-07-11T09:17:26Z</time>
      </trkpt>
      <trkpt lat="38.04236" lon="-8.42154">
        <ele>83.14415</ele>
        <time>2021-07-11T09:17:37Z</time>
      </trkpt>
      <trkpt lat="38.042" lon="-8.42211">
        <ele>81.21285</ele>
        <time>2021-07-11T09:17:48Z</time>
      </trkpt>
      <trkpt lat="38.04107" lon="-8.42337">
        <ele>87.18991</ele>
        <time>2021-07-11T09:17:59Z</time>
      </trkpt>
      <trkpt lat="38.04043" lon="-8.42464">
        <ele>83.86142</ele>
        <time>2021-07-11T09:18:10Z</time>
      </trkpt>
      <trkpt lat="38.0405" lon="-8.42365">
        <ele>80.32727</ele>
        <time>2021-07-11T09:18:21Z</time>
      </trkpt>
      <trkpt lat="38.03993" lon="-8.42279">
        <ele>77.92536</ele>
        <time>2021-07-11T09:18:32Z</time>
      </trkpt>
      <trkpt lat="38.03997" lon="-8.4228">
        <ele>79.19671</ele>
        <time>2021-07-11T09:18:59Z</time>
      </trkpt>
      <trkpt lat="38.03998" lon="-8.42275">
        <ele>77.22008</ele>
        <time>2021-07-11T09:19:21Z</time>
      </trkpt>
      <trkpt lat="38.03992" lon="-8.42264">
        <ele>77.09135</ele>
        <time>2021-07-11T09:19:32Z</time>
      </trkpt>
      <trkpt lat="38.03986" lon="-8.42257">
        <ele>77.97804</ele>
        <time>2021-07-11T09:19:43Z</time>
      </trkpt>
      <trkpt lat="38.03984" lon="-8.42251">
        <ele>78.5648</ele>
        <time>2021-07-11T09:19:54Z</time>
      </trkpt>
      <trkpt lat="38.03981" lon="-8.42252">
        <ele>79.63931</ele>
        <time>2021-07-11T09:20:54Z</time>
      </trkpt>
      <trkpt lat="38.03985" lon="-8.42254">
        <ele>79.26851</ele>
        <time>2021-07-11T09:21:05Z</time>
      </trkpt>
      <trkpt lat="38.0399" lon="-8.42259">
        <ele>78.53349</ele>
        <time>2021-07-11T09:21:16Z</time>
      </trkpt>
      <trkpt lat="38.03996" lon="-8.42273">
        <ele>78.3755</ele>
        <time>2021-07-11T09:21:27Z</time>
      </trkpt>
      <trkpt lat="38.03996" lon="-8.4228">
        <ele>78.08853</ele>
        <time>2021-07-11T09:21:38Z</time>
      </trkpt>
      <trkpt lat="38.03998" lon="-8.42284">
        <ele>79.07457</ele>
        <time>2021-07-11T09:22:34Z</time>
      </trkpt>
      <trkpt lat="38.03999" lon="-8.42278">
        <ele>79.20565</ele>
        <time>2021-07-11T09:22:55Z</time>
      </trkpt>
      <trkpt lat="38.0405" lon="-8.42341">
        <ele>80.21275</ele>
        <time>2021-07-11T09:23:06Z</time>
      </trkpt>
      <trkpt lat="38.04037" lon="-8.4246">
        <ele>84.5608</ele>
        <time>2021-07-11T09:23:17Z</time>
      </trkpt>
      <trkpt lat="38.03991" lon="-8.42575">
        <ele>81.02148</ele>
        <time>2021-07-11T09:23:28Z</time>
      </trkpt>
      <trkpt lat="38.03901" lon="-8.42686">
        <ele>82.90469</ele>
        <time>2021-07-11T09:23:39Z</time>
      </trkpt>
      <trkpt lat="38.03816" lon="-8.42761">
        <ele>82.57729</ele>
        <time>2021-07-11T09:23:50Z</time>
      </trkpt>
      <trkpt lat="38.03702" lon="-8.42794">
        <ele>83.82005</ele>
        <time>2021-07-11T09:24:01Z</time>
      </trkpt>
      <trkpt lat="38.03624" lon="-8.42878">
        <ele>84.49719</ele>
        <time>2021-07-11T09:24:12Z</time>
      </trkpt>
      <trkpt lat="38.03546" lon="-8.42969">
        <ele>84.04235</ele>
        <time>2021-07-11T09:24:23Z</time>
      </trkpt>
      <trkpt lat="38.0348" lon="-8.43076">
        <ele>83.5629</ele>
        <time>2021-07-11T09:24:34Z</time>
      </trkpt>
      <trkpt lat="38.03427" lon="-8.43194">
        <ele>83.80146</ele>
        <time>2021-07-11T09:24:45Z</time>
      </trkpt>
      <trkpt lat="38.03372" lon="-8.43334">
        <ele>83.1459</ele>
        <time>2021-07-11T09:24:56Z</time>
      </trkpt>
      <trkpt lat="38.03304" lon="-8.4343">
        <ele>83.48267</ele>
        <time>2021-07-11T09:25:07Z</time>
      </trkpt>
      <trkpt lat="38.03272" lon="-8.43569">
        <ele>79.45915</ele>
        <time>2021-07-11T09:25:18Z</time>
      </trkpt>
      <trkpt lat="38.03214" lon="-8.43682">
        <ele>79.61188</ele>
        <time>2021-07-11T09:25:29Z</time>
      </trkpt>
      <trkpt lat="38.0314" lon="-8.43804">
        <ele>80.48296</ele>
        <time>2021-07-11T09:25:40Z</time>
      </trkpt>
      <trkpt lat="38.03102" lon="-8.43954">
        <ele>83.364</ele>
        <time>2021-07-11T09:25:51Z</time>
      </trkpt>
      <trkpt lat="38.03062" lon="-8.44098">
        <ele>83.2878</ele>
        <time>2021-07-11T09:26:02Z</time>
      </trkpt>
      <trkpt lat="38.02987" lon="-8.44203">
        <ele>89.55504</ele>
        <time>2021-07-11T09:26:13Z</time>
      </trkpt>
      <trkpt lat="38.03029" lon="-8.44359">
        <ele>87.09182</ele>
        <time>2021-07-11T09:26:24Z</time>
      </trkpt>
      <trkpt lat="38.03066" lon="-8.44532">
        <ele>92.4881</ele>
        <time>2021-07-11T09:26:35Z</time>
      </trkpt>
      <trkpt lat="38.03092" lon="-8.44609">
        <ele>90.1277</ele>
        <time>2021-07-11T09:26:46Z</time>
      </trkpt>
      <trkpt lat="38.03095" lon="-8.4471">
        <ele>93.4323</ele>
        <time>2021-07-11T09:26:57Z</time>
      </trkpt>
      <trkpt lat="38.03063" lon="-8.44901">
        <ele>91.84132</ele>
        <time>2021-07-11T09:27:08Z</time>
      </trkpt>
      <trkpt lat="38.0302" lon="-8.45088">
        <ele>94.49726</ele>
        <time>2021-07-11T09:27:19Z</time>
      </trkpt>
      <trkpt lat="38.02958" lon="-8.45254">
        <ele>98.27215</ele>
        <time>2021-07-11T09:27:30Z</time>
      </trkpt>
      <trkpt lat="38.02922" lon="-8.4538">
        <ele>97.6795</ele>
        <time>2021-07-11T09:27:41Z</time>
      </trkpt>
      <trkpt lat="38.02906" lon="-8.45532">
        <ele>92.73075</ele>
        <time>2021-07-11T09:27:52Z</time>
      </trkpt>
      <trkpt lat="38.02892" lon="-8.45646">
        <ele>92.3282</ele>
        <time>2021-07-11T09:28:03Z</time>
      </trkpt>
      <trkpt lat="38.02859" lon="-8.45751">
        <ele>93.85176</ele>
        <time>2021-07-11T09:28:14Z</time>
      </trkpt>
      <trkpt lat="38.02809" lon="-8.45815">
        <ele>91.83165</ele>
        <time>2021-07-11T09:28:25Z</time>
      </trkpt>
      <trkpt lat="38.02764" lon="-8.45846">
        <ele>103.0349</ele>
        <time>2021-07-11T09:28:36Z</time>
      </trkpt>
      <trkpt lat="38.02743" lon="-8.45891">
        <ele>110.8206</ele>
        <time>2021-07-11T09:28:47Z</time>
      </trkpt>
      <trkpt lat="38.02709" lon="-8.45934">
        <ele>109.7504</ele>
        <time>2021-07-11T09:28:58Z</time>
      </trkpt>
      <trkpt lat="38.02698" lon="-8.45947">
        <ele>106.9841</ele>
        <time>2021-07-11T09:29:09Z</time>
      </trkpt>
      <trkpt lat="38.02693" lon="-8.45954">
        <ele>105.0037</ele>
        <time>2021-07-11T09:29:36Z</time>
      </trkpt>
      <trkpt lat="38.02629" lon="-8.46024">
        <ele>107.2207</ele>
        <time>2021-07-11T09:29:47Z</time>
      </trkpt>
      <trkpt lat="38.0256" lon="-8.46115">
        <ele>107.7869</ele>
        <time>2021-07-11T09:29:58Z</time>
      </trkpt>
      <trkpt lat="38.02491" lon="-8.46187">
        <ele>110.2234</ele>
        <time>2021-07-11T09:30:09Z</time>
      </trkpt>
      <trkpt lat="38.02471" lon="-8.46279">
        <ele>110.1565</ele>
        <time>2021-07-11T09:30:20Z</time>
      </trkpt>
      <trkpt lat="38.02479" lon="-8.46371">
        <ele>115.4392</ele>
        <time>2021-07-11T09:30:31Z</time>
      </trkpt>
      <trkpt lat="38.02504" lon="-8.46484">
        <ele>111.9197</ele>
        <time>2021-07-11T09:30:42Z</time>
      </trkpt>
      <trkpt lat="38.02525" lon="-8.46585">
        <ele>111.1648</ele>
        <time>2021-07-11T09:30:53Z</time>
      </trkpt>
      <trkpt lat="38.02539" lon="-8.46686">
        <ele>111.4555</ele>
        <time>2021-07-11T09:31:04Z</time>
      </trkpt>
      <trkpt lat="38.02512" lon="-8.46779">
        <ele>112.4597</ele>
        <time>2021-07-11T09:31:15Z</time>
      </trkpt>
      <trkpt lat="38.02471" lon="-8.46876">
        <ele>113.2106</ele>
        <time>2021-07-11T09:31:26Z</time>
      </trkpt>
      <trkpt lat="38.02442" lon="-8.46945">
        <ele>115.0826</ele>
        <time>2021-07-11T09:31:37Z</time>
      </trkpt>
      <trkpt lat="38.02411" lon="-8.47043">
        <ele>118.7171</ele>
        <time>2021-07-11T09:31:48Z</time>
      </trkpt>
      <trkpt lat="38.02405" lon="-8.47144">
        <ele>119.5549</ele>
        <time>2021-07-11T09:31:59Z</time>
      </trkpt>
      <trkpt lat="38.02412" lon="-8.47281">
        <ele>118.7989</ele>
        <time>2021-07-11T09:32:10Z</time>
      </trkpt>
      <trkpt lat="38.02418" lon="-8.47392">
        <ele>119.2392</ele>
        <time>2021-07-11T09:32:21Z</time>
      </trkpt>
      <trkpt lat="38.0242" lon="-8.47501">
        <ele>118.8152</ele>
        <time>2021-07-11T09:32:32Z</time>
      </trkpt>
      <trkpt lat="38.02432" lon="-8.47573">
        <ele>119.4173</ele>
        <time>2021-07-11T09:32:43Z</time>
      </trkpt>
      <trkpt lat="38.02444" lon="-8.47693">
        <ele>123.9981</ele>
        <time>2021-07-11T09:32:54Z</time>
      </trkpt>
      <trkpt lat="38.02473" lon="-8.47847">
        <ele>123.9704</ele>
        <time>2021-07-11T09:33:05Z</time>
      </trkpt>
      <trkpt lat="38.0252" lon="-8.47986">
        <ele>123.6061</ele>
        <time>2021-07-11T09:33:16Z</time>
      </trkpt>
      <trkpt lat="38.0251" lon="-8.48127">
        <ele>123.2982</ele>
        <time>2021-07-11T09:33:27Z</time>
      </trkpt>
      <trkpt lat="38.0248" lon="-8.48255">
        <ele>123.9135</ele>
        <time>2021-07-11T09:33:38Z</time>
      </trkpt>
      <trkpt lat="38.0243" lon="-8.48387">
        <ele>124.963</ele>
        <time>2021-07-11T09:33:49Z</time>
      </trkpt>
      <trkpt lat="38.02433" lon="-8.48406">
        <ele>125.0766</ele>
        <time>2021-07-11T09:34:00Z</time>
      </trkpt>
      <trkpt lat="38.02445" lon="-8.4844">
        <ele>123.6791</ele>
        <time>2021-07-11T09:34:11Z</time>
      </trkpt>
      <trkpt lat="38.02511" lon="-8.48625">
        <ele>126.548</ele>
        <time>2021-07-11T09:34:22Z</time>
      </trkpt>
      <trkpt lat="38.02587" lon="-8.48745">
        <ele>124.2361</ele>
        <time>2021-07-11T09:34:33Z</time>
      </trkpt>
      <trkpt lat="38.02658" lon="-8.48881">
        <ele>119.7248</ele>
        <time>2021-07-11T09:34:44Z</time>
      </trkpt>
      <trkpt lat="38.02724" lon="-8.48966">
        <ele>119.5642</ele>
        <time>2021-07-11T09:34:55Z</time>
      </trkpt>
      <trkpt lat="38.0281" lon="-8.49055">
        <ele>122.7636</ele>
        <time>2021-07-11T09:35:06Z</time>
      </trkpt>
      <trkpt lat="38.02896" lon="-8.49168">
        <ele>122.5799</ele>
        <time>2021-07-11T09:35:17Z</time>
      </trkpt>
      <trkpt lat="38.02967" lon="-8.49267">
        <ele>118.1085</ele>
        <time>2021-07-11T09:35:28Z</time>
      </trkpt>
      <trkpt lat="38.03078" lon="-8.49381">
        <ele>118.2187</ele>
        <time>2021-07-11T09:35:39Z</time>
      </trkpt>
      <trkpt lat="38.03157" lon="-8.49508">
        <ele>116.3774</ele>
        <time>2021-07-11T09:35:50Z</time>
      </trkpt>
      <trkpt lat="38.03227" lon="-8.4962">
        <ele>104.0225</ele>
        <time>2021-07-11T09:36:01Z</time>
      </trkpt>
      <trkpt lat="38.03252" lon="-8.49775">
        <ele>118.5355</ele>
        <time>2021-07-11T09:36:12Z</time>
      </trkpt>
      <trkpt lat="38.03305" lon="-8.4988">
        <ele>127.6923</ele>
        <time>2021-07-11T09:36:23Z</time>
      </trkpt>
      <trkpt lat="38.03363" lon="-8.50102">
        <ele>131.5343</ele>
        <time>2021-07-11T09:36:34Z</time>
      </trkpt>
      <trkpt lat="38.0343" lon="-8.50264">
        <ele>135.536</ele>
        <time>2021-07-11T09:36:45Z</time>
      </trkpt>
      <trkpt lat="38.03467" lon="-8.50406">
        <ele>137.519</ele>
        <time>2021-07-11T09:36:56Z</time>
      </trkpt>
      <trkpt lat="38.03444" lon="-8.50601">
        <ele>137.9734</ele>
        <time>2021-07-11T09:37:07Z</time>
      </trkpt>
      <trkpt lat="38.03409" lon="-8.50723">
        <ele>140.9545</ele>
        <time>2021-07-11T09:37:18Z</time>
      </trkpt>
      <trkpt lat="38.03288" lon="-8.50816">
        <ele>135.9363</ele>
        <time>2021-07-11T09:37:29Z</time>
      </trkpt>
      <trkpt lat="38.03164" lon="-8.50803">
        <ele>141.4497</ele>
        <time>2021-07-11T09:37:40Z</time>
      </trkpt>
      <trkpt lat="38.03073" lon="-8.50926">
        <ele>144.5445</ele>
        <time>2021-07-11T09:37:51Z</time>
      </trkpt>
      <trkpt lat="38.02991" lon="-8.51086">
        <ele>146.9896</ele>
        <time>2021-07-11T09:38:02Z</time>
      </trkpt>
      <trkpt lat="38.02895" lon="-8.51266">
        <ele>152.0316</ele>
        <time>2021-07-11T09:38:13Z</time>
      </trkpt>
      <trkpt lat="38.02876" lon="-8.51433">
        <ele>146.6029</ele>
        <time>2021-07-11T09:38:24Z</time>
      </trkpt>
      <trkpt lat="38.02856" lon="-8.51636">
        <ele>140.893</ele>
        <time>2021-07-11T09:38:35Z</time>
      </trkpt>
      <trkpt lat="38.02814" lon="-8.5185">
        <ele>137.9154</ele>
        <time>2021-07-11T09:38:46Z</time>
      </trkpt>
      <trkpt lat="38.02825" lon="-8.52006">
        <ele>137.8141</ele>
        <time>2021-07-11T09:38:57Z</time>
      </trkpt>
      <trkpt lat="38.02902" lon="-8.52209">
        <ele>148.0346</ele>
        <time>2021-07-11T09:39:08Z</time>
      </trkpt>
      <trkpt lat="38.02933" lon="-8.52348">
        <ele>151.4051</ele>
        <time>2021-07-11T09:39:19Z</time>
      </trkpt>
      <trkpt lat="38.03001" lon="-8.52343">
        <ele>158.4221</ele>
        <time>2021-07-11T09:39:30Z</time>
      </trkpt>
      <trkpt lat="38.0307" lon="-8.52379">
        <ele>159.9775</ele>
        <time>2021-07-11T09:39:41Z</time>
      </trkpt>
      <trkpt lat="38.03163" lon="-8.52458">
        <ele>161.3284</ele>
        <time>2021-07-11T09:39:52Z</time>
      </trkpt>
      <trkpt lat="38.03227" lon="-8.52545">
        <ele>164.7434</ele>
        <time>2021-07-11T09:40:03Z</time>
      </trkpt>
      <trkpt lat="38.03277" lon="-8.52647">
        <ele>166.0407</ele>
        <time>2021-07-11T09:40:14Z</time>
      </trkpt>
      <trkpt lat="38.03347" lon="-8.52726">
        <ele>168.6298</ele>
        <time>2021-07-11T09:40:25Z</time>
      </trkpt>
      <trkpt lat="38.03392" lon="-8.52809">
        <ele>169.2128</ele>
        <time>2021-07-11T09:40:36Z</time>
      </trkpt>
      <trkpt lat="38.03449" lon="-8.52881">
        <ele>168.8604</ele>
        <time>2021-07-11T09:40:47Z</time>
      </trkpt>
      <trkpt lat="38.03469" lon="-8.52904">
        <ele>169.6153</ele>
        <time>2021-07-11T09:40:58Z</time>
      </trkpt>
      <trkpt lat="38.03469" lon="-8.52908">
        <ele>170.6693</ele>
        <time>2021-07-11T09:41:43Z</time>
      </trkpt>
      <trkpt lat="38.03471" lon="-8.52912">
        <ele>170.6114</ele>
        <time>2021-07-11T09:42:00Z</time>
      </trkpt>
      <trkpt lat="38.03436" lon="-8.53011">
        <ele>170.5072</ele>
        <time>2021-07-11T09:42:11Z</time>
      </trkpt>
      <trkpt lat="38.03401" lon="-8.53103">
        <ele>172.8344</ele>
        <time>2021-07-11T09:42:22Z</time>
      </trkpt>
      <trkpt lat="38.03345" lon="-8.53198">
        <ele>168.0868</ele>
        <time>2021-07-11T09:42:33Z</time>
      </trkpt>
      <trkpt lat="38.03324" lon="-8.53298">
        <ele>169.4408</ele>
        <time>2021-07-11T09:42:44Z</time>
      </trkpt>
      <trkpt lat="38.03333" lon="-8.53419">
        <ele>175.8276</ele>
        <time>2021-07-11T09:42:55Z</time>
      </trkpt>
      <trkpt lat="38.03346" lon="-8.53529">
        <ele>175.9546</ele>
        <time>2021-07-11T09:43:06Z</time>
      </trkpt>
      <trkpt lat="38.03392" lon="-8.5362">
        <ele>173.7611</ele>
        <time>2021-07-11T09:43:17Z</time>
      </trkpt>
      <trkpt lat="38.0342" lon="-8.53731">
        <ele>174.5983</ele>
        <time>2021-07-11T09:43:28Z</time>
      </trkpt>
      <trkpt lat="38.03456" lon="-8.53825">
        <ele>175.8564</ele>
        <time>2021-07-11T09:43:39Z</time>
      </trkpt>
      <trkpt lat="38.03476" lon="-8.53924">
        <ele>178.4697</ele>
        <time>2021-07-11T09:43:50Z</time>
      </trkpt>
      <trkpt lat="38.03504" lon="-8.54008">
        <ele>179.4918</ele>
        <time>2021-07-11T09:44:01Z</time>
      </trkpt>
      <trkpt lat="38.03506" lon="-8.54013">
        <ele>178.21</ele>
        <time>2021-07-11T09:44:48Z</time>
      </trkpt>
      <trkpt lat="38.03507" lon="-8.54021">
        <ele>178.3496</ele>
        <time>2021-07-11T09:44:59Z</time>
      </trkpt>
      <trkpt lat="38.03508" lon="-8.54031">
        <ele>178.34</ele>
        <time>2021-07-11T09:45:38Z</time>
      </trkpt>
      <trkpt lat="38.0354" lon="-8.54145">
        <ele>178.949</ele>
        <time>2021-07-11T09:45:49Z</time>
      </trkpt>
      <trkpt lat="38.03575" lon="-8.54256">
        <ele>181.67</ele>
        <time>2021-07-11T09:46:00Z</time>
      </trkpt>
      <trkpt lat="38.03582" lon="-8.54368">
        <ele>185.6587</ele>
        <time>2021-07-11T09:46:11Z</time>
      </trkpt>
      <trkpt lat="38.03571" lon="-8.54499">
        <ele>196.1913</ele>
        <time>2021-07-11T09:46:22Z</time>
      </trkpt>
      <trkpt lat="38.03549" lon="-8.54633">
        <ele>195.6547</ele>
        <time>2021-07-11T09:46:33Z</time>
      </trkpt>
      <trkpt lat="38.03604" lon="-8.54752">
        <ele>196.4312</ele>
        <time>2021-07-11T09:46:44Z</time>
      </trkpt>
      <trkpt lat="38.03697" lon="-8.54878">
        <ele>199.5668</ele>
        <time>2021-07-11T09:46:55Z</time>
      </trkpt>
      <trkpt lat="38.0376" lon="-8.55003">
        <ele>200.8318</ele>
        <time>2021-07-11T09:47:06Z</time>
      </trkpt>
      <trkpt lat="38.03827" lon="-8.5515">
        <ele>196.5961</ele>
        <time>2021-07-11T09:47:17Z</time>
      </trkpt>
      <trkpt lat="38.03871" lon="-8.55303">
        <ele>193.0991</ele>
        <time>2021-07-11T09:47:28Z</time>
      </trkpt>
      <trkpt lat="38.03906" lon="-8.55444">
        <ele>187.0933</ele>
        <time>2021-07-11T09:47:39Z</time>
      </trkpt>
      <trkpt lat="38.03959" lon="-8.55572">
        <ele>193.7435</ele>
        <time>2021-07-11T09:47:50Z</time>
      </trkpt>
      <trkpt lat="38.03998" lon="-8.55723">
        <ele>185.6328</ele>
        <time>2021-07-11T09:48:01Z</time>
      </trkpt>
      <trkpt lat="38.04049" lon="-8.5582">
        <ele>187.918</ele>
        <time>2021-07-11T09:48:12Z</time>
      </trkpt>
      <trkpt lat="38.04232" lon="-8.55862">
        <ele>196.3753</ele>
        <time>2021-07-11T09:48:23Z</time>
      </trkpt>
      <trkpt lat="38.04443" lon="-8.559">
        <ele>195.3767</ele>
        <time>2021-07-11T09:48:34Z</time>
      </trkpt>
      <trkpt lat="38.04622" lon="-8.56025">
        <ele>182.8736</ele>
        <time>2021-07-11T09:48:45Z</time>
      </trkpt>
      <trkpt lat="38.04809" lon="-8.56088">
        <ele>170.2656</ele>
        <time>2021-07-11T09:48:56Z</time>
      </trkpt>
      <trkpt lat="38.05069" lon="-8.56247">
        <ele>195.226</ele>
        <time>2021-07-11T09:49:07Z</time>
      </trkpt>
      <trkpt lat="38.05276" lon="-8.56382">
        <ele>214.111</ele>
        <time>2021-07-11T09:49:18Z</time>
      </trkpt>
      <trkpt lat="38.05378" lon="-8.56518">
        <ele>213.1982</ele>
        <time>2021-07-11T09:49:29Z</time>
      </trkpt>
      <trkpt lat="38.05519" lon="-8.56568">
        <ele>212.641</ele>
        <time>2021-07-11T09:49:40Z</time>
      </trkpt>
      <trkpt lat="38.05626" lon="-8.56611">
        <ele>209.3913</ele>
        <time>2021-07-11T09:49:51Z</time>
      </trkpt>
      <trkpt lat="38.05753" lon="-8.566">
        <ele>205.791</ele>
        <time>2021-07-11T09:50:02Z</time>
      </trkpt>
      <trkpt lat="38.05778" lon="-8.56594">
        <ele>210.2331</ele>
        <time>2021-07-11T09:50:13Z</time>
      </trkpt>
      <trkpt lat="38.0578" lon="-8.56593">
        <ele>212.2302</ele>
        <time>2021-07-11T09:51:12Z</time>
      </trkpt>
      <trkpt lat="38.05785" lon="-8.56592">
        <ele>208.8629</ele>
        <time>2021-07-11T09:51:55Z</time>
      </trkpt>
      <trkpt lat="38.0597" lon="-8.56501">
        <ele>204.7934</ele>
        <time>2021-07-11T09:52:06Z</time>
      </trkpt>
      <trkpt lat="38.06229" lon="-8.56372">
        <ele>211.9984</ele>
        <time>2021-07-11T09:52:17Z</time>
      </trkpt>
      <trkpt lat="38.06326" lon="-8.56355">
        <ele>216.4428</ele>
        <time>2021-07-11T09:52:28Z</time>
      </trkpt>
      <trkpt lat="38.06331" lon="-8.56353">
        <ele>220.4268</ele>
        <time>2021-07-11T09:52:39Z</time>
      </trkpt>
      <trkpt lat="38.06469" lon="-8.56349">
        <ele>218.8636</ele>
        <time>2021-07-11T09:52:50Z</time>
      </trkpt>
      <trkpt lat="38.06557" lon="-8.56316">
        <ele>214.6437</ele>
        <time>2021-07-11T09:53:01Z</time>
      </trkpt>
      <trkpt lat="38.0656" lon="-8.56313">
        <ele>214.7065</ele>
        <time>2021-07-11T09:53:56Z</time>
      </trkpt>
      <trkpt lat="38.06588" lon="-8.56298">
        <ele>215.4648</ele>
        <time>2021-07-11T09:54:07Z</time>
      </trkpt>
      <trkpt lat="38.06715" lon="-8.56239">
        <ele>216.0945</ele>
        <time>2021-07-11T09:54:18Z</time>
      </trkpt>
      <trkpt lat="38.06829" lon="-8.56236">
        <ele>225.2233</ele>
        <time>2021-07-11T09:54:29Z</time>
      </trkpt>
      <trkpt lat="38.06856" lon="-8.56458">
        <ele>221.1651</ele>
        <time>2021-07-11T09:54:40Z</time>
      </trkpt>
      <trkpt lat="38.06908" lon="-8.56717">
        <ele>229.6226</ele>
        <time>2021-07-11T09:54:51Z</time>
      </trkpt>
      <trkpt lat="38.06919" lon="-8.56989">
        <ele>227.3372</ele>
        <time>2021-07-11T09:55:02Z</time>
      </trkpt>
      <trkpt lat="38.0702" lon="-8.57182">
        <ele>230.5637</ele>
        <time>2021-07-11T09:55:13Z</time>
      </trkpt>
      <trkpt lat="38.0721" lon="-8.57418">
        <ele>225.2951</ele>
        <time>2021-07-11T09:55:24Z</time>
      </trkpt>
      <trkpt lat="38.0733" lon="-8.57673">
        <ele>226.8153</ele>
        <time>2021-07-11T09:55:35Z</time>
      </trkpt>
      <trkpt lat="38.07396" lon="-8.57963">
        <ele>241.6798</ele>
        <time>2021-07-11T09:55:46Z</time>
      </trkpt>
      <trkpt lat="38.07488" lon="-8.58149">
        <ele>239.5244</ele>
        <time>2021-07-11T09:55:57Z</time>
      </trkpt>
      <trkpt lat="38.0769" lon="-8.58294">
        <ele>239.1641</ele>
        <time>2021-07-11T09:56:08Z</time>
      </trkpt>
      <trkpt lat="38.07865" lon="-8.584">
        <ele>236.3929</ele>
        <time>2021-07-11T09:56:19Z</time>
      </trkpt>
      <trkpt lat="38.07906" lon="-8.58578">
        <ele>245.8857</ele>
        <time>2021-07-11T09:56:30Z</time>
      </trkpt>
      <trkpt lat="38.07978" lon="-8.58797">
        <ele>247.631</ele>
        <time>2021-07-11T09:56:41Z</time>
      </trkpt>
      <trkpt lat="38.08038" lon="-8.59052">
        <ele>248.4096</ele>
        <time>2021-07-11T09:56:52Z</time>
      </trkpt>
      <trkpt lat="38.08159" lon="-8.59258">
        <ele>259.0935</ele>
        <time>2021-07-11T09:57:03Z</time>
      </trkpt>
      <trkpt lat="38.08279" lon="-8.5939">
        <ele>260.8026</ele>
        <time>2021-07-11T09:57:14Z</time>
      </trkpt>
      <trkpt lat="38.08343" lon="-8.59405">
        <ele>260.0945</ele>
        <time>2021-07-11T09:57:25Z</time>
      </trkpt>
      <trkpt lat="38.08479" lon="-8.59387">
        <ele>262.9819</ele>
        <time>2021-07-11T09:57:36Z</time>
      </trkpt>
      <trkpt lat="38.08604" lon="-8.59385">
        <ele>256.6007</ele>
        <time>2021-07-11T09:57:47Z</time>
      </trkpt>
      <trkpt lat="38.08714" lon="-8.59479">
        <ele>262.7234</ele>
        <time>2021-07-11T09:57:58Z</time>
      </trkpt>
      <trkpt lat="38.08768" lon="-8.59588">
        <ele>263.6543</ele>
        <time>2021-07-11T09:58:09Z</time>
      </trkpt>
      <trkpt lat="38.0887" lon="-8.59661">
        <ele>268.1108</ele>
        <time>2021-07-11T09:58:20Z</time>
      </trkpt>
      <trkpt lat="38.08996" lon="-8.59656">
        <ele>264.8535</ele>
        <time>2021-07-11T09:58:31Z</time>
      </trkpt>
      <trkpt lat="38.09114" lon="-8.59724">
        <ele>266.9476</ele>
        <time>2021-07-11T09:58:42Z</time>
      </trkpt>
      <trkpt lat="38.09241" lon="-8.59827">
        <ele>270.0914</ele>
        <time>2021-07-11T09:58:53Z</time>
      </trkpt>
      <trkpt lat="38.09305" lon="-8.59845">
        <ele>267.6647</ele>
        <time>2021-07-11T09:59:04Z</time>
      </trkpt>
      <trkpt lat="38.09313" lon="-8.59847">
        <ele>267.8214</ele>
        <time>2021-07-11T09:59:26Z</time>
      </trkpt>
      <trkpt lat="38.09466" lon="-8.59906">
        <ele>266.9834</ele>
        <time>2021-07-11T09:59:37Z</time>
      </trkpt>
      <trkpt lat="38.09607" lon="-8.59942">
        <ele>267.7078</ele>
        <time>2021-07-11T09:59:48Z</time>
      </trkpt>
      <trkpt lat="38.09754" lon="-8.60025">
        <ele>268.1577</ele>
        <time>2021-07-11T09:59:59Z</time>
      </trkpt>
      <trkpt lat="38.0991" lon="-8.60078">
        <ele>267.2721</ele>
        <time>2021-07-11T10:00:10Z</time>
      </trkpt>
      <trkpt lat="38.10056" lon="-8.60107">
        <ele>263.7918</ele>
        <time>2021-07-11T10:00:21Z</time>
      </trkpt>
      <trkpt lat="38.10222" lon="-8.60139">
        <ele>260.2738</ele>
        <time>2021-07-11T10:00:32Z</time>
      </trkpt>
      <trkpt lat="38.10384" lon="-8.60153">
        <ele>259.0625</ele>
        <time>2021-07-11T10:00:43Z</time>
      </trkpt>
      <trkpt lat="38.10559" lon="-8.60213">
        <ele>261.8011</ele>
        <time>2021-07-11T10:00:54Z</time>
      </trkpt>
      <trkpt lat="38.10687" lon="-8.60237">
        <ele>262.6587</ele>
        <time>2021-07-11T10:01:05Z</time>
      </trkpt>
      <trkpt lat="38.10731" lon="-8.6026">
        <ele>259.8695</ele>
        <time>2021-07-11T10:01:16Z</time>
      </trkpt>
      <trkpt lat="38.10752" lon="-8.60271">
        <ele>258.1757</ele>
        <time>2021-07-11T10:01:27Z</time>
      </trkpt>
      <trkpt lat="38.10837" lon="-8.60277">
        <ele>255.8897</ele>
        <time>2021-07-11T10:01:38Z</time>
      </trkpt>
      <trkpt lat="38.10955" lon="-8.60326">
        <ele>255.049</ele>
        <time>2021-07-11T10:01:49Z</time>
      </trkpt>
      <trkpt lat="38.11065" lon="-8.60409">
        <ele>253.4517</ele>
        <time>2021-07-11T10:02:00Z</time>
      </trkpt>
      <trkpt lat="38.11222" lon="-8.6046">
        <ele>253.3089</ele>
        <time>2021-07-11T10:02:11Z</time>
      </trkpt>
      <trkpt lat="38.11338" lon="-8.60452">
        <ele>256.0842</ele>
        <time>2021-07-11T10:02:22Z</time>
      </trkpt>
      <trkpt lat="38.11469" lon="-8.60441">
        <ele>250.7389</ele>
        <time>2021-07-11T10:02:33Z</time>
      </trkpt>
      <trkpt lat="38.11593" lon="-8.60388">
        <ele>248.4787</ele>
        <time>2021-07-11T10:02:44Z</time>
      </trkpt>
      <trkpt lat="38.11735" lon="-8.60345">
        <ele>250.1801</ele>
        <time>2021-07-11T10:02:55Z</time>
      </trkpt>
      <trkpt lat="38.11835" lon="-8.60408">
        <ele>246.1849</ele>
        <time>2021-07-11T10:03:06Z</time>
      </trkpt>
      <trkpt lat="38.11902" lon="-8.60453">
        <ele>242.4235</ele>
        <time>2021-07-11T10:03:17Z</time>
      </trkpt>
      <trkpt lat="38.1191" lon="-8.60454">
        <ele>248.0678</ele>
        <time>2021-07-11T10:03:34Z</time>
      </trkpt>
      <trkpt lat="38.12031" lon="-8.60446">
        <ele>246.8887</ele>
        <time>2021-07-11T10:03:45Z</time>
      </trkpt>
      <trkpt lat="38.12144" lon="-8.60425">
        <ele>247.7416</ele>
        <time>2021-07-11T10:03:56Z</time>
      </trkpt>
      <trkpt lat="38.12235" lon="-8.60333">
        <ele>250.7727</ele>
        <time>2021-07-11T10:04:07Z</time>
      </trkpt>
      <trkpt lat="38.12349" lon="-8.60193">
        <ele>241.6109</ele>
        <time>2021-07-11T10:04:18Z</time>
      </trkpt>
      <trkpt lat="38.12512" lon="-8.59991">
        <ele>230.9281</ele>
        <time>2021-07-11T10:04:29Z</time>
      </trkpt>
      <trkpt lat="38.12651" lon="-8.5983">
        <ele>229.7531</ele>
        <time>2021-07-11T10:04:40Z</time>
      </trkpt>
      <trkpt lat="38.12829" lon="-8.59875">
        <ele>224.0181</ele>
        <time>2021-07-11T10:04:51Z</time>
      </trkpt>
      <trkpt lat="38.12999" lon="-8.59866">
        <ele>215.5173</ele>
        <time>2021-07-11T10:05:02Z</time>
      </trkpt>
      <trkpt lat="38.13172" lon="-8.59829">
        <ele>205.5317</ele>
        <time>2021-07-11T10:05:13Z</time>
      </trkpt>
      <trkpt lat="38.13253" lon="-8.5967">
        <ele>195.2696</ele>
        <time>2021-07-11T10:05:24Z</time>
      </trkpt>
      <trkpt lat="38.13296" lon="-8.59416">
        <ele>187.1134</ele>
        <time>2021-07-11T10:05:35Z</time>
      </trkpt>
      <trkpt lat="38.13345" lon="-8.59186">
        <ele>184.3315</ele>
        <time>2021-07-11T10:05:46Z</time>
      </trkpt>
      <trkpt lat="38.13545" lon="-8.59179">
        <ele>188.9849</ele>
        <time>2021-07-11T10:05:57Z</time>
      </trkpt>
      <trkpt lat="38.13729" lon="-8.59193">
        <ele>182.3781</ele>
        <time>2021-07-11T10:06:08Z</time>
      </trkpt>
      <trkpt lat="38.13866" lon="-8.59077">
        <ele>181.4024</ele>
        <time>2021-07-11T10:06:19Z</time>
      </trkpt>
      <trkpt lat="38.14061" lon="-8.58997">
        <ele>178.3887</ele>
        <time>2021-07-11T10:06:30Z</time>
      </trkpt>
      <trkpt lat="38.14273" lon="-8.58972">
        <ele>171.2201</ele>
        <time>2021-07-11T10:06:41Z</time>
      </trkpt>
      <trkpt lat="38.14403" lon="-8.58871">
        <ele>164.0243</ele>
        <time>2021-07-11T10:06:52Z</time>
      </trkpt>
      <trkpt lat="38.14539" lon="-8.58765">
        <ele>156.5376</ele>
        <time>2021-07-11T10:07:03Z</time>
      </trkpt>
      <trkpt lat="38.14686" lon="-8.5863">
        <ele>146.3362</ele>
        <time>2021-07-11T10:07:14Z</time>
      </trkpt>
      <trkpt lat="38.14819" lon="-8.58483">
        <ele>140.1898</ele>
        <time>2021-07-11T10:07:25Z</time>
      </trkpt>
      <trkpt lat="38.14993" lon="-8.58412">
        <ele>136.0932</ele>
        <time>2021-07-11T10:07:36Z</time>
      </trkpt>
      <trkpt lat="38.15151" lon="-8.58292">
        <ele>128.2265</ele>
        <time>2021-07-11T10:07:47Z</time>
      </trkpt>
      <trkpt lat="38.15258" lon="-8.58112">
        <ele>125.1816</ele>
        <time>2021-07-11T10:07:58Z</time>
      </trkpt>
      <trkpt lat="38.15408" lon="-8.5795">
        <ele>125.8535</ele>
        <time>2021-07-11T10:08:09Z</time>
      </trkpt>
      <trkpt lat="38.15532" lon="-8.57831">
        <ele>121.2506</ele>
        <time>2021-07-11T10:08:20Z</time>
      </trkpt>
      <trkpt lat="38.15672" lon="-8.5762">
        <ele>114.8981</ele>
        <time>2021-07-11T10:08:31Z</time>
      </trkpt>
      <trkpt lat="38.15777" lon="-8.57413">
        <ele>108.5986</ele>
        <time>2021-07-11T10:08:42Z</time>
      </trkpt>
      <trkpt lat="38.15902" lon="-8.57259">
        <ele>112.4418</ele>
        <time>2021-07-11T10:08:53Z</time>
      </trkpt>
      <trkpt lat="38.16043" lon="-8.57058">
        <ele>118.5495</ele>
        <time>2021-07-11T10:09:04Z</time>
      </trkpt>
      <trkpt lat="38.16204" lon="-8.56887">
        <ele>116.5432</ele>
        <time>2021-07-11T10:09:15Z</time>
      </trkpt>
      <trkpt lat="38.16353" lon="-8.56856">
        <ele>108.29</ele>
        <time>2021-07-11T10:09:26Z</time>
      </trkpt>
      <trkpt lat="38.16522" lon="-8.56939">
        <ele>100.3655</ele>
        <time>2021-07-11T10:09:37Z</time>
      </trkpt>
      <trkpt lat="38.16699" lon="-8.56899">
        <ele>90.28779</ele>
        <time>2021-07-11T10:09:48Z</time>
      </trkpt>
      <trkpt lat="38.16886" lon="-8.56901">
        <ele>87.85924</ele>
        <time>2021-07-11T10:09:59Z</time>
      </trkpt>
      <trkpt lat="38.1705" lon="-8.56854">
        <ele>86.56382</ele>
        <time>2021-07-11T10:10:10Z</time>
      </trkpt>
      <trkpt lat="38.17101" lon="-8.568">
        <ele>88.29582</ele>
        <time>2021-07-11T10:10:21Z</time>
      </trkpt>
      <trkpt lat="38.17099" lon="-8.56795">
        <ele>89.11463</ele>
        <time>2021-07-11T10:10:32Z</time>
      </trkpt>
      <trkpt lat="38.17097" lon="-8.56789">
        <ele>89.1423</ele>
        <time>2021-07-11T10:11:16Z</time>
      </trkpt>
      <trkpt lat="38.17096" lon="-8.56755">
        <ele>89.11701</ele>
        <time>2021-07-11T10:11:27Z</time>
      </trkpt>
      <trkpt lat="38.17155" lon="-8.5689">
        <ele>89.87613</ele>
        <time>2021-07-11T10:11:38Z</time>
      </trkpt>
      <trkpt lat="38.17255" lon="-8.57123">
        <ele>90.55835</ele>
        <time>2021-07-11T10:11:49Z</time>
      </trkpt>
      <trkpt lat="38.1737" lon="-8.57346">
        <ele>92.26561</ele>
        <time>2021-07-11T10:12:00Z</time>
      </trkpt>
      <trkpt lat="38.17523" lon="-8.57495">
        <ele>99.6434</ele>
        <time>2021-07-11T10:12:11Z</time>
      </trkpt>
      <trkpt lat="38.17668" lon="-8.57566">
        <ele>107.8544</ele>
        <time>2021-07-11T10:12:22Z</time>
      </trkpt>
      <trkpt lat="38.17712" lon="-8.57525">
        <ele>104.7188</ele>
        <time>2021-07-11T10:12:33Z</time>
      </trkpt>
      <trkpt lat="38.17679" lon="-8.57373">
        <ele>99.55683</ele>
        <time>2021-07-11T10:12:44Z</time>
      </trkpt>
      <trkpt lat="38.1769" lon="-8.57173">
        <ele>99.9637</ele>
        <time>2021-07-11T10:12:55Z</time>
      </trkpt>
      <trkpt lat="38.17668" lon="-8.56973">
        <ele>105.6636</ele>
        <time>2021-07-11T10:13:06Z</time>
      </trkpt>
      <trkpt lat="38.17678" lon="-8.56849">
        <ele>103.8838</ele>
        <time>2021-07-11T10:13:17Z</time>
      </trkpt>
      <trkpt lat="38.17687" lon="-8.56728">
        <ele>96.6854</ele>
        <time>2021-07-11T10:13:28Z</time>
      </trkpt>
      <trkpt lat="38.17702" lon="-8.56697">
        <ele>103.5328</ele>
        <time>2021-07-11T10:13:39Z</time>
      </trkpt>
      <trkpt lat="38.17803" lon="-8.56711">
        <ele>103.0904</ele>
        <time>2021-07-11T10:13:50Z</time>
      </trkpt>
      <trkpt lat="38.17931" lon="-8.56705">
        <ele>103.8099</ele>
        <time>2021-07-11T10:14:01Z</time>
      </trkpt>
      <trkpt lat="38.17974" lon="-8.56703">
        <ele>99.86311</ele>
        <time>2021-07-11T10:14:12Z</time>
      </trkpt>
      <trkpt lat="38.18014" lon="-8.56702">
        <ele>99.5759</ele>
        <time>2021-07-11T10:14:23Z</time>
      </trkpt>
      <trkpt lat="38.18077" lon="-8.56706">
        <ele>102.0222</ele>
        <time>2021-07-11T10:14:34Z</time>
      </trkpt>
      <trkpt lat="38.18097" lon="-8.56726">
        <ele>99.99387</ele>
        <time>2021-07-11T10:14:45Z</time>
      </trkpt>
      <trkpt lat="38.18094" lon="-8.5673">
        <ele>97.33042</ele>
        <time>2021-07-11T10:14:56Z</time>
      </trkpt>
      <trkpt lat="38.1809" lon="-8.56729">
        <ele>86.57578</ele>
        <time>2021-07-11T10:15:54Z</time>
      </trkpt>
      <trkpt lat="38.18093" lon="-8.56729">
        <ele>89.05081</ele>
        <time>2021-07-11T10:16:54Z</time>
      </trkpt>
      <trkpt lat="38.18093" lon="-8.56728">
        <ele>89.69375</ele>
        <time>2021-07-11T10:17:54Z</time>
      </trkpt>
      <trkpt lat="38.18091" lon="-8.56729">
        <ele>91.41883</ele>
        <time>2021-07-11T10:18:54Z</time>
      </trkpt>
      <trkpt lat="38.18092" lon="-8.56726">
        <ele>92.16069</ele>
        <time>2021-07-11T10:19:54Z</time>
      </trkpt>
      <trkpt lat="38.18088" lon="-8.56725">
        <ele>96.18032</ele>
        <time>2021-07-11T10:20:32Z</time>
      </trkpt>
      <trkpt lat="38.18077" lon="-8.56713">
        <ele>96.80945</ele>
        <time>2021-07-11T10:20:43Z</time>
      </trkpt>
      <trkpt lat="38.18071" lon="-8.56709">
        <ele>94.87704</ele>
        <time>2021-07-11T10:20:55Z</time>
      </trkpt>
      <trkpt lat="38.18007" lon="-8.56708">
        <ele>96.587</ele>
        <time>2021-07-11T10:21:06Z</time>
      </trkpt>
      <trkpt lat="38.17973" lon="-8.56721">
        <ele>96.9984</ele>
        <time>2021-07-11T10:21:17Z</time>
      </trkpt>
      <trkpt lat="38.17974" lon="-8.56719">
        <ele>98.10888</ele>
        <time>2021-07-11T10:22:16Z</time>
      </trkpt>
      <trkpt lat="38.18433" lon="-8.56796">
        <ele>97.88173</ele>
        <time>2021-07-11T10:45:02Z</time>
      </trkpt>
      <trkpt lat="38.1851" lon="-8.56847">
        <ele>96.15477</ele>
        <time>2021-07-11T10:45:13Z</time>
      </trkpt>
      <trkpt lat="38.18512" lon="-8.56851">
        <ele>95.87651</ele>
        <time>2021-07-11T10:46:05Z</time>
      </trkpt>
      <trkpt lat="38.18513" lon="-8.56852">
        <ele>96.88827</ele>
        <time>2021-07-11T10:47:04Z</time>
      </trkpt>
      <trkpt lat="38.18509" lon="-8.56854">
        <ele>97.47255</ele>
        <time>2021-07-11T10:47:30Z</time>
      </trkpt>
      <trkpt lat="38.1851" lon="-8.56854">
        <ele>96.60165</ele>
        <time>2021-07-11T10:48:29Z</time>
      </trkpt>
      <trkpt lat="38.1851" lon="-8.56854">
        <ele>98.33067</ele>
        <time>2021-07-11T10:49:28Z</time>
      </trkpt>
      <trkpt lat="38.1851" lon="-8.56854">
        <ele>96.10031</ele>
        <time>2021-07-11T10:50:27Z</time>
      </trkpt>
      <trkpt lat="38.1851" lon="-8.56854">
        <ele>96.63359</ele>
        <time>2021-07-11T10:51:26Z</time>
      </trkpt>
      <trkpt lat="38.18504" lon="-8.56852">
        <ele>95.08621</ele>
        <time>2021-07-11T10:52:16Z</time>
      </trkpt>
      <trkpt lat="38.18471" lon="-8.56852">
        <ele>94.95298</ele>
        <time>2021-07-11T10:52:27Z</time>
      </trkpt>
      <trkpt lat="38.18438" lon="-8.56849">
        <ele>95.47521</ele>
        <time>2021-07-11T10:52:38Z</time>
      </trkpt>
      <trkpt lat="38.18419" lon="-8.56821">
        <ele>96.53976</ele>
        <time>2021-07-11T10:52:49Z</time>
      </trkpt>
      <trkpt lat="38.1844" lon="-8.56872">
        <ele>97.78042</ele>
        <time>2021-07-11T10:53:05Z</time>
      </trkpt>
      <trkpt lat="38.18441" lon="-8.56869">
        <ele>96.2319</ele>
        <time>2021-07-11T10:54:05Z</time>
      </trkpt>
      <trkpt lat="38.18447" lon="-8.56864">
        <ele>97.19469</ele>
        <time>2021-07-11T10:54:35Z</time>
      </trkpt>
      <trkpt lat="38.18444" lon="-8.5686">
        <ele>96.70408</ele>
        <time>2021-07-11T10:55:05Z</time>
      </trkpt>
      <trkpt lat="38.18447" lon="-8.56864">
        <ele>97.17445</ele>
        <time>2021-07-11T10:56:03Z</time>
      </trkpt>
      <trkpt lat="38.18445" lon="-8.56862">
        <ele>96.85446</ele>
        <time>2021-07-11T10:57:02Z</time>
      </trkpt>
      <trkpt lat="38.18447" lon="-8.56864">
        <ele>98.54682</ele>
        <time>2021-07-11T10:58:01Z</time>
      </trkpt>
      <trkpt lat="38.18447" lon="-8.56864">
        <ele>98.70567</ele>
        <time>2021-07-11T10:59:01Z</time>
      </trkpt>
      <trkpt lat="38.1844" lon="-8.56855">
        <ele>98.43631</ele>
        <time>2021-07-11T10:59:15Z</time>
      </trkpt>
      <trkpt lat="38.18416" lon="-8.5682">
        <ele>97.78847</ele>
        <time>2021-07-11T10:59:26Z</time>
      </trkpt>
      <trkpt lat="38.18392" lon="-8.56783">
        <ele>95.47048</ele>
        <time>2021-07-11T10:59:37Z</time>
      </trkpt>
      <trkpt lat="38.18491" lon="-8.56799">
        <ele>94.66734</ele>
        <time>2021-07-11T10:59:48Z</time>
      </trkpt>
      <trkpt lat="38.18621" lon="-8.56802">
        <ele>98.23607</ele>
        <time>2021-07-11T10:59:59Z</time>
      </trkpt>
      <trkpt lat="38.18732" lon="-8.56781">
        <ele>98.49283</ele>
        <time>2021-07-11T11:00:10Z</time>
      </trkpt>
      <trkpt lat="38.18914" lon="-8.56706">
        <ele>95.08101</ele>
        <time>2021-07-11T11:00:21Z</time>
      </trkpt>
      <trkpt lat="38.19114" lon="-8.56644">
        <ele>93.13369</ele>
        <time>2021-07-11T11:00:32Z</time>
      </trkpt>
      <trkpt lat="38.19329" lon="-8.56578">
        <ele>89.73204</ele>
        <time>2021-07-11T11:00:43Z</time>
      </trkpt>
      <trkpt lat="38.1954" lon="-8.56513">
        <ele>87.18289</ele>
        <time>2021-07-11T11:00:54Z</time>
      </trkpt>
      <trkpt lat="38.19756" lon="-8.56446">
        <ele>85.80351</ele>
        <time>2021-07-11T11:01:05Z</time>
      </trkpt>
      <trkpt lat="38.19967" lon="-8.56381">
        <ele>84.1657</ele>
        <time>2021-07-11T11:01:16Z</time>
      </trkpt>
      <trkpt lat="38.20175" lon="-8.56317">
        <ele>82.64668</ele>
        <time>2021-07-11T11:01:27Z</time>
      </trkpt>
      <trkpt lat="38.20361" lon="-8.56304">
        <ele>83.67097</ele>
        <time>2021-07-11T11:01:38Z</time>
      </trkpt>
      <trkpt lat="38.2049" lon="-8.56237">
        <ele>85.20659</ele>
        <time>2021-07-11T11:01:49Z</time>
      </trkpt>
      <trkpt lat="38.20614" lon="-8.56345">
        <ele>85.59488</ele>
        <time>2021-07-11T11:02:00Z</time>
      </trkpt>
      <trkpt lat="38.20535" lon="-8.56581">
        <ele>93.2042</ele>
        <time>2021-07-11T11:02:11Z</time>
      </trkpt>
      <trkpt lat="38.20528" lon="-8.56874">
        <ele>89.72741</ele>
        <time>2021-07-11T11:02:22Z</time>
      </trkpt>
      <trkpt lat="38.20535" lon="-8.57167">
        <ele>88.2067</ele>
        <time>2021-07-11T11:02:33Z</time>
      </trkpt>
      <trkpt lat="38.20544" lon="-8.57469">
        <ele>90.37087</ele>
        <time>2021-07-11T11:02:44Z</time>
      </trkpt>
      <trkpt lat="38.20555" lon="-8.57771">
        <ele>91.46903</ele>
        <time>2021-07-11T11:02:55Z</time>
      </trkpt>
      <trkpt lat="38.20547" lon="-8.58065">
        <ele>92.56023</ele>
        <time>2021-07-11T11:03:06Z</time>
      </trkpt>
      <trkpt lat="38.20488" lon="-8.5834">
        <ele>91.65483</ele>
        <time>2021-07-11T11:03:17Z</time>
      </trkpt>
      <trkpt lat="38.20377" lon="-8.58613">
        <ele>93.85216</ele>
        <time>2021-07-11T11:03:28Z</time>
      </trkpt>
      <trkpt lat="38.20258" lon="-8.58879">
        <ele>96.99303</ele>
        <time>2021-07-11T11:03:39Z</time>
      </trkpt>
      <trkpt lat="38.20135" lon="-8.59154">
        <ele>99.59857</ele>
        <time>2021-07-11T11:03:50Z</time>
      </trkpt>
      <trkpt lat="38.20016" lon="-8.59421">
        <ele>102.8411</ele>
        <time>2021-07-11T11:04:01Z</time>
      </trkpt>
      <trkpt lat="38.19908" lon="-8.5969">
        <ele>107.4207</ele>
        <time>2021-07-11T11:04:12Z</time>
      </trkpt>
      <trkpt lat="38.19833" lon="-8.59977">
        <ele>111.2507</ele>
        <time>2021-07-11T11:04:23Z</time>
      </trkpt>
      <trkpt lat="38.19798" lon="-8.60277">
        <ele>115.2286</ele>
        <time>2021-07-11T11:04:34Z</time>
      </trkpt>
      <trkpt lat="38.19798" lon="-8.6058">
        <ele>121.9622</ele>
        <time>2021-07-11T11:04:45Z</time>
      </trkpt>
      <trkpt lat="38.19804" lon="-8.60879">
        <ele>128.4628</ele>
        <time>2021-07-11T11:04:56Z</time>
      </trkpt>
      <trkpt lat="38.19809" lon="-8.61183">
        <ele>135.3984</ele>
        <time>2021-07-11T11:05:07Z</time>
      </trkpt>
      <trkpt lat="38.19796" lon="-8.61481">
        <ele>144.2037</ele>
        <time>2021-07-11T11:05:18Z</time>
      </trkpt>
      <trkpt lat="38.19746" lon="-8.61772">
        <ele>150.7139</ele>
        <time>2021-07-11T11:05:29Z</time>
      </trkpt>
      <trkpt lat="38.19655" lon="-8.62051">
        <ele>154.9134</ele>
        <time>2021-07-11T11:05:40Z</time>
      </trkpt>
      <trkpt lat="38.19528" lon="-8.62303">
        <ele>162.0441</ele>
        <time>2021-07-11T11:05:51Z</time>
      </trkpt>
      <trkpt lat="38.19364" lon="-8.62529">
        <ele>172.3738</ele>
        <time>2021-07-11T11:06:02Z</time>
      </trkpt>
      <trkpt lat="38.19171" lon="-8.62713">
        <ele>182.0031</ele>
        <time>2021-07-11T11:06:13Z</time>
      </trkpt>
      <trkpt lat="38.18958" lon="-8.62854">
        <ele>191.4962</ele>
        <time>2021-07-11T11:06:24Z</time>
      </trkpt>
      <trkpt lat="38.18728" lon="-8.62986">
        <ele>200.9674</ele>
        <time>2021-07-11T11:06:35Z</time>
      </trkpt>
      <trkpt lat="38.18521" lon="-8.63158">
        <ele>211.0009</ele>
        <time>2021-07-11T11:06:46Z</time>
      </trkpt>
      <trkpt lat="38.18361" lon="-8.63398">
        <ele>225.7409</ele>
        <time>2021-07-11T11:06:57Z</time>
      </trkpt>
      <trkpt lat="38.18216" lon="-8.63659">
        <ele>236.9205</ele>
        <time>2021-07-11T11:07:08Z</time>
      </trkpt>
      <trkpt lat="38.1807" lon="-8.6392">
        <ele>252.7059</ele>
        <time>2021-07-11T11:07:19Z</time>
      </trkpt>
      <trkpt lat="38.179" lon="-8.64163">
        <ele>264.4318</ele>
        <time>2021-07-11T11:07:30Z</time>
      </trkpt>
      <trkpt lat="38.17677" lon="-8.64306">
        <ele>278.3854</ele>
        <time>2021-07-11T11:07:41Z</time>
      </trkpt>
      <trkpt lat="38.17424" lon="-8.64344">
        <ele>291.6188</ele>
        <time>2021-07-11T11:07:52Z</time>
      </trkpt>
      <trkpt lat="38.17172" lon="-8.64387">
        <ele>303.5692</ele>
        <time>2021-07-11T11:08:03Z</time>
      </trkpt>
      <trkpt lat="38.16919" lon="-8.64482">
        <ele>307.5654</ele>
        <time>2021-07-11T11:08:14Z</time>
      </trkpt>
      <trkpt lat="38.16656" lon="-8.64585">
        <ele>303.7562</ele>
        <time>2021-07-11T11:08:25Z</time>
      </trkpt>
      <trkpt lat="38.16388" lon="-8.6469">
        <ele>294.6614</ele>
        <time>2021-07-11T11:08:36Z</time>
      </trkpt>
      <trkpt lat="38.16114" lon="-8.64796">
        <ele>285.4837</ele>
        <time>2021-07-11T11:08:47Z</time>
      </trkpt>
      <trkpt lat="38.15838" lon="-8.64884">
        <ele>278.3263</ele>
        <time>2021-07-11T11:08:58Z</time>
      </trkpt>
      <trkpt lat="38.15556" lon="-8.64938">
        <ele>278.8267</ele>
        <time>2021-07-11T11:09:09Z</time>
      </trkpt>
      <trkpt lat="38.15271" lon="-8.64958">
        <ele>281.5123</ele>
        <time>2021-07-11T11:09:20Z</time>
      </trkpt>
      <trkpt lat="38.14979" lon="-8.64969">
        <ele>280.3251</ele>
        <time>2021-07-11T11:09:31Z</time>
      </trkpt>
      <trkpt lat="38.14693" lon="-8.65013">
        <ele>279.1857</ele>
        <time>2021-07-11T11:09:42Z</time>
      </trkpt>
      <trkpt lat="38.14412" lon="-8.65092">
        <ele>277.2082</ele>
        <time>2021-07-11T11:09:53Z</time>
      </trkpt>
      <trkpt lat="38.14137" lon="-8.65179">
        <ele>277.744</ele>
        <time>2021-07-11T11:10:04Z</time>
      </trkpt>
      <trkpt lat="38.13858" lon="-8.65223">
        <ele>280.2473</ele>
        <time>2021-07-11T11:10:15Z</time>
      </trkpt>
      <trkpt lat="38.13571" lon="-8.65211">
        <ele>282.7016</ele>
        <time>2021-07-11T11:10:26Z</time>
      </trkpt>
      <trkpt lat="38.13289" lon="-8.65154">
        <ele>284.7393</ele>
        <time>2021-07-11T11:10:37Z</time>
      </trkpt>
      <trkpt lat="38.1301" lon="-8.65107">
        <ele>278.612</ele>
        <time>2021-07-11T11:10:48Z</time>
      </trkpt>
      <trkpt lat="38.12735" lon="-8.65118">
        <ele>274.9177</ele>
        <time>2021-07-11T11:10:59Z</time>
      </trkpt>
      <trkpt lat="38.12476" lon="-8.65153">
        <ele>273.0894</ele>
        <time>2021-07-11T11:11:10Z</time>
      </trkpt>
      <trkpt lat="38.1221" lon="-8.65175">
        <ele>274.458</ele>
        <time>2021-07-11T11:11:21Z</time>
      </trkpt>
      <trkpt lat="38.11937" lon="-8.6514">
        <ele>275.9894</ele>
        <time>2021-07-11T11:11:32Z</time>
      </trkpt>
      <trkpt lat="38.11683" lon="-8.65047">
        <ele>276.7123</ele>
        <time>2021-07-11T11:11:43Z</time>
      </trkpt>
      <trkpt lat="38.11437" lon="-8.64895">
        <ele>277.8646</ele>
        <time>2021-07-11T11:11:54Z</time>
      </trkpt>
      <trkpt lat="38.11209" lon="-8.64682">
        <ele>280.578</ele>
        <time>2021-07-11T11:12:05Z</time>
      </trkpt>
      <trkpt lat="38.11004" lon="-8.64438">
        <ele>279.8512</ele>
        <time>2021-07-11T11:12:16Z</time>
      </trkpt>
      <trkpt lat="38.10794" lon="-8.642">
        <ele>277.3957</ele>
        <time>2021-07-11T11:12:27Z</time>
      </trkpt>
      <trkpt lat="38.10554" lon="-8.64027">
        <ele>275.9905</ele>
        <time>2021-07-11T11:12:38Z</time>
      </trkpt>
      <trkpt lat="38.10293" lon="-8.63946">
        <ele>272.439</ele>
        <time>2021-07-11T11:12:49Z</time>
      </trkpt>
      <trkpt lat="38.10022" lon="-8.63933">
        <ele>272.3844</ele>
        <time>2021-07-11T11:13:00Z</time>
      </trkpt>
      <trkpt lat="38.09746" lon="-8.63926">
        <ele>275.101</ele>
        <time>2021-07-11T11:13:11Z</time>
      </trkpt>
      <trkpt lat="38.09471" lon="-8.63944">
        <ele>278.6631</ele>
        <time>2021-07-11T11:13:22Z</time>
      </trkpt>
      <trkpt lat="38.09208" lon="-8.64009">
        <ele>283.3288</ele>
        <time>2021-07-11T11:13:33Z</time>
      </trkpt>
      <trkpt lat="38.08953" lon="-8.641">
        <ele>284.4397</ele>
        <time>2021-07-11T11:13:44Z</time>
      </trkpt>
      <trkpt lat="38.0869" lon="-8.64195">
        <ele>281.7574</ele>
        <time>2021-07-11T11:13:55Z</time>
      </trkpt>
      <trkpt lat="38.08415" lon="-8.64244">
        <ele>273.5759</ele>
        <time>2021-07-11T11:14:06Z</time>
      </trkpt>
      <trkpt lat="38.08142" lon="-8.64245">
        <ele>261.6567</ele>
        <time>2021-07-11T11:14:17Z</time>
      </trkpt>
      <trkpt lat="38.07879" lon="-8.64293">
        <ele>255.4267</ele>
        <time>2021-07-11T11:14:28Z</time>
      </trkpt>
      <trkpt lat="38.07646" lon="-8.64431">
        <ele>258.4493</ele>
        <time>2021-07-11T11:14:39Z</time>
      </trkpt>
      <trkpt lat="38.07453" lon="-8.6465">
        <ele>263.6214</ele>
        <time>2021-07-11T11:14:50Z</time>
      </trkpt>
      <trkpt lat="38.07313" lon="-8.64941">
        <ele>268.0309</ele>
        <time>2021-07-11T11:15:01Z</time>
      </trkpt>
      <trkpt lat="38.0722" lon="-8.6527">
        <ele>271.9082</ele>
        <time>2021-07-11T11:15:12Z</time>
      </trkpt>
      <trkpt lat="38.07137" lon="-8.65609">
        <ele>265.5811</ele>
        <time>2021-07-11T11:15:23Z</time>
      </trkpt>
      <trkpt lat="38.07094" lon="-8.65962">
        <ele>257.8451</ele>
        <time>2021-07-11T11:15:34Z</time>
      </trkpt>
      <trkpt lat="38.07088" lon="-8.66314">
        <ele>250.9725</ele>
        <time>2021-07-11T11:15:45Z</time>
      </trkpt>
      <trkpt lat="38.07086" lon="-8.66662">
        <ele>243.8267</ele>
        <time>2021-07-11T11:15:56Z</time>
      </trkpt>
      <trkpt lat="38.0708" lon="-8.67006">
        <ele>241.4999</ele>
        <time>2021-07-11T11:16:07Z</time>
      </trkpt>
      <trkpt lat="38.07047" lon="-8.67358">
        <ele>238.8497</ele>
        <time>2021-07-11T11:16:18Z</time>
      </trkpt>
      <trkpt lat="38.0699" lon="-8.67701">
        <ele>235.573</ele>
        <time>2021-07-11T11:16:29Z</time>
      </trkpt>
      <trkpt lat="38.06929" lon="-8.68044">
        <ele>232.1851</ele>
        <time>2021-07-11T11:16:40Z</time>
      </trkpt>
      <trkpt lat="38.06867" lon="-8.68392">
        <ele>221.0848</ele>
        <time>2021-07-11T11:16:51Z</time>
      </trkpt>
      <trkpt lat="38.06806" lon="-8.68733">
        <ele>206.4843</ele>
        <time>2021-07-11T11:17:02Z</time>
      </trkpt>
      <trkpt lat="38.06744" lon="-8.69077">
        <ele>192.1599</ele>
        <time>2021-07-11T11:17:13Z</time>
      </trkpt>
      <trkpt lat="38.06672" lon="-8.69419">
        <ele>179.3651</ele>
        <time>2021-07-11T11:17:24Z</time>
      </trkpt>
      <trkpt lat="38.06574" lon="-8.69747">
        <ele>162.0171</ele>
        <time>2021-07-11T11:17:35Z</time>
      </trkpt>
      <trkpt lat="38.06456" lon="-8.70057">
        <ele>146.0083</ele>
        <time>2021-07-11T11:17:46Z</time>
      </trkpt>
      <trkpt lat="38.06334" lon="-8.70373">
        <ele>130.0344</ele>
        <time>2021-07-11T11:17:57Z</time>
      </trkpt>
      <trkpt lat="38.06221" lon="-8.70695">
        <ele>115.7941</ele>
        <time>2021-07-11T11:18:08Z</time>
      </trkpt>
      <trkpt lat="38.06142" lon="-8.71023">
        <ele>102.0917</ele>
        <time>2021-07-11T11:18:19Z</time>
      </trkpt>
      <trkpt lat="38.06043" lon="-8.7134">
        <ele>95.64161</ele>
        <time>2021-07-11T11:18:30Z</time>
      </trkpt>
      <trkpt lat="38.05867" lon="-8.71618">
        <ele>84.97515</ele>
        <time>2021-07-11T11:18:41Z</time>
      </trkpt>
      <trkpt lat="38.05675" lon="-8.7189">
        <ele>75.09036</ele>
        <time>2021-07-11T11:18:52Z</time>
      </trkpt>
      <trkpt lat="38.05562" lon="-8.72178">
        <ele>64.57534</ele>
        <time>2021-07-11T11:19:03Z</time>
      </trkpt>
      <trkpt lat="38.0546" lon="-8.72493">
        <ele>56.87601</ele>
        <time>2021-07-11T11:19:14Z</time>
      </trkpt>
      <trkpt lat="38.05328" lon="-8.72789">
        <ele>66.66656</ele>
        <time>2021-07-11T11:19:25Z</time>
      </trkpt>
      <trkpt lat="38.05138" lon="-8.73024">
        <ele>74.91727</ele>
        <time>2021-07-11T11:19:36Z</time>
      </trkpt>
      <trkpt lat="38.04924" lon="-8.73227">
        <ele>82.53213</ele>
        <time>2021-07-11T11:19:47Z</time>
      </trkpt>
      <trkpt lat="38.04699" lon="-8.73427">
        <ele>84.34171</ele>
        <time>2021-07-11T11:19:58Z</time>
      </trkpt>
      <trkpt lat="38.04507" lon="-8.73564">
        <ele>82.86267</ele>
        <time>2021-07-11T11:20:09Z</time>
      </trkpt>
      <trkpt lat="38.04542" lon="-8.7368">
        <ele>80.40153</ele>
        <time>2021-07-11T11:20:20Z</time>
      </trkpt>
      <trkpt lat="38.04711" lon="-8.73686">
        <ele>76.81528</ele>
        <time>2021-07-11T11:20:31Z</time>
      </trkpt>
      <trkpt lat="38.04761" lon="-8.73673">
        <ele>78.13013</ele>
        <time>2021-07-11T11:20:42Z</time>
      </trkpt>
      <trkpt lat="38.04871" lon="-8.73846">
        <ele>81.1115</ele>
        <time>2021-07-11T11:20:53Z</time>
      </trkpt>
      <trkpt lat="38.04937" lon="-8.74113">
        <ele>77.47049</ele>
        <time>2021-07-11T11:21:04Z</time>
      </trkpt>
      <trkpt lat="38.04948" lon="-8.74259">
        <ele>75.52163</ele>
        <time>2021-07-11T11:21:15Z</time>
      </trkpt>
      <trkpt lat="38.04899" lon="-8.74433">
        <ele>72.74674</ele>
        <time>2021-07-11T11:21:26Z</time>
      </trkpt>
      <trkpt lat="38.04981" lon="-8.74606">
        <ele>67.80912</ele>
        <time>2021-07-11T11:21:37Z</time>
      </trkpt>
      <trkpt lat="38.05074" lon="-8.74795">
        <ele>65.1732</ele>
        <time>2021-07-11T11:21:48Z</time>
      </trkpt>
      <trkpt lat="38.05167" lon="-8.74987">
        <ele>61.13841</ele>
        <time>2021-07-11T11:21:59Z</time>
      </trkpt>
      <trkpt lat="38.05298" lon="-8.75124">
        <ele>62.77858</ele>
        <time>2021-07-11T11:22:10Z</time>
      </trkpt>
      <trkpt lat="38.05314" lon="-8.75136">
        <ele>66.97278</ele>
        <time>2021-07-11T11:22:21Z</time>
      </trkpt>
      <trkpt lat="38.05399" lon="-8.75211">
        <ele>64.10141</ele>
        <time>2021-07-11T11:22:32Z</time>
      </trkpt>
      <trkpt lat="38.05531" lon="-8.75333">
        <ele>54.66163</ele>
        <time>2021-07-11T11:22:43Z</time>
      </trkpt>
      <trkpt lat="38.05698" lon="-8.75425">
        <ele>40.77804</ele>
        <time>2021-07-11T11:22:54Z</time>
      </trkpt>
      <trkpt lat="38.05845" lon="-8.75507">
        <ele>31.26076</ele>
        <time>2021-07-11T11:23:05Z</time>
      </trkpt>
      <trkpt lat="38.0599" lon="-8.75626">
        <ele>29.27855</ele>
        <time>2021-07-11T11:23:16Z</time>
      </trkpt>
      <trkpt lat="38.06139" lon="-8.75778">
        <ele>27.05397</ele>
        <time>2021-07-11T11:23:27Z</time>
      </trkpt>
      <trkpt lat="38.06258" lon="-8.75889">
        <ele>30.36713</ele>
        <time>2021-07-11T11:23:38Z</time>
      </trkpt>
      <trkpt lat="38.06318" lon="-8.76051">
        <ele>29.80149</ele>
        <time>2021-07-11T11:23:49Z</time>
      </trkpt>
      <trkpt lat="38.06363" lon="-8.76202">
        <ele>30.2377</ele>
        <time>2021-07-11T11:24:00Z</time>
      </trkpt>
      <trkpt lat="38.06408" lon="-8.76275">
        <ele>27.41951</ele>
        <time>2021-07-11T11:24:11Z</time>
      </trkpt>
      <trkpt lat="38.06486" lon="-8.76352">
        <ele>26.87008</ele>
        <time>2021-07-11T11:24:22Z</time>
      </trkpt>
      <trkpt lat="38.06554" lon="-8.76483">
        <ele>26.486</ele>
        <time>2021-07-11T11:24:33Z</time>
      </trkpt>
      <trkpt lat="38.06584" lon="-8.7665">
        <ele>23.05421</ele>
        <time>2021-07-11T11:24:44Z</time>
      </trkpt>
      <trkpt lat="38.06617" lon="-8.76826">
        <ele>19.02352</ele>
        <time>2021-07-11T11:24:55Z</time>
      </trkpt>
      <trkpt lat="38.06667" lon="-8.77003">
        <ele>15.59386</ele>
        <time>2021-07-11T11:25:06Z</time>
      </trkpt>
      <trkpt lat="38.06642" lon="-8.77206">
        <ele>13.31294</ele>
        <time>2021-07-11T11:25:17Z</time>
      </trkpt>
      <trkpt lat="38.06619" lon="-8.77408">
        <ele>13.75322</ele>
        <time>2021-07-11T11:25:28Z</time>
      </trkpt>
      <trkpt lat="38.06609" lon="-8.77538">
        <ele>19.86945</ele>
        <time>2021-07-11T11:25:39Z</time>
      </trkpt>
      <trkpt lat="38.06536" lon="-8.77541">
        <ele>20.15373</ele>
        <time>2021-07-11T11:25:50Z</time>
      </trkpt>
      <trkpt lat="38.0642" lon="-8.7754">
        <ele>21.45347</ele>
        <time>2021-07-11T11:26:01Z</time>
      </trkpt>
      <trkpt lat="38.06315" lon="-8.77579">
        <ele>23.73466</ele>
        <time>2021-07-11T11:26:12Z</time>
      </trkpt>
      <trkpt lat="38.06191" lon="-8.77678">
        <ele>25.85485</ele>
        <time>2021-07-11T11:26:23Z</time>
      </trkpt>
      <trkpt lat="38.0607" lon="-8.77775">
        <ele>33.1489</ele>
        <time>2021-07-11T11:26:34Z</time>
      </trkpt>
      <trkpt lat="38.05959" lon="-8.77863">
        <ele>35.12344</ele>
        <time>2021-07-11T11:26:45Z</time>
      </trkpt>
      <trkpt lat="38.05845" lon="-8.77952">
        <ele>38.7383</ele>
        <time>2021-07-11T11:26:56Z</time>
      </trkpt>
      <trkpt lat="38.05721" lon="-8.78019">
        <ele>38.46556</ele>
        <time>2021-07-11T11:27:07Z</time>
      </trkpt>
      <trkpt lat="38.05658" lon="-8.78">
        <ele>37.9794</ele>
        <time>2021-07-11T11:27:18Z</time>
      </trkpt>
      <trkpt lat="38.05592" lon="-8.77904">
        <ele>38.41382</ele>
        <time>2021-07-11T11:27:29Z</time>
      </trkpt>
      <trkpt lat="38.05591" lon="-8.77817">
        <ele>39.7124</ele>
        <time>2021-07-11T11:27:40Z</time>
      </trkpt>
      <trkpt lat="38.05598" lon="-8.77805">
        <ele>39.87688</ele>
        <time>2021-07-11T11:27:51Z</time>
      </trkpt>
      <trkpt lat="38.05598" lon="-8.77805">
        <ele>39.86397</ele>
        <time>2021-07-11T11:28:50Z</time>
      </trkpt>
      <trkpt lat="38.05599" lon="-8.77808">
        <ele>40.48248</ele>
        <time>2021-07-11T11:29:49Z</time>
      </trkpt>
      <trkpt lat="38.05601" lon="-8.77803">
        <ele>42.82749</ele>
        <time>2021-07-11T11:30:44Z</time>
      </trkpt>
      <trkpt lat="38.05611" lon="-8.7776">
        <ele>37.69163</ele>
        <time>2021-07-11T11:30:55Z</time>
      </trkpt>
      <trkpt lat="38.05623" lon="-8.77709">
        <ele>31.24334</ele>
        <time>2021-07-11T11:31:06Z</time>
      </trkpt>
      <trkpt lat="38.05637" lon="-8.77652">
        <ele>27.14254</ele>
        <time>2021-07-11T11:31:17Z</time>
      </trkpt>
      <trkpt lat="38.05653" lon="-8.77582">
        <ele>27.20874</ele>
        <time>2021-07-11T11:31:28Z</time>
      </trkpt>
      <trkpt lat="38.05663" lon="-8.77499">
        <ele>27.72726</ele>
        <time>2021-07-11T11:31:39Z</time>
      </trkpt>
      <trkpt lat="38.0567" lon="-8.77425">
        <ele>30.06112</ele>
        <time>2021-07-11T11:31:50Z</time>
      </trkpt>
      <trkpt lat="38.0569" lon="-8.77361">
        <ele>32.66734</ele>
        <time>2021-07-11T11:32:01Z</time>
      </trkpt>
      <trkpt lat="38.05739" lon="-8.77282">
        <ele>29.46805</ele>
        <time>2021-07-11T11:32:12Z</time>
      </trkpt>
      <trkpt lat="38.05786" lon="-8.77198">
        <ele>35.65407</ele>
        <time>2021-07-11T11:32:23Z</time>
      </trkpt>
      <trkpt lat="38.05811" lon="-8.77158">
        <ele>34.9974</ele>
        <time>2021-07-11T11:32:34Z</time>
      </trkpt>
      <trkpt lat="38.05825" lon="-8.77148">
        <ele>34.90742</ele>
        <time>2021-07-11T11:32:45Z</time>
      </trkpt>
      <trkpt lat="38.05824" lon="-8.77152">
        <ele>35.73069</ele>
        <time>2021-07-11T11:32:57Z</time>
      </trkpt>
      <trkpt lat="38.0578" lon="-8.7716">
        <ele>36.9714</ele>
        <time>2021-07-11T11:33:08Z</time>
      </trkpt>
      <trkpt lat="38.05763" lon="-8.7715">
        <ele>32.1969</ele>
        <time>2021-07-11T11:33:19Z</time>
      </trkpt>
      <trkpt lat="38.05761" lon="-8.77111">
        <ele>29.16491</ele>
        <time>2021-07-11T11:33:30Z</time>
      </trkpt>
      <trkpt lat="38.05764" lon="-8.77059">
        <ele>28.41752</ele>
        <time>2021-07-11T11:33:41Z</time>
      </trkpt>
      <trkpt lat="38.05758" lon="-8.77013">
        <ele>28.31237</ele>
        <time>2021-07-11T11:33:52Z</time>
      </trkpt>
      <trkpt lat="38.05754" lon="-8.76972">
        <ele>28.54407</ele>
        <time>2021-07-11T11:34:03Z</time>
      </trkpt>
      <trkpt lat="38.05754" lon="-8.76934">
        <ele>26.88723</ele>
        <time>2021-07-11T11:34:14Z</time>
      </trkpt>
      <trkpt lat="38.05752" lon="-8.76925">
        <ele>26.77657</ele>
        <time>2021-07-11T11:34:25Z</time>
      </trkpt>
      <trkpt lat="38.05753" lon="-8.76919">
        <ele>27.03687</ele>
        <time>2021-07-11T11:35:24Z</time>
      </trkpt>
      <trkpt lat="38.05749" lon="-8.76878">
        <ele>26.50333</ele>
        <time>2021-07-11T11:35:35Z</time>
      </trkpt>
      <trkpt lat="38.05718" lon="-8.76845">
        <ele>26.0602</ele>
        <time>2021-07-11T11:35:46Z</time>
      </trkpt>
      <trkpt lat="38.05682" lon="-8.76825">
        <ele>24.18004</ele>
        <time>2021-07-11T11:35:57Z</time>
      </trkpt>
      <trkpt lat="38.05635" lon="-8.76812">
        <ele>25.99788</ele>
        <time>2021-07-11T11:36:08Z</time>
      </trkpt>
      <trkpt lat="38.05604" lon="-8.76784">
        <ele>27.1688</ele>
        <time>2021-07-11T11:36:19Z</time>
      </trkpt>
      <trkpt lat="38.05602" lon="-8.76782">
        <ele>26.34597</ele>
        <time>2021-07-11T11:37:19Z</time>
      </trkpt>
      <trkpt lat="38.05597" lon="-8.76781">
        <ele>27.68595</ele>
        <time>2021-07-11T11:37:59Z</time>
      </trkpt>
      <trkpt lat="38.05501" lon="-8.76786">
        <ele>28.61473</ele>
        <time>2021-07-11T11:38:10Z</time>
      </trkpt>
      <trkpt lat="38.05424" lon="-8.76801">
        <ele>30.41937</ele>
        <time>2021-07-11T11:38:21Z</time>
      </trkpt>
      <trkpt lat="38.05314" lon="-8.76797">
        <ele>30.25258</ele>
        <time>2021-07-11T11:38:32Z</time>
      </trkpt>
      <trkpt lat="38.05271" lon="-8.76807">
        <ele>30.53366</ele>
        <time>2021-07-11T11:38:43Z</time>
      </trkpt>
      <trkpt lat="38.05244" lon="-8.76766">
        <ele>29.59354</ele>
        <time>2021-07-11T11:38:54Z</time>
      </trkpt>
      <trkpt lat="38.05229" lon="-8.76731">
        <ele>30.9485</ele>
        <time>2021-07-11T11:39:05Z</time>
      </trkpt>
      <trkpt lat="38.05217" lon="-8.76693">
        <ele>29.67523</ele>
        <time>2021-07-11T11:39:16Z</time>
      </trkpt>
      <trkpt lat="38.05196" lon="-8.76676">
        <ele>29.42008</ele>
        <time>2021-07-11T11:39:27Z</time>
      </trkpt>
      <trkpt lat="38.05173" lon="-8.76658">
        <ele>30.16217</ele>
        <time>2021-07-11T11:39:38Z</time>
      </trkpt>
      <trkpt lat="38.05159" lon="-8.76646">
        <ele>30.87809</ele>
        <time>2021-07-11T11:39:49Z</time>
      </trkpt>
      <trkpt lat="38.05158" lon="-8.76644">
        <ele>31.55085</ele>
        <time>2021-07-11T11:40:48Z</time>
      </trkpt>
      <trkpt lat="38.05131" lon="-8.76618">
        <ele>31.78982</ele>
        <time>2021-07-11T11:40:59Z</time>
      </trkpt>
      <trkpt lat="38.05106" lon="-8.76606">
        <ele>29.64817</ele>
        <time>2021-07-11T11:41:10Z</time>
      </trkpt>
      <trkpt lat="38.05073" lon="-8.76599">
        <ele>31.3813</ele>
        <time>2021-07-11T11:41:21Z</time>
      </trkpt>
      <trkpt lat="38.05069" lon="-8.76599">
        <ele>32.78538</ele>
        <time>2021-07-11T11:41:32Z</time>
      </trkpt>
      <trkpt lat="38.05065" lon="-8.76597">
        <ele>32.0269</ele>
        <time>2021-07-11T11:41:53Z</time>
      </trkpt>
      <trkpt lat="38.05028" lon="-8.76554">
        <ele>34.20949</ele>
        <time>2021-07-11T11:42:04Z</time>
      </trkpt>
      <trkpt lat="38.05004" lon="-8.76501">
        <ele>33.88897</ele>
        <time>2021-07-11T11:42:15Z</time>
      </trkpt>
      <trkpt lat="38.04986" lon="-8.76458">
        <ele>33.94862</ele>
        <time>2021-07-11T11:42:26Z</time>
      </trkpt>
      <trkpt lat="38.04987" lon="-8.76442">
        <ele>33.20264</ele>
        <time>2021-07-11T11:42:37Z</time>
      </trkpt>
      <trkpt lat="38.04988" lon="-8.76442">
        <ele>32.82265</ele>
        <time>2021-07-11T11:43:37Z</time>
      </trkpt>
      <trkpt lat="38.04988" lon="-8.76442">
        <ele>32.82265</ele>
        <time>2021-07-11T11:44:37Z</time>
      </trkpt>
      <trkpt lat="38.0499" lon="-8.76446">
        <ele>33.23643</ele>
        <time>2021-07-11T11:54:14Z</time>
      </trkpt>
      <trkpt lat="38.04986" lon="-8.76444">
        <ele>33.56777</ele>
        <time>2021-07-11T11:54:25Z</time>
      </trkpt>
      <trkpt lat="38.04986" lon="-8.76444">
        <ele>33.65867</ele>
        <time>2021-07-11T11:59:36Z</time>
      </trkpt>
      <trkpt lat="38.04992" lon="-8.76447">
        <ele>33.50212</ele>
        <time>2021-07-11T11:59:47Z</time>
      </trkpt>
      <trkpt lat="38.04988" lon="-8.76446">
        <ele>33.52086</ele>
        <time>2021-07-11T12:00:05Z</time>
      </trkpt>
      <trkpt lat="38.0499" lon="-8.76442">
        <ele>31.85683</ele>
        <time>2021-07-11T12:00:36Z</time>
      </trkpt>
      <trkpt lat="38.04986" lon="-8.76441">
        <ele>33.30614</ele>
        <time>2021-07-11T12:00:47Z</time>
      </trkpt>
      <trkpt lat="38.04985" lon="-8.76442">
        <ele>33.73619</ele>
        <time>2021-07-11T12:01:47Z</time>
      </trkpt>
      <trkpt lat="38.04989" lon="-8.76442">
        <ele>33.68062</ele>
        <time>2021-07-11T12:02:08Z</time>
      </trkpt>
      <trkpt lat="38.04988" lon="-8.76441">
        <ele>34.325</ele>
        <time>2021-07-11T12:03:06Z</time>
      </trkpt>
      <trkpt lat="38.04989" lon="-8.76439">
        <ele>33.92727</ele>
        <time>2021-07-11T12:04:05Z</time>
      </trkpt>
      <trkpt lat="38.04986" lon="-8.76442">
        <ele>34.22177</ele>
        <time>2021-07-11T12:04:49Z</time>
      </trkpt>
      <trkpt lat="38.04991" lon="-8.76441">
        <ele>34.00113</ele>
        <time>2021-07-11T12:05:04Z</time>
      </trkpt>
      <trkpt lat="38.04988" lon="-8.76445">
        <ele>34.34333</ele>
        <time>2021-07-11T12:05:54Z</time>
      </trkpt>
      <trkpt lat="38.04989" lon="-8.7644">
        <ele>34.11475</ele>
        <time>2021-07-11T12:06:31Z</time>
      </trkpt>
      <trkpt lat="38.04988" lon="-8.76445">
        <ele>34.10478</ele>
        <time>2021-07-11T12:07:02Z</time>
      </trkpt>
      <trkpt lat="38.04988" lon="-8.76442">
        <ele>34.52599</ele>
        <time>2021-07-11T12:08:00Z</time>
      </trkpt>
      <trkpt lat="38.04987" lon="-8.76447">
        <ele>32.99166</ele>
        <time>2021-07-11T12:08:30Z</time>
      </trkpt>
      <trkpt lat="38.04982" lon="-8.76446">
        <ele>34.43829</ele>
        <time>2021-07-11T12:08:55Z</time>
      </trkpt>
      <trkpt lat="38.04986" lon="-8.76447">
        <ele>34.17641</ele>
        <time>2021-07-11T12:09:07Z</time>
      </trkpt>
      <trkpt lat="38.04989" lon="-8.76443">
        <ele>33.48091</ele>
        <time>2021-07-11T12:09:35Z</time>
      </trkpt>
      <trkpt lat="38.0499" lon="-8.76441">
        <ele>34.58805</ele>
        <time>2021-07-11T12:10:34Z</time>
      </trkpt>
      <trkpt lat="38.04989" lon="-8.76442">
        <ele>34.46864</ele>
        <time>2021-07-11T12:11:33Z</time>
      </trkpt>
      <trkpt lat="38.04993" lon="-8.76439">
        <ele>34.75219</ele>
        <time>2021-07-11T12:11:56Z</time>
      </trkpt>
      <trkpt lat="38.05004" lon="-8.76415">
        <ele>31.20029</ele>
        <time>2021-07-11T12:12:07Z</time>
      </trkpt>
      <trkpt lat="38.05014" lon="-8.76389">
        <ele>32.09896</ele>
        <time>2021-07-11T12:12:18Z</time>
      </trkpt>
      <trkpt lat="38.05023" lon="-8.76363">
        <ele>31.32602</ele>
        <time>2021-07-11T12:12:29Z</time>
      </trkpt>
      <trkpt lat="38.05035" lon="-8.76332">
        <ele>29.5779</ele>
        <time>2021-07-11T12:12:40Z</time>
      </trkpt>
      <trkpt lat="38.05047" lon="-8.76305">
        <ele>30.75112</ele>
        <time>2021-07-11T12:12:51Z</time>
      </trkpt>
      <trkpt lat="38.05058" lon="-8.76283">
        <ele>30.14682</ele>
        <time>2021-07-11T12:13:02Z</time>
      </trkpt>
      <trkpt lat="38.05075" lon="-8.76265">
        <ele>29.12163</ele>
        <time>2021-07-11T12:13:13Z</time>
      </trkpt>
      <trkpt lat="38.05093" lon="-8.76243">
        <ele>29.83168</ele>
        <time>2021-07-11T12:13:24Z</time>
      </trkpt>
      <trkpt lat="38.0511" lon="-8.76213">
        <ele>31.69124</ele>
        <time>2021-07-11T12:13:35Z</time>
      </trkpt>
      <trkpt lat="38.0512" lon="-8.762">
        <ele>31.44277</ele>
        <time>2021-07-11T12:13:46Z</time>
      </trkpt>
      <trkpt lat="38.05123" lon="-8.76199">
        <ele>31.4616</ele>
        <time>2021-07-11T12:13:58Z</time>
      </trkpt>
      <trkpt lat="38.05128" lon="-8.76194">
        <ele>31.5646</ele>
        <time>2021-07-11T12:14:13Z</time>
      </trkpt>
      <trkpt lat="38.05137" lon="-8.76175">
        <ele>30.69703</ele>
        <time>2021-07-11T12:14:24Z</time>
      </trkpt>
      <trkpt lat="38.05146" lon="-8.76145">
        <ele>28.20836</ele>
        <time>2021-07-11T12:14:35Z</time>
      </trkpt>
      <trkpt lat="38.05151" lon="-8.76121">
        <ele>28.18247</ele>
        <time>2021-07-11T12:14:46Z</time>
      </trkpt>
      <trkpt lat="38.05157" lon="-8.76095">
        <ele>27.09025</ele>
        <time>2021-07-11T12:14:57Z</time>
      </trkpt>
      <trkpt lat="38.0516" lon="-8.76088">
        <ele>26.56592</ele>
        <time>2021-07-11T12:15:08Z</time>
      </trkpt>
      <trkpt lat="38.05171" lon="-8.7607">
        <ele>26.5512</ele>
        <time>2021-07-11T12:15:19Z</time>
      </trkpt>
      <trkpt lat="38.05167" lon="-8.7607">
        <ele>26.64881</ele>
        <time>2021-07-11T12:16:33Z</time>
      </trkpt>
      <trkpt lat="38.05164" lon="-8.76074">
        <ele>26.7583</ele>
        <time>2021-07-11T12:16:53Z</time>
      </trkpt>
      <trkpt lat="38.05161" lon="-8.76077">
        <ele>26.70433</ele>
        <time>2021-07-11T12:17:12Z</time>
      </trkpt>
      <trkpt lat="38.05161" lon="-8.76071">
        <ele>26.64282</ele>
        <time>2021-07-11T12:17:24Z</time>
      </trkpt>
      <trkpt lat="38.05166" lon="-8.7607">
        <ele>27.34984</ele>
        <time>2021-07-11T12:17:35Z</time>
      </trkpt>
      <trkpt lat="38.05164" lon="-8.76069">
        <ele>27.16934</ele>
        <time>2021-07-11T12:18:33Z</time>
      </trkpt>
      <trkpt lat="38.05167" lon="-8.76073">
        <ele>27.0266</ele>
        <time>2021-07-11T12:18:48Z</time>
      </trkpt>
      <trkpt lat="38.05165" lon="-8.76068">
        <ele>26.79241</ele>
        <time>2021-07-11T12:19:14Z</time>
      </trkpt>
      <trkpt lat="38.05166" lon="-8.76069">
        <ele>26.00364</ele>
        <time>2021-07-11T12:20:13Z</time>
      </trkpt>
      <trkpt lat="38.05165" lon="-8.76068">
        <ele>26.60689</ele>
        <time>2021-07-11T12:21:12Z</time>
      </trkpt>
      <trkpt lat="38.05168" lon="-8.76066">
        <ele>26.15955</ele>
        <time>2021-07-11T12:21:46Z</time>
      </trkpt>
      <trkpt lat="38.05165" lon="-8.76067">
        <ele>26.79009</ele>
        <time>2021-07-11T12:22:28Z</time>
      </trkpt>
      <trkpt lat="38.05167" lon="-8.76068">
        <ele>26.50558</ele>
        <time>2021-07-11T12:23:27Z</time>
      </trkpt>
      <trkpt lat="38.05167" lon="-8.76069">
        <ele>26.97348</ele>
        <time>2021-07-11T12:24:25Z</time>
      </trkpt>
      <trkpt lat="38.05169" lon="-8.76072">
        <ele>26.34289</ele>
        <time>2021-07-11T12:25:24Z</time>
      </trkpt>
      <trkpt lat="38.05165" lon="-8.76073">
        <ele>26.42578</ele>
        <time>2021-07-11T12:25:53Z</time>
      </trkpt>
      <trkpt lat="38.05167" lon="-8.76071">
        <ele>26.63364</ele>
        <time>2021-07-11T12:26:52Z</time>
      </trkpt>
      <trkpt lat="38.05166" lon="-8.76071">
        <ele>26.92081</ele>
        <time>2021-07-11T12:27:51Z</time>
      </trkpt>
      <trkpt lat="38.05165" lon="-8.76071">
        <ele>26.98772</ele>
        <time>2021-07-11T12:28:51Z</time>
      </trkpt>
      <trkpt lat="38.05166" lon="-8.76071">
        <ele>27.5187</ele>
        <time>2021-07-11T12:29:50Z</time>
      </trkpt>
      <trkpt lat="38.05166" lon="-8.7607">
        <ele>26.80638</ele>
        <time>2021-07-11T12:30:49Z</time>
      </trkpt>
      <trkpt lat="38.05164" lon="-8.76066">
        <ele>26.55478</ele>
        <time>2021-07-11T12:31:28Z</time>
      </trkpt>
      <trkpt lat="38.05167" lon="-8.76068">
        <ele>24.88422</ele>
        <time>2021-07-11T12:31:48Z</time>
      </trkpt>
      <trkpt lat="38.05168" lon="-8.76069">
        <ele>26.88106</ele>
        <time>2021-07-11T12:32:48Z</time>
      </trkpt>
      <trkpt lat="38.05167" lon="-8.76072">
        <ele>26.24989</ele>
        <time>2021-07-11T12:33:48Z</time>
      </trkpt>
      <trkpt lat="38.05168" lon="-8.76067">
        <ele>26.21306</ele>
        <time>2021-07-11T12:34:28Z</time>
      </trkpt>
      <trkpt lat="38.05167" lon="-8.76072">
        <ele>26.76754</ele>
        <time>2021-07-11T12:35:28Z</time>
      </trkpt>
      <trkpt lat="38.0517" lon="-8.76071">
        <ele>26.52512</ele>
        <time>2021-07-11T12:36:12Z</time>
      </trkpt>
      <trkpt lat="38.05166" lon="-8.76071">
        <ele>27.05516</ele>
        <time>2021-07-11T12:37:03Z</time>
      </trkpt>
      <trkpt lat="38.05167" lon="-8.7607">
        <ele>26.64127</ele>
        <time>2021-07-11T12:38:02Z</time>
      </trkpt>
      <trkpt lat="38.05166" lon="-8.76067">
        <ele>26.38437</ele>
        <time>2021-07-11T12:39:01Z</time>
      </trkpt>
      <trkpt lat="38.05168" lon="-8.76068">
        <ele>26.2014</ele>
        <time>2021-07-11T12:40:01Z</time>
      </trkpt>
      <trkpt lat="38.05166" lon="-8.76067">
        <ele>26.18808</ele>
        <time>2021-07-11T12:41:00Z</time>
      </trkpt>
      <trkpt lat="38.0517" lon="-8.76068">
        <ele>26.90635</ele>
        <time>2021-07-11T12:41:32Z</time>
      </trkpt>
      <trkpt lat="38.05169" lon="-8.76063">
        <ele>26.56534</ele>
        <time>2021-07-11T12:41:57Z</time>
      </trkpt>
      <trkpt lat="38.05168" lon="-8.76064">
        <ele>26.43073</ele>
        <time>2021-07-11T12:42:56Z</time>
      </trkpt>
      <trkpt lat="38.05166" lon="-8.76068">
        <ele>26.61435</ele>
        <time>2021-07-11T12:43:35Z</time>
      </trkpt>
      <trkpt lat="38.05166" lon="-8.76062">
        <ele>26.74914</ele>
        <time>2021-07-11T12:44:10Z</time>
      </trkpt>
      <trkpt lat="38.05168" lon="-8.76063">
        <ele>25.72955</ele>
        <time>2021-07-11T12:45:10Z</time>
      </trkpt>
      <trkpt lat="38.05168" lon="-8.76063">
        <ele>25.72955</ele>
        <time>2021-07-11T12:46:10Z</time>
      </trkpt>
      <trkpt lat="38.05168" lon="-8.76063">
        <ele>25.72955</ele>
        <time>2021-07-11T12:47:10Z</time>
      </trkpt>
      <trkpt lat="38.05168" lon="-8.76063">
        <ele>25.72955</ele>
        <time>2021-07-11T12:48:10Z</time>
      </trkpt>
      <trkpt lat="38.05168" lon="-8.76063">
        <ele>25.72955</ele>
        <time>2021-07-11T12:49:09Z</time>
      </trkpt>
      <trkpt lat="38.05165" lon="-8.76066">
        <ele>26.08739</ele>
        <time>2021-07-11T12:50:06Z</time>
      </trkpt>
      <trkpt lat="38.05165" lon="-8.76067">
        <ele>25.95004</ele>
        <time>2021-07-11T12:51:05Z</time>
      </trkpt>
      <trkpt lat="38.05165" lon="-8.76068">
        <ele>26.48107</ele>
        <time>2021-07-11T12:52:04Z</time>
      </trkpt>
      <trkpt lat="38.05166" lon="-8.76067">
        <ele>26.50117</ele>
        <time>2021-07-11T12:53:03Z</time>
      </trkpt>
      <trkpt lat="38.05166" lon="-8.76068">
        <ele>26.07096</ele>
        <time>2021-07-11T12:54:02Z</time>
      </trkpt>
      <trkpt lat="38.05164" lon="-8.76069">
        <ele>25.76768</ele>
        <time>2021-07-11T12:55:01Z</time>
      </trkpt>
      <trkpt lat="38.05165" lon="-8.76068">
        <ele>26.71255</ele>
        <time>2021-07-11T12:56:00Z</time>
      </trkpt>
      <trkpt lat="38.05166" lon="-8.76068">
        <ele>26.87279</ele>
        <time>2021-07-11T12:57:00Z</time>
      </trkpt>
      <trkpt lat="38.05167" lon="-8.76066">
        <ele>26.74109</ele>
        <time>2021-07-11T12:57:59Z</time>
      </trkpt>
      <trkpt lat="38.05167" lon="-8.76066">
        <ele>26.74109</ele>
        <time>2021-07-11T12:58:59Z</time>
      </trkpt>
      <trkpt lat="38.05167" lon="-8.76066">
        <ele>26.74109</ele>
        <time>2021-07-11T12:59:58Z</time>
      </trkpt>
      <trkpt lat="38.05167" lon="-8.76066">
        <ele>26.74109</ele>
        <time>2021-07-11T13:00:57Z</time>
      </trkpt>
      <trkpt lat="38.05171" lon="-8.76066">
        <ele>26.46657</ele>
        <time>2021-07-11T13:01:37Z</time>
      </trkpt>
      <trkpt lat="38.0517" lon="-8.76065">
        <ele>26.48859</ele>
        <time>2021-07-11T13:02:36Z</time>
      </trkpt>
      <trkpt lat="38.0517" lon="-8.76065">
        <ele>26.48859</ele>
        <time>2021-07-11T13:03:35Z</time>
      </trkpt>
      <trkpt lat="38.0517" lon="-8.76065">
        <ele>26.48859</ele>
        <time>2021-07-11T13:04:34Z</time>
      </trkpt>
      <trkpt lat="38.0517" lon="-8.76065">
        <ele>26.48859</ele>
        <time>2021-07-11T13:05:33Z</time>
      </trkpt>
      <trkpt lat="38.0517" lon="-8.76065">
        <ele>26.48859</ele>
        <time>2021-07-11T13:06:32Z</time>
      </trkpt>
      <trkpt lat="38.0517" lon="-8.76065">
        <ele>26.48859</ele>
        <time>2021-07-11T13:07:31Z</time>
      </trkpt>
      <trkpt lat="38.0517" lon="-8.76065">
        <ele>26.48859</ele>
        <time>2021-07-11T13:08:30Z</time>
      </trkpt>
      <trkpt lat="38.0517" lon="-8.76065">
        <ele>26.48859</ele>
        <time>2021-07-11T13:09:30Z</time>
      </trkpt>
      <trkpt lat="38.05167" lon="-8.76067">
        <ele>26.7781</ele>
        <time>2021-07-11T13:10:29Z</time>
      </trkpt>
      <trkpt lat="38.05167" lon="-8.76067">
        <ele>26.7781</ele>
        <time>2021-07-11T13:11:28Z</time>
      </trkpt>
      <trkpt lat="38.05167" lon="-8.76068">
        <ele>27.28176</ele>
        <time>2021-07-11T13:12:27Z</time>
      </trkpt>
      <trkpt lat="38.05167" lon="-8.76068">
        <ele>27.28176</ele>
        <time>2021-07-11T13:13:26Z</time>
      </trkpt>
      <trkpt lat="38.0517" lon="-8.76067">
        <ele>26.06676</ele>
        <time>2021-07-11T13:13:57Z</time>
      </trkpt>
      <trkpt lat="38.05174" lon="-8.76068">
        <ele>26.24804</ele>
        <time>2021-07-11T13:14:08Z</time>
      </trkpt>
      <trkpt lat="38.05172" lon="-8.7607">
        <ele>26.42363</ele>
        <time>2021-07-11T13:15:07Z</time>
      </trkpt>
      <trkpt lat="38.05172" lon="-8.7607">
        <ele>26.42363</ele>
        <time>2021-07-11T13:16:06Z</time>
      </trkpt>
      <trkpt lat="38.05171" lon="-8.7607">
        <ele>26.48987</ele>
        <time>2021-07-11T13:17:05Z</time>
      </trkpt>
      <trkpt lat="38.05177" lon="-8.76067">
        <ele>26.92898</ele>
        <time>2021-07-11T13:17:16Z</time>
      </trkpt>
      <trkpt lat="38.05225" lon="-8.75948">
        <ele>22.81108</ele>
        <time>2021-07-11T13:17:27Z</time>
      </trkpt>
      <trkpt lat="38.0526" lon="-8.75785">
        <ele>29.01986</ele>
        <time>2021-07-11T13:17:38Z</time>
      </trkpt>
      <trkpt lat="38.05287" lon="-8.75607">
        <ele>36.43353</ele>
        <time>2021-07-11T13:17:49Z</time>
      </trkpt>
      <trkpt lat="38.05307" lon="-8.75476">
        <ele>45.19451</ele>
        <time>2021-07-11T13:18:00Z</time>
      </trkpt>
      <trkpt lat="38.05311" lon="-8.75458">
        <ele>46.39744</ele>
        <time>2021-07-11T13:18:11Z</time>
      </trkpt>
      <trkpt lat="38.05313" lon="-8.75432">
        <ele>48.04102</ele>
        <time>2021-07-11T13:18:22Z</time>
      </trkpt>
      <trkpt lat="38.0532" lon="-8.75362">
        <ele>51.71075</ele>
        <time>2021-07-11T13:18:33Z</time>
      </trkpt>
      <trkpt lat="38.05268" lon="-8.75338">
        <ele>53.52125</ele>
        <time>2021-07-11T13:18:44Z</time>
      </trkpt>
      <trkpt lat="38.0531" lon="-8.75226">
        <ele>61.28771</ele>
        <time>2021-07-11T13:18:55Z</time>
      </trkpt>
      <trkpt lat="38.05327" lon="-8.75164">
        <ele>62.01612</ele>
        <time>2021-07-11T13:19:06Z</time>
      </trkpt>
      <trkpt lat="38.05365" lon="-8.75174">
        <ele>61.53708</ele>
        <time>2021-07-11T13:19:17Z</time>
      </trkpt>
      <trkpt lat="38.0547" lon="-8.75295">
        <ele>53.21199</ele>
        <time>2021-07-11T13:19:28Z</time>
      </trkpt>
      <trkpt lat="38.05622" lon="-8.75386">
        <ele>42.81593</ele>
        <time>2021-07-11T13:19:39Z</time>
      </trkpt>
      <trkpt lat="38.05792" lon="-8.75477">
        <ele>31.38687</ele>
        <time>2021-07-11T13:19:50Z</time>
      </trkpt>
      <trkpt lat="38.05938" lon="-8.75575">
        <ele>29.81776</ele>
        <time>2021-07-11T13:20:01Z</time>
      </trkpt>
      <trkpt lat="38.06082" lon="-8.75722">
        <ele>28.28761</ele>
        <time>2021-07-11T13:20:12Z</time>
      </trkpt>
      <trkpt lat="38.0623" lon="-8.75853">
        <ele>28.92987</ele>
        <time>2021-07-11T13:20:23Z</time>
      </trkpt>
      <trkpt lat="38.06313" lon="-8.76009">
        <ele>27.01633</ele>
        <time>2021-07-11T13:20:34Z</time>
      </trkpt>
      <trkpt lat="38.06365" lon="-8.76199">
        <ele>28.92028</ele>
        <time>2021-07-11T13:20:45Z</time>
      </trkpt>
      <trkpt lat="38.06477" lon="-8.76343">
        <ele>27.43846</ele>
        <time>2021-07-11T13:20:56Z</time>
      </trkpt>
      <trkpt lat="38.06564" lon="-8.76491">
        <ele>25.7658</ele>
        <time>2021-07-11T13:21:07Z</time>
      </trkpt>
      <trkpt lat="38.06587" lon="-8.76661">
        <ele>24.21547</ele>
        <time>2021-07-11T13:21:18Z</time>
      </trkpt>
      <trkpt lat="38.06624" lon="-8.76837">
        <ele>18.79142</ele>
        <time>2021-07-11T13:21:29Z</time>
      </trkpt>
      <trkpt lat="38.06671" lon="-8.7701">
        <ele>14.74755</ele>
        <time>2021-07-11T13:21:40Z</time>
      </trkpt>
      <trkpt lat="38.06649" lon="-8.77182">
        <ele>13.00866</ele>
        <time>2021-07-11T13:21:51Z</time>
      </trkpt>
      <trkpt lat="38.06625" lon="-8.77358">
        <ele>12.31946</ele>
        <time>2021-07-11T13:22:02Z</time>
      </trkpt>
      <trkpt lat="38.06605" lon="-8.77513">
        <ele>16.42206</ele>
        <time>2021-07-11T13:22:13Z</time>
      </trkpt>
      <trkpt lat="38.06605" lon="-8.77555">
        <ele>17.01382</ele>
        <time>2021-07-11T13:22:24Z</time>
      </trkpt>
      <trkpt lat="38.066" lon="-8.77659">
        <ele>22.04463</ele>
        <time>2021-07-11T13:22:35Z</time>
      </trkpt>
      <trkpt lat="38.06633" lon="-8.77815">
        <ele>25.48476</ele>
        <time>2021-07-11T13:22:46Z</time>
      </trkpt>
      <trkpt lat="38.06658" lon="-8.77927">
        <ele>25.58456</ele>
        <time>2021-07-11T13:22:57Z</time>
      </trkpt>
      <trkpt lat="38.06694" lon="-8.78094">
        <ele>26.51914</ele>
        <time>2021-07-11T13:23:08Z</time>
      </trkpt>
      <trkpt lat="38.06731" lon="-8.78268">
        <ele>20.5345</ele>
        <time>2021-07-11T13:23:19Z</time>
      </trkpt>
      <trkpt lat="38.06845" lon="-8.78303">
        <ele>14.97261</ele>
        <time>2021-07-11T13:23:30Z</time>
      </trkpt>
      <trkpt lat="38.06933" lon="-8.78301">
        <ele>12.08639</ele>
        <time>2021-07-11T13:23:41Z</time>
      </trkpt>
      <trkpt lat="38.06926" lon="-8.78353">
        <ele>11.37827</ele>
        <time>2021-07-11T13:23:52Z</time>
      </trkpt>
      <trkpt lat="38.0677" lon="-8.78403">
        <ele>12.35521</ele>
        <time>2021-07-11T13:24:03Z</time>
      </trkpt>
      <trkpt lat="38.06632" lon="-8.78483">
        <ele>15.29572</ele>
        <time>2021-07-11T13:24:14Z</time>
      </trkpt>
      <trkpt lat="38.0651" lon="-8.78564">
        <ele>17.38321</ele>
        <time>2021-07-11T13:24:25Z</time>
      </trkpt>
      <trkpt lat="38.06381" lon="-8.78652">
        <ele>20.17556</ele>
        <time>2021-07-11T13:24:36Z</time>
      </trkpt>
      <trkpt lat="38.06245" lon="-8.78746">
        <ele>23.39628</ele>
        <time>2021-07-11T13:24:47Z</time>
      </trkpt>
      <trkpt lat="38.06093" lon="-8.78849">
        <ele>25.98233</ele>
        <time>2021-07-11T13:24:58Z</time>
      </trkpt>
      <trkpt lat="38.05927" lon="-8.78938">
        <ele>29.31631</ele>
        <time>2021-07-11T13:25:09Z</time>
      </trkpt>
      <trkpt lat="38.05744" lon="-8.78986">
        <ele>30.86529</ele>
        <time>2021-07-11T13:25:20Z</time>
      </trkpt>
      <trkpt lat="38.05543" lon="-8.79006">
        <ele>32.88809</ele>
        <time>2021-07-11T13:25:31Z</time>
      </trkpt>
      <trkpt lat="38.0534" lon="-8.79059">
        <ele>32.05974</ele>
        <time>2021-07-11T13:25:42Z</time>
      </trkpt>
      <trkpt lat="38.05145" lon="-8.7916">
        <ele>30.78653</ele>
        <time>2021-07-11T13:25:53Z</time>
      </trkpt>
      <trkpt lat="38.04928" lon="-8.7928">
        <ele>28.57956</ele>
        <time>2021-07-11T13:26:04Z</time>
      </trkpt>
      <trkpt lat="38.04716" lon="-8.79397">
        <ele>29.51448</ele>
        <time>2021-07-11T13:26:15Z</time>
      </trkpt>
      <trkpt lat="38.0451" lon="-8.79526">
        <ele>31.15076</ele>
        <time>2021-07-11T13:26:26Z</time>
      </trkpt>
      <trkpt lat="38.0431" lon="-8.7968">
        <ele>32.9762</ele>
        <time>2021-07-11T13:26:37Z</time>
      </trkpt>
      <trkpt lat="38.04116" lon="-8.79858">
        <ele>33.86797</ele>
        <time>2021-07-11T13:26:48Z</time>
      </trkpt>
      <trkpt lat="38.03926" lon="-8.80039">
        <ele>34.24395</ele>
        <time>2021-07-11T13:26:59Z</time>
      </trkpt>
      <trkpt lat="38.03738" lon="-8.80215">
        <ele>31.48109</ele>
        <time>2021-07-11T13:27:10Z</time>
      </trkpt>
      <trkpt lat="38.03545" lon="-8.80399">
        <ele>32.18424</ele>
        <time>2021-07-11T13:27:21Z</time>
      </trkpt>
      <trkpt lat="38.03346" lon="-8.80588">
        <ele>31.82973</ele>
        <time>2021-07-11T13:27:32Z</time>
      </trkpt>
      <trkpt lat="38.0314" lon="-8.80775">
        <ele>32.04409</ele>
        <time>2021-07-11T13:27:43Z</time>
      </trkpt>
      <trkpt lat="38.02927" lon="-8.80935">
        <ele>30.83059</ele>
        <time>2021-07-11T13:27:54Z</time>
      </trkpt>
      <trkpt lat="38.02717" lon="-8.81091">
        <ele>30.32387</ele>
        <time>2021-07-11T13:28:05Z</time>
      </trkpt>
      <trkpt lat="38.02516" lon="-8.81271">
        <ele>28.30654</ele>
        <time>2021-07-11T13:28:16Z</time>
      </trkpt>
      <trkpt lat="38.02331" lon="-8.81436">
        <ele>25.44963</ele>
        <time>2021-07-11T13:28:27Z</time>
      </trkpt>
      <trkpt lat="38.02118" lon="-8.81586">
        <ele>22.51104</ele>
        <time>2021-07-11T13:28:38Z</time>
      </trkpt>
      <trkpt lat="38.01872" lon="-8.81718">
        <ele>19.69251</ele>
        <time>2021-07-11T13:28:49Z</time>
      </trkpt>
      <trkpt lat="38.01651" lon="-8.81843">
        <ele>15.72605</ele>
        <time>2021-07-11T13:29:00Z</time>
      </trkpt>
      <trkpt lat="38.01446" lon="-8.81999">
        <ele>14.55532</ele>
        <time>2021-07-11T13:29:11Z</time>
      </trkpt>
      <trkpt lat="38.01245" lon="-8.82175">
        <ele>14.35915</ele>
        <time>2021-07-11T13:29:22Z</time>
      </trkpt>
      <trkpt lat="38.01045" lon="-8.82347">
        <ele>13.92653</ele>
        <time>2021-07-11T13:29:33Z</time>
      </trkpt>
      <trkpt lat="38.00837" lon="-8.82499">
        <ele>16.64229</ele>
        <time>2021-07-11T13:29:44Z</time>
      </trkpt>
      <trkpt lat="38.00629" lon="-8.82644">
        <ele>18.83579</ele>
        <time>2021-07-11T13:29:55Z</time>
      </trkpt>
      <trkpt lat="38.00419" lon="-8.8279">
        <ele>22.12402</ele>
        <time>2021-07-11T13:30:06Z</time>
      </trkpt>
      <trkpt lat="38.00209" lon="-8.82936">
        <ele>24.85825</ele>
        <time>2021-07-11T13:30:17Z</time>
      </trkpt>
      <trkpt lat="37.99996" lon="-8.83086">
        <ele>26.32184</ele>
        <time>2021-07-11T13:30:28Z</time>
      </trkpt>
      <trkpt lat="37.99781" lon="-8.83219">
        <ele>26.02766</ele>
        <time>2021-07-11T13:30:39Z</time>
      </trkpt>
      <trkpt lat="37.99554" lon="-8.83318">
        <ele>26.50847</ele>
        <time>2021-07-11T13:30:50Z</time>
      </trkpt>
      <trkpt lat="37.9932" lon="-8.83382">
        <ele>27.53898</ele>
        <time>2021-07-11T13:31:01Z</time>
      </trkpt>
      <trkpt lat="37.99085" lon="-8.83422">
        <ele>29.60875</ele>
        <time>2021-07-11T13:31:12Z</time>
      </trkpt>
      <trkpt lat="37.98844" lon="-8.83463">
        <ele>31.21297</ele>
        <time>2021-07-11T13:31:23Z</time>
      </trkpt>
      <trkpt lat="37.986" lon="-8.8349">
        <ele>30.36893</ele>
        <time>2021-07-11T13:31:34Z</time>
      </trkpt>
      <trkpt lat="37.98355" lon="-8.83485">
        <ele>29.2091</ele>
        <time>2021-07-11T13:31:45Z</time>
      </trkpt>
      <trkpt lat="37.9811" lon="-8.83438">
        <ele>25.18083</ele>
        <time>2021-07-11T13:31:56Z</time>
      </trkpt>
      <trkpt lat="37.97876" lon="-8.83348">
        <ele>20.4034</ele>
        <time>2021-07-11T13:32:07Z</time>
      </trkpt>
      <trkpt lat="37.97645" lon="-8.83243">
        <ele>13.77035</ele>
        <time>2021-07-11T13:32:18Z</time>
      </trkpt>
      <trkpt lat="37.97408" lon="-8.83184">
        <ele>13.32734</ele>
        <time>2021-07-11T13:32:29Z</time>
      </trkpt>
      <trkpt lat="37.97192" lon="-8.83176">
        <ele>20.96154</ele>
        <time>2021-07-11T13:32:40Z</time>
      </trkpt>
      <trkpt lat="37.96992" lon="-8.83206">
        <ele>26.74326</ele>
        <time>2021-07-11T13:32:51Z</time>
      </trkpt>
      <trkpt lat="37.9684" lon="-8.83295">
        <ele>30.94927</ele>
        <time>2021-07-11T13:33:02Z</time>
      </trkpt>
      <trkpt lat="37.96707" lon="-8.83145">
        <ele>30.76887</ele>
        <time>2021-07-11T13:33:13Z</time>
      </trkpt>
      <trkpt lat="37.96514" lon="-8.83022">
        <ele>36.75343</ele>
        <time>2021-07-11T13:33:24Z</time>
      </trkpt>
      <trkpt lat="37.96327" lon="-8.82837">
        <ele>46.63189</ele>
        <time>2021-07-11T13:33:35Z</time>
      </trkpt>
      <trkpt lat="37.9611" lon="-8.82648">
        <ele>48.78132</ele>
        <time>2021-07-11T13:33:46Z</time>
      </trkpt>
      <trkpt lat="37.95891" lon="-8.82513">
        <ele>48.57599</ele>
        <time>2021-07-11T13:33:57Z</time>
      </trkpt>
      <trkpt lat="37.95666" lon="-8.82405">
        <ele>46.47765</ele>
        <time>2021-07-11T13:34:08Z</time>
      </trkpt>
      <trkpt lat="37.95451" lon="-8.8231">
        <ele>43.26067</ele>
        <time>2021-07-11T13:34:19Z</time>
      </trkpt>
      <trkpt lat="37.95287" lon="-8.82294">
        <ele>43.69985</ele>
        <time>2021-07-11T13:34:30Z</time>
      </trkpt>
      <trkpt lat="37.95091" lon="-8.82284">
        <ele>40.48227</ele>
        <time>2021-07-11T13:34:41Z</time>
      </trkpt>
      <trkpt lat="37.94857" lon="-8.82367">
        <ele>38.07972</ele>
        <time>2021-07-11T13:34:52Z</time>
      </trkpt>
      <trkpt lat="37.94643" lon="-8.82523">
        <ele>35.41029</ele>
        <time>2021-07-11T13:35:03Z</time>
      </trkpt>
      <trkpt lat="37.94442" lon="-8.82691">
        <ele>34.29263</ele>
        <time>2021-07-11T13:35:14Z</time>
      </trkpt>
      <trkpt lat="37.94229" lon="-8.82874">
        <ele>29.87925</ele>
        <time>2021-07-11T13:35:25Z</time>
      </trkpt>
      <trkpt lat="37.94072" lon="-8.83026">
        <ele>22.59226</ele>
        <time>2021-07-11T13:35:36Z</time>
      </trkpt>
      <trkpt lat="37.93987" lon="-8.83148">
        <ele>25.55335</ele>
        <time>2021-07-11T13:35:47Z</time>
      </trkpt>
      <trkpt lat="37.93889" lon="-8.83028">
        <ele>23.08927</ele>
        <time>2021-07-11T13:35:58Z</time>
      </trkpt>
      <trkpt lat="37.93826" lon="-8.82776">
        <ele>22.10549</ele>
        <time>2021-07-11T13:36:09Z</time>
      </trkpt>
      <trkpt lat="37.93719" lon="-8.8252">
        <ele>18.15618</ele>
        <time>2021-07-11T13:36:20Z</time>
      </trkpt>
      <trkpt lat="37.93613" lon="-8.82266">
        <ele>13.43219</ele>
        <time>2021-07-11T13:36:31Z</time>
      </trkpt>
      <trkpt lat="37.93507" lon="-8.82011">
        <ele>11.66327</ele>
        <time>2021-07-11T13:36:42Z</time>
      </trkpt>
      <trkpt lat="37.93409" lon="-8.81777">
        <ele>13.01786</ele>
        <time>2021-07-11T13:36:53Z</time>
      </trkpt>
      <trkpt lat="37.93303" lon="-8.81522">
        <ele>12.34864</ele>
        <time>2021-07-11T13:37:04Z</time>
      </trkpt>
      <trkpt lat="37.9319" lon="-8.81253">
        <ele>12.65868</ele>
        <time>2021-07-11T13:37:15Z</time>
      </trkpt>
      <trkpt lat="37.93098" lon="-8.81032">
        <ele>12.233</ele>
        <time>2021-07-11T13:37:26Z</time>
      </trkpt>
      <trkpt lat="37.93017" lon="-8.80845">
        <ele>13.69842</ele>
        <time>2021-07-11T13:37:37Z</time>
      </trkpt>
      <trkpt lat="37.92886" lon="-8.8074">
        <ele>11.55053</ele>
        <time>2021-07-11T13:37:48Z</time>
      </trkpt>
      <trkpt lat="37.92749" lon="-8.80682">
        <ele>8.174557</ele>
        <time>2021-07-11T13:37:59Z</time>
      </trkpt>
      <trkpt lat="37.92601" lon="-8.80667">
        <ele>6.114494</ele>
        <time>2021-07-11T13:38:10Z</time>
      </trkpt>
      <trkpt lat="37.9247" lon="-8.80583">
        <ele>8.159897</ele>
        <time>2021-07-11T13:38:21Z</time>
      </trkpt>
      <trkpt lat="37.92329" lon="-8.80487">
        <ele>6.846812</ele>
        <time>2021-07-11T13:38:32Z</time>
      </trkpt>
      <trkpt lat="37.92173" lon="-8.8045">
        <ele>7.187977</ele>
        <time>2021-07-11T13:38:43Z</time>
      </trkpt>
      <trkpt lat="37.92053" lon="-8.80434">
        <ele>11.1219</ele>
        <time>2021-07-11T13:38:54Z</time>
      </trkpt>
      <trkpt lat="37.91914" lon="-8.80384">
        <ele>10.89751</ele>
        <time>2021-07-11T13:39:05Z</time>
      </trkpt>
      <trkpt lat="37.91863" lon="-8.80366">
        <ele>9.306522</ele>
        <time>2021-07-11T13:39:16Z</time>
      </trkpt>
      <trkpt lat="37.91866" lon="-8.80364">
        <ele>7.388736</ele>
        <time>2021-07-11T13:39:45Z</time>
      </trkpt>
      <trkpt lat="37.9186" lon="-8.80361">
        <ele>5.549687</ele>
        <time>2021-07-11T13:40:28Z</time>
      </trkpt>
      <trkpt lat="37.91757" lon="-8.80327">
        <ele>11.66134</ele>
        <time>2021-07-11T13:40:39Z</time>
      </trkpt>
      <trkpt lat="37.91664" lon="-8.80293">
        <ele>11.04177</ele>
        <time>2021-07-11T13:40:50Z</time>
      </trkpt>
      <trkpt lat="37.91574" lon="-8.8026">
        <ele>11.03866</ele>
        <time>2021-07-11T13:41:01Z</time>
      </trkpt>
      <trkpt lat="37.91475" lon="-8.80204">
        <ele>10.91526</ele>
        <time>2021-07-11T13:41:12Z</time>
      </trkpt>
      <trkpt lat="37.91349" lon="-8.80193">
        <ele>11.82164</ele>
        <time>2021-07-11T13:41:23Z</time>
      </trkpt>
      <trkpt lat="37.91222" lon="-8.80185">
        <ele>13.4258</ele>
        <time>2021-07-11T13:41:34Z</time>
      </trkpt>
      <trkpt lat="37.91103" lon="-8.8008">
        <ele>13.29461</ele>
        <time>2021-07-11T13:41:45Z</time>
      </trkpt>
      <trkpt lat="37.91004" lon="-8.7997">
        <ele>11.80788</ele>
        <time>2021-07-11T13:41:56Z</time>
      </trkpt>
      <trkpt lat="37.90892" lon="-8.79916">
        <ele>12.98073</ele>
        <time>2021-07-11T13:42:07Z</time>
      </trkpt>
      <trkpt lat="37.90808" lon="-8.79871">
        <ele>12.45115</ele>
        <time>2021-07-11T13:42:18Z</time>
      </trkpt>
      <trkpt lat="37.9073" lon="-8.79829">
        <ele>9.446894</ele>
        <time>2021-07-11T13:42:29Z</time>
      </trkpt>
      <trkpt lat="37.90584" lon="-8.79713">
        <ele>10.21199</ele>
        <time>2021-07-11T13:42:40Z</time>
      </trkpt>
      <trkpt lat="37.90453" lon="-8.79569">
        <ele>14.00184</ele>
        <time>2021-07-11T13:42:51Z</time>
      </trkpt>
      <trkpt lat="37.90329" lon="-8.79466">
        <ele>17.19995</ele>
        <time>2021-07-11T13:43:02Z</time>
      </trkpt>
      <trkpt lat="37.90197" lon="-8.79374">
        <ele>19.54186</ele>
        <time>2021-07-11T13:43:13Z</time>
      </trkpt>
      <trkpt lat="37.90045" lon="-8.79364">
        <ele>19.29905</ele>
        <time>2021-07-11T13:43:24Z</time>
      </trkpt>
      <trkpt lat="37.89912" lon="-8.79386">
        <ele>20.22129</ele>
        <time>2021-07-11T13:43:35Z</time>
      </trkpt>
      <trkpt lat="37.89773" lon="-8.79383">
        <ele>20.39092</ele>
        <time>2021-07-11T13:43:46Z</time>
      </trkpt>
      <trkpt lat="37.89643" lon="-8.79373">
        <ele>19.34284</ele>
        <time>2021-07-11T13:43:57Z</time>
      </trkpt>
      <trkpt lat="37.89496" lon="-8.79346">
        <ele>17.40327</ele>
        <time>2021-07-11T13:44:08Z</time>
      </trkpt>
      <trkpt lat="37.89351" lon="-8.79317">
        <ele>17.93137</ele>
        <time>2021-07-11T13:44:19Z</time>
      </trkpt>
      <trkpt lat="37.89185" lon="-8.79277">
        <ele>18.37411</ele>
        <time>2021-07-11T13:44:30Z</time>
      </trkpt>
      <trkpt lat="37.89015" lon="-8.79239">
        <ele>18.7003</ele>
        <time>2021-07-11T13:44:41Z</time>
      </trkpt>
      <trkpt lat="37.88842" lon="-8.79193">
        <ele>19.35806</ele>
        <time>2021-07-11T13:44:52Z</time>
      </trkpt>
      <trkpt lat="37.88667" lon="-8.79142">
        <ele>18.35596</ele>
        <time>2021-07-11T13:45:03Z</time>
      </trkpt>
      <trkpt lat="37.8849" lon="-8.79137">
        <ele>18.42949</ele>
        <time>2021-07-11T13:45:14Z</time>
      </trkpt>
      <trkpt lat="37.88312" lon="-8.79136">
        <ele>17.38087</ele>
        <time>2021-07-11T13:45:25Z</time>
      </trkpt>
      <trkpt lat="37.88135" lon="-8.79062">
        <ele>18.6303</ele>
        <time>2021-07-11T13:45:36Z</time>
      </trkpt>
      <trkpt lat="37.87985" lon="-8.78943">
        <ele>21.04169</ele>
        <time>2021-07-11T13:45:47Z</time>
      </trkpt>
      <trkpt lat="37.87822" lon="-8.78978">
        <ele>21.676</ele>
        <time>2021-07-11T13:45:58Z</time>
      </trkpt>
      <trkpt lat="37.87656" lon="-8.79069">
        <ele>23.48151</ele>
        <time>2021-07-11T13:46:09Z</time>
      </trkpt>
      <trkpt lat="37.87474" lon="-8.79096">
        <ele>23.82487</ele>
        <time>2021-07-11T13:46:20Z</time>
      </trkpt>
      <trkpt lat="37.87298" lon="-8.791">
        <ele>23.80616</ele>
        <time>2021-07-11T13:46:31Z</time>
      </trkpt>
      <trkpt lat="37.87129" lon="-8.79139">
        <ele>21.88488</ele>
        <time>2021-07-11T13:46:42Z</time>
      </trkpt>
      <trkpt lat="37.86996" lon="-8.79185">
        <ele>24.83282</ele>
        <time>2021-07-11T13:46:53Z</time>
      </trkpt>
      <trkpt lat="37.86881" lon="-8.79215">
        <ele>23.77109</ele>
        <time>2021-07-11T13:47:04Z</time>
      </trkpt>
      <trkpt lat="37.86733" lon="-8.7922">
        <ele>21.09948</ele>
        <time>2021-07-11T13:47:16Z</time>
      </trkpt>
      <trkpt lat="37.86585" lon="-8.79223">
        <ele>22.85755</ele>
        <time>2021-07-11T13:47:27Z</time>
      </trkpt>
      <trkpt lat="37.8645" lon="-8.79257">
        <ele>22.32559</ele>
        <time>2021-07-11T13:47:38Z</time>
      </trkpt>
      <trkpt lat="37.8631" lon="-8.793">
        <ele>22.92524</ele>
        <time>2021-07-11T13:47:49Z</time>
      </trkpt>
      <trkpt lat="37.86183" lon="-8.7934">
        <ele>23.08273</ele>
        <time>2021-07-11T13:48:00Z</time>
      </trkpt>
      <trkpt lat="37.86061" lon="-8.79348">
        <ele>23.97715</ele>
        <time>2021-07-11T13:48:11Z</time>
      </trkpt>
      <trkpt lat="37.85991" lon="-8.79238">
        <ele>22.16278</ele>
        <time>2021-07-11T13:48:22Z</time>
      </trkpt>
      <trkpt lat="37.85876" lon="-8.79224">
        <ele>19.66787</ele>
        <time>2021-07-11T13:48:33Z</time>
      </trkpt>
      <trkpt lat="37.85765" lon="-8.79246">
        <ele>18.74376</ele>
        <time>2021-07-11T13:48:44Z</time>
      </trkpt>
      <trkpt lat="37.8566" lon="-8.79265">
        <ele>21.96548</ele>
        <time>2021-07-11T13:48:55Z</time>
      </trkpt>
      <trkpt lat="37.85591" lon="-8.79328">
        <ele>22.33822</ele>
        <time>2021-07-11T13:49:06Z</time>
      </trkpt>
      <trkpt lat="37.85508" lon="-8.79338">
        <ele>25.56847</ele>
        <time>2021-07-11T13:49:17Z</time>
      </trkpt>
      <trkpt lat="37.85431" lon="-8.79357">
        <ele>30.51489</ele>
        <time>2021-07-11T13:49:28Z</time>
      </trkpt>
      <trkpt lat="37.85332" lon="-8.79389">
        <ele>28.82329</ele>
        <time>2021-07-11T13:49:40Z</time>
      </trkpt>
      <trkpt lat="37.85237" lon="-8.79389">
        <ele>24.32312</ele>
        <time>2021-07-11T13:49:51Z</time>
      </trkpt>
      <trkpt lat="37.8516" lon="-8.7937">
        <ele>22.50928</ele>
        <time>2021-07-11T13:50:02Z</time>
      </trkpt>
      <trkpt lat="37.85117" lon="-8.7936">
        <ele>22.11941</ele>
        <time>2021-07-11T13:50:13Z</time>
      </trkpt>
      <trkpt lat="37.85098" lon="-8.79352">
        <ele>23.49229</ele>
        <time>2021-07-11T13:50:24Z</time>
      </trkpt>
      <trkpt lat="37.85089" lon="-8.79337">
        <ele>26.43223</ele>
        <time>2021-07-11T13:50:35Z</time>
      </trkpt>
      <trkpt lat="37.85058" lon="-8.79304">
        <ele>23.28781</ele>
        <time>2021-07-11T13:50:46Z</time>
      </trkpt>
      <trkpt lat="37.85029" lon="-8.79271">
        <ele>20.16247</ele>
        <time>2021-07-11T13:50:57Z</time>
      </trkpt>
      <trkpt lat="37.85035" lon="-8.79213">
        <ele>20.26542</ele>
        <time>2021-07-11T13:51:08Z</time>
      </trkpt>
      <trkpt lat="37.85052" lon="-8.79165">
        <ele>24.53402</ele>
        <time>2021-07-11T13:51:19Z</time>
      </trkpt>
      <trkpt lat="37.85106" lon="-8.79105">
        <ele>30.88812</ele>
        <time>2021-07-11T13:51:30Z</time>
      </trkpt>
      <trkpt lat="37.85162" lon="-8.79052">
        <ele>29.92254</ele>
        <time>2021-07-11T13:51:41Z</time>
      </trkpt>
      <trkpt lat="37.85199" lon="-8.79082">
        <ele>28.42614</ele>
        <time>2021-07-11T13:51:52Z</time>
      </trkpt>
      <trkpt lat="37.85238" lon="-8.79">
        <ele>30.83433</ele>
        <time>2021-07-11T13:52:03Z</time>
      </trkpt>
      <trkpt lat="37.85294" lon="-8.78872">
        <ele>33.64898</ele>
        <time>2021-07-11T13:52:14Z</time>
      </trkpt>
      <trkpt lat="37.85349" lon="-8.78722">
        <ele>39.90285</ele>
        <time>2021-07-11T13:52:25Z</time>
      </trkpt>
      <trkpt lat="37.85364" lon="-8.78593">
        <ele>40.78303</ele>
        <time>2021-07-11T13:52:36Z</time>
      </trkpt>
      <trkpt lat="37.8538" lon="-8.78577">
        <ele>41.2071</ele>
        <time>2021-07-11T13:52:47Z</time>
      </trkpt>
      <trkpt lat="37.8538" lon="-8.78575">
        <ele>42.86375</ele>
        <time>2021-07-11T13:53:46Z</time>
      </trkpt>
      <trkpt lat="37.8538" lon="-8.78575">
        <ele>42.86375</ele>
        <time>2021-07-11T13:54:45Z</time>
      </trkpt>
      <trkpt lat="37.85366" lon="-8.78573">
        <ele>43.77991</ele>
        <time>2021-07-11T13:55:06Z</time>
      </trkpt>
      <trkpt lat="37.8538" lon="-8.78576">
        <ele>43.77991</ele>
        <time>2021-07-11T13:55:29Z</time>
      </trkpt>
      <trkpt lat="37.85379" lon="-8.78576">
        <ele>43.20548</ele>
        <time>2021-07-11T13:56:28Z</time>
      </trkpt>
      <trkpt lat="37.85366" lon="-8.78574">
        <ele>43.20548</ele>
        <time>2021-07-11T13:56:48Z</time>
      </trkpt>
      <trkpt lat="37.85379" lon="-8.78575">
        <ele>43.84775</ele>
        <time>2021-07-11T13:56:59Z</time>
      </trkpt>
      <trkpt lat="37.8538" lon="-8.78575">
        <ele>43.8021</ele>
        <time>2021-07-11T13:57:58Z</time>
      </trkpt>
      <trkpt lat="37.8538" lon="-8.78575">
        <ele>43.8021</ele>
        <time>2021-07-11T13:58:57Z</time>
      </trkpt>
      <trkpt lat="37.8538" lon="-8.78575">
        <ele>43.8021</ele>
        <time>2021-07-11T13:59:56Z</time>
      </trkpt>
      <trkpt lat="37.8538" lon="-8.78575">
        <ele>43.8021</ele>
        <time>2021-07-11T14:00:55Z</time>
      </trkpt>
      <trkpt lat="37.85379" lon="-8.78576">
        <ele>46.08293</ele>
        <time>2021-07-11T14:01:54Z</time>
      </trkpt>
      <trkpt lat="37.85377" lon="-8.78571">
        <ele>46.64037</ele>
        <time>2021-07-11T14:02:21Z</time>
      </trkpt>
      <trkpt lat="37.85374" lon="-8.78509">
        <ele>47.16355</ele>
        <time>2021-07-11T14:02:32Z</time>
      </trkpt>
      <trkpt lat="37.85393" lon="-8.78354">
        <ele>48.25099</ele>
        <time>2021-07-11T14:02:43Z</time>
      </trkpt>
      <trkpt lat="37.85415" lon="-8.78153">
        <ele>45.80431</ele>
        <time>2021-07-11T14:02:54Z</time>
      </trkpt>
      <trkpt lat="37.85443" lon="-8.77915">
        <ele>51.18176</ele>
        <time>2021-07-11T14:03:05Z</time>
      </trkpt>
      <trkpt lat="37.85474" lon="-8.77663">
        <ele>50.40858</ele>
        <time>2021-07-11T14:03:16Z</time>
      </trkpt>
      <trkpt lat="37.85509" lon="-8.77367">
        <ele>55.69688</ele>
        <time>2021-07-11T14:03:27Z</time>
      </trkpt>
      <trkpt lat="37.85541" lon="-8.77099">
        <ele>56.87295</ele>
        <time>2021-07-11T14:03:38Z</time>
      </trkpt>
      <trkpt lat="37.85612" lon="-8.7686">
        <ele>61.96658</ele>
        <time>2021-07-11T14:03:49Z</time>
      </trkpt>
      <trkpt lat="37.8567" lon="-8.76676">
        <ele>64.72938</ele>
        <time>2021-07-11T14:04:00Z</time>
      </trkpt>
      <trkpt lat="37.85717" lon="-8.76533">
        <ele>68.56674</ele>
        <time>2021-07-11T14:04:11Z</time>
      </trkpt>
      <trkpt lat="37.85733" lon="-8.76475">
        <ele>70.4243</ele>
        <time>2021-07-11T14:04:22Z</time>
      </trkpt>
      <trkpt lat="37.85684" lon="-8.76408">
        <ele>70.23184</ele>
        <time>2021-07-11T14:04:33Z</time>
      </trkpt>
      <trkpt lat="37.8557" lon="-8.76357">
        <ele>71.76109</ele>
        <time>2021-07-11T14:04:44Z</time>
      </trkpt>
      <trkpt lat="37.85464" lon="-8.76407">
        <ele>70.27962</ele>
        <time>2021-07-11T14:04:55Z</time>
      </trkpt>
      <trkpt lat="37.853" lon="-8.76491">
        <ele>68.32189</ele>
        <time>2021-07-11T14:05:06Z</time>
      </trkpt>
      <trkpt lat="37.8512" lon="-8.76586">
        <ele>66.65719</ele>
        <time>2021-07-11T14:05:17Z</time>
      </trkpt>
      <trkpt lat="37.84945" lon="-8.76675">
        <ele>63.49472</ele>
        <time>2021-07-11T14:05:28Z</time>
      </trkpt>
      <trkpt lat="37.84802" lon="-8.76757">
        <ele>62.17634</ele>
        <time>2021-07-11T14:05:39Z</time>
      </trkpt>
      <trkpt lat="37.84673" lon="-8.76706">
        <ele>63.6305</ele>
        <time>2021-07-11T14:05:50Z</time>
      </trkpt>
      <trkpt lat="37.84535" lon="-8.76699">
        <ele>66.14972</ele>
        <time>2021-07-11T14:06:01Z</time>
      </trkpt>
      <trkpt lat="37.84392" lon="-8.76706">
        <ele>65.76775</ele>
        <time>2021-07-11T14:06:12Z</time>
      </trkpt>
      <trkpt lat="37.84263" lon="-8.7672">
        <ele>67.23143</ele>
        <time>2021-07-11T14:06:23Z</time>
      </trkpt>
      <trkpt lat="37.84128" lon="-8.76676">
        <ele>66.0502</ele>
        <time>2021-07-11T14:06:34Z</time>
      </trkpt>
      <trkpt lat="37.8399" lon="-8.76579">
        <ele>65.96671</ele>
        <time>2021-07-11T14:06:45Z</time>
      </trkpt>
      <trkpt lat="37.8384" lon="-8.7647">
        <ele>66.32785</ele>
        <time>2021-07-11T14:06:56Z</time>
      </trkpt>
      <trkpt lat="37.83675" lon="-8.76381">
        <ele>64.64371</ele>
        <time>2021-07-11T14:07:07Z</time>
      </trkpt>
      <trkpt lat="37.83511" lon="-8.76297">
        <ele>64.60239</ele>
        <time>2021-07-11T14:07:18Z</time>
      </trkpt>
      <trkpt lat="37.83335" lon="-8.76212">
        <ele>66.30703</ele>
        <time>2021-07-11T14:07:29Z</time>
      </trkpt>
      <trkpt lat="37.83172" lon="-8.76127">
        <ele>62.4838</ele>
        <time>2021-07-11T14:07:40Z</time>
      </trkpt>
      <trkpt lat="37.83003" lon="-8.76057">
        <ele>61.03466</ele>
        <time>2021-07-11T14:07:51Z</time>
      </trkpt>
      <trkpt lat="37.82844" lon="-8.75995">
        <ele>66.15502</ele>
        <time>2021-07-11T14:08:02Z</time>
      </trkpt>
      <trkpt lat="37.82688" lon="-8.76005">
        <ele>68.84898</ele>
        <time>2021-07-11T14:08:13Z</time>
      </trkpt>
      <trkpt lat="37.82537" lon="-8.76056">
        <ele>66.29716</ele>
        <time>2021-07-11T14:08:24Z</time>
      </trkpt>
      <trkpt lat="37.82326" lon="-8.76127">
        <ele>65.32941</ele>
        <time>2021-07-11T14:08:35Z</time>
      </trkpt>
      <trkpt lat="37.82142" lon="-8.76189">
        <ele>65.75411</ele>
        <time>2021-07-11T14:08:46Z</time>
      </trkpt>
      <trkpt lat="37.81949" lon="-8.76256">
        <ele>63.16976</ele>
        <time>2021-07-11T14:08:57Z</time>
      </trkpt>
      <trkpt lat="37.81754" lon="-8.76321">
        <ele>62.49628</ele>
        <time>2021-07-11T14:09:08Z</time>
      </trkpt>
      <trkpt lat="37.81571" lon="-8.76373">
        <ele>52.66739</ele>
        <time>2021-07-11T14:09:19Z</time>
      </trkpt>
      <trkpt lat="37.81382" lon="-8.76426">
        <ele>56.87818</ele>
        <time>2021-07-11T14:09:30Z</time>
      </trkpt>
      <trkpt lat="37.81237" lon="-8.76501">
        <ele>64.37703</ele>
        <time>2021-07-11T14:09:41Z</time>
      </trkpt>
      <trkpt lat="37.81089" lon="-8.7659">
        <ele>66.71651</ele>
        <time>2021-07-11T14:09:52Z</time>
      </trkpt>
      <trkpt lat="37.80938" lon="-8.76681">
        <ele>67.81228</ele>
        <time>2021-07-11T14:10:03Z</time>
      </trkpt>
      <trkpt lat="37.80768" lon="-8.7678">
        <ele>67.77927</ele>
        <time>2021-07-11T14:10:14Z</time>
      </trkpt>
      <trkpt lat="37.80613" lon="-8.76883">
        <ele>67.72421</ele>
        <time>2021-07-11T14:10:25Z</time>
      </trkpt>
      <trkpt lat="37.80468" lon="-8.76981">
        <ele>65.61224</ele>
        <time>2021-07-11T14:10:36Z</time>
      </trkpt>
      <trkpt lat="37.80356" lon="-8.77057">
        <ele>65.35427</ele>
        <time>2021-07-11T14:10:47Z</time>
      </trkpt>
      <trkpt lat="37.80238" lon="-8.77138">
        <ele>64.75096</ele>
        <time>2021-07-11T14:10:58Z</time>
      </trkpt>
      <trkpt lat="37.80131" lon="-8.77237">
        <ele>62.08332</ele>
        <time>2021-07-11T14:11:09Z</time>
      </trkpt>
      <trkpt lat="37.80027" lon="-8.77368">
        <ele>57.43989</ele>
        <time>2021-07-11T14:11:20Z</time>
      </trkpt>
      <trkpt lat="37.79981" lon="-8.77583">
        <ele>49.86455</ele>
        <time>2021-07-11T14:11:31Z</time>
      </trkpt>
      <trkpt lat="37.79937" lon="-8.77786">
        <ele>43.11844</ele>
        <time>2021-07-11T14:11:42Z</time>
      </trkpt>
      <trkpt lat="37.79813" lon="-8.77895">
        <ele>46.26773</ele>
        <time>2021-07-11T14:11:53Z</time>
      </trkpt>
      <trkpt lat="37.79647" lon="-8.77946">
        <ele>51.4841</ele>
        <time>2021-07-11T14:12:04Z</time>
      </trkpt>
      <trkpt lat="37.79482" lon="-8.78002">
        <ele>52.96963</ele>
        <time>2021-07-11T14:12:15Z</time>
      </trkpt>
      <trkpt lat="37.79312" lon="-8.78059">
        <ele>53.51028</ele>
        <time>2021-07-11T14:12:26Z</time>
      </trkpt>
      <trkpt lat="37.79159" lon="-8.7811">
        <ele>55.15565</ele>
        <time>2021-07-11T14:12:37Z</time>
      </trkpt>
      <trkpt lat="37.78993" lon="-8.78166">
        <ele>61.60348</ele>
        <time>2021-07-11T14:12:48Z</time>
      </trkpt>
      <trkpt lat="37.78824" lon="-8.78223">
        <ele>61.53085</ele>
        <time>2021-07-11T14:12:59Z</time>
      </trkpt>
      <trkpt lat="37.78653" lon="-8.7828">
        <ele>62.63307</ele>
        <time>2021-07-11T14:13:10Z</time>
      </trkpt>
      <trkpt lat="37.7849" lon="-8.78306">
        <ele>65.05799</ele>
        <time>2021-07-11T14:13:21Z</time>
      </trkpt>
      <trkpt lat="37.78301" lon="-8.78305">
        <ele>62.79587</ele>
        <time>2021-07-11T14:13:32Z</time>
      </trkpt>
      <trkpt lat="37.78131" lon="-8.78309">
        <ele>58.9859</ele>
        <time>2021-07-11T14:13:43Z</time>
      </trkpt>
      <trkpt lat="37.77969" lon="-8.78336">
        <ele>59.91337</ele>
        <time>2021-07-11T14:13:54Z</time>
      </trkpt>
      <trkpt lat="37.77783" lon="-8.7836">
        <ele>63.05989</ele>
        <time>2021-07-11T14:14:05Z</time>
      </trkpt>
      <trkpt lat="37.77599" lon="-8.78385">
        <ele>61.99548</ele>
        <time>2021-07-11T14:14:16Z</time>
      </trkpt>
      <trkpt lat="37.77428" lon="-8.78317">
        <ele>62.43407</ele>
        <time>2021-07-11T14:14:27Z</time>
      </trkpt>
      <trkpt lat="37.77248" lon="-8.78211">
        <ele>64.84347</ele>
        <time>2021-07-11T14:14:38Z</time>
      </trkpt>
      <trkpt lat="37.77043" lon="-8.78094">
        <ele>70.47114</ele>
        <time>2021-07-11T14:14:49Z</time>
      </trkpt>
      <trkpt lat="37.76819" lon="-8.78096">
        <ele>72.13467</ele>
        <time>2021-07-11T14:15:00Z</time>
      </trkpt>
      <trkpt lat="37.7661" lon="-8.78051">
        <ele>71.47879</ele>
        <time>2021-07-11T14:15:11Z</time>
      </trkpt>
      <trkpt lat="37.7649" lon="-8.77836">
        <ele>74.24006</ele>
        <time>2021-07-11T14:15:22Z</time>
      </trkpt>
      <trkpt lat="37.7636" lon="-8.77652">
        <ele>75.25018</ele>
        <time>2021-07-11T14:15:33Z</time>
      </trkpt>
      <trkpt lat="37.76223" lon="-8.77486">
        <ele>76.81664</ele>
        <time>2021-07-11T14:15:44Z</time>
      </trkpt>
      <trkpt lat="37.76087" lon="-8.77316">
        <ele>77.12171</ele>
        <time>2021-07-11T14:15:55Z</time>
      </trkpt>
      <trkpt lat="37.75944" lon="-8.77137">
        <ele>75.20602</ele>
        <time>2021-07-11T14:16:06Z</time>
      </trkpt>
      <trkpt lat="37.75834" lon="-8.76926">
        <ele>72.92176</ele>
        <time>2021-07-11T14:16:17Z</time>
      </trkpt>
      <trkpt lat="37.75719" lon="-8.76726">
        <ele>70.76063</ele>
        <time>2021-07-11T14:16:28Z</time>
      </trkpt>
      <trkpt lat="37.75562" lon="-8.76544">
        <ele>70.85989</ele>
        <time>2021-07-11T14:16:40Z</time>
      </trkpt>
      <trkpt lat="37.75414" lon="-8.76368">
        <ele>67.79548</ele>
        <time>2021-07-11T14:16:51Z</time>
      </trkpt>
      <trkpt lat="37.75274" lon="-8.76206">
        <ele>66.4275</ele>
        <time>2021-07-11T14:17:02Z</time>
      </trkpt>
      <trkpt lat="37.75206" lon="-8.75997">
        <ele>66.29389</ele>
        <time>2021-07-11T14:17:13Z</time>
      </trkpt>
      <trkpt lat="37.75171" lon="-8.75788">
        <ele>64.54099</ele>
        <time>2021-07-11T14:17:24Z</time>
      </trkpt>
      <trkpt lat="37.75108" lon="-8.75705">
        <ele>64.49945</ele>
        <time>2021-07-11T14:17:35Z</time>
      </trkpt>
      <trkpt lat="37.75027" lon="-8.75809">
        <ele>62.30589</ele>
        <time>2021-07-11T14:17:46Z</time>
      </trkpt>
      <trkpt lat="37.74911" lon="-8.75928">
        <ele>61.15261</ele>
        <time>2021-07-11T14:17:57Z</time>
      </trkpt>
      <trkpt lat="37.74779" lon="-8.76033">
        <ele>60.05131</ele>
        <time>2021-07-11T14:18:08Z</time>
      </trkpt>
      <trkpt lat="37.74593" lon="-8.76173">
        <ele>58.55706</ele>
        <time>2021-07-11T14:18:19Z</time>
      </trkpt>
      <trkpt lat="37.74413" lon="-8.76309">
        <ele>58.16098</ele>
        <time>2021-07-11T14:18:30Z</time>
      </trkpt>
      <trkpt lat="37.74268" lon="-8.76419">
        <ele>56.96059</ele>
        <time>2021-07-11T14:18:41Z</time>
      </trkpt>
      <trkpt lat="37.7416" lon="-8.76498">
        <ele>55.85433</ele>
        <time>2021-07-11T14:18:52Z</time>
      </trkpt>
      <trkpt lat="37.74074" lon="-8.76564">
        <ele>56.77333</ele>
        <time>2021-07-11T14:19:03Z</time>
      </trkpt>
      <trkpt lat="37.73992" lon="-8.76598">
        <ele>55.71485</ele>
        <time>2021-07-11T14:19:14Z</time>
      </trkpt>
      <trkpt lat="37.7394" lon="-8.7664">
        <ele>55.75723</ele>
        <time>2021-07-11T14:19:25Z</time>
      </trkpt>
      <trkpt lat="37.73872" lon="-8.76714">
        <ele>54.04022</ele>
        <time>2021-07-11T14:19:36Z</time>
      </trkpt>
      <trkpt lat="37.73803" lon="-8.76766">
        <ele>54.74148</ele>
        <time>2021-07-11T14:19:47Z</time>
      </trkpt>
      <trkpt lat="37.73727" lon="-8.76823">
        <ele>54.83944</ele>
        <time>2021-07-11T14:19:58Z</time>
      </trkpt>
      <trkpt lat="37.73655" lon="-8.76876">
        <ele>56.06108</ele>
        <time>2021-07-11T14:20:09Z</time>
      </trkpt>
      <trkpt lat="37.73569" lon="-8.76953">
        <ele>57.60644</ele>
        <time>2021-07-11T14:20:20Z</time>
      </trkpt>
      <trkpt lat="37.73462" lon="-8.77065">
        <ele>52.17186</ele>
        <time>2021-07-11T14:20:31Z</time>
      </trkpt>
      <trkpt lat="37.7337" lon="-8.77131">
        <ele>47.78486</ele>
        <time>2021-07-11T14:20:42Z</time>
      </trkpt>
      <trkpt lat="37.73332" lon="-8.77221">
        <ele>45.26647</ele>
        <time>2021-07-11T14:20:53Z</time>
      </trkpt>
      <trkpt lat="37.7325" lon="-8.77312">
        <ele>43.08024</ele>
        <time>2021-07-11T14:21:04Z</time>
      </trkpt>
      <trkpt lat="37.73157" lon="-8.77408">
        <ele>40.16414</ele>
        <time>2021-07-11T14:21:15Z</time>
      </trkpt>
      <trkpt lat="37.73089" lon="-8.77489">
        <ele>38.06682</ele>
        <time>2021-07-11T14:21:26Z</time>
      </trkpt>
      <trkpt lat="37.73037" lon="-8.77541">
        <ele>39.19329</ele>
        <time>2021-07-11T14:21:37Z</time>
      </trkpt>
      <trkpt lat="37.72986" lon="-8.77595">
        <ele>41.78007</ele>
        <time>2021-07-11T14:21:48Z</time>
      </trkpt>
      <trkpt lat="37.72923" lon="-8.77664">
        <ele>39.79965</ele>
        <time>2021-07-11T14:21:59Z</time>
      </trkpt>
      <trkpt lat="37.72866" lon="-8.77726">
        <ele>39.92169</ele>
        <time>2021-07-11T14:22:10Z</time>
      </trkpt>
      <trkpt lat="37.72815" lon="-8.77782">
        <ele>40.83098</ele>
        <time>2021-07-11T14:22:21Z</time>
      </trkpt>
      <trkpt lat="37.72772" lon="-8.77829">
        <ele>42.47806</ele>
        <time>2021-07-11T14:22:32Z</time>
      </trkpt>
      <trkpt lat="37.72726" lon="-8.77877">
        <ele>40.16407</ele>
        <time>2021-07-11T14:22:43Z</time>
      </trkpt>
      <trkpt lat="37.72695" lon="-8.77914">
        <ele>37.48784</ele>
        <time>2021-07-11T14:22:54Z</time>
      </trkpt>
      <trkpt lat="37.7267" lon="-8.77941">
        <ele>36.97481</ele>
        <time>2021-07-11T14:23:05Z</time>
      </trkpt>
      <trkpt lat="37.72645" lon="-8.77968">
        <ele>34.31015</ele>
        <time>2021-07-11T14:23:16Z</time>
      </trkpt>
      <trkpt lat="37.72615" lon="-8.78002">
        <ele>34.5577</ele>
        <time>2021-07-11T14:23:27Z</time>
      </trkpt>
      <trkpt lat="37.72634" lon="-8.78064">
        <ele>35.57765</ele>
        <time>2021-07-11T14:23:38Z</time>
      </trkpt>
      <trkpt lat="37.72668" lon="-8.78094">
        <ele>33.37825</ele>
        <time>2021-07-11T14:23:49Z</time>
      </trkpt>
      <trkpt lat="37.72729" lon="-8.78093">
        <ele>34.93899</ele>
        <time>2021-07-11T14:24:00Z</time>
      </trkpt>
      <trkpt lat="37.72701" lon="-8.78019">
        <ele>34.85554</ele>
        <time>2021-07-11T14:24:11Z</time>
      </trkpt>
      <trkpt lat="37.72659" lon="-8.7796">
        <ele>36.4239</ele>
        <time>2021-07-11T14:24:22Z</time>
      </trkpt>
      <trkpt lat="37.72656" lon="-8.77957">
        <ele>34.27829</ele>
        <time>2021-07-11T14:24:33Z</time>
      </trkpt>
      <trkpt lat="37.72654" lon="-8.77951">
        <ele>34.54264</ele>
        <time>2021-07-11T14:24:49Z</time>
      </trkpt>
      <trkpt lat="37.72711" lon="-8.77891">
        <ele>34.53873</ele>
        <time>2021-07-11T14:25:00Z</time>
      </trkpt>
      <trkpt lat="37.72766" lon="-8.7783">
        <ele>35.17977</ele>
        <time>2021-07-11T14:25:11Z</time>
      </trkpt>
      <trkpt lat="37.72826" lon="-8.77764">
        <ele>36.2512</ele>
        <time>2021-07-11T14:25:22Z</time>
      </trkpt>
      <trkpt lat="37.72892" lon="-8.77693">
        <ele>38.56415</ele>
        <time>2021-07-11T14:25:33Z</time>
      </trkpt>
      <trkpt lat="37.72965" lon="-8.77615">
        <ele>38.93052</ele>
        <time>2021-07-11T14:25:44Z</time>
      </trkpt>
      <trkpt lat="37.73031" lon="-8.77542">
        <ele>39.72498</ele>
        <time>2021-07-11T14:25:55Z</time>
      </trkpt>
      <trkpt lat="37.73084" lon="-8.77483">
        <ele>43.57682</ele>
        <time>2021-07-11T14:26:06Z</time>
      </trkpt>
      <trkpt lat="37.73189" lon="-8.77365">
        <ele>42.8693</ele>
        <time>2021-07-11T14:26:17Z</time>
      </trkpt>
      <trkpt lat="37.73304" lon="-8.77252">
        <ele>43.10747</ele>
        <time>2021-07-11T14:26:28Z</time>
      </trkpt>
      <trkpt lat="37.7325" lon="-8.77178">
        <ele>36.583</ele>
        <time>2021-07-11T14:26:39Z</time>
      </trkpt>
      <trkpt lat="37.73048" lon="-8.77181">
        <ele>30.34972</ele>
        <time>2021-07-11T14:26:50Z</time>
      </trkpt>
      <trkpt lat="37.72851" lon="-8.77091">
        <ele>24.06807</ele>
        <time>2021-07-11T14:27:01Z</time>
      </trkpt>
      <trkpt lat="37.72671" lon="-8.76992">
        <ele>25.54184</ele>
        <time>2021-07-11T14:27:12Z</time>
      </trkpt>
      <trkpt lat="37.72479" lon="-8.7689">
        <ele>23.91438</ele>
        <time>2021-07-11T14:27:23Z</time>
      </trkpt>
      <trkpt lat="37.72274" lon="-8.76785">
        <ele>31.84078</ele>
        <time>2021-07-11T14:27:34Z</time>
      </trkpt>
      <trkpt lat="37.72071" lon="-8.76708">
        <ele>41.42771</ele>
        <time>2021-07-11T14:27:45Z</time>
      </trkpt>
      <trkpt lat="37.71873" lon="-8.76668">
        <ele>48.44623</ele>
        <time>2021-07-11T14:27:56Z</time>
      </trkpt>
      <trkpt lat="37.71656" lon="-8.76651">
        <ele>53.78465</ele>
        <time>2021-07-11T14:28:07Z</time>
      </trkpt>
      <trkpt lat="37.71428" lon="-8.76672">
        <ele>55.48938</ele>
        <time>2021-07-11T14:28:18Z</time>
      </trkpt>
      <trkpt lat="37.71192" lon="-8.76734">
        <ele>57.09058</ele>
        <time>2021-07-11T14:28:29Z</time>
      </trkpt>
      <trkpt lat="37.70964" lon="-8.76832">
        <ele>58.46992</ele>
        <time>2021-07-11T14:28:40Z</time>
      </trkpt>
      <trkpt lat="37.70732" lon="-8.76936">
        <ele>56.19379</ele>
        <time>2021-07-11T14:28:51Z</time>
      </trkpt>
      <trkpt lat="37.70507" lon="-8.77039">
        <ele>54.56676</ele>
        <time>2021-07-11T14:29:02Z</time>
      </trkpt>
      <trkpt lat="37.70278" lon="-8.77125">
        <ele>53.71388</ele>
        <time>2021-07-11T14:29:13Z</time>
      </trkpt>
      <trkpt lat="37.70046" lon="-8.77078">
        <ele>49.73094</ele>
        <time>2021-07-11T14:29:24Z</time>
      </trkpt>
      <trkpt lat="37.69819" lon="-8.76991">
        <ele>48.83841</ele>
        <time>2021-07-11T14:29:35Z</time>
      </trkpt>
      <trkpt lat="37.69611" lon="-8.76909">
        <ele>45.45443</ele>
        <time>2021-07-11T14:29:46Z</time>
      </trkpt>
      <trkpt lat="37.69357" lon="-8.76809">
        <ele>41.60372</ele>
        <time>2021-07-11T14:29:57Z</time>
      </trkpt>
      <trkpt lat="37.6915" lon="-8.76728">
        <ele>49.00617</ele>
        <time>2021-07-11T14:30:08Z</time>
      </trkpt>
      <trkpt lat="37.68937" lon="-8.76642">
        <ele>50.98252</ele>
        <time>2021-07-11T14:30:19Z</time>
      </trkpt>
      <trkpt lat="37.68717" lon="-8.76557">
        <ele>50.95939</ele>
        <time>2021-07-11T14:30:30Z</time>
      </trkpt>
      <trkpt lat="37.68486" lon="-8.76466">
        <ele>51.44107</ele>
        <time>2021-07-11T14:30:41Z</time>
      </trkpt>
      <trkpt lat="37.68256" lon="-8.76374">
        <ele>51.60131</ele>
        <time>2021-07-11T14:30:52Z</time>
      </trkpt>
      <trkpt lat="37.68011" lon="-8.76278">
        <ele>53.83943</ele>
        <time>2021-07-11T14:31:03Z</time>
      </trkpt>
      <trkpt lat="37.67773" lon="-8.76183">
        <ele>52.06436</ele>
        <time>2021-07-11T14:31:14Z</time>
      </trkpt>
      <trkpt lat="37.67538" lon="-8.7609">
        <ele>52.44881</ele>
        <time>2021-07-11T14:31:25Z</time>
      </trkpt>
      <trkpt lat="37.67304" lon="-8.76004">
        <ele>54.84472</ele>
        <time>2021-07-11T14:31:36Z</time>
      </trkpt>
      <trkpt lat="37.67065" lon="-8.75961">
        <ele>53.11184</ele>
        <time>2021-07-11T14:31:47Z</time>
      </trkpt>
      <trkpt lat="37.66821" lon="-8.75952">
        <ele>51.66887</ele>
        <time>2021-07-11T14:31:58Z</time>
      </trkpt>
      <trkpt lat="37.66577" lon="-8.75954">
        <ele>50.97449</ele>
        <time>2021-07-11T14:32:09Z</time>
      </trkpt>
      <trkpt lat="37.66339" lon="-8.75953">
        <ele>51.68118</ele>
        <time>2021-07-11T14:32:20Z</time>
      </trkpt>
      <trkpt lat="37.661" lon="-8.75952">
        <ele>53.0983</ele>
        <time>2021-07-11T14:32:31Z</time>
      </trkpt>
      <trkpt lat="37.65855" lon="-8.75954">
        <ele>47.79748</ele>
        <time>2021-07-11T14:32:42Z</time>
      </trkpt>
      <trkpt lat="37.65664" lon="-8.75958">
        <ele>48.21794</ele>
        <time>2021-07-11T14:32:53Z</time>
      </trkpt>
      <trkpt lat="37.65547" lon="-8.75975">
        <ele>47.11194</ele>
        <time>2021-07-11T14:33:04Z</time>
      </trkpt>
      <trkpt lat="37.65388" lon="-8.75957">
        <ele>44.65191</ele>
        <time>2021-07-11T14:33:15Z</time>
      </trkpt>
      <trkpt lat="37.65172" lon="-8.7596">
        <ele>49.08992</ele>
        <time>2021-07-11T14:33:26Z</time>
      </trkpt>
      <trkpt lat="37.64968" lon="-8.75962">
        <ele>51.38002</ele>
        <time>2021-07-11T14:33:37Z</time>
      </trkpt>
      <trkpt lat="37.64742" lon="-8.75963">
        <ele>52.02047</ele>
        <time>2021-07-11T14:33:48Z</time>
      </trkpt>
      <trkpt lat="37.64513" lon="-8.75964">
        <ele>49.89248</ele>
        <time>2021-07-11T14:33:59Z</time>
      </trkpt>
      <trkpt lat="37.64264" lon="-8.75946">
        <ele>51.39979</ele>
        <time>2021-07-11T14:34:10Z</time>
      </trkpt>
      <trkpt lat="37.64044" lon="-8.75844">
        <ele>52.73703</ele>
        <time>2021-07-11T14:34:21Z</time>
      </trkpt>
      <trkpt lat="37.63853" lon="-8.75683">
        <ele>52.1374</ele>
        <time>2021-07-11T14:34:32Z</time>
      </trkpt>
      <trkpt lat="37.63687" lon="-8.75478">
        <ele>53.27291</ele>
        <time>2021-07-11T14:34:43Z</time>
      </trkpt>
      <trkpt lat="37.63531" lon="-8.75255">
        <ele>51.42461</ele>
        <time>2021-07-11T14:34:54Z</time>
      </trkpt>
      <trkpt lat="37.63382" lon="-8.75029">
        <ele>57.04357</ele>
        <time>2021-07-11T14:35:05Z</time>
      </trkpt>
      <trkpt lat="37.63229" lon="-8.74802">
        <ele>60.5904</ele>
        <time>2021-07-11T14:35:16Z</time>
      </trkpt>
      <trkpt lat="37.63079" lon="-8.74581">
        <ele>59.83313</ele>
        <time>2021-07-11T14:35:27Z</time>
      </trkpt>
      <trkpt lat="37.62946" lon="-8.74383">
        <ele>62.01626</ele>
        <time>2021-07-11T14:35:38Z</time>
      </trkpt>
      <trkpt lat="37.62798" lon="-8.74164">
        <ele>64.17466</ele>
        <time>2021-07-11T14:35:49Z</time>
      </trkpt>
      <trkpt lat="37.62659" lon="-8.73962">
        <ele>61.17871</ele>
        <time>2021-07-11T14:36:00Z</time>
      </trkpt>
      <trkpt lat="37.62493" lon="-8.73715">
        <ele>67.57025</ele>
        <time>2021-07-11T14:36:11Z</time>
      </trkpt>
      <trkpt lat="37.62326" lon="-8.73467">
        <ele>70.36994</ele>
        <time>2021-07-11T14:36:22Z</time>
      </trkpt>
      <trkpt lat="37.62174" lon="-8.73241">
        <ele>73.06991</ele>
        <time>2021-07-11T14:36:33Z</time>
      </trkpt>
      <trkpt lat="37.62026" lon="-8.73022">
        <ele>76.43601</ele>
        <time>2021-07-11T14:36:44Z</time>
      </trkpt>
      <trkpt lat="37.61896" lon="-8.72835">
        <ele>77.0893</ele>
        <time>2021-07-11T14:36:55Z</time>
      </trkpt>
      <trkpt lat="37.61739" lon="-8.72657">
        <ele>75.17829</ele>
        <time>2021-07-11T14:37:06Z</time>
      </trkpt>
      <trkpt lat="37.61571" lon="-8.72482">
        <ele>70.1212</ele>
        <time>2021-07-11T14:37:17Z</time>
      </trkpt>
      <trkpt lat="37.61453" lon="-8.72412">
        <ele>68.61581</ele>
        <time>2021-07-11T14:37:28Z</time>
      </trkpt>
      <trkpt lat="37.61337" lon="-8.72609">
        <ele>65.67501</ele>
        <time>2021-07-11T14:37:40Z</time>
      </trkpt>
      <trkpt lat="37.61198" lon="-8.72823">
        <ele>63.37738</ele>
        <time>2021-07-11T14:37:51Z</time>
      </trkpt>
      <trkpt lat="37.61068" lon="-8.73027">
        <ele>61.23795</ele>
        <time>2021-07-11T14:38:02Z</time>
      </trkpt>
      <trkpt lat="37.60926" lon="-8.73253">
        <ele>62.79336</ele>
        <time>2021-07-11T14:38:13Z</time>
      </trkpt>
      <trkpt lat="37.60779" lon="-8.73485">
        <ele>64.22918</ele>
        <time>2021-07-11T14:38:24Z</time>
      </trkpt>
      <trkpt lat="37.60631" lon="-8.73717">
        <ele>64.59211</ele>
        <time>2021-07-11T14:38:35Z</time>
      </trkpt>
      <trkpt lat="37.60481" lon="-8.73952">
        <ele>64.43958</ele>
        <time>2021-07-11T14:38:46Z</time>
      </trkpt>
      <trkpt lat="37.60332" lon="-8.74188">
        <ele>63.36098</ele>
        <time>2021-07-11T14:38:57Z</time>
      </trkpt>
      <trkpt lat="37.60198" lon="-8.74398">
        <ele>59.84108</ele>
        <time>2021-07-11T14:39:08Z</time>
      </trkpt>
      <trkpt lat="37.60111" lon="-8.74579">
        <ele>59.54462</ele>
        <time>2021-07-11T14:39:19Z</time>
      </trkpt>
      <trkpt lat="37.60006" lon="-8.74831">
        <ele>62.86238</ele>
        <time>2021-07-11T14:39:30Z</time>
      </trkpt>
      <trkpt lat="37.59894" lon="-8.75099">
        <ele>66.60619</ele>
        <time>2021-07-11T14:39:41Z</time>
      </trkpt>
      <trkpt lat="37.59793" lon="-8.75343">
        <ele>69.80547</ele>
        <time>2021-07-11T14:39:52Z</time>
      </trkpt>
      <trkpt lat="37.59681" lon="-8.75611">
        <ele>71.73995</ele>
        <time>2021-07-11T14:40:03Z</time>
      </trkpt>
      <trkpt lat="37.59559" lon="-8.75904">
        <ele>70.3368</ele>
        <time>2021-07-11T14:40:14Z</time>
      </trkpt>
      <trkpt lat="37.5945" lon="-8.76175">
        <ele>75.86362</ele>
        <time>2021-07-11T14:40:25Z</time>
      </trkpt>
      <trkpt lat="37.59361" lon="-8.76422">
        <ele>77.3691</ele>
        <time>2021-07-11T14:40:36Z</time>
      </trkpt>
      <trkpt lat="37.59506" lon="-8.76634">
        <ele>77.08846</ele>
        <time>2021-07-11T14:40:47Z</time>
      </trkpt>
      <trkpt lat="37.59675" lon="-8.76834">
        <ele>74.15634</ele>
        <time>2021-07-11T14:40:58Z</time>
      </trkpt>
      <trkpt lat="37.59812" lon="-8.76993">
        <ele>72.94162</ele>
        <time>2021-07-11T14:41:09Z</time>
      </trkpt>
      <trkpt lat="37.59914" lon="-8.77114">
        <ele>73.98573</ele>
        <time>2021-07-11T14:41:20Z</time>
      </trkpt>
      <trkpt lat="37.60018" lon="-8.77317">
        <ele>71.93868</ele>
        <time>2021-07-11T14:41:31Z</time>
      </trkpt>
      <trkpt lat="37.60004" lon="-8.77618">
        <ele>71.00176</ele>
        <time>2021-07-11T14:41:42Z</time>
      </trkpt>
      <trkpt lat="37.59997" lon="-8.77897">
        <ele>69.0387</ele>
        <time>2021-07-11T14:41:53Z</time>
      </trkpt>
      <trkpt lat="37.59988" lon="-8.78209">
        <ele>68.4475</ele>
        <time>2021-07-11T14:42:04Z</time>
      </trkpt>
      <trkpt lat="37.59978" lon="-8.78523">
        <ele>62.51469</ele>
        <time>2021-07-11T14:42:15Z</time>
      </trkpt>
      <trkpt lat="37.59969" lon="-8.78866">
        <ele>58.96902</ele>
        <time>2021-07-11T14:42:26Z</time>
      </trkpt>
      <trkpt lat="37.59958" lon="-8.79172">
        <ele>56.07199</ele>
        <time>2021-07-11T14:42:37Z</time>
      </trkpt>
      <trkpt lat="37.5995" lon="-8.79477">
        <ele>54.55976</ele>
        <time>2021-07-11T14:42:48Z</time>
      </trkpt>
      <trkpt lat="37.59942" lon="-8.79787">
        <ele>51.88497</ele>
        <time>2021-07-11T14:42:59Z</time>
      </trkpt>
      <trkpt lat="37.59932" lon="-8.80093">
        <ele>48.74583</ele>
        <time>2021-07-11T14:43:10Z</time>
      </trkpt>
      <trkpt lat="37.59922" lon="-8.80331">
        <ele>47.60337</ele>
        <time>2021-07-11T14:43:21Z</time>
      </trkpt>
      <trkpt lat="37.59883" lon="-8.80523">
        <ele>48.1232</ele>
        <time>2021-07-11T14:43:32Z</time>
      </trkpt>
      <trkpt lat="37.59845" lon="-8.80652">
        <ele>45.62837</ele>
        <time>2021-07-11T14:43:43Z</time>
      </trkpt>
      <trkpt lat="37.5981" lon="-8.80772">
        <ele>44.48779</ele>
        <time>2021-07-11T14:43:54Z</time>
      </trkpt>
      <trkpt lat="37.59788" lon="-8.80907">
        <ele>44.88729</ele>
        <time>2021-07-11T14:44:05Z</time>
      </trkpt>
      <trkpt lat="37.59834" lon="-8.8108">
        <ele>45.16619</ele>
        <time>2021-07-11T14:44:16Z</time>
      </trkpt>
      <trkpt lat="37.59854" lon="-8.8128">
        <ele>46.83703</ele>
        <time>2021-07-11T14:44:27Z</time>
      </trkpt>
      <trkpt lat="37.59861" lon="-8.81488">
        <ele>46.20187</ele>
        <time>2021-07-11T14:44:38Z</time>
      </trkpt>
      <trkpt lat="37.59862" lon="-8.81555">
        <ele>47.0625</ele>
        <time>2021-07-11T14:44:49Z</time>
      </trkpt>
      <trkpt lat="37.598" lon="-8.81584">
        <ele>44.92159</ele>
        <time>2021-07-11T14:45:00Z</time>
      </trkpt>
      <trkpt lat="37.59754" lon="-8.81618">
        <ele>44.65869</ele>
        <time>2021-07-11T14:45:11Z</time>
      </trkpt>
      <trkpt lat="37.59753" lon="-8.81619">
        <ele>44.68899</ele>
        <time>2021-07-11T14:46:11Z</time>
      </trkpt>
      <trkpt lat="37.59754" lon="-8.81618">
        <ele>42.8548</ele>
        <time>2021-07-11T14:47:09Z</time>
      </trkpt>
      <trkpt lat="37.59749" lon="-8.8161">
        <ele>46.11462</ele>
        <time>2021-07-11T14:47:20Z</time>
      </trkpt>
      <trkpt lat="37.59749" lon="-8.8161">
        <ele>50.1084</ele>
        <time>2021-07-11T14:48:19Z</time>
      </trkpt>
      <trkpt lat="37.59752" lon="-8.81612">
        <ele>50.19689</ele>
        <time>2021-07-11T14:49:14Z</time>
      </trkpt>
      <trkpt lat="37.59749" lon="-8.8161">
        <ele>49.99353</ele>
        <time>2021-07-11T14:49:45Z</time>
      </trkpt>
      <trkpt lat="37.59751" lon="-8.81607">
        <ele>49.0175</ele>
        <time>2021-07-11T14:50:44Z</time>
      </trkpt>
      <trkpt lat="37.5975" lon="-8.81606">
        <ele>49.18627</ele>
        <time>2021-07-11T14:51:42Z</time>
      </trkpt>
      <trkpt lat="37.59751" lon="-8.81612">
        <ele>48.89762</ele>
        <time>2021-07-11T14:51:53Z</time>
      </trkpt>
      <trkpt lat="37.59757" lon="-8.81609">
        <ele>48.57941</ele>
        <time>2021-07-11T14:52:14Z</time>
      </trkpt>
      <trkpt lat="37.59777" lon="-8.81598">
        <ele>48.87191</ele>
        <time>2021-07-11T14:52:25Z</time>
      </trkpt>
      <trkpt lat="37.59798" lon="-8.81579">
        <ele>49.11428</ele>
        <time>2021-07-11T14:52:36Z</time>
      </trkpt>
      <trkpt lat="37.59826" lon="-8.8156">
        <ele>51.03713</ele>
        <time>2021-07-11T14:52:47Z</time>
      </trkpt>
      <trkpt lat="37.5986" lon="-8.81526">
        <ele>50.37378</ele>
        <time>2021-07-11T14:52:58Z</time>
      </trkpt>
      <trkpt lat="37.59852" lon="-8.81373">
        <ele>50.00318</ele>
        <time>2021-07-11T14:53:09Z</time>
      </trkpt>
      <trkpt lat="37.59845" lon="-8.81206">
        <ele>48.96841</ele>
        <time>2021-07-11T14:53:20Z</time>
      </trkpt>
      <trkpt lat="37.59824" lon="-8.81061">
        <ele>45.36605</ele>
        <time>2021-07-11T14:53:31Z</time>
      </trkpt>
      <trkpt lat="37.5979" lon="-8.80931">
        <ele>47.40201</ele>
        <time>2021-07-11T14:53:42Z</time>
      </trkpt>
      <trkpt lat="37.5979" lon="-8.8083">
        <ele>47.17566</ele>
        <time>2021-07-11T14:53:53Z</time>
      </trkpt>
      <trkpt lat="37.59819" lon="-8.80725">
        <ele>47.96533</ele>
        <time>2021-07-11T14:54:04Z</time>
      </trkpt>
      <trkpt lat="37.59855" lon="-8.80605">
        <ele>49.13976</ele>
        <time>2021-07-11T14:54:15Z</time>
      </trkpt>
      <trkpt lat="37.59891" lon="-8.80465">
        <ele>49.73636</ele>
        <time>2021-07-11T14:54:26Z</time>
      </trkpt>
      <trkpt lat="37.59923" lon="-8.80265">
        <ele>51.98904</ele>
        <time>2021-07-11T14:54:37Z</time>
      </trkpt>
      <trkpt lat="37.5993" lon="-8.79987">
        <ele>53.13015</ele>
        <time>2021-07-11T14:54:48Z</time>
      </trkpt>
      <trkpt lat="37.59938" lon="-8.79697">
        <ele>54.59495</ele>
        <time>2021-07-11T14:54:59Z</time>
      </trkpt>
      <trkpt lat="37.59946" lon="-8.79416">
        <ele>56.18187</ele>
        <time>2021-07-11T14:55:10Z</time>
      </trkpt>
      <trkpt lat="37.59956" lon="-8.7913">
        <ele>58.78444</ele>
        <time>2021-07-11T14:55:21Z</time>
      </trkpt>
      <trkpt lat="37.59966" lon="-8.78841">
        <ele>59.57835</ele>
        <time>2021-07-11T14:55:32Z</time>
      </trkpt>
      <trkpt lat="37.59975" lon="-8.78551">
        <ele>61.79847</ele>
        <time>2021-07-11T14:55:43Z</time>
      </trkpt>
      <trkpt lat="37.59982" lon="-8.78256">
        <ele>65.52485</ele>
        <time>2021-07-11T14:55:54Z</time>
      </trkpt>
      <trkpt lat="37.59991" lon="-8.77959">
        <ele>67.29911</ele>
        <time>2021-07-11T14:56:05Z</time>
      </trkpt>
      <trkpt lat="37.59999" lon="-8.77659">
        <ele>70.36816</ele>
        <time>2021-07-11T14:56:16Z</time>
      </trkpt>
      <trkpt lat="37.6001" lon="-8.77366">
        <ele>71.94816</ele>
        <time>2021-07-11T14:56:27Z</time>
      </trkpt>
      <trkpt lat="37.59924" lon="-8.77134">
        <ele>72.42346</ele>
        <time>2021-07-11T14:56:38Z</time>
      </trkpt>
      <trkpt lat="37.59748" lon="-8.76927">
        <ele>76.95378</ele>
        <time>2021-07-11T14:56:49Z</time>
      </trkpt>
      <trkpt lat="37.59566" lon="-8.7671">
        <ele>78.25997</ele>
        <time>2021-07-11T14:57:00Z</time>
      </trkpt>
      <trkpt lat="37.59392" lon="-8.76508">
        <ele>78.09383</ele>
        <time>2021-07-11T14:57:11Z</time>
      </trkpt>
      <trkpt lat="37.59399" lon="-8.76277">
        <ele>74.5456</ele>
        <time>2021-07-11T14:57:22Z</time>
      </trkpt>
      <trkpt lat="37.59514" lon="-8.76002">
        <ele>71.37393</ele>
        <time>2021-07-11T14:57:33Z</time>
      </trkpt>
      <trkpt lat="37.59627" lon="-8.75731">
        <ele>68.6528</ele>
        <time>2021-07-11T14:57:44Z</time>
      </trkpt>
      <trkpt lat="37.59741" lon="-8.75459">
        <ele>69.34263</ele>
        <time>2021-07-11T14:57:55Z</time>
      </trkpt>
      <trkpt lat="37.59857" lon="-8.75181">
        <ele>64.64484</ele>
        <time>2021-07-11T14:58:06Z</time>
      </trkpt>
      <trkpt lat="37.59972" lon="-8.74903">
        <ele>62.10115</ele>
        <time>2021-07-11T14:58:17Z</time>
      </trkpt>
      <trkpt lat="37.60083" lon="-8.74635">
        <ele>60.25591</ele>
        <time>2021-07-11T14:58:28Z</time>
      </trkpt>
      <trkpt lat="37.60149" lon="-8.74466">
        <ele>60.15021</ele>
        <time>2021-07-11T14:58:40Z</time>
      </trkpt>
      <trkpt lat="37.60029" lon="-8.7442">
        <ele>61.36505</ele>
        <time>2021-07-11T14:58:51Z</time>
      </trkpt>
      <trkpt lat="37.5979" lon="-8.74353">
        <ele>63.97104</ele>
        <time>2021-07-11T14:59:02Z</time>
      </trkpt>
      <trkpt lat="37.59553" lon="-8.74284">
        <ele>61.67245</ele>
        <time>2021-07-11T14:59:13Z</time>
      </trkpt>
      <trkpt lat="37.59317" lon="-8.742">
        <ele>58.19348</ele>
        <time>2021-07-11T14:59:24Z</time>
      </trkpt>
      <trkpt lat="37.59093" lon="-8.74118">
        <ele>53.36956</ele>
        <time>2021-07-11T14:59:35Z</time>
      </trkpt>
      <trkpt lat="37.58892" lon="-8.74044">
        <ele>57.40758</ele>
        <time>2021-07-11T14:59:46Z</time>
      </trkpt>
      <trkpt lat="37.58663" lon="-8.73954">
        <ele>59.61901</ele>
        <time>2021-07-11T14:59:57Z</time>
      </trkpt>
      <trkpt lat="37.58426" lon="-8.73896">
        <ele>61.69653</ele>
        <time>2021-07-11T15:00:08Z</time>
      </trkpt>
      <trkpt lat="37.58187" lon="-8.73866">
        <ele>64.12484</ele>
        <time>2021-07-11T15:00:19Z</time>
      </trkpt>
      <trkpt lat="37.57945" lon="-8.7383">
        <ele>66.66821</ele>
        <time>2021-07-11T15:00:30Z</time>
      </trkpt>
      <trkpt lat="37.57697" lon="-8.73796">
        <ele>64.80723</ele>
        <time>2021-07-11T15:00:41Z</time>
      </trkpt>
      <trkpt lat="37.57476" lon="-8.73767">
        <ele>68.34852</ele>
        <time>2021-07-11T15:00:52Z</time>
      </trkpt>
      <trkpt lat="37.57234" lon="-8.73736">
        <ele>73.60011</ele>
        <time>2021-07-11T15:01:03Z</time>
      </trkpt>
      <trkpt lat="37.56989" lon="-8.73702">
        <ele>78.78972</ele>
        <time>2021-07-11T15:01:14Z</time>
      </trkpt>
      <trkpt lat="37.56726" lon="-8.73663">
        <ele>81.67169</ele>
        <time>2021-07-11T15:01:25Z</time>
      </trkpt>
      <trkpt lat="37.56503" lon="-8.73634">
        <ele>84.71175</ele>
        <time>2021-07-11T15:01:36Z</time>
      </trkpt>
      <trkpt lat="37.56284" lon="-8.73604">
        <ele>88.82353</ele>
        <time>2021-07-11T15:01:47Z</time>
      </trkpt>
      <trkpt lat="37.56063" lon="-8.73573">
        <ele>92.15176</ele>
        <time>2021-07-11T15:01:58Z</time>
      </trkpt>
      <trkpt lat="37.55869" lon="-8.73546">
        <ele>94.98087</ele>
        <time>2021-07-11T15:02:09Z</time>
      </trkpt>
      <trkpt lat="37.55664" lon="-8.7352">
        <ele>100.8673</ele>
        <time>2021-07-11T15:02:20Z</time>
      </trkpt>
      <trkpt lat="37.55456" lon="-8.73492">
        <ele>104.2678</ele>
        <time>2021-07-11T15:02:31Z</time>
      </trkpt>
      <trkpt lat="37.55259" lon="-8.73462">
        <ele>104.8613</ele>
        <time>2021-07-11T15:02:42Z</time>
      </trkpt>
      <trkpt lat="37.5508" lon="-8.73438">
        <ele>104.8519</ele>
        <time>2021-07-11T15:02:53Z</time>
      </trkpt>
      <trkpt lat="37.54921" lon="-8.73418">
        <ele>113.4893</ele>
        <time>2021-07-11T15:03:04Z</time>
      </trkpt>
      <trkpt lat="37.54882" lon="-8.73421">
        <ele>116.1032</ele>
        <time>2021-07-11T15:03:15Z</time>
      </trkpt>
      <trkpt lat="37.54853" lon="-8.73398">
        <ele>116.5741</ele>
        <time>2021-07-11T15:03:26Z</time>
      </trkpt>
      <trkpt lat="37.5475" lon="-8.73263">
        <ele>121.9227</ele>
        <time>2021-07-11T15:03:37Z</time>
      </trkpt>
      <trkpt lat="37.54606" lon="-8.73067">
        <ele>122.8202</ele>
        <time>2021-07-11T15:03:48Z</time>
      </trkpt>
      <trkpt lat="37.54438" lon="-8.72839">
        <ele>114.245</ele>
        <time>2021-07-11T15:03:59Z</time>
      </trkpt>
      <trkpt lat="37.54266" lon="-8.72611">
        <ele>106.431</ele>
        <time>2021-07-11T15:04:10Z</time>
      </trkpt>
      <trkpt lat="37.54093" lon="-8.72379">
        <ele>107.6824</ele>
        <time>2021-07-11T15:04:21Z</time>
      </trkpt>
      <trkpt lat="37.53917" lon="-8.72172">
        <ele>114.463</ele>
        <time>2021-07-11T15:04:32Z</time>
      </trkpt>
      <trkpt lat="37.53731" lon="-8.72044">
        <ele>123.032</ele>
        <time>2021-07-11T15:04:43Z</time>
      </trkpt>
      <trkpt lat="37.53561" lon="-8.71922">
        <ele>125.2301</ele>
        <time>2021-07-11T15:04:54Z</time>
      </trkpt>
      <trkpt lat="37.53405" lon="-8.71813">
        <ele>129.34</ele>
        <time>2021-07-11T15:05:05Z</time>
      </trkpt>
      <trkpt lat="37.53248" lon="-8.71728">
        <ele>129.8877</ele>
        <time>2021-07-11T15:05:16Z</time>
      </trkpt>
      <trkpt lat="37.53166" lon="-8.71696">
        <ele>134.2103</ele>
        <time>2021-07-11T15:05:27Z</time>
      </trkpt>
      <trkpt lat="37.53031" lon="-8.71629">
        <ele>141.0068</ele>
        <time>2021-07-11T15:05:38Z</time>
      </trkpt>
      <trkpt lat="37.52861" lon="-8.71543">
        <ele>142.9586</ele>
        <time>2021-07-11T15:05:49Z</time>
      </trkpt>
      <trkpt lat="37.5268" lon="-8.71451">
        <ele>149.3135</ele>
        <time>2021-07-11T15:06:00Z</time>
      </trkpt>
      <trkpt lat="37.52508" lon="-8.71366">
        <ele>156.8107</ele>
        <time>2021-07-11T15:06:11Z</time>
      </trkpt>
      <trkpt lat="37.52329" lon="-8.71271">
        <ele>160.8979</ele>
        <time>2021-07-11T15:06:22Z</time>
      </trkpt>
      <trkpt lat="37.52142" lon="-8.71176">
        <ele>164.5672</ele>
        <time>2021-07-11T15:06:33Z</time>
      </trkpt>
      <trkpt lat="37.51973" lon="-8.71067">
        <ele>167.5943</ele>
        <time>2021-07-11T15:06:44Z</time>
      </trkpt>
      <trkpt lat="37.51853" lon="-8.70963">
        <ele>161.2357</ele>
        <time>2021-07-11T15:06:55Z</time>
      </trkpt>
      <trkpt lat="37.51762" lon="-8.70884">
        <ele>157.8768</ele>
        <time>2021-07-11T15:07:06Z</time>
      </trkpt>
      <trkpt lat="37.517" lon="-8.70896">
        <ele>154.1348</ele>
        <time>2021-07-11T15:07:17Z</time>
      </trkpt>
      <trkpt lat="37.5163" lon="-8.70967">
        <ele>152.3088</ele>
        <time>2021-07-11T15:07:28Z</time>
      </trkpt>
      <trkpt lat="37.51622" lon="-8.7097">
        <ele>153.5932</ele>
        <time>2021-07-11T15:07:39Z</time>
      </trkpt>
      <trkpt lat="37.51599" lon="-8.70988">
        <ele>155.2804</ele>
        <time>2021-07-11T15:07:50Z</time>
      </trkpt>
      <trkpt lat="37.51496" lon="-8.71062">
        <ele>159.1828</ele>
        <time>2021-07-11T15:08:01Z</time>
      </trkpt>
      <trkpt lat="37.51367" lon="-8.71163">
        <ele>165.8478</ele>
        <time>2021-07-11T15:08:12Z</time>
      </trkpt>
      <trkpt lat="37.5125" lon="-8.71292">
        <ele>171.8963</ele>
        <time>2021-07-11T15:08:23Z</time>
      </trkpt>
      <trkpt lat="37.51191" lon="-8.71464">
        <ele>176.0832</ele>
        <time>2021-07-11T15:08:34Z</time>
      </trkpt>
      <trkpt lat="37.51112" lon="-8.71643">
        <ele>183.6231</ele>
        <time>2021-07-11T15:08:45Z</time>
      </trkpt>
      <trkpt lat="37.51036" lon="-8.71749">
        <ele>186.016</ele>
        <time>2021-07-11T15:08:56Z</time>
      </trkpt>
      <trkpt lat="37.50943" lon="-8.71826">
        <ele>188.947</ele>
        <time>2021-07-11T15:09:07Z</time>
      </trkpt>
      <trkpt lat="37.50833" lon="-8.71964">
        <ele>189.8243</ele>
        <time>2021-07-11T15:09:18Z</time>
      </trkpt>
      <trkpt lat="37.50677" lon="-8.71977">
        <ele>191.9419</ele>
        <time>2021-07-11T15:09:29Z</time>
      </trkpt>
      <trkpt lat="37.50538" lon="-8.7205">
        <ele>199.6752</ele>
        <time>2021-07-11T15:09:40Z</time>
      </trkpt>
      <trkpt lat="37.50422" lon="-8.72054">
        <ele>201.658</ele>
        <time>2021-07-11T15:09:51Z</time>
      </trkpt>
      <trkpt lat="37.50311" lon="-8.71932">
        <ele>202.4354</ele>
        <time>2021-07-11T15:10:02Z</time>
      </trkpt>
      <trkpt lat="37.50175" lon="-8.71827">
        <ele>201.8744</ele>
        <time>2021-07-11T15:10:13Z</time>
      </trkpt>
      <trkpt lat="37.50016" lon="-8.71833">
        <ele>191.6675</ele>
        <time>2021-07-11T15:10:24Z</time>
      </trkpt>
      <trkpt lat="37.49856" lon="-8.71912">
        <ele>183.4901</ele>
        <time>2021-07-11T15:10:35Z</time>
      </trkpt>
      <trkpt lat="37.49693" lon="-8.71992">
        <ele>175.4274</ele>
        <time>2021-07-11T15:10:46Z</time>
      </trkpt>
      <trkpt lat="37.49558" lon="-8.72107">
        <ele>168.6776</ele>
        <time>2021-07-11T15:10:57Z</time>
      </trkpt>
      <trkpt lat="37.49395" lon="-8.72136">
        <ele>161.5504</ele>
        <time>2021-07-11T15:11:08Z</time>
      </trkpt>
      <trkpt lat="37.49227" lon="-8.72145">
        <ele>156.2939</ele>
        <time>2021-07-11T15:11:20Z</time>
      </trkpt>
      <trkpt lat="37.48986" lon="-8.72228">
        <ele>143.721</ele>
        <time>2021-07-11T15:11:31Z</time>
      </trkpt>
      <trkpt lat="37.48701" lon="-8.72308">
        <ele>135.4238</ele>
        <time>2021-07-11T15:11:42Z</time>
      </trkpt>
      <trkpt lat="37.48516" lon="-8.72193">
        <ele>146.5712</ele>
        <time>2021-07-11T15:11:53Z</time>
      </trkpt>
      <trkpt lat="37.48366" lon="-8.72176">
        <ele>156.4188</ele>
        <time>2021-07-11T15:12:04Z</time>
      </trkpt>
      <trkpt lat="37.48241" lon="-8.7219">
        <ele>163.9101</ele>
        <time>2021-07-11T15:12:15Z</time>
      </trkpt>
      <trkpt lat="37.48159" lon="-8.72313">
        <ele>162.8985</ele>
        <time>2021-07-11T15:12:26Z</time>
      </trkpt>
      <trkpt lat="37.48095" lon="-8.72494">
        <ele>163.6278</ele>
        <time>2021-07-11T15:12:37Z</time>
      </trkpt>
      <trkpt lat="37.48007" lon="-8.72741">
        <ele>161.7506</ele>
        <time>2021-07-11T15:12:48Z</time>
      </trkpt>
      <trkpt lat="37.47912" lon="-8.73004">
        <ele>152.5108</ele>
        <time>2021-07-11T15:12:59Z</time>
      </trkpt>
      <trkpt lat="37.47811" lon="-8.73289">
        <ele>145.1537</ele>
        <time>2021-07-11T15:13:10Z</time>
      </trkpt>
      <trkpt lat="37.47707" lon="-8.73577">
        <ele>140.1046</ele>
        <time>2021-07-11T15:13:21Z</time>
      </trkpt>
      <trkpt lat="37.47603" lon="-8.73869">
        <ele>132.1187</ele>
        <time>2021-07-11T15:13:32Z</time>
      </trkpt>
      <trkpt lat="37.47497" lon="-8.74164">
        <ele>123.1126</ele>
        <time>2021-07-11T15:13:43Z</time>
      </trkpt>
      <trkpt lat="37.47363" lon="-8.74428">
        <ele>120.7757</ele>
        <time>2021-07-11T15:13:54Z</time>
      </trkpt>
      <trkpt lat="37.47159" lon="-8.7462">
        <ele>119.9381</ele>
        <time>2021-07-11T15:14:05Z</time>
      </trkpt>
      <trkpt lat="37.46955" lon="-8.74807">
        <ele>108.5989</ele>
        <time>2021-07-11T15:14:16Z</time>
      </trkpt>
      <trkpt lat="37.4677" lon="-8.74978">
        <ele>100.1168</ele>
        <time>2021-07-11T15:14:27Z</time>
      </trkpt>
      <trkpt lat="37.46598" lon="-8.75137">
        <ele>99.53117</ele>
        <time>2021-07-11T15:14:38Z</time>
      </trkpt>
      <trkpt lat="37.46468" lon="-8.75257">
        <ele>94.08832</ele>
        <time>2021-07-11T15:14:49Z</time>
      </trkpt>
      <trkpt lat="37.4628" lon="-8.7543">
        <ele>97.22278</ele>
        <time>2021-07-11T15:15:00Z</time>
      </trkpt>
      <trkpt lat="37.46071" lon="-8.7558">
        <ele>88.31342</ele>
        <time>2021-07-11T15:15:11Z</time>
      </trkpt>
      <trkpt lat="37.4584" lon="-8.75689">
        <ele>85.84423</ele>
        <time>2021-07-11T15:15:22Z</time>
      </trkpt>
      <trkpt lat="37.45617" lon="-8.7579">
        <ele>90.20376</ele>
        <time>2021-07-11T15:15:33Z</time>
      </trkpt>
      <trkpt lat="37.4537" lon="-8.75897">
        <ele>88.70677</ele>
        <time>2021-07-11T15:15:44Z</time>
      </trkpt>
      <trkpt lat="37.451" lon="-8.76019">
        <ele>87.89052</ele>
        <time>2021-07-11T15:15:55Z</time>
      </trkpt>
      <trkpt lat="37.44856" lon="-8.76126">
        <ele>83.17422</ele>
        <time>2021-07-11T15:16:06Z</time>
      </trkpt>
      <trkpt lat="37.44645" lon="-8.76145">
        <ele>80.01468</ele>
        <time>2021-07-11T15:16:17Z</time>
      </trkpt>
      <trkpt lat="37.44493" lon="-8.75947">
        <ele>72.95749</ele>
        <time>2021-07-11T15:16:28Z</time>
      </trkpt>
      <trkpt lat="37.44335" lon="-8.75766">
        <ele>63.54977</ele>
        <time>2021-07-11T15:16:39Z</time>
      </trkpt>
      <trkpt lat="37.44156" lon="-8.75696">
        <ele>52.44965</ele>
        <time>2021-07-11T15:16:50Z</time>
      </trkpt>
      <trkpt lat="37.43946" lon="-8.75671">
        <ele>50.46971</ele>
        <time>2021-07-11T15:17:01Z</time>
      </trkpt>
      <trkpt lat="37.43738" lon="-8.75602">
        <ele>39.55558</ele>
        <time>2021-07-11T15:17:12Z</time>
      </trkpt>
      <trkpt lat="37.43537" lon="-8.75654">
        <ele>30.40135</ele>
        <time>2021-07-11T15:17:23Z</time>
      </trkpt>
      <trkpt lat="37.43442" lon="-8.75797">
        <ele>18.20942</ele>
        <time>2021-07-11T15:17:34Z</time>
      </trkpt>
      <trkpt lat="37.43396" lon="-8.75896">
        <ele>18.34744</ele>
        <time>2021-07-11T15:17:45Z</time>
      </trkpt>
      <trkpt lat="37.43379" lon="-8.75947">
        <ele>19.00406</ele>
        <time>2021-07-11T15:17:56Z</time>
      </trkpt>
      <trkpt lat="37.43405" lon="-8.76133">
        <ele>12.94431</ele>
        <time>2021-07-11T15:18:07Z</time>
      </trkpt>
      <trkpt lat="37.43462" lon="-8.76291">
        <ele>8.398655</ele>
        <time>2021-07-11T15:18:18Z</time>
      </trkpt>
      <trkpt lat="37.43537" lon="-8.76453">
        <ele>5.124542</ele>
        <time>2021-07-11T15:18:29Z</time>
      </trkpt>
      <trkpt lat="37.43398" lon="-8.76597">
        <ele>4.505213</ele>
        <time>2021-07-11T15:18:40Z</time>
      </trkpt>
      <trkpt lat="37.43402" lon="-8.76769">
        <ele>13.43721</ele>
        <time>2021-07-11T15:18:51Z</time>
      </trkpt>
      <trkpt lat="37.43326" lon="-8.76915">
        <ele>23.14939</ele>
        <time>2021-07-11T15:19:02Z</time>
      </trkpt>
      <trkpt lat="37.43169" lon="-8.76779">
        <ele>32.55526</ele>
        <time>2021-07-11T15:19:13Z</time>
      </trkpt>
      <trkpt lat="37.43136" lon="-8.76839">
        <ele>39.75216</ele>
        <time>2021-07-11T15:19:24Z</time>
      </trkpt>
      <trkpt lat="37.43133" lon="-8.76924">
        <ele>48.64321</ele>
        <time>2021-07-11T15:19:35Z</time>
      </trkpt>
      <trkpt lat="37.43013" lon="-8.76812">
        <ele>63.22995</ele>
        <time>2021-07-11T15:19:46Z</time>
      </trkpt>
      <trkpt lat="37.42833" lon="-8.76671">
        <ele>74.96257</ele>
        <time>2021-07-11T15:19:58Z</time>
      </trkpt>
      <trkpt lat="37.42734" lon="-8.76605">
        <ele>81.63753</ele>
        <time>2021-07-11T15:20:09Z</time>
      </trkpt>
      <trkpt lat="37.42629" lon="-8.76609">
        <ele>89.12437</ele>
        <time>2021-07-11T15:20:20Z</time>
      </trkpt>
      <trkpt lat="37.42508" lon="-8.76575">
        <ele>96.04261</ele>
        <time>2021-07-11T15:20:31Z</time>
      </trkpt>
      <trkpt lat="37.42347" lon="-8.76662">
        <ele>100.1658</ele>
        <time>2021-07-11T15:20:42Z</time>
      </trkpt>
      <trkpt lat="37.42166" lon="-8.76735">
        <ele>102.2439</ele>
        <time>2021-07-11T15:20:53Z</time>
      </trkpt>
      <trkpt lat="37.41948" lon="-8.76677">
        <ele>108.2914</ele>
        <time>2021-07-11T15:21:04Z</time>
      </trkpt>
      <trkpt lat="37.41733" lon="-8.7668">
        <ele>109.6001</ele>
        <time>2021-07-11T15:21:15Z</time>
      </trkpt>
      <trkpt lat="37.41511" lon="-8.76719">
        <ele>109.9571</ele>
        <time>2021-07-11T15:21:26Z</time>
      </trkpt>
      <trkpt lat="37.41291" lon="-8.76757">
        <ele>111.4742</ele>
        <time>2021-07-11T15:21:37Z</time>
      </trkpt>
      <trkpt lat="37.41125" lon="-8.76789">
        <ele>118.6429</ele>
        <time>2021-07-11T15:21:48Z</time>
      </trkpt>
      <trkpt lat="37.40976" lon="-8.76847">
        <ele>117.0785</ele>
        <time>2021-07-11T15:21:59Z</time>
      </trkpt>
      <trkpt lat="37.40823" lon="-8.77021">
        <ele>113.78</ele>
        <time>2021-07-11T15:22:10Z</time>
      </trkpt>
      <trkpt lat="37.4066" lon="-8.77208">
        <ele>107.0396</ele>
        <time>2021-07-11T15:22:21Z</time>
      </trkpt>
      <trkpt lat="37.40504" lon="-8.77388">
        <ele>108.1833</ele>
        <time>2021-07-11T15:22:32Z</time>
      </trkpt>
      <trkpt lat="37.40349" lon="-8.77565">
        <ele>110.3647</ele>
        <time>2021-07-11T15:22:43Z</time>
      </trkpt>
      <trkpt lat="37.40182" lon="-8.77751">
        <ele>104.8177</ele>
        <time>2021-07-11T15:22:54Z</time>
      </trkpt>
      <trkpt lat="37.4001" lon="-8.77941">
        <ele>98.628</ele>
        <time>2021-07-11T15:23:05Z</time>
      </trkpt>
      <trkpt lat="37.3987" lon="-8.78089">
        <ele>93.71979</ele>
        <time>2021-07-11T15:23:16Z</time>
      </trkpt>
      <trkpt lat="37.39793" lon="-8.78167">
        <ele>95.25375</ele>
        <time>2021-07-11T15:23:27Z</time>
      </trkpt>
      <trkpt lat="37.39707" lon="-8.78237">
        <ele>97.42302</ele>
        <time>2021-07-11T15:23:38Z</time>
      </trkpt>
      <trkpt lat="37.3958" lon="-8.78342">
        <ele>100.9308</ele>
        <time>2021-07-11T15:23:49Z</time>
      </trkpt>
      <trkpt lat="37.39472" lon="-8.78429">
        <ele>101.2462</ele>
        <time>2021-07-11T15:24:00Z</time>
      </trkpt>
      <trkpt lat="37.39359" lon="-8.78521">
        <ele>102.9872</ele>
        <time>2021-07-11T15:24:11Z</time>
      </trkpt>
      <trkpt lat="37.39228" lon="-8.78624">
        <ele>102.6595</ele>
        <time>2021-07-11T15:24:22Z</time>
      </trkpt>
      <trkpt lat="37.39089" lon="-8.78735">
        <ele>99.64576</ele>
        <time>2021-07-11T15:24:33Z</time>
      </trkpt>
      <trkpt lat="37.38935" lon="-8.78862">
        <ele>98.42661</ele>
        <time>2021-07-11T15:24:44Z</time>
      </trkpt>
      <trkpt lat="37.38768" lon="-8.78993">
        <ele>94.12392</ele>
        <time>2021-07-11T15:24:55Z</time>
      </trkpt>
      <trkpt lat="37.38577" lon="-8.79146">
        <ele>91.7445</ele>
        <time>2021-07-11T15:25:06Z</time>
      </trkpt>
      <trkpt lat="37.38378" lon="-8.79303">
        <ele>89.69297</ele>
        <time>2021-07-11T15:25:17Z</time>
      </trkpt>
      <trkpt lat="37.3819" lon="-8.79454">
        <ele>90.10398</ele>
        <time>2021-07-11T15:25:28Z</time>
      </trkpt>
      <trkpt lat="37.38" lon="-8.79606">
        <ele>88.3437</ele>
        <time>2021-07-11T15:25:39Z</time>
      </trkpt>
      <trkpt lat="37.37799" lon="-8.79762">
        <ele>87.50261</ele>
        <time>2021-07-11T15:25:50Z</time>
      </trkpt>
      <trkpt lat="37.37644" lon="-8.79886">
        <ele>88.19788</ele>
        <time>2021-07-11T15:26:01Z</time>
      </trkpt>
      <trkpt lat="37.37501" lon="-8.79927">
        <ele>85.85986</ele>
        <time>2021-07-11T15:26:12Z</time>
      </trkpt>
      <trkpt lat="37.37386" lon="-8.7995">
        <ele>88.66548</ele>
        <time>2021-07-11T15:26:23Z</time>
      </trkpt>
      <trkpt lat="37.37269" lon="-8.79971">
        <ele>91.30357</ele>
        <time>2021-07-11T15:26:34Z</time>
      </trkpt>
      <trkpt lat="37.3718" lon="-8.79988">
        <ele>90.8015</ele>
        <time>2021-07-11T15:26:45Z</time>
      </trkpt>
      <trkpt lat="37.37172" lon="-8.79987">
        <ele>89.19949</ele>
        <time>2021-07-11T15:26:56Z</time>
      </trkpt>
      <trkpt lat="37.37176" lon="-8.79982">
        <ele>88.89708</ele>
        <time>2021-07-11T15:27:10Z</time>
      </trkpt>
      <trkpt lat="37.37276" lon="-8.79954">
        <ele>90.12548</ele>
        <time>2021-07-11T15:27:21Z</time>
      </trkpt>
      <trkpt lat="37.37391" lon="-8.79938">
        <ele>88.42306</ele>
        <time>2021-07-11T15:27:32Z</time>
      </trkpt>
      <trkpt lat="37.37487" lon="-8.79922">
        <ele>89.22531</ele>
        <time>2021-07-11T15:27:43Z</time>
      </trkpt>
      <trkpt lat="37.37537" lon="-8.79964">
        <ele>87.47893</ele>
        <time>2021-07-11T15:27:54Z</time>
      </trkpt>
      <trkpt lat="37.37544" lon="-8.79978">
        <ele>86.70233</ele>
        <time>2021-07-11T15:28:05Z</time>
      </trkpt>
      <trkpt lat="37.37544" lon="-8.79978">
        <ele>85.92112</ele>
        <time>2021-07-11T15:29:04Z</time>
      </trkpt>
      <trkpt lat="37.37543" lon="-8.79977">
        <ele>86.8666</ele>
        <time>2021-07-11T15:30:02Z</time>
      </trkpt>
      <trkpt lat="37.37543" lon="-8.79977">
        <ele>87.84404</ele>
        <time>2021-07-11T15:31:00Z</time>
      </trkpt>
      <trkpt lat="37.37539" lon="-8.79981">
        <ele>89.16285</ele>
        <time>2021-07-11T15:31:11Z</time>
      </trkpt>
      <trkpt lat="37.37537" lon="-8.79976">
        <ele>89.20745</ele>
        <time>2021-07-11T15:32:06Z</time>
      </trkpt>
      <trkpt lat="37.37534" lon="-8.79973">
        <ele>90.62101</ele>
        <time>2021-07-11T15:32:19Z</time>
      </trkpt>
      <trkpt lat="37.37531" lon="-8.79978">
        <ele>88.22337</ele>
        <time>2021-07-11T15:32:30Z</time>
      </trkpt>
      <trkpt lat="37.37527" lon="-8.79982">
        <ele>89.21665</ele>
        <time>2021-07-11T15:32:41Z</time>
      </trkpt>
      <trkpt lat="37.37524" lon="-8.79982">
        <ele>87.42726</ele>
        <time>2021-07-11T15:32:57Z</time>
      </trkpt>
      <trkpt lat="37.37522" lon="-8.79986">
        <ele>89.52697</ele>
        <time>2021-07-11T15:33:08Z</time>
      </trkpt>
      <trkpt lat="37.37524" lon="-8.79982">
        <ele>89.41422</ele>
        <time>2021-07-11T15:33:56Z</time>
      </trkpt>
      <trkpt lat="37.37525" lon="-8.79978">
        <ele>89.45532</ele>
        <time>2021-07-11T15:34:08Z</time>
      </trkpt>
      <trkpt lat="37.37523" lon="-8.79974">
        <ele>89.39527</ele>
        <time>2021-07-11T15:34:43Z</time>
      </trkpt>
      <trkpt lat="37.37524" lon="-8.79973">
        <ele>89.45545</ele>
        <time>2021-07-11T15:35:42Z</time>
      </trkpt>
      <trkpt lat="37.37524" lon="-8.79978">
        <ele>89.50207</ele>
        <time>2021-07-11T15:36:06Z</time>
      </trkpt>
      <trkpt lat="37.37519" lon="-8.79984">
        <ele>89.67328</ele>
        <time>2021-07-11T15:36:17Z</time>
      </trkpt>
      <trkpt lat="37.3752" lon="-8.79988">
        <ele>92.72463</ele>
        <time>2021-07-11T15:36:36Z</time>
      </trkpt>
      <trkpt lat="37.37523" lon="-8.79991">
        <ele>87.66476</ele>
        <time>2021-07-11T15:37:22Z</time>
      </trkpt>
      <trkpt lat="37.3752" lon="-8.79989">
        <ele>88.8517</ele>
        <time>2021-07-11T15:37:42Z</time>
      </trkpt>
      <trkpt lat="37.37527" lon="-8.79995">
        <ele>88.90162</ele>
        <time>2021-07-11T15:37:53Z</time>
      </trkpt>
      <trkpt lat="37.37521" lon="-8.79989">
        <ele>88.9788</ele>
        <time>2021-07-11T15:38:04Z</time>
      </trkpt>
      <trkpt lat="37.37527" lon="-8.79995">
        <ele>87.22302</ele>
        <time>2021-07-11T15:38:15Z</time>
      </trkpt>
      <trkpt lat="37.37528" lon="-8.79992">
        <ele>89.42664</ele>
        <time>2021-07-11T15:39:14Z</time>
      </trkpt>
      <trkpt lat="37.37529" lon="-8.79992">
        <ele>89.0311</ele>
        <time>2021-07-11T15:40:12Z</time>
      </trkpt>
      <trkpt lat="37.37527" lon="-8.7999">
        <ele>89.03494</ele>
        <time>2021-07-11T15:41:10Z</time>
      </trkpt>
      <trkpt lat="37.37527" lon="-8.79992">
        <ele>89.23904</ele>
        <time>2021-07-11T15:42:09Z</time>
      </trkpt>
      <trkpt lat="37.37528" lon="-8.79993">
        <ele>88.78161</ele>
        <time>2021-07-11T15:43:07Z</time>
      </trkpt>
      <trkpt lat="37.37527" lon="-8.79993">
        <ele>89.18478</ele>
        <time>2021-07-11T15:44:06Z</time>
      </trkpt>
      <trkpt lat="37.37527" lon="-8.79993">
        <ele>89.16645</ele>
        <time>2021-07-11T15:45:05Z</time>
      </trkpt>
      <trkpt lat="37.37527" lon="-8.79993">
        <ele>89.16645</ele>
        <time>2021-07-11T15:46:04Z</time>
      </trkpt>
      <trkpt lat="37.37527" lon="-8.79992">
        <ele>88.76329</ele>
        <time>2021-07-11T15:47:03Z</time>
      </trkpt>
      <trkpt lat="37.37527" lon="-8.79992">
        <ele>88.76329</ele>
        <time>2021-07-11T15:48:02Z</time>
      </trkpt>
      <trkpt lat="37.37527" lon="-8.79992">
        <ele>88.76329</ele>
        <time>2021-07-11T15:49:01Z</time>
      </trkpt>
      <trkpt lat="37.37527" lon="-8.79993">
        <ele>89.26767</ele>
        <time>2021-07-11T15:50:00Z</time>
      </trkpt>
      <trkpt lat="37.37527" lon="-8.79992">
        <ele>89.19638</ele>
        <time>2021-07-11T15:50:59Z</time>
      </trkpt>
      <trkpt lat="37.37527" lon="-8.79992">
        <ele>89.19638</ele>
        <time>2021-07-11T15:51:58Z</time>
      </trkpt>
      <trkpt lat="37.37527" lon="-8.79991">
        <ele>89.20659</ele>
        <time>2021-07-11T15:52:57Z</time>
      </trkpt>
      <trkpt lat="37.37527" lon="-8.79992">
        <ele>89.24074</ele>
        <time>2021-07-11T15:53:56Z</time>
      </trkpt>
      <trkpt lat="37.37527" lon="-8.79991">
        <ele>89.24137</ele>
        <time>2021-07-11T15:54:55Z</time>
      </trkpt>
      <trkpt lat="37.37527" lon="-8.79992">
        <ele>89.08158</ele>
        <time>2021-07-11T15:55:54Z</time>
      </trkpt>
      <trkpt lat="37.37529" lon="-8.79993">
        <ele>89.44942</ele>
        <time>2021-07-11T15:56:53Z</time>
      </trkpt>
      <trkpt lat="37.37529" lon="-8.79993">
        <ele>89.44942</ele>
        <time>2021-07-11T15:57:52Z</time>
      </trkpt>
      <trkpt lat="37.37529" lon="-8.79993">
        <ele>89.45019</ele>
        <time>2021-07-11T15:58:51Z</time>
      </trkpt>
      <trkpt lat="37.37527" lon="-8.79992">
        <ele>89.231</ele>
        <time>2021-07-11T15:59:50Z</time>
      </trkpt>
      <trkpt lat="37.37528" lon="-8.79992">
        <ele>88.70237</ele>
        <time>2021-07-11T16:00:49Z</time>
      </trkpt>
      <trkpt lat="37.37527" lon="-8.79992">
        <ele>89.11935</ele>
        <time>2021-07-11T16:01:48Z</time>
      </trkpt>
      <trkpt lat="37.37527" lon="-8.79992">
        <ele>89.11935</ele>
        <time>2021-07-11T16:02:47Z</time>
      </trkpt>
      <trkpt lat="37.37526" lon="-8.79993">
        <ele>89.34158</ele>
        <time>2021-07-11T16:03:46Z</time>
      </trkpt>
      <trkpt lat="37.37531" lon="-8.79991">
        <ele>89.82068</ele>
        <time>2021-07-11T16:04:10Z</time>
      </trkpt>
      <trkpt lat="37.37532" lon="-8.79979">
        <ele>89.89104</ele>
        <time>2021-07-11T16:04:21Z</time>
      </trkpt>
      <trkpt lat="37.3754" lon="-8.79984">
        <ele>89.5462</ele>
        <time>2021-07-11T16:04:32Z</time>
      </trkpt>
      <trkpt lat="37.3754" lon="-8.79981">
        <ele>89.22025</ele>
        <time>2021-07-11T16:05:30Z</time>
      </trkpt>
      <trkpt lat="37.37541" lon="-8.79982">
        <ele>89.17463</ele>
        <time>2021-07-11T16:06:30Z</time>
      </trkpt>
      <trkpt lat="37.37542" lon="-8.79982">
        <ele>90.06756</ele>
        <time>2021-07-11T16:07:29Z</time>
      </trkpt>
      <trkpt lat="37.37542" lon="-8.79983">
        <ele>89.22998</ele>
        <time>2021-07-11T16:08:28Z</time>
      </trkpt>
      <trkpt lat="37.37524" lon="-8.79953">
        <ele>88.38102</ele>
        <time>2021-07-11T16:08:39Z</time>
      </trkpt>
      <trkpt lat="37.37497" lon="-8.79929">
        <ele>88.81607</ele>
        <time>2021-07-11T16:08:50Z</time>
      </trkpt>
      <trkpt lat="37.37376" lon="-8.79949">
        <ele>88.91233</ele>
        <time>2021-07-11T16:09:01Z</time>
      </trkpt>
      <trkpt lat="37.37241" lon="-8.79975">
        <ele>91.37239</ele>
        <time>2021-07-11T16:09:12Z</time>
      </trkpt>
      <trkpt lat="37.37104" lon="-8.79997">
        <ele>91.70064</ele>
        <time>2021-07-11T16:09:23Z</time>
      </trkpt>
      <trkpt lat="37.37008" lon="-8.80011">
        <ele>93.85098</ele>
        <time>2021-07-11T16:09:34Z</time>
      </trkpt>
      <trkpt lat="37.36876" lon="-8.80039">
        <ele>93.29284</ele>
        <time>2021-07-11T16:09:45Z</time>
      </trkpt>
      <trkpt lat="37.36738" lon="-8.80062">
        <ele>96.81019</ele>
        <time>2021-07-11T16:09:56Z</time>
      </trkpt>
      <trkpt lat="37.36606" lon="-8.8008">
        <ele>98.60402</ele>
        <time>2021-07-11T16:10:07Z</time>
      </trkpt>
      <trkpt lat="37.36434" lon="-8.80077">
        <ele>99.70336</ele>
        <time>2021-07-11T16:10:18Z</time>
      </trkpt>
      <trkpt lat="37.36274" lon="-8.80073">
        <ele>100.4463</ele>
        <time>2021-07-11T16:10:29Z</time>
      </trkpt>
      <trkpt lat="37.36107" lon="-8.80073">
        <ele>101.4297</ele>
        <time>2021-07-11T16:10:40Z</time>
      </trkpt>
      <trkpt lat="37.35923" lon="-8.80071">
        <ele>103.1115</ele>
        <time>2021-07-11T16:10:51Z</time>
      </trkpt>
      <trkpt lat="37.35732" lon="-8.80065">
        <ele>105.4054</ele>
        <time>2021-07-11T16:11:02Z</time>
      </trkpt>
      <trkpt lat="37.35498" lon="-8.80061">
        <ele>106.4987</ele>
        <time>2021-07-11T16:11:13Z</time>
      </trkpt>
      <trkpt lat="37.35241" lon="-8.80058">
        <ele>107.0605</ele>
        <time>2021-07-11T16:11:24Z</time>
      </trkpt>
      <trkpt lat="37.35008" lon="-8.8007">
        <ele>108.6827</ele>
        <time>2021-07-11T16:11:35Z</time>
      </trkpt>
      <trkpt lat="37.34778" lon="-8.80111">
        <ele>110.7586</ele>
        <time>2021-07-11T16:11:46Z</time>
      </trkpt>
      <trkpt lat="37.34547" lon="-8.80147">
        <ele>112.0635</ele>
        <time>2021-07-11T16:11:57Z</time>
      </trkpt>
      <trkpt lat="37.34326" lon="-8.80181">
        <ele>114.712</ele>
        <time>2021-07-11T16:12:09Z</time>
      </trkpt>
      <trkpt lat="37.34128" lon="-8.80077">
        <ele>117.7276</ele>
        <time>2021-07-11T16:12:20Z</time>
      </trkpt>
      <trkpt lat="37.34079" lon="-8.79827">
        <ele>112.0185</ele>
        <time>2021-07-11T16:12:31Z</time>
      </trkpt>
      <trkpt lat="37.34031" lon="-8.79622">
        <ele>100.7691</ele>
        <time>2021-07-11T16:12:42Z</time>
      </trkpt>
      <trkpt lat="37.33803" lon="-8.7965">
        <ele>86.06635</ele>
        <time>2021-07-11T16:12:53Z</time>
      </trkpt>
      <trkpt lat="37.33572" lon="-8.79536">
        <ele>79.17508</ele>
        <time>2021-07-11T16:13:04Z</time>
      </trkpt>
      <trkpt lat="37.33365" lon="-8.79409">
        <ele>70.48414</ele>
        <time>2021-07-11T16:13:15Z</time>
      </trkpt>
      <trkpt lat="37.33169" lon="-8.79305">
        <ele>62.76139</ele>
        <time>2021-07-11T16:13:26Z</time>
      </trkpt>
      <trkpt lat="37.32973" lon="-8.79388">
        <ele>50.36095</ele>
        <time>2021-07-11T16:13:37Z</time>
      </trkpt>
      <trkpt lat="37.32763" lon="-8.79361">
        <ele>38.51492</ele>
        <time>2021-07-11T16:13:48Z</time>
      </trkpt>
      <trkpt lat="37.32564" lon="-8.79309">
        <ele>26.20511</ele>
        <time>2021-07-11T16:13:59Z</time>
      </trkpt>
      <trkpt lat="37.32479" lon="-8.79508">
        <ele>20.74423</ele>
        <time>2021-07-11T16:14:10Z</time>
      </trkpt>
      <trkpt lat="37.32296" lon="-8.79638">
        <ele>12.33822</ele>
        <time>2021-07-11T16:14:21Z</time>
      </trkpt>
      <trkpt lat="37.32107" lon="-8.79783">
        <ele>8.873832</ele>
        <time>2021-07-11T16:14:32Z</time>
      </trkpt>
      <trkpt lat="37.31939" lon="-8.79854">
        <ele>13.89184</ele>
        <time>2021-07-11T16:14:43Z</time>
      </trkpt>
      <trkpt lat="37.31795" lon="-8.79874">
        <ele>13.1409</ele>
        <time>2021-07-11T16:14:54Z</time>
      </trkpt>
      <trkpt lat="37.31674" lon="-8.7993">
        <ele>12.97633</ele>
        <time>2021-07-11T16:15:05Z</time>
      </trkpt>
      <trkpt lat="37.31675" lon="-8.80109">
        <ele>11.5612</ele>
        <time>2021-07-11T16:15:16Z</time>
      </trkpt>
      <trkpt lat="37.31676" lon="-8.80289">
        <ele>12.21089</ele>
        <time>2021-07-11T16:15:27Z</time>
      </trkpt>
      <trkpt lat="37.31625" lon="-8.80373">
        <ele>13.43332</ele>
        <time>2021-07-11T16:15:38Z</time>
      </trkpt>
      <trkpt lat="37.31501" lon="-8.80375">
        <ele>9.963839</ele>
        <time>2021-07-11T16:15:49Z</time>
      </trkpt>
      <trkpt lat="37.31376" lon="-8.80382">
        <ele>13.09603</ele>
        <time>2021-07-11T16:16:00Z</time>
      </trkpt>
      <trkpt lat="37.31224" lon="-8.8034">
        <ele>12.05797</ele>
        <time>2021-07-11T16:16:11Z</time>
      </trkpt>
      <trkpt lat="37.31083" lon="-8.80254">
        <ele>11.81162</ele>
        <time>2021-07-11T16:16:22Z</time>
      </trkpt>
      <trkpt lat="37.30899" lon="-8.80204">
        <ele>13.30343</ele>
        <time>2021-07-11T16:16:33Z</time>
      </trkpt>
      <trkpt lat="37.30694" lon="-8.80187">
        <ele>12.24026</ele>
        <time>2021-07-11T16:16:44Z</time>
      </trkpt>
      <trkpt lat="37.30477" lon="-8.80121">
        <ele>15.41279</ele>
        <time>2021-07-11T16:16:55Z</time>
      </trkpt>
      <trkpt lat="37.30271" lon="-8.79979">
        <ele>17.93212</ele>
        <time>2021-07-11T16:17:06Z</time>
      </trkpt>
      <trkpt lat="37.30062" lon="-8.79952">
        <ele>19.24286</ele>
        <time>2021-07-11T16:17:17Z</time>
      </trkpt>
      <trkpt lat="37.29879" lon="-8.80014">
        <ele>19.2686</ele>
        <time>2021-07-11T16:17:28Z</time>
      </trkpt>
      <trkpt lat="37.29726" lon="-8.799">
        <ele>19.55974</ele>
        <time>2021-07-11T16:17:39Z</time>
      </trkpt>
      <trkpt lat="37.29586" lon="-8.79749">
        <ele>23.16754</ele>
        <time>2021-07-11T16:17:50Z</time>
      </trkpt>
      <trkpt lat="37.29445" lon="-8.7978">
        <ele>27.45631</ele>
        <time>2021-07-11T16:18:01Z</time>
      </trkpt>
      <trkpt lat="37.29288" lon="-8.79872">
        <ele>24.36041</ele>
        <time>2021-07-11T16:18:12Z</time>
      </trkpt>
      <trkpt lat="37.29099" lon="-8.79855">
        <ele>25.2857</ele>
        <time>2021-07-11T16:18:23Z</time>
      </trkpt>
      <trkpt lat="37.28939" lon="-8.79885">
        <ele>23.35775</ele>
        <time>2021-07-11T16:18:34Z</time>
      </trkpt>
      <trkpt lat="37.28731" lon="-8.79958">
        <ele>32.80284</ele>
        <time>2021-07-11T16:18:45Z</time>
      </trkpt>
      <trkpt lat="37.28509" lon="-8.80056">
        <ele>33.57882</ele>
        <time>2021-07-11T16:18:56Z</time>
      </trkpt>
      <trkpt lat="37.28306" lon="-8.80227">
        <ele>41.26124</ele>
        <time>2021-07-11T16:19:07Z</time>
      </trkpt>
      <trkpt lat="37.28048" lon="-8.8023">
        <ele>55.46612</ele>
        <time>2021-07-11T16:19:18Z</time>
      </trkpt>
      <trkpt lat="37.27811" lon="-8.80293">
        <ele>62.54305</ele>
        <time>2021-07-11T16:19:29Z</time>
      </trkpt>
      <trkpt lat="37.27594" lon="-8.80435">
        <ele>65.2077</ele>
        <time>2021-07-11T16:19:40Z</time>
      </trkpt>
      <trkpt lat="37.27383" lon="-8.80594">
        <ele>69.54349</ele>
        <time>2021-07-11T16:19:51Z</time>
      </trkpt>
      <trkpt lat="37.27173" lon="-8.80751">
        <ele>75.5303</ele>
        <time>2021-07-11T16:20:02Z</time>
      </trkpt>
      <trkpt lat="37.26964" lon="-8.80916">
        <ele>66.90446</ele>
        <time>2021-07-11T16:20:13Z</time>
      </trkpt>
      <trkpt lat="37.26725" lon="-8.80937">
        <ele>75.53815</ele>
        <time>2021-07-11T16:20:24Z</time>
      </trkpt>
      <trkpt lat="37.26504" lon="-8.8093">
        <ele>74.93819</ele>
        <time>2021-07-11T16:20:35Z</time>
      </trkpt>
      <trkpt lat="37.26291" lon="-8.81083">
        <ele>75.8206</ele>
        <time>2021-07-11T16:20:46Z</time>
      </trkpt>
      <trkpt lat="37.26087" lon="-8.81244">
        <ele>78.92764</ele>
        <time>2021-07-11T16:20:57Z</time>
      </trkpt>
      <trkpt lat="37.25866" lon="-8.81319">
        <ele>77.56986</ele>
        <time>2021-07-11T16:21:08Z</time>
      </trkpt>
      <trkpt lat="37.25616" lon="-8.81314">
        <ele>85.48605</ele>
        <time>2021-07-11T16:21:19Z</time>
      </trkpt>
      <trkpt lat="37.25441" lon="-8.81222">
        <ele>103.6762</ele>
        <time>2021-07-11T16:21:30Z</time>
      </trkpt>
      <trkpt lat="37.25298" lon="-8.81126">
        <ele>111.0568</ele>
        <time>2021-07-11T16:21:41Z</time>
      </trkpt>
      <trkpt lat="37.25113" lon="-8.81031">
        <ele>123.0584</ele>
        <time>2021-07-11T16:21:52Z</time>
      </trkpt>
      <trkpt lat="37.24906" lon="-8.80955">
        <ele>135.6963</ele>
        <time>2021-07-11T16:22:03Z</time>
      </trkpt>
      <trkpt lat="37.2469" lon="-8.80831">
        <ele>141.556</ele>
        <time>2021-07-11T16:22:14Z</time>
      </trkpt>
      <trkpt lat="37.24493" lon="-8.80722">
        <ele>151.5175</ele>
        <time>2021-07-11T16:22:25Z</time>
      </trkpt>
      <trkpt lat="37.24351" lon="-8.80519">
        <ele>152.8974</ele>
        <time>2021-07-11T16:22:36Z</time>
      </trkpt>
      <trkpt lat="37.24172" lon="-8.80423">
        <ele>156.3878</ele>
        <time>2021-07-11T16:22:47Z</time>
      </trkpt>
      <trkpt lat="37.24096" lon="-8.80208">
        <ele>163.3499</ele>
        <time>2021-07-11T16:22:58Z</time>
      </trkpt>
      <trkpt lat="37.23885" lon="-8.80084">
        <ele>170.0545</ele>
        <time>2021-07-11T16:23:09Z</time>
      </trkpt>
      <trkpt lat="37.23662" lon="-8.79958">
        <ele>175.6133</ele>
        <time>2021-07-11T16:23:20Z</time>
      </trkpt>
      <trkpt lat="37.2344" lon="-8.79807">
        <ele>173.6428</ele>
        <time>2021-07-11T16:23:31Z</time>
      </trkpt>
      <trkpt lat="37.23238" lon="-8.79667">
        <ele>163.4844</ele>
        <time>2021-07-11T16:23:42Z</time>
      </trkpt>
      <trkpt lat="37.23047" lon="-8.79468">
        <ele>169.7718</ele>
        <time>2021-07-11T16:23:53Z</time>
      </trkpt>
      <trkpt lat="37.22868" lon="-8.79269">
        <ele>174.8501</ele>
        <time>2021-07-11T16:24:04Z</time>
      </trkpt>
      <trkpt lat="37.22706" lon="-8.79047">
        <ele>187.8589</ele>
        <time>2021-07-11T16:24:15Z</time>
      </trkpt>
      <trkpt lat="37.22564" lon="-8.78806">
        <ele>197.1889</ele>
        <time>2021-07-11T16:24:26Z</time>
      </trkpt>
      <trkpt lat="37.22432" lon="-8.78554">
        <ele>203.6027</ele>
        <time>2021-07-11T16:24:37Z</time>
      </trkpt>
      <trkpt lat="37.22361" lon="-8.78294">
        <ele>210.643</ele>
        <time>2021-07-11T16:24:48Z</time>
      </trkpt>
      <trkpt lat="37.22171" lon="-8.78097">
        <ele>223.607</ele>
        <time>2021-07-11T16:24:59Z</time>
      </trkpt>
      <trkpt lat="37.21951" lon="-8.7791">
        <ele>232.6072</ele>
        <time>2021-07-11T16:25:10Z</time>
      </trkpt>
      <trkpt lat="37.21716" lon="-8.7784">
        <ele>230.2944</ele>
        <time>2021-07-11T16:25:21Z</time>
      </trkpt>
      <trkpt lat="37.21482" lon="-8.77741">
        <ele>223.891</ele>
        <time>2021-07-11T16:25:32Z</time>
      </trkpt>
      <trkpt lat="37.21276" lon="-8.77615">
        <ele>205.0641</ele>
        <time>2021-07-11T16:25:43Z</time>
      </trkpt>
      <trkpt lat="37.21157" lon="-8.7742">
        <ele>191.5199</ele>
        <time>2021-07-11T16:25:54Z</time>
      </trkpt>
      <trkpt lat="37.21123" lon="-8.77177">
        <ele>178.3493</ele>
        <time>2021-07-11T16:26:05Z</time>
      </trkpt>
      <trkpt lat="37.20988" lon="-8.7699">
        <ele>164.3815</ele>
        <time>2021-07-11T16:26:16Z</time>
      </trkpt>
      <trkpt lat="37.20857" lon="-8.76891">
        <ele>153.4653</ele>
        <time>2021-07-11T16:26:27Z</time>
      </trkpt>
      <trkpt lat="37.20711" lon="-8.76806">
        <ele>143.434</ele>
        <time>2021-07-11T16:26:38Z</time>
      </trkpt>
      <trkpt lat="37.20627" lon="-8.76588">
        <ele>134.1049</ele>
        <time>2021-07-11T16:26:49Z</time>
      </trkpt>
      <trkpt lat="37.20486" lon="-8.76559">
        <ele>129.8262</ele>
        <time>2021-07-11T16:27:00Z</time>
      </trkpt>
      <trkpt lat="37.20306" lon="-8.76337">
        <ele>114.7275</ele>
        <time>2021-07-11T16:27:11Z</time>
      </trkpt>
      <trkpt lat="37.20177" lon="-8.76102">
        <ele>103.9278</ele>
        <time>2021-07-11T16:27:22Z</time>
      </trkpt>
      <trkpt lat="37.19948" lon="-8.76055">
        <ele>92.44979</ele>
        <time>2021-07-11T16:27:33Z</time>
      </trkpt>
      <trkpt lat="37.19692" lon="-8.76065">
        <ele>78.86285</ele>
        <time>2021-07-11T16:27:44Z</time>
      </trkpt>
      <trkpt lat="37.19459" lon="-8.75958">
        <ele>80.28079</ele>
        <time>2021-07-11T16:27:55Z</time>
      </trkpt>
      <trkpt lat="37.19231" lon="-8.75871">
        <ele>74.8965</ele>
        <time>2021-07-11T16:28:06Z</time>
      </trkpt>
      <trkpt lat="37.19042" lon="-8.75819">
        <ele>75.36446</ele>
        <time>2021-07-11T16:28:17Z</time>
      </trkpt>
      <trkpt lat="37.18932" lon="-8.75933">
        <ele>84.6928</ele>
        <time>2021-07-11T16:28:28Z</time>
      </trkpt>
      <trkpt lat="37.1883" lon="-8.76057">
        <ele>92.76096</ele>
        <time>2021-07-11T16:28:39Z</time>
      </trkpt>
      <trkpt lat="37.18668" lon="-8.76009">
        <ele>97.91203</ele>
        <time>2021-07-11T16:28:50Z</time>
      </trkpt>
      <trkpt lat="37.18458" lon="-8.75915">
        <ele>88.96945</ele>
        <time>2021-07-11T16:29:01Z</time>
      </trkpt>
      <trkpt lat="37.18232" lon="-8.75905">
        <ele>82.14094</ele>
        <time>2021-07-11T16:29:12Z</time>
      </trkpt>
      <trkpt lat="37.1803" lon="-8.75774">
        <ele>76.54024</ele>
        <time>2021-07-11T16:29:23Z</time>
      </trkpt>
      <trkpt lat="37.17882" lon="-8.75594">
        <ele>73.17537</ele>
        <time>2021-07-11T16:29:34Z</time>
      </trkpt>
      <trkpt lat="37.17819" lon="-8.75385">
        <ele>65.90617</ele>
        <time>2021-07-11T16:29:45Z</time>
      </trkpt>
      <trkpt lat="37.17876" lon="-8.75101">
        <ele>61.34578</ele>
        <time>2021-07-11T16:29:56Z</time>
      </trkpt>
      <trkpt lat="37.17705" lon="-8.74946">
        <ele>59.25676</ele>
        <time>2021-07-11T16:30:07Z</time>
      </trkpt>
      <trkpt lat="37.17452" lon="-8.74797">
        <ele>54.23889</ele>
        <time>2021-07-11T16:30:18Z</time>
      </trkpt>
      <trkpt lat="37.17187" lon="-8.74717">
        <ele>47.22478</ele>
        <time>2021-07-11T16:30:29Z</time>
      </trkpt>
      <trkpt lat="37.1693" lon="-8.74695">
        <ele>46.41033</ele>
        <time>2021-07-11T16:30:40Z</time>
      </trkpt>
      <trkpt lat="37.16684" lon="-8.74678">
        <ele>42.15485</ele>
        <time>2021-07-11T16:30:51Z</time>
      </trkpt>
      <trkpt lat="37.16487" lon="-8.74467">
        <ele>36.50607</ele>
        <time>2021-07-11T16:31:02Z</time>
      </trkpt>
      <trkpt lat="37.1632" lon="-8.74321">
        <ele>37.2557</ele>
        <time>2021-07-11T16:31:13Z</time>
      </trkpt>
      <trkpt lat="37.16137" lon="-8.74279">
        <ele>35.05138</ele>
        <time>2021-07-11T16:31:24Z</time>
      </trkpt>
      <trkpt lat="37.15978" lon="-8.74304">
        <ele>36.61848</ele>
        <time>2021-07-11T16:31:35Z</time>
      </trkpt>
      <trkpt lat="37.15827" lon="-8.74283">
        <ele>34.27078</ele>
        <time>2021-07-11T16:31:46Z</time>
      </trkpt>
      <trkpt lat="37.15769" lon="-8.74303">
        <ele>39.34807</ele>
        <time>2021-07-11T16:31:57Z</time>
      </trkpt>
      <trkpt lat="37.15709" lon="-8.74249">
        <ele>40.34363</ele>
        <time>2021-07-11T16:32:08Z</time>
      </trkpt>
      <trkpt lat="37.15572" lon="-8.74057">
        <ele>40.2189</ele>
        <time>2021-07-11T16:32:19Z</time>
      </trkpt>
      <trkpt lat="37.15521" lon="-8.73881">
        <ele>37.3747</ele>
        <time>2021-07-11T16:32:30Z</time>
      </trkpt>
      <trkpt lat="37.15526" lon="-8.73704">
        <ele>33.86769</ele>
        <time>2021-07-11T16:32:41Z</time>
      </trkpt>
      <trkpt lat="37.15534" lon="-8.73515">
        <ele>30.29374</ele>
        <time>2021-07-11T16:32:52Z</time>
      </trkpt>
      <trkpt lat="37.15525" lon="-8.73357">
        <ele>25.93711</ele>
        <time>2021-07-11T16:33:03Z</time>
      </trkpt>
      <trkpt lat="37.15413" lon="-8.73249">
        <ele>25.05455</ele>
        <time>2021-07-11T16:33:14Z</time>
      </trkpt>
      <trkpt lat="37.15446" lon="-8.73061">
        <ele>24.66534</ele>
        <time>2021-07-11T16:33:25Z</time>
      </trkpt>
      <trkpt lat="37.15529" lon="-8.72832">
        <ele>25.03017</ele>
        <time>2021-07-11T16:33:36Z</time>
      </trkpt>
      <trkpt lat="37.15592" lon="-8.72574">
        <ele>19.27242</ele>
        <time>2021-07-11T16:33:47Z</time>
      </trkpt>
      <trkpt lat="37.15509" lon="-8.7228">
        <ele>15.32277</ele>
        <time>2021-07-11T16:33:58Z</time>
      </trkpt>
      <trkpt lat="37.15351" lon="-8.72066">
        <ele>12.4264</ele>
        <time>2021-07-11T16:34:09Z</time>
      </trkpt>
      <trkpt lat="37.15113" lon="-8.71966">
        <ele>14.80819</ele>
        <time>2021-07-11T16:34:20Z</time>
      </trkpt>
      <trkpt lat="37.14925" lon="-8.7172">
        <ele>11.49134</ele>
        <time>2021-07-11T16:34:31Z</time>
      </trkpt>
      <trkpt lat="37.1473" lon="-8.71481">
        <ele>8.998727</ele>
        <time>2021-07-11T16:34:42Z</time>
      </trkpt>
      <trkpt lat="37.1454" lon="-8.71251">
        <ele>10.44362</ele>
        <time>2021-07-11T16:34:53Z</time>
      </trkpt>
      <trkpt lat="37.14362" lon="-8.71024">
        <ele>7.656568</ele>
        <time>2021-07-11T16:35:04Z</time>
      </trkpt>
      <trkpt lat="37.14188" lon="-8.70874">
        <ele>9.527136</ele>
        <time>2021-07-11T16:35:15Z</time>
      </trkpt>
      <trkpt lat="37.14056" lon="-8.70682">
        <ele>6.910769</ele>
        <time>2021-07-11T16:35:26Z</time>
      </trkpt>
      <trkpt lat="37.13924" lon="-8.70493">
        <ele>5.146163</ele>
        <time>2021-07-11T16:35:37Z</time>
      </trkpt>
      <trkpt lat="37.13748" lon="-8.70269">
        <ele>1.84656</ele>
        <time>2021-07-11T16:35:48Z</time>
      </trkpt>
      <trkpt lat="37.13594" lon="-8.70003">
        <ele>0.244707</ele>
        <time>2021-07-11T16:35:59Z</time>
      </trkpt>
      <trkpt lat="37.13395" lon="-8.69829">
        <ele>3.565588</ele>
        <time>2021-07-11T16:36:10Z</time>
      </trkpt>
      <trkpt lat="37.13167" lon="-8.69716">
        <ele>4.388257</ele>
        <time>2021-07-11T16:36:21Z</time>
      </trkpt>
      <trkpt lat="37.12943" lon="-8.6969">
        <ele>4.448208</ele>
        <time>2021-07-11T16:36:32Z</time>
      </trkpt>
      <trkpt lat="37.12762" lon="-8.69498">
        <ele>5.034154</ele>
        <time>2021-07-11T16:36:43Z</time>
      </trkpt>
      <trkpt lat="37.12574" lon="-8.69529">
        <ele>9.515363</ele>
        <time>2021-07-11T16:36:54Z</time>
      </trkpt>
      <trkpt lat="37.12465" lon="-8.69467">
        <ele>13.21554</ele>
        <time>2021-07-11T16:37:05Z</time>
      </trkpt>
      <trkpt lat="37.12324" lon="-8.6944">
        <ele>15.12359</ele>
        <time>2021-07-11T16:37:16Z</time>
      </trkpt>
      <trkpt lat="37.12199" lon="-8.69383">
        <ele>19.40536</ele>
        <time>2021-07-11T16:37:27Z</time>
      </trkpt>
      <trkpt lat="37.12065" lon="-8.69302">
        <ele>16.14778</ele>
        <time>2021-07-11T16:37:38Z</time>
      </trkpt>
      <trkpt lat="37.11876" lon="-8.69188">
        <ele>22.57889</ele>
        <time>2021-07-11T16:37:49Z</time>
      </trkpt>
      <trkpt lat="37.11737" lon="-8.68996">
        <ele>35.61817</ele>
        <time>2021-07-11T16:38:00Z</time>
      </trkpt>
      <trkpt lat="37.11609" lon="-8.68761">
        <ele>30.20241</ele>
        <time>2021-07-11T16:38:11Z</time>
      </trkpt>
      <trkpt lat="37.11473" lon="-8.68644">
        <ele>20.52882</ele>
        <time>2021-07-11T16:38:22Z</time>
      </trkpt>
      <trkpt lat="37.1136" lon="-8.68429">
        <ele>17.74768</ele>
        <time>2021-07-11T16:38:33Z</time>
      </trkpt>
      <trkpt lat="37.11297" lon="-8.68218">
        <ele>4.112523</ele>
        <time>2021-07-11T16:38:44Z</time>
      </trkpt>
      <trkpt lat="37.11195" lon="-8.68149">
        <ele>1.144841</ele>
        <time>2021-07-11T16:38:55Z</time>
      </trkpt>
      <trkpt lat="37.11117" lon="-8.68219">
        <ele>8.395926</ele>
        <time>2021-07-11T16:39:06Z</time>
      </trkpt>
      <trkpt lat="37.11048" lon="-8.68447">
        <ele>11.13392</ele>
        <time>2021-07-11T16:39:17Z</time>
      </trkpt>
      <trkpt lat="37.11019" lon="-8.68689">
        <ele>14.7439</ele>
        <time>2021-07-11T16:39:28Z</time>
      </trkpt>
      <trkpt lat="37.11057" lon="-8.68915">
        <ele>20.16211</ele>
        <time>2021-07-11T16:39:39Z</time>
      </trkpt>
      <trkpt lat="37.11081" lon="-8.69017">
        <ele>24.15252</ele>
        <time>2021-07-11T16:39:50Z</time>
      </trkpt>
      <trkpt lat="37.10978" lon="-8.68994">
        <ele>24.04302</ele>
        <time>2021-07-11T16:40:01Z</time>
      </trkpt>
      <trkpt lat="37.10886" lon="-8.68916">
        <ele>23.61177</ele>
        <time>2021-07-11T16:40:12Z</time>
      </trkpt>
      <trkpt lat="37.10782" lon="-8.68811">
        <ele>27.8748</ele>
        <time>2021-07-11T16:40:23Z</time>
      </trkpt>
      <trkpt lat="37.10715" lon="-8.68754">
        <ele>29.71735</ele>
        <time>2021-07-11T16:40:34Z</time>
      </trkpt>
      <trkpt lat="37.10619" lon="-8.68717">
        <ele>26.19751</ele>
        <time>2021-07-11T16:40:45Z</time>
      </trkpt>
      <trkpt lat="37.10518" lon="-8.68669">
        <ele>34.27063</ele>
        <time>2021-07-11T16:40:56Z</time>
      </trkpt>
      <trkpt lat="37.10425" lon="-8.68588">
        <ele>31.34183</ele>
        <time>2021-07-11T16:41:07Z</time>
      </trkpt>
      <trkpt lat="37.1037" lon="-8.68517">
        <ele>20.51753</ele>
        <time>2021-07-11T16:41:18Z</time>
      </trkpt>
      <trkpt lat="37.10314" lon="-8.68546">
        <ele>22.21545</ele>
        <time>2021-07-11T16:41:29Z</time>
      </trkpt>
      <trkpt lat="37.10221" lon="-8.68676">
        <ele>31.11582</ele>
        <time>2021-07-11T16:41:40Z</time>
      </trkpt>
      <trkpt lat="37.1015" lon="-8.68771">
        <ele>41.97479</ele>
        <time>2021-07-11T16:41:51Z</time>
      </trkpt>
      <trkpt lat="37.10109" lon="-8.68735">
        <ele>41.93953</ele>
        <time>2021-07-11T16:42:02Z</time>
      </trkpt>
      <trkpt lat="37.10087" lon="-8.68608">
        <ele>41.99305</ele>
        <time>2021-07-11T16:42:13Z</time>
      </trkpt>
      <trkpt lat="37.10063" lon="-8.68462">
        <ele>38.6612</ele>
        <time>2021-07-11T16:42:24Z</time>
      </trkpt>
      <trkpt lat="37.10041" lon="-8.68339">
        <ele>31.24016</ele>
        <time>2021-07-11T16:42:35Z</time>
      </trkpt>
      <trkpt lat="37.10021" lon="-8.68235">
        <ele>30.13887</ele>
        <time>2021-07-11T16:42:46Z</time>
      </trkpt>
      <trkpt lat="37.10017" lon="-8.68197">
        <ele>33.31372</ele>
        <time>2021-07-11T16:42:57Z</time>
      </trkpt>
      <trkpt lat="37.09978" lon="-8.68033">
        <ele>41.24952</ele>
        <time>2021-07-11T16:43:08Z</time>
      </trkpt>
      <trkpt lat="37.09852" lon="-8.67927">
        <ele>45.61636</ele>
        <time>2021-07-11T16:43:19Z</time>
      </trkpt>
      <trkpt lat="37.09784" lon="-8.67905">
        <ele>42.72673</ele>
        <time>2021-07-11T16:43:30Z</time>
      </trkpt>
      <trkpt lat="37.09765" lon="-8.68042">
        <ele>44.25537</ele>
        <time>2021-07-11T16:43:41Z</time>
      </trkpt>
      <trkpt lat="37.09768" lon="-8.68149">
        <ele>49.06235</ele>
        <time>2021-07-11T16:43:52Z</time>
      </trkpt>
      <trkpt lat="37.09741" lon="-8.68242">
        <ele>45.30906</ele>
        <time>2021-07-11T16:44:03Z</time>
      </trkpt>
      <trkpt lat="37.09727" lon="-8.68332">
        <ele>42.50465</ele>
        <time>2021-07-11T16:44:14Z</time>
      </trkpt>
      <trkpt lat="37.09688" lon="-8.68455">
        <ele>41.63138</ele>
        <time>2021-07-11T16:44:25Z</time>
      </trkpt>
      <trkpt lat="37.09634" lon="-8.68558">
        <ele>35.03403</ele>
        <time>2021-07-11T16:44:36Z</time>
      </trkpt>
      <trkpt lat="37.09628" lon="-8.68569">
        <ele>35.27628</ele>
        <time>2021-07-11T16:44:47Z</time>
      </trkpt>
      <trkpt lat="37.09626" lon="-8.6857">
        <ele>36.53135</ele>
        <time>2021-07-11T16:45:46Z</time>
      </trkpt>
      <trkpt lat="37.09621" lon="-8.68565">
        <ele>37.13122</ele>
        <time>2021-07-11T16:46:21Z</time>
      </trkpt>
      <trkpt lat="37.0967" lon="-8.68477">
        <ele>42.20592</ele>
        <time>2021-07-11T16:46:32Z</time>
      </trkpt>
      <trkpt lat="37.09723" lon="-8.68348">
        <ele>40.07318</ele>
        <time>2021-07-11T16:46:43Z</time>
      </trkpt>
      <trkpt lat="37.0974" lon="-8.68251">
        <ele>40.35583</ele>
        <time>2021-07-11T16:46:54Z</time>
      </trkpt>
      <trkpt lat="37.09791" lon="-8.68248">
        <ele>41.36153</ele>
        <time>2021-07-11T16:47:05Z</time>
      </trkpt>
      <trkpt lat="37.09853" lon="-8.68228">
        <ele>43.27104</ele>
        <time>2021-07-11T16:47:16Z</time>
      </trkpt>
      <trkpt lat="37.09884" lon="-8.68297">
        <ele>46.60325</ele>
        <time>2021-07-11T16:47:27Z</time>
      </trkpt>
      <trkpt lat="37.09912" lon="-8.6848">
        <ele>54.40046</ele>
        <time>2021-07-11T16:47:38Z</time>
      </trkpt>
      <trkpt lat="37.09907" lon="-8.68656">
        <ele>47.32948</ele>
        <time>2021-07-11T16:47:49Z</time>
      </trkpt>
      <trkpt lat="37.0991" lon="-8.68805">
        <ele>41.9802</ele>
        <time>2021-07-11T16:48:00Z</time>
      </trkpt>
      <trkpt lat="37.10019" lon="-8.68796">
        <ele>39.44783</ele>
        <time>2021-07-11T16:48:11Z</time>
      </trkpt>
      <trkpt lat="37.1011" lon="-8.68759">
        <ele>45.55006</ele>
        <time>2021-07-11T16:48:22Z</time>
      </trkpt>
      <trkpt lat="37.10189" lon="-8.68713">
        <ele>39.38491</ele>
        <time>2021-07-11T16:48:33Z</time>
      </trkpt>
      <trkpt lat="37.1026" lon="-8.68613">
        <ele>27.63826</ele>
        <time>2021-07-11T16:48:44Z</time>
      </trkpt>
      <trkpt lat="37.10332" lon="-8.68511">
        <ele>23.34724</ele>
        <time>2021-07-11T16:48:55Z</time>
      </trkpt>
      <trkpt lat="37.10369" lon="-8.68466">
        <ele>22.78298</ele>
        <time>2021-07-11T16:49:06Z</time>
      </trkpt>
      <trkpt lat="37.10491" lon="-8.68417">
        <ele>17.94221</ele>
        <time>2021-07-11T16:49:17Z</time>
      </trkpt>
      <trkpt lat="37.10621" lon="-8.68387">
        <ele>13.88265</ele>
        <time>2021-07-11T16:49:28Z</time>
      </trkpt>
      <trkpt lat="37.10679" lon="-8.68231">
        <ele>10.57498</ele>
        <time>2021-07-11T16:49:39Z</time>
      </trkpt>
      <trkpt lat="37.10709" lon="-8.6811">
        <ele>7.112971</ele>
        <time>2021-07-11T16:49:50Z</time>
      </trkpt>
      <trkpt lat="37.108" lon="-8.68135">
        <ele>9.068841</ele>
        <time>2021-07-11T16:50:01Z</time>
      </trkpt>
      <trkpt lat="37.10954" lon="-8.68155">
        <ele>18.28761</ele>
        <time>2021-07-11T16:50:12Z</time>
      </trkpt>
      <trkpt lat="37.11066" lon="-8.68244">
        <ele>8.208107</ele>
        <time>2021-07-11T16:50:23Z</time>
      </trkpt>
      <trkpt lat="37.11091" lon="-8.68261">
        <ele>7.383844</ele>
        <time>2021-07-11T16:50:34Z</time>
      </trkpt>
      <trkpt lat="37.11116" lon="-8.68191">
        <ele>5.07913</ele>
        <time>2021-07-11T16:50:45Z</time>
      </trkpt>
      <trkpt lat="37.1111" lon="-8.68106">
        <ele>2.39677</ele>
        <time>2021-07-11T16:50:56Z</time>
      </trkpt>
      <trkpt lat="37.11205" lon="-8.6814">
        <ele>9.416043</ele>
        <time>2021-07-11T16:51:07Z</time>
      </trkpt>
      <trkpt lat="37.11348" lon="-8.6811">
        <ele>7.692358</ele>
        <time>2021-07-11T16:51:18Z</time>
      </trkpt>
      <trkpt lat="37.11422" lon="-8.68032">
        <ele>4.698214</ele>
        <time>2021-07-11T16:51:29Z</time>
      </trkpt>
      <trkpt lat="37.11366" lon="-8.67846">
        <ele>5.561039</ele>
        <time>2021-07-11T16:51:40Z</time>
      </trkpt>
      <trkpt lat="37.11386" lon="-8.67689">
        <ele>2.02461</ele>
        <time>2021-07-11T16:51:51Z</time>
      </trkpt>
      <trkpt lat="37.11438" lon="-8.67593">
        <ele>0.027821</ele>
        <time>2021-07-11T16:52:02Z</time>
      </trkpt>
      <trkpt lat="37.11568" lon="-8.67472">
        <ele>-0.185167</ele>
        <time>2021-07-11T16:52:13Z</time>
      </trkpt>
      <trkpt lat="37.11734" lon="-8.67332">
        <ele>1.120083</ele>
        <time>2021-07-11T16:52:24Z</time>
      </trkpt>
      <trkpt lat="37.1194" lon="-8.67314">
        <ele>2.038917</ele>
        <time>2021-07-11T16:52:35Z</time>
      </trkpt>
      <trkpt lat="37.12144" lon="-8.6731">
        <ele>4.130387</ele>
        <time>2021-07-11T16:52:46Z</time>
      </trkpt>
      <trkpt lat="37.12357" lon="-8.67301">
        <ele>1.641066</ele>
        <time>2021-07-11T16:52:57Z</time>
      </trkpt>
      <trkpt lat="37.12526" lon="-8.67243">
        <ele>0.698739</ele>
        <time>2021-07-11T16:53:08Z</time>
      </trkpt>
      <trkpt lat="37.12701" lon="-8.67122">
        <ele>4.793993</ele>
        <time>2021-07-11T16:53:19Z</time>
      </trkpt>
      <trkpt lat="37.12873" lon="-8.67004">
        <ele>13.27724</ele>
        <time>2021-07-11T16:53:30Z</time>
      </trkpt>
      <trkpt lat="37.13021" lon="-8.66861">
        <ele>14.32185</ele>
        <time>2021-07-11T16:53:41Z</time>
      </trkpt>
      <trkpt lat="37.13121" lon="-8.66745">
        <ele>21.63354</ele>
        <time>2021-07-11T16:53:52Z</time>
      </trkpt>
      <trkpt lat="37.13182" lon="-8.66669">
        <ele>25.74942</ele>
        <time>2021-07-11T16:54:03Z</time>
      </trkpt>
      <trkpt lat="37.13255" lon="-8.66594">
        <ele>21.7156</ele>
        <time>2021-07-11T16:54:14Z</time>
      </trkpt>
      <trkpt lat="37.13388" lon="-8.66453">
        <ele>20.77529</ele>
        <time>2021-07-11T16:54:25Z</time>
      </trkpt>
      <trkpt lat="37.1354" lon="-8.66359">
        <ele>24.59599</ele>
        <time>2021-07-11T16:54:36Z</time>
      </trkpt>
      <trkpt lat="37.13679" lon="-8.66329">
        <ele>23.34167</ele>
        <time>2021-07-11T16:54:47Z</time>
      </trkpt>
      <trkpt lat="37.13838" lon="-8.66311">
        <ele>23.66632</ele>
        <time>2021-07-11T16:54:58Z</time>
      </trkpt>
      <trkpt lat="37.13939" lon="-8.6627">
        <ele>23.57832</ele>
        <time>2021-07-11T16:55:09Z</time>
      </trkpt>
      <trkpt lat="37.14069" lon="-8.66269">
        <ele>24.02964</ele>
        <time>2021-07-11T16:55:20Z</time>
      </trkpt>
      <trkpt lat="37.14239" lon="-8.66222">
        <ele>24.66649</ele>
        <time>2021-07-11T16:55:31Z</time>
      </trkpt>
      <trkpt lat="37.14393" lon="-8.66166">
        <ele>23.65581</ele>
        <time>2021-07-11T16:55:42Z</time>
      </trkpt>
      <trkpt lat="37.1451" lon="-8.66105">
        <ele>23.78883</ele>
        <time>2021-07-11T16:55:53Z</time>
      </trkpt>
      <trkpt lat="37.14607" lon="-8.66047">
        <ele>25.64797</ele>
        <time>2021-07-11T16:56:04Z</time>
      </trkpt>
      <trkpt lat="37.1468" lon="-8.65978">
        <ele>26.68474</ele>
        <time>2021-07-11T16:56:15Z</time>
      </trkpt>
      <trkpt lat="37.14754" lon="-8.65903">
        <ele>23.72437</ele>
        <time>2021-07-11T16:56:26Z</time>
      </trkpt>
      <trkpt lat="37.14827" lon="-8.65828">
        <ele>22.2883</ele>
        <time>2021-07-11T16:56:37Z</time>
      </trkpt>
      <trkpt lat="37.14895" lon="-8.65713">
        <ele>20.88845</ele>
        <time>2021-07-11T16:56:48Z</time>
      </trkpt>
      <trkpt lat="37.14945" lon="-8.65579">
        <ele>21.39979</ele>
        <time>2021-07-11T16:56:59Z</time>
      </trkpt>
      <trkpt lat="37.14992" lon="-8.65429">
        <ele>16.88997</ele>
        <time>2021-07-11T16:57:10Z</time>
      </trkpt>
      <trkpt lat="37.15049" lon="-8.65238">
        <ele>11.82713</ele>
        <time>2021-07-11T16:57:21Z</time>
      </trkpt>
      <trkpt lat="37.15124" lon="-8.65037">
        <ele>5.055037</ele>
        <time>2021-07-11T16:57:32Z</time>
      </trkpt>
      <trkpt lat="37.15248" lon="-8.64844">
        <ele>3.365353</ele>
        <time>2021-07-11T16:57:43Z</time>
      </trkpt>
      <trkpt lat="37.15364" lon="-8.64675">
        <ele>3.315031</ele>
        <time>2021-07-11T16:57:54Z</time>
      </trkpt>
      <trkpt lat="37.15484" lon="-8.64498">
        <ele>1.915247</ele>
        <time>2021-07-11T16:58:05Z</time>
      </trkpt>
      <trkpt lat="37.15594" lon="-8.6433">
        <ele>4.745418</ele>
        <time>2021-07-11T16:58:16Z</time>
      </trkpt>
      <trkpt lat="37.15702" lon="-8.64139">
        <ele>4.348595</ele>
        <time>2021-07-11T16:58:27Z</time>
      </trkpt>
      <trkpt lat="37.15785" lon="-8.63899">
        <ele>5.380294</ele>
        <time>2021-07-11T16:58:38Z</time>
      </trkpt>
      <trkpt lat="37.15845" lon="-8.63642">
        <ele>2.13756</ele>
        <time>2021-07-11T16:58:49Z</time>
      </trkpt>
      <trkpt lat="37.15873" lon="-8.63427">
        <ele>1.541104</ele>
        <time>2021-07-11T16:59:00Z</time>
      </trkpt>
      <trkpt lat="37.15854" lon="-8.6328">
        <ele>3.795124</ele>
        <time>2021-07-11T16:59:11Z</time>
      </trkpt>
      <trkpt lat="37.15809" lon="-8.63127">
        <ele>3.466067</ele>
        <time>2021-07-11T16:59:22Z</time>
      </trkpt>
      <trkpt lat="37.1568" lon="-8.62936">
        <ele>3.222872</ele>
        <time>2021-07-11T16:59:33Z</time>
      </trkpt>
      <trkpt lat="37.15513" lon="-8.628">
        <ele>7.669335</ele>
        <time>2021-07-11T16:59:44Z</time>
      </trkpt>
      <trkpt lat="37.1538" lon="-8.62602">
        <ele>7.545134</ele>
        <time>2021-07-11T16:59:55Z</time>
      </trkpt>
      <trkpt lat="37.15311" lon="-8.62378">
        <ele>6.716075</ele>
        <time>2021-07-11T17:00:06Z</time>
      </trkpt>
      <trkpt lat="37.15254" lon="-8.62142">
        <ele>5.073322</ele>
        <time>2021-07-11T17:00:17Z</time>
      </trkpt>
      <trkpt lat="37.15238" lon="-8.61893">
        <ele>16.40234</ele>
        <time>2021-07-11T17:00:28Z</time>
      </trkpt>
      <trkpt lat="37.15279" lon="-8.61656">
        <ele>18.43254</ele>
        <time>2021-07-11T17:00:39Z</time>
      </trkpt>
      <trkpt lat="37.15345" lon="-8.61481">
        <ele>18.29155</ele>
        <time>2021-07-11T17:00:50Z</time>
      </trkpt>
      <trkpt lat="37.15386" lon="-8.61363">
        <ele>16.90409</ele>
        <time>2021-07-11T17:01:01Z</time>
      </trkpt>
      <trkpt lat="37.15453" lon="-8.61231">
        <ele>16.83442</ele>
        <time>2021-07-11T17:01:12Z</time>
      </trkpt>
      <trkpt lat="37.15529" lon="-8.61028">
        <ele>15.19276</ele>
        <time>2021-07-11T17:01:23Z</time>
      </trkpt>
      <trkpt lat="37.15607" lon="-8.60824">
        <ele>14.88822</ele>
        <time>2021-07-11T17:01:34Z</time>
      </trkpt>
      <trkpt lat="37.15695" lon="-8.60669">
        <ele>13.69443</ele>
        <time>2021-07-11T17:01:45Z</time>
      </trkpt>
      <trkpt lat="37.15802" lon="-8.6051">
        <ele>8.574143</ele>
        <time>2021-07-11T17:01:56Z</time>
      </trkpt>
      <trkpt lat="37.15897" lon="-8.60316">
        <ele>4.934555</ele>
        <time>2021-07-11T17:02:07Z</time>
      </trkpt>
      <trkpt lat="37.15986" lon="-8.60128">
        <ele>9.561411</ele>
        <time>2021-07-11T17:02:18Z</time>
      </trkpt>
      <trkpt lat="37.16076" lon="-8.6004">
        <ele>20.06895</ele>
        <time>2021-07-11T17:02:29Z</time>
      </trkpt>
      <trkpt lat="37.16187" lon="-8.59943">
        <ele>24.04636</ele>
        <time>2021-07-11T17:02:40Z</time>
      </trkpt>
      <trkpt lat="37.16238" lon="-8.59755">
        <ele>22.24743</ele>
        <time>2021-07-11T17:02:51Z</time>
      </trkpt>
      <trkpt lat="37.16202" lon="-8.59512">
        <ele>20.31012</ele>
        <time>2021-07-11T17:03:02Z</time>
      </trkpt>
      <trkpt lat="37.16179" lon="-8.59395">
        <ele>17.76497</ele>
        <time>2021-07-11T17:03:13Z</time>
      </trkpt>
      <trkpt lat="37.16165" lon="-8.59327">
        <ele>16.63498</ele>
        <time>2021-07-11T17:03:24Z</time>
      </trkpt>
      <trkpt lat="37.1615" lon="-8.59126">
        <ele>8.642671</ele>
        <time>2021-07-11T17:03:35Z</time>
      </trkpt>
      <trkpt lat="37.16161" lon="-8.58903">
        <ele>6.326759</ele>
        <time>2021-07-11T17:03:46Z</time>
      </trkpt>
      <trkpt lat="37.16176" lon="-8.58655">
        <ele>3.005595</ele>
        <time>2021-07-11T17:03:57Z</time>
      </trkpt>
      <trkpt lat="37.16192" lon="-8.58419">
        <ele>5.859143</ele>
        <time>2021-07-11T17:04:08Z</time>
      </trkpt>
      <trkpt lat="37.16204" lon="-8.58196">
        <ele>4.249518</ele>
        <time>2021-07-11T17:04:19Z</time>
      </trkpt>
      <trkpt lat="37.16213" lon="-8.58002">
        <ele>4.133888</ele>
        <time>2021-07-11T17:04:30Z</time>
      </trkpt>
      <trkpt lat="37.16195" lon="-8.57816">
        <ele>-1.580567</ele>
        <time>2021-07-11T17:04:41Z</time>
      </trkpt>
      <trkpt lat="37.16184" lon="-8.57679">
        <ele>0.11533</ele>
        <time>2021-07-11T17:04:52Z</time>
      </trkpt>
      <trkpt lat="37.16167" lon="-8.57482">
        <ele>-1.459752</ele>
        <time>2021-07-11T17:05:04Z</time>
      </trkpt>
      <trkpt lat="37.16149" lon="-8.57274">
        <ele>-2.057717</ele>
        <time>2021-07-11T17:05:15Z</time>
      </trkpt>
      <trkpt lat="37.16124" lon="-8.5707">
        <ele>1.223787</ele>
        <time>2021-07-11T17:05:26Z</time>
      </trkpt>
      <trkpt lat="37.16073" lon="-8.56984">
        <ele>-0.095643</ele>
        <time>2021-07-11T17:05:37Z</time>
      </trkpt>
      <trkpt lat="37.15974" lon="-8.57059">
        <ele>-0.629561</ele>
        <time>2021-07-11T17:05:48Z</time>
      </trkpt>
      <trkpt lat="37.15876" lon="-8.57143">
        <ele>-1.206839</ele>
        <time>2021-07-11T17:05:59Z</time>
      </trkpt>
      <trkpt lat="37.15768" lon="-8.57235">
        <ele>0.658866</ele>
        <time>2021-07-11T17:06:10Z</time>
      </trkpt>
      <trkpt lat="37.15636" lon="-8.57361">
        <ele>3.234525</ele>
        <time>2021-07-11T17:06:21Z</time>
      </trkpt>
      <trkpt lat="37.15505" lon="-8.57477">
        <ele>1.97025</ele>
        <time>2021-07-11T17:06:32Z</time>
      </trkpt>
      <trkpt lat="37.15371" lon="-8.57524">
        <ele>0.879058</ele>
        <time>2021-07-11T17:06:43Z</time>
      </trkpt>
      <trkpt lat="37.15221" lon="-8.57615">
        <ele>0.008923</ele>
        <time>2021-07-11T17:06:54Z</time>
      </trkpt>
      <trkpt lat="37.15066" lon="-8.57671">
        <ele>-2.110717</ele>
        <time>2021-07-11T17:07:05Z</time>
      </trkpt>
      <trkpt lat="37.14932" lon="-8.57689">
        <ele>-0.072481</ele>
        <time>2021-07-11T17:07:16Z</time>
      </trkpt>
      <trkpt lat="37.14839" lon="-8.57846">
        <ele>1.097304</ele>
        <time>2021-07-11T17:07:27Z</time>
      </trkpt>
      <trkpt lat="37.1475" lon="-8.57999">
        <ele>1.433718</ele>
        <time>2021-07-11T17:07:38Z</time>
      </trkpt>
      <trkpt lat="37.14717" lon="-8.58148">
        <ele>3.253425</ele>
        <time>2021-07-11T17:07:49Z</time>
      </trkpt>
      <trkpt lat="37.14656" lon="-8.58278">
        <ele>7.146591</ele>
        <time>2021-07-11T17:08:00Z</time>
      </trkpt>
      <trkpt lat="37.14575" lon="-8.58369">
        <ele>11.82587</ele>
        <time>2021-07-11T17:08:11Z</time>
      </trkpt>
      <trkpt lat="37.14481" lon="-8.58477">
        <ele>16.81245</ele>
        <time>2021-07-11T17:08:22Z</time>
      </trkpt>
      <trkpt lat="37.14362" lon="-8.58601">
        <ele>11.58329</ele>
        <time>2021-07-11T17:08:33Z</time>
      </trkpt>
      <trkpt lat="37.14253" lon="-8.5877">
        <ele>5.328862</ele>
        <time>2021-07-11T17:08:44Z</time>
      </trkpt>
      <trkpt lat="37.14095" lon="-8.58895">
        <ele>5.029525</ele>
        <time>2021-07-11T17:08:55Z</time>
      </trkpt>
      <trkpt lat="37.13914" lon="-8.58938">
        <ele>10.78957</ele>
        <time>2021-07-11T17:09:06Z</time>
      </trkpt>
      <trkpt lat="37.13769" lon="-8.58947">
        <ele>20.24912</ele>
        <time>2021-07-11T17:09:17Z</time>
      </trkpt>
      <trkpt lat="37.13627" lon="-8.5902">
        <ele>30.28317</ele>
        <time>2021-07-11T17:09:28Z</time>
      </trkpt>
      <trkpt lat="37.13521" lon="-8.59055">
        <ele>29.46792</ele>
        <time>2021-07-11T17:09:39Z</time>
      </trkpt>
      <trkpt lat="37.13497" lon="-8.59039">
        <ele>28.53372</ele>
        <time>2021-07-11T17:09:50Z</time>
      </trkpt>
      <trkpt lat="37.13494" lon="-8.59034">
        <ele>29.96186</ele>
        <time>2021-07-11T17:10:01Z</time>
      </trkpt>
      <trkpt lat="37.13495" lon="-8.59034">
        <ele>25.81798</ele>
        <time>2021-07-11T17:11:00Z</time>
      </trkpt>
      <trkpt lat="37.13495" lon="-8.59039">
        <ele>29.30053</ele>
        <time>2021-07-11T17:11:20Z</time>
      </trkpt>
      <trkpt lat="37.13495" lon="-8.59034">
        <ele>29.438</ele>
        <time>2021-07-11T17:11:32Z</time>
      </trkpt>
      <trkpt lat="37.13505" lon="-8.59032">
        <ele>29.8827</ele>
        <time>2021-07-11T17:11:43Z</time>
      </trkpt>
      <trkpt lat="37.13504" lon="-8.59037">
        <ele>30.4769</ele>
        <time>2021-07-11T17:11:54Z</time>
      </trkpt>
      <trkpt lat="37.13508" lon="-8.59033">
        <ele>30.17142</ele>
        <time>2021-07-11T17:12:05Z</time>
      </trkpt>
      <trkpt lat="37.13511" lon="-8.59033">
        <ele>29.9592</ele>
        <time>2021-07-11T17:12:27Z</time>
      </trkpt>
      <trkpt lat="37.13505" lon="-8.59043">
        <ele>30.7047</ele>
        <time>2021-07-11T17:12:38Z</time>
      </trkpt>
      <trkpt lat="37.13503" lon="-8.59035">
        <ele>30.35607</ele>
        <time>2021-07-11T17:12:49Z</time>
      </trkpt>
      <trkpt lat="37.13502" lon="-8.59044">
        <ele>30.91953</ele>
        <time>2021-07-11T17:13:00Z</time>
      </trkpt>
      <trkpt lat="37.13507" lon="-8.59041">
        <ele>30.79066</ele>
        <time>2021-07-11T17:13:11Z</time>
      </trkpt>
      <trkpt lat="37.1351" lon="-8.59042">
        <ele>30.86439</ele>
        <time>2021-07-11T17:13:52Z</time>
      </trkpt>
      <trkpt lat="37.1351" lon="-8.5904">
        <ele>31.2959</ele>
        <time>2021-07-11T17:14:52Z</time>
      </trkpt>
      <trkpt lat="37.13506" lon="-8.59041">
        <ele>31.53548</ele>
        <time>2021-07-11T17:15:32Z</time>
      </trkpt>
      <trkpt lat="37.13494" lon="-8.59038">
        <ele>30.12569</ele>
        <time>2021-07-11T17:15:43Z</time>
      </trkpt>
      <trkpt lat="37.1349" lon="-8.59039">
        <ele>28.29933</ele>
        <time>2021-07-11T17:15:54Z</time>
      </trkpt>
      <trkpt lat="37.13488" lon="-8.59036">
        <ele>29.30827</ele>
        <time>2021-07-11T17:16:16Z</time>
      </trkpt>
      <trkpt lat="37.13491" lon="-8.59034">
        <ele>29.77877</ele>
        <time>2021-07-11T17:16:33Z</time>
      </trkpt>
      <trkpt lat="37.13489" lon="-8.59039">
        <ele>31.16242</ele>
        <time>2021-07-11T17:17:00Z</time>
      </trkpt>
      <trkpt lat="37.13492" lon="-8.59034">
        <ele>30.03291</ele>
        <time>2021-07-11T17:17:15Z</time>
      </trkpt>
      <trkpt lat="37.13496" lon="-8.59034">
        <ele>28.01657</ele>
        <time>2021-07-11T17:17:26Z</time>
      </trkpt>
      <trkpt lat="37.135" lon="-8.59031">
        <ele>30.27488</ele>
        <time>2021-07-11T17:17:39Z</time>
      </trkpt>
      <trkpt lat="37.13496" lon="-8.59033">
        <ele>30.7055</ele>
        <time>2021-07-11T17:17:56Z</time>
      </trkpt>
      <trkpt lat="37.13495" lon="-8.59036">
        <ele>29.99905</ele>
        <time>2021-07-11T17:18:56Z</time>
      </trkpt>
      <trkpt lat="37.13492" lon="-8.59038">
        <ele>30.11472</ele>
        <time>2021-07-11T17:19:55Z</time>
      </trkpt>
      <trkpt lat="37.13493" lon="-8.59037">
        <ele>30.0166</ele>
        <time>2021-07-11T17:20:55Z</time>
      </trkpt>
      <trkpt lat="37.13495" lon="-8.59034">
        <ele>30.23849</ele>
        <time>2021-07-11T17:21:55Z</time>
      </trkpt>
      <trkpt lat="37.13494" lon="-8.59038">
        <ele>30.49631</ele>
        <time>2021-07-11T17:22:20Z</time>
      </trkpt>
      <trkpt lat="37.13493" lon="-8.59042">
        <ele>30.19637</ele>
        <time>2021-07-11T17:22:52Z</time>
      </trkpt>
      <trkpt lat="37.13496" lon="-8.59041">
        <ele>29.67064</ele>
        <time>2021-07-11T17:23:25Z</time>
      </trkpt>
      <trkpt lat="37.13493" lon="-8.5904">
        <ele>30.35435</ele>
        <time>2021-07-11T17:24:09Z</time>
      </trkpt>
      <trkpt lat="37.13494" lon="-8.59042">
        <ele>30.20445</ele>
        <time>2021-07-11T17:25:08Z</time>
      </trkpt>
      <trkpt lat="37.13495" lon="-8.5904">
        <ele>30.49254</ele>
        <time>2021-07-11T17:26:08Z</time>
      </trkpt>
      <trkpt lat="37.13492" lon="-8.59039">
        <ele>30.17213</ele>
        <time>2021-07-11T17:26:58Z</time>
      </trkpt>
      <trkpt lat="37.13488" lon="-8.59041">
        <ele>30.21815</ele>
        <time>2021-07-11T17:27:09Z</time>
      </trkpt>
      <trkpt lat="37.13491" lon="-8.59041">
        <ele>29.87863</ele>
        <time>2021-07-11T17:27:43Z</time>
      </trkpt>
      <trkpt lat="37.13495" lon="-8.59041">
        <ele>30.26931</ele>
        <time>2021-07-11T17:28:06Z</time>
      </trkpt>
      <trkpt lat="37.13494" lon="-8.59036">
        <ele>29.73435</ele>
        <time>2021-07-11T17:28:24Z</time>
      </trkpt>
      <trkpt lat="37.13495" lon="-8.5904">
        <ele>30.08133</ele>
        <time>2021-07-11T17:28:45Z</time>
      </trkpt>
      <trkpt lat="37.13491" lon="-8.5904">
        <ele>30.23111</ele>
        <time>2021-07-11T17:28:56Z</time>
      </trkpt>
      <trkpt lat="37.13495" lon="-8.59041">
        <ele>29.31882</ele>
        <time>2021-07-11T17:29:13Z</time>
      </trkpt>
      <trkpt lat="37.13494" lon="-8.59045">
        <ele>30.18653</ele>
        <time>2021-07-11T17:30:12Z</time>
      </trkpt>
      <trkpt lat="37.1349" lon="-8.59045">
        <ele>31.13585</ele>
        <time>2021-07-11T17:30:49Z</time>
      </trkpt>
      <trkpt lat="37.13491" lon="-8.59039">
        <ele>29.79327</ele>
        <time>2021-07-11T17:31:30Z</time>
      </trkpt>
      <trkpt lat="37.13494" lon="-8.59038">
        <ele>29.82765</ele>
        <time>2021-07-11T17:31:53Z</time>
      </trkpt>
      <trkpt lat="37.13497" lon="-8.5904">
        <ele>30.92763</ele>
        <time>2021-07-11T17:32:29Z</time>
      </trkpt>
      <trkpt lat="37.13496" lon="-8.59036">
        <ele>29.92809</ele>
        <time>2021-07-11T17:33:10Z</time>
      </trkpt>
      <trkpt lat="37.13499" lon="-8.59039">
        <ele>31.77096</ele>
        <time>2021-07-11T17:33:46Z</time>
      </trkpt>
      <trkpt lat="37.13497" lon="-8.59044">
        <ele>30.29683</ele>
        <time>2021-07-11T17:34:14Z</time>
      </trkpt>
      <trkpt lat="37.13499" lon="-8.5904">
        <ele>30.7545</ele>
        <time>2021-07-11T17:34:58Z</time>
      </trkpt>
      <trkpt lat="37.135" lon="-8.59044">
        <ele>30.21648</ele>
        <time>2021-07-11T17:35:13Z</time>
      </trkpt>
      <trkpt lat="37.13505" lon="-8.59044">
        <ele>30.75082</ele>
        <time>2021-07-11T17:35:24Z</time>
      </trkpt>
      <trkpt lat="37.13506" lon="-8.59039">
        <ele>31.17215</ele>
        <time>2021-07-11T17:35:49Z</time>
      </trkpt>
      <trkpt lat="37.13506" lon="-8.59034">
        <ele>30.83664</ele>
        <time>2021-07-11T17:36:30Z</time>
      </trkpt>
      <trkpt lat="37.13504" lon="-8.59038">
        <ele>31.12062</ele>
        <time>2021-07-11T17:36:41Z</time>
      </trkpt>
      <trkpt lat="37.13503" lon="-8.59043">
        <ele>31.4596</ele>
        <time>2021-07-11T17:37:06Z</time>
      </trkpt>
      <trkpt lat="37.13503" lon="-8.59038">
        <ele>31.33696</ele>
        <time>2021-07-11T17:37:39Z</time>
      </trkpt>
      <trkpt lat="37.13507" lon="-8.59038">
        <ele>30.50641</ele>
        <time>2021-07-11T17:38:22Z</time>
      </trkpt>
      <trkpt lat="37.13504" lon="-8.59041">
        <ele>31.51728</ele>
        <time>2021-07-11T17:38:33Z</time>
      </trkpt>
      <trkpt lat="37.13505" lon="-8.59037">
        <ele>30.24781</ele>
        <time>2021-07-11T17:39:11Z</time>
      </trkpt>
      <trkpt lat="37.13503" lon="-8.5904">
        <ele>30.10194</ele>
        <time>2021-07-11T17:40:02Z</time>
      </trkpt>
      <trkpt lat="37.13501" lon="-8.59044">
        <ele>30.43778</ele>
        <time>2021-07-11T17:40:54Z</time>
      </trkpt>
      <trkpt lat="37.13501" lon="-8.59047">
        <ele>31.37943</ele>
        <time>2021-07-11T17:41:53Z</time>
      </trkpt>
      <trkpt lat="37.13497" lon="-8.59045">
        <ele>31.22531</ele>
        <time>2021-07-11T17:42:32Z</time>
      </trkpt>
      <trkpt lat="37.13499" lon="-8.59042">
        <ele>32.65499</ele>
        <time>2021-07-11T17:43:08Z</time>
      </trkpt>
      <trkpt lat="37.13497" lon="-8.59045">
        <ele>30.80408</ele>
        <time>2021-07-11T17:43:42Z</time>
      </trkpt>
      <trkpt lat="37.13494" lon="-8.59042">
        <ele>34.73788</ele>
        <time>2021-07-11T17:44:29Z</time>
      </trkpt>
      <trkpt lat="37.1349" lon="-8.59041">
        <ele>30.24331</ele>
        <time>2021-07-11T17:44:52Z</time>
      </trkpt>
      <trkpt lat="37.13495" lon="-8.5904">
        <ele>29.72443</ele>
        <time>2021-07-11T17:45:03Z</time>
      </trkpt>
      <trkpt lat="37.13491" lon="-8.59033">
        <ele>29.83233</ele>
        <time>2021-07-11T17:45:14Z</time>
      </trkpt>
      <trkpt lat="37.13494" lon="-8.59031">
        <ele>29.99877</ele>
        <time>2021-07-11T17:45:51Z</time>
      </trkpt>
      <trkpt lat="37.13491" lon="-8.59027">
        <ele>29.87603</ele>
        <time>2021-07-11T17:46:02Z</time>
      </trkpt>
      <trkpt lat="37.13495" lon="-8.59031">
        <ele>29.96879</ele>
        <time>2021-07-11T17:46:14Z</time>
      </trkpt>
      <trkpt lat="37.13496" lon="-8.59026">
        <ele>30.12581</ele>
        <time>2021-07-11T17:47:09Z</time>
      </trkpt>
      <trkpt lat="37.13492" lon="-8.58986">
        <ele>28.44252</ele>
        <time>2021-07-11T17:47:20Z</time>
      </trkpt>
      <trkpt lat="37.13461" lon="-8.58947">
        <ele>27.83554</ele>
        <time>2021-07-11T17:47:31Z</time>
      </trkpt>
      <trkpt lat="37.13491" lon="-8.58912">
        <ele>30.66463</ele>
        <time>2021-07-11T17:47:42Z</time>
      </trkpt>
      <trkpt lat="37.13535" lon="-8.58894">
        <ele>33.09352</ele>
        <time>2021-07-11T17:47:53Z</time>
      </trkpt>
      <trkpt lat="37.1352" lon="-8.5883">
        <ele>26.76736</ele>
        <time>2021-07-11T17:48:04Z</time>
      </trkpt>
      <trkpt lat="37.13487" lon="-8.58801">
        <ele>24.02684</ele>
        <time>2021-07-11T17:48:15Z</time>
      </trkpt>
      <trkpt lat="37.13453" lon="-8.58752">
        <ele>19.14359</ele>
        <time>2021-07-11T17:48:26Z</time>
      </trkpt>
      <trkpt lat="37.13433" lon="-8.58714">
        <ele>18.48726</ele>
        <time>2021-07-11T17:48:37Z</time>
      </trkpt>
      <trkpt lat="37.13412" lon="-8.5869">
        <ele>15.22488</ele>
        <time>2021-07-11T17:48:48Z</time>
      </trkpt>
      <trkpt lat="37.13396" lon="-8.58695">
        <ele>15.72285</ele>
        <time>2021-07-11T17:48:59Z</time>
      </trkpt>
      <trkpt lat="37.13411" lon="-8.58719">
        <ele>17.04176</ele>
        <time>2021-07-11T17:49:10Z</time>
      </trkpt>
      <trkpt lat="37.13416" lon="-8.58722">
        <ele>16.70064</ele>
        <time>2021-07-11T17:49:21Z</time>
      </trkpt>
      <trkpt lat="37.13422" lon="-8.58722">
        <ele>16.92397</ele>
        <time>2021-07-11T17:49:32Z</time>
      </trkpt>
      <trkpt lat="37.13419" lon="-8.58722">
        <ele>16.78771</ele>
        <time>2021-07-11T17:50:01Z</time>
      </trkpt>
      <trkpt lat="37.13416" lon="-8.58726">
        <ele>18.79828</ele>
        <time>2021-07-11T17:50:12Z</time>
      </trkpt>
      <trkpt lat="37.13413" lon="-8.58734">
        <ele>17.3705</ele>
        <time>2021-07-11T17:50:23Z</time>
      </trkpt>
      <trkpt lat="37.13413" lon="-8.58738">
        <ele>14.52633</ele>
        <time>2021-07-11T17:50:35Z</time>
      </trkpt>
      <trkpt lat="37.13417" lon="-8.58735">
        <ele>13.4721</ele>
        <time>2021-07-11T17:50:46Z</time>
      </trkpt>
      <trkpt lat="37.13413" lon="-8.58733">
        <ele>16.52995</ele>
        <time>2021-07-11T17:51:07Z</time>
      </trkpt>
      <trkpt lat="37.13412" lon="-8.58737">
        <ele>16.60502</ele>
        <time>2021-07-11T17:51:38Z</time>
      </trkpt>
      <trkpt lat="37.13414" lon="-8.58732">
        <ele>16.49234</ele>
        <time>2021-07-11T17:52:06Z</time>
      </trkpt>
      <trkpt lat="37.13412" lon="-8.58729">
        <ele>15.92472</ele>
        <time>2021-07-11T17:52:33Z</time>
      </trkpt>
      <trkpt lat="37.13409" lon="-8.58725">
        <ele>15.77608</ele>
        <time>2021-07-11T17:52:52Z</time>
      </trkpt>
      <trkpt lat="37.13413" lon="-8.58728">
        <ele>13.90644</ele>
        <time>2021-07-11T17:53:06Z</time>
      </trkpt>
      <trkpt lat="37.13418" lon="-8.58732">
        <ele>16.17403</ele>
        <time>2021-07-11T17:53:17Z</time>
      </trkpt>
      <trkpt lat="37.13414" lon="-8.58733">
        <ele>16.76805</ele>
        <time>2021-07-11T17:53:31Z</time>
      </trkpt>
      <trkpt lat="37.13416" lon="-8.58736">
        <ele>16.79915</ele>
        <time>2021-07-11T17:53:48Z</time>
      </trkpt>
      <trkpt lat="37.13416" lon="-8.5873">
        <ele>17.19325</ele>
        <time>2021-07-11T17:54:13Z</time>
      </trkpt>
      <trkpt lat="37.1342" lon="-8.58731">
        <ele>16.82822</ele>
        <time>2021-07-11T17:54:33Z</time>
      </trkpt>
      <trkpt lat="37.13415" lon="-8.58733">
        <ele>16.00005</ele>
        <time>2021-07-11T17:54:44Z</time>
      </trkpt>
      <trkpt lat="37.13413" lon="-8.58736">
        <ele>17.04348</ele>
        <time>2021-07-11T17:54:56Z</time>
      </trkpt>
      <trkpt lat="37.13411" lon="-8.58732">
        <ele>16.37573</ele>
        <time>2021-07-11T17:55:31Z</time>
      </trkpt>
      <trkpt lat="37.13412" lon="-8.58733">
        <ele>16.15582</ele>
        <time>2021-07-11T17:56:29Z</time>
      </trkpt>
      <trkpt lat="37.13416" lon="-8.58734">
        <ele>18.03797</ele>
        <time>2021-07-11T17:56:49Z</time>
      </trkpt>
      <trkpt lat="37.13412" lon="-8.58731">
        <ele>16.63537</ele>
        <time>2021-07-11T17:57:08Z</time>
      </trkpt>
      <trkpt lat="37.13415" lon="-8.5873">
        <ele>16.57305</ele>
        <time>2021-07-11T17:58:06Z</time>
      </trkpt>
      <trkpt lat="37.13414" lon="-8.58734">
        <ele>17.40257</ele>
        <time>2021-07-11T17:58:35Z</time>
      </trkpt>
      <trkpt lat="37.13416" lon="-8.58738">
        <ele>17.01328</ele>
        <time>2021-07-11T17:59:22Z</time>
      </trkpt>
      <trkpt lat="37.13418" lon="-8.58738">
        <ele>17.48691</ele>
        <time>2021-07-11T18:00:21Z</time>
      </trkpt>
      <trkpt lat="37.13418" lon="-8.58738">
        <ele>17.48691</ele>
        <time>2021-07-11T18:01:21Z</time>
      </trkpt>
      <trkpt lat="37.13418" lon="-8.58738">
        <ele>17.48691</ele>
        <time>2021-07-11T18:02:20Z</time>
      </trkpt>
      <trkpt lat="37.13418" lon="-8.58738">
        <ele>17.48691</ele>
        <time>2021-07-11T18:03:19Z</time>
      </trkpt>
      <trkpt lat="37.13418" lon="-8.58738">
        <ele>17.48691</ele>
        <time>2021-07-11T18:04:19Z</time>
      </trkpt>
      <trkpt lat="37.13418" lon="-8.58738">
        <ele>17.48691</ele>
        <time>2021-07-11T18:05:18Z</time>
      </trkpt>
      <trkpt lat="37.13418" lon="-8.58738">
        <ele>17.48691</ele>
        <time>2021-07-11T18:06:18Z</time>
      </trkpt>
      <trkpt lat="37.13418" lon="-8.58738">
        <ele>17.48691</ele>
        <time>2021-07-11T18:07:17Z</time>
      </trkpt>
      <trkpt lat="37.13418" lon="-8.58738">
        <ele>17.48691</ele>
        <time>2021-07-11T18:08:17Z</time>
      </trkpt>
      <trkpt lat="37.13418" lon="-8.58738">
        <ele>17.48691</ele>
        <time>2021-07-11T18:09:16Z</time>
      </trkpt>
      <trkpt lat="37.13418" lon="-8.58738">
        <ele>17.48691</ele>
        <time>2021-07-11T18:10:16Z</time>
      </trkpt>
      <trkpt lat="37.13416" lon="-8.58733">
        <ele>17.60628</ele>
        <time>2021-07-11T18:10:27Z</time>
      </trkpt>
      <trkpt lat="37.13416" lon="-8.58738">
        <ele>16.80379</ele>
        <time>2021-07-11T18:10:48Z</time>
      </trkpt>
      <trkpt lat="37.13416" lon="-8.58738">
        <ele>15.5847</ele>
        <time>2021-07-11T18:11:47Z</time>
      </trkpt>
      <trkpt lat="37.13416" lon="-8.58738">
        <ele>15.5847</ele>
        <time>2021-07-11T18:12:46Z</time>
      </trkpt>
      <trkpt lat="37.13416" lon="-8.58738">
        <ele>15.5847</ele>
        <time>2021-07-11T18:13:45Z</time>
      </trkpt>
      <trkpt lat="37.13416" lon="-8.58738">
        <ele>15.5847</ele>
        <time>2021-07-11T18:14:44Z</time>
      </trkpt>
      <trkpt lat="37.13411" lon="-8.58736">
        <ele>16.93164</ele>
        <time>2021-07-11T18:15:26Z</time>
      </trkpt>
      <trkpt lat="37.13412" lon="-8.58735">
        <ele>16.52111</ele>
        <time>2021-07-11T18:16:26Z</time>
      </trkpt>
      <trkpt lat="37.13412" lon="-8.58735">
        <ele>16.52111</ele>
        <time>2021-07-11T18:17:25Z</time>
      </trkpt>
      <trkpt lat="37.13412" lon="-8.58735">
        <ele>16.52111</ele>
        <time>2021-07-11T18:18:25Z</time>
      </trkpt>
      <trkpt lat="37.13412" lon="-8.58735">
        <ele>16.52111</ele>
        <time>2021-07-11T18:19:24Z</time>
      </trkpt>
      <trkpt lat="37.13414" lon="-8.58738">
        <ele>16.17177</ele>
        <time>2021-07-11T18:20:24Z</time>
      </trkpt>
      <trkpt lat="37.13413" lon="-8.58732">
        <ele>16.30799</ele>
        <time>2021-07-11T18:20:50Z</time>
      </trkpt>
      <trkpt lat="37.13418" lon="-8.58732">
        <ele>15.90201</ele>
        <time>2021-07-11T18:21:01Z</time>
      </trkpt>
      <trkpt lat="37.13413" lon="-8.58737">
        <ele>16.27313</ele>
        <time>2021-07-11T18:21:12Z</time>
      </trkpt>
      <trkpt lat="37.13416" lon="-8.58733">
        <ele>16.45287</ele>
        <time>2021-07-11T18:21:24Z</time>
      </trkpt>
      <trkpt lat="37.13413" lon="-8.58736">
        <ele>14.26661</ele>
        <time>2021-07-11T18:21:48Z</time>
      </trkpt>
      <trkpt lat="37.13416" lon="-8.58733">
        <ele>16.57302</ele>
        <time>2021-07-11T18:22:09Z</time>
      </trkpt>
      <trkpt lat="37.13412" lon="-8.58735">
        <ele>15.99917</ele>
        <time>2021-07-11T18:22:26Z</time>
      </trkpt>
      <trkpt lat="37.13416" lon="-8.58735">
        <ele>17.13346</ele>
        <time>2021-07-11T18:23:05Z</time>
      </trkpt>
      <trkpt lat="37.13414" lon="-8.58731">
        <ele>16.57277</ele>
        <time>2021-07-11T18:23:31Z</time>
      </trkpt>
      <trkpt lat="37.1342" lon="-8.58717">
        <ele>16.48926</ele>
        <time>2021-07-11T18:23:42Z</time>
      </trkpt>
      <trkpt lat="37.13425" lon="-8.58701">
        <ele>16.89898</ele>
        <time>2021-07-11T18:23:53Z</time>
      </trkpt>
      <trkpt lat="37.13429" lon="-8.5869">
        <ele>15.9067</ele>
        <time>2021-07-11T18:24:04Z</time>
      </trkpt>
      <trkpt lat="37.13416" lon="-8.58691">
        <ele>18.38569</ele>
        <time>2021-07-11T18:24:15Z</time>
      </trkpt>
      <trkpt lat="37.13417" lon="-8.58686">
        <ele>10.80512</ele>
        <time>2021-07-11T18:24:33Z</time>
      </trkpt>
      <trkpt lat="37.13419" lon="-8.5868">
        <ele>15.7602</ele>
        <time>2021-07-11T18:24:44Z</time>
      </trkpt>
      <trkpt lat="37.1343" lon="-8.58697">
        <ele>16.31319</ele>
        <time>2021-07-11T18:24:55Z</time>
      </trkpt>
      <trkpt lat="37.13422" lon="-8.58695">
        <ele>16.69061</ele>
        <time>2021-07-11T18:25:06Z</time>
      </trkpt>
      <trkpt lat="37.1342" lon="-8.58689">
        <ele>16.56214</ele>
        <time>2021-07-11T18:25:23Z</time>
      </trkpt>
      <trkpt lat="37.13418" lon="-8.58686">
        <ele>15.88045</ele>
        <time>2021-07-11T18:25:49Z</time>
      </trkpt>
      <trkpt lat="37.13414" lon="-8.58687">
        <ele>15.88282</ele>
        <time>2021-07-11T18:26:49Z</time>
      </trkpt>
      <trkpt lat="37.13415" lon="-8.58685">
        <ele>15.79635</ele>
        <time>2021-07-11T18:27:48Z</time>
      </trkpt>
      <trkpt lat="37.1342" lon="-8.5869">
        <ele>16.28641</ele>
        <time>2021-07-11T18:28:03Z</time>
      </trkpt>
      <trkpt lat="37.13419" lon="-8.58692">
        <ele>16.16653</ele>
        <time>2021-07-11T18:29:02Z</time>
      </trkpt>
      <trkpt lat="37.13418" lon="-8.58688">
        <ele>15.97389</ele>
        <time>2021-07-11T18:29:35Z</time>
      </trkpt>
      <trkpt lat="37.13421" lon="-8.58691">
        <ele>15.80237</ele>
        <time>2021-07-11T18:29:59Z</time>
      </trkpt>
      <trkpt lat="37.13416" lon="-8.58692">
        <ele>15.76111</ele>
        <time>2021-07-11T18:30:35Z</time>
      </trkpt>
      <trkpt lat="37.13418" lon="-8.58696">
        <ele>16.15803</ele>
        <time>2021-07-11T18:31:16Z</time>
      </trkpt>
      <trkpt lat="37.13418" lon="-8.58691">
        <ele>16.48883</ele>
        <time>2021-07-11T18:32:05Z</time>
      </trkpt>
      <trkpt lat="37.1342" lon="-8.58687">
        <ele>19.83208</ele>
        <time>2021-07-11T18:32:22Z</time>
      </trkpt>
      <trkpt lat="37.13424" lon="-8.58686">
        <ele>16.60502</ele>
        <time>2021-07-11T18:32:34Z</time>
      </trkpt>
      <trkpt lat="37.13419" lon="-8.58696">
        <ele>16.44491</ele>
        <time>2021-07-11T18:32:45Z</time>
      </trkpt>
      <trkpt lat="37.13417" lon="-8.587">
        <ele>16.43173</ele>
        <time>2021-07-11T18:32:58Z</time>
      </trkpt>
      <trkpt lat="37.13411" lon="-8.58701">
        <ele>16.28682</ele>
        <time>2021-07-11T18:33:09Z</time>
      </trkpt>
      <trkpt lat="37.1342" lon="-8.58694">
        <ele>16.02232</ele>
        <time>2021-07-11T18:33:20Z</time>
      </trkpt>
      <trkpt lat="37.13428" lon="-8.58695">
        <ele>16.52848</ele>
        <time>2021-07-11T18:33:31Z</time>
      </trkpt>
      <trkpt lat="37.13421" lon="-8.58711">
        <ele>16.97484</ele>
        <time>2021-07-11T18:33:42Z</time>
      </trkpt>
      <trkpt lat="37.13414" lon="-8.58726">
        <ele>17.17566</ele>
        <time>2021-07-11T18:33:53Z</time>
      </trkpt>
      <trkpt lat="37.13413" lon="-8.58735">
        <ele>16.66173</ele>
        <time>2021-07-11T18:34:04Z</time>
      </trkpt>
      <trkpt lat="37.13409" lon="-8.58737">
        <ele>17.85463</ele>
        <time>2021-07-11T18:34:35Z</time>
      </trkpt>
      <trkpt lat="37.13414" lon="-8.5874">
        <ele>19.12877</ele>
        <time>2021-07-11T18:34:46Z</time>
      </trkpt>
      <trkpt lat="37.13414" lon="-8.5874">
        <ele>16.57912</ele>
        <time>2021-07-11T18:35:45Z</time>
      </trkpt>
      <trkpt lat="37.13414" lon="-8.58737">
        <ele>16.42255</ele>
        <time>2021-07-11T18:36:43Z</time>
      </trkpt>
      <trkpt lat="37.13411" lon="-8.58738">
        <ele>16.63025</ele>
        <time>2021-07-11T18:37:07Z</time>
      </trkpt>
      <trkpt lat="37.13408" lon="-8.58742">
        <ele>15.66839</ele>
        <time>2021-07-11T18:37:51Z</time>
      </trkpt>
      <trkpt lat="37.13409" lon="-8.58747">
        <ele>16.3269</ele>
        <time>2021-07-11T18:38:02Z</time>
      </trkpt>
      <trkpt lat="37.13409" lon="-8.58747">
        <ele>16.03145</ele>
        <time>2021-07-11T18:39:01Z</time>
      </trkpt>
      <trkpt lat="37.13411" lon="-8.58751">
        <ele>16.87351</ele>
        <time>2021-07-11T18:39:22Z</time>
      </trkpt>
      <trkpt lat="37.13412" lon="-8.58746">
        <ele>15.72989</ele>
        <time>2021-07-11T18:39:47Z</time>
      </trkpt>
      <trkpt lat="37.13414" lon="-8.58742">
        <ele>17.14399</ele>
        <time>2021-07-11T18:39:58Z</time>
      </trkpt>
      <trkpt lat="37.13415" lon="-8.58737">
        <ele>16.67593</ele>
        <time>2021-07-11T18:40:09Z</time>
      </trkpt>
      <trkpt lat="37.13415" lon="-8.58732">
        <ele>16.64589</ele>
        <time>2021-07-11T18:40:55Z</time>
      </trkpt>
      <trkpt lat="37.13418" lon="-8.58728">
        <ele>16.683</ele>
        <time>2021-07-11T18:41:11Z</time>
      </trkpt>
      <trkpt lat="37.13417" lon="-8.58709">
        <ele>17.00061</ele>
        <time>2021-07-11T18:41:22Z</time>
      </trkpt>
      <trkpt lat="37.1342" lon="-8.58694">
        <ele>15.4904</ele>
        <time>2021-07-11T18:41:33Z</time>
      </trkpt>
      <trkpt lat="37.13423" lon="-8.58691">
        <ele>16.8348</ele>
        <time>2021-07-11T18:42:00Z</time>
      </trkpt>
      <trkpt lat="37.13418" lon="-8.58688">
        <ele>16.00598</ele>
        <time>2021-07-11T18:42:50Z</time>
      </trkpt>
      <trkpt lat="37.13418" lon="-8.58688">
        <ele>16.00598</ele>
        <time>2021-07-11T18:43:50Z</time>
      </trkpt>
      <trkpt lat="37.13418" lon="-8.58688">
        <ele>16.00598</ele>
        <time>2021-07-11T18:44:49Z</time>
      </trkpt>
      <trkpt lat="37.13418" lon="-8.58688">
        <ele>16.00598</ele>
        <time>2021-07-11T18:45:49Z</time>
      </trkpt>
      <trkpt lat="37.13414" lon="-8.58692">
        <ele>15.74886</ele>
        <time>2021-07-11T18:46:43Z</time>
      </trkpt>
      <trkpt lat="37.13415" lon="-8.58691">
        <ele>15.8716</ele>
        <time>2021-07-11T18:47:43Z</time>
      </trkpt>
      <trkpt lat="37.13419" lon="-8.58688">
        <ele>15.76515</ele>
        <time>2021-07-11T18:48:29Z</time>
      </trkpt>
      <trkpt lat="37.13426" lon="-8.58691">
        <ele>16.56248</ele>
        <time>2021-07-11T18:48:40Z</time>
      </trkpt>
      <trkpt lat="37.13431" lon="-8.5869">
        <ele>17.22451</ele>
        <time>2021-07-11T18:48:51Z</time>
      </trkpt>
      <trkpt lat="37.13435" lon="-8.5869">
        <ele>16.66298</ele>
        <time>2021-07-11T18:49:26Z</time>
      </trkpt>
      <trkpt lat="37.13431" lon="-8.58689">
        <ele>16.05727</ele>
        <time>2021-07-11T18:49:54Z</time>
      </trkpt>
      <trkpt lat="37.13429" lon="-8.58693">
        <ele>16.20722</ele>
        <time>2021-07-11T18:50:09Z</time>
      </trkpt>
      <trkpt lat="37.13432" lon="-8.5869">
        <ele>16.10105</ele>
        <time>2021-07-11T18:50:33Z</time>
      </trkpt>
      <trkpt lat="37.13436" lon="-8.58681">
        <ele>16.32969</ele>
        <time>2021-07-11T18:50:44Z</time>
      </trkpt>
      <trkpt lat="37.13434" lon="-8.58685">
        <ele>16.17283</ele>
        <time>2021-07-11T18:51:21Z</time>
      </trkpt>
      <trkpt lat="37.13432" lon="-8.58689">
        <ele>16.50881</ele>
        <time>2021-07-11T18:51:50Z</time>
      </trkpt>
      <trkpt lat="37.13431" lon="-8.58694">
        <ele>16.4739</ele>
        <time>2021-07-11T18:52:02Z</time>
      </trkpt>
      <trkpt lat="37.13432" lon="-8.5869">
        <ele>16.60574</ele>
        <time>2021-07-11T18:52:13Z</time>
      </trkpt>
      <trkpt lat="37.13429" lon="-8.58687">
        <ele>16.42278</ele>
        <time>2021-07-11T18:52:48Z</time>
      </trkpt>
      <trkpt lat="37.13431" lon="-8.58689">
        <ele>17.39391</ele>
        <time>2021-07-11T18:53:46Z</time>
      </trkpt>
      <trkpt lat="37.13429" lon="-8.58693">
        <ele>16.26203</ele>
        <time>2021-07-11T18:54:33Z</time>
      </trkpt>
      <trkpt lat="37.1343" lon="-8.587">
        <ele>16.61162</ele>
        <time>2021-07-11T18:54:44Z</time>
      </trkpt>
      <trkpt lat="37.13432" lon="-8.58704">
        <ele>16.28569</ele>
        <time>2021-07-11T18:55:11Z</time>
      </trkpt>
      <trkpt lat="37.13435" lon="-8.58701">
        <ele>16.27817</ele>
        <time>2021-07-11T18:55:23Z</time>
      </trkpt>
      <trkpt lat="37.13439" lon="-8.58695">
        <ele>16.29377</ele>
        <time>2021-07-11T18:55:34Z</time>
      </trkpt>
      <trkpt lat="37.13444" lon="-8.5869">
        <ele>16.65747</ele>
        <time>2021-07-11T18:55:45Z</time>
      </trkpt>
      <trkpt lat="37.13441" lon="-8.58693">
        <ele>16.91358</ele>
        <time>2021-07-11T18:56:02Z</time>
      </trkpt>
      <trkpt lat="37.13437" lon="-8.58699">
        <ele>16.74527</ele>
        <time>2021-07-11T18:56:13Z</time>
      </trkpt>
      <trkpt lat="37.13434" lon="-8.58704">
        <ele>16.52011</ele>
        <time>2021-07-11T18:56:24Z</time>
      </trkpt>
      <trkpt lat="37.1343" lon="-8.58705">
        <ele>17.31443</ele>
        <time>2021-07-11T18:56:49Z</time>
      </trkpt>
      <trkpt lat="37.13422" lon="-8.5871">
        <ele>16.73805</ele>
        <time>2021-07-11T18:57:00Z</time>
      </trkpt>
      <trkpt lat="37.13417" lon="-8.58719">
        <ele>16.26266</ele>
        <time>2021-07-11T18:57:11Z</time>
      </trkpt>
      <trkpt lat="37.13412" lon="-8.58732">
        <ele>16.17956</ele>
        <time>2021-07-11T18:57:22Z</time>
      </trkpt>
      <trkpt lat="37.13416" lon="-8.58733">
        <ele>17.401</ele>
        <time>2021-07-11T18:57:34Z</time>
      </trkpt>
      <trkpt lat="37.13418" lon="-8.58728">
        <ele>16.40044</ele>
        <time>2021-07-11T18:57:47Z</time>
      </trkpt>
      <trkpt lat="37.13414" lon="-8.58733">
        <ele>16.1794</ele>
        <time>2021-07-11T18:57:58Z</time>
      </trkpt>
      <trkpt lat="37.13415" lon="-8.58727">
        <ele>16.78625</ele>
        <time>2021-07-11T18:58:43Z</time>
      </trkpt>
      <trkpt lat="37.13416" lon="-8.58732">
        <ele>16.58616</ele>
        <time>2021-07-11T18:58:58Z</time>
      </trkpt>
      <trkpt lat="37.13414" lon="-8.58736">
        <ele>16.2278</ele>
        <time>2021-07-11T18:59:17Z</time>
      </trkpt>
      <trkpt lat="37.13413" lon="-8.58733">
        <ele>16.18938</ele>
        <time>2021-07-11T19:00:16Z</time>
      </trkpt>
      <trkpt lat="37.13415" lon="-8.58731">
        <ele>16.33244</ele>
        <time>2021-07-11T19:01:15Z</time>
      </trkpt>
      <trkpt lat="37.13415" lon="-8.5873">
        <ele>16.34646</ele>
        <time>2021-07-11T19:02:14Z</time>
      </trkpt>
      <trkpt lat="37.13415" lon="-8.58731">
        <ele>16.08759</ele>
        <time>2021-07-11T19:03:12Z</time>
      </trkpt>
      <trkpt lat="37.13416" lon="-8.58732">
        <ele>13.22651</ele>
        <time>2021-07-11T19:04:11Z</time>
      </trkpt>
      <trkpt lat="37.13415" lon="-8.58734">
        <ele>16.36251</ele>
        <time>2021-07-11T19:05:10Z</time>
      </trkpt>
      <trkpt lat="37.13415" lon="-8.58732">
        <ele>17.31272</ele>
        <time>2021-07-11T19:06:09Z</time>
      </trkpt>
      <trkpt lat="37.13414" lon="-8.5873">
        <ele>16.65934</ele>
        <time>2021-07-11T19:07:08Z</time>
      </trkpt>
    </trkseg>
  </trk>
  <trk>
    <name><![CDATA[Road trip fait P/E_7]]></name>
    <extensions>
      <line xmlns="http://www.topografix.com/GPX/gpx_style/0/2">
        <color>FF0000</color>
        <width>4</width>
      </line>
    </extensions>
    <trkseg>
      <trkpt lat="37.13414" lon="-8.58738">
        <ele>16.2134</ele>
        <time>2021-07-12T07:07:28Z</time>
      </trkpt>
      <trkpt lat="37.13414" lon="-8.58738">
        <ele>16.2134</ele>
        <time>2021-07-12T07:07:28Z</time>
      </trkpt>
      <trkpt lat="37.13447" lon="-8.58755">
        <ele>-6.456729</ele>
        <time>2021-07-12T07:07:40Z</time>
      </trkpt>
      <trkpt lat="37.13451" lon="-8.58755">
        <ele>3.955394</ele>
        <time>2021-07-12T07:07:56Z</time>
      </trkpt>
      <trkpt lat="37.13423" lon="-8.58737">
        <ele>18.13061</ele>
        <time>2021-07-12T07:08:07Z</time>
      </trkpt>
      <trkpt lat="37.13417" lon="-8.58736">
        <ele>16.88705</ele>
        <time>2021-07-12T07:08:18Z</time>
      </trkpt>
      <trkpt lat="37.13417" lon="-8.58736">
        <ele>16.88705</ele>
        <time>2021-07-12T07:09:14Z</time>
      </trkpt>
      <trkpt lat="37.13413" lon="-8.58738">
        <ele>16.727</ele>
        <time>2021-07-12T07:09:29Z</time>
      </trkpt>
      <trkpt lat="37.13411" lon="-8.58734">
        <ele>16.89256</ele>
        <time>2021-07-12T07:09:42Z</time>
      </trkpt>
      <trkpt lat="37.13415" lon="-8.58732">
        <ele>16.00457</ele>
        <time>2021-07-12T07:09:54Z</time>
      </trkpt>
      <trkpt lat="37.13438" lon="-8.58737">
        <ele>16.62161</ele>
        <time>2021-07-12T07:10:05Z</time>
      </trkpt>
      <trkpt lat="37.1347" lon="-8.58791">
        <ele>22.38928</ele>
        <time>2021-07-12T07:10:16Z</time>
      </trkpt>
      <trkpt lat="37.13519" lon="-8.58829">
        <ele>25.01433</ele>
        <time>2021-07-12T07:10:27Z</time>
      </trkpt>
      <trkpt lat="37.13531" lon="-8.58895">
        <ele>30.89945</ele>
        <time>2021-07-12T07:10:38Z</time>
      </trkpt>
      <trkpt lat="37.13481" lon="-8.58908">
        <ele>29.1794</ele>
        <time>2021-07-12T07:10:49Z</time>
      </trkpt>
      <trkpt lat="37.13454" lon="-8.58941">
        <ele>23.42574</ele>
        <time>2021-07-12T07:11:00Z</time>
      </trkpt>
      <trkpt lat="37.13493" lon="-8.58997">
        <ele>28.81928</ele>
        <time>2021-07-12T07:11:11Z</time>
      </trkpt>
      <trkpt lat="37.13489" lon="-8.59025">
        <ele>29.50621</ele>
        <time>2021-07-12T07:11:22Z</time>
      </trkpt>
      <trkpt lat="37.1349" lon="-8.59025">
        <ele>29.65345</ele>
        <time>2021-07-12T07:12:21Z</time>
      </trkpt>
      <trkpt lat="37.13511" lon="-8.59046">
        <ele>30.07553</ele>
        <time>2021-07-12T07:12:32Z</time>
      </trkpt>
      <trkpt lat="37.13517" lon="-8.59048">
        <ele>31.05242</ele>
        <time>2021-07-12T07:12:55Z</time>
      </trkpt>
      <trkpt lat="37.13633" lon="-8.59011">
        <ele>31.81201</ele>
        <time>2021-07-12T07:13:06Z</time>
      </trkpt>
      <trkpt lat="37.13782" lon="-8.58938">
        <ele>21.93998</ele>
        <time>2021-07-12T07:13:17Z</time>
      </trkpt>
      <trkpt lat="37.13944" lon="-8.58929">
        <ele>7.524133</ele>
        <time>2021-07-12T07:13:28Z</time>
      </trkpt>
      <trkpt lat="37.14118" lon="-8.58881">
        <ele>3.310957</ele>
        <time>2021-07-12T07:13:39Z</time>
      </trkpt>
      <trkpt lat="37.14255" lon="-8.58755">
        <ele>9.545582</ele>
        <time>2021-07-12T07:13:50Z</time>
      </trkpt>
      <trkpt lat="37.14369" lon="-8.58585">
        <ele>14.01206</ele>
        <time>2021-07-12T07:14:01Z</time>
      </trkpt>
      <trkpt lat="37.14481" lon="-8.58468">
        <ele>18.47968</ele>
        <time>2021-07-12T07:14:12Z</time>
      </trkpt>
      <trkpt lat="37.14561" lon="-8.58375">
        <ele>10.15038</ele>
        <time>2021-07-12T07:14:23Z</time>
      </trkpt>
      <trkpt lat="37.14659" lon="-8.58265">
        <ele>3.0112</ele>
        <time>2021-07-12T07:14:34Z</time>
      </trkpt>
      <trkpt lat="37.14708" lon="-8.5813">
        <ele>-1.448085</ele>
        <time>2021-07-12T07:14:45Z</time>
      </trkpt>
      <trkpt lat="37.1475" lon="-8.57985">
        <ele>0.447556</ele>
        <time>2021-07-12T07:14:56Z</time>
      </trkpt>
      <trkpt lat="37.14832" lon="-8.57844">
        <ele>4.001167</ele>
        <time>2021-07-12T07:15:07Z</time>
      </trkpt>
      <trkpt lat="37.14919" lon="-8.57692">
        <ele>3.44251</ele>
        <time>2021-07-12T07:15:18Z</time>
      </trkpt>
      <trkpt lat="37.15049" lon="-8.57663">
        <ele>2.683892</ele>
        <time>2021-07-12T07:15:29Z</time>
      </trkpt>
      <trkpt lat="37.15191" lon="-8.57621">
        <ele>2.512823</ele>
        <time>2021-07-12T07:15:40Z</time>
      </trkpt>
      <trkpt lat="37.15317" lon="-8.57537">
        <ele>4.103098</ele>
        <time>2021-07-12T07:15:51Z</time>
      </trkpt>
      <trkpt lat="37.15458" lon="-8.5749">
        <ele>6.037624</ele>
        <time>2021-07-12T07:16:02Z</time>
      </trkpt>
      <trkpt lat="37.15589" lon="-8.57394">
        <ele>4.707028</ele>
        <time>2021-07-12T07:16:13Z</time>
      </trkpt>
      <trkpt lat="37.15695" lon="-8.5729">
        <ele>1.822146</ele>
        <time>2021-07-12T07:16:24Z</time>
      </trkpt>
      <trkpt lat="37.15807" lon="-8.5719">
        <ele>1.090466</ele>
        <time>2021-07-12T07:16:35Z</time>
      </trkpt>
      <trkpt lat="37.15931" lon="-8.57084">
        <ele>2.737272</ele>
        <time>2021-07-12T07:16:46Z</time>
      </trkpt>
      <trkpt lat="37.16026" lon="-8.56995">
        <ele>4.508784</ele>
        <time>2021-07-12T07:16:57Z</time>
      </trkpt>
      <trkpt lat="37.16094" lon="-8.56857">
        <ele>10.21048</ele>
        <time>2021-07-12T07:17:08Z</time>
      </trkpt>
      <trkpt lat="37.16131" lon="-8.56647">
        <ele>25.58009</ele>
        <time>2021-07-12T07:17:19Z</time>
      </trkpt>
      <trkpt lat="37.16185" lon="-8.56396">
        <ele>35.69824</ele>
        <time>2021-07-12T07:17:30Z</time>
      </trkpt>
      <trkpt lat="37.16227" lon="-8.5614">
        <ele>39.23746</ele>
        <time>2021-07-12T07:17:41Z</time>
      </trkpt>
      <trkpt lat="37.16214" lon="-8.55878">
        <ele>37.39587</ele>
        <time>2021-07-12T07:17:52Z</time>
      </trkpt>
      <trkpt lat="37.16106" lon="-8.55635">
        <ele>28.74621</ele>
        <time>2021-07-12T07:18:03Z</time>
      </trkpt>
      <trkpt lat="37.15951" lon="-8.55415">
        <ele>23.88084</ele>
        <time>2021-07-12T07:18:14Z</time>
      </trkpt>
      <trkpt lat="37.15849" lon="-8.5516">
        <ele>28.11133</ele>
        <time>2021-07-12T07:18:25Z</time>
      </trkpt>
      <trkpt lat="37.15835" lon="-8.54904">
        <ele>30.47224</ele>
        <time>2021-07-12T07:18:36Z</time>
      </trkpt>
      <trkpt lat="37.1585" lon="-8.54623">
        <ele>33.60212</ele>
        <time>2021-07-12T07:18:47Z</time>
      </trkpt>
      <trkpt lat="37.15837" lon="-8.54344">
        <ele>34.20395</ele>
        <time>2021-07-12T07:18:58Z</time>
      </trkpt>
      <trkpt lat="37.15744" lon="-8.54092">
        <ele>35.15029</ele>
        <time>2021-07-12T07:19:09Z</time>
      </trkpt>
      <trkpt lat="37.15638" lon="-8.53807">
        <ele>32.27342</ele>
        <time>2021-07-12T07:19:20Z</time>
      </trkpt>
      <trkpt lat="37.15574" lon="-8.5353">
        <ele>28.42062</ele>
        <time>2021-07-12T07:19:31Z</time>
      </trkpt>
      <trkpt lat="37.15514" lon="-8.53282">
        <ele>25.48062</ele>
        <time>2021-07-12T07:19:42Z</time>
      </trkpt>
      <trkpt lat="37.15458" lon="-8.53043">
        <ele>22.0063</ele>
        <time>2021-07-12T07:19:53Z</time>
      </trkpt>
      <trkpt lat="37.15401" lon="-8.52803">
        <ele>14.76427</ele>
        <time>2021-07-12T07:20:04Z</time>
      </trkpt>
      <trkpt lat="37.15351" lon="-8.52569">
        <ele>8.962578</ele>
        <time>2021-07-12T07:20:15Z</time>
      </trkpt>
      <trkpt lat="37.1531" lon="-8.52352">
        <ele>5.936899</ele>
        <time>2021-07-12T07:20:26Z</time>
      </trkpt>
      <trkpt lat="37.15277" lon="-8.52142">
        <ele>5.449115</ele>
        <time>2021-07-12T07:20:37Z</time>
      </trkpt>
      <trkpt lat="37.1525" lon="-8.5194">
        <ele>3.380973</ele>
        <time>2021-07-12T07:20:48Z</time>
      </trkpt>
      <trkpt lat="37.15226" lon="-8.51707">
        <ele>2.787093</ele>
        <time>2021-07-12T07:20:59Z</time>
      </trkpt>
      <trkpt lat="37.15202" lon="-8.51424">
        <ele>3.089391</ele>
        <time>2021-07-12T07:21:10Z</time>
      </trkpt>
      <trkpt lat="37.15183" lon="-8.51173">
        <ele>1.922025</ele>
        <time>2021-07-12T07:21:21Z</time>
      </trkpt>
      <trkpt lat="37.15164" lon="-8.50942">
        <ele>6.099506</ele>
        <time>2021-07-12T07:21:32Z</time>
      </trkpt>
      <trkpt lat="37.15148" lon="-8.50725">
        <ele>9.274909</ele>
        <time>2021-07-12T07:21:43Z</time>
      </trkpt>
      <trkpt lat="37.15131" lon="-8.50509">
        <ele>8.604856</ele>
        <time>2021-07-12T07:21:54Z</time>
      </trkpt>
      <trkpt lat="37.15113" lon="-8.50277">
        <ele>4.071798</ele>
        <time>2021-07-12T07:22:05Z</time>
      </trkpt>
      <trkpt lat="37.15096" lon="-8.50068">
        <ele>3.126655</ele>
        <time>2021-07-12T07:22:16Z</time>
      </trkpt>
      <trkpt lat="37.15096" lon="-8.49833">
        <ele>3.501631</ele>
        <time>2021-07-12T07:22:27Z</time>
      </trkpt>
      <trkpt lat="37.15175" lon="-8.49597">
        <ele>4.688381</ele>
        <time>2021-07-12T07:22:38Z</time>
      </trkpt>
      <trkpt lat="37.15256" lon="-8.49408">
        <ele>7.875916</ele>
        <time>2021-07-12T07:22:49Z</time>
      </trkpt>
      <trkpt lat="37.15308" lon="-8.49246">
        <ele>11.40323</ele>
        <time>2021-07-12T07:23:00Z</time>
      </trkpt>
      <trkpt lat="37.15328" lon="-8.49023">
        <ele>19.43055</ele>
        <time>2021-07-12T07:23:11Z</time>
      </trkpt>
      <trkpt lat="37.153" lon="-8.48852">
        <ele>28.06718</ele>
        <time>2021-07-12T07:23:22Z</time>
      </trkpt>
      <trkpt lat="37.15265" lon="-8.48715">
        <ele>31.13645</ele>
        <time>2021-07-12T07:23:33Z</time>
      </trkpt>
      <trkpt lat="37.15221" lon="-8.48537">
        <ele>35.02055</ele>
        <time>2021-07-12T07:23:44Z</time>
      </trkpt>
      <trkpt lat="37.15163" lon="-8.48342">
        <ele>34.0792</ele>
        <time>2021-07-12T07:23:55Z</time>
      </trkpt>
      <trkpt lat="37.15088" lon="-8.48185">
        <ele>30.53784</ele>
        <time>2021-07-12T07:24:06Z</time>
      </trkpt>
      <trkpt lat="37.14989" lon="-8.48049">
        <ele>25.28348</ele>
        <time>2021-07-12T07:24:17Z</time>
      </trkpt>
      <trkpt lat="37.14864" lon="-8.47934">
        <ele>22.95252</ele>
        <time>2021-07-12T07:24:28Z</time>
      </trkpt>
      <trkpt lat="37.14728" lon="-8.47851">
        <ele>24.13673</ele>
        <time>2021-07-12T07:24:39Z</time>
      </trkpt>
      <trkpt lat="37.14575" lon="-8.4777">
        <ele>27.0174</ele>
        <time>2021-07-12T07:24:50Z</time>
      </trkpt>
      <trkpt lat="37.14446" lon="-8.47696">
        <ele>29.2399</ele>
        <time>2021-07-12T07:25:01Z</time>
      </trkpt>
      <trkpt lat="37.14295" lon="-8.47568">
        <ele>32.51464</ele>
        <time>2021-07-12T07:25:12Z</time>
      </trkpt>
      <trkpt lat="37.14164" lon="-8.47403">
        <ele>40.51844</ele>
        <time>2021-07-12T07:25:23Z</time>
      </trkpt>
      <trkpt lat="37.14045" lon="-8.47153">
        <ele>50.70624</ele>
        <time>2021-07-12T07:25:34Z</time>
      </trkpt>
      <trkpt lat="37.13936" lon="-8.46878">
        <ele>55.35931</ele>
        <time>2021-07-12T07:25:45Z</time>
      </trkpt>
      <trkpt lat="37.1382" lon="-8.466">
        <ele>49.32482</ele>
        <time>2021-07-12T07:25:56Z</time>
      </trkpt>
      <trkpt lat="37.1373" lon="-8.46388">
        <ele>42.05847</ele>
        <time>2021-07-12T07:26:07Z</time>
      </trkpt>
      <trkpt lat="37.13655" lon="-8.46232">
        <ele>38.20119</ele>
        <time>2021-07-12T07:26:18Z</time>
      </trkpt>
      <trkpt lat="37.13581" lon="-8.46089">
        <ele>40.10723</ele>
        <time>2021-07-12T07:26:29Z</time>
      </trkpt>
      <trkpt lat="37.13517" lon="-8.45982">
        <ele>42.91443</ele>
        <time>2021-07-12T07:26:40Z</time>
      </trkpt>
      <trkpt lat="37.13474" lon="-8.45939">
        <ele>44.93216</ele>
        <time>2021-07-12T07:26:51Z</time>
      </trkpt>
      <trkpt lat="37.1341" lon="-8.45792">
        <ele>48.20358</ele>
        <time>2021-07-12T07:27:02Z</time>
      </trkpt>
      <trkpt lat="37.13325" lon="-8.45643">
        <ele>45.25644</ele>
        <time>2021-07-12T07:27:13Z</time>
      </trkpt>
      <trkpt lat="37.1328" lon="-8.45503">
        <ele>42.71332</ele>
        <time>2021-07-12T07:27:24Z</time>
      </trkpt>
      <trkpt lat="37.13266" lon="-8.454">
        <ele>41.84412</ele>
        <time>2021-07-12T07:27:35Z</time>
      </trkpt>
      <trkpt lat="37.13262" lon="-8.45368">
        <ele>38.71473</ele>
        <time>2021-07-12T07:27:46Z</time>
      </trkpt>
      <trkpt lat="37.13244" lon="-8.45329">
        <ele>37.6903</ele>
        <time>2021-07-12T07:27:57Z</time>
      </trkpt>
      <trkpt lat="37.13231" lon="-8.45159">
        <ele>37.36007</ele>
        <time>2021-07-12T07:28:08Z</time>
      </trkpt>
      <trkpt lat="37.13201" lon="-8.44986">
        <ele>37.76616</ele>
        <time>2021-07-12T07:28:19Z</time>
      </trkpt>
      <trkpt lat="37.13177" lon="-8.44826">
        <ele>37.13685</ele>
        <time>2021-07-12T07:28:30Z</time>
      </trkpt>
      <trkpt lat="37.13101" lon="-8.44743">
        <ele>36.96564</ele>
        <time>2021-07-12T07:28:41Z</time>
      </trkpt>
      <trkpt lat="37.12974" lon="-8.44642">
        <ele>37.10878</ele>
        <time>2021-07-12T07:28:52Z</time>
      </trkpt>
      <trkpt lat="37.12848" lon="-8.44509">
        <ele>35.33241</ele>
        <time>2021-07-12T07:29:03Z</time>
      </trkpt>
      <trkpt lat="37.12754" lon="-8.44362">
        <ele>33.58147</ele>
        <time>2021-07-12T07:29:14Z</time>
      </trkpt>
      <trkpt lat="37.12664" lon="-8.44151">
        <ele>35.92229</ele>
        <time>2021-07-12T07:29:25Z</time>
      </trkpt>
      <trkpt lat="37.12572" lon="-8.43933">
        <ele>40.87059</ele>
        <time>2021-07-12T07:29:36Z</time>
      </trkpt>
      <trkpt lat="37.12442" lon="-8.43728">
        <ele>42.53342</ele>
        <time>2021-07-12T07:29:47Z</time>
      </trkpt>
      <trkpt lat="37.12284" lon="-8.43552">
        <ele>44.55107</ele>
        <time>2021-07-12T07:29:58Z</time>
      </trkpt>
      <trkpt lat="37.12078" lon="-8.43465">
        <ele>46.53751</ele>
        <time>2021-07-12T07:30:09Z</time>
      </trkpt>
      <trkpt lat="37.11879" lon="-8.43421">
        <ele>55.87609</ele>
        <time>2021-07-12T07:30:20Z</time>
      </trkpt>
      <trkpt lat="37.11664" lon="-8.43405">
        <ele>63.58489</ele>
        <time>2021-07-12T07:30:31Z</time>
      </trkpt>
      <trkpt lat="37.11421" lon="-8.43414">
        <ele>68.24901</ele>
        <time>2021-07-12T07:30:42Z</time>
      </trkpt>
      <trkpt lat="37.11236" lon="-8.43416">
        <ele>81.78564</ele>
        <time>2021-07-12T07:30:53Z</time>
      </trkpt>
      <trkpt lat="37.1116" lon="-8.43422">
        <ele>83.2868</ele>
        <time>2021-07-12T07:31:04Z</time>
      </trkpt>
      <trkpt lat="37.11036" lon="-8.43412">
        <ele>82.42232</ele>
        <time>2021-07-12T07:31:15Z</time>
      </trkpt>
      <trkpt lat="37.10877" lon="-8.43347">
        <ele>81.05053</ele>
        <time>2021-07-12T07:31:26Z</time>
      </trkpt>
      <trkpt lat="37.10725" lon="-8.43377">
        <ele>81.3829</ele>
        <time>2021-07-12T07:31:37Z</time>
      </trkpt>
      <trkpt lat="37.10679" lon="-8.43337">
        <ele>77.4785</ele>
        <time>2021-07-12T07:31:48Z</time>
      </trkpt>
      <trkpt lat="37.10625" lon="-8.43129">
        <ele>66.60224</ele>
        <time>2021-07-12T07:31:59Z</time>
      </trkpt>
      <trkpt lat="37.10473" lon="-8.43015">
        <ele>55.78477</ele>
        <time>2021-07-12T07:32:10Z</time>
      </trkpt>
      <trkpt lat="37.10336" lon="-8.42899">
        <ele>45.06675</ele>
        <time>2021-07-12T07:32:21Z</time>
      </trkpt>
      <trkpt lat="37.10183" lon="-8.42794">
        <ele>36.01162</ele>
        <time>2021-07-12T07:32:32Z</time>
      </trkpt>
      <trkpt lat="37.1006" lon="-8.4262">
        <ele>46.47982</ele>
        <time>2021-07-12T07:32:43Z</time>
      </trkpt>
      <trkpt lat="37.09934" lon="-8.42459">
        <ele>66.27493</ele>
        <time>2021-07-12T07:32:54Z</time>
      </trkpt>
      <trkpt lat="37.09834" lon="-8.42309">
        <ele>70.30504</ele>
        <time>2021-07-12T07:33:05Z</time>
      </trkpt>
      <trkpt lat="37.09749" lon="-8.42127">
        <ele>61.74641</ele>
        <time>2021-07-12T07:33:16Z</time>
      </trkpt>
      <trkpt lat="37.09747" lon="-8.41972">
        <ele>65.40336</ele>
        <time>2021-07-12T07:33:27Z</time>
      </trkpt>
      <trkpt lat="37.09704" lon="-8.41942">
        <ele>64.31824</ele>
        <time>2021-07-12T07:33:38Z</time>
      </trkpt>
      <trkpt lat="37.09566" lon="-8.41955">
        <ele>57.68027</ele>
        <time>2021-07-12T07:33:49Z</time>
      </trkpt>
      <trkpt lat="37.09386" lon="-8.41939">
        <ele>51.53008</ele>
        <time>2021-07-12T07:34:00Z</time>
      </trkpt>
      <trkpt lat="37.09248" lon="-8.41921">
        <ele>47.34641</ele>
        <time>2021-07-12T07:34:11Z</time>
      </trkpt>
      <trkpt lat="37.09181" lon="-8.42037">
        <ele>45.22571</ele>
        <time>2021-07-12T07:34:22Z</time>
      </trkpt>
      <trkpt lat="37.09068" lon="-8.42156">
        <ele>39.45902</ele>
        <time>2021-07-12T07:34:33Z</time>
      </trkpt>
      <trkpt lat="37.08988" lon="-8.42302">
        <ele>40.9036</ele>
        <time>2021-07-12T07:34:44Z</time>
      </trkpt>
      <trkpt lat="37.08948" lon="-8.42381">
        <ele>45.1538</ele>
        <time>2021-07-12T07:34:55Z</time>
      </trkpt>
      <trkpt lat="37.08943" lon="-8.42414">
        <ele>42.46923</ele>
        <time>2021-07-12T07:35:06Z</time>
      </trkpt>
      <trkpt lat="37.08907" lon="-8.42417">
        <ele>39.92225</ele>
        <time>2021-07-12T07:35:17Z</time>
      </trkpt>
      <trkpt lat="37.08901" lon="-8.424">
        <ele>39.27813</ele>
        <time>2021-07-12T07:35:28Z</time>
      </trkpt>
      <trkpt lat="37.08902" lon="-8.42398">
        <ele>36.57025</ele>
        <time>2021-07-12T07:36:26Z</time>
      </trkpt>
      <trkpt lat="37.08904" lon="-8.42387">
        <ele>36.11249</ele>
        <time>2021-07-12T07:36:37Z</time>
      </trkpt>
      <trkpt lat="37.08897" lon="-8.42371">
        <ele>43.64305</ele>
        <time>2021-07-12T07:36:48Z</time>
      </trkpt>
      <trkpt lat="37.08887" lon="-8.42358">
        <ele>43.06782</ele>
        <time>2021-07-12T07:36:59Z</time>
      </trkpt>
      <trkpt lat="37.08874" lon="-8.42353">
        <ele>41.31282</ele>
        <time>2021-07-12T07:37:10Z</time>
      </trkpt>
      <trkpt lat="37.08862" lon="-8.42348">
        <ele>40.36054</ele>
        <time>2021-07-12T07:37:21Z</time>
      </trkpt>
      <trkpt lat="37.08856" lon="-8.42336">
        <ele>40.48934</ele>
        <time>2021-07-12T07:37:32Z</time>
      </trkpt>
      <trkpt lat="37.08853" lon="-8.4232">
        <ele>38.07685</ele>
        <time>2021-07-12T07:37:43Z</time>
      </trkpt>
      <trkpt lat="37.08841" lon="-8.42318">
        <ele>35.88766</ele>
        <time>2021-07-12T07:37:54Z</time>
      </trkpt>
      <trkpt lat="37.08827" lon="-8.42322">
        <ele>36.62473</ele>
        <time>2021-07-12T07:38:05Z</time>
      </trkpt>
      <trkpt lat="37.08823" lon="-8.42321">
        <ele>36.22802</ele>
        <time>2021-07-12T07:38:16Z</time>
      </trkpt>
      <trkpt lat="37.08812" lon="-8.42327">
        <ele>35.28155</ele>
        <time>2021-07-12T07:38:27Z</time>
      </trkpt>
      <trkpt lat="37.08797" lon="-8.4233">
        <ele>33.87049</ele>
        <time>2021-07-12T07:38:38Z</time>
      </trkpt>
      <trkpt lat="37.08784" lon="-8.42335">
        <ele>33.48892</ele>
        <time>2021-07-12T07:38:49Z</time>
      </trkpt>
      <trkpt lat="37.08771" lon="-8.42337">
        <ele>31.35005</ele>
        <time>2021-07-12T07:39:00Z</time>
      </trkpt>
      <trkpt lat="37.08761" lon="-8.42345">
        <ele>27.27993</ele>
        <time>2021-07-12T07:39:11Z</time>
      </trkpt>
      <trkpt lat="37.08751" lon="-8.42359">
        <ele>29.9093</ele>
        <time>2021-07-12T07:39:22Z</time>
      </trkpt>
      <trkpt lat="37.0874" lon="-8.42367">
        <ele>30.31172</ele>
        <time>2021-07-12T07:39:33Z</time>
      </trkpt>
      <trkpt lat="37.08734" lon="-8.42368">
        <ele>29.19164</ele>
        <time>2021-07-12T07:39:44Z</time>
      </trkpt>
      <trkpt lat="37.08727" lon="-8.42359">
        <ele>25.74128</ele>
        <time>2021-07-12T07:39:55Z</time>
      </trkpt>
      <trkpt lat="37.08722" lon="-8.4236">
        <ele>22.59428</ele>
        <time>2021-07-12T07:40:08Z</time>
      </trkpt>
      <trkpt lat="37.08718" lon="-8.42364">
        <ele>21.26787</ele>
        <time>2021-07-12T07:40:19Z</time>
      </trkpt>
      <trkpt lat="37.08714" lon="-8.42366">
        <ele>20.45208</ele>
        <time>2021-07-12T07:40:35Z</time>
      </trkpt>
      <trkpt lat="37.0871" lon="-8.42369">
        <ele>18.852</ele>
        <time>2021-07-12T07:40:50Z</time>
      </trkpt>
      <trkpt lat="37.08707" lon="-8.4238">
        <ele>20.72672</ele>
        <time>2021-07-12T07:41:01Z</time>
      </trkpt>
      <trkpt lat="37.08707" lon="-8.42385">
        <ele>23.31845</ele>
        <time>2021-07-12T07:41:43Z</time>
      </trkpt>
      <trkpt lat="37.08697" lon="-8.42392">
        <ele>20.95096</ele>
        <time>2021-07-12T07:41:54Z</time>
      </trkpt>
      <trkpt lat="37.08685" lon="-8.42394">
        <ele>18.36963</ele>
        <time>2021-07-12T07:42:05Z</time>
      </trkpt>
      <trkpt lat="37.08679" lon="-8.42389">
        <ele>11.97051</ele>
        <time>2021-07-12T07:42:16Z</time>
      </trkpt>
      <trkpt lat="37.08675" lon="-8.42388">
        <ele>8.193308</ele>
        <time>2021-07-12T07:42:27Z</time>
      </trkpt>
      <trkpt lat="37.08678" lon="-8.42384">
        <ele>4.30735</ele>
        <time>2021-07-12T07:42:55Z</time>
      </trkpt>
      <trkpt lat="37.08687" lon="-8.42389">
        <ele>12.37091</ele>
        <time>2021-07-12T07:43:06Z</time>
      </trkpt>
      <trkpt lat="37.08696" lon="-8.42393">
        <ele>19.87137</ele>
        <time>2021-07-12T07:43:17Z</time>
      </trkpt>
      <trkpt lat="37.08707" lon="-8.42398">
        <ele>26.50858</ele>
        <time>2021-07-12T07:43:28Z</time>
      </trkpt>
      <trkpt lat="37.08717" lon="-8.42399">
        <ele>29.9636</ele>
        <time>2021-07-12T07:43:39Z</time>
      </trkpt>
      <trkpt lat="37.08728" lon="-8.42392">
        <ele>33.28489</ele>
        <time>2021-07-12T07:43:50Z</time>
      </trkpt>
      <trkpt lat="37.08738" lon="-8.42381">
        <ele>31.87994</ele>
        <time>2021-07-12T07:44:01Z</time>
      </trkpt>
      <trkpt lat="37.08748" lon="-8.42368">
        <ele>32.76788</ele>
        <time>2021-07-12T07:44:12Z</time>
      </trkpt>
      <trkpt lat="37.0876" lon="-8.42368">
        <ele>33.20013</ele>
        <time>2021-07-12T07:44:23Z</time>
      </trkpt>
      <trkpt lat="37.08772" lon="-8.42373">
        <ele>35.94339</ele>
        <time>2021-07-12T07:44:34Z</time>
      </trkpt>
      <trkpt lat="37.08786" lon="-8.42373">
        <ele>38.63278</ele>
        <time>2021-07-12T07:44:45Z</time>
      </trkpt>
      <trkpt lat="37.088" lon="-8.42372">
        <ele>38.91768</ele>
        <time>2021-07-12T07:44:56Z</time>
      </trkpt>
      <trkpt lat="37.08811" lon="-8.42384">
        <ele>39.98963</ele>
        <time>2021-07-12T07:45:07Z</time>
      </trkpt>
      <trkpt lat="37.08821" lon="-8.42396">
        <ele>40.96417</ele>
        <time>2021-07-12T07:45:18Z</time>
      </trkpt>
      <trkpt lat="37.08834" lon="-8.42394">
        <ele>41.45357</ele>
        <time>2021-07-12T07:45:29Z</time>
      </trkpt>
      <trkpt lat="37.08843" lon="-8.42378">
        <ele>40.74552</ele>
        <time>2021-07-12T07:45:40Z</time>
      </trkpt>
      <trkpt lat="37.0885" lon="-8.42361">
        <ele>42.62265</ele>
        <time>2021-07-12T07:45:51Z</time>
      </trkpt>
      <trkpt lat="37.08859" lon="-8.42348">
        <ele>40.32822</ele>
        <time>2021-07-12T07:46:02Z</time>
      </trkpt>
      <trkpt lat="37.08872" lon="-8.42352">
        <ele>42.53633</ele>
        <time>2021-07-12T07:46:13Z</time>
      </trkpt>
      <trkpt lat="37.08887" lon="-8.4236">
        <ele>42.15617</ele>
        <time>2021-07-12T07:46:24Z</time>
      </trkpt>
      <trkpt lat="37.08895" lon="-8.42375">
        <ele>44.06002</ele>
        <time>2021-07-12T07:46:35Z</time>
      </trkpt>
      <trkpt lat="37.08901" lon="-8.42391">
        <ele>43.02882</ele>
        <time>2021-07-12T07:46:46Z</time>
      </trkpt>
      <trkpt lat="37.08901" lon="-8.42399">
        <ele>43.38647</ele>
        <time>2021-07-12T07:46:57Z</time>
      </trkpt>
      <trkpt lat="37.08901" lon="-8.424">
        <ele>44.2286</ele>
        <time>2021-07-12T07:47:56Z</time>
      </trkpt>
      <trkpt lat="37.08906" lon="-8.42393">
        <ele>42.40167</ele>
        <time>2021-07-12T07:48:07Z</time>
      </trkpt>
      <trkpt lat="37.08901" lon="-8.42469">
        <ele>42.78248</ele>
        <time>2021-07-12T07:48:18Z</time>
      </trkpt>
      <trkpt lat="37.08927" lon="-8.42528">
        <ele>40.05783</ele>
        <time>2021-07-12T07:48:29Z</time>
      </trkpt>
      <trkpt lat="37.08904" lon="-8.42577">
        <ele>35.37913</ele>
        <time>2021-07-12T07:48:40Z</time>
      </trkpt>
      <trkpt lat="37.08867" lon="-8.4266">
        <ele>21.13795</ele>
        <time>2021-07-12T07:48:51Z</time>
      </trkpt>
      <trkpt lat="37.08802" lon="-8.42647">
        <ele>16.05309</ele>
        <time>2021-07-12T07:49:02Z</time>
      </trkpt>
      <trkpt lat="37.08784" lon="-8.42663">
        <ele>16.28146</ele>
        <time>2021-07-12T07:49:13Z</time>
      </trkpt>
      <trkpt lat="37.08844" lon="-8.42701">
        <ele>21.28703</ele>
        <time>2021-07-12T07:49:24Z</time>
      </trkpt>
      <trkpt lat="37.08903" lon="-8.42743">
        <ele>31.65553</ele>
        <time>2021-07-12T07:49:35Z</time>
      </trkpt>
      <trkpt lat="37.08921" lon="-8.42819">
        <ele>44.04649</ele>
        <time>2021-07-12T07:49:46Z</time>
      </trkpt>
      <trkpt lat="37.0892" lon="-8.42834">
        <ele>46.03731</ele>
        <time>2021-07-12T07:49:57Z</time>
      </trkpt>
      <trkpt lat="37.08913" lon="-8.4277">
        <ele>40.32107</ele>
        <time>2021-07-12T07:50:08Z</time>
      </trkpt>
      <trkpt lat="37.08863" lon="-8.42724">
        <ele>25.68631</ele>
        <time>2021-07-12T07:50:19Z</time>
      </trkpt>
      <trkpt lat="37.08808" lon="-8.42688">
        <ele>16.98123</ele>
        <time>2021-07-12T07:50:30Z</time>
      </trkpt>
      <trkpt lat="37.08782" lon="-8.42649">
        <ele>13.59884</ele>
        <time>2021-07-12T07:50:41Z</time>
      </trkpt>
      <trkpt lat="37.08871" lon="-8.42655">
        <ele>19.01563</ele>
        <time>2021-07-12T07:50:52Z</time>
      </trkpt>
      <trkpt lat="37.08884" lon="-8.42628">
        <ele>24.36863</ele>
        <time>2021-07-12T07:51:03Z</time>
      </trkpt>
      <trkpt lat="37.08888" lon="-8.42617">
        <ele>31.76682</ele>
        <time>2021-07-12T07:51:14Z</time>
      </trkpt>
      <trkpt lat="37.08889" lon="-8.42613">
        <ele>31.42222</ele>
        <time>2021-07-12T07:51:30Z</time>
      </trkpt>
      <trkpt lat="37.08929" lon="-8.42537">
        <ele>41.22059</ele>
        <time>2021-07-12T07:51:41Z</time>
      </trkpt>
      <trkpt lat="37.08906" lon="-8.42541">
        <ele>37.62275</ele>
        <time>2021-07-12T07:51:52Z</time>
      </trkpt>
      <trkpt lat="37.08898" lon="-8.42541">
        <ele>37.80409</ele>
        <time>2021-07-12T07:52:03Z</time>
      </trkpt>
      <trkpt lat="37.08897" lon="-8.42545">
        <ele>38.62179</ele>
        <time>2021-07-12T07:52:26Z</time>
      </trkpt>
      <trkpt lat="37.08897" lon="-8.42543">
        <ele>38.31907</ele>
        <time>2021-07-12T07:53:25Z</time>
      </trkpt>
      <trkpt lat="37.08893" lon="-8.42544">
        <ele>38.50323</ele>
        <time>2021-07-12T07:54:01Z</time>
      </trkpt>
      <trkpt lat="37.08892" lon="-8.42543">
        <ele>38.65416</ele>
        <time>2021-07-12T07:54:59Z</time>
      </trkpt>
      <trkpt lat="37.08895" lon="-8.42546">
        <ele>42.45397</ele>
        <time>2021-07-12T07:55:24Z</time>
      </trkpt>
      <trkpt lat="37.08895" lon="-8.42544">
        <ele>39.17541</ele>
        <time>2021-07-12T07:56:23Z</time>
      </trkpt>
      <trkpt lat="37.08897" lon="-8.42543">
        <ele>38.6386</ele>
        <time>2021-07-12T07:57:22Z</time>
      </trkpt>
      <trkpt lat="37.089" lon="-8.42544">
        <ele>38.12792</ele>
        <time>2021-07-12T07:58:20Z</time>
      </trkpt>
      <trkpt lat="37.08931" lon="-8.4253">
        <ele>41.81369</ele>
        <time>2021-07-12T07:58:31Z</time>
      </trkpt>
      <trkpt lat="37.08932" lon="-8.42517">
        <ele>43.32203</ele>
        <time>2021-07-12T07:58:42Z</time>
      </trkpt>
      <trkpt lat="37.08945" lon="-8.42346">
        <ele>44.98566</ele>
        <time>2021-07-12T07:58:53Z</time>
      </trkpt>
      <trkpt lat="37.09038" lon="-8.422">
        <ele>43.51092</ele>
        <time>2021-07-12T07:59:04Z</time>
      </trkpt>
      <trkpt lat="37.0916" lon="-8.42045">
        <ele>48.01808</ele>
        <time>2021-07-12T07:59:15Z</time>
      </trkpt>
      <trkpt lat="37.0923" lon="-8.41917">
        <ele>53.2916</ele>
        <time>2021-07-12T07:59:26Z</time>
      </trkpt>
      <trkpt lat="37.09405" lon="-8.41941">
        <ele>55.72667</ele>
        <time>2021-07-12T07:59:37Z</time>
      </trkpt>
      <trkpt lat="37.09578" lon="-8.4194">
        <ele>62.35147</ele>
        <time>2021-07-12T07:59:48Z</time>
      </trkpt>
      <trkpt lat="37.09725" lon="-8.41939">
        <ele>71.10929</ele>
        <time>2021-07-12T07:59:59Z</time>
      </trkpt>
      <trkpt lat="37.09801" lon="-8.41841">
        <ele>68.62161</ele>
        <time>2021-07-12T08:00:10Z</time>
      </trkpt>
      <trkpt lat="37.09916" lon="-8.41745">
        <ele>64.09473</ele>
        <time>2021-07-12T08:00:21Z</time>
      </trkpt>
      <trkpt lat="37.10069" lon="-8.41617">
        <ele>74.30748</ele>
        <time>2021-07-12T08:00:32Z</time>
      </trkpt>
      <trkpt lat="37.10198" lon="-8.41607">
        <ele>75.79193</ele>
        <time>2021-07-12T08:00:43Z</time>
      </trkpt>
      <trkpt lat="37.10371" lon="-8.41556">
        <ele>78.06607</ele>
        <time>2021-07-12T08:00:54Z</time>
      </trkpt>
      <trkpt lat="37.10451" lon="-8.41466">
        <ele>82.13478</ele>
        <time>2021-07-12T08:01:05Z</time>
      </trkpt>
      <trkpt lat="37.10617" lon="-8.41472">
        <ele>82.54996</ele>
        <time>2021-07-12T08:01:16Z</time>
      </trkpt>
      <trkpt lat="37.10815" lon="-8.4153">
        <ele>84.18827</ele>
        <time>2021-07-12T08:01:27Z</time>
      </trkpt>
      <trkpt lat="37.1101" lon="-8.4157">
        <ele>88.29416</ele>
        <time>2021-07-12T08:01:38Z</time>
      </trkpt>
      <trkpt lat="37.11215" lon="-8.4159">
        <ele>88.72265</ele>
        <time>2021-07-12T08:01:49Z</time>
      </trkpt>
      <trkpt lat="37.11402" lon="-8.41648">
        <ele>88.62718</ele>
        <time>2021-07-12T08:02:00Z</time>
      </trkpt>
      <trkpt lat="37.1159" lon="-8.41721">
        <ele>73.86046</ele>
        <time>2021-07-12T08:02:11Z</time>
      </trkpt>
      <trkpt lat="37.11784" lon="-8.41735">
        <ele>61.11476</ele>
        <time>2021-07-12T08:02:22Z</time>
      </trkpt>
      <trkpt lat="37.11997" lon="-8.4182">
        <ele>69.83638</ele>
        <time>2021-07-12T08:02:33Z</time>
      </trkpt>
      <trkpt lat="37.12219" lon="-8.41873">
        <ele>79.04065</ele>
        <time>2021-07-12T08:02:44Z</time>
      </trkpt>
      <trkpt lat="37.12418" lon="-8.41904">
        <ele>88.56255</ele>
        <time>2021-07-12T08:02:55Z</time>
      </trkpt>
      <trkpt lat="37.12618" lon="-8.4196">
        <ele>89.7972</ele>
        <time>2021-07-12T08:03:06Z</time>
      </trkpt>
      <trkpt lat="37.12767" lon="-8.42025">
        <ele>75.24618</ele>
        <time>2021-07-12T08:03:17Z</time>
      </trkpt>
      <trkpt lat="37.1283" lon="-8.42091">
        <ele>72.00245</ele>
        <time>2021-07-12T08:03:28Z</time>
      </trkpt>
      <trkpt lat="37.12838" lon="-8.41902">
        <ele>74.35544</ele>
        <time>2021-07-12T08:03:39Z</time>
      </trkpt>
      <trkpt lat="37.12844" lon="-8.4169">
        <ele>78.86946</ele>
        <time>2021-07-12T08:03:50Z</time>
      </trkpt>
      <trkpt lat="37.12749" lon="-8.41513">
        <ele>80.39123</ele>
        <time>2021-07-12T08:04:01Z</time>
      </trkpt>
      <trkpt lat="37.12679" lon="-8.41304">
        <ele>81.18009</ele>
        <time>2021-07-12T08:04:12Z</time>
      </trkpt>
      <trkpt lat="37.12676" lon="-8.41079">
        <ele>78.51902</ele>
        <time>2021-07-12T08:04:23Z</time>
      </trkpt>
      <trkpt lat="37.12643" lon="-8.40847">
        <ele>78.26943</ele>
        <time>2021-07-12T08:04:34Z</time>
      </trkpt>
      <trkpt lat="37.1262" lon="-8.40616">
        <ele>76.47095</ele>
        <time>2021-07-12T08:04:45Z</time>
      </trkpt>
      <trkpt lat="37.12636" lon="-8.40455">
        <ele>75.49212</ele>
        <time>2021-07-12T08:04:56Z</time>
      </trkpt>
      <trkpt lat="37.12636" lon="-8.40424">
        <ele>79.80966</ele>
        <time>2021-07-12T08:05:07Z</time>
      </trkpt>
      <trkpt lat="37.12633" lon="-8.40412">
        <ele>78.00326</ele>
        <time>2021-07-12T08:05:18Z</time>
      </trkpt>
      <trkpt lat="37.12632" lon="-8.4041">
        <ele>75.29894</ele>
        <time>2021-07-12T08:06:17Z</time>
      </trkpt>
      <trkpt lat="37.12633" lon="-8.40406">
        <ele>68.08275</ele>
        <time>2021-07-12T08:06:41Z</time>
      </trkpt>
      <trkpt lat="37.12635" lon="-8.40405">
        <ele>67.42208</ele>
        <time>2021-07-12T08:07:40Z</time>
      </trkpt>
      <trkpt lat="37.12635" lon="-8.40405">
        <ele>67.42208</ele>
        <time>2021-07-12T08:08:39Z</time>
      </trkpt>
      <trkpt lat="37.12635" lon="-8.40405">
        <ele>67.42208</ele>
        <time>2021-07-12T08:09:38Z</time>
      </trkpt>
      <trkpt lat="37.12632" lon="-8.40401">
        <ele>70.66983</ele>
        <time>2021-07-12T08:10:26Z</time>
      </trkpt>
      <trkpt lat="37.1264" lon="-8.40387">
        <ele>75.33948</ele>
        <time>2021-07-12T08:10:37Z</time>
      </trkpt>
      <trkpt lat="37.12646" lon="-8.40383">
        <ele>79.85647</ele>
        <time>2021-07-12T08:10:51Z</time>
      </trkpt>
      <trkpt lat="37.12667" lon="-8.40244">
        <ele>79.46164</ele>
        <time>2021-07-12T08:11:02Z</time>
      </trkpt>
      <trkpt lat="37.12589" lon="-8.40177">
        <ele>88.5076</ele>
        <time>2021-07-12T08:11:13Z</time>
      </trkpt>
      <trkpt lat="37.12477" lon="-8.40117">
        <ele>96.30285</ele>
        <time>2021-07-12T08:11:24Z</time>
      </trkpt>
      <trkpt lat="37.12352" lon="-8.40043">
        <ele>95.53362</ele>
        <time>2021-07-12T08:11:35Z</time>
      </trkpt>
      <trkpt lat="37.12219" lon="-8.4007">
        <ele>91.60237</ele>
        <time>2021-07-12T08:11:46Z</time>
      </trkpt>
      <trkpt lat="37.12073" lon="-8.40121">
        <ele>85.17351</ele>
        <time>2021-07-12T08:11:57Z</time>
      </trkpt>
      <trkpt lat="37.11909" lon="-8.4013">
        <ele>87.29886</ele>
        <time>2021-07-12T08:12:08Z</time>
      </trkpt>
      <trkpt lat="37.11754" lon="-8.39996">
        <ele>83.22392</ele>
        <time>2021-07-12T08:12:19Z</time>
      </trkpt>
      <trkpt lat="37.11606" lon="-8.39859">
        <ele>82.7127</ele>
        <time>2021-07-12T08:12:30Z</time>
      </trkpt>
      <trkpt lat="37.11492" lon="-8.39679">
        <ele>79.0598</ele>
        <time>2021-07-12T08:12:41Z</time>
      </trkpt>
      <trkpt lat="37.11361" lon="-8.39456">
        <ele>78.12306</ele>
        <time>2021-07-12T08:12:52Z</time>
      </trkpt>
      <trkpt lat="37.11251" lon="-8.39262">
        <ele>75.42519</ele>
        <time>2021-07-12T08:13:03Z</time>
      </trkpt>
      <trkpt lat="37.11126" lon="-8.39045">
        <ele>71.06582</ele>
        <time>2021-07-12T08:13:14Z</time>
      </trkpt>
      <trkpt lat="37.11009" lon="-8.38845">
        <ele>70.18282</ele>
        <time>2021-07-12T08:13:25Z</time>
      </trkpt>
      <trkpt lat="37.10847" lon="-8.38683">
        <ele>65.1235</ele>
        <time>2021-07-12T08:13:36Z</time>
      </trkpt>
      <trkpt lat="37.10691" lon="-8.38482">
        <ele>59.54595</ele>
        <time>2021-07-12T08:13:47Z</time>
      </trkpt>
      <trkpt lat="37.10606" lon="-8.38286">
        <ele>56.04192</ele>
        <time>2021-07-12T08:13:58Z</time>
      </trkpt>
      <trkpt lat="37.10582" lon="-8.3808">
        <ele>53.16998</ele>
        <time>2021-07-12T08:14:09Z</time>
      </trkpt>
      <trkpt lat="37.1055" lon="-8.37871">
        <ele>49.47943</ele>
        <time>2021-07-12T08:14:20Z</time>
      </trkpt>
      <trkpt lat="37.1049" lon="-8.37645">
        <ele>40.7719</ele>
        <time>2021-07-12T08:14:31Z</time>
      </trkpt>
      <trkpt lat="37.10406" lon="-8.37442">
        <ele>29.45096</ele>
        <time>2021-07-12T08:14:42Z</time>
      </trkpt>
      <trkpt lat="37.10367" lon="-8.37227">
        <ele>16.74433</ele>
        <time>2021-07-12T08:14:53Z</time>
      </trkpt>
      <trkpt lat="37.1035" lon="-8.37079">
        <ele>9.35634</ele>
        <time>2021-07-12T08:15:04Z</time>
      </trkpt>
      <trkpt lat="37.10345" lon="-8.37007">
        <ele>11.29815</ele>
        <time>2021-07-12T08:15:15Z</time>
      </trkpt>
      <trkpt lat="37.10315" lon="-8.36875">
        <ele>17.97293</ele>
        <time>2021-07-12T08:15:26Z</time>
      </trkpt>
      <trkpt lat="37.10289" lon="-8.36759">
        <ele>22.68366</ele>
        <time>2021-07-12T08:15:37Z</time>
      </trkpt>
      <trkpt lat="37.1027" lon="-8.36683">
        <ele>24.12071</ele>
        <time>2021-07-12T08:15:48Z</time>
      </trkpt>
      <trkpt lat="37.10316" lon="-8.3665">
        <ele>31.87834</ele>
        <time>2021-07-12T08:15:59Z</time>
      </trkpt>
      <trkpt lat="37.10374" lon="-8.36621">
        <ele>39.74933</ele>
        <time>2021-07-12T08:16:10Z</time>
      </trkpt>
      <trkpt lat="37.10375" lon="-8.36485">
        <ele>22.71985</ele>
        <time>2021-07-12T08:16:21Z</time>
      </trkpt>
      <trkpt lat="37.10334" lon="-8.36395">
        <ele>12.05959</ele>
        <time>2021-07-12T08:16:32Z</time>
      </trkpt>
      <trkpt lat="37.10308" lon="-8.36308">
        <ele>11.6993</ele>
        <time>2021-07-12T08:16:43Z</time>
      </trkpt>
      <trkpt lat="37.10306" lon="-8.363">
        <ele>22.22325</ele>
        <time>2021-07-12T08:16:54Z</time>
      </trkpt>
      <trkpt lat="37.103" lon="-8.3627">
        <ele>29.34032</ele>
        <time>2021-07-12T08:17:05Z</time>
      </trkpt>
      <trkpt lat="37.10293" lon="-8.36183">
        <ele>22.50616</ele>
        <time>2021-07-12T08:17:16Z</time>
      </trkpt>
      <trkpt lat="37.1021" lon="-8.36158">
        <ele>24.88548</ele>
        <time>2021-07-12T08:17:27Z</time>
      </trkpt>
      <trkpt lat="37.10202" lon="-8.36156">
        <ele>22.4196</ele>
        <time>2021-07-12T08:17:38Z</time>
      </trkpt>
      <trkpt lat="37.10198" lon="-8.36155">
        <ele>25.87071</ele>
        <time>2021-07-12T08:17:50Z</time>
      </trkpt>
      <trkpt lat="37.10194" lon="-8.36154">
        <ele>33.84882</ele>
        <time>2021-07-12T08:18:38Z</time>
      </trkpt>
      <trkpt lat="37.1019" lon="-8.36154">
        <ele>27.63352</ele>
        <time>2021-07-12T08:18:49Z</time>
      </trkpt>
      <trkpt lat="37.10195" lon="-8.36167">
        <ele>26.48334</ele>
        <time>2021-07-12T08:19:00Z</time>
      </trkpt>
      <trkpt lat="37.10197" lon="-8.36184">
        <ele>14.21219</ele>
        <time>2021-07-12T08:19:11Z</time>
      </trkpt>
      <trkpt lat="37.10201" lon="-8.36186">
        <ele>10.01</ele>
        <time>2021-07-12T08:19:22Z</time>
      </trkpt>
      <trkpt lat="37.10204" lon="-8.36189">
        <ele>11.14449</ele>
        <time>2021-07-12T08:19:40Z</time>
      </trkpt>
      <trkpt lat="37.10205" lon="-8.36188">
        <ele>9.815906</ele>
        <time>2021-07-12T08:20:39Z</time>
      </trkpt>
      <trkpt lat="37.1021" lon="-8.36188">
        <ele>9.527432</ele>
        <time>2021-07-12T08:20:54Z</time>
      </trkpt>
      <trkpt lat="37.10209" lon="-8.36183">
        <ele>10.37442</ele>
        <time>2021-07-12T08:21:18Z</time>
      </trkpt>
      <trkpt lat="37.10207" lon="-8.36187">
        <ele>10.15669</ele>
        <time>2021-07-12T08:21:36Z</time>
      </trkpt>
      <trkpt lat="37.10207" lon="-8.36186">
        <ele>10.34621</ele>
        <time>2021-07-12T08:22:35Z</time>
      </trkpt>
      <trkpt lat="37.10202" lon="-8.36185">
        <ele>11.22585</ele>
        <time>2021-07-12T08:22:46Z</time>
      </trkpt>
      <trkpt lat="37.10206" lon="-8.36184">
        <ele>10.51425</ele>
        <time>2021-07-12T08:22:57Z</time>
      </trkpt>
      <trkpt lat="37.10207" lon="-8.36189">
        <ele>10.58444</ele>
        <time>2021-07-12T08:23:18Z</time>
      </trkpt>
      <trkpt lat="37.10203" lon="-8.36189">
        <ele>10.48416</ele>
        <time>2021-07-12T08:23:24Z</time>
      </trkpt>
      <trkpt lat="37.10207" lon="-8.36191">
        <ele>9.505771</ele>
        <time>2021-07-12T08:23:36Z</time>
      </trkpt>
      <trkpt lat="37.10211" lon="-8.36192">
        <ele>10.45704</ele>
        <time>2021-07-12T08:24:00Z</time>
      </trkpt>
      <trkpt lat="37.10207" lon="-8.3619">
        <ele>10.59948</ele>
        <time>2021-07-12T08:24:53Z</time>
      </trkpt>
      <trkpt lat="37.10208" lon="-8.36186">
        <ele>9.834643</ele>
        <time>2021-07-12T08:25:10Z</time>
      </trkpt>
      <trkpt lat="37.10209" lon="-8.36181">
        <ele>10.13435</ele>
        <time>2021-07-12T08:25:18Z</time>
      </trkpt>
      <trkpt lat="37.10207" lon="-8.36186">
        <ele>10.50956</ele>
        <time>2021-07-12T08:25:45Z</time>
      </trkpt>
      <trkpt lat="37.10209" lon="-8.36191">
        <ele>10.5023</ele>
        <time>2021-07-12T08:26:37Z</time>
      </trkpt>
      <trkpt lat="37.10204" lon="-8.36193">
        <ele>10.49442</ele>
        <time>2021-07-12T08:26:58Z</time>
      </trkpt>
      <trkpt lat="37.10207" lon="-8.36189">
        <ele>11.92251</ele>
        <time>2021-07-12T08:27:10Z</time>
      </trkpt>
      <trkpt lat="37.10205" lon="-8.36184">
        <ele>11.94308</ele>
        <time>2021-07-12T08:28:09Z</time>
      </trkpt>
      <trkpt lat="37.10209" lon="-8.36186">
        <ele>11.1934</ele>
        <time>2021-07-12T08:28:26Z</time>
      </trkpt>
      <trkpt lat="37.10205" lon="-8.36184">
        <ele>11.30357</ele>
        <time>2021-07-12T08:28:43Z</time>
      </trkpt>
      <trkpt lat="37.10207" lon="-8.36184">
        <ele>10.92542</ele>
        <time>2021-07-12T08:29:43Z</time>
      </trkpt>
      <trkpt lat="37.10208" lon="-8.36189">
        <ele>10.20125</ele>
        <time>2021-07-12T08:29:59Z</time>
      </trkpt>
      <trkpt lat="37.10212" lon="-8.36187">
        <ele>10.24529</ele>
        <time>2021-07-12T08:30:07Z</time>
      </trkpt>
      <trkpt lat="37.1021" lon="-8.36192">
        <ele>9.494371</ele>
        <time>2021-07-12T08:30:33Z</time>
      </trkpt>
      <trkpt lat="37.10207" lon="-8.36189">
        <ele>10.67854</ele>
        <time>2021-07-12T08:31:03Z</time>
      </trkpt>
      <trkpt lat="37.10205" lon="-8.36187">
        <ele>11.1705</ele>
        <time>2021-07-12T08:32:02Z</time>
      </trkpt>
      <trkpt lat="37.10209" lon="-8.36185">
        <ele>9.84922</ele>
        <time>2021-07-12T08:32:39Z</time>
      </trkpt>
      <trkpt lat="37.10213" lon="-8.36185">
        <ele>11.51748</ele>
        <time>2021-07-12T08:32:46Z</time>
      </trkpt>
      <trkpt lat="37.10213" lon="-8.3619">
        <ele>11.43086</ele>
        <time>2021-07-12T08:33:07Z</time>
      </trkpt>
      <trkpt lat="37.10213" lon="-8.36196">
        <ele>10.4662</ele>
        <time>2021-07-12T08:33:50Z</time>
      </trkpt>
      <trkpt lat="37.1021" lon="-8.36192">
        <ele>10.53856</ele>
        <time>2021-07-12T08:34:07Z</time>
      </trkpt>
      <trkpt lat="37.1021" lon="-8.36187">
        <ele>10.14517</ele>
        <time>2021-07-12T08:34:23Z</time>
      </trkpt>
      <trkpt lat="37.10206" lon="-8.36189">
        <ele>10.93138</ele>
        <time>2021-07-12T08:34:41Z</time>
      </trkpt>
      <trkpt lat="37.10208" lon="-8.36193">
        <ele>11.38146</ele>
        <time>2021-07-12T08:34:58Z</time>
      </trkpt>
      <trkpt lat="37.1021" lon="-8.36189">
        <ele>10.97274</ele>
        <time>2021-07-12T08:35:13Z</time>
      </trkpt>
      <trkpt lat="37.10212" lon="-8.36191">
        <ele>11.33685</ele>
        <time>2021-07-12T08:36:12Z</time>
      </trkpt>
      <trkpt lat="37.10213" lon="-8.36186">
        <ele>10.11525</ele>
        <time>2021-07-12T08:36:50Z</time>
      </trkpt>
      <trkpt lat="37.10209" lon="-8.36185">
        <ele>10.1924</ele>
        <time>2021-07-12T08:37:08Z</time>
      </trkpt>
      <trkpt lat="37.10206" lon="-8.36189">
        <ele>9.201098</ele>
        <time>2021-07-12T08:37:31Z</time>
      </trkpt>
      <trkpt lat="37.10208" lon="-8.36182">
        <ele>9.866797</ele>
        <time>2021-07-12T08:37:45Z</time>
      </trkpt>
      <trkpt lat="37.10211" lon="-8.36185">
        <ele>10.05647</ele>
        <time>2021-07-12T08:37:59Z</time>
      </trkpt>
      <trkpt lat="37.10208" lon="-8.36182">
        <ele>10.46232</ele>
        <time>2021-07-12T08:38:25Z</time>
      </trkpt>
      <trkpt lat="37.1021" lon="-8.36186">
        <ele>11.03853</ele>
        <time>2021-07-12T08:39:23Z</time>
      </trkpt>
      <trkpt lat="37.10215" lon="-8.36187">
        <ele>10.60556</ele>
        <time>2021-07-12T08:39:33Z</time>
      </trkpt>
      <trkpt lat="37.10218" lon="-8.36187">
        <ele>11.24824</ele>
        <time>2021-07-12T08:40:04Z</time>
      </trkpt>
      <trkpt lat="37.10215" lon="-8.36185">
        <ele>9.747955</ele>
        <time>2021-07-12T08:40:12Z</time>
      </trkpt>
      <trkpt lat="37.10212" lon="-8.36182">
        <ele>10.26039</ele>
        <time>2021-07-12T08:40:23Z</time>
      </trkpt>
      <trkpt lat="37.10211" lon="-8.36177">
        <ele>10.53954</ele>
        <time>2021-07-12T08:41:16Z</time>
      </trkpt>
      <trkpt lat="37.10207" lon="-8.36177">
        <ele>9.362462</ele>
        <time>2021-07-12T08:41:32Z</time>
      </trkpt>
      <trkpt lat="37.10204" lon="-8.36175">
        <ele>10.58081</ele>
        <time>2021-07-12T08:41:59Z</time>
      </trkpt>
      <trkpt lat="37.10202" lon="-8.36178">
        <ele>11.10287</ele>
        <time>2021-07-12T08:42:13Z</time>
      </trkpt>
      <trkpt lat="37.10205" lon="-8.36181">
        <ele>10.9313</ele>
        <time>2021-07-12T08:42:23Z</time>
      </trkpt>
      <trkpt lat="37.10208" lon="-8.36185">
        <ele>10.74738</ele>
        <time>2021-07-12T08:42:30Z</time>
      </trkpt>
      <trkpt lat="37.10211" lon="-8.36183">
        <ele>9.985624</ele>
        <time>2021-07-12T08:43:08Z</time>
      </trkpt>
      <trkpt lat="37.10215" lon="-8.36185">
        <ele>9.968497</ele>
        <time>2021-07-12T08:43:20Z</time>
      </trkpt>
      <trkpt lat="37.10218" lon="-8.36188">
        <ele>10.04766</ele>
        <time>2021-07-12T08:43:49Z</time>
      </trkpt>
      <trkpt lat="37.10214" lon="-8.36188">
        <ele>9.746223</ele>
        <time>2021-07-12T08:44:01Z</time>
      </trkpt>
      <trkpt lat="37.10212" lon="-8.36183">
        <ele>10.59403</ele>
        <time>2021-07-12T08:44:07Z</time>
      </trkpt>
      <trkpt lat="37.10213" lon="-8.36186">
        <ele>10.36473</ele>
        <time>2021-07-12T08:45:06Z</time>
      </trkpt>
      <trkpt lat="37.10209" lon="-8.36188">
        <ele>10.0842</ele>
        <time>2021-07-12T08:45:40Z</time>
      </trkpt>
      <trkpt lat="37.10207" lon="-8.36184">
        <ele>11.66012</ele>
        <time>2021-07-12T08:45:54Z</time>
      </trkpt>
      <trkpt lat="37.1021" lon="-8.36186">
        <ele>10.40568</ele>
        <time>2021-07-12T08:46:27Z</time>
      </trkpt>
      <trkpt lat="37.10207" lon="-8.3619">
        <ele>11.21983</ele>
        <time>2021-07-12T08:46:36Z</time>
      </trkpt>
      <trkpt lat="37.10211" lon="-8.36187">
        <ele>10.71348</ele>
        <time>2021-07-12T08:46:48Z</time>
      </trkpt>
      <trkpt lat="37.10212" lon="-8.36182">
        <ele>9.289667</ele>
        <time>2021-07-12T08:47:31Z</time>
      </trkpt>
      <trkpt lat="37.10212" lon="-8.36187">
        <ele>11.30371</ele>
        <time>2021-07-12T08:47:46Z</time>
      </trkpt>
      <trkpt lat="37.10209" lon="-8.36184">
        <ele>9.320606</ele>
        <time>2021-07-12T08:48:22Z</time>
      </trkpt>
      <trkpt lat="37.10206" lon="-8.36191">
        <ele>15.87096</ele>
        <time>2021-07-12T08:48:46Z</time>
      </trkpt>
      <trkpt lat="37.10204" lon="-8.36195">
        <ele>10.34846</ele>
        <time>2021-07-12T08:48:53Z</time>
      </trkpt>
      <trkpt lat="37.10198" lon="-8.36201">
        <ele>9.139554</ele>
        <time>2021-07-12T08:48:59Z</time>
      </trkpt>
      <trkpt lat="37.10203" lon="-8.362">
        <ele>10.09256</ele>
        <time>2021-07-12T08:49:06Z</time>
      </trkpt>
      <trkpt lat="37.10209" lon="-8.36195">
        <ele>6.166041</ele>
        <time>2021-07-12T08:49:12Z</time>
      </trkpt>
      <trkpt lat="37.10203" lon="-8.362">
        <ele>12.08285</ele>
        <time>2021-07-12T08:49:18Z</time>
      </trkpt>
      <trkpt lat="37.10206" lon="-8.36196">
        <ele>8.303616</ele>
        <time>2021-07-12T08:49:25Z</time>
      </trkpt>
      <trkpt lat="37.10209" lon="-8.36193">
        <ele>10.1192</ele>
        <time>2021-07-12T08:49:36Z</time>
      </trkpt>
      <trkpt lat="37.10213" lon="-8.36191">
        <ele>10.8211</ele>
        <time>2021-07-12T08:49:42Z</time>
      </trkpt>
      <trkpt lat="37.10211" lon="-8.36186">
        <ele>9.531903</ele>
        <time>2021-07-12T08:50:02Z</time>
      </trkpt>
      <trkpt lat="37.10208" lon="-8.36173">
        <ele>11.08937</ele>
        <time>2021-07-12T08:50:08Z</time>
      </trkpt>
      <trkpt lat="37.10207" lon="-8.36165">
        <ele>9.681279</ele>
        <time>2021-07-12T08:50:14Z</time>
      </trkpt>
      <trkpt lat="37.10208" lon="-8.36169">
        <ele>9.230988</ele>
        <time>2021-07-12T08:50:20Z</time>
      </trkpt>
      <trkpt lat="37.10205" lon="-8.36164">
        <ele>9.967499</ele>
        <time>2021-07-12T08:50:37Z</time>
      </trkpt>
      <trkpt lat="37.10209" lon="-8.36159">
        <ele>10.46084</ele>
        <time>2021-07-12T08:50:48Z</time>
      </trkpt>
      <trkpt lat="37.10211" lon="-8.36153">
        <ele>11.08933</ele>
        <time>2021-07-12T08:51:16Z</time>
      </trkpt>
      <trkpt lat="37.10207" lon="-8.36156">
        <ele>10.8431</ele>
        <time>2021-07-12T08:52:10Z</time>
      </trkpt>
      <trkpt lat="37.1021" lon="-8.36153">
        <ele>9.591928</ele>
        <time>2021-07-12T08:52:40Z</time>
      </trkpt>
      <trkpt lat="37.10224" lon="-8.36161">
        <ele>9.18796</ele>
        <time>2021-07-12T08:52:51Z</time>
      </trkpt>
      <trkpt lat="37.10285" lon="-8.36169">
        <ele>9.407478</ele>
        <time>2021-07-12T08:53:02Z</time>
      </trkpt>
      <trkpt lat="37.10304" lon="-8.3622">
        <ele>8.334547</ele>
        <time>2021-07-12T08:53:13Z</time>
      </trkpt>
      <trkpt lat="37.1031" lon="-8.36286">
        <ele>9.892058</ele>
        <time>2021-07-12T08:53:24Z</time>
      </trkpt>
      <trkpt lat="37.10367" lon="-8.36289">
        <ele>9.049797</ele>
        <time>2021-07-12T08:53:35Z</time>
      </trkpt>
      <trkpt lat="37.10389" lon="-8.36284">
        <ele>8.292915</ele>
        <time>2021-07-12T08:53:46Z</time>
      </trkpt>
      <trkpt lat="37.10405" lon="-8.36276">
        <ele>6.518132</ele>
        <time>2021-07-12T08:53:57Z</time>
      </trkpt>
      <trkpt lat="37.1041" lon="-8.36275">
        <ele>9.803132</ele>
        <time>2021-07-12T08:54:08Z</time>
      </trkpt>
      <trkpt lat="37.10423" lon="-8.36247">
        <ele>12.06689</ele>
        <time>2021-07-12T08:54:19Z</time>
      </trkpt>
      <trkpt lat="37.10441" lon="-8.36136">
        <ele>11.96942</ele>
        <time>2021-07-12T08:54:30Z</time>
      </trkpt>
      <trkpt lat="37.10456" lon="-8.36016">
        <ele>11.02662</ele>
        <time>2021-07-12T08:54:41Z</time>
      </trkpt>
      <trkpt lat="37.10472" lon="-8.3591">
        <ele>13.11201</ele>
        <time>2021-07-12T08:54:52Z</time>
      </trkpt>
      <trkpt lat="37.10487" lon="-8.35814">
        <ele>14.47728</ele>
        <time>2021-07-12T08:55:03Z</time>
      </trkpt>
      <trkpt lat="37.10548" lon="-8.35701">
        <ele>16.1069</ele>
        <time>2021-07-12T08:55:14Z</time>
      </trkpt>
      <trkpt lat="37.10637" lon="-8.35602">
        <ele>12.46366</ele>
        <time>2021-07-12T08:55:25Z</time>
      </trkpt>
      <trkpt lat="37.10719" lon="-8.35529">
        <ele>8.392683</ele>
        <time>2021-07-12T08:55:36Z</time>
      </trkpt>
      <trkpt lat="37.10819" lon="-8.35441">
        <ele>12.74667</ele>
        <time>2021-07-12T08:55:47Z</time>
      </trkpt>
      <trkpt lat="37.10893" lon="-8.35363">
        <ele>13.55966</ele>
        <time>2021-07-12T08:55:58Z</time>
      </trkpt>
      <trkpt lat="37.10943" lon="-8.35341">
        <ele>13.31492</ele>
        <time>2021-07-12T08:56:09Z</time>
      </trkpt>
      <trkpt lat="37.11044" lon="-8.35288">
        <ele>15.81881</ele>
        <time>2021-07-12T08:56:20Z</time>
      </trkpt>
      <trkpt lat="37.11118" lon="-8.35275">
        <ele>16.48378</ele>
        <time>2021-07-12T08:56:31Z</time>
      </trkpt>
      <trkpt lat="37.11145" lon="-8.35273">
        <ele>17.36105</ele>
        <time>2021-07-12T08:56:42Z</time>
      </trkpt>
      <trkpt lat="37.11225" lon="-8.35266">
        <ele>19.65738</ele>
        <time>2021-07-12T08:56:53Z</time>
      </trkpt>
      <trkpt lat="37.11371" lon="-8.35241">
        <ele>25.24585</ele>
        <time>2021-07-12T08:57:04Z</time>
      </trkpt>
      <trkpt lat="37.11513" lon="-8.35187">
        <ele>27.45581</ele>
        <time>2021-07-12T08:57:15Z</time>
      </trkpt>
      <trkpt lat="37.11646" lon="-8.35139">
        <ele>21.98755</ele>
        <time>2021-07-12T08:57:26Z</time>
      </trkpt>
      <trkpt lat="37.11767" lon="-8.35096">
        <ele>10.48889</ele>
        <time>2021-07-12T08:57:37Z</time>
      </trkpt>
      <trkpt lat="37.11821" lon="-8.35073">
        <ele>5.497121</ele>
        <time>2021-07-12T08:57:48Z</time>
      </trkpt>
      <trkpt lat="37.11892" lon="-8.35055">
        <ele>8.395342</ele>
        <time>2021-07-12T08:57:59Z</time>
      </trkpt>
      <trkpt lat="37.12017" lon="-8.35006">
        <ele>18.54629</ele>
        <time>2021-07-12T08:58:10Z</time>
      </trkpt>
      <trkpt lat="37.12128" lon="-8.34916">
        <ele>19.04631</ele>
        <time>2021-07-12T08:58:21Z</time>
      </trkpt>
      <trkpt lat="37.12247" lon="-8.34831">
        <ele>9.763232</ele>
        <time>2021-07-12T08:58:32Z</time>
      </trkpt>
      <trkpt lat="37.12321" lon="-8.3478">
        <ele>7.061293</ele>
        <time>2021-07-12T08:58:43Z</time>
      </trkpt>
      <trkpt lat="37.12403" lon="-8.34751">
        <ele>6.815961</ele>
        <time>2021-07-12T08:58:54Z</time>
      </trkpt>
      <trkpt lat="37.12511" lon="-8.34694">
        <ele>7.172025</ele>
        <time>2021-07-12T08:59:05Z</time>
      </trkpt>
      <trkpt lat="37.12597" lon="-8.34648">
        <ele>7.547871</ele>
        <time>2021-07-12T08:59:16Z</time>
      </trkpt>
      <trkpt lat="37.12623" lon="-8.3463">
        <ele>10.14434</ele>
        <time>2021-07-12T08:59:27Z</time>
      </trkpt>
      <trkpt lat="37.12616" lon="-8.34603">
        <ele>10.60081</ele>
        <time>2021-07-12T08:59:38Z</time>
      </trkpt>
      <trkpt lat="37.12511" lon="-8.34528">
        <ele>12.58132</ele>
        <time>2021-07-12T08:59:49Z</time>
      </trkpt>
      <trkpt lat="37.12424" lon="-8.34456">
        <ele>20.18446</ele>
        <time>2021-07-12T09:00:00Z</time>
      </trkpt>
      <trkpt lat="37.12365" lon="-8.3437">
        <ele>26.05524</ele>
        <time>2021-07-12T09:00:11Z</time>
      </trkpt>
      <trkpt lat="37.12324" lon="-8.34192">
        <ele>37.19382</ele>
        <time>2021-07-12T09:00:22Z</time>
      </trkpt>
      <trkpt lat="37.12352" lon="-8.34015">
        <ele>43.07637</ele>
        <time>2021-07-12T09:00:33Z</time>
      </trkpt>
      <trkpt lat="37.12379" lon="-8.33847">
        <ele>45.65306</ele>
        <time>2021-07-12T09:00:44Z</time>
      </trkpt>
      <trkpt lat="37.12404" lon="-8.33706">
        <ele>45.54208</ele>
        <time>2021-07-12T09:00:55Z</time>
      </trkpt>
      <trkpt lat="37.12415" lon="-8.33616">
        <ele>45.45559</ele>
        <time>2021-07-12T09:01:06Z</time>
      </trkpt>
      <trkpt lat="37.12411" lon="-8.33486">
        <ele>46.99706</ele>
        <time>2021-07-12T09:01:17Z</time>
      </trkpt>
      <trkpt lat="37.12411" lon="-8.33316">
        <ele>47.08788</ele>
        <time>2021-07-12T09:01:28Z</time>
      </trkpt>
      <trkpt lat="37.12411" lon="-8.33132">
        <ele>49.5321</ele>
        <time>2021-07-12T09:01:39Z</time>
      </trkpt>
      <trkpt lat="37.12415" lon="-8.32913">
        <ele>49.34059</ele>
        <time>2021-07-12T09:01:50Z</time>
      </trkpt>
      <trkpt lat="37.12419" lon="-8.3268">
        <ele>47.07082</ele>
        <time>2021-07-12T09:02:01Z</time>
      </trkpt>
      <trkpt lat="37.12419" lon="-8.32474">
        <ele>49.18181</ele>
        <time>2021-07-12T09:02:12Z</time>
      </trkpt>
      <trkpt lat="37.12422" lon="-8.32277">
        <ele>46.0203</ele>
        <time>2021-07-12T09:02:23Z</time>
      </trkpt>
      <trkpt lat="37.12424" lon="-8.32105">
        <ele>42.07864</ele>
        <time>2021-07-12T09:02:34Z</time>
      </trkpt>
      <trkpt lat="37.12426" lon="-8.31912">
        <ele>34.02417</ele>
        <time>2021-07-12T09:02:45Z</time>
      </trkpt>
      <trkpt lat="37.12497" lon="-8.31751">
        <ele>26.72312</ele>
        <time>2021-07-12T09:02:56Z</time>
      </trkpt>
      <trkpt lat="37.12637" lon="-8.31662">
        <ele>26.65034</ele>
        <time>2021-07-12T09:03:07Z</time>
      </trkpt>
      <trkpt lat="37.12732" lon="-8.31594">
        <ele>25.2625</ele>
        <time>2021-07-12T09:03:18Z</time>
      </trkpt>
      <trkpt lat="37.12757" lon="-8.31443">
        <ele>22.18867</ele>
        <time>2021-07-12T09:03:29Z</time>
      </trkpt>
      <trkpt lat="37.12734" lon="-8.31233">
        <ele>26.65051</ele>
        <time>2021-07-12T09:03:40Z</time>
      </trkpt>
      <trkpt lat="37.12747" lon="-8.31025">
        <ele>31.86303</ele>
        <time>2021-07-12T09:03:51Z</time>
      </trkpt>
      <trkpt lat="37.12787" lon="-8.30816">
        <ele>33.78043</ele>
        <time>2021-07-12T09:04:02Z</time>
      </trkpt>
      <trkpt lat="37.12826" lon="-8.30611">
        <ele>33.48075</ele>
        <time>2021-07-12T09:04:13Z</time>
      </trkpt>
      <trkpt lat="37.1282" lon="-8.30436">
        <ele>38.10112</ele>
        <time>2021-07-12T09:04:24Z</time>
      </trkpt>
      <trkpt lat="37.12813" lon="-8.30262">
        <ele>42.51286</ele>
        <time>2021-07-12T09:04:35Z</time>
      </trkpt>
      <trkpt lat="37.12807" lon="-8.30145">
        <ele>43.52811</ele>
        <time>2021-07-12T09:04:46Z</time>
      </trkpt>
      <trkpt lat="37.12803" lon="-8.30117">
        <ele>42.87228</ele>
        <time>2021-07-12T09:04:57Z</time>
      </trkpt>
      <trkpt lat="37.12804" lon="-8.30024">
        <ele>44.74274</ele>
        <time>2021-07-12T09:05:08Z</time>
      </trkpt>
      <trkpt lat="37.12799" lon="-8.2984">
        <ele>46.25615</ele>
        <time>2021-07-12T09:05:19Z</time>
      </trkpt>
      <trkpt lat="37.12789" lon="-8.29658">
        <ele>47.43326</ele>
        <time>2021-07-12T09:05:30Z</time>
      </trkpt>
      <trkpt lat="37.12779" lon="-8.29416">
        <ele>48.69194</ele>
        <time>2021-07-12T09:05:41Z</time>
      </trkpt>
      <trkpt lat="37.12769" lon="-8.29146">
        <ele>55.91028</ele>
        <time>2021-07-12T09:05:52Z</time>
      </trkpt>
      <trkpt lat="37.12788" lon="-8.28857">
        <ele>62.6272</ele>
        <time>2021-07-12T09:06:03Z</time>
      </trkpt>
      <trkpt lat="37.12838" lon="-8.28581">
        <ele>74.00549</ele>
        <time>2021-07-12T09:06:14Z</time>
      </trkpt>
      <trkpt lat="37.1288" lon="-8.28366">
        <ele>83.54237</ele>
        <time>2021-07-12T09:06:25Z</time>
      </trkpt>
      <trkpt lat="37.1288" lon="-8.28217">
        <ele>87.08998</ele>
        <time>2021-07-12T09:06:36Z</time>
      </trkpt>
      <trkpt lat="37.12873" lon="-8.27986">
        <ele>89.10234</ele>
        <time>2021-07-12T09:06:47Z</time>
      </trkpt>
      <trkpt lat="37.12873" lon="-8.27754">
        <ele>93.40768</ele>
        <time>2021-07-12T09:06:58Z</time>
      </trkpt>
      <trkpt lat="37.12868" lon="-8.275">
        <ele>94.99938</ele>
        <time>2021-07-12T09:07:09Z</time>
      </trkpt>
      <trkpt lat="37.12863" lon="-8.27241">
        <ele>85.6457</ele>
        <time>2021-07-12T09:07:20Z</time>
      </trkpt>
      <trkpt lat="37.12859" lon="-8.26999">
        <ele>81.65388</ele>
        <time>2021-07-12T09:07:31Z</time>
      </trkpt>
      <trkpt lat="37.12853" lon="-8.26798">
        <ele>77.08221</ele>
        <time>2021-07-12T09:07:42Z</time>
      </trkpt>
      <trkpt lat="37.12847" lon="-8.26581">
        <ele>77.69393</ele>
        <time>2021-07-12T09:07:53Z</time>
      </trkpt>
      <trkpt lat="37.12843" lon="-8.26364">
        <ele>76.07241</ele>
        <time>2021-07-12T09:08:04Z</time>
      </trkpt>
      <trkpt lat="37.12839" lon="-8.26139">
        <ele>73.31929</ele>
        <time>2021-07-12T09:08:15Z</time>
      </trkpt>
      <trkpt lat="37.12826" lon="-8.25905">
        <ele>75.2698</ele>
        <time>2021-07-12T09:08:26Z</time>
      </trkpt>
      <trkpt lat="37.12745" lon="-8.25682">
        <ele>76.69626</ele>
        <time>2021-07-12T09:08:37Z</time>
      </trkpt>
      <trkpt lat="37.12637" lon="-8.25631">
        <ele>76.2957</ele>
        <time>2021-07-12T09:08:48Z</time>
      </trkpt>
      <trkpt lat="37.1274" lon="-8.25762">
        <ele>81.38112</ele>
        <time>2021-07-12T09:08:59Z</time>
      </trkpt>
      <trkpt lat="37.1295" lon="-8.2576">
        <ele>81.32196</ele>
        <time>2021-07-12T09:09:10Z</time>
      </trkpt>
      <trkpt lat="37.13169" lon="-8.25684">
        <ele>85.05571</ele>
        <time>2021-07-12T09:09:21Z</time>
      </trkpt>
      <trkpt lat="37.13388" lon="-8.25605">
        <ele>90.17083</ele>
        <time>2021-07-12T09:09:32Z</time>
      </trkpt>
      <trkpt lat="37.13609" lon="-8.25522">
        <ele>92.04102</ele>
        <time>2021-07-12T09:09:43Z</time>
      </trkpt>
      <trkpt lat="37.13834" lon="-8.25442">
        <ele>87.3152</ele>
        <time>2021-07-12T09:09:54Z</time>
      </trkpt>
      <trkpt lat="37.14051" lon="-8.25348">
        <ele>87.59809</ele>
        <time>2021-07-12T09:10:05Z</time>
      </trkpt>
      <trkpt lat="37.14269" lon="-8.25231">
        <ele>90.07648</ele>
        <time>2021-07-12T09:10:16Z</time>
      </trkpt>
      <trkpt lat="37.14486" lon="-8.25116">
        <ele>90.55761</ele>
        <time>2021-07-12T09:10:27Z</time>
      </trkpt>
      <trkpt lat="37.14701" lon="-8.25001">
        <ele>84.81934</ele>
        <time>2021-07-12T09:10:38Z</time>
      </trkpt>
      <trkpt lat="37.14923" lon="-8.24923">
        <ele>80.42945</ele>
        <time>2021-07-12T09:10:49Z</time>
      </trkpt>
      <trkpt lat="37.15152" lon="-8.24939">
        <ele>73.99342</ele>
        <time>2021-07-12T09:11:00Z</time>
      </trkpt>
      <trkpt lat="37.15384" lon="-8.24978">
        <ele>66.77396</ele>
        <time>2021-07-12T09:11:11Z</time>
      </trkpt>
      <trkpt lat="37.15611" lon="-8.25048">
        <ele>67.89162</ele>
        <time>2021-07-12T09:11:22Z</time>
      </trkpt>
      <trkpt lat="37.15839" lon="-8.25105">
        <ele>77.80268</ele>
        <time>2021-07-12T09:11:33Z</time>
      </trkpt>
      <trkpt lat="37.16048" lon="-8.25116">
        <ele>79.72748</ele>
        <time>2021-07-12T09:11:44Z</time>
      </trkpt>
      <trkpt lat="37.16268" lon="-8.25187">
        <ele>74.9311</ele>
        <time>2021-07-12T09:11:55Z</time>
      </trkpt>
      <trkpt lat="37.1649" lon="-8.25273">
        <ele>76.15389</ele>
        <time>2021-07-12T09:12:06Z</time>
      </trkpt>
      <trkpt lat="37.16703" lon="-8.25376">
        <ele>81.87636</ele>
        <time>2021-07-12T09:12:17Z</time>
      </trkpt>
      <trkpt lat="37.16905" lon="-8.25533">
        <ele>78.72717</ele>
        <time>2021-07-12T09:12:28Z</time>
      </trkpt>
      <trkpt lat="37.17103" lon="-8.2569">
        <ele>72.39216</ele>
        <time>2021-07-12T09:12:39Z</time>
      </trkpt>
      <trkpt lat="37.17297" lon="-8.25844">
        <ele>66.81109</ele>
        <time>2021-07-12T09:12:50Z</time>
      </trkpt>
      <trkpt lat="37.17489" lon="-8.26013">
        <ele>65.4625</ele>
        <time>2021-07-12T09:13:01Z</time>
      </trkpt>
      <trkpt lat="37.17671" lon="-8.26198">
        <ele>69.82408</ele>
        <time>2021-07-12T09:13:12Z</time>
      </trkpt>
      <trkpt lat="37.17884" lon="-8.26319">
        <ele>75.21772</ele>
        <time>2021-07-12T09:13:23Z</time>
      </trkpt>
      <trkpt lat="37.18115" lon="-8.26318">
        <ele>81.31039</ele>
        <time>2021-07-12T09:13:34Z</time>
      </trkpt>
      <trkpt lat="37.18335" lon="-8.26231">
        <ele>84.05062</ele>
        <time>2021-07-12T09:13:45Z</time>
      </trkpt>
      <trkpt lat="37.18566" lon="-8.26129">
        <ele>87.6503</ele>
        <time>2021-07-12T09:13:56Z</time>
      </trkpt>
      <trkpt lat="37.18804" lon="-8.26088">
        <ele>86.54439</ele>
        <time>2021-07-12T09:14:07Z</time>
      </trkpt>
      <trkpt lat="37.1905" lon="-8.26102">
        <ele>88.64125</ele>
        <time>2021-07-12T09:14:18Z</time>
      </trkpt>
      <trkpt lat="37.19296" lon="-8.26118">
        <ele>91.93139</ele>
        <time>2021-07-12T09:14:29Z</time>
      </trkpt>
      <trkpt lat="37.19547" lon="-8.26133">
        <ele>97.95189</ele>
        <time>2021-07-12T09:14:40Z</time>
      </trkpt>
      <trkpt lat="37.19798" lon="-8.26148">
        <ele>104.5319</ele>
        <time>2021-07-12T09:14:51Z</time>
      </trkpt>
      <trkpt lat="37.20041" lon="-8.26108">
        <ele>105.6661</ele>
        <time>2021-07-12T09:15:02Z</time>
      </trkpt>
      <trkpt lat="37.20272" lon="-8.25992">
        <ele>96.70032</ele>
        <time>2021-07-12T09:15:13Z</time>
      </trkpt>
      <trkpt lat="37.20498" lon="-8.25874">
        <ele>83.98377</ele>
        <time>2021-07-12T09:15:24Z</time>
      </trkpt>
      <trkpt lat="37.20733" lon="-8.25762">
        <ele>73.6607</ele>
        <time>2021-07-12T09:15:35Z</time>
      </trkpt>
      <trkpt lat="37.20977" lon="-8.25715">
        <ele>71.0173</ele>
        <time>2021-07-12T09:15:46Z</time>
      </trkpt>
      <trkpt lat="37.21222" lon="-8.25695">
        <ele>73.98893</ele>
        <time>2021-07-12T09:15:57Z</time>
      </trkpt>
      <trkpt lat="37.21468" lon="-8.25677">
        <ele>81.4328</ele>
        <time>2021-07-12T09:16:08Z</time>
      </trkpt>
      <trkpt lat="37.21717" lon="-8.25656">
        <ele>88.79698</ele>
        <time>2021-07-12T09:16:19Z</time>
      </trkpt>
      <trkpt lat="37.21963" lon="-8.257">
        <ele>86.6048</ele>
        <time>2021-07-12T09:16:30Z</time>
      </trkpt>
      <trkpt lat="37.22198" lon="-8.25802">
        <ele>86.27734</ele>
        <time>2021-07-12T09:16:41Z</time>
      </trkpt>
      <trkpt lat="37.22423" lon="-8.25904">
        <ele>97.37865</ele>
        <time>2021-07-12T09:16:52Z</time>
      </trkpt>
      <trkpt lat="37.22628" lon="-8.26055">
        <ele>109.042</ele>
        <time>2021-07-12T09:17:03Z</time>
      </trkpt>
      <trkpt lat="37.22799" lon="-8.26269">
        <ele>114.7561</ele>
        <time>2021-07-12T09:17:14Z</time>
      </trkpt>
      <trkpt lat="37.22972" lon="-8.26486">
        <ele>115.666</ele>
        <time>2021-07-12T09:17:25Z</time>
      </trkpt>
      <trkpt lat="37.23139" lon="-8.26706">
        <ele>115.7214</ele>
        <time>2021-07-12T09:17:36Z</time>
      </trkpt>
      <trkpt lat="37.23311" lon="-8.26924">
        <ele>120.948</ele>
        <time>2021-07-12T09:17:47Z</time>
      </trkpt>
      <trkpt lat="37.23486" lon="-8.27131">
        <ele>124.7959</ele>
        <time>2021-07-12T09:17:58Z</time>
      </trkpt>
      <trkpt lat="37.23688" lon="-8.27292">
        <ele>127.4011</ele>
        <time>2021-07-12T09:18:09Z</time>
      </trkpt>
      <trkpt lat="37.23896" lon="-8.2744">
        <ele>130.7289</ele>
        <time>2021-07-12T09:18:20Z</time>
      </trkpt>
      <trkpt lat="37.24107" lon="-8.27588">
        <ele>131.6467</ele>
        <time>2021-07-12T09:18:31Z</time>
      </trkpt>
      <trkpt lat="37.24343" lon="-8.27648">
        <ele>129.8458</ele>
        <time>2021-07-12T09:18:42Z</time>
      </trkpt>
      <trkpt lat="37.24571" lon="-8.27548">
        <ele>119.1802</ele>
        <time>2021-07-12T09:18:53Z</time>
      </trkpt>
      <trkpt lat="37.24754" lon="-8.27369">
        <ele>104.771</ele>
        <time>2021-07-12T09:19:04Z</time>
      </trkpt>
      <trkpt lat="37.24944" lon="-8.27223">
        <ele>106.3814</ele>
        <time>2021-07-12T09:19:15Z</time>
      </trkpt>
      <trkpt lat="37.2507" lon="-8.27041">
        <ele>107.4468</ele>
        <time>2021-07-12T09:19:26Z</time>
      </trkpt>
      <trkpt lat="37.25118" lon="-8.26749">
        <ele>109.3335</ele>
        <time>2021-07-12T09:19:37Z</time>
      </trkpt>
      <trkpt lat="37.25151" lon="-8.26456">
        <ele>111.898</ele>
        <time>2021-07-12T09:19:48Z</time>
      </trkpt>
      <trkpt lat="37.25237" lon="-8.26301">
        <ele>111.0626</ele>
        <time>2021-07-12T09:19:59Z</time>
      </trkpt>
      <trkpt lat="37.25294" lon="-8.26438">
        <ele>108.4193</ele>
        <time>2021-07-12T09:20:10Z</time>
      </trkpt>
      <trkpt lat="37.25408" lon="-8.26683">
        <ele>111.5187</ele>
        <time>2021-07-12T09:20:21Z</time>
      </trkpt>
      <trkpt lat="37.25524" lon="-8.26936">
        <ele>115.5175</ele>
        <time>2021-07-12T09:20:32Z</time>
      </trkpt>
      <trkpt lat="37.25584" lon="-8.27144">
        <ele>114.051</ele>
        <time>2021-07-12T09:20:43Z</time>
      </trkpt>
      <trkpt lat="37.25592" lon="-8.27267">
        <ele>113.2576</ele>
        <time>2021-07-12T09:20:54Z</time>
      </trkpt>
      <trkpt lat="37.25672" lon="-8.2715">
        <ele>121.3045</ele>
        <time>2021-07-12T09:21:05Z</time>
      </trkpt>
      <trkpt lat="37.2585" lon="-8.27083">
        <ele>129.3981</ele>
        <time>2021-07-12T09:21:16Z</time>
      </trkpt>
      <trkpt lat="37.26024" lon="-8.27002">
        <ele>136.4262</ele>
        <time>2021-07-12T09:21:27Z</time>
      </trkpt>
      <trkpt lat="37.26218" lon="-8.26987">
        <ele>140.4546</ele>
        <time>2021-07-12T09:21:38Z</time>
      </trkpt>
      <trkpt lat="37.26356" lon="-8.26978">
        <ele>137.3911</ele>
        <time>2021-07-12T09:21:49Z</time>
      </trkpt>
      <trkpt lat="37.2649" lon="-8.27065">
        <ele>132.226</ele>
        <time>2021-07-12T09:22:00Z</time>
      </trkpt>
      <trkpt lat="37.26642" lon="-8.27083">
        <ele>132.1216</ele>
        <time>2021-07-12T09:22:11Z</time>
      </trkpt>
      <trkpt lat="37.26862" lon="-8.2703">
        <ele>133.5651</ele>
        <time>2021-07-12T09:22:22Z</time>
      </trkpt>
      <trkpt lat="37.27062" lon="-8.26997">
        <ele>127.7068</ele>
        <time>2021-07-12T09:22:33Z</time>
      </trkpt>
      <trkpt lat="37.2723" lon="-8.26834">
        <ele>129.0378</ele>
        <time>2021-07-12T09:22:44Z</time>
      </trkpt>
      <trkpt lat="37.27457" lon="-8.26728">
        <ele>134.2772</ele>
        <time>2021-07-12T09:22:55Z</time>
      </trkpt>
      <trkpt lat="37.27595" lon="-8.26608">
        <ele>140.6444</ele>
        <time>2021-07-12T09:23:06Z</time>
      </trkpt>
      <trkpt lat="37.27701" lon="-8.2636">
        <ele>156.2933</ele>
        <time>2021-07-12T09:23:17Z</time>
      </trkpt>
      <trkpt lat="37.27808" lon="-8.26135">
        <ele>159.2382</ele>
        <time>2021-07-12T09:23:28Z</time>
      </trkpt>
      <trkpt lat="37.27918" lon="-8.26041">
        <ele>149.2305</ele>
        <time>2021-07-12T09:23:39Z</time>
      </trkpt>
      <trkpt lat="37.28116" lon="-8.26079">
        <ele>143.6002</ele>
        <time>2021-07-12T09:23:50Z</time>
      </trkpt>
      <trkpt lat="37.28277" lon="-8.26147">
        <ele>141.3133</ele>
        <time>2021-07-12T09:24:01Z</time>
      </trkpt>
      <trkpt lat="37.28442" lon="-8.26193">
        <ele>138.1685</ele>
        <time>2021-07-12T09:24:12Z</time>
      </trkpt>
      <trkpt lat="37.28626" lon="-8.26167">
        <ele>133.5954</ele>
        <time>2021-07-12T09:24:23Z</time>
      </trkpt>
      <trkpt lat="37.28787" lon="-8.26171">
        <ele>131.1477</ele>
        <time>2021-07-12T09:24:34Z</time>
      </trkpt>
      <trkpt lat="37.28862" lon="-8.26093">
        <ele>126.5822</ele>
        <time>2021-07-12T09:24:45Z</time>
      </trkpt>
      <trkpt lat="37.28957" lon="-8.26009">
        <ele>124.5366</ele>
        <time>2021-07-12T09:24:56Z</time>
      </trkpt>
      <trkpt lat="37.28967" lon="-8.25819">
        <ele>129.8045</ele>
        <time>2021-07-12T09:25:07Z</time>
      </trkpt>
      <trkpt lat="37.28898" lon="-8.25598">
        <ele>132.1354</ele>
        <time>2021-07-12T09:25:18Z</time>
      </trkpt>
      <trkpt lat="37.2885" lon="-8.25373">
        <ele>136.8457</ele>
        <time>2021-07-12T09:25:29Z</time>
      </trkpt>
      <trkpt lat="37.28957" lon="-8.25158">
        <ele>142.2247</ele>
        <time>2021-07-12T09:25:40Z</time>
      </trkpt>
      <trkpt lat="37.29092" lon="-8.24986">
        <ele>143.0875</ele>
        <time>2021-07-12T09:25:51Z</time>
      </trkpt>
      <trkpt lat="37.29205" lon="-8.24823">
        <ele>144.8976</ele>
        <time>2021-07-12T09:26:02Z</time>
      </trkpt>
      <trkpt lat="37.29324" lon="-8.24658">
        <ele>153.2247</ele>
        <time>2021-07-12T09:26:13Z</time>
      </trkpt>
      <trkpt lat="37.2952" lon="-8.24535">
        <ele>159.9554</ele>
        <time>2021-07-12T09:26:24Z</time>
      </trkpt>
      <trkpt lat="37.29695" lon="-8.24501">
        <ele>160.9077</ele>
        <time>2021-07-12T09:26:35Z</time>
      </trkpt>
      <trkpt lat="37.29893" lon="-8.24598">
        <ele>154.247</ele>
        <time>2021-07-12T09:26:46Z</time>
      </trkpt>
      <trkpt lat="37.30073" lon="-8.24768">
        <ele>145.2842</ele>
        <time>2021-07-12T09:26:57Z</time>
      </trkpt>
      <trkpt lat="37.30201" lon="-8.24849">
        <ele>143.0024</ele>
        <time>2021-07-12T09:27:08Z</time>
      </trkpt>
      <trkpt lat="37.30265" lon="-8.24679">
        <ele>133.9894</ele>
        <time>2021-07-12T09:27:19Z</time>
      </trkpt>
      <trkpt lat="37.30445" lon="-8.24586">
        <ele>135.0655</ele>
        <time>2021-07-12T09:27:30Z</time>
      </trkpt>
      <trkpt lat="37.30589" lon="-8.24481">
        <ele>137.4717</ele>
        <time>2021-07-12T09:27:41Z</time>
      </trkpt>
      <trkpt lat="37.30693" lon="-8.24297">
        <ele>141.3636</ele>
        <time>2021-07-12T09:27:52Z</time>
      </trkpt>
      <trkpt lat="37.30635" lon="-8.24135">
        <ele>135.1388</ele>
        <time>2021-07-12T09:28:03Z</time>
      </trkpt>
      <trkpt lat="37.30662" lon="-8.23976">
        <ele>125.3103</ele>
        <time>2021-07-12T09:28:14Z</time>
      </trkpt>
      <trkpt lat="37.30695" lon="-8.23855">
        <ele>124.5828</ele>
        <time>2021-07-12T09:28:25Z</time>
      </trkpt>
      <trkpt lat="37.30662" lon="-8.23768">
        <ele>135.631</ele>
        <time>2021-07-12T09:28:36Z</time>
      </trkpt>
      <trkpt lat="37.30611" lon="-8.2367">
        <ele>154.58</ele>
        <time>2021-07-12T09:28:47Z</time>
      </trkpt>
      <trkpt lat="37.30564" lon="-8.23562">
        <ele>174.4996</ele>
        <time>2021-07-12T09:28:58Z</time>
      </trkpt>
      <trkpt lat="37.30502" lon="-8.23522">
        <ele>192.8408</ele>
        <time>2021-07-12T09:29:09Z</time>
      </trkpt>
      <trkpt lat="37.30476" lon="-8.23425">
        <ele>205.0211</ele>
        <time>2021-07-12T09:29:20Z</time>
      </trkpt>
      <trkpt lat="37.30396" lon="-8.23348">
        <ele>209.4853</ele>
        <time>2021-07-12T09:29:31Z</time>
      </trkpt>
      <trkpt lat="37.3037" lon="-8.23311">
        <ele>210.0334</ele>
        <time>2021-07-12T09:29:42Z</time>
      </trkpt>
      <trkpt lat="37.30291" lon="-8.23353">
        <ele>210.1648</ele>
        <time>2021-07-12T09:29:53Z</time>
      </trkpt>
      <trkpt lat="37.30286" lon="-8.23353">
        <ele>213.1885</ele>
        <time>2021-07-12T09:30:05Z</time>
      </trkpt>
      <trkpt lat="37.30289" lon="-8.2335">
        <ele>215.2936</ele>
        <time>2021-07-12T09:30:23Z</time>
      </trkpt>
      <trkpt lat="37.30367" lon="-8.23339">
        <ele>222.695</ele>
        <time>2021-07-12T09:30:34Z</time>
      </trkpt>
      <trkpt lat="37.30384" lon="-8.23334">
        <ele>224.057</ele>
        <time>2021-07-12T09:30:45Z</time>
      </trkpt>
      <trkpt lat="37.30379" lon="-8.23307">
        <ele>219.594</ele>
        <time>2021-07-12T09:30:56Z</time>
      </trkpt>
      <trkpt lat="37.30367" lon="-8.23194">
        <ele>233.5678</ele>
        <time>2021-07-12T09:31:08Z</time>
      </trkpt>
      <trkpt lat="37.304" lon="-8.23101">
        <ele>255.8968</ele>
        <time>2021-07-12T09:31:19Z</time>
      </trkpt>
      <trkpt lat="37.30414" lon="-8.23026">
        <ele>257.2302</ele>
        <time>2021-07-12T09:31:30Z</time>
      </trkpt>
      <trkpt lat="37.30438" lon="-8.22927">
        <ele>268.4107</ele>
        <time>2021-07-12T09:31:41Z</time>
      </trkpt>
      <trkpt lat="37.30396" lon="-8.22814">
        <ele>276.5771</ele>
        <time>2021-07-12T09:31:52Z</time>
      </trkpt>
      <trkpt lat="37.30367" lon="-8.22718">
        <ele>277.202</ele>
        <time>2021-07-12T09:32:03Z</time>
      </trkpt>
      <trkpt lat="37.30388" lon="-8.22621">
        <ele>282.63</ele>
        <time>2021-07-12T09:32:14Z</time>
      </trkpt>
      <trkpt lat="37.30407" lon="-8.22542">
        <ele>278.1056</ele>
        <time>2021-07-12T09:32:25Z</time>
      </trkpt>
      <trkpt lat="37.30387" lon="-8.22497">
        <ele>273.065</ele>
        <time>2021-07-12T09:32:36Z</time>
      </trkpt>
      <trkpt lat="37.30372" lon="-8.22466">
        <ele>267.5397</ele>
        <time>2021-07-12T09:32:47Z</time>
      </trkpt>
      <trkpt lat="37.30383" lon="-8.22438">
        <ele>259.9316</ele>
        <time>2021-07-12T09:32:58Z</time>
      </trkpt>
      <trkpt lat="37.30395" lon="-8.22403">
        <ele>247.3252</ele>
        <time>2021-07-12T09:33:09Z</time>
      </trkpt>
      <trkpt lat="37.30404" lon="-8.22366">
        <ele>234.6844</ele>
        <time>2021-07-12T09:33:20Z</time>
      </trkpt>
      <trkpt lat="37.3041" lon="-8.22331">
        <ele>230.9749</ele>
        <time>2021-07-12T09:33:31Z</time>
      </trkpt>
      <trkpt lat="37.3041" lon="-8.22328">
        <ele>232.008</ele>
        <time>2021-07-12T09:34:31Z</time>
      </trkpt>
      <trkpt lat="37.30411" lon="-8.22323">
        <ele>230.8845</ele>
        <time>2021-07-12T09:35:08Z</time>
      </trkpt>
      <trkpt lat="37.30388" lon="-8.22285">
        <ele>230.3479</ele>
        <time>2021-07-12T09:35:19Z</time>
      </trkpt>
      <trkpt lat="37.30327" lon="-8.22225">
        <ele>235.4199</ele>
        <time>2021-07-12T09:35:30Z</time>
      </trkpt>
      <trkpt lat="37.30323" lon="-8.22136">
        <ele>230.3551</ele>
        <time>2021-07-12T09:35:41Z</time>
      </trkpt>
      <trkpt lat="37.30316" lon="-8.22053">
        <ele>240.8077</ele>
        <time>2021-07-12T09:35:52Z</time>
      </trkpt>
      <trkpt lat="37.30254" lon="-8.21973">
        <ele>249.973</ele>
        <time>2021-07-12T09:36:03Z</time>
      </trkpt>
      <trkpt lat="37.30198" lon="-8.21928">
        <ele>244.7984</ele>
        <time>2021-07-12T09:36:14Z</time>
      </trkpt>
      <trkpt lat="37.3013" lon="-8.21912">
        <ele>248.5688</ele>
        <time>2021-07-12T09:36:25Z</time>
      </trkpt>
      <trkpt lat="37.30091" lon="-8.21851">
        <ele>245.358</ele>
        <time>2021-07-12T09:36:36Z</time>
      </trkpt>
      <trkpt lat="37.30059" lon="-8.21766">
        <ele>254.535</ele>
        <time>2021-07-12T09:36:47Z</time>
      </trkpt>
      <trkpt lat="37.30016" lon="-8.21706">
        <ele>270.3267</ele>
        <time>2021-07-12T09:36:58Z</time>
      </trkpt>
      <trkpt lat="37.29974" lon="-8.21642">
        <ele>278.6448</ele>
        <time>2021-07-12T09:37:09Z</time>
      </trkpt>
      <trkpt lat="37.29899" lon="-8.21625">
        <ele>285.2541</ele>
        <time>2021-07-12T09:37:20Z</time>
      </trkpt>
      <trkpt lat="37.29838" lon="-8.21572">
        <ele>284.9801</ele>
        <time>2021-07-12T09:37:31Z</time>
      </trkpt>
      <trkpt lat="37.29783" lon="-8.21534">
        <ele>287.4448</ele>
        <time>2021-07-12T09:37:42Z</time>
      </trkpt>
      <trkpt lat="37.29788" lon="-8.21453">
        <ele>279.9443</ele>
        <time>2021-07-12T09:37:53Z</time>
      </trkpt>
      <trkpt lat="37.29794" lon="-8.21427">
        <ele>277.1666</ele>
        <time>2021-07-12T09:38:04Z</time>
      </trkpt>
      <trkpt lat="37.2981" lon="-8.21358">
        <ele>277.3916</ele>
        <time>2021-07-12T09:38:15Z</time>
      </trkpt>
      <trkpt lat="37.29808" lon="-8.21281">
        <ele>288.5458</ele>
        <time>2021-07-12T09:38:26Z</time>
      </trkpt>
      <trkpt lat="37.2975" lon="-8.21209">
        <ele>289.1952</ele>
        <time>2021-07-12T09:38:37Z</time>
      </trkpt>
      <trkpt lat="37.29724" lon="-8.21141">
        <ele>296.6497</ele>
        <time>2021-07-12T09:38:48Z</time>
      </trkpt>
      <trkpt lat="37.29731" lon="-8.21113">
        <ele>293.2549</ele>
        <time>2021-07-12T09:38:59Z</time>
      </trkpt>
      <trkpt lat="37.29733" lon="-8.21097">
        <ele>286.2885</ele>
        <time>2021-07-12T09:39:10Z</time>
      </trkpt>
      <trkpt lat="37.29741" lon="-8.21074">
        <ele>273.5214</ele>
        <time>2021-07-12T09:39:21Z</time>
      </trkpt>
      <trkpt lat="37.29751" lon="-8.21055">
        <ele>266.9766</ele>
        <time>2021-07-12T09:39:32Z</time>
      </trkpt>
      <trkpt lat="37.29759" lon="-8.21025">
        <ele>260.464</ele>
        <time>2021-07-12T09:39:43Z</time>
      </trkpt>
      <trkpt lat="37.29758" lon="-8.20976">
        <ele>252.2474</ele>
        <time>2021-07-12T09:39:54Z</time>
      </trkpt>
      <trkpt lat="37.29748" lon="-8.20908">
        <ele>253.2469</ele>
        <time>2021-07-12T09:40:05Z</time>
      </trkpt>
      <trkpt lat="37.29796" lon="-8.20878">
        <ele>256.8889</ele>
        <time>2021-07-12T09:40:16Z</time>
      </trkpt>
      <trkpt lat="37.29793" lon="-8.20821">
        <ele>251.8248</ele>
        <time>2021-07-12T09:40:27Z</time>
      </trkpt>
      <trkpt lat="37.29813" lon="-8.20781">
        <ele>257.1813</ele>
        <time>2021-07-12T09:40:38Z</time>
      </trkpt>
      <trkpt lat="37.29826" lon="-8.2073">
        <ele>262.6886</ele>
        <time>2021-07-12T09:40:49Z</time>
      </trkpt>
      <trkpt lat="37.29808" lon="-8.20595">
        <ele>277.3016</ele>
        <time>2021-07-12T09:41:00Z</time>
      </trkpt>
      <trkpt lat="37.29772" lon="-8.20436">
        <ele>272.4429</ele>
        <time>2021-07-12T09:41:11Z</time>
      </trkpt>
      <trkpt lat="37.29818" lon="-8.20354">
        <ele>282.547</ele>
        <time>2021-07-12T09:41:22Z</time>
      </trkpt>
      <trkpt lat="37.29816" lon="-8.20262">
        <ele>293.8014</ele>
        <time>2021-07-12T09:41:33Z</time>
      </trkpt>
      <trkpt lat="37.29738" lon="-8.20195">
        <ele>307.1936</ele>
        <time>2021-07-12T09:41:44Z</time>
      </trkpt>
      <trkpt lat="37.2966" lon="-8.20136">
        <ele>322.3171</ele>
        <time>2021-07-12T09:41:55Z</time>
      </trkpt>
      <trkpt lat="37.29607" lon="-8.20131">
        <ele>316.7014</ele>
        <time>2021-07-12T09:42:06Z</time>
      </trkpt>
      <trkpt lat="37.29529" lon="-8.20073">
        <ele>318.8566</ele>
        <time>2021-07-12T09:42:17Z</time>
      </trkpt>
      <trkpt lat="37.2947" lon="-8.20013">
        <ele>332.025</ele>
        <time>2021-07-12T09:42:28Z</time>
      </trkpt>
      <trkpt lat="37.29413" lon="-8.1994">
        <ele>319.4155</ele>
        <time>2021-07-12T09:42:39Z</time>
      </trkpt>
      <trkpt lat="37.29326" lon="-8.19857">
        <ele>326.3869</ele>
        <time>2021-07-12T09:42:50Z</time>
      </trkpt>
      <trkpt lat="37.29256" lon="-8.19763">
        <ele>334.5975</ele>
        <time>2021-07-12T09:43:01Z</time>
      </trkpt>
      <trkpt lat="37.29246" lon="-8.19709">
        <ele>334.2728</ele>
        <time>2021-07-12T09:43:12Z</time>
      </trkpt>
      <trkpt lat="37.29265" lon="-8.19668">
        <ele>332.7854</ele>
        <time>2021-07-12T09:43:23Z</time>
      </trkpt>
      <trkpt lat="37.29281" lon="-8.19632">
        <ele>322.9891</ele>
        <time>2021-07-12T09:43:34Z</time>
      </trkpt>
      <trkpt lat="37.29296" lon="-8.19592">
        <ele>307.8013</ele>
        <time>2021-07-12T09:43:45Z</time>
      </trkpt>
      <trkpt lat="37.29346" lon="-8.19521">
        <ele>301.1189</ele>
        <time>2021-07-12T09:43:56Z</time>
      </trkpt>
      <trkpt lat="37.2938" lon="-8.19453">
        <ele>287.5461</ele>
        <time>2021-07-12T09:44:07Z</time>
      </trkpt>
      <trkpt lat="37.29372" lon="-8.19388">
        <ele>281.1111</ele>
        <time>2021-07-12T09:44:18Z</time>
      </trkpt>
      <trkpt lat="37.29351" lon="-8.19324">
        <ele>271.3384</ele>
        <time>2021-07-12T09:44:29Z</time>
      </trkpt>
      <trkpt lat="37.2935" lon="-8.19308">
        <ele>269.9951</ele>
        <time>2021-07-12T09:44:40Z</time>
      </trkpt>
      <trkpt lat="37.29347" lon="-8.19282">
        <ele>265.555</ele>
        <time>2021-07-12T09:44:51Z</time>
      </trkpt>
      <trkpt lat="37.29342" lon="-8.19257">
        <ele>258.4567</ele>
        <time>2021-07-12T09:45:02Z</time>
      </trkpt>
      <trkpt lat="37.29333" lon="-8.19227">
        <ele>251.9859</ele>
        <time>2021-07-12T09:45:13Z</time>
      </trkpt>
      <trkpt lat="37.29317" lon="-8.19186">
        <ele>241.3831</ele>
        <time>2021-07-12T09:45:24Z</time>
      </trkpt>
      <trkpt lat="37.29296" lon="-8.19156">
        <ele>233.505</ele>
        <time>2021-07-12T09:45:35Z</time>
      </trkpt>
      <trkpt lat="37.29291" lon="-8.19146">
        <ele>233.996</ele>
        <time>2021-07-12T09:45:46Z</time>
      </trkpt>
      <trkpt lat="37.29253" lon="-8.19116">
        <ele>239.8798</ele>
        <time>2021-07-12T09:45:57Z</time>
      </trkpt>
      <trkpt lat="37.29142" lon="-8.19039">
        <ele>243.3046</ele>
        <time>2021-07-12T09:46:08Z</time>
      </trkpt>
      <trkpt lat="37.29081" lon="-8.1899">
        <ele>247.2224</ele>
        <time>2021-07-12T09:46:19Z</time>
      </trkpt>
      <trkpt lat="37.28964" lon="-8.18983">
        <ele>261.1153</ele>
        <time>2021-07-12T09:46:30Z</time>
      </trkpt>
      <trkpt lat="37.2888" lon="-8.18916">
        <ele>265.8932</ele>
        <time>2021-07-12T09:46:41Z</time>
      </trkpt>
      <trkpt lat="37.28855" lon="-8.18787">
        <ele>255.1485</ele>
        <time>2021-07-12T09:46:52Z</time>
      </trkpt>
      <trkpt lat="37.28752" lon="-8.18744">
        <ele>253.7526</ele>
        <time>2021-07-12T09:47:03Z</time>
      </trkpt>
      <trkpt lat="37.28659" lon="-8.18723">
        <ele>241.4562</ele>
        <time>2021-07-12T09:47:14Z</time>
      </trkpt>
      <trkpt lat="37.28597" lon="-8.18693">
        <ele>209.336</ele>
        <time>2021-07-12T09:47:25Z</time>
      </trkpt>
      <trkpt lat="37.2855" lon="-8.18591">
        <ele>215.0318</ele>
        <time>2021-07-12T09:47:36Z</time>
      </trkpt>
      <trkpt lat="37.28519" lon="-8.18379">
        <ele>229.1523</ele>
        <time>2021-07-12T09:47:47Z</time>
      </trkpt>
      <trkpt lat="37.28502" lon="-8.18191">
        <ele>238.4283</ele>
        <time>2021-07-12T09:47:58Z</time>
      </trkpt>
      <trkpt lat="37.28508" lon="-8.18102">
        <ele>237.7923</ele>
        <time>2021-07-12T09:48:09Z</time>
      </trkpt>
      <trkpt lat="37.28484" lon="-8.18045">
        <ele>241.855</ele>
        <time>2021-07-12T09:48:20Z</time>
      </trkpt>
      <trkpt lat="37.28442" lon="-8.17942">
        <ele>245.5159</ele>
        <time>2021-07-12T09:48:31Z</time>
      </trkpt>
      <trkpt lat="37.28404" lon="-8.1795">
        <ele>247.043</ele>
        <time>2021-07-12T09:48:42Z</time>
      </trkpt>
      <trkpt lat="37.28384" lon="-8.18073">
        <ele>253.8479</ele>
        <time>2021-07-12T09:48:53Z</time>
      </trkpt>
      <trkpt lat="37.28344" lon="-8.18171">
        <ele>268.213</ele>
        <time>2021-07-12T09:49:04Z</time>
      </trkpt>
      <trkpt lat="37.28326" lon="-8.18295">
        <ele>278.7154</ele>
        <time>2021-07-12T09:49:15Z</time>
      </trkpt>
      <trkpt lat="37.28279" lon="-8.18241">
        <ele>293.6434</ele>
        <time>2021-07-12T09:49:26Z</time>
      </trkpt>
      <trkpt lat="37.2821" lon="-8.18171">
        <ele>312.5598</ele>
        <time>2021-07-12T09:49:37Z</time>
      </trkpt>
      <trkpt lat="37.28149" lon="-8.18111">
        <ele>332.1425</ele>
        <time>2021-07-12T09:49:48Z</time>
      </trkpt>
      <trkpt lat="37.28166" lon="-8.17998">
        <ele>326.2553</ele>
        <time>2021-07-12T09:49:59Z</time>
      </trkpt>
      <trkpt lat="37.28139" lon="-8.1789">
        <ele>340.3854</ele>
        <time>2021-07-12T09:50:10Z</time>
      </trkpt>
      <trkpt lat="37.28163" lon="-8.17771">
        <ele>348.0463</ele>
        <time>2021-07-12T09:50:21Z</time>
      </trkpt>
      <trkpt lat="37.28198" lon="-8.17632">
        <ele>341.9116</ele>
        <time>2021-07-12T09:50:32Z</time>
      </trkpt>
      <trkpt lat="37.28201" lon="-8.17487">
        <ele>370.9954</ele>
        <time>2021-07-12T09:50:43Z</time>
      </trkpt>
      <trkpt lat="37.28222" lon="-8.17427">
        <ele>380.557</ele>
        <time>2021-07-12T09:50:54Z</time>
      </trkpt>
      <trkpt lat="37.28202" lon="-8.17344">
        <ele>379.8075</ele>
        <time>2021-07-12T09:51:05Z</time>
      </trkpt>
      <trkpt lat="37.282" lon="-8.17335">
        <ele>380.4088</ele>
        <time>2021-07-12T09:51:16Z</time>
      </trkpt>
      <trkpt lat="37.28202" lon="-8.17327">
        <ele>380.4746</ele>
        <time>2021-07-12T09:51:54Z</time>
      </trkpt>
      <trkpt lat="37.28236" lon="-8.17283">
        <ele>367.0039</ele>
        <time>2021-07-12T09:52:05Z</time>
      </trkpt>
      <trkpt lat="37.28267" lon="-8.17238">
        <ele>354.9285</ele>
        <time>2021-07-12T09:52:16Z</time>
      </trkpt>
      <trkpt lat="37.28319" lon="-8.1718">
        <ele>346.3796</ele>
        <time>2021-07-12T09:52:27Z</time>
      </trkpt>
      <trkpt lat="37.28309" lon="-8.17027">
        <ele>345.767</ele>
        <time>2021-07-12T09:52:38Z</time>
      </trkpt>
      <trkpt lat="37.2829" lon="-8.16914">
        <ele>363.8711</ele>
        <time>2021-07-12T09:52:49Z</time>
      </trkpt>
      <trkpt lat="37.28282" lon="-8.16851">
        <ele>360.4496</ele>
        <time>2021-07-12T09:53:00Z</time>
      </trkpt>
      <trkpt lat="37.2825" lon="-8.16783">
        <ele>357.4437</ele>
        <time>2021-07-12T09:53:11Z</time>
      </trkpt>
      <trkpt lat="37.28211" lon="-8.16684">
        <ele>386.0716</ele>
        <time>2021-07-12T09:53:22Z</time>
      </trkpt>
      <trkpt lat="37.28239" lon="-8.16638">
        <ele>374.8332</ele>
        <time>2021-07-12T09:53:33Z</time>
      </trkpt>
      <trkpt lat="37.28249" lon="-8.16595">
        <ele>365.8584</ele>
        <time>2021-07-12T09:53:44Z</time>
      </trkpt>
      <trkpt lat="37.28263" lon="-8.16552">
        <ele>351.8606</ele>
        <time>2021-07-12T09:53:55Z</time>
      </trkpt>
      <trkpt lat="37.28272" lon="-8.16452">
        <ele>352.43</ele>
        <time>2021-07-12T09:54:06Z</time>
      </trkpt>
      <trkpt lat="37.2823" lon="-8.16354">
        <ele>363.6909</ele>
        <time>2021-07-12T09:54:17Z</time>
      </trkpt>
      <trkpt lat="37.28152" lon="-8.16253">
        <ele>371.5733</ele>
        <time>2021-07-12T09:54:28Z</time>
      </trkpt>
      <trkpt lat="37.28151" lon="-8.16194">
        <ele>364.1063</ele>
        <time>2021-07-12T09:54:39Z</time>
      </trkpt>
      <trkpt lat="37.28175" lon="-8.16086">
        <ele>348.0868</ele>
        <time>2021-07-12T09:54:50Z</time>
      </trkpt>
      <trkpt lat="37.28145" lon="-8.16">
        <ele>337.579</ele>
        <time>2021-07-12T09:55:01Z</time>
      </trkpt>
      <trkpt lat="37.28029" lon="-8.15955">
        <ele>352.9694</ele>
        <time>2021-07-12T09:55:12Z</time>
      </trkpt>
      <trkpt lat="37.2798" lon="-8.15887">
        <ele>348.2283</ele>
        <time>2021-07-12T09:55:23Z</time>
      </trkpt>
      <trkpt lat="37.28023" lon="-8.15836">
        <ele>332.8578</ele>
        <time>2021-07-12T09:55:34Z</time>
      </trkpt>
      <trkpt lat="37.28043" lon="-8.15778">
        <ele>319.2568</ele>
        <time>2021-07-12T09:55:45Z</time>
      </trkpt>
      <trkpt lat="37.28066" lon="-8.15722">
        <ele>304.3448</ele>
        <time>2021-07-12T09:55:56Z</time>
      </trkpt>
      <trkpt lat="37.28083" lon="-8.15694">
        <ele>296.4849</ele>
        <time>2021-07-12T09:56:07Z</time>
      </trkpt>
      <trkpt lat="37.28056" lon="-8.15708">
        <ele>301.4402</ele>
        <time>2021-07-12T09:56:18Z</time>
      </trkpt>
      <trkpt lat="37.28013" lon="-8.15692">
        <ele>301.0261</ele>
        <time>2021-07-12T09:56:29Z</time>
      </trkpt>
      <trkpt lat="37.28057" lon="-8.15655">
        <ele>313.5673</ele>
        <time>2021-07-12T09:56:40Z</time>
      </trkpt>
      <trkpt lat="37.28031" lon="-8.15578">
        <ele>328.989</ele>
        <time>2021-07-12T09:56:51Z</time>
      </trkpt>
      <trkpt lat="37.27998" lon="-8.15475">
        <ele>351.1299</ele>
        <time>2021-07-12T09:57:02Z</time>
      </trkpt>
      <trkpt lat="37.27986" lon="-8.15369">
        <ele>356.7755</ele>
        <time>2021-07-12T09:57:13Z</time>
      </trkpt>
      <trkpt lat="37.27953" lon="-8.15271">
        <ele>364.0768</ele>
        <time>2021-07-12T09:57:24Z</time>
      </trkpt>
      <trkpt lat="37.27946" lon="-8.15198">
        <ele>373.7315</ele>
        <time>2021-07-12T09:57:35Z</time>
      </trkpt>
      <trkpt lat="37.27954" lon="-8.1512">
        <ele>363.1201</ele>
        <time>2021-07-12T09:57:46Z</time>
      </trkpt>
      <trkpt lat="37.27937" lon="-8.15029">
        <ele>359.0771</ele>
        <time>2021-07-12T09:57:57Z</time>
      </trkpt>
      <trkpt lat="37.27936" lon="-8.14893">
        <ele>371.1906</ele>
        <time>2021-07-12T09:58:08Z</time>
      </trkpt>
      <trkpt lat="37.2795" lon="-8.1478">
        <ele>388.3439</ele>
        <time>2021-07-12T09:58:19Z</time>
      </trkpt>
      <trkpt lat="37.27912" lon="-8.14663">
        <ele>401.1136</ele>
        <time>2021-07-12T09:58:30Z</time>
      </trkpt>
      <trkpt lat="37.27872" lon="-8.14543">
        <ele>408.1345</ele>
        <time>2021-07-12T09:58:41Z</time>
      </trkpt>
      <trkpt lat="37.27866" lon="-8.14396">
        <ele>413.4644</ele>
        <time>2021-07-12T09:58:52Z</time>
      </trkpt>
      <trkpt lat="37.27877" lon="-8.14317">
        <ele>407.5922</ele>
        <time>2021-07-12T09:59:03Z</time>
      </trkpt>
      <trkpt lat="37.27901" lon="-8.14184">
        <ele>409.7432</ele>
        <time>2021-07-12T09:59:14Z</time>
      </trkpt>
      <trkpt lat="37.27873" lon="-8.14087">
        <ele>424.5277</ele>
        <time>2021-07-12T09:59:25Z</time>
      </trkpt>
      <trkpt lat="37.27829" lon="-8.13989">
        <ele>414.4793</ele>
        <time>2021-07-12T09:59:36Z</time>
      </trkpt>
      <trkpt lat="37.27751" lon="-8.13867">
        <ele>411.6184</ele>
        <time>2021-07-12T09:59:47Z</time>
      </trkpt>
      <trkpt lat="37.27722" lon="-8.13751">
        <ele>410.1339</ele>
        <time>2021-07-12T09:59:58Z</time>
      </trkpt>
      <trkpt lat="37.27739" lon="-8.13696">
        <ele>403.9364</ele>
        <time>2021-07-12T10:00:09Z</time>
      </trkpt>
      <trkpt lat="37.27769" lon="-8.13649">
        <ele>386.481</ele>
        <time>2021-07-12T10:00:20Z</time>
      </trkpt>
      <trkpt lat="37.27797" lon="-8.13586">
        <ele>366.5285</ele>
        <time>2021-07-12T10:00:31Z</time>
      </trkpt>
      <trkpt lat="37.27813" lon="-8.13454">
        <ele>355.1732</ele>
        <time>2021-07-12T10:00:42Z</time>
      </trkpt>
      <trkpt lat="37.27794" lon="-8.13324">
        <ele>367.0999</ele>
        <time>2021-07-12T10:00:53Z</time>
      </trkpt>
      <trkpt lat="37.2779" lon="-8.13233">
        <ele>367.1584</ele>
        <time>2021-07-12T10:01:04Z</time>
      </trkpt>
      <trkpt lat="37.27764" lon="-8.13136">
        <ele>371.9728</ele>
        <time>2021-07-12T10:01:15Z</time>
      </trkpt>
      <trkpt lat="37.27708" lon="-8.13103">
        <ele>375.6012</ele>
        <time>2021-07-12T10:01:26Z</time>
      </trkpt>
      <trkpt lat="37.27703" lon="-8.13">
        <ele>346.2587</ele>
        <time>2021-07-12T10:01:37Z</time>
      </trkpt>
      <trkpt lat="37.2765" lon="-8.12899">
        <ele>338.7866</ele>
        <time>2021-07-12T10:01:48Z</time>
      </trkpt>
      <trkpt lat="37.27638" lon="-8.12819">
        <ele>328.5925</ele>
        <time>2021-07-12T10:01:59Z</time>
      </trkpt>
      <trkpt lat="37.27614" lon="-8.1275">
        <ele>315.7038</ele>
        <time>2021-07-12T10:02:10Z</time>
      </trkpt>
      <trkpt lat="37.27572" lon="-8.12711">
        <ele>305.0908</ele>
        <time>2021-07-12T10:02:21Z</time>
      </trkpt>
      <trkpt lat="37.27599" lon="-8.127">
        <ele>310.3143</ele>
        <time>2021-07-12T10:02:32Z</time>
      </trkpt>
      <trkpt lat="37.27735" lon="-8.12709">
        <ele>303.8189</ele>
        <time>2021-07-12T10:02:43Z</time>
      </trkpt>
      <trkpt lat="37.27894" lon="-8.1277">
        <ele>282.9382</ele>
        <time>2021-07-12T10:02:54Z</time>
      </trkpt>
      <trkpt lat="37.28035" lon="-8.12697">
        <ele>263.5692</ele>
        <time>2021-07-12T10:03:05Z</time>
      </trkpt>
      <trkpt lat="37.28069" lon="-8.12667">
        <ele>259.3126</ele>
        <time>2021-07-12T10:03:16Z</time>
      </trkpt>
      <trkpt lat="37.28055" lon="-8.12645">
        <ele>259.9148</ele>
        <time>2021-07-12T10:03:27Z</time>
      </trkpt>
      <trkpt lat="37.281" lon="-8.12676">
        <ele>256.0046</ele>
        <time>2021-07-12T10:03:38Z</time>
      </trkpt>
      <trkpt lat="37.28204" lon="-8.12612">
        <ele>253.9475</ele>
        <time>2021-07-12T10:03:49Z</time>
      </trkpt>
      <trkpt lat="37.28244" lon="-8.12468">
        <ele>264.4985</ele>
        <time>2021-07-12T10:04:00Z</time>
      </trkpt>
      <trkpt lat="37.28338" lon="-8.12395">
        <ele>275.3672</ele>
        <time>2021-07-12T10:04:11Z</time>
      </trkpt>
      <trkpt lat="37.28372" lon="-8.12339">
        <ele>277.9345</ele>
        <time>2021-07-12T10:04:22Z</time>
      </trkpt>
      <trkpt lat="37.28384" lon="-8.12335">
        <ele>279.6561</ele>
        <time>2021-07-12T10:04:33Z</time>
      </trkpt>
      <trkpt lat="37.28393" lon="-8.12373">
        <ele>279.0367</ele>
        <time>2021-07-12T10:04:44Z</time>
      </trkpt>
      <trkpt lat="37.28426" lon="-8.12452">
        <ele>273.7032</ele>
        <time>2021-07-12T10:04:55Z</time>
      </trkpt>
      <trkpt lat="37.28508" lon="-8.12455">
        <ele>292.9488</ele>
        <time>2021-07-12T10:05:06Z</time>
      </trkpt>
      <trkpt lat="37.28589" lon="-8.12465">
        <ele>300.7157</ele>
        <time>2021-07-12T10:05:17Z</time>
      </trkpt>
      <trkpt lat="37.28635" lon="-8.12529">
        <ele>312.992</ele>
        <time>2021-07-12T10:05:28Z</time>
      </trkpt>
      <trkpt lat="37.28732" lon="-8.12587">
        <ele>327.9234</ele>
        <time>2021-07-12T10:05:39Z</time>
      </trkpt>
      <trkpt lat="37.28777" lon="-8.12555">
        <ele>322.6115</ele>
        <time>2021-07-12T10:05:50Z</time>
      </trkpt>
      <trkpt lat="37.2878" lon="-8.12451">
        <ele>314.2919</ele>
        <time>2021-07-12T10:06:01Z</time>
      </trkpt>
      <trkpt lat="37.28795" lon="-8.12367">
        <ele>306.4415</ele>
        <time>2021-07-12T10:06:12Z</time>
      </trkpt>
      <trkpt lat="37.28848" lon="-8.12422">
        <ele>312.4886</ele>
        <time>2021-07-12T10:06:23Z</time>
      </trkpt>
      <trkpt lat="37.28973" lon="-8.12463">
        <ele>312.121</ele>
        <time>2021-07-12T10:06:34Z</time>
      </trkpt>
      <trkpt lat="37.29075" lon="-8.12529">
        <ele>318.3613</ele>
        <time>2021-07-12T10:06:45Z</time>
      </trkpt>
      <trkpt lat="37.29173" lon="-8.12537">
        <ele>325.1556</ele>
        <time>2021-07-12T10:06:56Z</time>
      </trkpt>
      <trkpt lat="37.29228" lon="-8.12528">
        <ele>319.0767</ele>
        <time>2021-07-12T10:07:07Z</time>
      </trkpt>
      <trkpt lat="37.29269" lon="-8.12598">
        <ele>313.5293</ele>
        <time>2021-07-12T10:07:18Z</time>
      </trkpt>
      <trkpt lat="37.2934" lon="-8.12611">
        <ele>310.2163</ele>
        <time>2021-07-12T10:07:29Z</time>
      </trkpt>
      <trkpt lat="37.29386" lon="-8.12629">
        <ele>315.871</ele>
        <time>2021-07-12T10:07:40Z</time>
      </trkpt>
      <trkpt lat="37.29405" lon="-8.12579">
        <ele>318.9348</ele>
        <time>2021-07-12T10:07:51Z</time>
      </trkpt>
      <trkpt lat="37.29426" lon="-8.12512">
        <ele>319.402</ele>
        <time>2021-07-12T10:08:02Z</time>
      </trkpt>
      <trkpt lat="37.29493" lon="-8.12469">
        <ele>309.4694</ele>
        <time>2021-07-12T10:08:13Z</time>
      </trkpt>
      <trkpt lat="37.29556" lon="-8.12433">
        <ele>295.5108</ele>
        <time>2021-07-12T10:08:24Z</time>
      </trkpt>
      <trkpt lat="37.29576" lon="-8.12349">
        <ele>284.2872</ele>
        <time>2021-07-12T10:08:35Z</time>
      </trkpt>
      <trkpt lat="37.29662" lon="-8.12343">
        <ele>278.7084</ele>
        <time>2021-07-12T10:08:46Z</time>
      </trkpt>
      <trkpt lat="37.29759" lon="-8.12325">
        <ele>272.3921</ele>
        <time>2021-07-12T10:08:57Z</time>
      </trkpt>
      <trkpt lat="37.29856" lon="-8.1226">
        <ele>256.4018</ele>
        <time>2021-07-12T10:09:08Z</time>
      </trkpt>
      <trkpt lat="37.29945" lon="-8.12261">
        <ele>243.7882</ele>
        <time>2021-07-12T10:09:19Z</time>
      </trkpt>
      <trkpt lat="37.30006" lon="-8.12268">
        <ele>227.7855</ele>
        <time>2021-07-12T10:09:30Z</time>
      </trkpt>
      <trkpt lat="37.30022" lon="-8.12252">
        <ele>224.424</ele>
        <time>2021-07-12T10:09:41Z</time>
      </trkpt>
      <trkpt lat="37.29935" lon="-8.12177">
        <ele>232.5289</ele>
        <time>2021-07-12T10:09:52Z</time>
      </trkpt>
      <trkpt lat="37.29839" lon="-8.12174">
        <ele>238.3017</ele>
        <time>2021-07-12T10:10:03Z</time>
      </trkpt>
      <trkpt lat="37.29859" lon="-8.12014">
        <ele>235.8349</ele>
        <time>2021-07-12T10:10:14Z</time>
      </trkpt>
      <trkpt lat="37.29793" lon="-8.11917">
        <ele>238.4719</ele>
        <time>2021-07-12T10:10:25Z</time>
      </trkpt>
      <trkpt lat="37.29769" lon="-8.11795">
        <ele>235.288</ele>
        <time>2021-07-12T10:10:36Z</time>
      </trkpt>
      <trkpt lat="37.29638" lon="-8.11766">
        <ele>236.9128</ele>
        <time>2021-07-12T10:10:47Z</time>
      </trkpt>
      <trkpt lat="37.29501" lon="-8.11711">
        <ele>241.2096</ele>
        <time>2021-07-12T10:10:58Z</time>
      </trkpt>
      <trkpt lat="37.29431" lon="-8.11759">
        <ele>243.8512</ele>
        <time>2021-07-12T10:11:09Z</time>
      </trkpt>
      <trkpt lat="37.29346" lon="-8.11762">
        <ele>248.5963</ele>
        <time>2021-07-12T10:11:20Z</time>
      </trkpt>
      <trkpt lat="37.29315" lon="-8.11746">
        <ele>247.1659</ele>
        <time>2021-07-12T10:11:31Z</time>
      </trkpt>
      <trkpt lat="37.29349" lon="-8.11744">
        <ele>254.8603</ele>
        <time>2021-07-12T10:11:42Z</time>
      </trkpt>
      <trkpt lat="37.29356" lon="-8.11683">
        <ele>266.4005</ele>
        <time>2021-07-12T10:11:53Z</time>
      </trkpt>
      <trkpt lat="37.29407" lon="-8.11618">
        <ele>280.0917</ele>
        <time>2021-07-12T10:12:04Z</time>
      </trkpt>
      <trkpt lat="37.29476" lon="-8.11586">
        <ele>292.1305</ele>
        <time>2021-07-12T10:12:15Z</time>
      </trkpt>
      <trkpt lat="37.2955" lon="-8.11535">
        <ele>303.8189</ele>
        <time>2021-07-12T10:12:26Z</time>
      </trkpt>
      <trkpt lat="37.29632" lon="-8.11535">
        <ele>313.8095</ele>
        <time>2021-07-12T10:12:37Z</time>
      </trkpt>
      <trkpt lat="37.29694" lon="-8.11544">
        <ele>315.7379</ele>
        <time>2021-07-12T10:12:48Z</time>
      </trkpt>
      <trkpt lat="37.29715" lon="-8.1153">
        <ele>311.8942</ele>
        <time>2021-07-12T10:12:59Z</time>
      </trkpt>
      <trkpt lat="37.29772" lon="-8.11466">
        <ele>312.4632</ele>
        <time>2021-07-12T10:13:10Z</time>
      </trkpt>
      <trkpt lat="37.29867" lon="-8.11444">
        <ele>322.569</ele>
        <time>2021-07-12T10:13:21Z</time>
      </trkpt>
      <trkpt lat="37.29932" lon="-8.114">
        <ele>327.8095</ele>
        <time>2021-07-12T10:13:32Z</time>
      </trkpt>
      <trkpt lat="37.3002" lon="-8.1139">
        <ele>331.1594</ele>
        <time>2021-07-12T10:13:43Z</time>
      </trkpt>
      <trkpt lat="37.30105" lon="-8.11377">
        <ele>337.6969</ele>
        <time>2021-07-12T10:13:54Z</time>
      </trkpt>
      <trkpt lat="37.30207" lon="-8.11345">
        <ele>349.8446</ele>
        <time>2021-07-12T10:14:05Z</time>
      </trkpt>
      <trkpt lat="37.30297" lon="-8.1132">
        <ele>361.6965</ele>
        <time>2021-07-12T10:14:16Z</time>
      </trkpt>
      <trkpt lat="37.30362" lon="-8.11243">
        <ele>376.8494</ele>
        <time>2021-07-12T10:14:27Z</time>
      </trkpt>
      <trkpt lat="37.30466" lon="-8.11196">
        <ele>393.6607</ele>
        <time>2021-07-12T10:14:38Z</time>
      </trkpt>
      <trkpt lat="37.30533" lon="-8.1119">
        <ele>394.5418</ele>
        <time>2021-07-12T10:14:49Z</time>
      </trkpt>
      <trkpt lat="37.3056" lon="-8.11297">
        <ele>401.4281</ele>
        <time>2021-07-12T10:15:00Z</time>
      </trkpt>
      <trkpt lat="37.30606" lon="-8.11403">
        <ele>408.2808</ele>
        <time>2021-07-12T10:15:11Z</time>
      </trkpt>
      <trkpt lat="37.30609" lon="-8.11381">
        <ele>413.8575</ele>
        <time>2021-07-12T10:15:22Z</time>
      </trkpt>
      <trkpt lat="37.30602" lon="-8.11304">
        <ele>425.2903</ele>
        <time>2021-07-12T10:15:33Z</time>
      </trkpt>
      <trkpt lat="37.30583" lon="-8.11165">
        <ele>435.3833</ele>
        <time>2021-07-12T10:15:44Z</time>
      </trkpt>
      <trkpt lat="37.30529" lon="-8.1109">
        <ele>438.7044</ele>
        <time>2021-07-12T10:15:55Z</time>
      </trkpt>
      <trkpt lat="37.30571" lon="-8.10979">
        <ele>446.6506</ele>
        <time>2021-07-12T10:16:06Z</time>
      </trkpt>
      <trkpt lat="37.30545" lon="-8.10848">
        <ele>445.9918</ele>
        <time>2021-07-12T10:16:17Z</time>
      </trkpt>
      <trkpt lat="37.30515" lon="-8.10702">
        <ele>449.8099</ele>
        <time>2021-07-12T10:16:28Z</time>
      </trkpt>
      <trkpt lat="37.30423" lon="-8.10561">
        <ele>456.4942</ele>
        <time>2021-07-12T10:16:39Z</time>
      </trkpt>
      <trkpt lat="37.30355" lon="-8.10424">
        <ele>496.8176</ele>
        <time>2021-07-12T10:16:50Z</time>
      </trkpt>
      <trkpt lat="37.30357" lon="-8.10274">
        <ele>514.2006</ele>
        <time>2021-07-12T10:17:01Z</time>
      </trkpt>
      <trkpt lat="37.30358" lon="-8.10204">
        <ele>517.2299</ele>
        <time>2021-07-12T10:17:12Z</time>
      </trkpt>
      <trkpt lat="37.30361" lon="-8.10198">
        <ele>515.0513</ele>
        <time>2021-07-12T10:17:27Z</time>
      </trkpt>
      <trkpt lat="37.30443" lon="-8.1016">
        <ele>520.3382</ele>
        <time>2021-07-12T10:17:38Z</time>
      </trkpt>
      <trkpt lat="37.30516" lon="-8.10152">
        <ele>513.7191</ele>
        <time>2021-07-12T10:17:49Z</time>
      </trkpt>
      <trkpt lat="37.30519" lon="-8.10099">
        <ele>509.9581</ele>
        <time>2021-07-12T10:18:00Z</time>
      </trkpt>
      <trkpt lat="37.30554" lon="-8.10005">
        <ele>493.0398</ele>
        <time>2021-07-12T10:18:11Z</time>
      </trkpt>
      <trkpt lat="37.30527" lon="-8.09915">
        <ele>485.1722</ele>
        <time>2021-07-12T10:18:22Z</time>
      </trkpt>
      <trkpt lat="37.30469" lon="-8.09873">
        <ele>492.8963</ele>
        <time>2021-07-12T10:18:33Z</time>
      </trkpt>
      <trkpt lat="37.30369" lon="-8.09932">
        <ele>498.4372</ele>
        <time>2021-07-12T10:18:44Z</time>
      </trkpt>
      <trkpt lat="37.30194" lon="-8.10011">
        <ele>510.3363</ele>
        <time>2021-07-12T10:18:55Z</time>
      </trkpt>
      <trkpt lat="37.30141" lon="-8.10123">
        <ele>516.2197</ele>
        <time>2021-07-12T10:19:06Z</time>
      </trkpt>
      <trkpt lat="37.30096" lon="-8.10163">
        <ele>505.3498</ele>
        <time>2021-07-12T10:19:17Z</time>
      </trkpt>
      <trkpt lat="37.30042" lon="-8.10208">
        <ele>494.5676</ele>
        <time>2021-07-12T10:19:28Z</time>
      </trkpt>
      <trkpt lat="37.29985" lon="-8.10225">
        <ele>480.2034</ele>
        <time>2021-07-12T10:19:39Z</time>
      </trkpt>
      <trkpt lat="37.29941" lon="-8.10262">
        <ele>471.7203</ele>
        <time>2021-07-12T10:19:50Z</time>
      </trkpt>
      <trkpt lat="37.29893" lon="-8.10258">
        <ele>461.8948</ele>
        <time>2021-07-12T10:20:01Z</time>
      </trkpt>
      <trkpt lat="37.29841" lon="-8.10204">
        <ele>458.0737</ele>
        <time>2021-07-12T10:20:12Z</time>
      </trkpt>
      <trkpt lat="37.29789" lon="-8.10226">
        <ele>445.7916</ele>
        <time>2021-07-12T10:20:23Z</time>
      </trkpt>
      <trkpt lat="37.29719" lon="-8.10259">
        <ele>437.3368</ele>
        <time>2021-07-12T10:20:34Z</time>
      </trkpt>
      <trkpt lat="37.29654" lon="-8.10262">
        <ele>430.4924</ele>
        <time>2021-07-12T10:20:45Z</time>
      </trkpt>
      <trkpt lat="37.29629" lon="-8.10179">
        <ele>427.6266</ele>
        <time>2021-07-12T10:20:56Z</time>
      </trkpt>
      <trkpt lat="37.29569" lon="-8.10194">
        <ele>419.1267</ele>
        <time>2021-07-12T10:21:07Z</time>
      </trkpt>
      <trkpt lat="37.29495" lon="-8.1024">
        <ele>402.7177</ele>
        <time>2021-07-12T10:21:18Z</time>
      </trkpt>
      <trkpt lat="37.29435" lon="-8.10276">
        <ele>372.1504</ele>
        <time>2021-07-12T10:21:29Z</time>
      </trkpt>
      <trkpt lat="37.29377" lon="-8.10291">
        <ele>357.8186</ele>
        <time>2021-07-12T10:21:40Z</time>
      </trkpt>
      <trkpt lat="37.29321" lon="-8.1033">
        <ele>369.7779</ele>
        <time>2021-07-12T10:21:51Z</time>
      </trkpt>
      <trkpt lat="37.29269" lon="-8.1038">
        <ele>360.1849</ele>
        <time>2021-07-12T10:22:02Z</time>
      </trkpt>
      <trkpt lat="37.29199" lon="-8.104">
        <ele>347.9829</ele>
        <time>2021-07-12T10:22:13Z</time>
      </trkpt>
      <trkpt lat="37.29138" lon="-8.10427">
        <ele>335.2722</ele>
        <time>2021-07-12T10:22:24Z</time>
      </trkpt>
      <trkpt lat="37.29078" lon="-8.10411">
        <ele>323.2418</ele>
        <time>2021-07-12T10:22:35Z</time>
      </trkpt>
      <trkpt lat="37.29013" lon="-8.10419">
        <ele>310.5522</ele>
        <time>2021-07-12T10:22:46Z</time>
      </trkpt>
      <trkpt lat="37.28941" lon="-8.10438">
        <ele>296.9983</ele>
        <time>2021-07-12T10:22:57Z</time>
      </trkpt>
      <trkpt lat="37.28863" lon="-8.1043">
        <ele>280.7712</ele>
        <time>2021-07-12T10:23:08Z</time>
      </trkpt>
      <trkpt lat="37.28837" lon="-8.10402">
        <ele>278.343</ele>
        <time>2021-07-12T10:23:19Z</time>
      </trkpt>
      <trkpt lat="37.28693" lon="-8.10347">
        <ele>270.758</ele>
        <time>2021-07-12T10:23:30Z</time>
      </trkpt>
      <trkpt lat="37.28671" lon="-8.10266">
        <ele>267.367</ele>
        <time>2021-07-12T10:23:41Z</time>
      </trkpt>
      <trkpt lat="37.28656" lon="-8.10219">
        <ele>263.7861</ele>
        <time>2021-07-12T10:23:52Z</time>
      </trkpt>
      <trkpt lat="37.28748" lon="-8.10169">
        <ele>267.3035</ele>
        <time>2021-07-12T10:24:03Z</time>
      </trkpt>
      <trkpt lat="37.28777" lon="-8.10052">
        <ele>276.0245</ele>
        <time>2021-07-12T10:24:14Z</time>
      </trkpt>
      <trkpt lat="37.28809" lon="-8.09938">
        <ele>273.2509</ele>
        <time>2021-07-12T10:24:25Z</time>
      </trkpt>
      <trkpt lat="37.28806" lon="-8.09794">
        <ele>283.3036</ele>
        <time>2021-07-12T10:24:36Z</time>
      </trkpt>
      <trkpt lat="37.28818" lon="-8.09656">
        <ele>278.9604</ele>
        <time>2021-07-12T10:24:47Z</time>
      </trkpt>
      <trkpt lat="37.28845" lon="-8.09524">
        <ele>291.0376</ele>
        <time>2021-07-12T10:24:58Z</time>
      </trkpt>
      <trkpt lat="37.28871" lon="-8.09431">
        <ele>295.2536</ele>
        <time>2021-07-12T10:25:09Z</time>
      </trkpt>
      <trkpt lat="37.28929" lon="-8.0939">
        <ele>283.7109</ele>
        <time>2021-07-12T10:25:20Z</time>
      </trkpt>
      <trkpt lat="37.29002" lon="-8.09304">
        <ele>291.7444</ele>
        <time>2021-07-12T10:25:31Z</time>
      </trkpt>
      <trkpt lat="37.29072" lon="-8.09217">
        <ele>299.7228</ele>
        <time>2021-07-12T10:25:42Z</time>
      </trkpt>
      <trkpt lat="37.29133" lon="-8.09121">
        <ele>311.1956</ele>
        <time>2021-07-12T10:25:53Z</time>
      </trkpt>
      <trkpt lat="37.2919" lon="-8.0904">
        <ele>312.9919</ele>
        <time>2021-07-12T10:26:05Z</time>
      </trkpt>
      <trkpt lat="37.29262" lon="-8.08981">
        <ele>315.7265</ele>
        <time>2021-07-12T10:26:16Z</time>
      </trkpt>
      <trkpt lat="37.29294" lon="-8.08874">
        <ele>310.9628</ele>
        <time>2021-07-12T10:26:27Z</time>
      </trkpt>
      <trkpt lat="37.29305" lon="-8.08819">
        <ele>314.342</ele>
        <time>2021-07-12T10:26:38Z</time>
      </trkpt>
      <trkpt lat="37.29217" lon="-8.08713">
        <ele>319.704</ele>
        <time>2021-07-12T10:26:49Z</time>
      </trkpt>
      <trkpt lat="37.29164" lon="-8.08645">
        <ele>313.6961</ele>
        <time>2021-07-12T10:27:00Z</time>
      </trkpt>
      <trkpt lat="37.29081" lon="-8.08596">
        <ele>316.1302</ele>
        <time>2021-07-12T10:27:11Z</time>
      </trkpt>
      <trkpt lat="37.29021" lon="-8.08526">
        <ele>320.5528</ele>
        <time>2021-07-12T10:27:22Z</time>
      </trkpt>
      <trkpt lat="37.28986" lon="-8.08428">
        <ele>326.2852</ele>
        <time>2021-07-12T10:27:33Z</time>
      </trkpt>
      <trkpt lat="37.28991" lon="-8.08332">
        <ele>329.8328</ele>
        <time>2021-07-12T10:27:44Z</time>
      </trkpt>
      <trkpt lat="37.29001" lon="-8.08316">
        <ele>332.4945</ele>
        <time>2021-07-12T10:27:55Z</time>
      </trkpt>
      <trkpt lat="37.29043" lon="-8.08292">
        <ele>341.3762</ele>
        <time>2021-07-12T10:28:06Z</time>
      </trkpt>
      <trkpt lat="37.29079" lon="-8.08342">
        <ele>346.5667</ele>
        <time>2021-07-12T10:28:17Z</time>
      </trkpt>
      <trkpt lat="37.29151" lon="-8.08375">
        <ele>352.7585</ele>
        <time>2021-07-12T10:28:28Z</time>
      </trkpt>
      <trkpt lat="37.29219" lon="-8.08347">
        <ele>353.7383</ele>
        <time>2021-07-12T10:28:39Z</time>
      </trkpt>
      <trkpt lat="37.29218" lon="-8.08435">
        <ele>356.5851</ele>
        <time>2021-07-12T10:28:50Z</time>
      </trkpt>
      <trkpt lat="37.2928" lon="-8.08411">
        <ele>359.7279</ele>
        <time>2021-07-12T10:29:01Z</time>
      </trkpt>
      <trkpt lat="37.29317" lon="-8.08403">
        <ele>362.5261</ele>
        <time>2021-07-12T10:29:12Z</time>
      </trkpt>
      <trkpt lat="37.29338" lon="-8.08468">
        <ele>368.217</ele>
        <time>2021-07-12T10:29:23Z</time>
      </trkpt>
      <trkpt lat="37.29357" lon="-8.08546">
        <ele>375.2251</ele>
        <time>2021-07-12T10:29:34Z</time>
      </trkpt>
      <trkpt lat="37.29401" lon="-8.08483">
        <ele>385.3326</ele>
        <time>2021-07-12T10:29:45Z</time>
      </trkpt>
      <trkpt lat="37.29443" lon="-8.08376">
        <ele>397.6152</ele>
        <time>2021-07-12T10:29:56Z</time>
      </trkpt>
      <trkpt lat="37.29511" lon="-8.08388">
        <ele>401.0717</ele>
        <time>2021-07-12T10:30:07Z</time>
      </trkpt>
      <trkpt lat="37.29593" lon="-8.08375">
        <ele>409.7664</ele>
        <time>2021-07-12T10:30:18Z</time>
      </trkpt>
      <trkpt lat="37.29635" lon="-8.08451">
        <ele>417.3557</ele>
        <time>2021-07-12T10:30:29Z</time>
      </trkpt>
      <trkpt lat="37.29714" lon="-8.08442">
        <ele>427.7332</ele>
        <time>2021-07-12T10:30:40Z</time>
      </trkpt>
      <trkpt lat="37.29745" lon="-8.08515">
        <ele>433.9392</ele>
        <time>2021-07-12T10:30:51Z</time>
      </trkpt>
      <trkpt lat="37.29834" lon="-8.08496">
        <ele>440.0826</ele>
        <time>2021-07-12T10:31:02Z</time>
      </trkpt>
      <trkpt lat="37.29936" lon="-8.0845">
        <ele>449.7734</ele>
        <time>2021-07-12T10:31:13Z</time>
      </trkpt>
      <trkpt lat="37.29995" lon="-8.08484">
        <ele>456.5585</ele>
        <time>2021-07-12T10:31:24Z</time>
      </trkpt>
      <trkpt lat="37.30054" lon="-8.08518">
        <ele>468.8431</ele>
        <time>2021-07-12T10:31:35Z</time>
      </trkpt>
      <trkpt lat="37.30119" lon="-8.08544">
        <ele>469.2133</ele>
        <time>2021-07-12T10:31:46Z</time>
      </trkpt>
      <trkpt lat="37.30195" lon="-8.08567">
        <ele>466.4692</ele>
        <time>2021-07-12T10:31:57Z</time>
      </trkpt>
      <trkpt lat="37.30296" lon="-8.08513">
        <ele>454.9668</ele>
        <time>2021-07-12T10:32:08Z</time>
      </trkpt>
      <trkpt lat="37.30403" lon="-8.08563">
        <ele>453.1806</ele>
        <time>2021-07-12T10:32:19Z</time>
      </trkpt>
      <trkpt lat="37.30467" lon="-8.08598">
        <ele>455.3498</ele>
        <time>2021-07-12T10:32:30Z</time>
      </trkpt>
      <trkpt lat="37.30526" lon="-8.08541">
        <ele>461.6161</ele>
        <time>2021-07-12T10:32:41Z</time>
      </trkpt>
      <trkpt lat="37.30587" lon="-8.08498">
        <ele>472.6283</ele>
        <time>2021-07-12T10:32:52Z</time>
      </trkpt>
      <trkpt lat="37.30628" lon="-8.0839">
        <ele>469.2954</ele>
        <time>2021-07-12T10:33:03Z</time>
      </trkpt>
      <trkpt lat="37.30676" lon="-8.08252">
        <ele>465.05</ele>
        <time>2021-07-12T10:33:14Z</time>
      </trkpt>
      <trkpt lat="37.30706" lon="-8.08128">
        <ele>444.9642</ele>
        <time>2021-07-12T10:33:25Z</time>
      </trkpt>
      <trkpt lat="37.30636" lon="-8.07952">
        <ele>429.8743</ele>
        <time>2021-07-12T10:33:36Z</time>
      </trkpt>
      <trkpt lat="37.30587" lon="-8.07774">
        <ele>424.2225</ele>
        <time>2021-07-12T10:33:47Z</time>
      </trkpt>
      <trkpt lat="37.30555" lon="-8.07689">
        <ele>421.319</ele>
        <time>2021-07-12T10:33:58Z</time>
      </trkpt>
      <trkpt lat="37.30456" lon="-8.07547">
        <ele>433.6559</ele>
        <time>2021-07-12T10:34:09Z</time>
      </trkpt>
      <trkpt lat="37.30305" lon="-8.0742">
        <ele>424.4323</ele>
        <time>2021-07-12T10:34:20Z</time>
      </trkpt>
      <trkpt lat="37.30144" lon="-8.07292">
        <ele>419.4792</ele>
        <time>2021-07-12T10:34:31Z</time>
      </trkpt>
      <trkpt lat="37.29942" lon="-8.07213">
        <ele>422.6226</ele>
        <time>2021-07-12T10:34:42Z</time>
      </trkpt>
      <trkpt lat="37.29827" lon="-8.07032">
        <ele>429.8717</ele>
        <time>2021-07-12T10:34:53Z</time>
      </trkpt>
      <trkpt lat="37.2973" lon="-8.06772">
        <ele>443.3159</ele>
        <time>2021-07-12T10:35:04Z</time>
      </trkpt>
      <trkpt lat="37.29642" lon="-8.06572">
        <ele>460.5547</ele>
        <time>2021-07-12T10:35:15Z</time>
      </trkpt>
      <trkpt lat="37.29519" lon="-8.06454">
        <ele>461.8611</ele>
        <time>2021-07-12T10:35:26Z</time>
      </trkpt>
      <trkpt lat="37.29475" lon="-8.06336">
        <ele>453.9067</ele>
        <time>2021-07-12T10:35:37Z</time>
      </trkpt>
      <trkpt lat="37.29637" lon="-8.06285">
        <ele>447.9781</ele>
        <time>2021-07-12T10:35:48Z</time>
      </trkpt>
      <trkpt lat="37.29814" lon="-8.06187">
        <ele>443.7529</ele>
        <time>2021-07-12T10:35:59Z</time>
      </trkpt>
      <trkpt lat="37.29894" lon="-8.06127">
        <ele>440.6056</ele>
        <time>2021-07-12T10:36:10Z</time>
      </trkpt>
      <trkpt lat="37.29893" lon="-8.06057">
        <ele>439.322</ele>
        <time>2021-07-12T10:36:21Z</time>
      </trkpt>
      <trkpt lat="37.29884" lon="-8.05977">
        <ele>458.0219</ele>
        <time>2021-07-12T10:36:32Z</time>
      </trkpt>
      <trkpt lat="37.29906" lon="-8.05875">
        <ele>475.0249</ele>
        <time>2021-07-12T10:36:43Z</time>
      </trkpt>
      <trkpt lat="37.29983" lon="-8.05792">
        <ele>473.3609</ele>
        <time>2021-07-12T10:36:54Z</time>
      </trkpt>
      <trkpt lat="37.30049" lon="-8.05711">
        <ele>476.3802</ele>
        <time>2021-07-12T10:37:05Z</time>
      </trkpt>
      <trkpt lat="37.30057" lon="-8.05626">
        <ele>479.1778</ele>
        <time>2021-07-12T10:37:16Z</time>
      </trkpt>
      <trkpt lat="37.30064" lon="-8.05535">
        <ele>482.6199</ele>
        <time>2021-07-12T10:37:27Z</time>
      </trkpt>
      <trkpt lat="37.30094" lon="-8.05454">
        <ele>474.5799</ele>
        <time>2021-07-12T10:37:38Z</time>
      </trkpt>
      <trkpt lat="37.30084" lon="-8.05357">
        <ele>480.7657</ele>
        <time>2021-07-12T10:37:49Z</time>
      </trkpt>
      <trkpt lat="37.30044" lon="-8.05278">
        <ele>480.7895</ele>
        <time>2021-07-12T10:38:00Z</time>
      </trkpt>
      <trkpt lat="37.30014" lon="-8.05199">
        <ele>464.1296</ele>
        <time>2021-07-12T10:38:11Z</time>
      </trkpt>
      <trkpt lat="37.3" lon="-8.05102">
        <ele>461.3921</ele>
        <time>2021-07-12T10:38:22Z</time>
      </trkpt>
      <trkpt lat="37.30009" lon="-8.05007">
        <ele>453.8828</ele>
        <time>2021-07-12T10:38:33Z</time>
      </trkpt>
      <trkpt lat="37.29995" lon="-8.04934">
        <ele>446.4956</ele>
        <time>2021-07-12T10:38:44Z</time>
      </trkpt>
      <trkpt lat="37.29989" lon="-8.04868">
        <ele>436.0376</ele>
        <time>2021-07-12T10:38:55Z</time>
      </trkpt>
      <trkpt lat="37.29994" lon="-8.04793">
        <ele>421.7527</ele>
        <time>2021-07-12T10:39:06Z</time>
      </trkpt>
      <trkpt lat="37.3" lon="-8.04735">
        <ele>406.3286</ele>
        <time>2021-07-12T10:39:17Z</time>
      </trkpt>
      <trkpt lat="37.30041" lon="-8.04663">
        <ele>398.1728</ele>
        <time>2021-07-12T10:39:28Z</time>
      </trkpt>
      <trkpt lat="37.30031" lon="-8.04605">
        <ele>396.0443</ele>
        <time>2021-07-12T10:39:39Z</time>
      </trkpt>
      <trkpt lat="37.30016" lon="-8.04495">
        <ele>403.5414</ele>
        <time>2021-07-12T10:39:50Z</time>
      </trkpt>
      <trkpt lat="37.29979" lon="-8.04441">
        <ele>390.5993</ele>
        <time>2021-07-12T10:40:01Z</time>
      </trkpt>
      <trkpt lat="37.29901" lon="-8.0439">
        <ele>419.4936</ele>
        <time>2021-07-12T10:40:12Z</time>
      </trkpt>
      <trkpt lat="37.29858" lon="-8.04359">
        <ele>412.6891</ele>
        <time>2021-07-12T10:40:23Z</time>
      </trkpt>
      <trkpt lat="37.29829" lon="-8.04302">
        <ele>401.1086</ele>
        <time>2021-07-12T10:40:34Z</time>
      </trkpt>
      <trkpt lat="37.29774" lon="-8.04247">
        <ele>394.1727</ele>
        <time>2021-07-12T10:40:45Z</time>
      </trkpt>
      <trkpt lat="37.29713" lon="-8.04195">
        <ele>384.9167</ele>
        <time>2021-07-12T10:40:56Z</time>
      </trkpt>
      <trkpt lat="37.29671" lon="-8.04111">
        <ele>385.064</ele>
        <time>2021-07-12T10:41:07Z</time>
      </trkpt>
      <trkpt lat="37.2963" lon="-8.03998">
        <ele>391.8897</ele>
        <time>2021-07-12T10:41:18Z</time>
      </trkpt>
      <trkpt lat="37.29604" lon="-8.03962">
        <ele>394.5351</ele>
        <time>2021-07-12T10:41:29Z</time>
      </trkpt>
      <trkpt lat="37.29606" lon="-8.03968">
        <ele>394.8746</ele>
        <time>2021-07-12T10:41:50Z</time>
      </trkpt>
      <trkpt lat="37.29614" lon="-8.0397">
        <ele>392.6065</ele>
        <time>2021-07-12T10:42:01Z</time>
      </trkpt>
      <trkpt lat="37.29601" lon="-8.0391">
        <ele>387.9707</ele>
        <time>2021-07-12T10:42:12Z</time>
      </trkpt>
      <trkpt lat="37.29612" lon="-8.03852">
        <ele>381.4288</ele>
        <time>2021-07-12T10:42:23Z</time>
      </trkpt>
      <trkpt lat="37.29628" lon="-8.03757">
        <ele>374.0428</ele>
        <time>2021-07-12T10:42:34Z</time>
      </trkpt>
      <trkpt lat="37.29671" lon="-8.03706">
        <ele>374.925</ele>
        <time>2021-07-12T10:42:45Z</time>
      </trkpt>
      <trkpt lat="37.29729" lon="-8.03621">
        <ele>374.0098</ele>
        <time>2021-07-12T10:42:56Z</time>
      </trkpt>
      <trkpt lat="37.2981" lon="-8.03554">
        <ele>374.3694</ele>
        <time>2021-07-12T10:43:07Z</time>
      </trkpt>
      <trkpt lat="37.29875" lon="-8.03455">
        <ele>371.7473</ele>
        <time>2021-07-12T10:43:18Z</time>
      </trkpt>
      <trkpt lat="37.29936" lon="-8.03402">
        <ele>370.4497</ele>
        <time>2021-07-12T10:43:29Z</time>
      </trkpt>
      <trkpt lat="37.29977" lon="-8.03363">
        <ele>374.9255</ele>
        <time>2021-07-12T10:43:40Z</time>
      </trkpt>
      <trkpt lat="37.29995" lon="-8.03296">
        <ele>370.3238</ele>
        <time>2021-07-12T10:43:51Z</time>
      </trkpt>
      <trkpt lat="37.30028" lon="-8.03226">
        <ele>369.2877</ele>
        <time>2021-07-12T10:44:02Z</time>
      </trkpt>
      <trkpt lat="37.30081" lon="-8.03118">
        <ele>363.4189</ele>
        <time>2021-07-12T10:44:13Z</time>
      </trkpt>
      <trkpt lat="37.30149" lon="-8.03024">
        <ele>365.4475</ele>
        <time>2021-07-12T10:44:24Z</time>
      </trkpt>
      <trkpt lat="37.30227" lon="-8.03005">
        <ele>365.2205</ele>
        <time>2021-07-12T10:44:35Z</time>
      </trkpt>
      <trkpt lat="37.303" lon="-8.0291">
        <ele>360.3384</ele>
        <time>2021-07-12T10:44:46Z</time>
      </trkpt>
      <trkpt lat="37.30324" lon="-8.0279">
        <ele>358.7191</ele>
        <time>2021-07-12T10:44:57Z</time>
      </trkpt>
      <trkpt lat="37.30333" lon="-8.02642">
        <ele>358.5712</ele>
        <time>2021-07-12T10:45:08Z</time>
      </trkpt>
      <trkpt lat="37.30321" lon="-8.0251">
        <ele>352.3188</ele>
        <time>2021-07-12T10:45:19Z</time>
      </trkpt>
      <trkpt lat="37.30296" lon="-8.02408">
        <ele>349.377</ele>
        <time>2021-07-12T10:45:30Z</time>
      </trkpt>
      <trkpt lat="37.30341" lon="-8.02374">
        <ele>353.1567</ele>
        <time>2021-07-12T10:45:41Z</time>
      </trkpt>
      <trkpt lat="37.30472" lon="-8.0232">
        <ele>351.3891</ele>
        <time>2021-07-12T10:45:52Z</time>
      </trkpt>
      <trkpt lat="37.30606" lon="-8.02332">
        <ele>355.4184</ele>
        <time>2021-07-12T10:46:03Z</time>
      </trkpt>
      <trkpt lat="37.30696" lon="-8.02282">
        <ele>348.6827</ele>
        <time>2021-07-12T10:46:14Z</time>
      </trkpt>
      <trkpt lat="37.30736" lon="-8.02165">
        <ele>344.4875</ele>
        <time>2021-07-12T10:46:25Z</time>
      </trkpt>
      <trkpt lat="37.30879" lon="-8.02081">
        <ele>344.6089</ele>
        <time>2021-07-12T10:46:36Z</time>
      </trkpt>
      <trkpt lat="37.3095" lon="-8.01931">
        <ele>346.0356</ele>
        <time>2021-07-12T10:46:47Z</time>
      </trkpt>
      <trkpt lat="37.30957" lon="-8.01738">
        <ele>341.4136</ele>
        <time>2021-07-12T10:46:58Z</time>
      </trkpt>
      <trkpt lat="37.30954" lon="-8.01568">
        <ele>342.46</ele>
        <time>2021-07-12T10:47:09Z</time>
      </trkpt>
      <trkpt lat="37.31095" lon="-8.01504">
        <ele>341.4331</ele>
        <time>2021-07-12T10:47:20Z</time>
      </trkpt>
      <trkpt lat="37.31201" lon="-8.01382">
        <ele>335.0774</ele>
        <time>2021-07-12T10:47:31Z</time>
      </trkpt>
      <trkpt lat="37.31311" lon="-8.01294">
        <ele>339.119</ele>
        <time>2021-07-12T10:47:42Z</time>
      </trkpt>
      <trkpt lat="37.31399" lon="-8.01297">
        <ele>334.5308</ele>
        <time>2021-07-12T10:47:53Z</time>
      </trkpt>
      <trkpt lat="37.31391" lon="-8.01268">
        <ele>336.0084</ele>
        <time>2021-07-12T10:48:04Z</time>
      </trkpt>
      <trkpt lat="37.31327" lon="-8.01162">
        <ele>344.9377</ele>
        <time>2021-07-12T10:48:15Z</time>
      </trkpt>
      <trkpt lat="37.31302" lon="-8.01074">
        <ele>374.7842</ele>
        <time>2021-07-12T10:48:26Z</time>
      </trkpt>
      <trkpt lat="37.31243" lon="-8.00985">
        <ele>383.5661</ele>
        <time>2021-07-12T10:48:37Z</time>
      </trkpt>
      <trkpt lat="37.31226" lon="-8.00893">
        <ele>389.7807</ele>
        <time>2021-07-12T10:48:48Z</time>
      </trkpt>
      <trkpt lat="37.31212" lon="-8.00801">
        <ele>397.8159</ele>
        <time>2021-07-12T10:48:59Z</time>
      </trkpt>
      <trkpt lat="37.31185" lon="-8.00716">
        <ele>408.2616</ele>
        <time>2021-07-12T10:49:10Z</time>
      </trkpt>
      <trkpt lat="37.31111" lon="-8.00646">
        <ele>409.8637</ele>
        <time>2021-07-12T10:49:21Z</time>
      </trkpt>
      <trkpt lat="37.31078" lon="-8.00557">
        <ele>408.7548</ele>
        <time>2021-07-12T10:49:32Z</time>
      </trkpt>
      <trkpt lat="37.3106" lon="-8.00468">
        <ele>417.0218</ele>
        <time>2021-07-12T10:49:43Z</time>
      </trkpt>
      <trkpt lat="37.30982" lon="-8.00461">
        <ele>414.988</ele>
        <time>2021-07-12T10:49:54Z</time>
      </trkpt>
      <trkpt lat="37.30993" lon="-8.00363">
        <ele>410.7302</ele>
        <time>2021-07-12T10:50:05Z</time>
      </trkpt>
      <trkpt lat="37.3095" lon="-8.00301">
        <ele>407.6675</ele>
        <time>2021-07-12T10:50:16Z</time>
      </trkpt>
      <trkpt lat="37.30911" lon="-8.00223">
        <ele>417.3983</ele>
        <time>2021-07-12T10:50:27Z</time>
      </trkpt>
      <trkpt lat="37.30886" lon="-8.00108">
        <ele>420.4189</ele>
        <time>2021-07-12T10:50:38Z</time>
      </trkpt>
      <trkpt lat="37.30858" lon="-8.00019">
        <ele>409.9307</ele>
        <time>2021-07-12T10:50:49Z</time>
      </trkpt>
      <trkpt lat="37.3083" lon="-7.99932">
        <ele>408.4332</ele>
        <time>2021-07-12T10:51:00Z</time>
      </trkpt>
      <trkpt lat="37.30781" lon="-7.99835">
        <ele>418.5617</ele>
        <time>2021-07-12T10:51:11Z</time>
      </trkpt>
      <trkpt lat="37.30731" lon="-7.99789">
        <ele>427.4369</ele>
        <time>2021-07-12T10:51:22Z</time>
      </trkpt>
      <trkpt lat="37.30697" lon="-7.99735">
        <ele>430.6795</ele>
        <time>2021-07-12T10:51:33Z</time>
      </trkpt>
      <trkpt lat="37.30771" lon="-7.99691">
        <ele>432.5594</ele>
        <time>2021-07-12T10:51:44Z</time>
      </trkpt>
      <trkpt lat="37.30824" lon="-7.99641">
        <ele>427.3765</ele>
        <time>2021-07-12T10:51:55Z</time>
      </trkpt>
      <trkpt lat="37.30782" lon="-7.99529">
        <ele>410.0123</ele>
        <time>2021-07-12T10:52:06Z</time>
      </trkpt>
      <trkpt lat="37.30758" lon="-7.99416">
        <ele>395.5302</ele>
        <time>2021-07-12T10:52:17Z</time>
      </trkpt>
      <trkpt lat="37.30719" lon="-7.99272">
        <ele>373.766</ele>
        <time>2021-07-12T10:52:28Z</time>
      </trkpt>
      <trkpt lat="37.3072" lon="-7.99152">
        <ele>358.9958</ele>
        <time>2021-07-12T10:52:39Z</time>
      </trkpt>
      <trkpt lat="37.3065" lon="-7.99114">
        <ele>331.0573</ele>
        <time>2021-07-12T10:52:50Z</time>
      </trkpt>
      <trkpt lat="37.30591" lon="-7.99111">
        <ele>322.5926</ele>
        <time>2021-07-12T10:53:01Z</time>
      </trkpt>
      <trkpt lat="37.3054" lon="-7.99006">
        <ele>340.2313</ele>
        <time>2021-07-12T10:53:12Z</time>
      </trkpt>
      <trkpt lat="37.30526" lon="-7.98864">
        <ele>348.2895</ele>
        <time>2021-07-12T10:53:23Z</time>
      </trkpt>
      <trkpt lat="37.30482" lon="-7.98739">
        <ele>357.9119</ele>
        <time>2021-07-12T10:53:34Z</time>
      </trkpt>
      <trkpt lat="37.30384" lon="-7.98694">
        <ele>357.9267</ele>
        <time>2021-07-12T10:53:45Z</time>
      </trkpt>
      <trkpt lat="37.30275" lon="-7.98595">
        <ele>355.7307</ele>
        <time>2021-07-12T10:53:56Z</time>
      </trkpt>
      <trkpt lat="37.3026" lon="-7.98399">
        <ele>358.9858</ele>
        <time>2021-07-12T10:54:07Z</time>
      </trkpt>
      <trkpt lat="37.30211" lon="-7.98273">
        <ele>356.3102</ele>
        <time>2021-07-12T10:54:18Z</time>
      </trkpt>
      <trkpt lat="37.30169" lon="-7.98154">
        <ele>351.0636</ele>
        <time>2021-07-12T10:54:29Z</time>
      </trkpt>
      <trkpt lat="37.30117" lon="-7.98088">
        <ele>352.714</ele>
        <time>2021-07-12T10:54:40Z</time>
      </trkpt>
      <trkpt lat="37.30072" lon="-7.98064">
        <ele>361.7007</ele>
        <time>2021-07-12T10:54:51Z</time>
      </trkpt>
      <trkpt lat="37.2999" lon="-7.98007">
        <ele>374.7232</ele>
        <time>2021-07-12T10:55:02Z</time>
      </trkpt>
      <trkpt lat="37.29934" lon="-7.97926">
        <ele>388.3397</ele>
        <time>2021-07-12T10:55:13Z</time>
      </trkpt>
      <trkpt lat="37.29883" lon="-7.97835">
        <ele>396.3231</ele>
        <time>2021-07-12T10:55:24Z</time>
      </trkpt>
      <trkpt lat="37.29833" lon="-7.97729">
        <ele>414.5924</ele>
        <time>2021-07-12T10:55:35Z</time>
      </trkpt>
      <trkpt lat="37.29753" lon="-7.97641">
        <ele>419.8584</ele>
        <time>2021-07-12T10:55:46Z</time>
      </trkpt>
      <trkpt lat="37.29675" lon="-7.97705">
        <ele>420.5001</ele>
        <time>2021-07-12T10:55:57Z</time>
      </trkpt>
      <trkpt lat="37.29584" lon="-7.97716">
        <ele>416.6682</ele>
        <time>2021-07-12T10:56:08Z</time>
      </trkpt>
      <trkpt lat="37.29506" lon="-7.97648">
        <ele>423.1522</ele>
        <time>2021-07-12T10:56:19Z</time>
      </trkpt>
      <trkpt lat="37.29426" lon="-7.97737">
        <ele>430.8564</ele>
        <time>2021-07-12T10:56:30Z</time>
      </trkpt>
      <trkpt lat="37.29318" lon="-7.9782">
        <ele>440.0326</ele>
        <time>2021-07-12T10:56:41Z</time>
      </trkpt>
      <trkpt lat="37.29227" lon="-7.97874">
        <ele>445.5901</ele>
        <time>2021-07-12T10:56:52Z</time>
      </trkpt>
      <trkpt lat="37.29212" lon="-7.97942">
        <ele>453.9472</ele>
        <time>2021-07-12T10:57:03Z</time>
      </trkpt>
      <trkpt lat="37.29133" lon="-7.97931">
        <ele>459.0692</ele>
        <time>2021-07-12T10:57:14Z</time>
      </trkpt>
      <trkpt lat="37.29004" lon="-7.97853">
        <ele>472.7177</ele>
        <time>2021-07-12T10:57:25Z</time>
      </trkpt>
      <trkpt lat="37.28906" lon="-7.97762">
        <ele>486.0651</ele>
        <time>2021-07-12T10:57:36Z</time>
      </trkpt>
      <trkpt lat="37.28839" lon="-7.97766">
        <ele>494.0217</ele>
        <time>2021-07-12T10:57:47Z</time>
      </trkpt>
      <trkpt lat="37.28819" lon="-7.97659">
        <ele>500.929</ele>
        <time>2021-07-12T10:57:58Z</time>
      </trkpt>
      <trkpt lat="37.28759" lon="-7.97552">
        <ele>477.1827</ele>
        <time>2021-07-12T10:58:09Z</time>
      </trkpt>
      <trkpt lat="37.287" lon="-7.97469">
        <ele>476.7394</ele>
        <time>2021-07-12T10:58:20Z</time>
      </trkpt>
      <trkpt lat="37.28611" lon="-7.97399">
        <ele>490.5282</ele>
        <time>2021-07-12T10:58:31Z</time>
      </trkpt>
      <trkpt lat="37.28504" lon="-7.97361">
        <ele>498.2865</ele>
        <time>2021-07-12T10:58:42Z</time>
      </trkpt>
      <trkpt lat="37.28402" lon="-7.97374">
        <ele>496.1993</ele>
        <time>2021-07-12T10:58:53Z</time>
      </trkpt>
      <trkpt lat="37.28276" lon="-7.97308">
        <ele>490.5922</ele>
        <time>2021-07-12T10:59:04Z</time>
      </trkpt>
      <trkpt lat="37.28131" lon="-7.9731">
        <ele>481.9729</ele>
        <time>2021-07-12T10:59:15Z</time>
      </trkpt>
      <trkpt lat="37.28104" lon="-7.97162">
        <ele>478.1585</ele>
        <time>2021-07-12T10:59:26Z</time>
      </trkpt>
      <trkpt lat="37.28032" lon="-7.97083">
        <ele>472.8409</ele>
        <time>2021-07-12T10:59:37Z</time>
      </trkpt>
      <trkpt lat="37.27944" lon="-7.97051">
        <ele>476.9346</ele>
        <time>2021-07-12T10:59:48Z</time>
      </trkpt>
      <trkpt lat="37.2784" lon="-7.9701">
        <ele>466.0642</ele>
        <time>2021-07-12T10:59:59Z</time>
      </trkpt>
      <trkpt lat="37.27766" lon="-7.96963">
        <ele>458.6739</ele>
        <time>2021-07-12T11:00:10Z</time>
      </trkpt>
      <trkpt lat="37.27793" lon="-7.96818">
        <ele>459.3963</ele>
        <time>2021-07-12T11:00:21Z</time>
      </trkpt>
      <trkpt lat="37.2774" lon="-7.96708">
        <ele>459.9606</ele>
        <time>2021-07-12T11:00:32Z</time>
      </trkpt>
      <trkpt lat="37.27623" lon="-7.96598">
        <ele>459.7138</ele>
        <time>2021-07-12T11:00:43Z</time>
      </trkpt>
      <trkpt lat="37.27524" lon="-7.96502">
        <ele>465.9678</ele>
        <time>2021-07-12T11:00:54Z</time>
      </trkpt>
      <trkpt lat="37.27403" lon="-7.9639">
        <ele>467.4361</ele>
        <time>2021-07-12T11:01:05Z</time>
      </trkpt>
      <trkpt lat="37.27258" lon="-7.96334">
        <ele>476.8883</ele>
        <time>2021-07-12T11:01:16Z</time>
      </trkpt>
      <trkpt lat="37.27195" lon="-7.96366">
        <ele>480.815</ele>
        <time>2021-07-12T11:01:27Z</time>
      </trkpt>
      <trkpt lat="37.27191" lon="-7.96362">
        <ele>495.6227</ele>
        <time>2021-07-12T11:01:50Z</time>
      </trkpt>
      <trkpt lat="37.27202" lon="-7.96325">
        <ele>499.7133</ele>
        <time>2021-07-12T11:02:01Z</time>
      </trkpt>
      <trkpt lat="37.27205" lon="-7.96313">
        <ele>494.7271</ele>
        <time>2021-07-12T11:02:12Z</time>
      </trkpt>
      <trkpt lat="37.27209" lon="-7.96217">
        <ele>494.7989</ele>
        <time>2021-07-12T11:02:23Z</time>
      </trkpt>
      <trkpt lat="37.27173" lon="-7.96144">
        <ele>500.812</ele>
        <time>2021-07-12T11:02:34Z</time>
      </trkpt>
      <trkpt lat="37.27127" lon="-7.96076">
        <ele>500.1482</ele>
        <time>2021-07-12T11:02:45Z</time>
      </trkpt>
      <trkpt lat="37.27126" lon="-7.96071">
        <ele>503.3167</ele>
        <time>2021-07-12T11:03:01Z</time>
      </trkpt>
      <trkpt lat="37.27101" lon="-7.96049">
        <ele>509.9672</ele>
        <time>2021-07-12T11:03:12Z</time>
      </trkpt>
      <trkpt lat="37.27092" lon="-7.96027">
        <ele>505.8169</ele>
        <time>2021-07-12T11:03:23Z</time>
      </trkpt>
      <trkpt lat="37.27057" lon="-7.95998">
        <ele>501.6407</ele>
        <time>2021-07-12T11:03:34Z</time>
      </trkpt>
      <trkpt lat="37.27021" lon="-7.95958">
        <ele>502.4745</ele>
        <time>2021-07-12T11:03:45Z</time>
      </trkpt>
      <trkpt lat="37.2697" lon="-7.95905">
        <ele>505.9559</ele>
        <time>2021-07-12T11:03:56Z</time>
      </trkpt>
      <trkpt lat="37.26951" lon="-7.95888">
        <ele>506.6889</ele>
        <time>2021-07-12T11:04:07Z</time>
      </trkpt>
      <trkpt lat="37.26888" lon="-7.95808">
        <ele>503.7312</ele>
        <time>2021-07-12T11:04:18Z</time>
      </trkpt>
      <trkpt lat="37.26878" lon="-7.95691">
        <ele>504.4863</ele>
        <time>2021-07-12T11:04:29Z</time>
      </trkpt>
      <trkpt lat="37.26877" lon="-7.95587">
        <ele>503.5214</ele>
        <time>2021-07-12T11:04:40Z</time>
      </trkpt>
      <trkpt lat="37.26836" lon="-7.95555">
        <ele>501.6454</ele>
        <time>2021-07-12T11:04:51Z</time>
      </trkpt>
      <trkpt lat="37.26756" lon="-7.95527">
        <ele>498.5456</ele>
        <time>2021-07-12T11:05:02Z</time>
      </trkpt>
      <trkpt lat="37.26728" lon="-7.95395">
        <ele>499.6597</ele>
        <time>2021-07-12T11:05:13Z</time>
      </trkpt>
      <trkpt lat="37.2671" lon="-7.95214">
        <ele>500.8374</ele>
        <time>2021-07-12T11:05:24Z</time>
      </trkpt>
      <trkpt lat="37.26693" lon="-7.95069">
        <ele>496.5871</ele>
        <time>2021-07-12T11:05:35Z</time>
      </trkpt>
      <trkpt lat="37.26657" lon="-7.94944">
        <ele>485.8106</ele>
        <time>2021-07-12T11:05:46Z</time>
      </trkpt>
      <trkpt lat="37.26648" lon="-7.94811">
        <ele>494.197</ele>
        <time>2021-07-12T11:05:57Z</time>
      </trkpt>
      <trkpt lat="37.2668" lon="-7.94693">
        <ele>485.123</ele>
        <time>2021-07-12T11:06:09Z</time>
      </trkpt>
      <trkpt lat="37.26637" lon="-7.94605">
        <ele>482.2039</ele>
        <time>2021-07-12T11:06:20Z</time>
      </trkpt>
      <trkpt lat="37.26582" lon="-7.94532">
        <ele>485.136</ele>
        <time>2021-07-12T11:06:31Z</time>
      </trkpt>
      <trkpt lat="37.26548" lon="-7.94432">
        <ele>482.6679</ele>
        <time>2021-07-12T11:06:42Z</time>
      </trkpt>
      <trkpt lat="37.26587" lon="-7.94316">
        <ele>489.2448</ele>
        <time>2021-07-12T11:06:53Z</time>
      </trkpt>
      <trkpt lat="37.26624" lon="-7.94186">
        <ele>487.4969</ele>
        <time>2021-07-12T11:07:04Z</time>
      </trkpt>
      <trkpt lat="37.26617" lon="-7.94105">
        <ele>485.0971</ele>
        <time>2021-07-12T11:07:15Z</time>
      </trkpt>
      <trkpt lat="37.26528" lon="-7.94012">
        <ele>486.3806</ele>
        <time>2021-07-12T11:07:26Z</time>
      </trkpt>
      <trkpt lat="37.26462" lon="-7.93958">
        <ele>481.2118</ele>
        <time>2021-07-12T11:07:37Z</time>
      </trkpt>
      <trkpt lat="37.26374" lon="-7.93897">
        <ele>467.0446</ele>
        <time>2021-07-12T11:07:48Z</time>
      </trkpt>
      <trkpt lat="37.26294" lon="-7.93878">
        <ele>458.0005</ele>
        <time>2021-07-12T11:07:59Z</time>
      </trkpt>
      <trkpt lat="37.26179" lon="-7.93857">
        <ele>460.519</ele>
        <time>2021-07-12T11:08:10Z</time>
      </trkpt>
      <trkpt lat="37.26117" lon="-7.93852">
        <ele>449.9493</ele>
        <time>2021-07-12T11:08:21Z</time>
      </trkpt>
      <trkpt lat="37.26083" lon="-7.93841">
        <ele>442.2614</ele>
        <time>2021-07-12T11:08:32Z</time>
      </trkpt>
      <trkpt lat="37.26062" lon="-7.93837">
        <ele>432.5156</ele>
        <time>2021-07-12T11:08:43Z</time>
      </trkpt>
      <trkpt lat="37.26058" lon="-7.93838">
        <ele>434.9117</ele>
        <time>2021-07-12T11:09:00Z</time>
      </trkpt>
      <trkpt lat="37.26058" lon="-7.93838">
        <ele>435.4125</ele>
        <time>2021-07-12T11:09:59Z</time>
      </trkpt>
      <trkpt lat="37.26059" lon="-7.93833">
        <ele>434.5616</ele>
        <time>2021-07-12T11:10:30Z</time>
      </trkpt>
      <trkpt lat="37.26055" lon="-7.93834">
        <ele>432.1395</ele>
        <time>2021-07-12T11:10:43Z</time>
      </trkpt>
      <trkpt lat="37.26031" lon="-7.93821">
        <ele>427.1813</ele>
        <time>2021-07-12T11:10:54Z</time>
      </trkpt>
      <trkpt lat="37.25984" lon="-7.93793">
        <ele>419.8043</ele>
        <time>2021-07-12T11:11:05Z</time>
      </trkpt>
      <trkpt lat="37.25993" lon="-7.93775">
        <ele>420.3981</ele>
        <time>2021-07-12T11:11:16Z</time>
      </trkpt>
      <trkpt lat="37.25997" lon="-7.93769">
        <ele>419.9865</ele>
        <time>2021-07-12T11:12:02Z</time>
      </trkpt>
      <trkpt lat="37.26052" lon="-7.93671">
        <ele>415.612</ele>
        <time>2021-07-12T11:12:13Z</time>
      </trkpt>
      <trkpt lat="37.26108" lon="-7.93561">
        <ele>416.9659</ele>
        <time>2021-07-12T11:12:24Z</time>
      </trkpt>
      <trkpt lat="37.26171" lon="-7.93504">
        <ele>412.0733</ele>
        <time>2021-07-12T11:12:35Z</time>
      </trkpt>
      <trkpt lat="37.2615" lon="-7.93458">
        <ele>411.5983</ele>
        <time>2021-07-12T11:12:46Z</time>
      </trkpt>
      <trkpt lat="37.26091" lon="-7.9342">
        <ele>415.9453</ele>
        <time>2021-07-12T11:12:57Z</time>
      </trkpt>
      <trkpt lat="37.26086" lon="-7.933">
        <ele>411.0213</ele>
        <time>2021-07-12T11:13:08Z</time>
      </trkpt>
      <trkpt lat="37.26139" lon="-7.93223">
        <ele>416.6012</ele>
        <time>2021-07-12T11:13:19Z</time>
      </trkpt>
      <trkpt lat="37.26241" lon="-7.93298">
        <ele>416.5463</ele>
        <time>2021-07-12T11:13:30Z</time>
      </trkpt>
      <trkpt lat="37.26339" lon="-7.93274">
        <ele>412.9638</ele>
        <time>2021-07-12T11:13:41Z</time>
      </trkpt>
      <trkpt lat="37.26408" lon="-7.93211">
        <ele>413.7408</ele>
        <time>2021-07-12T11:13:52Z</time>
      </trkpt>
      <trkpt lat="37.26459" lon="-7.93101">
        <ele>412.7865</ele>
        <time>2021-07-12T11:14:03Z</time>
      </trkpt>
      <trkpt lat="37.26545" lon="-7.93057">
        <ele>418.3811</ele>
        <time>2021-07-12T11:14:14Z</time>
      </trkpt>
      <trkpt lat="37.26602" lon="-7.92973">
        <ele>424.3608</ele>
        <time>2021-07-12T11:14:25Z</time>
      </trkpt>
      <trkpt lat="37.2669" lon="-7.92863">
        <ele>438.4359</ele>
        <time>2021-07-12T11:14:36Z</time>
      </trkpt>
      <trkpt lat="37.26768" lon="-7.92828">
        <ele>450.9752</ele>
        <time>2021-07-12T11:14:47Z</time>
      </trkpt>
      <trkpt lat="37.26739" lon="-7.92735">
        <ele>462.5269</ele>
        <time>2021-07-12T11:14:58Z</time>
      </trkpt>
      <trkpt lat="37.26762" lon="-7.92671">
        <ele>469.7548</ele>
        <time>2021-07-12T11:15:09Z</time>
      </trkpt>
      <trkpt lat="37.26827" lon="-7.92605">
        <ele>481.8613</ele>
        <time>2021-07-12T11:15:20Z</time>
      </trkpt>
      <trkpt lat="37.26811" lon="-7.92505">
        <ele>487.3731</ele>
        <time>2021-07-12T11:15:31Z</time>
      </trkpt>
      <trkpt lat="37.26829" lon="-7.92403">
        <ele>489.1847</ele>
        <time>2021-07-12T11:15:42Z</time>
      </trkpt>
      <trkpt lat="37.26906" lon="-7.92371">
        <ele>500.52</ele>
        <time>2021-07-12T11:15:53Z</time>
      </trkpt>
      <trkpt lat="37.2701" lon="-7.92426">
        <ele>513.6504</ele>
        <time>2021-07-12T11:16:04Z</time>
      </trkpt>
      <trkpt lat="37.27056" lon="-7.92381">
        <ele>519.417</ele>
        <time>2021-07-12T11:16:15Z</time>
      </trkpt>
      <trkpt lat="37.27085" lon="-7.92248">
        <ele>528.9138</ele>
        <time>2021-07-12T11:16:26Z</time>
      </trkpt>
      <trkpt lat="37.27069" lon="-7.9207">
        <ele>527.9218</ele>
        <time>2021-07-12T11:16:37Z</time>
      </trkpt>
      <trkpt lat="37.27031" lon="-7.91893">
        <ele>513.2098</ele>
        <time>2021-07-12T11:16:48Z</time>
      </trkpt>
      <trkpt lat="37.26991" lon="-7.91682">
        <ele>509.6587</ele>
        <time>2021-07-12T11:16:59Z</time>
      </trkpt>
      <trkpt lat="37.26954" lon="-7.91504">
        <ele>506.8521</ele>
        <time>2021-07-12T11:17:10Z</time>
      </trkpt>
      <trkpt lat="37.26926" lon="-7.91315">
        <ele>498.4725</ele>
        <time>2021-07-12T11:17:21Z</time>
      </trkpt>
      <trkpt lat="37.26898" lon="-7.91235">
        <ele>493.3027</ele>
        <time>2021-07-12T11:17:32Z</time>
      </trkpt>
      <trkpt lat="37.26767" lon="-7.91163">
        <ele>485.6563</ele>
        <time>2021-07-12T11:17:43Z</time>
      </trkpt>
      <trkpt lat="37.26744" lon="-7.91065">
        <ele>483.0981</ele>
        <time>2021-07-12T11:17:54Z</time>
      </trkpt>
      <trkpt lat="37.26708" lon="-7.90985">
        <ele>488.7306</ele>
        <time>2021-07-12T11:18:05Z</time>
      </trkpt>
      <trkpt lat="37.26706" lon="-7.90867">
        <ele>494.5315</ele>
        <time>2021-07-12T11:18:16Z</time>
      </trkpt>
      <trkpt lat="37.2676" lon="-7.90778">
        <ele>483.1327</ele>
        <time>2021-07-12T11:18:27Z</time>
      </trkpt>
      <trkpt lat="37.26711" lon="-7.90739">
        <ele>479.1589</ele>
        <time>2021-07-12T11:18:39Z</time>
      </trkpt>
      <trkpt lat="37.26632" lon="-7.90679">
        <ele>486.8503</ele>
        <time>2021-07-12T11:18:50Z</time>
      </trkpt>
      <trkpt lat="37.26676" lon="-7.90632">
        <ele>481.7087</ele>
        <time>2021-07-12T11:19:01Z</time>
      </trkpt>
      <trkpt lat="37.26735" lon="-7.90596">
        <ele>486.9767</ele>
        <time>2021-07-12T11:19:12Z</time>
      </trkpt>
      <trkpt lat="37.26683" lon="-7.9049">
        <ele>481.8521</ele>
        <time>2021-07-12T11:19:23Z</time>
      </trkpt>
      <trkpt lat="37.26701" lon="-7.90407">
        <ele>448.9191</ele>
        <time>2021-07-12T11:19:34Z</time>
      </trkpt>
      <trkpt lat="37.26739" lon="-7.90348">
        <ele>433.0199</ele>
        <time>2021-07-12T11:19:45Z</time>
      </trkpt>
      <trkpt lat="37.26749" lon="-7.9024">
        <ele>469.686</ele>
        <time>2021-07-12T11:19:56Z</time>
      </trkpt>
      <trkpt lat="37.26686" lon="-7.90115">
        <ele>471.3923</ele>
        <time>2021-07-12T11:20:07Z</time>
      </trkpt>
      <trkpt lat="37.26704" lon="-7.89979">
        <ele>466.2524</ele>
        <time>2021-07-12T11:20:18Z</time>
      </trkpt>
      <trkpt lat="37.2669" lon="-7.89836">
        <ele>459.227</ele>
        <time>2021-07-12T11:20:29Z</time>
      </trkpt>
      <trkpt lat="37.2664" lon="-7.89699">
        <ele>442.0036</ele>
        <time>2021-07-12T11:20:40Z</time>
      </trkpt>
      <trkpt lat="37.26615" lon="-7.89573">
        <ele>428.5701</ele>
        <time>2021-07-12T11:20:51Z</time>
      </trkpt>
      <trkpt lat="37.26604" lon="-7.89485">
        <ele>424.7653</ele>
        <time>2021-07-12T11:21:02Z</time>
      </trkpt>
      <trkpt lat="37.26617" lon="-7.89462">
        <ele>439.9041</ele>
        <time>2021-07-12T11:21:13Z</time>
      </trkpt>
      <trkpt lat="37.26643" lon="-7.89414">
        <ele>439.5192</ele>
        <time>2021-07-12T11:21:24Z</time>
      </trkpt>
      <trkpt lat="37.26638" lon="-7.89329">
        <ele>429.5775</ele>
        <time>2021-07-12T11:21:35Z</time>
      </trkpt>
      <trkpt lat="37.26635" lon="-7.89255">
        <ele>408.2388</ele>
        <time>2021-07-12T11:21:46Z</time>
      </trkpt>
      <trkpt lat="37.26649" lon="-7.8921">
        <ele>403.0321</ele>
        <time>2021-07-12T11:21:57Z</time>
      </trkpt>
      <trkpt lat="37.2667" lon="-7.89238">
        <ele>405.1803</ele>
        <time>2021-07-12T11:22:08Z</time>
      </trkpt>
      <trkpt lat="37.26684" lon="-7.89179">
        <ele>391.1826</ele>
        <time>2021-07-12T11:22:19Z</time>
      </trkpt>
      <trkpt lat="37.26674" lon="-7.89134">
        <ele>379.5423</ele>
        <time>2021-07-12T11:22:30Z</time>
      </trkpt>
      <trkpt lat="37.26658" lon="-7.8911">
        <ele>371.8856</ele>
        <time>2021-07-12T11:22:41Z</time>
      </trkpt>
      <trkpt lat="37.26701" lon="-7.89093">
        <ele>368.4064</ele>
        <time>2021-07-12T11:22:52Z</time>
      </trkpt>
      <trkpt lat="37.26736" lon="-7.89134">
        <ele>371.2605</ele>
        <time>2021-07-12T11:23:03Z</time>
      </trkpt>
      <trkpt lat="37.26736" lon="-7.89135">
        <ele>368.8686</ele>
        <time>2021-07-12T11:24:03Z</time>
      </trkpt>
      <trkpt lat="37.26742" lon="-7.89141">
        <ele>369.0745</ele>
        <time>2021-07-12T11:24:50Z</time>
      </trkpt>
      <trkpt lat="37.26758" lon="-7.89211">
        <ele>361.5285</ele>
        <time>2021-07-12T11:25:01Z</time>
      </trkpt>
      <trkpt lat="37.26779" lon="-7.89204">
        <ele>360.1875</ele>
        <time>2021-07-12T11:25:12Z</time>
      </trkpt>
      <trkpt lat="37.26822" lon="-7.89144">
        <ele>361.6322</ele>
        <time>2021-07-12T11:25:23Z</time>
      </trkpt>
      <trkpt lat="37.26809" lon="-7.89069">
        <ele>359.4519</ele>
        <time>2021-07-12T11:25:34Z</time>
      </trkpt>
      <trkpt lat="37.26788" lon="-7.88967">
        <ele>358.4254</ele>
        <time>2021-07-12T11:25:45Z</time>
      </trkpt>
      <trkpt lat="37.26756" lon="-7.88866">
        <ele>356.2857</ele>
        <time>2021-07-12T11:25:56Z</time>
      </trkpt>
      <trkpt lat="37.26726" lon="-7.8877">
        <ele>354.4894</ele>
        <time>2021-07-12T11:26:07Z</time>
      </trkpt>
      <trkpt lat="37.267" lon="-7.88622">
        <ele>340.2873</ele>
        <time>2021-07-12T11:26:18Z</time>
      </trkpt>
      <trkpt lat="37.26628" lon="-7.88542">
        <ele>332.2245</ele>
        <time>2021-07-12T11:26:29Z</time>
      </trkpt>
      <trkpt lat="37.26517" lon="-7.88493">
        <ele>334.9037</ele>
        <time>2021-07-12T11:26:40Z</time>
      </trkpt>
      <trkpt lat="37.26448" lon="-7.88464">
        <ele>348.5366</ele>
        <time>2021-07-12T11:26:51Z</time>
      </trkpt>
      <trkpt lat="37.26474" lon="-7.88395">
        <ele>336.7547</ele>
        <time>2021-07-12T11:27:02Z</time>
      </trkpt>
      <trkpt lat="37.26489" lon="-7.88332">
        <ele>336.7584</ele>
        <time>2021-07-12T11:27:13Z</time>
      </trkpt>
      <trkpt lat="37.26499" lon="-7.88318">
        <ele>339.2304</ele>
        <time>2021-07-12T11:27:24Z</time>
      </trkpt>
      <trkpt lat="37.26469" lon="-7.8822">
        <ele>357.5556</ele>
        <time>2021-07-12T11:27:35Z</time>
      </trkpt>
      <trkpt lat="37.2645" lon="-7.88145">
        <ele>345.5793</ele>
        <time>2021-07-12T11:27:46Z</time>
      </trkpt>
      <trkpt lat="37.26504" lon="-7.88063">
        <ele>340.7979</ele>
        <time>2021-07-12T11:27:57Z</time>
      </trkpt>
      <trkpt lat="37.26487" lon="-7.87963">
        <ele>340.9586</ele>
        <time>2021-07-12T11:28:08Z</time>
      </trkpt>
      <trkpt lat="37.2644" lon="-7.87886">
        <ele>344.1889</ele>
        <time>2021-07-12T11:28:19Z</time>
      </trkpt>
      <trkpt lat="37.26418" lon="-7.87832">
        <ele>356.8166</ele>
        <time>2021-07-12T11:28:30Z</time>
      </trkpt>
      <trkpt lat="37.26411" lon="-7.87795">
        <ele>365.0179</ele>
        <time>2021-07-12T11:28:41Z</time>
      </trkpt>
      <trkpt lat="37.26412" lon="-7.87803">
        <ele>368.1261</ele>
        <time>2021-07-12T11:28:52Z</time>
      </trkpt>
      <trkpt lat="37.26428" lon="-7.87821">
        <ele>376.1143</ele>
        <time>2021-07-12T11:29:03Z</time>
      </trkpt>
      <trkpt lat="37.26437" lon="-7.87827">
        <ele>372.1865</ele>
        <time>2021-07-12T11:29:14Z</time>
      </trkpt>
      <trkpt lat="37.26446" lon="-7.87831">
        <ele>369.0622</ele>
        <time>2021-07-12T11:29:34Z</time>
      </trkpt>
      <trkpt lat="37.265" lon="-7.87887">
        <ele>369.3309</ele>
        <time>2021-07-12T11:29:45Z</time>
      </trkpt>
      <trkpt lat="37.26543" lon="-7.87946">
        <ele>376.9397</ele>
        <time>2021-07-12T11:29:56Z</time>
      </trkpt>
      <trkpt lat="37.26599" lon="-7.87902">
        <ele>390.8832</ele>
        <time>2021-07-12T11:30:07Z</time>
      </trkpt>
      <trkpt lat="37.26657" lon="-7.87918">
        <ele>395.5085</ele>
        <time>2021-07-12T11:30:18Z</time>
      </trkpt>
      <trkpt lat="37.26672" lon="-7.87911">
        <ele>402.2142</ele>
        <time>2021-07-12T11:30:29Z</time>
      </trkpt>
      <trkpt lat="37.26673" lon="-7.87911">
        <ele>401.6936</ele>
        <time>2021-07-12T11:31:29Z</time>
      </trkpt>
      <trkpt lat="37.26673" lon="-7.87911">
        <ele>401.6936</ele>
        <time>2021-07-12T11:32:29Z</time>
      </trkpt>
      <trkpt lat="37.26672" lon="-7.87913">
        <ele>400.3606</ele>
        <time>2021-07-12T11:33:29Z</time>
      </trkpt>
      <trkpt lat="37.26676" lon="-7.87908">
        <ele>398.4246</ele>
        <time>2021-07-12T11:33:45Z</time>
      </trkpt>
      <trkpt lat="37.26692" lon="-7.87878">
        <ele>398.8035</ele>
        <time>2021-07-12T11:33:56Z</time>
      </trkpt>
      <trkpt lat="37.26689" lon="-7.87883">
        <ele>398.9112</ele>
        <time>2021-07-12T11:34:07Z</time>
      </trkpt>
      <trkpt lat="37.26675" lon="-7.87908">
        <ele>399.6596</ele>
        <time>2021-07-12T11:34:18Z</time>
      </trkpt>
      <trkpt lat="37.26674" lon="-7.87904">
        <ele>401.5927</ele>
        <time>2021-07-12T11:34:38Z</time>
      </trkpt>
      <trkpt lat="37.26665" lon="-7.87874">
        <ele>410.5759</ele>
        <time>2021-07-12T11:34:49Z</time>
      </trkpt>
      <trkpt lat="37.26628" lon="-7.8781">
        <ele>424.4037</ele>
        <time>2021-07-12T11:35:00Z</time>
      </trkpt>
      <trkpt lat="37.26621" lon="-7.87737">
        <ele>428.6211</ele>
        <time>2021-07-12T11:35:11Z</time>
      </trkpt>
      <trkpt lat="37.26654" lon="-7.87678">
        <ele>424.6736</ele>
        <time>2021-07-12T11:35:22Z</time>
      </trkpt>
      <trkpt lat="37.26714" lon="-7.87676">
        <ele>435.1624</ele>
        <time>2021-07-12T11:35:33Z</time>
      </trkpt>
      <trkpt lat="37.26758" lon="-7.87736">
        <ele>450.1865</ele>
        <time>2021-07-12T11:35:44Z</time>
      </trkpt>
      <trkpt lat="37.26787" lon="-7.87738">
        <ele>453.361</ele>
        <time>2021-07-12T11:35:55Z</time>
      </trkpt>
      <trkpt lat="37.26816" lon="-7.87731">
        <ele>452.406</ele>
        <time>2021-07-12T11:36:06Z</time>
      </trkpt>
      <trkpt lat="37.26842" lon="-7.87678">
        <ele>458.1283</ele>
        <time>2021-07-12T11:36:17Z</time>
      </trkpt>
      <trkpt lat="37.26837" lon="-7.8758">
        <ele>470.483</ele>
        <time>2021-07-12T11:36:28Z</time>
      </trkpt>
      <trkpt lat="37.26869" lon="-7.87606">
        <ele>480.4299</ele>
        <time>2021-07-12T11:36:39Z</time>
      </trkpt>
      <trkpt lat="37.26912" lon="-7.87688">
        <ele>491.5151</ele>
        <time>2021-07-12T11:36:50Z</time>
      </trkpt>
      <trkpt lat="37.26916" lon="-7.87626">
        <ele>498.0076</ele>
        <time>2021-07-12T11:37:01Z</time>
      </trkpt>
      <trkpt lat="37.26953" lon="-7.87661">
        <ele>504.8425</ele>
        <time>2021-07-12T11:37:12Z</time>
      </trkpt>
      <trkpt lat="37.27021" lon="-7.87653">
        <ele>507.5849</ele>
        <time>2021-07-12T11:37:23Z</time>
      </trkpt>
      <trkpt lat="37.27032" lon="-7.87618">
        <ele>512.0518</ele>
        <time>2021-07-12T11:37:34Z</time>
      </trkpt>
      <trkpt lat="37.2701" lon="-7.87563">
        <ele>507.3423</ele>
        <time>2021-07-12T11:37:45Z</time>
      </trkpt>
      <trkpt lat="37.26999" lon="-7.87537">
        <ele>505.7445</ele>
        <time>2021-07-12T11:37:56Z</time>
      </trkpt>
      <trkpt lat="37.26972" lon="-7.87479">
        <ele>511.9021</ele>
        <time>2021-07-12T11:38:07Z</time>
      </trkpt>
      <trkpt lat="37.26948" lon="-7.87433">
        <ele>511.415</ele>
        <time>2021-07-12T11:38:18Z</time>
      </trkpt>
      <trkpt lat="37.26943" lon="-7.8744">
        <ele>518.4645</ele>
        <time>2021-07-12T11:38:43Z</time>
      </trkpt>
      <trkpt lat="37.26948" lon="-7.87434">
        <ele>507.9802</ele>
        <time>2021-07-12T11:38:54Z</time>
      </trkpt>
      <trkpt lat="37.26948" lon="-7.87428">
        <ele>507.9907</ele>
        <time>2021-07-12T11:39:35Z</time>
      </trkpt>
      <trkpt lat="37.26929" lon="-7.87341">
        <ele>505.307</ele>
        <time>2021-07-12T11:39:46Z</time>
      </trkpt>
      <trkpt lat="37.26867" lon="-7.8727">
        <ele>497.5881</ele>
        <time>2021-07-12T11:39:57Z</time>
      </trkpt>
      <trkpt lat="37.26809" lon="-7.8718">
        <ele>478.8752</ele>
        <time>2021-07-12T11:40:08Z</time>
      </trkpt>
      <trkpt lat="37.26682" lon="-7.87053">
        <ele>491.1484</ele>
        <time>2021-07-12T11:40:19Z</time>
      </trkpt>
      <trkpt lat="37.26619" lon="-7.87002">
        <ele>489.8781</ele>
        <time>2021-07-12T11:40:30Z</time>
      </trkpt>
      <trkpt lat="37.26531" lon="-7.86964">
        <ele>475.0751</ele>
        <time>2021-07-12T11:40:41Z</time>
      </trkpt>
      <trkpt lat="37.26457" lon="-7.86914">
        <ele>466.8156</ele>
        <time>2021-07-12T11:40:52Z</time>
      </trkpt>
      <trkpt lat="37.26422" lon="-7.86908">
        <ele>463.1518</ele>
        <time>2021-07-12T11:41:03Z</time>
      </trkpt>
      <trkpt lat="37.26359" lon="-7.86894">
        <ele>450.3058</ele>
        <time>2021-07-12T11:41:14Z</time>
      </trkpt>
      <trkpt lat="37.26317" lon="-7.86838">
        <ele>434.8459</ele>
        <time>2021-07-12T11:41:25Z</time>
      </trkpt>
      <trkpt lat="37.26262" lon="-7.8683">
        <ele>425.9496</ele>
        <time>2021-07-12T11:41:36Z</time>
      </trkpt>
      <trkpt lat="37.2618" lon="-7.86803">
        <ele>406.5315</ele>
        <time>2021-07-12T11:41:47Z</time>
      </trkpt>
      <trkpt lat="37.2608" lon="-7.86802">
        <ele>398.5396</ele>
        <time>2021-07-12T11:41:58Z</time>
      </trkpt>
      <trkpt lat="37.26041" lon="-7.86827">
        <ele>389.7773</ele>
        <time>2021-07-12T11:42:09Z</time>
      </trkpt>
      <trkpt lat="37.26015" lon="-7.86795">
        <ele>379.1351</ele>
        <time>2021-07-12T11:42:20Z</time>
      </trkpt>
      <trkpt lat="37.25962" lon="-7.86802">
        <ele>366.8299</ele>
        <time>2021-07-12T11:42:31Z</time>
      </trkpt>
      <trkpt lat="37.25909" lon="-7.86776">
        <ele>353.0593</ele>
        <time>2021-07-12T11:42:42Z</time>
      </trkpt>
      <trkpt lat="37.25837" lon="-7.86753">
        <ele>337.6812</ele>
        <time>2021-07-12T11:42:53Z</time>
      </trkpt>
      <trkpt lat="37.25761" lon="-7.86754">
        <ele>322.448</ele>
        <time>2021-07-12T11:43:04Z</time>
      </trkpt>
      <trkpt lat="37.25688" lon="-7.8674">
        <ele>317.6524</ele>
        <time>2021-07-12T11:43:15Z</time>
      </trkpt>
      <trkpt lat="37.25631" lon="-7.86678">
        <ele>320.2934</ele>
        <time>2021-07-12T11:43:26Z</time>
      </trkpt>
      <trkpt lat="37.25599" lon="-7.86554">
        <ele>333.1694</ele>
        <time>2021-07-12T11:43:37Z</time>
      </trkpt>
      <trkpt lat="37.25561" lon="-7.86475">
        <ele>344.145</ele>
        <time>2021-07-12T11:43:48Z</time>
      </trkpt>
      <trkpt lat="37.25529" lon="-7.86435">
        <ele>355.1995</ele>
        <time>2021-07-12T11:43:59Z</time>
      </trkpt>
      <trkpt lat="37.25579" lon="-7.86332">
        <ele>369.9013</ele>
        <time>2021-07-12T11:44:10Z</time>
      </trkpt>
      <trkpt lat="37.25592" lon="-7.86206">
        <ele>374.5963</ele>
        <time>2021-07-12T11:44:21Z</time>
      </trkpt>
      <trkpt lat="37.25532" lon="-7.86078">
        <ele>383.576</ele>
        <time>2021-07-12T11:44:32Z</time>
      </trkpt>
      <trkpt lat="37.25527" lon="-7.85927">
        <ele>396.68</ele>
        <time>2021-07-12T11:44:43Z</time>
      </trkpt>
      <trkpt lat="37.25502" lon="-7.85793">
        <ele>400.5111</ele>
        <time>2021-07-12T11:44:54Z</time>
      </trkpt>
      <trkpt lat="37.25409" lon="-7.85742">
        <ele>403.7494</ele>
        <time>2021-07-12T11:45:05Z</time>
      </trkpt>
      <trkpt lat="37.25287" lon="-7.85777">
        <ele>407.9747</ele>
        <time>2021-07-12T11:45:16Z</time>
      </trkpt>
      <trkpt lat="37.25185" lon="-7.85712">
        <ele>427.8519</ele>
        <time>2021-07-12T11:45:27Z</time>
      </trkpt>
      <trkpt lat="37.25096" lon="-7.85648">
        <ele>433.026</ele>
        <time>2021-07-12T11:45:38Z</time>
      </trkpt>
      <trkpt lat="37.24973" lon="-7.85621">
        <ele>446.3459</ele>
        <time>2021-07-12T11:45:49Z</time>
      </trkpt>
      <trkpt lat="37.24894" lon="-7.85521">
        <ele>465.1984</ele>
        <time>2021-07-12T11:46:00Z</time>
      </trkpt>
      <trkpt lat="37.24854" lon="-7.8545">
        <ele>469.4007</ele>
        <time>2021-07-12T11:46:11Z</time>
      </trkpt>
      <trkpt lat="37.24862" lon="-7.85351">
        <ele>469.4839</ele>
        <time>2021-07-12T11:46:22Z</time>
      </trkpt>
      <trkpt lat="37.24803" lon="-7.853">
        <ele>465.5768</ele>
        <time>2021-07-12T11:46:33Z</time>
      </trkpt>
      <trkpt lat="37.24785" lon="-7.85246">
        <ele>464.8533</ele>
        <time>2021-07-12T11:46:44Z</time>
      </trkpt>
      <trkpt lat="37.24814" lon="-7.85101">
        <ele>461.1898</ele>
        <time>2021-07-12T11:46:55Z</time>
      </trkpt>
      <trkpt lat="37.24796" lon="-7.84905">
        <ele>453.7372</ele>
        <time>2021-07-12T11:47:06Z</time>
      </trkpt>
      <trkpt lat="37.24766" lon="-7.84833">
        <ele>455.1253</ele>
        <time>2021-07-12T11:47:17Z</time>
      </trkpt>
      <trkpt lat="37.2471" lon="-7.84753">
        <ele>463.1852</ele>
        <time>2021-07-12T11:47:28Z</time>
      </trkpt>
      <trkpt lat="37.24639" lon="-7.84704">
        <ele>470.0391</ele>
        <time>2021-07-12T11:47:39Z</time>
      </trkpt>
      <trkpt lat="37.2456" lon="-7.8465">
        <ele>460.0473</ele>
        <time>2021-07-12T11:47:50Z</time>
      </trkpt>
      <trkpt lat="37.2451" lon="-7.84734">
        <ele>462.0131</ele>
        <time>2021-07-12T11:48:01Z</time>
      </trkpt>
      <trkpt lat="37.24532" lon="-7.84831">
        <ele>453.4042</ele>
        <time>2021-07-12T11:48:12Z</time>
      </trkpt>
      <trkpt lat="37.24442" lon="-7.84886">
        <ele>450.0643</ele>
        <time>2021-07-12T11:48:23Z</time>
      </trkpt>
      <trkpt lat="37.24357" lon="-7.84814">
        <ele>446.9582</ele>
        <time>2021-07-12T11:48:34Z</time>
      </trkpt>
      <trkpt lat="37.24264" lon="-7.84766">
        <ele>449.3091</ele>
        <time>2021-07-12T11:48:45Z</time>
      </trkpt>
      <trkpt lat="37.24171" lon="-7.84775">
        <ele>437.9529</ele>
        <time>2021-07-12T11:48:56Z</time>
      </trkpt>
      <trkpt lat="37.24103" lon="-7.8474">
        <ele>428.009</ele>
        <time>2021-07-12T11:49:07Z</time>
      </trkpt>
      <trkpt lat="37.24039" lon="-7.84664">
        <ele>414.3378</ele>
        <time>2021-07-12T11:49:18Z</time>
      </trkpt>
      <trkpt lat="37.23982" lon="-7.84592">
        <ele>399.1501</ele>
        <time>2021-07-12T11:49:29Z</time>
      </trkpt>
      <trkpt lat="37.23933" lon="-7.84522">
        <ele>390.0683</ele>
        <time>2021-07-12T11:49:40Z</time>
      </trkpt>
      <trkpt lat="37.23933" lon="-7.84462">
        <ele>378.5334</ele>
        <time>2021-07-12T11:49:51Z</time>
      </trkpt>
      <trkpt lat="37.239" lon="-7.84421">
        <ele>365.7323</ele>
        <time>2021-07-12T11:50:02Z</time>
      </trkpt>
      <trkpt lat="37.23834" lon="-7.84442">
        <ele>358.6326</ele>
        <time>2021-07-12T11:50:13Z</time>
      </trkpt>
      <trkpt lat="37.23802" lon="-7.84462">
        <ele>351.2773</ele>
        <time>2021-07-12T11:50:24Z</time>
      </trkpt>
      <trkpt lat="37.23815" lon="-7.84369">
        <ele>337.3054</ele>
        <time>2021-07-12T11:50:35Z</time>
      </trkpt>
      <trkpt lat="37.23786" lon="-7.84322">
        <ele>335.5881</ele>
        <time>2021-07-12T11:50:46Z</time>
      </trkpt>
      <trkpt lat="37.23689" lon="-7.84327">
        <ele>343.715</ele>
        <time>2021-07-12T11:50:57Z</time>
      </trkpt>
      <trkpt lat="37.23582" lon="-7.8426">
        <ele>359.1724</ele>
        <time>2021-07-12T11:51:08Z</time>
      </trkpt>
      <trkpt lat="37.23511" lon="-7.843">
        <ele>369.2923</ele>
        <time>2021-07-12T11:51:19Z</time>
      </trkpt>
      <trkpt lat="37.23465" lon="-7.84422">
        <ele>380.0072</ele>
        <time>2021-07-12T11:51:30Z</time>
      </trkpt>
      <trkpt lat="37.23391" lon="-7.84376">
        <ele>378.0407</ele>
        <time>2021-07-12T11:51:41Z</time>
      </trkpt>
      <trkpt lat="37.23323" lon="-7.843">
        <ele>372.9078</ele>
        <time>2021-07-12T11:51:52Z</time>
      </trkpt>
      <trkpt lat="37.23257" lon="-7.84354">
        <ele>365.5577</ele>
        <time>2021-07-12T11:52:03Z</time>
      </trkpt>
      <trkpt lat="37.23238" lon="-7.8446">
        <ele>363.2911</ele>
        <time>2021-07-12T11:52:14Z</time>
      </trkpt>
      <trkpt lat="37.23213" lon="-7.84546">
        <ele>353.5476</ele>
        <time>2021-07-12T11:52:25Z</time>
      </trkpt>
      <trkpt lat="37.23189" lon="-7.8465">
        <ele>355.6097</ele>
        <time>2021-07-12T11:52:36Z</time>
      </trkpt>
      <trkpt lat="37.23156" lon="-7.84657">
        <ele>358.4841</ele>
        <time>2021-07-12T11:52:47Z</time>
      </trkpt>
      <trkpt lat="37.23118" lon="-7.84554">
        <ele>361.3161</ele>
        <time>2021-07-12T11:52:58Z</time>
      </trkpt>
      <trkpt lat="37.23043" lon="-7.84504">
        <ele>371.7033</ele>
        <time>2021-07-12T11:53:09Z</time>
      </trkpt>
      <trkpt lat="37.22949" lon="-7.84475">
        <ele>370.673</ele>
        <time>2021-07-12T11:53:20Z</time>
      </trkpt>
      <trkpt lat="37.22938" lon="-7.84471">
        <ele>366.2201</ele>
        <time>2021-07-12T11:53:31Z</time>
      </trkpt>
      <trkpt lat="37.22934" lon="-7.84474">
        <ele>365.4205</ele>
        <time>2021-07-12T11:54:21Z</time>
      </trkpt>
      <trkpt lat="37.22902" lon="-7.84529">
        <ele>368.7259</ele>
        <time>2021-07-12T11:54:32Z</time>
      </trkpt>
      <trkpt lat="37.2285" lon="-7.84583">
        <ele>371.6112</ele>
        <time>2021-07-12T11:54:43Z</time>
      </trkpt>
      <trkpt lat="37.2281" lon="-7.84552">
        <ele>362.8915</ele>
        <time>2021-07-12T11:54:54Z</time>
      </trkpt>
      <trkpt lat="37.22769" lon="-7.8445">
        <ele>350.9882</ele>
        <time>2021-07-12T11:55:05Z</time>
      </trkpt>
      <trkpt lat="37.2269" lon="-7.84382">
        <ele>341.6961</ele>
        <time>2021-07-12T11:55:16Z</time>
      </trkpt>
      <trkpt lat="37.22705" lon="-7.84356">
        <ele>334.706</ele>
        <time>2021-07-12T11:55:27Z</time>
      </trkpt>
      <trkpt lat="37.22721" lon="-7.84307">
        <ele>325.8641</ele>
        <time>2021-07-12T11:55:38Z</time>
      </trkpt>
      <trkpt lat="37.22651" lon="-7.84239">
        <ele>313.9431</ele>
        <time>2021-07-12T11:55:49Z</time>
      </trkpt>
      <trkpt lat="37.22646" lon="-7.8412">
        <ele>310.6007</ele>
        <time>2021-07-12T11:56:00Z</time>
      </trkpt>
      <trkpt lat="37.22586" lon="-7.84076">
        <ele>317.0496</ele>
        <time>2021-07-12T11:56:11Z</time>
      </trkpt>
      <trkpt lat="37.22513" lon="-7.83986">
        <ele>319.9505</ele>
        <time>2021-07-12T11:56:22Z</time>
      </trkpt>
      <trkpt lat="37.22451" lon="-7.83917">
        <ele>312.7603</ele>
        <time>2021-07-12T11:56:33Z</time>
      </trkpt>
      <trkpt lat="37.22397" lon="-7.83828">
        <ele>311.772</ele>
        <time>2021-07-12T11:56:44Z</time>
      </trkpt>
      <trkpt lat="37.22351" lon="-7.83681">
        <ele>309.3028</ele>
        <time>2021-07-12T11:56:55Z</time>
      </trkpt>
      <trkpt lat="37.22375" lon="-7.83509">
        <ele>306.2129</ele>
        <time>2021-07-12T11:57:06Z</time>
      </trkpt>
      <trkpt lat="37.2237" lon="-7.83429">
        <ele>307.6091</ele>
        <time>2021-07-12T11:57:17Z</time>
      </trkpt>
      <trkpt lat="37.22282" lon="-7.83398">
        <ele>321.1964</ele>
        <time>2021-07-12T11:57:28Z</time>
      </trkpt>
      <trkpt lat="37.22212" lon="-7.83343">
        <ele>335.0323</ele>
        <time>2021-07-12T11:57:39Z</time>
      </trkpt>
      <trkpt lat="37.22174" lon="-7.8332">
        <ele>339.7125</ele>
        <time>2021-07-12T11:57:50Z</time>
      </trkpt>
      <trkpt lat="37.22159" lon="-7.83226">
        <ele>321.8978</ele>
        <time>2021-07-12T11:58:01Z</time>
      </trkpt>
      <trkpt lat="37.22151" lon="-7.83123">
        <ele>310.2171</ele>
        <time>2021-07-12T11:58:12Z</time>
      </trkpt>
      <trkpt lat="37.22073" lon="-7.83016">
        <ele>321.8196</ele>
        <time>2021-07-12T11:58:23Z</time>
      </trkpt>
      <trkpt lat="37.22032" lon="-7.83031">
        <ele>307.1652</ele>
        <time>2021-07-12T11:58:34Z</time>
      </trkpt>
      <trkpt lat="37.21951" lon="-7.82962">
        <ele>338.4643</ele>
        <time>2021-07-12T11:58:45Z</time>
      </trkpt>
      <trkpt lat="37.21899" lon="-7.82923">
        <ele>341.763</ele>
        <time>2021-07-12T11:58:56Z</time>
      </trkpt>
      <trkpt lat="37.21821" lon="-7.82871">
        <ele>356.7219</ele>
        <time>2021-07-12T11:59:07Z</time>
      </trkpt>
      <trkpt lat="37.21788" lon="-7.82856">
        <ele>366.4488</ele>
        <time>2021-07-12T11:59:18Z</time>
      </trkpt>
      <trkpt lat="37.21811" lon="-7.82925">
        <ele>367.3785</ele>
        <time>2021-07-12T11:59:29Z</time>
      </trkpt>
      <trkpt lat="37.21745" lon="-7.82931">
        <ele>374.3309</ele>
        <time>2021-07-12T11:59:40Z</time>
      </trkpt>
      <trkpt lat="37.21722" lon="-7.82991">
        <ele>372.1146</ele>
        <time>2021-07-12T11:59:51Z</time>
      </trkpt>
      <trkpt lat="37.21622" lon="-7.82963">
        <ele>373.3456</ele>
        <time>2021-07-12T12:00:02Z</time>
      </trkpt>
      <trkpt lat="37.2157" lon="-7.83039">
        <ele>379.3839</ele>
        <time>2021-07-12T12:00:13Z</time>
      </trkpt>
      <trkpt lat="37.21514" lon="-7.83119">
        <ele>399.4612</ele>
        <time>2021-07-12T12:00:24Z</time>
      </trkpt>
      <trkpt lat="37.21465" lon="-7.83187">
        <ele>415.0884</ele>
        <time>2021-07-12T12:00:35Z</time>
      </trkpt>
      <trkpt lat="37.21441" lon="-7.83294">
        <ele>427.952</ele>
        <time>2021-07-12T12:00:46Z</time>
      </trkpt>
      <trkpt lat="37.21423" lon="-7.83357">
        <ele>434.8106</ele>
        <time>2021-07-12T12:00:57Z</time>
      </trkpt>
      <trkpt lat="37.21386" lon="-7.83399">
        <ele>444.5009</ele>
        <time>2021-07-12T12:01:08Z</time>
      </trkpt>
      <trkpt lat="37.21375" lon="-7.8348">
        <ele>451.9881</ele>
        <time>2021-07-12T12:01:19Z</time>
      </trkpt>
      <trkpt lat="37.21315" lon="-7.83424">
        <ele>462.6916</ele>
        <time>2021-07-12T12:01:30Z</time>
      </trkpt>
      <trkpt lat="37.2123" lon="-7.83452">
        <ele>467.6339</ele>
        <time>2021-07-12T12:01:41Z</time>
      </trkpt>
      <trkpt lat="37.21157" lon="-7.83497">
        <ele>470.0057</ele>
        <time>2021-07-12T12:01:52Z</time>
      </trkpt>
      <trkpt lat="37.21166" lon="-7.83622">
        <ele>468.1421</ele>
        <time>2021-07-12T12:02:03Z</time>
      </trkpt>
      <trkpt lat="37.21111" lon="-7.83731">
        <ele>463.2842</ele>
        <time>2021-07-12T12:02:14Z</time>
      </trkpt>
      <trkpt lat="37.21054" lon="-7.83843">
        <ele>458.8458</ele>
        <time>2021-07-12T12:02:25Z</time>
      </trkpt>
      <trkpt lat="37.20989" lon="-7.83923">
        <ele>457.629</ele>
        <time>2021-07-12T12:02:36Z</time>
      </trkpt>
      <trkpt lat="37.2102" lon="-7.8407">
        <ele>461.8767</ele>
        <time>2021-07-12T12:02:47Z</time>
      </trkpt>
      <trkpt lat="37.20969" lon="-7.84211">
        <ele>475.6101</ele>
        <time>2021-07-12T12:02:58Z</time>
      </trkpt>
      <trkpt lat="37.20945" lon="-7.8434">
        <ele>468.7811</ele>
        <time>2021-07-12T12:03:09Z</time>
      </trkpt>
      <trkpt lat="37.20891" lon="-7.84421">
        <ele>445.5168</ele>
        <time>2021-07-12T12:03:20Z</time>
      </trkpt>
      <trkpt lat="37.20791" lon="-7.84447">
        <ele>419.3569</ele>
        <time>2021-07-12T12:03:31Z</time>
      </trkpt>
      <trkpt lat="37.20728" lon="-7.84604">
        <ele>409.6653</ele>
        <time>2021-07-12T12:03:42Z</time>
      </trkpt>
      <trkpt lat="37.20681" lon="-7.84763">
        <ele>432.55</ele>
        <time>2021-07-12T12:03:53Z</time>
      </trkpt>
      <trkpt lat="37.20584" lon="-7.84756">
        <ele>425.7239</ele>
        <time>2021-07-12T12:04:04Z</time>
      </trkpt>
      <trkpt lat="37.20486" lon="-7.84787">
        <ele>407.9251</ele>
        <time>2021-07-12T12:04:15Z</time>
      </trkpt>
      <trkpt lat="37.20432" lon="-7.84884">
        <ele>398.6861</ele>
        <time>2021-07-12T12:04:26Z</time>
      </trkpt>
      <trkpt lat="37.2036" lon="-7.84989">
        <ele>404.4887</ele>
        <time>2021-07-12T12:04:37Z</time>
      </trkpt>
      <trkpt lat="37.20266" lon="-7.85117">
        <ele>405.3821</ele>
        <time>2021-07-12T12:04:48Z</time>
      </trkpt>
      <trkpt lat="37.2023" lon="-7.85162">
        <ele>408.5079</ele>
        <time>2021-07-12T12:04:59Z</time>
      </trkpt>
      <trkpt lat="37.2026" lon="-7.85075">
        <ele>413.8397</ele>
        <time>2021-07-12T12:05:10Z</time>
      </trkpt>
      <trkpt lat="37.20245" lon="-7.85013">
        <ele>421.3396</ele>
        <time>2021-07-12T12:05:21Z</time>
      </trkpt>
      <trkpt lat="37.20175" lon="-7.84962">
        <ele>440.1706</ele>
        <time>2021-07-12T12:05:32Z</time>
      </trkpt>
      <trkpt lat="37.20119" lon="-7.84912">
        <ele>447.8577</ele>
        <time>2021-07-12T12:05:43Z</time>
      </trkpt>
      <trkpt lat="37.20028" lon="-7.84899">
        <ele>451.0184</ele>
        <time>2021-07-12T12:05:54Z</time>
      </trkpt>
      <trkpt lat="37.19981" lon="-7.84825">
        <ele>453.923</ele>
        <time>2021-07-12T12:06:05Z</time>
      </trkpt>
      <trkpt lat="37.19873" lon="-7.8478">
        <ele>452.0449</ele>
        <time>2021-07-12T12:06:16Z</time>
      </trkpt>
      <trkpt lat="37.19859" lon="-7.84753">
        <ele>454.0905</ele>
        <time>2021-07-12T12:06:27Z</time>
      </trkpt>
      <trkpt lat="37.19858" lon="-7.84747">
        <ele>454.7847</ele>
        <time>2021-07-12T12:06:38Z</time>
      </trkpt>
      <trkpt lat="37.19861" lon="-7.84751">
        <ele>455.0656</ele>
        <time>2021-07-12T12:07:01Z</time>
      </trkpt>
      <trkpt lat="37.19857" lon="-7.84753">
        <ele>455.0267</ele>
        <time>2021-07-12T12:07:13Z</time>
      </trkpt>
      <trkpt lat="37.19853" lon="-7.84748">
        <ele>453.7001</ele>
        <time>2021-07-12T12:07:24Z</time>
      </trkpt>
      <trkpt lat="37.19856" lon="-7.8475">
        <ele>452.16</ele>
        <time>2021-07-12T12:07:57Z</time>
      </trkpt>
      <trkpt lat="37.1986" lon="-7.84748">
        <ele>455.1861</ele>
        <time>2021-07-12T12:08:09Z</time>
      </trkpt>
      <trkpt lat="37.19861" lon="-7.84747">
        <ele>454.4598</ele>
        <time>2021-07-12T12:08:36Z</time>
      </trkpt>
      <trkpt lat="37.19858" lon="-7.8475">
        <ele>455.5238</ele>
        <time>2021-07-12T12:08:47Z</time>
      </trkpt>
      <trkpt lat="37.1986" lon="-7.84746">
        <ele>454.4234</ele>
        <time>2021-07-12T12:09:19Z</time>
      </trkpt>
      <trkpt lat="37.19865" lon="-7.8474">
        <ele>455.2306</ele>
        <time>2021-07-12T12:09:44Z</time>
      </trkpt>
      <trkpt lat="37.19853" lon="-7.84662">
        <ele>452.8284</ele>
        <time>2021-07-12T12:09:55Z</time>
      </trkpt>
      <trkpt lat="37.19878" lon="-7.84566">
        <ele>453.0567</ele>
        <time>2021-07-12T12:10:06Z</time>
      </trkpt>
      <trkpt lat="37.19893" lon="-7.84472">
        <ele>442.381</ele>
        <time>2021-07-12T12:10:17Z</time>
      </trkpt>
      <trkpt lat="37.19982" lon="-7.84403">
        <ele>438.376</ele>
        <time>2021-07-12T12:10:28Z</time>
      </trkpt>
      <trkpt lat="37.19991" lon="-7.84303">
        <ele>443.2746</ele>
        <time>2021-07-12T12:10:39Z</time>
      </trkpt>
      <trkpt lat="37.19989" lon="-7.84216">
        <ele>427.7319</ele>
        <time>2021-07-12T12:10:50Z</time>
      </trkpt>
      <trkpt lat="37.19976" lon="-7.84131">
        <ele>425.2552</ele>
        <time>2021-07-12T12:11:01Z</time>
      </trkpt>
      <trkpt lat="37.19944" lon="-7.84021">
        <ele>438.5494</ele>
        <time>2021-07-12T12:11:12Z</time>
      </trkpt>
      <trkpt lat="37.19998" lon="-7.83916">
        <ele>447.5321</ele>
        <time>2021-07-12T12:11:23Z</time>
      </trkpt>
      <trkpt lat="37.20037" lon="-7.83792">
        <ele>462.4715</ele>
        <time>2021-07-12T12:11:34Z</time>
      </trkpt>
      <trkpt lat="37.20008" lon="-7.83667">
        <ele>446.5756</ele>
        <time>2021-07-12T12:11:45Z</time>
      </trkpt>
      <trkpt lat="37.20042" lon="-7.83541">
        <ele>448.2746</ele>
        <time>2021-07-12T12:11:56Z</time>
      </trkpt>
      <trkpt lat="37.20086" lon="-7.83439">
        <ele>448.6483</ele>
        <time>2021-07-12T12:12:07Z</time>
      </trkpt>
      <trkpt lat="37.20146" lon="-7.83364">
        <ele>460.4832</ele>
        <time>2021-07-12T12:12:18Z</time>
      </trkpt>
      <trkpt lat="37.20146" lon="-7.83219">
        <ele>453.2958</ele>
        <time>2021-07-12T12:12:29Z</time>
      </trkpt>
      <trkpt lat="37.20152" lon="-7.83097">
        <ele>446.9242</ele>
        <time>2021-07-12T12:12:40Z</time>
      </trkpt>
      <trkpt lat="37.20137" lon="-7.8296">
        <ele>442.9228</ele>
        <time>2021-07-12T12:12:51Z</time>
      </trkpt>
      <trkpt lat="37.20113" lon="-7.82846">
        <ele>456.3538</ele>
        <time>2021-07-12T12:13:02Z</time>
      </trkpt>
      <trkpt lat="37.20167" lon="-7.82801">
        <ele>461.8144</ele>
        <time>2021-07-12T12:13:13Z</time>
      </trkpt>
      <trkpt lat="37.20186" lon="-7.82758">
        <ele>470.1833</ele>
        <time>2021-07-12T12:13:24Z</time>
      </trkpt>
      <trkpt lat="37.20273" lon="-7.82799">
        <ele>482.5268</ele>
        <time>2021-07-12T12:13:35Z</time>
      </trkpt>
      <trkpt lat="37.20296" lon="-7.827">
        <ele>473.6544</ele>
        <time>2021-07-12T12:13:46Z</time>
      </trkpt>
      <trkpt lat="37.20337" lon="-7.82591">
        <ele>487.0153</ele>
        <time>2021-07-12T12:13:57Z</time>
      </trkpt>
      <trkpt lat="37.20386" lon="-7.82516">
        <ele>480.8469</ele>
        <time>2021-07-12T12:14:08Z</time>
      </trkpt>
      <trkpt lat="37.20431" lon="-7.82458">
        <ele>474.5741</ele>
        <time>2021-07-12T12:14:19Z</time>
      </trkpt>
      <trkpt lat="37.20444" lon="-7.82358">
        <ele>470.9044</ele>
        <time>2021-07-12T12:14:30Z</time>
      </trkpt>
      <trkpt lat="37.20405" lon="-7.82253">
        <ele>468.1348</ele>
        <time>2021-07-12T12:14:41Z</time>
      </trkpt>
      <trkpt lat="37.20373" lon="-7.82139">
        <ele>455.1168</ele>
        <time>2021-07-12T12:14:52Z</time>
      </trkpt>
      <trkpt lat="37.20395" lon="-7.82043">
        <ele>461.9209</ele>
        <time>2021-07-12T12:15:03Z</time>
      </trkpt>
      <trkpt lat="37.20441" lon="-7.81974">
        <ele>478.6595</ele>
        <time>2021-07-12T12:15:14Z</time>
      </trkpt>
      <trkpt lat="37.20455" lon="-7.8186">
        <ele>500.3327</ele>
        <time>2021-07-12T12:15:25Z</time>
      </trkpt>
      <trkpt lat="37.20465" lon="-7.81838">
        <ele>500.9112</ele>
        <time>2021-07-12T12:15:36Z</time>
      </trkpt>
      <trkpt lat="37.20465" lon="-7.81833">
        <ele>501.1229</ele>
        <time>2021-07-12T12:15:49Z</time>
      </trkpt>
      <trkpt lat="37.2042" lon="-7.81779">
        <ele>494.0083</ele>
        <time>2021-07-12T12:16:00Z</time>
      </trkpt>
      <trkpt lat="37.20385" lon="-7.81676">
        <ele>480.099</ele>
        <time>2021-07-12T12:16:11Z</time>
      </trkpt>
      <trkpt lat="37.20362" lon="-7.81564">
        <ele>475.6838</ele>
        <time>2021-07-12T12:16:22Z</time>
      </trkpt>
      <trkpt lat="37.20367" lon="-7.81506">
        <ele>470.156</ele>
        <time>2021-07-12T12:16:33Z</time>
      </trkpt>
      <trkpt lat="37.20337" lon="-7.81522">
        <ele>465.0577</ele>
        <time>2021-07-12T12:16:44Z</time>
      </trkpt>
      <trkpt lat="37.20287" lon="-7.81544">
        <ele>460.7189</ele>
        <time>2021-07-12T12:16:55Z</time>
      </trkpt>
      <trkpt lat="37.2022" lon="-7.81513">
        <ele>451.1425</ele>
        <time>2021-07-12T12:17:06Z</time>
      </trkpt>
      <trkpt lat="37.20195" lon="-7.81552">
        <ele>442.7619</ele>
        <time>2021-07-12T12:17:17Z</time>
      </trkpt>
      <trkpt lat="37.20177" lon="-7.8162">
        <ele>439.922</ele>
        <time>2021-07-12T12:17:28Z</time>
      </trkpt>
      <trkpt lat="37.20143" lon="-7.81718">
        <ele>425.8235</ele>
        <time>2021-07-12T12:17:39Z</time>
      </trkpt>
      <trkpt lat="37.20117" lon="-7.81778">
        <ele>412.3137</ele>
        <time>2021-07-12T12:17:50Z</time>
      </trkpt>
      <trkpt lat="37.20078" lon="-7.81809">
        <ele>399.7415</ele>
        <time>2021-07-12T12:18:01Z</time>
      </trkpt>
      <trkpt lat="37.20028" lon="-7.81836">
        <ele>386.7115</ele>
        <time>2021-07-12T12:18:12Z</time>
      </trkpt>
      <trkpt lat="37.19994" lon="-7.81827">
        <ele>378.9945</ele>
        <time>2021-07-12T12:18:23Z</time>
      </trkpt>
      <trkpt lat="37.19992" lon="-7.81828">
        <ele>378.1695</ele>
        <time>2021-07-12T12:19:22Z</time>
      </trkpt>
      <trkpt lat="37.19976" lon="-7.81846">
        <ele>372.0153</ele>
        <time>2021-07-12T12:19:33Z</time>
      </trkpt>
      <trkpt lat="37.19971" lon="-7.81819">
        <ele>368.3802</ele>
        <time>2021-07-12T12:19:44Z</time>
      </trkpt>
      <trkpt lat="37.19993" lon="-7.81782">
        <ele>366.4009</ele>
        <time>2021-07-12T12:19:55Z</time>
      </trkpt>
      <trkpt lat="37.19997" lon="-7.81765">
        <ele>363.6406</ele>
        <time>2021-07-12T12:20:06Z</time>
      </trkpt>
      <trkpt lat="37.20024" lon="-7.81722">
        <ele>358.6157</ele>
        <time>2021-07-12T12:20:17Z</time>
      </trkpt>
      <trkpt lat="37.20047" lon="-7.81644">
        <ele>366.2075</ele>
        <time>2021-07-12T12:20:28Z</time>
      </trkpt>
      <trkpt lat="37.20003" lon="-7.81666">
        <ele>362.7707</ele>
        <time>2021-07-12T12:20:39Z</time>
      </trkpt>
      <trkpt lat="37.19941" lon="-7.81657">
        <ele>336.7685</ele>
        <time>2021-07-12T12:20:50Z</time>
      </trkpt>
      <trkpt lat="37.19896" lon="-7.81604">
        <ele>338.0907</ele>
        <time>2021-07-12T12:21:01Z</time>
      </trkpt>
      <trkpt lat="37.19856" lon="-7.81642">
        <ele>335.3259</ele>
        <time>2021-07-12T12:21:12Z</time>
      </trkpt>
      <trkpt lat="37.1976" lon="-7.81616">
        <ele>336.9559</ele>
        <time>2021-07-12T12:21:23Z</time>
      </trkpt>
      <trkpt lat="37.1976" lon="-7.81524">
        <ele>348.6933</ele>
        <time>2021-07-12T12:21:34Z</time>
      </trkpt>
      <trkpt lat="37.19747" lon="-7.81462">
        <ele>357.0536</ele>
        <time>2021-07-12T12:21:45Z</time>
      </trkpt>
      <trkpt lat="37.19833" lon="-7.81435">
        <ele>375.0663</ele>
        <time>2021-07-12T12:21:56Z</time>
      </trkpt>
      <trkpt lat="37.19861" lon="-7.81359">
        <ele>384.4153</ele>
        <time>2021-07-12T12:22:07Z</time>
      </trkpt>
      <trkpt lat="37.19937" lon="-7.8129">
        <ele>395.6511</ele>
        <time>2021-07-12T12:22:18Z</time>
      </trkpt>
      <trkpt lat="37.19934" lon="-7.81219">
        <ele>400.522</ele>
        <time>2021-07-12T12:22:29Z</time>
      </trkpt>
      <trkpt lat="37.19887" lon="-7.81154">
        <ele>405.9616</ele>
        <time>2021-07-12T12:22:40Z</time>
      </trkpt>
      <trkpt lat="37.19864" lon="-7.81075">
        <ele>415.1843</ele>
        <time>2021-07-12T12:22:51Z</time>
      </trkpt>
      <trkpt lat="37.19855" lon="-7.81074">
        <ele>411.4048</ele>
        <time>2021-07-12T12:23:02Z</time>
      </trkpt>
      <trkpt lat="37.19851" lon="-7.81072">
        <ele>411.4779</ele>
        <time>2021-07-12T12:23:35Z</time>
      </trkpt>
      <trkpt lat="37.19854" lon="-7.81076">
        <ele>410.4077</ele>
        <time>2021-07-12T12:24:04Z</time>
      </trkpt>
      <trkpt lat="37.19862" lon="-7.81074">
        <ele>412.5433</ele>
        <time>2021-07-12T12:24:15Z</time>
      </trkpt>
      <trkpt lat="37.19857" lon="-7.81075">
        <ele>412.3242</ele>
        <time>2021-07-12T12:24:26Z</time>
      </trkpt>
      <trkpt lat="37.19854" lon="-7.81073">
        <ele>412.3001</ele>
        <time>2021-07-12T12:25:25Z</time>
      </trkpt>
      <trkpt lat="37.1986" lon="-7.81073">
        <ele>413.1984</ele>
        <time>2021-07-12T12:26:14Z</time>
      </trkpt>
      <trkpt lat="37.19917" lon="-7.81063">
        <ele>416.5064</ele>
        <time>2021-07-12T12:26:25Z</time>
      </trkpt>
      <trkpt lat="37.19974" lon="-7.81">
        <ele>411.3584</ele>
        <time>2021-07-12T12:26:36Z</time>
      </trkpt>
      <trkpt lat="37.20051" lon="-7.80986">
        <ele>415.2392</ele>
        <time>2021-07-12T12:26:47Z</time>
      </trkpt>
      <trkpt lat="37.20063" lon="-7.80976">
        <ele>416.5863</ele>
        <time>2021-07-12T12:26:58Z</time>
      </trkpt>
      <trkpt lat="37.2003" lon="-7.8089">
        <ele>417.0927</ele>
        <time>2021-07-12T12:27:09Z</time>
      </trkpt>
      <trkpt lat="37.20054" lon="-7.80796">
        <ele>410.0197</ele>
        <time>2021-07-12T12:27:20Z</time>
      </trkpt>
      <trkpt lat="37.20023" lon="-7.80741">
        <ele>402.1595</ele>
        <time>2021-07-12T12:27:31Z</time>
      </trkpt>
      <trkpt lat="37.19968" lon="-7.80682">
        <ele>393.6569</ele>
        <time>2021-07-12T12:27:42Z</time>
      </trkpt>
      <trkpt lat="37.19846" lon="-7.80546">
        <ele>392.5748</ele>
        <time>2021-07-12T12:27:53Z</time>
      </trkpt>
      <trkpt lat="37.19801" lon="-7.80444">
        <ele>372.7289</ele>
        <time>2021-07-12T12:28:04Z</time>
      </trkpt>
      <trkpt lat="37.19872" lon="-7.80448">
        <ele>371.3007</ele>
        <time>2021-07-12T12:28:15Z</time>
      </trkpt>
      <trkpt lat="37.19952" lon="-7.80511">
        <ele>364.0175</ele>
        <time>2021-07-12T12:28:26Z</time>
      </trkpt>
      <trkpt lat="37.19985" lon="-7.80448">
        <ele>365.5126</ele>
        <time>2021-07-12T12:28:37Z</time>
      </trkpt>
      <trkpt lat="37.20055" lon="-7.80423">
        <ele>364.9211</ele>
        <time>2021-07-12T12:28:48Z</time>
      </trkpt>
      <trkpt lat="37.20122" lon="-7.80446">
        <ele>362.6579</ele>
        <time>2021-07-12T12:28:59Z</time>
      </trkpt>
      <trkpt lat="37.20183" lon="-7.80478">
        <ele>353.8477</ele>
        <time>2021-07-12T12:29:10Z</time>
      </trkpt>
      <trkpt lat="37.20193" lon="-7.80423">
        <ele>351.8225</ele>
        <time>2021-07-12T12:29:21Z</time>
      </trkpt>
      <trkpt lat="37.20215" lon="-7.80333">
        <ele>366.2088</ele>
        <time>2021-07-12T12:29:32Z</time>
      </trkpt>
      <trkpt lat="37.20184" lon="-7.80287">
        <ele>369.0591</ele>
        <time>2021-07-12T12:29:43Z</time>
      </trkpt>
      <trkpt lat="37.2013" lon="-7.8025">
        <ele>367.0275</ele>
        <time>2021-07-12T12:29:54Z</time>
      </trkpt>
      <trkpt lat="37.20086" lon="-7.802">
        <ele>371.666</ele>
        <time>2021-07-12T12:30:05Z</time>
      </trkpt>
      <trkpt lat="37.20034" lon="-7.80161">
        <ele>380.5327</ele>
        <time>2021-07-12T12:30:16Z</time>
      </trkpt>
      <trkpt lat="37.20072" lon="-7.8008">
        <ele>392.8366</ele>
        <time>2021-07-12T12:30:27Z</time>
      </trkpt>
      <trkpt lat="37.20049" lon="-7.80056">
        <ele>395.4415</ele>
        <time>2021-07-12T12:30:39Z</time>
      </trkpt>
      <trkpt lat="37.20019" lon="-7.8">
        <ele>386.4558</ele>
        <time>2021-07-12T12:30:50Z</time>
      </trkpt>
      <trkpt lat="37.20094" lon="-7.79977">
        <ele>381.0941</ele>
        <time>2021-07-12T12:31:01Z</time>
      </trkpt>
      <trkpt lat="37.20138" lon="-7.79975">
        <ele>391.2469</ele>
        <time>2021-07-12T12:31:12Z</time>
      </trkpt>
      <trkpt lat="37.20103" lon="-7.79907">
        <ele>382.6133</ele>
        <time>2021-07-12T12:31:23Z</time>
      </trkpt>
      <trkpt lat="37.20183" lon="-7.79842">
        <ele>374.4868</ele>
        <time>2021-07-12T12:31:34Z</time>
      </trkpt>
      <trkpt lat="37.20249" lon="-7.798">
        <ele>376.2211</ele>
        <time>2021-07-12T12:31:45Z</time>
      </trkpt>
      <trkpt lat="37.20279" lon="-7.79739">
        <ele>372.9822</ele>
        <time>2021-07-12T12:31:56Z</time>
      </trkpt>
      <trkpt lat="37.20152" lon="-7.79699">
        <ele>374.1427</ele>
        <time>2021-07-12T12:32:07Z</time>
      </trkpt>
      <trkpt lat="37.20076" lon="-7.79659">
        <ele>369.3844</ele>
        <time>2021-07-12T12:32:18Z</time>
      </trkpt>
      <trkpt lat="37.20026" lon="-7.79632">
        <ele>366.3628</ele>
        <time>2021-07-12T12:32:29Z</time>
      </trkpt>
      <trkpt lat="37.19962" lon="-7.79635">
        <ele>365.7597</ele>
        <time>2021-07-12T12:32:40Z</time>
      </trkpt>
      <trkpt lat="37.19933" lon="-7.79562">
        <ele>365.0326</ele>
        <time>2021-07-12T12:32:51Z</time>
      </trkpt>
      <trkpt lat="37.19901" lon="-7.79497">
        <ele>368.3357</ele>
        <time>2021-07-12T12:33:02Z</time>
      </trkpt>
      <trkpt lat="37.19918" lon="-7.79393">
        <ele>365.8321</ele>
        <time>2021-07-12T12:33:13Z</time>
      </trkpt>
      <trkpt lat="37.19972" lon="-7.79325">
        <ele>366.7877</ele>
        <time>2021-07-12T12:33:24Z</time>
      </trkpt>
      <trkpt lat="37.19903" lon="-7.79303">
        <ele>373.9758</ele>
        <time>2021-07-12T12:33:35Z</time>
      </trkpt>
      <trkpt lat="37.19956" lon="-7.79269">
        <ele>380.8669</ele>
        <time>2021-07-12T12:33:46Z</time>
      </trkpt>
      <trkpt lat="37.20086" lon="-7.79233">
        <ele>376.8664</ele>
        <time>2021-07-12T12:33:57Z</time>
      </trkpt>
      <trkpt lat="37.20108" lon="-7.79226">
        <ele>407.2676</ele>
        <time>2021-07-12T12:34:08Z</time>
      </trkpt>
      <trkpt lat="37.20124" lon="-7.79163">
        <ele>429.3028</ele>
        <time>2021-07-12T12:34:19Z</time>
      </trkpt>
      <trkpt lat="37.20039" lon="-7.79104">
        <ele>420.5641</ele>
        <time>2021-07-12T12:34:30Z</time>
      </trkpt>
      <trkpt lat="37.19969" lon="-7.79035">
        <ele>412.0298</ele>
        <time>2021-07-12T12:34:41Z</time>
      </trkpt>
      <trkpt lat="37.19891" lon="-7.78989">
        <ele>394.1593</ele>
        <time>2021-07-12T12:34:52Z</time>
      </trkpt>
      <trkpt lat="37.19803" lon="-7.78946">
        <ele>376.9156</ele>
        <time>2021-07-12T12:35:03Z</time>
      </trkpt>
      <trkpt lat="37.19708" lon="-7.78865">
        <ele>368.5778</ele>
        <time>2021-07-12T12:35:14Z</time>
      </trkpt>
      <trkpt lat="37.19611" lon="-7.78833">
        <ele>370.3453</ele>
        <time>2021-07-12T12:35:25Z</time>
      </trkpt>
      <trkpt lat="37.19519" lon="-7.78739">
        <ele>371.1717</ele>
        <time>2021-07-12T12:35:36Z</time>
      </trkpt>
      <trkpt lat="37.19462" lon="-7.78666">
        <ele>357.1317</ele>
        <time>2021-07-12T12:35:47Z</time>
      </trkpt>
      <trkpt lat="37.19406" lon="-7.78597">
        <ele>326.9165</ele>
        <time>2021-07-12T12:35:58Z</time>
      </trkpt>
      <trkpt lat="37.19324" lon="-7.78538">
        <ele>280.7486</ele>
        <time>2021-07-12T12:36:09Z</time>
      </trkpt>
      <trkpt lat="37.19231" lon="-7.78387">
        <ele>298.9988</ele>
        <time>2021-07-12T12:36:20Z</time>
      </trkpt>
      <trkpt lat="37.19199" lon="-7.78223">
        <ele>303.8715</ele>
        <time>2021-07-12T12:36:31Z</time>
      </trkpt>
      <trkpt lat="37.19189" lon="-7.78052">
        <ele>310.9002</ele>
        <time>2021-07-12T12:36:42Z</time>
      </trkpt>
      <trkpt lat="37.19166" lon="-7.77963">
        <ele>310.6132</ele>
        <time>2021-07-12T12:36:53Z</time>
      </trkpt>
      <trkpt lat="37.19205" lon="-7.7782">
        <ele>318.4117</ele>
        <time>2021-07-12T12:37:04Z</time>
      </trkpt>
      <trkpt lat="37.19221" lon="-7.77704">
        <ele>306.3305</ele>
        <time>2021-07-12T12:37:15Z</time>
      </trkpt>
      <trkpt lat="37.19154" lon="-7.77538">
        <ele>288.221</ele>
        <time>2021-07-12T12:37:26Z</time>
      </trkpt>
      <trkpt lat="37.19145" lon="-7.7737">
        <ele>303.404</ele>
        <time>2021-07-12T12:37:37Z</time>
      </trkpt>
      <trkpt lat="37.19202" lon="-7.7728">
        <ele>301.3557</ele>
        <time>2021-07-12T12:37:48Z</time>
      </trkpt>
      <trkpt lat="37.19157" lon="-7.77172">
        <ele>287.0759</ele>
        <time>2021-07-12T12:37:59Z</time>
      </trkpt>
      <trkpt lat="37.19097" lon="-7.77075">
        <ele>273.4263</ele>
        <time>2021-07-12T12:38:10Z</time>
      </trkpt>
      <trkpt lat="37.19085" lon="-7.76928">
        <ele>247.6881</ele>
        <time>2021-07-12T12:38:21Z</time>
      </trkpt>
      <trkpt lat="37.19059" lon="-7.76808">
        <ele>247.9891</ele>
        <time>2021-07-12T12:38:32Z</time>
      </trkpt>
      <trkpt lat="37.18996" lon="-7.76845">
        <ele>257.6263</ele>
        <time>2021-07-12T12:38:43Z</time>
      </trkpt>
      <trkpt lat="37.18942" lon="-7.76701">
        <ele>257.5201</ele>
        <time>2021-07-12T12:38:54Z</time>
      </trkpt>
      <trkpt lat="37.18872" lon="-7.76611">
        <ele>251.4895</ele>
        <time>2021-07-12T12:39:05Z</time>
      </trkpt>
      <trkpt lat="37.18784" lon="-7.76633">
        <ele>250.4134</ele>
        <time>2021-07-12T12:39:16Z</time>
      </trkpt>
      <trkpt lat="37.18789" lon="-7.76632">
        <ele>250.5908</ele>
        <time>2021-07-12T12:39:31Z</time>
      </trkpt>
      <trkpt lat="37.18873" lon="-7.76608">
        <ele>245.7022</ele>
        <time>2021-07-12T12:39:42Z</time>
      </trkpt>
      <trkpt lat="37.18875" lon="-7.76597">
        <ele>243.8094</ele>
        <time>2021-07-12T12:39:53Z</time>
      </trkpt>
      <trkpt lat="37.18808" lon="-7.76553">
        <ele>220.1881</ele>
        <time>2021-07-12T12:40:04Z</time>
      </trkpt>
      <trkpt lat="37.18749" lon="-7.76465">
        <ele>208.76</ele>
        <time>2021-07-12T12:40:15Z</time>
      </trkpt>
      <trkpt lat="37.18726" lon="-7.76351">
        <ele>195.0819</ele>
        <time>2021-07-12T12:40:26Z</time>
      </trkpt>
      <trkpt lat="37.18695" lon="-7.76241">
        <ele>184.2183</ele>
        <time>2021-07-12T12:40:37Z</time>
      </trkpt>
      <trkpt lat="37.1868" lon="-7.76157">
        <ele>172.9361</ele>
        <time>2021-07-12T12:40:48Z</time>
      </trkpt>
      <trkpt lat="37.18609" lon="-7.76117">
        <ele>161.9862</ele>
        <time>2021-07-12T12:40:59Z</time>
      </trkpt>
      <trkpt lat="37.18565" lon="-7.7611">
        <ele>151.4529</ele>
        <time>2021-07-12T12:41:10Z</time>
      </trkpt>
      <trkpt lat="37.18608" lon="-7.76186">
        <ele>145.8555</ele>
        <time>2021-07-12T12:41:21Z</time>
      </trkpt>
      <trkpt lat="37.18536" lon="-7.76198">
        <ele>144.2005</ele>
        <time>2021-07-12T12:41:32Z</time>
      </trkpt>
      <trkpt lat="37.18548" lon="-7.76011">
        <ele>142.0222</ele>
        <time>2021-07-12T12:41:43Z</time>
      </trkpt>
      <trkpt lat="37.18514" lon="-7.75888">
        <ele>138.3763</ele>
        <time>2021-07-12T12:41:54Z</time>
      </trkpt>
      <trkpt lat="37.18482" lon="-7.75808">
        <ele>141.6735</ele>
        <time>2021-07-12T12:42:05Z</time>
      </trkpt>
      <trkpt lat="37.1855" lon="-7.75822">
        <ele>134.7468</ele>
        <time>2021-07-12T12:42:16Z</time>
      </trkpt>
      <trkpt lat="37.18645" lon="-7.75847">
        <ele>130.1785</ele>
        <time>2021-07-12T12:42:27Z</time>
      </trkpt>
      <trkpt lat="37.18721" lon="-7.75794">
        <ele>117.8729</ele>
        <time>2021-07-12T12:42:38Z</time>
      </trkpt>
      <trkpt lat="37.18781" lon="-7.75801">
        <ele>108.8909</ele>
        <time>2021-07-12T12:42:49Z</time>
      </trkpt>
      <trkpt lat="37.18767" lon="-7.7575">
        <ele>104.523</ele>
        <time>2021-07-12T12:43:00Z</time>
      </trkpt>
      <trkpt lat="37.18736" lon="-7.75683">
        <ele>102.8927</ele>
        <time>2021-07-12T12:43:11Z</time>
      </trkpt>
      <trkpt lat="37.18732" lon="-7.75674">
        <ele>104.4762</ele>
        <time>2021-07-12T12:43:22Z</time>
      </trkpt>
      <trkpt lat="37.18708" lon="-7.75696">
        <ele>115.5577</ele>
        <time>2021-07-12T12:43:33Z</time>
      </trkpt>
      <trkpt lat="37.18678" lon="-7.7576">
        <ele>111.2509</ele>
        <time>2021-07-12T12:43:44Z</time>
      </trkpt>
      <trkpt lat="37.18613" lon="-7.75745">
        <ele>108.2391</ele>
        <time>2021-07-12T12:43:55Z</time>
      </trkpt>
      <trkpt lat="37.18581" lon="-7.75682">
        <ele>96.07107</ele>
        <time>2021-07-12T12:44:06Z</time>
      </trkpt>
      <trkpt lat="37.18558" lon="-7.75615">
        <ele>105.9212</ele>
        <time>2021-07-12T12:44:17Z</time>
      </trkpt>
      <trkpt lat="37.1851" lon="-7.75585">
        <ele>106.4756</ele>
        <time>2021-07-12T12:44:28Z</time>
      </trkpt>
      <trkpt lat="37.18454" lon="-7.75576">
        <ele>107.1525</ele>
        <time>2021-07-12T12:44:39Z</time>
      </trkpt>
      <trkpt lat="37.18429" lon="-7.7559">
        <ele>107.2585</ele>
        <time>2021-07-12T12:44:50Z</time>
      </trkpt>
      <trkpt lat="37.18387" lon="-7.75595">
        <ele>109.1491</ele>
        <time>2021-07-12T12:45:01Z</time>
      </trkpt>
      <trkpt lat="37.18408" lon="-7.75589">
        <ele>107.7123</ele>
        <time>2021-07-12T12:45:12Z</time>
      </trkpt>
      <trkpt lat="37.18418" lon="-7.75587">
        <ele>106.3364</ele>
        <time>2021-07-12T12:45:26Z</time>
      </trkpt>
      <trkpt lat="37.18516" lon="-7.75514">
        <ele>109.6215</ele>
        <time>2021-07-12T12:45:37Z</time>
      </trkpt>
      <trkpt lat="37.18602" lon="-7.75621">
        <ele>113.2116</ele>
        <time>2021-07-12T12:45:48Z</time>
      </trkpt>
      <trkpt lat="37.18662" lon="-7.75512">
        <ele>121.3388</ele>
        <time>2021-07-12T12:45:59Z</time>
      </trkpt>
      <trkpt lat="37.18636" lon="-7.75338">
        <ele>132.4632</ele>
        <time>2021-07-12T12:46:10Z</time>
      </trkpt>
      <trkpt lat="37.18685" lon="-7.75174">
        <ele>137.4371</ele>
        <time>2021-07-12T12:46:21Z</time>
      </trkpt>
      <trkpt lat="37.18762" lon="-7.75073">
        <ele>141.6312</ele>
        <time>2021-07-12T12:46:32Z</time>
      </trkpt>
      <trkpt lat="37.18682" lon="-7.74999">
        <ele>139.2104</ele>
        <time>2021-07-12T12:46:43Z</time>
      </trkpt>
      <trkpt lat="37.18741" lon="-7.74881">
        <ele>143.5895</ele>
        <time>2021-07-12T12:46:54Z</time>
      </trkpt>
      <trkpt lat="37.18702" lon="-7.74711">
        <ele>129.0548</ele>
        <time>2021-07-12T12:47:05Z</time>
      </trkpt>
      <trkpt lat="37.18661" lon="-7.74551">
        <ele>111.3351</ele>
        <time>2021-07-12T12:47:16Z</time>
      </trkpt>
      <trkpt lat="37.18686" lon="-7.74485">
        <ele>100.3442</ele>
        <time>2021-07-12T12:47:27Z</time>
      </trkpt>
      <trkpt lat="37.18748" lon="-7.74453">
        <ele>99.04902</ele>
        <time>2021-07-12T12:47:38Z</time>
      </trkpt>
      <trkpt lat="37.18734" lon="-7.7446">
        <ele>97.48091</ele>
        <time>2021-07-12T12:47:49Z</time>
      </trkpt>
      <trkpt lat="37.1865" lon="-7.74437">
        <ele>105.3761</ele>
        <time>2021-07-12T12:48:00Z</time>
      </trkpt>
      <trkpt lat="37.1859" lon="-7.74287">
        <ele>107.2386</ele>
        <time>2021-07-12T12:48:11Z</time>
      </trkpt>
      <trkpt lat="37.1852" lon="-7.74137">
        <ele>106.5648</ele>
        <time>2021-07-12T12:48:22Z</time>
      </trkpt>
      <trkpt lat="37.18478" lon="-7.74159">
        <ele>109.8156</ele>
        <time>2021-07-12T12:48:33Z</time>
      </trkpt>
      <trkpt lat="37.18471" lon="-7.74165">
        <ele>110.9425</ele>
        <time>2021-07-12T12:48:44Z</time>
      </trkpt>
      <trkpt lat="37.18476" lon="-7.74159">
        <ele>111.7763</ele>
        <time>2021-07-12T12:49:01Z</time>
      </trkpt>
      <trkpt lat="37.18524" lon="-7.74141">
        <ele>107.3248</ele>
        <time>2021-07-12T12:49:12Z</time>
      </trkpt>
      <trkpt lat="37.18616" lon="-7.74315">
        <ele>108.3656</ele>
        <time>2021-07-12T12:49:23Z</time>
      </trkpt>
      <trkpt lat="37.18662" lon="-7.74471">
        <ele>102.1166</ele>
        <time>2021-07-12T12:49:34Z</time>
      </trkpt>
      <trkpt lat="37.1877" lon="-7.74451">
        <ele>97.83116</ele>
        <time>2021-07-12T12:49:45Z</time>
      </trkpt>
      <trkpt lat="37.18923" lon="-7.74489">
        <ele>111.4753</ele>
        <time>2021-07-12T12:49:56Z</time>
      </trkpt>
      <trkpt lat="37.19058" lon="-7.7451">
        <ele>120.9756</ele>
        <time>2021-07-12T12:50:07Z</time>
      </trkpt>
      <trkpt lat="37.19177" lon="-7.74547">
        <ele>128.7519</ele>
        <time>2021-07-12T12:50:18Z</time>
      </trkpt>
      <trkpt lat="37.19304" lon="-7.74615">
        <ele>146.4758</ele>
        <time>2021-07-12T12:50:29Z</time>
      </trkpt>
      <trkpt lat="37.19442" lon="-7.74661">
        <ele>163.2073</ele>
        <time>2021-07-12T12:50:40Z</time>
      </trkpt>
      <trkpt lat="37.1957" lon="-7.74611">
        <ele>183.2174</ele>
        <time>2021-07-12T12:50:51Z</time>
      </trkpt>
      <trkpt lat="37.19642" lon="-7.74471">
        <ele>186.8824</ele>
        <time>2021-07-12T12:51:02Z</time>
      </trkpt>
      <trkpt lat="37.19718" lon="-7.7439">
        <ele>176.1873</ele>
        <time>2021-07-12T12:51:13Z</time>
      </trkpt>
      <trkpt lat="37.19766" lon="-7.74336">
        <ele>180.7167</ele>
        <time>2021-07-12T12:51:24Z</time>
      </trkpt>
      <trkpt lat="37.19787" lon="-7.7435">
        <ele>175.5568</ele>
        <time>2021-07-12T12:51:35Z</time>
      </trkpt>
      <trkpt lat="37.19844" lon="-7.74465">
        <ele>165.5598</ele>
        <time>2021-07-12T12:51:46Z</time>
      </trkpt>
      <trkpt lat="37.19947" lon="-7.74648">
        <ele>174.9181</ele>
        <time>2021-07-12T12:51:57Z</time>
      </trkpt>
      <trkpt lat="37.20035" lon="-7.74796">
        <ele>171.7089</ele>
        <time>2021-07-12T12:52:08Z</time>
      </trkpt>
      <trkpt lat="37.20096" lon="-7.7491">
        <ele>157.0626</ele>
        <time>2021-07-12T12:52:19Z</time>
      </trkpt>
      <trkpt lat="37.20151" lon="-7.74972">
        <ele>153.4341</ele>
        <time>2021-07-12T12:52:30Z</time>
      </trkpt>
      <trkpt lat="37.20159" lon="-7.75124">
        <ele>158.0546</ele>
        <time>2021-07-12T12:52:41Z</time>
      </trkpt>
      <trkpt lat="37.20192" lon="-7.75283">
        <ele>164.1499</ele>
        <time>2021-07-12T12:52:52Z</time>
      </trkpt>
      <trkpt lat="37.2016" lon="-7.75434">
        <ele>151.6636</ele>
        <time>2021-07-12T12:53:03Z</time>
      </trkpt>
      <trkpt lat="37.20196" lon="-7.75552">
        <ele>149.8228</ele>
        <time>2021-07-12T12:53:14Z</time>
      </trkpt>
      <trkpt lat="37.20221" lon="-7.75668">
        <ele>149.1076</ele>
        <time>2021-07-12T12:53:25Z</time>
      </trkpt>
      <trkpt lat="37.20317" lon="-7.75669">
        <ele>156.1044</ele>
        <time>2021-07-12T12:53:36Z</time>
      </trkpt>
      <trkpt lat="37.20426" lon="-7.75665">
        <ele>163.2482</ele>
        <time>2021-07-12T12:53:47Z</time>
      </trkpt>
      <trkpt lat="37.20507" lon="-7.75739">
        <ele>171.3164</ele>
        <time>2021-07-12T12:53:58Z</time>
      </trkpt>
      <trkpt lat="37.2051" lon="-7.75835">
        <ele>144.0825</ele>
        <time>2021-07-12T12:54:09Z</time>
      </trkpt>
      <trkpt lat="37.20445" lon="-7.75958">
        <ele>184.5338</ele>
        <time>2021-07-12T12:54:20Z</time>
      </trkpt>
      <trkpt lat="37.20416" lon="-7.76089">
        <ele>194.7967</ele>
        <time>2021-07-12T12:54:31Z</time>
      </trkpt>
      <trkpt lat="37.20356" lon="-7.76188">
        <ele>193.8541</ele>
        <time>2021-07-12T12:54:42Z</time>
      </trkpt>
      <trkpt lat="37.20336" lon="-7.76271">
        <ele>197.7759</ele>
        <time>2021-07-12T12:54:53Z</time>
      </trkpt>
      <trkpt lat="37.20336" lon="-7.76279">
        <ele>194.6605</ele>
        <time>2021-07-12T12:55:04Z</time>
      </trkpt>
      <trkpt lat="37.20335" lon="-7.76284">
        <ele>197.5439</ele>
        <time>2021-07-12T12:55:47Z</time>
      </trkpt>
      <trkpt lat="37.20358" lon="-7.76436">
        <ele>198.2364</ele>
        <time>2021-07-12T12:55:58Z</time>
      </trkpt>
      <trkpt lat="37.20417" lon="-7.76518">
        <ele>192.111</ele>
        <time>2021-07-12T12:56:09Z</time>
      </trkpt>
      <trkpt lat="37.20437" lon="-7.7661">
        <ele>188.7871</ele>
        <time>2021-07-12T12:56:20Z</time>
      </trkpt>
      <trkpt lat="37.20515" lon="-7.76591">
        <ele>194.6617</ele>
        <time>2021-07-12T12:56:31Z</time>
      </trkpt>
      <trkpt lat="37.20592" lon="-7.76718">
        <ele>192.3581</ele>
        <time>2021-07-12T12:56:42Z</time>
      </trkpt>
      <trkpt lat="37.20627" lon="-7.7682">
        <ele>202.344</ele>
        <time>2021-07-12T12:56:53Z</time>
      </trkpt>
      <trkpt lat="37.20722" lon="-7.76922">
        <ele>216.2709</ele>
        <time>2021-07-12T12:57:04Z</time>
      </trkpt>
      <trkpt lat="37.20782" lon="-7.77049">
        <ele>228.8527</ele>
        <time>2021-07-12T12:57:15Z</time>
      </trkpt>
      <trkpt lat="37.20789" lon="-7.7716">
        <ele>240.7077</ele>
        <time>2021-07-12T12:57:26Z</time>
      </trkpt>
      <trkpt lat="37.20765" lon="-7.77227">
        <ele>240.6738</ele>
        <time>2021-07-12T12:57:37Z</time>
      </trkpt>
      <trkpt lat="37.20732" lon="-7.77319">
        <ele>236.3842</ele>
        <time>2021-07-12T12:57:48Z</time>
      </trkpt>
      <trkpt lat="37.2073" lon="-7.77453">
        <ele>224.2099</ele>
        <time>2021-07-12T12:57:59Z</time>
      </trkpt>
      <trkpt lat="37.20786" lon="-7.77556">
        <ele>219.8526</ele>
        <time>2021-07-12T12:58:10Z</time>
      </trkpt>
      <trkpt lat="37.20735" lon="-7.77602">
        <ele>212.8328</ele>
        <time>2021-07-12T12:58:21Z</time>
      </trkpt>
      <trkpt lat="37.20823" lon="-7.77684">
        <ele>216.7743</ele>
        <time>2021-07-12T12:58:32Z</time>
      </trkpt>
      <trkpt lat="37.20873" lon="-7.77842">
        <ele>211.4647</ele>
        <time>2021-07-12T12:58:43Z</time>
      </trkpt>
      <trkpt lat="37.20975" lon="-7.77893">
        <ele>209.1564</ele>
        <time>2021-07-12T12:58:54Z</time>
      </trkpt>
      <trkpt lat="37.21033" lon="-7.77997">
        <ele>202.0618</ele>
        <time>2021-07-12T12:59:05Z</time>
      </trkpt>
      <trkpt lat="37.21094" lon="-7.78172">
        <ele>197.5015</ele>
        <time>2021-07-12T12:59:16Z</time>
      </trkpt>
      <trkpt lat="37.21132" lon="-7.78212">
        <ele>196.0946</ele>
        <time>2021-07-12T12:59:27Z</time>
      </trkpt>
      <trkpt lat="37.21193" lon="-7.78202">
        <ele>204.2907</ele>
        <time>2021-07-12T12:59:38Z</time>
      </trkpt>
      <trkpt lat="37.21178" lon="-7.78202">
        <ele>204.091</ele>
        <time>2021-07-12T12:59:49Z</time>
      </trkpt>
      <trkpt lat="37.21122" lon="-7.78219">
        <ele>204.0351</ele>
        <time>2021-07-12T13:00:00Z</time>
      </trkpt>
      <trkpt lat="37.21131" lon="-7.78249">
        <ele>208.8198</ele>
        <time>2021-07-12T13:00:11Z</time>
      </trkpt>
      <trkpt lat="37.21183" lon="-7.7831">
        <ele>214.3339</ele>
        <time>2021-07-12T13:00:22Z</time>
      </trkpt>
      <trkpt lat="37.21198" lon="-7.78357">
        <ele>221.0008</ele>
        <time>2021-07-12T13:00:33Z</time>
      </trkpt>
      <trkpt lat="37.21216" lon="-7.78499">
        <ele>214.7893</ele>
        <time>2021-07-12T13:00:44Z</time>
      </trkpt>
      <trkpt lat="37.21229" lon="-7.78574">
        <ele>213.5228</ele>
        <time>2021-07-12T13:00:55Z</time>
      </trkpt>
      <trkpt lat="37.21228" lon="-7.78574">
        <ele>205.2382</ele>
        <time>2021-07-12T13:01:55Z</time>
      </trkpt>
      <trkpt lat="37.21225" lon="-7.78572">
        <ele>204.5792</ele>
        <time>2021-07-12T13:02:54Z</time>
      </trkpt>
      <trkpt lat="37.21221" lon="-7.78575">
        <ele>203.3907</ele>
        <time>2021-07-12T13:03:07Z</time>
      </trkpt>
      <trkpt lat="37.21225" lon="-7.78574">
        <ele>204.7658</ele>
        <time>2021-07-12T13:03:18Z</time>
      </trkpt>
      <trkpt lat="37.21227" lon="-7.78574">
        <ele>205.6421</ele>
        <time>2021-07-12T13:04:18Z</time>
      </trkpt>
      <trkpt lat="37.21227" lon="-7.78574">
        <ele>205.6421</ele>
        <time>2021-07-12T13:05:18Z</time>
      </trkpt>
      <trkpt lat="37.21227" lon="-7.78571">
        <ele>212.9998</ele>
        <time>2021-07-12T13:06:18Z</time>
      </trkpt>
      <trkpt lat="37.21227" lon="-7.78571">
        <ele>212.9998</ele>
        <time>2021-07-12T13:07:18Z</time>
      </trkpt>
      <trkpt lat="37.21227" lon="-7.78571">
        <ele>212.9998</ele>
        <time>2021-07-12T13:08:18Z</time>
      </trkpt>
      <trkpt lat="37.21227" lon="-7.78571">
        <ele>212.9998</ele>
        <time>2021-07-12T13:09:18Z</time>
      </trkpt>
      <trkpt lat="37.21227" lon="-7.78571">
        <ele>212.9998</ele>
        <time>2021-07-12T13:10:18Z</time>
      </trkpt>
      <trkpt lat="37.21227" lon="-7.78571">
        <ele>212.9998</ele>
        <time>2021-07-12T13:11:18Z</time>
      </trkpt>
      <trkpt lat="37.21227" lon="-7.78571">
        <ele>212.9998</ele>
        <time>2021-07-12T13:12:18Z</time>
      </trkpt>
      <trkpt lat="37.21227" lon="-7.78571">
        <ele>212.9998</ele>
        <time>2021-07-12T13:13:18Z</time>
      </trkpt>
      <trkpt lat="37.21227" lon="-7.78571">
        <ele>212.9998</ele>
        <time>2021-07-12T13:14:18Z</time>
      </trkpt>
      <trkpt lat="37.21227" lon="-7.78571">
        <ele>212.9998</ele>
        <time>2021-07-12T13:15:18Z</time>
      </trkpt>
      <trkpt lat="37.21227" lon="-7.78571">
        <ele>212.9998</ele>
        <time>2021-07-12T13:16:18Z</time>
      </trkpt>
      <trkpt lat="37.21229" lon="-7.78573">
        <ele>208.1734</ele>
        <time>2021-07-12T13:17:18Z</time>
      </trkpt>
      <trkpt lat="37.21226" lon="-7.78573">
        <ele>212.1184</ele>
        <time>2021-07-12T13:18:18Z</time>
      </trkpt>
      <trkpt lat="37.21226" lon="-7.7857">
        <ele>213.5853</ele>
        <time>2021-07-12T13:19:17Z</time>
      </trkpt>
      <trkpt lat="37.21227" lon="-7.78572">
        <ele>207.467</ele>
        <time>2021-07-12T13:20:16Z</time>
      </trkpt>
      <trkpt lat="37.21225" lon="-7.78571">
        <ele>208.3589</ele>
        <time>2021-07-12T13:21:15Z</time>
      </trkpt>
      <trkpt lat="37.21226" lon="-7.7857">
        <ele>209.5913</ele>
        <time>2021-07-12T13:22:14Z</time>
      </trkpt>
      <trkpt lat="37.21228" lon="-7.7857">
        <ele>213.4722</ele>
        <time>2021-07-12T13:23:13Z</time>
      </trkpt>
      <trkpt lat="37.21226" lon="-7.78571">
        <ele>208.9217</ele>
        <time>2021-07-12T13:24:12Z</time>
      </trkpt>
      <trkpt lat="37.21225" lon="-7.78576">
        <ele>212.1301</ele>
        <time>2021-07-12T13:24:39Z</time>
      </trkpt>
      <trkpt lat="37.21238" lon="-7.78669">
        <ele>209.4882</ele>
        <time>2021-07-12T13:24:50Z</time>
      </trkpt>
      <trkpt lat="37.21308" lon="-7.78774">
        <ele>223.0199</ele>
        <time>2021-07-12T13:25:01Z</time>
      </trkpt>
      <trkpt lat="37.21336" lon="-7.78878">
        <ele>242.4411</ele>
        <time>2021-07-12T13:25:12Z</time>
      </trkpt>
      <trkpt lat="37.21341" lon="-7.79039">
        <ele>259.0984</ele>
        <time>2021-07-12T13:25:23Z</time>
      </trkpt>
      <trkpt lat="37.2134" lon="-7.79161">
        <ele>272.9081</ele>
        <time>2021-07-12T13:25:34Z</time>
      </trkpt>
      <trkpt lat="37.2137" lon="-7.79265">
        <ele>289.091</ele>
        <time>2021-07-12T13:25:45Z</time>
      </trkpt>
      <trkpt lat="37.21298" lon="-7.79285">
        <ele>302.7555</ele>
        <time>2021-07-12T13:25:56Z</time>
      </trkpt>
      <trkpt lat="37.21172" lon="-7.79172">
        <ele>316.8311</ele>
        <time>2021-07-12T13:26:07Z</time>
      </trkpt>
      <trkpt lat="37.21118" lon="-7.792">
        <ele>328.3435</ele>
        <time>2021-07-12T13:26:18Z</time>
      </trkpt>
      <trkpt lat="37.21201" lon="-7.79385">
        <ele>346.3427</ele>
        <time>2021-07-12T13:26:29Z</time>
      </trkpt>
      <trkpt lat="37.21209" lon="-7.79535">
        <ele>357.6844</ele>
        <time>2021-07-12T13:26:40Z</time>
      </trkpt>
      <trkpt lat="37.21269" lon="-7.7971">
        <ele>361.811</ele>
        <time>2021-07-12T13:26:51Z</time>
      </trkpt>
      <trkpt lat="37.21375" lon="-7.79766">
        <ele>370.0904</ele>
        <time>2021-07-12T13:27:02Z</time>
      </trkpt>
      <trkpt lat="37.21477" lon="-7.79751">
        <ele>373.937</ele>
        <time>2021-07-12T13:27:13Z</time>
      </trkpt>
      <trkpt lat="37.21516" lon="-7.7983">
        <ele>379.5356</ele>
        <time>2021-07-12T13:27:24Z</time>
      </trkpt>
      <trkpt lat="37.21577" lon="-7.79922">
        <ele>383.1159</ele>
        <time>2021-07-12T13:27:35Z</time>
      </trkpt>
      <trkpt lat="37.21579" lon="-7.80023">
        <ele>389.7238</ele>
        <time>2021-07-12T13:27:46Z</time>
      </trkpt>
      <trkpt lat="37.21589" lon="-7.79986">
        <ele>391.9222</ele>
        <time>2021-07-12T13:27:57Z</time>
      </trkpt>
      <trkpt lat="37.21624" lon="-7.79837">
        <ele>413.1828</ele>
        <time>2021-07-12T13:28:08Z</time>
      </trkpt>
      <trkpt lat="37.21747" lon="-7.79796">
        <ele>431.5109</ele>
        <time>2021-07-12T13:28:19Z</time>
      </trkpt>
      <trkpt lat="37.21872" lon="-7.79791">
        <ele>420.4255</ele>
        <time>2021-07-12T13:28:30Z</time>
      </trkpt>
      <trkpt lat="37.22012" lon="-7.79709">
        <ele>409.7229</ele>
        <time>2021-07-12T13:28:41Z</time>
      </trkpt>
      <trkpt lat="37.22158" lon="-7.79588">
        <ele>401.6412</ele>
        <time>2021-07-12T13:28:52Z</time>
      </trkpt>
      <trkpt lat="37.22301" lon="-7.79562">
        <ele>404.9545</ele>
        <time>2021-07-12T13:29:03Z</time>
      </trkpt>
      <trkpt lat="37.2242" lon="-7.79601">
        <ele>413.8739</ele>
        <time>2021-07-12T13:29:14Z</time>
      </trkpt>
      <trkpt lat="37.2253" lon="-7.79504">
        <ele>431.8666</ele>
        <time>2021-07-12T13:29:25Z</time>
      </trkpt>
      <trkpt lat="37.22543" lon="-7.79316">
        <ele>438.7219</ele>
        <time>2021-07-12T13:29:36Z</time>
      </trkpt>
      <trkpt lat="37.22673" lon="-7.79157">
        <ele>436.5236</ele>
        <time>2021-07-12T13:29:47Z</time>
      </trkpt>
      <trkpt lat="37.22816" lon="-7.79109">
        <ele>437.3558</ele>
        <time>2021-07-12T13:29:58Z</time>
      </trkpt>
      <trkpt lat="37.22948" lon="-7.78945">
        <ele>431.8356</ele>
        <time>2021-07-12T13:30:09Z</time>
      </trkpt>
      <trkpt lat="37.2302" lon="-7.78718">
        <ele>423.253</ele>
        <time>2021-07-12T13:30:20Z</time>
      </trkpt>
      <trkpt lat="37.23111" lon="-7.78468">
        <ele>420.3047</ele>
        <time>2021-07-12T13:30:31Z</time>
      </trkpt>
      <trkpt lat="37.2327" lon="-7.78297">
        <ele>427.6779</ele>
        <time>2021-07-12T13:30:42Z</time>
      </trkpt>
      <trkpt lat="37.23339" lon="-7.78076">
        <ele>431.0907</ele>
        <time>2021-07-12T13:30:53Z</time>
      </trkpt>
      <trkpt lat="37.2337" lon="-7.78003">
        <ele>433.6559</ele>
        <time>2021-07-12T13:31:04Z</time>
      </trkpt>
      <trkpt lat="37.2342" lon="-7.78067">
        <ele>433.9226</ele>
        <time>2021-07-12T13:31:15Z</time>
      </trkpt>
      <trkpt lat="37.23496" lon="-7.78091">
        <ele>438.1285</ele>
        <time>2021-07-12T13:31:26Z</time>
      </trkpt>
      <trkpt lat="37.23568" lon="-7.78119">
        <ele>445.6496</ele>
        <time>2021-07-12T13:31:37Z</time>
      </trkpt>
      <trkpt lat="37.23625" lon="-7.78111">
        <ele>451.7058</ele>
        <time>2021-07-12T13:31:48Z</time>
      </trkpt>
      <trkpt lat="37.23666" lon="-7.78083">
        <ele>455.5228</ele>
        <time>2021-07-12T13:31:59Z</time>
      </trkpt>
      <trkpt lat="37.23759" lon="-7.78058">
        <ele>451.1485</ele>
        <time>2021-07-12T13:32:10Z</time>
      </trkpt>
      <trkpt lat="37.2388" lon="-7.78046">
        <ele>457.3807</ele>
        <time>2021-07-12T13:32:21Z</time>
      </trkpt>
      <trkpt lat="37.23961" lon="-7.78108">
        <ele>452.6746</ele>
        <time>2021-07-12T13:32:32Z</time>
      </trkpt>
      <trkpt lat="37.23984" lon="-7.78236">
        <ele>453.728</ele>
        <time>2021-07-12T13:32:43Z</time>
      </trkpt>
      <trkpt lat="37.24087" lon="-7.78296">
        <ele>457.3666</ele>
        <time>2021-07-12T13:32:54Z</time>
      </trkpt>
      <trkpt lat="37.2421" lon="-7.78187">
        <ele>453.7997</ele>
        <time>2021-07-12T13:33:05Z</time>
      </trkpt>
      <trkpt lat="37.24297" lon="-7.7809">
        <ele>458.2531</ele>
        <time>2021-07-12T13:33:16Z</time>
      </trkpt>
      <trkpt lat="37.24408" lon="-7.77976">
        <ele>457.5917</ele>
        <time>2021-07-12T13:33:27Z</time>
      </trkpt>
      <trkpt lat="37.24498" lon="-7.7795">
        <ele>457.2712</ele>
        <time>2021-07-12T13:33:38Z</time>
      </trkpt>
      <trkpt lat="37.24619" lon="-7.77883">
        <ele>449.7693</ele>
        <time>2021-07-12T13:33:49Z</time>
      </trkpt>
      <trkpt lat="37.24699" lon="-7.77814">
        <ele>446.3382</ele>
        <time>2021-07-12T13:34:00Z</time>
      </trkpt>
      <trkpt lat="37.24745" lon="-7.77699">
        <ele>435.2528</ele>
        <time>2021-07-12T13:34:11Z</time>
      </trkpt>
      <trkpt lat="37.24773" lon="-7.77616">
        <ele>425.9849</ele>
        <time>2021-07-12T13:34:22Z</time>
      </trkpt>
      <trkpt lat="37.24825" lon="-7.77545">
        <ele>416.909</ele>
        <time>2021-07-12T13:34:33Z</time>
      </trkpt>
      <trkpt lat="37.24867" lon="-7.77439">
        <ele>403.9579</ele>
        <time>2021-07-12T13:34:44Z</time>
      </trkpt>
      <trkpt lat="37.24962" lon="-7.77391">
        <ele>383.5457</ele>
        <time>2021-07-12T13:34:55Z</time>
      </trkpt>
      <trkpt lat="37.25046" lon="-7.77277">
        <ele>381.56</ele>
        <time>2021-07-12T13:35:06Z</time>
      </trkpt>
      <trkpt lat="37.25145" lon="-7.77239">
        <ele>371.4355</ele>
        <time>2021-07-12T13:35:17Z</time>
      </trkpt>
      <trkpt lat="37.2524" lon="-7.77175">
        <ele>362.3861</ele>
        <time>2021-07-12T13:35:28Z</time>
      </trkpt>
      <trkpt lat="37.25331" lon="-7.77106">
        <ele>369.118</ele>
        <time>2021-07-12T13:35:39Z</time>
      </trkpt>
      <trkpt lat="37.25449" lon="-7.77123">
        <ele>358.1253</ele>
        <time>2021-07-12T13:35:50Z</time>
      </trkpt>
      <trkpt lat="37.25544" lon="-7.7713">
        <ele>395.088</ele>
        <time>2021-07-12T13:36:01Z</time>
      </trkpt>
      <trkpt lat="37.25638" lon="-7.77105">
        <ele>404.7652</ele>
        <time>2021-07-12T13:36:12Z</time>
      </trkpt>
      <trkpt lat="37.25712" lon="-7.7717">
        <ele>414.3498</ele>
        <time>2021-07-12T13:36:23Z</time>
      </trkpt>
      <trkpt lat="37.258" lon="-7.77191">
        <ele>404.9471</ele>
        <time>2021-07-12T13:36:34Z</time>
      </trkpt>
      <trkpt lat="37.25855" lon="-7.77172">
        <ele>395.2939</ele>
        <time>2021-07-12T13:36:45Z</time>
      </trkpt>
      <trkpt lat="37.25784" lon="-7.77137">
        <ele>389.0602</ele>
        <time>2021-07-12T13:36:56Z</time>
      </trkpt>
      <trkpt lat="37.25795" lon="-7.77">
        <ele>376.2531</ele>
        <time>2021-07-12T13:37:07Z</time>
      </trkpt>
      <trkpt lat="37.25819" lon="-7.7687">
        <ele>360.8594</ele>
        <time>2021-07-12T13:37:18Z</time>
      </trkpt>
      <trkpt lat="37.25808" lon="-7.7669">
        <ele>346.0639</ele>
        <time>2021-07-12T13:37:29Z</time>
      </trkpt>
      <trkpt lat="37.25769" lon="-7.76563">
        <ele>331.2154</ele>
        <time>2021-07-12T13:37:40Z</time>
      </trkpt>
      <trkpt lat="37.25728" lon="-7.76478">
        <ele>322.522</ele>
        <time>2021-07-12T13:37:51Z</time>
      </trkpt>
      <trkpt lat="37.25702" lon="-7.76383">
        <ele>312.2057</ele>
        <time>2021-07-12T13:38:02Z</time>
      </trkpt>
      <trkpt lat="37.25689" lon="-7.7634">
        <ele>301.8021</ele>
        <time>2021-07-12T13:38:13Z</time>
      </trkpt>
      <trkpt lat="37.25635" lon="-7.76367">
        <ele>292.9171</ele>
        <time>2021-07-12T13:38:24Z</time>
      </trkpt>
      <trkpt lat="37.25647" lon="-7.76301">
        <ele>285.6796</ele>
        <time>2021-07-12T13:38:35Z</time>
      </trkpt>
      <trkpt lat="37.25658" lon="-7.76214">
        <ele>276.8029</ele>
        <time>2021-07-12T13:38:46Z</time>
      </trkpt>
      <trkpt lat="37.25726" lon="-7.76193">
        <ele>272.3636</ele>
        <time>2021-07-12T13:38:57Z</time>
      </trkpt>
      <trkpt lat="37.25724" lon="-7.76163">
        <ele>262.2974</ele>
        <time>2021-07-12T13:39:08Z</time>
      </trkpt>
      <trkpt lat="37.25674" lon="-7.76104">
        <ele>236.4889</ele>
        <time>2021-07-12T13:39:19Z</time>
      </trkpt>
      <trkpt lat="37.25761" lon="-7.76096">
        <ele>242.0476</ele>
        <time>2021-07-12T13:39:30Z</time>
      </trkpt>
      <trkpt lat="37.25791" lon="-7.76014">
        <ele>261.8978</ele>
        <time>2021-07-12T13:39:41Z</time>
      </trkpt>
      <trkpt lat="37.25795" lon="-7.75896">
        <ele>273.769</ele>
        <time>2021-07-12T13:39:52Z</time>
      </trkpt>
      <trkpt lat="37.25799" lon="-7.75736">
        <ele>304.9556</ele>
        <time>2021-07-12T13:40:03Z</time>
      </trkpt>
      <trkpt lat="37.25775" lon="-7.75655">
        <ele>319.4358</ele>
        <time>2021-07-12T13:40:14Z</time>
      </trkpt>
      <trkpt lat="37.25723" lon="-7.75576">
        <ele>324.772</ele>
        <time>2021-07-12T13:40:25Z</time>
      </trkpt>
      <trkpt lat="37.25775" lon="-7.75541">
        <ele>333.2921</ele>
        <time>2021-07-12T13:40:36Z</time>
      </trkpt>
      <trkpt lat="37.25779" lon="-7.75417">
        <ele>347.6596</ele>
        <time>2021-07-12T13:40:47Z</time>
      </trkpt>
      <trkpt lat="37.25739" lon="-7.75299">
        <ele>360.1666</ele>
        <time>2021-07-12T13:40:58Z</time>
      </trkpt>
      <trkpt lat="37.25622" lon="-7.752">
        <ele>372.3783</ele>
        <time>2021-07-12T13:41:09Z</time>
      </trkpt>
      <trkpt lat="37.25602" lon="-7.75078">
        <ele>379.5811</ele>
        <time>2021-07-12T13:41:20Z</time>
      </trkpt>
      <trkpt lat="37.25591" lon="-7.74966">
        <ele>385.0279</ele>
        <time>2021-07-12T13:41:31Z</time>
      </trkpt>
      <trkpt lat="37.25597" lon="-7.74866">
        <ele>388.3541</ele>
        <time>2021-07-12T13:41:42Z</time>
      </trkpt>
      <trkpt lat="37.25683" lon="-7.74879">
        <ele>397.3061</ele>
        <time>2021-07-12T13:41:53Z</time>
      </trkpt>
      <trkpt lat="37.25777" lon="-7.74839">
        <ele>400.1264</ele>
        <time>2021-07-12T13:42:04Z</time>
      </trkpt>
      <trkpt lat="37.25856" lon="-7.74779">
        <ele>400.4787</ele>
        <time>2021-07-12T13:42:15Z</time>
      </trkpt>
      <trkpt lat="37.25949" lon="-7.74692">
        <ele>393.8294</ele>
        <time>2021-07-12T13:42:26Z</time>
      </trkpt>
      <trkpt lat="37.26074" lon="-7.74652">
        <ele>378.9884</ele>
        <time>2021-07-12T13:42:37Z</time>
      </trkpt>
      <trkpt lat="37.26177" lon="-7.74655">
        <ele>364.0329</ele>
        <time>2021-07-12T13:42:48Z</time>
      </trkpt>
      <trkpt lat="37.26266" lon="-7.74639">
        <ele>353.2376</ele>
        <time>2021-07-12T13:42:59Z</time>
      </trkpt>
      <trkpt lat="37.2636" lon="-7.74597">
        <ele>335.5257</ele>
        <time>2021-07-12T13:43:10Z</time>
      </trkpt>
      <trkpt lat="37.26403" lon="-7.74461">
        <ele>319.0665</ele>
        <time>2021-07-12T13:43:21Z</time>
      </trkpt>
      <trkpt lat="37.26437" lon="-7.74331">
        <ele>301.2324</ele>
        <time>2021-07-12T13:43:32Z</time>
      </trkpt>
      <trkpt lat="37.2648" lon="-7.74257">
        <ele>287.4117</ele>
        <time>2021-07-12T13:43:43Z</time>
      </trkpt>
      <trkpt lat="37.265" lon="-7.74347">
        <ele>302.8634</ele>
        <time>2021-07-12T13:43:54Z</time>
      </trkpt>
      <trkpt lat="37.26548" lon="-7.74431">
        <ele>319.6856</ele>
        <time>2021-07-12T13:44:05Z</time>
      </trkpt>
      <trkpt lat="37.2659" lon="-7.74517">
        <ele>333.2909</ele>
        <time>2021-07-12T13:44:16Z</time>
      </trkpt>
      <trkpt lat="37.26593" lon="-7.74659">
        <ele>343.9783</ele>
        <time>2021-07-12T13:44:27Z</time>
      </trkpt>
      <trkpt lat="37.26616" lon="-7.74795">
        <ele>357.0628</ele>
        <time>2021-07-12T13:44:38Z</time>
      </trkpt>
      <trkpt lat="37.26644" lon="-7.74684">
        <ele>360.7333</ele>
        <time>2021-07-12T13:44:49Z</time>
      </trkpt>
      <trkpt lat="37.26689" lon="-7.74505">
        <ele>371.0222</ele>
        <time>2021-07-12T13:45:00Z</time>
      </trkpt>
      <trkpt lat="37.26796" lon="-7.74374">
        <ele>388.2824</ele>
        <time>2021-07-12T13:45:11Z</time>
      </trkpt>
      <trkpt lat="37.26868" lon="-7.74222">
        <ele>382.4481</ele>
        <time>2021-07-12T13:45:22Z</time>
      </trkpt>
      <trkpt lat="37.26977" lon="-7.74083">
        <ele>379.1053</ele>
        <time>2021-07-12T13:45:33Z</time>
      </trkpt>
      <trkpt lat="37.27073" lon="-7.73957">
        <ele>378.7924</ele>
        <time>2021-07-12T13:45:45Z</time>
      </trkpt>
      <trkpt lat="37.27143" lon="-7.73821">
        <ele>390.0417</ele>
        <time>2021-07-12T13:45:56Z</time>
      </trkpt>
      <trkpt lat="37.27186" lon="-7.73658">
        <ele>405.2568</ele>
        <time>2021-07-12T13:46:07Z</time>
      </trkpt>
      <trkpt lat="37.27219" lon="-7.73492">
        <ele>420.3363</ele>
        <time>2021-07-12T13:46:18Z</time>
      </trkpt>
      <trkpt lat="37.27218" lon="-7.73413">
        <ele>424.6614</ele>
        <time>2021-07-12T13:46:29Z</time>
      </trkpt>
      <trkpt lat="37.2722" lon="-7.73291">
        <ele>427.6949</ele>
        <time>2021-07-12T13:46:40Z</time>
      </trkpt>
      <trkpt lat="37.27245" lon="-7.73251">
        <ele>427.2671</ele>
        <time>2021-07-12T13:46:51Z</time>
      </trkpt>
      <trkpt lat="37.2724" lon="-7.73173">
        <ele>422.5352</ele>
        <time>2021-07-12T13:47:02Z</time>
      </trkpt>
      <trkpt lat="37.27276" lon="-7.73055">
        <ele>415.3506</ele>
        <time>2021-07-12T13:47:13Z</time>
      </trkpt>
      <trkpt lat="37.27297" lon="-7.72916">
        <ele>407.746</ele>
        <time>2021-07-12T13:47:24Z</time>
      </trkpt>
      <trkpt lat="37.27371" lon="-7.72847">
        <ele>404.1471</ele>
        <time>2021-07-12T13:47:35Z</time>
      </trkpt>
      <trkpt lat="37.27387" lon="-7.72827">
        <ele>399.9559</ele>
        <time>2021-07-12T13:47:46Z</time>
      </trkpt>
      <trkpt lat="37.27356" lon="-7.72783">
        <ele>394.011</ele>
        <time>2021-07-12T13:47:57Z</time>
      </trkpt>
      <trkpt lat="37.27322" lon="-7.72739">
        <ele>389.8995</ele>
        <time>2021-07-12T13:48:08Z</time>
      </trkpt>
      <trkpt lat="37.27384" lon="-7.72588">
        <ele>386.6998</ele>
        <time>2021-07-12T13:48:19Z</time>
      </trkpt>
      <trkpt lat="37.27481" lon="-7.72429">
        <ele>381.0849</ele>
        <time>2021-07-12T13:48:30Z</time>
      </trkpt>
      <trkpt lat="37.27614" lon="-7.72326">
        <ele>376.2008</ele>
        <time>2021-07-12T13:48:41Z</time>
      </trkpt>
      <trkpt lat="37.27661" lon="-7.72184">
        <ele>371.803</ele>
        <time>2021-07-12T13:48:52Z</time>
      </trkpt>
      <trkpt lat="37.27699" lon="-7.72054">
        <ele>364.3704</ele>
        <time>2021-07-12T13:49:03Z</time>
      </trkpt>
      <trkpt lat="37.2765" lon="-7.71997">
        <ele>358.697</ele>
        <time>2021-07-12T13:49:14Z</time>
      </trkpt>
      <trkpt lat="37.27593" lon="-7.71927">
        <ele>350.3378</ele>
        <time>2021-07-12T13:49:25Z</time>
      </trkpt>
      <trkpt lat="37.27548" lon="-7.71808">
        <ele>333.8933</ele>
        <time>2021-07-12T13:49:36Z</time>
      </trkpt>
      <trkpt lat="37.27481" lon="-7.71729">
        <ele>324.5247</ele>
        <time>2021-07-12T13:49:47Z</time>
      </trkpt>
      <trkpt lat="37.27401" lon="-7.71666">
        <ele>316.3833</ele>
        <time>2021-07-12T13:49:58Z</time>
      </trkpt>
      <trkpt lat="37.27356" lon="-7.71563">
        <ele>302.428</ele>
        <time>2021-07-12T13:50:09Z</time>
      </trkpt>
      <trkpt lat="37.27342" lon="-7.71473">
        <ele>287.6203</ele>
        <time>2021-07-12T13:50:20Z</time>
      </trkpt>
      <trkpt lat="37.27275" lon="-7.71408">
        <ele>262.2633</ele>
        <time>2021-07-12T13:50:31Z</time>
      </trkpt>
      <trkpt lat="37.27271" lon="-7.71289">
        <ele>276.1878</ele>
        <time>2021-07-12T13:50:42Z</time>
      </trkpt>
      <trkpt lat="37.27257" lon="-7.71171">
        <ele>296.5324</ele>
        <time>2021-07-12T13:50:53Z</time>
      </trkpt>
      <trkpt lat="37.27198" lon="-7.71154">
        <ele>311.9136</ele>
        <time>2021-07-12T13:51:04Z</time>
      </trkpt>
      <trkpt lat="37.27222" lon="-7.711">
        <ele>320.56</ele>
        <time>2021-07-12T13:51:15Z</time>
      </trkpt>
      <trkpt lat="37.27314" lon="-7.71129">
        <ele>332.1787</ele>
        <time>2021-07-12T13:51:26Z</time>
      </trkpt>
      <trkpt lat="37.27333" lon="-7.71107">
        <ele>334.3891</ele>
        <time>2021-07-12T13:51:37Z</time>
      </trkpt>
      <trkpt lat="37.27309" lon="-7.70978">
        <ele>345.7226</ele>
        <time>2021-07-12T13:51:48Z</time>
      </trkpt>
      <trkpt lat="37.27218" lon="-7.70899">
        <ele>357.4244</ele>
        <time>2021-07-12T13:51:59Z</time>
      </trkpt>
      <trkpt lat="37.27156" lon="-7.7084">
        <ele>369.5298</ele>
        <time>2021-07-12T13:52:10Z</time>
      </trkpt>
      <trkpt lat="37.27084" lon="-7.70886">
        <ele>382.7187</ele>
        <time>2021-07-12T13:52:21Z</time>
      </trkpt>
      <trkpt lat="37.2696" lon="-7.70868">
        <ele>394.7788</ele>
        <time>2021-07-12T13:52:32Z</time>
      </trkpt>
      <trkpt lat="37.26776" lon="-7.70814">
        <ele>379.9788</ele>
        <time>2021-07-12T13:52:43Z</time>
      </trkpt>
      <trkpt lat="37.26642" lon="-7.708">
        <ele>418.3289</ele>
        <time>2021-07-12T13:52:54Z</time>
      </trkpt>
      <trkpt lat="37.26507" lon="-7.70807">
        <ele>426.4959</ele>
        <time>2021-07-12T13:53:05Z</time>
      </trkpt>
      <trkpt lat="37.26412" lon="-7.70763">
        <ele>439.0241</ele>
        <time>2021-07-12T13:53:16Z</time>
      </trkpt>
      <trkpt lat="37.26408" lon="-7.70763">
        <ele>440.5152</ele>
        <time>2021-07-12T13:53:27Z</time>
      </trkpt>
      <trkpt lat="37.26409" lon="-7.70763">
        <ele>441.4877</ele>
        <time>2021-07-12T13:54:27Z</time>
      </trkpt>
      <trkpt lat="37.26403" lon="-7.70763">
        <ele>443.1549</ele>
        <time>2021-07-12T13:54:52Z</time>
      </trkpt>
      <trkpt lat="37.26307" lon="-7.70789">
        <ele>447.9891</ele>
        <time>2021-07-12T13:55:03Z</time>
      </trkpt>
      <trkpt lat="37.26216" lon="-7.70708">
        <ele>448.0824</ele>
        <time>2021-07-12T13:55:14Z</time>
      </trkpt>
      <trkpt lat="37.26178" lon="-7.70599">
        <ele>441.671</ele>
        <time>2021-07-12T13:55:25Z</time>
      </trkpt>
      <trkpt lat="37.2619" lon="-7.70465">
        <ele>430.9712</ele>
        <time>2021-07-12T13:55:36Z</time>
      </trkpt>
      <trkpt lat="37.26199" lon="-7.7033">
        <ele>417.4872</ele>
        <time>2021-07-12T13:55:47Z</time>
      </trkpt>
      <trkpt lat="37.2626" lon="-7.70196">
        <ele>413.1696</ele>
        <time>2021-07-12T13:55:58Z</time>
      </trkpt>
      <trkpt lat="37.26338" lon="-7.70103">
        <ele>403.4075</ele>
        <time>2021-07-12T13:56:09Z</time>
      </trkpt>
      <trkpt lat="37.26329" lon="-7.69965">
        <ele>386.2089</ele>
        <time>2021-07-12T13:56:20Z</time>
      </trkpt>
      <trkpt lat="37.26357" lon="-7.69781">
        <ele>395.1165</ele>
        <time>2021-07-12T13:56:31Z</time>
      </trkpt>
      <trkpt lat="37.26448" lon="-7.69695">
        <ele>393.4813</ele>
        <time>2021-07-12T13:56:42Z</time>
      </trkpt>
      <trkpt lat="37.26452" lon="-7.69622">
        <ele>403.7934</ele>
        <time>2021-07-12T13:56:53Z</time>
      </trkpt>
      <trkpt lat="37.26392" lon="-7.69521">
        <ele>407.3585</ele>
        <time>2021-07-12T13:57:04Z</time>
      </trkpt>
      <trkpt lat="37.26399" lon="-7.69365">
        <ele>403.1678</ele>
        <time>2021-07-12T13:57:15Z</time>
      </trkpt>
      <trkpt lat="37.2642" lon="-7.69232">
        <ele>398.8698</ele>
        <time>2021-07-12T13:57:26Z</time>
      </trkpt>
      <trkpt lat="37.26525" lon="-7.69229">
        <ele>410.465</ele>
        <time>2021-07-12T13:57:37Z</time>
      </trkpt>
      <trkpt lat="37.2654" lon="-7.69188">
        <ele>405.9121</ele>
        <time>2021-07-12T13:57:48Z</time>
      </trkpt>
      <trkpt lat="37.26529" lon="-7.69068">
        <ele>397.0016</ele>
        <time>2021-07-12T13:57:59Z</time>
      </trkpt>
      <trkpt lat="37.26544" lon="-7.69007">
        <ele>391.9292</ele>
        <time>2021-07-12T13:58:10Z</time>
      </trkpt>
      <trkpt lat="37.26546" lon="-7.68992">
        <ele>392.2377</ele>
        <time>2021-07-12T13:58:21Z</time>
      </trkpt>
      <trkpt lat="37.26567" lon="-7.68992">
        <ele>385.3358</ele>
        <time>2021-07-12T13:58:32Z</time>
      </trkpt>
      <trkpt lat="37.26623" lon="-7.69012">
        <ele>373.0832</ele>
        <time>2021-07-12T13:58:43Z</time>
      </trkpt>
      <trkpt lat="37.26662" lon="-7.69018">
        <ele>361.5405</ele>
        <time>2021-07-12T13:58:54Z</time>
      </trkpt>
      <trkpt lat="37.26701" lon="-7.68933">
        <ele>366.7795</ele>
        <time>2021-07-12T13:59:05Z</time>
      </trkpt>
      <trkpt lat="37.26755" lon="-7.68888">
        <ele>370.8275</ele>
        <time>2021-07-12T13:59:16Z</time>
      </trkpt>
      <trkpt lat="37.26832" lon="-7.68936">
        <ele>369.9006</ele>
        <time>2021-07-12T13:59:27Z</time>
      </trkpt>
      <trkpt lat="37.26869" lon="-7.68883">
        <ele>373.1849</ele>
        <time>2021-07-12T13:59:38Z</time>
      </trkpt>
      <trkpt lat="37.26896" lon="-7.68813">
        <ele>380.4755</ele>
        <time>2021-07-12T13:59:49Z</time>
      </trkpt>
      <trkpt lat="37.26967" lon="-7.6877">
        <ele>383.9833</ele>
        <time>2021-07-12T14:00:00Z</time>
      </trkpt>
      <trkpt lat="37.26985" lon="-7.68703">
        <ele>392.9741</ele>
        <time>2021-07-12T14:00:11Z</time>
      </trkpt>
      <trkpt lat="37.26914" lon="-7.6865">
        <ele>396.6116</ele>
        <time>2021-07-12T14:00:22Z</time>
      </trkpt>
      <trkpt lat="37.26861" lon="-7.68563">
        <ele>393.1683</ele>
        <time>2021-07-12T14:00:33Z</time>
      </trkpt>
      <trkpt lat="37.26861" lon="-7.68425">
        <ele>374.7875</ele>
        <time>2021-07-12T14:00:44Z</time>
      </trkpt>
      <trkpt lat="37.26817" lon="-7.68268">
        <ele>387.0644</ele>
        <time>2021-07-12T14:00:55Z</time>
      </trkpt>
      <trkpt lat="37.26882" lon="-7.68163">
        <ele>384.5254</ele>
        <time>2021-07-12T14:01:06Z</time>
      </trkpt>
      <trkpt lat="37.26899" lon="-7.68032">
        <ele>373.5029</ele>
        <time>2021-07-12T14:01:17Z</time>
      </trkpt>
      <trkpt lat="37.26939" lon="-7.67887">
        <ele>363.1942</ele>
        <time>2021-07-12T14:01:28Z</time>
      </trkpt>
      <trkpt lat="37.27018" lon="-7.67762">
        <ele>358.5432</ele>
        <time>2021-07-12T14:01:39Z</time>
      </trkpt>
      <trkpt lat="37.2702" lon="-7.67645">
        <ele>351.1336</ele>
        <time>2021-07-12T14:01:50Z</time>
      </trkpt>
      <trkpt lat="37.27024" lon="-7.67585">
        <ele>348.6871</ele>
        <time>2021-07-12T14:02:01Z</time>
      </trkpt>
      <trkpt lat="37.27115" lon="-7.6757">
        <ele>336.9567</ele>
        <time>2021-07-12T14:02:12Z</time>
      </trkpt>
      <trkpt lat="37.27165" lon="-7.67493">
        <ele>324.6587</ele>
        <time>2021-07-12T14:02:23Z</time>
      </trkpt>
      <trkpt lat="37.27231" lon="-7.67357">
        <ele>335.1421</ele>
        <time>2021-07-12T14:02:34Z</time>
      </trkpt>
      <trkpt lat="37.2721" lon="-7.6722">
        <ele>335.9137</ele>
        <time>2021-07-12T14:02:45Z</time>
      </trkpt>
      <trkpt lat="37.27252" lon="-7.67144">
        <ele>342.521</ele>
        <time>2021-07-12T14:02:56Z</time>
      </trkpt>
      <trkpt lat="37.27268" lon="-7.67064">
        <ele>339.7585</ele>
        <time>2021-07-12T14:03:07Z</time>
      </trkpt>
      <trkpt lat="37.27364" lon="-7.67005">
        <ele>334.347</ele>
        <time>2021-07-12T14:03:18Z</time>
      </trkpt>
      <trkpt lat="37.27473" lon="-7.66961">
        <ele>343.1033</ele>
        <time>2021-07-12T14:03:29Z</time>
      </trkpt>
      <trkpt lat="37.27593" lon="-7.66897">
        <ele>349.7795</ele>
        <time>2021-07-12T14:03:40Z</time>
      </trkpt>
      <trkpt lat="37.27692" lon="-7.66961">
        <ele>342.3542</ele>
        <time>2021-07-12T14:03:51Z</time>
      </trkpt>
      <trkpt lat="37.27705" lon="-7.67077">
        <ele>330.0423</ele>
        <time>2021-07-12T14:04:02Z</time>
      </trkpt>
      <trkpt lat="37.27792" lon="-7.67123">
        <ele>300.7222</ele>
        <time>2021-07-12T14:04:13Z</time>
      </trkpt>
      <trkpt lat="37.27912" lon="-7.67131">
        <ele>307.6185</ele>
        <time>2021-07-12T14:04:24Z</time>
      </trkpt>
      <trkpt lat="37.27962" lon="-7.67231">
        <ele>304.0686</ele>
        <time>2021-07-12T14:04:35Z</time>
      </trkpt>
      <trkpt lat="37.28074" lon="-7.67287">
        <ele>319.3365</ele>
        <time>2021-07-12T14:04:46Z</time>
      </trkpt>
      <trkpt lat="37.28162" lon="-7.67226">
        <ele>312.9864</ele>
        <time>2021-07-12T14:04:57Z</time>
      </trkpt>
      <trkpt lat="37.28287" lon="-7.67197">
        <ele>307.3554</ele>
        <time>2021-07-12T14:05:08Z</time>
      </trkpt>
      <trkpt lat="37.28425" lon="-7.67135">
        <ele>322.5647</ele>
        <time>2021-07-12T14:05:19Z</time>
      </trkpt>
      <trkpt lat="37.28521" lon="-7.67038">
        <ele>315.1709</ele>
        <time>2021-07-12T14:05:30Z</time>
      </trkpt>
      <trkpt lat="37.28584" lon="-7.66912">
        <ele>318.5859</ele>
        <time>2021-07-12T14:05:41Z</time>
      </trkpt>
      <trkpt lat="37.28652" lon="-7.66795">
        <ele>321.9723</ele>
        <time>2021-07-12T14:05:52Z</time>
      </trkpt>
      <trkpt lat="37.28739" lon="-7.66666">
        <ele>330.1355</ele>
        <time>2021-07-12T14:06:03Z</time>
      </trkpt>
      <trkpt lat="37.28823" lon="-7.66572">
        <ele>306.7996</ele>
        <time>2021-07-12T14:06:14Z</time>
      </trkpt>
      <trkpt lat="37.28823" lon="-7.6654">
        <ele>306.8009</ele>
        <time>2021-07-12T14:06:25Z</time>
      </trkpt>
      <trkpt lat="37.28821" lon="-7.66544">
        <ele>326.8832</ele>
        <time>2021-07-12T14:06:41Z</time>
      </trkpt>
      <trkpt lat="37.28825" lon="-7.6655">
        <ele>334.8694</ele>
        <time>2021-07-12T14:06:52Z</time>
      </trkpt>
      <trkpt lat="37.28891" lon="-7.66531">
        <ele>323.2381</ele>
        <time>2021-07-12T14:07:03Z</time>
      </trkpt>
      <trkpt lat="37.28904" lon="-7.66485">
        <ele>306.7301</ele>
        <time>2021-07-12T14:07:14Z</time>
      </trkpt>
      <trkpt lat="37.2878" lon="-7.6644">
        <ele>308.0906</ele>
        <time>2021-07-12T14:07:25Z</time>
      </trkpt>
      <trkpt lat="37.28706" lon="-7.66325">
        <ele>311.2026</ele>
        <time>2021-07-12T14:07:36Z</time>
      </trkpt>
      <trkpt lat="37.28734" lon="-7.66163">
        <ele>318.0226</ele>
        <time>2021-07-12T14:07:47Z</time>
      </trkpt>
      <trkpt lat="37.28781" lon="-7.66027">
        <ele>299.653</ele>
        <time>2021-07-12T14:07:58Z</time>
      </trkpt>
      <trkpt lat="37.28834" lon="-7.65876">
        <ele>288.7434</ele>
        <time>2021-07-12T14:08:09Z</time>
      </trkpt>
      <trkpt lat="37.28791" lon="-7.65749">
        <ele>275.766</ele>
        <time>2021-07-12T14:08:20Z</time>
      </trkpt>
      <trkpt lat="37.28773" lon="-7.65676">
        <ele>271.5984</ele>
        <time>2021-07-12T14:08:31Z</time>
      </trkpt>
      <trkpt lat="37.28711" lon="-7.65616">
        <ele>269.4082</ele>
        <time>2021-07-12T14:08:42Z</time>
      </trkpt>
      <trkpt lat="37.28734" lon="-7.65516">
        <ele>262.3655</ele>
        <time>2021-07-12T14:08:53Z</time>
      </trkpt>
      <trkpt lat="37.28769" lon="-7.65437">
        <ele>246.624</ele>
        <time>2021-07-12T14:09:04Z</time>
      </trkpt>
      <trkpt lat="37.28784" lon="-7.65347">
        <ele>245.1693</ele>
        <time>2021-07-12T14:09:15Z</time>
      </trkpt>
      <trkpt lat="37.28766" lon="-7.65246">
        <ele>238.6914</ele>
        <time>2021-07-12T14:09:26Z</time>
      </trkpt>
      <trkpt lat="37.28813" lon="-7.65141">
        <ele>233.9771</ele>
        <time>2021-07-12T14:09:37Z</time>
      </trkpt>
      <trkpt lat="37.28892" lon="-7.65126">
        <ele>229.8702</ele>
        <time>2021-07-12T14:09:48Z</time>
      </trkpt>
      <trkpt lat="37.28954" lon="-7.65132">
        <ele>227.6208</ele>
        <time>2021-07-12T14:09:59Z</time>
      </trkpt>
      <trkpt lat="37.29017" lon="-7.65055">
        <ele>211.45</ele>
        <time>2021-07-12T14:10:10Z</time>
      </trkpt>
      <trkpt lat="37.29055" lon="-7.6493">
        <ele>205.8067</ele>
        <time>2021-07-12T14:10:21Z</time>
      </trkpt>
      <trkpt lat="37.29046" lon="-7.64816">
        <ele>200.4028</ele>
        <time>2021-07-12T14:10:32Z</time>
      </trkpt>
      <trkpt lat="37.29066" lon="-7.64737">
        <ele>193.3624</ele>
        <time>2021-07-12T14:10:43Z</time>
      </trkpt>
      <trkpt lat="37.29102" lon="-7.64691">
        <ele>188.7352</ele>
        <time>2021-07-12T14:10:54Z</time>
      </trkpt>
      <trkpt lat="37.29121" lon="-7.64613">
        <ele>186.0891</ele>
        <time>2021-07-12T14:11:05Z</time>
      </trkpt>
      <trkpt lat="37.29094" lon="-7.64468">
        <ele>161.1403</ele>
        <time>2021-07-12T14:11:16Z</time>
      </trkpt>
      <trkpt lat="37.29028" lon="-7.64398">
        <ele>167.48</ele>
        <time>2021-07-12T14:11:27Z</time>
      </trkpt>
      <trkpt lat="37.28984" lon="-7.64324">
        <ele>178.8061</ele>
        <time>2021-07-12T14:11:38Z</time>
      </trkpt>
      <trkpt lat="37.29011" lon="-7.64234">
        <ele>186.3568</ele>
        <time>2021-07-12T14:11:49Z</time>
      </trkpt>
      <trkpt lat="37.28997" lon="-7.64194">
        <ele>186.7536</ele>
        <time>2021-07-12T14:12:00Z</time>
      </trkpt>
      <trkpt lat="37.28964" lon="-7.64221">
        <ele>195.3064</ele>
        <time>2021-07-12T14:12:11Z</time>
      </trkpt>
      <trkpt lat="37.28915" lon="-7.64298">
        <ele>206.8468</ele>
        <time>2021-07-12T14:12:22Z</time>
      </trkpt>
      <trkpt lat="37.28794" lon="-7.64359">
        <ele>216.6475</ele>
        <time>2021-07-12T14:12:33Z</time>
      </trkpt>
      <trkpt lat="37.28665" lon="-7.64399">
        <ele>219.7515</ele>
        <time>2021-07-12T14:12:44Z</time>
      </trkpt>
      <trkpt lat="37.28563" lon="-7.64398">
        <ele>234.0695</ele>
        <time>2021-07-12T14:12:55Z</time>
      </trkpt>
      <trkpt lat="37.2846" lon="-7.64415">
        <ele>250.4305</ele>
        <time>2021-07-12T14:13:06Z</time>
      </trkpt>
      <trkpt lat="37.28374" lon="-7.64372">
        <ele>265.997</ele>
        <time>2021-07-12T14:13:17Z</time>
      </trkpt>
      <trkpt lat="37.28272" lon="-7.64326">
        <ele>275.9354</ele>
        <time>2021-07-12T14:13:28Z</time>
      </trkpt>
      <trkpt lat="37.28188" lon="-7.64353">
        <ele>277.075</ele>
        <time>2021-07-12T14:13:39Z</time>
      </trkpt>
      <trkpt lat="37.2807" lon="-7.64417">
        <ele>286.7135</ele>
        <time>2021-07-12T14:13:50Z</time>
      </trkpt>
      <trkpt lat="37.27949" lon="-7.64422">
        <ele>293.4306</ele>
        <time>2021-07-12T14:14:01Z</time>
      </trkpt>
      <trkpt lat="37.2786" lon="-7.64477">
        <ele>300.3025</ele>
        <time>2021-07-12T14:14:12Z</time>
      </trkpt>
      <trkpt lat="37.2776" lon="-7.64491">
        <ele>304.3455</ele>
        <time>2021-07-12T14:14:23Z</time>
      </trkpt>
      <trkpt lat="37.27735" lon="-7.64461">
        <ele>310.1209</ele>
        <time>2021-07-12T14:14:34Z</time>
      </trkpt>
      <trkpt lat="37.27786" lon="-7.64404">
        <ele>314.8994</ele>
        <time>2021-07-12T14:14:45Z</time>
      </trkpt>
      <trkpt lat="37.27792" lon="-7.64294">
        <ele>304.9116</ele>
        <time>2021-07-12T14:14:56Z</time>
      </trkpt>
      <trkpt lat="37.27845" lon="-7.6415">
        <ele>285.5507</ele>
        <time>2021-07-12T14:15:07Z</time>
      </trkpt>
      <trkpt lat="37.27881" lon="-7.64016">
        <ele>286.2458</ele>
        <time>2021-07-12T14:15:18Z</time>
      </trkpt>
      <trkpt lat="37.27875" lon="-7.63851">
        <ele>278.0932</ele>
        <time>2021-07-12T14:15:29Z</time>
      </trkpt>
      <trkpt lat="37.27885" lon="-7.63714">
        <ele>280.1157</ele>
        <time>2021-07-12T14:15:40Z</time>
      </trkpt>
      <trkpt lat="37.27948" lon="-7.63573">
        <ele>266.4785</ele>
        <time>2021-07-12T14:15:51Z</time>
      </trkpt>
      <trkpt lat="37.28027" lon="-7.63504">
        <ele>266.3471</ele>
        <time>2021-07-12T14:16:02Z</time>
      </trkpt>
      <trkpt lat="37.28087" lon="-7.63391">
        <ele>262.0562</ele>
        <time>2021-07-12T14:16:13Z</time>
      </trkpt>
      <trkpt lat="37.28032" lon="-7.63293">
        <ele>247.4444</ele>
        <time>2021-07-12T14:16:24Z</time>
      </trkpt>
      <trkpt lat="37.27958" lon="-7.63165">
        <ele>235.2382</ele>
        <time>2021-07-12T14:16:35Z</time>
      </trkpt>
      <trkpt lat="37.27889" lon="-7.63078">
        <ele>221.9072</ele>
        <time>2021-07-12T14:16:46Z</time>
      </trkpt>
      <trkpt lat="37.27927" lon="-7.62957">
        <ele>216.3583</ele>
        <time>2021-07-12T14:16:57Z</time>
      </trkpt>
      <trkpt lat="37.27986" lon="-7.62815">
        <ele>210.7736</ele>
        <time>2021-07-12T14:17:08Z</time>
      </trkpt>
      <trkpt lat="37.28016" lon="-7.62725">
        <ele>201.2216</ele>
        <time>2021-07-12T14:17:19Z</time>
      </trkpt>
      <trkpt lat="37.2793" lon="-7.62647">
        <ele>177.299</ele>
        <time>2021-07-12T14:17:30Z</time>
      </trkpt>
      <trkpt lat="37.27885" lon="-7.62654">
        <ele>167.4494</ele>
        <time>2021-07-12T14:17:41Z</time>
      </trkpt>
      <trkpt lat="37.27843" lon="-7.62608">
        <ele>174.1997</ele>
        <time>2021-07-12T14:17:52Z</time>
      </trkpt>
      <trkpt lat="37.27757" lon="-7.62529">
        <ele>176.2285</ele>
        <time>2021-07-12T14:18:03Z</time>
      </trkpt>
      <trkpt lat="37.27713" lon="-7.62451">
        <ele>172.7815</ele>
        <time>2021-07-12T14:18:14Z</time>
      </trkpt>
      <trkpt lat="37.27642" lon="-7.62458">
        <ele>170.5427</ele>
        <time>2021-07-12T14:18:25Z</time>
      </trkpt>
      <trkpt lat="37.27621" lon="-7.6245">
        <ele>171.2674</ele>
        <time>2021-07-12T14:18:36Z</time>
      </trkpt>
      <trkpt lat="37.27636" lon="-7.62326">
        <ele>172.0848</ele>
        <time>2021-07-12T14:18:47Z</time>
      </trkpt>
      <trkpt lat="37.27631" lon="-7.62301">
        <ele>172.1155</ele>
        <time>2021-07-12T14:18:58Z</time>
      </trkpt>
      <trkpt lat="37.27629" lon="-7.62299">
        <ele>165.9088</ele>
        <time>2021-07-12T14:19:58Z</time>
      </trkpt>
      <trkpt lat="37.27628" lon="-7.62288">
        <ele>166.5732</ele>
        <time>2021-07-12T14:20:11Z</time>
      </trkpt>
      <trkpt lat="37.27566" lon="-7.62224">
        <ele>159.1667</ele>
        <time>2021-07-12T14:20:22Z</time>
      </trkpt>
      <trkpt lat="37.27619" lon="-7.62182">
        <ele>147.3849</ele>
        <time>2021-07-12T14:20:33Z</time>
      </trkpt>
      <trkpt lat="37.27681" lon="-7.62092">
        <ele>160.8452</ele>
        <time>2021-07-12T14:20:44Z</time>
      </trkpt>
      <trkpt lat="37.27629" lon="-7.61992">
        <ele>173.1625</ele>
        <time>2021-07-12T14:20:55Z</time>
      </trkpt>
      <trkpt lat="37.27536" lon="-7.61831">
        <ele>187.7697</ele>
        <time>2021-07-12T14:21:06Z</time>
      </trkpt>
      <trkpt lat="37.2736" lon="-7.61818">
        <ele>208.9323</ele>
        <time>2021-07-12T14:21:17Z</time>
      </trkpt>
      <trkpt lat="37.27179" lon="-7.61754">
        <ele>228.5493</ele>
        <time>2021-07-12T14:21:28Z</time>
      </trkpt>
      <trkpt lat="37.26958" lon="-7.61784">
        <ele>247.9464</ele>
        <time>2021-07-12T14:21:39Z</time>
      </trkpt>
      <trkpt lat="37.26757" lon="-7.61764">
        <ele>267.4862</ele>
        <time>2021-07-12T14:21:50Z</time>
      </trkpt>
      <trkpt lat="37.26576" lon="-7.61674">
        <ele>279.8196</ele>
        <time>2021-07-12T14:22:01Z</time>
      </trkpt>
      <trkpt lat="37.26399" lon="-7.616">
        <ele>286.232</ele>
        <time>2021-07-12T14:22:12Z</time>
      </trkpt>
      <trkpt lat="37.26392" lon="-7.61408">
        <ele>292.1096</ele>
        <time>2021-07-12T14:22:23Z</time>
      </trkpt>
      <trkpt lat="37.26248" lon="-7.61409">
        <ele>297.7125</ele>
        <time>2021-07-12T14:22:34Z</time>
      </trkpt>
      <trkpt lat="37.26041" lon="-7.61495">
        <ele>294.2775</ele>
        <time>2021-07-12T14:22:45Z</time>
      </trkpt>
      <trkpt lat="37.25862" lon="-7.61502">
        <ele>295.4983</ele>
        <time>2021-07-12T14:22:56Z</time>
      </trkpt>
      <trkpt lat="37.25719" lon="-7.61417">
        <ele>300.0346</ele>
        <time>2021-07-12T14:23:07Z</time>
      </trkpt>
      <trkpt lat="37.25585" lon="-7.61344">
        <ele>302.4269</ele>
        <time>2021-07-12T14:23:18Z</time>
      </trkpt>
      <trkpt lat="37.25433" lon="-7.61221">
        <ele>315.0364</ele>
        <time>2021-07-12T14:23:29Z</time>
      </trkpt>
      <trkpt lat="37.25283" lon="-7.61139">
        <ele>333.856</ele>
        <time>2021-07-12T14:23:40Z</time>
      </trkpt>
      <trkpt lat="37.25107" lon="-7.61095">
        <ele>346.3853</ele>
        <time>2021-07-12T14:23:51Z</time>
      </trkpt>
      <trkpt lat="37.24947" lon="-7.61006">
        <ele>336.7326</ele>
        <time>2021-07-12T14:24:02Z</time>
      </trkpt>
      <trkpt lat="37.24797" lon="-7.60925">
        <ele>327.2458</ele>
        <time>2021-07-12T14:24:13Z</time>
      </trkpt>
      <trkpt lat="37.24664" lon="-7.60767">
        <ele>328.427</ele>
        <time>2021-07-12T14:24:24Z</time>
      </trkpt>
      <trkpt lat="37.24615" lon="-7.60598">
        <ele>315.2649</ele>
        <time>2021-07-12T14:24:35Z</time>
      </trkpt>
      <trkpt lat="37.24709" lon="-7.60417">
        <ele>301.0735</ele>
        <time>2021-07-12T14:24:46Z</time>
      </trkpt>
      <trkpt lat="37.24801" lon="-7.60208">
        <ele>276.3307</ele>
        <time>2021-07-12T14:24:57Z</time>
      </trkpt>
      <trkpt lat="37.24772" lon="-7.59987">
        <ele>268.7276</ele>
        <time>2021-07-12T14:25:08Z</time>
      </trkpt>
      <trkpt lat="37.24841" lon="-7.59797">
        <ele>260.1436</ele>
        <time>2021-07-12T14:25:19Z</time>
      </trkpt>
      <trkpt lat="37.24884" lon="-7.5963">
        <ele>260.5639</ele>
        <time>2021-07-12T14:25:30Z</time>
      </trkpt>
      <trkpt lat="37.24788" lon="-7.59491">
        <ele>260.5565</ele>
        <time>2021-07-12T14:25:41Z</time>
      </trkpt>
      <trkpt lat="37.24776" lon="-7.59467">
        <ele>261.4404</ele>
        <time>2021-07-12T14:25:52Z</time>
      </trkpt>
      <trkpt lat="37.24848" lon="-7.59579">
        <ele>262.6232</ele>
        <time>2021-07-12T14:26:03Z</time>
      </trkpt>
      <trkpt lat="37.24916" lon="-7.59567">
        <ele>265.3934</ele>
        <time>2021-07-12T14:26:14Z</time>
      </trkpt>
      <trkpt lat="37.24967" lon="-7.59462">
        <ele>265.0359</ele>
        <time>2021-07-12T14:26:25Z</time>
      </trkpt>
      <trkpt lat="37.24968" lon="-7.59283">
        <ele>251.6687</ele>
        <time>2021-07-12T14:26:36Z</time>
      </trkpt>
      <trkpt lat="37.25022" lon="-7.59228">
        <ele>268.0184</ele>
        <time>2021-07-12T14:26:47Z</time>
      </trkpt>
      <trkpt lat="37.25111" lon="-7.59128">
        <ele>269.1132</ele>
        <time>2021-07-12T14:26:58Z</time>
      </trkpt>
      <trkpt lat="37.25136" lon="-7.5896">
        <ele>279.8606</ele>
        <time>2021-07-12T14:27:09Z</time>
      </trkpt>
      <trkpt lat="37.25107" lon="-7.58912">
        <ele>274.7394</ele>
        <time>2021-07-12T14:27:20Z</time>
      </trkpt>
      <trkpt lat="37.25073" lon="-7.58813">
        <ele>269.8971</ele>
        <time>2021-07-12T14:27:31Z</time>
      </trkpt>
      <trkpt lat="37.25012" lon="-7.58691">
        <ele>256.6402</ele>
        <time>2021-07-12T14:27:42Z</time>
      </trkpt>
      <trkpt lat="37.25023" lon="-7.58567">
        <ele>237.393</ele>
        <time>2021-07-12T14:27:53Z</time>
      </trkpt>
      <trkpt lat="37.24935" lon="-7.58526">
        <ele>245.1442</ele>
        <time>2021-07-12T14:28:04Z</time>
      </trkpt>
      <trkpt lat="37.24848" lon="-7.58564">
        <ele>249.3929</ele>
        <time>2021-07-12T14:28:15Z</time>
      </trkpt>
      <trkpt lat="37.24755" lon="-7.58579">
        <ele>250.5158</ele>
        <time>2021-07-12T14:28:26Z</time>
      </trkpt>
      <trkpt lat="37.24652" lon="-7.5863">
        <ele>241.1266</ele>
        <time>2021-07-12T14:28:37Z</time>
      </trkpt>
      <trkpt lat="37.24613" lon="-7.58652">
        <ele>225.4457</ele>
        <time>2021-07-12T14:28:48Z</time>
      </trkpt>
      <trkpt lat="37.24542" lon="-7.58683">
        <ele>217.9341</ele>
        <time>2021-07-12T14:28:59Z</time>
      </trkpt>
      <trkpt lat="37.24482" lon="-7.58755">
        <ele>202.6192</ele>
        <time>2021-07-12T14:29:10Z</time>
      </trkpt>
      <trkpt lat="37.24463" lon="-7.58823">
        <ele>208.3632</ele>
        <time>2021-07-12T14:29:21Z</time>
      </trkpt>
      <trkpt lat="37.24481" lon="-7.58905">
        <ele>219.833</ele>
        <time>2021-07-12T14:29:32Z</time>
      </trkpt>
      <trkpt lat="37.24412" lon="-7.58894">
        <ele>230.1898</ele>
        <time>2021-07-12T14:29:43Z</time>
      </trkpt>
      <trkpt lat="37.24318" lon="-7.5889">
        <ele>238.2759</ele>
        <time>2021-07-12T14:29:54Z</time>
      </trkpt>
      <trkpt lat="37.24225" lon="-7.58861">
        <ele>243.8371</ele>
        <time>2021-07-12T14:30:05Z</time>
      </trkpt>
      <trkpt lat="37.24141" lon="-7.58894">
        <ele>233.3223</ele>
        <time>2021-07-12T14:30:16Z</time>
      </trkpt>
      <trkpt lat="37.24052" lon="-7.5885">
        <ele>233.747</ele>
        <time>2021-07-12T14:30:27Z</time>
      </trkpt>
      <trkpt lat="37.24025" lon="-7.58771">
        <ele>238.5735</ele>
        <time>2021-07-12T14:30:38Z</time>
      </trkpt>
      <trkpt lat="37.24064" lon="-7.58626">
        <ele>231.1737</ele>
        <time>2021-07-12T14:30:49Z</time>
      </trkpt>
      <trkpt lat="37.24093" lon="-7.58444">
        <ele>219.9063</ele>
        <time>2021-07-12T14:31:00Z</time>
      </trkpt>
      <trkpt lat="37.2411" lon="-7.58321">
        <ele>204.5044</ele>
        <time>2021-07-12T14:31:11Z</time>
      </trkpt>
      <trkpt lat="37.24104" lon="-7.58228">
        <ele>200.1514</ele>
        <time>2021-07-12T14:31:22Z</time>
      </trkpt>
      <trkpt lat="37.24041" lon="-7.58131">
        <ele>189.8704</ele>
        <time>2021-07-12T14:31:33Z</time>
      </trkpt>
      <trkpt lat="37.23999" lon="-7.58117">
        <ele>193.1585</ele>
        <time>2021-07-12T14:31:44Z</time>
      </trkpt>
      <trkpt lat="37.23925" lon="-7.58073">
        <ele>185.8165</ele>
        <time>2021-07-12T14:31:55Z</time>
      </trkpt>
      <trkpt lat="37.23842" lon="-7.58009">
        <ele>171.7151</ele>
        <time>2021-07-12T14:32:06Z</time>
      </trkpt>
      <trkpt lat="37.23767" lon="-7.57909">
        <ele>152.992</ele>
        <time>2021-07-12T14:32:17Z</time>
      </trkpt>
      <trkpt lat="37.2367" lon="-7.57877">
        <ele>144.049</ele>
        <time>2021-07-12T14:32:28Z</time>
      </trkpt>
      <trkpt lat="37.23557" lon="-7.57854">
        <ele>144.2853</ele>
        <time>2021-07-12T14:32:39Z</time>
      </trkpt>
      <trkpt lat="37.23498" lon="-7.57741">
        <ele>147.2867</ele>
        <time>2021-07-12T14:32:50Z</time>
      </trkpt>
      <trkpt lat="37.23406" lon="-7.57622">
        <ele>159.7003</ele>
        <time>2021-07-12T14:33:01Z</time>
      </trkpt>
      <trkpt lat="37.23294" lon="-7.5758">
        <ele>174.0408</ele>
        <time>2021-07-12T14:33:12Z</time>
      </trkpt>
      <trkpt lat="37.23163" lon="-7.57543">
        <ele>174.8673</ele>
        <time>2021-07-12T14:33:23Z</time>
      </trkpt>
      <trkpt lat="37.23044" lon="-7.57514">
        <ele>183.6555</ele>
        <time>2021-07-12T14:33:34Z</time>
      </trkpt>
      <trkpt lat="37.22952" lon="-7.57425">
        <ele>182.6564</ele>
        <time>2021-07-12T14:33:45Z</time>
      </trkpt>
      <trkpt lat="37.22917" lon="-7.57287">
        <ele>179.8447</ele>
        <time>2021-07-12T14:33:56Z</time>
      </trkpt>
      <trkpt lat="37.2286" lon="-7.57219">
        <ele>179.8624</ele>
        <time>2021-07-12T14:34:07Z</time>
      </trkpt>
      <trkpt lat="37.22769" lon="-7.57168">
        <ele>177.3119</ele>
        <time>2021-07-12T14:34:18Z</time>
      </trkpt>
      <trkpt lat="37.22703" lon="-7.57117">
        <ele>171.1102</ele>
        <time>2021-07-12T14:34:29Z</time>
      </trkpt>
      <trkpt lat="37.22586" lon="-7.57094">
        <ele>175.7609</ele>
        <time>2021-07-12T14:34:40Z</time>
      </trkpt>
      <trkpt lat="37.22466" lon="-7.57059">
        <ele>165.051</ele>
        <time>2021-07-12T14:34:51Z</time>
      </trkpt>
      <trkpt lat="37.22395" lon="-7.57087">
        <ele>170.4458</ele>
        <time>2021-07-12T14:35:02Z</time>
      </trkpt>
      <trkpt lat="37.22389" lon="-7.57084">
        <ele>168.3316</ele>
        <time>2021-07-12T14:35:13Z</time>
      </trkpt>
      <trkpt lat="37.22356" lon="-7.5708">
        <ele>171.7676</ele>
        <time>2021-07-12T14:35:24Z</time>
      </trkpt>
      <trkpt lat="37.22256" lon="-7.57087">
        <ele>164.9716</ele>
        <time>2021-07-12T14:35:35Z</time>
      </trkpt>
      <trkpt lat="37.2212" lon="-7.57021">
        <ele>156.801</ele>
        <time>2021-07-12T14:35:46Z</time>
      </trkpt>
      <trkpt lat="37.2204" lon="-7.5696">
        <ele>151.1536</ele>
        <time>2021-07-12T14:35:57Z</time>
      </trkpt>
      <trkpt lat="37.21912" lon="-7.56898">
        <ele>142.5057</ele>
        <time>2021-07-12T14:36:08Z</time>
      </trkpt>
      <trkpt lat="37.21825" lon="-7.56863">
        <ele>120.9765</ele>
        <time>2021-07-12T14:36:19Z</time>
      </trkpt>
      <trkpt lat="37.21757" lon="-7.56797">
        <ele>137.2737</ele>
        <time>2021-07-12T14:36:30Z</time>
      </trkpt>
      <trkpt lat="37.21677" lon="-7.56709">
        <ele>150.2296</ele>
        <time>2021-07-12T14:36:41Z</time>
      </trkpt>
      <trkpt lat="37.21598" lon="-7.56659">
        <ele>139.1462</ele>
        <time>2021-07-12T14:36:52Z</time>
      </trkpt>
      <trkpt lat="37.21492" lon="-7.56644">
        <ele>131.6154</ele>
        <time>2021-07-12T14:37:03Z</time>
      </trkpt>
      <trkpt lat="37.21387" lon="-7.56631">
        <ele>122.5197</ele>
        <time>2021-07-12T14:37:14Z</time>
      </trkpt>
      <trkpt lat="37.21287" lon="-7.56619">
        <ele>122.0847</ele>
        <time>2021-07-12T14:37:25Z</time>
      </trkpt>
      <trkpt lat="37.21173" lon="-7.56532">
        <ele>132.9661</ele>
        <time>2021-07-12T14:37:36Z</time>
      </trkpt>
      <trkpt lat="37.21102" lon="-7.56529">
        <ele>134.5209</ele>
        <time>2021-07-12T14:37:47Z</time>
      </trkpt>
      <trkpt lat="37.21072" lon="-7.566">
        <ele>140.5293</ele>
        <time>2021-07-12T14:37:58Z</time>
      </trkpt>
      <trkpt lat="37.21077" lon="-7.5673">
        <ele>136.3016</ele>
        <time>2021-07-12T14:38:09Z</time>
      </trkpt>
      <trkpt lat="37.21032" lon="-7.56824">
        <ele>128.8656</ele>
        <time>2021-07-12T14:38:20Z</time>
      </trkpt>
      <trkpt lat="37.20975" lon="-7.56742">
        <ele>136.4231</ele>
        <time>2021-07-12T14:38:31Z</time>
      </trkpt>
      <trkpt lat="37.2091" lon="-7.5662">
        <ele>140.7456</ele>
        <time>2021-07-12T14:38:42Z</time>
      </trkpt>
      <trkpt lat="37.20919" lon="-7.56626">
        <ele>141.5917</ele>
        <time>2021-07-12T14:38:53Z</time>
      </trkpt>
      <trkpt lat="37.20978" lon="-7.56745">
        <ele>141.9481</ele>
        <time>2021-07-12T14:39:04Z</time>
      </trkpt>
      <trkpt lat="37.20878" lon="-7.56765">
        <ele>123.3582</ele>
        <time>2021-07-12T14:39:15Z</time>
      </trkpt>
      <trkpt lat="37.20789" lon="-7.56778">
        <ele>75.77267</ele>
        <time>2021-07-12T14:39:26Z</time>
      </trkpt>
      <trkpt lat="37.20732" lon="-7.56696">
        <ele>22.16249</ele>
        <time>2021-07-12T14:39:37Z</time>
      </trkpt>
      <trkpt lat="37.20624" lon="-7.56673">
        <ele>41.11005</ele>
        <time>2021-07-12T14:39:48Z</time>
      </trkpt>
      <trkpt lat="37.20533" lon="-7.56721">
        <ele>87.26483</ele>
        <time>2021-07-12T14:39:59Z</time>
      </trkpt>
      <trkpt lat="37.20435" lon="-7.56704">
        <ele>104.4736</ele>
        <time>2021-07-12T14:40:10Z</time>
      </trkpt>
      <trkpt lat="37.20355" lon="-7.56722">
        <ele>104.8657</ele>
        <time>2021-07-12T14:40:21Z</time>
      </trkpt>
      <trkpt lat="37.20273" lon="-7.56795">
        <ele>110.1038</ele>
        <time>2021-07-12T14:40:32Z</time>
      </trkpt>
      <trkpt lat="37.20193" lon="-7.56832">
        <ele>110.2034</ele>
        <time>2021-07-12T14:40:43Z</time>
      </trkpt>
      <trkpt lat="37.20133" lon="-7.56803">
        <ele>112.5399</ele>
        <time>2021-07-12T14:40:54Z</time>
      </trkpt>
      <trkpt lat="37.20042" lon="-7.56875">
        <ele>117.8158</ele>
        <time>2021-07-12T14:41:05Z</time>
      </trkpt>
      <trkpt lat="37.19959" lon="-7.56893">
        <ele>109.91</ele>
        <time>2021-07-12T14:41:16Z</time>
      </trkpt>
      <trkpt lat="37.19947" lon="-7.56822">
        <ele>109.7722</ele>
        <time>2021-07-12T14:41:27Z</time>
      </trkpt>
      <trkpt lat="37.19966" lon="-7.56682">
        <ele>122.4291</ele>
        <time>2021-07-12T14:41:38Z</time>
      </trkpt>
      <trkpt lat="37.20041" lon="-7.56653">
        <ele>118.5242</ele>
        <time>2021-07-12T14:41:49Z</time>
      </trkpt>
      <trkpt lat="37.20046" lon="-7.56569">
        <ele>106.7491</ele>
        <time>2021-07-12T14:42:00Z</time>
      </trkpt>
      <trkpt lat="37.20131" lon="-7.56447">
        <ele>102.5945</ele>
        <time>2021-07-12T14:42:11Z</time>
      </trkpt>
      <trkpt lat="37.20234" lon="-7.5633">
        <ele>108.5498</ele>
        <time>2021-07-12T14:42:22Z</time>
      </trkpt>
      <trkpt lat="37.20237" lon="-7.56195">
        <ele>112.218</ele>
        <time>2021-07-12T14:42:33Z</time>
      </trkpt>
      <trkpt lat="37.20271" lon="-7.56065">
        <ele>111.7279</ele>
        <time>2021-07-12T14:42:44Z</time>
      </trkpt>
      <trkpt lat="37.2024" lon="-7.55946">
        <ele>110.5422</ele>
        <time>2021-07-12T14:42:55Z</time>
      </trkpt>
      <trkpt lat="37.20297" lon="-7.55855">
        <ele>111.0342</ele>
        <time>2021-07-12T14:43:06Z</time>
      </trkpt>
      <trkpt lat="37.20351" lon="-7.55739">
        <ele>109.729</ele>
        <time>2021-07-12T14:43:17Z</time>
      </trkpt>
      <trkpt lat="37.20356" lon="-7.55738">
        <ele>109.7054</ele>
        <time>2021-07-12T14:43:28Z</time>
      </trkpt>
      <trkpt lat="37.20354" lon="-7.55738">
        <ele>110.6082</ele>
        <time>2021-07-12T14:44:28Z</time>
      </trkpt>
      <trkpt lat="37.20354" lon="-7.55728">
        <ele>110.9915</ele>
        <time>2021-07-12T14:44:41Z</time>
      </trkpt>
      <trkpt lat="37.20381" lon="-7.55555">
        <ele>112.4068</ele>
        <time>2021-07-12T14:44:52Z</time>
      </trkpt>
      <trkpt lat="37.20361" lon="-7.55418">
        <ele>112.6921</ele>
        <time>2021-07-12T14:45:03Z</time>
      </trkpt>
      <trkpt lat="37.20189" lon="-7.55327">
        <ele>105.9516</ele>
        <time>2021-07-12T14:45:14Z</time>
      </trkpt>
      <trkpt lat="37.20152" lon="-7.55138">
        <ele>116.6944</ele>
        <time>2021-07-12T14:45:25Z</time>
      </trkpt>
      <trkpt lat="37.20007" lon="-7.5512">
        <ele>113.2317</ele>
        <time>2021-07-12T14:45:36Z</time>
      </trkpt>
      <trkpt lat="37.19829" lon="-7.55104">
        <ele>98.06576</ele>
        <time>2021-07-12T14:45:47Z</time>
      </trkpt>
      <trkpt lat="37.19677" lon="-7.5497">
        <ele>84.45123</ele>
        <time>2021-07-12T14:45:58Z</time>
      </trkpt>
      <trkpt lat="37.19652" lon="-7.54759">
        <ele>93.93389</ele>
        <time>2021-07-12T14:46:09Z</time>
      </trkpt>
      <trkpt lat="37.19488" lon="-7.5466">
        <ele>86.65775</ele>
        <time>2021-07-12T14:46:20Z</time>
      </trkpt>
      <trkpt lat="37.19283" lon="-7.54607">
        <ele>81.2138</ele>
        <time>2021-07-12T14:46:31Z</time>
      </trkpt>
      <trkpt lat="37.19122" lon="-7.5445">
        <ele>79.03643</ele>
        <time>2021-07-12T14:46:42Z</time>
      </trkpt>
      <trkpt lat="37.18956" lon="-7.54335">
        <ele>71.50464</ele>
        <time>2021-07-12T14:46:53Z</time>
      </trkpt>
      <trkpt lat="37.18784" lon="-7.54252">
        <ele>61.81143</ele>
        <time>2021-07-12T14:47:04Z</time>
      </trkpt>
      <trkpt lat="37.18626" lon="-7.54184">
        <ele>66.23311</ele>
        <time>2021-07-12T14:47:15Z</time>
      </trkpt>
      <trkpt lat="37.18483" lon="-7.54146">
        <ele>61.4922</ele>
        <time>2021-07-12T14:47:26Z</time>
      </trkpt>
      <trkpt lat="37.18319" lon="-7.54099">
        <ele>55.75934</ele>
        <time>2021-07-12T14:47:37Z</time>
      </trkpt>
      <trkpt lat="37.18157" lon="-7.54054">
        <ele>48.69237</ele>
        <time>2021-07-12T14:47:48Z</time>
      </trkpt>
      <trkpt lat="37.1811" lon="-7.53939">
        <ele>46.09602</ele>
        <time>2021-07-12T14:47:59Z</time>
      </trkpt>
      <trkpt lat="37.18013" lon="-7.53881">
        <ele>44.74069</ele>
        <time>2021-07-12T14:48:10Z</time>
      </trkpt>
      <trkpt lat="37.17939" lon="-7.53842">
        <ele>43.28801</ele>
        <time>2021-07-12T14:48:21Z</time>
      </trkpt>
      <trkpt lat="37.17855" lon="-7.53797">
        <ele>40.19652</ele>
        <time>2021-07-12T14:48:32Z</time>
      </trkpt>
      <trkpt lat="37.17779" lon="-7.53754">
        <ele>38.287</ele>
        <time>2021-07-12T14:48:43Z</time>
      </trkpt>
      <trkpt lat="37.17703" lon="-7.53709">
        <ele>36.30124</ele>
        <time>2021-07-12T14:48:54Z</time>
      </trkpt>
      <trkpt lat="37.17754" lon="-7.53685">
        <ele>42.79156</ele>
        <time>2021-07-12T14:49:05Z</time>
      </trkpt>
      <trkpt lat="37.17797" lon="-7.53626">
        <ele>37.39233</ele>
        <time>2021-07-12T14:49:16Z</time>
      </trkpt>
      <trkpt lat="37.17761" lon="-7.53495">
        <ele>38.33108</ele>
        <time>2021-07-12T14:49:27Z</time>
      </trkpt>
      <trkpt lat="37.17688" lon="-7.53482">
        <ele>32.38829</ele>
        <time>2021-07-12T14:49:38Z</time>
      </trkpt>
      <trkpt lat="37.17644" lon="-7.53422">
        <ele>32.30892</ele>
        <time>2021-07-12T14:49:49Z</time>
      </trkpt>
      <trkpt lat="37.17589" lon="-7.53364">
        <ele>30.86561</ele>
        <time>2021-07-12T14:50:00Z</time>
      </trkpt>
      <trkpt lat="37.17552" lon="-7.53318">
        <ele>33.00768</ele>
        <time>2021-07-12T14:50:11Z</time>
      </trkpt>
      <trkpt lat="37.17508" lon="-7.53278">
        <ele>29.94142</ele>
        <time>2021-07-12T14:50:22Z</time>
      </trkpt>
      <trkpt lat="37.17454" lon="-7.53225">
        <ele>21.872</ele>
        <time>2021-07-12T14:50:33Z</time>
      </trkpt>
      <trkpt lat="37.17406" lon="-7.53171">
        <ele>20.42712</ele>
        <time>2021-07-12T14:50:44Z</time>
      </trkpt>
      <trkpt lat="37.17397" lon="-7.53159">
        <ele>22.21259</ele>
        <time>2021-07-12T14:50:55Z</time>
      </trkpt>
      <trkpt lat="37.1739" lon="-7.5315">
        <ele>25.81299</ele>
        <time>2021-07-12T14:51:06Z</time>
      </trkpt>
      <trkpt lat="37.17361" lon="-7.53125">
        <ele>24.59754</ele>
        <time>2021-07-12T14:51:17Z</time>
      </trkpt>
      <trkpt lat="37.17397" lon="-7.53048">
        <ele>25.44296</ele>
        <time>2021-07-12T14:51:28Z</time>
      </trkpt>
      <trkpt lat="37.17468" lon="-7.52932">
        <ele>25.47246</ele>
        <time>2021-07-12T14:51:39Z</time>
      </trkpt>
      <trkpt lat="37.17432" lon="-7.52846">
        <ele>23.79603</ele>
        <time>2021-07-12T14:51:50Z</time>
      </trkpt>
      <trkpt lat="37.17376" lon="-7.52836">
        <ele>25.95656</ele>
        <time>2021-07-12T14:52:01Z</time>
      </trkpt>
      <trkpt lat="37.17299" lon="-7.52746">
        <ele>22.85955</ele>
        <time>2021-07-12T14:52:12Z</time>
      </trkpt>
      <trkpt lat="37.17213" lon="-7.5265">
        <ele>19.24467</ele>
        <time>2021-07-12T14:52:23Z</time>
      </trkpt>
      <trkpt lat="37.1714" lon="-7.52575">
        <ele>16.65456</ele>
        <time>2021-07-12T14:52:34Z</time>
      </trkpt>
      <trkpt lat="37.17067" lon="-7.52522">
        <ele>16.56139</ele>
        <time>2021-07-12T14:52:45Z</time>
      </trkpt>
      <trkpt lat="37.17002" lon="-7.52463">
        <ele>11.15407</ele>
        <time>2021-07-12T14:52:56Z</time>
      </trkpt>
      <trkpt lat="37.16935" lon="-7.52394">
        <ele>9.062982</ele>
        <time>2021-07-12T14:53:07Z</time>
      </trkpt>
      <trkpt lat="37.16862" lon="-7.5232">
        <ele>7.558455</ele>
        <time>2021-07-12T14:53:18Z</time>
      </trkpt>
      <trkpt lat="37.16798" lon="-7.52248">
        <ele>8.049588</ele>
        <time>2021-07-12T14:53:29Z</time>
      </trkpt>
      <trkpt lat="37.16762" lon="-7.52204">
        <ele>6.419688</ele>
        <time>2021-07-12T14:53:40Z</time>
      </trkpt>
      <trkpt lat="37.16778" lon="-7.52108">
        <ele>8.57295</ele>
        <time>2021-07-12T14:53:51Z</time>
      </trkpt>
      <trkpt lat="37.16829" lon="-7.51978">
        <ele>10.02119</ele>
        <time>2021-07-12T14:54:02Z</time>
      </trkpt>
      <trkpt lat="37.16853" lon="-7.51897">
        <ele>7.446542</ele>
        <time>2021-07-12T14:54:13Z</time>
      </trkpt>
      <trkpt lat="37.16813" lon="-7.51798">
        <ele>7.506728</ele>
        <time>2021-07-12T14:54:24Z</time>
      </trkpt>
      <trkpt lat="37.16732" lon="-7.51755">
        <ele>8.037835</ele>
        <time>2021-07-12T14:54:35Z</time>
      </trkpt>
      <trkpt lat="37.16653" lon="-7.51719">
        <ele>10.44474</ele>
        <time>2021-07-12T14:54:46Z</time>
      </trkpt>
      <trkpt lat="37.16625" lon="-7.51736">
        <ele>5.480432</ele>
        <time>2021-07-12T14:54:57Z</time>
      </trkpt>
      <trkpt lat="37.1661" lon="-7.5176">
        <ele>4.250176</ele>
        <time>2021-07-12T14:55:08Z</time>
      </trkpt>
      <trkpt lat="37.16609" lon="-7.51755">
        <ele>3.762816</ele>
        <time>2021-07-12T14:55:19Z</time>
      </trkpt>
      <trkpt lat="37.1661" lon="-7.51759">
        <ele>-0.339711</ele>
        <time>2021-07-12T14:56:19Z</time>
      </trkpt>
      <trkpt lat="37.16609" lon="-7.51753">
        <ele>1.106922</ele>
        <time>2021-07-12T14:56:35Z</time>
      </trkpt>
      <trkpt lat="37.16608" lon="-7.51755">
        <ele>1.12733</ele>
        <time>2021-07-12T14:57:34Z</time>
      </trkpt>
      <trkpt lat="37.16612" lon="-7.51756">
        <ele>-1.339666</ele>
        <time>2021-07-12T14:58:04Z</time>
      </trkpt>
      <trkpt lat="37.16608" lon="-7.51757">
        <ele>5.008116</ele>
        <time>2021-07-12T14:58:36Z</time>
      </trkpt>
      <trkpt lat="37.16612" lon="-7.51758">
        <ele>4.289935</ele>
        <time>2021-07-12T14:59:24Z</time>
      </trkpt>
      <trkpt lat="37.16608" lon="-7.51756">
        <ele>4.519018</ele>
        <time>2021-07-12T14:59:38Z</time>
      </trkpt>
      <trkpt lat="37.16611" lon="-7.51757">
        <ele>4.321224</ele>
        <time>2021-07-12T15:00:00Z</time>
      </trkpt>
      <trkpt lat="37.16615" lon="-7.51758">
        <ele>4.135815</ele>
        <time>2021-07-12T15:00:50Z</time>
      </trkpt>
      <trkpt lat="37.16611" lon="-7.51757">
        <ele>4.010375</ele>
        <time>2021-07-12T15:01:42Z</time>
      </trkpt>
      <trkpt lat="37.16616" lon="-7.51761">
        <ele>3.073686</ele>
        <time>2021-07-12T15:02:04Z</time>
      </trkpt>
      <trkpt lat="37.16613" lon="-7.51757">
        <ele>4.126532</ele>
        <time>2021-07-12T15:02:20Z</time>
      </trkpt>
      <trkpt lat="37.16614" lon="-7.51758">
        <ele>4.38239</ele>
        <time>2021-07-12T15:03:20Z</time>
      </trkpt>
      <trkpt lat="37.16613" lon="-7.51757">
        <ele>4.329496</ele>
        <time>2021-07-12T15:04:20Z</time>
      </trkpt>
      <trkpt lat="37.16616" lon="-7.51755">
        <ele>3.693684</ele>
        <time>2021-07-12T15:04:47Z</time>
      </trkpt>
      <trkpt lat="37.16614" lon="-7.51759">
        <ele>4.098284</ele>
        <time>2021-07-12T15:05:06Z</time>
      </trkpt>
      <trkpt lat="37.16613" lon="-7.51758">
        <ele>3.729329</ele>
        <time>2021-07-12T15:06:06Z</time>
      </trkpt>
      <trkpt lat="37.1661" lon="-7.51759">
        <ele>2.741822</ele>
        <time>2021-07-12T15:07:06Z</time>
      </trkpt>
      <trkpt lat="37.16611" lon="-7.51761">
        <ele>4.374664</ele>
        <time>2021-07-12T15:11:49Z</time>
      </trkpt>
      <trkpt lat="37.16607" lon="-7.51762">
        <ele>4.341782</ele>
        <time>2021-07-12T15:12:14Z</time>
      </trkpt>
      <trkpt lat="37.16607" lon="-7.51758">
        <ele>4.048794</ele>
        <time>2021-07-12T15:12:53Z</time>
      </trkpt>
      <trkpt lat="37.16605" lon="-7.51753">
        <ele>3.860254</ele>
        <time>2021-07-12T15:13:17Z</time>
      </trkpt>
      <trkpt lat="37.16606" lon="-7.51752">
        <ele>4.184263</ele>
        <time>2021-07-12T15:14:17Z</time>
      </trkpt>
      <trkpt lat="37.16606" lon="-7.51756">
        <ele>5.650557</ele>
        <time>2021-07-12T15:14:39Z</time>
      </trkpt>
      <trkpt lat="37.16607" lon="-7.51757">
        <ele>4.09811</ele>
        <time>2021-07-12T15:15:37Z</time>
      </trkpt>
      <trkpt lat="37.16606" lon="-7.51757">
        <ele>4.566398</ele>
        <time>2021-07-12T15:16:36Z</time>
      </trkpt>
      <trkpt lat="37.16606" lon="-7.51757">
        <ele>3.711226</ele>
        <time>2021-07-12T15:17:34Z</time>
      </trkpt>
      <trkpt lat="37.16607" lon="-7.51757">
        <ele>3.639469</ele>
        <time>2021-07-12T15:18:32Z</time>
      </trkpt>
      <trkpt lat="37.16608" lon="-7.51757">
        <ele>5.428766</ele>
        <time>2021-07-12T15:19:31Z</time>
      </trkpt>
      <trkpt lat="37.16608" lon="-7.51761">
        <ele>6.644304</ele>
        <time>2021-07-12T15:19:47Z</time>
      </trkpt>
      <trkpt lat="37.16611" lon="-7.51758">
        <ele>4.169733</ele>
        <time>2021-07-12T15:20:10Z</time>
      </trkpt>
      <trkpt lat="37.16611" lon="-7.51753">
        <ele>4.076595</ele>
        <time>2021-07-12T15:21:07Z</time>
      </trkpt>
      <trkpt lat="37.16614" lon="-7.51752">
        <ele>4.949328</ele>
        <time>2021-07-12T15:21:42Z</time>
      </trkpt>
      <trkpt lat="37.16613" lon="-7.51757">
        <ele>4.159868</ele>
        <time>2021-07-12T15:22:00Z</time>
      </trkpt>
      <trkpt lat="37.16612" lon="-7.51761">
        <ele>4.498909</ele>
        <time>2021-07-12T15:22:16Z</time>
      </trkpt>
      <trkpt lat="37.1661" lon="-7.51756">
        <ele>3.248146</ele>
        <time>2021-07-12T15:23:13Z</time>
      </trkpt>
      <trkpt lat="37.1661" lon="-7.5176">
        <ele>3.626265</ele>
        <time>2021-07-12T15:24:11Z</time>
      </trkpt>
      <trkpt lat="37.16613" lon="-7.51756">
        <ele>3.790165</ele>
        <time>2021-07-12T15:24:28Z</time>
      </trkpt>
      <trkpt lat="37.16609" lon="-7.51757">
        <ele>3.711923</ele>
        <time>2021-07-12T15:25:03Z</time>
      </trkpt>
      <trkpt lat="37.16613" lon="-7.51758">
        <ele>4.635282</ele>
        <time>2021-07-12T15:25:41Z</time>
      </trkpt>
      <trkpt lat="37.16612" lon="-7.51757">
        <ele>3.971058</ele>
        <time>2021-07-12T15:26:41Z</time>
      </trkpt>
      <trkpt lat="37.16614" lon="-7.51758">
        <ele>4.714979</ele>
        <time>2021-07-12T15:27:41Z</time>
      </trkpt>
      <trkpt lat="37.1661" lon="-7.51757">
        <ele>4.293785</ele>
        <time>2021-07-12T15:28:00Z</time>
      </trkpt>
      <trkpt lat="37.16608" lon="-7.51759">
        <ele>4.206393</ele>
        <time>2021-07-12T15:29:00Z</time>
      </trkpt>
      <trkpt lat="37.16608" lon="-7.51756">
        <ele>4.630258</ele>
        <time>2021-07-12T15:29:59Z</time>
      </trkpt>
      <trkpt lat="37.16604" lon="-7.51758">
        <ele>4.226007</ele>
        <time>2021-07-12T15:30:43Z</time>
      </trkpt>
      <trkpt lat="37.16607" lon="-7.51755">
        <ele>6.904251</ele>
        <time>2021-07-12T15:31:05Z</time>
      </trkpt>
      <trkpt lat="37.16608" lon="-7.51749">
        <ele>4.363029</ele>
        <time>2021-07-12T15:31:16Z</time>
      </trkpt>
      <trkpt lat="37.16629" lon="-7.51713">
        <ele>5.312332</ele>
        <time>2021-07-12T15:31:27Z</time>
      </trkpt>
      <trkpt lat="37.16696" lon="-7.51742">
        <ele>9.69686</ele>
        <time>2021-07-12T15:31:38Z</time>
      </trkpt>
      <trkpt lat="37.16746" lon="-7.51762">
        <ele>10.73827</ele>
        <time>2021-07-12T15:31:49Z</time>
      </trkpt>
      <trkpt lat="37.16751" lon="-7.51766">
        <ele>13.34404</ele>
        <time>2021-07-12T15:32:16Z</time>
      </trkpt>
      <trkpt lat="37.16817" lon="-7.51807">
        <ele>11.99551</ele>
        <time>2021-07-12T15:32:27Z</time>
      </trkpt>
      <trkpt lat="37.16852" lon="-7.51889">
        <ele>11.99406</ele>
        <time>2021-07-12T15:32:38Z</time>
      </trkpt>
      <trkpt lat="37.16879" lon="-7.51904">
        <ele>11.53796</ele>
        <time>2021-07-12T15:32:49Z</time>
      </trkpt>
      <trkpt lat="37.1696" lon="-7.51823">
        <ele>14.06891</ele>
        <time>2021-07-12T15:33:00Z</time>
      </trkpt>
      <trkpt lat="37.17021" lon="-7.51773">
        <ele>14.94523</ele>
        <time>2021-07-12T15:33:11Z</time>
      </trkpt>
      <trkpt lat="37.17131" lon="-7.51851">
        <ele>15.72931</ele>
        <time>2021-07-12T15:33:22Z</time>
      </trkpt>
      <trkpt lat="37.17243" lon="-7.51913">
        <ele>17.21032</ele>
        <time>2021-07-12T15:33:33Z</time>
      </trkpt>
      <trkpt lat="37.17311" lon="-7.51948">
        <ele>17.61975</ele>
        <time>2021-07-12T15:33:44Z</time>
      </trkpt>
      <trkpt lat="37.17444" lon="-7.51994">
        <ele>18.44762</ele>
        <time>2021-07-12T15:33:55Z</time>
      </trkpt>
      <trkpt lat="37.17605" lon="-7.52037">
        <ele>20.34409</ele>
        <time>2021-07-12T15:34:06Z</time>
      </trkpt>
      <trkpt lat="37.17716" lon="-7.52021">
        <ele>19.61263</ele>
        <time>2021-07-12T15:34:17Z</time>
      </trkpt>
      <trkpt lat="37.17793" lon="-7.51983">
        <ele>19.74805</ele>
        <time>2021-07-12T15:34:28Z</time>
      </trkpt>
      <trkpt lat="37.17867" lon="-7.5192">
        <ele>20.30077</ele>
        <time>2021-07-12T15:34:39Z</time>
      </trkpt>
      <trkpt lat="37.17901" lon="-7.5189">
        <ele>21.32139</ele>
        <time>2021-07-12T15:34:50Z</time>
      </trkpt>
      <trkpt lat="37.17901" lon="-7.51885">
        <ele>21.10274</ele>
        <time>2021-07-12T15:35:03Z</time>
      </trkpt>
      <trkpt lat="37.179" lon="-7.51881">
        <ele>20.83023</ele>
        <time>2021-07-12T15:36:02Z</time>
      </trkpt>
      <trkpt lat="37.179" lon="-7.51877">
        <ele>20.29559</ele>
        <time>2021-07-12T15:36:31Z</time>
      </trkpt>
      <trkpt lat="37.17904" lon="-7.51877">
        <ele>23.18574</ele>
        <time>2021-07-12T15:36:45Z</time>
      </trkpt>
      <trkpt lat="37.17928" lon="-7.51755">
        <ele>19.76875</ele>
        <time>2021-07-12T15:36:56Z</time>
      </trkpt>
      <trkpt lat="37.17946" lon="-7.51587">
        <ele>16.79251</ele>
        <time>2021-07-12T15:37:07Z</time>
      </trkpt>
      <trkpt lat="37.17966" lon="-7.51386">
        <ele>14.1257</ele>
        <time>2021-07-12T15:37:18Z</time>
      </trkpt>
      <trkpt lat="37.1799" lon="-7.51163">
        <ele>10.22132</ele>
        <time>2021-07-12T15:37:29Z</time>
      </trkpt>
      <trkpt lat="37.18014" lon="-7.5094">
        <ele>9.071899</ele>
        <time>2021-07-12T15:37:40Z</time>
      </trkpt>
      <trkpt lat="37.18018" lon="-7.50805">
        <ele>9.909865</ele>
        <time>2021-07-12T15:37:51Z</time>
      </trkpt>
      <trkpt lat="37.18047" lon="-7.50637">
        <ele>14.10399</ele>
        <time>2021-07-12T15:38:02Z</time>
      </trkpt>
      <trkpt lat="37.18061" lon="-7.50501">
        <ele>15.51801</ele>
        <time>2021-07-12T15:38:13Z</time>
      </trkpt>
      <trkpt lat="37.18073" lon="-7.50422">
        <ele>17.12569</ele>
        <time>2021-07-12T15:38:24Z</time>
      </trkpt>
      <trkpt lat="37.1808" lon="-7.50323">
        <ele>16.75563</ele>
        <time>2021-07-12T15:38:35Z</time>
      </trkpt>
      <trkpt lat="37.18099" lon="-7.50139">
        <ele>12.84844</ele>
        <time>2021-07-12T15:38:46Z</time>
      </trkpt>
      <trkpt lat="37.18122" lon="-7.49954">
        <ele>7.589362</ele>
        <time>2021-07-12T15:38:57Z</time>
      </trkpt>
      <trkpt lat="37.18129" lon="-7.49867">
        <ele>8.762853</ele>
        <time>2021-07-12T15:39:08Z</time>
      </trkpt>
      <trkpt lat="37.18129" lon="-7.49801">
        <ele>8.725008</ele>
        <time>2021-07-12T15:39:19Z</time>
      </trkpt>
      <trkpt lat="37.18148" lon="-7.49679">
        <ele>8.051219</ele>
        <time>2021-07-12T15:39:30Z</time>
      </trkpt>
      <trkpt lat="37.18162" lon="-7.49552">
        <ele>7.002022</ele>
        <time>2021-07-12T15:39:41Z</time>
      </trkpt>
      <trkpt lat="37.18161" lon="-7.49487">
        <ele>5.557402</ele>
        <time>2021-07-12T15:39:52Z</time>
      </trkpt>
      <trkpt lat="37.18182" lon="-7.49369">
        <ele>9.333662</ele>
        <time>2021-07-12T15:40:03Z</time>
      </trkpt>
      <trkpt lat="37.18195" lon="-7.49232">
        <ele>9.563225</ele>
        <time>2021-07-12T15:40:14Z</time>
      </trkpt>
      <trkpt lat="37.18203" lon="-7.49174">
        <ele>10.14162</ele>
        <time>2021-07-12T15:40:25Z</time>
      </trkpt>
      <trkpt lat="37.18214" lon="-7.49066">
        <ele>12.65151</ele>
        <time>2021-07-12T15:40:36Z</time>
      </trkpt>
      <trkpt lat="37.18239" lon="-7.48909">
        <ele>18.9056</ele>
        <time>2021-07-12T15:40:47Z</time>
      </trkpt>
      <trkpt lat="37.1828" lon="-7.48732">
        <ele>21.10503</ele>
        <time>2021-07-12T15:40:58Z</time>
      </trkpt>
      <trkpt lat="37.18347" lon="-7.48535">
        <ele>20.22236</ele>
        <time>2021-07-12T15:41:09Z</time>
      </trkpt>
      <trkpt lat="37.18393" lon="-7.48393">
        <ele>20.40268</ele>
        <time>2021-07-12T15:41:20Z</time>
      </trkpt>
      <trkpt lat="37.18258" lon="-7.48335">
        <ele>35.5714</ele>
        <time>2021-07-12T15:41:31Z</time>
      </trkpt>
      <trkpt lat="37.18165" lon="-7.48333">
        <ele>35.86317</ele>
        <time>2021-07-12T15:41:42Z</time>
      </trkpt>
      <trkpt lat="37.18026" lon="-7.48405">
        <ele>35.5596</ele>
        <time>2021-07-12T15:41:53Z</time>
      </trkpt>
      <trkpt lat="37.17883" lon="-7.48372">
        <ele>33.05525</ele>
        <time>2021-07-12T15:42:04Z</time>
      </trkpt>
      <trkpt lat="37.17749" lon="-7.48327">
        <ele>24.80623</ele>
        <time>2021-07-12T15:42:15Z</time>
      </trkpt>
      <trkpt lat="37.17648" lon="-7.48248">
        <ele>18.28117</ele>
        <time>2021-07-12T15:42:26Z</time>
      </trkpt>
      <trkpt lat="37.17582" lon="-7.48215">
        <ele>23.28863</ele>
        <time>2021-07-12T15:42:37Z</time>
      </trkpt>
      <trkpt lat="37.17555" lon="-7.48216">
        <ele>25.1022</ele>
        <time>2021-07-12T15:42:48Z</time>
      </trkpt>
      <trkpt lat="37.17546" lon="-7.48214">
        <ele>26.69357</ele>
        <time>2021-07-12T15:42:59Z</time>
      </trkpt>
      <trkpt lat="37.17541" lon="-7.48211">
        <ele>30.07967</ele>
        <time>2021-07-12T15:43:10Z</time>
      </trkpt>
      <trkpt lat="37.17538" lon="-7.48213">
        <ele>27.3423</ele>
        <time>2021-07-12T15:43:25Z</time>
      </trkpt>
      <trkpt lat="37.1754" lon="-7.48218">
        <ele>24.31602</ele>
        <time>2021-07-12T15:43:36Z</time>
      </trkpt>
      <trkpt lat="37.17537" lon="-7.48221">
        <ele>23.76213</ele>
        <time>2021-07-12T15:44:20Z</time>
      </trkpt>
      <trkpt lat="37.17542" lon="-7.48216">
        <ele>23.61246</ele>
        <time>2021-07-12T15:44:31Z</time>
      </trkpt>
      <trkpt lat="37.17546" lon="-7.48213">
        <ele>24.82817</ele>
        <time>2021-07-12T15:44:49Z</time>
      </trkpt>
      <trkpt lat="37.1755" lon="-7.48206">
        <ele>22.92901</ele>
        <time>2021-07-12T15:45:00Z</time>
      </trkpt>
      <trkpt lat="37.17546" lon="-7.48221">
        <ele>20.31668</ele>
        <time>2021-07-12T15:45:11Z</time>
      </trkpt>
      <trkpt lat="37.17552" lon="-7.48224">
        <ele>24.52115</ele>
        <time>2021-07-12T15:45:22Z</time>
      </trkpt>
      <trkpt lat="37.17549" lon="-7.48219">
        <ele>22.5641</ele>
        <time>2021-07-12T15:45:35Z</time>
      </trkpt>
      <trkpt lat="37.17554" lon="-7.48218">
        <ele>23.7486</ele>
        <time>2021-07-12T15:45:46Z</time>
      </trkpt>
      <trkpt lat="37.17554" lon="-7.48225">
        <ele>24.22231</ele>
        <time>2021-07-12T15:46:02Z</time>
      </trkpt>
      <trkpt lat="37.17542" lon="-7.48209">
        <ele>23.66495</ele>
        <time>2021-07-12T15:46:13Z</time>
      </trkpt>
      <trkpt lat="37.17544" lon="-7.48214">
        <ele>23.76896</ele>
        <time>2021-07-12T15:46:28Z</time>
      </trkpt>
      <trkpt lat="37.17555" lon="-7.48208">
        <ele>23.79934</ele>
        <time>2021-07-12T15:46:39Z</time>
      </trkpt>
      <trkpt lat="37.17545" lon="-7.48209">
        <ele>24.35736</ele>
        <time>2021-07-12T15:46:50Z</time>
      </trkpt>
      <trkpt lat="37.17539" lon="-7.48204">
        <ele>24.9925</ele>
        <time>2021-07-12T15:47:01Z</time>
      </trkpt>
      <trkpt lat="37.17541" lon="-7.48213">
        <ele>23.59622</ele>
        <time>2021-07-12T15:47:12Z</time>
      </trkpt>
      <trkpt lat="37.17532" lon="-7.48209">
        <ele>23.58023</ele>
        <time>2021-07-12T15:47:23Z</time>
      </trkpt>
      <trkpt lat="37.17548" lon="-7.48213">
        <ele>23.06505</ele>
        <time>2021-07-12T15:47:34Z</time>
      </trkpt>
      <trkpt lat="37.17546" lon="-7.48219">
        <ele>23.82394</ele>
        <time>2021-07-12T15:47:45Z</time>
      </trkpt>
      <trkpt lat="37.17543" lon="-7.48218">
        <ele>24.71044</ele>
        <time>2021-07-12T15:47:56Z</time>
      </trkpt>
      <trkpt lat="37.17541" lon="-7.48214">
        <ele>20.57189</ele>
        <time>2021-07-12T15:48:11Z</time>
      </trkpt>
      <trkpt lat="37.17538" lon="-7.48205">
        <ele>21.02795</ele>
        <time>2021-07-12T15:48:22Z</time>
      </trkpt>
      <trkpt lat="37.1754" lon="-7.48213">
        <ele>23.70214</ele>
        <time>2021-07-12T15:48:33Z</time>
      </trkpt>
      <trkpt lat="37.17547" lon="-7.48222">
        <ele>23.98799</ele>
        <time>2021-07-12T15:48:44Z</time>
      </trkpt>
      <trkpt lat="37.17543" lon="-7.4821">
        <ele>24.07044</ele>
        <time>2021-07-12T15:48:55Z</time>
      </trkpt>
      <trkpt lat="37.17545" lon="-7.48206">
        <ele>23.36478</ele>
        <time>2021-07-12T15:49:06Z</time>
      </trkpt>
      <trkpt lat="37.17542" lon="-7.48196">
        <ele>24.22675</ele>
        <time>2021-07-12T15:49:17Z</time>
      </trkpt>
      <trkpt lat="37.17544" lon="-7.48203">
        <ele>25.10165</ele>
        <time>2021-07-12T15:49:28Z</time>
      </trkpt>
      <trkpt lat="37.17541" lon="-7.48181">
        <ele>24.37115</ele>
        <time>2021-07-12T15:49:39Z</time>
      </trkpt>
      <trkpt lat="37.17548" lon="-7.4821">
        <ele>24.29401</ele>
        <time>2021-07-12T15:49:50Z</time>
      </trkpt>
      <trkpt lat="37.17552" lon="-7.4822">
        <ele>25.29311</ele>
        <time>2021-07-12T15:50:01Z</time>
      </trkpt>
      <trkpt lat="37.17555" lon="-7.48223">
        <ele>22.43162</ele>
        <time>2021-07-12T15:50:12Z</time>
      </trkpt>
      <trkpt lat="37.17546" lon="-7.48223">
        <ele>23.75345</ele>
        <time>2021-07-12T15:50:23Z</time>
      </trkpt>
      <trkpt lat="37.17542" lon="-7.48221">
        <ele>24.16314</ele>
        <time>2021-07-12T15:50:34Z</time>
      </trkpt>
      <trkpt lat="37.17539" lon="-7.48216">
        <ele>23.34578</ele>
        <time>2021-07-12T15:50:45Z</time>
      </trkpt>
      <trkpt lat="37.17539" lon="-7.48223">
        <ele>23.65048</ele>
        <time>2021-07-12T15:50:56Z</time>
      </trkpt>
      <trkpt lat="37.17535" lon="-7.48225">
        <ele>21.89348</ele>
        <time>2021-07-12T15:51:09Z</time>
      </trkpt>
      <trkpt lat="37.1754" lon="-7.4822">
        <ele>22.52298</ele>
        <time>2021-07-12T15:51:20Z</time>
      </trkpt>
      <trkpt lat="37.1754" lon="-7.48225">
        <ele>23.89534</ele>
        <time>2021-07-12T15:52:02Z</time>
      </trkpt>
      <trkpt lat="37.17544" lon="-7.48226">
        <ele>24.20008</ele>
        <time>2021-07-12T15:52:13Z</time>
      </trkpt>
      <trkpt lat="37.17549" lon="-7.4822">
        <ele>24.94303</ele>
        <time>2021-07-12T15:52:24Z</time>
      </trkpt>
      <trkpt lat="37.17547" lon="-7.48226">
        <ele>24.50951</ele>
        <time>2021-07-12T15:52:35Z</time>
      </trkpt>
      <trkpt lat="37.17544" lon="-7.48223">
        <ele>23.34305</ele>
        <time>2021-07-12T15:52:46Z</time>
      </trkpt>
      <trkpt lat="37.17541" lon="-7.48221">
        <ele>24.84727</ele>
        <time>2021-07-12T15:53:10Z</time>
      </trkpt>
      <trkpt lat="37.17544" lon="-7.48224">
        <ele>24.17184</ele>
        <time>2021-07-12T15:53:57Z</time>
      </trkpt>
      <trkpt lat="37.17543" lon="-7.48219">
        <ele>23.43286</ele>
        <time>2021-07-12T15:54:08Z</time>
      </trkpt>
      <trkpt lat="37.17542" lon="-7.48224">
        <ele>24.44384</ele>
        <time>2021-07-12T15:54:32Z</time>
      </trkpt>
      <trkpt lat="37.17541" lon="-7.48219">
        <ele>24.53174</ele>
        <time>2021-07-12T15:54:48Z</time>
      </trkpt>
      <trkpt lat="37.17544" lon="-7.48216">
        <ele>23.88121</ele>
        <time>2021-07-12T15:55:41Z</time>
      </trkpt>
      <trkpt lat="37.17542" lon="-7.48213">
        <ele>24.44532</ele>
        <time>2021-07-12T15:55:52Z</time>
      </trkpt>
      <trkpt lat="37.1754" lon="-7.48218">
        <ele>24.35975</ele>
        <time>2021-07-12T15:56:03Z</time>
      </trkpt>
      <trkpt lat="37.17541" lon="-7.48223">
        <ele>24.07218</ele>
        <time>2021-07-12T15:56:14Z</time>
      </trkpt>
      <trkpt lat="37.17537" lon="-7.48222">
        <ele>23.58638</ele>
        <time>2021-07-12T15:56:25Z</time>
      </trkpt>
      <trkpt lat="37.1753" lon="-7.48214">
        <ele>23.59097</ele>
        <time>2021-07-12T15:56:36Z</time>
      </trkpt>
      <trkpt lat="37.17535" lon="-7.48214">
        <ele>23.47007</ele>
        <time>2021-07-12T15:56:55Z</time>
      </trkpt>
      <trkpt lat="37.17542" lon="-7.48219">
        <ele>23.13231</ele>
        <time>2021-07-12T15:57:06Z</time>
      </trkpt>
      <trkpt lat="37.17546" lon="-7.48213">
        <ele>24.6793</ele>
        <time>2021-07-12T15:57:17Z</time>
      </trkpt>
      <trkpt lat="37.17541" lon="-7.48207">
        <ele>23.64509</ele>
        <time>2021-07-12T15:57:28Z</time>
      </trkpt>
      <trkpt lat="37.17539" lon="-7.48222">
        <ele>22.616</ele>
        <time>2021-07-12T15:57:39Z</time>
      </trkpt>
      <trkpt lat="37.17541" lon="-7.48223">
        <ele>24.22675</ele>
        <time>2021-07-12T15:58:38Z</time>
      </trkpt>
      <trkpt lat="37.17541" lon="-7.48218">
        <ele>23.86052</ele>
        <time>2021-07-12T15:58:51Z</time>
      </trkpt>
      <trkpt lat="37.17545" lon="-7.48219">
        <ele>24.12299</ele>
        <time>2021-07-12T15:59:11Z</time>
      </trkpt>
      <trkpt lat="37.1754" lon="-7.48219">
        <ele>23.36661</ele>
        <time>2021-07-12T15:59:44Z</time>
      </trkpt>
      <trkpt lat="37.17544" lon="-7.4822">
        <ele>24.62334</ele>
        <time>2021-07-12T16:00:42Z</time>
      </trkpt>
      <trkpt lat="37.17544" lon="-7.4822">
        <ele>24.29854</ele>
        <time>2021-07-12T16:01:40Z</time>
      </trkpt>
      <trkpt lat="37.17548" lon="-7.4822">
        <ele>26.7558</ele>
        <time>2021-07-12T16:01:55Z</time>
      </trkpt>
      <trkpt lat="37.17542" lon="-7.48225">
        <ele>24.77958</ele>
        <time>2021-07-12T16:02:06Z</time>
      </trkpt>
      <trkpt lat="37.1753" lon="-7.48193">
        <ele>22.625</ele>
        <time>2021-07-12T16:02:18Z</time>
      </trkpt>
      <trkpt lat="37.17569" lon="-7.48138">
        <ele>22.6343</ele>
        <time>2021-07-12T16:02:29Z</time>
      </trkpt>
      <trkpt lat="37.17518" lon="-7.48086">
        <ele>17.64523</ele>
        <time>2021-07-12T16:02:40Z</time>
      </trkpt>
      <trkpt lat="37.17477" lon="-7.48033">
        <ele>11.41386</ele>
        <time>2021-07-12T16:02:51Z</time>
      </trkpt>
      <trkpt lat="37.17474" lon="-7.48023">
        <ele>10.49904</ele>
        <time>2021-07-12T16:03:02Z</time>
      </trkpt>
      <trkpt lat="37.1747" lon="-7.4802">
        <ele>10.51554</ele>
        <time>2021-07-12T16:03:13Z</time>
      </trkpt>
      <trkpt lat="37.1747" lon="-7.48025">
        <ele>13.07058</ele>
        <time>2021-07-12T16:03:27Z</time>
      </trkpt>
      <trkpt lat="37.17466" lon="-7.48026">
        <ele>8.580484</ele>
        <time>2021-07-12T16:03:42Z</time>
      </trkpt>
      <trkpt lat="37.17469" lon="-7.48024">
        <ele>10.38892</ele>
        <time>2021-07-12T16:04:04Z</time>
      </trkpt>
      <trkpt lat="37.17469" lon="-7.48023">
        <ele>9.368269</ele>
        <time>2021-07-12T16:05:04Z</time>
      </trkpt>
      <trkpt lat="37.17469" lon="-7.48023">
        <ele>10.74726</ele>
        <time>2021-07-12T16:06:02Z</time>
      </trkpt>
      <trkpt lat="37.17469" lon="-7.48012">
        <ele>11.67295</ele>
        <time>2021-07-12T16:06:13Z</time>
      </trkpt>
      <trkpt lat="37.17468" lon="-7.48003">
        <ele>9.323092</ele>
        <time>2021-07-12T16:06:24Z</time>
      </trkpt>
      <trkpt lat="37.17468" lon="-7.47998">
        <ele>10.02956</ele>
        <time>2021-07-12T16:06:37Z</time>
      </trkpt>
      <trkpt lat="37.17457" lon="-7.47994">
        <ele>8.550958</ele>
        <time>2021-07-12T16:06:48Z</time>
      </trkpt>
      <trkpt lat="37.17457" lon="-7.4799">
        <ele>8.632566</ele>
        <time>2021-07-12T16:07:02Z</time>
      </trkpt>
      <trkpt lat="37.17452" lon="-7.47987">
        <ele>7.070439</ele>
        <time>2021-07-12T16:07:33Z</time>
      </trkpt>
      <trkpt lat="37.17455" lon="-7.47989">
        <ele>8.979145</ele>
        <time>2021-07-12T16:08:06Z</time>
      </trkpt>
      <trkpt lat="37.17454" lon="-7.4799">
        <ele>8.248553</ele>
        <time>2021-07-12T16:09:06Z</time>
      </trkpt>
      <trkpt lat="37.17455" lon="-7.4799">
        <ele>9.162655</ele>
        <time>2021-07-12T16:10:06Z</time>
      </trkpt>
      <trkpt lat="37.17457" lon="-7.47988">
        <ele>8.335331</ele>
        <time>2021-07-12T16:11:06Z</time>
      </trkpt>
      <trkpt lat="37.17459" lon="-7.47991">
        <ele>8.946105</ele>
        <time>2021-07-12T16:12:04Z</time>
      </trkpt>
      <trkpt lat="37.17454" lon="-7.47988">
        <ele>8.668378</ele>
        <time>2021-07-12T16:12:20Z</time>
      </trkpt>
      <trkpt lat="37.17456" lon="-7.47991">
        <ele>8.681247</ele>
        <time>2021-07-12T16:13:08Z</time>
      </trkpt>
      <trkpt lat="37.17456" lon="-7.47989">
        <ele>9.308988</ele>
        <time>2021-07-12T16:14:06Z</time>
      </trkpt>
      <trkpt lat="37.17455" lon="-7.47988">
        <ele>8.925718</ele>
        <time>2021-07-12T16:15:06Z</time>
      </trkpt>
      <trkpt lat="37.17454" lon="-7.47989">
        <ele>8.996711</ele>
        <time>2021-07-12T16:16:04Z</time>
      </trkpt>
      <trkpt lat="37.17455" lon="-7.47991">
        <ele>9.267586</ele>
        <time>2021-07-12T16:17:03Z</time>
      </trkpt>
      <trkpt lat="37.17454" lon="-7.4799">
        <ele>8.584136</ele>
        <time>2021-07-12T16:18:02Z</time>
      </trkpt>
      <trkpt lat="37.17455" lon="-7.4799">
        <ele>8.387678</ele>
        <time>2021-07-12T16:19:01Z</time>
      </trkpt>
      <trkpt lat="37.17454" lon="-7.4799">
        <ele>8.915981</ele>
        <time>2021-07-12T16:20:00Z</time>
      </trkpt>
      <trkpt lat="37.17456" lon="-7.47988">
        <ele>9.003571</ele>
        <time>2021-07-12T16:20:59Z</time>
      </trkpt>
      <trkpt lat="37.17455" lon="-7.47988">
        <ele>8.597962</ele>
        <time>2021-07-12T16:21:57Z</time>
      </trkpt>
      <trkpt lat="37.17456" lon="-7.47989">
        <ele>8.123592</ele>
        <time>2021-07-12T16:22:56Z</time>
      </trkpt>
      <trkpt lat="37.1743" lon="-7.47993">
        <ele>38.11183</ele>
        <time>2021-07-12T16:42:57Z</time>
      </trkpt>
      <trkpt lat="37.17453" lon="-7.47987">
        <ele>7.991258</ele>
        <time>2021-07-12T16:43:03Z</time>
      </trkpt>
      <trkpt lat="37.17456" lon="-7.47988">
        <ele>8.586839</ele>
        <time>2021-07-12T16:43:23Z</time>
      </trkpt>
      <trkpt lat="37.17455" lon="-7.4799">
        <ele>8.961834</ele>
        <time>2021-07-12T16:44:22Z</time>
      </trkpt>
      <trkpt lat="37.17455" lon="-7.47991">
        <ele>8.9101</ele>
        <time>2021-07-12T16:45:22Z</time>
      </trkpt>
      <trkpt lat="37.17455" lon="-7.4799">
        <ele>9.518789</ele>
        <time>2021-07-12T16:46:21Z</time>
      </trkpt>
      <trkpt lat="37.17453" lon="-7.47989">
        <ele>8.570693</ele>
        <time>2021-07-12T16:47:19Z</time>
      </trkpt>
      <trkpt lat="37.17454" lon="-7.47987">
        <ele>6.460314</ele>
        <time>2021-07-12T16:48:18Z</time>
      </trkpt>
      <trkpt lat="37.17456" lon="-7.4799">
        <ele>7.957359</ele>
        <time>2021-07-12T16:48:46Z</time>
      </trkpt>
      <trkpt lat="37.17461" lon="-7.47993">
        <ele>6.786611</ele>
        <time>2021-07-12T16:48:56Z</time>
      </trkpt>
      <trkpt lat="37.17465" lon="-7.47998">
        <ele>14.219</ele>
        <time>2021-07-12T16:49:02Z</time>
      </trkpt>
      <trkpt lat="37.17466" lon="-7.48006">
        <ele>10.65546</ele>
        <time>2021-07-12T16:49:08Z</time>
      </trkpt>
      <trkpt lat="37.17468" lon="-7.48015">
        <ele>10.93731</ele>
        <time>2021-07-12T16:49:14Z</time>
      </trkpt>
      <trkpt lat="37.17468" lon="-7.48021">
        <ele>11.4234</ele>
        <time>2021-07-12T16:49:20Z</time>
      </trkpt>
      <trkpt lat="37.17468" lon="-7.48027">
        <ele>10.74676</ele>
        <time>2021-07-12T16:49:26Z</time>
      </trkpt>
      <trkpt lat="37.1747" lon="-7.48022">
        <ele>9.79063</ele>
        <time>2021-07-12T16:50:20Z</time>
      </trkpt>
      <trkpt lat="37.17468" lon="-7.48023">
        <ele>11.05611</ele>
        <time>2021-07-12T16:51:19Z</time>
      </trkpt>
      <trkpt lat="37.1747" lon="-7.48024">
        <ele>10.86548</ele>
        <time>2021-07-12T16:52:17Z</time>
      </trkpt>
      <trkpt lat="37.17466" lon="-7.48023">
        <ele>10.16513</ele>
        <time>2021-07-12T16:53:15Z</time>
      </trkpt>
      <trkpt lat="37.17467" lon="-7.48028">
        <ele>8.595507</ele>
        <time>2021-07-12T16:53:46Z</time>
      </trkpt>
      <trkpt lat="37.17467" lon="-7.48022">
        <ele>11.12696</ele>
        <time>2021-07-12T16:53:58Z</time>
      </trkpt>
      <trkpt lat="37.17475" lon="-7.48028">
        <ele>10.84931</ele>
        <time>2021-07-12T16:54:08Z</time>
      </trkpt>
      <trkpt lat="37.17509" lon="-7.4807">
        <ele>17.11251</ele>
        <time>2021-07-12T16:54:14Z</time>
      </trkpt>
      <trkpt lat="37.1753" lon="-7.48099">
        <ele>20.33487</ele>
        <time>2021-07-12T16:54:20Z</time>
      </trkpt>
      <trkpt lat="37.17557" lon="-7.48129">
        <ele>23.87578</ele>
        <time>2021-07-12T16:54:26Z</time>
      </trkpt>
      <trkpt lat="37.17564" lon="-7.48142">
        <ele>24.19152</ele>
        <time>2021-07-12T16:54:32Z</time>
      </trkpt>
      <trkpt lat="37.17559" lon="-7.48153">
        <ele>24.67701</ele>
        <time>2021-07-12T16:54:38Z</time>
      </trkpt>
      <trkpt lat="37.17533" lon="-7.48194">
        <ele>23.4948</ele>
        <time>2021-07-12T16:54:44Z</time>
      </trkpt>
      <trkpt lat="37.1753" lon="-7.48227">
        <ele>25.20429</ele>
        <time>2021-07-12T16:54:50Z</time>
      </trkpt>
      <trkpt lat="37.17552" lon="-7.48228">
        <ele>24.62562</ele>
        <time>2021-07-12T16:54:56Z</time>
      </trkpt>
      <trkpt lat="37.17575" lon="-7.48205">
        <ele>24.28193</ele>
        <time>2021-07-12T16:55:02Z</time>
      </trkpt>
      <trkpt lat="37.17581" lon="-7.48204">
        <ele>25.11726</ele>
        <time>2021-07-12T16:55:20Z</time>
      </trkpt>
      <trkpt lat="37.17618" lon="-7.48229">
        <ele>22.12255</ele>
        <time>2021-07-12T16:55:26Z</time>
      </trkpt>
      <trkpt lat="37.17664" lon="-7.48273">
        <ele>19.97682</ele>
        <time>2021-07-12T16:55:32Z</time>
      </trkpt>
      <trkpt lat="37.17709" lon="-7.48318">
        <ele>21.7498</ele>
        <time>2021-07-12T16:55:38Z</time>
      </trkpt>
      <trkpt lat="37.17761" lon="-7.48337">
        <ele>24.02912</ele>
        <time>2021-07-12T16:55:44Z</time>
      </trkpt>
      <trkpt lat="37.17838" lon="-7.48365">
        <ele>28.10183</ele>
        <time>2021-07-12T16:55:50Z</time>
      </trkpt>
      <trkpt lat="37.17922" lon="-7.48383">
        <ele>31.12345</ele>
        <time>2021-07-12T16:55:56Z</time>
      </trkpt>
      <trkpt lat="37.18004" lon="-7.48401">
        <ele>32.41172</ele>
        <time>2021-07-12T16:56:02Z</time>
      </trkpt>
      <trkpt lat="37.18089" lon="-7.48387">
        <ele>35.12734</ele>
        <time>2021-07-12T16:56:08Z</time>
      </trkpt>
      <trkpt lat="37.18153" lon="-7.48335">
        <ele>37.52183</ele>
        <time>2021-07-12T16:56:14Z</time>
      </trkpt>
      <trkpt lat="37.18208" lon="-7.48328">
        <ele>37.30853</ele>
        <time>2021-07-12T16:56:20Z</time>
      </trkpt>
      <trkpt lat="37.18281" lon="-7.48329">
        <ele>35.66617</ele>
        <time>2021-07-12T16:56:26Z</time>
      </trkpt>
      <trkpt lat="37.18352" lon="-7.48343">
        <ele>30.3386</ele>
        <time>2021-07-12T16:56:32Z</time>
      </trkpt>
      <trkpt lat="37.18395" lon="-7.48369">
        <ele>23.79042</ele>
        <time>2021-07-12T16:56:38Z</time>
      </trkpt>
      <trkpt lat="37.18404" lon="-7.48375">
        <ele>22.19605</ele>
        <time>2021-07-12T16:56:44Z</time>
      </trkpt>
      <trkpt lat="37.18412" lon="-7.48358">
        <ele>21.77151</ele>
        <time>2021-07-12T16:56:53Z</time>
      </trkpt>
      <trkpt lat="37.18441" lon="-7.4828">
        <ele>22.13238</ele>
        <time>2021-07-12T16:56:59Z</time>
      </trkpt>
      <trkpt lat="37.18482" lon="-7.48158">
        <ele>19.34628</ele>
        <time>2021-07-12T16:57:05Z</time>
      </trkpt>
      <trkpt lat="37.18506" lon="-7.48035">
        <ele>17.24052</ele>
        <time>2021-07-12T16:57:11Z</time>
      </trkpt>
      <trkpt lat="37.18512" lon="-7.47908">
        <ele>13.06233</ele>
        <time>2021-07-12T16:57:17Z</time>
      </trkpt>
      <trkpt lat="37.18505" lon="-7.47783">
        <ele>9.739793</ele>
        <time>2021-07-12T16:57:23Z</time>
      </trkpt>
      <trkpt lat="37.18487" lon="-7.47669">
        <ele>9.885576</ele>
        <time>2021-07-12T16:57:29Z</time>
      </trkpt>
      <trkpt lat="37.18467" lon="-7.47544">
        <ele>10.18023</ele>
        <time>2021-07-12T16:57:35Z</time>
      </trkpt>
      <trkpt lat="37.18442" lon="-7.47422">
        <ele>8.060815</ele>
        <time>2021-07-12T16:57:41Z</time>
      </trkpt>
      <trkpt lat="37.18425" lon="-7.47325">
        <ele>7.860451</ele>
        <time>2021-07-12T16:57:47Z</time>
      </trkpt>
      <trkpt lat="37.18405" lon="-7.47238">
        <ele>5.019453</ele>
        <time>2021-07-12T16:57:53Z</time>
      </trkpt>
      <trkpt lat="37.18393" lon="-7.47178">
        <ele>4.035494</ele>
        <time>2021-07-12T16:57:59Z</time>
      </trkpt>
      <trkpt lat="37.18373" lon="-7.47135">
        <ele>3.879428</ele>
        <time>2021-07-12T16:58:05Z</time>
      </trkpt>
      <trkpt lat="37.1838" lon="-7.47075">
        <ele>4.026998</ele>
        <time>2021-07-12T16:58:11Z</time>
      </trkpt>
      <trkpt lat="37.18374" lon="-7.47038">
        <ele>3.8511</ele>
        <time>2021-07-12T16:58:17Z</time>
      </trkpt>
      <trkpt lat="37.18376" lon="-7.47016">
        <ele>3.259536</ele>
        <time>2021-07-12T16:58:23Z</time>
      </trkpt>
      <trkpt lat="37.18358" lon="-7.46963">
        <ele>4.237774</ele>
        <time>2021-07-12T16:58:29Z</time>
      </trkpt>
      <trkpt lat="37.18343" lon="-7.46872">
        <ele>5.214594</ele>
        <time>2021-07-12T16:58:35Z</time>
      </trkpt>
      <trkpt lat="37.18338" lon="-7.46771">
        <ele>4.762705</ele>
        <time>2021-07-12T16:58:41Z</time>
      </trkpt>
      <trkpt lat="37.18355" lon="-7.46679">
        <ele>4.035502</ele>
        <time>2021-07-12T16:58:47Z</time>
      </trkpt>
      <trkpt lat="37.18373" lon="-7.46597">
        <ele>3.31199</ele>
        <time>2021-07-12T16:58:53Z</time>
      </trkpt>
      <trkpt lat="37.18389" lon="-7.46524">
        <ele>3.749024</ele>
        <time>2021-07-12T16:58:59Z</time>
      </trkpt>
      <trkpt lat="37.18408" lon="-7.46457">
        <ele>4.282503</ele>
        <time>2021-07-12T16:59:05Z</time>
      </trkpt>
      <trkpt lat="37.18423" lon="-7.46374">
        <ele>3.843519</ele>
        <time>2021-07-12T16:59:11Z</time>
      </trkpt>
      <trkpt lat="37.18442" lon="-7.46285">
        <ele>3.1308</ele>
        <time>2021-07-12T16:59:17Z</time>
      </trkpt>
      <trkpt lat="37.18462" lon="-7.46194">
        <ele>3.671635</ele>
        <time>2021-07-12T16:59:23Z</time>
      </trkpt>
      <trkpt lat="37.18483" lon="-7.46101">
        <ele>4.919566</ele>
        <time>2021-07-12T16:59:29Z</time>
      </trkpt>
      <trkpt lat="37.18503" lon="-7.46009">
        <ele>4.095495</ele>
        <time>2021-07-12T16:59:35Z</time>
      </trkpt>
      <trkpt lat="37.18522" lon="-7.45925">
        <ele>3.229955</ele>
        <time>2021-07-12T16:59:41Z</time>
      </trkpt>
      <trkpt lat="37.18543" lon="-7.45832">
        <ele>2.738168</ele>
        <time>2021-07-12T16:59:47Z</time>
      </trkpt>
      <trkpt lat="37.18562" lon="-7.45748">
        <ele>2.613266</ele>
        <time>2021-07-12T16:59:53Z</time>
      </trkpt>
      <trkpt lat="37.18583" lon="-7.45652">
        <ele>3.257004</ele>
        <time>2021-07-12T16:59:59Z</time>
      </trkpt>
      <trkpt lat="37.18604" lon="-7.45558">
        <ele>2.360839</ele>
        <time>2021-07-12T17:00:05Z</time>
      </trkpt>
      <trkpt lat="37.18623" lon="-7.4547">
        <ele>2.435178</ele>
        <time>2021-07-12T17:00:11Z</time>
      </trkpt>
      <trkpt lat="37.18643" lon="-7.45379">
        <ele>2.126848</ele>
        <time>2021-07-12T17:00:17Z</time>
      </trkpt>
      <trkpt lat="37.18665" lon="-7.45297">
        <ele>3.65757</ele>
        <time>2021-07-12T17:00:23Z</time>
      </trkpt>
      <trkpt lat="37.18688" lon="-7.45209">
        <ele>5.801849</ele>
        <time>2021-07-12T17:00:29Z</time>
      </trkpt>
      <trkpt lat="37.18709" lon="-7.4513">
        <ele>5.654061</ele>
        <time>2021-07-12T17:00:35Z</time>
      </trkpt>
      <trkpt lat="37.18653" lon="-7.4512">
        <ele>5.683993</ele>
        <time>2021-07-12T17:00:41Z</time>
      </trkpt>
      <trkpt lat="37.18585" lon="-7.45142">
        <ele>5.59709</ele>
        <time>2021-07-12T17:00:47Z</time>
      </trkpt>
      <trkpt lat="37.18542" lon="-7.45152">
        <ele>5.915084</ele>
        <time>2021-07-12T17:00:53Z</time>
      </trkpt>
      <trkpt lat="37.18503" lon="-7.45162">
        <ele>6.743364</ele>
        <time>2021-07-12T17:00:59Z</time>
      </trkpt>
      <trkpt lat="37.18458" lon="-7.45173">
        <ele>7.621474</ele>
        <time>2021-07-12T17:01:05Z</time>
      </trkpt>
      <trkpt lat="37.18422" lon="-7.45182">
        <ele>7.251968</ele>
        <time>2021-07-12T17:01:11Z</time>
      </trkpt>
      <trkpt lat="37.18392" lon="-7.45188">
        <ele>7.977796</ele>
        <time>2021-07-12T17:01:17Z</time>
      </trkpt>
      <trkpt lat="37.18358" lon="-7.45197">
        <ele>8.869416</ele>
        <time>2021-07-12T17:01:23Z</time>
      </trkpt>
      <trkpt lat="37.18304" lon="-7.45197">
        <ele>8.429465</ele>
        <time>2021-07-12T17:01:29Z</time>
      </trkpt>
      <trkpt lat="37.18265" lon="-7.45189">
        <ele>7.893853</ele>
        <time>2021-07-12T17:01:35Z</time>
      </trkpt>
      <trkpt lat="37.1823" lon="-7.45178">
        <ele>6.908573</ele>
        <time>2021-07-12T17:01:41Z</time>
      </trkpt>
      <trkpt lat="37.18245" lon="-7.45155">
        <ele>7.901248</ele>
        <time>2021-07-12T17:01:47Z</time>
      </trkpt>
      <trkpt lat="37.18235" lon="-7.45115">
        <ele>8.733722</ele>
        <time>2021-07-12T17:01:53Z</time>
      </trkpt>
      <trkpt lat="37.18225" lon="-7.45072">
        <ele>8.583705</ele>
        <time>2021-07-12T17:01:59Z</time>
      </trkpt>
      <trkpt lat="37.18221" lon="-7.45012">
        <ele>8.501242</ele>
        <time>2021-07-12T17:02:05Z</time>
      </trkpt>
      <trkpt lat="37.18227" lon="-7.44933">
        <ele>7.035276</ele>
        <time>2021-07-12T17:02:11Z</time>
      </trkpt>
      <trkpt lat="37.18226" lon="-7.44882">
        <ele>5.815083</ele>
        <time>2021-07-12T17:02:17Z</time>
      </trkpt>
      <trkpt lat="37.18226" lon="-7.44825">
        <ele>6.948355</ele>
        <time>2021-07-12T17:02:23Z</time>
      </trkpt>
      <trkpt lat="37.18226" lon="-7.44774">
        <ele>8.017355</ele>
        <time>2021-07-12T17:02:29Z</time>
      </trkpt>
      <trkpt lat="37.18226" lon="-7.44749">
        <ele>8.673895</ele>
        <time>2021-07-12T17:02:35Z</time>
      </trkpt>
      <trkpt lat="37.18225" lon="-7.44723">
        <ele>8.811503</ele>
        <time>2021-07-12T17:02:41Z</time>
      </trkpt>
      <trkpt lat="37.18201" lon="-7.44706">
        <ele>9.028632</ele>
        <time>2021-07-12T17:02:47Z</time>
      </trkpt>
      <trkpt lat="37.18179" lon="-7.44709">
        <ele>9.258526</ele>
        <time>2021-07-12T17:02:53Z</time>
      </trkpt>
      <trkpt lat="37.18136" lon="-7.44711">
        <ele>9.420295</ele>
        <time>2021-07-12T17:02:59Z</time>
      </trkpt>
      <trkpt lat="37.18114" lon="-7.44715">
        <ele>9.245062</ele>
        <time>2021-07-12T17:03:05Z</time>
      </trkpt>
      <trkpt lat="37.1809" lon="-7.44686">
        <ele>9.229894</ele>
        <time>2021-07-12T17:03:11Z</time>
      </trkpt>
      <trkpt lat="37.18088" lon="-7.44638">
        <ele>9.033859</ele>
        <time>2021-07-12T17:03:17Z</time>
      </trkpt>
      <trkpt lat="37.18087" lon="-7.44617">
        <ele>8.970797</ele>
        <time>2021-07-12T17:03:23Z</time>
      </trkpt>
      <trkpt lat="37.18084" lon="-7.44578">
        <ele>8.307533</ele>
        <time>2021-07-12T17:03:29Z</time>
      </trkpt>
      <trkpt lat="37.18082" lon="-7.4454">
        <ele>7.38629</ele>
        <time>2021-07-12T17:03:35Z</time>
      </trkpt>
      <trkpt lat="37.18069" lon="-7.44519">
        <ele>7.182531</ele>
        <time>2021-07-12T17:03:41Z</time>
      </trkpt>
      <trkpt lat="37.18041" lon="-7.44503">
        <ele>7.074936</ele>
        <time>2021-07-12T17:03:47Z</time>
      </trkpt>
      <trkpt lat="37.18014" lon="-7.44487">
        <ele>7.010327</ele>
        <time>2021-07-12T17:03:53Z</time>
      </trkpt>
      <trkpt lat="37.17983" lon="-7.4447">
        <ele>6.453444</ele>
        <time>2021-07-12T17:03:59Z</time>
      </trkpt>
      <trkpt lat="37.17956" lon="-7.44453">
        <ele>6.251948</ele>
        <time>2021-07-12T17:04:05Z</time>
      </trkpt>
      <trkpt lat="37.17949" lon="-7.44448">
        <ele>5.6614</ele>
        <time>2021-07-12T17:04:11Z</time>
      </trkpt>
      <trkpt lat="37.17926" lon="-7.44441">
        <ele>5.921541</ele>
        <time>2021-07-12T17:04:17Z</time>
      </trkpt>
      <trkpt lat="37.1792" lon="-7.44472">
        <ele>6.359795</ele>
        <time>2021-07-12T17:04:23Z</time>
      </trkpt>
      <trkpt lat="37.17917" lon="-7.44482">
        <ele>6.766401</ele>
        <time>2021-07-12T17:04:29Z</time>
      </trkpt>
      <trkpt lat="37.17918" lon="-7.44507">
        <ele>7.192242</ele>
        <time>2021-07-12T17:04:35Z</time>
      </trkpt>
      <trkpt lat="37.1792" lon="-7.44548">
        <ele>7.709402</ele>
        <time>2021-07-12T17:04:41Z</time>
      </trkpt>
      <trkpt lat="37.17924" lon="-7.4461">
        <ele>7.635915</ele>
        <time>2021-07-12T17:04:47Z</time>
      </trkpt>
      <trkpt lat="37.17929" lon="-7.4468">
        <ele>7.128932</ele>
        <time>2021-07-12T17:04:53Z</time>
      </trkpt>
      <trkpt lat="37.17931" lon="-7.4473">
        <ele>7.12768</ele>
        <time>2021-07-12T17:04:59Z</time>
      </trkpt>
      <trkpt lat="37.17932" lon="-7.44782">
        <ele>7.392364</ele>
        <time>2021-07-12T17:05:05Z</time>
      </trkpt>
      <trkpt lat="37.17935" lon="-7.44827">
        <ele>7.299584</ele>
        <time>2021-07-12T17:05:11Z</time>
      </trkpt>
      <trkpt lat="37.17938" lon="-7.44856">
        <ele>7.249805</ele>
        <time>2021-07-12T17:05:17Z</time>
      </trkpt>
      <trkpt lat="37.17931" lon="-7.44862">
        <ele>7.344568</ele>
        <time>2021-07-12T17:05:23Z</time>
      </trkpt>
      <trkpt lat="37.17906" lon="-7.44817">
        <ele>8.046518</ele>
        <time>2021-07-12T17:05:29Z</time>
      </trkpt>
      <trkpt lat="37.17906" lon="-7.44821">
        <ele>8.2278</ele>
        <time>2021-07-12T17:05:50Z</time>
      </trkpt>
      <trkpt lat="37.17905" lon="-7.44826">
        <ele>7.972698</ele>
        <time>2021-07-12T17:06:43Z</time>
      </trkpt>
      <trkpt lat="37.17909" lon="-7.44822">
        <ele>8.158397</ele>
        <time>2021-07-12T17:07:09Z</time>
      </trkpt>
      <trkpt lat="37.1794" lon="-7.44833">
        <ele>7.776832</ele>
        <time>2021-07-12T17:07:15Z</time>
      </trkpt>
      <trkpt lat="37.17944" lon="-7.44832">
        <ele>7.073291</ele>
        <time>2021-07-12T17:07:30Z</time>
      </trkpt>
      <trkpt lat="37.1794" lon="-7.44832">
        <ele>8.090254</ele>
        <time>2021-07-12T17:07:44Z</time>
      </trkpt>
      <trkpt lat="37.17937" lon="-7.44834">
        <ele>7.597805</ele>
        <time>2021-07-12T17:07:50Z</time>
      </trkpt>
      <trkpt lat="37.17934" lon="-7.44831">
        <ele>8.249345</ele>
        <time>2021-07-12T17:08:13Z</time>
      </trkpt>
      <trkpt lat="37.17928" lon="-7.44829">
        <ele>7.749853</ele>
        <time>2021-07-12T17:08:19Z</time>
      </trkpt>
      <trkpt lat="37.17926" lon="-7.44825">
        <ele>7.049881</ele>
        <time>2021-07-12T17:08:26Z</time>
      </trkpt>
      <trkpt lat="37.17927" lon="-7.4482">
        <ele>7.728575</ele>
        <time>2021-07-12T17:08:33Z</time>
      </trkpt>
      <trkpt lat="37.17918" lon="-7.44829">
        <ele>7.489995</ele>
        <time>2021-07-12T17:09:07Z</time>
      </trkpt>
      <trkpt lat="37.17918" lon="-7.44828">
        <ele>7.489995</ele>
        <time>2021-07-12T17:10:02Z</time>
      </trkpt>
      <trkpt lat="37.17909" lon="-7.44834">
        <ele>7.489995</ele>
        <time>2021-07-12T17:10:25Z</time>
      </trkpt>
      <trkpt lat="37.17918" lon="-7.44829">
        <ele>7.489995</ele>
        <time>2021-07-12T17:10:39Z</time>
      </trkpt>
      <trkpt lat="37.17912" lon="-7.4483">
        <ele>7.489995</ele>
        <time>2021-07-12T17:10:48Z</time>
      </trkpt>
      <trkpt lat="37.17918" lon="-7.44828">
        <ele>7.181192</ele>
        <time>2021-07-12T17:10:54Z</time>
      </trkpt>
      <trkpt lat="37.17926" lon="-7.44824">
        <ele>6.878018</ele>
        <time>2021-07-12T17:11:01Z</time>
      </trkpt>
      <trkpt lat="37.17918" lon="-7.44829">
        <ele>7.489995</ele>
        <time>2021-07-12T17:11:34Z</time>
      </trkpt>
      <trkpt lat="37.17911" lon="-7.4483">
        <ele>7.489995</ele>
        <time>2021-07-12T17:12:25Z</time>
      </trkpt>
      <trkpt lat="37.17917" lon="-7.44829">
        <ele>7.489995</ele>
        <time>2021-07-12T17:12:48Z</time>
      </trkpt>
      <trkpt lat="37.17918" lon="-7.44829">
        <ele>9.519995</ele>
        <time>2021-07-12T17:13:48Z</time>
      </trkpt>
      <trkpt lat="37.17917" lon="-7.44834">
        <ele>9.519995</ele>
        <time>2021-07-12T17:14:03Z</time>
      </trkpt>
      <trkpt lat="37.17918" lon="-7.44829">
        <ele>9.519995</ele>
        <time>2021-07-12T17:14:16Z</time>
      </trkpt>
      <trkpt lat="37.17917" lon="-7.44834">
        <ele>9.519995</ele>
        <time>2021-07-12T17:14:47Z</time>
      </trkpt>
      <trkpt lat="37.17925" lon="-7.44844">
        <ele>9.519995</ele>
        <time>2021-07-12T17:15:06Z</time>
      </trkpt>
      <trkpt lat="37.17922" lon="-7.44843">
        <ele>9.519995</ele>
        <time>2021-07-12T17:15:12Z</time>
      </trkpt>
      <trkpt lat="37.17917" lon="-7.44848">
        <ele>9.519995</ele>
        <time>2021-07-12T17:15:18Z</time>
      </trkpt>
      <trkpt lat="37.17918" lon="-7.44832">
        <ele>9.519995</ele>
        <time>2021-07-12T17:15:30Z</time>
      </trkpt>
      <trkpt lat="37.17917" lon="-7.44838">
        <ele>9.519995</ele>
        <time>2021-07-12T17:15:56Z</time>
      </trkpt>
      <trkpt lat="37.17915" lon="-7.44848">
        <ele>9.519995</ele>
        <time>2021-07-12T17:16:26Z</time>
      </trkpt>
      <trkpt lat="37.17917" lon="-7.44839">
        <ele>9.519995</ele>
        <time>2021-07-12T17:16:32Z</time>
      </trkpt>
      <trkpt lat="37.17918" lon="-7.44829">
        <ele>9.519995</ele>
        <time>2021-07-12T17:16:44Z</time>
      </trkpt>
      <trkpt lat="37.17917" lon="-7.44836">
        <ele>9.519995</ele>
        <time>2021-07-12T17:16:50Z</time>
      </trkpt>
      <trkpt lat="37.1792" lon="-7.44844">
        <ele>9.519995</ele>
        <time>2021-07-12T17:17:02Z</time>
      </trkpt>
      <trkpt lat="37.17916" lon="-7.4485">
        <ele>9.519995</ele>
        <time>2021-07-12T17:17:08Z</time>
      </trkpt>
      <trkpt lat="37.17918" lon="-7.4483">
        <ele>9.519995</ele>
        <time>2021-07-12T17:17:14Z</time>
      </trkpt>
      <trkpt lat="37.17926" lon="-7.44838">
        <ele>9.519995</ele>
        <time>2021-07-12T17:17:20Z</time>
      </trkpt>
      <trkpt lat="37.17933" lon="-7.44845">
        <ele>9.519995</ele>
        <time>2021-07-12T17:17:26Z</time>
      </trkpt>
      <trkpt lat="37.17924" lon="-7.44844">
        <ele>9.519995</ele>
        <time>2021-07-12T17:17:32Z</time>
      </trkpt>
      <trkpt lat="37.17917" lon="-7.44848">
        <ele>9.519995</ele>
        <time>2021-07-12T17:17:38Z</time>
      </trkpt>
      <trkpt lat="37.17924" lon="-7.44843">
        <ele>9.519995</ele>
        <time>2021-07-12T17:17:44Z</time>
      </trkpt>
      <trkpt lat="37.17919" lon="-7.44831">
        <ele>9.519995</ele>
        <time>2021-07-12T17:17:50Z</time>
      </trkpt>
      <trkpt lat="37.17917" lon="-7.44835">
        <ele>9.519995</ele>
        <time>2021-07-12T17:18:08Z</time>
      </trkpt>
      <trkpt lat="37.17918" lon="-7.44842">
        <ele>9.519995</ele>
        <time>2021-07-12T17:18:14Z</time>
      </trkpt>
      <trkpt lat="37.17952" lon="-7.4482">
        <ele>7.45195</ele>
        <time>2021-07-12T17:18:24Z</time>
      </trkpt>
      <trkpt lat="37.17957" lon="-7.44835">
        <ele>7.296029</ele>
        <time>2021-07-12T17:18:30Z</time>
      </trkpt>
      <trkpt lat="37.17943" lon="-7.44825">
        <ele>7.01296</ele>
        <time>2021-07-12T17:18:36Z</time>
      </trkpt>
      <trkpt lat="37.1794" lon="-7.44814">
        <ele>7.316199</ele>
        <time>2021-07-12T17:18:43Z</time>
      </trkpt>
      <trkpt lat="37.17925" lon="-7.44824">
        <ele>7.702138</ele>
        <time>2021-07-12T17:18:49Z</time>
      </trkpt>
      <trkpt lat="37.1792" lon="-7.44832">
        <ele>7.504263</ele>
        <time>2021-07-12T17:18:55Z</time>
      </trkpt>
      <trkpt lat="37.17929" lon="-7.44826">
        <ele>7.611477</ele>
        <time>2021-07-12T17:19:01Z</time>
      </trkpt>
      <trkpt lat="37.17924" lon="-7.44826">
        <ele>7.390318</ele>
        <time>2021-07-12T17:19:11Z</time>
      </trkpt>
      <trkpt lat="37.17919" lon="-7.44827">
        <ele>7.456808</ele>
        <time>2021-07-12T17:19:17Z</time>
      </trkpt>
      <trkpt lat="37.17924" lon="-7.44824">
        <ele>7.077361</ele>
        <time>2021-07-12T17:19:23Z</time>
      </trkpt>
      <trkpt lat="37.17928" lon="-7.44823">
        <ele>7.376236</ele>
        <time>2021-07-12T17:19:33Z</time>
      </trkpt>
      <trkpt lat="37.17921" lon="-7.44824">
        <ele>7.670597</ele>
        <time>2021-07-12T17:19:51Z</time>
      </trkpt>
      <trkpt lat="37.17917" lon="-7.44824">
        <ele>7.464137</ele>
        <time>2021-07-12T17:19:58Z</time>
      </trkpt>
      <trkpt lat="37.17921" lon="-7.44825">
        <ele>8.782581</ele>
        <time>2021-07-12T17:20:05Z</time>
      </trkpt>
      <trkpt lat="37.17917" lon="-7.44824">
        <ele>6.457927</ele>
        <time>2021-07-12T17:20:16Z</time>
      </trkpt>
      <trkpt lat="37.17918" lon="-7.4482">
        <ele>8.033079</ele>
        <time>2021-07-12T17:20:27Z</time>
      </trkpt>
      <trkpt lat="37.17922" lon="-7.44819">
        <ele>7.739838</ele>
        <time>2021-07-12T17:20:35Z</time>
      </trkpt>
      <trkpt lat="37.17928" lon="-7.44818">
        <ele>8.065148</ele>
        <time>2021-07-12T17:20:41Z</time>
      </trkpt>
      <trkpt lat="37.17931" lon="-7.4482">
        <ele>8.355429</ele>
        <time>2021-07-12T17:21:01Z</time>
      </trkpt>
      <trkpt lat="37.17929" lon="-7.44823">
        <ele>7.289083</ele>
        <time>2021-07-12T17:21:16Z</time>
      </trkpt>
      <trkpt lat="37.17925" lon="-7.44819">
        <ele>6.837718</ele>
        <time>2021-07-12T17:21:26Z</time>
      </trkpt>
      <trkpt lat="37.17929" lon="-7.4482">
        <ele>7.906524</ele>
        <time>2021-07-12T17:22:13Z</time>
      </trkpt>
      <trkpt lat="37.17929" lon="-7.44825">
        <ele>8.807251</ele>
        <time>2021-07-12T17:22:39Z</time>
      </trkpt>
      <trkpt lat="37.17932" lon="-7.44828">
        <ele>7.474943</ele>
        <time>2021-07-12T17:22:54Z</time>
      </trkpt>
      <trkpt lat="37.17931" lon="-7.44822">
        <ele>8.015621</ele>
        <time>2021-07-12T17:23:05Z</time>
      </trkpt>
      <trkpt lat="37.17934" lon="-7.44818">
        <ele>8.139961</ele>
        <time>2021-07-12T17:23:44Z</time>
      </trkpt>
      <trkpt lat="37.17933" lon="-7.44814">
        <ele>6.760709</ele>
        <time>2021-07-12T17:24:44Z</time>
      </trkpt>
      <trkpt lat="37.17933" lon="-7.44814">
        <ele>7.859973</ele>
        <time>2021-07-12T17:25:44Z</time>
      </trkpt>
      <trkpt lat="37.17933" lon="-7.44805">
        <ele>7.476604</ele>
        <time>2021-07-12T17:26:14Z</time>
      </trkpt>
      <trkpt lat="37.17924" lon="-7.44656">
        <ele>7.313527</ele>
        <time>2021-07-12T17:26:25Z</time>
      </trkpt>
      <trkpt lat="37.17917" lon="-7.44513">
        <ele>7.477564</ele>
        <time>2021-07-12T17:26:36Z</time>
      </trkpt>
      <trkpt lat="37.17922" lon="-7.44417">
        <ele>6.573452</ele>
        <time>2021-07-12T17:26:47Z</time>
      </trkpt>
      <trkpt lat="37.17938" lon="-7.44306">
        <ele>5.664099</ele>
        <time>2021-07-12T17:26:58Z</time>
      </trkpt>
      <trkpt lat="37.17972" lon="-7.44186">
        <ele>7.011444</ele>
        <time>2021-07-12T17:27:09Z</time>
      </trkpt>
      <trkpt lat="37.18007" lon="-7.44065">
        <ele>5.28921</ele>
        <time>2021-07-12T17:27:20Z</time>
      </trkpt>
      <trkpt lat="37.18061" lon="-7.43886">
        <ele>7.540917</ele>
        <time>2021-07-12T17:27:31Z</time>
      </trkpt>
      <trkpt lat="37.1812" lon="-7.43686">
        <ele>9.0827</ele>
        <time>2021-07-12T17:27:42Z</time>
      </trkpt>
      <trkpt lat="37.18182" lon="-7.43479">
        <ele>10.11311</ele>
        <time>2021-07-12T17:27:53Z</time>
      </trkpt>
      <trkpt lat="37.18252" lon="-7.43243">
        <ele>12.07546</ele>
        <time>2021-07-12T17:28:04Z</time>
      </trkpt>
      <trkpt lat="37.18323" lon="-7.43006">
        <ele>7.028394</ele>
        <time>2021-07-12T17:28:15Z</time>
      </trkpt>
      <trkpt lat="37.18388" lon="-7.42792">
        <ele>6.623512</ele>
        <time>2021-07-12T17:28:26Z</time>
      </trkpt>
      <trkpt lat="37.18456" lon="-7.4256">
        <ele>7.517417</ele>
        <time>2021-07-12T17:28:37Z</time>
      </trkpt>
      <trkpt lat="37.18518" lon="-7.42356">
        <ele>12.5314</ele>
        <time>2021-07-12T17:28:48Z</time>
      </trkpt>
      <trkpt lat="37.18566" lon="-7.42195">
        <ele>11.60388</ele>
        <time>2021-07-12T17:28:59Z</time>
      </trkpt>
      <trkpt lat="37.18603" lon="-7.42155">
        <ele>7.274999</ele>
        <time>2021-07-12T17:29:10Z</time>
      </trkpt>
      <trkpt lat="37.18751" lon="-7.42233">
        <ele>9.531082</ele>
        <time>2021-07-12T17:29:21Z</time>
      </trkpt>
      <trkpt lat="37.189" lon="-7.42304">
        <ele>5.07022</ele>
        <time>2021-07-12T17:29:32Z</time>
      </trkpt>
      <trkpt lat="37.19059" lon="-7.42382">
        <ele>7.119137</ele>
        <time>2021-07-12T17:29:43Z</time>
      </trkpt>
      <trkpt lat="37.19162" lon="-7.42424">
        <ele>3.838437</ele>
        <time>2021-07-12T17:29:54Z</time>
      </trkpt>
      <trkpt lat="37.19245" lon="-7.42451">
        <ele>2.674387</ele>
        <time>2021-07-12T17:30:05Z</time>
      </trkpt>
      <trkpt lat="37.19268" lon="-7.42452">
        <ele>4.393815</ele>
        <time>2021-07-12T17:30:16Z</time>
      </trkpt>
      <trkpt lat="37.19294" lon="-7.42436">
        <ele>7.155124</ele>
        <time>2021-07-12T17:30:27Z</time>
      </trkpt>
      <trkpt lat="37.19336" lon="-7.42482">
        <ele>6.128845</ele>
        <time>2021-07-12T17:30:38Z</time>
      </trkpt>
      <trkpt lat="37.19418" lon="-7.42534">
        <ele>5.529064</ele>
        <time>2021-07-12T17:30:49Z</time>
      </trkpt>
      <trkpt lat="37.19521" lon="-7.42594">
        <ele>3.890778</ele>
        <time>2021-07-12T17:31:00Z</time>
      </trkpt>
      <trkpt lat="37.19635" lon="-7.42659">
        <ele>2.962892</ele>
        <time>2021-07-12T17:31:11Z</time>
      </trkpt>
      <trkpt lat="37.19713" lon="-7.42704">
        <ele>2.439755</ele>
        <time>2021-07-12T17:31:22Z</time>
      </trkpt>
      <trkpt lat="37.19769" lon="-7.42735">
        <ele>3.012179</ele>
        <time>2021-07-12T17:31:33Z</time>
      </trkpt>
      <trkpt lat="37.19925" lon="-7.42836">
        <ele>3.760776</ele>
        <time>2021-07-12T17:31:44Z</time>
      </trkpt>
      <trkpt lat="37.20107" lon="-7.42979">
        <ele>3.166706</ele>
        <time>2021-07-12T17:31:55Z</time>
      </trkpt>
      <trkpt lat="37.20279" lon="-7.43127">
        <ele>2.463749</ele>
        <time>2021-07-12T17:32:06Z</time>
      </trkpt>
      <trkpt lat="37.20441" lon="-7.43265">
        <ele>3.335126</ele>
        <time>2021-07-12T17:32:17Z</time>
      </trkpt>
      <trkpt lat="37.20622" lon="-7.4342">
        <ele>4.572442</ele>
        <time>2021-07-12T17:32:28Z</time>
      </trkpt>
      <trkpt lat="37.20812" lon="-7.43582">
        <ele>3.698484</ele>
        <time>2021-07-12T17:32:39Z</time>
      </trkpt>
      <trkpt lat="37.21002" lon="-7.43724">
        <ele>4.281922</ele>
        <time>2021-07-12T17:32:50Z</time>
      </trkpt>
      <trkpt lat="37.21205" lon="-7.43814">
        <ele>3.929294</ele>
        <time>2021-07-12T17:33:01Z</time>
      </trkpt>
      <trkpt lat="37.21392" lon="-7.43843">
        <ele>3.442181</ele>
        <time>2021-07-12T17:33:12Z</time>
      </trkpt>
      <trkpt lat="37.21618" lon="-7.43838">
        <ele>4.336944</ele>
        <time>2021-07-12T17:33:23Z</time>
      </trkpt>
      <trkpt lat="37.21843" lon="-7.43798">
        <ele>2.924668</ele>
        <time>2021-07-12T17:33:34Z</time>
      </trkpt>
      <trkpt lat="37.21964" lon="-7.43965">
        <ele>4.756488</ele>
        <time>2021-07-12T17:33:45Z</time>
      </trkpt>
      <trkpt lat="37.22018" lon="-7.44227">
        <ele>4.393255</ele>
        <time>2021-07-12T17:33:56Z</time>
      </trkpt>
      <trkpt lat="37.22099" lon="-7.44414">
        <ele>3.082535</ele>
        <time>2021-07-12T17:34:07Z</time>
      </trkpt>
      <trkpt lat="37.22251" lon="-7.44474">
        <ele>2.407045</ele>
        <time>2021-07-12T17:34:18Z</time>
      </trkpt>
      <trkpt lat="37.22429" lon="-7.4454">
        <ele>4.38657</ele>
        <time>2021-07-12T17:34:29Z</time>
      </trkpt>
      <trkpt lat="37.22601" lon="-7.44641">
        <ele>7.697893</ele>
        <time>2021-07-12T17:34:40Z</time>
      </trkpt>
      <trkpt lat="37.22779" lon="-7.44747">
        <ele>17.07048</ele>
        <time>2021-07-12T17:34:51Z</time>
      </trkpt>
      <trkpt lat="37.22963" lon="-7.44829">
        <ele>21.84756</ele>
        <time>2021-07-12T17:35:02Z</time>
      </trkpt>
      <trkpt lat="37.23153" lon="-7.44693">
        <ele>19.33138</ele>
        <time>2021-07-12T17:35:13Z</time>
      </trkpt>
      <trkpt lat="37.23359" lon="-7.44471">
        <ele>7.402358</ele>
        <time>2021-07-12T17:35:24Z</time>
      </trkpt>
      <trkpt lat="37.2352" lon="-7.44238">
        <ele>8.698876</ele>
        <time>2021-07-12T17:35:35Z</time>
      </trkpt>
      <trkpt lat="37.23596" lon="-7.43955">
        <ele>12.97141</ele>
        <time>2021-07-12T17:35:46Z</time>
      </trkpt>
      <trkpt lat="37.23659" lon="-7.43666">
        <ele>14.41439</ele>
        <time>2021-07-12T17:35:57Z</time>
      </trkpt>
      <trkpt lat="37.23725" lon="-7.43369">
        <ele>16.83272</ele>
        <time>2021-07-12T17:36:08Z</time>
      </trkpt>
      <trkpt lat="37.23761" lon="-7.43059">
        <ele>15.60084</ele>
        <time>2021-07-12T17:36:19Z</time>
      </trkpt>
      <trkpt lat="37.23763" lon="-7.42749">
        <ele>12.65545</ele>
        <time>2021-07-12T17:36:30Z</time>
      </trkpt>
      <trkpt lat="37.23763" lon="-7.42447">
        <ele>15.46678</ele>
        <time>2021-07-12T17:36:41Z</time>
      </trkpt>
      <trkpt lat="37.23762" lon="-7.42219">
        <ele>25.28354</ele>
        <time>2021-07-12T17:36:52Z</time>
      </trkpt>
      <trkpt lat="37.23761" lon="-7.41976">
        <ele>27.63593</ele>
        <time>2021-07-12T17:37:03Z</time>
      </trkpt>
      <trkpt lat="37.23759" lon="-7.4172">
        <ele>22.87219</ele>
        <time>2021-07-12T17:37:14Z</time>
      </trkpt>
      <trkpt lat="37.23764" lon="-7.41456">
        <ele>13.19687</ele>
        <time>2021-07-12T17:37:25Z</time>
      </trkpt>
      <trkpt lat="37.23821" lon="-7.41182">
        <ele>10.13497</ele>
        <time>2021-07-12T17:37:36Z</time>
      </trkpt>
      <trkpt lat="37.23882" lon="-7.40905">
        <ele>12.60215</ele>
        <time>2021-07-12T17:37:47Z</time>
      </trkpt>
      <trkpt lat="37.23872" lon="-7.40639">
        <ele>10.83943</ele>
        <time>2021-07-12T17:37:58Z</time>
      </trkpt>
      <trkpt lat="37.23831" lon="-7.4049">
        <ele>5.710406</ele>
        <time>2021-07-12T17:38:09Z</time>
      </trkpt>
      <trkpt lat="37.2368" lon="-7.40408">
        <ele>4.030917</ele>
        <time>2021-07-12T17:38:20Z</time>
      </trkpt>
      <trkpt lat="37.2358" lon="-7.40399">
        <ele>0.088936</ele>
        <time>2021-07-12T17:38:31Z</time>
      </trkpt>
      <trkpt lat="37.23572" lon="-7.40397">
        <ele>4.010281</ele>
        <time>2021-07-12T17:38:44Z</time>
      </trkpt>
      <trkpt lat="37.23393" lon="-7.40388">
        <ele>5.433099</ele>
        <time>2021-07-12T17:38:55Z</time>
      </trkpt>
      <trkpt lat="37.23217" lon="-7.40315">
        <ele>3.85818</ele>
        <time>2021-07-12T17:39:06Z</time>
      </trkpt>
      <trkpt lat="37.23132" lon="-7.40231">
        <ele>6.847499</ele>
        <time>2021-07-12T17:39:17Z</time>
      </trkpt>
      <trkpt lat="37.23189" lon="-7.40139">
        <ele>3.715122</ele>
        <time>2021-07-12T17:39:28Z</time>
      </trkpt>
      <trkpt lat="37.23238" lon="-7.39943">
        <ele>2.971504</ele>
        <time>2021-07-12T17:39:39Z</time>
      </trkpt>
      <trkpt lat="37.23156" lon="-7.3985">
        <ele>8.42063</ele>
        <time>2021-07-12T17:39:50Z</time>
      </trkpt>
      <trkpt lat="37.23039" lon="-7.3978">
        <ele>16.75134</ele>
        <time>2021-07-12T17:40:01Z</time>
      </trkpt>
      <trkpt lat="37.23065" lon="-7.39675">
        <ele>20.61211</ele>
        <time>2021-07-12T17:40:12Z</time>
      </trkpt>
      <trkpt lat="37.23065" lon="-7.39677">
        <ele>30.33538</ele>
        <time>2021-07-12T17:41:12Z</time>
      </trkpt>
      <trkpt lat="37.23067" lon="-7.39674">
        <ele>35.52146</ele>
        <time>2021-07-12T17:41:27Z</time>
      </trkpt>
      <trkpt lat="37.23067" lon="-7.39674">
        <ele>36.62949</ele>
        <time>2021-07-12T17:42:27Z</time>
      </trkpt>
      <trkpt lat="37.23066" lon="-7.3968">
        <ele>35.36618</ele>
        <time>2021-07-12T17:43:02Z</time>
      </trkpt>
      <trkpt lat="37.23071" lon="-7.39795">
        <ele>28.96044</ele>
        <time>2021-07-12T17:43:13Z</time>
      </trkpt>
      <trkpt lat="37.23219" lon="-7.39876">
        <ele>15.6477</ele>
        <time>2021-07-12T17:43:24Z</time>
      </trkpt>
      <trkpt lat="37.23247" lon="-7.39931">
        <ele>11.08048</ele>
        <time>2021-07-12T17:43:35Z</time>
      </trkpt>
      <trkpt lat="37.23177" lon="-7.40182">
        <ele>9.440035</ele>
        <time>2021-07-12T17:43:46Z</time>
      </trkpt>
      <trkpt lat="37.2317" lon="-7.40198">
        <ele>10.89679</ele>
        <time>2021-07-12T17:43:57Z</time>
      </trkpt>
      <trkpt lat="37.23149" lon="-7.40234">
        <ele>10.54267</ele>
        <time>2021-07-12T17:44:08Z</time>
      </trkpt>
      <trkpt lat="37.23043" lon="-7.40106">
        <ele>16.31305</ele>
        <time>2021-07-12T17:44:19Z</time>
      </trkpt>
      <trkpt lat="37.22826" lon="-7.40133">
        <ele>30.52463</ele>
        <time>2021-07-12T17:44:30Z</time>
      </trkpt>
      <trkpt lat="37.22687" lon="-7.40299">
        <ele>42.65016</ele>
        <time>2021-07-12T17:44:41Z</time>
      </trkpt>
      <trkpt lat="37.22617" lon="-7.40355">
        <ele>44.68954</ele>
        <time>2021-07-12T17:44:52Z</time>
      </trkpt>
      <trkpt lat="37.22577" lon="-7.40372">
        <ele>47.35529</ele>
        <time>2021-07-12T17:45:03Z</time>
      </trkpt>
      <trkpt lat="37.22493" lon="-7.40299">
        <ele>46.93292</ele>
        <time>2021-07-12T17:45:14Z</time>
      </trkpt>
      <trkpt lat="37.22397" lon="-7.40212">
        <ele>44.93233</ele>
        <time>2021-07-12T17:45:25Z</time>
      </trkpt>
      <trkpt lat="37.22316" lon="-7.40153">
        <ele>40.5693</ele>
        <time>2021-07-12T17:45:36Z</time>
      </trkpt>
      <trkpt lat="37.22262" lon="-7.4013">
        <ele>38.51762</ele>
        <time>2021-07-12T17:45:47Z</time>
      </trkpt>
      <trkpt lat="37.2229" lon="-7.40121">
        <ele>40.51032</ele>
        <time>2021-07-12T17:45:58Z</time>
      </trkpt>
      <trkpt lat="37.22293" lon="-7.40124">
        <ele>38.40319</ele>
        <time>2021-07-12T17:46:12Z</time>
      </trkpt>
      <trkpt lat="37.22296" lon="-7.40127">
        <ele>41.62205</ele>
        <time>2021-07-12T17:46:29Z</time>
      </trkpt>
      <trkpt lat="37.22293" lon="-7.40136">
        <ele>41.87096</ele>
        <time>2021-07-12T17:46:44Z</time>
      </trkpt>
      <trkpt lat="37.22294" lon="-7.40128">
        <ele>40.64162</ele>
        <time>2021-07-12T17:46:55Z</time>
      </trkpt>
      <trkpt lat="37.22291" lon="-7.40126">
        <ele>37.6374</ele>
        <time>2021-07-12T17:47:24Z</time>
      </trkpt>
      <trkpt lat="37.22292" lon="-7.40123">
        <ele>41.1295</ele>
        <time>2021-07-12T17:48:24Z</time>
      </trkpt>
      <trkpt lat="37.22292" lon="-7.40128">
        <ele>35.08789</ele>
        <time>2021-07-12T17:48:49Z</time>
      </trkpt>
      <trkpt lat="37.22296" lon="-7.40129">
        <ele>31.26449</ele>
        <time>2021-07-12T17:49:00Z</time>
      </trkpt>
      <trkpt lat="37.22294" lon="-7.40123">
        <ele>32.21861</ele>
        <time>2021-07-12T17:49:11Z</time>
      </trkpt>
      <trkpt lat="37.22293" lon="-7.40116">
        <ele>31.08468</ele>
        <time>2021-07-12T17:49:27Z</time>
      </trkpt>
      <trkpt lat="37.22289" lon="-7.40121">
        <ele>32.25738</ele>
        <time>2021-07-12T17:49:48Z</time>
      </trkpt>
      <trkpt lat="37.22291" lon="-7.40116">
        <ele>38.39903</ele>
        <time>2021-07-12T17:50:30Z</time>
      </trkpt>
      <trkpt lat="37.22296" lon="-7.40117">
        <ele>40.63825</ele>
        <time>2021-07-12T17:50:45Z</time>
      </trkpt>
      <trkpt lat="37.22298" lon="-7.40121">
        <ele>41.62845</ele>
        <time>2021-07-12T17:50:56Z</time>
      </trkpt>
      <trkpt lat="37.22297" lon="-7.40126">
        <ele>43.45441</ele>
        <time>2021-07-12T17:51:28Z</time>
      </trkpt>
      <trkpt lat="37.22301" lon="-7.40124">
        <ele>42.74173</ele>
        <time>2021-07-12T17:51:41Z</time>
      </trkpt>
      <trkpt lat="37.22298" lon="-7.40128">
        <ele>44.37048</ele>
        <time>2021-07-12T17:51:52Z</time>
      </trkpt>
      <trkpt lat="37.22302" lon="-7.40129">
        <ele>44.24023</ele>
        <time>2021-07-12T17:52:12Z</time>
      </trkpt>
      <trkpt lat="37.22306" lon="-7.4012">
        <ele>40.9799</ele>
        <time>2021-07-12T17:52:23Z</time>
      </trkpt>
      <trkpt lat="37.22302" lon="-7.40123">
        <ele>37.6589</ele>
        <time>2021-07-12T17:52:34Z</time>
      </trkpt>
      <trkpt lat="37.22298" lon="-7.40125">
        <ele>41.75609</ele>
        <time>2021-07-12T17:53:18Z</time>
      </trkpt>
      <trkpt lat="37.22294" lon="-7.40128">
        <ele>40.59683</ele>
        <time>2021-07-12T17:53:29Z</time>
      </trkpt>
      <trkpt lat="37.22298" lon="-7.40126">
        <ele>36.65211</ele>
        <time>2021-07-12T17:53:56Z</time>
      </trkpt>
      <trkpt lat="37.22295" lon="-7.40134">
        <ele>47.29222</ele>
        <time>2021-07-12T17:54:07Z</time>
      </trkpt>
      <trkpt lat="37.22355" lon="-7.4017">
        <ele>47.84019</ele>
        <time>2021-07-12T17:54:18Z</time>
      </trkpt>
      <trkpt lat="37.22478" lon="-7.40278">
        <ele>51.77366</ele>
        <time>2021-07-12T17:54:29Z</time>
      </trkpt>
      <trkpt lat="37.22571" lon="-7.40341">
        <ele>51.87956</ele>
        <time>2021-07-12T17:54:40Z</time>
      </trkpt>
      <trkpt lat="37.22711" lon="-7.40272">
        <ele>44.54049</ele>
        <time>2021-07-12T17:54:51Z</time>
      </trkpt>
      <trkpt lat="37.22853" lon="-7.40111">
        <ele>31.54548</ele>
        <time>2021-07-12T17:55:02Z</time>
      </trkpt>
      <trkpt lat="37.23044" lon="-7.40102">
        <ele>16.82191</ele>
        <time>2021-07-12T17:55:13Z</time>
      </trkpt>
      <trkpt lat="37.23155" lon="-7.40185">
        <ele>5.476193</ele>
        <time>2021-07-12T17:55:24Z</time>
      </trkpt>
      <trkpt lat="37.2323" lon="-7.40324">
        <ele>-0.238794</ele>
        <time>2021-07-12T17:55:35Z</time>
      </trkpt>
      <trkpt lat="37.23407" lon="-7.40387">
        <ele>1.945552</ele>
        <time>2021-07-12T17:55:46Z</time>
      </trkpt>
      <trkpt lat="37.23584" lon="-7.40397">
        <ele>3.683422</ele>
        <time>2021-07-12T17:55:57Z</time>
      </trkpt>
      <trkpt lat="37.23667" lon="-7.40363">
        <ele>3.673305</ele>
        <time>2021-07-12T17:56:08Z</time>
      </trkpt>
      <trkpt lat="37.23682" lon="-7.40299">
        <ele>5.008166</ele>
        <time>2021-07-12T17:56:14Z</time>
      </trkpt>
      <trkpt lat="37.23691" lon="-7.40172">
        <ele>8.827057</ele>
        <time>2021-07-12T17:56:25Z</time>
      </trkpt>
      <trkpt lat="37.23673" lon="-7.40018">
        <ele>5.814098</ele>
        <time>2021-07-12T17:56:36Z</time>
      </trkpt>
      <trkpt lat="37.23704" lon="-7.39823">
        <ele>4.599289</ele>
        <time>2021-07-12T17:56:47Z</time>
      </trkpt>
      <trkpt lat="37.2369" lon="-7.39597">
        <ele>4.218943</ele>
        <time>2021-07-12T17:56:58Z</time>
      </trkpt>
      <trkpt lat="37.23676" lon="-7.39456">
        <ele>2.066814</ele>
        <time>2021-07-12T17:57:09Z</time>
      </trkpt>
      <trkpt lat="37.23677" lon="-7.39364">
        <ele>5.654406</ele>
        <time>2021-07-12T17:57:20Z</time>
      </trkpt>
      <trkpt lat="37.23815" lon="-7.39308">
        <ele>9.843278</ele>
        <time>2021-07-12T17:57:31Z</time>
      </trkpt>
      <trkpt lat="37.23834" lon="-7.39161">
        <ele>8.692696</ele>
        <time>2021-07-12T17:57:42Z</time>
      </trkpt>
      <trkpt lat="37.23866" lon="-7.3908">
        <ele>8.400378</ele>
        <time>2021-07-12T17:57:53Z</time>
      </trkpt>
      <trkpt lat="37.23911" lon="-7.39">
        <ele>8.777295</ele>
        <time>2021-07-12T17:58:04Z</time>
      </trkpt>
      <trkpt lat="37.23968" lon="-7.38826">
        <ele>15.92095</ele>
        <time>2021-07-12T17:58:15Z</time>
      </trkpt>
      <trkpt lat="37.24035" lon="-7.38653">
        <ele>18.61517</ele>
        <time>2021-07-12T17:58:26Z</time>
      </trkpt>
      <trkpt lat="37.24101" lon="-7.38487">
        <ele>24.17325</ele>
        <time>2021-07-12T17:58:37Z</time>
      </trkpt>
      <trkpt lat="37.24257" lon="-7.3837">
        <ele>28.9241</ele>
        <time>2021-07-12T17:58:48Z</time>
      </trkpt>
      <trkpt lat="37.24407" lon="-7.38294">
        <ele>40.60003</ele>
        <time>2021-07-12T17:58:59Z</time>
      </trkpt>
      <trkpt lat="37.24543" lon="-7.38262">
        <ele>53.96688</ele>
        <time>2021-07-12T17:59:10Z</time>
      </trkpt>
      <trkpt lat="37.24688" lon="-7.38218">
        <ele>61.89046</ele>
        <time>2021-07-12T17:59:21Z</time>
      </trkpt>
      <trkpt lat="37.24797" lon="-7.38149">
        <ele>56.83629</ele>
        <time>2021-07-12T17:59:32Z</time>
      </trkpt>
      <trkpt lat="37.24919" lon="-7.38137">
        <ele>46.21135</ele>
        <time>2021-07-12T17:59:43Z</time>
      </trkpt>
      <trkpt lat="37.25079" lon="-7.38183">
        <ele>36.3877</ele>
        <time>2021-07-12T17:59:54Z</time>
      </trkpt>
      <trkpt lat="37.25191" lon="-7.38172">
        <ele>30.10435</ele>
        <time>2021-07-12T18:00:05Z</time>
      </trkpt>
      <trkpt lat="37.25318" lon="-7.38136">
        <ele>14.5257</ele>
        <time>2021-07-12T18:00:16Z</time>
      </trkpt>
      <trkpt lat="37.2542" lon="-7.38121">
        <ele>8.152863</ele>
        <time>2021-07-12T18:00:27Z</time>
      </trkpt>
      <trkpt lat="37.2553" lon="-7.38086">
        <ele>-8.326582</ele>
        <time>2021-07-12T18:00:38Z</time>
      </trkpt>
      <trkpt lat="37.25629" lon="-7.38062">
        <ele>-16.85505</ele>
        <time>2021-07-12T18:00:49Z</time>
      </trkpt>
      <trkpt lat="37.25697" lon="-7.37988">
        <ele>9.826237</ele>
        <time>2021-07-12T18:01:00Z</time>
      </trkpt>
      <trkpt lat="37.25673" lon="-7.3802">
        <ele>8.348908</ele>
        <time>2021-07-12T18:01:11Z</time>
      </trkpt>
      <trkpt lat="37.25583" lon="-7.38047">
        <ele>11.37988</ele>
        <time>2021-07-12T18:01:22Z</time>
      </trkpt>
      <trkpt lat="37.25479" lon="-7.38101">
        <ele>5.34376</ele>
        <time>2021-07-12T18:01:33Z</time>
      </trkpt>
      <trkpt lat="37.25412" lon="-7.38128">
        <ele>6.619646</ele>
        <time>2021-07-12T18:01:44Z</time>
      </trkpt>
      <trkpt lat="37.25407" lon="-7.38129">
        <ele>7.487246</ele>
        <time>2021-07-12T18:01:55Z</time>
      </trkpt>
      <trkpt lat="37.25408" lon="-7.38125">
        <ele>8.887979</ele>
        <time>2021-07-12T18:02:06Z</time>
      </trkpt>
      <trkpt lat="37.25422" lon="-7.38115">
        <ele>7.036681</ele>
        <time>2021-07-12T18:02:17Z</time>
      </trkpt>
      <trkpt lat="37.25508" lon="-7.38092">
        <ele>5.048561</ele>
        <time>2021-07-12T18:02:28Z</time>
      </trkpt>
      <trkpt lat="37.25514" lon="-7.38089">
        <ele>4.101481</ele>
        <time>2021-07-12T18:03:25Z</time>
      </trkpt>
      <trkpt lat="37.25586" lon="-7.38045">
        <ele>10.35755</ele>
        <time>2021-07-12T18:03:36Z</time>
      </trkpt>
      <trkpt lat="37.25667" lon="-7.38029">
        <ele>6.666443</ele>
        <time>2021-07-12T18:03:47Z</time>
      </trkpt>
      <trkpt lat="37.25767" lon="-7.37934">
        <ele>10.13617</ele>
        <time>2021-07-12T18:03:58Z</time>
      </trkpt>
      <trkpt lat="37.25901" lon="-7.3789">
        <ele>13.73509</ele>
        <time>2021-07-12T18:04:09Z</time>
      </trkpt>
      <trkpt lat="37.26063" lon="-7.37835">
        <ele>14.27897</ele>
        <time>2021-07-12T18:04:20Z</time>
      </trkpt>
      <trkpt lat="37.26228" lon="-7.37833">
        <ele>17.7467</ele>
        <time>2021-07-12T18:04:31Z</time>
      </trkpt>
      <trkpt lat="37.26378" lon="-7.37877">
        <ele>20.14967</ele>
        <time>2021-07-12T18:04:42Z</time>
      </trkpt>
      <trkpt lat="37.26511" lon="-7.37809">
        <ele>26.494</ele>
        <time>2021-07-12T18:04:53Z</time>
      </trkpt>
      <trkpt lat="37.26641" lon="-7.37776">
        <ele>34.9553</ele>
        <time>2021-07-12T18:05:04Z</time>
      </trkpt>
      <trkpt lat="37.26814" lon="-7.37763">
        <ele>39.46176</ele>
        <time>2021-07-12T18:05:15Z</time>
      </trkpt>
      <trkpt lat="37.27004" lon="-7.37768">
        <ele>42.15552</ele>
        <time>2021-07-12T18:05:26Z</time>
      </trkpt>
      <trkpt lat="37.27193" lon="-7.37737">
        <ele>43.20514</ele>
        <time>2021-07-12T18:05:37Z</time>
      </trkpt>
      <trkpt lat="37.27349" lon="-7.37666">
        <ele>47.16354</ele>
        <time>2021-07-12T18:05:48Z</time>
      </trkpt>
      <trkpt lat="37.27492" lon="-7.37662">
        <ele>53.59125</ele>
        <time>2021-07-12T18:05:59Z</time>
      </trkpt>
      <trkpt lat="37.27637" lon="-7.37593">
        <ele>53.0083</ele>
        <time>2021-07-12T18:06:10Z</time>
      </trkpt>
      <trkpt lat="37.27784" lon="-7.37525">
        <ele>53.35128</ele>
        <time>2021-07-12T18:06:21Z</time>
      </trkpt>
      <trkpt lat="37.2795" lon="-7.374">
        <ele>56.72222</ele>
        <time>2021-07-12T18:06:32Z</time>
      </trkpt>
      <trkpt lat="37.28061" lon="-7.37256">
        <ele>64.47029</ele>
        <time>2021-07-12T18:06:43Z</time>
      </trkpt>
      <trkpt lat="37.28177" lon="-7.37224">
        <ele>69.58418</ele>
        <time>2021-07-12T18:06:54Z</time>
      </trkpt>
      <trkpt lat="37.2824" lon="-7.3737">
        <ele>63.89177</ele>
        <time>2021-07-12T18:07:05Z</time>
      </trkpt>
      <trkpt lat="37.28318" lon="-7.37539">
        <ele>68.32765</ele>
        <time>2021-07-12T18:07:16Z</time>
      </trkpt>
      <trkpt lat="37.28386" lon="-7.37695">
        <ele>71.48744</ele>
        <time>2021-07-12T18:07:27Z</time>
      </trkpt>
      <trkpt lat="37.2845" lon="-7.37833">
        <ele>66.0313</ele>
        <time>2021-07-12T18:07:38Z</time>
      </trkpt>
      <trkpt lat="37.28529" lon="-7.37884">
        <ele>64.84733</ele>
        <time>2021-07-12T18:07:49Z</time>
      </trkpt>
      <trkpt lat="37.28689" lon="-7.37845">
        <ele>69.93518</ele>
        <time>2021-07-12T18:08:00Z</time>
      </trkpt>
      <trkpt lat="37.2885" lon="-7.37807">
        <ele>74.06466</ele>
        <time>2021-07-12T18:08:11Z</time>
      </trkpt>
      <trkpt lat="37.29009" lon="-7.37763">
        <ele>79.193</ele>
        <time>2021-07-12T18:08:22Z</time>
      </trkpt>
      <trkpt lat="37.29165" lon="-7.37713">
        <ele>81.73162</ele>
        <time>2021-07-12T18:08:33Z</time>
      </trkpt>
      <trkpt lat="37.29317" lon="-7.37662">
        <ele>85.83406</ele>
        <time>2021-07-12T18:08:44Z</time>
      </trkpt>
      <trkpt lat="37.29367" lon="-7.37598">
        <ele>82.16493</ele>
        <time>2021-07-12T18:08:55Z</time>
      </trkpt>
      <trkpt lat="37.29343" lon="-7.37404">
        <ele>81.91021</ele>
        <time>2021-07-12T18:09:06Z</time>
      </trkpt>
      <trkpt lat="37.29313" lon="-7.37189">
        <ele>84.01309</ele>
        <time>2021-07-12T18:09:17Z</time>
      </trkpt>
      <trkpt lat="37.29285" lon="-7.36958">
        <ele>77.73535</ele>
        <time>2021-07-12T18:09:28Z</time>
      </trkpt>
      <trkpt lat="37.2926" lon="-7.36713">
        <ele>72.4891</ele>
        <time>2021-07-12T18:09:39Z</time>
      </trkpt>
      <trkpt lat="37.29237" lon="-7.36477">
        <ele>72.1148</ele>
        <time>2021-07-12T18:09:50Z</time>
      </trkpt>
      <trkpt lat="37.29211" lon="-7.36201">
        <ele>69.21272</ele>
        <time>2021-07-12T18:10:01Z</time>
      </trkpt>
      <trkpt lat="37.29187" lon="-7.35954">
        <ele>74.36859</ele>
        <time>2021-07-12T18:10:12Z</time>
      </trkpt>
      <trkpt lat="37.29194" lon="-7.3575">
        <ele>69.22549</ele>
        <time>2021-07-12T18:10:23Z</time>
      </trkpt>
      <trkpt lat="37.29272" lon="-7.35552">
        <ele>75.3085</ele>
        <time>2021-07-12T18:10:34Z</time>
      </trkpt>
      <trkpt lat="37.29359" lon="-7.35366">
        <ele>78.0277</ele>
        <time>2021-07-12T18:10:45Z</time>
      </trkpt>
      <trkpt lat="37.29485" lon="-7.35178">
        <ele>76.51574</ele>
        <time>2021-07-12T18:10:56Z</time>
      </trkpt>
      <trkpt lat="37.29639" lon="-7.3499">
        <ele>78.79514</ele>
        <time>2021-07-12T18:11:07Z</time>
      </trkpt>
      <trkpt lat="37.29776" lon="-7.34804">
        <ele>75.88092</ele>
        <time>2021-07-12T18:11:18Z</time>
      </trkpt>
      <trkpt lat="37.29896" lon="-7.34688">
        <ele>75.66836</ele>
        <time>2021-07-12T18:11:29Z</time>
      </trkpt>
      <trkpt lat="37.29948" lon="-7.34575">
        <ele>80.86104</ele>
        <time>2021-07-12T18:11:40Z</time>
      </trkpt>
      <trkpt lat="37.29966" lon="-7.34548">
        <ele>82.44064</ele>
        <time>2021-07-12T18:11:51Z</time>
      </trkpt>
      <trkpt lat="37.30005" lon="-7.34517">
        <ele>84.34428</ele>
        <time>2021-07-12T18:12:02Z</time>
      </trkpt>
      <trkpt lat="37.30113" lon="-7.3448">
        <ele>85.53378</ele>
        <time>2021-07-12T18:12:13Z</time>
      </trkpt>
      <trkpt lat="37.30227" lon="-7.34449">
        <ele>82.49303</ele>
        <time>2021-07-12T18:12:24Z</time>
      </trkpt>
      <trkpt lat="37.30323" lon="-7.34413">
        <ele>88.86309</ele>
        <time>2021-07-12T18:12:35Z</time>
      </trkpt>
      <trkpt lat="37.30398" lon="-7.34373">
        <ele>94.35775</ele>
        <time>2021-07-12T18:12:46Z</time>
      </trkpt>
      <trkpt lat="37.3048" lon="-7.34326">
        <ele>101.5628</ele>
        <time>2021-07-12T18:12:57Z</time>
      </trkpt>
      <trkpt lat="37.30546" lon="-7.34291">
        <ele>107.1866</ele>
        <time>2021-07-12T18:13:08Z</time>
      </trkpt>
      <trkpt lat="37.30482" lon="-7.34258">
        <ele>99.31137</ele>
        <time>2021-07-12T18:13:19Z</time>
      </trkpt>
      <trkpt lat="37.3044" lon="-7.34251">
        <ele>95.66868</ele>
        <time>2021-07-12T18:13:31Z</time>
      </trkpt>
      <trkpt lat="37.30418" lon="-7.3421">
        <ele>99.96047</ele>
        <time>2021-07-12T18:13:42Z</time>
      </trkpt>
      <trkpt lat="37.30393" lon="-7.34211">
        <ele>100.8903</ele>
        <time>2021-07-12T18:13:53Z</time>
      </trkpt>
      <trkpt lat="37.30371" lon="-7.3413">
        <ele>97.45933</ele>
        <time>2021-07-12T18:14:04Z</time>
      </trkpt>
      <trkpt lat="37.30355" lon="-7.34036">
        <ele>97.00697</ele>
        <time>2021-07-12T18:14:15Z</time>
      </trkpt>
      <trkpt lat="37.30366" lon="-7.33979">
        <ele>97.57607</ele>
        <time>2021-07-12T18:14:26Z</time>
      </trkpt>
      <trkpt lat="37.30405" lon="-7.3392">
        <ele>97.57064</ele>
        <time>2021-07-12T18:14:37Z</time>
      </trkpt>
      <trkpt lat="37.30476" lon="-7.33792">
        <ele>104.3992</ele>
        <time>2021-07-12T18:14:48Z</time>
      </trkpt>
      <trkpt lat="37.30567" lon="-7.33604">
        <ele>104.5312</ele>
        <time>2021-07-12T18:14:59Z</time>
      </trkpt>
      <trkpt lat="37.30616" lon="-7.33488">
        <ele>105.4028</ele>
        <time>2021-07-12T18:15:10Z</time>
      </trkpt>
      <trkpt lat="37.30597" lon="-7.33317">
        <ele>103.8637</ele>
        <time>2021-07-12T18:15:21Z</time>
      </trkpt>
      <trkpt lat="37.30635" lon="-7.33105">
        <ele>98.61014</ele>
        <time>2021-07-12T18:15:32Z</time>
      </trkpt>
      <trkpt lat="37.30671" lon="-7.32886">
        <ele>97.60093</ele>
        <time>2021-07-12T18:15:43Z</time>
      </trkpt>
      <trkpt lat="37.30765" lon="-7.32701">
        <ele>106.7687</ele>
        <time>2021-07-12T18:15:54Z</time>
      </trkpt>
      <trkpt lat="37.30844" lon="-7.32539">
        <ele>102.847</ele>
        <time>2021-07-12T18:16:05Z</time>
      </trkpt>
      <trkpt lat="37.30914" lon="-7.32329">
        <ele>119.8187</ele>
        <time>2021-07-12T18:16:16Z</time>
      </trkpt>
      <trkpt lat="37.31034" lon="-7.32139">
        <ele>126.6425</ele>
        <time>2021-07-12T18:16:27Z</time>
      </trkpt>
      <trkpt lat="37.31103" lon="-7.31987">
        <ele>116.6812</ele>
        <time>2021-07-12T18:16:38Z</time>
      </trkpt>
      <trkpt lat="37.31235" lon="-7.31837">
        <ele>118.3258</ele>
        <time>2021-07-12T18:16:49Z</time>
      </trkpt>
      <trkpt lat="37.3134" lon="-7.31697">
        <ele>113.2401</ele>
        <time>2021-07-12T18:17:00Z</time>
      </trkpt>
      <trkpt lat="37.31394" lon="-7.31606">
        <ele>111.5609</ele>
        <time>2021-07-12T18:17:11Z</time>
      </trkpt>
      <trkpt lat="37.31436" lon="-7.31415">
        <ele>110.2289</ele>
        <time>2021-07-12T18:17:22Z</time>
      </trkpt>
      <trkpt lat="37.31492" lon="-7.31218">
        <ele>98.48053</ele>
        <time>2021-07-12T18:17:33Z</time>
      </trkpt>
      <trkpt lat="37.31533" lon="-7.31047">
        <ele>96.46944</ele>
        <time>2021-07-12T18:17:44Z</time>
      </trkpt>
      <trkpt lat="37.31575" lon="-7.3089">
        <ele>102.9096</ele>
        <time>2021-07-12T18:17:55Z</time>
      </trkpt>
      <trkpt lat="37.31697" lon="-7.30737">
        <ele>104.0258</ele>
        <time>2021-07-12T18:18:06Z</time>
      </trkpt>
      <trkpt lat="37.31785" lon="-7.30555">
        <ele>96.74267</ele>
        <time>2021-07-12T18:18:17Z</time>
      </trkpt>
      <trkpt lat="37.31792" lon="-7.30328">
        <ele>92.75776</ele>
        <time>2021-07-12T18:18:28Z</time>
      </trkpt>
      <trkpt lat="37.31796" lon="-7.30085">
        <ele>85.34618</ele>
        <time>2021-07-12T18:18:39Z</time>
      </trkpt>
      <trkpt lat="37.31821" lon="-7.29849">
        <ele>82.82478</ele>
        <time>2021-07-12T18:18:50Z</time>
      </trkpt>
      <trkpt lat="37.31896" lon="-7.2964">
        <ele>84.17366</ele>
        <time>2021-07-12T18:19:01Z</time>
      </trkpt>
      <trkpt lat="37.31903" lon="-7.2938">
        <ele>85.91178</ele>
        <time>2021-07-12T18:19:12Z</time>
      </trkpt>
      <trkpt lat="37.31921" lon="-7.29147">
        <ele>79.08115</ele>
        <time>2021-07-12T18:19:23Z</time>
      </trkpt>
      <trkpt lat="37.32031" lon="-7.2909">
        <ele>81.5866</ele>
        <time>2021-07-12T18:19:34Z</time>
      </trkpt>
      <trkpt lat="37.32096" lon="-7.28902">
        <ele>81.84572</ele>
        <time>2021-07-12T18:19:45Z</time>
      </trkpt>
      <trkpt lat="37.32137" lon="-7.28696">
        <ele>84.16628</ele>
        <time>2021-07-12T18:19:56Z</time>
      </trkpt>
      <trkpt lat="37.32256" lon="-7.28591">
        <ele>83.89784</ele>
        <time>2021-07-12T18:20:07Z</time>
      </trkpt>
      <trkpt lat="37.32355" lon="-7.28523">
        <ele>80.47812</ele>
        <time>2021-07-12T18:20:18Z</time>
      </trkpt>
      <trkpt lat="37.32413" lon="-7.28384">
        <ele>80.25887</ele>
        <time>2021-07-12T18:20:29Z</time>
      </trkpt>
      <trkpt lat="37.32464" lon="-7.28293">
        <ele>76.07211</ele>
        <time>2021-07-12T18:20:40Z</time>
      </trkpt>
      <trkpt lat="37.32604" lon="-7.28285">
        <ele>78.535</ele>
        <time>2021-07-12T18:20:51Z</time>
      </trkpt>
      <trkpt lat="37.32626" lon="-7.28252">
        <ele>82.32729</ele>
        <time>2021-07-12T18:21:02Z</time>
      </trkpt>
      <trkpt lat="37.32628" lon="-7.28214">
        <ele>82.72354</ele>
        <time>2021-07-12T18:21:13Z</time>
      </trkpt>
      <trkpt lat="37.3254" lon="-7.28149">
        <ele>82.30105</ele>
        <time>2021-07-12T18:21:24Z</time>
      </trkpt>
      <trkpt lat="37.32411" lon="-7.28141">
        <ele>79.82775</ele>
        <time>2021-07-12T18:21:35Z</time>
      </trkpt>
      <trkpt lat="37.32238" lon="-7.28012">
        <ele>73.35772</ele>
        <time>2021-07-12T18:21:46Z</time>
      </trkpt>
      <trkpt lat="37.32051" lon="-7.2784">
        <ele>72.18388</ele>
        <time>2021-07-12T18:21:57Z</time>
      </trkpt>
      <trkpt lat="37.31986" lon="-7.27821">
        <ele>74.67597</ele>
        <time>2021-07-12T18:22:08Z</time>
      </trkpt>
      <trkpt lat="37.32056" lon="-7.27769">
        <ele>72.98117</ele>
        <time>2021-07-12T18:22:19Z</time>
      </trkpt>
      <trkpt lat="37.32017" lon="-7.27823">
        <ele>71.47622</ele>
        <time>2021-07-12T18:22:30Z</time>
      </trkpt>
      <trkpt lat="37.31986" lon="-7.27812">
        <ele>73.72685</ele>
        <time>2021-07-12T18:22:41Z</time>
      </trkpt>
      <trkpt lat="37.31979" lon="-7.27818">
        <ele>73.28935</ele>
        <time>2021-07-12T18:23:17Z</time>
      </trkpt>
      <trkpt lat="37.3192" lon="-7.27911">
        <ele>70.92788</ele>
        <time>2021-07-12T18:23:28Z</time>
      </trkpt>
      <trkpt lat="37.318" lon="-7.27953">
        <ele>73.62534</ele>
        <time>2021-07-12T18:23:39Z</time>
      </trkpt>
      <trkpt lat="37.31638" lon="-7.27953">
        <ele>67.8084</ele>
        <time>2021-07-12T18:23:50Z</time>
      </trkpt>
      <trkpt lat="37.3149" lon="-7.27889">
        <ele>65.86278</ele>
        <time>2021-07-12T18:24:01Z</time>
      </trkpt>
      <trkpt lat="37.31463" lon="-7.27875">
        <ele>66.31376</ele>
        <time>2021-07-12T18:24:12Z</time>
      </trkpt>
      <trkpt lat="37.31455" lon="-7.27874">
        <ele>65.87059</ele>
        <time>2021-07-12T18:24:44Z</time>
      </trkpt>
      <trkpt lat="37.31393" lon="-7.27856">
        <ele>64.42485</ele>
        <time>2021-07-12T18:24:55Z</time>
      </trkpt>
      <trkpt lat="37.31265" lon="-7.27796">
        <ele>65.60397</ele>
        <time>2021-07-12T18:25:06Z</time>
      </trkpt>
      <trkpt lat="37.31149" lon="-7.2776">
        <ele>68.54242</ele>
        <time>2021-07-12T18:25:17Z</time>
      </trkpt>
      <trkpt lat="37.31135" lon="-7.27676">
        <ele>70.37683</ele>
        <time>2021-07-12T18:25:28Z</time>
      </trkpt>
      <trkpt lat="37.3117" lon="-7.27424">
        <ele>68.25062</ele>
        <time>2021-07-12T18:25:39Z</time>
      </trkpt>
      <trkpt lat="37.311" lon="-7.27164">
        <ele>68.74847</ele>
        <time>2021-07-12T18:25:50Z</time>
      </trkpt>
      <trkpt lat="37.30978" lon="-7.26915">
        <ele>61.79598</ele>
        <time>2021-07-12T18:26:01Z</time>
      </trkpt>
      <trkpt lat="37.30848" lon="-7.26679">
        <ele>63.70967</ele>
        <time>2021-07-12T18:26:12Z</time>
      </trkpt>
      <trkpt lat="37.30698" lon="-7.26509">
        <ele>62.03276</ele>
        <time>2021-07-12T18:26:23Z</time>
      </trkpt>
      <trkpt lat="37.3056" lon="-7.26345">
        <ele>61.46069</ele>
        <time>2021-07-12T18:26:34Z</time>
      </trkpt>
      <trkpt lat="37.3043" lon="-7.26177">
        <ele>59.49933</ele>
        <time>2021-07-12T18:26:45Z</time>
      </trkpt>
      <trkpt lat="37.30312" lon="-7.25948">
        <ele>59.15541</ele>
        <time>2021-07-12T18:26:56Z</time>
      </trkpt>
      <trkpt lat="37.30187" lon="-7.25709">
        <ele>60.5158</ele>
        <time>2021-07-12T18:27:07Z</time>
      </trkpt>
      <trkpt lat="37.30077" lon="-7.2558">
        <ele>67.54355</ele>
        <time>2021-07-12T18:27:18Z</time>
      </trkpt>
      <trkpt lat="37.30011" lon="-7.25445">
        <ele>71.54435</ele>
        <time>2021-07-12T18:27:29Z</time>
      </trkpt>
      <trkpt lat="37.299" lon="-7.25286">
        <ele>69.81778</ele>
        <time>2021-07-12T18:27:40Z</time>
      </trkpt>
      <trkpt lat="37.29948" lon="-7.25232">
        <ele>68.73684</ele>
        <time>2021-07-12T18:27:51Z</time>
      </trkpt>
      <trkpt lat="37.30097" lon="-7.25229">
        <ele>63.47023</ele>
        <time>2021-07-12T18:28:02Z</time>
      </trkpt>
      <trkpt lat="37.30232" lon="-7.25167">
        <ele>68.07188</ele>
        <time>2021-07-12T18:28:13Z</time>
      </trkpt>
      <trkpt lat="37.30283" lon="-7.2497">
        <ele>72.72719</ele>
        <time>2021-07-12T18:28:24Z</time>
      </trkpt>
      <trkpt lat="37.30327" lon="-7.24791">
        <ele>64.47575</ele>
        <time>2021-07-12T18:28:35Z</time>
      </trkpt>
      <trkpt lat="37.30338" lon="-7.24738">
        <ele>60.05777</ele>
        <time>2021-07-12T18:28:46Z</time>
      </trkpt>
      <trkpt lat="37.30326" lon="-7.24692">
        <ele>55.82312</ele>
        <time>2021-07-12T18:28:57Z</time>
      </trkpt>
      <trkpt lat="37.3039" lon="-7.24554">
        <ele>47.27994</ele>
        <time>2021-07-12T18:29:08Z</time>
      </trkpt>
      <trkpt lat="37.30414" lon="-7.24465">
        <ele>23.4505</ele>
        <time>2021-07-12T18:29:19Z</time>
      </trkpt>
      <trkpt lat="37.30444" lon="-7.24318">
        <ele>46.7667</ele>
        <time>2021-07-12T18:29:30Z</time>
      </trkpt>
      <trkpt lat="37.30474" lon="-7.24191">
        <ele>53.06708</ele>
        <time>2021-07-12T18:29:41Z</time>
      </trkpt>
      <trkpt lat="37.30506" lon="-7.24064">
        <ele>54.38784</ele>
        <time>2021-07-12T18:29:52Z</time>
      </trkpt>
      <trkpt lat="37.30539" lon="-7.23992">
        <ele>55.29071</ele>
        <time>2021-07-12T18:30:03Z</time>
      </trkpt>
      <trkpt lat="37.30533" lon="-7.23941">
        <ele>51.9583</ele>
        <time>2021-07-12T18:30:14Z</time>
      </trkpt>
      <trkpt lat="37.30535" lon="-7.23934">
        <ele>53.4807</ele>
        <time>2021-07-12T18:31:13Z</time>
      </trkpt>
      <trkpt lat="37.30555" lon="-7.23835">
        <ele>54.48043</ele>
        <time>2021-07-12T18:31:24Z</time>
      </trkpt>
      <trkpt lat="37.30579" lon="-7.23738">
        <ele>58.26015</ele>
        <time>2021-07-12T18:31:35Z</time>
      </trkpt>
      <trkpt lat="37.30604" lon="-7.23631">
        <ele>55.6216</ele>
        <time>2021-07-12T18:31:46Z</time>
      </trkpt>
      <trkpt lat="37.30669" lon="-7.23613">
        <ele>56.7102</ele>
        <time>2021-07-12T18:31:57Z</time>
      </trkpt>
      <trkpt lat="37.30709" lon="-7.2353">
        <ele>56.20437</ele>
        <time>2021-07-12T18:32:08Z</time>
      </trkpt>
      <trkpt lat="37.30678" lon="-7.23436">
        <ele>57.83537</ele>
        <time>2021-07-12T18:32:19Z</time>
      </trkpt>
      <trkpt lat="37.30678" lon="-7.23395">
        <ele>60.47564</ele>
        <time>2021-07-12T18:32:30Z</time>
      </trkpt>
      <trkpt lat="37.30682" lon="-7.23388">
        <ele>59.64743</ele>
        <time>2021-07-12T18:33:07Z</time>
      </trkpt>
      <trkpt lat="37.30713" lon="-7.23375">
        <ele>58.79236</ele>
        <time>2021-07-12T18:33:18Z</time>
      </trkpt>
      <trkpt lat="37.3065" lon="-7.23291">
        <ele>57.0013</ele>
        <time>2021-07-12T18:33:29Z</time>
      </trkpt>
      <trkpt lat="37.30528" lon="-7.23192">
        <ele>52.85977</ele>
        <time>2021-07-12T18:33:40Z</time>
      </trkpt>
      <trkpt lat="37.30454" lon="-7.23128">
        <ele>50.58665</ele>
        <time>2021-07-12T18:33:51Z</time>
      </trkpt>
      <trkpt lat="37.30449" lon="-7.23126">
        <ele>53.27112</ele>
        <time>2021-07-12T18:34:27Z</time>
      </trkpt>
      <trkpt lat="37.3035" lon="-7.23124">
        <ele>47.99681</ele>
        <time>2021-07-12T18:34:38Z</time>
      </trkpt>
      <trkpt lat="37.30232" lon="-7.23038">
        <ele>44.90823</ele>
        <time>2021-07-12T18:34:49Z</time>
      </trkpt>
      <trkpt lat="37.3009" lon="-7.22879">
        <ele>41.98273</ele>
        <time>2021-07-12T18:35:00Z</time>
      </trkpt>
      <trkpt lat="37.2997" lon="-7.22723">
        <ele>45.1932</ele>
        <time>2021-07-12T18:35:11Z</time>
      </trkpt>
      <trkpt lat="37.29913" lon="-7.22519">
        <ele>50.9733</ele>
        <time>2021-07-12T18:35:22Z</time>
      </trkpt>
      <trkpt lat="37.29863" lon="-7.22329">
        <ele>46.4392</ele>
        <time>2021-07-12T18:35:33Z</time>
      </trkpt>
      <trkpt lat="37.29869" lon="-7.22178">
        <ele>43.84611</ele>
        <time>2021-07-12T18:35:44Z</time>
      </trkpt>
      <trkpt lat="37.29811" lon="-7.22054">
        <ele>42.73246</ele>
        <time>2021-07-12T18:35:55Z</time>
      </trkpt>
      <trkpt lat="37.29855" lon="-7.21996">
        <ele>42.09694</ele>
        <time>2021-07-12T18:36:06Z</time>
      </trkpt>
      <trkpt lat="37.29962" lon="-7.21799">
        <ele>37.8085</ele>
        <time>2021-07-12T18:36:17Z</time>
      </trkpt>
      <trkpt lat="37.30049" lon="-7.21609">
        <ele>37.68856</ele>
        <time>2021-07-12T18:36:28Z</time>
      </trkpt>
      <trkpt lat="37.30201" lon="-7.21438">
        <ele>44.56137</ele>
        <time>2021-07-12T18:36:39Z</time>
      </trkpt>
      <trkpt lat="37.3027" lon="-7.212">
        <ele>45.24003</ele>
        <time>2021-07-12T18:36:50Z</time>
      </trkpt>
      <trkpt lat="37.30341" lon="-7.21184">
        <ele>45.61531</ele>
        <time>2021-07-12T18:37:01Z</time>
      </trkpt>
      <trkpt lat="37.30529" lon="-7.21221">
        <ele>45.75921</ele>
        <time>2021-07-12T18:37:12Z</time>
      </trkpt>
      <trkpt lat="37.30697" lon="-7.21258">
        <ele>46.63817</ele>
        <time>2021-07-12T18:37:23Z</time>
      </trkpt>
      <trkpt lat="37.30852" lon="-7.21187">
        <ele>57.24904</ele>
        <time>2021-07-12T18:37:34Z</time>
      </trkpt>
      <trkpt lat="37.30948" lon="-7.21056">
        <ele>48.00094</ele>
        <time>2021-07-12T18:37:45Z</time>
      </trkpt>
      <trkpt lat="37.31093" lon="-7.20906">
        <ele>42.4035</ele>
        <time>2021-07-12T18:37:56Z</time>
      </trkpt>
      <trkpt lat="37.31159" lon="-7.20746">
        <ele>41.35839</ele>
        <time>2021-07-12T18:38:07Z</time>
      </trkpt>
      <trkpt lat="37.31271" lon="-7.20628">
        <ele>34.77007</ele>
        <time>2021-07-12T18:38:18Z</time>
      </trkpt>
      <trkpt lat="37.31269" lon="-7.20578">
        <ele>33.25313</ele>
        <time>2021-07-12T18:38:29Z</time>
      </trkpt>
      <trkpt lat="37.3126" lon="-7.20531">
        <ele>30.07945</ele>
        <time>2021-07-12T18:38:40Z</time>
      </trkpt>
      <trkpt lat="37.31259" lon="-7.20543">
        <ele>31.7574</ele>
        <time>2021-07-12T18:38:51Z</time>
      </trkpt>
      <trkpt lat="37.31292" lon="-7.20641">
        <ele>32.23511</ele>
        <time>2021-07-12T18:39:02Z</time>
      </trkpt>
      <trkpt lat="37.31299" lon="-7.20679">
        <ele>31.84876</ele>
        <time>2021-07-12T18:39:13Z</time>
      </trkpt>
      <trkpt lat="37.31296" lon="-7.20681">
        <ele>35.62985</ele>
        <time>2021-07-12T18:39:35Z</time>
      </trkpt>
      <trkpt lat="37.31299" lon="-7.20677">
        <ele>33.13542</ele>
        <time>2021-07-12T18:39:53Z</time>
      </trkpt>
      <trkpt lat="37.31282" lon="-7.20625">
        <ele>33.16606</ele>
        <time>2021-07-12T18:40:04Z</time>
      </trkpt>
      <trkpt lat="37.31273" lon="-7.20583">
        <ele>33.36755</ele>
        <time>2021-07-12T18:40:15Z</time>
      </trkpt>
      <trkpt lat="37.31259" lon="-7.2054">
        <ele>31.78488</ele>
        <time>2021-07-12T18:40:26Z</time>
      </trkpt>
      <trkpt lat="37.31304" lon="-7.20488">
        <ele>32.81568</ele>
        <time>2021-07-12T18:40:37Z</time>
      </trkpt>
      <trkpt lat="37.31357" lon="-7.20437">
        <ele>31.88429</ele>
        <time>2021-07-12T18:40:48Z</time>
      </trkpt>
      <trkpt lat="37.31413" lon="-7.20382">
        <ele>32.2846</ele>
        <time>2021-07-12T18:40:59Z</time>
      </trkpt>
      <trkpt lat="37.31487" lon="-7.20308">
        <ele>32.61869</ele>
        <time>2021-07-12T18:41:10Z</time>
      </trkpt>
      <trkpt lat="37.31522" lon="-7.203">
        <ele>32.47204</ele>
        <time>2021-07-12T18:41:21Z</time>
      </trkpt>
      <trkpt lat="37.3153" lon="-7.20331">
        <ele>32.3846</ele>
        <time>2021-07-12T18:41:32Z</time>
      </trkpt>
      <trkpt lat="37.31531" lon="-7.20338">
        <ele>31.8564</ele>
        <time>2021-07-12T18:41:43Z</time>
      </trkpt>
      <trkpt lat="37.31529" lon="-7.20331">
        <ele>31.46729</ele>
        <time>2021-07-12T18:42:03Z</time>
      </trkpt>
      <trkpt lat="37.31495" lon="-7.20259">
        <ele>30.28688</ele>
        <time>2021-07-12T18:42:14Z</time>
      </trkpt>
      <trkpt lat="37.31619" lon="-7.20189">
        <ele>31.29506</ele>
        <time>2021-07-12T18:42:25Z</time>
      </trkpt>
      <trkpt lat="37.31717" lon="-7.20224">
        <ele>36.36438</ele>
        <time>2021-07-12T18:42:36Z</time>
      </trkpt>
      <trkpt lat="37.31769" lon="-7.20253">
        <ele>35.32118</ele>
        <time>2021-07-12T18:42:47Z</time>
      </trkpt>
      <trkpt lat="37.31776" lon="-7.20251">
        <ele>36.95199</ele>
        <time>2021-07-12T18:43:06Z</time>
      </trkpt>
      <trkpt lat="37.31821" lon="-7.20199">
        <ele>34.04899</ele>
        <time>2021-07-12T18:43:17Z</time>
      </trkpt>
      <trkpt lat="37.31823" lon="-7.20193">
        <ele>34.5983</ele>
        <time>2021-07-12T18:43:35Z</time>
      </trkpt>
      <trkpt lat="37.3182" lon="-7.20205">
        <ele>35.25159</ele>
        <time>2021-07-12T18:43:46Z</time>
      </trkpt>
      <trkpt lat="37.31776" lon="-7.20255">
        <ele>35.14125</ele>
        <time>2021-07-12T18:43:57Z</time>
      </trkpt>
      <trkpt lat="37.31771" lon="-7.20259">
        <ele>34.50943</ele>
        <time>2021-07-12T18:44:08Z</time>
      </trkpt>
      <trkpt lat="37.31767" lon="-7.20264">
        <ele>33.34708</ele>
        <time>2021-07-12T18:44:20Z</time>
      </trkpt>
      <trkpt lat="37.31755" lon="-7.20307">
        <ele>33.06668</ele>
        <time>2021-07-12T18:44:31Z</time>
      </trkpt>
      <trkpt lat="37.31775" lon="-7.20289">
        <ele>33.75326</ele>
        <time>2021-07-12T18:44:42Z</time>
      </trkpt>
      <trkpt lat="37.31783" lon="-7.20281">
        <ele>33.243</ele>
        <time>2021-07-12T18:44:53Z</time>
      </trkpt>
      <trkpt lat="37.31803" lon="-7.20296">
        <ele>31.02764</ele>
        <time>2021-07-12T18:45:04Z</time>
      </trkpt>
      <trkpt lat="37.31809" lon="-7.20311">
        <ele>30.49725</ele>
        <time>2021-07-12T18:45:15Z</time>
      </trkpt>
      <trkpt lat="37.31809" lon="-7.20305">
        <ele>30.25228</ele>
        <time>2021-07-12T18:45:27Z</time>
      </trkpt>
      <trkpt lat="37.31789" lon="-7.20282">
        <ele>32.28347</ele>
        <time>2021-07-12T18:45:38Z</time>
      </trkpt>
      <trkpt lat="37.31783" lon="-7.20279">
        <ele>34.39024</ele>
        <time>2021-07-12T18:45:50Z</time>
      </trkpt>
      <trkpt lat="37.31797" lon="-7.20237">
        <ele>34.06677</ele>
        <time>2021-07-12T18:46:01Z</time>
      </trkpt>
      <trkpt lat="37.31813" lon="-7.20214">
        <ele>34.62698</ele>
        <time>2021-07-12T18:46:12Z</time>
      </trkpt>
      <trkpt lat="37.31831" lon="-7.20157">
        <ele>31.31324</ele>
        <time>2021-07-12T18:46:23Z</time>
      </trkpt>
      <trkpt lat="37.31866" lon="-7.20098">
        <ele>33.86845</ele>
        <time>2021-07-12T18:46:34Z</time>
      </trkpt>
      <trkpt lat="37.31919" lon="-7.20059">
        <ele>33.62243</ele>
        <time>2021-07-12T18:46:45Z</time>
      </trkpt>
      <trkpt lat="37.31986" lon="-7.19985">
        <ele>33.70753</ele>
        <time>2021-07-12T18:46:57Z</time>
      </trkpt>
      <trkpt lat="37.32062" lon="-7.19896">
        <ele>38.93084</ele>
        <time>2021-07-12T18:47:08Z</time>
      </trkpt>
      <trkpt lat="37.32164" lon="-7.19824">
        <ele>40.85234</ele>
        <time>2021-07-12T18:47:19Z</time>
      </trkpt>
      <trkpt lat="37.32233" lon="-7.19767">
        <ele>38.96165</ele>
        <time>2021-07-12T18:47:30Z</time>
      </trkpt>
      <trkpt lat="37.323" lon="-7.19723">
        <ele>39.80818</ele>
        <time>2021-07-12T18:47:41Z</time>
      </trkpt>
      <trkpt lat="37.32375" lon="-7.19688">
        <ele>40.27994</ele>
        <time>2021-07-12T18:47:52Z</time>
      </trkpt>
      <trkpt lat="37.32421" lon="-7.19705">
        <ele>44.04486</ele>
        <time>2021-07-12T18:48:03Z</time>
      </trkpt>
      <trkpt lat="37.32469" lon="-7.19794">
        <ele>47.99925</ele>
        <time>2021-07-12T18:48:14Z</time>
      </trkpt>
      <trkpt lat="37.32513" lon="-7.19907">
        <ele>51.39113</ele>
        <time>2021-07-12T18:48:25Z</time>
      </trkpt>
      <trkpt lat="37.32439" lon="-7.19957">
        <ele>49.93187</ele>
        <time>2021-07-12T18:48:36Z</time>
      </trkpt>
      <trkpt lat="37.32435" lon="-7.20023">
        <ele>49.98501</ele>
        <time>2021-07-12T18:48:47Z</time>
      </trkpt>
      <trkpt lat="37.32419" lon="-7.20106">
        <ele>46.96387</ele>
        <time>2021-07-12T18:48:58Z</time>
      </trkpt>
      <trkpt lat="37.32394" lon="-7.20209">
        <ele>46.33353</ele>
        <time>2021-07-12T18:49:09Z</time>
      </trkpt>
      <trkpt lat="37.32388" lon="-7.20214">
        <ele>47.10099</ele>
        <time>2021-07-12T18:49:20Z</time>
      </trkpt>
      <trkpt lat="37.32382" lon="-7.20216">
        <ele>47.55774</ele>
        <time>2021-07-12T18:49:41Z</time>
      </trkpt>
      <trkpt lat="37.32321" lon="-7.2023">
        <ele>45.84425</ele>
        <time>2021-07-12T18:49:52Z</time>
      </trkpt>
      <trkpt lat="37.3231" lon="-7.20233">
        <ele>46.60744</ele>
        <time>2021-07-12T18:50:03Z</time>
      </trkpt>
      <trkpt lat="37.32307" lon="-7.20233">
        <ele>46.6686</ele>
        <time>2021-07-12T18:50:20Z</time>
      </trkpt>
      <trkpt lat="37.3224" lon="-7.20232">
        <ele>39.35047</ele>
        <time>2021-07-12T18:50:31Z</time>
      </trkpt>
      <trkpt lat="37.32158" lon="-7.20233">
        <ele>42.51923</ele>
        <time>2021-07-12T18:50:42Z</time>
      </trkpt>
      <trkpt lat="37.32118" lon="-7.20256">
        <ele>43.68117</ele>
        <time>2021-07-12T18:50:53Z</time>
      </trkpt>
      <trkpt lat="37.32153" lon="-7.20344">
        <ele>44.63429</ele>
        <time>2021-07-12T18:51:04Z</time>
      </trkpt>
      <trkpt lat="37.3215" lon="-7.2043">
        <ele>44.77117</ele>
        <time>2021-07-12T18:51:15Z</time>
      </trkpt>
      <trkpt lat="37.32152" lon="-7.20441">
        <ele>44.6088</ele>
        <time>2021-07-12T18:51:26Z</time>
      </trkpt>
      <trkpt lat="37.32149" lon="-7.20445">
        <ele>44.62574</ele>
        <time>2021-07-12T18:51:46Z</time>
      </trkpt>
      <trkpt lat="37.32151" lon="-7.20445">
        <ele>43.69621</ele>
        <time>2021-07-12T18:52:46Z</time>
      </trkpt>
      <trkpt lat="37.32151" lon="-7.20446">
        <ele>43.97323</ele>
        <time>2021-07-12T18:53:46Z</time>
      </trkpt>
      <trkpt lat="37.3215" lon="-7.20443">
        <ele>44.62008</ele>
        <time>2021-07-12T18:54:46Z</time>
      </trkpt>
      <trkpt lat="37.32155" lon="-7.20443">
        <ele>43.47515</ele>
        <time>2021-07-12T18:55:26Z</time>
      </trkpt>
      <trkpt lat="37.3215" lon="-7.20442">
        <ele>45.27334</ele>
        <time>2021-07-12T18:56:00Z</time>
      </trkpt>
      <trkpt lat="37.3215" lon="-7.20444">
        <ele>44.8438</ele>
        <time>2021-07-12T18:56:59Z</time>
      </trkpt>
      <trkpt lat="37.3215" lon="-7.20445">
        <ele>43.83125</ele>
        <time>2021-07-12T18:57:58Z</time>
      </trkpt>
      <trkpt lat="37.32152" lon="-7.20444">
        <ele>44.26453</ele>
        <time>2021-07-12T18:58:57Z</time>
      </trkpt>
      <trkpt lat="37.32149" lon="-7.20447">
        <ele>44.18506</ele>
        <time>2021-07-12T18:59:35Z</time>
      </trkpt>
      <trkpt lat="37.32151" lon="-7.20447">
        <ele>43.33013</ele>
        <time>2021-07-12T19:00:35Z</time>
      </trkpt>
      <trkpt lat="37.32151" lon="-7.20447">
        <ele>43.33013</ele>
        <time>2021-07-12T19:01:35Z</time>
      </trkpt>
      <trkpt lat="37.32151" lon="-7.20447">
        <ele>43.33013</ele>
        <time>2021-07-12T19:02:35Z</time>
      </trkpt>
      <trkpt lat="37.32151" lon="-7.20447">
        <ele>43.33013</ele>
        <time>2021-07-12T19:03:35Z</time>
      </trkpt>
      <trkpt lat="37.32151" lon="-7.20447">
        <ele>43.33013</ele>
        <time>2021-07-12T19:04:35Z</time>
      </trkpt>
      <trkpt lat="37.32151" lon="-7.20447">
        <ele>43.33013</ele>
        <time>2021-07-12T19:05:35Z</time>
      </trkpt>
      <trkpt lat="37.32151" lon="-7.20447">
        <ele>43.33013</ele>
        <time>2021-07-12T19:06:35Z</time>
      </trkpt>
      <trkpt lat="37.32151" lon="-7.20447">
        <ele>43.33013</ele>
        <time>2021-07-12T19:07:34Z</time>
      </trkpt>
      <trkpt lat="37.32151" lon="-7.20447">
        <ele>43.33013</ele>
        <time>2021-07-12T19:08:33Z</time>
      </trkpt>
      <trkpt lat="37.32151" lon="-7.20447">
        <ele>43.33013</ele>
        <time>2021-07-12T19:09:32Z</time>
      </trkpt>
      <trkpt lat="37.3215" lon="-7.20446">
        <ele>44.31915</ele>
        <time>2021-07-12T19:10:31Z</time>
      </trkpt>
      <trkpt lat="37.3215" lon="-7.20446">
        <ele>44.31915</ele>
        <time>2021-07-12T19:11:30Z</time>
      </trkpt>
      <trkpt lat="37.3215" lon="-7.20446">
        <ele>44.31915</ele>
        <time>2021-07-12T19:12:29Z</time>
      </trkpt>
      <trkpt lat="37.3215" lon="-7.20444">
        <ele>44.75666</ele>
        <time>2021-07-12T19:13:28Z</time>
      </trkpt>
      <trkpt lat="37.3215" lon="-7.20444">
        <ele>44.75666</ele>
        <time>2021-07-12T19:14:27Z</time>
      </trkpt>
      <trkpt lat="37.3215" lon="-7.20444">
        <ele>44.75666</ele>
        <time>2021-07-12T19:15:26Z</time>
      </trkpt>
      <trkpt lat="37.3215" lon="-7.20444">
        <ele>45.55976</ele>
        <time>2021-07-12T19:16:26Z</time>
      </trkpt>
      <trkpt lat="37.3215" lon="-7.20443">
        <ele>44.90608</ele>
        <time>2021-07-12T19:17:25Z</time>
      </trkpt>
      <trkpt lat="37.32151" lon="-7.20444">
        <ele>45.43495</ele>
        <time>2021-07-12T19:18:25Z</time>
      </trkpt>
      <trkpt lat="37.32151" lon="-7.20444">
        <ele>45.43495</ele>
        <time>2021-07-12T19:19:24Z</time>
      </trkpt>
      <trkpt lat="37.32151" lon="-7.20444">
        <ele>45.43495</ele>
        <time>2021-07-12T19:20:23Z</time>
      </trkpt>
      <trkpt lat="37.3215" lon="-7.20444">
        <ele>44.99</ele>
        <time>2021-07-12T19:21:22Z</time>
      </trkpt>
      <trkpt lat="37.3215" lon="-7.20443">
        <ele>45.426</ele>
        <time>2021-07-12T19:22:22Z</time>
      </trkpt>
      <trkpt lat="37.32152" lon="-7.20444">
        <ele>44.15571</ele>
        <time>2021-07-12T19:23:21Z</time>
      </trkpt>
      <trkpt lat="37.32151" lon="-7.20443">
        <ele>44.6744</ele>
        <time>2021-07-12T19:24:20Z</time>
      </trkpt>
      <trkpt lat="37.32152" lon="-7.20444">
        <ele>47.01816</ele>
        <time>2021-07-12T19:25:19Z</time>
      </trkpt>
      <trkpt lat="37.32156" lon="-7.20446">
        <ele>43.74407</ele>
        <time>2021-07-12T19:25:55Z</time>
      </trkpt>
      <trkpt lat="37.32151" lon="-7.20443">
        <ele>44.09294</ele>
        <time>2021-07-12T19:26:06Z</time>
      </trkpt>
      <trkpt lat="37.32153" lon="-7.20447">
        <ele>44.51761</ele>
        <time>2021-07-12T19:27:04Z</time>
      </trkpt>
      <trkpt lat="37.32151" lon="-7.20443">
        <ele>43.67865</ele>
        <time>2021-07-12T19:27:44Z</time>
      </trkpt>
      <trkpt lat="37.32155" lon="-7.20441">
        <ele>44.10474</ele>
        <time>2021-07-12T19:28:28Z</time>
      </trkpt>
      <trkpt lat="37.32151" lon="-7.20446">
        <ele>44.84017</ele>
        <time>2021-07-12T19:28:39Z</time>
      </trkpt>
      <trkpt lat="37.32154" lon="-7.20448">
        <ele>44.20702</ele>
        <time>2021-07-12T19:29:37Z</time>
      </trkpt>
      <trkpt lat="37.32152" lon="-7.20446">
        <ele>44.98991</ele>
        <time>2021-07-12T19:30:36Z</time>
      </trkpt>
      <trkpt lat="37.32151" lon="-7.20448">
        <ele>43.79222</ele>
        <time>2021-07-12T19:31:35Z</time>
      </trkpt>
      <trkpt lat="37.32154" lon="-7.20446">
        <ele>44.35594</ele>
        <time>2021-07-12T19:32:19Z</time>
      </trkpt>
      <trkpt lat="37.32154" lon="-7.20448">
        <ele>44.22184</ele>
        <time>2021-07-12T19:33:18Z</time>
      </trkpt>
      <trkpt lat="37.32154" lon="-7.20448">
        <ele>44.22184</ele>
        <time>2021-07-12T19:34:17Z</time>
      </trkpt>
      <trkpt lat="37.32154" lon="-7.20446">
        <ele>44.53815</ele>
        <time>2021-07-12T19:35:17Z</time>
      </trkpt>
      <trkpt lat="37.32153" lon="-7.20447">
        <ele>44.93485</ele>
        <time>2021-07-12T19:36:15Z</time>
      </trkpt>
      <trkpt lat="37.32152" lon="-7.20446">
        <ele>44.43347</ele>
        <time>2021-07-12T19:37:15Z</time>
      </trkpt>
      <trkpt lat="37.32152" lon="-7.20447">
        <ele>44.78058</ele>
        <time>2021-07-12T19:38:13Z</time>
      </trkpt>
      <trkpt lat="37.32152" lon="-7.20446">
        <ele>44.86357</ele>
        <time>2021-07-12T19:39:12Z</time>
      </trkpt>
      <trkpt lat="37.32152" lon="-7.20445">
        <ele>44.41175</ele>
        <time>2021-07-12T19:40:11Z</time>
      </trkpt>
      <trkpt lat="37.32153" lon="-7.20445">
        <ele>44.8957</ele>
        <time>2021-07-12T19:41:10Z</time>
      </trkpt>
      <trkpt lat="37.32151" lon="-7.20446">
        <ele>44.39147</ele>
        <time>2021-07-12T19:42:08Z</time>
      </trkpt>
      <trkpt lat="37.32151" lon="-7.20447">
        <ele>44.95688</ele>
        <time>2021-07-12T19:43:07Z</time>
      </trkpt>
      <trkpt lat="37.32152" lon="-7.20446">
        <ele>45.20232</ele>
        <time>2021-07-12T19:44:05Z</time>
      </trkpt>
    </trkseg>
  </trk>
  <trk>
    <name><![CDATA[Road trip fait P/E_8]]></name>
    <extensions>
      <line xmlns="http://www.topografix.com/GPX/gpx_style/0/2">
        <color>008800</color>
        <width>4</width>
      </line>
    </extensions>
    <trkseg>
      <trkpt lat="37.32153" lon="-7.20446">
        <ele>44.32567</ele>
        <time>2021-07-12T19:44:22Z</time>
      </trkpt>
      <trkpt lat="37.32153" lon="-7.20446">
        <ele>44.32567</ele>
        <time>2021-07-12T19:44:22Z</time>
      </trkpt>
      <trkpt lat="37.32153" lon="-7.20441">
        <ele>44.43804</ele>
        <time>2021-07-13T07:47:22Z</time>
      </trkpt>
      <trkpt lat="37.3215" lon="-7.20437">
        <ele>44.71199</ele>
        <time>2021-07-13T07:47:45Z</time>
      </trkpt>
      <trkpt lat="37.32151" lon="-7.20438">
        <ele>43.68064</ele>
        <time>2021-07-13T07:48:44Z</time>
      </trkpt>
      <trkpt lat="37.32151" lon="-7.20442">
        <ele>44.19683</ele>
        <time>2021-07-13T07:49:43Z</time>
      </trkpt>
      <trkpt lat="37.3215" lon="-7.20437">
        <ele>44.49245</ele>
        <time>2021-07-13T07:50:36Z</time>
      </trkpt>
      <trkpt lat="37.32155" lon="-7.20375">
        <ele>46.32222</ele>
        <time>2021-07-13T07:50:47Z</time>
      </trkpt>
      <trkpt lat="37.32138" lon="-7.20313">
        <ele>48.19079</ele>
        <time>2021-07-13T07:50:58Z</time>
      </trkpt>
      <trkpt lat="37.32117" lon="-7.20246">
        <ele>44.11715</ele>
        <time>2021-07-13T07:51:09Z</time>
      </trkpt>
      <trkpt lat="37.32089" lon="-7.20207">
        <ele>40.07316</ele>
        <time>2021-07-13T07:51:20Z</time>
      </trkpt>
      <trkpt lat="37.3205" lon="-7.20156">
        <ele>37.50061</ele>
        <time>2021-07-13T07:51:31Z</time>
      </trkpt>
      <trkpt lat="37.3198" lon="-7.20116">
        <ele>37.13723</ele>
        <time>2021-07-13T07:51:42Z</time>
      </trkpt>
      <trkpt lat="37.31942" lon="-7.20094">
        <ele>31.83734</ele>
        <time>2021-07-13T07:51:53Z</time>
      </trkpt>
      <trkpt lat="37.31922" lon="-7.20062">
        <ele>30.11721</ele>
        <time>2021-07-13T07:52:04Z</time>
      </trkpt>
      <trkpt lat="37.31865" lon="-7.20097">
        <ele>34.18116</ele>
        <time>2021-07-13T07:52:15Z</time>
      </trkpt>
      <trkpt lat="37.31833" lon="-7.20149">
        <ele>31.42005</ele>
        <time>2021-07-13T07:52:26Z</time>
      </trkpt>
      <trkpt lat="37.31784" lon="-7.20252">
        <ele>35.24004</ele>
        <time>2021-07-13T07:52:37Z</time>
      </trkpt>
      <trkpt lat="37.31684" lon="-7.20208">
        <ele>37.79343</ele>
        <time>2021-07-13T07:52:48Z</time>
      </trkpt>
      <trkpt lat="37.31577" lon="-7.20211">
        <ele>29.54175</ele>
        <time>2021-07-13T07:52:59Z</time>
      </trkpt>
      <trkpt lat="37.31496" lon="-7.20274">
        <ele>32.59441</ele>
        <time>2021-07-13T07:53:10Z</time>
      </trkpt>
      <trkpt lat="37.31494" lon="-7.20311">
        <ele>32.09896</ele>
        <time>2021-07-13T07:53:21Z</time>
      </trkpt>
      <trkpt lat="37.31494" lon="-7.20283">
        <ele>31.75833</ele>
        <time>2021-07-13T07:53:32Z</time>
      </trkpt>
      <trkpt lat="37.31441" lon="-7.20143">
        <ele>32.40919</ele>
        <time>2021-07-13T07:53:43Z</time>
      </trkpt>
      <trkpt lat="37.31402" lon="-7.20008">
        <ele>22.44509</ele>
        <time>2021-07-13T07:53:54Z</time>
      </trkpt>
      <trkpt lat="37.31359" lon="-7.19887">
        <ele>19.31783</ele>
        <time>2021-07-13T07:54:05Z</time>
      </trkpt>
      <trkpt lat="37.3147" lon="-7.19705">
        <ele>20.62568</ele>
        <time>2021-07-13T07:54:16Z</time>
      </trkpt>
      <trkpt lat="37.31534" lon="-7.19619">
        <ele>36.05137</ele>
        <time>2021-07-13T07:54:27Z</time>
      </trkpt>
      <trkpt lat="37.31521" lon="-7.19582">
        <ele>34.33728</ele>
        <time>2021-07-13T07:54:38Z</time>
      </trkpt>
      <trkpt lat="37.31451" lon="-7.19492">
        <ele>28.70263</ele>
        <time>2021-07-13T07:54:49Z</time>
      </trkpt>
      <trkpt lat="37.31362" lon="-7.19378">
        <ele>35.81774</ele>
        <time>2021-07-13T07:55:00Z</time>
      </trkpt>
      <trkpt lat="37.31289" lon="-7.1926">
        <ele>39.55407</ele>
        <time>2021-07-13T07:55:11Z</time>
      </trkpt>
      <trkpt lat="37.31187" lon="-7.19146">
        <ele>33.75771</ele>
        <time>2021-07-13T07:55:22Z</time>
      </trkpt>
      <trkpt lat="37.31117" lon="-7.18996">
        <ele>36.16953</ele>
        <time>2021-07-13T07:55:33Z</time>
      </trkpt>
      <trkpt lat="37.31062" lon="-7.18848">
        <ele>33.51135</ele>
        <time>2021-07-13T07:55:44Z</time>
      </trkpt>
      <trkpt lat="37.30994" lon="-7.18724">
        <ele>29.27719</ele>
        <time>2021-07-13T07:55:55Z</time>
      </trkpt>
      <trkpt lat="37.30986" lon="-7.18573">
        <ele>26.38453</ele>
        <time>2021-07-13T07:56:06Z</time>
      </trkpt>
      <trkpt lat="37.30963" lon="-7.18473">
        <ele>31.74224</ele>
        <time>2021-07-13T07:56:17Z</time>
      </trkpt>
      <trkpt lat="37.30935" lon="-7.18441">
        <ele>36.51313</ele>
        <time>2021-07-13T07:56:28Z</time>
      </trkpt>
      <trkpt lat="37.30896" lon="-7.18466">
        <ele>37.79807</ele>
        <time>2021-07-13T07:56:39Z</time>
      </trkpt>
      <trkpt lat="37.30806" lon="-7.18536">
        <ele>35.53841</ele>
        <time>2021-07-13T07:56:50Z</time>
      </trkpt>
      <trkpt lat="37.30687" lon="-7.18571">
        <ele>36.4715</ele>
        <time>2021-07-13T07:57:01Z</time>
      </trkpt>
      <trkpt lat="37.30574" lon="-7.1862">
        <ele>32.33975</ele>
        <time>2021-07-13T07:57:12Z</time>
      </trkpt>
      <trkpt lat="37.30476" lon="-7.1865">
        <ele>38.36629</ele>
        <time>2021-07-13T07:57:23Z</time>
      </trkpt>
      <trkpt lat="37.30371" lon="-7.18625">
        <ele>34.29301</ele>
        <time>2021-07-13T07:57:34Z</time>
      </trkpt>
      <trkpt lat="37.30259" lon="-7.18583">
        <ele>33.2612</ele>
        <time>2021-07-13T07:57:45Z</time>
      </trkpt>
      <trkpt lat="37.30162" lon="-7.18549">
        <ele>30.23468</ele>
        <time>2021-07-13T07:57:56Z</time>
      </trkpt>
      <trkpt lat="37.30077" lon="-7.1849">
        <ele>16.56911</ele>
        <time>2021-07-13T07:58:07Z</time>
      </trkpt>
      <trkpt lat="37.30013" lon="-7.18421">
        <ele>12.91153</ele>
        <time>2021-07-13T07:58:18Z</time>
      </trkpt>
      <trkpt lat="37.29927" lon="-7.1832">
        <ele>8.705704</ele>
        <time>2021-07-13T07:58:29Z</time>
      </trkpt>
      <trkpt lat="37.29859" lon="-7.18247">
        <ele>8.768708</ele>
        <time>2021-07-13T07:58:40Z</time>
      </trkpt>
      <trkpt lat="37.29865" lon="-7.18127">
        <ele>8.583003</ele>
        <time>2021-07-13T07:58:51Z</time>
      </trkpt>
      <trkpt lat="37.29868" lon="-7.18085">
        <ele>15.27947</ele>
        <time>2021-07-13T07:59:02Z</time>
      </trkpt>
      <trkpt lat="37.29879" lon="-7.18033">
        <ele>16.77048</ele>
        <time>2021-07-13T07:59:13Z</time>
      </trkpt>
      <trkpt lat="37.29864" lon="-7.17904">
        <ele>15.9715</ele>
        <time>2021-07-13T07:59:24Z</time>
      </trkpt>
      <trkpt lat="37.29796" lon="-7.17772">
        <ele>15.90799</ele>
        <time>2021-07-13T07:59:35Z</time>
      </trkpt>
      <trkpt lat="37.29776" lon="-7.1766">
        <ele>15.65958</ele>
        <time>2021-07-13T07:59:46Z</time>
      </trkpt>
      <trkpt lat="37.29692" lon="-7.17538">
        <ele>19.28989</ele>
        <time>2021-07-13T07:59:57Z</time>
      </trkpt>
      <trkpt lat="37.29609" lon="-7.17396">
        <ele>17.41494</ele>
        <time>2021-07-13T08:00:08Z</time>
      </trkpt>
      <trkpt lat="37.29524" lon="-7.17294">
        <ele>9.936907</ele>
        <time>2021-07-13T08:00:19Z</time>
      </trkpt>
      <trkpt lat="37.29478" lon="-7.17276">
        <ele>6.835066</ele>
        <time>2021-07-13T08:00:30Z</time>
      </trkpt>
      <trkpt lat="37.29418" lon="-7.17203">
        <ele>7.67196</ele>
        <time>2021-07-13T08:00:41Z</time>
      </trkpt>
      <trkpt lat="37.2933" lon="-7.17111">
        <ele>8.665489</ele>
        <time>2021-07-13T08:00:52Z</time>
      </trkpt>
      <trkpt lat="37.29232" lon="-7.1704">
        <ele>6.864725</ele>
        <time>2021-07-13T08:01:03Z</time>
      </trkpt>
      <trkpt lat="37.2911" lon="-7.1683">
        <ele>16.27344</ele>
        <time>2021-07-13T08:01:14Z</time>
      </trkpt>
      <trkpt lat="37.29005" lon="-7.16697">
        <ele>9.069261</ele>
        <time>2021-07-13T08:01:25Z</time>
      </trkpt>
      <trkpt lat="37.28959" lon="-7.16708">
        <ele>13.1583</ele>
        <time>2021-07-13T08:01:36Z</time>
      </trkpt>
      <trkpt lat="37.28851" lon="-7.16733">
        <ele>18.20774</ele>
        <time>2021-07-13T08:01:47Z</time>
      </trkpt>
      <trkpt lat="37.28753" lon="-7.16716">
        <ele>16.0713</ele>
        <time>2021-07-13T08:01:58Z</time>
      </trkpt>
      <trkpt lat="37.28694" lon="-7.16677">
        <ele>14.93394</ele>
        <time>2021-07-13T08:02:09Z</time>
      </trkpt>
      <trkpt lat="37.28694" lon="-7.16668">
        <ele>15.6623</ele>
        <time>2021-07-13T08:02:20Z</time>
      </trkpt>
      <trkpt lat="37.28695" lon="-7.16663">
        <ele>14.57285</ele>
        <time>2021-07-13T08:02:41Z</time>
      </trkpt>
      <trkpt lat="37.28711" lon="-7.16635">
        <ele>15.18057</ele>
        <time>2021-07-13T08:02:52Z</time>
      </trkpt>
      <trkpt lat="37.28698" lon="-7.16497">
        <ele>12.52515</ele>
        <time>2021-07-13T08:03:03Z</time>
      </trkpt>
      <trkpt lat="37.28664" lon="-7.16331">
        <ele>7.792658</ele>
        <time>2021-07-13T08:03:14Z</time>
      </trkpt>
      <trkpt lat="37.2863" lon="-7.16174">
        <ele>5.899378</ele>
        <time>2021-07-13T08:03:25Z</time>
      </trkpt>
      <trkpt lat="37.28599" lon="-7.1604">
        <ele>11.10012</ele>
        <time>2021-07-13T08:03:36Z</time>
      </trkpt>
      <trkpt lat="37.2857" lon="-7.15921">
        <ele>19.43172</ele>
        <time>2021-07-13T08:03:47Z</time>
      </trkpt>
      <trkpt lat="37.28546" lon="-7.15799">
        <ele>21.59218</ele>
        <time>2021-07-13T08:03:58Z</time>
      </trkpt>
      <trkpt lat="37.28508" lon="-7.15697">
        <ele>21.23943</ele>
        <time>2021-07-13T08:04:09Z</time>
      </trkpt>
      <trkpt lat="37.28454" lon="-7.15614">
        <ele>19.76074</ele>
        <time>2021-07-13T08:04:20Z</time>
      </trkpt>
      <trkpt lat="37.28402" lon="-7.15608">
        <ele>22.94374</ele>
        <time>2021-07-13T08:04:32Z</time>
      </trkpt>
      <trkpt lat="37.28327" lon="-7.15631">
        <ele>26.56183</ele>
        <time>2021-07-13T08:04:43Z</time>
      </trkpt>
      <trkpt lat="37.28294" lon="-7.15627">
        <ele>27.39678</ele>
        <time>2021-07-13T08:04:54Z</time>
      </trkpt>
      <trkpt lat="37.28288" lon="-7.15624">
        <ele>35.59846</ele>
        <time>2021-07-13T08:05:13Z</time>
      </trkpt>
      <trkpt lat="37.28229" lon="-7.1559">
        <ele>34.27137</ele>
        <time>2021-07-13T08:05:24Z</time>
      </trkpt>
      <trkpt lat="37.28206" lon="-7.15574">
        <ele>26.00564</ele>
        <time>2021-07-13T08:05:35Z</time>
      </trkpt>
      <trkpt lat="37.2821" lon="-7.15503">
        <ele>20.20754</ele>
        <time>2021-07-13T08:05:46Z</time>
      </trkpt>
      <trkpt lat="37.28229" lon="-7.15443">
        <ele>18.67121</ele>
        <time>2021-07-13T08:05:57Z</time>
      </trkpt>
      <trkpt lat="37.28204" lon="-7.1539">
        <ele>15.48669</ele>
        <time>2021-07-13T08:06:08Z</time>
      </trkpt>
      <trkpt lat="37.28169" lon="-7.15341">
        <ele>15.51634</ele>
        <time>2021-07-13T08:06:19Z</time>
      </trkpt>
      <trkpt lat="37.28129" lon="-7.15293">
        <ele>15.09036</ele>
        <time>2021-07-13T08:06:30Z</time>
      </trkpt>
      <trkpt lat="37.28077" lon="-7.15349">
        <ele>17.02215</ele>
        <time>2021-07-13T08:06:41Z</time>
      </trkpt>
      <trkpt lat="37.28034" lon="-7.15297">
        <ele>13.58481</ele>
        <time>2021-07-13T08:06:52Z</time>
      </trkpt>
      <trkpt lat="37.27983" lon="-7.15253">
        <ele>12.18532</ele>
        <time>2021-07-13T08:07:03Z</time>
      </trkpt>
      <trkpt lat="37.27942" lon="-7.152">
        <ele>11.98177</ele>
        <time>2021-07-13T08:07:14Z</time>
      </trkpt>
      <trkpt lat="37.28005" lon="-7.1515">
        <ele>12.60749</ele>
        <time>2021-07-13T08:07:25Z</time>
      </trkpt>
      <trkpt lat="37.28099" lon="-7.15113">
        <ele>19.7335</ele>
        <time>2021-07-13T08:07:36Z</time>
      </trkpt>
      <trkpt lat="37.28171" lon="-7.15131">
        <ele>17.01467</ele>
        <time>2021-07-13T08:07:47Z</time>
      </trkpt>
      <trkpt lat="37.28176" lon="-7.15067">
        <ele>16.02121</ele>
        <time>2021-07-13T08:07:58Z</time>
      </trkpt>
      <trkpt lat="37.28161" lon="-7.14981">
        <ele>17.94172</ele>
        <time>2021-07-13T08:08:09Z</time>
      </trkpt>
      <trkpt lat="37.28157" lon="-7.14908">
        <ele>12.62274</ele>
        <time>2021-07-13T08:08:20Z</time>
      </trkpt>
      <trkpt lat="37.28125" lon="-7.14836">
        <ele>12.81916</ele>
        <time>2021-07-13T08:08:31Z</time>
      </trkpt>
      <trkpt lat="37.28059" lon="-7.1469">
        <ele>13.72518</ele>
        <time>2021-07-13T08:08:42Z</time>
      </trkpt>
      <trkpt lat="37.28008" lon="-7.14594">
        <ele>17.48886</ele>
        <time>2021-07-13T08:08:53Z</time>
      </trkpt>
      <trkpt lat="37.28004" lon="-7.1454">
        <ele>17.92918</ele>
        <time>2021-07-13T08:09:04Z</time>
      </trkpt>
      <trkpt lat="37.28036" lon="-7.1445">
        <ele>19.99512</ele>
        <time>2021-07-13T08:09:15Z</time>
      </trkpt>
      <trkpt lat="37.28037" lon="-7.14215">
        <ele>25.90242</ele>
        <time>2021-07-13T08:09:26Z</time>
      </trkpt>
      <trkpt lat="37.28058" lon="-7.13989">
        <ele>25.73836</ele>
        <time>2021-07-13T08:09:37Z</time>
      </trkpt>
      <trkpt lat="37.27962" lon="-7.1386">
        <ele>18.98899</ele>
        <time>2021-07-13T08:09:48Z</time>
      </trkpt>
      <trkpt lat="37.27831" lon="-7.13701">
        <ele>19.77914</ele>
        <time>2021-07-13T08:09:59Z</time>
      </trkpt>
      <trkpt lat="37.2779" lon="-7.135">
        <ele>27.10507</ele>
        <time>2021-07-13T08:10:10Z</time>
      </trkpt>
      <trkpt lat="37.27657" lon="-7.13325">
        <ele>20.41849</ele>
        <time>2021-07-13T08:10:21Z</time>
      </trkpt>
      <trkpt lat="37.27542" lon="-7.13146">
        <ele>20.78179</ele>
        <time>2021-07-13T08:10:32Z</time>
      </trkpt>
      <trkpt lat="37.27428" lon="-7.12977">
        <ele>24.55476</ele>
        <time>2021-07-13T08:10:43Z</time>
      </trkpt>
      <trkpt lat="37.27349" lon="-7.12907">
        <ele>22.44015</ele>
        <time>2021-07-13T08:10:54Z</time>
      </trkpt>
      <trkpt lat="37.2722" lon="-7.12799">
        <ele>16.56198</ele>
        <time>2021-07-13T08:11:05Z</time>
      </trkpt>
      <trkpt lat="37.27128" lon="-7.12586">
        <ele>10.96738</ele>
        <time>2021-07-13T08:11:16Z</time>
      </trkpt>
      <trkpt lat="37.27109" lon="-7.12445">
        <ele>6.530682</ele>
        <time>2021-07-13T08:11:27Z</time>
      </trkpt>
      <trkpt lat="37.27117" lon="-7.12397">
        <ele>11.70908</ele>
        <time>2021-07-13T08:11:38Z</time>
      </trkpt>
      <trkpt lat="37.27034" lon="-7.1233">
        <ele>8.54467</ele>
        <time>2021-07-13T08:11:49Z</time>
      </trkpt>
      <trkpt lat="37.27033" lon="-7.12156">
        <ele>-17.75581</ele>
        <time>2021-07-13T08:12:00Z</time>
      </trkpt>
      <trkpt lat="37.27045" lon="-7.11944">
        <ele>10.0034</ele>
        <time>2021-07-13T08:12:11Z</time>
      </trkpt>
      <trkpt lat="37.27024" lon="-7.11841">
        <ele>18.22352</ele>
        <time>2021-07-13T08:12:22Z</time>
      </trkpt>
      <trkpt lat="37.27028" lon="-7.11667">
        <ele>23.34623</ele>
        <time>2021-07-13T08:12:33Z</time>
      </trkpt>
      <trkpt lat="37.26983" lon="-7.11511">
        <ele>25.40872</ele>
        <time>2021-07-13T08:12:44Z</time>
      </trkpt>
      <trkpt lat="37.26929" lon="-7.11376">
        <ele>24.42975</ele>
        <time>2021-07-13T08:12:55Z</time>
      </trkpt>
      <trkpt lat="37.26912" lon="-7.11267">
        <ele>23.45241</ele>
        <time>2021-07-13T08:13:06Z</time>
      </trkpt>
      <trkpt lat="37.26949" lon="-7.11186">
        <ele>27.22668</ele>
        <time>2021-07-13T08:13:17Z</time>
      </trkpt>
      <trkpt lat="37.27046" lon="-7.11144">
        <ele>26.10979</ele>
        <time>2021-07-13T08:13:28Z</time>
      </trkpt>
      <trkpt lat="37.27106" lon="-7.11077">
        <ele>31.845</ele>
        <time>2021-07-13T08:13:39Z</time>
      </trkpt>
      <trkpt lat="37.27167" lon="-7.11001">
        <ele>34.90147</ele>
        <time>2021-07-13T08:13:50Z</time>
      </trkpt>
      <trkpt lat="37.27256" lon="-7.1096">
        <ele>34.09078</ele>
        <time>2021-07-13T08:14:01Z</time>
      </trkpt>
      <trkpt lat="37.27318" lon="-7.109">
        <ele>34.01797</ele>
        <time>2021-07-13T08:14:12Z</time>
      </trkpt>
      <trkpt lat="37.27371" lon="-7.10844">
        <ele>29.66731</ele>
        <time>2021-07-13T08:14:23Z</time>
      </trkpt>
      <trkpt lat="37.27427" lon="-7.1079">
        <ele>30.60907</ele>
        <time>2021-07-13T08:14:34Z</time>
      </trkpt>
      <trkpt lat="37.2748" lon="-7.10747">
        <ele>34.98672</ele>
        <time>2021-07-13T08:14:45Z</time>
      </trkpt>
      <trkpt lat="37.27553" lon="-7.10755">
        <ele>37.15078</ele>
        <time>2021-07-13T08:14:56Z</time>
      </trkpt>
      <trkpt lat="37.27607" lon="-7.10769">
        <ele>34.00875</ele>
        <time>2021-07-13T08:15:07Z</time>
      </trkpt>
      <trkpt lat="37.27611" lon="-7.10771">
        <ele>34.38558</ele>
        <time>2021-07-13T08:15:45Z</time>
      </trkpt>
      <trkpt lat="37.27657" lon="-7.10729">
        <ele>34.34124</ele>
        <time>2021-07-13T08:15:56Z</time>
      </trkpt>
      <trkpt lat="37.27675" lon="-7.10653">
        <ele>32.20195</ele>
        <time>2021-07-13T08:16:07Z</time>
      </trkpt>
      <trkpt lat="37.27687" lon="-7.10582">
        <ele>33.9289</ele>
        <time>2021-07-13T08:16:18Z</time>
      </trkpt>
      <trkpt lat="37.27731" lon="-7.10523">
        <ele>34.27634</ele>
        <time>2021-07-13T08:16:29Z</time>
      </trkpt>
      <trkpt lat="37.27786" lon="-7.10486">
        <ele>37.84813</ele>
        <time>2021-07-13T08:16:40Z</time>
      </trkpt>
      <trkpt lat="37.27822" lon="-7.10423">
        <ele>39.49433</ele>
        <time>2021-07-13T08:16:51Z</time>
      </trkpt>
      <trkpt lat="37.27876" lon="-7.1036">
        <ele>39.39126</ele>
        <time>2021-07-13T08:17:02Z</time>
      </trkpt>
      <trkpt lat="37.27917" lon="-7.10289">
        <ele>33.25808</ele>
        <time>2021-07-13T08:17:13Z</time>
      </trkpt>
      <trkpt lat="37.27959" lon="-7.10226">
        <ele>35.07014</ele>
        <time>2021-07-13T08:17:24Z</time>
      </trkpt>
      <trkpt lat="37.28005" lon="-7.10138">
        <ele>27.56637</ele>
        <time>2021-07-13T08:17:35Z</time>
      </trkpt>
      <trkpt lat="37.28039" lon="-7.10076">
        <ele>27.21199</ele>
        <time>2021-07-13T08:17:46Z</time>
      </trkpt>
      <trkpt lat="37.28061" lon="-7.10007">
        <ele>29.35325</ele>
        <time>2021-07-13T08:17:57Z</time>
      </trkpt>
      <trkpt lat="37.28099" lon="-7.09888">
        <ele>33.51852</ele>
        <time>2021-07-13T08:18:08Z</time>
      </trkpt>
      <trkpt lat="37.28102" lon="-7.09877">
        <ele>32.2566</ele>
        <time>2021-07-13T08:18:19Z</time>
      </trkpt>
      <trkpt lat="37.28155" lon="-7.0976">
        <ele>38.97924</ele>
        <time>2021-07-13T08:18:30Z</time>
      </trkpt>
      <trkpt lat="37.28226" lon="-7.0955">
        <ele>46.58609</ele>
        <time>2021-07-13T08:18:41Z</time>
      </trkpt>
      <trkpt lat="37.28277" lon="-7.0936">
        <ele>53.88098</ele>
        <time>2021-07-13T08:18:52Z</time>
      </trkpt>
      <trkpt lat="37.28231" lon="-7.09214">
        <ele>55.02209</ele>
        <time>2021-07-13T08:19:03Z</time>
      </trkpt>
      <trkpt lat="37.28145" lon="-7.09038">
        <ele>65.244</ele>
        <time>2021-07-13T08:19:14Z</time>
      </trkpt>
      <trkpt lat="37.28067" lon="-7.08866">
        <ele>64.21693</ele>
        <time>2021-07-13T08:19:25Z</time>
      </trkpt>
      <trkpt lat="37.27952" lon="-7.08734">
        <ele>64.87242</ele>
        <time>2021-07-13T08:19:36Z</time>
      </trkpt>
      <trkpt lat="37.27842" lon="-7.08571">
        <ele>66.2646</ele>
        <time>2021-07-13T08:19:47Z</time>
      </trkpt>
      <trkpt lat="37.27677" lon="-7.08457">
        <ele>67.50581</ele>
        <time>2021-07-13T08:19:58Z</time>
      </trkpt>
      <trkpt lat="37.27559" lon="-7.08304">
        <ele>62.94512</ele>
        <time>2021-07-13T08:20:09Z</time>
      </trkpt>
      <trkpt lat="37.27504" lon="-7.08224">
        <ele>61.98199</ele>
        <time>2021-07-13T08:20:20Z</time>
      </trkpt>
      <trkpt lat="37.27563" lon="-7.08051">
        <ele>67.30545</ele>
        <time>2021-07-13T08:20:31Z</time>
      </trkpt>
      <trkpt lat="37.27643" lon="-7.07915">
        <ele>70.57936</ele>
        <time>2021-07-13T08:20:42Z</time>
      </trkpt>
      <trkpt lat="37.27758" lon="-7.07895">
        <ele>73.71613</ele>
        <time>2021-07-13T08:20:53Z</time>
      </trkpt>
      <trkpt lat="37.27815" lon="-7.0785">
        <ele>72.83748</ele>
        <time>2021-07-13T08:21:04Z</time>
      </trkpt>
      <trkpt lat="37.27867" lon="-7.07754">
        <ele>68.28199</ele>
        <time>2021-07-13T08:21:15Z</time>
      </trkpt>
      <trkpt lat="37.27823" lon="-7.07572">
        <ele>68.97945</ele>
        <time>2021-07-13T08:21:26Z</time>
      </trkpt>
      <trkpt lat="37.2778" lon="-7.07406">
        <ele>64.78546</ele>
        <time>2021-07-13T08:21:37Z</time>
      </trkpt>
      <trkpt lat="37.27726" lon="-7.07258">
        <ele>63.40373</ele>
        <time>2021-07-13T08:21:48Z</time>
      </trkpt>
      <trkpt lat="37.27655" lon="-7.07207">
        <ele>63.8083</ele>
        <time>2021-07-13T08:21:59Z</time>
      </trkpt>
      <trkpt lat="37.27554" lon="-7.0721">
        <ele>60.74809</ele>
        <time>2021-07-13T08:22:10Z</time>
      </trkpt>
      <trkpt lat="37.27485" lon="-7.07151">
        <ele>59.40358</ele>
        <time>2021-07-13T08:22:21Z</time>
      </trkpt>
      <trkpt lat="37.27384" lon="-7.07064">
        <ele>59.41871</ele>
        <time>2021-07-13T08:22:32Z</time>
      </trkpt>
      <trkpt lat="37.27283" lon="-7.06983">
        <ele>59.9396</ele>
        <time>2021-07-13T08:22:43Z</time>
      </trkpt>
      <trkpt lat="37.27237" lon="-7.06845">
        <ele>57.56326</ele>
        <time>2021-07-13T08:22:54Z</time>
      </trkpt>
      <trkpt lat="37.27246" lon="-7.0671">
        <ele>53.52741</ele>
        <time>2021-07-13T08:23:05Z</time>
      </trkpt>
      <trkpt lat="37.27207" lon="-7.0655">
        <ele>54.31655</ele>
        <time>2021-07-13T08:23:16Z</time>
      </trkpt>
      <trkpt lat="37.27149" lon="-7.06406">
        <ele>52.0992</ele>
        <time>2021-07-13T08:23:27Z</time>
      </trkpt>
      <trkpt lat="37.27056" lon="-7.06303">
        <ele>56.58311</ele>
        <time>2021-07-13T08:23:38Z</time>
      </trkpt>
      <trkpt lat="37.26987" lon="-7.06197">
        <ele>59.09038</ele>
        <time>2021-07-13T08:23:49Z</time>
      </trkpt>
      <trkpt lat="37.26937" lon="-7.0609">
        <ele>56.50724</ele>
        <time>2021-07-13T08:24:00Z</time>
      </trkpt>
      <trkpt lat="37.26869" lon="-7.05995">
        <ele>56.79263</ele>
        <time>2021-07-13T08:24:11Z</time>
      </trkpt>
      <trkpt lat="37.26853" lon="-7.05848">
        <ele>62.39622</ele>
        <time>2021-07-13T08:24:22Z</time>
      </trkpt>
      <trkpt lat="37.2686" lon="-7.05697">
        <ele>62.06818</ele>
        <time>2021-07-13T08:24:33Z</time>
      </trkpt>
      <trkpt lat="37.2685" lon="-7.05554">
        <ele>61.27025</ele>
        <time>2021-07-13T08:24:44Z</time>
      </trkpt>
      <trkpt lat="37.2688" lon="-7.05436">
        <ele>61.37924</ele>
        <time>2021-07-13T08:24:55Z</time>
      </trkpt>
      <trkpt lat="37.26906" lon="-7.05311">
        <ele>59.2203</ele>
        <time>2021-07-13T08:25:06Z</time>
      </trkpt>
      <trkpt lat="37.26984" lon="-7.05209">
        <ele>56.59201</ele>
        <time>2021-07-13T08:25:17Z</time>
      </trkpt>
      <trkpt lat="37.27009" lon="-7.05076">
        <ele>51.01542</ele>
        <time>2021-07-13T08:25:28Z</time>
      </trkpt>
      <trkpt lat="37.27031" lon="-7.04946">
        <ele>54.24715</ele>
        <time>2021-07-13T08:25:39Z</time>
      </trkpt>
      <trkpt lat="37.27056" lon="-7.04861">
        <ele>53.44647</ele>
        <time>2021-07-13T08:25:50Z</time>
      </trkpt>
      <trkpt lat="37.27037" lon="-7.04751">
        <ele>53.79125</ele>
        <time>2021-07-13T08:26:01Z</time>
      </trkpt>
      <trkpt lat="37.26955" lon="-7.04629">
        <ele>58.37691</ele>
        <time>2021-07-13T08:26:12Z</time>
      </trkpt>
      <trkpt lat="37.26874" lon="-7.04564">
        <ele>56.17008</ele>
        <time>2021-07-13T08:26:23Z</time>
      </trkpt>
      <trkpt lat="37.26829" lon="-7.04472">
        <ele>53.18984</ele>
        <time>2021-07-13T08:26:34Z</time>
      </trkpt>
      <trkpt lat="37.26784" lon="-7.04419">
        <ele>43.73448</ele>
        <time>2021-07-13T08:26:45Z</time>
      </trkpt>
      <trkpt lat="37.26682" lon="-7.04407">
        <ele>45.01132</ele>
        <time>2021-07-13T08:26:56Z</time>
      </trkpt>
      <trkpt lat="37.26595" lon="-7.04302">
        <ele>43.31898</ele>
        <time>2021-07-13T08:27:07Z</time>
      </trkpt>
      <trkpt lat="37.26498" lon="-7.04255">
        <ele>42.20971</ele>
        <time>2021-07-13T08:27:18Z</time>
      </trkpt>
      <trkpt lat="37.2638" lon="-7.04172">
        <ele>37.43938</ele>
        <time>2021-07-13T08:27:29Z</time>
      </trkpt>
      <trkpt lat="37.26355" lon="-7.03988">
        <ele>41.01615</ele>
        <time>2021-07-13T08:27:40Z</time>
      </trkpt>
      <trkpt lat="37.26382" lon="-7.03898">
        <ele>39.31739</ele>
        <time>2021-07-13T08:27:51Z</time>
      </trkpt>
      <trkpt lat="37.26461" lon="-7.03727">
        <ele>36.82818</ele>
        <time>2021-07-13T08:28:02Z</time>
      </trkpt>
      <trkpt lat="37.2654" lon="-7.03575">
        <ele>36.91345</ele>
        <time>2021-07-13T08:28:13Z</time>
      </trkpt>
      <trkpt lat="37.26661" lon="-7.03463">
        <ele>34.41529</ele>
        <time>2021-07-13T08:28:24Z</time>
      </trkpt>
      <trkpt lat="37.26783" lon="-7.03345">
        <ele>35.6973</ele>
        <time>2021-07-13T08:28:35Z</time>
      </trkpt>
      <trkpt lat="37.26884" lon="-7.03258">
        <ele>36.70414</ele>
        <time>2021-07-13T08:28:46Z</time>
      </trkpt>
      <trkpt lat="37.26918" lon="-7.03075">
        <ele>38.0262</ele>
        <time>2021-07-13T08:28:57Z</time>
      </trkpt>
      <trkpt lat="37.26958" lon="-7.0291">
        <ele>35.54098</ele>
        <time>2021-07-13T08:29:08Z</time>
      </trkpt>
      <trkpt lat="37.26988" lon="-7.02772">
        <ele>35.27013</ele>
        <time>2021-07-13T08:29:19Z</time>
      </trkpt>
      <trkpt lat="37.27024" lon="-7.02645">
        <ele>33.09945</ele>
        <time>2021-07-13T08:29:30Z</time>
      </trkpt>
      <trkpt lat="37.27086" lon="-7.02606">
        <ele>33.32764</ele>
        <time>2021-07-13T08:29:41Z</time>
      </trkpt>
      <trkpt lat="37.27205" lon="-7.02642">
        <ele>23.07183</ele>
        <time>2021-07-13T08:29:52Z</time>
      </trkpt>
      <trkpt lat="37.27289" lon="-7.02681">
        <ele>21.50627</ele>
        <time>2021-07-13T08:30:03Z</time>
      </trkpt>
      <trkpt lat="37.27329" lon="-7.02704">
        <ele>18.49812</ele>
        <time>2021-07-13T08:30:14Z</time>
      </trkpt>
      <trkpt lat="37.27428" lon="-7.02561">
        <ele>10.71008</ele>
        <time>2021-07-13T08:30:25Z</time>
      </trkpt>
      <trkpt lat="37.27548" lon="-7.02384">
        <ele>7.484952</ele>
        <time>2021-07-13T08:30:36Z</time>
      </trkpt>
      <trkpt lat="37.27607" lon="-7.02273">
        <ele>7.125371</ele>
        <time>2021-07-13T08:30:47Z</time>
      </trkpt>
      <trkpt lat="37.276" lon="-7.02195">
        <ele>5.246373</ele>
        <time>2021-07-13T08:30:58Z</time>
      </trkpt>
      <trkpt lat="37.27569" lon="-7.01964">
        <ele>7.618652</ele>
        <time>2021-07-13T08:31:09Z</time>
      </trkpt>
      <trkpt lat="37.27534" lon="-7.01718">
        <ele>8.983206</ele>
        <time>2021-07-13T08:31:20Z</time>
      </trkpt>
      <trkpt lat="37.27556" lon="-7.01543">
        <ele>10.52376</ele>
        <time>2021-07-13T08:31:31Z</time>
      </trkpt>
      <trkpt lat="37.27612" lon="-7.01426">
        <ele>14.19383</ele>
        <time>2021-07-13T08:31:42Z</time>
      </trkpt>
      <trkpt lat="37.27703" lon="-7.01237">
        <ele>14.21961</ele>
        <time>2021-07-13T08:31:53Z</time>
      </trkpt>
      <trkpt lat="37.27816" lon="-7.01027">
        <ele>7.866539</ele>
        <time>2021-07-13T08:32:04Z</time>
      </trkpt>
      <trkpt lat="37.27922" lon="-7.00791">
        <ele>6.936296</ele>
        <time>2021-07-13T08:32:15Z</time>
      </trkpt>
      <trkpt lat="37.28018" lon="-7.00543">
        <ele>8.589407</ele>
        <time>2021-07-13T08:32:26Z</time>
      </trkpt>
      <trkpt lat="37.28063" lon="-7.00286">
        <ele>12.35998</ele>
        <time>2021-07-13T08:32:37Z</time>
      </trkpt>
      <trkpt lat="37.28022" lon="-7.00104">
        <ele>14.75234</ele>
        <time>2021-07-13T08:32:48Z</time>
      </trkpt>
      <trkpt lat="37.27999" lon="-6.99958">
        <ele>14.78985</ele>
        <time>2021-07-13T08:32:59Z</time>
      </trkpt>
      <trkpt lat="37.27979" lon="-6.99808">
        <ele>12.31402</ele>
        <time>2021-07-13T08:33:10Z</time>
      </trkpt>
      <trkpt lat="37.27939" lon="-6.99615">
        <ele>8.838633</ele>
        <time>2021-07-13T08:33:21Z</time>
      </trkpt>
      <trkpt lat="37.27887" lon="-6.99415">
        <ele>6.439268</ele>
        <time>2021-07-13T08:33:32Z</time>
      </trkpt>
      <trkpt lat="37.27796" lon="-6.99272">
        <ele>12.41837</ele>
        <time>2021-07-13T08:33:43Z</time>
      </trkpt>
      <trkpt lat="37.27713" lon="-6.99196">
        <ele>14.40854</ele>
        <time>2021-07-13T08:33:54Z</time>
      </trkpt>
      <trkpt lat="37.27677" lon="-6.99164">
        <ele>19.58668</ele>
        <time>2021-07-13T08:34:05Z</time>
      </trkpt>
      <trkpt lat="37.27647" lon="-6.99138">
        <ele>21.56237</ele>
        <time>2021-07-13T08:34:16Z</time>
      </trkpt>
      <trkpt lat="37.27586" lon="-6.99136">
        <ele>23.90964</ele>
        <time>2021-07-13T08:34:27Z</time>
      </trkpt>
      <trkpt lat="37.27575" lon="-6.99114">
        <ele>25.06947</ele>
        <time>2021-07-13T08:34:38Z</time>
      </trkpt>
      <trkpt lat="37.27561" lon="-6.99118">
        <ele>21.90505</ele>
        <time>2021-07-13T08:34:51Z</time>
      </trkpt>
      <trkpt lat="37.27483" lon="-6.99128">
        <ele>24.99487</ele>
        <time>2021-07-13T08:35:02Z</time>
      </trkpt>
      <trkpt lat="37.27405" lon="-6.99136">
        <ele>20.61097</ele>
        <time>2021-07-13T08:35:13Z</time>
      </trkpt>
      <trkpt lat="37.27364" lon="-6.99155">
        <ele>21.58944</ele>
        <time>2021-07-13T08:35:24Z</time>
      </trkpt>
      <trkpt lat="37.27219" lon="-6.99088">
        <ele>21.84463</ele>
        <time>2021-07-13T08:35:35Z</time>
      </trkpt>
      <trkpt lat="37.27134" lon="-6.98992">
        <ele>21.11253</ele>
        <time>2021-07-13T08:35:46Z</time>
      </trkpt>
      <trkpt lat="37.27085" lon="-6.98858">
        <ele>16.01458</ele>
        <time>2021-07-13T08:35:57Z</time>
      </trkpt>
      <trkpt lat="37.27076" lon="-6.98728">
        <ele>6.092424</ele>
        <time>2021-07-13T08:36:08Z</time>
      </trkpt>
      <trkpt lat="37.27064" lon="-6.98655">
        <ele>4.821209</ele>
        <time>2021-07-13T08:36:19Z</time>
      </trkpt>
      <trkpt lat="37.27142" lon="-6.98601">
        <ele>2.105478</ele>
        <time>2021-07-13T08:36:30Z</time>
      </trkpt>
      <trkpt lat="37.27107" lon="-6.98411">
        <ele>1.300422</ele>
        <time>2021-07-13T08:36:41Z</time>
      </trkpt>
      <trkpt lat="37.26992" lon="-6.98227">
        <ele>2.667271</ele>
        <time>2021-07-13T08:36:52Z</time>
      </trkpt>
      <trkpt lat="37.26864" lon="-6.98033">
        <ele>5.413296</ele>
        <time>2021-07-13T08:37:03Z</time>
      </trkpt>
      <trkpt lat="37.26736" lon="-6.97832">
        <ele>9.397664</ele>
        <time>2021-07-13T08:37:14Z</time>
      </trkpt>
      <trkpt lat="37.26681" lon="-6.97595">
        <ele>10.47922</ele>
        <time>2021-07-13T08:37:25Z</time>
      </trkpt>
      <trkpt lat="37.26683" lon="-6.97357">
        <ele>10.10646</ele>
        <time>2021-07-13T08:37:36Z</time>
      </trkpt>
      <trkpt lat="37.26687" lon="-6.97115">
        <ele>9.067926</ele>
        <time>2021-07-13T08:37:47Z</time>
      </trkpt>
      <trkpt lat="37.2669" lon="-6.96873">
        <ele>8.527159</ele>
        <time>2021-07-13T08:37:58Z</time>
      </trkpt>
      <trkpt lat="37.26693" lon="-6.96638">
        <ele>7.426014</ele>
        <time>2021-07-13T08:38:09Z</time>
      </trkpt>
      <trkpt lat="37.26696" lon="-6.96409">
        <ele>7.195528</ele>
        <time>2021-07-13T08:38:20Z</time>
      </trkpt>
      <trkpt lat="37.26699" lon="-6.96194">
        <ele>3.778738</ele>
        <time>2021-07-13T08:38:31Z</time>
      </trkpt>
      <trkpt lat="37.26698" lon="-6.9605">
        <ele>1.002223</ele>
        <time>2021-07-13T08:38:42Z</time>
      </trkpt>
      <trkpt lat="37.26697" lon="-6.95883">
        <ele>-0.815155</ele>
        <time>2021-07-13T08:38:53Z</time>
      </trkpt>
      <trkpt lat="37.2659" lon="-6.95914">
        <ele>6.269676</ele>
        <time>2021-07-13T08:39:04Z</time>
      </trkpt>
      <trkpt lat="37.26508" lon="-6.95941">
        <ele>8.457837</ele>
        <time>2021-07-13T08:39:15Z</time>
      </trkpt>
      <trkpt lat="37.26472" lon="-6.95954">
        <ele>24.97277</ele>
        <time>2021-07-13T08:39:26Z</time>
      </trkpt>
      <trkpt lat="37.26404" lon="-6.95973">
        <ele>31.45322</ele>
        <time>2021-07-13T08:39:37Z</time>
      </trkpt>
      <trkpt lat="37.26374" lon="-6.95947">
        <ele>34.4096</ele>
        <time>2021-07-13T08:39:48Z</time>
      </trkpt>
      <trkpt lat="37.26343" lon="-6.95878">
        <ele>23.90678</ele>
        <time>2021-07-13T08:39:59Z</time>
      </trkpt>
      <trkpt lat="37.26342" lon="-6.95917">
        <ele>14.97586</ele>
        <time>2021-07-13T08:40:10Z</time>
      </trkpt>
      <trkpt lat="37.26244" lon="-6.95945">
        <ele>2.41267</ele>
        <time>2021-07-13T08:40:21Z</time>
      </trkpt>
      <trkpt lat="37.2618" lon="-6.9593">
        <ele>10.54944</ele>
        <time>2021-07-13T08:40:32Z</time>
      </trkpt>
      <trkpt lat="37.26103" lon="-6.95889">
        <ele>13.63988</ele>
        <time>2021-07-13T08:40:43Z</time>
      </trkpt>
      <trkpt lat="37.26037" lon="-6.95873">
        <ele>13.11848</ele>
        <time>2021-07-13T08:40:54Z</time>
      </trkpt>
      <trkpt lat="37.25975" lon="-6.95856">
        <ele>16.28952</ele>
        <time>2021-07-13T08:41:05Z</time>
      </trkpt>
      <trkpt lat="37.25929" lon="-6.95847">
        <ele>20.78618</ele>
        <time>2021-07-13T08:41:16Z</time>
      </trkpt>
      <trkpt lat="37.25923" lon="-6.95845">
        <ele>23.28538</ele>
        <time>2021-07-13T08:41:27Z</time>
      </trkpt>
      <trkpt lat="37.25919" lon="-6.95844">
        <ele>25.12892</ele>
        <time>2021-07-13T08:41:38Z</time>
      </trkpt>
      <trkpt lat="37.259" lon="-6.95839">
        <ele>24.15753</ele>
        <time>2021-07-13T08:41:49Z</time>
      </trkpt>
      <trkpt lat="37.25763" lon="-6.95807">
        <ele>11.18742</ele>
        <time>2021-07-13T08:42:00Z</time>
      </trkpt>
      <trkpt lat="37.25648" lon="-6.95779">
        <ele>8.027126</ele>
        <time>2021-07-13T08:42:11Z</time>
      </trkpt>
      <trkpt lat="37.2558" lon="-6.95762">
        <ele>6.468378</ele>
        <time>2021-07-13T08:42:22Z</time>
      </trkpt>
      <trkpt lat="37.25581" lon="-6.95758">
        <ele>5.689679</ele>
        <time>2021-07-13T08:42:33Z</time>
      </trkpt>
      <trkpt lat="37.25545" lon="-6.95735">
        <ele>6.676418</ele>
        <time>2021-07-13T08:42:44Z</time>
      </trkpt>
      <trkpt lat="37.25467" lon="-6.95651">
        <ele>10.20159</ele>
        <time>2021-07-13T08:42:55Z</time>
      </trkpt>
      <trkpt lat="37.25447" lon="-6.9563">
        <ele>14.45182</ele>
        <time>2021-07-13T08:43:06Z</time>
      </trkpt>
      <trkpt lat="37.25432" lon="-6.95611">
        <ele>19.39079</ele>
        <time>2021-07-13T08:43:17Z</time>
      </trkpt>
      <trkpt lat="37.25406" lon="-6.95583">
        <ele>17.41147</ele>
        <time>2021-07-13T08:43:28Z</time>
      </trkpt>
      <trkpt lat="37.25403" lon="-6.95578">
        <ele>19.99568</ele>
        <time>2021-07-13T08:43:39Z</time>
      </trkpt>
      <trkpt lat="37.25401" lon="-6.95573">
        <ele>19.75673</ele>
        <time>2021-07-13T08:43:50Z</time>
      </trkpt>
      <trkpt lat="37.25399" lon="-6.95577">
        <ele>11.89588</ele>
        <time>2021-07-13T08:44:07Z</time>
      </trkpt>
      <trkpt lat="37.25402" lon="-6.9558">
        <ele>9.294286</ele>
        <time>2021-07-13T08:44:18Z</time>
      </trkpt>
      <trkpt lat="37.254" lon="-6.95574">
        <ele>14.44558</ele>
        <time>2021-07-13T08:44:39Z</time>
      </trkpt>
      <trkpt lat="37.2539" lon="-6.95565">
        <ele>16.44372</ele>
        <time>2021-07-13T08:44:50Z</time>
      </trkpt>
      <trkpt lat="37.25391" lon="-6.95569">
        <ele>16.10281</ele>
        <time>2021-07-13T08:45:03Z</time>
      </trkpt>
      <trkpt lat="37.25335" lon="-6.95611">
        <ele>23.47631</ele>
        <time>2021-07-13T08:45:14Z</time>
      </trkpt>
      <trkpt lat="37.25249" lon="-6.95671">
        <ele>38.60209</ele>
        <time>2021-07-13T08:45:25Z</time>
      </trkpt>
      <trkpt lat="37.25165" lon="-6.9573">
        <ele>36.97088</ele>
        <time>2021-07-13T08:45:36Z</time>
      </trkpt>
      <trkpt lat="37.25144" lon="-6.95762">
        <ele>27.15795</ele>
        <time>2021-07-13T08:45:47Z</time>
      </trkpt>
      <trkpt lat="37.25034" lon="-6.95721">
        <ele>17.30344</ele>
        <time>2021-07-13T08:45:58Z</time>
      </trkpt>
      <trkpt lat="37.2491" lon="-6.95673">
        <ele>12.20751</ele>
        <time>2021-07-13T08:46:09Z</time>
      </trkpt>
      <trkpt lat="37.2478" lon="-6.95623">
        <ele>6.197265</ele>
        <time>2021-07-13T08:46:20Z</time>
      </trkpt>
      <trkpt lat="37.24652" lon="-6.95572">
        <ele>3.34962</ele>
        <time>2021-07-13T08:46:31Z</time>
      </trkpt>
      <trkpt lat="37.24509" lon="-6.9553">
        <ele>4.311902</ele>
        <time>2021-07-13T08:46:42Z</time>
      </trkpt>
      <trkpt lat="37.24376" lon="-6.95508">
        <ele>3.461311</ele>
        <time>2021-07-13T08:46:53Z</time>
      </trkpt>
      <trkpt lat="37.24233" lon="-6.95512">
        <ele>2.317984</ele>
        <time>2021-07-13T08:47:04Z</time>
      </trkpt>
      <trkpt lat="37.24103" lon="-6.95469">
        <ele>0.983114</ele>
        <time>2021-07-13T08:47:15Z</time>
      </trkpt>
      <trkpt lat="37.23973" lon="-6.95439">
        <ele>0.123562</ele>
        <time>2021-07-13T08:47:26Z</time>
      </trkpt>
      <trkpt lat="37.23865" lon="-6.95452">
        <ele>-0.925514</ele>
        <time>2021-07-13T08:47:37Z</time>
      </trkpt>
      <trkpt lat="37.23917" lon="-6.95414">
        <ele>1.236309</ele>
        <time>2021-07-13T08:47:48Z</time>
      </trkpt>
      <trkpt lat="37.24047" lon="-6.9544">
        <ele>1.356516</ele>
        <time>2021-07-13T08:47:59Z</time>
      </trkpt>
      <trkpt lat="37.24081" lon="-6.95424">
        <ele>0.570775</ele>
        <time>2021-07-13T08:48:10Z</time>
      </trkpt>
      <trkpt lat="37.24067" lon="-6.95421">
        <ele>6.105615</ele>
        <time>2021-07-13T08:48:21Z</time>
      </trkpt>
      <trkpt lat="37.24061" lon="-6.9542">
        <ele>7.403226</ele>
        <time>2021-07-13T08:48:49Z</time>
      </trkpt>
      <trkpt lat="37.24065" lon="-6.95421">
        <ele>11.08034</ele>
        <time>2021-07-13T08:49:01Z</time>
      </trkpt>
      <trkpt lat="37.24068" lon="-6.95421">
        <ele>12.35906</ele>
        <time>2021-07-13T08:49:16Z</time>
      </trkpt>
      <trkpt lat="37.24072" lon="-6.95422">
        <ele>8.276357</ele>
        <time>2021-07-13T08:49:27Z</time>
      </trkpt>
      <trkpt lat="37.24074" lon="-6.95431">
        <ele>9.087383</ele>
        <time>2021-07-13T08:49:38Z</time>
      </trkpt>
      <trkpt lat="37.24073" lon="-6.95431">
        <ele>2.619458</ele>
        <time>2021-07-13T08:50:38Z</time>
      </trkpt>
      <trkpt lat="37.24076" lon="-6.95429">
        <ele>3.815475</ele>
        <time>2021-07-13T08:51:07Z</time>
      </trkpt>
      <trkpt lat="37.24075" lon="-6.95424">
        <ele>3.769359</ele>
        <time>2021-07-13T08:51:44Z</time>
      </trkpt>
      <trkpt lat="37.24078" lon="-6.95427">
        <ele>3.729933</ele>
        <time>2021-07-13T08:52:32Z</time>
      </trkpt>
      <trkpt lat="37.24075" lon="-6.95429">
        <ele>4.004918</ele>
        <time>2021-07-13T08:52:44Z</time>
      </trkpt>
      <trkpt lat="37.24072" lon="-6.95427">
        <ele>3.700178</ele>
        <time>2021-07-13T08:53:18Z</time>
      </trkpt>
      <trkpt lat="37.24074" lon="-6.95429">
        <ele>3.562863</ele>
        <time>2021-07-13T08:54:17Z</time>
      </trkpt>
      <trkpt lat="37.24077" lon="-6.95426">
        <ele>2.956391</ele>
        <time>2021-07-13T08:55:05Z</time>
      </trkpt>
      <trkpt lat="37.24074" lon="-6.95426">
        <ele>2.626037</ele>
        <time>2021-07-13T08:56:05Z</time>
      </trkpt>
      <trkpt lat="37.24072" lon="-6.9543">
        <ele>3.214128</ele>
        <time>2021-07-13T08:56:17Z</time>
      </trkpt>
      <trkpt lat="37.24072" lon="-6.95428">
        <ele>3.740039</ele>
        <time>2021-07-13T08:57:17Z</time>
      </trkpt>
      <trkpt lat="37.24077" lon="-6.95426">
        <ele>3.759292</ele>
        <time>2021-07-13T08:57:33Z</time>
      </trkpt>
      <trkpt lat="37.24074" lon="-6.9542">
        <ele>3.45865</ele>
        <time>2021-07-13T08:57:53Z</time>
      </trkpt>
      <trkpt lat="37.24069" lon="-6.95419">
        <ele>3.434943</ele>
        <time>2021-07-13T08:58:04Z</time>
      </trkpt>
      <trkpt lat="37.24065" lon="-6.95421">
        <ele>4.852154</ele>
        <time>2021-07-13T08:58:21Z</time>
      </trkpt>
      <trkpt lat="37.24067" lon="-6.95434">
        <ele>2.694822</ele>
        <time>2021-07-13T08:58:32Z</time>
      </trkpt>
      <trkpt lat="37.24071" lon="-6.95432">
        <ele>2.8226</ele>
        <time>2021-07-13T08:58:43Z</time>
      </trkpt>
      <trkpt lat="37.24075" lon="-6.9543">
        <ele>3.836261</ele>
        <time>2021-07-13T08:59:14Z</time>
      </trkpt>
      <trkpt lat="37.24071" lon="-6.95428">
        <ele>4.129804</ele>
        <time>2021-07-13T08:59:27Z</time>
      </trkpt>
      <trkpt lat="37.24074" lon="-6.95427">
        <ele>4.94478</ele>
        <time>2021-07-13T08:59:46Z</time>
      </trkpt>
      <trkpt lat="37.24074" lon="-6.95428">
        <ele>3.097262</ele>
        <time>2021-07-13T09:00:46Z</time>
      </trkpt>
      <trkpt lat="37.24074" lon="-6.95428">
        <ele>3.097262</ele>
        <time>2021-07-13T09:01:46Z</time>
      </trkpt>
      <trkpt lat="37.24074" lon="-6.95429">
        <ele>3.458775</ele>
        <time>2021-07-13T09:02:45Z</time>
      </trkpt>
      <trkpt lat="37.2407" lon="-6.95427">
        <ele>3.34283</ele>
        <time>2021-07-13T09:03:18Z</time>
      </trkpt>
      <trkpt lat="37.24069" lon="-6.9543">
        <ele>3.44764</ele>
        <time>2021-07-13T09:04:18Z</time>
      </trkpt>
      <trkpt lat="37.24074" lon="-6.95431">
        <ele>3.809036</ele>
        <time>2021-07-13T09:04:47Z</time>
      </trkpt>
      <trkpt lat="37.24072" lon="-6.9543">
        <ele>3.941215</ele>
        <time>2021-07-13T09:05:46Z</time>
      </trkpt>
      <trkpt lat="37.24076" lon="-6.95429">
        <ele>4.339669</ele>
        <time>2021-07-13T09:06:09Z</time>
      </trkpt>
      <trkpt lat="37.24073" lon="-6.9543">
        <ele>3.591369</ele>
        <time>2021-07-13T09:07:08Z</time>
      </trkpt>
      <trkpt lat="37.24073" lon="-6.9543">
        <ele>3.591369</ele>
        <time>2021-07-13T09:08:07Z</time>
      </trkpt>
      <trkpt lat="37.24073" lon="-6.9543">
        <ele>3.591369</ele>
        <time>2021-07-13T09:09:06Z</time>
      </trkpt>
      <trkpt lat="37.24074" lon="-6.95434">
        <ele>3.355101</ele>
        <time>2021-07-13T09:10:05Z</time>
      </trkpt>
      <trkpt lat="37.24075" lon="-6.95429">
        <ele>3.546843</ele>
        <time>2021-07-13T09:10:57Z</time>
      </trkpt>
      <trkpt lat="37.24074" lon="-6.95425">
        <ele>3.309212</ele>
        <time>2021-07-13T09:11:31Z</time>
      </trkpt>
      <trkpt lat="37.24073" lon="-6.9543">
        <ele>3.197128</ele>
        <time>2021-07-13T09:12:10Z</time>
      </trkpt>
      <trkpt lat="37.24069" lon="-6.95428">
        <ele>4.436459</ele>
        <time>2021-07-13T09:12:45Z</time>
      </trkpt>
      <trkpt lat="37.24073" lon="-6.9543">
        <ele>3.751765</ele>
        <time>2021-07-13T09:13:42Z</time>
      </trkpt>
      <trkpt lat="37.24075" lon="-6.95424">
        <ele>4.668942</ele>
        <time>2021-07-13T09:13:56Z</time>
      </trkpt>
      <trkpt lat="37.24075" lon="-6.9542">
        <ele>4.219889</ele>
        <time>2021-07-13T09:14:07Z</time>
      </trkpt>
      <trkpt lat="37.24075" lon="-6.95425">
        <ele>4.372875</ele>
        <time>2021-07-13T09:14:36Z</time>
      </trkpt>
      <trkpt lat="37.24071" lon="-6.95426">
        <ele>3.352301</ele>
        <time>2021-07-13T09:14:48Z</time>
      </trkpt>
      <trkpt lat="37.24074" lon="-6.95424">
        <ele>5.598675</ele>
        <time>2021-07-13T09:15:46Z</time>
      </trkpt>
      <trkpt lat="37.24076" lon="-6.95429">
        <ele>2.764093</ele>
        <time>2021-07-13T09:15:59Z</time>
      </trkpt>
      <trkpt lat="37.24074" lon="-6.95424">
        <ele>2.119503</ele>
        <time>2021-07-13T09:16:28Z</time>
      </trkpt>
      <trkpt lat="37.24071" lon="-6.95427">
        <ele>3.148784</ele>
        <time>2021-07-13T09:16:39Z</time>
      </trkpt>
      <trkpt lat="37.24073" lon="-6.95429">
        <ele>3.589506</ele>
        <time>2021-07-13T09:17:38Z</time>
      </trkpt>
      <trkpt lat="37.24069" lon="-6.95429">
        <ele>5.215125</ele>
        <time>2021-07-13T09:18:15Z</time>
      </trkpt>
      <trkpt lat="37.24072" lon="-6.95426">
        <ele>4.450717</ele>
        <time>2021-07-13T09:18:28Z</time>
      </trkpt>
      <trkpt lat="37.24071" lon="-6.95424">
        <ele>3.787337</ele>
        <time>2021-07-13T09:19:27Z</time>
      </trkpt>
      <trkpt lat="37.24069" lon="-6.95428">
        <ele>4.676777</ele>
        <time>2021-07-13T09:19:40Z</time>
      </trkpt>
      <trkpt lat="37.24073" lon="-6.9543">
        <ele>3.985314</ele>
        <time>2021-07-13T09:20:35Z</time>
      </trkpt>
      <trkpt lat="37.24074" lon="-6.95429">
        <ele>4.547454</ele>
        <time>2021-07-13T09:21:33Z</time>
      </trkpt>
      <trkpt lat="37.24073" lon="-6.95427">
        <ele>4.722294</ele>
        <time>2021-07-13T09:22:32Z</time>
      </trkpt>
      <trkpt lat="37.24073" lon="-6.95427">
        <ele>4.722294</ele>
        <time>2021-07-13T09:23:31Z</time>
      </trkpt>
      <trkpt lat="37.24073" lon="-6.95427">
        <ele>4.722294</ele>
        <time>2021-07-13T09:24:30Z</time>
      </trkpt>
      <trkpt lat="37.24073" lon="-6.95427">
        <ele>4.722294</ele>
        <time>2021-07-13T09:25:29Z</time>
      </trkpt>
      <trkpt lat="37.24071" lon="-6.95433">
        <ele>4.615414</ele>
        <time>2021-07-13T09:26:06Z</time>
      </trkpt>
      <trkpt lat="37.24072" lon="-6.95427">
        <ele>3.77258</ele>
        <time>2021-07-13T09:26:24Z</time>
      </trkpt>
      <trkpt lat="37.24071" lon="-6.95426">
        <ele>5.850082</ele>
        <time>2021-07-13T09:27:23Z</time>
      </trkpt>
      <trkpt lat="37.24071" lon="-6.95426">
        <ele>5.850082</ele>
        <time>2021-07-13T09:28:23Z</time>
      </trkpt>
      <trkpt lat="37.24071" lon="-6.95426">
        <ele>5.850082</ele>
        <time>2021-07-13T09:29:22Z</time>
      </trkpt>
      <trkpt lat="37.24075" lon="-6.95429">
        <ele>3.948358</ele>
        <time>2021-07-13T09:30:10Z</time>
      </trkpt>
      <trkpt lat="37.24076" lon="-6.95428">
        <ele>4.004696</ele>
        <time>2021-07-13T09:31:09Z</time>
      </trkpt>
      <trkpt lat="37.24076" lon="-6.95428">
        <ele>4.004696</ele>
        <time>2021-07-13T09:32:08Z</time>
      </trkpt>
      <trkpt lat="37.24076" lon="-6.95428">
        <ele>4.004696</ele>
        <time>2021-07-13T09:33:07Z</time>
      </trkpt>
      <trkpt lat="37.24076" lon="-6.95428">
        <ele>4.004696</ele>
        <time>2021-07-13T09:34:06Z</time>
      </trkpt>
      <trkpt lat="37.24072" lon="-6.95429">
        <ele>3.637002</ele>
        <time>2021-07-13T09:34:28Z</time>
      </trkpt>
      <trkpt lat="37.24075" lon="-6.95426">
        <ele>4.470155</ele>
        <time>2021-07-13T09:35:02Z</time>
      </trkpt>
      <trkpt lat="37.24073" lon="-6.9543">
        <ele>3.3891</ele>
        <time>2021-07-13T09:35:31Z</time>
      </trkpt>
      <trkpt lat="37.24073" lon="-6.95427">
        <ele>3.721425</ele>
        <time>2021-07-13T09:36:30Z</time>
      </trkpt>
      <trkpt lat="37.24071" lon="-6.95427">
        <ele>4.296156</ele>
        <time>2021-07-13T09:37:29Z</time>
      </trkpt>
      <trkpt lat="37.24071" lon="-6.95427">
        <ele>4.296156</ele>
        <time>2021-07-13T09:38:28Z</time>
      </trkpt>
      <trkpt lat="37.24071" lon="-6.95427">
        <ele>4.296156</ele>
        <time>2021-07-13T09:39:27Z</time>
      </trkpt>
      <trkpt lat="37.24071" lon="-6.95427">
        <ele>4.296156</ele>
        <time>2021-07-13T09:40:26Z</time>
      </trkpt>
      <trkpt lat="37.24074" lon="-6.95429">
        <ele>4.629694</ele>
        <time>2021-07-13T09:40:43Z</time>
      </trkpt>
      <trkpt lat="37.24076" lon="-6.95428">
        <ele>4.841804</ele>
        <time>2021-07-13T09:41:41Z</time>
      </trkpt>
      <trkpt lat="37.24072" lon="-6.95426">
        <ele>5.806188</ele>
        <time>2021-07-13T09:41:56Z</time>
      </trkpt>
      <trkpt lat="37.24061" lon="-6.95419">
        <ele>3.2054</ele>
        <time>2021-07-13T09:42:07Z</time>
      </trkpt>
      <trkpt lat="37.24061" lon="-6.95424">
        <ele>3.372896</ele>
        <time>2021-07-13T09:42:44Z</time>
      </trkpt>
      <trkpt lat="37.24058" lon="-6.95422">
        <ele>3.709073</ele>
        <time>2021-07-13T09:43:43Z</time>
      </trkpt>
      <trkpt lat="37.2406" lon="-6.95423">
        <ele>4.369327</ele>
        <time>2021-07-13T09:44:42Z</time>
      </trkpt>
      <trkpt lat="37.2406" lon="-6.95417">
        <ele>3.578109</ele>
        <time>2021-07-13T09:44:58Z</time>
      </trkpt>
      <trkpt lat="37.24073" lon="-6.95446">
        <ele>2.515215</ele>
        <time>2021-07-13T09:45:09Z</time>
      </trkpt>
      <trkpt lat="37.2408" lon="-6.95447">
        <ele>4.206621</ele>
        <time>2021-07-13T09:45:28Z</time>
      </trkpt>
      <trkpt lat="37.24142" lon="-6.95458">
        <ele>3.216199</ele>
        <time>2021-07-13T09:45:39Z</time>
      </trkpt>
      <trkpt lat="37.24263" lon="-6.95479">
        <ele>4.073931</ele>
        <time>2021-07-13T09:45:50Z</time>
      </trkpt>
      <trkpt lat="37.2437" lon="-6.95494">
        <ele>2.912178</ele>
        <time>2021-07-13T09:46:01Z</time>
      </trkpt>
      <trkpt lat="37.24457" lon="-6.95459">
        <ele>3.123154</ele>
        <time>2021-07-13T09:46:12Z</time>
      </trkpt>
      <trkpt lat="37.24474" lon="-6.9531">
        <ele>2.645457</ele>
        <time>2021-07-13T09:46:23Z</time>
      </trkpt>
      <trkpt lat="37.24494" lon="-6.95141">
        <ele>3.369206</ele>
        <time>2021-07-13T09:46:34Z</time>
      </trkpt>
      <trkpt lat="37.24496" lon="-6.95126">
        <ele>3.197796</ele>
        <time>2021-07-13T09:46:45Z</time>
      </trkpt>
      <trkpt lat="37.24497" lon="-6.95115">
        <ele>3.06726</ele>
        <time>2021-07-13T09:47:02Z</time>
      </trkpt>
      <trkpt lat="37.24501" lon="-6.9508">
        <ele>3.650018</ele>
        <time>2021-07-13T09:47:13Z</time>
      </trkpt>
      <trkpt lat="37.24603" lon="-6.95113">
        <ele>5.004242</ele>
        <time>2021-07-13T09:47:24Z</time>
      </trkpt>
      <trkpt lat="37.24734" lon="-6.95159">
        <ele>3.516757</ele>
        <time>2021-07-13T09:47:35Z</time>
      </trkpt>
      <trkpt lat="37.2484" lon="-6.95167">
        <ele>4.684805</ele>
        <time>2021-07-13T09:47:46Z</time>
      </trkpt>
      <trkpt lat="37.2496" lon="-6.9524">
        <ele>3.770195</ele>
        <time>2021-07-13T09:47:57Z</time>
      </trkpt>
      <trkpt lat="37.25081" lon="-6.95281">
        <ele>4.635339</ele>
        <time>2021-07-13T09:48:08Z</time>
      </trkpt>
      <trkpt lat="37.25161" lon="-6.95308">
        <ele>2.757274</ele>
        <time>2021-07-13T09:48:19Z</time>
      </trkpt>
      <trkpt lat="37.25209" lon="-6.95304">
        <ele>4.982411</ele>
        <time>2021-07-13T09:48:30Z</time>
      </trkpt>
      <trkpt lat="37.25287" lon="-6.95428">
        <ele>6.683357</ele>
        <time>2021-07-13T09:48:41Z</time>
      </trkpt>
      <trkpt lat="37.25362" lon="-6.95517">
        <ele>5.87624</ele>
        <time>2021-07-13T09:48:52Z</time>
      </trkpt>
      <trkpt lat="37.25385" lon="-6.95544">
        <ele>5.210666</ele>
        <time>2021-07-13T09:49:03Z</time>
      </trkpt>
      <trkpt lat="37.254" lon="-6.95561">
        <ele>5.22704</ele>
        <time>2021-07-13T09:49:41Z</time>
      </trkpt>
      <trkpt lat="37.25414" lon="-6.95578">
        <ele>4.588907</ele>
        <time>2021-07-13T09:49:52Z</time>
      </trkpt>
      <trkpt lat="37.25422" lon="-6.95588">
        <ele>4.416278</ele>
        <time>2021-07-13T09:50:03Z</time>
      </trkpt>
      <trkpt lat="37.25454" lon="-6.95627">
        <ele>5.050164</ele>
        <time>2021-07-13T09:50:14Z</time>
      </trkpt>
      <trkpt lat="37.25507" lon="-6.95682">
        <ele>4.786699</ele>
        <time>2021-07-13T09:50:25Z</time>
      </trkpt>
      <trkpt lat="37.25533" lon="-6.95717">
        <ele>4.092576</ele>
        <time>2021-07-13T09:50:36Z</time>
      </trkpt>
      <trkpt lat="37.25539" lon="-6.95725">
        <ele>4.765313</ele>
        <time>2021-07-13T09:51:06Z</time>
      </trkpt>
      <trkpt lat="37.25601" lon="-6.95761">
        <ele>3.090399</ele>
        <time>2021-07-13T09:51:17Z</time>
      </trkpt>
      <trkpt lat="37.2561" lon="-6.95763">
        <ele>3.523682</ele>
        <time>2021-07-13T09:51:28Z</time>
      </trkpt>
      <trkpt lat="37.25729" lon="-6.95792">
        <ele>3.791635</ele>
        <time>2021-07-13T09:51:39Z</time>
      </trkpt>
      <trkpt lat="37.25847" lon="-6.95821">
        <ele>2.460738</ele>
        <time>2021-07-13T09:51:50Z</time>
      </trkpt>
      <trkpt lat="37.2589" lon="-6.95832">
        <ele>3.296268</ele>
        <time>2021-07-13T09:52:01Z</time>
      </trkpt>
      <trkpt lat="37.25898" lon="-6.95835">
        <ele>3.660014</ele>
        <time>2021-07-13T09:52:12Z</time>
      </trkpt>
      <trkpt lat="37.25904" lon="-6.95836">
        <ele>4.057933</ele>
        <time>2021-07-13T09:52:23Z</time>
      </trkpt>
      <trkpt lat="37.25911" lon="-6.95838">
        <ele>3.123778</ele>
        <time>2021-07-13T09:52:39Z</time>
      </trkpt>
      <trkpt lat="37.26008" lon="-6.95862">
        <ele>4.037362</ele>
        <time>2021-07-13T09:52:50Z</time>
      </trkpt>
      <trkpt lat="37.26116" lon="-6.95886">
        <ele>3.650645</ele>
        <time>2021-07-13T09:53:01Z</time>
      </trkpt>
      <trkpt lat="37.26154" lon="-6.95895">
        <ele>3.065519</ele>
        <time>2021-07-13T09:53:12Z</time>
      </trkpt>
      <trkpt lat="37.2616" lon="-6.95896">
        <ele>4.156694</ele>
        <time>2021-07-13T09:53:23Z</time>
      </trkpt>
      <trkpt lat="37.26184" lon="-6.95901">
        <ele>4.198403</ele>
        <time>2021-07-13T09:53:34Z</time>
      </trkpt>
      <trkpt lat="37.26265" lon="-6.95919">
        <ele>2.924715</ele>
        <time>2021-07-13T09:53:45Z</time>
      </trkpt>
      <trkpt lat="37.26331" lon="-6.95893">
        <ele>3.641841</ele>
        <time>2021-07-13T09:53:56Z</time>
      </trkpt>
      <trkpt lat="37.26389" lon="-6.95869">
        <ele>3.737027</ele>
        <time>2021-07-13T09:54:07Z</time>
      </trkpt>
      <trkpt lat="37.26514" lon="-6.95814">
        <ele>3.365888</ele>
        <time>2021-07-13T09:54:18Z</time>
      </trkpt>
      <trkpt lat="37.26632" lon="-6.95765">
        <ele>2.651969</ele>
        <time>2021-07-13T09:54:29Z</time>
      </trkpt>
      <trkpt lat="37.26726" lon="-6.9572">
        <ele>4.342088</ele>
        <time>2021-07-13T09:54:40Z</time>
      </trkpt>
      <trkpt lat="37.26914" lon="-6.95668">
        <ele>7.16251</ele>
        <time>2021-07-13T09:54:51Z</time>
      </trkpt>
      <trkpt lat="37.27011" lon="-6.95641">
        <ele>3.636391</ele>
        <time>2021-07-13T09:55:02Z</time>
      </trkpt>
      <trkpt lat="37.2717" lon="-6.95588">
        <ele>3.360677</ele>
        <time>2021-07-13T09:55:13Z</time>
      </trkpt>
      <trkpt lat="37.27327" lon="-6.95499">
        <ele>2.774669</ele>
        <time>2021-07-13T09:55:24Z</time>
      </trkpt>
      <trkpt lat="37.27469" lon="-6.95418">
        <ele>2.926484</ele>
        <time>2021-07-13T09:55:35Z</time>
      </trkpt>
      <trkpt lat="37.27617" lon="-6.95336">
        <ele>2.923535</ele>
        <time>2021-07-13T09:55:46Z</time>
      </trkpt>
      <trkpt lat="37.27762" lon="-6.95251">
        <ele>3.67148</ele>
        <time>2021-07-13T09:55:57Z</time>
      </trkpt>
      <trkpt lat="37.27878" lon="-6.95177">
        <ele>1.022163</ele>
        <time>2021-07-13T09:56:08Z</time>
      </trkpt>
      <trkpt lat="37.27964" lon="-6.95124">
        <ele>2.172252</ele>
        <time>2021-07-13T09:56:19Z</time>
      </trkpt>
      <trkpt lat="37.27991" lon="-6.9509">
        <ele>5.22413</ele>
        <time>2021-07-13T09:56:30Z</time>
      </trkpt>
      <trkpt lat="37.27968" lon="-6.94936">
        <ele>6.931854</ele>
        <time>2021-07-13T09:56:41Z</time>
      </trkpt>
      <trkpt lat="37.27934" lon="-6.94825">
        <ele>3.886693</ele>
        <time>2021-07-13T09:56:52Z</time>
      </trkpt>
      <trkpt lat="37.27948" lon="-6.94757">
        <ele>5.990512</ele>
        <time>2021-07-13T09:57:03Z</time>
      </trkpt>
      <trkpt lat="37.28078" lon="-6.94721">
        <ele>3.905621</ele>
        <time>2021-07-13T09:57:14Z</time>
      </trkpt>
      <trkpt lat="37.28228" lon="-6.94657">
        <ele>3.04985</ele>
        <time>2021-07-13T09:57:25Z</time>
      </trkpt>
      <trkpt lat="37.28309" lon="-6.94625">
        <ele>3.458432</ele>
        <time>2021-07-13T09:57:36Z</time>
      </trkpt>
      <trkpt lat="37.2832" lon="-6.94627">
        <ele>4.075878</ele>
        <time>2021-07-13T09:57:47Z</time>
      </trkpt>
      <trkpt lat="37.28341" lon="-6.94609">
        <ele>4.58367</ele>
        <time>2021-07-13T09:57:58Z</time>
      </trkpt>
      <trkpt lat="37.28361" lon="-6.94583">
        <ele>5.703881</ele>
        <time>2021-07-13T09:58:09Z</time>
      </trkpt>
      <trkpt lat="37.28389" lon="-6.94506">
        <ele>5.610979</ele>
        <time>2021-07-13T09:58:20Z</time>
      </trkpt>
      <trkpt lat="37.2837" lon="-6.94388">
        <ele>11.12848</ele>
        <time>2021-07-13T09:58:31Z</time>
      </trkpt>
      <trkpt lat="37.2835" lon="-6.94267">
        <ele>13.52611</ele>
        <time>2021-07-13T09:58:42Z</time>
      </trkpt>
      <trkpt lat="37.28338" lon="-6.94099">
        <ele>19.98354</ele>
        <time>2021-07-13T09:58:53Z</time>
      </trkpt>
      <trkpt lat="37.28337" lon="-6.93919">
        <ele>27.86815</ele>
        <time>2021-07-13T09:59:04Z</time>
      </trkpt>
      <trkpt lat="37.28335" lon="-6.93774">
        <ele>31.75558</ele>
        <time>2021-07-13T09:59:15Z</time>
      </trkpt>
      <trkpt lat="37.28334" lon="-6.93658">
        <ele>34.14866</ele>
        <time>2021-07-13T09:59:26Z</time>
      </trkpt>
      <trkpt lat="37.28333" lon="-6.93558">
        <ele>34.65898</ele>
        <time>2021-07-13T09:59:37Z</time>
      </trkpt>
      <trkpt lat="37.28367" lon="-6.93514">
        <ele>37.39328</ele>
        <time>2021-07-13T09:59:48Z</time>
      </trkpt>
      <trkpt lat="37.28432" lon="-6.93446">
        <ele>38.20477</ele>
        <time>2021-07-13T09:59:59Z</time>
      </trkpt>
      <trkpt lat="37.28363" lon="-6.93221">
        <ele>31.06153</ele>
        <time>2021-07-13T10:00:10Z</time>
      </trkpt>
      <trkpt lat="37.28304" lon="-6.92977">
        <ele>27.8482</ele>
        <time>2021-07-13T10:00:21Z</time>
      </trkpt>
      <trkpt lat="37.28292" lon="-6.92788">
        <ele>26.79531</ele>
        <time>2021-07-13T10:00:32Z</time>
      </trkpt>
      <trkpt lat="37.28345" lon="-6.92736">
        <ele>31.00564</ele>
        <time>2021-07-13T10:00:43Z</time>
      </trkpt>
      <trkpt lat="37.2849" lon="-6.9264">
        <ele>36.40486</ele>
        <time>2021-07-13T10:00:54Z</time>
      </trkpt>
      <trkpt lat="37.28578" lon="-6.92563">
        <ele>40.29756</ele>
        <time>2021-07-13T10:01:05Z</time>
      </trkpt>
      <trkpt lat="37.28713" lon="-6.92517">
        <ele>36.87717</ele>
        <time>2021-07-13T10:01:16Z</time>
      </trkpt>
      <trkpt lat="37.28851" lon="-6.92454">
        <ele>33.03664</ele>
        <time>2021-07-13T10:01:27Z</time>
      </trkpt>
      <trkpt lat="37.29001" lon="-6.92395">
        <ele>30.71496</ele>
        <time>2021-07-13T10:01:38Z</time>
      </trkpt>
      <trkpt lat="37.29157" lon="-6.92358">
        <ele>28.1459</ele>
        <time>2021-07-13T10:01:49Z</time>
      </trkpt>
      <trkpt lat="37.29295" lon="-6.92335">
        <ele>25.50706</ele>
        <time>2021-07-13T10:02:00Z</time>
      </trkpt>
      <trkpt lat="37.29456" lon="-6.92303">
        <ele>33.57316</ele>
        <time>2021-07-13T10:02:11Z</time>
      </trkpt>
      <trkpt lat="37.29583" lon="-6.92328">
        <ele>34.42839</ele>
        <time>2021-07-13T10:02:22Z</time>
      </trkpt>
      <trkpt lat="37.29742" lon="-6.92348">
        <ele>34.97712</ele>
        <time>2021-07-13T10:02:33Z</time>
      </trkpt>
      <trkpt lat="37.29883" lon="-6.92355">
        <ele>36.98545</ele>
        <time>2021-07-13T10:02:44Z</time>
      </trkpt>
      <trkpt lat="37.30031" lon="-6.92362">
        <ele>39.51765</ele>
        <time>2021-07-13T10:02:55Z</time>
      </trkpt>
      <trkpt lat="37.30181" lon="-6.92399">
        <ele>41.27537</ele>
        <time>2021-07-13T10:03:06Z</time>
      </trkpt>
      <trkpt lat="37.30313" lon="-6.92417">
        <ele>44.40412</ele>
        <time>2021-07-13T10:03:17Z</time>
      </trkpt>
      <trkpt lat="37.30369" lon="-6.92445">
        <ele>46.59426</ele>
        <time>2021-07-13T10:03:28Z</time>
      </trkpt>
      <trkpt lat="37.30447" lon="-6.92522">
        <ele>44.03232</ele>
        <time>2021-07-13T10:03:39Z</time>
      </trkpt>
      <trkpt lat="37.30508" lon="-6.92623">
        <ele>40.7105</ele>
        <time>2021-07-13T10:03:50Z</time>
      </trkpt>
      <trkpt lat="37.30656" lon="-6.92708">
        <ele>37.79568</ele>
        <time>2021-07-13T10:04:01Z</time>
      </trkpt>
      <trkpt lat="37.30791" lon="-6.92707">
        <ele>34.85319</ele>
        <time>2021-07-13T10:04:12Z</time>
      </trkpt>
      <trkpt lat="37.30913" lon="-6.92596">
        <ele>30.12719</ele>
        <time>2021-07-13T10:04:23Z</time>
      </trkpt>
      <trkpt lat="37.3106" lon="-6.92588">
        <ele>28.37565</ele>
        <time>2021-07-13T10:04:34Z</time>
      </trkpt>
      <trkpt lat="37.31163" lon="-6.92621">
        <ele>23.575</ele>
        <time>2021-07-13T10:04:45Z</time>
      </trkpt>
      <trkpt lat="37.31168" lon="-6.92623">
        <ele>23.53851</ele>
        <time>2021-07-13T10:05:00Z</time>
      </trkpt>
      <trkpt lat="37.3122" lon="-6.92562">
        <ele>22.88389</ele>
        <time>2021-07-13T10:05:11Z</time>
      </trkpt>
      <trkpt lat="37.31314" lon="-6.92464">
        <ele>22.24957</ele>
        <time>2021-07-13T10:05:22Z</time>
      </trkpt>
      <trkpt lat="37.3142" lon="-6.92358">
        <ele>20.87405</ele>
        <time>2021-07-13T10:05:33Z</time>
      </trkpt>
      <trkpt lat="37.3148" lon="-6.92327">
        <ele>19.86942</ele>
        <time>2021-07-13T10:05:44Z</time>
      </trkpt>
      <trkpt lat="37.31484" lon="-6.92329">
        <ele>20.82891</ele>
        <time>2021-07-13T10:05:56Z</time>
      </trkpt>
      <trkpt lat="37.31523" lon="-6.92343">
        <ele>22.20433</ele>
        <time>2021-07-13T10:06:07Z</time>
      </trkpt>
      <trkpt lat="37.31557" lon="-6.92497">
        <ele>22.71913</ele>
        <time>2021-07-13T10:06:18Z</time>
      </trkpt>
      <trkpt lat="37.31565" lon="-6.92656">
        <ele>24.87044</ele>
        <time>2021-07-13T10:06:29Z</time>
      </trkpt>
      <trkpt lat="37.31579" lon="-6.92795">
        <ele>22.6481</ele>
        <time>2021-07-13T10:06:40Z</time>
      </trkpt>
      <trkpt lat="37.31616" lon="-6.92848">
        <ele>22.12628</ele>
        <time>2021-07-13T10:06:51Z</time>
      </trkpt>
      <trkpt lat="37.3162" lon="-6.92853">
        <ele>19.86333</ele>
        <time>2021-07-13T10:07:11Z</time>
      </trkpt>
      <trkpt lat="37.31673" lon="-6.92898">
        <ele>19.46065</ele>
        <time>2021-07-13T10:07:22Z</time>
      </trkpt>
      <trkpt lat="37.31721" lon="-6.92949">
        <ele>17.95213</ele>
        <time>2021-07-13T10:07:33Z</time>
      </trkpt>
      <trkpt lat="37.31818" lon="-6.93003">
        <ele>22.59276</ele>
        <time>2021-07-13T10:07:44Z</time>
      </trkpt>
      <trkpt lat="37.31942" lon="-6.93094">
        <ele>26.75008</ele>
        <time>2021-07-13T10:07:55Z</time>
      </trkpt>
      <trkpt lat="37.3209" lon="-6.93172">
        <ele>30.3997</ele>
        <time>2021-07-13T10:08:06Z</time>
      </trkpt>
      <trkpt lat="37.32226" lon="-6.93267">
        <ele>35.0696</ele>
        <time>2021-07-13T10:08:17Z</time>
      </trkpt>
      <trkpt lat="37.32355" lon="-6.93344">
        <ele>35.8222</ele>
        <time>2021-07-13T10:08:28Z</time>
      </trkpt>
      <trkpt lat="37.32481" lon="-6.93443">
        <ele>37.82238</ele>
        <time>2021-07-13T10:08:39Z</time>
      </trkpt>
      <trkpt lat="37.32566" lon="-6.93502">
        <ele>32.89525</ele>
        <time>2021-07-13T10:08:50Z</time>
      </trkpt>
      <trkpt lat="37.32658" lon="-6.93545">
        <ele>31.20194</ele>
        <time>2021-07-13T10:09:01Z</time>
      </trkpt>
      <trkpt lat="37.32775" lon="-6.93603">
        <ele>30.9979</ele>
        <time>2021-07-13T10:09:12Z</time>
      </trkpt>
      <trkpt lat="37.32912" lon="-6.9367">
        <ele>34.89179</ele>
        <time>2021-07-13T10:09:23Z</time>
      </trkpt>
      <trkpt lat="37.33015" lon="-6.9372">
        <ele>30.43004</ele>
        <time>2021-07-13T10:09:34Z</time>
      </trkpt>
      <trkpt lat="37.33062" lon="-6.9364">
        <ele>25.1895</ele>
        <time>2021-07-13T10:09:45Z</time>
      </trkpt>
      <trkpt lat="37.33116" lon="-6.93554">
        <ele>19.52586</ele>
        <time>2021-07-13T10:09:56Z</time>
      </trkpt>
      <trkpt lat="37.33203" lon="-6.93574">
        <ele>15.64889</ele>
        <time>2021-07-13T10:10:07Z</time>
      </trkpt>
      <trkpt lat="37.33275" lon="-6.93556">
        <ele>13.82277</ele>
        <time>2021-07-13T10:10:18Z</time>
      </trkpt>
      <trkpt lat="37.33379" lon="-6.93479">
        <ele>15.89809</ele>
        <time>2021-07-13T10:10:29Z</time>
      </trkpt>
      <trkpt lat="37.33388" lon="-6.93404">
        <ele>17.76414</ele>
        <time>2021-07-13T10:10:40Z</time>
      </trkpt>
      <trkpt lat="37.33404" lon="-6.93373">
        <ele>19.64653</ele>
        <time>2021-07-13T10:10:51Z</time>
      </trkpt>
      <trkpt lat="37.33406" lon="-6.93381">
        <ele>20.1287</ele>
        <time>2021-07-13T10:11:02Z</time>
      </trkpt>
      <trkpt lat="37.33404" lon="-6.93316">
        <ele>20.48564</ele>
        <time>2021-07-13T10:11:13Z</time>
      </trkpt>
      <trkpt lat="37.33333" lon="-6.93077">
        <ele>21.91316</ele>
        <time>2021-07-13T10:11:24Z</time>
      </trkpt>
      <trkpt lat="37.33183" lon="-6.9286">
        <ele>22.62262</ele>
        <time>2021-07-13T10:11:35Z</time>
      </trkpt>
      <trkpt lat="37.33025" lon="-6.92644">
        <ele>23.91241</ele>
        <time>2021-07-13T10:11:46Z</time>
      </trkpt>
      <trkpt lat="37.32871" lon="-6.92427">
        <ele>23.83896</ele>
        <time>2021-07-13T10:11:57Z</time>
      </trkpt>
      <trkpt lat="37.32713" lon="-6.9221">
        <ele>23.27655</ele>
        <time>2021-07-13T10:12:08Z</time>
      </trkpt>
      <trkpt lat="37.32552" lon="-6.91986">
        <ele>21.25687</ele>
        <time>2021-07-13T10:12:19Z</time>
      </trkpt>
      <trkpt lat="37.32391" lon="-6.91762">
        <ele>21.93902</ele>
        <time>2021-07-13T10:12:30Z</time>
      </trkpt>
      <trkpt lat="37.32199" lon="-6.91534">
        <ele>15.72579</ele>
        <time>2021-07-13T10:12:41Z</time>
      </trkpt>
      <trkpt lat="37.3204" lon="-6.91354">
        <ele>18.0395</ele>
        <time>2021-07-13T10:12:52Z</time>
      </trkpt>
      <trkpt lat="37.31949" lon="-6.91247">
        <ele>19.78389</ele>
        <time>2021-07-13T10:13:03Z</time>
      </trkpt>
      <trkpt lat="37.3196" lon="-6.91255">
        <ele>16.71519</ele>
        <time>2021-07-13T10:13:14Z</time>
      </trkpt>
      <trkpt lat="37.32064" lon="-6.911">
        <ele>19.85158</ele>
        <time>2021-07-13T10:13:25Z</time>
      </trkpt>
      <trkpt lat="37.32193" lon="-6.90907">
        <ele>30.52222</ele>
        <time>2021-07-13T10:13:36Z</time>
      </trkpt>
      <trkpt lat="37.32327" lon="-6.90714">
        <ele>28.38392</ele>
        <time>2021-07-13T10:13:47Z</time>
      </trkpt>
      <trkpt lat="37.3241" lon="-6.90568">
        <ele>25.40966</ele>
        <time>2021-07-13T10:13:58Z</time>
      </trkpt>
      <trkpt lat="37.32444" lon="-6.90584">
        <ele>25.85266</ele>
        <time>2021-07-13T10:14:09Z</time>
      </trkpt>
      <trkpt lat="37.32409" lon="-6.90676">
        <ele>25.34887</ele>
        <time>2021-07-13T10:14:20Z</time>
      </trkpt>
      <trkpt lat="37.3245" lon="-6.90824">
        <ele>21.27441</ele>
        <time>2021-07-13T10:14:31Z</time>
      </trkpt>
      <trkpt lat="37.32474" lon="-6.90988">
        <ele>16.91118</ele>
        <time>2021-07-13T10:14:42Z</time>
      </trkpt>
      <trkpt lat="37.32585" lon="-6.91101">
        <ele>16.21145</ele>
        <time>2021-07-13T10:14:53Z</time>
      </trkpt>
      <trkpt lat="37.32712" lon="-6.91206">
        <ele>24.09036</ele>
        <time>2021-07-13T10:15:04Z</time>
      </trkpt>
      <trkpt lat="37.32858" lon="-6.91325">
        <ele>25.17819</ele>
        <time>2021-07-13T10:15:15Z</time>
      </trkpt>
      <trkpt lat="37.33014" lon="-6.91436">
        <ele>27.53168</ele>
        <time>2021-07-13T10:15:26Z</time>
      </trkpt>
      <trkpt lat="37.33153" lon="-6.91531">
        <ele>28.20873</ele>
        <time>2021-07-13T10:15:37Z</time>
      </trkpt>
      <trkpt lat="37.33275" lon="-6.91589">
        <ele>25.78103</ele>
        <time>2021-07-13T10:15:48Z</time>
      </trkpt>
      <trkpt lat="37.33364" lon="-6.91604">
        <ele>26.93503</ele>
        <time>2021-07-13T10:15:59Z</time>
      </trkpt>
      <trkpt lat="37.33439" lon="-6.9156">
        <ele>26.20667</ele>
        <time>2021-07-13T10:16:10Z</time>
      </trkpt>
      <trkpt lat="37.33505" lon="-6.9156">
        <ele>26.16291</ele>
        <time>2021-07-13T10:16:21Z</time>
      </trkpt>
      <trkpt lat="37.33649" lon="-6.91537">
        <ele>27.28501</ele>
        <time>2021-07-13T10:16:32Z</time>
      </trkpt>
      <trkpt lat="37.33769" lon="-6.91509">
        <ele>28.43242</ele>
        <time>2021-07-13T10:16:43Z</time>
      </trkpt>
      <trkpt lat="37.33862" lon="-6.91489">
        <ele>30.14989</ele>
        <time>2021-07-13T10:16:54Z</time>
      </trkpt>
      <trkpt lat="37.33827" lon="-6.91477">
        <ele>29.77778</ele>
        <time>2021-07-13T10:17:05Z</time>
      </trkpt>
      <trkpt lat="37.33713" lon="-6.91491">
        <ele>25.1512</ele>
        <time>2021-07-13T10:17:16Z</time>
      </trkpt>
      <trkpt lat="37.336" lon="-6.91484">
        <ele>23.8048</ele>
        <time>2021-07-13T10:17:27Z</time>
      </trkpt>
      <trkpt lat="37.3354" lon="-6.91446">
        <ele>26.8235</ele>
        <time>2021-07-13T10:17:38Z</time>
      </trkpt>
      <trkpt lat="37.33515" lon="-6.91362">
        <ele>34.73201</ele>
        <time>2021-07-13T10:17:49Z</time>
      </trkpt>
      <trkpt lat="37.33514" lon="-6.91362">
        <ele>36.14994</ele>
        <time>2021-07-13T10:18:49Z</time>
      </trkpt>
      <trkpt lat="37.33512" lon="-6.91352">
        <ele>35.86736</ele>
        <time>2021-07-13T10:19:33Z</time>
      </trkpt>
      <trkpt lat="37.33455" lon="-6.91186">
        <ele>38.66201</ele>
        <time>2021-07-13T10:19:44Z</time>
      </trkpt>
      <trkpt lat="37.33404" lon="-6.91037">
        <ele>34.2516</ele>
        <time>2021-07-13T10:19:55Z</time>
      </trkpt>
      <trkpt lat="37.33339" lon="-6.90847">
        <ele>29.26658</ele>
        <time>2021-07-13T10:20:06Z</time>
      </trkpt>
      <trkpt lat="37.33285" lon="-6.9069">
        <ele>24.72567</ele>
        <time>2021-07-13T10:20:17Z</time>
      </trkpt>
      <trkpt lat="37.3327" lon="-6.90633">
        <ele>24.26087</ele>
        <time>2021-07-13T10:20:28Z</time>
      </trkpt>
      <trkpt lat="37.33278" lon="-6.9063">
        <ele>14.45476</ele>
        <time>2021-07-13T10:20:39Z</time>
      </trkpt>
      <trkpt lat="37.33317" lon="-6.90603">
        <ele>20.02322</ele>
        <time>2021-07-13T10:20:50Z</time>
      </trkpt>
      <trkpt lat="37.33387" lon="-6.90549">
        <ele>23.49552</ele>
        <time>2021-07-13T10:21:01Z</time>
      </trkpt>
      <trkpt lat="37.33472" lon="-6.90483">
        <ele>25.61519</ele>
        <time>2021-07-13T10:21:12Z</time>
      </trkpt>
      <trkpt lat="37.33561" lon="-6.90415">
        <ele>26.88805</ele>
        <time>2021-07-13T10:21:23Z</time>
      </trkpt>
      <trkpt lat="37.33671" lon="-6.90362">
        <ele>29.44966</ele>
        <time>2021-07-13T10:21:34Z</time>
      </trkpt>
      <trkpt lat="37.33816" lon="-6.90327">
        <ele>30.26282</ele>
        <time>2021-07-13T10:21:45Z</time>
      </trkpt>
      <trkpt lat="37.33895" lon="-6.90307">
        <ele>31.67127</ele>
        <time>2021-07-13T10:21:56Z</time>
      </trkpt>
      <trkpt lat="37.33906" lon="-6.90305">
        <ele>32.98117</ele>
        <time>2021-07-13T10:22:07Z</time>
      </trkpt>
      <trkpt lat="37.33921" lon="-6.90334">
        <ele>34.1674</ele>
        <time>2021-07-13T10:22:18Z</time>
      </trkpt>
      <trkpt lat="37.33984" lon="-6.90491">
        <ele>35.62925</ele>
        <time>2021-07-13T10:22:29Z</time>
      </trkpt>
      <trkpt lat="37.34061" lon="-6.9075">
        <ele>40.1265</ele>
        <time>2021-07-13T10:22:40Z</time>
      </trkpt>
      <trkpt lat="37.34129" lon="-6.90921">
        <ele>38.94859</ele>
        <time>2021-07-13T10:22:51Z</time>
      </trkpt>
      <trkpt lat="37.34135" lon="-6.90932">
        <ele>41.02434</ele>
        <time>2021-07-13T10:23:02Z</time>
      </trkpt>
      <trkpt lat="37.34061" lon="-6.90769">
        <ele>37.69642</ele>
        <time>2021-07-13T10:23:13Z</time>
      </trkpt>
      <trkpt lat="37.34036" lon="-6.907">
        <ele>35.96593</ele>
        <time>2021-07-13T10:23:24Z</time>
      </trkpt>
      <trkpt lat="37.34036" lon="-6.90707">
        <ele>37.71328</ele>
        <time>2021-07-13T10:23:36Z</time>
      </trkpt>
      <trkpt lat="37.34039" lon="-6.90702">
        <ele>41.40259</ele>
        <time>2021-07-13T10:24:03Z</time>
      </trkpt>
      <trkpt lat="37.34035" lon="-6.90694">
        <ele>37.8335</ele>
        <time>2021-07-13T10:24:14Z</time>
      </trkpt>
      <trkpt lat="37.34038" lon="-6.90698">
        <ele>36.9026</ele>
        <time>2021-07-13T10:24:48Z</time>
      </trkpt>
      <trkpt lat="37.3404" lon="-6.90707">
        <ele>35.40869</ele>
        <time>2021-07-13T10:24:59Z</time>
      </trkpt>
      <trkpt lat="37.34044" lon="-6.90715">
        <ele>36.59337</ele>
        <time>2021-07-13T10:25:41Z</time>
      </trkpt>
      <trkpt lat="37.34126" lon="-6.90913">
        <ele>38.40521</ele>
        <time>2021-07-13T10:25:52Z</time>
      </trkpt>
      <trkpt lat="37.34209" lon="-6.9104">
        <ele>36.65207</ele>
        <time>2021-07-13T10:26:03Z</time>
      </trkpt>
      <trkpt lat="37.34301" lon="-6.91154">
        <ele>35.92767</ele>
        <time>2021-07-13T10:26:14Z</time>
      </trkpt>
      <trkpt lat="37.34351" lon="-6.91212">
        <ele>29.51055</ele>
        <time>2021-07-13T10:26:25Z</time>
      </trkpt>
      <trkpt lat="37.3444" lon="-6.91184">
        <ele>33.01286</ele>
        <time>2021-07-13T10:26:36Z</time>
      </trkpt>
      <trkpt lat="37.34552" lon="-6.91148">
        <ele>40.20441</ele>
        <time>2021-07-13T10:26:47Z</time>
      </trkpt>
      <trkpt lat="37.34662" lon="-6.91114">
        <ele>45.50322</ele>
        <time>2021-07-13T10:26:58Z</time>
      </trkpt>
      <trkpt lat="37.34752" lon="-6.91082">
        <ele>44.94427</ele>
        <time>2021-07-13T10:27:09Z</time>
      </trkpt>
      <trkpt lat="37.34853" lon="-6.91055">
        <ele>47.78058</ele>
        <time>2021-07-13T10:27:20Z</time>
      </trkpt>
      <trkpt lat="37.34943" lon="-6.91026">
        <ele>47.37461</ele>
        <time>2021-07-13T10:27:31Z</time>
      </trkpt>
      <trkpt lat="37.35026" lon="-6.91001">
        <ele>44.9782</ele>
        <time>2021-07-13T10:27:42Z</time>
      </trkpt>
      <trkpt lat="37.35117" lon="-6.90939">
        <ele>47.8739</ele>
        <time>2021-07-13T10:27:53Z</time>
      </trkpt>
      <trkpt lat="37.35204" lon="-6.90882">
        <ele>38.17529</ele>
        <time>2021-07-13T10:28:04Z</time>
      </trkpt>
      <trkpt lat="37.35272" lon="-6.90809">
        <ele>44.84179</ele>
        <time>2021-07-13T10:28:15Z</time>
      </trkpt>
      <trkpt lat="37.35333" lon="-6.90695">
        <ele>55.35617</ele>
        <time>2021-07-13T10:28:26Z</time>
      </trkpt>
      <trkpt lat="37.35397" lon="-6.90577">
        <ele>37.37159</ele>
        <time>2021-07-13T10:28:37Z</time>
      </trkpt>
      <trkpt lat="37.35469" lon="-6.90483">
        <ele>-8.01161</ele>
        <time>2021-07-13T10:28:48Z</time>
      </trkpt>
      <trkpt lat="37.35524" lon="-6.90396">
        <ele>13.82011</ele>
        <time>2021-07-13T10:28:59Z</time>
      </trkpt>
      <trkpt lat="37.35571" lon="-6.90307">
        <ele>65.7862</ele>
        <time>2021-07-13T10:29:10Z</time>
      </trkpt>
      <trkpt lat="37.35642" lon="-6.90201">
        <ele>66.13872</ele>
        <time>2021-07-13T10:29:21Z</time>
      </trkpt>
      <trkpt lat="37.35679" lon="-6.90134">
        <ele>55.89942</ele>
        <time>2021-07-13T10:29:32Z</time>
      </trkpt>
      <trkpt lat="37.35722" lon="-6.90019">
        <ele>43.78436</ele>
        <time>2021-07-13T10:29:43Z</time>
      </trkpt>
      <trkpt lat="37.35778" lon="-6.89904">
        <ele>40.10356</ele>
        <time>2021-07-13T10:29:54Z</time>
      </trkpt>
      <trkpt lat="37.35838" lon="-6.89808">
        <ele>47.11615</ele>
        <time>2021-07-13T10:30:05Z</time>
      </trkpt>
      <trkpt lat="37.3588" lon="-6.89696">
        <ele>53.71402</ele>
        <time>2021-07-13T10:30:16Z</time>
      </trkpt>
      <trkpt lat="37.35923" lon="-6.89581">
        <ele>59.77836</ele>
        <time>2021-07-13T10:30:27Z</time>
      </trkpt>
      <trkpt lat="37.35951" lon="-6.89457">
        <ele>63.91428</ele>
        <time>2021-07-13T10:30:38Z</time>
      </trkpt>
      <trkpt lat="37.35975" lon="-6.89301">
        <ele>42.30339</ele>
        <time>2021-07-13T10:30:49Z</time>
      </trkpt>
      <trkpt lat="37.35988" lon="-6.89159">
        <ele>42.62596</ele>
        <time>2021-07-13T10:31:00Z</time>
      </trkpt>
      <trkpt lat="37.36007" lon="-6.88998">
        <ele>44.41915</ele>
        <time>2021-07-13T10:31:11Z</time>
      </trkpt>
      <trkpt lat="37.3603" lon="-6.88814">
        <ele>45.27822</ele>
        <time>2021-07-13T10:31:22Z</time>
      </trkpt>
      <trkpt lat="37.36043" lon="-6.88645">
        <ele>48.71457</ele>
        <time>2021-07-13T10:31:33Z</time>
      </trkpt>
      <trkpt lat="37.36054" lon="-6.88495">
        <ele>53.23607</ele>
        <time>2021-07-13T10:31:44Z</time>
      </trkpt>
      <trkpt lat="37.36105" lon="-6.88399">
        <ele>57.8167</ele>
        <time>2021-07-13T10:31:55Z</time>
      </trkpt>
      <trkpt lat="37.36207" lon="-6.88305">
        <ele>67.00711</ele>
        <time>2021-07-13T10:32:06Z</time>
      </trkpt>
      <trkpt lat="37.36208" lon="-6.88171">
        <ele>70.60706</ele>
        <time>2021-07-13T10:32:17Z</time>
      </trkpt>
      <trkpt lat="37.36186" lon="-6.87953">
        <ele>64.77985</ele>
        <time>2021-07-13T10:32:28Z</time>
      </trkpt>
      <trkpt lat="37.36171" lon="-6.87823">
        <ele>56.06426</ele>
        <time>2021-07-13T10:32:39Z</time>
      </trkpt>
      <trkpt lat="37.36284" lon="-6.87871">
        <ele>51.39352</ele>
        <time>2021-07-13T10:32:50Z</time>
      </trkpt>
      <trkpt lat="37.3637" lon="-6.87893">
        <ele>44.64368</ele>
        <time>2021-07-13T10:33:01Z</time>
      </trkpt>
      <trkpt lat="37.36385" lon="-6.87763">
        <ele>40.51323</ele>
        <time>2021-07-13T10:33:12Z</time>
      </trkpt>
      <trkpt lat="37.36412" lon="-6.87639">
        <ele>36.32844</ele>
        <time>2021-07-13T10:33:23Z</time>
      </trkpt>
      <trkpt lat="37.36467" lon="-6.87492">
        <ele>40.08049</ele>
        <time>2021-07-13T10:33:34Z</time>
      </trkpt>
      <trkpt lat="37.36502" lon="-6.87387">
        <ele>49.05508</ele>
        <time>2021-07-13T10:33:45Z</time>
      </trkpt>
      <trkpt lat="37.36539" lon="-6.87287">
        <ele>61.70389</ele>
        <time>2021-07-13T10:33:56Z</time>
      </trkpt>
      <trkpt lat="37.36614" lon="-6.87213">
        <ele>64.91361</ele>
        <time>2021-07-13T10:34:08Z</time>
      </trkpt>
      <trkpt lat="37.36669" lon="-6.87107">
        <ele>65.43159</ele>
        <time>2021-07-13T10:34:19Z</time>
      </trkpt>
      <trkpt lat="37.36694" lon="-6.86989">
        <ele>66.19951</ele>
        <time>2021-07-13T10:34:30Z</time>
      </trkpt>
      <trkpt lat="37.36696" lon="-6.86839">
        <ele>68.6418</ele>
        <time>2021-07-13T10:34:41Z</time>
      </trkpt>
      <trkpt lat="37.36709" lon="-6.86689">
        <ele>75.33038</ele>
        <time>2021-07-13T10:34:52Z</time>
      </trkpt>
      <trkpt lat="37.36747" lon="-6.86547">
        <ele>75.58916</ele>
        <time>2021-07-13T10:35:03Z</time>
      </trkpt>
      <trkpt lat="37.36777" lon="-6.86397">
        <ele>72.62471</ele>
        <time>2021-07-13T10:35:14Z</time>
      </trkpt>
      <trkpt lat="37.36826" lon="-6.86246">
        <ele>66.41488</ele>
        <time>2021-07-13T10:35:25Z</time>
      </trkpt>
      <trkpt lat="37.36851" lon="-6.86094">
        <ele>58.35018</ele>
        <time>2021-07-13T10:35:36Z</time>
      </trkpt>
      <trkpt lat="37.36877" lon="-6.85941">
        <ele>57.62707</ele>
        <time>2021-07-13T10:35:47Z</time>
      </trkpt>
      <trkpt lat="37.36911" lon="-6.85802">
        <ele>58.56043</ele>
        <time>2021-07-13T10:35:58Z</time>
      </trkpt>
      <trkpt lat="37.3696" lon="-6.8568">
        <ele>48.67327</ele>
        <time>2021-07-13T10:36:09Z</time>
      </trkpt>
      <trkpt lat="37.36994" lon="-6.85565">
        <ele>56.98938</ele>
        <time>2021-07-13T10:36:20Z</time>
      </trkpt>
      <trkpt lat="37.37021" lon="-6.85485">
        <ele>65.50093</ele>
        <time>2021-07-13T10:36:31Z</time>
      </trkpt>
      <trkpt lat="37.3707" lon="-6.85406">
        <ele>73.77126</ele>
        <time>2021-07-13T10:36:42Z</time>
      </trkpt>
      <trkpt lat="37.37119" lon="-6.85318">
        <ele>73.00252</ele>
        <time>2021-07-13T10:36:53Z</time>
      </trkpt>
      <trkpt lat="37.37156" lon="-6.85178">
        <ele>66.94215</ele>
        <time>2021-07-13T10:37:04Z</time>
      </trkpt>
      <trkpt lat="37.37178" lon="-6.85075">
        <ele>63.10845</ele>
        <time>2021-07-13T10:37:15Z</time>
      </trkpt>
      <trkpt lat="37.37234" lon="-6.84979">
        <ele>65.52724</ele>
        <time>2021-07-13T10:37:26Z</time>
      </trkpt>
      <trkpt lat="37.37258" lon="-6.84941">
        <ele>67.3468</ele>
        <time>2021-07-13T10:37:37Z</time>
      </trkpt>
      <trkpt lat="37.37308" lon="-6.8487">
        <ele>65.40616</ele>
        <time>2021-07-13T10:37:48Z</time>
      </trkpt>
      <trkpt lat="37.37369" lon="-6.84799">
        <ele>60.54125</ele>
        <time>2021-07-13T10:37:59Z</time>
      </trkpt>
      <trkpt lat="37.37403" lon="-6.84655">
        <ele>63.38193</ele>
        <time>2021-07-13T10:38:10Z</time>
      </trkpt>
      <trkpt lat="37.37435" lon="-6.84511">
        <ele>60.36107</ele>
        <time>2021-07-13T10:38:21Z</time>
      </trkpt>
      <trkpt lat="37.37448" lon="-6.84447">
        <ele>60.376</ele>
        <time>2021-07-13T10:38:32Z</time>
      </trkpt>
      <trkpt lat="37.37471" lon="-6.84344">
        <ele>59.14047</ele>
        <time>2021-07-13T10:38:43Z</time>
      </trkpt>
      <trkpt lat="37.3751" lon="-6.84237">
        <ele>60.46173</ele>
        <time>2021-07-13T10:38:54Z</time>
      </trkpt>
      <trkpt lat="37.37606" lon="-6.84132">
        <ele>61.08933</ele>
        <time>2021-07-13T10:39:05Z</time>
      </trkpt>
      <trkpt lat="37.37703" lon="-6.8399">
        <ele>63.47705</ele>
        <time>2021-07-13T10:39:16Z</time>
      </trkpt>
      <trkpt lat="37.37798" lon="-6.83862">
        <ele>68.49589</ele>
        <time>2021-07-13T10:39:27Z</time>
      </trkpt>
      <trkpt lat="37.37863" lon="-6.83772">
        <ele>72.121</ele>
        <time>2021-07-13T10:39:38Z</time>
      </trkpt>
      <trkpt lat="37.37928" lon="-6.83798">
        <ele>73.149</ele>
        <time>2021-07-13T10:39:49Z</time>
      </trkpt>
      <trkpt lat="37.38018" lon="-6.83861">
        <ele>76.01068</ele>
        <time>2021-07-13T10:40:00Z</time>
      </trkpt>
      <trkpt lat="37.38101" lon="-6.83905">
        <ele>77.63499</ele>
        <time>2021-07-13T10:40:11Z</time>
      </trkpt>
      <trkpt lat="37.38206" lon="-6.83916">
        <ele>81.7574</ele>
        <time>2021-07-13T10:40:22Z</time>
      </trkpt>
      <trkpt lat="37.38244" lon="-6.83942">
        <ele>78.10481</ele>
        <time>2021-07-13T10:40:33Z</time>
      </trkpt>
      <trkpt lat="37.38278" lon="-6.83957">
        <ele>81.43475</ele>
        <time>2021-07-13T10:40:44Z</time>
      </trkpt>
      <trkpt lat="37.38309" lon="-6.83981">
        <ele>83.86265</ele>
        <time>2021-07-13T10:40:55Z</time>
      </trkpt>
      <trkpt lat="37.38326" lon="-6.84013">
        <ele>81.03211</ele>
        <time>2021-07-13T10:41:06Z</time>
      </trkpt>
      <trkpt lat="37.38399" lon="-6.83975">
        <ele>82.02204</ele>
        <time>2021-07-13T10:41:17Z</time>
      </trkpt>
      <trkpt lat="37.38472" lon="-6.8392">
        <ele>84.18827</ele>
        <time>2021-07-13T10:41:28Z</time>
      </trkpt>
      <trkpt lat="37.3852" lon="-6.83885">
        <ele>88.11755</ele>
        <time>2021-07-13T10:41:39Z</time>
      </trkpt>
      <trkpt lat="37.38591" lon="-6.83836">
        <ele>90.87169</ele>
        <time>2021-07-13T10:41:50Z</time>
      </trkpt>
      <trkpt lat="37.38649" lon="-6.83798">
        <ele>95.99301</ele>
        <time>2021-07-13T10:42:01Z</time>
      </trkpt>
      <trkpt lat="37.3871" lon="-6.83777">
        <ele>98.48952</ele>
        <time>2021-07-13T10:42:12Z</time>
      </trkpt>
      <trkpt lat="37.3881" lon="-6.8376">
        <ele>99.88076</ele>
        <time>2021-07-13T10:42:23Z</time>
      </trkpt>
      <trkpt lat="37.38923" lon="-6.83741">
        <ele>93.62761</ele>
        <time>2021-07-13T10:42:34Z</time>
      </trkpt>
      <trkpt lat="37.38957" lon="-6.83708">
        <ele>85.0386</ele>
        <time>2021-07-13T10:42:45Z</time>
      </trkpt>
      <trkpt lat="37.3891" lon="-6.83665">
        <ele>81.85965</ele>
        <time>2021-07-13T10:42:56Z</time>
      </trkpt>
      <trkpt lat="37.38899" lon="-6.83656">
        <ele>82.63619</ele>
        <time>2021-07-13T10:43:07Z</time>
      </trkpt>
      <trkpt lat="37.38904" lon="-6.83644">
        <ele>81.69712</ele>
        <time>2021-07-13T10:43:29Z</time>
      </trkpt>
      <trkpt lat="37.38902" lon="-6.83637">
        <ele>85.68921</ele>
        <time>2021-07-13T10:43:56Z</time>
      </trkpt>
      <trkpt lat="37.38893" lon="-6.83627">
        <ele>89.10162</ele>
        <time>2021-07-13T10:44:07Z</time>
      </trkpt>
      <trkpt lat="37.3884" lon="-6.83592">
        <ele>88.63282</ele>
        <time>2021-07-13T10:44:18Z</time>
      </trkpt>
      <trkpt lat="37.38844" lon="-6.835">
        <ele>88.56774</ele>
        <time>2021-07-13T10:44:29Z</time>
      </trkpt>
      <trkpt lat="37.38861" lon="-6.8338">
        <ele>87.36333</ele>
        <time>2021-07-13T10:44:40Z</time>
      </trkpt>
      <trkpt lat="37.389" lon="-6.83244">
        <ele>83.85278</ele>
        <time>2021-07-13T10:44:51Z</time>
      </trkpt>
      <trkpt lat="37.38912" lon="-6.83205">
        <ele>84.83674</ele>
        <time>2021-07-13T10:45:02Z</time>
      </trkpt>
      <trkpt lat="37.38913" lon="-6.83186">
        <ele>86.07852</ele>
        <time>2021-07-13T10:45:13Z</time>
      </trkpt>
      <trkpt lat="37.3893" lon="-6.83087">
        <ele>84.60906</ele>
        <time>2021-07-13T10:45:24Z</time>
      </trkpt>
      <trkpt lat="37.39084" lon="-6.82986">
        <ele>76.84569</ele>
        <time>2021-07-13T10:45:35Z</time>
      </trkpt>
      <trkpt lat="37.39254" lon="-6.82897">
        <ele>71.40009</ele>
        <time>2021-07-13T10:45:46Z</time>
      </trkpt>
      <trkpt lat="37.39442" lon="-6.82839">
        <ele>84.02242</ele>
        <time>2021-07-13T10:45:57Z</time>
      </trkpt>
      <trkpt lat="37.39611" lon="-6.82752">
        <ele>100.7156</ele>
        <time>2021-07-13T10:46:08Z</time>
      </trkpt>
      <trkpt lat="37.39756" lon="-6.82605">
        <ele>88.42665</ele>
        <time>2021-07-13T10:46:19Z</time>
      </trkpt>
      <trkpt lat="37.39896" lon="-6.82476">
        <ele>88.60571</ele>
        <time>2021-07-13T10:46:30Z</time>
      </trkpt>
      <trkpt lat="37.40069" lon="-6.82452">
        <ele>91.32552</ele>
        <time>2021-07-13T10:46:41Z</time>
      </trkpt>
      <trkpt lat="37.40195" lon="-6.8243">
        <ele>91.70187</ele>
        <time>2021-07-13T10:46:52Z</time>
      </trkpt>
      <trkpt lat="37.40317" lon="-6.82421">
        <ele>98.17784</ele>
        <time>2021-07-13T10:47:03Z</time>
      </trkpt>
      <trkpt lat="37.4046" lon="-6.82368">
        <ele>106.5774</ele>
        <time>2021-07-13T10:47:14Z</time>
      </trkpt>
      <trkpt lat="37.40665" lon="-6.82237">
        <ele>98.8713</ele>
        <time>2021-07-13T10:47:25Z</time>
      </trkpt>
      <trkpt lat="37.40821" lon="-6.82119">
        <ele>91.90142</ele>
        <time>2021-07-13T10:47:36Z</time>
      </trkpt>
      <trkpt lat="37.40984" lon="-6.81991">
        <ele>91.50054</ele>
        <time>2021-07-13T10:47:47Z</time>
      </trkpt>
      <trkpt lat="37.41146" lon="-6.81884">
        <ele>104.7284</ele>
        <time>2021-07-13T10:47:58Z</time>
      </trkpt>
      <trkpt lat="37.4129" lon="-6.81754">
        <ele>109.1838</ele>
        <time>2021-07-13T10:48:09Z</time>
      </trkpt>
      <trkpt lat="37.41389" lon="-6.8162">
        <ele>111.3114</ele>
        <time>2021-07-13T10:48:20Z</time>
      </trkpt>
      <trkpt lat="37.4148" lon="-6.81498">
        <ele>106.8933</ele>
        <time>2021-07-13T10:48:31Z</time>
      </trkpt>
      <trkpt lat="37.41524" lon="-6.81288">
        <ele>103.7908</ele>
        <time>2021-07-13T10:48:42Z</time>
      </trkpt>
      <trkpt lat="37.41592" lon="-6.81141">
        <ele>106.0436</ele>
        <time>2021-07-13T10:48:53Z</time>
      </trkpt>
      <trkpt lat="37.41682" lon="-6.81024">
        <ele>103.5025</ele>
        <time>2021-07-13T10:49:04Z</time>
      </trkpt>
      <trkpt lat="37.41765" lon="-6.8091">
        <ele>101.8575</ele>
        <time>2021-07-13T10:49:15Z</time>
      </trkpt>
      <trkpt lat="37.41802" lon="-6.80847">
        <ele>104.1972</ele>
        <time>2021-07-13T10:49:26Z</time>
      </trkpt>
      <trkpt lat="37.41842" lon="-6.80783">
        <ele>98.96267</ele>
        <time>2021-07-13T10:49:37Z</time>
      </trkpt>
      <trkpt lat="37.41902" lon="-6.80672">
        <ele>93.83588</ele>
        <time>2021-07-13T10:49:48Z</time>
      </trkpt>
      <trkpt lat="37.41994" lon="-6.80656">
        <ele>91.87418</ele>
        <time>2021-07-13T10:49:59Z</time>
      </trkpt>
      <trkpt lat="37.42086" lon="-6.80585">
        <ele>88.22768</ele>
        <time>2021-07-13T10:50:10Z</time>
      </trkpt>
      <trkpt lat="37.42187" lon="-6.80497">
        <ele>88.00621</ele>
        <time>2021-07-13T10:50:21Z</time>
      </trkpt>
      <trkpt lat="37.42238" lon="-6.80376">
        <ele>95.80571</ele>
        <time>2021-07-13T10:50:32Z</time>
      </trkpt>
      <trkpt lat="37.42275" lon="-6.8034">
        <ele>100.8899</ele>
        <time>2021-07-13T10:50:43Z</time>
      </trkpt>
      <trkpt lat="37.42304" lon="-6.80174">
        <ele>106.3396</ele>
        <time>2021-07-13T10:50:54Z</time>
      </trkpt>
      <trkpt lat="37.42331" lon="-6.80041">
        <ele>109.6815</ele>
        <time>2021-07-13T10:51:05Z</time>
      </trkpt>
      <trkpt lat="37.42356" lon="-6.79941">
        <ele>104.7692</ele>
        <time>2021-07-13T10:51:16Z</time>
      </trkpt>
      <trkpt lat="37.42355" lon="-6.79928">
        <ele>104.8832</ele>
        <time>2021-07-13T10:51:27Z</time>
      </trkpt>
      <trkpt lat="37.4235" lon="-6.79913">
        <ele>105.8912</ele>
        <time>2021-07-13T10:51:38Z</time>
      </trkpt>
      <trkpt lat="37.42341" lon="-6.79834">
        <ele>108.2947</ele>
        <time>2021-07-13T10:51:49Z</time>
      </trkpt>
      <trkpt lat="37.42321" lon="-6.79746">
        <ele>113.8898</ele>
        <time>2021-07-13T10:52:00Z</time>
      </trkpt>
      <trkpt lat="37.42303" lon="-6.79657">
        <ele>116.4287</ele>
        <time>2021-07-13T10:52:11Z</time>
      </trkpt>
      <trkpt lat="37.42291" lon="-6.7956">
        <ele>115.7423</ele>
        <time>2021-07-13T10:52:22Z</time>
      </trkpt>
      <trkpt lat="37.4229" lon="-6.79516">
        <ele>114.3029</ele>
        <time>2021-07-13T10:52:33Z</time>
      </trkpt>
      <trkpt lat="37.42345" lon="-6.79509">
        <ele>116.0116</ele>
        <time>2021-07-13T10:52:44Z</time>
      </trkpt>
      <trkpt lat="37.42394" lon="-6.79508">
        <ele>116.9482</ele>
        <time>2021-07-13T10:52:55Z</time>
      </trkpt>
      <trkpt lat="37.42418" lon="-6.79453">
        <ele>123.9327</ele>
        <time>2021-07-13T10:53:06Z</time>
      </trkpt>
      <trkpt lat="37.42458" lon="-6.79478">
        <ele>125.9666</ele>
        <time>2021-07-13T10:53:17Z</time>
      </trkpt>
      <trkpt lat="37.42431" lon="-6.79558">
        <ele>116.7612</ele>
        <time>2021-07-13T10:53:28Z</time>
      </trkpt>
      <trkpt lat="37.42456" lon="-6.79597">
        <ele>123.4768</ele>
        <time>2021-07-13T10:53:39Z</time>
      </trkpt>
      <trkpt lat="37.42483" lon="-6.79573">
        <ele>122.1488</ele>
        <time>2021-07-13T10:53:50Z</time>
      </trkpt>
      <trkpt lat="37.42514" lon="-6.79506">
        <ele>122.181</ele>
        <time>2021-07-13T10:54:01Z</time>
      </trkpt>
      <trkpt lat="37.42545" lon="-6.79435">
        <ele>123.528</ele>
        <time>2021-07-13T10:54:12Z</time>
      </trkpt>
      <trkpt lat="37.42563" lon="-6.79387">
        <ele>125.3203</ele>
        <time>2021-07-13T10:54:23Z</time>
      </trkpt>
      <trkpt lat="37.42585" lon="-6.79334">
        <ele>127.6697</ele>
        <time>2021-07-13T10:54:34Z</time>
      </trkpt>
      <trkpt lat="37.42569" lon="-6.79314">
        <ele>129.0131</ele>
        <time>2021-07-13T10:54:45Z</time>
      </trkpt>
      <trkpt lat="37.42544" lon="-6.79295">
        <ele>126.5408</ele>
        <time>2021-07-13T10:54:56Z</time>
      </trkpt>
      <trkpt lat="37.42532" lon="-6.79288">
        <ele>129.7016</ele>
        <time>2021-07-13T10:55:07Z</time>
      </trkpt>
      <trkpt lat="37.42528" lon="-6.79284">
        <ele>137.6195</ele>
        <time>2021-07-13T10:55:18Z</time>
      </trkpt>
      <trkpt lat="37.42488" lon="-6.79248">
        <ele>136.0283</ele>
        <time>2021-07-13T10:55:29Z</time>
      </trkpt>
      <trkpt lat="37.42412" lon="-6.79189">
        <ele>130.6615</ele>
        <time>2021-07-13T10:55:40Z</time>
      </trkpt>
      <trkpt lat="37.42352" lon="-6.79143">
        <ele>124.6412</ele>
        <time>2021-07-13T10:55:51Z</time>
      </trkpt>
      <trkpt lat="37.42362" lon="-6.79122">
        <ele>123.5824</ele>
        <time>2021-07-13T10:56:02Z</time>
      </trkpt>
      <trkpt lat="37.42444" lon="-6.79155">
        <ele>126.5081</ele>
        <time>2021-07-13T10:56:13Z</time>
      </trkpt>
      <trkpt lat="37.4252" lon="-6.79206">
        <ele>127.1603</ele>
        <time>2021-07-13T10:56:24Z</time>
      </trkpt>
      <trkpt lat="37.42557" lon="-6.79232">
        <ele>128.7263</ele>
        <time>2021-07-13T10:56:35Z</time>
      </trkpt>
      <trkpt lat="37.42564" lon="-6.79235">
        <ele>124.3399</ele>
        <time>2021-07-13T10:56:46Z</time>
      </trkpt>
      <trkpt lat="37.42567" lon="-6.79239">
        <ele>123.256</ele>
        <time>2021-07-13T10:57:38Z</time>
      </trkpt>
      <trkpt lat="37.4257" lon="-6.79242">
        <ele>124.8259</ele>
        <time>2021-07-13T10:57:49Z</time>
      </trkpt>
      <trkpt lat="37.4258" lon="-6.79248">
        <ele>122.0504</ele>
        <time>2021-07-13T10:58:00Z</time>
      </trkpt>
      <trkpt lat="37.42585" lon="-6.79254">
        <ele>124.7306</ele>
        <time>2021-07-13T10:58:11Z</time>
      </trkpt>
      <trkpt lat="37.42595" lon="-6.7926">
        <ele>126.3514</ele>
        <time>2021-07-13T10:58:22Z</time>
      </trkpt>
      <trkpt lat="37.42605" lon="-6.79271">
        <ele>124.1006</ele>
        <time>2021-07-13T10:58:33Z</time>
      </trkpt>
      <trkpt lat="37.42615" lon="-6.79281">
        <ele>118.2757</ele>
        <time>2021-07-13T10:58:44Z</time>
      </trkpt>
      <trkpt lat="37.42618" lon="-6.79291">
        <ele>121.0373</ele>
        <time>2021-07-13T10:58:55Z</time>
      </trkpt>
      <trkpt lat="37.42608" lon="-6.79301">
        <ele>118.6438</ele>
        <time>2021-07-13T10:59:06Z</time>
      </trkpt>
      <trkpt lat="37.42606" lon="-6.79312">
        <ele>117.5428</ele>
        <time>2021-07-13T10:59:17Z</time>
      </trkpt>
      <trkpt lat="37.42608" lon="-6.7932">
        <ele>117.3164</ele>
        <time>2021-07-13T10:59:28Z</time>
      </trkpt>
      <trkpt lat="37.42613" lon="-6.79321">
        <ele>116.9264</ele>
        <time>2021-07-13T10:59:51Z</time>
      </trkpt>
      <trkpt lat="37.42612" lon="-6.79326">
        <ele>118.0488</ele>
        <time>2021-07-13T11:00:06Z</time>
      </trkpt>
      <trkpt lat="37.42615" lon="-6.79326">
        <ele>117.5913</ele>
        <time>2021-07-13T11:00:29Z</time>
      </trkpt>
      <trkpt lat="37.42618" lon="-6.79322">
        <ele>118.7973</ele>
        <time>2021-07-13T11:00:48Z</time>
      </trkpt>
      <trkpt lat="37.42615" lon="-6.79326">
        <ele>117.6822</ele>
        <time>2021-07-13T11:01:08Z</time>
      </trkpt>
      <trkpt lat="37.42612" lon="-6.79329">
        <ele>117.8884</ele>
        <time>2021-07-13T11:01:19Z</time>
      </trkpt>
      <trkpt lat="37.42613" lon="-6.79323">
        <ele>118.2285</ele>
        <time>2021-07-13T11:01:30Z</time>
      </trkpt>
      <trkpt lat="37.42614" lon="-6.79318">
        <ele>119.7931</ele>
        <time>2021-07-13T11:01:44Z</time>
      </trkpt>
      <trkpt lat="37.42614" lon="-6.79312">
        <ele>118.7635</ele>
        <time>2021-07-13T11:01:55Z</time>
      </trkpt>
      <trkpt lat="37.42619" lon="-6.79297">
        <ele>119.3385</ele>
        <time>2021-07-13T11:02:06Z</time>
      </trkpt>
      <trkpt lat="37.42619" lon="-6.79286">
        <ele>118.3534</ele>
        <time>2021-07-13T11:02:17Z</time>
      </trkpt>
      <trkpt lat="37.42609" lon="-6.79275">
        <ele>120.9321</ele>
        <time>2021-07-13T11:02:28Z</time>
      </trkpt>
      <trkpt lat="37.42611" lon="-6.79279">
        <ele>119.3751</ele>
        <time>2021-07-13T11:02:39Z</time>
      </trkpt>
      <trkpt lat="37.42609" lon="-6.79275">
        <ele>121.0197</ele>
        <time>2021-07-13T11:03:26Z</time>
      </trkpt>
      <trkpt lat="37.42599" lon="-6.79264">
        <ele>121.2957</ele>
        <time>2021-07-13T11:03:37Z</time>
      </trkpt>
      <trkpt lat="37.42588" lon="-6.79256">
        <ele>118.7286</ele>
        <time>2021-07-13T11:03:48Z</time>
      </trkpt>
      <trkpt lat="37.42577" lon="-6.79245">
        <ele>120.0368</ele>
        <time>2021-07-13T11:03:59Z</time>
      </trkpt>
      <trkpt lat="37.42568" lon="-6.79238">
        <ele>117.8454</ele>
        <time>2021-07-13T11:04:10Z</time>
      </trkpt>
      <trkpt lat="37.42564" lon="-6.79238">
        <ele>119.0502</ele>
        <time>2021-07-13T11:04:25Z</time>
      </trkpt>
      <trkpt lat="37.42563" lon="-6.79234">
        <ele>119.0546</ele>
        <time>2021-07-13T11:04:52Z</time>
      </trkpt>
      <trkpt lat="37.42567" lon="-6.79234">
        <ele>119.2761</ele>
        <time>2021-07-13T11:05:46Z</time>
      </trkpt>
      <trkpt lat="37.42568" lon="-6.79239">
        <ele>119.8321</ele>
        <time>2021-07-13T11:06:02Z</time>
      </trkpt>
      <trkpt lat="37.42564" lon="-6.79234">
        <ele>118.2683</ele>
        <time>2021-07-13T11:06:13Z</time>
      </trkpt>
      <trkpt lat="37.4256" lon="-6.79235">
        <ele>119.3514</ele>
        <time>2021-07-13T11:06:24Z</time>
      </trkpt>
      <trkpt lat="37.42545" lon="-6.79276">
        <ele>117.5248</ele>
        <time>2021-07-13T11:06:35Z</time>
      </trkpt>
      <trkpt lat="37.42506" lon="-6.79261">
        <ele>116.3622</ele>
        <time>2021-07-13T11:06:46Z</time>
      </trkpt>
      <trkpt lat="37.42447" lon="-6.79219">
        <ele>117.5071</ele>
        <time>2021-07-13T11:06:57Z</time>
      </trkpt>
      <trkpt lat="37.42378" lon="-6.79164">
        <ele>116.4149</ele>
        <time>2021-07-13T11:07:08Z</time>
      </trkpt>
      <trkpt lat="37.4235" lon="-6.79141">
        <ele>114.102</ele>
        <time>2021-07-13T11:07:19Z</time>
      </trkpt>
      <trkpt lat="37.42377" lon="-6.7907">
        <ele>114.2641</ele>
        <time>2021-07-13T11:07:30Z</time>
      </trkpt>
      <trkpt lat="37.42385" lon="-6.79064">
        <ele>114.4962</ele>
        <time>2021-07-13T11:07:41Z</time>
      </trkpt>
      <trkpt lat="37.42398" lon="-6.79041">
        <ele>113.3175</ele>
        <time>2021-07-13T11:07:52Z</time>
      </trkpt>
      <trkpt lat="37.42445" lon="-6.78958">
        <ele>112.5221</ele>
        <time>2021-07-13T11:08:03Z</time>
      </trkpt>
      <trkpt lat="37.425" lon="-6.78864">
        <ele>110.1953</ele>
        <time>2021-07-13T11:08:14Z</time>
      </trkpt>
      <trkpt lat="37.42557" lon="-6.78768">
        <ele>113.3152</ele>
        <time>2021-07-13T11:08:25Z</time>
      </trkpt>
      <trkpt lat="37.42621" lon="-6.7863">
        <ele>115.7458</ele>
        <time>2021-07-13T11:08:36Z</time>
      </trkpt>
      <trkpt lat="37.42614" lon="-6.78458">
        <ele>94.92228</ele>
        <time>2021-07-13T11:08:47Z</time>
      </trkpt>
      <trkpt lat="37.42609" lon="-6.7829">
        <ele>76.89239</ele>
        <time>2021-07-13T11:08:58Z</time>
      </trkpt>
      <trkpt lat="37.42572" lon="-6.78091">
        <ele>108.446</ele>
        <time>2021-07-13T11:09:09Z</time>
      </trkpt>
      <trkpt lat="37.42547" lon="-6.77908">
        <ele>106.8859</ele>
        <time>2021-07-13T11:09:20Z</time>
      </trkpt>
      <trkpt lat="37.42532" lon="-6.77721">
        <ele>102.5</ele>
        <time>2021-07-13T11:09:31Z</time>
      </trkpt>
      <trkpt lat="37.42513" lon="-6.77547">
        <ele>100.0024</ele>
        <time>2021-07-13T11:09:42Z</time>
      </trkpt>
      <trkpt lat="37.42501" lon="-6.77434">
        <ele>98.75063</ele>
        <time>2021-07-13T11:09:53Z</time>
      </trkpt>
      <trkpt lat="37.42486" lon="-6.77279">
        <ele>97.88748</ele>
        <time>2021-07-13T11:10:04Z</time>
      </trkpt>
      <trkpt lat="37.42487" lon="-6.77231">
        <ele>98.03812</ele>
        <time>2021-07-13T11:10:15Z</time>
      </trkpt>
      <trkpt lat="37.42485" lon="-6.77225">
        <ele>98.1781</ele>
        <time>2021-07-13T11:10:26Z</time>
      </trkpt>
      <trkpt lat="37.42487" lon="-6.77263">
        <ele>97.63344</ele>
        <time>2021-07-13T11:10:37Z</time>
      </trkpt>
      <trkpt lat="37.42494" lon="-6.77385">
        <ele>98.34506</ele>
        <time>2021-07-13T11:10:48Z</time>
      </trkpt>
      <trkpt lat="37.42486" lon="-6.77444">
        <ele>98.52962</ele>
        <time>2021-07-13T11:10:59Z</time>
      </trkpt>
      <trkpt lat="37.42352" lon="-6.77319">
        <ele>94.58291</ele>
        <time>2021-07-13T11:11:10Z</time>
      </trkpt>
      <trkpt lat="37.4219" lon="-6.77164">
        <ele>94.42619</ele>
        <time>2021-07-13T11:11:21Z</time>
      </trkpt>
      <trkpt lat="37.42088" lon="-6.77007">
        <ele>101.8413</ele>
        <time>2021-07-13T11:11:32Z</time>
      </trkpt>
      <trkpt lat="37.42006" lon="-6.76828">
        <ele>106.8569</ele>
        <time>2021-07-13T11:11:43Z</time>
      </trkpt>
      <trkpt lat="37.41913" lon="-6.76661">
        <ele>97.39348</ele>
        <time>2021-07-13T11:11:54Z</time>
      </trkpt>
      <trkpt lat="37.41787" lon="-6.76511">
        <ele>92.97402</ele>
        <time>2021-07-13T11:12:05Z</time>
      </trkpt>
      <trkpt lat="37.41676" lon="-6.76394">
        <ele>92.51256</ele>
        <time>2021-07-13T11:12:16Z</time>
      </trkpt>
      <trkpt lat="37.41639" lon="-6.7636">
        <ele>97.33454</ele>
        <time>2021-07-13T11:12:27Z</time>
      </trkpt>
      <trkpt lat="37.41633" lon="-6.76351">
        <ele>97.22366</ele>
        <time>2021-07-13T11:12:55Z</time>
      </trkpt>
      <trkpt lat="37.41589" lon="-6.76193">
        <ele>98.92985</ele>
        <time>2021-07-13T11:13:06Z</time>
      </trkpt>
      <trkpt lat="37.41563" lon="-6.76011">
        <ele>103.0082</ele>
        <time>2021-07-13T11:13:17Z</time>
      </trkpt>
      <trkpt lat="37.41572" lon="-6.75806">
        <ele>100.2005</ele>
        <time>2021-07-13T11:13:28Z</time>
      </trkpt>
      <trkpt lat="37.41583" lon="-6.75612">
        <ele>94.18091</ele>
        <time>2021-07-13T11:13:39Z</time>
      </trkpt>
      <trkpt lat="37.41569" lon="-6.7543">
        <ele>97.93854</ele>
        <time>2021-07-13T11:13:50Z</time>
      </trkpt>
      <trkpt lat="37.41557" lon="-6.75224">
        <ele>102.8169</ele>
        <time>2021-07-13T11:14:01Z</time>
      </trkpt>
      <trkpt lat="37.4155" lon="-6.75056">
        <ele>98.23738</ele>
        <time>2021-07-13T11:14:12Z</time>
      </trkpt>
      <trkpt lat="37.41543" lon="-6.74871">
        <ele>96.1406</ele>
        <time>2021-07-13T11:14:23Z</time>
      </trkpt>
      <trkpt lat="37.41541" lon="-6.74696">
        <ele>105.2719</ele>
        <time>2021-07-13T11:14:34Z</time>
      </trkpt>
      <trkpt lat="37.41601" lon="-6.74529">
        <ele>95.68595</ele>
        <time>2021-07-13T11:14:45Z</time>
      </trkpt>
      <trkpt lat="37.41657" lon="-6.74384">
        <ele>82.46317</ele>
        <time>2021-07-13T11:14:56Z</time>
      </trkpt>
      <trkpt lat="37.41698" lon="-6.74197">
        <ele>80.95711</ele>
        <time>2021-07-13T11:15:07Z</time>
      </trkpt>
      <trkpt lat="37.41682" lon="-6.73977">
        <ele>84.04642</ele>
        <time>2021-07-13T11:15:18Z</time>
      </trkpt>
      <trkpt lat="37.41672" lon="-6.73792">
        <ele>73.29868</ele>
        <time>2021-07-13T11:15:29Z</time>
      </trkpt>
      <trkpt lat="37.41658" lon="-6.73621">
        <ele>64.83796</ele>
        <time>2021-07-13T11:15:40Z</time>
      </trkpt>
      <trkpt lat="37.41639" lon="-6.73417">
        <ele>62.24526</ele>
        <time>2021-07-13T11:15:51Z</time>
      </trkpt>
      <trkpt lat="37.41552" lon="-6.73275">
        <ele>54.87788</ele>
        <time>2021-07-13T11:16:02Z</time>
      </trkpt>
      <trkpt lat="37.41456" lon="-6.73146">
        <ele>52.54657</ele>
        <time>2021-07-13T11:16:13Z</time>
      </trkpt>
      <trkpt lat="37.41366" lon="-6.73032">
        <ele>61.62482</ele>
        <time>2021-07-13T11:16:24Z</time>
      </trkpt>
      <trkpt lat="37.4132" lon="-6.72843">
        <ele>66.92783</ele>
        <time>2021-07-13T11:16:35Z</time>
      </trkpt>
      <trkpt lat="37.41287" lon="-6.72673">
        <ele>75.55749</ele>
        <time>2021-07-13T11:16:46Z</time>
      </trkpt>
      <trkpt lat="37.41259" lon="-6.72525">
        <ele>79.51551</ele>
        <time>2021-07-13T11:16:57Z</time>
      </trkpt>
      <trkpt lat="37.41219" lon="-6.72363">
        <ele>85.24677</ele>
        <time>2021-07-13T11:17:08Z</time>
      </trkpt>
      <trkpt lat="37.41194" lon="-6.722">
        <ele>87.09949</ele>
        <time>2021-07-13T11:17:19Z</time>
      </trkpt>
      <trkpt lat="37.41163" lon="-6.72068">
        <ele>80.23847</ele>
        <time>2021-07-13T11:17:30Z</time>
      </trkpt>
      <trkpt lat="37.41097" lon="-6.71884">
        <ele>78.89402</ele>
        <time>2021-07-13T11:17:41Z</time>
      </trkpt>
      <trkpt lat="37.41069" lon="-6.71675">
        <ele>72.4055</ele>
        <time>2021-07-13T11:17:52Z</time>
      </trkpt>
      <trkpt lat="37.41042" lon="-6.71486">
        <ele>71.26748</ele>
        <time>2021-07-13T11:18:03Z</time>
      </trkpt>
      <trkpt lat="37.41004" lon="-6.71313">
        <ele>73.14945</ele>
        <time>2021-07-13T11:18:14Z</time>
      </trkpt>
      <trkpt lat="37.40898" lon="-6.71217">
        <ele>79.1131</ele>
        <time>2021-07-13T11:18:25Z</time>
      </trkpt>
      <trkpt lat="37.40774" lon="-6.71112">
        <ele>86.32594</ele>
        <time>2021-07-13T11:18:36Z</time>
      </trkpt>
      <trkpt lat="37.4068" lon="-6.71038">
        <ele>93.23923</ele>
        <time>2021-07-13T11:18:47Z</time>
      </trkpt>
      <trkpt lat="37.40631" lon="-6.70985">
        <ele>99.25699</ele>
        <time>2021-07-13T11:18:58Z</time>
      </trkpt>
      <trkpt lat="37.40583" lon="-6.70833">
        <ele>100.5638</ele>
        <time>2021-07-13T11:19:09Z</time>
      </trkpt>
      <trkpt lat="37.40521" lon="-6.70686">
        <ele>97.61408</ele>
        <time>2021-07-13T11:19:20Z</time>
      </trkpt>
      <trkpt lat="37.40472" lon="-6.70519">
        <ele>91.12735</ele>
        <time>2021-07-13T11:19:31Z</time>
      </trkpt>
      <trkpt lat="37.40414" lon="-6.70346">
        <ele>96.9153</ele>
        <time>2021-07-13T11:19:42Z</time>
      </trkpt>
      <trkpt lat="37.4038" lon="-6.7012">
        <ele>99.83928</ele>
        <time>2021-07-13T11:19:53Z</time>
      </trkpt>
      <trkpt lat="37.40342" lon="-6.69963">
        <ele>96.25773</ele>
        <time>2021-07-13T11:20:04Z</time>
      </trkpt>
      <trkpt lat="37.40318" lon="-6.69876">
        <ele>93.74895</ele>
        <time>2021-07-13T11:20:15Z</time>
      </trkpt>
      <trkpt lat="37.4028" lon="-6.69727">
        <ele>91.92297</ele>
        <time>2021-07-13T11:20:26Z</time>
      </trkpt>
      <trkpt lat="37.4025" lon="-6.69594">
        <ele>93.94504</ele>
        <time>2021-07-13T11:20:37Z</time>
      </trkpt>
      <trkpt lat="37.40252" lon="-6.69377">
        <ele>98.20526</ele>
        <time>2021-07-13T11:20:48Z</time>
      </trkpt>
      <trkpt lat="37.40276" lon="-6.6918">
        <ele>97.03204</ele>
        <time>2021-07-13T11:20:59Z</time>
      </trkpt>
      <trkpt lat="37.40288" lon="-6.68998">
        <ele>94.15136</ele>
        <time>2021-07-13T11:21:10Z</time>
      </trkpt>
      <trkpt lat="37.40276" lon="-6.68806">
        <ele>87.10817</ele>
        <time>2021-07-13T11:21:21Z</time>
      </trkpt>
      <trkpt lat="37.40244" lon="-6.68593">
        <ele>67.73959</ele>
        <time>2021-07-13T11:21:32Z</time>
      </trkpt>
      <trkpt lat="37.40186" lon="-6.68407">
        <ele>60.76685</ele>
        <time>2021-07-13T11:21:43Z</time>
      </trkpt>
      <trkpt lat="37.40166" lon="-6.68222">
        <ele>67.00496</ele>
        <time>2021-07-13T11:21:54Z</time>
      </trkpt>
      <trkpt lat="37.4017" lon="-6.68027">
        <ele>68.29599</ele>
        <time>2021-07-13T11:22:05Z</time>
      </trkpt>
      <trkpt lat="37.40187" lon="-6.67833">
        <ele>82.14702</ele>
        <time>2021-07-13T11:22:16Z</time>
      </trkpt>
      <trkpt lat="37.40182" lon="-6.67821">
        <ele>84.95612</ele>
        <time>2021-07-13T11:22:27Z</time>
      </trkpt>
      <trkpt lat="37.40059" lon="-6.67883">
        <ele>82.41005</ele>
        <time>2021-07-13T11:22:38Z</time>
      </trkpt>
      <trkpt lat="37.39847" lon="-6.67909">
        <ele>77.0437</ele>
        <time>2021-07-13T11:22:49Z</time>
      </trkpt>
      <trkpt lat="37.39623" lon="-6.67918">
        <ele>69.53538</ele>
        <time>2021-07-13T11:23:00Z</time>
      </trkpt>
      <trkpt lat="37.39435" lon="-6.67924">
        <ele>65.97288</ele>
        <time>2021-07-13T11:23:11Z</time>
      </trkpt>
      <trkpt lat="37.39393" lon="-6.6787">
        <ele>68.08829</ele>
        <time>2021-07-13T11:23:22Z</time>
      </trkpt>
      <trkpt lat="37.3945" lon="-6.67681">
        <ele>65.69681</ele>
        <time>2021-07-13T11:23:33Z</time>
      </trkpt>
      <trkpt lat="37.39426" lon="-6.6749">
        <ele>58.73986</ele>
        <time>2021-07-13T11:23:44Z</time>
      </trkpt>
      <trkpt lat="37.39333" lon="-6.67325">
        <ele>57.85216</ele>
        <time>2021-07-13T11:23:55Z</time>
      </trkpt>
      <trkpt lat="37.3922" lon="-6.67222">
        <ele>53.37489</ele>
        <time>2021-07-13T11:24:06Z</time>
      </trkpt>
      <trkpt lat="37.39197" lon="-6.67036">
        <ele>54.00053</ele>
        <time>2021-07-13T11:24:17Z</time>
      </trkpt>
      <trkpt lat="37.39105" lon="-6.66863">
        <ele>46.97718</ele>
        <time>2021-07-13T11:24:28Z</time>
      </trkpt>
      <trkpt lat="37.3904" lon="-6.66668">
        <ele>43.58834</ele>
        <time>2021-07-13T11:24:39Z</time>
      </trkpt>
      <trkpt lat="37.39001" lon="-6.66445">
        <ele>39.9723</ele>
        <time>2021-07-13T11:24:50Z</time>
      </trkpt>
      <trkpt lat="37.38974" lon="-6.66227">
        <ele>36.2082</ele>
        <time>2021-07-13T11:25:01Z</time>
      </trkpt>
      <trkpt lat="37.39015" lon="-6.66034">
        <ele>32.35887</ele>
        <time>2021-07-13T11:25:12Z</time>
      </trkpt>
      <trkpt lat="37.39081" lon="-6.65827">
        <ele>31.36235</ele>
        <time>2021-07-13T11:25:23Z</time>
      </trkpt>
      <trkpt lat="37.39169" lon="-6.65621">
        <ele>31.73881</ele>
        <time>2021-07-13T11:25:34Z</time>
      </trkpt>
      <trkpt lat="37.39307" lon="-6.65454">
        <ele>30.4528</ele>
        <time>2021-07-13T11:25:45Z</time>
      </trkpt>
      <trkpt lat="37.3943" lon="-6.65289">
        <ele>17.33428</ele>
        <time>2021-07-13T11:25:56Z</time>
      </trkpt>
      <trkpt lat="37.39538" lon="-6.65143">
        <ele>-51.82619</ele>
        <time>2021-07-13T11:26:07Z</time>
      </trkpt>
      <trkpt lat="37.39623" lon="-6.64902">
        <ele>34.95158</ele>
        <time>2021-07-13T11:26:18Z</time>
      </trkpt>
      <trkpt lat="37.39702" lon="-6.64693">
        <ele>35.72293</ele>
        <time>2021-07-13T11:26:29Z</time>
      </trkpt>
      <trkpt lat="37.39847" lon="-6.6453">
        <ele>36.51419</ele>
        <time>2021-07-13T11:26:40Z</time>
      </trkpt>
      <trkpt lat="37.39993" lon="-6.64416">
        <ele>40.4964</ele>
        <time>2021-07-13T11:26:51Z</time>
      </trkpt>
      <trkpt lat="37.40138" lon="-6.64274">
        <ele>45.29126</ele>
        <time>2021-07-13T11:27:02Z</time>
      </trkpt>
      <trkpt lat="37.40262" lon="-6.64131">
        <ele>42.96716</ele>
        <time>2021-07-13T11:27:13Z</time>
      </trkpt>
      <trkpt lat="37.40277" lon="-6.6393">
        <ele>37.95047</ele>
        <time>2021-07-13T11:27:24Z</time>
      </trkpt>
      <trkpt lat="37.40378" lon="-6.63758">
        <ele>40.01346</ele>
        <time>2021-07-13T11:27:35Z</time>
      </trkpt>
      <trkpt lat="37.40519" lon="-6.63621">
        <ele>36.16814</ele>
        <time>2021-07-13T11:27:46Z</time>
      </trkpt>
      <trkpt lat="37.40626" lon="-6.63457">
        <ele>37.75073</ele>
        <time>2021-07-13T11:27:57Z</time>
      </trkpt>
      <trkpt lat="37.40693" lon="-6.63282">
        <ele>33.57553</ele>
        <time>2021-07-13T11:28:08Z</time>
      </trkpt>
      <trkpt lat="37.40744" lon="-6.63097">
        <ele>35.91849</ele>
        <time>2021-07-13T11:28:19Z</time>
      </trkpt>
      <trkpt lat="37.40842" lon="-6.6293">
        <ele>38.36538</ele>
        <time>2021-07-13T11:28:30Z</time>
      </trkpt>
      <trkpt lat="37.40925" lon="-6.62856">
        <ele>38.38637</ele>
        <time>2021-07-13T11:28:41Z</time>
      </trkpt>
      <trkpt lat="37.40884" lon="-6.62771">
        <ele>35.41741</ele>
        <time>2021-07-13T11:28:52Z</time>
      </trkpt>
      <trkpt lat="37.40819" lon="-6.6269">
        <ele>32.94229</ele>
        <time>2021-07-13T11:29:03Z</time>
      </trkpt>
      <trkpt lat="37.40673" lon="-6.62653">
        <ele>29.34458</ele>
        <time>2021-07-13T11:29:14Z</time>
      </trkpt>
      <trkpt lat="37.4052" lon="-6.62582">
        <ele>27.53564</ele>
        <time>2021-07-13T11:29:25Z</time>
      </trkpt>
      <trkpt lat="37.40391" lon="-6.62517">
        <ele>33.30767</ele>
        <time>2021-07-13T11:29:36Z</time>
      </trkpt>
      <trkpt lat="37.40207" lon="-6.62408">
        <ele>40.98154</ele>
        <time>2021-07-13T11:29:47Z</time>
      </trkpt>
      <trkpt lat="37.40017" lon="-6.62266">
        <ele>33.93035</ele>
        <time>2021-07-13T11:29:58Z</time>
      </trkpt>
      <trkpt lat="37.39826" lon="-6.62115">
        <ele>30.71806</ele>
        <time>2021-07-13T11:30:09Z</time>
      </trkpt>
      <trkpt lat="37.39582" lon="-6.61898">
        <ele>32.83498</ele>
        <time>2021-07-13T11:30:20Z</time>
      </trkpt>
      <trkpt lat="37.39422" lon="-6.61713">
        <ele>43.66116</ele>
        <time>2021-07-13T11:30:32Z</time>
      </trkpt>
      <trkpt lat="37.39346" lon="-6.61581">
        <ele>48.94738</ele>
        <time>2021-07-13T11:30:43Z</time>
      </trkpt>
      <trkpt lat="37.3929" lon="-6.61393">
        <ele>61.004</ele>
        <time>2021-07-13T11:30:54Z</time>
      </trkpt>
      <trkpt lat="37.39252" lon="-6.61258">
        <ele>68.90917</ele>
        <time>2021-07-13T11:31:05Z</time>
      </trkpt>
      <trkpt lat="37.39255" lon="-6.61299">
        <ele>67.15672</ele>
        <time>2021-07-13T11:31:16Z</time>
      </trkpt>
      <trkpt lat="37.39253" lon="-6.61303">
        <ele>64.66643</ele>
        <time>2021-07-13T11:31:41Z</time>
      </trkpt>
      <trkpt lat="37.3925" lon="-6.6131">
        <ele>61.6424</ele>
        <time>2021-07-13T11:32:02Z</time>
      </trkpt>
      <trkpt lat="37.39206" lon="-6.61429">
        <ele>57.67249</ele>
        <time>2021-07-13T11:32:13Z</time>
      </trkpt>
      <trkpt lat="37.39146" lon="-6.61607">
        <ele>51.58971</ele>
        <time>2021-07-13T11:32:24Z</time>
      </trkpt>
      <trkpt lat="37.39086" lon="-6.61829">
        <ele>54.53476</ele>
        <time>2021-07-13T11:32:35Z</time>
      </trkpt>
      <trkpt lat="37.3901" lon="-6.62014">
        <ele>53.32385</ele>
        <time>2021-07-13T11:32:46Z</time>
      </trkpt>
      <trkpt lat="37.38892" lon="-6.62208">
        <ele>50.15894</ele>
        <time>2021-07-13T11:32:57Z</time>
      </trkpt>
      <trkpt lat="37.38834" lon="-6.62367">
        <ele>46.30483</ele>
        <time>2021-07-13T11:33:08Z</time>
      </trkpt>
      <trkpt lat="37.38757" lon="-6.62547">
        <ele>48.86519</ele>
        <time>2021-07-13T11:33:19Z</time>
      </trkpt>
      <trkpt lat="37.38716" lon="-6.62718">
        <ele>48.4724</ele>
        <time>2021-07-13T11:33:30Z</time>
      </trkpt>
      <trkpt lat="37.38688" lon="-6.62909">
        <ele>55.97549</ele>
        <time>2021-07-13T11:33:41Z</time>
      </trkpt>
      <trkpt lat="37.38676" lon="-6.631">
        <ele>53.42692</ele>
        <time>2021-07-13T11:33:52Z</time>
      </trkpt>
      <trkpt lat="37.38648" lon="-6.63294">
        <ele>51.52524</ele>
        <time>2021-07-13T11:34:03Z</time>
      </trkpt>
      <trkpt lat="37.38637" lon="-6.63474">
        <ele>43.76147</ele>
        <time>2021-07-13T11:34:14Z</time>
      </trkpt>
      <trkpt lat="37.38672" lon="-6.63648">
        <ele>36.27309</ele>
        <time>2021-07-13T11:34:25Z</time>
      </trkpt>
      <trkpt lat="37.38628" lon="-6.63799">
        <ele>41.0246</ele>
        <time>2021-07-13T11:34:36Z</time>
      </trkpt>
      <trkpt lat="37.38547" lon="-6.63956">
        <ele>52.8619</ele>
        <time>2021-07-13T11:34:47Z</time>
      </trkpt>
      <trkpt lat="37.38456" lon="-6.64071">
        <ele>52.46714</ele>
        <time>2021-07-13T11:34:58Z</time>
      </trkpt>
      <trkpt lat="37.38366" lon="-6.64224">
        <ele>51.44049</ele>
        <time>2021-07-13T11:35:09Z</time>
      </trkpt>
      <trkpt lat="37.38284" lon="-6.64401">
        <ele>52.81532</ele>
        <time>2021-07-13T11:35:20Z</time>
      </trkpt>
      <trkpt lat="37.3818" lon="-6.64559">
        <ele>50.62739</ele>
        <time>2021-07-13T11:35:31Z</time>
      </trkpt>
      <trkpt lat="37.38089" lon="-6.64717">
        <ele>46.41574</ele>
        <time>2021-07-13T11:35:42Z</time>
      </trkpt>
      <trkpt lat="37.38012" lon="-6.6486">
        <ele>41.2686</ele>
        <time>2021-07-13T11:35:53Z</time>
      </trkpt>
      <trkpt lat="37.37924" lon="-6.64966">
        <ele>27.98644</ele>
        <time>2021-07-13T11:36:04Z</time>
      </trkpt>
      <trkpt lat="37.37834" lon="-6.65108">
        <ele>30.455</ele>
        <time>2021-07-13T11:36:15Z</time>
      </trkpt>
      <trkpt lat="37.37793" lon="-6.65168">
        <ele>41.44578</ele>
        <time>2021-07-13T11:36:26Z</time>
      </trkpt>
      <trkpt lat="37.37846" lon="-6.65277">
        <ele>43.04852</ele>
        <time>2021-07-13T11:36:37Z</time>
      </trkpt>
      <trkpt lat="37.37918" lon="-6.65393">
        <ele>43.56201</ele>
        <time>2021-07-13T11:36:48Z</time>
      </trkpt>
      <trkpt lat="37.37977" lon="-6.65478">
        <ele>42.0182</ele>
        <time>2021-07-13T11:36:59Z</time>
      </trkpt>
      <trkpt lat="37.38025" lon="-6.65555">
        <ele>41.66271</ele>
        <time>2021-07-13T11:37:10Z</time>
      </trkpt>
      <trkpt lat="37.38051" lon="-6.65595">
        <ele>40.52085</ele>
        <time>2021-07-13T11:37:21Z</time>
      </trkpt>
      <trkpt lat="37.3803" lon="-6.65633">
        <ele>36.92182</ele>
        <time>2021-07-13T11:37:32Z</time>
      </trkpt>
      <trkpt lat="37.37943" lon="-6.65737">
        <ele>27.77269</ele>
        <time>2021-07-13T11:37:43Z</time>
      </trkpt>
      <trkpt lat="37.37844" lon="-6.65857">
        <ele>29.83233</ele>
        <time>2021-07-13T11:37:54Z</time>
      </trkpt>
      <trkpt lat="37.37738" lon="-6.65993">
        <ele>27.18558</ele>
        <time>2021-07-13T11:38:05Z</time>
      </trkpt>
      <trkpt lat="37.37613" lon="-6.66152">
        <ele>5.717315</ele>
        <time>2021-07-13T11:38:16Z</time>
      </trkpt>
      <trkpt lat="37.37481" lon="-6.66312">
        <ele>31.58044</ele>
        <time>2021-07-13T11:38:27Z</time>
      </trkpt>
      <trkpt lat="37.37361" lon="-6.66461">
        <ele>26.61728</ele>
        <time>2021-07-13T11:38:38Z</time>
      </trkpt>
      <trkpt lat="37.3725" lon="-6.66597">
        <ele>24.27448</ele>
        <time>2021-07-13T11:38:49Z</time>
      </trkpt>
      <trkpt lat="37.37176" lon="-6.66692">
        <ele>24.50782</ele>
        <time>2021-07-13T11:39:00Z</time>
      </trkpt>
      <trkpt lat="37.37121" lon="-6.66654">
        <ele>27.90624</ele>
        <time>2021-07-13T11:39:11Z</time>
      </trkpt>
      <trkpt lat="37.37044" lon="-6.66596">
        <ele>25.91606</ele>
        <time>2021-07-13T11:39:22Z</time>
      </trkpt>
      <trkpt lat="37.36985" lon="-6.66676">
        <ele>27.5115</ele>
        <time>2021-07-13T11:39:33Z</time>
      </trkpt>
      <trkpt lat="37.3683" lon="-6.66852">
        <ele>25.68478</ele>
        <time>2021-07-13T11:39:44Z</time>
      </trkpt>
      <trkpt lat="37.36658" lon="-6.67033">
        <ele>24.82971</ele>
        <time>2021-07-13T11:39:55Z</time>
      </trkpt>
      <trkpt lat="37.36506" lon="-6.67191">
        <ele>25.75642</ele>
        <time>2021-07-13T11:40:06Z</time>
      </trkpt>
      <trkpt lat="37.36452" lon="-6.67258">
        <ele>24.98859</ele>
        <time>2021-07-13T11:40:17Z</time>
      </trkpt>
      <trkpt lat="37.36452" lon="-6.67182">
        <ele>22.06305</ele>
        <time>2021-07-13T11:40:28Z</time>
      </trkpt>
      <trkpt lat="37.36412" lon="-6.67018">
        <ele>25.46399</ele>
        <time>2021-07-13T11:40:39Z</time>
      </trkpt>
      <trkpt lat="37.36342" lon="-6.66831">
        <ele>31.19245</ele>
        <time>2021-07-13T11:40:50Z</time>
      </trkpt>
      <trkpt lat="37.36336" lon="-6.66611">
        <ele>37.36455</ele>
        <time>2021-07-13T11:41:01Z</time>
      </trkpt>
      <trkpt lat="37.36289" lon="-6.66399">
        <ele>38.48391</ele>
        <time>2021-07-13T11:41:12Z</time>
      </trkpt>
      <trkpt lat="37.36277" lon="-6.66161">
        <ele>42.93806</ele>
        <time>2021-07-13T11:41:23Z</time>
      </trkpt>
      <trkpt lat="37.3625" lon="-6.65999">
        <ele>45.68301</ele>
        <time>2021-07-13T11:41:34Z</time>
      </trkpt>
      <trkpt lat="37.36221" lon="-6.65819">
        <ele>46.17625</ele>
        <time>2021-07-13T11:41:45Z</time>
      </trkpt>
      <trkpt lat="37.36184" lon="-6.65584">
        <ele>49.54436</ele>
        <time>2021-07-13T11:41:56Z</time>
      </trkpt>
      <trkpt lat="37.36158" lon="-6.65355">
        <ele>53.34817</ele>
        <time>2021-07-13T11:42:07Z</time>
      </trkpt>
      <trkpt lat="37.36129" lon="-6.65171">
        <ele>56.43914</ele>
        <time>2021-07-13T11:42:18Z</time>
      </trkpt>
      <trkpt lat="37.3612" lon="-6.6499">
        <ele>59.57636</ele>
        <time>2021-07-13T11:42:29Z</time>
      </trkpt>
      <trkpt lat="37.36098" lon="-6.64785">
        <ele>61.78926</ele>
        <time>2021-07-13T11:42:40Z</time>
      </trkpt>
      <trkpt lat="37.3606" lon="-6.64539">
        <ele>65.554</ele>
        <time>2021-07-13T11:42:51Z</time>
      </trkpt>
      <trkpt lat="37.36048" lon="-6.64286">
        <ele>68.63416</ele>
        <time>2021-07-13T11:43:02Z</time>
      </trkpt>
      <trkpt lat="37.36057" lon="-6.64046">
        <ele>72.48971</ele>
        <time>2021-07-13T11:43:13Z</time>
      </trkpt>
      <trkpt lat="37.3604" lon="-6.63857">
        <ele>75.86268</ele>
        <time>2021-07-13T11:43:24Z</time>
      </trkpt>
      <trkpt lat="37.36023" lon="-6.63711">
        <ele>80.08671</ele>
        <time>2021-07-13T11:43:35Z</time>
      </trkpt>
      <trkpt lat="37.36036" lon="-6.63604">
        <ele>83.3163</ele>
        <time>2021-07-13T11:43:46Z</time>
      </trkpt>
      <trkpt lat="37.36001" lon="-6.63477">
        <ele>82.07498</ele>
        <time>2021-07-13T11:43:57Z</time>
      </trkpt>
      <trkpt lat="37.35998" lon="-6.63311">
        <ele>86.98765</ele>
        <time>2021-07-13T11:44:08Z</time>
      </trkpt>
      <trkpt lat="37.35987" lon="-6.63169">
        <ele>84.95717</ele>
        <time>2021-07-13T11:44:19Z</time>
      </trkpt>
      <trkpt lat="37.35959" lon="-6.6301">
        <ele>86.6181</ele>
        <time>2021-07-13T11:44:30Z</time>
      </trkpt>
      <trkpt lat="37.35918" lon="-6.62836">
        <ele>90.95321</ele>
        <time>2021-07-13T11:44:41Z</time>
      </trkpt>
      <trkpt lat="37.35877" lon="-6.62653">
        <ele>94.94137</ele>
        <time>2021-07-13T11:44:52Z</time>
      </trkpt>
      <trkpt lat="37.35845" lon="-6.62528">
        <ele>95.49011</ele>
        <time>2021-07-13T11:45:03Z</time>
      </trkpt>
      <trkpt lat="37.3575" lon="-6.62363">
        <ele>102.8166</ele>
        <time>2021-07-13T11:45:14Z</time>
      </trkpt>
      <trkpt lat="37.3565" lon="-6.62193">
        <ele>109.7477</ele>
        <time>2021-07-13T11:45:25Z</time>
      </trkpt>
      <trkpt lat="37.35622" lon="-6.61989">
        <ele>117.3195</ele>
        <time>2021-07-13T11:45:36Z</time>
      </trkpt>
      <trkpt lat="37.35589" lon="-6.61818">
        <ele>121.9828</ele>
        <time>2021-07-13T11:45:47Z</time>
      </trkpt>
      <trkpt lat="37.35536" lon="-6.61607">
        <ele>131.2175</ele>
        <time>2021-07-13T11:45:58Z</time>
      </trkpt>
      <trkpt lat="37.35392" lon="-6.61469">
        <ele>136.315</ele>
        <time>2021-07-13T11:46:09Z</time>
      </trkpt>
      <trkpt lat="37.35237" lon="-6.6132">
        <ele>140.9327</ele>
        <time>2021-07-13T11:46:20Z</time>
      </trkpt>
      <trkpt lat="37.35132" lon="-6.61256">
        <ele>144.1439</ele>
        <time>2021-07-13T11:46:31Z</time>
      </trkpt>
      <trkpt lat="37.35019" lon="-6.61345">
        <ele>147.6108</ele>
        <time>2021-07-13T11:46:42Z</time>
      </trkpt>
      <trkpt lat="37.34978" lon="-6.61357">
        <ele>154.8556</ele>
        <time>2021-07-13T11:46:53Z</time>
      </trkpt>
      <trkpt lat="37.34935" lon="-6.61343">
        <ele>157.0152</ele>
        <time>2021-07-13T11:47:04Z</time>
      </trkpt>
      <trkpt lat="37.34882" lon="-6.61368">
        <ele>157.639</ele>
        <time>2021-07-13T11:47:15Z</time>
      </trkpt>
      <trkpt lat="37.34863" lon="-6.61543">
        <ele>159.3718</ele>
        <time>2021-07-13T11:47:26Z</time>
      </trkpt>
      <trkpt lat="37.34825" lon="-6.61657">
        <ele>161.2254</ele>
        <time>2021-07-13T11:47:37Z</time>
      </trkpt>
      <trkpt lat="37.34824" lon="-6.61669">
        <ele>158.5615</ele>
        <time>2021-07-13T11:47:48Z</time>
      </trkpt>
      <trkpt lat="37.34824" lon="-6.6167">
        <ele>156.2797</ele>
        <time>2021-07-13T11:48:48Z</time>
      </trkpt>
      <trkpt lat="37.34822" lon="-6.61676">
        <ele>157.3185</ele>
        <time>2021-07-13T11:49:18Z</time>
      </trkpt>
      <trkpt lat="37.34811" lon="-6.6179">
        <ele>152.9684</ele>
        <time>2021-07-13T11:49:29Z</time>
      </trkpt>
      <trkpt lat="37.34756" lon="-6.6195">
        <ele>149.4916</ele>
        <time>2021-07-13T11:49:40Z</time>
      </trkpt>
      <trkpt lat="37.34692" lon="-6.62106">
        <ele>148.7662</ele>
        <time>2021-07-13T11:49:51Z</time>
      </trkpt>
      <trkpt lat="37.34635" lon="-6.62243">
        <ele>147.519</ele>
        <time>2021-07-13T11:50:02Z</time>
      </trkpt>
      <trkpt lat="37.34569" lon="-6.62266">
        <ele>144.0875</ele>
        <time>2021-07-13T11:50:13Z</time>
      </trkpt>
      <trkpt lat="37.34475" lon="-6.62273">
        <ele>139.4987</ele>
        <time>2021-07-13T11:50:24Z</time>
      </trkpt>
      <trkpt lat="37.34382" lon="-6.62278">
        <ele>137.8861</ele>
        <time>2021-07-13T11:50:35Z</time>
      </trkpt>
      <trkpt lat="37.34362" lon="-6.62278">
        <ele>137.9498</ele>
        <time>2021-07-13T11:50:46Z</time>
      </trkpt>
      <trkpt lat="37.34299" lon="-6.62304">
        <ele>135.4026</ele>
        <time>2021-07-13T11:50:57Z</time>
      </trkpt>
      <trkpt lat="37.3425" lon="-6.62303">
        <ele>134.1363</ele>
        <time>2021-07-13T11:51:08Z</time>
      </trkpt>
      <trkpt lat="37.34176" lon="-6.62283">
        <ele>130.111</ele>
        <time>2021-07-13T11:51:19Z</time>
      </trkpt>
      <trkpt lat="37.3416" lon="-6.62237">
        <ele>129.1342</ele>
        <time>2021-07-13T11:51:30Z</time>
      </trkpt>
      <trkpt lat="37.34162" lon="-6.62195">
        <ele>129.6221</ele>
        <time>2021-07-13T11:51:41Z</time>
      </trkpt>
      <trkpt lat="37.34175" lon="-6.62188">
        <ele>128.8438</ele>
        <time>2021-07-13T11:51:52Z</time>
      </trkpt>
      <trkpt lat="37.34171" lon="-6.62191">
        <ele>129.369</ele>
        <time>2021-07-13T11:52:09Z</time>
      </trkpt>
      <trkpt lat="37.34156" lon="-6.62222">
        <ele>128.4792</ele>
        <time>2021-07-13T11:52:20Z</time>
      </trkpt>
      <trkpt lat="37.3416" lon="-6.62281">
        <ele>130.7276</ele>
        <time>2021-07-13T11:52:31Z</time>
      </trkpt>
      <trkpt lat="37.3421" lon="-6.62294">
        <ele>131.6617</ele>
        <time>2021-07-13T11:52:42Z</time>
      </trkpt>
      <trkpt lat="37.3428" lon="-6.62303">
        <ele>134.7522</ele>
        <time>2021-07-13T11:52:53Z</time>
      </trkpt>
      <trkpt lat="37.34347" lon="-6.62285">
        <ele>136.976</ele>
        <time>2021-07-13T11:53:04Z</time>
      </trkpt>
      <trkpt lat="37.34448" lon="-6.62272">
        <ele>139.4301</ele>
        <time>2021-07-13T11:53:15Z</time>
      </trkpt>
      <trkpt lat="37.34503" lon="-6.6227">
        <ele>143.0931</ele>
        <time>2021-07-13T11:53:26Z</time>
      </trkpt>
      <trkpt lat="37.34582" lon="-6.62265">
        <ele>146.3452</ele>
        <time>2021-07-13T11:53:37Z</time>
      </trkpt>
      <trkpt lat="37.34636" lon="-6.62237">
        <ele>149.606</ele>
        <time>2021-07-13T11:53:48Z</time>
      </trkpt>
      <trkpt lat="37.34683" lon="-6.62125">
        <ele>152.1606</ele>
        <time>2021-07-13T11:53:59Z</time>
      </trkpt>
      <trkpt lat="37.34706" lon="-6.6206">
        <ele>153.4717</ele>
        <time>2021-07-13T11:54:10Z</time>
      </trkpt>
      <trkpt lat="37.34709" lon="-6.62056">
        <ele>154.0736</ele>
        <time>2021-07-13T11:54:24Z</time>
      </trkpt>
      <trkpt lat="37.34706" lon="-6.62062">
        <ele>152.4054</ele>
        <time>2021-07-13T11:54:35Z</time>
      </trkpt>
      <trkpt lat="37.34656" lon="-6.62057">
        <ele>150.8112</ele>
        <time>2021-07-13T11:54:46Z</time>
      </trkpt>
      <trkpt lat="37.34576" lon="-6.62007">
        <ele>147.3936</ele>
        <time>2021-07-13T11:54:57Z</time>
      </trkpt>
      <trkpt lat="37.34539" lon="-6.61946">
        <ele>149.2213</ele>
        <time>2021-07-13T11:55:08Z</time>
      </trkpt>
      <trkpt lat="37.34527" lon="-6.61924">
        <ele>149.5498</ele>
        <time>2021-07-13T11:55:19Z</time>
      </trkpt>
      <trkpt lat="37.34512" lon="-6.61934">
        <ele>148.887</ele>
        <time>2021-07-13T11:55:30Z</time>
      </trkpt>
      <trkpt lat="37.34533" lon="-6.61949">
        <ele>149.1983</ele>
        <time>2021-07-13T11:55:41Z</time>
      </trkpt>
      <trkpt lat="37.34531" lon="-6.61934">
        <ele>149.423</ele>
        <time>2021-07-13T11:55:52Z</time>
      </trkpt>
      <trkpt lat="37.34527" lon="-6.61925">
        <ele>149.0826</ele>
        <time>2021-07-13T11:56:03Z</time>
      </trkpt>
      <trkpt lat="37.34527" lon="-6.6192">
        <ele>148.866</ele>
        <time>2021-07-13T11:56:49Z</time>
      </trkpt>
      <trkpt lat="37.34523" lon="-6.61886">
        <ele>145.8542</ele>
        <time>2021-07-13T11:57:00Z</time>
      </trkpt>
      <trkpt lat="37.34523" lon="-6.61881">
        <ele>145.3399</ele>
        <time>2021-07-13T11:57:16Z</time>
      </trkpt>
      <trkpt lat="37.34523" lon="-6.61887">
        <ele>145.4742</ele>
        <time>2021-07-13T11:57:34Z</time>
      </trkpt>
      <trkpt lat="37.34532" lon="-6.61939">
        <ele>148.816</ele>
        <time>2021-07-13T11:57:45Z</time>
      </trkpt>
      <trkpt lat="37.34535" lon="-6.61941">
        <ele>149.3643</ele>
        <time>2021-07-13T11:58:22Z</time>
      </trkpt>
      <trkpt lat="37.34577" lon="-6.62009">
        <ele>148.8232</ele>
        <time>2021-07-13T11:58:33Z</time>
      </trkpt>
      <trkpt lat="37.34656" lon="-6.62056">
        <ele>149.7392</ele>
        <time>2021-07-13T11:58:44Z</time>
      </trkpt>
      <trkpt lat="37.34704" lon="-6.62056">
        <ele>151.216</ele>
        <time>2021-07-13T11:58:55Z</time>
      </trkpt>
      <trkpt lat="37.34743" lon="-6.61986">
        <ele>152.3842</ele>
        <time>2021-07-13T11:59:06Z</time>
      </trkpt>
      <trkpt lat="37.34793" lon="-6.61841">
        <ele>153.4784</ele>
        <time>2021-07-13T11:59:17Z</time>
      </trkpt>
      <trkpt lat="37.34821" lon="-6.61737">
        <ele>155.3732</ele>
        <time>2021-07-13T11:59:28Z</time>
      </trkpt>
      <trkpt lat="37.34839" lon="-6.61602">
        <ele>157.8104</ele>
        <time>2021-07-13T11:59:39Z</time>
      </trkpt>
      <trkpt lat="37.34878" lon="-6.61464">
        <ele>154.2056</ele>
        <time>2021-07-13T11:59:50Z</time>
      </trkpt>
      <trkpt lat="37.34882" lon="-6.61323">
        <ele>157.2837</ele>
        <time>2021-07-13T12:00:01Z</time>
      </trkpt>
      <trkpt lat="37.34826" lon="-6.61233">
        <ele>157.9961</ele>
        <time>2021-07-13T12:00:12Z</time>
      </trkpt>
      <trkpt lat="37.3477" lon="-6.61125">
        <ele>150.887</ele>
        <time>2021-07-13T12:00:23Z</time>
      </trkpt>
      <trkpt lat="37.34718" lon="-6.61038">
        <ele>153.7131</ele>
        <time>2021-07-13T12:00:34Z</time>
      </trkpt>
      <trkpt lat="37.34664" lon="-6.60939">
        <ele>154.6215</ele>
        <time>2021-07-13T12:00:45Z</time>
      </trkpt>
      <trkpt lat="37.34615" lon="-6.60796">
        <ele>151.4064</ele>
        <time>2021-07-13T12:00:56Z</time>
      </trkpt>
      <trkpt lat="37.34575" lon="-6.60675">
        <ele>152.1078</ele>
        <time>2021-07-13T12:01:07Z</time>
      </trkpt>
      <trkpt lat="37.34525" lon="-6.60557">
        <ele>150.5462</ele>
        <time>2021-07-13T12:01:18Z</time>
      </trkpt>
      <trkpt lat="37.34463" lon="-6.60416">
        <ele>151.5942</ele>
        <time>2021-07-13T12:01:29Z</time>
      </trkpt>
      <trkpt lat="37.34387" lon="-6.60324">
        <ele>144.4941</ele>
        <time>2021-07-13T12:01:40Z</time>
      </trkpt>
      <trkpt lat="37.34301" lon="-6.60277">
        <ele>147.464</ele>
        <time>2021-07-13T12:01:51Z</time>
      </trkpt>
      <trkpt lat="37.34253" lon="-6.60231">
        <ele>150.6088</ele>
        <time>2021-07-13T12:02:02Z</time>
      </trkpt>
      <trkpt lat="37.34175" lon="-6.60138">
        <ele>149.2072</ele>
        <time>2021-07-13T12:02:13Z</time>
      </trkpt>
      <trkpt lat="37.34081" lon="-6.6005">
        <ele>150.8943</ele>
        <time>2021-07-13T12:02:24Z</time>
      </trkpt>
      <trkpt lat="37.33979" lon="-6.5996">
        <ele>147.5455</ele>
        <time>2021-07-13T12:02:35Z</time>
      </trkpt>
      <trkpt lat="37.33895" lon="-6.59831">
        <ele>144.7881</ele>
        <time>2021-07-13T12:02:46Z</time>
      </trkpt>
      <trkpt lat="37.33826" lon="-6.59719">
        <ele>146.9824</ele>
        <time>2021-07-13T12:02:57Z</time>
      </trkpt>
      <trkpt lat="37.3376" lon="-6.59611">
        <ele>145.5657</ele>
        <time>2021-07-13T12:03:08Z</time>
      </trkpt>
      <trkpt lat="37.33702" lon="-6.59501">
        <ele>144.3099</ele>
        <time>2021-07-13T12:03:19Z</time>
      </trkpt>
      <trkpt lat="37.3366" lon="-6.59384">
        <ele>139.8642</ele>
        <time>2021-07-13T12:03:30Z</time>
      </trkpt>
      <trkpt lat="37.33626" lon="-6.59259">
        <ele>140.5269</ele>
        <time>2021-07-13T12:03:41Z</time>
      </trkpt>
      <trkpt lat="37.33584" lon="-6.59165">
        <ele>143.913</ele>
        <time>2021-07-13T12:03:52Z</time>
      </trkpt>
      <trkpt lat="37.33505" lon="-6.59092">
        <ele>143.0009</ele>
        <time>2021-07-13T12:04:03Z</time>
      </trkpt>
      <trkpt lat="37.3341" lon="-6.59027">
        <ele>139.356</ele>
        <time>2021-07-13T12:04:14Z</time>
      </trkpt>
      <trkpt lat="37.33313" lon="-6.58956">
        <ele>140.8726</ele>
        <time>2021-07-13T12:04:25Z</time>
      </trkpt>
      <trkpt lat="37.33244" lon="-6.58883">
        <ele>133.8852</ele>
        <time>2021-07-13T12:04:36Z</time>
      </trkpt>
      <trkpt lat="37.33234" lon="-6.58874">
        <ele>138.0394</ele>
        <time>2021-07-13T12:04:47Z</time>
      </trkpt>
      <trkpt lat="37.33234" lon="-6.58869">
        <ele>140.4306</ele>
        <time>2021-07-13T12:04:58Z</time>
      </trkpt>
      <trkpt lat="37.3322" lon="-6.58808">
        <ele>144.6366</ele>
        <time>2021-07-13T12:05:09Z</time>
      </trkpt>
      <trkpt lat="37.33184" lon="-6.5871">
        <ele>144.9127</ele>
        <time>2021-07-13T12:05:20Z</time>
      </trkpt>
      <trkpt lat="37.33133" lon="-6.58597">
        <ele>143.4378</ele>
        <time>2021-07-13T12:05:31Z</time>
      </trkpt>
      <trkpt lat="37.33078" lon="-6.58494">
        <ele>145.2479</ele>
        <time>2021-07-13T12:05:42Z</time>
      </trkpt>
      <trkpt lat="37.33031" lon="-6.58416">
        <ele>144.0999</ele>
        <time>2021-07-13T12:05:53Z</time>
      </trkpt>
      <trkpt lat="37.32989" lon="-6.58323">
        <ele>141.3158</ele>
        <time>2021-07-13T12:06:04Z</time>
      </trkpt>
      <trkpt lat="37.32929" lon="-6.58219">
        <ele>139.508</ele>
        <time>2021-07-13T12:06:15Z</time>
      </trkpt>
      <trkpt lat="37.32875" lon="-6.58109">
        <ele>138.4786</ele>
        <time>2021-07-13T12:06:26Z</time>
      </trkpt>
      <trkpt lat="37.32818" lon="-6.57995">
        <ele>131.4251</ele>
        <time>2021-07-13T12:06:37Z</time>
      </trkpt>
      <trkpt lat="37.32792" lon="-6.57875">
        <ele>133.4996</ele>
        <time>2021-07-13T12:06:48Z</time>
      </trkpt>
      <trkpt lat="37.32738" lon="-6.57764">
        <ele>132.0734</ele>
        <time>2021-07-13T12:06:59Z</time>
      </trkpt>
      <trkpt lat="37.32694" lon="-6.57618">
        <ele>133.6351</ele>
        <time>2021-07-13T12:07:10Z</time>
      </trkpt>
      <trkpt lat="37.32633" lon="-6.57497">
        <ele>134.2896</ele>
        <time>2021-07-13T12:07:21Z</time>
      </trkpt>
      <trkpt lat="37.32555" lon="-6.5741">
        <ele>137.0016</ele>
        <time>2021-07-13T12:07:32Z</time>
      </trkpt>
      <trkpt lat="37.32479" lon="-6.57332">
        <ele>129.01</ele>
        <time>2021-07-13T12:07:43Z</time>
      </trkpt>
      <trkpt lat="37.32414" lon="-6.57196">
        <ele>124.8469</ele>
        <time>2021-07-13T12:07:54Z</time>
      </trkpt>
      <trkpt lat="37.324" lon="-6.57178">
        <ele>124.4391</ele>
        <time>2021-07-13T12:08:05Z</time>
      </trkpt>
      <trkpt lat="37.32397" lon="-6.57174">
        <ele>124.7488</ele>
        <time>2021-07-13T12:08:41Z</time>
      </trkpt>
      <trkpt lat="37.32349" lon="-6.57252">
        <ele>125.2868</ele>
        <time>2021-07-13T12:08:52Z</time>
      </trkpt>
      <trkpt lat="37.32285" lon="-6.57239">
        <ele>122.6284</ele>
        <time>2021-07-13T12:09:03Z</time>
      </trkpt>
      <trkpt lat="37.322" lon="-6.57166">
        <ele>122.1594</ele>
        <time>2021-07-13T12:09:14Z</time>
      </trkpt>
      <trkpt lat="37.32122" lon="-6.57093">
        <ele>121.0863</ele>
        <time>2021-07-13T12:09:25Z</time>
      </trkpt>
      <trkpt lat="37.32072" lon="-6.56995">
        <ele>120.9041</ele>
        <time>2021-07-13T12:09:36Z</time>
      </trkpt>
      <trkpt lat="37.32007" lon="-6.56882">
        <ele>122.9181</ele>
        <time>2021-07-13T12:09:47Z</time>
      </trkpt>
      <trkpt lat="37.31952" lon="-6.56774">
        <ele>122.3754</ele>
        <time>2021-07-13T12:09:58Z</time>
      </trkpt>
      <trkpt lat="37.31892" lon="-6.56683">
        <ele>121.2342</ele>
        <time>2021-07-13T12:10:09Z</time>
      </trkpt>
      <trkpt lat="37.31817" lon="-6.56583">
        <ele>123.0867</ele>
        <time>2021-07-13T12:10:20Z</time>
      </trkpt>
      <trkpt lat="37.31749" lon="-6.56501">
        <ele>122.641</ele>
        <time>2021-07-13T12:10:31Z</time>
      </trkpt>
      <trkpt lat="37.31742" lon="-6.56489">
        <ele>127.6843</ele>
        <time>2021-07-13T12:10:42Z</time>
      </trkpt>
      <trkpt lat="37.31764" lon="-6.56406">
        <ele>126.5683</ele>
        <time>2021-07-13T12:10:53Z</time>
      </trkpt>
      <trkpt lat="37.31695" lon="-6.56367">
        <ele>123.5342</ele>
        <time>2021-07-13T12:11:04Z</time>
      </trkpt>
      <trkpt lat="37.31638" lon="-6.56347">
        <ele>120.9302</ele>
        <time>2021-07-13T12:11:15Z</time>
      </trkpt>
      <trkpt lat="37.3157" lon="-6.56325">
        <ele>118.0874</ele>
        <time>2021-07-13T12:11:26Z</time>
      </trkpt>
      <trkpt lat="37.31519" lon="-6.56311">
        <ele>118.4678</ele>
        <time>2021-07-13T12:11:37Z</time>
      </trkpt>
      <trkpt lat="37.31465" lon="-6.56299">
        <ele>118.5508</ele>
        <time>2021-07-13T12:11:48Z</time>
      </trkpt>
      <trkpt lat="37.31409" lon="-6.56288">
        <ele>117.5347</ele>
        <time>2021-07-13T12:11:59Z</time>
      </trkpt>
      <trkpt lat="37.31357" lon="-6.56276">
        <ele>117.7271</ele>
        <time>2021-07-13T12:12:10Z</time>
      </trkpt>
      <trkpt lat="37.3129" lon="-6.56257">
        <ele>117.1624</ele>
        <time>2021-07-13T12:12:21Z</time>
      </trkpt>
      <trkpt lat="37.31207" lon="-6.56236">
        <ele>118.9085</ele>
        <time>2021-07-13T12:12:32Z</time>
      </trkpt>
      <trkpt lat="37.31139" lon="-6.56224">
        <ele>116.2469</ele>
        <time>2021-07-13T12:12:43Z</time>
      </trkpt>
      <trkpt lat="37.31066" lon="-6.56217">
        <ele>115.975</ele>
        <time>2021-07-13T12:12:54Z</time>
      </trkpt>
      <trkpt lat="37.3099" lon="-6.56202">
        <ele>114.392</ele>
        <time>2021-07-13T12:13:05Z</time>
      </trkpt>
      <trkpt lat="37.30905" lon="-6.56211">
        <ele>113.4131</ele>
        <time>2021-07-13T12:13:16Z</time>
      </trkpt>
      <trkpt lat="37.30822" lon="-6.56217">
        <ele>111.2049</ele>
        <time>2021-07-13T12:13:27Z</time>
      </trkpt>
      <trkpt lat="37.30741" lon="-6.56217">
        <ele>111.5405</ele>
        <time>2021-07-13T12:13:38Z</time>
      </trkpt>
      <trkpt lat="37.30649" lon="-6.56221">
        <ele>113.2357</ele>
        <time>2021-07-13T12:13:49Z</time>
      </trkpt>
      <trkpt lat="37.30564" lon="-6.5623">
        <ele>114.711</ele>
        <time>2021-07-13T12:14:00Z</time>
      </trkpt>
      <trkpt lat="37.30484" lon="-6.56254">
        <ele>114.5754</ele>
        <time>2021-07-13T12:14:11Z</time>
      </trkpt>
      <trkpt lat="37.30404" lon="-6.56258">
        <ele>115.7939</ele>
        <time>2021-07-13T12:14:22Z</time>
      </trkpt>
      <trkpt lat="37.30323" lon="-6.56251">
        <ele>114.3337</ele>
        <time>2021-07-13T12:14:33Z</time>
      </trkpt>
      <trkpt lat="37.30258" lon="-6.5622">
        <ele>113.0302</ele>
        <time>2021-07-13T12:14:44Z</time>
      </trkpt>
      <trkpt lat="37.30201" lon="-6.56193">
        <ele>112.4525</ele>
        <time>2021-07-13T12:14:55Z</time>
      </trkpt>
      <trkpt lat="37.30145" lon="-6.56167">
        <ele>111.7528</ele>
        <time>2021-07-13T12:15:06Z</time>
      </trkpt>
      <trkpt lat="37.30079" lon="-6.56138">
        <ele>110.6965</ele>
        <time>2021-07-13T12:15:17Z</time>
      </trkpt>
      <trkpt lat="37.3004" lon="-6.56122">
        <ele>109.9555</ele>
        <time>2021-07-13T12:15:28Z</time>
      </trkpt>
      <trkpt lat="37.30042" lon="-6.5612">
        <ele>110.1966</ele>
        <time>2021-07-13T12:16:27Z</time>
      </trkpt>
      <trkpt lat="37.3004" lon="-6.56125">
        <ele>109.8589</ele>
        <time>2021-07-13T12:17:13Z</time>
      </trkpt>
      <trkpt lat="37.30041" lon="-6.5612">
        <ele>110.2212</ele>
        <time>2021-07-13T12:17:53Z</time>
      </trkpt>
      <trkpt lat="37.30041" lon="-6.5612">
        <ele>110.2676</ele>
        <time>2021-07-13T12:18:52Z</time>
      </trkpt>
      <trkpt lat="37.30042" lon="-6.56119">
        <ele>110.0963</ele>
        <time>2021-07-13T12:19:51Z</time>
      </trkpt>
      <trkpt lat="37.30041" lon="-6.56124">
        <ele>109.559</ele>
        <time>2021-07-13T12:20:21Z</time>
      </trkpt>
      <trkpt lat="37.30042" lon="-6.56121">
        <ele>110.2975</ele>
        <time>2021-07-13T12:21:20Z</time>
      </trkpt>
      <trkpt lat="37.30041" lon="-6.5612">
        <ele>109.5481</ele>
        <time>2021-07-13T12:22:19Z</time>
      </trkpt>
      <trkpt lat="37.30039" lon="-6.5612">
        <ele>109.3871</ele>
        <time>2021-07-13T12:23:19Z</time>
      </trkpt>
      <trkpt lat="37.30038" lon="-6.56123">
        <ele>110.3743</ele>
        <time>2021-07-13T12:24:19Z</time>
      </trkpt>
      <trkpt lat="37.30041" lon="-6.56125">
        <ele>110.3412</ele>
        <time>2021-07-13T12:24:58Z</time>
      </trkpt>
      <trkpt lat="37.30039" lon="-6.56125">
        <ele>109.7031</ele>
        <time>2021-07-13T12:25:58Z</time>
      </trkpt>
      <trkpt lat="37.30038" lon="-6.56126">
        <ele>109.6963</ele>
        <time>2021-07-13T12:26:58Z</time>
      </trkpt>
      <trkpt lat="37.3004" lon="-6.56125">
        <ele>109.9341</ele>
        <time>2021-07-13T12:27:57Z</time>
      </trkpt>
      <trkpt lat="37.30038" lon="-6.56127">
        <ele>109.1613</ele>
        <time>2021-07-13T12:28:57Z</time>
      </trkpt>
      <trkpt lat="37.30041" lon="-6.56131">
        <ele>110.639</ele>
        <time>2021-07-13T12:29:28Z</time>
      </trkpt>
      <trkpt lat="37.30037" lon="-6.56135">
        <ele>110.0971</ele>
        <time>2021-07-13T12:29:39Z</time>
      </trkpt>
      <trkpt lat="37.30036" lon="-6.5613">
        <ele>109.99</ele>
        <time>2021-07-13T12:29:56Z</time>
      </trkpt>
      <trkpt lat="37.30039" lon="-6.56134">
        <ele>109.1121</ele>
        <time>2021-07-13T12:30:22Z</time>
      </trkpt>
      <trkpt lat="37.30042" lon="-6.5613">
        <ele>111.2448</ele>
        <time>2021-07-13T12:30:38Z</time>
      </trkpt>
      <trkpt lat="37.30041" lon="-6.56123">
        <ele>110.7973</ele>
        <time>2021-07-13T12:30:49Z</time>
      </trkpt>
      <trkpt lat="37.30042" lon="-6.56118">
        <ele>110.4718</ele>
        <time>2021-07-13T12:31:10Z</time>
      </trkpt>
      <trkpt lat="37.30039" lon="-6.56118">
        <ele>109.7646</ele>
        <time>2021-07-13T12:32:10Z</time>
      </trkpt>
      <trkpt lat="37.30039" lon="-6.56118">
        <ele>109.762</ele>
        <time>2021-07-13T12:33:10Z</time>
      </trkpt>
      <trkpt lat="37.3004" lon="-6.56118">
        <ele>110.505</ele>
        <time>2021-07-13T12:34:09Z</time>
      </trkpt>
      <trkpt lat="37.30036" lon="-6.56114">
        <ele>110.4337</ele>
        <time>2021-07-13T12:35:05Z</time>
      </trkpt>
      <trkpt lat="37.3" lon="-6.56099">
        <ele>110.2166</ele>
        <time>2021-07-13T12:35:16Z</time>
      </trkpt>
      <trkpt lat="37.29946" lon="-6.56073">
        <ele>109.8213</ele>
        <time>2021-07-13T12:35:27Z</time>
      </trkpt>
      <trkpt lat="37.29882" lon="-6.56043">
        <ele>110.2125</ele>
        <time>2021-07-13T12:35:38Z</time>
      </trkpt>
      <trkpt lat="37.29822" lon="-6.56021">
        <ele>113.1177</ele>
        <time>2021-07-13T12:35:49Z</time>
      </trkpt>
      <trkpt lat="37.29776" lon="-6.56007">
        <ele>110.4927</ele>
        <time>2021-07-13T12:36:00Z</time>
      </trkpt>
      <trkpt lat="37.29728" lon="-6.55988">
        <ele>110.4817</ele>
        <time>2021-07-13T12:36:11Z</time>
      </trkpt>
      <trkpt lat="37.29663" lon="-6.55959">
        <ele>110.5005</ele>
        <time>2021-07-13T12:36:22Z</time>
      </trkpt>
      <trkpt lat="37.29593" lon="-6.55932">
        <ele>107.8807</ele>
        <time>2021-07-13T12:36:33Z</time>
      </trkpt>
      <trkpt lat="37.29511" lon="-6.5592">
        <ele>109.4608</ele>
        <time>2021-07-13T12:36:44Z</time>
      </trkpt>
      <trkpt lat="37.29389" lon="-6.55939">
        <ele>111.389</ele>
        <time>2021-07-13T12:36:55Z</time>
      </trkpt>
      <trkpt lat="37.29255" lon="-6.55953">
        <ele>110.8687</ele>
        <time>2021-07-13T12:37:06Z</time>
      </trkpt>
      <trkpt lat="37.29141" lon="-6.55937">
        <ele>109.9831</ele>
        <time>2021-07-13T12:37:17Z</time>
      </trkpt>
      <trkpt lat="37.29067" lon="-6.55924">
        <ele>110.6379</ele>
        <time>2021-07-13T12:37:28Z</time>
      </trkpt>
      <trkpt lat="37.29028" lon="-6.55959">
        <ele>112.1788</ele>
        <time>2021-07-13T12:37:39Z</time>
      </trkpt>
      <trkpt lat="37.28993" lon="-6.55994">
        <ele>111.904</ele>
        <time>2021-07-13T12:37:50Z</time>
      </trkpt>
      <trkpt lat="37.28985" lon="-6.56004">
        <ele>110.5153</ele>
        <time>2021-07-13T12:38:01Z</time>
      </trkpt>
      <trkpt lat="37.28973" lon="-6.56018">
        <ele>108.2126</ele>
        <time>2021-07-13T12:38:12Z</time>
      </trkpt>
      <trkpt lat="37.28921" lon="-6.56072">
        <ele>106.4001</ele>
        <time>2021-07-13T12:38:23Z</time>
      </trkpt>
      <trkpt lat="37.28882" lon="-6.56111">
        <ele>103.6906</ele>
        <time>2021-07-13T12:38:34Z</time>
      </trkpt>
      <trkpt lat="37.28846" lon="-6.56149">
        <ele>103.118</ele>
        <time>2021-07-13T12:38:45Z</time>
      </trkpt>
      <trkpt lat="37.28827" lon="-6.56167">
        <ele>104.6268</ele>
        <time>2021-07-13T12:38:56Z</time>
      </trkpt>
      <trkpt lat="37.28794" lon="-6.56198">
        <ele>104.3834</ele>
        <time>2021-07-13T12:39:07Z</time>
      </trkpt>
      <trkpt lat="37.28735" lon="-6.56261">
        <ele>103.9862</ele>
        <time>2021-07-13T12:39:18Z</time>
      </trkpt>
      <trkpt lat="37.28684" lon="-6.56311">
        <ele>103.3187</ele>
        <time>2021-07-13T12:39:29Z</time>
      </trkpt>
      <trkpt lat="37.28628" lon="-6.56371">
        <ele>101.775</ele>
        <time>2021-07-13T12:39:40Z</time>
      </trkpt>
      <trkpt lat="37.28566" lon="-6.56436">
        <ele>102.7219</ele>
        <time>2021-07-13T12:39:51Z</time>
      </trkpt>
      <trkpt lat="37.28469" lon="-6.56535">
        <ele>105.8396</ele>
        <time>2021-07-13T12:40:02Z</time>
      </trkpt>
      <trkpt lat="37.28415" lon="-6.56643">
        <ele>103.092</ele>
        <time>2021-07-13T12:40:13Z</time>
      </trkpt>
      <trkpt lat="37.2836" lon="-6.56763">
        <ele>95.49532</ele>
        <time>2021-07-13T12:40:24Z</time>
      </trkpt>
      <trkpt lat="37.28298" lon="-6.56863">
        <ele>86.95524</ele>
        <time>2021-07-13T12:40:35Z</time>
      </trkpt>
      <trkpt lat="37.28253" lon="-6.56871">
        <ele>86.53392</ele>
        <time>2021-07-13T12:40:46Z</time>
      </trkpt>
      <trkpt lat="37.28174" lon="-6.56705">
        <ele>84.09672</ele>
        <time>2021-07-13T12:40:57Z</time>
      </trkpt>
      <trkpt lat="37.28068" lon="-6.56577">
        <ele>80.19537</ele>
        <time>2021-07-13T12:41:08Z</time>
      </trkpt>
      <trkpt lat="37.27966" lon="-6.56432">
        <ele>74.65937</ele>
        <time>2021-07-13T12:41:19Z</time>
      </trkpt>
      <trkpt lat="37.27876" lon="-6.56307">
        <ele>74.53859</ele>
        <time>2021-07-13T12:41:30Z</time>
      </trkpt>
      <trkpt lat="37.27791" lon="-6.56153">
        <ele>78.37931</ele>
        <time>2021-07-13T12:41:41Z</time>
      </trkpt>
      <trkpt lat="37.27741" lon="-6.5597">
        <ele>79.6349</ele>
        <time>2021-07-13T12:41:52Z</time>
      </trkpt>
      <trkpt lat="37.2771" lon="-6.55804">
        <ele>70.25993</ele>
        <time>2021-07-13T12:42:03Z</time>
      </trkpt>
      <trkpt lat="37.27632" lon="-6.55667">
        <ele>66.35494</ele>
        <time>2021-07-13T12:42:14Z</time>
      </trkpt>
      <trkpt lat="37.27555" lon="-6.55523">
        <ele>74.88137</ele>
        <time>2021-07-13T12:42:25Z</time>
      </trkpt>
      <trkpt lat="37.27516" lon="-6.55347">
        <ele>71.90869</ele>
        <time>2021-07-13T12:42:36Z</time>
      </trkpt>
      <trkpt lat="37.2746" lon="-6.55139">
        <ele>72.41586</ele>
        <time>2021-07-13T12:42:47Z</time>
      </trkpt>
      <trkpt lat="37.27425" lon="-6.54938">
        <ele>76.69928</ele>
        <time>2021-07-13T12:42:58Z</time>
      </trkpt>
      <trkpt lat="37.27355" lon="-6.54744">
        <ele>83.71808</ele>
        <time>2021-07-13T12:43:09Z</time>
      </trkpt>
      <trkpt lat="37.27297" lon="-6.54565">
        <ele>84.60828</ele>
        <time>2021-07-13T12:43:20Z</time>
      </trkpt>
      <trkpt lat="37.27205" lon="-6.54419">
        <ele>79.39071</ele>
        <time>2021-07-13T12:43:31Z</time>
      </trkpt>
      <trkpt lat="37.2712" lon="-6.54225">
        <ele>74.79214</ele>
        <time>2021-07-13T12:43:42Z</time>
      </trkpt>
      <trkpt lat="37.27079" lon="-6.5411">
        <ele>77.66418</ele>
        <time>2021-07-13T12:43:53Z</time>
      </trkpt>
      <trkpt lat="37.26955" lon="-6.54004">
        <ele>75.69257</ele>
        <time>2021-07-13T12:44:04Z</time>
      </trkpt>
      <trkpt lat="37.26837" lon="-6.53858">
        <ele>74.46195</ele>
        <time>2021-07-13T12:44:15Z</time>
      </trkpt>
      <trkpt lat="37.2675" lon="-6.53737">
        <ele>71.39725</ele>
        <time>2021-07-13T12:44:26Z</time>
      </trkpt>
      <trkpt lat="37.26744" lon="-6.53735">
        <ele>70.19508</ele>
        <time>2021-07-13T12:44:37Z</time>
      </trkpt>
      <trkpt lat="37.26688" lon="-6.53617">
        <ele>65.6464</ele>
        <time>2021-07-13T12:44:48Z</time>
      </trkpt>
      <trkpt lat="37.26594" lon="-6.53395">
        <ele>60.18046</ele>
        <time>2021-07-13T12:44:59Z</time>
      </trkpt>
      <trkpt lat="37.26544" lon="-6.53212">
        <ele>55.26493</ele>
        <time>2021-07-13T12:45:10Z</time>
      </trkpt>
      <trkpt lat="37.26508" lon="-6.53044">
        <ele>50.34308</ele>
        <time>2021-07-13T12:45:21Z</time>
      </trkpt>
      <trkpt lat="37.26462" lon="-6.52904">
        <ele>48.76938</ele>
        <time>2021-07-13T12:45:32Z</time>
      </trkpt>
      <trkpt lat="37.26434" lon="-6.52736">
        <ele>53.07752</ele>
        <time>2021-07-13T12:45:43Z</time>
      </trkpt>
      <trkpt lat="37.26414" lon="-6.52572">
        <ele>59.32344</ele>
        <time>2021-07-13T12:45:54Z</time>
      </trkpt>
      <trkpt lat="37.26383" lon="-6.52426">
        <ele>61.91803</ele>
        <time>2021-07-13T12:46:05Z</time>
      </trkpt>
      <trkpt lat="37.26329" lon="-6.52343">
        <ele>63.2695</ele>
        <time>2021-07-13T12:46:16Z</time>
      </trkpt>
      <trkpt lat="37.26348" lon="-6.52304">
        <ele>63.14721</ele>
        <time>2021-07-13T12:46:27Z</time>
      </trkpt>
      <trkpt lat="37.26362" lon="-6.52252">
        <ele>63.43902</ele>
        <time>2021-07-13T12:46:38Z</time>
      </trkpt>
      <trkpt lat="37.26415" lon="-6.52243">
        <ele>63.66867</ele>
        <time>2021-07-13T12:46:49Z</time>
      </trkpt>
      <trkpt lat="37.26431" lon="-6.52338">
        <ele>61.25851</ele>
        <time>2021-07-13T12:47:00Z</time>
      </trkpt>
      <trkpt lat="37.26442" lon="-6.52395">
        <ele>60.11607</ele>
        <time>2021-07-13T12:47:11Z</time>
      </trkpt>
      <trkpt lat="37.26489" lon="-6.52382">
        <ele>63.80491</ele>
        <time>2021-07-13T12:47:22Z</time>
      </trkpt>
      <trkpt lat="37.26543" lon="-6.52371">
        <ele>65.8946</ele>
        <time>2021-07-13T12:47:33Z</time>
      </trkpt>
      <trkpt lat="37.26576" lon="-6.52359">
        <ele>66.41786</ele>
        <time>2021-07-13T12:47:44Z</time>
      </trkpt>
      <trkpt lat="37.26561" lon="-6.5228">
        <ele>66.94673</ele>
        <time>2021-07-13T12:47:55Z</time>
      </trkpt>
      <trkpt lat="37.26576" lon="-6.52207">
        <ele>67.30278</ele>
        <time>2021-07-13T12:48:06Z</time>
      </trkpt>
      <trkpt lat="37.26579" lon="-6.52107">
        <ele>68.56546</ele>
        <time>2021-07-13T12:48:17Z</time>
      </trkpt>
      <trkpt lat="37.26603" lon="-6.5208">
        <ele>69.95345</ele>
        <time>2021-07-13T12:48:28Z</time>
      </trkpt>
      <trkpt lat="37.26706" lon="-6.52148">
        <ele>66.88983</ele>
        <time>2021-07-13T12:48:39Z</time>
      </trkpt>
      <trkpt lat="37.2684" lon="-6.52194">
        <ele>68.95445</ele>
        <time>2021-07-13T12:48:50Z</time>
      </trkpt>
      <trkpt lat="37.26914" lon="-6.52193">
        <ele>71.2224</ele>
        <time>2021-07-13T12:49:01Z</time>
      </trkpt>
      <trkpt lat="37.26887" lon="-6.52072">
        <ele>72.77131</ele>
        <time>2021-07-13T12:49:12Z</time>
      </trkpt>
      <trkpt lat="37.26889" lon="-6.51911">
        <ele>75.22928</ele>
        <time>2021-07-13T12:49:23Z</time>
      </trkpt>
      <trkpt lat="37.26889" lon="-6.51733">
        <ele>75.85512</ele>
        <time>2021-07-13T12:49:34Z</time>
      </trkpt>
      <trkpt lat="37.26871" lon="-6.51577">
        <ele>77.55979</ele>
        <time>2021-07-13T12:49:45Z</time>
      </trkpt>
      <trkpt lat="37.26878" lon="-6.51398">
        <ele>80.21494</ele>
        <time>2021-07-13T12:49:56Z</time>
      </trkpt>
      <trkpt lat="37.26825" lon="-6.51243">
        <ele>81.94646</ele>
        <time>2021-07-13T12:50:07Z</time>
      </trkpt>
      <trkpt lat="37.26794" lon="-6.51198">
        <ele>81.73189</ele>
        <time>2021-07-13T12:50:18Z</time>
      </trkpt>
      <trkpt lat="37.26754" lon="-6.51202">
        <ele>82.58891</ele>
        <time>2021-07-13T12:50:29Z</time>
      </trkpt>
      <trkpt lat="37.26811" lon="-6.51064">
        <ele>83.35198</ele>
        <time>2021-07-13T12:50:40Z</time>
      </trkpt>
      <trkpt lat="37.26873" lon="-6.50907">
        <ele>84.50929</ele>
        <time>2021-07-13T12:50:51Z</time>
      </trkpt>
      <trkpt lat="37.2694" lon="-6.50761">
        <ele>84.554</ele>
        <time>2021-07-13T12:51:02Z</time>
      </trkpt>
      <trkpt lat="37.27026" lon="-6.50546">
        <ele>86.04728</ele>
        <time>2021-07-13T12:51:13Z</time>
      </trkpt>
      <trkpt lat="37.27121" lon="-6.50333">
        <ele>84.5102</ele>
        <time>2021-07-13T12:51:24Z</time>
      </trkpt>
      <trkpt lat="37.27231" lon="-6.50133">
        <ele>83.77375</ele>
        <time>2021-07-13T12:51:35Z</time>
      </trkpt>
      <trkpt lat="37.27335" lon="-6.49923">
        <ele>81.30519</ele>
        <time>2021-07-13T12:51:46Z</time>
      </trkpt>
      <trkpt lat="37.27423" lon="-6.49738">
        <ele>60.73595</ele>
        <time>2021-07-13T12:51:57Z</time>
      </trkpt>
      <trkpt lat="37.27514" lon="-6.49549">
        <ele>75.20159</ele>
        <time>2021-07-13T12:52:08Z</time>
      </trkpt>
      <trkpt lat="37.27604" lon="-6.49358">
        <ele>88.27304</ele>
        <time>2021-07-13T12:52:19Z</time>
      </trkpt>
      <trkpt lat="37.27697" lon="-6.49158">
        <ele>108.3529</ele>
        <time>2021-07-13T12:52:30Z</time>
      </trkpt>
      <trkpt lat="37.27788" lon="-6.48964">
        <ele>99.86244</ele>
        <time>2021-07-13T12:52:41Z</time>
      </trkpt>
      <trkpt lat="37.27881" lon="-6.48765">
        <ele>97.43798</ele>
        <time>2021-07-13T12:52:52Z</time>
      </trkpt>
      <trkpt lat="37.27979" lon="-6.48552">
        <ele>96.73086</ele>
        <time>2021-07-13T12:53:03Z</time>
      </trkpt>
      <trkpt lat="37.28088" lon="-6.48316">
        <ele>101.4585</ele>
        <time>2021-07-13T12:53:14Z</time>
      </trkpt>
      <trkpt lat="37.2818" lon="-6.48105">
        <ele>105.5104</ele>
        <time>2021-07-13T12:53:25Z</time>
      </trkpt>
      <trkpt lat="37.28231" lon="-6.47861">
        <ele>93.55098</ele>
        <time>2021-07-13T12:53:36Z</time>
      </trkpt>
      <trkpt lat="37.28266" lon="-6.47606">
        <ele>92.82327</ele>
        <time>2021-07-13T12:53:47Z</time>
      </trkpt>
      <trkpt lat="37.28299" lon="-6.47352">
        <ele>92.7823</ele>
        <time>2021-07-13T12:53:58Z</time>
      </trkpt>
      <trkpt lat="37.28309" lon="-6.47119">
        <ele>87.33677</ele>
        <time>2021-07-13T12:54:09Z</time>
      </trkpt>
      <trkpt lat="37.28357" lon="-6.4689">
        <ele>92.71646</ele>
        <time>2021-07-13T12:54:20Z</time>
      </trkpt>
      <trkpt lat="37.28414" lon="-6.46658">
        <ele>92.88877</ele>
        <time>2021-07-13T12:54:31Z</time>
      </trkpt>
      <trkpt lat="37.28518" lon="-6.46503">
        <ele>93.25144</ele>
        <time>2021-07-13T12:54:42Z</time>
      </trkpt>
      <trkpt lat="37.28587" lon="-6.46345">
        <ele>89.6937</ele>
        <time>2021-07-13T12:54:53Z</time>
      </trkpt>
      <trkpt lat="37.28639" lon="-6.46217">
        <ele>92.2296</ele>
        <time>2021-07-13T12:55:04Z</time>
      </trkpt>
      <trkpt lat="37.28637" lon="-6.46159">
        <ele>92.7755</ele>
        <time>2021-07-13T12:55:15Z</time>
      </trkpt>
      <trkpt lat="37.28641" lon="-6.4611">
        <ele>93.96237</ele>
        <time>2021-07-13T12:55:26Z</time>
      </trkpt>
      <trkpt lat="37.28679" lon="-6.4601">
        <ele>97.2252</ele>
        <time>2021-07-13T12:55:37Z</time>
      </trkpt>
      <trkpt lat="37.28726" lon="-6.45887">
        <ele>99.24448</ele>
        <time>2021-07-13T12:55:48Z</time>
      </trkpt>
      <trkpt lat="37.28746" lon="-6.45715">
        <ele>98.64882</ele>
        <time>2021-07-13T12:55:59Z</time>
      </trkpt>
      <trkpt lat="37.28779" lon="-6.4555">
        <ele>96.84726</ele>
        <time>2021-07-13T12:56:10Z</time>
      </trkpt>
      <trkpt lat="37.28789" lon="-6.45346">
        <ele>96.32438</ele>
        <time>2021-07-13T12:56:21Z</time>
      </trkpt>
      <trkpt lat="37.28756" lon="-6.45162">
        <ele>97.33926</ele>
        <time>2021-07-13T12:56:32Z</time>
      </trkpt>
      <trkpt lat="37.28774" lon="-6.44974">
        <ele>92.83863</ele>
        <time>2021-07-13T12:56:43Z</time>
      </trkpt>
      <trkpt lat="37.2879" lon="-6.44784">
        <ele>85.23312</ele>
        <time>2021-07-13T12:56:54Z</time>
      </trkpt>
      <trkpt lat="37.2875" lon="-6.44603">
        <ele>78.12106</ele>
        <time>2021-07-13T12:57:05Z</time>
      </trkpt>
      <trkpt lat="37.28702" lon="-6.44459">
        <ele>66.60392</ele>
        <time>2021-07-13T12:57:16Z</time>
      </trkpt>
      <trkpt lat="37.28607" lon="-6.44378">
        <ele>73.02639</ele>
        <time>2021-07-13T12:57:27Z</time>
      </trkpt>
      <trkpt lat="37.28535" lon="-6.44166">
        <ele>67.33495</ele>
        <time>2021-07-13T12:57:38Z</time>
      </trkpt>
      <trkpt lat="37.28467" lon="-6.43973">
        <ele>63.90717</ele>
        <time>2021-07-13T12:57:49Z</time>
      </trkpt>
      <trkpt lat="37.28434" lon="-6.43867">
        <ele>73.06671</ele>
        <time>2021-07-13T12:58:00Z</time>
      </trkpt>
      <trkpt lat="37.28492" lon="-6.43798">
        <ele>91.17155</ele>
        <time>2021-07-13T12:58:11Z</time>
      </trkpt>
      <trkpt lat="37.28572" lon="-6.43659">
        <ele>109.8405</ele>
        <time>2021-07-13T12:58:22Z</time>
      </trkpt>
      <trkpt lat="37.28698" lon="-6.4352">
        <ele>121.6556</ele>
        <time>2021-07-13T12:58:33Z</time>
      </trkpt>
      <trkpt lat="37.28831" lon="-6.43379">
        <ele>117.2991</ele>
        <time>2021-07-13T12:58:44Z</time>
      </trkpt>
      <trkpt lat="37.28965" lon="-6.43236">
        <ele>108.2869</ele>
        <time>2021-07-13T12:58:55Z</time>
      </trkpt>
      <trkpt lat="37.29087" lon="-6.43103">
        <ele>96.37255</ele>
        <time>2021-07-13T12:59:06Z</time>
      </trkpt>
      <trkpt lat="37.29219" lon="-6.42966">
        <ele>97.41837</ele>
        <time>2021-07-13T12:59:17Z</time>
      </trkpt>
      <trkpt lat="37.29326" lon="-6.42843">
        <ele>102.3994</ele>
        <time>2021-07-13T12:59:28Z</time>
      </trkpt>
      <trkpt lat="37.29386" lon="-6.42685">
        <ele>98.26258</ele>
        <time>2021-07-13T12:59:39Z</time>
      </trkpt>
      <trkpt lat="37.29452" lon="-6.42628">
        <ele>95.35019</ele>
        <time>2021-07-13T12:59:50Z</time>
      </trkpt>
      <trkpt lat="37.29562" lon="-6.42587">
        <ele>98.58115</ele>
        <time>2021-07-13T13:00:01Z</time>
      </trkpt>
      <trkpt lat="37.29676" lon="-6.42447">
        <ele>100.222</ele>
        <time>2021-07-13T13:00:12Z</time>
      </trkpt>
      <trkpt lat="37.29817" lon="-6.42304">
        <ele>104.5059</ele>
        <time>2021-07-13T13:00:23Z</time>
      </trkpt>
      <trkpt lat="37.29969" lon="-6.42138">
        <ele>99.17171</ele>
        <time>2021-07-13T13:00:34Z</time>
      </trkpt>
      <trkpt lat="37.30105" lon="-6.41992">
        <ele>89.6826</ele>
        <time>2021-07-13T13:00:45Z</time>
      </trkpt>
      <trkpt lat="37.30179" lon="-6.4182">
        <ele>92.17718</ele>
        <time>2021-07-13T13:00:56Z</time>
      </trkpt>
      <trkpt lat="37.30235" lon="-6.41577">
        <ele>94.45404</ele>
        <time>2021-07-13T13:01:07Z</time>
      </trkpt>
      <trkpt lat="37.3027" lon="-6.41421">
        <ele>96.51196</ele>
        <time>2021-07-13T13:01:18Z</time>
      </trkpt>
      <trkpt lat="37.30326" lon="-6.41412">
        <ele>108.8135</ele>
        <time>2021-07-13T13:01:29Z</time>
      </trkpt>
      <trkpt lat="37.30449" lon="-6.41464">
        <ele>118.7553</ele>
        <time>2021-07-13T13:01:40Z</time>
      </trkpt>
      <trkpt lat="37.30445" lon="-6.41461">
        <ele>122.7613</ele>
        <time>2021-07-13T13:01:51Z</time>
      </trkpt>
      <trkpt lat="37.30448" lon="-6.41462">
        <ele>114.4978</ele>
        <time>2021-07-13T13:02:09Z</time>
      </trkpt>
      <trkpt lat="37.30445" lon="-6.41459">
        <ele>113.3636</ele>
        <time>2021-07-13T13:02:25Z</time>
      </trkpt>
      <trkpt lat="37.30448" lon="-6.41461">
        <ele>110.184</ele>
        <time>2021-07-13T13:02:43Z</time>
      </trkpt>
      <trkpt lat="37.30445" lon="-6.41465">
        <ele>107.5109</ele>
        <time>2021-07-13T13:03:33Z</time>
      </trkpt>
      <trkpt lat="37.30443" lon="-6.41468">
        <ele>107.7536</ele>
        <time>2021-07-13T13:04:05Z</time>
      </trkpt>
      <trkpt lat="37.30444" lon="-6.41471">
        <ele>110.7469</ele>
        <time>2021-07-13T13:05:04Z</time>
      </trkpt>
      <trkpt lat="37.30442" lon="-6.41475">
        <ele>110.0399</ele>
        <time>2021-07-13T13:05:16Z</time>
      </trkpt>
      <trkpt lat="37.30452" lon="-6.41476">
        <ele>111.7209</ele>
        <time>2021-07-13T13:05:56Z</time>
      </trkpt>
      <trkpt lat="37.30613" lon="-6.41531">
        <ele>103.0337</ele>
        <time>2021-07-13T13:06:07Z</time>
      </trkpt>
      <trkpt lat="37.307" lon="-6.41565">
        <ele>95.08784</ele>
        <time>2021-07-13T13:06:18Z</time>
      </trkpt>
      <trkpt lat="37.30709" lon="-6.41571">
        <ele>100.487</ele>
        <time>2021-07-13T13:06:29Z</time>
      </trkpt>
      <trkpt lat="37.30718" lon="-6.41573">
        <ele>102.9312</ele>
        <time>2021-07-13T13:06:40Z</time>
      </trkpt>
      <trkpt lat="37.30721" lon="-6.41574">
        <ele>110.1198</ele>
        <time>2021-07-13T13:07:28Z</time>
      </trkpt>
      <trkpt lat="37.30862" lon="-6.41632">
        <ele>102.5777</ele>
        <time>2021-07-13T13:07:39Z</time>
      </trkpt>
      <trkpt lat="37.31041" lon="-6.417">
        <ele>90.94763</ele>
        <time>2021-07-13T13:07:50Z</time>
      </trkpt>
      <trkpt lat="37.31176" lon="-6.41755">
        <ele>81.31075</ele>
        <time>2021-07-13T13:08:01Z</time>
      </trkpt>
      <trkpt lat="37.31352" lon="-6.4182">
        <ele>101.5527</ele>
        <time>2021-07-13T13:08:12Z</time>
      </trkpt>
      <trkpt lat="37.31519" lon="-6.41886">
        <ele>99.54812</ele>
        <time>2021-07-13T13:08:23Z</time>
      </trkpt>
      <trkpt lat="37.31675" lon="-6.41942">
        <ele>96.48056</ele>
        <time>2021-07-13T13:08:34Z</time>
      </trkpt>
      <trkpt lat="37.31823" lon="-6.41999">
        <ele>96.74308</ele>
        <time>2021-07-13T13:08:45Z</time>
      </trkpt>
      <trkpt lat="37.31944" lon="-6.4201">
        <ele>82.38373</ele>
        <time>2021-07-13T13:08:56Z</time>
      </trkpt>
      <trkpt lat="37.32059" lon="-6.41915">
        <ele>88.47929</ele>
        <time>2021-07-13T13:09:07Z</time>
      </trkpt>
      <trkpt lat="37.32077" lon="-6.41852">
        <ele>89.73987</ele>
        <time>2021-07-13T13:09:18Z</time>
      </trkpt>
      <trkpt lat="37.32111" lon="-6.41907">
        <ele>89.95298</ele>
        <time>2021-07-13T13:09:29Z</time>
      </trkpt>
      <trkpt lat="37.32222" lon="-6.42084">
        <ele>89.00147</ele>
        <time>2021-07-13T13:09:40Z</time>
      </trkpt>
      <trkpt lat="37.32345" lon="-6.42244">
        <ele>91.89405</ele>
        <time>2021-07-13T13:09:51Z</time>
      </trkpt>
      <trkpt lat="37.32413" lon="-6.42417">
        <ele>89.15668</ele>
        <time>2021-07-13T13:10:02Z</time>
      </trkpt>
      <trkpt lat="37.32507" lon="-6.42574">
        <ele>91.48766</ele>
        <time>2021-07-13T13:10:13Z</time>
      </trkpt>
      <trkpt lat="37.32601" lon="-6.42671">
        <ele>93.16163</ele>
        <time>2021-07-13T13:10:24Z</time>
      </trkpt>
      <trkpt lat="37.32713" lon="-6.42561">
        <ele>98.52762</ele>
        <time>2021-07-13T13:10:35Z</time>
      </trkpt>
      <trkpt lat="37.3286" lon="-6.42427">
        <ele>103.9227</ele>
        <time>2021-07-13T13:10:46Z</time>
      </trkpt>
      <trkpt lat="37.33064" lon="-6.4229">
        <ele>107.9736</ele>
        <time>2021-07-13T13:10:57Z</time>
      </trkpt>
      <trkpt lat="37.33161" lon="-6.42222">
        <ele>109.7749</ele>
        <time>2021-07-13T13:11:08Z</time>
      </trkpt>
      <trkpt lat="37.3332" lon="-6.42169">
        <ele>109.9804</ele>
        <time>2021-07-13T13:11:19Z</time>
      </trkpt>
      <trkpt lat="37.33435" lon="-6.4209">
        <ele>113.34</ele>
        <time>2021-07-13T13:11:30Z</time>
      </trkpt>
      <trkpt lat="37.33568" lon="-6.41968">
        <ele>122.5186</ele>
        <time>2021-07-13T13:11:41Z</time>
      </trkpt>
      <trkpt lat="37.33756" lon="-6.41838">
        <ele>129.9351</ele>
        <time>2021-07-13T13:11:52Z</time>
      </trkpt>
      <trkpt lat="37.33945" lon="-6.4172">
        <ele>137.0088</ele>
        <time>2021-07-13T13:12:03Z</time>
      </trkpt>
      <trkpt lat="37.34113" lon="-6.41618">
        <ele>138.195</ele>
        <time>2021-07-13T13:12:14Z</time>
      </trkpt>
      <trkpt lat="37.34292" lon="-6.41484">
        <ele>137.4946</ele>
        <time>2021-07-13T13:12:25Z</time>
      </trkpt>
      <trkpt lat="37.34439" lon="-6.41337">
        <ele>133.907</ele>
        <time>2021-07-13T13:12:36Z</time>
      </trkpt>
      <trkpt lat="37.34601" lon="-6.41152">
        <ele>128.519</ele>
        <time>2021-07-13T13:12:47Z</time>
      </trkpt>
      <trkpt lat="37.34759" lon="-6.4097">
        <ele>119.3902</ele>
        <time>2021-07-13T13:12:58Z</time>
      </trkpt>
      <trkpt lat="37.34926" lon="-6.40782">
        <ele>111.2106</ele>
        <time>2021-07-13T13:13:09Z</time>
      </trkpt>
      <trkpt lat="37.35017" lon="-6.40615">
        <ele>105.0833</ele>
        <time>2021-07-13T13:13:20Z</time>
      </trkpt>
      <trkpt lat="37.35083" lon="-6.40454">
        <ele>106.4465</ele>
        <time>2021-07-13T13:13:31Z</time>
      </trkpt>
      <trkpt lat="37.35191" lon="-6.40339">
        <ele>107.5053</ele>
        <time>2021-07-13T13:13:42Z</time>
      </trkpt>
      <trkpt lat="37.35214" lon="-6.40294">
        <ele>111.6866</ele>
        <time>2021-07-13T13:13:53Z</time>
      </trkpt>
      <trkpt lat="37.3519" lon="-6.40227">
        <ele>107.3036</ele>
        <time>2021-07-13T13:14:04Z</time>
      </trkpt>
      <trkpt lat="37.35267" lon="-6.40181">
        <ele>114.5425</ele>
        <time>2021-07-13T13:14:15Z</time>
      </trkpt>
      <trkpt lat="37.35341" lon="-6.40163">
        <ele>113.0425</ele>
        <time>2021-07-13T13:14:26Z</time>
      </trkpt>
      <trkpt lat="37.35451" lon="-6.40093">
        <ele>111.9888</ele>
        <time>2021-07-13T13:14:37Z</time>
      </trkpt>
      <trkpt lat="37.35565" lon="-6.39965">
        <ele>123.9112</ele>
        <time>2021-07-13T13:14:48Z</time>
      </trkpt>
      <trkpt lat="37.3567" lon="-6.39798">
        <ele>136.7699</ele>
        <time>2021-07-13T13:14:59Z</time>
      </trkpt>
      <trkpt lat="37.35806" lon="-6.39657">
        <ele>147.6428</ele>
        <time>2021-07-13T13:15:10Z</time>
      </trkpt>
      <trkpt lat="37.35807" lon="-6.39574">
        <ele>151.1246</ele>
        <time>2021-07-13T13:15:21Z</time>
      </trkpt>
      <trkpt lat="37.35763" lon="-6.39434">
        <ele>148.4886</ele>
        <time>2021-07-13T13:15:32Z</time>
      </trkpt>
      <trkpt lat="37.35851" lon="-6.39335">
        <ele>139.5221</ele>
        <time>2021-07-13T13:15:43Z</time>
      </trkpt>
      <trkpt lat="37.35907" lon="-6.39287">
        <ele>137.3768</ele>
        <time>2021-07-13T13:15:54Z</time>
      </trkpt>
      <trkpt lat="37.36004" lon="-6.39282">
        <ele>144.2185</ele>
        <time>2021-07-13T13:16:05Z</time>
      </trkpt>
      <trkpt lat="37.36086" lon="-6.39266">
        <ele>142.191</ele>
        <time>2021-07-13T13:16:16Z</time>
      </trkpt>
      <trkpt lat="37.36159" lon="-6.39198">
        <ele>143.7521</ele>
        <time>2021-07-13T13:16:27Z</time>
      </trkpt>
      <trkpt lat="37.3621" lon="-6.39152">
        <ele>144.7463</ele>
        <time>2021-07-13T13:16:38Z</time>
      </trkpt>
      <trkpt lat="37.36266" lon="-6.391">
        <ele>150.3193</ele>
        <time>2021-07-13T13:16:49Z</time>
      </trkpt>
      <trkpt lat="37.36284" lon="-6.39054">
        <ele>150.6376</ele>
        <time>2021-07-13T13:17:00Z</time>
      </trkpt>
      <trkpt lat="37.36284" lon="-6.39049">
        <ele>158.8129</ele>
        <time>2021-07-13T13:17:12Z</time>
      </trkpt>
      <trkpt lat="37.36292" lon="-6.38911">
        <ele>153.0596</ele>
        <time>2021-07-13T13:17:23Z</time>
      </trkpt>
      <trkpt lat="37.36203" lon="-6.38743">
        <ele>149.0241</ele>
        <time>2021-07-13T13:17:34Z</time>
      </trkpt>
      <trkpt lat="37.3614" lon="-6.38572">
        <ele>144.7695</ele>
        <time>2021-07-13T13:17:45Z</time>
      </trkpt>
      <trkpt lat="37.36037" lon="-6.38396">
        <ele>142.9286</ele>
        <time>2021-07-13T13:17:56Z</time>
      </trkpt>
      <trkpt lat="37.35941" lon="-6.38216">
        <ele>140.9644</ele>
        <time>2021-07-13T13:18:07Z</time>
      </trkpt>
      <trkpt lat="37.35822" lon="-6.3804">
        <ele>135.2629</ele>
        <time>2021-07-13T13:18:18Z</time>
      </trkpt>
      <trkpt lat="37.35735" lon="-6.37903">
        <ele>134.8878</ele>
        <time>2021-07-13T13:18:29Z</time>
      </trkpt>
      <trkpt lat="37.35634" lon="-6.37799">
        <ele>134.7975</ele>
        <time>2021-07-13T13:18:40Z</time>
      </trkpt>
      <trkpt lat="37.35587" lon="-6.37685">
        <ele>137.2941</ele>
        <time>2021-07-13T13:18:51Z</time>
      </trkpt>
      <trkpt lat="37.35548" lon="-6.3753">
        <ele>139.1414</ele>
        <time>2021-07-13T13:19:02Z</time>
      </trkpt>
      <trkpt lat="37.35495" lon="-6.37344">
        <ele>136.177</ele>
        <time>2021-07-13T13:19:13Z</time>
      </trkpt>
      <trkpt lat="37.35411" lon="-6.37174">
        <ele>133.7795</ele>
        <time>2021-07-13T13:19:24Z</time>
      </trkpt>
      <trkpt lat="37.35339" lon="-6.37145">
        <ele>138.2426</ele>
        <time>2021-07-13T13:19:35Z</time>
      </trkpt>
      <trkpt lat="37.3531" lon="-6.37056">
        <ele>133.6928</ele>
        <time>2021-07-13T13:19:46Z</time>
      </trkpt>
      <trkpt lat="37.35321" lon="-6.3696">
        <ele>137.2997</ele>
        <time>2021-07-13T13:19:57Z</time>
      </trkpt>
      <trkpt lat="37.35276" lon="-6.36911">
        <ele>135.8657</ele>
        <time>2021-07-13T13:20:08Z</time>
      </trkpt>
      <trkpt lat="37.35236" lon="-6.36847">
        <ele>138.83</ele>
        <time>2021-07-13T13:20:19Z</time>
      </trkpt>
      <trkpt lat="37.3515" lon="-6.36751">
        <ele>138.1032</ele>
        <time>2021-07-13T13:20:30Z</time>
      </trkpt>
      <trkpt lat="37.35068" lon="-6.36635">
        <ele>135.8712</ele>
        <time>2021-07-13T13:20:41Z</time>
      </trkpt>
      <trkpt lat="37.34942" lon="-6.36434">
        <ele>136.3895</ele>
        <time>2021-07-13T13:20:52Z</time>
      </trkpt>
      <trkpt lat="37.34837" lon="-6.36273">
        <ele>131.0425</ele>
        <time>2021-07-13T13:21:03Z</time>
      </trkpt>
      <trkpt lat="37.34739" lon="-6.3612">
        <ele>115.6838</ele>
        <time>2021-07-13T13:21:14Z</time>
      </trkpt>
      <trkpt lat="37.34637" lon="-6.35957">
        <ele>100.2621</ele>
        <time>2021-07-13T13:21:25Z</time>
      </trkpt>
      <trkpt lat="37.34528" lon="-6.35817">
        <ele>102.5809</ele>
        <time>2021-07-13T13:21:36Z</time>
      </trkpt>
      <trkpt lat="37.34421" lon="-6.35687">
        <ele>118.1872</ele>
        <time>2021-07-13T13:21:47Z</time>
      </trkpt>
      <trkpt lat="37.34336" lon="-6.35585">
        <ele>116.9017</ele>
        <time>2021-07-13T13:21:58Z</time>
      </trkpt>
      <trkpt lat="37.3434" lon="-6.35589">
        <ele>132.9741</ele>
        <time>2021-07-13T13:22:09Z</time>
      </trkpt>
      <trkpt lat="37.34351" lon="-6.35596">
        <ele>148.2579</ele>
        <time>2021-07-13T13:22:20Z</time>
      </trkpt>
      <trkpt lat="37.3437" lon="-6.35625">
        <ele>146.4135</ele>
        <time>2021-07-13T13:22:31Z</time>
      </trkpt>
      <trkpt lat="37.34308" lon="-6.35704">
        <ele>142.0324</ele>
        <time>2021-07-13T13:22:42Z</time>
      </trkpt>
      <trkpt lat="37.34231" lon="-6.35804">
        <ele>133.3302</ele>
        <time>2021-07-13T13:22:53Z</time>
      </trkpt>
      <trkpt lat="37.34152" lon="-6.35907">
        <ele>118.0877</ele>
        <time>2021-07-13T13:23:04Z</time>
      </trkpt>
      <trkpt lat="37.341" lon="-6.35972">
        <ele>118.3762</ele>
        <time>2021-07-13T13:23:15Z</time>
      </trkpt>
      <trkpt lat="37.34056" lon="-6.36029">
        <ele>122.9573</ele>
        <time>2021-07-13T13:23:26Z</time>
      </trkpt>
      <trkpt lat="37.34006" lon="-6.36095">
        <ele>123.7735</ele>
        <time>2021-07-13T13:23:37Z</time>
      </trkpt>
      <trkpt lat="37.33971" lon="-6.36125">
        <ele>127.208</ele>
        <time>2021-07-13T13:23:48Z</time>
      </trkpt>
      <trkpt lat="37.33958" lon="-6.36129">
        <ele>126.4395</ele>
        <time>2021-07-13T13:23:59Z</time>
      </trkpt>
      <trkpt lat="37.33955" lon="-6.36127">
        <ele>130.8871</ele>
        <time>2021-07-13T13:24:27Z</time>
      </trkpt>
      <trkpt lat="37.33955" lon="-6.36128">
        <ele>131.9681</ele>
        <time>2021-07-13T13:25:27Z</time>
      </trkpt>
      <trkpt lat="37.33954" lon="-6.36125">
        <ele>129.1927</ele>
        <time>2021-07-13T13:26:27Z</time>
      </trkpt>
      <trkpt lat="37.33954" lon="-6.36125">
        <ele>130.5197</ele>
        <time>2021-07-13T13:27:27Z</time>
      </trkpt>
      <trkpt lat="37.33947" lon="-6.36128">
        <ele>129.9265</ele>
        <time>2021-07-13T13:27:49Z</time>
      </trkpt>
      <trkpt lat="37.33904" lon="-6.36162">
        <ele>125.5579</ele>
        <time>2021-07-13T13:28:00Z</time>
      </trkpt>
      <trkpt lat="37.33856" lon="-6.36199">
        <ele>122.3157</ele>
        <time>2021-07-13T13:28:11Z</time>
      </trkpt>
      <trkpt lat="37.3379" lon="-6.36231">
        <ele>123.3527</ele>
        <time>2021-07-13T13:28:22Z</time>
      </trkpt>
      <trkpt lat="37.3372" lon="-6.36285">
        <ele>119.4161</ele>
        <time>2021-07-13T13:28:33Z</time>
      </trkpt>
      <trkpt lat="37.33656" lon="-6.36331">
        <ele>113.5793</ele>
        <time>2021-07-13T13:28:44Z</time>
      </trkpt>
      <trkpt lat="37.33568" lon="-6.36391">
        <ele>117.2077</ele>
        <time>2021-07-13T13:28:55Z</time>
      </trkpt>
      <trkpt lat="37.33487" lon="-6.36487">
        <ele>114.2554</ele>
        <time>2021-07-13T13:29:06Z</time>
      </trkpt>
      <trkpt lat="37.33423" lon="-6.36565">
        <ele>112.7263</ele>
        <time>2021-07-13T13:29:17Z</time>
      </trkpt>
      <trkpt lat="37.33357" lon="-6.36647">
        <ele>114.811</ele>
        <time>2021-07-13T13:29:28Z</time>
      </trkpt>
      <trkpt lat="37.33308" lon="-6.36706">
        <ele>112.7448</ele>
        <time>2021-07-13T13:29:39Z</time>
      </trkpt>
      <trkpt lat="37.33247" lon="-6.36632">
        <ele>118.192</ele>
        <time>2021-07-13T13:29:50Z</time>
      </trkpt>
      <trkpt lat="37.33178" lon="-6.3654">
        <ele>113.646</ele>
        <time>2021-07-13T13:30:01Z</time>
      </trkpt>
      <trkpt lat="37.33106" lon="-6.36438">
        <ele>101.9281</ele>
        <time>2021-07-13T13:30:12Z</time>
      </trkpt>
      <trkpt lat="37.33027" lon="-6.36332">
        <ele>91.66311</ele>
        <time>2021-07-13T13:30:23Z</time>
      </trkpt>
      <trkpt lat="37.32951" lon="-6.36235">
        <ele>94.63874</ele>
        <time>2021-07-13T13:30:34Z</time>
      </trkpt>
      <trkpt lat="37.32875" lon="-6.36137">
        <ele>93.41929</ele>
        <time>2021-07-13T13:30:45Z</time>
      </trkpt>
      <trkpt lat="37.32805" lon="-6.36044">
        <ele>100.4267</ele>
        <time>2021-07-13T13:30:56Z</time>
      </trkpt>
      <trkpt lat="37.32736" lon="-6.35954">
        <ele>85.87383</ele>
        <time>2021-07-13T13:31:07Z</time>
      </trkpt>
      <trkpt lat="37.3268" lon="-6.35874">
        <ele>77.25368</ele>
        <time>2021-07-13T13:31:18Z</time>
      </trkpt>
      <trkpt lat="37.32601" lon="-6.35767">
        <ele>87.66954</ele>
        <time>2021-07-13T13:31:29Z</time>
      </trkpt>
      <trkpt lat="37.32516" lon="-6.35651">
        <ele>97.54012</ele>
        <time>2021-07-13T13:31:40Z</time>
      </trkpt>
      <trkpt lat="37.32431" lon="-6.35542">
        <ele>91.62676</ele>
        <time>2021-07-13T13:31:51Z</time>
      </trkpt>
      <trkpt lat="37.32345" lon="-6.35429">
        <ele>85.87722</ele>
        <time>2021-07-13T13:32:02Z</time>
      </trkpt>
      <trkpt lat="37.32258" lon="-6.35313">
        <ele>80.03808</ele>
        <time>2021-07-13T13:32:13Z</time>
      </trkpt>
      <trkpt lat="37.32211" lon="-6.35239">
        <ele>81.40936</ele>
        <time>2021-07-13T13:32:24Z</time>
      </trkpt>
      <trkpt lat="37.32133" lon="-6.35134">
        <ele>78.35305</ele>
        <time>2021-07-13T13:32:35Z</time>
      </trkpt>
      <trkpt lat="37.32073" lon="-6.35048">
        <ele>78.61426</ele>
        <time>2021-07-13T13:32:46Z</time>
      </trkpt>
      <trkpt lat="37.3199" lon="-6.34935">
        <ele>72.27083</ele>
        <time>2021-07-13T13:32:57Z</time>
      </trkpt>
      <trkpt lat="37.31917" lon="-6.34844">
        <ele>74.95288</ele>
        <time>2021-07-13T13:33:08Z</time>
      </trkpt>
      <trkpt lat="37.31863" lon="-6.34764">
        <ele>81.56978</ele>
        <time>2021-07-13T13:33:19Z</time>
      </trkpt>
      <trkpt lat="37.31845" lon="-6.34626">
        <ele>77.83177</ele>
        <time>2021-07-13T13:33:30Z</time>
      </trkpt>
      <trkpt lat="37.31808" lon="-6.3452">
        <ele>67.12056</ele>
        <time>2021-07-13T13:33:41Z</time>
      </trkpt>
      <trkpt lat="37.31759" lon="-6.34392">
        <ele>80.37369</ele>
        <time>2021-07-13T13:33:52Z</time>
      </trkpt>
      <trkpt lat="37.31721" lon="-6.3425">
        <ele>81.79227</ele>
        <time>2021-07-13T13:34:03Z</time>
      </trkpt>
      <trkpt lat="37.31669" lon="-6.3408">
        <ele>79.15815</ele>
        <time>2021-07-13T13:34:14Z</time>
      </trkpt>
      <trkpt lat="37.31641" lon="-6.33938">
        <ele>76.18849</ele>
        <time>2021-07-13T13:34:25Z</time>
      </trkpt>
      <trkpt lat="37.31615" lon="-6.33757">
        <ele>78.08104</ele>
        <time>2021-07-13T13:34:36Z</time>
      </trkpt>
      <trkpt lat="37.31561" lon="-6.33596">
        <ele>83.93385</ele>
        <time>2021-07-13T13:34:47Z</time>
      </trkpt>
      <trkpt lat="37.31501" lon="-6.33441">
        <ele>88.65504</ele>
        <time>2021-07-13T13:34:58Z</time>
      </trkpt>
      <trkpt lat="37.31444" lon="-6.33269">
        <ele>89.91246</ele>
        <time>2021-07-13T13:35:09Z</time>
      </trkpt>
      <trkpt lat="37.31389" lon="-6.33107">
        <ele>93.04336</ele>
        <time>2021-07-13T13:35:20Z</time>
      </trkpt>
      <trkpt lat="37.31329" lon="-6.32944">
        <ele>88.49039</ele>
        <time>2021-07-13T13:35:31Z</time>
      </trkpt>
      <trkpt lat="37.31276" lon="-6.3279">
        <ele>92.84856</ele>
        <time>2021-07-13T13:35:42Z</time>
      </trkpt>
      <trkpt lat="37.31221" lon="-6.32716">
        <ele>90.00358</ele>
        <time>2021-07-13T13:35:53Z</time>
      </trkpt>
      <trkpt lat="37.31227" lon="-6.32651">
        <ele>88.03888</ele>
        <time>2021-07-13T13:36:04Z</time>
      </trkpt>
      <trkpt lat="37.31227" lon="-6.32645">
        <ele>88.72264</ele>
        <time>2021-07-13T13:36:17Z</time>
      </trkpt>
      <trkpt lat="37.31227" lon="-6.32653">
        <ele>88.76046</ele>
        <time>2021-07-13T13:36:28Z</time>
      </trkpt>
      <trkpt lat="37.31236" lon="-6.32737">
        <ele>88.72953</ele>
        <time>2021-07-13T13:36:39Z</time>
      </trkpt>
      <trkpt lat="37.31228" lon="-6.32753">
        <ele>89.10745</ele>
        <time>2021-07-13T13:36:50Z</time>
      </trkpt>
      <trkpt lat="37.31217" lon="-6.32838">
        <ele>87.14722</ele>
        <time>2021-07-13T13:37:01Z</time>
      </trkpt>
      <trkpt lat="37.3121" lon="-6.32873">
        <ele>89.29676</ele>
        <time>2021-07-13T13:37:12Z</time>
      </trkpt>
      <trkpt lat="37.31228" lon="-6.32774">
        <ele>90.54463</ele>
        <time>2021-07-13T13:37:23Z</time>
      </trkpt>
      <trkpt lat="37.31189" lon="-6.32763">
        <ele>89.27847</ele>
        <time>2021-07-13T13:37:34Z</time>
      </trkpt>
      <trkpt lat="37.31173" lon="-6.32765">
        <ele>88.08272</ele>
        <time>2021-07-13T13:37:45Z</time>
      </trkpt>
      <trkpt lat="37.31152" lon="-6.32767">
        <ele>86.99774</ele>
        <time>2021-07-13T13:37:56Z</time>
      </trkpt>
      <trkpt lat="37.31026" lon="-6.32788">
        <ele>83.68791</ele>
        <time>2021-07-13T13:38:07Z</time>
      </trkpt>
      <trkpt lat="37.30903" lon="-6.32793">
        <ele>83.2857</ele>
        <time>2021-07-13T13:38:18Z</time>
      </trkpt>
      <trkpt lat="37.30803" lon="-6.32781">
        <ele>83.39075</ele>
        <time>2021-07-13T13:38:29Z</time>
      </trkpt>
      <trkpt lat="37.30697" lon="-6.32766">
        <ele>82.91117</ele>
        <time>2021-07-13T13:38:40Z</time>
      </trkpt>
      <trkpt lat="37.3059" lon="-6.32753">
        <ele>80.68075</ele>
        <time>2021-07-13T13:38:51Z</time>
      </trkpt>
      <trkpt lat="37.3048" lon="-6.32742">
        <ele>76.35802</ele>
        <time>2021-07-13T13:39:02Z</time>
      </trkpt>
      <trkpt lat="37.30394" lon="-6.32732">
        <ele>77.92737</ele>
        <time>2021-07-13T13:39:13Z</time>
      </trkpt>
      <trkpt lat="37.30391" lon="-6.32731">
        <ele>77.06347</ele>
        <time>2021-07-13T13:39:28Z</time>
      </trkpt>
      <trkpt lat="37.30416" lon="-6.32537">
        <ele>79.23699</ele>
        <time>2021-07-13T13:39:39Z</time>
      </trkpt>
      <trkpt lat="37.30356" lon="-6.32242">
        <ele>83.99448</ele>
        <time>2021-07-13T13:39:50Z</time>
      </trkpt>
      <trkpt lat="37.30336" lon="-6.31956">
        <ele>83.50383</ele>
        <time>2021-07-13T13:40:01Z</time>
      </trkpt>
      <trkpt lat="37.30271" lon="-6.31741">
        <ele>82.61052</ele>
        <time>2021-07-13T13:40:12Z</time>
      </trkpt>
      <trkpt lat="37.30146" lon="-6.31509">
        <ele>79.97317</ele>
        <time>2021-07-13T13:40:23Z</time>
      </trkpt>
      <trkpt lat="37.30055" lon="-6.31266">
        <ele>77.3174</ele>
        <time>2021-07-13T13:40:34Z</time>
      </trkpt>
      <trkpt lat="37.29924" lon="-6.3106">
        <ele>71.84578</ele>
        <time>2021-07-13T13:40:45Z</time>
      </trkpt>
      <trkpt lat="37.29754" lon="-6.30906">
        <ele>71.39826</ele>
        <time>2021-07-13T13:40:56Z</time>
      </trkpt>
      <trkpt lat="37.29589" lon="-6.30774">
        <ele>70.35891</ele>
        <time>2021-07-13T13:41:07Z</time>
      </trkpt>
      <trkpt lat="37.29521" lon="-6.30801">
        <ele>75.17904</ele>
        <time>2021-07-13T13:41:18Z</time>
      </trkpt>
      <trkpt lat="37.29458" lon="-6.30872">
        <ele>76.06856</ele>
        <time>2021-07-13T13:41:29Z</time>
      </trkpt>
      <trkpt lat="37.29457" lon="-6.30867">
        <ele>78.03467</ele>
        <time>2021-07-13T13:41:54Z</time>
      </trkpt>
      <trkpt lat="37.29455" lon="-6.30867">
        <ele>76.20014</ele>
        <time>2021-07-13T13:42:53Z</time>
      </trkpt>
      <trkpt lat="37.29456" lon="-6.30862">
        <ele>76.76039</ele>
        <time>2021-07-13T13:43:35Z</time>
      </trkpt>
      <trkpt lat="37.29522" lon="-6.30791">
        <ele>75.975</ele>
        <time>2021-07-13T13:43:46Z</time>
      </trkpt>
      <trkpt lat="37.29561" lon="-6.30741">
        <ele>72.80819</ele>
        <time>2021-07-13T13:43:57Z</time>
      </trkpt>
      <trkpt lat="37.29503" lon="-6.30662">
        <ele>75.06068</ele>
        <time>2021-07-13T13:44:08Z</time>
      </trkpt>
      <trkpt lat="37.29419" lon="-6.30468">
        <ele>72.24276</ele>
        <time>2021-07-13T13:44:19Z</time>
      </trkpt>
      <trkpt lat="37.29385" lon="-6.3024">
        <ele>63.91444</ele>
        <time>2021-07-13T13:44:30Z</time>
      </trkpt>
      <trkpt lat="37.29401" lon="-6.30006">
        <ele>62.93418</ele>
        <time>2021-07-13T13:44:41Z</time>
      </trkpt>
      <trkpt lat="37.29437" lon="-6.29755">
        <ele>61.12421</ele>
        <time>2021-07-13T13:44:52Z</time>
      </trkpt>
      <trkpt lat="37.29475" lon="-6.29492">
        <ele>49.35095</ele>
        <time>2021-07-13T13:45:03Z</time>
      </trkpt>
      <trkpt lat="37.29552" lon="-6.29271">
        <ele>43.12125</ele>
        <time>2021-07-13T13:45:14Z</time>
      </trkpt>
      <trkpt lat="37.29687" lon="-6.29104">
        <ele>38.48949</ele>
        <time>2021-07-13T13:45:25Z</time>
      </trkpt>
      <trkpt lat="37.29833" lon="-6.28949">
        <ele>35.52405</ele>
        <time>2021-07-13T13:45:36Z</time>
      </trkpt>
      <trkpt lat="37.29953" lon="-6.2875">
        <ele>33.5515</ele>
        <time>2021-07-13T13:45:47Z</time>
      </trkpt>
      <trkpt lat="37.30133" lon="-6.28613">
        <ele>25.95325</ele>
        <time>2021-07-13T13:45:58Z</time>
      </trkpt>
      <trkpt lat="37.30365" lon="-6.2857">
        <ele>33.29491</ele>
        <time>2021-07-13T13:46:09Z</time>
      </trkpt>
      <trkpt lat="37.30455" lon="-6.28342">
        <ele>45.75556</ele>
        <time>2021-07-13T13:46:20Z</time>
      </trkpt>
      <trkpt lat="37.30476" lon="-6.28077">
        <ele>48.28108</ele>
        <time>2021-07-13T13:46:31Z</time>
      </trkpt>
      <trkpt lat="37.30499" lon="-6.2781">
        <ele>44.36669</ele>
        <time>2021-07-13T13:46:42Z</time>
      </trkpt>
      <trkpt lat="37.30516" lon="-6.27536">
        <ele>37.29304</ele>
        <time>2021-07-13T13:46:53Z</time>
      </trkpt>
      <trkpt lat="37.30515" lon="-6.27269">
        <ele>30.06347</ele>
        <time>2021-07-13T13:47:04Z</time>
      </trkpt>
      <trkpt lat="37.30488" lon="-6.27002">
        <ele>22.45413</ele>
        <time>2021-07-13T13:47:15Z</time>
      </trkpt>
      <trkpt lat="37.30475" lon="-6.2673">
        <ele>20.4602</ele>
        <time>2021-07-13T13:47:26Z</time>
      </trkpt>
      <trkpt lat="37.30461" lon="-6.2646">
        <ele>17.42512</ele>
        <time>2021-07-13T13:47:37Z</time>
      </trkpt>
      <trkpt lat="37.30399" lon="-6.26198">
        <ele>14.26746</ele>
        <time>2021-07-13T13:47:48Z</time>
      </trkpt>
      <trkpt lat="37.30284" lon="-6.25966">
        <ele>13.46662</ele>
        <time>2021-07-13T13:47:59Z</time>
      </trkpt>
      <trkpt lat="37.30133" lon="-6.25783">
        <ele>23.26027</ele>
        <time>2021-07-13T13:48:10Z</time>
      </trkpt>
      <trkpt lat="37.29929" lon="-6.2572">
        <ele>38.05749</ele>
        <time>2021-07-13T13:48:21Z</time>
      </trkpt>
      <trkpt lat="37.2975" lon="-6.25591">
        <ele>47.15359</ele>
        <time>2021-07-13T13:48:32Z</time>
      </trkpt>
      <trkpt lat="37.29707" lon="-6.2533">
        <ele>49.60654</ele>
        <time>2021-07-13T13:48:43Z</time>
      </trkpt>
      <trkpt lat="37.29745" lon="-6.25064">
        <ele>53.51117</ele>
        <time>2021-07-13T13:48:54Z</time>
      </trkpt>
      <trkpt lat="37.29856" lon="-6.24868">
        <ele>49.6523</ele>
        <time>2021-07-13T13:49:05Z</time>
      </trkpt>
      <trkpt lat="37.29955" lon="-6.24738">
        <ele>48.87547</ele>
        <time>2021-07-13T13:49:16Z</time>
      </trkpt>
      <trkpt lat="37.30097" lon="-6.24552">
        <ele>52.38504</ele>
        <time>2021-07-13T13:49:27Z</time>
      </trkpt>
      <trkpt lat="37.3027" lon="-6.24428">
        <ele>54.34138</ele>
        <time>2021-07-13T13:49:38Z</time>
      </trkpt>
      <trkpt lat="37.30471" lon="-6.24406">
        <ele>58.73355</ele>
        <time>2021-07-13T13:49:49Z</time>
      </trkpt>
      <trkpt lat="37.30617" lon="-6.2436">
        <ele>58.9305</ele>
        <time>2021-07-13T13:50:00Z</time>
      </trkpt>
      <trkpt lat="37.30686" lon="-6.24156">
        <ele>60.12232</ele>
        <time>2021-07-13T13:50:11Z</time>
      </trkpt>
      <trkpt lat="37.30735" lon="-6.23917">
        <ele>65.17723</ele>
        <time>2021-07-13T13:50:22Z</time>
      </trkpt>
      <trkpt lat="37.30786" lon="-6.2365">
        <ele>73.05283</ele>
        <time>2021-07-13T13:50:33Z</time>
      </trkpt>
      <trkpt lat="37.30815" lon="-6.23368">
        <ele>74.92235</ele>
        <time>2021-07-13T13:50:44Z</time>
      </trkpt>
      <trkpt lat="37.30782" lon="-6.23094">
        <ele>74.40554</ele>
        <time>2021-07-13T13:50:55Z</time>
      </trkpt>
      <trkpt lat="37.3079" lon="-6.22827">
        <ele>77.17524</ele>
        <time>2021-07-13T13:51:06Z</time>
      </trkpt>
      <trkpt lat="37.30825" lon="-6.22581">
        <ele>75.23342</ele>
        <time>2021-07-13T13:51:17Z</time>
      </trkpt>
      <trkpt lat="37.3086" lon="-6.2234">
        <ele>75.94373</ele>
        <time>2021-07-13T13:51:28Z</time>
      </trkpt>
      <trkpt lat="37.30863" lon="-6.22088">
        <ele>78.98629</ele>
        <time>2021-07-13T13:51:39Z</time>
      </trkpt>
      <trkpt lat="37.30854" lon="-6.21823">
        <ele>75.24007</ele>
        <time>2021-07-13T13:51:50Z</time>
      </trkpt>
      <trkpt lat="37.30885" lon="-6.21557">
        <ele>72.69752</ele>
        <time>2021-07-13T13:52:01Z</time>
      </trkpt>
      <trkpt lat="37.30949" lon="-6.21297">
        <ele>66.72295</ele>
        <time>2021-07-13T13:52:12Z</time>
      </trkpt>
      <trkpt lat="37.30959" lon="-6.21043">
        <ele>67.84426</ele>
        <time>2021-07-13T13:52:23Z</time>
      </trkpt>
      <trkpt lat="37.30974" lon="-6.20783">
        <ele>68.14234</ele>
        <time>2021-07-13T13:52:34Z</time>
      </trkpt>
      <trkpt lat="37.31" lon="-6.2052">
        <ele>67.69318</ele>
        <time>2021-07-13T13:52:45Z</time>
      </trkpt>
      <trkpt lat="37.31084" lon="-6.20246">
        <ele>67.52875</ele>
        <time>2021-07-13T13:52:56Z</time>
      </trkpt>
      <trkpt lat="37.31167" lon="-6.19967">
        <ele>67.93342</ele>
        <time>2021-07-13T13:53:07Z</time>
      </trkpt>
      <trkpt lat="37.31252" lon="-6.19684">
        <ele>64.9137</ele>
        <time>2021-07-13T13:53:18Z</time>
      </trkpt>
      <trkpt lat="37.31341" lon="-6.194">
        <ele>64.92725</ele>
        <time>2021-07-13T13:53:29Z</time>
      </trkpt>
      <trkpt lat="37.31412" lon="-6.19099">
        <ele>65.80754</ele>
        <time>2021-07-13T13:53:40Z</time>
      </trkpt>
      <trkpt lat="37.31462" lon="-6.18789">
        <ele>69.16665</ele>
        <time>2021-07-13T13:53:51Z</time>
      </trkpt>
      <trkpt lat="37.31472" lon="-6.18479">
        <ele>68.26304</ele>
        <time>2021-07-13T13:54:02Z</time>
      </trkpt>
      <trkpt lat="37.31489" lon="-6.18165">
        <ele>64.51355</ele>
        <time>2021-07-13T13:54:13Z</time>
      </trkpt>
      <trkpt lat="37.31551" lon="-6.17842">
        <ele>61.02325</ele>
        <time>2021-07-13T13:54:24Z</time>
      </trkpt>
      <trkpt lat="37.31591" lon="-6.17526">
        <ele>65.41751</ele>
        <time>2021-07-13T13:54:35Z</time>
      </trkpt>
      <trkpt lat="37.31584" lon="-6.17224">
        <ele>71.77917</ele>
        <time>2021-07-13T13:54:46Z</time>
      </trkpt>
      <trkpt lat="37.31624" lon="-6.1696">
        <ele>72.81172</ele>
        <time>2021-07-13T13:54:57Z</time>
      </trkpt>
      <trkpt lat="37.31734" lon="-6.16693">
        <ele>72.49786</ele>
        <time>2021-07-13T13:55:08Z</time>
      </trkpt>
      <trkpt lat="37.31848" lon="-6.16422">
        <ele>72.99578</ele>
        <time>2021-07-13T13:55:19Z</time>
      </trkpt>
      <trkpt lat="37.31964" lon="-6.16145">
        <ele>71.25006</ele>
        <time>2021-07-13T13:55:30Z</time>
      </trkpt>
      <trkpt lat="37.32082" lon="-6.15865">
        <ele>72.97687</ele>
        <time>2021-07-13T13:55:41Z</time>
      </trkpt>
      <trkpt lat="37.3222" lon="-6.15615">
        <ele>73.11476</ele>
        <time>2021-07-13T13:55:52Z</time>
      </trkpt>
      <trkpt lat="37.32404" lon="-6.15405">
        <ele>74.0579</ele>
        <time>2021-07-13T13:56:03Z</time>
      </trkpt>
      <trkpt lat="37.32582" lon="-6.15192">
        <ele>77.89686</ele>
        <time>2021-07-13T13:56:14Z</time>
      </trkpt>
      <trkpt lat="37.3275" lon="-6.14925">
        <ele>78.38301</ele>
        <time>2021-07-13T13:56:25Z</time>
      </trkpt>
      <trkpt lat="37.32859" lon="-6.14677">
        <ele>77.20083</ele>
        <time>2021-07-13T13:56:36Z</time>
      </trkpt>
      <trkpt lat="37.32962" lon="-6.14456">
        <ele>73.79763</ele>
        <time>2021-07-13T13:56:47Z</time>
      </trkpt>
      <trkpt lat="37.33062" lon="-6.14268">
        <ele>73.8046</ele>
        <time>2021-07-13T13:56:58Z</time>
      </trkpt>
      <trkpt lat="37.33149" lon="-6.14185">
        <ele>71.47091</ele>
        <time>2021-07-13T13:57:09Z</time>
      </trkpt>
      <trkpt lat="37.3324" lon="-6.14089">
        <ele>74.76908</ele>
        <time>2021-07-13T13:57:20Z</time>
      </trkpt>
      <trkpt lat="37.3333" lon="-6.13988">
        <ele>75.52521</ele>
        <time>2021-07-13T13:57:31Z</time>
      </trkpt>
      <trkpt lat="37.33425" lon="-6.13877">
        <ele>79.9949</ele>
        <time>2021-07-13T13:57:42Z</time>
      </trkpt>
      <trkpt lat="37.33516" lon="-6.13773">
        <ele>82.5582</ele>
        <time>2021-07-13T13:57:53Z</time>
      </trkpt>
      <trkpt lat="37.33606" lon="-6.13671">
        <ele>85.74266</ele>
        <time>2021-07-13T13:58:04Z</time>
      </trkpt>
      <trkpt lat="37.33694" lon="-6.1357">
        <ele>87.90042</ele>
        <time>2021-07-13T13:58:15Z</time>
      </trkpt>
      <trkpt lat="37.3374" lon="-6.1352">
        <ele>85.77749</ele>
        <time>2021-07-13T13:58:26Z</time>
      </trkpt>
      <trkpt lat="37.33744" lon="-6.13517">
        <ele>87.97487</ele>
        <time>2021-07-13T13:59:17Z</time>
      </trkpt>
      <trkpt lat="37.33784" lon="-6.13467">
        <ele>83.70171</ele>
        <time>2021-07-13T13:59:28Z</time>
      </trkpt>
      <trkpt lat="37.33847" lon="-6.13393">
        <ele>80.4784</ele>
        <time>2021-07-13T13:59:39Z</time>
      </trkpt>
      <trkpt lat="37.33909" lon="-6.13321">
        <ele>81.72839</ele>
        <time>2021-07-13T13:59:50Z</time>
      </trkpt>
      <trkpt lat="37.33913" lon="-6.13317">
        <ele>82.53502</ele>
        <time>2021-07-13T14:00:31Z</time>
      </trkpt>
      <trkpt lat="37.34002" lon="-6.13215">
        <ele>81.17655</ele>
        <time>2021-07-13T14:00:42Z</time>
      </trkpt>
      <trkpt lat="37.34127" lon="-6.13073">
        <ele>80.11265</ele>
        <time>2021-07-13T14:00:53Z</time>
      </trkpt>
      <trkpt lat="37.34268" lon="-6.1291">
        <ele>82.92501</ele>
        <time>2021-07-13T14:01:04Z</time>
      </trkpt>
      <trkpt lat="37.34435" lon="-6.12721">
        <ele>90.3341</ele>
        <time>2021-07-13T14:01:15Z</time>
      </trkpt>
      <trkpt lat="37.34598" lon="-6.12531">
        <ele>98.87311</ele>
        <time>2021-07-13T14:01:26Z</time>
      </trkpt>
      <trkpt lat="37.34748" lon="-6.12291">
        <ele>95.08579</ele>
        <time>2021-07-13T14:01:37Z</time>
      </trkpt>
      <trkpt lat="37.34886" lon="-6.12035">
        <ele>99.9443</ele>
        <time>2021-07-13T14:01:48Z</time>
      </trkpt>
      <trkpt lat="37.35028" lon="-6.11777">
        <ele>102.6356</ele>
        <time>2021-07-13T14:01:59Z</time>
      </trkpt>
      <trkpt lat="37.35168" lon="-6.11526">
        <ele>98.27364</ele>
        <time>2021-07-13T14:02:10Z</time>
      </trkpt>
      <trkpt lat="37.35307" lon="-6.11278">
        <ele>90.68534</ele>
        <time>2021-07-13T14:02:21Z</time>
      </trkpt>
      <trkpt lat="37.3545" lon="-6.11029">
        <ele>81.31058</ele>
        <time>2021-07-13T14:02:32Z</time>
      </trkpt>
      <trkpt lat="37.35599" lon="-6.10763">
        <ele>72.83167</ele>
        <time>2021-07-13T14:02:43Z</time>
      </trkpt>
      <trkpt lat="37.35742" lon="-6.10511">
        <ele>70.52101</ele>
        <time>2021-07-13T14:02:54Z</time>
      </trkpt>
      <trkpt lat="37.35864" lon="-6.10255">
        <ele>67.47952</ele>
        <time>2021-07-13T14:03:05Z</time>
      </trkpt>
      <trkpt lat="37.35929" lon="-6.10061">
        <ele>64.16826</ele>
        <time>2021-07-13T14:03:16Z</time>
      </trkpt>
      <trkpt lat="37.36" lon="-6.09849">
        <ele>61.03683</ele>
        <time>2021-07-13T14:03:27Z</time>
      </trkpt>
      <trkpt lat="37.36075" lon="-6.0962">
        <ele>60.71905</ele>
        <time>2021-07-13T14:03:38Z</time>
      </trkpt>
      <trkpt lat="37.36156" lon="-6.09455">
        <ele>67.6475</ele>
        <time>2021-07-13T14:03:49Z</time>
      </trkpt>
      <trkpt lat="37.36258" lon="-6.09337">
        <ele>77.2962</ele>
        <time>2021-07-13T14:04:00Z</time>
      </trkpt>
      <trkpt lat="37.36366" lon="-6.09208">
        <ele>79.625</ele>
        <time>2021-07-13T14:04:11Z</time>
      </trkpt>
      <trkpt lat="37.36436" lon="-6.09034">
        <ele>74.68381</ele>
        <time>2021-07-13T14:04:22Z</time>
      </trkpt>
      <trkpt lat="37.36506" lon="-6.08853">
        <ele>73.47814</ele>
        <time>2021-07-13T14:04:33Z</time>
      </trkpt>
      <trkpt lat="37.36556" lon="-6.0873">
        <ele>76.27751</ele>
        <time>2021-07-13T14:04:44Z</time>
      </trkpt>
      <trkpt lat="37.36583" lon="-6.08661">
        <ele>75.8101</ele>
        <time>2021-07-13T14:04:55Z</time>
      </trkpt>
      <trkpt lat="37.36603" lon="-6.08607">
        <ele>76.50203</ele>
        <time>2021-07-13T14:05:06Z</time>
      </trkpt>
      <trkpt lat="37.36639" lon="-6.08525">
        <ele>80.55384</ele>
        <time>2021-07-13T14:05:17Z</time>
      </trkpt>
      <trkpt lat="37.36689" lon="-6.08398">
        <ele>89.09348</ele>
        <time>2021-07-13T14:05:28Z</time>
      </trkpt>
      <trkpt lat="37.36737" lon="-6.08275">
        <ele>95.85658</ele>
        <time>2021-07-13T14:05:39Z</time>
      </trkpt>
      <trkpt lat="37.36754" lon="-6.08187">
        <ele>97.22921</ele>
        <time>2021-07-13T14:05:50Z</time>
      </trkpt>
      <trkpt lat="37.36801" lon="-6.08117">
        <ele>99.27825</ele>
        <time>2021-07-13T14:06:01Z</time>
      </trkpt>
      <trkpt lat="37.36841" lon="-6.08021">
        <ele>101.8733</ele>
        <time>2021-07-13T14:06:12Z</time>
      </trkpt>
      <trkpt lat="37.36874" lon="-6.0794">
        <ele>103.2075</ele>
        <time>2021-07-13T14:06:23Z</time>
      </trkpt>
      <trkpt lat="37.36884" lon="-6.07878">
        <ele>102.0035</ele>
        <time>2021-07-13T14:06:34Z</time>
      </trkpt>
      <trkpt lat="37.36999" lon="-6.07949">
        <ele>104.4056</ele>
        <time>2021-07-13T14:06:45Z</time>
      </trkpt>
      <trkpt lat="37.37136" lon="-6.08003">
        <ele>101.2562</ele>
        <time>2021-07-13T14:06:56Z</time>
      </trkpt>
      <trkpt lat="37.37214" lon="-6.08012">
        <ele>103.4439</ele>
        <time>2021-07-13T14:07:07Z</time>
      </trkpt>
      <trkpt lat="37.37356" lon="-6.08059">
        <ele>108.4004</ele>
        <time>2021-07-13T14:07:18Z</time>
      </trkpt>
      <trkpt lat="37.37447" lon="-6.08096">
        <ele>110.8381</ele>
        <time>2021-07-13T14:07:29Z</time>
      </trkpt>
      <trkpt lat="37.3757" lon="-6.08131">
        <ele>113.4232</ele>
        <time>2021-07-13T14:07:40Z</time>
      </trkpt>
      <trkpt lat="37.37695" lon="-6.08119">
        <ele>114.195</ele>
        <time>2021-07-13T14:07:51Z</time>
      </trkpt>
      <trkpt lat="37.37764" lon="-6.08085">
        <ele>111.2855</ele>
        <time>2021-07-13T14:08:02Z</time>
      </trkpt>
      <trkpt lat="37.37867" lon="-6.08177">
        <ele>107.443</ele>
        <time>2021-07-13T14:08:13Z</time>
      </trkpt>
      <trkpt lat="37.3797" lon="-6.0821">
        <ele>103.7321</ele>
        <time>2021-07-13T14:08:24Z</time>
      </trkpt>
      <trkpt lat="37.3809" lon="-6.0826">
        <ele>104.897</ele>
        <time>2021-07-13T14:08:35Z</time>
      </trkpt>
      <trkpt lat="37.38161" lon="-6.08259">
        <ele>102.8026</ele>
        <time>2021-07-13T14:08:46Z</time>
      </trkpt>
      <trkpt lat="37.38292" lon="-6.08299">
        <ele>98.68958</ele>
        <time>2021-07-13T14:08:57Z</time>
      </trkpt>
      <trkpt lat="37.38375" lon="-6.08245">
        <ele>99.92652</ele>
        <time>2021-07-13T14:09:08Z</time>
      </trkpt>
      <trkpt lat="37.38498" lon="-6.08176">
        <ele>104.9636</ele>
        <time>2021-07-13T14:09:19Z</time>
      </trkpt>
      <trkpt lat="37.38601" lon="-6.08125">
        <ele>112.276</ele>
        <time>2021-07-13T14:09:30Z</time>
      </trkpt>
      <trkpt lat="37.3862" lon="-6.0811">
        <ele>115.2307</ele>
        <time>2021-07-13T14:09:41Z</time>
      </trkpt>
      <trkpt lat="37.38649" lon="-6.08087">
        <ele>118.3488</ele>
        <time>2021-07-13T14:09:52Z</time>
      </trkpt>
      <trkpt lat="37.38747" lon="-6.0804">
        <ele>118.3911</ele>
        <time>2021-07-13T14:10:03Z</time>
      </trkpt>
      <trkpt lat="37.38779" lon="-6.08028">
        <ele>119.3644</ele>
        <time>2021-07-13T14:10:14Z</time>
      </trkpt>
      <trkpt lat="37.38825" lon="-6.08025">
        <ele>119.3079</ele>
        <time>2021-07-13T14:10:25Z</time>
      </trkpt>
      <trkpt lat="37.389" lon="-6.08022">
        <ele>114.0269</ele>
        <time>2021-07-13T14:10:36Z</time>
      </trkpt>
      <trkpt lat="37.38976" lon="-6.08016">
        <ele>112.2388</ele>
        <time>2021-07-13T14:10:47Z</time>
      </trkpt>
      <trkpt lat="37.39112" lon="-6.08013">
        <ele>111.6146</ele>
        <time>2021-07-13T14:10:58Z</time>
      </trkpt>
      <trkpt lat="37.39242" lon="-6.08008">
        <ele>113.5375</ele>
        <time>2021-07-13T14:11:09Z</time>
      </trkpt>
      <trkpt lat="37.39318" lon="-6.0803">
        <ele>112.1702</ele>
        <time>2021-07-13T14:11:20Z</time>
      </trkpt>
      <trkpt lat="37.39388" lon="-6.08051">
        <ele>112.292</ele>
        <time>2021-07-13T14:11:31Z</time>
      </trkpt>
      <trkpt lat="37.39522" lon="-6.08079">
        <ele>113.0539</ele>
        <time>2021-07-13T14:11:42Z</time>
      </trkpt>
      <trkpt lat="37.39723" lon="-6.08062">
        <ele>117.7236</ele>
        <time>2021-07-13T14:11:53Z</time>
      </trkpt>
      <trkpt lat="37.39891" lon="-6.0803">
        <ele>123.0827</ele>
        <time>2021-07-13T14:12:04Z</time>
      </trkpt>
      <trkpt lat="37.40056" lon="-6.07934">
        <ele>125.1507</ele>
        <time>2021-07-13T14:12:15Z</time>
      </trkpt>
      <trkpt lat="37.40187" lon="-6.07867">
        <ele>127.7086</ele>
        <time>2021-07-13T14:12:26Z</time>
      </trkpt>
      <trkpt lat="37.4037" lon="-6.0776">
        <ele>131.0016</ele>
        <time>2021-07-13T14:12:37Z</time>
      </trkpt>
      <trkpt lat="37.40552" lon="-6.07678">
        <ele>134.895</ele>
        <time>2021-07-13T14:12:48Z</time>
      </trkpt>
      <trkpt lat="37.40732" lon="-6.07572">
        <ele>136.373</ele>
        <time>2021-07-13T14:12:59Z</time>
      </trkpt>
      <trkpt lat="37.40859" lon="-6.07502">
        <ele>139.8785</ele>
        <time>2021-07-13T14:13:10Z</time>
      </trkpt>
      <trkpt lat="37.40969" lon="-6.07487">
        <ele>142.9123</ele>
        <time>2021-07-13T14:13:21Z</time>
      </trkpt>
      <trkpt lat="37.41111" lon="-6.075">
        <ele>147.5998</ele>
        <time>2021-07-13T14:13:32Z</time>
      </trkpt>
      <trkpt lat="37.4124" lon="-6.07585">
        <ele>146.1934</ele>
        <time>2021-07-13T14:13:43Z</time>
      </trkpt>
      <trkpt lat="37.41364" lon="-6.07625">
        <ele>144.1402</ele>
        <time>2021-07-13T14:13:54Z</time>
      </trkpt>
      <trkpt lat="37.41433" lon="-6.07618">
        <ele>146.1748</ele>
        <time>2021-07-13T14:14:05Z</time>
      </trkpt>
      <trkpt lat="37.41499" lon="-6.07606">
        <ele>146.4317</ele>
        <time>2021-07-13T14:14:16Z</time>
      </trkpt>
      <trkpt lat="37.41571" lon="-6.07591">
        <ele>148.1233</ele>
        <time>2021-07-13T14:14:27Z</time>
      </trkpt>
      <trkpt lat="37.41608" lon="-6.07585">
        <ele>157.2148</ele>
        <time>2021-07-13T14:14:38Z</time>
      </trkpt>
      <trkpt lat="37.41672" lon="-6.07592">
        <ele>158.3102</ele>
        <time>2021-07-13T14:14:49Z</time>
      </trkpt>
      <trkpt lat="37.41676" lon="-6.07593">
        <ele>165.0176</ele>
        <time>2021-07-13T14:15:00Z</time>
      </trkpt>
      <trkpt lat="37.41679" lon="-6.07591">
        <ele>169.2288</ele>
        <time>2021-07-13T14:15:13Z</time>
      </trkpt>
      <trkpt lat="37.41718" lon="-6.07594">
        <ele>170.5966</ele>
        <time>2021-07-13T14:15:24Z</time>
      </trkpt>
      <trkpt lat="37.4179" lon="-6.07585">
        <ele>156.2047</ele>
        <time>2021-07-13T14:15:35Z</time>
      </trkpt>
      <trkpt lat="37.41858" lon="-6.07552">
        <ele>152.808</ele>
        <time>2021-07-13T14:15:46Z</time>
      </trkpt>
      <trkpt lat="37.4195" lon="-6.07504">
        <ele>151.3267</ele>
        <time>2021-07-13T14:15:57Z</time>
      </trkpt>
      <trkpt lat="37.42026" lon="-6.0751">
        <ele>149.1842</ele>
        <time>2021-07-13T14:16:08Z</time>
      </trkpt>
      <trkpt lat="37.42153" lon="-6.07487">
        <ele>148.7106</ele>
        <time>2021-07-13T14:16:19Z</time>
      </trkpt>
      <trkpt lat="37.42342" lon="-6.07389">
        <ele>153.4689</ele>
        <time>2021-07-13T14:16:30Z</time>
      </trkpt>
      <trkpt lat="37.42511" lon="-6.07213">
        <ele>135.6287</ele>
        <time>2021-07-13T14:16:41Z</time>
      </trkpt>
      <trkpt lat="37.42684" lon="-6.07054">
        <ele>116.4902</ele>
        <time>2021-07-13T14:16:52Z</time>
      </trkpt>
      <trkpt lat="37.42814" lon="-6.0686">
        <ele>98.54894</ele>
        <time>2021-07-13T14:17:03Z</time>
      </trkpt>
      <trkpt lat="37.42901" lon="-6.06616">
        <ele>79.69079</ele>
        <time>2021-07-13T14:17:14Z</time>
      </trkpt>
      <trkpt lat="37.43051" lon="-6.06408">
        <ele>72.62905</ele>
        <time>2021-07-13T14:17:25Z</time>
      </trkpt>
      <trkpt lat="37.43194" lon="-6.06206">
        <ele>58.99658</ele>
        <time>2021-07-13T14:17:36Z</time>
      </trkpt>
      <trkpt lat="37.43363" lon="-6.06025">
        <ele>52.08541</ele>
        <time>2021-07-13T14:17:47Z</time>
      </trkpt>
      <trkpt lat="37.43411" lon="-6.05819">
        <ele>46.61357</ele>
        <time>2021-07-13T14:17:58Z</time>
      </trkpt>
      <trkpt lat="37.43375" lon="-6.05519">
        <ele>35.69997</ele>
        <time>2021-07-13T14:18:09Z</time>
      </trkpt>
      <trkpt lat="37.43377" lon="-6.05358">
        <ele>33.36022</ele>
        <time>2021-07-13T14:18:20Z</time>
      </trkpt>
      <trkpt lat="37.43348" lon="-6.05113">
        <ele>34.78989</ele>
        <time>2021-07-13T14:18:31Z</time>
      </trkpt>
      <trkpt lat="37.43323" lon="-6.04924">
        <ele>31.24222</ele>
        <time>2021-07-13T14:18:42Z</time>
      </trkpt>
      <trkpt lat="37.43328" lon="-6.04788">
        <ele>29.5544</ele>
        <time>2021-07-13T14:18:53Z</time>
      </trkpt>
      <trkpt lat="37.4333" lon="-6.04657">
        <ele>26.86011</ele>
        <time>2021-07-13T14:19:04Z</time>
      </trkpt>
      <trkpt lat="37.43327" lon="-6.04566">
        <ele>27.35952</ele>
        <time>2021-07-13T14:19:15Z</time>
      </trkpt>
      <trkpt lat="37.43346" lon="-6.04453">
        <ele>28.97343</ele>
        <time>2021-07-13T14:19:26Z</time>
      </trkpt>
      <trkpt lat="37.43365" lon="-6.04323">
        <ele>28.03948</ele>
        <time>2021-07-13T14:19:37Z</time>
      </trkpt>
      <trkpt lat="37.43395" lon="-6.04201">
        <ele>28.26829</ele>
        <time>2021-07-13T14:19:48Z</time>
      </trkpt>
      <trkpt lat="37.43428" lon="-6.0407">
        <ele>23.77632</ele>
        <time>2021-07-13T14:19:59Z</time>
      </trkpt>
      <trkpt lat="37.43461" lon="-6.03947">
        <ele>24.79567</ele>
        <time>2021-07-13T14:20:10Z</time>
      </trkpt>
      <trkpt lat="37.43481" lon="-6.03868">
        <ele>25.79334</ele>
        <time>2021-07-13T14:20:21Z</time>
      </trkpt>
      <trkpt lat="37.43512" lon="-6.03771">
        <ele>22.1201</ele>
        <time>2021-07-13T14:20:32Z</time>
      </trkpt>
      <trkpt lat="37.43606" lon="-6.03739">
        <ele>16.67613</ele>
        <time>2021-07-13T14:20:43Z</time>
      </trkpt>
      <trkpt lat="37.43686" lon="-6.0381">
        <ele>15.499</ele>
        <time>2021-07-13T14:20:54Z</time>
      </trkpt>
      <trkpt lat="37.43707" lon="-6.03709">
        <ele>13.26276</ele>
        <time>2021-07-13T14:21:05Z</time>
      </trkpt>
      <trkpt lat="37.43712" lon="-6.03611">
        <ele>11.64584</ele>
        <time>2021-07-13T14:21:16Z</time>
      </trkpt>
      <trkpt lat="37.43558" lon="-6.03596">
        <ele>10.39247</ele>
        <time>2021-07-13T14:21:27Z</time>
      </trkpt>
      <trkpt lat="37.43401" lon="-6.03578">
        <ele>11.10982</ele>
        <time>2021-07-13T14:21:38Z</time>
      </trkpt>
      <trkpt lat="37.43217" lon="-6.03555">
        <ele>11.10776</ele>
        <time>2021-07-13T14:21:49Z</time>
      </trkpt>
      <trkpt lat="37.43031" lon="-6.03553">
        <ele>13.33675</ele>
        <time>2021-07-13T14:22:00Z</time>
      </trkpt>
      <trkpt lat="37.42839" lon="-6.0355">
        <ele>10.66374</ele>
        <time>2021-07-13T14:22:11Z</time>
      </trkpt>
      <trkpt lat="37.42647" lon="-6.03549">
        <ele>11.95893</ele>
        <time>2021-07-13T14:22:22Z</time>
      </trkpt>
      <trkpt lat="37.42423" lon="-6.0355">
        <ele>13.79325</ele>
        <time>2021-07-13T14:22:33Z</time>
      </trkpt>
      <trkpt lat="37.42264" lon="-6.03547">
        <ele>14.19569</ele>
        <time>2021-07-13T14:22:44Z</time>
      </trkpt>
      <trkpt lat="37.42111" lon="-6.03544">
        <ele>14.45971</ele>
        <time>2021-07-13T14:22:55Z</time>
      </trkpt>
      <trkpt lat="37.41944" lon="-6.03545">
        <ele>14.40807</ele>
        <time>2021-07-13T14:23:06Z</time>
      </trkpt>
      <trkpt lat="37.41755" lon="-6.03536">
        <ele>16.22239</ele>
        <time>2021-07-13T14:23:17Z</time>
      </trkpt>
      <trkpt lat="37.41563" lon="-6.03517">
        <ele>15.76007</ele>
        <time>2021-07-13T14:23:28Z</time>
      </trkpt>
      <trkpt lat="37.41386" lon="-6.0349">
        <ele>13.62495</ele>
        <time>2021-07-13T14:23:39Z</time>
      </trkpt>
      <trkpt lat="37.4131" lon="-6.03307">
        <ele>8.944736</ele>
        <time>2021-07-13T14:23:51Z</time>
      </trkpt>
      <trkpt lat="37.41383" lon="-6.03092">
        <ele>9.829739</ele>
        <time>2021-07-13T14:24:02Z</time>
      </trkpt>
      <trkpt lat="37.41376" lon="-6.02821">
        <ele>12.49254</ele>
        <time>2021-07-13T14:24:13Z</time>
      </trkpt>
      <trkpt lat="37.41372" lon="-6.02536">
        <ele>12.57039</ele>
        <time>2021-07-13T14:24:24Z</time>
      </trkpt>
      <trkpt lat="37.41368" lon="-6.02239">
        <ele>9.980493</ele>
        <time>2021-07-13T14:24:35Z</time>
      </trkpt>
      <trkpt lat="37.41364" lon="-6.01943">
        <ele>8.473931</ele>
        <time>2021-07-13T14:24:46Z</time>
      </trkpt>
      <trkpt lat="37.41361" lon="-6.0164">
        <ele>9.367449</ele>
        <time>2021-07-13T14:24:57Z</time>
      </trkpt>
      <trkpt lat="37.41359" lon="-6.01351">
        <ele>13.22864</ele>
        <time>2021-07-13T14:25:08Z</time>
      </trkpt>
      <trkpt lat="37.41357" lon="-6.01088">
        <ele>18.43767</ele>
        <time>2021-07-13T14:25:19Z</time>
      </trkpt>
      <trkpt lat="37.41353" lon="-6.00823">
        <ele>17.04226</ele>
        <time>2021-07-13T14:25:30Z</time>
      </trkpt>
      <trkpt lat="37.4135" lon="-6.00555">
        <ele>16.46911</ele>
        <time>2021-07-13T14:25:41Z</time>
      </trkpt>
      <trkpt lat="37.41347" lon="-6.00283">
        <ele>16.23619</ele>
        <time>2021-07-13T14:25:52Z</time>
      </trkpt>
      <trkpt lat="37.41344" lon="-6.00004">
        <ele>16.38945</ele>
        <time>2021-07-13T14:26:03Z</time>
      </trkpt>
      <trkpt lat="37.41339" lon="-5.99719">
        <ele>16.2753</ele>
        <time>2021-07-13T14:26:14Z</time>
      </trkpt>
      <trkpt lat="37.41329" lon="-5.99459">
        <ele>12.9689</ele>
        <time>2021-07-13T14:26:25Z</time>
      </trkpt>
      <trkpt lat="37.41315" lon="-5.99226">
        <ele>10.32892</ele>
        <time>2021-07-13T14:26:36Z</time>
      </trkpt>
      <trkpt lat="37.41328" lon="-5.99025">
        <ele>5.439652</ele>
        <time>2021-07-13T14:26:47Z</time>
      </trkpt>
      <trkpt lat="37.41324" lon="-5.98945">
        <ele>6.366213</ele>
        <time>2021-07-13T14:26:58Z</time>
      </trkpt>
      <trkpt lat="37.41324" lon="-5.98939">
        <ele>5.53509</ele>
        <time>2021-07-13T14:27:14Z</time>
      </trkpt>
      <trkpt lat="37.41299" lon="-5.9886">
        <ele>4.156858</ele>
        <time>2021-07-13T14:27:25Z</time>
      </trkpt>
      <trkpt lat="37.41322" lon="-5.98747">
        <ele>4.772177</ele>
        <time>2021-07-13T14:27:36Z</time>
      </trkpt>
      <trkpt lat="37.41329" lon="-5.98575">
        <ele>7.497303</ele>
        <time>2021-07-13T14:27:47Z</time>
      </trkpt>
      <trkpt lat="37.41333" lon="-5.98435">
        <ele>9.405391</ele>
        <time>2021-07-13T14:27:58Z</time>
      </trkpt>
      <trkpt lat="37.41335" lon="-5.9843">
        <ele>10.84793</ele>
        <time>2021-07-13T14:28:09Z</time>
      </trkpt>
      <trkpt lat="37.41337" lon="-5.98426">
        <ele>18.43859</ele>
        <time>2021-07-13T14:28:33Z</time>
      </trkpt>
      <trkpt lat="37.41337" lon="-5.98418">
        <ele>22.89516</ele>
        <time>2021-07-13T14:29:01Z</time>
      </trkpt>
      <trkpt lat="37.41305" lon="-5.98375">
        <ele>17.04931</ele>
        <time>2021-07-13T14:29:12Z</time>
      </trkpt>
      <trkpt lat="37.41288" lon="-5.98371">
        <ele>14.82852</ele>
        <time>2021-07-13T14:29:23Z</time>
      </trkpt>
      <trkpt lat="37.41158" lon="-5.98402">
        <ele>13.77914</ele>
        <time>2021-07-13T14:29:34Z</time>
      </trkpt>
      <trkpt lat="37.41035" lon="-5.98443">
        <ele>15.07325</ele>
        <time>2021-07-13T14:29:45Z</time>
      </trkpt>
      <trkpt lat="37.41007" lon="-5.98452">
        <ele>18.20781</ele>
        <time>2021-07-13T14:29:56Z</time>
      </trkpt>
      <trkpt lat="37.41003" lon="-5.98454">
        <ele>24.33428</ele>
        <time>2021-07-13T14:30:23Z</time>
      </trkpt>
      <trkpt lat="37.40907" lon="-5.98489">
        <ele>20.4857</ele>
        <time>2021-07-13T14:30:34Z</time>
      </trkpt>
      <trkpt lat="37.40817" lon="-5.98522">
        <ele>21.26976</ele>
        <time>2021-07-13T14:30:45Z</time>
      </trkpt>
      <trkpt lat="37.40771" lon="-5.98539">
        <ele>21.7026</ele>
        <time>2021-07-13T14:30:56Z</time>
      </trkpt>
      <trkpt lat="37.40766" lon="-5.98541">
        <ele>22.63349</ele>
        <time>2021-07-13T14:31:22Z</time>
      </trkpt>
      <trkpt lat="37.40642" lon="-5.98592">
        <ele>16.17213</ele>
        <time>2021-07-13T14:31:33Z</time>
      </trkpt>
      <trkpt lat="37.40517" lon="-5.98665">
        <ele>10.07454</ele>
        <time>2021-07-13T14:31:44Z</time>
      </trkpt>
      <trkpt lat="37.40387" lon="-5.98747">
        <ele>6.72469</ele>
        <time>2021-07-13T14:31:55Z</time>
      </trkpt>
      <trkpt lat="37.40296" lon="-5.98762">
        <ele>7.760713</ele>
        <time>2021-07-13T14:32:06Z</time>
      </trkpt>
      <trkpt lat="37.40249" lon="-5.98686">
        <ele>13.07786</ele>
        <time>2021-07-13T14:32:17Z</time>
      </trkpt>
      <trkpt lat="37.4021" lon="-5.98621">
        <ele>17.44339</ele>
        <time>2021-07-13T14:32:28Z</time>
      </trkpt>
      <trkpt lat="37.40149" lon="-5.98561">
        <ele>19.1114</ele>
        <time>2021-07-13T14:32:39Z</time>
      </trkpt>
      <trkpt lat="37.40042" lon="-5.98487">
        <ele>21.3896</ele>
        <time>2021-07-13T14:32:50Z</time>
      </trkpt>
      <trkpt lat="37.3997" lon="-5.98375">
        <ele>19.5035</ele>
        <time>2021-07-13T14:33:01Z</time>
      </trkpt>
      <trkpt lat="37.39923" lon="-5.9827">
        <ele>15.21451</ele>
        <time>2021-07-13T14:33:12Z</time>
      </trkpt>
      <trkpt lat="37.39857" lon="-5.98175">
        <ele>16.34497</ele>
        <time>2021-07-13T14:33:23Z</time>
      </trkpt>
      <trkpt lat="37.39743" lon="-5.98148">
        <ele>12.77853</ele>
        <time>2021-07-13T14:33:34Z</time>
      </trkpt>
      <trkpt lat="37.39651" lon="-5.98204">
        <ele>13.70525</ele>
        <time>2021-07-13T14:33:45Z</time>
      </trkpt>
      <trkpt lat="37.39525" lon="-5.98304">
        <ele>15.6198</ele>
        <time>2021-07-13T14:33:56Z</time>
      </trkpt>
      <trkpt lat="37.39411" lon="-5.98375">
        <ele>17.76736</ele>
        <time>2021-07-13T14:34:07Z</time>
      </trkpt>
      <trkpt lat="37.39318" lon="-5.98402">
        <ele>18.19624</ele>
        <time>2021-07-13T14:34:18Z</time>
      </trkpt>
      <trkpt lat="37.3932" lon="-5.98442">
        <ele>21.19265</ele>
        <time>2021-07-13T14:34:29Z</time>
      </trkpt>
      <trkpt lat="37.39323" lon="-5.98456">
        <ele>21.28034</ele>
        <time>2021-07-13T14:34:40Z</time>
      </trkpt>
      <trkpt lat="37.39324" lon="-5.98462">
        <ele>25.68439</ele>
        <time>2021-07-13T14:35:10Z</time>
      </trkpt>
      <trkpt lat="37.39354" lon="-5.98504">
        <ele>23.13993</ele>
        <time>2021-07-13T14:35:21Z</time>
      </trkpt>
      <trkpt lat="37.39408" lon="-5.98549">
        <ele>27.65094</ele>
        <time>2021-07-13T14:35:32Z</time>
      </trkpt>
      <trkpt lat="37.3946" lon="-5.98607">
        <ele>21.36526</ele>
        <time>2021-07-13T14:35:43Z</time>
      </trkpt>
      <trkpt lat="37.39489" lon="-5.98607">
        <ele>16.17291</ele>
        <time>2021-07-13T14:35:54Z</time>
      </trkpt>
      <trkpt lat="37.39518" lon="-5.98556">
        <ele>13.34677</ele>
        <time>2021-07-13T14:36:05Z</time>
      </trkpt>
      <trkpt lat="37.39546" lon="-5.98512">
        <ele>17.15167</ele>
        <time>2021-07-13T14:36:16Z</time>
      </trkpt>
      <trkpt lat="37.39562" lon="-5.98484">
        <ele>17.64936</ele>
        <time>2021-07-13T14:36:27Z</time>
      </trkpt>
      <trkpt lat="37.39564" lon="-5.9848">
        <ele>21.69502</ele>
        <time>2021-07-13T14:36:57Z</time>
      </trkpt>
      <trkpt lat="37.39562" lon="-5.98461">
        <ele>18.79113</ele>
        <time>2021-07-13T14:37:08Z</time>
      </trkpt>
      <trkpt lat="37.39565" lon="-5.98462">
        <ele>9.035037</ele>
        <time>2021-07-13T14:37:38Z</time>
      </trkpt>
      <trkpt lat="37.39565" lon="-5.98457">
        <ele>8.249974</ele>
        <time>2021-07-13T14:37:50Z</time>
      </trkpt>
      <trkpt lat="37.39564" lon="-5.98461">
        <ele>9.221328</ele>
        <time>2021-07-13T14:38:05Z</time>
      </trkpt>
    </trkseg>
  </trk>
  <trk>
    <name><![CDATA[Road trip fait P/E_9]]></name>
    <extensions>
      <line xmlns="http://www.topografix.com/GPX/gpx_style/0/2">
        <color>880088</color>
        <width>4</width>
      </line>
    </extensions>
    <trkseg>
      <trkpt lat="37.39553" lon="-5.98466">
        <ele>8.688274</ele>
        <time>2021-07-15T07:18:41Z</time>
      </trkpt>
      <trkpt lat="37.39553" lon="-5.98466">
        <ele>8.688274</ele>
        <time>2021-07-15T07:18:41Z</time>
      </trkpt>
      <trkpt lat="37.3956" lon="-5.98471">
        <ele>9.075666</ele>
        <time>2021-07-15T07:18:52Z</time>
      </trkpt>
      <trkpt lat="37.3956" lon="-5.98478">
        <ele>7.774059</ele>
        <time>2021-07-15T07:19:04Z</time>
      </trkpt>
      <trkpt lat="37.39561" lon="-5.98468">
        <ele>8.653921</ele>
        <time>2021-07-15T07:19:15Z</time>
      </trkpt>
      <trkpt lat="37.3953" lon="-5.98449">
        <ele>8.152921</ele>
        <time>2021-07-15T07:19:26Z</time>
      </trkpt>
      <trkpt lat="37.39557" lon="-5.98466">
        <ele>8.956996</ele>
        <time>2021-07-15T07:19:37Z</time>
      </trkpt>
      <trkpt lat="37.39574" lon="-5.98475">
        <ele>8.801298</ele>
        <time>2021-07-15T07:19:48Z</time>
      </trkpt>
      <trkpt lat="37.39577" lon="-5.98473">
        <ele>9.657639</ele>
        <time>2021-07-15T07:20:05Z</time>
      </trkpt>
      <trkpt lat="37.39594" lon="-5.98436">
        <ele>7.760431</ele>
        <time>2021-07-15T07:20:16Z</time>
      </trkpt>
      <trkpt lat="37.3961" lon="-5.98407">
        <ele>7.890029</ele>
        <time>2021-07-15T07:20:27Z</time>
      </trkpt>
      <trkpt lat="37.39612" lon="-5.984">
        <ele>9.359605</ele>
        <time>2021-07-15T07:20:38Z</time>
      </trkpt>
      <trkpt lat="37.39616" lon="-5.98402">
        <ele>8.723524</ele>
        <time>2021-07-15T07:20:49Z</time>
      </trkpt>
      <trkpt lat="37.39612" lon="-5.98403">
        <ele>10.58292</ele>
        <time>2021-07-15T07:21:32Z</time>
      </trkpt>
      <trkpt lat="37.39616" lon="-5.98404">
        <ele>9.428322</ele>
        <time>2021-07-15T07:21:58Z</time>
      </trkpt>
      <trkpt lat="37.39621" lon="-5.98405">
        <ele>9.521184</ele>
        <time>2021-07-15T07:22:09Z</time>
      </trkpt>
      <trkpt lat="37.3961" lon="-5.98402">
        <ele>8.609639</ele>
        <time>2021-07-15T07:22:42Z</time>
      </trkpt>
      <trkpt lat="37.39609" lon="-5.98401">
        <ele>8.744586</ele>
        <time>2021-07-15T07:23:41Z</time>
      </trkpt>
      <trkpt lat="37.39614" lon="-5.98396">
        <ele>6.147089</ele>
        <time>2021-07-15T07:23:56Z</time>
      </trkpt>
      <trkpt lat="37.39643" lon="-5.98337">
        <ele>5.797944</ele>
        <time>2021-07-15T07:24:07Z</time>
      </trkpt>
      <trkpt lat="37.39685" lon="-5.98271">
        <ele>7.828863</ele>
        <time>2021-07-15T07:24:18Z</time>
      </trkpt>
      <trkpt lat="37.39703" lon="-5.98236">
        <ele>7.765001</ele>
        <time>2021-07-15T07:24:29Z</time>
      </trkpt>
      <trkpt lat="37.39725" lon="-5.98253">
        <ele>9.785167</ele>
        <time>2021-07-15T07:24:40Z</time>
      </trkpt>
      <trkpt lat="37.39764" lon="-5.98281">
        <ele>9.24366</ele>
        <time>2021-07-15T07:24:51Z</time>
      </trkpt>
      <trkpt lat="37.398" lon="-5.98262">
        <ele>8.847812</ele>
        <time>2021-07-15T07:25:02Z</time>
      </trkpt>
      <trkpt lat="37.39828" lon="-5.98212">
        <ele>12.07448</ele>
        <time>2021-07-15T07:25:13Z</time>
      </trkpt>
      <trkpt lat="37.39822" lon="-5.9816">
        <ele>9.401732</ele>
        <time>2021-07-15T07:25:24Z</time>
      </trkpt>
      <trkpt lat="37.39765" lon="-5.98149">
        <ele>10.42257</ele>
        <time>2021-07-15T07:25:35Z</time>
      </trkpt>
      <trkpt lat="37.39764" lon="-5.98144">
        <ele>9.686497</ele>
        <time>2021-07-15T07:25:47Z</time>
      </trkpt>
      <trkpt lat="37.39742" lon="-5.98137">
        <ele>10.18924</ele>
        <time>2021-07-15T07:25:58Z</time>
      </trkpt>
      <trkpt lat="37.39669" lon="-5.98191">
        <ele>8.853859</ele>
        <time>2021-07-15T07:26:09Z</time>
      </trkpt>
      <trkpt lat="37.39584" lon="-5.98256">
        <ele>10.44361</ele>
        <time>2021-07-15T07:26:20Z</time>
      </trkpt>
      <trkpt lat="37.39496" lon="-5.98322">
        <ele>9.237879</ele>
        <time>2021-07-15T07:26:31Z</time>
      </trkpt>
      <trkpt lat="37.39417" lon="-5.98371">
        <ele>9.046515</ele>
        <time>2021-07-15T07:26:42Z</time>
      </trkpt>
      <trkpt lat="37.39312" lon="-5.98403">
        <ele>8.621499</ele>
        <time>2021-07-15T07:26:53Z</time>
      </trkpt>
      <trkpt lat="37.39245" lon="-5.98413">
        <ele>8.370959</ele>
        <time>2021-07-15T07:27:04Z</time>
      </trkpt>
      <trkpt lat="37.39129" lon="-5.98414">
        <ele>8.820364</ele>
        <time>2021-07-15T07:27:15Z</time>
      </trkpt>
      <trkpt lat="37.39018" lon="-5.98421">
        <ele>8.317016</ele>
        <time>2021-07-15T07:27:26Z</time>
      </trkpt>
      <trkpt lat="37.38961" lon="-5.98436">
        <ele>9.365351</ele>
        <time>2021-07-15T07:27:37Z</time>
      </trkpt>
      <trkpt lat="37.3888" lon="-5.98469">
        <ele>8.244633</ele>
        <time>2021-07-15T07:27:48Z</time>
      </trkpt>
      <trkpt lat="37.38799" lon="-5.98501">
        <ele>7.981572</ele>
        <time>2021-07-15T07:27:59Z</time>
      </trkpt>
      <trkpt lat="37.38689" lon="-5.98547">
        <ele>9.114338</ele>
        <time>2021-07-15T07:28:10Z</time>
      </trkpt>
      <trkpt lat="37.38615" lon="-5.98587">
        <ele>8.760615</ele>
        <time>2021-07-15T07:28:21Z</time>
      </trkpt>
      <trkpt lat="37.38616" lon="-5.98582">
        <ele>8.282097</ele>
        <time>2021-07-15T07:28:35Z</time>
      </trkpt>
      <trkpt lat="37.38613" lon="-5.98586">
        <ele>8.844921</ele>
        <time>2021-07-15T07:28:48Z</time>
      </trkpt>
      <trkpt lat="37.38609" lon="-5.98588">
        <ele>9.531591</ele>
        <time>2021-07-15T07:29:12Z</time>
      </trkpt>
      <trkpt lat="37.38537" lon="-5.98626">
        <ele>8.389619</ele>
        <time>2021-07-15T07:29:23Z</time>
      </trkpt>
      <trkpt lat="37.38419" lon="-5.98689">
        <ele>7.208072</ele>
        <time>2021-07-15T07:29:34Z</time>
      </trkpt>
      <trkpt lat="37.38301" lon="-5.98752">
        <ele>8.519718</ele>
        <time>2021-07-15T07:29:45Z</time>
      </trkpt>
      <trkpt lat="37.38261" lon="-5.98774">
        <ele>7.031282</ele>
        <time>2021-07-15T07:29:56Z</time>
      </trkpt>
      <trkpt lat="37.38249" lon="-5.9878">
        <ele>8.744273</ele>
        <time>2021-07-15T07:30:07Z</time>
      </trkpt>
      <trkpt lat="37.38182" lon="-5.98819">
        <ele>7.697603</ele>
        <time>2021-07-15T07:30:18Z</time>
      </trkpt>
      <trkpt lat="37.38093" lon="-5.98878">
        <ele>5.991697</ele>
        <time>2021-07-15T07:30:29Z</time>
      </trkpt>
      <trkpt lat="37.38011" lon="-5.98911">
        <ele>8.904931</ele>
        <time>2021-07-15T07:30:40Z</time>
      </trkpt>
      <trkpt lat="37.37927" lon="-5.98966">
        <ele>9.750047</ele>
        <time>2021-07-15T07:30:51Z</time>
      </trkpt>
      <trkpt lat="37.37831" lon="-5.99017">
        <ele>9.049132</ele>
        <time>2021-07-15T07:31:02Z</time>
      </trkpt>
      <trkpt lat="37.37728" lon="-5.99076">
        <ele>9.700348</ele>
        <time>2021-07-15T07:31:13Z</time>
      </trkpt>
      <trkpt lat="37.37644" lon="-5.99122">
        <ele>8.425568</ele>
        <time>2021-07-15T07:31:24Z</time>
      </trkpt>
      <trkpt lat="37.37634" lon="-5.99127">
        <ele>9.093375</ele>
        <time>2021-07-15T07:31:35Z</time>
      </trkpt>
      <trkpt lat="37.37629" lon="-5.99126">
        <ele>8.870023</ele>
        <time>2021-07-15T07:31:46Z</time>
      </trkpt>
      <trkpt lat="37.37623" lon="-5.99129">
        <ele>9.655195</ele>
        <time>2021-07-15T07:32:16Z</time>
      </trkpt>
      <trkpt lat="37.37581" lon="-5.99158">
        <ele>7.455153</ele>
        <time>2021-07-15T07:32:27Z</time>
      </trkpt>
      <trkpt lat="37.37541" lon="-5.99163">
        <ele>7.656768</ele>
        <time>2021-07-15T07:32:38Z</time>
      </trkpt>
      <trkpt lat="37.37536" lon="-5.99159">
        <ele>7.77129</ele>
        <time>2021-07-15T07:32:58Z</time>
      </trkpt>
      <trkpt lat="37.37426" lon="-5.99091">
        <ele>7.303642</ele>
        <time>2021-07-15T07:33:09Z</time>
      </trkpt>
      <trkpt lat="37.37362" lon="-5.99052">
        <ele>8.01958</ele>
        <time>2021-07-15T07:33:20Z</time>
      </trkpt>
      <trkpt lat="37.37298" lon="-5.99014">
        <ele>7.798623</ele>
        <time>2021-07-15T07:33:31Z</time>
      </trkpt>
      <trkpt lat="37.37169" lon="-5.98936">
        <ele>7.869973</ele>
        <time>2021-07-15T07:33:42Z</time>
      </trkpt>
      <trkpt lat="37.37045" lon="-5.98861">
        <ele>8.299368</ele>
        <time>2021-07-15T07:33:53Z</time>
      </trkpt>
      <trkpt lat="37.36998" lon="-5.98832">
        <ele>8.343214</ele>
        <time>2021-07-15T07:34:04Z</time>
      </trkpt>
      <trkpt lat="37.36995" lon="-5.98828">
        <ele>9.218482</ele>
        <time>2021-07-15T07:34:52Z</time>
      </trkpt>
      <trkpt lat="37.36925" lon="-5.98785">
        <ele>8.228216</ele>
        <time>2021-07-15T07:35:03Z</time>
      </trkpt>
      <trkpt lat="37.36812" lon="-5.98719">
        <ele>8.810233</ele>
        <time>2021-07-15T07:35:14Z</time>
      </trkpt>
      <trkpt lat="37.36675" lon="-5.98637">
        <ele>7.985181</ele>
        <time>2021-07-15T07:35:25Z</time>
      </trkpt>
      <trkpt lat="37.36532" lon="-5.98552">
        <ele>8.242012</ele>
        <time>2021-07-15T07:35:36Z</time>
      </trkpt>
      <trkpt lat="37.36422" lon="-5.98485">
        <ele>8.352477</ele>
        <time>2021-07-15T07:35:47Z</time>
      </trkpt>
      <trkpt lat="37.36368" lon="-5.98453">
        <ele>8.806525</ele>
        <time>2021-07-15T07:35:58Z</time>
      </trkpt>
      <trkpt lat="37.36305" lon="-5.98416">
        <ele>7.920684</ele>
        <time>2021-07-15T07:36:09Z</time>
      </trkpt>
      <trkpt lat="37.36179" lon="-5.9834">
        <ele>7.783565</ele>
        <time>2021-07-15T07:36:20Z</time>
      </trkpt>
      <trkpt lat="37.36053" lon="-5.98265">
        <ele>6.922124</ele>
        <time>2021-07-15T07:36:31Z</time>
      </trkpt>
      <trkpt lat="37.3593" lon="-5.98192">
        <ele>7.868558</ele>
        <time>2021-07-15T07:36:42Z</time>
      </trkpt>
      <trkpt lat="37.35817" lon="-5.98126">
        <ele>6.672681</ele>
        <time>2021-07-15T07:36:53Z</time>
      </trkpt>
      <trkpt lat="37.35735" lon="-5.98077">
        <ele>7.42608</ele>
        <time>2021-07-15T07:37:04Z</time>
      </trkpt>
      <trkpt lat="37.35651" lon="-5.98033">
        <ele>7.930169</ele>
        <time>2021-07-15T07:37:15Z</time>
      </trkpt>
      <trkpt lat="37.35547" lon="-5.97965">
        <ele>8.996273</ele>
        <time>2021-07-15T07:37:26Z</time>
      </trkpt>
      <trkpt lat="37.35416" lon="-5.97889">
        <ele>10.3311</ele>
        <time>2021-07-15T07:37:37Z</time>
      </trkpt>
      <trkpt lat="37.35284" lon="-5.97809">
        <ele>9.567994</ele>
        <time>2021-07-15T07:37:48Z</time>
      </trkpt>
      <trkpt lat="37.35239" lon="-5.97781">
        <ele>9.510365</ele>
        <time>2021-07-15T07:37:59Z</time>
      </trkpt>
      <trkpt lat="37.35236" lon="-5.97783">
        <ele>10.77773</ele>
        <time>2021-07-15T07:38:10Z</time>
      </trkpt>
      <trkpt lat="37.3522" lon="-5.97774">
        <ele>10.19989</ele>
        <time>2021-07-15T07:38:21Z</time>
      </trkpt>
      <trkpt lat="37.35139" lon="-5.97726">
        <ele>10.10043</ele>
        <time>2021-07-15T07:38:32Z</time>
      </trkpt>
      <trkpt lat="37.35008" lon="-5.97676">
        <ele>11.53037</ele>
        <time>2021-07-15T07:38:43Z</time>
      </trkpt>
      <trkpt lat="37.34875" lon="-5.97652">
        <ele>12.2433</ele>
        <time>2021-07-15T07:38:54Z</time>
      </trkpt>
      <trkpt lat="37.3473" lon="-5.97618">
        <ele>11.93153</ele>
        <time>2021-07-15T07:39:05Z</time>
      </trkpt>
      <trkpt lat="37.34611" lon="-5.97551">
        <ele>12.90213</ele>
        <time>2021-07-15T07:39:16Z</time>
      </trkpt>
      <trkpt lat="37.34499" lon="-5.97483">
        <ele>11.78172</ele>
        <time>2021-07-15T07:39:27Z</time>
      </trkpt>
      <trkpt lat="37.34455" lon="-5.97458">
        <ele>11.22421</ele>
        <time>2021-07-15T07:39:38Z</time>
      </trkpt>
      <trkpt lat="37.34417" lon="-5.97438">
        <ele>10.0911</ele>
        <time>2021-07-15T07:39:49Z</time>
      </trkpt>
      <trkpt lat="37.34411" lon="-5.97434">
        <ele>9.159762</ele>
        <time>2021-07-15T07:40:03Z</time>
      </trkpt>
      <trkpt lat="37.34322" lon="-5.97379">
        <ele>8.218192</ele>
        <time>2021-07-15T07:40:14Z</time>
      </trkpt>
      <trkpt lat="37.34195" lon="-5.97302">
        <ele>7.12228</ele>
        <time>2021-07-15T07:40:25Z</time>
      </trkpt>
      <trkpt lat="37.34014" lon="-5.97189">
        <ele>10.9306</ele>
        <time>2021-07-15T07:40:36Z</time>
      </trkpt>
      <trkpt lat="37.33816" lon="-5.97077">
        <ele>9.362437</ele>
        <time>2021-07-15T07:40:47Z</time>
      </trkpt>
      <trkpt lat="37.33638" lon="-5.97014">
        <ele>14.92806</ele>
        <time>2021-07-15T07:40:58Z</time>
      </trkpt>
      <trkpt lat="37.33568" lon="-5.96994">
        <ele>14.01376</ele>
        <time>2021-07-15T07:41:09Z</time>
      </trkpt>
      <trkpt lat="37.33564" lon="-5.96994">
        <ele>14.4451</ele>
        <time>2021-07-15T07:41:22Z</time>
      </trkpt>
      <trkpt lat="37.33553" lon="-5.9699">
        <ele>13.64615</ele>
        <time>2021-07-15T07:41:33Z</time>
      </trkpt>
      <trkpt lat="37.33448" lon="-5.96952">
        <ele>13.36636</ele>
        <time>2021-07-15T07:41:44Z</time>
      </trkpt>
      <trkpt lat="37.33322" lon="-5.96908">
        <ele>14.30047</ele>
        <time>2021-07-15T07:41:55Z</time>
      </trkpt>
      <trkpt lat="37.33202" lon="-5.96866">
        <ele>13.68447</ele>
        <time>2021-07-15T07:42:06Z</time>
      </trkpt>
      <trkpt lat="37.33092" lon="-5.9683">
        <ele>13.90193</ele>
        <time>2021-07-15T07:42:17Z</time>
      </trkpt>
      <trkpt lat="37.33042" lon="-5.96827">
        <ele>13.95049</ele>
        <time>2021-07-15T07:42:28Z</time>
      </trkpt>
      <trkpt lat="37.33037" lon="-5.96825">
        <ele>14.09963</ele>
        <time>2021-07-15T07:43:09Z</time>
      </trkpt>
      <trkpt lat="37.32988" lon="-5.96858">
        <ele>13.71474</ele>
        <time>2021-07-15T07:43:20Z</time>
      </trkpt>
      <trkpt lat="37.32869" lon="-5.96859">
        <ele>13.89961</ele>
        <time>2021-07-15T07:43:31Z</time>
      </trkpt>
      <trkpt lat="37.32765" lon="-5.96903">
        <ele>17.30593</ele>
        <time>2021-07-15T07:43:42Z</time>
      </trkpt>
      <trkpt lat="37.32737" lon="-5.96913">
        <ele>18.1644</ele>
        <time>2021-07-15T07:43:53Z</time>
      </trkpt>
      <trkpt lat="37.32672" lon="-5.96925">
        <ele>18.12541</ele>
        <time>2021-07-15T07:44:04Z</time>
      </trkpt>
      <trkpt lat="37.32561" lon="-5.96902">
        <ele>18.74271</ele>
        <time>2021-07-15T07:44:15Z</time>
      </trkpt>
      <trkpt lat="37.32452" lon="-5.96872">
        <ele>19.60852</ele>
        <time>2021-07-15T07:44:26Z</time>
      </trkpt>
      <trkpt lat="37.32339" lon="-5.96851">
        <ele>20.25415</ele>
        <time>2021-07-15T07:44:37Z</time>
      </trkpt>
      <trkpt lat="37.32213" lon="-5.9686">
        <ele>21.8109</ele>
        <time>2021-07-15T07:44:48Z</time>
      </trkpt>
      <trkpt lat="37.32101" lon="-5.96868">
        <ele>21.55843</ele>
        <time>2021-07-15T07:44:59Z</time>
      </trkpt>
      <trkpt lat="37.32078" lon="-5.96869">
        <ele>22.04723</ele>
        <time>2021-07-15T07:45:10Z</time>
      </trkpt>
      <trkpt lat="37.32023" lon="-5.9692">
        <ele>20.71817</ele>
        <time>2021-07-15T07:45:21Z</time>
      </trkpt>
      <trkpt lat="37.31913" lon="-5.96895">
        <ele>19.90811</ele>
        <time>2021-07-15T07:45:32Z</time>
      </trkpt>
      <trkpt lat="37.31789" lon="-5.96912">
        <ele>19.50916</ele>
        <time>2021-07-15T07:45:43Z</time>
      </trkpt>
      <trkpt lat="37.31686" lon="-5.96907">
        <ele>17.9413</ele>
        <time>2021-07-15T07:45:54Z</time>
      </trkpt>
      <trkpt lat="37.3152" lon="-5.96939">
        <ele>21.11603</ele>
        <time>2021-07-15T07:46:05Z</time>
      </trkpt>
      <trkpt lat="37.31295" lon="-5.96988">
        <ele>21.61903</ele>
        <time>2021-07-15T07:46:16Z</time>
      </trkpt>
      <trkpt lat="37.31074" lon="-5.97033">
        <ele>22.66441</ele>
        <time>2021-07-15T07:46:27Z</time>
      </trkpt>
      <trkpt lat="37.30854" lon="-5.97003">
        <ele>20.41426</ele>
        <time>2021-07-15T07:46:38Z</time>
      </trkpt>
      <trkpt lat="37.30635" lon="-5.96919">
        <ele>18.94139</ele>
        <time>2021-07-15T07:46:49Z</time>
      </trkpt>
      <trkpt lat="37.3044" lon="-5.96774">
        <ele>18.10628</ele>
        <time>2021-07-15T07:47:00Z</time>
      </trkpt>
      <trkpt lat="37.30272" lon="-5.96547">
        <ele>21.02828</ele>
        <time>2021-07-15T07:47:11Z</time>
      </trkpt>
      <trkpt lat="37.3015" lon="-5.96286">
        <ele>22.14301</ele>
        <time>2021-07-15T07:47:22Z</time>
      </trkpt>
      <trkpt lat="37.30024" lon="-5.96024">
        <ele>18.9297</ele>
        <time>2021-07-15T07:47:33Z</time>
      </trkpt>
      <trkpt lat="37.29885" lon="-5.95774">
        <ele>16.88855</ele>
        <time>2021-07-15T07:47:44Z</time>
      </trkpt>
      <trkpt lat="37.29757" lon="-5.95543">
        <ele>17.74003</ele>
        <time>2021-07-15T07:47:55Z</time>
      </trkpt>
      <trkpt lat="37.29615" lon="-5.95286">
        <ele>16.29684</ele>
        <time>2021-07-15T07:48:06Z</time>
      </trkpt>
      <trkpt lat="37.29481" lon="-5.95038">
        <ele>16.90001</ele>
        <time>2021-07-15T07:48:17Z</time>
      </trkpt>
      <trkpt lat="37.29329" lon="-5.94779">
        <ele>20.52298</ele>
        <time>2021-07-15T07:48:28Z</time>
      </trkpt>
      <trkpt lat="37.29137" lon="-5.94609">
        <ele>24.02925</ele>
        <time>2021-07-15T07:48:39Z</time>
      </trkpt>
      <trkpt lat="37.28946" lon="-5.94454">
        <ele>28.60478</ele>
        <time>2021-07-15T07:48:50Z</time>
      </trkpt>
      <trkpt lat="37.28817" lon="-5.94355">
        <ele>30.30799</ele>
        <time>2021-07-15T07:49:01Z</time>
      </trkpt>
      <trkpt lat="37.28782" lon="-5.94331">
        <ele>32.27146</ele>
        <time>2021-07-15T07:49:12Z</time>
      </trkpt>
      <trkpt lat="37.28731" lon="-5.94289">
        <ele>33.26855</ele>
        <time>2021-07-15T07:49:23Z</time>
      </trkpt>
      <trkpt lat="37.28728" lon="-5.94284">
        <ele>35.0281</ele>
        <time>2021-07-15T07:49:34Z</time>
      </trkpt>
      <trkpt lat="37.28722" lon="-5.94277">
        <ele>33.83568</ele>
        <time>2021-07-15T07:49:50Z</time>
      </trkpt>
      <trkpt lat="37.28628" lon="-5.94191">
        <ele>36.23109</ele>
        <time>2021-07-15T07:50:01Z</time>
      </trkpt>
      <trkpt lat="37.285" lon="-5.9408">
        <ele>36.55203</ele>
        <time>2021-07-15T07:50:12Z</time>
      </trkpt>
      <trkpt lat="37.28372" lon="-5.93965">
        <ele>33.32519</ele>
        <time>2021-07-15T07:50:23Z</time>
      </trkpt>
      <trkpt lat="37.28267" lon="-5.9387">
        <ele>37.3398</ele>
        <time>2021-07-15T07:50:34Z</time>
      </trkpt>
      <trkpt lat="37.28145" lon="-5.93766">
        <ele>40.8048</ele>
        <time>2021-07-15T07:50:45Z</time>
      </trkpt>
      <trkpt lat="37.28032" lon="-5.93668">
        <ele>37.91405</ele>
        <time>2021-07-15T07:50:56Z</time>
      </trkpt>
      <trkpt lat="37.27936" lon="-5.93584">
        <ele>36.45739</ele>
        <time>2021-07-15T07:51:07Z</time>
      </trkpt>
      <trkpt lat="37.27862" lon="-5.93522">
        <ele>36.87132</ele>
        <time>2021-07-15T07:51:18Z</time>
      </trkpt>
      <trkpt lat="37.27778" lon="-5.93446">
        <ele>37.56464</ele>
        <time>2021-07-15T07:51:29Z</time>
      </trkpt>
      <trkpt lat="37.2766" lon="-5.93352">
        <ele>40.65717</ele>
        <time>2021-07-15T07:51:40Z</time>
      </trkpt>
      <trkpt lat="37.27526" lon="-5.93266">
        <ele>42.86233</ele>
        <time>2021-07-15T07:51:51Z</time>
      </trkpt>
      <trkpt lat="37.2743" lon="-5.93203">
        <ele>44.09139</ele>
        <time>2021-07-15T07:52:02Z</time>
      </trkpt>
      <trkpt lat="37.27354" lon="-5.93165">
        <ele>44.75796</ele>
        <time>2021-07-15T07:52:13Z</time>
      </trkpt>
      <trkpt lat="37.27285" lon="-5.93111">
        <ele>44.74914</ele>
        <time>2021-07-15T07:52:24Z</time>
      </trkpt>
      <trkpt lat="37.27159" lon="-5.93019">
        <ele>42.67051</ele>
        <time>2021-07-15T07:52:35Z</time>
      </trkpt>
      <trkpt lat="37.27006" lon="-5.92891">
        <ele>41.68606</ele>
        <time>2021-07-15T07:52:46Z</time>
      </trkpt>
      <trkpt lat="37.26849" lon="-5.92762">
        <ele>43.29944</ele>
        <time>2021-07-15T07:52:57Z</time>
      </trkpt>
      <trkpt lat="37.26711" lon="-5.92649">
        <ele>42.363</ele>
        <time>2021-07-15T07:53:08Z</time>
      </trkpt>
      <trkpt lat="37.26576" lon="-5.92529">
        <ele>45.40304</ele>
        <time>2021-07-15T07:53:19Z</time>
      </trkpt>
      <trkpt lat="37.26442" lon="-5.92402">
        <ele>46.01418</ele>
        <time>2021-07-15T07:53:30Z</time>
      </trkpt>
      <trkpt lat="37.26328" lon="-5.92279">
        <ele>47.99482</ele>
        <time>2021-07-15T07:53:41Z</time>
      </trkpt>
      <trkpt lat="37.26209" lon="-5.92201">
        <ele>50.83569</ele>
        <time>2021-07-15T07:53:52Z</time>
      </trkpt>
      <trkpt lat="37.26055" lon="-5.92223">
        <ele>53.73989</ele>
        <time>2021-07-15T07:54:03Z</time>
      </trkpt>
      <trkpt lat="37.25897" lon="-5.92166">
        <ele>54.63078</ele>
        <time>2021-07-15T07:54:14Z</time>
      </trkpt>
      <trkpt lat="37.25712" lon="-5.92131">
        <ele>50.5686</ele>
        <time>2021-07-15T07:54:25Z</time>
      </trkpt>
      <trkpt lat="37.25609" lon="-5.92134">
        <ele>50.61084</ele>
        <time>2021-07-15T07:54:36Z</time>
      </trkpt>
      <trkpt lat="37.25506" lon="-5.92129">
        <ele>49.62702</ele>
        <time>2021-07-15T07:54:47Z</time>
      </trkpt>
      <trkpt lat="37.25324" lon="-5.92193">
        <ele>49.30415</ele>
        <time>2021-07-15T07:54:58Z</time>
      </trkpt>
      <trkpt lat="37.25117" lon="-5.92278">
        <ele>52.76555</ele>
        <time>2021-07-15T07:55:09Z</time>
      </trkpt>
      <trkpt lat="37.24889" lon="-5.9232">
        <ele>46.22836</ele>
        <time>2021-07-15T07:55:20Z</time>
      </trkpt>
      <trkpt lat="37.24656" lon="-5.92372">
        <ele>43.4179</ele>
        <time>2021-07-15T07:55:31Z</time>
      </trkpt>
      <trkpt lat="37.24428" lon="-5.92432">
        <ele>42.41884</ele>
        <time>2021-07-15T07:55:42Z</time>
      </trkpt>
      <trkpt lat="37.24208" lon="-5.92496">
        <ele>39.51161</ele>
        <time>2021-07-15T07:55:53Z</time>
      </trkpt>
      <trkpt lat="37.23984" lon="-5.92561">
        <ele>36.83367</ele>
        <time>2021-07-15T07:56:04Z</time>
      </trkpt>
      <trkpt lat="37.23774" lon="-5.92622">
        <ele>37.97749</ele>
        <time>2021-07-15T07:56:15Z</time>
      </trkpt>
      <trkpt lat="37.23541" lon="-5.9266">
        <ele>38.42571</ele>
        <time>2021-07-15T07:56:26Z</time>
      </trkpt>
      <trkpt lat="37.23305" lon="-5.92637">
        <ele>36.60968</ele>
        <time>2021-07-15T07:56:37Z</time>
      </trkpt>
      <trkpt lat="37.23069" lon="-5.92574">
        <ele>33.51424</ele>
        <time>2021-07-15T07:56:48Z</time>
      </trkpt>
      <trkpt lat="37.22816" lon="-5.925">
        <ele>32.04769</ele>
        <time>2021-07-15T07:56:59Z</time>
      </trkpt>
      <trkpt lat="37.22599" lon="-5.92374">
        <ele>30.44717</ele>
        <time>2021-07-15T07:57:10Z</time>
      </trkpt>
      <trkpt lat="37.22388" lon="-5.92243">
        <ele>31.12504</ele>
        <time>2021-07-15T07:57:21Z</time>
      </trkpt>
      <trkpt lat="37.22156" lon="-5.92165">
        <ele>26.22177</ele>
        <time>2021-07-15T07:57:32Z</time>
      </trkpt>
      <trkpt lat="37.21922" lon="-5.92091">
        <ele>21.30305</ele>
        <time>2021-07-15T07:57:43Z</time>
      </trkpt>
      <trkpt lat="37.21686" lon="-5.92038">
        <ele>17.35431</ele>
        <time>2021-07-15T07:57:54Z</time>
      </trkpt>
      <trkpt lat="37.21448" lon="-5.92063">
        <ele>18.37969</ele>
        <time>2021-07-15T07:58:05Z</time>
      </trkpt>
      <trkpt lat="37.21215" lon="-5.92141">
        <ele>18.11294</ele>
        <time>2021-07-15T07:58:16Z</time>
      </trkpt>
      <trkpt lat="37.21006" lon="-5.92214">
        <ele>18.04402</ele>
        <time>2021-07-15T07:58:27Z</time>
      </trkpt>
      <trkpt lat="37.20779" lon="-5.92296">
        <ele>19.14527</ele>
        <time>2021-07-15T07:58:38Z</time>
      </trkpt>
      <trkpt lat="37.2055" lon="-5.92379">
        <ele>21.24222</ele>
        <time>2021-07-15T07:58:49Z</time>
      </trkpt>
      <trkpt lat="37.20325" lon="-5.92456">
        <ele>22.24038</ele>
        <time>2021-07-15T07:59:00Z</time>
      </trkpt>
      <trkpt lat="37.20099" lon="-5.92525">
        <ele>24.16444</ele>
        <time>2021-07-15T07:59:11Z</time>
      </trkpt>
      <trkpt lat="37.19845" lon="-5.92544">
        <ele>25.31663</ele>
        <time>2021-07-15T07:59:22Z</time>
      </trkpt>
      <trkpt lat="37.19608" lon="-5.92512">
        <ele>23.81492</ele>
        <time>2021-07-15T07:59:33Z</time>
      </trkpt>
      <trkpt lat="37.19369" lon="-5.92461">
        <ele>21.36807</ele>
        <time>2021-07-15T07:59:44Z</time>
      </trkpt>
      <trkpt lat="37.19127" lon="-5.92439">
        <ele>20.73767</ele>
        <time>2021-07-15T07:59:55Z</time>
      </trkpt>
      <trkpt lat="37.18888" lon="-5.92429">
        <ele>17.17333</ele>
        <time>2021-07-15T08:00:06Z</time>
      </trkpt>
      <trkpt lat="37.18643" lon="-5.92434">
        <ele>13.83827</ele>
        <time>2021-07-15T08:00:17Z</time>
      </trkpt>
      <trkpt lat="37.18423" lon="-5.92457">
        <ele>12.25468</ele>
        <time>2021-07-15T08:00:28Z</time>
      </trkpt>
      <trkpt lat="37.182" lon="-5.92576">
        <ele>11.16644</ele>
        <time>2021-07-15T08:00:39Z</time>
      </trkpt>
      <trkpt lat="37.1802" lon="-5.92779">
        <ele>9.95331</ele>
        <time>2021-07-15T08:00:50Z</time>
      </trkpt>
      <trkpt lat="37.17868" lon="-5.93012">
        <ele>6.668756</ele>
        <time>2021-07-15T08:01:01Z</time>
      </trkpt>
      <trkpt lat="37.17703" lon="-5.93267">
        <ele>6.115023</ele>
        <time>2021-07-15T08:01:12Z</time>
      </trkpt>
      <trkpt lat="37.17552" lon="-5.93501">
        <ele>5.406593</ele>
        <time>2021-07-15T08:01:23Z</time>
      </trkpt>
      <trkpt lat="37.17399" lon="-5.9374">
        <ele>3.724326</ele>
        <time>2021-07-15T08:01:34Z</time>
      </trkpt>
      <trkpt lat="37.17245" lon="-5.93979">
        <ele>4.554557</ele>
        <time>2021-07-15T08:01:45Z</time>
      </trkpt>
      <trkpt lat="37.17068" lon="-5.94183">
        <ele>7.445201</ele>
        <time>2021-07-15T08:01:56Z</time>
      </trkpt>
      <trkpt lat="37.16842" lon="-5.94275">
        <ele>7.766261</ele>
        <time>2021-07-15T08:02:07Z</time>
      </trkpt>
      <trkpt lat="37.16605" lon="-5.94265">
        <ele>5.729916</ele>
        <time>2021-07-15T08:02:18Z</time>
      </trkpt>
      <trkpt lat="37.16367" lon="-5.94253">
        <ele>1.754361</ele>
        <time>2021-07-15T08:02:29Z</time>
      </trkpt>
      <trkpt lat="37.16153" lon="-5.94243">
        <ele>1.893108</ele>
        <time>2021-07-15T08:02:40Z</time>
      </trkpt>
      <trkpt lat="37.1592" lon="-5.9422">
        <ele>1.718466</ele>
        <time>2021-07-15T08:02:51Z</time>
      </trkpt>
      <trkpt lat="37.15705" lon="-5.94102">
        <ele>2.163676</ele>
        <time>2021-07-15T08:03:02Z</time>
      </trkpt>
      <trkpt lat="37.15547" lon="-5.93887">
        <ele>2.599549</ele>
        <time>2021-07-15T08:03:13Z</time>
      </trkpt>
      <trkpt lat="37.15437" lon="-5.93592">
        <ele>3.638188</ele>
        <time>2021-07-15T08:03:24Z</time>
      </trkpt>
      <trkpt lat="37.15338" lon="-5.93321">
        <ele>3.842252</ele>
        <time>2021-07-15T08:03:35Z</time>
      </trkpt>
      <trkpt lat="37.15239" lon="-5.93052">
        <ele>3.296785</ele>
        <time>2021-07-15T08:03:46Z</time>
      </trkpt>
      <trkpt lat="37.15145" lon="-5.92783">
        <ele>2.057506</ele>
        <time>2021-07-15T08:03:57Z</time>
      </trkpt>
      <trkpt lat="37.1503" lon="-5.92526">
        <ele>3.296537</ele>
        <time>2021-07-15T08:04:08Z</time>
      </trkpt>
      <trkpt lat="37.14875" lon="-5.92315">
        <ele>4.206484</ele>
        <time>2021-07-15T08:04:19Z</time>
      </trkpt>
      <trkpt lat="37.1469" lon="-5.9217">
        <ele>4.151262</ele>
        <time>2021-07-15T08:04:30Z</time>
      </trkpt>
      <trkpt lat="37.14492" lon="-5.92025">
        <ele>5.626064</ele>
        <time>2021-07-15T08:04:41Z</time>
      </trkpt>
      <trkpt lat="37.14318" lon="-5.91835">
        <ele>8.959959</ele>
        <time>2021-07-15T08:04:52Z</time>
      </trkpt>
      <trkpt lat="37.14161" lon="-5.91605">
        <ele>9.881692</ele>
        <time>2021-07-15T08:05:03Z</time>
      </trkpt>
      <trkpt lat="37.14031" lon="-5.91348">
        <ele>5.701521</ele>
        <time>2021-07-15T08:05:14Z</time>
      </trkpt>
      <trkpt lat="37.1388" lon="-5.91114">
        <ele>3.926895</ele>
        <time>2021-07-15T08:05:25Z</time>
      </trkpt>
      <trkpt lat="37.13706" lon="-5.90908">
        <ele>5.148119</ele>
        <time>2021-07-15T08:05:36Z</time>
      </trkpt>
      <trkpt lat="37.13526" lon="-5.90714">
        <ele>7.217166</ele>
        <time>2021-07-15T08:05:47Z</time>
      </trkpt>
      <trkpt lat="37.13348" lon="-5.90523">
        <ele>6.505958</ele>
        <time>2021-07-15T08:05:58Z</time>
      </trkpt>
      <trkpt lat="37.13167" lon="-5.90329">
        <ele>7.090608</ele>
        <time>2021-07-15T08:06:09Z</time>
      </trkpt>
      <trkpt lat="37.12984" lon="-5.9013">
        <ele>6.043876</ele>
        <time>2021-07-15T08:06:20Z</time>
      </trkpt>
      <trkpt lat="37.128" lon="-5.89932">
        <ele>5.794502</ele>
        <time>2021-07-15T08:06:31Z</time>
      </trkpt>
      <trkpt lat="37.12616" lon="-5.89733">
        <ele>5.498804</ele>
        <time>2021-07-15T08:06:42Z</time>
      </trkpt>
      <trkpt lat="37.12429" lon="-5.89532">
        <ele>5.456749</ele>
        <time>2021-07-15T08:06:53Z</time>
      </trkpt>
      <trkpt lat="37.12243" lon="-5.89331">
        <ele>5.276768</ele>
        <time>2021-07-15T08:07:04Z</time>
      </trkpt>
      <trkpt lat="37.1206" lon="-5.89131">
        <ele>5.289988</ele>
        <time>2021-07-15T08:07:15Z</time>
      </trkpt>
      <trkpt lat="37.11874" lon="-5.88931">
        <ele>5.559505</ele>
        <time>2021-07-15T08:07:26Z</time>
      </trkpt>
      <trkpt lat="37.11688" lon="-5.88732">
        <ele>5.234691</ele>
        <time>2021-07-15T08:07:37Z</time>
      </trkpt>
      <trkpt lat="37.11505" lon="-5.88534">
        <ele>5.434802</ele>
        <time>2021-07-15T08:07:48Z</time>
      </trkpt>
      <trkpt lat="37.11307" lon="-5.88322">
        <ele>5.574599</ele>
        <time>2021-07-15T08:07:59Z</time>
      </trkpt>
      <trkpt lat="37.11117" lon="-5.88116">
        <ele>5.703518</ele>
        <time>2021-07-15T08:08:10Z</time>
      </trkpt>
      <trkpt lat="37.10926" lon="-5.8791">
        <ele>6.875757</ele>
        <time>2021-07-15T08:08:21Z</time>
      </trkpt>
      <trkpt lat="37.10734" lon="-5.87701">
        <ele>7.883997</ele>
        <time>2021-07-15T08:08:32Z</time>
      </trkpt>
      <trkpt lat="37.1054" lon="-5.87493">
        <ele>7.555008</ele>
        <time>2021-07-15T08:08:43Z</time>
      </trkpt>
      <trkpt lat="37.10344" lon="-5.87283">
        <ele>7.912275</ele>
        <time>2021-07-15T08:08:54Z</time>
      </trkpt>
      <trkpt lat="37.10153" lon="-5.87076">
        <ele>8.499901</ele>
        <time>2021-07-15T08:09:05Z</time>
      </trkpt>
      <trkpt lat="37.09962" lon="-5.8687">
        <ele>8.982132</ele>
        <time>2021-07-15T08:09:16Z</time>
      </trkpt>
      <trkpt lat="37.0977" lon="-5.86661">
        <ele>9.673892</ele>
        <time>2021-07-15T08:09:27Z</time>
      </trkpt>
      <trkpt lat="37.09567" lon="-5.86469">
        <ele>13.21295</ele>
        <time>2021-07-15T08:09:38Z</time>
      </trkpt>
      <trkpt lat="37.0935" lon="-5.86311">
        <ele>18.12252</ele>
        <time>2021-07-15T08:09:49Z</time>
      </trkpt>
      <trkpt lat="37.09134" lon="-5.8615">
        <ele>16.40733</ele>
        <time>2021-07-15T08:10:00Z</time>
      </trkpt>
      <trkpt lat="37.08912" lon="-5.86018">
        <ele>11.46853</ele>
        <time>2021-07-15T08:10:11Z</time>
      </trkpt>
      <trkpt lat="37.08675" lon="-5.85936">
        <ele>11.46861</ele>
        <time>2021-07-15T08:10:22Z</time>
      </trkpt>
      <trkpt lat="37.0843" lon="-5.85926">
        <ele>14.77063</ele>
        <time>2021-07-15T08:10:33Z</time>
      </trkpt>
      <trkpt lat="37.082" lon="-5.85836">
        <ele>17.8289</ele>
        <time>2021-07-15T08:10:44Z</time>
      </trkpt>
      <trkpt lat="37.08014" lon="-5.85632">
        <ele>12.94235</ele>
        <time>2021-07-15T08:10:55Z</time>
      </trkpt>
      <trkpt lat="37.07793" lon="-5.85483">
        <ele>10.71425</ele>
        <time>2021-07-15T08:11:06Z</time>
      </trkpt>
      <trkpt lat="37.07585" lon="-5.85324">
        <ele>11.42409</ele>
        <time>2021-07-15T08:11:17Z</time>
      </trkpt>
      <trkpt lat="37.07395" lon="-5.85156">
        <ele>11.81286</ele>
        <time>2021-07-15T08:11:28Z</time>
      </trkpt>
      <trkpt lat="37.07205" lon="-5.84986">
        <ele>12.51305</ele>
        <time>2021-07-15T08:11:39Z</time>
      </trkpt>
      <trkpt lat="37.07012" lon="-5.84816">
        <ele>12.24155</ele>
        <time>2021-07-15T08:11:50Z</time>
      </trkpt>
      <trkpt lat="37.06827" lon="-5.84645">
        <ele>12.99211</ele>
        <time>2021-07-15T08:12:01Z</time>
      </trkpt>
      <trkpt lat="37.06647" lon="-5.84468">
        <ele>13.00104</ele>
        <time>2021-07-15T08:12:12Z</time>
      </trkpt>
      <trkpt lat="37.06469" lon="-5.8429">
        <ele>13.10013</ele>
        <time>2021-07-15T08:12:23Z</time>
      </trkpt>
      <trkpt lat="37.06293" lon="-5.84115">
        <ele>13.24667</ele>
        <time>2021-07-15T08:12:34Z</time>
      </trkpt>
      <trkpt lat="37.06108" lon="-5.83955">
        <ele>13.78968</ele>
        <time>2021-07-15T08:12:45Z</time>
      </trkpt>
      <trkpt lat="37.05888" lon="-5.83909">
        <ele>12.61022</ele>
        <time>2021-07-15T08:12:56Z</time>
      </trkpt>
      <trkpt lat="37.05663" lon="-5.83876">
        <ele>12.88528</ele>
        <time>2021-07-15T08:13:07Z</time>
      </trkpt>
      <trkpt lat="37.0544" lon="-5.8386">
        <ele>15.06135</ele>
        <time>2021-07-15T08:13:18Z</time>
      </trkpt>
      <trkpt lat="37.05219" lon="-5.83877">
        <ele>15.31343</ele>
        <time>2021-07-15T08:13:29Z</time>
      </trkpt>
      <trkpt lat="37.04995" lon="-5.83893">
        <ele>16.33942</ele>
        <time>2021-07-15T08:13:40Z</time>
      </trkpt>
      <trkpt lat="37.0477" lon="-5.83909">
        <ele>17.5522</ele>
        <time>2021-07-15T08:13:51Z</time>
      </trkpt>
      <trkpt lat="37.04537" lon="-5.83889">
        <ele>18.31497</ele>
        <time>2021-07-15T08:14:02Z</time>
      </trkpt>
      <trkpt lat="37.0428" lon="-5.83862">
        <ele>17.38736</ele>
        <time>2021-07-15T08:14:13Z</time>
      </trkpt>
      <trkpt lat="37.04042" lon="-5.83836">
        <ele>18.50537</ele>
        <time>2021-07-15T08:14:24Z</time>
      </trkpt>
      <trkpt lat="37.03801" lon="-5.83808">
        <ele>16.52485</ele>
        <time>2021-07-15T08:14:35Z</time>
      </trkpt>
      <trkpt lat="37.03554" lon="-5.83783">
        <ele>15.05818</ele>
        <time>2021-07-15T08:14:46Z</time>
      </trkpt>
      <trkpt lat="37.0331" lon="-5.83757">
        <ele>15.36445</ele>
        <time>2021-07-15T08:14:57Z</time>
      </trkpt>
      <trkpt lat="37.03068" lon="-5.83739">
        <ele>13.319</ele>
        <time>2021-07-15T08:15:08Z</time>
      </trkpt>
      <trkpt lat="37.02832" lon="-5.83714">
        <ele>17.99439</ele>
        <time>2021-07-15T08:15:19Z</time>
      </trkpt>
      <trkpt lat="37.02599" lon="-5.83691">
        <ele>18.66739</ele>
        <time>2021-07-15T08:15:30Z</time>
      </trkpt>
      <trkpt lat="37.0236" lon="-5.83663">
        <ele>21.64383</ele>
        <time>2021-07-15T08:15:41Z</time>
      </trkpt>
      <trkpt lat="37.02128" lon="-5.83576">
        <ele>30.49363</ele>
        <time>2021-07-15T08:15:52Z</time>
      </trkpt>
      <trkpt lat="37.01901" lon="-5.83467">
        <ele>32.53414</ele>
        <time>2021-07-15T08:16:03Z</time>
      </trkpt>
      <trkpt lat="37.0168" lon="-5.83364">
        <ele>43.78718</ele>
        <time>2021-07-15T08:16:14Z</time>
      </trkpt>
      <trkpt lat="37.01459" lon="-5.8326">
        <ele>52.62174</ele>
        <time>2021-07-15T08:16:25Z</time>
      </trkpt>
      <trkpt lat="37.01227" lon="-5.83208">
        <ele>53.48524</ele>
        <time>2021-07-15T08:16:36Z</time>
      </trkpt>
      <trkpt lat="37.00998" lon="-5.8321">
        <ele>55.54306</ele>
        <time>2021-07-15T08:16:47Z</time>
      </trkpt>
      <trkpt lat="37.00768" lon="-5.83206">
        <ele>66.56389</ele>
        <time>2021-07-15T08:16:58Z</time>
      </trkpt>
      <trkpt lat="37.00544" lon="-5.83115">
        <ele>70.54756</ele>
        <time>2021-07-15T08:17:09Z</time>
      </trkpt>
      <trkpt lat="37.00329" lon="-5.83038">
        <ele>57.49075</ele>
        <time>2021-07-15T08:17:20Z</time>
      </trkpt>
      <trkpt lat="37.00103" lon="-5.82958">
        <ele>54.32036</ele>
        <time>2021-07-15T08:17:31Z</time>
      </trkpt>
      <trkpt lat="36.99873" lon="-5.82884">
        <ele>60.3323</ele>
        <time>2021-07-15T08:17:42Z</time>
      </trkpt>
      <trkpt lat="36.99632" lon="-5.82867">
        <ele>57.18457</ele>
        <time>2021-07-15T08:17:53Z</time>
      </trkpt>
      <trkpt lat="36.99394" lon="-5.82854">
        <ele>60.73958</ele>
        <time>2021-07-15T08:18:04Z</time>
      </trkpt>
      <trkpt lat="36.99161" lon="-5.82887">
        <ele>66.11983</ele>
        <time>2021-07-15T08:18:15Z</time>
      </trkpt>
      <trkpt lat="36.98998" lon="-5.83058">
        <ele>64.61225</ele>
        <time>2021-07-15T08:18:26Z</time>
      </trkpt>
      <trkpt lat="36.98881" lon="-5.8335">
        <ele>55.92879</ele>
        <time>2021-07-15T08:18:37Z</time>
      </trkpt>
      <trkpt lat="36.98778" lon="-5.83633">
        <ele>39.74989</ele>
        <time>2021-07-15T08:18:48Z</time>
      </trkpt>
      <trkpt lat="36.98673" lon="-5.83912">
        <ele>47.64759</ele>
        <time>2021-07-15T08:18:59Z</time>
      </trkpt>
      <trkpt lat="36.98561" lon="-5.84187">
        <ele>54.03731</ele>
        <time>2021-07-15T08:19:10Z</time>
      </trkpt>
      <trkpt lat="36.98425" lon="-5.84425">
        <ele>59.08447</ele>
        <time>2021-07-15T08:19:21Z</time>
      </trkpt>
      <trkpt lat="36.98295" lon="-5.84616">
        <ele>59.14778</ele>
        <time>2021-07-15T08:19:32Z</time>
      </trkpt>
      <trkpt lat="36.98192" lon="-5.84873">
        <ele>64.14895</ele>
        <time>2021-07-15T08:19:43Z</time>
      </trkpt>
      <trkpt lat="36.98018" lon="-5.85074">
        <ele>66.0456</ele>
        <time>2021-07-15T08:19:54Z</time>
      </trkpt>
      <trkpt lat="36.9785" lon="-5.85298">
        <ele>55.3687</ele>
        <time>2021-07-15T08:20:05Z</time>
      </trkpt>
      <trkpt lat="36.97723" lon="-5.85562">
        <ele>50.9332</ele>
        <time>2021-07-15T08:20:16Z</time>
      </trkpt>
      <trkpt lat="36.97614" lon="-5.85831">
        <ele>57.79327</ele>
        <time>2021-07-15T08:20:27Z</time>
      </trkpt>
      <trkpt lat="36.97474" lon="-5.86082">
        <ele>55.87261</ele>
        <time>2021-07-15T08:20:38Z</time>
      </trkpt>
      <trkpt lat="36.97317" lon="-5.86327">
        <ele>41.74263</ele>
        <time>2021-07-15T08:20:49Z</time>
      </trkpt>
      <trkpt lat="36.97166" lon="-5.86562">
        <ele>43.80399</ele>
        <time>2021-07-15T08:21:00Z</time>
      </trkpt>
      <trkpt lat="36.97042" lon="-5.86766">
        <ele>50.77575</ele>
        <time>2021-07-15T08:21:11Z</time>
      </trkpt>
      <trkpt lat="36.96977" lon="-5.86877">
        <ele>53.35876</ele>
        <time>2021-07-15T08:21:22Z</time>
      </trkpt>
      <trkpt lat="36.96877" lon="-5.8708">
        <ele>52.81446</ele>
        <time>2021-07-15T08:21:33Z</time>
      </trkpt>
      <trkpt lat="36.96904" lon="-5.87229">
        <ele>52.53314</ele>
        <time>2021-07-15T08:21:44Z</time>
      </trkpt>
      <trkpt lat="36.96934" lon="-5.87137">
        <ele>59.96534</ele>
        <time>2021-07-15T08:21:55Z</time>
      </trkpt>
      <trkpt lat="36.96789" lon="-5.86972">
        <ele>56.46144</ele>
        <time>2021-07-15T08:22:06Z</time>
      </trkpt>
      <trkpt lat="36.96652" lon="-5.86729">
        <ele>61.01318</ele>
        <time>2021-07-15T08:22:17Z</time>
      </trkpt>
      <trkpt lat="36.96526" lon="-5.86523">
        <ele>74.53085</ele>
        <time>2021-07-15T08:22:28Z</time>
      </trkpt>
      <trkpt lat="36.96308" lon="-5.86479">
        <ele>80.43006</ele>
        <time>2021-07-15T08:22:39Z</time>
      </trkpt>
      <trkpt lat="36.96143" lon="-5.86339">
        <ele>81.1693</ele>
        <time>2021-07-15T08:22:50Z</time>
      </trkpt>
      <trkpt lat="36.96024" lon="-5.86083">
        <ele>82.10034</ele>
        <time>2021-07-15T08:23:01Z</time>
      </trkpt>
      <trkpt lat="36.95905" lon="-5.85828">
        <ele>83.97346</ele>
        <time>2021-07-15T08:23:12Z</time>
      </trkpt>
      <trkpt lat="36.95819" lon="-5.85541">
        <ele>83.5582</ele>
        <time>2021-07-15T08:23:23Z</time>
      </trkpt>
      <trkpt lat="36.9574" lon="-5.85259">
        <ele>90.05298</ele>
        <time>2021-07-15T08:23:34Z</time>
      </trkpt>
      <trkpt lat="36.95657" lon="-5.84978">
        <ele>88.655</ele>
        <time>2021-07-15T08:23:45Z</time>
      </trkpt>
      <trkpt lat="36.95577" lon="-5.84706">
        <ele>90.61356</ele>
        <time>2021-07-15T08:23:56Z</time>
      </trkpt>
      <trkpt lat="36.95497" lon="-5.84431">
        <ele>97.35391</ele>
        <time>2021-07-15T08:24:07Z</time>
      </trkpt>
      <trkpt lat="36.95455" lon="-5.84137">
        <ele>103.1731</ele>
        <time>2021-07-15T08:24:18Z</time>
      </trkpt>
      <trkpt lat="36.95409" lon="-5.83841">
        <ele>107.5416</ele>
        <time>2021-07-15T08:24:29Z</time>
      </trkpt>
      <trkpt lat="36.95359" lon="-5.8355">
        <ele>115.1862</ele>
        <time>2021-07-15T08:24:40Z</time>
      </trkpt>
      <trkpt lat="36.95308" lon="-5.83256">
        <ele>111.4494</ele>
        <time>2021-07-15T08:24:51Z</time>
      </trkpt>
      <trkpt lat="36.95253" lon="-5.8297">
        <ele>116.4611</ele>
        <time>2021-07-15T08:25:02Z</time>
      </trkpt>
      <trkpt lat="36.95211" lon="-5.82683">
        <ele>119.9121</ele>
        <time>2021-07-15T08:25:13Z</time>
      </trkpt>
      <trkpt lat="36.95196" lon="-5.82384">
        <ele>118.8325</ele>
        <time>2021-07-15T08:25:24Z</time>
      </trkpt>
      <trkpt lat="36.95181" lon="-5.82079">
        <ele>118.2504</ele>
        <time>2021-07-15T08:25:35Z</time>
      </trkpt>
      <trkpt lat="36.95167" lon="-5.81779">
        <ele>123.7987</ele>
        <time>2021-07-15T08:25:46Z</time>
      </trkpt>
      <trkpt lat="36.95118" lon="-5.81492">
        <ele>128.3398</ele>
        <time>2021-07-15T08:25:57Z</time>
      </trkpt>
      <trkpt lat="36.9494" lon="-5.81295">
        <ele>132.2198</ele>
        <time>2021-07-15T08:26:08Z</time>
      </trkpt>
      <trkpt lat="36.94752" lon="-5.81104">
        <ele>134.8394</ele>
        <time>2021-07-15T08:26:19Z</time>
      </trkpt>
      <trkpt lat="36.94564" lon="-5.80916">
        <ele>137.2406</ele>
        <time>2021-07-15T08:26:30Z</time>
      </trkpt>
      <trkpt lat="36.94365" lon="-5.80737">
        <ele>137.3395</ele>
        <time>2021-07-15T08:26:41Z</time>
      </trkpt>
      <trkpt lat="36.94161" lon="-5.80574">
        <ele>137.324</ele>
        <time>2021-07-15T08:26:52Z</time>
      </trkpt>
      <trkpt lat="36.93966" lon="-5.8045">
        <ele>134.1678</ele>
        <time>2021-07-15T08:27:03Z</time>
      </trkpt>
      <trkpt lat="36.9383" lon="-5.80209">
        <ele>126.2194</ele>
        <time>2021-07-15T08:27:14Z</time>
      </trkpt>
      <trkpt lat="36.93638" lon="-5.80077">
        <ele>126.0198</ele>
        <time>2021-07-15T08:27:25Z</time>
      </trkpt>
      <trkpt lat="36.93541" lon="-5.79809">
        <ele>128.7189</ele>
        <time>2021-07-15T08:27:36Z</time>
      </trkpt>
      <trkpt lat="36.93433" lon="-5.79548">
        <ele>128.4983</ele>
        <time>2021-07-15T08:27:47Z</time>
      </trkpt>
      <trkpt lat="36.93224" lon="-5.79419">
        <ele>135.2931</ele>
        <time>2021-07-15T08:27:58Z</time>
      </trkpt>
      <trkpt lat="36.93092" lon="-5.79208">
        <ele>149.71</ele>
        <time>2021-07-15T08:28:09Z</time>
      </trkpt>
      <trkpt lat="36.92977" lon="-5.78954">
        <ele>150.5072</ele>
        <time>2021-07-15T08:28:20Z</time>
      </trkpt>
      <trkpt lat="36.92895" lon="-5.7868">
        <ele>149.3675</ele>
        <time>2021-07-15T08:28:31Z</time>
      </trkpt>
      <trkpt lat="36.9276" lon="-5.78436">
        <ele>141.755</ele>
        <time>2021-07-15T08:28:42Z</time>
      </trkpt>
      <trkpt lat="36.9265" lon="-5.7817">
        <ele>129.0129</ele>
        <time>2021-07-15T08:28:53Z</time>
      </trkpt>
      <trkpt lat="36.92514" lon="-5.77926">
        <ele>116.441</ele>
        <time>2021-07-15T08:29:04Z</time>
      </trkpt>
      <trkpt lat="36.92443" lon="-5.77639">
        <ele>106.4275</ele>
        <time>2021-07-15T08:29:15Z</time>
      </trkpt>
      <trkpt lat="36.92337" lon="-5.77381">
        <ele>105.1535</ele>
        <time>2021-07-15T08:29:26Z</time>
      </trkpt>
      <trkpt lat="36.92142" lon="-5.77224">
        <ele>110.8294</ele>
        <time>2021-07-15T08:29:37Z</time>
      </trkpt>
      <trkpt lat="36.91991" lon="-5.77014">
        <ele>125.3972</ele>
        <time>2021-07-15T08:29:48Z</time>
      </trkpt>
      <trkpt lat="36.9194" lon="-5.76742">
        <ele>135.2335</ele>
        <time>2021-07-15T08:29:59Z</time>
      </trkpt>
      <trkpt lat="36.91945" lon="-5.76443">
        <ele>130.5267</ele>
        <time>2021-07-15T08:30:10Z</time>
      </trkpt>
      <trkpt lat="36.91858" lon="-5.76161">
        <ele>128.9367</ele>
        <time>2021-07-15T08:30:21Z</time>
      </trkpt>
      <trkpt lat="36.91729" lon="-5.75906">
        <ele>138.4665</ele>
        <time>2021-07-15T08:30:32Z</time>
      </trkpt>
      <trkpt lat="36.91564" lon="-5.75683">
        <ele>145.236</ele>
        <time>2021-07-15T08:30:43Z</time>
      </trkpt>
      <trkpt lat="36.91386" lon="-5.75482">
        <ele>157.6699</ele>
        <time>2021-07-15T08:30:54Z</time>
      </trkpt>
      <trkpt lat="36.91204" lon="-5.75276">
        <ele>153.1241</ele>
        <time>2021-07-15T08:31:05Z</time>
      </trkpt>
      <trkpt lat="36.91029" lon="-5.75043">
        <ele>146.3899</ele>
        <time>2021-07-15T08:31:16Z</time>
      </trkpt>
      <trkpt lat="36.90969" lon="-5.74745">
        <ele>152.6514</ele>
        <time>2021-07-15T08:31:27Z</time>
      </trkpt>
      <trkpt lat="36.91034" lon="-5.74438">
        <ele>156.9202</ele>
        <time>2021-07-15T08:31:38Z</time>
      </trkpt>
      <trkpt lat="36.91116" lon="-5.74135">
        <ele>159.6282</ele>
        <time>2021-07-15T08:31:49Z</time>
      </trkpt>
      <trkpt lat="36.91176" lon="-5.73854">
        <ele>154.5133</ele>
        <time>2021-07-15T08:32:00Z</time>
      </trkpt>
      <trkpt lat="36.9118" lon="-5.73536">
        <ele>151.7571</ele>
        <time>2021-07-15T08:32:11Z</time>
      </trkpt>
      <trkpt lat="36.91106" lon="-5.73208">
        <ele>148.9844</ele>
        <time>2021-07-15T08:32:22Z</time>
      </trkpt>
      <trkpt lat="36.90972" lon="-5.72937">
        <ele>139.335</ele>
        <time>2021-07-15T08:32:33Z</time>
      </trkpt>
      <trkpt lat="36.90805" lon="-5.7269">
        <ele>131.7618</ele>
        <time>2021-07-15T08:32:44Z</time>
      </trkpt>
      <trkpt lat="36.90645" lon="-5.72453">
        <ele>130.4269</ele>
        <time>2021-07-15T08:32:55Z</time>
      </trkpt>
      <trkpt lat="36.90479" lon="-5.72208">
        <ele>131.2698</ele>
        <time>2021-07-15T08:33:06Z</time>
      </trkpt>
      <trkpt lat="36.90307" lon="-5.71973">
        <ele>133.834</ele>
        <time>2021-07-15T08:33:17Z</time>
      </trkpt>
      <trkpt lat="36.9011" lon="-5.71777">
        <ele>135.2099</ele>
        <time>2021-07-15T08:33:28Z</time>
      </trkpt>
      <trkpt lat="36.89898" lon="-5.71606">
        <ele>135.7371</ele>
        <time>2021-07-15T08:33:39Z</time>
      </trkpt>
      <trkpt lat="36.89689" lon="-5.71438">
        <ele>138.293</ele>
        <time>2021-07-15T08:33:50Z</time>
      </trkpt>
      <trkpt lat="36.89502" lon="-5.71275">
        <ele>143.1446</ele>
        <time>2021-07-15T08:34:01Z</time>
      </trkpt>
      <trkpt lat="36.89308" lon="-5.71034">
        <ele>151.1287</ele>
        <time>2021-07-15T08:34:13Z</time>
      </trkpt>
      <trkpt lat="36.89153" lon="-5.70752">
        <ele>138.7825</ele>
        <time>2021-07-15T08:34:24Z</time>
      </trkpt>
      <trkpt lat="36.89023" lon="-5.7048">
        <ele>128.0287</ele>
        <time>2021-07-15T08:34:35Z</time>
      </trkpt>
      <trkpt lat="36.88861" lon="-5.70243">
        <ele>121.6757</ele>
        <time>2021-07-15T08:34:46Z</time>
      </trkpt>
      <trkpt lat="36.8869" lon="-5.70009">
        <ele>118.2357</ele>
        <time>2021-07-15T08:34:57Z</time>
      </trkpt>
      <trkpt lat="36.88518" lon="-5.69776">
        <ele>114.7831</ele>
        <time>2021-07-15T08:35:08Z</time>
      </trkpt>
      <trkpt lat="36.88355" lon="-5.69556">
        <ele>112.431</ele>
        <time>2021-07-15T08:35:19Z</time>
      </trkpt>
      <trkpt lat="36.88202" lon="-5.69347">
        <ele>110.5336</ele>
        <time>2021-07-15T08:35:30Z</time>
      </trkpt>
      <trkpt lat="36.88048" lon="-5.69137">
        <ele>110.018</ele>
        <time>2021-07-15T08:35:41Z</time>
      </trkpt>
      <trkpt lat="36.87885" lon="-5.68912">
        <ele>110.8606</ele>
        <time>2021-07-15T08:35:52Z</time>
      </trkpt>
      <trkpt lat="36.87716" lon="-5.68681">
        <ele>110.8229</ele>
        <time>2021-07-15T08:36:03Z</time>
      </trkpt>
      <trkpt lat="36.87559" lon="-5.68469">
        <ele>110.7036</ele>
        <time>2021-07-15T08:36:14Z</time>
      </trkpt>
      <trkpt lat="36.8739" lon="-5.68238">
        <ele>119.7093</ele>
        <time>2021-07-15T08:36:25Z</time>
      </trkpt>
      <trkpt lat="36.87221" lon="-5.68006">
        <ele>118.7376</ele>
        <time>2021-07-15T08:36:36Z</time>
      </trkpt>
      <trkpt lat="36.87023" lon="-5.67764">
        <ele>122.3806</ele>
        <time>2021-07-15T08:36:47Z</time>
      </trkpt>
      <trkpt lat="36.86818" lon="-5.67591">
        <ele>133.7231</ele>
        <time>2021-07-15T08:36:58Z</time>
      </trkpt>
      <trkpt lat="36.86586" lon="-5.67467">
        <ele>134.0496</ele>
        <time>2021-07-15T08:37:09Z</time>
      </trkpt>
      <trkpt lat="36.86337" lon="-5.67396">
        <ele>126.3613</ele>
        <time>2021-07-15T08:37:20Z</time>
      </trkpt>
      <trkpt lat="36.86084" lon="-5.67393">
        <ele>115.8612</ele>
        <time>2021-07-15T08:37:31Z</time>
      </trkpt>
      <trkpt lat="36.85839" lon="-5.67445">
        <ele>104.2563</ele>
        <time>2021-07-15T08:37:42Z</time>
      </trkpt>
      <trkpt lat="36.85609" lon="-5.6755">
        <ele>100.7134</ele>
        <time>2021-07-15T08:37:53Z</time>
      </trkpt>
      <trkpt lat="36.85424" lon="-5.67668">
        <ele>98.36889</ele>
        <time>2021-07-15T08:38:04Z</time>
      </trkpt>
      <trkpt lat="36.85325" lon="-5.67756">
        <ele>100.5079</ele>
        <time>2021-07-15T08:38:15Z</time>
      </trkpt>
      <trkpt lat="36.85162" lon="-5.67949">
        <ele>108.6753</ele>
        <time>2021-07-15T08:38:26Z</time>
      </trkpt>
      <trkpt lat="36.84954" lon="-5.68094">
        <ele>110.182</ele>
        <time>2021-07-15T08:38:37Z</time>
      </trkpt>
      <trkpt lat="36.84782" lon="-5.68286">
        <ele>108.0452</ele>
        <time>2021-07-15T08:38:48Z</time>
      </trkpt>
      <trkpt lat="36.8465" lon="-5.68503">
        <ele>112.3111</ele>
        <time>2021-07-15T08:38:59Z</time>
      </trkpt>
      <trkpt lat="36.84552" lon="-5.68732">
        <ele>112.8867</ele>
        <time>2021-07-15T08:39:10Z</time>
      </trkpt>
      <trkpt lat="36.84457" lon="-5.68953">
        <ele>110.5602</ele>
        <time>2021-07-15T08:39:21Z</time>
      </trkpt>
      <trkpt lat="36.84366" lon="-5.69183">
        <ele>107.2047</ele>
        <time>2021-07-15T08:39:32Z</time>
      </trkpt>
      <trkpt lat="36.84238" lon="-5.6947">
        <ele>109.9658</ele>
        <time>2021-07-15T08:39:43Z</time>
      </trkpt>
      <trkpt lat="36.84129" lon="-5.69732">
        <ele>107.4171</ele>
        <time>2021-07-15T08:39:54Z</time>
      </trkpt>
      <trkpt lat="36.84028" lon="-5.69989">
        <ele>105.4025</ele>
        <time>2021-07-15T08:40:05Z</time>
      </trkpt>
      <trkpt lat="36.84047" lon="-5.70272">
        <ele>107.1008</ele>
        <time>2021-07-15T08:40:16Z</time>
      </trkpt>
      <trkpt lat="36.84102" lon="-5.70566">
        <ele>103.6492</ele>
        <time>2021-07-15T08:40:27Z</time>
      </trkpt>
      <trkpt lat="36.84083" lon="-5.70863">
        <ele>103.8556</ele>
        <time>2021-07-15T08:40:38Z</time>
      </trkpt>
      <trkpt lat="36.84055" lon="-5.7116">
        <ele>104.3642</ele>
        <time>2021-07-15T08:40:49Z</time>
      </trkpt>
      <trkpt lat="36.83924" lon="-5.71405">
        <ele>102.5652</ele>
        <time>2021-07-15T08:41:00Z</time>
      </trkpt>
      <trkpt lat="36.83778" lon="-5.71634">
        <ele>102.8376</ele>
        <time>2021-07-15T08:41:11Z</time>
      </trkpt>
      <trkpt lat="36.83586" lon="-5.71781">
        <ele>101.2201</ele>
        <time>2021-07-15T08:41:22Z</time>
      </trkpt>
      <trkpt lat="36.8336" lon="-5.71835">
        <ele>103.781</ele>
        <time>2021-07-15T08:41:33Z</time>
      </trkpt>
      <trkpt lat="36.83196" lon="-5.72034">
        <ele>105.6187</ele>
        <time>2021-07-15T08:41:44Z</time>
      </trkpt>
      <trkpt lat="36.83095" lon="-5.72296">
        <ele>112.8034</ele>
        <time>2021-07-15T08:41:55Z</time>
      </trkpt>
      <trkpt lat="36.82996" lon="-5.72542">
        <ele>121.0454</ele>
        <time>2021-07-15T08:42:06Z</time>
      </trkpt>
      <trkpt lat="36.829" lon="-5.72782">
        <ele>117.7085</ele>
        <time>2021-07-15T08:42:17Z</time>
      </trkpt>
      <trkpt lat="36.82803" lon="-5.73025">
        <ele>122.2624</ele>
        <time>2021-07-15T08:42:28Z</time>
      </trkpt>
      <trkpt lat="36.8271" lon="-5.73275">
        <ele>123.1621</ele>
        <time>2021-07-15T08:42:39Z</time>
      </trkpt>
      <trkpt lat="36.82643" lon="-5.73539">
        <ele>119.8023</ele>
        <time>2021-07-15T08:42:50Z</time>
      </trkpt>
      <trkpt lat="36.82577" lon="-5.73801">
        <ele>124.1898</ele>
        <time>2021-07-15T08:43:01Z</time>
      </trkpt>
      <trkpt lat="36.8251" lon="-5.74055">
        <ele>132.5393</ele>
        <time>2021-07-15T08:43:12Z</time>
      </trkpt>
      <trkpt lat="36.82471" lon="-5.74216">
        <ele>138.0485</ele>
        <time>2021-07-15T08:43:23Z</time>
      </trkpt>
      <trkpt lat="36.82389" lon="-5.74196">
        <ele>130.934</ele>
        <time>2021-07-15T08:43:34Z</time>
      </trkpt>
      <trkpt lat="36.82323" lon="-5.74218">
        <ele>130.2858</ele>
        <time>2021-07-15T08:43:45Z</time>
      </trkpt>
      <trkpt lat="36.82273" lon="-5.74242">
        <ele>132.354</ele>
        <time>2021-07-15T08:43:56Z</time>
      </trkpt>
      <trkpt lat="36.8225" lon="-5.7426">
        <ele>133.7433</ele>
        <time>2021-07-15T08:44:07Z</time>
      </trkpt>
      <trkpt lat="36.82206" lon="-5.743">
        <ele>134.1523</ele>
        <time>2021-07-15T08:44:18Z</time>
      </trkpt>
      <trkpt lat="36.82151" lon="-5.74344">
        <ele>138.7444</ele>
        <time>2021-07-15T08:44:29Z</time>
      </trkpt>
      <trkpt lat="36.82089" lon="-5.74358">
        <ele>141.6077</ele>
        <time>2021-07-15T08:44:40Z</time>
      </trkpt>
      <trkpt lat="36.82025" lon="-5.74357">
        <ele>152.7198</ele>
        <time>2021-07-15T08:44:51Z</time>
      </trkpt>
      <trkpt lat="36.81966" lon="-5.74354">
        <ele>153.2289</ele>
        <time>2021-07-15T08:45:02Z</time>
      </trkpt>
      <trkpt lat="36.81927" lon="-5.7435">
        <ele>149.61</ele>
        <time>2021-07-15T08:45:13Z</time>
      </trkpt>
      <trkpt lat="36.81871" lon="-5.74347">
        <ele>146.996</ele>
        <time>2021-07-15T08:45:24Z</time>
      </trkpt>
      <trkpt lat="36.81824" lon="-5.74344">
        <ele>146.9073</ele>
        <time>2021-07-15T08:45:35Z</time>
      </trkpt>
      <trkpt lat="36.81776" lon="-5.74335">
        <ele>150.8183</ele>
        <time>2021-07-15T08:45:46Z</time>
      </trkpt>
      <trkpt lat="36.81737" lon="-5.74319">
        <ele>147.0442</ele>
        <time>2021-07-15T08:45:57Z</time>
      </trkpt>
      <trkpt lat="36.81668" lon="-5.74313">
        <ele>148.9801</ele>
        <time>2021-07-15T08:46:08Z</time>
      </trkpt>
      <trkpt lat="36.81608" lon="-5.74326">
        <ele>151.5004</ele>
        <time>2021-07-15T08:46:19Z</time>
      </trkpt>
      <trkpt lat="36.81562" lon="-5.74328">
        <ele>151.7249</ele>
        <time>2021-07-15T08:46:30Z</time>
      </trkpt>
      <trkpt lat="36.81519" lon="-5.74314">
        <ele>152.8145</ele>
        <time>2021-07-15T08:46:41Z</time>
      </trkpt>
      <trkpt lat="36.8148" lon="-5.74305">
        <ele>164.3063</ele>
        <time>2021-07-15T08:46:52Z</time>
      </trkpt>
      <trkpt lat="36.81437" lon="-5.74301">
        <ele>162.206</ele>
        <time>2021-07-15T08:47:03Z</time>
      </trkpt>
      <trkpt lat="36.81382" lon="-5.7431">
        <ele>152.0944</ele>
        <time>2021-07-15T08:47:14Z</time>
      </trkpt>
      <trkpt lat="36.81359" lon="-5.74298">
        <ele>151.5856</ele>
        <time>2021-07-15T08:47:25Z</time>
      </trkpt>
      <trkpt lat="36.81381" lon="-5.74287">
        <ele>146.8215</ele>
        <time>2021-07-15T08:47:36Z</time>
      </trkpt>
      <trkpt lat="36.81457" lon="-5.74262">
        <ele>148.7644</ele>
        <time>2021-07-15T08:47:47Z</time>
      </trkpt>
      <trkpt lat="36.81531" lon="-5.74265">
        <ele>153.1101</ele>
        <time>2021-07-15T08:47:58Z</time>
      </trkpt>
      <trkpt lat="36.81578" lon="-5.74279">
        <ele>145.5866</ele>
        <time>2021-07-15T08:48:09Z</time>
      </trkpt>
      <trkpt lat="36.81588" lon="-5.74227">
        <ele>141.7658</ele>
        <time>2021-07-15T08:48:20Z</time>
      </trkpt>
      <trkpt lat="36.81595" lon="-5.74191">
        <ele>141.939</ele>
        <time>2021-07-15T08:48:31Z</time>
      </trkpt>
      <trkpt lat="36.81597" lon="-5.74181">
        <ele>142.4565</ele>
        <time>2021-07-15T08:48:42Z</time>
      </trkpt>
      <trkpt lat="36.81599" lon="-5.74175">
        <ele>141.8873</ele>
        <time>2021-07-15T08:48:53Z</time>
      </trkpt>
      <trkpt lat="36.81659" lon="-5.74194">
        <ele>142.4413</ele>
        <time>2021-07-15T08:49:04Z</time>
      </trkpt>
      <trkpt lat="36.81701" lon="-5.74207">
        <ele>139.1398</ele>
        <time>2021-07-15T08:49:15Z</time>
      </trkpt>
      <trkpt lat="36.81741" lon="-5.74218">
        <ele>139.8906</ele>
        <time>2021-07-15T08:49:26Z</time>
      </trkpt>
      <trkpt lat="36.81752" lon="-5.74293">
        <ele>141.2759</ele>
        <time>2021-07-15T08:49:37Z</time>
      </trkpt>
      <trkpt lat="36.81754" lon="-5.74313">
        <ele>145.3458</ele>
        <time>2021-07-15T08:49:48Z</time>
      </trkpt>
      <trkpt lat="36.81785" lon="-5.74331">
        <ele>143.5136</ele>
        <time>2021-07-15T08:49:59Z</time>
      </trkpt>
      <trkpt lat="36.81846" lon="-5.74339">
        <ele>145.831</ele>
        <time>2021-07-15T08:50:10Z</time>
      </trkpt>
      <trkpt lat="36.81909" lon="-5.74342">
        <ele>153.0203</ele>
        <time>2021-07-15T08:50:21Z</time>
      </trkpt>
      <trkpt lat="36.81927" lon="-5.74344">
        <ele>155.7528</ele>
        <time>2021-07-15T08:50:32Z</time>
      </trkpt>
      <trkpt lat="36.81992" lon="-5.74348">
        <ele>153.9562</ele>
        <time>2021-07-15T08:50:43Z</time>
      </trkpt>
      <trkpt lat="36.82056" lon="-5.74351">
        <ele>153.9119</ele>
        <time>2021-07-15T08:50:54Z</time>
      </trkpt>
      <trkpt lat="36.82121" lon="-5.7435">
        <ele>161.8411</ele>
        <time>2021-07-15T08:51:05Z</time>
      </trkpt>
      <trkpt lat="36.82195" lon="-5.74309">
        <ele>149.7386</ele>
        <time>2021-07-15T08:51:16Z</time>
      </trkpt>
      <trkpt lat="36.82185" lon="-5.74289">
        <ele>149.0906</ele>
        <time>2021-07-15T08:51:27Z</time>
      </trkpt>
      <trkpt lat="36.82188" lon="-5.74292">
        <ele>140.6496</ele>
        <time>2021-07-15T08:52:19Z</time>
      </trkpt>
      <trkpt lat="36.82185" lon="-5.74289">
        <ele>142.9173</ele>
        <time>2021-07-15T08:52:50Z</time>
      </trkpt>
      <trkpt lat="36.82184" lon="-5.74283">
        <ele>142.4452</ele>
        <time>2021-07-15T08:53:03Z</time>
      </trkpt>
      <trkpt lat="36.82181" lon="-5.74286">
        <ele>139.8544</ele>
        <time>2021-07-15T08:53:23Z</time>
      </trkpt>
      <trkpt lat="36.82174" lon="-5.74278">
        <ele>145.4106</ele>
        <time>2021-07-15T08:53:34Z</time>
      </trkpt>
      <trkpt lat="36.8217" lon="-5.74277">
        <ele>137.2777</ele>
        <time>2021-07-15T08:53:55Z</time>
      </trkpt>
      <trkpt lat="36.82171" lon="-5.74281">
        <ele>137.7029</ele>
        <time>2021-07-15T08:54:08Z</time>
      </trkpt>
      <trkpt lat="36.82175" lon="-5.74284">
        <ele>138.4808</ele>
        <time>2021-07-15T08:54:26Z</time>
      </trkpt>
      <trkpt lat="36.82171" lon="-5.74282">
        <ele>138.5528</ele>
        <time>2021-07-15T08:54:52Z</time>
      </trkpt>
      <trkpt lat="36.82171" lon="-5.74276">
        <ele>138.024</ele>
        <time>2021-07-15T08:55:05Z</time>
      </trkpt>
      <trkpt lat="36.82169" lon="-5.74281">
        <ele>138.0889</ele>
        <time>2021-07-15T08:55:17Z</time>
      </trkpt>
      <trkpt lat="36.8217" lon="-5.7428">
        <ele>138.2862</ele>
        <time>2021-07-15T08:56:15Z</time>
      </trkpt>
      <trkpt lat="36.82169" lon="-5.74282">
        <ele>137.7836</ele>
        <time>2021-07-15T08:57:13Z</time>
      </trkpt>
      <trkpt lat="36.8217" lon="-5.74278">
        <ele>139.1595</ele>
        <time>2021-07-15T08:57:48Z</time>
      </trkpt>
      <trkpt lat="36.82169" lon="-5.74282">
        <ele>138.4724</ele>
        <time>2021-07-15T08:58:45Z</time>
      </trkpt>
      <trkpt lat="36.82171" lon="-5.74281">
        <ele>137.5256</ele>
        <time>2021-07-15T08:59:44Z</time>
      </trkpt>
      <trkpt lat="36.82169" lon="-5.74281">
        <ele>138.4635</ele>
        <time>2021-07-15T09:00:42Z</time>
      </trkpt>
      <trkpt lat="36.82173" lon="-5.74279">
        <ele>138.0835</ele>
        <time>2021-07-15T09:01:32Z</time>
      </trkpt>
      <trkpt lat="36.82171" lon="-5.74277">
        <ele>138.3621</ele>
        <time>2021-07-15T09:02:31Z</time>
      </trkpt>
      <trkpt lat="36.82172" lon="-5.74276">
        <ele>138.2719</ele>
        <time>2021-07-15T09:03:31Z</time>
      </trkpt>
      <trkpt lat="36.8217" lon="-5.74279">
        <ele>138.1499</ele>
        <time>2021-07-15T09:04:30Z</time>
      </trkpt>
      <trkpt lat="36.82167" lon="-5.74282">
        <ele>138.4511</ele>
        <time>2021-07-15T09:05:26Z</time>
      </trkpt>
      <trkpt lat="36.82168" lon="-5.74278">
        <ele>138.166</ele>
        <time>2021-07-15T09:05:42Z</time>
      </trkpt>
      <trkpt lat="36.82168" lon="-5.7428">
        <ele>137.9677</ele>
        <time>2021-07-15T09:06:41Z</time>
      </trkpt>
      <trkpt lat="36.82167" lon="-5.74276">
        <ele>138.2173</ele>
        <time>2021-07-15T09:07:02Z</time>
      </trkpt>
      <trkpt lat="36.8217" lon="-5.74273">
        <ele>137.9812</ele>
        <time>2021-07-15T09:07:30Z</time>
      </trkpt>
      <trkpt lat="36.82167" lon="-5.74275">
        <ele>139.1038</ele>
        <time>2021-07-15T09:08:12Z</time>
      </trkpt>
      <trkpt lat="36.82166" lon="-5.7428">
        <ele>138.1017</ele>
        <time>2021-07-15T09:08:39Z</time>
      </trkpt>
      <trkpt lat="36.82167" lon="-5.74275">
        <ele>138.5064</ele>
        <time>2021-07-15T09:09:21Z</time>
      </trkpt>
      <trkpt lat="36.82167" lon="-5.7428">
        <ele>138.0402</ele>
        <time>2021-07-15T09:10:08Z</time>
      </trkpt>
      <trkpt lat="36.8217" lon="-5.74279">
        <ele>138.8036</ele>
        <time>2021-07-15T09:11:07Z</time>
      </trkpt>
      <trkpt lat="36.82169" lon="-5.74275">
        <ele>139.5173</ele>
        <time>2021-07-15T09:11:33Z</time>
      </trkpt>
      <trkpt lat="36.82171" lon="-5.74272">
        <ele>138.3402</ele>
        <time>2021-07-15T09:12:26Z</time>
      </trkpt>
      <trkpt lat="36.82172" lon="-5.74272">
        <ele>136.8205</ele>
        <time>2021-07-15T09:13:25Z</time>
      </trkpt>
      <trkpt lat="36.82171" lon="-5.74277">
        <ele>138.1249</ele>
        <time>2021-07-15T09:14:14Z</time>
      </trkpt>
      <trkpt lat="36.82173" lon="-5.74283">
        <ele>138.4442</ele>
        <time>2021-07-15T09:14:38Z</time>
      </trkpt>
      <trkpt lat="36.82169" lon="-5.74281">
        <ele>138.0925</ele>
        <time>2021-07-15T09:14:49Z</time>
      </trkpt>
      <trkpt lat="36.82168" lon="-5.74277">
        <ele>138.8588</ele>
        <time>2021-07-15T09:15:15Z</time>
      </trkpt>
      <trkpt lat="36.82168" lon="-5.74283">
        <ele>138.2391</ele>
        <time>2021-07-15T09:15:50Z</time>
      </trkpt>
      <trkpt lat="36.8217" lon="-5.74279">
        <ele>138.2561</ele>
        <time>2021-07-15T09:16:08Z</time>
      </trkpt>
      <trkpt lat="36.82172" lon="-5.74274">
        <ele>137.7704</ele>
        <time>2021-07-15T09:16:19Z</time>
      </trkpt>
      <trkpt lat="36.82171" lon="-5.74273">
        <ele>137.5424</ele>
        <time>2021-07-15T09:17:18Z</time>
      </trkpt>
      <trkpt lat="36.82174" lon="-5.7427">
        <ele>138.1017</ele>
        <time>2021-07-15T09:17:34Z</time>
      </trkpt>
      <trkpt lat="36.82173" lon="-5.74275">
        <ele>138.1283</ele>
        <time>2021-07-15T09:17:49Z</time>
      </trkpt>
      <trkpt lat="36.82171" lon="-5.7428">
        <ele>137.7722</ele>
        <time>2021-07-15T09:18:27Z</time>
      </trkpt>
      <trkpt lat="36.8217" lon="-5.74281">
        <ele>137.6545</ele>
        <time>2021-07-15T09:19:26Z</time>
      </trkpt>
      <trkpt lat="36.82174" lon="-5.74287">
        <ele>139.0462</ele>
        <time>2021-07-15T09:20:02Z</time>
      </trkpt>
      <trkpt lat="36.82174" lon="-5.74281">
        <ele>138.4836</ele>
        <time>2021-07-15T09:20:13Z</time>
      </trkpt>
      <trkpt lat="36.82178" lon="-5.74282">
        <ele>138.5959</ele>
        <time>2021-07-15T09:20:47Z</time>
      </trkpt>
      <trkpt lat="36.82183" lon="-5.74293">
        <ele>134.3562</ele>
        <time>2021-07-15T09:21:36Z</time>
      </trkpt>
      <trkpt lat="36.82178" lon="-5.74273">
        <ele>137.4082</ele>
        <time>2021-07-15T09:21:47Z</time>
      </trkpt>
      <trkpt lat="36.8217" lon="-5.74276">
        <ele>137.2659</ele>
        <time>2021-07-15T09:21:58Z</time>
      </trkpt>
      <trkpt lat="36.82172" lon="-5.74277">
        <ele>138.817</ele>
        <time>2021-07-15T09:22:57Z</time>
      </trkpt>
      <trkpt lat="36.82172" lon="-5.7428">
        <ele>137.933</ele>
        <time>2021-07-15T09:23:57Z</time>
      </trkpt>
      <trkpt lat="36.82176" lon="-5.74282">
        <ele>138.378</ele>
        <time>2021-07-15T09:24:45Z</time>
      </trkpt>
      <trkpt lat="36.82187" lon="-5.74287">
        <ele>137.5559</ele>
        <time>2021-07-15T09:24:56Z</time>
      </trkpt>
      <trkpt lat="36.82192" lon="-5.74287">
        <ele>137.9907</ele>
        <time>2021-07-15T09:25:19Z</time>
      </trkpt>
      <trkpt lat="36.82192" lon="-5.7429">
        <ele>138.3712</ele>
        <time>2021-07-15T09:26:19Z</time>
      </trkpt>
      <trkpt lat="36.82195" lon="-5.74288">
        <ele>138.2344</ele>
        <time>2021-07-15T09:27:04Z</time>
      </trkpt>
      <trkpt lat="36.82199" lon="-5.74292">
        <ele>137.8366</ele>
        <time>2021-07-15T09:27:15Z</time>
      </trkpt>
      <trkpt lat="36.82202" lon="-5.74296">
        <ele>138.4067</ele>
        <time>2021-07-15T09:27:26Z</time>
      </trkpt>
      <trkpt lat="36.82163" lon="-5.74338">
        <ele>142.9503</ele>
        <time>2021-07-15T09:27:37Z</time>
      </trkpt>
      <trkpt lat="36.82093" lon="-5.74355">
        <ele>144.1676</ele>
        <time>2021-07-15T09:27:48Z</time>
      </trkpt>
      <trkpt lat="36.82078" lon="-5.74428">
        <ele>151.0866</ele>
        <time>2021-07-15T09:27:59Z</time>
      </trkpt>
      <trkpt lat="36.82072" lon="-5.74503">
        <ele>158.4571</ele>
        <time>2021-07-15T09:28:10Z</time>
      </trkpt>
      <trkpt lat="36.82119" lon="-5.74521">
        <ele>164.2899</ele>
        <time>2021-07-15T09:28:21Z</time>
      </trkpt>
      <trkpt lat="36.82132" lon="-5.7453">
        <ele>165.5846</ele>
        <time>2021-07-15T09:28:32Z</time>
      </trkpt>
      <trkpt lat="36.82132" lon="-5.74524">
        <ele>166.2404</ele>
        <time>2021-07-15T09:28:58Z</time>
      </trkpt>
      <trkpt lat="36.82028" lon="-5.74622">
        <ele>172.6841</ele>
        <time>2021-07-15T09:29:09Z</time>
      </trkpt>
      <trkpt lat="36.81852" lon="-5.74746">
        <ele>181.6943</ele>
        <time>2021-07-15T09:29:20Z</time>
      </trkpt>
      <trkpt lat="36.81667" lon="-5.74865">
        <ele>193.7055</ele>
        <time>2021-07-15T09:29:31Z</time>
      </trkpt>
      <trkpt lat="36.81469" lon="-5.74954">
        <ele>202.2903</ele>
        <time>2021-07-15T09:29:42Z</time>
      </trkpt>
      <trkpt lat="36.81319" lon="-5.75133">
        <ele>216.9977</ele>
        <time>2021-07-15T09:29:53Z</time>
      </trkpt>
      <trkpt lat="36.81247" lon="-5.7541">
        <ele>231.0763</ele>
        <time>2021-07-15T09:30:04Z</time>
      </trkpt>
      <trkpt lat="36.81388" lon="-5.75677">
        <ele>249.4877</ele>
        <time>2021-07-15T09:30:15Z</time>
      </trkpt>
      <trkpt lat="36.81549" lon="-5.75914">
        <ele>254.485</ele>
        <time>2021-07-15T09:30:26Z</time>
      </trkpt>
      <trkpt lat="36.81631" lon="-5.76214">
        <ele>247.9569</ele>
        <time>2021-07-15T09:30:37Z</time>
      </trkpt>
      <trkpt lat="36.81654" lon="-5.76497">
        <ele>246.3443</ele>
        <time>2021-07-15T09:30:48Z</time>
      </trkpt>
      <trkpt lat="36.81664" lon="-5.76838">
        <ele>242.4178</ele>
        <time>2021-07-15T09:30:59Z</time>
      </trkpt>
      <trkpt lat="36.81623" lon="-5.7714">
        <ele>231.4692</ele>
        <time>2021-07-15T09:31:10Z</time>
      </trkpt>
      <trkpt lat="36.8142" lon="-5.77322">
        <ele>219.7705</ele>
        <time>2021-07-15T09:31:21Z</time>
      </trkpt>
      <trkpt lat="36.81243" lon="-5.77568">
        <ele>202.7252</ele>
        <time>2021-07-15T09:31:32Z</time>
      </trkpt>
      <trkpt lat="36.81236" lon="-5.77853">
        <ele>184.3494</ele>
        <time>2021-07-15T09:31:43Z</time>
      </trkpt>
      <trkpt lat="36.81299" lon="-5.78117">
        <ele>170.2619</ele>
        <time>2021-07-15T09:31:54Z</time>
      </trkpt>
      <trkpt lat="36.81243" lon="-5.78388">
        <ele>155.8408</ele>
        <time>2021-07-15T09:32:05Z</time>
      </trkpt>
      <trkpt lat="36.81046" lon="-5.78535">
        <ele>139.5713</ele>
        <time>2021-07-15T09:32:16Z</time>
      </trkpt>
      <trkpt lat="36.80836" lon="-5.7868">
        <ele>126.1821</ele>
        <time>2021-07-15T09:32:27Z</time>
      </trkpt>
      <trkpt lat="36.80623" lon="-5.78807">
        <ele>116.6391</ele>
        <time>2021-07-15T09:32:38Z</time>
      </trkpt>
      <trkpt lat="36.80431" lon="-5.78922">
        <ele>106.9263</ele>
        <time>2021-07-15T09:32:49Z</time>
      </trkpt>
      <trkpt lat="36.80247" lon="-5.79034">
        <ele>102.7065</ele>
        <time>2021-07-15T09:33:00Z</time>
      </trkpt>
      <trkpt lat="36.80062" lon="-5.79145">
        <ele>96.93608</ele>
        <time>2021-07-15T09:33:11Z</time>
      </trkpt>
      <trkpt lat="36.79867" lon="-5.79264">
        <ele>92.69374</ele>
        <time>2021-07-15T09:33:22Z</time>
      </trkpt>
      <trkpt lat="36.79673" lon="-5.79379">
        <ele>88.46754</ele>
        <time>2021-07-15T09:33:33Z</time>
      </trkpt>
      <trkpt lat="36.79464" lon="-5.79506">
        <ele>89.28917</ele>
        <time>2021-07-15T09:33:44Z</time>
      </trkpt>
      <trkpt lat="36.79263" lon="-5.79627">
        <ele>92.68608</ele>
        <time>2021-07-15T09:33:55Z</time>
      </trkpt>
      <trkpt lat="36.79062" lon="-5.7975">
        <ele>97.13283</ele>
        <time>2021-07-15T09:34:06Z</time>
      </trkpt>
      <trkpt lat="36.78824" lon="-5.7989">
        <ele>101.064</ele>
        <time>2021-07-15T09:34:17Z</time>
      </trkpt>
      <trkpt lat="36.78598" lon="-5.80029">
        <ele>107.7312</ele>
        <time>2021-07-15T09:34:28Z</time>
      </trkpt>
      <trkpt lat="36.78388" lon="-5.80155">
        <ele>112.2262</ele>
        <time>2021-07-15T09:34:39Z</time>
      </trkpt>
      <trkpt lat="36.78188" lon="-5.80298">
        <ele>113.6148</ele>
        <time>2021-07-15T09:34:50Z</time>
      </trkpt>
      <trkpt lat="36.78022" lon="-5.80521">
        <ele>106.8288</ele>
        <time>2021-07-15T09:35:01Z</time>
      </trkpt>
      <trkpt lat="36.77869" lon="-5.8075">
        <ele>98.67682</ele>
        <time>2021-07-15T09:35:12Z</time>
      </trkpt>
      <trkpt lat="36.77691" lon="-5.80938">
        <ele>93.67528</ele>
        <time>2021-07-15T09:35:23Z</time>
      </trkpt>
      <trkpt lat="36.77614" lon="-5.81117">
        <ele>99.0415</ele>
        <time>2021-07-15T09:35:34Z</time>
      </trkpt>
      <trkpt lat="36.77576" lon="-5.81101">
        <ele>99.05629</ele>
        <time>2021-07-15T09:35:45Z</time>
      </trkpt>
      <trkpt lat="36.77481" lon="-5.80971">
        <ele>100.6353</ele>
        <time>2021-07-15T09:35:56Z</time>
      </trkpt>
      <trkpt lat="36.77353" lon="-5.80922">
        <ele>101.031</ele>
        <time>2021-07-15T09:36:07Z</time>
      </trkpt>
      <trkpt lat="36.7718" lon="-5.80891">
        <ele>110.2373</ele>
        <time>2021-07-15T09:36:18Z</time>
      </trkpt>
      <trkpt lat="36.77022" lon="-5.80826">
        <ele>120.5825</ele>
        <time>2021-07-15T09:36:29Z</time>
      </trkpt>
      <trkpt lat="36.76848" lon="-5.80818">
        <ele>121.6278</ele>
        <time>2021-07-15T09:36:40Z</time>
      </trkpt>
      <trkpt lat="36.76716" lon="-5.80757">
        <ele>122.1728</ele>
        <time>2021-07-15T09:36:51Z</time>
      </trkpt>
      <trkpt lat="36.76554" lon="-5.80783">
        <ele>124.4208</ele>
        <time>2021-07-15T09:37:02Z</time>
      </trkpt>
      <trkpt lat="36.76339" lon="-5.80824">
        <ele>129.0547</ele>
        <time>2021-07-15T09:37:13Z</time>
      </trkpt>
      <trkpt lat="36.76164" lon="-5.80858">
        <ele>134.4121</ele>
        <time>2021-07-15T09:37:24Z</time>
      </trkpt>
      <trkpt lat="36.7604" lon="-5.80902">
        <ele>140.4711</ele>
        <time>2021-07-15T09:37:35Z</time>
      </trkpt>
      <trkpt lat="36.76017" lon="-5.8107">
        <ele>151.7727</ele>
        <time>2021-07-15T09:37:46Z</time>
      </trkpt>
      <trkpt lat="36.76051" lon="-5.81159">
        <ele>161.0236</ele>
        <time>2021-07-15T09:37:57Z</time>
      </trkpt>
      <trkpt lat="36.76078" lon="-5.8126">
        <ele>168.3991</ele>
        <time>2021-07-15T09:38:08Z</time>
      </trkpt>
      <trkpt lat="36.76048" lon="-5.81414">
        <ele>177.3835</ele>
        <time>2021-07-15T09:38:19Z</time>
      </trkpt>
      <trkpt lat="36.75953" lon="-5.81569">
        <ele>182.4078</ele>
        <time>2021-07-15T09:38:30Z</time>
      </trkpt>
      <trkpt lat="36.7585" lon="-5.81686">
        <ele>188.4091</ele>
        <time>2021-07-15T09:38:41Z</time>
      </trkpt>
      <trkpt lat="36.75822" lon="-5.81717">
        <ele>190.3116</ele>
        <time>2021-07-15T09:38:52Z</time>
      </trkpt>
      <trkpt lat="36.75819" lon="-5.81719">
        <ele>192.6048</ele>
        <time>2021-07-15T09:39:05Z</time>
      </trkpt>
      <trkpt lat="36.75784" lon="-5.81773">
        <ele>193.1282</ele>
        <time>2021-07-15T09:39:16Z</time>
      </trkpt>
      <trkpt lat="36.75721" lon="-5.81836">
        <ele>190.9783</ele>
        <time>2021-07-15T09:39:27Z</time>
      </trkpt>
      <trkpt lat="36.7565" lon="-5.81916">
        <ele>191.0924</ele>
        <time>2021-07-15T09:39:38Z</time>
      </trkpt>
      <trkpt lat="36.75586" lon="-5.8199">
        <ele>187.5144</ele>
        <time>2021-07-15T09:39:49Z</time>
      </trkpt>
      <trkpt lat="36.75564" lon="-5.82024">
        <ele>186.8924</ele>
        <time>2021-07-15T09:40:00Z</time>
      </trkpt>
      <trkpt lat="36.75482" lon="-5.82102">
        <ele>180.5397</ele>
        <time>2021-07-15T09:40:11Z</time>
      </trkpt>
      <trkpt lat="36.75362" lon="-5.8216">
        <ele>175.0569</ele>
        <time>2021-07-15T09:40:22Z</time>
      </trkpt>
      <trkpt lat="36.75247" lon="-5.82144">
        <ele>167.0116</ele>
        <time>2021-07-15T09:40:33Z</time>
      </trkpt>
      <trkpt lat="36.75099" lon="-5.8212">
        <ele>159.4389</ele>
        <time>2021-07-15T09:40:44Z</time>
      </trkpt>
      <trkpt lat="36.7496" lon="-5.82166">
        <ele>146.811</ele>
        <time>2021-07-15T09:40:55Z</time>
      </trkpt>
      <trkpt lat="36.74885" lon="-5.82222">
        <ele>144.6491</ele>
        <time>2021-07-15T09:41:06Z</time>
      </trkpt>
      <trkpt lat="36.74772" lon="-5.82273">
        <ele>144.0865</ele>
        <time>2021-07-15T09:41:17Z</time>
      </trkpt>
      <trkpt lat="36.74689" lon="-5.82368">
        <ele>141.6948</ele>
        <time>2021-07-15T09:41:28Z</time>
      </trkpt>
      <trkpt lat="36.74649" lon="-5.82441">
        <ele>139.7741</ele>
        <time>2021-07-15T09:41:39Z</time>
      </trkpt>
      <trkpt lat="36.74558" lon="-5.82378">
        <ele>138.4507</ele>
        <time>2021-07-15T09:41:50Z</time>
      </trkpt>
      <trkpt lat="36.74374" lon="-5.82438">
        <ele>130.9636</ele>
        <time>2021-07-15T09:42:01Z</time>
      </trkpt>
      <trkpt lat="36.74177" lon="-5.82483">
        <ele>132.7282</ele>
        <time>2021-07-15T09:42:12Z</time>
      </trkpt>
      <trkpt lat="36.74003" lon="-5.82376">
        <ele>143.3473</ele>
        <time>2021-07-15T09:42:23Z</time>
      </trkpt>
      <trkpt lat="36.73806" lon="-5.82395">
        <ele>140.64</ele>
        <time>2021-07-15T09:42:34Z</time>
      </trkpt>
      <trkpt lat="36.73591" lon="-5.82443">
        <ele>142.9325</ele>
        <time>2021-07-15T09:42:45Z</time>
      </trkpt>
      <trkpt lat="36.73389" lon="-5.82382">
        <ele>150.8675</ele>
        <time>2021-07-15T09:42:56Z</time>
      </trkpt>
      <trkpt lat="36.73191" lon="-5.82518">
        <ele>151.1967</ele>
        <time>2021-07-15T09:43:07Z</time>
      </trkpt>
      <trkpt lat="36.72978" lon="-5.82649">
        <ele>153.7975</ele>
        <time>2021-07-15T09:43:18Z</time>
      </trkpt>
      <trkpt lat="36.72843" lon="-5.82878">
        <ele>140.0445</ele>
        <time>2021-07-15T09:43:29Z</time>
      </trkpt>
      <trkpt lat="36.72734" lon="-5.83147">
        <ele>126.5487</ele>
        <time>2021-07-15T09:43:40Z</time>
      </trkpt>
      <trkpt lat="36.72514" lon="-5.83218">
        <ele>127.6031</ele>
        <time>2021-07-15T09:43:51Z</time>
      </trkpt>
      <trkpt lat="36.72277" lon="-5.83261">
        <ele>116.1316</ele>
        <time>2021-07-15T09:44:02Z</time>
      </trkpt>
      <trkpt lat="36.72111" lon="-5.83491">
        <ele>102.9045</ele>
        <time>2021-07-15T09:44:13Z</time>
      </trkpt>
      <trkpt lat="36.72084" lon="-5.83805">
        <ele>91.28634</ele>
        <time>2021-07-15T09:44:24Z</time>
      </trkpt>
      <trkpt lat="36.71914" lon="-5.84041">
        <ele>70.41318</ele>
        <time>2021-07-15T09:44:35Z</time>
      </trkpt>
      <trkpt lat="36.71724" lon="-5.84248">
        <ele>60.88338</ele>
        <time>2021-07-15T09:44:46Z</time>
      </trkpt>
      <trkpt lat="36.71585" lon="-5.84498">
        <ele>49.67671</ele>
        <time>2021-07-15T09:44:57Z</time>
      </trkpt>
      <trkpt lat="36.7138" lon="-5.84694">
        <ele>37.53301</ele>
        <time>2021-07-15T09:45:08Z</time>
      </trkpt>
      <trkpt lat="36.71174" lon="-5.84891">
        <ele>38.59215</ele>
        <time>2021-07-15T09:45:19Z</time>
      </trkpt>
      <trkpt lat="36.7097" lon="-5.85063">
        <ele>37.56876</ele>
        <time>2021-07-15T09:45:30Z</time>
      </trkpt>
      <trkpt lat="36.70757" lon="-5.85203">
        <ele>37.34589</ele>
        <time>2021-07-15T09:45:41Z</time>
      </trkpt>
      <trkpt lat="36.70542" lon="-5.85342">
        <ele>36.91034</ele>
        <time>2021-07-15T09:45:52Z</time>
      </trkpt>
      <trkpt lat="36.7033" lon="-5.8549">
        <ele>38.9844</ele>
        <time>2021-07-15T09:46:03Z</time>
      </trkpt>
      <trkpt lat="36.70136" lon="-5.85647">
        <ele>35.46887</ele>
        <time>2021-07-15T09:46:14Z</time>
      </trkpt>
      <trkpt lat="36.69997" lon="-5.85762">
        <ele>34.82709</ele>
        <time>2021-07-15T09:46:25Z</time>
      </trkpt>
      <trkpt lat="36.69861" lon="-5.85869">
        <ele>36.47431</ele>
        <time>2021-07-15T09:46:36Z</time>
      </trkpt>
      <trkpt lat="36.6971" lon="-5.8593">
        <ele>32.86132</ele>
        <time>2021-07-15T09:46:47Z</time>
      </trkpt>
      <trkpt lat="36.6955" lon="-5.85951">
        <ele>35.49933</ele>
        <time>2021-07-15T09:46:58Z</time>
      </trkpt>
      <trkpt lat="36.69341" lon="-5.85863">
        <ele>36.89067</ele>
        <time>2021-07-15T09:47:09Z</time>
      </trkpt>
      <trkpt lat="36.69112" lon="-5.85747">
        <ele>40.99684</ele>
        <time>2021-07-15T09:47:20Z</time>
      </trkpt>
      <trkpt lat="36.68937" lon="-5.8559">
        <ele>45.7184</ele>
        <time>2021-07-15T09:47:31Z</time>
      </trkpt>
      <trkpt lat="36.68764" lon="-5.85396">
        <ele>59.42674</ele>
        <time>2021-07-15T09:47:42Z</time>
      </trkpt>
      <trkpt lat="36.68541" lon="-5.85356">
        <ele>78.63763</ele>
        <time>2021-07-15T09:47:53Z</time>
      </trkpt>
      <trkpt lat="36.68302" lon="-5.85347">
        <ele>79.9572</ele>
        <time>2021-07-15T09:48:04Z</time>
      </trkpt>
      <trkpt lat="36.68064" lon="-5.8533">
        <ele>74.59212</ele>
        <time>2021-07-15T09:48:15Z</time>
      </trkpt>
      <trkpt lat="36.67824" lon="-5.85313">
        <ele>72.94157</ele>
        <time>2021-07-15T09:48:26Z</time>
      </trkpt>
      <trkpt lat="36.67584" lon="-5.85329">
        <ele>72.51939</ele>
        <time>2021-07-15T09:48:37Z</time>
      </trkpt>
      <trkpt lat="36.67343" lon="-5.85373">
        <ele>66.97052</ele>
        <time>2021-07-15T09:48:48Z</time>
      </trkpt>
      <trkpt lat="36.67102" lon="-5.85414">
        <ele>62.93273</ele>
        <time>2021-07-15T09:48:59Z</time>
      </trkpt>
      <trkpt lat="36.66879" lon="-5.85457">
        <ele>62.19371</ele>
        <time>2021-07-15T09:49:10Z</time>
      </trkpt>
      <trkpt lat="36.66649" lon="-5.85498">
        <ele>64.41546</ele>
        <time>2021-07-15T09:49:21Z</time>
      </trkpt>
      <trkpt lat="36.66423" lon="-5.85541">
        <ele>67.88598</ele>
        <time>2021-07-15T09:49:32Z</time>
      </trkpt>
      <trkpt lat="36.66226" lon="-5.85575">
        <ele>69.42935</ele>
        <time>2021-07-15T09:49:43Z</time>
      </trkpt>
      <trkpt lat="36.65983" lon="-5.85617">
        <ele>69.05899</ele>
        <time>2021-07-15T09:49:54Z</time>
      </trkpt>
      <trkpt lat="36.6576" lon="-5.85658">
        <ele>70.99233</ele>
        <time>2021-07-15T09:50:05Z</time>
      </trkpt>
      <trkpt lat="36.65546" lon="-5.85696">
        <ele>70.1707</ele>
        <time>2021-07-15T09:50:16Z</time>
      </trkpt>
      <trkpt lat="36.65327" lon="-5.85736">
        <ele>72.83429</ele>
        <time>2021-07-15T09:50:27Z</time>
      </trkpt>
      <trkpt lat="36.65105" lon="-5.85776">
        <ele>74.46516</ele>
        <time>2021-07-15T09:50:38Z</time>
      </trkpt>
      <trkpt lat="36.64876" lon="-5.85816">
        <ele>74.01987</ele>
        <time>2021-07-15T09:50:49Z</time>
      </trkpt>
      <trkpt lat="36.64642" lon="-5.8583">
        <ele>74.41351</ele>
        <time>2021-07-15T09:51:00Z</time>
      </trkpt>
      <trkpt lat="36.64409" lon="-5.85795">
        <ele>72.07388</ele>
        <time>2021-07-15T09:51:11Z</time>
      </trkpt>
      <trkpt lat="36.64171" lon="-5.85766">
        <ele>69.31555</ele>
        <time>2021-07-15T09:51:22Z</time>
      </trkpt>
      <trkpt lat="36.63927" lon="-5.85713">
        <ele>72.77212</ele>
        <time>2021-07-15T09:51:33Z</time>
      </trkpt>
      <trkpt lat="36.63708" lon="-5.8567">
        <ele>76.55285</ele>
        <time>2021-07-15T09:51:44Z</time>
      </trkpt>
      <trkpt lat="36.63448" lon="-5.85624">
        <ele>77.13138</ele>
        <time>2021-07-15T09:51:55Z</time>
      </trkpt>
      <trkpt lat="36.63223" lon="-5.85586">
        <ele>84.24735</ele>
        <time>2021-07-15T09:52:06Z</time>
      </trkpt>
      <trkpt lat="36.62994" lon="-5.8555">
        <ele>82.63749</ele>
        <time>2021-07-15T09:52:17Z</time>
      </trkpt>
      <trkpt lat="36.62784" lon="-5.85546">
        <ele>83.42132</ele>
        <time>2021-07-15T09:52:28Z</time>
      </trkpt>
      <trkpt lat="36.6258" lon="-5.85539">
        <ele>85.93661</ele>
        <time>2021-07-15T09:52:39Z</time>
      </trkpt>
      <trkpt lat="36.62349" lon="-5.85537">
        <ele>85.19076</ele>
        <time>2021-07-15T09:52:50Z</time>
      </trkpt>
      <trkpt lat="36.62114" lon="-5.85529">
        <ele>85.53378</ele>
        <time>2021-07-15T09:53:01Z</time>
      </trkpt>
      <trkpt lat="36.61877" lon="-5.85524">
        <ele>88.1818</ele>
        <time>2021-07-15T09:53:12Z</time>
      </trkpt>
      <trkpt lat="36.61633" lon="-5.85516">
        <ele>90.47708</ele>
        <time>2021-07-15T09:53:23Z</time>
      </trkpt>
      <trkpt lat="36.61383" lon="-5.85508">
        <ele>89.36027</ele>
        <time>2021-07-15T09:53:34Z</time>
      </trkpt>
      <trkpt lat="36.6114" lon="-5.85501">
        <ele>91.34707</ele>
        <time>2021-07-15T09:53:45Z</time>
      </trkpt>
      <trkpt lat="36.60922" lon="-5.85497">
        <ele>94.43353</ele>
        <time>2021-07-15T09:53:56Z</time>
      </trkpt>
      <trkpt lat="36.60679" lon="-5.85468">
        <ele>93.34767</ele>
        <time>2021-07-15T09:54:07Z</time>
      </trkpt>
      <trkpt lat="36.60423" lon="-5.8538">
        <ele>93.34777</ele>
        <time>2021-07-15T09:54:18Z</time>
      </trkpt>
      <trkpt lat="36.60187" lon="-5.85335">
        <ele>94.48474</ele>
        <time>2021-07-15T09:54:29Z</time>
      </trkpt>
      <trkpt lat="36.5995" lon="-5.85325">
        <ele>101.4064</ele>
        <time>2021-07-15T09:54:40Z</time>
      </trkpt>
      <trkpt lat="36.59729" lon="-5.85225">
        <ele>105.1736</ele>
        <time>2021-07-15T09:54:51Z</time>
      </trkpt>
      <trkpt lat="36.59501" lon="-5.85218">
        <ele>106.4395</ele>
        <time>2021-07-15T09:55:02Z</time>
      </trkpt>
      <trkpt lat="36.5928" lon="-5.85216">
        <ele>112.5795</ele>
        <time>2021-07-15T09:55:13Z</time>
      </trkpt>
      <trkpt lat="36.59045" lon="-5.85235">
        <ele>119.6911</ele>
        <time>2021-07-15T09:55:24Z</time>
      </trkpt>
      <trkpt lat="36.58805" lon="-5.85291">
        <ele>122.7378</ele>
        <time>2021-07-15T09:55:35Z</time>
      </trkpt>
      <trkpt lat="36.58561" lon="-5.85346">
        <ele>125.5515</ele>
        <time>2021-07-15T09:55:46Z</time>
      </trkpt>
      <trkpt lat="36.58339" lon="-5.85397">
        <ele>128.5131</ele>
        <time>2021-07-15T09:55:57Z</time>
      </trkpt>
      <trkpt lat="36.58072" lon="-5.85459">
        <ele>132.0098</ele>
        <time>2021-07-15T09:56:09Z</time>
      </trkpt>
      <trkpt lat="36.57856" lon="-5.85592">
        <ele>132.1187</ele>
        <time>2021-07-15T09:56:20Z</time>
      </trkpt>
      <trkpt lat="36.57686" lon="-5.85747">
        <ele>130.9441</ele>
        <time>2021-07-15T09:56:31Z</time>
      </trkpt>
      <trkpt lat="36.575" lon="-5.85897">
        <ele>128.116</ele>
        <time>2021-07-15T09:56:42Z</time>
      </trkpt>
      <trkpt lat="36.57292" lon="-5.85981">
        <ele>118.9731</ele>
        <time>2021-07-15T09:56:53Z</time>
      </trkpt>
      <trkpt lat="36.57115" lon="-5.86161">
        <ele>104.9088</ele>
        <time>2021-07-15T09:57:04Z</time>
      </trkpt>
      <trkpt lat="36.56915" lon="-5.86297">
        <ele>91.79561</ele>
        <time>2021-07-15T09:57:15Z</time>
      </trkpt>
      <trkpt lat="36.56686" lon="-5.86419">
        <ele>86.96983</ele>
        <time>2021-07-15T09:57:26Z</time>
      </trkpt>
      <trkpt lat="36.56461" lon="-5.86537">
        <ele>81.21696</ele>
        <time>2021-07-15T09:57:37Z</time>
      </trkpt>
      <trkpt lat="36.56231" lon="-5.86631">
        <ele>75.58537</ele>
        <time>2021-07-15T09:57:48Z</time>
      </trkpt>
      <trkpt lat="36.55999" lon="-5.86681">
        <ele>68.29173</ele>
        <time>2021-07-15T09:57:59Z</time>
      </trkpt>
      <trkpt lat="36.55793" lon="-5.86762">
        <ele>62.2002</ele>
        <time>2021-07-15T09:58:10Z</time>
      </trkpt>
      <trkpt lat="36.55565" lon="-5.86851">
        <ele>58.60307</ele>
        <time>2021-07-15T09:58:21Z</time>
      </trkpt>
      <trkpt lat="36.55313" lon="-5.86945">
        <ele>57.33602</ele>
        <time>2021-07-15T09:58:32Z</time>
      </trkpt>
      <trkpt lat="36.55073" lon="-5.87014">
        <ele>57.76941</ele>
        <time>2021-07-15T09:58:43Z</time>
      </trkpt>
      <trkpt lat="36.54799" lon="-5.87063">
        <ele>56.74085</ele>
        <time>2021-07-15T09:58:54Z</time>
      </trkpt>
      <trkpt lat="36.54538" lon="-5.87106">
        <ele>57.33936</ele>
        <time>2021-07-15T09:59:05Z</time>
      </trkpt>
      <trkpt lat="36.54288" lon="-5.87114">
        <ele>58.05357</ele>
        <time>2021-07-15T09:59:16Z</time>
      </trkpt>
      <trkpt lat="36.54071" lon="-5.87102">
        <ele>54.98207</ele>
        <time>2021-07-15T09:59:27Z</time>
      </trkpt>
      <trkpt lat="36.53921" lon="-5.87114">
        <ele>59.32459</ele>
        <time>2021-07-15T09:59:38Z</time>
      </trkpt>
      <trkpt lat="36.53836" lon="-5.87121">
        <ele>65.35969</ele>
        <time>2021-07-15T09:59:49Z</time>
      </trkpt>
      <trkpt lat="36.53724" lon="-5.87105">
        <ele>68.41087</ele>
        <time>2021-07-15T10:00:00Z</time>
      </trkpt>
      <trkpt lat="36.53682" lon="-5.86998">
        <ele>76.17458</ele>
        <time>2021-07-15T10:00:11Z</time>
      </trkpt>
      <trkpt lat="36.53625" lon="-5.8688">
        <ele>84.6466</ele>
        <time>2021-07-15T10:00:22Z</time>
      </trkpt>
      <trkpt lat="36.53495" lon="-5.86883">
        <ele>90.17699</ele>
        <time>2021-07-15T10:00:33Z</time>
      </trkpt>
      <trkpt lat="36.53376" lon="-5.86961">
        <ele>96.84327</ele>
        <time>2021-07-15T10:00:44Z</time>
      </trkpt>
      <trkpt lat="36.5325" lon="-5.87007">
        <ele>96.4057</ele>
        <time>2021-07-15T10:00:55Z</time>
      </trkpt>
      <trkpt lat="36.53147" lon="-5.86909">
        <ele>100.0926</ele>
        <time>2021-07-15T10:01:06Z</time>
      </trkpt>
      <trkpt lat="36.53034" lon="-5.86797">
        <ele>105.6156</ele>
        <time>2021-07-15T10:01:17Z</time>
      </trkpt>
      <trkpt lat="36.52895" lon="-5.86729">
        <ele>108.1973</ele>
        <time>2021-07-15T10:01:28Z</time>
      </trkpt>
      <trkpt lat="36.5279" lon="-5.86696">
        <ele>108.8316</ele>
        <time>2021-07-15T10:01:39Z</time>
      </trkpt>
      <trkpt lat="36.52695" lon="-5.8667">
        <ele>106.183</ele>
        <time>2021-07-15T10:01:50Z</time>
      </trkpt>
      <trkpt lat="36.52617" lon="-5.86671">
        <ele>110.4699</ele>
        <time>2021-07-15T10:02:01Z</time>
      </trkpt>
      <trkpt lat="36.52572" lon="-5.86686">
        <ele>105.7538</ele>
        <time>2021-07-15T10:02:13Z</time>
      </trkpt>
      <trkpt lat="36.52519" lon="-5.86706">
        <ele>110.7572</ele>
        <time>2021-07-15T10:02:24Z</time>
      </trkpt>
      <trkpt lat="36.52474" lon="-5.86729">
        <ele>115.6008</ele>
        <time>2021-07-15T10:02:35Z</time>
      </trkpt>
      <trkpt lat="36.52393" lon="-5.86758">
        <ele>120.6795</ele>
        <time>2021-07-15T10:02:46Z</time>
      </trkpt>
      <trkpt lat="36.52338" lon="-5.86776">
        <ele>123.8933</ele>
        <time>2021-07-15T10:02:57Z</time>
      </trkpt>
      <trkpt lat="36.52256" lon="-5.86784">
        <ele>125.6655</ele>
        <time>2021-07-15T10:03:08Z</time>
      </trkpt>
      <trkpt lat="36.52171" lon="-5.86765">
        <ele>123.2693</ele>
        <time>2021-07-15T10:03:19Z</time>
      </trkpt>
      <trkpt lat="36.52115" lon="-5.86752">
        <ele>124.1132</ele>
        <time>2021-07-15T10:03:30Z</time>
      </trkpt>
      <trkpt lat="36.52019" lon="-5.86776">
        <ele>125.6392</ele>
        <time>2021-07-15T10:03:41Z</time>
      </trkpt>
      <trkpt lat="36.51936" lon="-5.86822">
        <ele>121.5895</ele>
        <time>2021-07-15T10:03:52Z</time>
      </trkpt>
      <trkpt lat="36.5188" lon="-5.86858">
        <ele>111.4663</ele>
        <time>2021-07-15T10:04:03Z</time>
      </trkpt>
      <trkpt lat="36.51853" lon="-5.86912">
        <ele>106.7975</ele>
        <time>2021-07-15T10:04:14Z</time>
      </trkpt>
      <trkpt lat="36.51832" lon="-5.87043">
        <ele>100.0915</ele>
        <time>2021-07-15T10:04:25Z</time>
      </trkpt>
      <trkpt lat="36.51801" lon="-5.87203">
        <ele>91.24765</ele>
        <time>2021-07-15T10:04:36Z</time>
      </trkpt>
      <trkpt lat="36.51674" lon="-5.87276">
        <ele>77.90982</ele>
        <time>2021-07-15T10:04:47Z</time>
      </trkpt>
      <trkpt lat="36.51555" lon="-5.87407">
        <ele>70.01879</ele>
        <time>2021-07-15T10:04:58Z</time>
      </trkpt>
      <trkpt lat="36.51403" lon="-5.87612">
        <ele>63.11658</ele>
        <time>2021-07-15T10:05:09Z</time>
      </trkpt>
      <trkpt lat="36.51237" lon="-5.87821">
        <ele>62.23957</ele>
        <time>2021-07-15T10:05:20Z</time>
      </trkpt>
      <trkpt lat="36.51073" lon="-5.88002">
        <ele>56.99342</ele>
        <time>2021-07-15T10:05:31Z</time>
      </trkpt>
      <trkpt lat="36.5089" lon="-5.88026">
        <ele>55.8203</ele>
        <time>2021-07-15T10:05:42Z</time>
      </trkpt>
      <trkpt lat="36.50709" lon="-5.88045">
        <ele>51.26024</ele>
        <time>2021-07-15T10:05:53Z</time>
      </trkpt>
      <trkpt lat="36.5058" lon="-5.88079">
        <ele>57.58554</ele>
        <time>2021-07-15T10:06:04Z</time>
      </trkpt>
      <trkpt lat="36.50479" lon="-5.88188">
        <ele>64.00294</ele>
        <time>2021-07-15T10:06:15Z</time>
      </trkpt>
      <trkpt lat="36.5036" lon="-5.88312">
        <ele>59.90284</ele>
        <time>2021-07-15T10:06:26Z</time>
      </trkpt>
      <trkpt lat="36.50239" lon="-5.8842">
        <ele>53.54831</ele>
        <time>2021-07-15T10:06:37Z</time>
      </trkpt>
      <trkpt lat="36.50046" lon="-5.88532">
        <ele>52.72928</ele>
        <time>2021-07-15T10:06:48Z</time>
      </trkpt>
      <trkpt lat="36.49897" lon="-5.88639">
        <ele>59.08004</ele>
        <time>2021-07-15T10:06:59Z</time>
      </trkpt>
      <trkpt lat="36.4981" lon="-5.88848">
        <ele>56.31564</ele>
        <time>2021-07-15T10:07:10Z</time>
      </trkpt>
      <trkpt lat="36.49658" lon="-5.88974">
        <ele>65.37507</ele>
        <time>2021-07-15T10:07:21Z</time>
      </trkpt>
      <trkpt lat="36.49485" lon="-5.89057">
        <ele>61.83968</ele>
        <time>2021-07-15T10:07:32Z</time>
      </trkpt>
      <trkpt lat="36.49349" lon="-5.89149">
        <ele>72.78811</ele>
        <time>2021-07-15T10:07:43Z</time>
      </trkpt>
      <trkpt lat="36.49272" lon="-5.89243">
        <ele>77.2953</ele>
        <time>2021-07-15T10:07:54Z</time>
      </trkpt>
      <trkpt lat="36.49237" lon="-5.89428">
        <ele>67.86598</ele>
        <time>2021-07-15T10:08:05Z</time>
      </trkpt>
      <trkpt lat="36.49156" lon="-5.89691">
        <ele>62.25818</ele>
        <time>2021-07-15T10:08:16Z</time>
      </trkpt>
      <trkpt lat="36.49069" lon="-5.8997">
        <ele>60.43729</ele>
        <time>2021-07-15T10:08:27Z</time>
      </trkpt>
      <trkpt lat="36.4895" lon="-5.90217">
        <ele>61.80638</ele>
        <time>2021-07-15T10:08:38Z</time>
      </trkpt>
      <trkpt lat="36.48835" lon="-5.9043">
        <ele>68.62532</ele>
        <time>2021-07-15T10:08:49Z</time>
      </trkpt>
      <trkpt lat="36.48705" lon="-5.90678">
        <ele>84.12115</ele>
        <time>2021-07-15T10:09:00Z</time>
      </trkpt>
      <trkpt lat="36.48545" lon="-5.9089">
        <ele>80.3354</ele>
        <time>2021-07-15T10:09:11Z</time>
      </trkpt>
      <trkpt lat="36.48376" lon="-5.91106">
        <ele>78.56459</ele>
        <time>2021-07-15T10:09:22Z</time>
      </trkpt>
      <trkpt lat="36.48212" lon="-5.91309">
        <ele>85.59101</ele>
        <time>2021-07-15T10:09:33Z</time>
      </trkpt>
      <trkpt lat="36.48022" lon="-5.9145">
        <ele>100.6139</ele>
        <time>2021-07-15T10:09:44Z</time>
      </trkpt>
      <trkpt lat="36.47928" lon="-5.91568">
        <ele>96.25913</ele>
        <time>2021-07-15T10:09:55Z</time>
      </trkpt>
      <trkpt lat="36.47886" lon="-5.91591">
        <ele>95.80424</ele>
        <time>2021-07-15T10:10:06Z</time>
      </trkpt>
      <trkpt lat="36.47739" lon="-5.91484">
        <ele>96.6991</ele>
        <time>2021-07-15T10:10:17Z</time>
      </trkpt>
      <trkpt lat="36.47577" lon="-5.91319">
        <ele>96.82436</ele>
        <time>2021-07-15T10:10:28Z</time>
      </trkpt>
      <trkpt lat="36.47445" lon="-5.91115">
        <ele>95.06678</ele>
        <time>2021-07-15T10:10:39Z</time>
      </trkpt>
      <trkpt lat="36.47356" lon="-5.90862">
        <ele>93.95399</ele>
        <time>2021-07-15T10:10:50Z</time>
      </trkpt>
      <trkpt lat="36.47265" lon="-5.90605">
        <ele>105.2331</ele>
        <time>2021-07-15T10:11:01Z</time>
      </trkpt>
      <trkpt lat="36.47081" lon="-5.90517">
        <ele>121.3158</ele>
        <time>2021-07-15T10:11:12Z</time>
      </trkpt>
      <trkpt lat="36.46882" lon="-5.90571">
        <ele>137.3155</ele>
        <time>2021-07-15T10:11:23Z</time>
      </trkpt>
      <trkpt lat="36.46705" lon="-5.90495">
        <ele>146.2701</ele>
        <time>2021-07-15T10:11:34Z</time>
      </trkpt>
      <trkpt lat="36.46644" lon="-5.90281">
        <ele>143.6118</ele>
        <time>2021-07-15T10:11:45Z</time>
      </trkpt>
      <trkpt lat="36.4656" lon="-5.90049">
        <ele>133.0121</ele>
        <time>2021-07-15T10:11:56Z</time>
      </trkpt>
      <trkpt lat="36.46392" lon="-5.89903">
        <ele>119.7202</ele>
        <time>2021-07-15T10:12:07Z</time>
      </trkpt>
      <trkpt lat="36.4619" lon="-5.89837">
        <ele>107.8192</ele>
        <time>2021-07-15T10:12:18Z</time>
      </trkpt>
      <trkpt lat="36.45986" lon="-5.89763">
        <ele>92.53446</ele>
        <time>2021-07-15T10:12:29Z</time>
      </trkpt>
      <trkpt lat="36.45813" lon="-5.8961">
        <ele>83.72132</ele>
        <time>2021-07-15T10:12:40Z</time>
      </trkpt>
      <trkpt lat="36.45689" lon="-5.89413">
        <ele>76.89844</ele>
        <time>2021-07-15T10:12:51Z</time>
      </trkpt>
      <trkpt lat="36.4557" lon="-5.89196">
        <ele>76.84079</ele>
        <time>2021-07-15T10:13:02Z</time>
      </trkpt>
      <trkpt lat="36.45557" lon="-5.88976">
        <ele>76.46846</ele>
        <time>2021-07-15T10:13:13Z</time>
      </trkpt>
      <trkpt lat="36.45441" lon="-5.88991">
        <ele>73.82005</ele>
        <time>2021-07-15T10:13:24Z</time>
      </trkpt>
      <trkpt lat="36.45212" lon="-5.88994">
        <ele>73.0344</ele>
        <time>2021-07-15T10:13:35Z</time>
      </trkpt>
      <trkpt lat="36.44976" lon="-5.88978">
        <ele>73.46085</ele>
        <time>2021-07-15T10:13:46Z</time>
      </trkpt>
      <trkpt lat="36.44749" lon="-5.89075">
        <ele>73.4999</ele>
        <time>2021-07-15T10:13:57Z</time>
      </trkpt>
      <trkpt lat="36.44552" lon="-5.8922">
        <ele>75.989</ele>
        <time>2021-07-15T10:14:08Z</time>
      </trkpt>
      <trkpt lat="36.44461" lon="-5.89493">
        <ele>74.21104</ele>
        <time>2021-07-15T10:14:19Z</time>
      </trkpt>
      <trkpt lat="36.44416" lon="-5.8979">
        <ele>72.01414</ele>
        <time>2021-07-15T10:14:30Z</time>
      </trkpt>
      <trkpt lat="36.44381" lon="-5.90088">
        <ele>70.6149</ele>
        <time>2021-07-15T10:14:41Z</time>
      </trkpt>
      <trkpt lat="36.44357" lon="-5.90357">
        <ele>73.13641</ele>
        <time>2021-07-15T10:14:52Z</time>
      </trkpt>
      <trkpt lat="36.44401" lon="-5.90648">
        <ele>81.68307</ele>
        <time>2021-07-15T10:15:03Z</time>
      </trkpt>
      <trkpt lat="36.444" lon="-5.90949">
        <ele>88.82722</ele>
        <time>2021-07-15T10:15:14Z</time>
      </trkpt>
      <trkpt lat="36.44396" lon="-5.91251">
        <ele>88.94624</ele>
        <time>2021-07-15T10:15:25Z</time>
      </trkpt>
      <trkpt lat="36.44346" lon="-5.91485">
        <ele>85.94709</ele>
        <time>2021-07-15T10:15:36Z</time>
      </trkpt>
      <trkpt lat="36.44242" lon="-5.91489">
        <ele>77.05752</ele>
        <time>2021-07-15T10:15:47Z</time>
      </trkpt>
      <trkpt lat="36.44026" lon="-5.91455">
        <ele>69.74968</ele>
        <time>2021-07-15T10:15:58Z</time>
      </trkpt>
      <trkpt lat="36.43798" lon="-5.91432">
        <ele>67.39743</ele>
        <time>2021-07-15T10:16:09Z</time>
      </trkpt>
      <trkpt lat="36.43668" lon="-5.91498">
        <ele>67.33709</ele>
        <time>2021-07-15T10:16:20Z</time>
      </trkpt>
      <trkpt lat="36.43659" lon="-5.915">
        <ele>67.6709</ele>
        <time>2021-07-15T10:16:31Z</time>
      </trkpt>
      <trkpt lat="36.43652" lon="-5.91503">
        <ele>67.04061</ele>
        <time>2021-07-15T10:16:48Z</time>
      </trkpt>
      <trkpt lat="36.43547" lon="-5.91393">
        <ele>64.03132</ele>
        <time>2021-07-15T10:16:59Z</time>
      </trkpt>
      <trkpt lat="36.43341" lon="-5.913">
        <ele>58.47152</ele>
        <time>2021-07-15T10:17:10Z</time>
      </trkpt>
      <trkpt lat="36.43104" lon="-5.9118">
        <ele>55.64847</ele>
        <time>2021-07-15T10:17:21Z</time>
      </trkpt>
      <trkpt lat="36.42885" lon="-5.9104">
        <ele>55.25572</ele>
        <time>2021-07-15T10:17:32Z</time>
      </trkpt>
      <trkpt lat="36.42673" lon="-5.90892">
        <ele>53.73464</ele>
        <time>2021-07-15T10:17:43Z</time>
      </trkpt>
      <trkpt lat="36.42452" lon="-5.90782">
        <ele>53.21932</ele>
        <time>2021-07-15T10:17:54Z</time>
      </trkpt>
      <trkpt lat="36.42219" lon="-5.90779">
        <ele>52.20555</ele>
        <time>2021-07-15T10:18:05Z</time>
      </trkpt>
      <trkpt lat="36.41976" lon="-5.90832">
        <ele>47.7764</ele>
        <time>2021-07-15T10:18:16Z</time>
      </trkpt>
      <trkpt lat="36.41748" lon="-5.9087">
        <ele>49.84565</ele>
        <time>2021-07-15T10:18:27Z</time>
      </trkpt>
      <trkpt lat="36.41521" lon="-5.90774">
        <ele>44.11429</ele>
        <time>2021-07-15T10:18:38Z</time>
      </trkpt>
      <trkpt lat="36.41302" lon="-5.90677">
        <ele>40.8216</ele>
        <time>2021-07-15T10:18:49Z</time>
      </trkpt>
      <trkpt lat="36.41094" lon="-5.90546">
        <ele>39.82115</ele>
        <time>2021-07-15T10:19:01Z</time>
      </trkpt>
      <trkpt lat="36.40897" lon="-5.9038">
        <ele>40.20633</ele>
        <time>2021-07-15T10:19:12Z</time>
      </trkpt>
      <trkpt lat="36.40686" lon="-5.90211">
        <ele>39.85303</ele>
        <time>2021-07-15T10:19:23Z</time>
      </trkpt>
      <trkpt lat="36.40501" lon="-5.90052">
        <ele>41.4474</ele>
        <time>2021-07-15T10:19:34Z</time>
      </trkpt>
      <trkpt lat="36.40286" lon="-5.89873">
        <ele>45.2515</ele>
        <time>2021-07-15T10:19:45Z</time>
      </trkpt>
      <trkpt lat="36.40073" lon="-5.89736">
        <ele>38.3675</ele>
        <time>2021-07-15T10:19:56Z</time>
      </trkpt>
      <trkpt lat="36.39864" lon="-5.89602">
        <ele>36.2205</ele>
        <time>2021-07-15T10:20:07Z</time>
      </trkpt>
      <trkpt lat="36.39648" lon="-5.89491">
        <ele>40.23849</ele>
        <time>2021-07-15T10:20:18Z</time>
      </trkpt>
      <trkpt lat="36.39425" lon="-5.89571">
        <ele>48.46038</ele>
        <time>2021-07-15T10:20:29Z</time>
      </trkpt>
      <trkpt lat="36.39223" lon="-5.89723">
        <ele>52.60404</ele>
        <time>2021-07-15T10:20:40Z</time>
      </trkpt>
      <trkpt lat="36.39018" lon="-5.8988">
        <ele>46.83281</ele>
        <time>2021-07-15T10:20:51Z</time>
      </trkpt>
      <trkpt lat="36.38814" lon="-5.90036">
        <ele>45.94732</ele>
        <time>2021-07-15T10:21:02Z</time>
      </trkpt>
      <trkpt lat="36.38625" lon="-5.90181">
        <ele>46.64215</ele>
        <time>2021-07-15T10:21:13Z</time>
      </trkpt>
      <trkpt lat="36.38419" lon="-5.90338">
        <ele>47.71812</ele>
        <time>2021-07-15T10:21:24Z</time>
      </trkpt>
      <trkpt lat="36.38219" lon="-5.90493">
        <ele>49.16697</ele>
        <time>2021-07-15T10:21:35Z</time>
      </trkpt>
      <trkpt lat="36.38014" lon="-5.90648">
        <ele>53.36906</ele>
        <time>2021-07-15T10:21:46Z</time>
      </trkpt>
      <trkpt lat="36.37801" lon="-5.90815">
        <ele>58.30469</ele>
        <time>2021-07-15T10:21:57Z</time>
      </trkpt>
      <trkpt lat="36.37629" lon="-5.91025">
        <ele>58.98926</ele>
        <time>2021-07-15T10:22:08Z</time>
      </trkpt>
      <trkpt lat="36.3746" lon="-5.91244">
        <ele>57.7307</ele>
        <time>2021-07-15T10:22:19Z</time>
      </trkpt>
      <trkpt lat="36.3728" lon="-5.91441">
        <ele>60.12821</ele>
        <time>2021-07-15T10:22:30Z</time>
      </trkpt>
      <trkpt lat="36.37087" lon="-5.91624">
        <ele>62.95695</ele>
        <time>2021-07-15T10:22:41Z</time>
      </trkpt>
      <trkpt lat="36.36894" lon="-5.91803">
        <ele>66.6922</ele>
        <time>2021-07-15T10:22:52Z</time>
      </trkpt>
      <trkpt lat="36.36697" lon="-5.91988">
        <ele>69.77633</ele>
        <time>2021-07-15T10:23:03Z</time>
      </trkpt>
      <trkpt lat="36.36516" lon="-5.92161">
        <ele>71.15144</ele>
        <time>2021-07-15T10:23:14Z</time>
      </trkpt>
      <trkpt lat="36.36367" lon="-5.92406">
        <ele>75.55954</ele>
        <time>2021-07-15T10:23:25Z</time>
      </trkpt>
      <trkpt lat="36.36269" lon="-5.9268">
        <ele>81.79366</ele>
        <time>2021-07-15T10:23:36Z</time>
      </trkpt>
      <trkpt lat="36.36073" lon="-5.92853">
        <ele>79.49671</ele>
        <time>2021-07-15T10:23:47Z</time>
      </trkpt>
      <trkpt lat="36.35829" lon="-5.92919">
        <ele>71.72525</ele>
        <time>2021-07-15T10:23:58Z</time>
      </trkpt>
      <trkpt lat="36.3556" lon="-5.92997">
        <ele>66.25992</ele>
        <time>2021-07-15T10:24:09Z</time>
      </trkpt>
      <trkpt lat="36.35312" lon="-5.93077">
        <ele>58.7137</ele>
        <time>2021-07-15T10:24:20Z</time>
      </trkpt>
      <trkpt lat="36.35068" lon="-5.93117">
        <ele>56.37789</ele>
        <time>2021-07-15T10:24:31Z</time>
      </trkpt>
      <trkpt lat="36.34836" lon="-5.93044">
        <ele>57.47978</ele>
        <time>2021-07-15T10:24:42Z</time>
      </trkpt>
      <trkpt lat="36.34604" lon="-5.93137">
        <ele>56.35418</ele>
        <time>2021-07-15T10:24:53Z</time>
      </trkpt>
      <trkpt lat="36.34364" lon="-5.93141">
        <ele>50.1259</ele>
        <time>2021-07-15T10:25:04Z</time>
      </trkpt>
      <trkpt lat="36.34127" lon="-5.93025">
        <ele>46.23854</ele>
        <time>2021-07-15T10:25:15Z</time>
      </trkpt>
      <trkpt lat="36.33909" lon="-5.92994">
        <ele>44.25421</ele>
        <time>2021-07-15T10:25:26Z</time>
      </trkpt>
      <trkpt lat="36.3367" lon="-5.93095">
        <ele>41.17773</ele>
        <time>2021-07-15T10:25:37Z</time>
      </trkpt>
      <trkpt lat="36.33437" lon="-5.93192">
        <ele>38.93368</ele>
        <time>2021-07-15T10:25:48Z</time>
      </trkpt>
      <trkpt lat="36.33204" lon="-5.93274">
        <ele>37.44129</ele>
        <time>2021-07-15T10:25:59Z</time>
      </trkpt>
      <trkpt lat="36.3297" lon="-5.93346">
        <ele>37.19454</ele>
        <time>2021-07-15T10:26:10Z</time>
      </trkpt>
      <trkpt lat="36.32742" lon="-5.93445">
        <ele>36.01046</ele>
        <time>2021-07-15T10:26:21Z</time>
      </trkpt>
      <trkpt lat="36.32495" lon="-5.93572">
        <ele>35.61546</ele>
        <time>2021-07-15T10:26:32Z</time>
      </trkpt>
      <trkpt lat="36.32265" lon="-5.9369">
        <ele>38.15095</ele>
        <time>2021-07-15T10:26:43Z</time>
      </trkpt>
      <trkpt lat="36.32033" lon="-5.93811">
        <ele>41.5599</ele>
        <time>2021-07-15T10:26:54Z</time>
      </trkpt>
      <trkpt lat="36.31799" lon="-5.93932">
        <ele>49.97073</ele>
        <time>2021-07-15T10:27:05Z</time>
      </trkpt>
      <trkpt lat="36.31566" lon="-5.94062">
        <ele>58.65696</ele>
        <time>2021-07-15T10:27:16Z</time>
      </trkpt>
      <trkpt lat="36.31377" lon="-5.9423">
        <ele>62.12135</ele>
        <time>2021-07-15T10:27:27Z</time>
      </trkpt>
      <trkpt lat="36.31154" lon="-5.94363">
        <ele>72.19626</ele>
        <time>2021-07-15T10:27:38Z</time>
      </trkpt>
      <trkpt lat="36.30909" lon="-5.94407">
        <ele>82.33701</ele>
        <time>2021-07-15T10:27:49Z</time>
      </trkpt>
      <trkpt lat="36.30685" lon="-5.94503">
        <ele>93.52835</ele>
        <time>2021-07-15T10:28:00Z</time>
      </trkpt>
      <trkpt lat="36.30485" lon="-5.94706">
        <ele>105.6233</ele>
        <time>2021-07-15T10:28:11Z</time>
      </trkpt>
      <trkpt lat="36.3027" lon="-5.94839">
        <ele>108.4132</ele>
        <time>2021-07-15T10:28:22Z</time>
      </trkpt>
      <trkpt lat="36.30057" lon="-5.94996">
        <ele>101.8006</ele>
        <time>2021-07-15T10:28:33Z</time>
      </trkpt>
      <trkpt lat="36.29821" lon="-5.95096">
        <ele>92.80632</ele>
        <time>2021-07-15T10:28:44Z</time>
      </trkpt>
      <trkpt lat="36.29703" lon="-5.9538">
        <ele>90.22778</ele>
        <time>2021-07-15T10:28:55Z</time>
      </trkpt>
      <trkpt lat="36.29565" lon="-5.95626">
        <ele>87.07182</ele>
        <time>2021-07-15T10:29:06Z</time>
      </trkpt>
      <trkpt lat="36.29329" lon="-5.95656">
        <ele>82.36264</ele>
        <time>2021-07-15T10:29:17Z</time>
      </trkpt>
      <trkpt lat="36.29119" lon="-5.95517">
        <ele>76.09197</ele>
        <time>2021-07-15T10:29:28Z</time>
      </trkpt>
      <trkpt lat="36.28906" lon="-5.95556">
        <ele>65.24104</ele>
        <time>2021-07-15T10:29:39Z</time>
      </trkpt>
      <trkpt lat="36.28685" lon="-5.95715">
        <ele>52.63927</ele>
        <time>2021-07-15T10:29:50Z</time>
      </trkpt>
      <trkpt lat="36.28485" lon="-5.95891">
        <ele>49.50219</ele>
        <time>2021-07-15T10:30:01Z</time>
      </trkpt>
      <trkpt lat="36.28312" lon="-5.96112">
        <ele>52.01059</ele>
        <time>2021-07-15T10:30:12Z</time>
      </trkpt>
      <trkpt lat="36.28107" lon="-5.96341">
        <ele>53.14135</ele>
        <time>2021-07-15T10:30:23Z</time>
      </trkpt>
      <trkpt lat="36.27855" lon="-5.9644">
        <ele>41.97617</ele>
        <time>2021-07-15T10:30:34Z</time>
      </trkpt>
      <trkpt lat="36.27596" lon="-5.96479">
        <ele>30.16452</ele>
        <time>2021-07-15T10:30:45Z</time>
      </trkpt>
      <trkpt lat="36.27348" lon="-5.96507">
        <ele>20.76103</ele>
        <time>2021-07-15T10:30:56Z</time>
      </trkpt>
      <trkpt lat="36.27116" lon="-5.96486">
        <ele>12.90093</ele>
        <time>2021-07-15T10:31:07Z</time>
      </trkpt>
      <trkpt lat="36.26911" lon="-5.96445">
        <ele>6.706533</ele>
        <time>2021-07-15T10:31:18Z</time>
      </trkpt>
      <trkpt lat="36.26719" lon="-5.96427">
        <ele>3.200375</ele>
        <time>2021-07-15T10:31:29Z</time>
      </trkpt>
      <trkpt lat="36.26571" lon="-5.9645">
        <ele>2.269683</ele>
        <time>2021-07-15T10:31:40Z</time>
      </trkpt>
      <trkpt lat="36.26398" lon="-5.96478">
        <ele>5.374711</ele>
        <time>2021-07-15T10:31:51Z</time>
      </trkpt>
      <trkpt lat="36.26304" lon="-5.965">
        <ele>3.055931</ele>
        <time>2021-07-15T10:32:02Z</time>
      </trkpt>
      <trkpt lat="36.263" lon="-5.96503">
        <ele>0.781547</ele>
        <time>2021-07-15T10:32:15Z</time>
      </trkpt>
      <trkpt lat="36.26283" lon="-5.96498">
        <ele>2.534398</ele>
        <time>2021-07-15T10:32:26Z</time>
      </trkpt>
      <trkpt lat="36.26277" lon="-5.965">
        <ele>3.538481</ele>
        <time>2021-07-15T10:32:44Z</time>
      </trkpt>
      <trkpt lat="36.26269" lon="-5.96497">
        <ele>5.941908</ele>
        <time>2021-07-15T10:32:55Z</time>
      </trkpt>
      <trkpt lat="36.26265" lon="-5.96497">
        <ele>11.47195</ele>
        <time>2021-07-15T10:33:50Z</time>
      </trkpt>
      <trkpt lat="36.26261" lon="-5.96496">
        <ele>7.920498</ele>
        <time>2021-07-15T10:34:08Z</time>
      </trkpt>
      <trkpt lat="36.26257" lon="-5.96496">
        <ele>6.994157</ele>
        <time>2021-07-15T10:34:19Z</time>
      </trkpt>
      <trkpt lat="36.26249" lon="-5.96495">
        <ele>6.622371</ele>
        <time>2021-07-15T10:34:30Z</time>
      </trkpt>
      <trkpt lat="36.26245" lon="-5.96494">
        <ele>5.458252</ele>
        <time>2021-07-15T10:35:00Z</time>
      </trkpt>
      <trkpt lat="36.26242" lon="-5.96495">
        <ele>6.235906</ele>
        <time>2021-07-15T10:35:20Z</time>
      </trkpt>
      <trkpt lat="36.26242" lon="-5.96494">
        <ele>9.797042</ele>
        <time>2021-07-15T10:36:20Z</time>
      </trkpt>
      <trkpt lat="36.26238" lon="-5.96492">
        <ele>11.30181</ele>
        <time>2021-07-15T10:37:06Z</time>
      </trkpt>
      <trkpt lat="36.26229" lon="-5.96491">
        <ele>6.391447</ele>
        <time>2021-07-15T10:37:17Z</time>
      </trkpt>
      <trkpt lat="36.26219" lon="-5.96489">
        <ele>9.291423</ele>
        <time>2021-07-15T10:37:28Z</time>
      </trkpt>
      <trkpt lat="36.26216" lon="-5.96489">
        <ele>5.427333</ele>
        <time>2021-07-15T10:37:43Z</time>
      </trkpt>
      <trkpt lat="36.26208" lon="-5.9649">
        <ele>4.829329</ele>
        <time>2021-07-15T10:37:54Z</time>
      </trkpt>
      <trkpt lat="36.26196" lon="-5.9649">
        <ele>5.801068</ele>
        <time>2021-07-15T10:38:05Z</time>
      </trkpt>
      <trkpt lat="36.2618" lon="-5.96488">
        <ele>6.964696</ele>
        <time>2021-07-15T10:38:16Z</time>
      </trkpt>
      <trkpt lat="36.26172" lon="-5.96487">
        <ele>6.413538</ele>
        <time>2021-07-15T10:38:27Z</time>
      </trkpt>
      <trkpt lat="36.26161" lon="-5.96486">
        <ele>7.819399</ele>
        <time>2021-07-15T10:38:38Z</time>
      </trkpt>
      <trkpt lat="36.26156" lon="-5.96486">
        <ele>9.731118</ele>
        <time>2021-07-15T10:38:59Z</time>
      </trkpt>
      <trkpt lat="36.26149" lon="-5.96486">
        <ele>11.56004</ele>
        <time>2021-07-15T10:39:10Z</time>
      </trkpt>
      <trkpt lat="36.26145" lon="-5.96488">
        <ele>11.6769</ele>
        <time>2021-07-15T10:39:54Z</time>
      </trkpt>
      <trkpt lat="36.26142" lon="-5.96485">
        <ele>12.15241</ele>
        <time>2021-07-15T10:40:10Z</time>
      </trkpt>
      <trkpt lat="36.26138" lon="-5.96484">
        <ele>12.49262</ele>
        <time>2021-07-15T10:40:39Z</time>
      </trkpt>
      <trkpt lat="36.26134" lon="-5.96483">
        <ele>10.22396</ele>
        <time>2021-07-15T10:40:53Z</time>
      </trkpt>
      <trkpt lat="36.26133" lon="-5.96483">
        <ele>8.795772</ele>
        <time>2021-07-15T10:41:52Z</time>
      </trkpt>
      <trkpt lat="36.26133" lon="-5.96482">
        <ele>12.98155</ele>
        <time>2021-07-15T10:42:52Z</time>
      </trkpt>
      <trkpt lat="36.26135" lon="-5.96483">
        <ele>10.48672</ele>
        <time>2021-07-15T10:43:51Z</time>
      </trkpt>
      <trkpt lat="36.26132" lon="-5.96483">
        <ele>6.711794</ele>
        <time>2021-07-15T10:44:25Z</time>
      </trkpt>
      <trkpt lat="36.26129" lon="-5.9648">
        <ele>13.86804</ele>
        <time>2021-07-15T10:44:53Z</time>
      </trkpt>
      <trkpt lat="36.26132" lon="-5.96483">
        <ele>12.83169</ele>
        <time>2021-07-15T10:45:41Z</time>
      </trkpt>
      <trkpt lat="36.26119" lon="-5.96483">
        <ele>13.59309</ele>
        <time>2021-07-15T10:45:52Z</time>
      </trkpt>
      <trkpt lat="36.2611" lon="-5.96482">
        <ele>14.07362</ele>
        <time>2021-07-15T10:46:03Z</time>
      </trkpt>
      <trkpt lat="36.26105" lon="-5.96482">
        <ele>7.938571</ele>
        <time>2021-07-15T10:46:22Z</time>
      </trkpt>
      <trkpt lat="36.26101" lon="-5.96482">
        <ele>9.670502</ele>
        <time>2021-07-15T10:46:40Z</time>
      </trkpt>
      <trkpt lat="36.26083" lon="-5.96405">
        <ele>9.185196</ele>
        <time>2021-07-15T10:46:51Z</time>
      </trkpt>
      <trkpt lat="36.26057" lon="-5.96229">
        <ele>8.976185</ele>
        <time>2021-07-15T10:47:02Z</time>
      </trkpt>
      <trkpt lat="36.25933" lon="-5.96104">
        <ele>6.430994</ele>
        <time>2021-07-15T10:47:13Z</time>
      </trkpt>
      <trkpt lat="36.2583" lon="-5.95886">
        <ele>6.226793</ele>
        <time>2021-07-15T10:47:24Z</time>
      </trkpt>
      <trkpt lat="36.25643" lon="-5.95732">
        <ele>7.230463</ele>
        <time>2021-07-15T10:47:35Z</time>
      </trkpt>
      <trkpt lat="36.25425" lon="-5.95558">
        <ele>12.6208</ele>
        <time>2021-07-15T10:47:46Z</time>
      </trkpt>
      <trkpt lat="36.25243" lon="-5.95374">
        <ele>17.23524</ele>
        <time>2021-07-15T10:47:57Z</time>
      </trkpt>
      <trkpt lat="36.25248" lon="-5.95129">
        <ele>19.4678</ele>
        <time>2021-07-15T10:48:08Z</time>
      </trkpt>
      <trkpt lat="36.25415" lon="-5.94917">
        <ele>22.11134</ele>
        <time>2021-07-15T10:48:19Z</time>
      </trkpt>
      <trkpt lat="36.25554" lon="-5.94717">
        <ele>36.53162</ele>
        <time>2021-07-15T10:48:30Z</time>
      </trkpt>
      <trkpt lat="36.25514" lon="-5.94416">
        <ele>47.71912</ele>
        <time>2021-07-15T10:48:41Z</time>
      </trkpt>
      <trkpt lat="36.2545" lon="-5.9414">
        <ele>60.84332</ele>
        <time>2021-07-15T10:48:52Z</time>
      </trkpt>
      <trkpt lat="36.25368" lon="-5.93841">
        <ele>50.4039</ele>
        <time>2021-07-15T10:49:03Z</time>
      </trkpt>
      <trkpt lat="36.25289" lon="-5.93537">
        <ele>44.92673</ele>
        <time>2021-07-15T10:49:14Z</time>
      </trkpt>
      <trkpt lat="36.25212" lon="-5.93241">
        <ele>37.99025</ele>
        <time>2021-07-15T10:49:25Z</time>
      </trkpt>
      <trkpt lat="36.25132" lon="-5.92935">
        <ele>26.11754</ele>
        <time>2021-07-15T10:49:36Z</time>
      </trkpt>
      <trkpt lat="36.25047" lon="-5.92615">
        <ele>23.51996</ele>
        <time>2021-07-15T10:49:47Z</time>
      </trkpt>
      <trkpt lat="36.24964" lon="-5.92299">
        <ele>28.04465</ele>
        <time>2021-07-15T10:49:58Z</time>
      </trkpt>
      <trkpt lat="36.24882" lon="-5.91988">
        <ele>26.12951</ele>
        <time>2021-07-15T10:50:09Z</time>
      </trkpt>
      <trkpt lat="36.24813" lon="-5.91679">
        <ele>33.91211</ele>
        <time>2021-07-15T10:50:20Z</time>
      </trkpt>
      <trkpt lat="36.24764" lon="-5.91365">
        <ele>35.47982</ele>
        <time>2021-07-15T10:50:31Z</time>
      </trkpt>
      <trkpt lat="36.24717" lon="-5.91049">
        <ele>41.05891</ele>
        <time>2021-07-15T10:50:42Z</time>
      </trkpt>
      <trkpt lat="36.24669" lon="-5.90725">
        <ele>44.11609</ele>
        <time>2021-07-15T10:50:53Z</time>
      </trkpt>
      <trkpt lat="36.2462" lon="-5.90414">
        <ele>45.92205</ele>
        <time>2021-07-15T10:51:04Z</time>
      </trkpt>
      <trkpt lat="36.24572" lon="-5.90109">
        <ele>44.59031</ele>
        <time>2021-07-15T10:51:15Z</time>
      </trkpt>
      <trkpt lat="36.24528" lon="-5.89793">
        <ele>44.61391</ele>
        <time>2021-07-15T10:51:26Z</time>
      </trkpt>
      <trkpt lat="36.24482" lon="-5.89482">
        <ele>44.26914</ele>
        <time>2021-07-15T10:51:37Z</time>
      </trkpt>
      <trkpt lat="36.24333" lon="-5.89225">
        <ele>46.20222</ele>
        <time>2021-07-15T10:51:48Z</time>
      </trkpt>
      <trkpt lat="36.2415" lon="-5.8899">
        <ele>45.14982</ele>
        <time>2021-07-15T10:51:59Z</time>
      </trkpt>
      <trkpt lat="36.23952" lon="-5.88775">
        <ele>42.59293</ele>
        <time>2021-07-15T10:52:10Z</time>
      </trkpt>
      <trkpt lat="36.2369" lon="-5.88674">
        <ele>33.08645</ele>
        <time>2021-07-15T10:52:21Z</time>
      </trkpt>
      <trkpt lat="36.23449" lon="-5.88529">
        <ele>22.77618</ele>
        <time>2021-07-15T10:52:32Z</time>
      </trkpt>
      <trkpt lat="36.23206" lon="-5.88383">
        <ele>17.22888</ele>
        <time>2021-07-15T10:52:43Z</time>
      </trkpt>
      <trkpt lat="36.22965" lon="-5.88221">
        <ele>15.96785</ele>
        <time>2021-07-15T10:52:54Z</time>
      </trkpt>
      <trkpt lat="36.22762" lon="-5.88007">
        <ele>20.52595</ele>
        <time>2021-07-15T10:53:05Z</time>
      </trkpt>
      <trkpt lat="36.22564" lon="-5.87798">
        <ele>22.36768</ele>
        <time>2021-07-15T10:53:16Z</time>
      </trkpt>
      <trkpt lat="36.22359" lon="-5.87583">
        <ele>13.71324</ele>
        <time>2021-07-15T10:53:27Z</time>
      </trkpt>
      <trkpt lat="36.2218" lon="-5.87338">
        <ele>8.854593</ele>
        <time>2021-07-15T10:53:38Z</time>
      </trkpt>
      <trkpt lat="36.22091" lon="-5.87024">
        <ele>7.206176</ele>
        <time>2021-07-15T10:53:49Z</time>
      </trkpt>
      <trkpt lat="36.2201" lon="-5.86712">
        <ele>17.21422</ele>
        <time>2021-07-15T10:54:00Z</time>
      </trkpt>
      <trkpt lat="36.21931" lon="-5.86409">
        <ele>7.942868</ele>
        <time>2021-07-15T10:54:11Z</time>
      </trkpt>
      <trkpt lat="36.21853" lon="-5.86094">
        <ele>6.127795</ele>
        <time>2021-07-15T10:54:22Z</time>
      </trkpt>
      <trkpt lat="36.21875" lon="-5.85771">
        <ele>6.809487</ele>
        <time>2021-07-15T10:54:33Z</time>
      </trkpt>
      <trkpt lat="36.21992" lon="-5.85503">
        <ele>14.44731</ele>
        <time>2021-07-15T10:54:44Z</time>
      </trkpt>
      <trkpt lat="36.22132" lon="-5.85255">
        <ele>12.34455</ele>
        <time>2021-07-15T10:54:55Z</time>
      </trkpt>
      <trkpt lat="36.22339" lon="-5.85056">
        <ele>11.62262</ele>
        <time>2021-07-15T10:55:06Z</time>
      </trkpt>
      <trkpt lat="36.22537" lon="-5.84865">
        <ele>10.91243</ele>
        <time>2021-07-15T10:55:17Z</time>
      </trkpt>
      <trkpt lat="36.22734" lon="-5.84673">
        <ele>15.71809</ele>
        <time>2021-07-15T10:55:28Z</time>
      </trkpt>
      <trkpt lat="36.229" lon="-5.84436">
        <ele>21.8924</ele>
        <time>2021-07-15T10:55:39Z</time>
      </trkpt>
      <trkpt lat="36.22987" lon="-5.84134">
        <ele>15.9357</ele>
        <time>2021-07-15T10:55:50Z</time>
      </trkpt>
      <trkpt lat="36.23082" lon="-5.83793">
        <ele>6.183805</ele>
        <time>2021-07-15T10:56:01Z</time>
      </trkpt>
      <trkpt lat="36.23166" lon="-5.83487">
        <ele>6.0007</ele>
        <time>2021-07-15T10:56:12Z</time>
      </trkpt>
      <trkpt lat="36.23191" lon="-5.83166">
        <ele>10.90769</ele>
        <time>2021-07-15T10:56:23Z</time>
      </trkpt>
      <trkpt lat="36.23094" lon="-5.82869">
        <ele>9.083839</ele>
        <time>2021-07-15T10:56:34Z</time>
      </trkpt>
      <trkpt lat="36.22981" lon="-5.82584">
        <ele>5.166247</ele>
        <time>2021-07-15T10:56:45Z</time>
      </trkpt>
      <trkpt lat="36.22876" lon="-5.82325">
        <ele>4.123429</ele>
        <time>2021-07-15T10:56:56Z</time>
      </trkpt>
      <trkpt lat="36.22761" lon="-5.82039">
        <ele>6.66565</ele>
        <time>2021-07-15T10:57:07Z</time>
      </trkpt>
      <trkpt lat="36.22628" lon="-5.81715">
        <ele>7.195543</ele>
        <time>2021-07-15T10:57:18Z</time>
      </trkpt>
      <trkpt lat="36.22509" lon="-5.8142">
        <ele>9.642959</ele>
        <time>2021-07-15T10:57:29Z</time>
      </trkpt>
      <trkpt lat="36.22389" lon="-5.81134">
        <ele>9.09029</ele>
        <time>2021-07-15T10:57:40Z</time>
      </trkpt>
      <trkpt lat="36.22268" lon="-5.80835">
        <ele>14.09718</ele>
        <time>2021-07-15T10:57:51Z</time>
      </trkpt>
      <trkpt lat="36.22148" lon="-5.80537">
        <ele>13.63364</ele>
        <time>2021-07-15T10:58:02Z</time>
      </trkpt>
      <trkpt lat="36.21984" lon="-5.80291">
        <ele>19.75341</ele>
        <time>2021-07-15T10:58:13Z</time>
      </trkpt>
      <trkpt lat="36.21814" lon="-5.80066">
        <ele>22.50386</ele>
        <time>2021-07-15T10:58:24Z</time>
      </trkpt>
      <trkpt lat="36.21726" lon="-5.79785">
        <ele>21.74892</ele>
        <time>2021-07-15T10:58:35Z</time>
      </trkpt>
      <trkpt lat="36.21611" lon="-5.79512">
        <ele>22.95078</ele>
        <time>2021-07-15T10:58:46Z</time>
      </trkpt>
      <trkpt lat="36.21442" lon="-5.79341">
        <ele>22.36631</ele>
        <time>2021-07-15T10:58:57Z</time>
      </trkpt>
      <trkpt lat="36.21251" lon="-5.79169">
        <ele>20.61349</ele>
        <time>2021-07-15T10:59:08Z</time>
      </trkpt>
      <trkpt lat="36.2107" lon="-5.7897">
        <ele>16.53034</ele>
        <time>2021-07-15T10:59:19Z</time>
      </trkpt>
      <trkpt lat="36.20925" lon="-5.7879">
        <ele>12.39687</ele>
        <time>2021-07-15T10:59:30Z</time>
      </trkpt>
      <trkpt lat="36.2077" lon="-5.78599">
        <ele>12.93853</ele>
        <time>2021-07-15T10:59:41Z</time>
      </trkpt>
      <trkpt lat="36.20615" lon="-5.78407">
        <ele>13.71741</ele>
        <time>2021-07-15T10:59:52Z</time>
      </trkpt>
      <trkpt lat="36.20464" lon="-5.78217">
        <ele>12.23845</ele>
        <time>2021-07-15T11:00:03Z</time>
      </trkpt>
      <trkpt lat="36.20289" lon="-5.78003">
        <ele>10.6641</ele>
        <time>2021-07-15T11:00:14Z</time>
      </trkpt>
      <trkpt lat="36.20125" lon="-5.77796">
        <ele>13.01923</ele>
        <time>2021-07-15T11:00:25Z</time>
      </trkpt>
      <trkpt lat="36.1996" lon="-5.77592">
        <ele>8.972992</ele>
        <time>2021-07-15T11:00:36Z</time>
      </trkpt>
      <trkpt lat="36.19798" lon="-5.77386">
        <ele>6.846979</ele>
        <time>2021-07-15T11:00:47Z</time>
      </trkpt>
      <trkpt lat="36.19636" lon="-5.77185">
        <ele>7.958287</ele>
        <time>2021-07-15T11:00:58Z</time>
      </trkpt>
      <trkpt lat="36.19472" lon="-5.76981">
        <ele>6.767416</ele>
        <time>2021-07-15T11:01:09Z</time>
      </trkpt>
      <trkpt lat="36.1932" lon="-5.7679">
        <ele>5.391271</ele>
        <time>2021-07-15T11:01:20Z</time>
      </trkpt>
      <trkpt lat="36.19143" lon="-5.7657">
        <ele>7.629075</ele>
        <time>2021-07-15T11:01:31Z</time>
      </trkpt>
      <trkpt lat="36.18987" lon="-5.76374">
        <ele>7.061865</ele>
        <time>2021-07-15T11:01:42Z</time>
      </trkpt>
      <trkpt lat="36.18842" lon="-5.76193">
        <ele>6.160772</ele>
        <time>2021-07-15T11:01:53Z</time>
      </trkpt>
      <trkpt lat="36.18697" lon="-5.76012">
        <ele>6.6057</ele>
        <time>2021-07-15T11:02:04Z</time>
      </trkpt>
      <trkpt lat="36.18598" lon="-5.75785">
        <ele>7.411476</ele>
        <time>2021-07-15T11:02:15Z</time>
      </trkpt>
      <trkpt lat="36.18508" lon="-5.7556">
        <ele>14.96481</ele>
        <time>2021-07-15T11:02:26Z</time>
      </trkpt>
      <trkpt lat="36.18384" lon="-5.75359">
        <ele>12.31648</ele>
        <time>2021-07-15T11:02:37Z</time>
      </trkpt>
      <trkpt lat="36.18214" lon="-5.7521">
        <ele>14.43265</ele>
        <time>2021-07-15T11:02:48Z</time>
      </trkpt>
      <trkpt lat="36.18037" lon="-5.75057">
        <ele>10.47857</ele>
        <time>2021-07-15T11:02:59Z</time>
      </trkpt>
      <trkpt lat="36.1786" lon="-5.74903">
        <ele>8.145851</ele>
        <time>2021-07-15T11:03:10Z</time>
      </trkpt>
      <trkpt lat="36.17648" lon="-5.74721">
        <ele>10.01806</ele>
        <time>2021-07-15T11:03:21Z</time>
      </trkpt>
      <trkpt lat="36.1745" lon="-5.7455">
        <ele>8.982348</ele>
        <time>2021-07-15T11:03:32Z</time>
      </trkpt>
      <trkpt lat="36.17247" lon="-5.74373">
        <ele>11.21677</ele>
        <time>2021-07-15T11:03:43Z</time>
      </trkpt>
      <trkpt lat="36.17039" lon="-5.74192">
        <ele>17.59979</ele>
        <time>2021-07-15T11:03:54Z</time>
      </trkpt>
      <trkpt lat="36.16836" lon="-5.74017">
        <ele>21.18729</ele>
        <time>2021-07-15T11:04:05Z</time>
      </trkpt>
      <trkpt lat="36.16638" lon="-5.73846">
        <ele>24.19643</ele>
        <time>2021-07-15T11:04:16Z</time>
      </trkpt>
      <trkpt lat="36.16434" lon="-5.73695">
        <ele>27.99576</ele>
        <time>2021-07-15T11:04:27Z</time>
      </trkpt>
      <trkpt lat="36.16221" lon="-5.73557">
        <ele>26.39591</ele>
        <time>2021-07-15T11:04:38Z</time>
      </trkpt>
      <trkpt lat="36.16006" lon="-5.73418">
        <ele>31.32365</ele>
        <time>2021-07-15T11:04:49Z</time>
      </trkpt>
      <trkpt lat="36.15789" lon="-5.73273">
        <ele>39.67744</ele>
        <time>2021-07-15T11:05:00Z</time>
      </trkpt>
      <trkpt lat="36.15614" lon="-5.73087">
        <ele>37.1334</ele>
        <time>2021-07-15T11:05:11Z</time>
      </trkpt>
      <trkpt lat="36.15488" lon="-5.72863">
        <ele>30.82478</ele>
        <time>2021-07-15T11:05:22Z</time>
      </trkpt>
      <trkpt lat="36.15325" lon="-5.72575">
        <ele>32.39095</ele>
        <time>2021-07-15T11:05:33Z</time>
      </trkpt>
      <trkpt lat="36.15185" lon="-5.72326">
        <ele>32.9937</ele>
        <time>2021-07-15T11:05:44Z</time>
      </trkpt>
      <trkpt lat="36.15044" lon="-5.72076">
        <ele>32.74501</ele>
        <time>2021-07-15T11:05:55Z</time>
      </trkpt>
      <trkpt lat="36.149" lon="-5.71841">
        <ele>33.22124</ele>
        <time>2021-07-15T11:06:06Z</time>
      </trkpt>
      <trkpt lat="36.14696" lon="-5.71698">
        <ele>33.31034</ele>
        <time>2021-07-15T11:06:17Z</time>
      </trkpt>
      <trkpt lat="36.14471" lon="-5.71574">
        <ele>30.86236</ele>
        <time>2021-07-15T11:06:28Z</time>
      </trkpt>
      <trkpt lat="36.14245" lon="-5.7145">
        <ele>35.10941</ele>
        <time>2021-07-15T11:06:39Z</time>
      </trkpt>
      <trkpt lat="36.14022" lon="-5.71326">
        <ele>40.36561</ele>
        <time>2021-07-15T11:06:50Z</time>
      </trkpt>
      <trkpt lat="36.13811" lon="-5.71211">
        <ele>47.77748</ele>
        <time>2021-07-15T11:07:01Z</time>
      </trkpt>
      <trkpt lat="36.13614" lon="-5.71089">
        <ele>58.6547</ele>
        <time>2021-07-15T11:07:12Z</time>
      </trkpt>
      <trkpt lat="36.13435" lon="-5.70924">
        <ele>69.78423</ele>
        <time>2021-07-15T11:07:23Z</time>
      </trkpt>
      <trkpt lat="36.13229" lon="-5.7088">
        <ele>79.42754</ele>
        <time>2021-07-15T11:07:35Z</time>
      </trkpt>
      <trkpt lat="36.13006" lon="-5.70881">
        <ele>71.89078</ele>
        <time>2021-07-15T11:07:46Z</time>
      </trkpt>
      <trkpt lat="36.12807" lon="-5.70877">
        <ele>67.65077</ele>
        <time>2021-07-15T11:07:57Z</time>
      </trkpt>
      <trkpt lat="36.12611" lon="-5.70859">
        <ele>61.89001</ele>
        <time>2021-07-15T11:08:08Z</time>
      </trkpt>
      <trkpt lat="36.1239" lon="-5.70854">
        <ele>57.39015</ele>
        <time>2021-07-15T11:08:19Z</time>
      </trkpt>
      <trkpt lat="36.12204" lon="-5.70757">
        <ele>54.62987</ele>
        <time>2021-07-15T11:08:30Z</time>
      </trkpt>
      <trkpt lat="36.12013" lon="-5.70691">
        <ele>46.65018</ele>
        <time>2021-07-15T11:08:41Z</time>
      </trkpt>
      <trkpt lat="36.11815" lon="-5.70733">
        <ele>40.13466</ele>
        <time>2021-07-15T11:08:52Z</time>
      </trkpt>
      <trkpt lat="36.11631" lon="-5.7084">
        <ele>33.21214</ele>
        <time>2021-07-15T11:09:03Z</time>
      </trkpt>
      <trkpt lat="36.11446" lon="-5.70945">
        <ele>29.53286</ele>
        <time>2021-07-15T11:09:14Z</time>
      </trkpt>
      <trkpt lat="36.11247" lon="-5.70979">
        <ele>31.02317</ele>
        <time>2021-07-15T11:09:25Z</time>
      </trkpt>
      <trkpt lat="36.11062" lon="-5.70972">
        <ele>26.81423</ele>
        <time>2021-07-15T11:09:36Z</time>
      </trkpt>
      <trkpt lat="36.1088" lon="-5.70948">
        <ele>24.22965</ele>
        <time>2021-07-15T11:09:47Z</time>
      </trkpt>
      <trkpt lat="36.10739" lon="-5.70879">
        <ele>23.09957</ele>
        <time>2021-07-15T11:09:58Z</time>
      </trkpt>
      <trkpt lat="36.10582" lon="-5.70797">
        <ele>23.97336</ele>
        <time>2021-07-15T11:10:09Z</time>
      </trkpt>
      <trkpt lat="36.10402" lon="-5.70706">
        <ele>22.60512</ele>
        <time>2021-07-15T11:10:20Z</time>
      </trkpt>
      <trkpt lat="36.10228" lon="-5.70601">
        <ele>17.85179</ele>
        <time>2021-07-15T11:10:31Z</time>
      </trkpt>
      <trkpt lat="36.10101" lon="-5.70409">
        <ele>16.99368</ele>
        <time>2021-07-15T11:10:42Z</time>
      </trkpt>
      <trkpt lat="36.09958" lon="-5.70232">
        <ele>13.86325</ele>
        <time>2021-07-15T11:10:53Z</time>
      </trkpt>
      <trkpt lat="36.09787" lon="-5.70043">
        <ele>15.19651</ele>
        <time>2021-07-15T11:11:04Z</time>
      </trkpt>
      <trkpt lat="36.09602" lon="-5.69901">
        <ele>13.84184</ele>
        <time>2021-07-15T11:11:15Z</time>
      </trkpt>
      <trkpt lat="36.094" lon="-5.69774">
        <ele>12.29378</ele>
        <time>2021-07-15T11:11:26Z</time>
      </trkpt>
      <trkpt lat="36.09214" lon="-5.6962">
        <ele>14.55662</ele>
        <time>2021-07-15T11:11:37Z</time>
      </trkpt>
      <trkpt lat="36.09011" lon="-5.69495">
        <ele>10.73417</ele>
        <time>2021-07-15T11:11:48Z</time>
      </trkpt>
      <trkpt lat="36.08859" lon="-5.69294">
        <ele>6.508972</ele>
        <time>2021-07-15T11:11:59Z</time>
      </trkpt>
      <trkpt lat="36.0864" lon="-5.69197">
        <ele>5.914615</ele>
        <time>2021-07-15T11:12:10Z</time>
      </trkpt>
      <trkpt lat="36.08416" lon="-5.69202">
        <ele>7.042373</ele>
        <time>2021-07-15T11:12:21Z</time>
      </trkpt>
      <trkpt lat="36.08213" lon="-5.69173">
        <ele>9.494358</ele>
        <time>2021-07-15T11:12:32Z</time>
      </trkpt>
      <trkpt lat="36.07997" lon="-5.69101">
        <ele>3.565882</ele>
        <time>2021-07-15T11:12:43Z</time>
      </trkpt>
      <trkpt lat="36.07784" lon="-5.69026">
        <ele>-0.759101</ele>
        <time>2021-07-15T11:12:54Z</time>
      </trkpt>
      <trkpt lat="36.0759" lon="-5.68897">
        <ele>2.168198</ele>
        <time>2021-07-15T11:13:05Z</time>
      </trkpt>
      <trkpt lat="36.07417" lon="-5.68739">
        <ele>2.330285</ele>
        <time>2021-07-15T11:13:16Z</time>
      </trkpt>
      <trkpt lat="36.0725" lon="-5.68586">
        <ele>3.406525</ele>
        <time>2021-07-15T11:13:27Z</time>
      </trkpt>
      <trkpt lat="36.07082" lon="-5.68427">
        <ele>4.065567</ele>
        <time>2021-07-15T11:13:38Z</time>
      </trkpt>
      <trkpt lat="36.06966" lon="-5.68232">
        <ele>5.303501</ele>
        <time>2021-07-15T11:13:49Z</time>
      </trkpt>
      <trkpt lat="36.06862" lon="-5.68052">
        <ele>7.379994</ele>
        <time>2021-07-15T11:14:00Z</time>
      </trkpt>
      <trkpt lat="36.06739" lon="-5.67884">
        <ele>10.70771</ele>
        <time>2021-07-15T11:14:11Z</time>
      </trkpt>
      <trkpt lat="36.06609" lon="-5.67708">
        <ele>11.62505</ele>
        <time>2021-07-15T11:14:22Z</time>
      </trkpt>
      <trkpt lat="36.06482" lon="-5.67536">
        <ele>11.1028</ele>
        <time>2021-07-15T11:14:33Z</time>
      </trkpt>
      <trkpt lat="36.06345" lon="-5.67348">
        <ele>9.127051</ele>
        <time>2021-07-15T11:14:44Z</time>
      </trkpt>
      <trkpt lat="36.06203" lon="-5.67163">
        <ele>11.54857</ele>
        <time>2021-07-15T11:14:55Z</time>
      </trkpt>
      <trkpt lat="36.0607" lon="-5.66955">
        <ele>12.91686</ele>
        <time>2021-07-15T11:15:06Z</time>
      </trkpt>
      <trkpt lat="36.05949" lon="-5.66751">
        <ele>12.99763</ele>
        <time>2021-07-15T11:15:17Z</time>
      </trkpt>
      <trkpt lat="36.05833" lon="-5.66546">
        <ele>12.57377</ele>
        <time>2021-07-15T11:15:28Z</time>
      </trkpt>
      <trkpt lat="36.0572" lon="-5.6633">
        <ele>12.2734</ele>
        <time>2021-07-15T11:15:39Z</time>
      </trkpt>
      <trkpt lat="36.05666" lon="-5.66093">
        <ele>10.95263</ele>
        <time>2021-07-15T11:15:50Z</time>
      </trkpt>
      <trkpt lat="36.05643" lon="-5.65852">
        <ele>11.13215</ele>
        <time>2021-07-15T11:16:01Z</time>
      </trkpt>
      <trkpt lat="36.05634" lon="-5.65614">
        <ele>12.65274</ele>
        <time>2021-07-15T11:16:12Z</time>
      </trkpt>
      <trkpt lat="36.05629" lon="-5.65374">
        <ele>12.28124</ele>
        <time>2021-07-15T11:16:23Z</time>
      </trkpt>
      <trkpt lat="36.05595" lon="-5.65139">
        <ele>8.869957</ele>
        <time>2021-07-15T11:16:34Z</time>
      </trkpt>
      <trkpt lat="36.0547" lon="-5.64933">
        <ele>7.56665</ele>
        <time>2021-07-15T11:16:45Z</time>
      </trkpt>
      <trkpt lat="36.05327" lon="-5.64717">
        <ele>6.639239</ele>
        <time>2021-07-15T11:16:56Z</time>
      </trkpt>
      <trkpt lat="36.05193" lon="-5.64503">
        <ele>5.643419</ele>
        <time>2021-07-15T11:17:07Z</time>
      </trkpt>
      <trkpt lat="36.05059" lon="-5.6429">
        <ele>2.443442</ele>
        <time>2021-07-15T11:17:18Z</time>
      </trkpt>
      <trkpt lat="36.04923" lon="-5.64077">
        <ele>-1.411861</ele>
        <time>2021-07-15T11:17:29Z</time>
      </trkpt>
      <trkpt lat="36.0479" lon="-5.6387">
        <ele>-2.271287</ele>
        <time>2021-07-15T11:17:40Z</time>
      </trkpt>
      <trkpt lat="36.04659" lon="-5.63664">
        <ele>-2.347988</ele>
        <time>2021-07-15T11:17:51Z</time>
      </trkpt>
      <trkpt lat="36.04526" lon="-5.63458">
        <ele>0.068173</ele>
        <time>2021-07-15T11:18:02Z</time>
      </trkpt>
      <trkpt lat="36.04422" lon="-5.63207">
        <ele>6.502961</ele>
        <time>2021-07-15T11:18:13Z</time>
      </trkpt>
      <trkpt lat="36.04355" lon="-5.63008">
        <ele>1.590375</ele>
        <time>2021-07-15T11:18:24Z</time>
      </trkpt>
      <trkpt lat="36.04277" lon="-5.62804">
        <ele>-0.832599</ele>
        <time>2021-07-15T11:18:35Z</time>
      </trkpt>
      <trkpt lat="36.04147" lon="-5.62576">
        <ele>-0.55374</ele>
        <time>2021-07-15T11:18:46Z</time>
      </trkpt>
      <trkpt lat="36.04014" lon="-5.62348">
        <ele>0.018407</ele>
        <time>2021-07-15T11:18:57Z</time>
      </trkpt>
      <trkpt lat="36.03847" lon="-5.62161">
        <ele>-1.869006</ele>
        <time>2021-07-15T11:19:08Z</time>
      </trkpt>
      <trkpt lat="36.03687" lon="-5.62018">
        <ele>-3.172579</ele>
        <time>2021-07-15T11:19:19Z</time>
      </trkpt>
      <trkpt lat="36.03544" lon="-5.61858">
        <ele>-2.908827</ele>
        <time>2021-07-15T11:19:30Z</time>
      </trkpt>
      <trkpt lat="36.03401" lon="-5.61702">
        <ele>-3.193152</ele>
        <time>2021-07-15T11:19:41Z</time>
      </trkpt>
      <trkpt lat="36.03263" lon="-5.61546">
        <ele>-2.979581</ele>
        <time>2021-07-15T11:19:52Z</time>
      </trkpt>
      <trkpt lat="36.03143" lon="-5.61412">
        <ele>-2.704302</ele>
        <time>2021-07-15T11:20:03Z</time>
      </trkpt>
      <trkpt lat="36.0302" lon="-5.6128">
        <ele>-2.238625</ele>
        <time>2021-07-15T11:20:14Z</time>
      </trkpt>
      <trkpt lat="36.02903" lon="-5.61175">
        <ele>-0.496356</ele>
        <time>2021-07-15T11:20:25Z</time>
      </trkpt>
      <trkpt lat="36.02792" lon="-5.61189">
        <ele>-0.397217</ele>
        <time>2021-07-15T11:20:36Z</time>
      </trkpt>
      <trkpt lat="36.02651" lon="-5.61181">
        <ele>-0.4391</ele>
        <time>2021-07-15T11:20:47Z</time>
      </trkpt>
      <trkpt lat="36.02632" lon="-5.61181">
        <ele>1.275643</ele>
        <time>2021-07-15T11:20:58Z</time>
      </trkpt>
      <trkpt lat="36.02604" lon="-5.61178">
        <ele>5.383532</ele>
        <time>2021-07-15T11:21:09Z</time>
      </trkpt>
      <trkpt lat="36.02519" lon="-5.61165">
        <ele>11.33731</ele>
        <time>2021-07-15T11:21:20Z</time>
      </trkpt>
      <trkpt lat="36.02427" lon="-5.61159">
        <ele>12.28092</ele>
        <time>2021-07-15T11:21:31Z</time>
      </trkpt>
      <trkpt lat="36.02331" lon="-5.61166">
        <ele>10.33189</ele>
        <time>2021-07-15T11:21:42Z</time>
      </trkpt>
      <trkpt lat="36.02232" lon="-5.61149">
        <ele>16.35054</ele>
        <time>2021-07-15T11:21:53Z</time>
      </trkpt>
      <trkpt lat="36.02172" lon="-5.61194">
        <ele>18.67093</ele>
        <time>2021-07-15T11:22:04Z</time>
      </trkpt>
      <trkpt lat="36.02122" lon="-5.61304">
        <ele>5.945959</ele>
        <time>2021-07-15T11:22:15Z</time>
      </trkpt>
      <trkpt lat="36.02089" lon="-5.61337">
        <ele>3.269995</ele>
        <time>2021-07-15T11:22:26Z</time>
      </trkpt>
      <trkpt lat="36.01982" lon="-5.61332">
        <ele>5.136732</ele>
        <time>2021-07-15T11:22:37Z</time>
      </trkpt>
      <trkpt lat="36.01884" lon="-5.61294">
        <ele>10.67485</ele>
        <time>2021-07-15T11:22:48Z</time>
      </trkpt>
      <trkpt lat="36.01823" lon="-5.61218">
        <ele>16.67349</ele>
        <time>2021-07-15T11:22:59Z</time>
      </trkpt>
      <trkpt lat="36.01786" lon="-5.61248">
        <ele>14.01228</ele>
        <time>2021-07-15T11:23:10Z</time>
      </trkpt>
      <trkpt lat="36.01778" lon="-5.61229">
        <ele>6.276285</ele>
        <time>2021-07-15T11:23:21Z</time>
      </trkpt>
      <trkpt lat="36.0178" lon="-5.61233">
        <ele>1.269473</ele>
        <time>2021-07-15T11:24:02Z</time>
      </trkpt>
      <trkpt lat="36.01779" lon="-5.61243">
        <ele>-0.545713</ele>
        <time>2021-07-15T11:24:13Z</time>
      </trkpt>
      <trkpt lat="36.01779" lon="-5.61252">
        <ele>-3.263219</ele>
        <time>2021-07-15T11:24:34Z</time>
      </trkpt>
      <trkpt lat="36.01783" lon="-5.61237">
        <ele>0.763007</ele>
        <time>2021-07-15T11:24:45Z</time>
      </trkpt>
      <trkpt lat="36.01783" lon="-5.61233">
        <ele>0.530875</ele>
        <time>2021-07-15T11:25:32Z</time>
      </trkpt>
      <trkpt lat="36.01781" lon="-5.61229">
        <ele>2.636218</ele>
        <time>2021-07-15T11:26:03Z</time>
      </trkpt>
      <trkpt lat="36.01781" lon="-5.61229">
        <ele>2.585966</ele>
        <time>2021-07-15T11:27:02Z</time>
      </trkpt>
      <trkpt lat="36.01783" lon="-5.61233">
        <ele>2.81751</ele>
        <time>2021-07-15T11:27:34Z</time>
      </trkpt>
      <trkpt lat="36.01812" lon="-5.61211">
        <ele>3.962916</ele>
        <time>2021-07-15T11:27:45Z</time>
      </trkpt>
      <trkpt lat="36.01817" lon="-5.61207">
        <ele>2.483442</ele>
        <time>2021-07-15T11:27:56Z</time>
      </trkpt>
      <trkpt lat="36.01787" lon="-5.61138">
        <ele>4.329656</ele>
        <time>2021-07-15T11:28:07Z</time>
      </trkpt>
      <trkpt lat="36.01761" lon="-5.61085">
        <ele>6.009041</ele>
        <time>2021-07-15T11:28:18Z</time>
      </trkpt>
      <trkpt lat="36.01742" lon="-5.61045">
        <ele>7.191205</ele>
        <time>2021-07-15T11:28:29Z</time>
      </trkpt>
      <trkpt lat="36.01692" lon="-5.60946">
        <ele>14.37194</ele>
        <time>2021-07-15T11:28:40Z</time>
      </trkpt>
      <trkpt lat="36.01681" lon="-5.60884">
        <ele>16.06411</ele>
        <time>2021-07-15T11:28:51Z</time>
      </trkpt>
      <trkpt lat="36.0164" lon="-5.60831">
        <ele>17.66028</ele>
        <time>2021-07-15T11:29:02Z</time>
      </trkpt>
      <trkpt lat="36.01598" lon="-5.60781">
        <ele>20.38356</ele>
        <time>2021-07-15T11:29:13Z</time>
      </trkpt>
      <trkpt lat="36.01594" lon="-5.60777">
        <ele>20.58727</ele>
        <time>2021-07-15T11:29:27Z</time>
      </trkpt>
      <trkpt lat="36.01583" lon="-5.60765">
        <ele>20.40091</ele>
        <time>2021-07-15T11:29:38Z</time>
      </trkpt>
      <trkpt lat="36.01581" lon="-5.60762">
        <ele>19.52489</ele>
        <time>2021-07-15T11:29:54Z</time>
      </trkpt>
      <trkpt lat="36.01572" lon="-5.60752">
        <ele>20.24623</ele>
        <time>2021-07-15T11:30:05Z</time>
      </trkpt>
      <trkpt lat="36.01558" lon="-5.60735">
        <ele>19.97976</ele>
        <time>2021-07-15T11:30:16Z</time>
      </trkpt>
      <trkpt lat="36.01542" lon="-5.60716">
        <ele>19.58493</ele>
        <time>2021-07-15T11:30:27Z</time>
      </trkpt>
      <trkpt lat="36.01519" lon="-5.6069">
        <ele>17.75567</ele>
        <time>2021-07-15T11:30:38Z</time>
      </trkpt>
      <trkpt lat="36.01492" lon="-5.60645">
        <ele>19.13909</ele>
        <time>2021-07-15T11:30:49Z</time>
      </trkpt>
      <trkpt lat="36.01445" lon="-5.60713">
        <ele>18.04855</ele>
        <time>2021-07-15T11:31:00Z</time>
      </trkpt>
      <trkpt lat="36.01434" lon="-5.60775">
        <ele>15.41416</ele>
        <time>2021-07-15T11:31:11Z</time>
      </trkpt>
      <trkpt lat="36.01403" lon="-5.60763">
        <ele>16.73494</ele>
        <time>2021-07-15T11:31:22Z</time>
      </trkpt>
      <trkpt lat="36.01366" lon="-5.60721">
        <ele>17.37648</ele>
        <time>2021-07-15T11:31:33Z</time>
      </trkpt>
      <trkpt lat="36.01322" lon="-5.60683">
        <ele>20.09136</ele>
        <time>2021-07-15T11:31:44Z</time>
      </trkpt>
      <trkpt lat="36.0131" lon="-5.60673">
        <ele>20.3721</ele>
        <time>2021-07-15T11:31:55Z</time>
      </trkpt>
      <trkpt lat="36.01274" lon="-5.60721">
        <ele>17.55225</ele>
        <time>2021-07-15T11:32:06Z</time>
      </trkpt>
      <trkpt lat="36.01221" lon="-5.60753">
        <ele>10.73665</ele>
        <time>2021-07-15T11:32:17Z</time>
      </trkpt>
      <trkpt lat="36.01165" lon="-5.60734">
        <ele>5.377785</ele>
        <time>2021-07-15T11:32:28Z</time>
      </trkpt>
      <trkpt lat="36.01102" lon="-5.60711">
        <ele>5.117901</ele>
        <time>2021-07-15T11:32:39Z</time>
      </trkpt>
      <trkpt lat="36.01021" lon="-5.60695">
        <ele>5.09037</ele>
        <time>2021-07-15T11:32:50Z</time>
      </trkpt>
      <trkpt lat="36.00986" lon="-5.60637">
        <ele>3.913459</ele>
        <time>2021-07-15T11:33:01Z</time>
      </trkpt>
      <trkpt lat="36.0098" lon="-5.60618">
        <ele>3.419668</ele>
        <time>2021-07-15T11:33:12Z</time>
      </trkpt>
      <trkpt lat="36.00916" lon="-5.60655">
        <ele>6.524573</ele>
        <time>2021-07-15T11:33:23Z</time>
      </trkpt>
      <trkpt lat="36.00889" lon="-5.60672">
        <ele>4.007455</ele>
        <time>2021-07-15T11:33:34Z</time>
      </trkpt>
      <trkpt lat="36.00884" lon="-5.60676">
        <ele>6.068722</ele>
        <time>2021-07-15T11:33:54Z</time>
      </trkpt>
      <trkpt lat="36.00881" lon="-5.60677">
        <ele>2.425703</ele>
        <time>2021-07-15T11:34:05Z</time>
      </trkpt>
      <trkpt lat="36.00881" lon="-5.6068">
        <ele>1.902474</ele>
        <time>2021-07-15T11:35:05Z</time>
      </trkpt>
      <trkpt lat="36.00881" lon="-5.60678">
        <ele>4.28566</ele>
        <time>2021-07-15T11:36:03Z</time>
      </trkpt>
      <trkpt lat="36.00877" lon="-5.6068">
        <ele>3.332271</ele>
        <time>2021-07-15T11:36:25Z</time>
      </trkpt>
      <trkpt lat="36.00868" lon="-5.60685">
        <ele>1.50166</ele>
        <time>2021-07-15T11:36:36Z</time>
      </trkpt>
      <trkpt lat="36.00862" lon="-5.60685">
        <ele>1.987429</ele>
        <time>2021-07-15T11:36:47Z</time>
      </trkpt>
      <trkpt lat="36.00865" lon="-5.60683">
        <ele>3.296577</ele>
        <time>2021-07-15T11:37:31Z</time>
      </trkpt>
      <trkpt lat="36.00863" lon="-5.60681">
        <ele>3.569479</ele>
        <time>2021-07-15T11:38:30Z</time>
      </trkpt>
      <trkpt lat="36.00861" lon="-5.60685">
        <ele>1.265675</ele>
        <time>2021-07-15T11:38:47Z</time>
      </trkpt>
      <trkpt lat="36.00854" lon="-5.60694">
        <ele>1.207235</ele>
        <time>2021-07-15T11:38:58Z</time>
      </trkpt>
      <trkpt lat="36.00842" lon="-5.60701">
        <ele>3.074741</ele>
        <time>2021-07-15T11:39:09Z</time>
      </trkpt>
      <trkpt lat="36.0083" lon="-5.60708">
        <ele>2.224773</ele>
        <time>2021-07-15T11:39:20Z</time>
      </trkpt>
      <trkpt lat="36.00817" lon="-5.60716">
        <ele>2.518565</ele>
        <time>2021-07-15T11:39:31Z</time>
      </trkpt>
      <trkpt lat="36.00807" lon="-5.60725">
        <ele>2.193652</ele>
        <time>2021-07-15T11:39:42Z</time>
      </trkpt>
      <trkpt lat="36.00797" lon="-5.60734">
        <ele>2.077483</ele>
        <time>2021-07-15T11:39:53Z</time>
      </trkpt>
      <trkpt lat="36.00791" lon="-5.60737">
        <ele>2.669496</ele>
        <time>2021-07-15T11:40:04Z</time>
      </trkpt>
      <trkpt lat="36.00787" lon="-5.60739">
        <ele>3.843604</ele>
        <time>2021-07-15T11:40:17Z</time>
      </trkpt>
      <trkpt lat="36.00781" lon="-5.60745">
        <ele>0.993559</ele>
        <time>2021-07-15T11:40:28Z</time>
      </trkpt>
      <trkpt lat="36.00769" lon="-5.60755">
        <ele>2.376272</ele>
        <time>2021-07-15T11:40:39Z</time>
      </trkpt>
      <trkpt lat="36.00756" lon="-5.60766">
        <ele>1.470414</ele>
        <time>2021-07-15T11:40:50Z</time>
      </trkpt>
      <trkpt lat="36.00744" lon="-5.60777">
        <ele>1.958779</ele>
        <time>2021-07-15T11:41:01Z</time>
      </trkpt>
      <trkpt lat="36.00731" lon="-5.60786">
        <ele>5.589811</ele>
        <time>2021-07-15T11:41:12Z</time>
      </trkpt>
      <trkpt lat="36.00724" lon="-5.60796">
        <ele>2.582345</ele>
        <time>2021-07-15T11:41:23Z</time>
      </trkpt>
      <trkpt lat="36.00723" lon="-5.60791">
        <ele>0.611345</ele>
        <time>2021-07-15T11:41:47Z</time>
      </trkpt>
      <trkpt lat="36.00722" lon="-5.60794">
        <ele>2.532633</ele>
        <time>2021-07-15T11:42:45Z</time>
      </trkpt>
      <trkpt lat="36.00721" lon="-5.60796">
        <ele>0.464281</ele>
        <time>2021-07-15T11:43:43Z</time>
      </trkpt>
      <trkpt lat="36.00719" lon="-5.60798">
        <ele>3.83506</ele>
        <time>2021-07-15T11:44:41Z</time>
      </trkpt>
      <trkpt lat="36.00717" lon="-5.60797">
        <ele>2.360017</ele>
        <time>2021-07-15T11:45:40Z</time>
      </trkpt>
      <trkpt lat="36.00714" lon="-5.608">
        <ele>2.4767</ele>
        <time>2021-07-15T11:46:00Z</time>
      </trkpt>
      <trkpt lat="36.00704" lon="-5.60809">
        <ele>1.571156</ele>
        <time>2021-07-15T11:46:11Z</time>
      </trkpt>
      <trkpt lat="36.00693" lon="-5.6082">
        <ele>1.861816</ele>
        <time>2021-07-15T11:46:22Z</time>
      </trkpt>
      <trkpt lat="36.00681" lon="-5.60828">
        <ele>1.456092</ele>
        <time>2021-07-15T11:46:33Z</time>
      </trkpt>
      <trkpt lat="36.00669" lon="-5.60838">
        <ele>2.907618</ele>
        <time>2021-07-15T11:46:44Z</time>
      </trkpt>
      <trkpt lat="36.00656" lon="-5.60847">
        <ele>0.922163</ele>
        <time>2021-07-15T11:46:55Z</time>
      </trkpt>
      <trkpt lat="36.00644" lon="-5.60856">
        <ele>2.03704</ele>
        <time>2021-07-15T11:47:06Z</time>
      </trkpt>
      <trkpt lat="36.0064" lon="-5.60855">
        <ele>3.284738</ele>
        <time>2021-07-15T11:47:18Z</time>
      </trkpt>
      <trkpt lat="36.00629" lon="-5.60867">
        <ele>2.201042</ele>
        <time>2021-07-15T11:47:29Z</time>
      </trkpt>
      <trkpt lat="36.00618" lon="-5.60875">
        <ele>1.650236</ele>
        <time>2021-07-15T11:47:40Z</time>
      </trkpt>
      <trkpt lat="36.00611" lon="-5.60875">
        <ele>1.92805</ele>
        <time>2021-07-15T11:47:51Z</time>
      </trkpt>
      <trkpt lat="36.00601" lon="-5.60886">
        <ele>1.892972</ele>
        <time>2021-07-15T11:48:02Z</time>
      </trkpt>
      <trkpt lat="36.00593" lon="-5.609">
        <ele>1.426071</ele>
        <time>2021-07-15T11:48:13Z</time>
      </trkpt>
      <trkpt lat="36.00593" lon="-5.609">
        <ele>1.446522</ele>
        <time>2021-07-15T11:49:11Z</time>
      </trkpt>
      <trkpt lat="36.00599" lon="-5.60894">
        <ele>3.068362</ele>
        <time>2021-07-15T11:49:22Z</time>
      </trkpt>
      <trkpt lat="36.00603" lon="-5.60891">
        <ele>1.960923</ele>
        <time>2021-07-15T11:49:38Z</time>
      </trkpt>
      <trkpt lat="36.00615" lon="-5.60882">
        <ele>1.779482</ele>
        <time>2021-07-15T11:49:49Z</time>
      </trkpt>
      <trkpt lat="36.00625" lon="-5.60873">
        <ele>0.749394</ele>
        <time>2021-07-15T11:50:00Z</time>
      </trkpt>
      <trkpt lat="36.00637" lon="-5.60861">
        <ele>3.169235</ele>
        <time>2021-07-15T11:50:11Z</time>
      </trkpt>
      <trkpt lat="36.0065" lon="-5.60853">
        <ele>1.856302</ele>
        <time>2021-07-15T11:50:22Z</time>
      </trkpt>
      <trkpt lat="36.0066" lon="-5.60844">
        <ele>2.930113</ele>
        <time>2021-07-15T11:50:33Z</time>
      </trkpt>
      <trkpt lat="36.00671" lon="-5.60835">
        <ele>3.492778</ele>
        <time>2021-07-15T11:50:44Z</time>
      </trkpt>
      <trkpt lat="36.00683" lon="-5.60826">
        <ele>1.920511</ele>
        <time>2021-07-15T11:50:55Z</time>
      </trkpt>
      <trkpt lat="36.00695" lon="-5.60817">
        <ele>2.148336</ele>
        <time>2021-07-15T11:51:06Z</time>
      </trkpt>
      <trkpt lat="36.00705" lon="-5.60809">
        <ele>3.054048</ele>
        <time>2021-07-15T11:51:17Z</time>
      </trkpt>
      <trkpt lat="36.00715" lon="-5.60802">
        <ele>1.566101</ele>
        <time>2021-07-15T11:51:28Z</time>
      </trkpt>
      <trkpt lat="36.00718" lon="-5.60798">
        <ele>3.088652</ele>
        <time>2021-07-15T11:51:40Z</time>
      </trkpt>
      <trkpt lat="36.00733" lon="-5.60787">
        <ele>3.404666</ele>
        <time>2021-07-15T11:51:51Z</time>
      </trkpt>
      <trkpt lat="36.00746" lon="-5.60777">
        <ele>1.677839</ele>
        <time>2021-07-15T11:52:02Z</time>
      </trkpt>
      <trkpt lat="36.00754" lon="-5.60769">
        <ele>0.810601</ele>
        <time>2021-07-15T11:52:13Z</time>
      </trkpt>
      <trkpt lat="36.00766" lon="-5.60761">
        <ele>3.371719</ele>
        <time>2021-07-15T11:52:24Z</time>
      </trkpt>
      <trkpt lat="36.00777" lon="-5.60751">
        <ele>2.551621</ele>
        <time>2021-07-15T11:52:35Z</time>
      </trkpt>
      <trkpt lat="36.00789" lon="-5.60743">
        <ele>1.347672</ele>
        <time>2021-07-15T11:52:46Z</time>
      </trkpt>
      <trkpt lat="36.00802" lon="-5.60732">
        <ele>2.345639</ele>
        <time>2021-07-15T11:52:57Z</time>
      </trkpt>
      <trkpt lat="36.00815" lon="-5.60722">
        <ele>1.614853</ele>
        <time>2021-07-15T11:53:08Z</time>
      </trkpt>
      <trkpt lat="36.0082" lon="-5.60717">
        <ele>1.445829</ele>
        <time>2021-07-15T11:53:19Z</time>
      </trkpt>
      <trkpt lat="36.00833" lon="-5.60707">
        <ele>2.314809</ele>
        <time>2021-07-15T11:53:31Z</time>
      </trkpt>
      <trkpt lat="36.00844" lon="-5.60702">
        <ele>3.492201</ele>
        <time>2021-07-15T11:53:42Z</time>
      </trkpt>
      <trkpt lat="36.00856" lon="-5.60696">
        <ele>2.426004</ele>
        <time>2021-07-15T11:53:53Z</time>
      </trkpt>
      <trkpt lat="36.00867" lon="-5.6069">
        <ele>1.234499</ele>
        <time>2021-07-15T11:54:04Z</time>
      </trkpt>
      <trkpt lat="36.00879" lon="-5.60684">
        <ele>1.859329</ele>
        <time>2021-07-15T11:54:15Z</time>
      </trkpt>
      <trkpt lat="36.00883" lon="-5.60683">
        <ele>4.058785</ele>
        <time>2021-07-15T11:54:57Z</time>
      </trkpt>
      <trkpt lat="36.00882" lon="-5.6068">
        <ele>3.307058</ele>
        <time>2021-07-15T11:55:57Z</time>
      </trkpt>
      <trkpt lat="36.00881" lon="-5.6068">
        <ele>4.38731</ele>
        <time>2021-07-15T11:56:56Z</time>
      </trkpt>
      <trkpt lat="36.00875" lon="-5.60682">
        <ele>4.944917</ele>
        <time>2021-07-15T11:57:16Z</time>
      </trkpt>
      <trkpt lat="36.00868" lon="-5.60706">
        <ele>3.475848</ele>
        <time>2021-07-15T11:57:27Z</time>
      </trkpt>
      <trkpt lat="36.00912" lon="-5.60747">
        <ele>5.264532</ele>
        <time>2021-07-15T11:57:38Z</time>
      </trkpt>
      <trkpt lat="36.00947" lon="-5.60782">
        <ele>6.249579</ele>
        <time>2021-07-15T11:57:49Z</time>
      </trkpt>
      <trkpt lat="36.00965" lon="-5.60753">
        <ele>6.149198</ele>
        <time>2021-07-15T11:58:00Z</time>
      </trkpt>
      <trkpt lat="36.00982" lon="-5.60709">
        <ele>6.332115</ele>
        <time>2021-07-15T11:58:11Z</time>
      </trkpt>
      <trkpt lat="36.00995" lon="-5.60679">
        <ele>5.614642</ele>
        <time>2021-07-15T11:58:22Z</time>
      </trkpt>
      <trkpt lat="36.01044" lon="-5.60697">
        <ele>5.507509</ele>
        <time>2021-07-15T11:58:33Z</time>
      </trkpt>
      <trkpt lat="36.01114" lon="-5.60712">
        <ele>4.742647</ele>
        <time>2021-07-15T11:58:44Z</time>
      </trkpt>
      <trkpt lat="36.01173" lon="-5.60736">
        <ele>8.890634</ele>
        <time>2021-07-15T11:58:55Z</time>
      </trkpt>
      <trkpt lat="36.01245" lon="-5.60753">
        <ele>12.50279</ele>
        <time>2021-07-15T11:59:06Z</time>
      </trkpt>
      <trkpt lat="36.01288" lon="-5.60695">
        <ele>19.99357</ele>
        <time>2021-07-15T11:59:17Z</time>
      </trkpt>
      <trkpt lat="36.01326" lon="-5.60633">
        <ele>22.21794</ele>
        <time>2021-07-15T11:59:28Z</time>
      </trkpt>
      <trkpt lat="36.01348" lon="-5.60596">
        <ele>20.89248</ele>
        <time>2021-07-15T11:59:39Z</time>
      </trkpt>
      <trkpt lat="36.01347" lon="-5.6059">
        <ele>20.61664</ele>
        <time>2021-07-15T11:59:51Z</time>
      </trkpt>
      <trkpt lat="36.01361" lon="-5.60568">
        <ele>21.33257</ele>
        <time>2021-07-15T12:00:03Z</time>
      </trkpt>
      <trkpt lat="36.01406" lon="-5.60492">
        <ele>24.63401</ele>
        <time>2021-07-15T12:00:14Z</time>
      </trkpt>
      <trkpt lat="36.01452" lon="-5.60414">
        <ele>27.72475</ele>
        <time>2021-07-15T12:00:25Z</time>
      </trkpt>
      <trkpt lat="36.01503" lon="-5.60333">
        <ele>28.77615</ele>
        <time>2021-07-15T12:00:36Z</time>
      </trkpt>
      <trkpt lat="36.01556" lon="-5.60244">
        <ele>36.11194</ele>
        <time>2021-07-15T12:00:47Z</time>
      </trkpt>
      <trkpt lat="36.01649" lon="-5.60173">
        <ele>41.68781</ele>
        <time>2021-07-15T12:00:58Z</time>
      </trkpt>
      <trkpt lat="36.01733" lon="-5.60118">
        <ele>48.12554</ele>
        <time>2021-07-15T12:01:09Z</time>
      </trkpt>
      <trkpt lat="36.01809" lon="-5.6006">
        <ele>51.78411</ele>
        <time>2021-07-15T12:01:20Z</time>
      </trkpt>
      <trkpt lat="36.01919" lon="-5.60005">
        <ele>56.69432</ele>
        <time>2021-07-15T12:01:31Z</time>
      </trkpt>
      <trkpt lat="36.01987" lon="-5.59968">
        <ele>58.2883</ele>
        <time>2021-07-15T12:01:42Z</time>
      </trkpt>
      <trkpt lat="36.01975" lon="-5.59954">
        <ele>59.28037</ele>
        <time>2021-07-15T12:01:53Z</time>
      </trkpt>
      <trkpt lat="36.01967" lon="-5.59951">
        <ele>60.50219</ele>
        <time>2021-07-15T12:02:04Z</time>
      </trkpt>
      <trkpt lat="36.01963" lon="-5.5995">
        <ele>60.51408</ele>
        <time>2021-07-15T12:02:15Z</time>
      </trkpt>
      <trkpt lat="36.01963" lon="-5.59946">
        <ele>61.76613</ele>
        <time>2021-07-15T12:02:26Z</time>
      </trkpt>
      <trkpt lat="36.0196" lon="-5.59946">
        <ele>60.63648</ele>
        <time>2021-07-15T12:03:13Z</time>
      </trkpt>
      <trkpt lat="36.01956" lon="-5.59945">
        <ele>60.59511</ele>
        <time>2021-07-15T12:03:38Z</time>
      </trkpt>
      <trkpt lat="36.01957" lon="-5.59952">
        <ele>60.14779</ele>
        <time>2021-07-15T12:04:22Z</time>
      </trkpt>
      <trkpt lat="36.0196" lon="-5.59954">
        <ele>60.26362</ele>
        <time>2021-07-15T12:04:37Z</time>
      </trkpt>
      <trkpt lat="36.01963" lon="-5.59953">
        <ele>60.42128</ele>
        <time>2021-07-15T12:04:50Z</time>
      </trkpt>
      <trkpt lat="36.0196" lon="-5.59953">
        <ele>59.95656</ele>
        <time>2021-07-15T12:05:23Z</time>
      </trkpt>
      <trkpt lat="36.01958" lon="-5.59957">
        <ele>60.18934</ele>
        <time>2021-07-15T12:05:49Z</time>
      </trkpt>
      <trkpt lat="36.01957" lon="-5.59962">
        <ele>58.77828</ele>
        <time>2021-07-15T12:06:12Z</time>
      </trkpt>
      <trkpt lat="36.01967" lon="-5.59967">
        <ele>58.35739</ele>
        <time>2021-07-15T12:06:23Z</time>
      </trkpt>
      <trkpt lat="36.02028" lon="-5.59935">
        <ele>61.36232</ele>
        <time>2021-07-15T12:06:34Z</time>
      </trkpt>
      <trkpt lat="36.0212" lon="-5.59855">
        <ele>64.87808</ele>
        <time>2021-07-15T12:06:45Z</time>
      </trkpt>
      <trkpt lat="36.0222" lon="-5.59746">
        <ele>71.61142</ele>
        <time>2021-07-15T12:06:56Z</time>
      </trkpt>
      <trkpt lat="36.02333" lon="-5.59577">
        <ele>80.07734</ele>
        <time>2021-07-15T12:07:07Z</time>
      </trkpt>
      <trkpt lat="36.024" lon="-5.59367">
        <ele>80.27903</ele>
        <time>2021-07-15T12:07:18Z</time>
      </trkpt>
      <trkpt lat="36.02492" lon="-5.59143">
        <ele>80.27442</ele>
        <time>2021-07-15T12:07:29Z</time>
      </trkpt>
      <trkpt lat="36.02615" lon="-5.58896">
        <ele>94.7022</ele>
        <time>2021-07-15T12:07:40Z</time>
      </trkpt>
      <trkpt lat="36.02752" lon="-5.5865">
        <ele>108.4849</ele>
        <time>2021-07-15T12:07:51Z</time>
      </trkpt>
      <trkpt lat="36.0292" lon="-5.58431">
        <ele>122.4914</ele>
        <time>2021-07-15T12:08:02Z</time>
      </trkpt>
      <trkpt lat="36.03075" lon="-5.58235">
        <ele>132.5564</ele>
        <time>2021-07-15T12:08:13Z</time>
      </trkpt>
      <trkpt lat="36.03191" lon="-5.57976">
        <ele>145.7532</ele>
        <time>2021-07-15T12:08:24Z</time>
      </trkpt>
      <trkpt lat="36.03252" lon="-5.57693">
        <ele>159.0091</ele>
        <time>2021-07-15T12:08:35Z</time>
      </trkpt>
      <trkpt lat="36.03385" lon="-5.57499">
        <ele>159.0661</ele>
        <time>2021-07-15T12:08:46Z</time>
      </trkpt>
      <trkpt lat="36.03483" lon="-5.57254">
        <ele>171.8332</ele>
        <time>2021-07-15T12:08:57Z</time>
      </trkpt>
      <trkpt lat="36.03669" lon="-5.57138">
        <ele>166.3156</ele>
        <time>2021-07-15T12:09:08Z</time>
      </trkpt>
      <trkpt lat="36.03847" lon="-5.56946">
        <ele>160.0907</ele>
        <time>2021-07-15T12:09:19Z</time>
      </trkpt>
      <trkpt lat="36.04059" lon="-5.56866">
        <ele>156.1749</ele>
        <time>2021-07-15T12:09:30Z</time>
      </trkpt>
      <trkpt lat="36.04083" lon="-5.56622">
        <ele>167.8447</ele>
        <time>2021-07-15T12:09:41Z</time>
      </trkpt>
      <trkpt lat="36.04047" lon="-5.56382">
        <ele>186.7134</ele>
        <time>2021-07-15T12:09:52Z</time>
      </trkpt>
      <trkpt lat="36.04137" lon="-5.56126">
        <ele>202.4481</ele>
        <time>2021-07-15T12:10:03Z</time>
      </trkpt>
      <trkpt lat="36.04358" lon="-5.56039">
        <ele>219.7928</ele>
        <time>2021-07-15T12:10:14Z</time>
      </trkpt>
      <trkpt lat="36.04539" lon="-5.56059">
        <ele>230.0788</ele>
        <time>2021-07-15T12:10:25Z</time>
      </trkpt>
      <trkpt lat="36.04621" lon="-5.55874">
        <ele>242.7431</ele>
        <time>2021-07-15T12:10:36Z</time>
      </trkpt>
      <trkpt lat="36.04723" lon="-5.55716">
        <ele>255.5068</ele>
        <time>2021-07-15T12:10:47Z</time>
      </trkpt>
      <trkpt lat="36.04875" lon="-5.55557">
        <ele>270.6026</ele>
        <time>2021-07-15T12:10:58Z</time>
      </trkpt>
      <trkpt lat="36.05045" lon="-5.55421">
        <ele>281.1508</ele>
        <time>2021-07-15T12:11:09Z</time>
      </trkpt>
      <trkpt lat="36.05196" lon="-5.55444">
        <ele>292.0254</ele>
        <time>2021-07-15T12:11:20Z</time>
      </trkpt>
      <trkpt lat="36.05333" lon="-5.55355">
        <ele>300.2762</ele>
        <time>2021-07-15T12:11:31Z</time>
      </trkpt>
      <trkpt lat="36.05411" lon="-5.55205">
        <ele>307.2941</ele>
        <time>2021-07-15T12:11:42Z</time>
      </trkpt>
      <trkpt lat="36.05435" lon="-5.55012">
        <ele>322.8737</ele>
        <time>2021-07-15T12:11:53Z</time>
      </trkpt>
      <trkpt lat="36.05569" lon="-5.54865">
        <ele>321.8489</ele>
        <time>2021-07-15T12:12:04Z</time>
      </trkpt>
      <trkpt lat="36.05721" lon="-5.54745">
        <ele>325.1307</ele>
        <time>2021-07-15T12:12:15Z</time>
      </trkpt>
      <trkpt lat="36.05779" lon="-5.54556">
        <ele>328.5137</ele>
        <time>2021-07-15T12:12:26Z</time>
      </trkpt>
      <trkpt lat="36.05803" lon="-5.5434">
        <ele>331.1356</ele>
        <time>2021-07-15T12:12:37Z</time>
      </trkpt>
      <trkpt lat="36.05878" lon="-5.54113">
        <ele>323.9289</ele>
        <time>2021-07-15T12:12:48Z</time>
      </trkpt>
      <trkpt lat="36.06002" lon="-5.53888">
        <ele>316.4028</ele>
        <time>2021-07-15T12:12:59Z</time>
      </trkpt>
      <trkpt lat="36.06178" lon="-5.53757">
        <ele>304.8606</ele>
        <time>2021-07-15T12:13:10Z</time>
      </trkpt>
      <trkpt lat="36.06297" lon="-5.53572">
        <ele>292.6369</ele>
        <time>2021-07-15T12:13:21Z</time>
      </trkpt>
      <trkpt lat="36.06407" lon="-5.53372">
        <ele>280.8005</ele>
        <time>2021-07-15T12:13:32Z</time>
      </trkpt>
      <trkpt lat="36.0659" lon="-5.5323">
        <ele>264.157</ele>
        <time>2021-07-15T12:13:43Z</time>
      </trkpt>
      <trkpt lat="36.06739" lon="-5.53098">
        <ele>267.6757</ele>
        <time>2021-07-15T12:13:54Z</time>
      </trkpt>
      <trkpt lat="36.06913" lon="-5.53029">
        <ele>269.9343</ele>
        <time>2021-07-15T12:14:05Z</time>
      </trkpt>
      <trkpt lat="36.06908" lon="-5.52781">
        <ele>278.64</ele>
        <time>2021-07-15T12:14:16Z</time>
      </trkpt>
      <trkpt lat="36.06917" lon="-5.52484">
        <ele>275.5245</ele>
        <time>2021-07-15T12:14:27Z</time>
      </trkpt>
      <trkpt lat="36.06986" lon="-5.52227">
        <ele>281.81</ele>
        <time>2021-07-15T12:14:38Z</time>
      </trkpt>
      <trkpt lat="36.07089" lon="-5.51959">
        <ele>292.9258</ele>
        <time>2021-07-15T12:14:49Z</time>
      </trkpt>
      <trkpt lat="36.07164" lon="-5.51678">
        <ele>304.7702</ele>
        <time>2021-07-15T12:15:00Z</time>
      </trkpt>
      <trkpt lat="36.07236" lon="-5.51399">
        <ele>317.9353</ele>
        <time>2021-07-15T12:15:11Z</time>
      </trkpt>
      <trkpt lat="36.07334" lon="-5.51143">
        <ele>321.3081</ele>
        <time>2021-07-15T12:15:22Z</time>
      </trkpt>
      <trkpt lat="36.07546" lon="-5.50993">
        <ele>306.8975</ele>
        <time>2021-07-15T12:15:33Z</time>
      </trkpt>
      <trkpt lat="36.07705" lon="-5.50782">
        <ele>290.77</ele>
        <time>2021-07-15T12:15:44Z</time>
      </trkpt>
      <trkpt lat="36.07863" lon="-5.5064">
        <ele>278.1496</ele>
        <time>2021-07-15T12:15:55Z</time>
      </trkpt>
      <trkpt lat="36.08064" lon="-5.50621">
        <ele>265.4799</ele>
        <time>2021-07-15T12:16:06Z</time>
      </trkpt>
      <trkpt lat="36.08167" lon="-5.50531">
        <ele>256.903</ele>
        <time>2021-07-15T12:16:17Z</time>
      </trkpt>
      <trkpt lat="36.08233" lon="-5.50357">
        <ele>251.3724</ele>
        <time>2021-07-15T12:16:28Z</time>
      </trkpt>
      <trkpt lat="36.08283" lon="-5.50189">
        <ele>242.9408</ele>
        <time>2021-07-15T12:16:39Z</time>
      </trkpt>
      <trkpt lat="36.08334" lon="-5.49976">
        <ele>232.8072</ele>
        <time>2021-07-15T12:16:50Z</time>
      </trkpt>
      <trkpt lat="36.08378" lon="-5.49733">
        <ele>220.8977</ele>
        <time>2021-07-15T12:17:01Z</time>
      </trkpt>
      <trkpt lat="36.0849" lon="-5.49535">
        <ele>209.6984</ele>
        <time>2021-07-15T12:17:12Z</time>
      </trkpt>
      <trkpt lat="36.08603" lon="-5.49306">
        <ele>198.589</ele>
        <time>2021-07-15T12:17:23Z</time>
      </trkpt>
      <trkpt lat="36.08734" lon="-5.49076">
        <ele>186.7762</ele>
        <time>2021-07-15T12:17:34Z</time>
      </trkpt>
      <trkpt lat="36.08781" lon="-5.48801">
        <ele>176.4666</ele>
        <time>2021-07-15T12:17:45Z</time>
      </trkpt>
      <trkpt lat="36.08876" lon="-5.48527">
        <ele>165.7282</ele>
        <time>2021-07-15T12:17:56Z</time>
      </trkpt>
      <trkpt lat="36.0895" lon="-5.48263">
        <ele>161.1766</ele>
        <time>2021-07-15T12:18:07Z</time>
      </trkpt>
      <trkpt lat="36.09079" lon="-5.48052">
        <ele>154.4269</ele>
        <time>2021-07-15T12:18:18Z</time>
      </trkpt>
      <trkpt lat="36.09253" lon="-5.47967">
        <ele>146.4666</ele>
        <time>2021-07-15T12:18:29Z</time>
      </trkpt>
      <trkpt lat="36.09319" lon="-5.47761">
        <ele>135.5904</ele>
        <time>2021-07-15T12:18:40Z</time>
      </trkpt>
      <trkpt lat="36.09372" lon="-5.47538">
        <ele>126.0961</ele>
        <time>2021-07-15T12:18:51Z</time>
      </trkpt>
      <trkpt lat="36.09438" lon="-5.4729">
        <ele>113.6011</ele>
        <time>2021-07-15T12:19:02Z</time>
      </trkpt>
      <trkpt lat="36.09613" lon="-5.47123">
        <ele>101.1652</ele>
        <time>2021-07-15T12:19:13Z</time>
      </trkpt>
      <trkpt lat="36.09767" lon="-5.46924">
        <ele>89.94919</ele>
        <time>2021-07-15T12:19:24Z</time>
      </trkpt>
      <trkpt lat="36.09889" lon="-5.46732">
        <ele>80.02606</ele>
        <time>2021-07-15T12:19:35Z</time>
      </trkpt>
      <trkpt lat="36.10011" lon="-5.4658">
        <ele>69.43652</ele>
        <time>2021-07-15T12:19:46Z</time>
      </trkpt>
      <trkpt lat="36.1015" lon="-5.46433">
        <ele>59.30296</ele>
        <time>2021-07-15T12:19:57Z</time>
      </trkpt>
      <trkpt lat="36.10338" lon="-5.46343">
        <ele>48.58849</ele>
        <time>2021-07-15T12:20:08Z</time>
      </trkpt>
      <trkpt lat="36.10491" lon="-5.46253">
        <ele>42.40152</ele>
        <time>2021-07-15T12:20:19Z</time>
      </trkpt>
      <trkpt lat="36.10581" lon="-5.46156">
        <ele>39.16803</ele>
        <time>2021-07-15T12:20:30Z</time>
      </trkpt>
      <trkpt lat="36.10654" lon="-5.46066">
        <ele>39.68785</ele>
        <time>2021-07-15T12:20:41Z</time>
      </trkpt>
      <trkpt lat="36.10765" lon="-5.45947">
        <ele>34.69509</ele>
        <time>2021-07-15T12:20:52Z</time>
      </trkpt>
      <trkpt lat="36.10914" lon="-5.45853">
        <ele>34.17917</ele>
        <time>2021-07-15T12:21:03Z</time>
      </trkpt>
      <trkpt lat="36.10998" lon="-5.45808">
        <ele>36.62819</ele>
        <time>2021-07-15T12:21:14Z</time>
      </trkpt>
      <trkpt lat="36.11036" lon="-5.45789">
        <ele>35.53676</ele>
        <time>2021-07-15T12:21:25Z</time>
      </trkpt>
      <trkpt lat="36.11118" lon="-5.45846">
        <ele>37.08561</ele>
        <time>2021-07-15T12:21:36Z</time>
      </trkpt>
      <trkpt lat="36.11213" lon="-5.4594">
        <ele>38.84516</ele>
        <time>2021-07-15T12:21:47Z</time>
      </trkpt>
      <trkpt lat="36.11231" lon="-5.46052">
        <ele>36.36197</ele>
        <time>2021-07-15T12:21:58Z</time>
      </trkpt>
      <trkpt lat="36.11255" lon="-5.46089">
        <ele>34.9524</ele>
        <time>2021-07-15T12:22:09Z</time>
      </trkpt>
      <trkpt lat="36.11308" lon="-5.46057">
        <ele>32.49587</ele>
        <time>2021-07-15T12:22:20Z</time>
      </trkpt>
      <trkpt lat="36.11335" lon="-5.4609">
        <ele>36.46321</ele>
        <time>2021-07-15T12:22:31Z</time>
      </trkpt>
      <trkpt lat="36.11366" lon="-5.46218">
        <ele>43.7277</ele>
        <time>2021-07-15T12:22:42Z</time>
      </trkpt>
      <trkpt lat="36.11389" lon="-5.46315">
        <ele>44.91855</ele>
        <time>2021-07-15T12:22:53Z</time>
      </trkpt>
      <trkpt lat="36.11417" lon="-5.46416">
        <ele>47.06546</ele>
        <time>2021-07-15T12:23:04Z</time>
      </trkpt>
      <trkpt lat="36.11456" lon="-5.46524">
        <ele>49.64376</ele>
        <time>2021-07-15T12:23:15Z</time>
      </trkpt>
      <trkpt lat="36.11495" lon="-5.46627">
        <ele>48.97288</ele>
        <time>2021-07-15T12:23:26Z</time>
      </trkpt>
      <trkpt lat="36.11512" lon="-5.46716">
        <ele>55.4331</ele>
        <time>2021-07-15T12:23:37Z</time>
      </trkpt>
      <trkpt lat="36.11524" lon="-5.46839">
        <ele>57.16407</ele>
        <time>2021-07-15T12:23:48Z</time>
      </trkpt>
      <trkpt lat="36.11585" lon="-5.4693">
        <ele>55.85767</ele>
        <time>2021-07-15T12:23:59Z</time>
      </trkpt>
      <trkpt lat="36.11657" lon="-5.47044">
        <ele>58.80683</ele>
        <time>2021-07-15T12:24:10Z</time>
      </trkpt>
      <trkpt lat="36.11738" lon="-5.47161">
        <ele>61.36406</ele>
        <time>2021-07-15T12:24:21Z</time>
      </trkpt>
      <trkpt lat="36.11771" lon="-5.47293">
        <ele>67.6004</ele>
        <time>2021-07-15T12:24:32Z</time>
      </trkpt>
      <trkpt lat="36.11785" lon="-5.47326">
        <ele>68.11623</ele>
        <time>2021-07-15T12:24:43Z</time>
      </trkpt>
      <trkpt lat="36.11847" lon="-5.47425">
        <ele>61.70363</ele>
        <time>2021-07-15T12:24:54Z</time>
      </trkpt>
      <trkpt lat="36.11868" lon="-5.47543">
        <ele>54.13336</ele>
        <time>2021-07-15T12:25:05Z</time>
      </trkpt>
      <trkpt lat="36.11838" lon="-5.47687">
        <ele>46.12002</ele>
        <time>2021-07-15T12:25:16Z</time>
      </trkpt>
      <trkpt lat="36.11829" lon="-5.4782">
        <ele>46.07169</ele>
        <time>2021-07-15T12:25:27Z</time>
      </trkpt>
      <trkpt lat="36.11884" lon="-5.47891">
        <ele>45.22222</ele>
        <time>2021-07-15T12:25:38Z</time>
      </trkpt>
      <trkpt lat="36.11987" lon="-5.47964">
        <ele>43.92783</ele>
        <time>2021-07-15T12:25:49Z</time>
      </trkpt>
      <trkpt lat="36.12173" lon="-5.47959">
        <ele>39.96238</ele>
        <time>2021-07-15T12:26:00Z</time>
      </trkpt>
      <trkpt lat="36.12307" lon="-5.47944">
        <ele>40.18836</ele>
        <time>2021-07-15T12:26:11Z</time>
      </trkpt>
      <trkpt lat="36.12361" lon="-5.4807">
        <ele>49.9198</ele>
        <time>2021-07-15T12:26:22Z</time>
      </trkpt>
      <trkpt lat="36.1248" lon="-5.48207">
        <ele>57.7619</ele>
        <time>2021-07-15T12:26:33Z</time>
      </trkpt>
      <trkpt lat="36.12516" lon="-5.48371">
        <ele>68.12512</ele>
        <time>2021-07-15T12:26:44Z</time>
      </trkpt>
      <trkpt lat="36.12645" lon="-5.48498">
        <ele>69.16557</ele>
        <time>2021-07-15T12:26:55Z</time>
      </trkpt>
      <trkpt lat="36.12875" lon="-5.48549">
        <ele>60.8675</ele>
        <time>2021-07-15T12:27:06Z</time>
      </trkpt>
      <trkpt lat="36.1309" lon="-5.485">
        <ele>46.26917</ele>
        <time>2021-07-15T12:27:17Z</time>
      </trkpt>
      <trkpt lat="36.13275" lon="-5.4849">
        <ele>36.00785</ele>
        <time>2021-07-15T12:27:28Z</time>
      </trkpt>
      <trkpt lat="36.13448" lon="-5.48387">
        <ele>19.43878</ele>
        <time>2021-07-15T12:27:39Z</time>
      </trkpt>
      <trkpt lat="36.13657" lon="-5.48426">
        <ele>13.96292</ele>
        <time>2021-07-15T12:27:50Z</time>
      </trkpt>
      <trkpt lat="36.13862" lon="-5.48283">
        <ele>15.05112</ele>
        <time>2021-07-15T12:28:01Z</time>
      </trkpt>
      <trkpt lat="36.14052" lon="-5.48153">
        <ele>13.54895</ele>
        <time>2021-07-15T12:28:12Z</time>
      </trkpt>
      <trkpt lat="36.14243" lon="-5.48145">
        <ele>11.76781</ele>
        <time>2021-07-15T12:28:23Z</time>
      </trkpt>
      <trkpt lat="36.14351" lon="-5.48145">
        <ele>13.34022</ele>
        <time>2021-07-15T12:28:34Z</time>
      </trkpt>
      <trkpt lat="36.14488" lon="-5.48187">
        <ele>13.71177</ele>
        <time>2021-07-15T12:28:45Z</time>
      </trkpt>
      <trkpt lat="36.14658" lon="-5.48155">
        <ele>10.40453</ele>
        <time>2021-07-15T12:28:56Z</time>
      </trkpt>
      <trkpt lat="36.14856" lon="-5.48104">
        <ele>8.693538</ele>
        <time>2021-07-15T12:29:07Z</time>
      </trkpt>
      <trkpt lat="36.15064" lon="-5.4804">
        <ele>7.843389</ele>
        <time>2021-07-15T12:29:18Z</time>
      </trkpt>
      <trkpt lat="36.15244" lon="-5.47985">
        <ele>5.201084</ele>
        <time>2021-07-15T12:29:29Z</time>
      </trkpt>
      <trkpt lat="36.15289" lon="-5.47972">
        <ele>5.471944</ele>
        <time>2021-07-15T12:29:40Z</time>
      </trkpt>
      <trkpt lat="36.15447" lon="-5.47923">
        <ele>5.851328</ele>
        <time>2021-07-15T12:29:51Z</time>
      </trkpt>
      <trkpt lat="36.15649" lon="-5.47854">
        <ele>4.949891</ele>
        <time>2021-07-15T12:30:02Z</time>
      </trkpt>
      <trkpt lat="36.15789" lon="-5.47735">
        <ele>5.102744</ele>
        <time>2021-07-15T12:30:13Z</time>
      </trkpt>
      <trkpt lat="36.15836" lon="-5.47753">
        <ele>6.527171</ele>
        <time>2021-07-15T12:30:24Z</time>
      </trkpt>
      <trkpt lat="36.16012" lon="-5.47826">
        <ele>7.812417</ele>
        <time>2021-07-15T12:30:35Z</time>
      </trkpt>
      <trkpt lat="36.16163" lon="-5.47971">
        <ele>5.957339</ele>
        <time>2021-07-15T12:30:46Z</time>
      </trkpt>
      <trkpt lat="36.16252" lon="-5.48259">
        <ele>4.813614</ele>
        <time>2021-07-15T12:30:57Z</time>
      </trkpt>
      <trkpt lat="36.16381" lon="-5.48501">
        <ele>2.627443</ele>
        <time>2021-07-15T12:31:08Z</time>
      </trkpt>
      <trkpt lat="36.16446" lon="-5.48744">
        <ele>2.050553</ele>
        <time>2021-07-15T12:31:19Z</time>
      </trkpt>
      <trkpt lat="36.16429" lon="-5.48991">
        <ele>4.429991</ele>
        <time>2021-07-15T12:31:30Z</time>
      </trkpt>
      <trkpt lat="36.16426" lon="-5.49233">
        <ele>15.8642</ele>
        <time>2021-07-15T12:31:41Z</time>
      </trkpt>
      <trkpt lat="36.16459" lon="-5.49471">
        <ele>13.91478</ele>
        <time>2021-07-15T12:31:52Z</time>
      </trkpt>
      <trkpt lat="36.16511" lon="-5.49692">
        <ele>9.729835</ele>
        <time>2021-07-15T12:32:03Z</time>
      </trkpt>
      <trkpt lat="36.16624" lon="-5.49823">
        <ele>9.991504</ele>
        <time>2021-07-15T12:32:14Z</time>
      </trkpt>
      <trkpt lat="36.16745" lon="-5.49694">
        <ele>2.685577</ele>
        <time>2021-07-15T12:32:25Z</time>
      </trkpt>
      <trkpt lat="36.16958" lon="-5.49541">
        <ele>2.427975</ele>
        <time>2021-07-15T12:32:36Z</time>
      </trkpt>
      <trkpt lat="36.17179" lon="-5.49429">
        <ele>0.101117</ele>
        <time>2021-07-15T12:32:47Z</time>
      </trkpt>
      <trkpt lat="36.17345" lon="-5.49375">
        <ele>-0.377351</ele>
        <time>2021-07-15T12:32:58Z</time>
      </trkpt>
      <trkpt lat="36.174" lon="-5.49212">
        <ele>4.009215</ele>
        <time>2021-07-15T12:33:09Z</time>
      </trkpt>
      <trkpt lat="36.1752" lon="-5.49134">
        <ele>4.290324</ele>
        <time>2021-07-15T12:33:20Z</time>
      </trkpt>
      <trkpt lat="36.1765" lon="-5.49095">
        <ele>6.523212</ele>
        <time>2021-07-15T12:33:31Z</time>
      </trkpt>
      <trkpt lat="36.17772" lon="-5.49048">
        <ele>6.934394</ele>
        <time>2021-07-15T12:33:42Z</time>
      </trkpt>
      <trkpt lat="36.17857" lon="-5.49054">
        <ele>6.365035</ele>
        <time>2021-07-15T12:33:53Z</time>
      </trkpt>
      <trkpt lat="36.17952" lon="-5.49103">
        <ele>7.349209</ele>
        <time>2021-07-15T12:34:04Z</time>
      </trkpt>
      <trkpt lat="36.18017" lon="-5.49139">
        <ele>6.407477</ele>
        <time>2021-07-15T12:34:15Z</time>
      </trkpt>
      <trkpt lat="36.18052" lon="-5.49161">
        <ele>9.615304</ele>
        <time>2021-07-15T12:34:26Z</time>
      </trkpt>
      <trkpt lat="36.18135" lon="-5.49214">
        <ele>13.34042</ele>
        <time>2021-07-15T12:34:37Z</time>
      </trkpt>
      <trkpt lat="36.18231" lon="-5.4925">
        <ele>12.05223</ele>
        <time>2021-07-15T12:34:48Z</time>
      </trkpt>
      <trkpt lat="36.18289" lon="-5.4925">
        <ele>13.74891</ele>
        <time>2021-07-15T12:34:59Z</time>
      </trkpt>
      <trkpt lat="36.18304" lon="-5.49288">
        <ele>16.14981</ele>
        <time>2021-07-15T12:35:10Z</time>
      </trkpt>
      <trkpt lat="36.18325" lon="-5.49369">
        <ele>19.02608</ele>
        <time>2021-07-15T12:35:21Z</time>
      </trkpt>
      <trkpt lat="36.18342" lon="-5.49441">
        <ele>20.03124</ele>
        <time>2021-07-15T12:35:32Z</time>
      </trkpt>
      <trkpt lat="36.18408" lon="-5.49513">
        <ele>15.54693</ele>
        <time>2021-07-15T12:35:43Z</time>
      </trkpt>
      <trkpt lat="36.18469" lon="-5.49631">
        <ele>19.00382</ele>
        <time>2021-07-15T12:35:54Z</time>
      </trkpt>
      <trkpt lat="36.18517" lon="-5.49772">
        <ele>22.88018</ele>
        <time>2021-07-15T12:36:05Z</time>
      </trkpt>
      <trkpt lat="36.18534" lon="-5.49871">
        <ele>22.13263</ele>
        <time>2021-07-15T12:36:16Z</time>
      </trkpt>
      <trkpt lat="36.18599" lon="-5.50012">
        <ele>21.21252</ele>
        <time>2021-07-15T12:36:27Z</time>
      </trkpt>
      <trkpt lat="36.18774" lon="-5.50039">
        <ele>9.077658</ele>
        <time>2021-07-15T12:36:38Z</time>
      </trkpt>
      <trkpt lat="36.18883" lon="-5.50065">
        <ele>7.742812</ele>
        <time>2021-07-15T12:36:49Z</time>
      </trkpt>
      <trkpt lat="36.19026" lon="-5.50252">
        <ele>9.215551</ele>
        <time>2021-07-15T12:37:00Z</time>
      </trkpt>
      <trkpt lat="36.1916" lon="-5.50471">
        <ele>9.886116</ele>
        <time>2021-07-15T12:37:11Z</time>
      </trkpt>
      <trkpt lat="36.19297" lon="-5.50687">
        <ele>25.86918</ele>
        <time>2021-07-15T12:37:22Z</time>
      </trkpt>
      <trkpt lat="36.19456" lon="-5.50842">
        <ele>44.78209</ele>
        <time>2021-07-15T12:37:33Z</time>
      </trkpt>
      <trkpt lat="36.19616" lon="-5.50906">
        <ele>45.88254</ele>
        <time>2021-07-15T12:37:44Z</time>
      </trkpt>
      <trkpt lat="36.19762" lon="-5.50821">
        <ele>49.86936</ele>
        <time>2021-07-15T12:37:55Z</time>
      </trkpt>
      <trkpt lat="36.19927" lon="-5.50824">
        <ele>53.41855</ele>
        <time>2021-07-15T12:38:06Z</time>
      </trkpt>
      <trkpt lat="36.20031" lon="-5.50807">
        <ele>53.42605</ele>
        <time>2021-07-15T12:38:17Z</time>
      </trkpt>
      <trkpt lat="36.20186" lon="-5.5084">
        <ele>54.10408</ele>
        <time>2021-07-15T12:38:28Z</time>
      </trkpt>
      <trkpt lat="36.20295" lon="-5.50704">
        <ele>57.21953</ele>
        <time>2021-07-15T12:38:39Z</time>
      </trkpt>
      <trkpt lat="36.20411" lon="-5.50593">
        <ele>57.54234</ele>
        <time>2021-07-15T12:38:50Z</time>
      </trkpt>
      <trkpt lat="36.20417" lon="-5.50425">
        <ele>64.45186</ele>
        <time>2021-07-15T12:39:01Z</time>
      </trkpt>
      <trkpt lat="36.20347" lon="-5.50264">
        <ele>72.65667</ele>
        <time>2021-07-15T12:39:12Z</time>
      </trkpt>
      <trkpt lat="36.20436" lon="-5.50169">
        <ele>72.15888</ele>
        <time>2021-07-15T12:39:23Z</time>
      </trkpt>
      <trkpt lat="36.20428" lon="-5.49992">
        <ele>73.90369</ele>
        <time>2021-07-15T12:39:34Z</time>
      </trkpt>
      <trkpt lat="36.20399" lon="-5.49796">
        <ele>84.94708</ele>
        <time>2021-07-15T12:39:45Z</time>
      </trkpt>
      <trkpt lat="36.20449" lon="-5.49618">
        <ele>97.87869</ele>
        <time>2021-07-15T12:39:56Z</time>
      </trkpt>
      <trkpt lat="36.20509" lon="-5.49471">
        <ele>111.42</ele>
        <time>2021-07-15T12:40:07Z</time>
      </trkpt>
      <trkpt lat="36.20509" lon="-5.49274">
        <ele>128.3116</ele>
        <time>2021-07-15T12:40:18Z</time>
      </trkpt>
      <trkpt lat="36.20562" lon="-5.49079">
        <ele>134.8923</ele>
        <time>2021-07-15T12:40:29Z</time>
      </trkpt>
      <trkpt lat="36.20681" lon="-5.49096">
        <ele>138.6903</ele>
        <time>2021-07-15T12:40:40Z</time>
      </trkpt>
      <trkpt lat="36.20699" lon="-5.4902">
        <ele>135.0285</ele>
        <time>2021-07-15T12:40:51Z</time>
      </trkpt>
      <trkpt lat="36.20603" lon="-5.48838">
        <ele>131.2088</ele>
        <time>2021-07-15T12:41:02Z</time>
      </trkpt>
      <trkpt lat="36.20531" lon="-5.48658">
        <ele>132.114</ele>
        <time>2021-07-15T12:41:13Z</time>
      </trkpt>
      <trkpt lat="36.2049" lon="-5.48463">
        <ele>126.2171</ele>
        <time>2021-07-15T12:41:24Z</time>
      </trkpt>
      <trkpt lat="36.20616" lon="-5.48336">
        <ele>109.821</ele>
        <time>2021-07-15T12:41:35Z</time>
      </trkpt>
      <trkpt lat="36.20659" lon="-5.48149">
        <ele>101.2965</ele>
        <time>2021-07-15T12:41:46Z</time>
      </trkpt>
      <trkpt lat="36.20544" lon="-5.48015">
        <ele>102.4469</ele>
        <time>2021-07-15T12:41:57Z</time>
      </trkpt>
      <trkpt lat="36.20482" lon="-5.47845">
        <ele>102.5071</ele>
        <time>2021-07-15T12:42:08Z</time>
      </trkpt>
      <trkpt lat="36.20593" lon="-5.47764">
        <ele>90.07272</ele>
        <time>2021-07-15T12:42:19Z</time>
      </trkpt>
      <trkpt lat="36.20578" lon="-5.47615">
        <ele>80.74523</ele>
        <time>2021-07-15T12:42:30Z</time>
      </trkpt>
      <trkpt lat="36.20581" lon="-5.47535">
        <ele>74.97249</ele>
        <time>2021-07-15T12:42:41Z</time>
      </trkpt>
      <trkpt lat="36.20531" lon="-5.47398">
        <ele>59.92585</ele>
        <time>2021-07-15T12:42:52Z</time>
      </trkpt>
      <trkpt lat="36.20477" lon="-5.47195">
        <ele>49.9043</ele>
        <time>2021-07-15T12:43:03Z</time>
      </trkpt>
      <trkpt lat="36.20433" lon="-5.47041">
        <ele>41.08346</ele>
        <time>2021-07-15T12:43:14Z</time>
      </trkpt>
      <trkpt lat="36.20319" lon="-5.47112">
        <ele>35.78799</ele>
        <time>2021-07-15T12:43:25Z</time>
      </trkpt>
      <trkpt lat="36.20374" lon="-5.46957">
        <ele>31.98592</ele>
        <time>2021-07-15T12:43:36Z</time>
      </trkpt>
      <trkpt lat="36.20384" lon="-5.46727">
        <ele>25.65246</ele>
        <time>2021-07-15T12:43:47Z</time>
      </trkpt>
      <trkpt lat="36.20414" lon="-5.46525">
        <ele>20.99509</ele>
        <time>2021-07-15T12:43:58Z</time>
      </trkpt>
      <trkpt lat="36.20575" lon="-5.46375">
        <ele>20.80642</ele>
        <time>2021-07-15T12:44:09Z</time>
      </trkpt>
      <trkpt lat="36.20694" lon="-5.46222">
        <ele>38.97335</ele>
        <time>2021-07-15T12:44:20Z</time>
      </trkpt>
      <trkpt lat="36.20775" lon="-5.46133">
        <ele>48.5236</ele>
        <time>2021-07-15T12:44:31Z</time>
      </trkpt>
      <trkpt lat="36.2083" lon="-5.46266">
        <ele>60.48834</ele>
        <time>2021-07-15T12:44:42Z</time>
      </trkpt>
      <trkpt lat="36.20967" lon="-5.46188">
        <ele>69.55182</ele>
        <time>2021-07-15T12:44:53Z</time>
      </trkpt>
      <trkpt lat="36.20903" lon="-5.46178">
        <ele>70.73294</ele>
        <time>2021-07-15T12:45:04Z</time>
      </trkpt>
      <trkpt lat="36.20964" lon="-5.46117">
        <ele>83.68677</ele>
        <time>2021-07-15T12:45:15Z</time>
      </trkpt>
      <trkpt lat="36.21029" lon="-5.46014">
        <ele>96.75405</ele>
        <time>2021-07-15T12:45:26Z</time>
      </trkpt>
      <trkpt lat="36.21037" lon="-5.45921">
        <ele>107.1841</ele>
        <time>2021-07-15T12:45:37Z</time>
      </trkpt>
      <trkpt lat="36.21068" lon="-5.45749">
        <ele>109.7079</ele>
        <time>2021-07-15T12:45:48Z</time>
      </trkpt>
      <trkpt lat="36.21211" lon="-5.45752">
        <ele>99.58093</ele>
        <time>2021-07-15T12:45:59Z</time>
      </trkpt>
      <trkpt lat="36.21298" lon="-5.45666">
        <ele>81.81369</ele>
        <time>2021-07-15T12:46:10Z</time>
      </trkpt>
      <trkpt lat="36.21312" lon="-5.45423">
        <ele>58.77277</ele>
        <time>2021-07-15T12:46:21Z</time>
      </trkpt>
      <trkpt lat="36.21293" lon="-5.45185">
        <ele>44.66251</ele>
        <time>2021-07-15T12:46:32Z</time>
      </trkpt>
      <trkpt lat="36.21258" lon="-5.45001">
        <ele>34.16207</ele>
        <time>2021-07-15T12:46:43Z</time>
      </trkpt>
      <trkpt lat="36.21178" lon="-5.44892">
        <ele>31.44205</ele>
        <time>2021-07-15T12:46:54Z</time>
      </trkpt>
      <trkpt lat="36.21161" lon="-5.44699">
        <ele>27.96766</ele>
        <time>2021-07-15T12:47:05Z</time>
      </trkpt>
      <trkpt lat="36.21301" lon="-5.44604">
        <ele>31.53905</ele>
        <time>2021-07-15T12:47:16Z</time>
      </trkpt>
      <trkpt lat="36.21441" lon="-5.44475">
        <ele>17.01953</ele>
        <time>2021-07-15T12:47:27Z</time>
      </trkpt>
      <trkpt lat="36.21579" lon="-5.44502">
        <ele>10.91968</ele>
        <time>2021-07-15T12:47:38Z</time>
      </trkpt>
      <trkpt lat="36.21681" lon="-5.44604">
        <ele>18.33265</ele>
        <time>2021-07-15T12:47:49Z</time>
      </trkpt>
      <trkpt lat="36.21774" lon="-5.44711">
        <ele>27.93605</ele>
        <time>2021-07-15T12:48:00Z</time>
      </trkpt>
      <trkpt lat="36.21906" lon="-5.44758">
        <ele>25.21218</ele>
        <time>2021-07-15T12:48:11Z</time>
      </trkpt>
      <trkpt lat="36.22002" lon="-5.44852">
        <ele>18.37687</ele>
        <time>2021-07-15T12:48:23Z</time>
      </trkpt>
      <trkpt lat="36.22134" lon="-5.44698">
        <ele>16.87026</ele>
        <time>2021-07-15T12:48:34Z</time>
      </trkpt>
      <trkpt lat="36.22268" lon="-5.4459">
        <ele>5.522423</ele>
        <time>2021-07-15T12:48:45Z</time>
      </trkpt>
      <trkpt lat="36.22372" lon="-5.44387">
        <ele>5.211152</ele>
        <time>2021-07-15T12:48:56Z</time>
      </trkpt>
      <trkpt lat="36.22433" lon="-5.44216">
        <ele>5.839293</ele>
        <time>2021-07-15T12:49:07Z</time>
      </trkpt>
      <trkpt lat="36.2239" lon="-5.43978">
        <ele>8.280976</ele>
        <time>2021-07-15T12:49:18Z</time>
      </trkpt>
      <trkpt lat="36.22437" lon="-5.43775">
        <ele>9.045418</ele>
        <time>2021-07-15T12:49:29Z</time>
      </trkpt>
      <trkpt lat="36.22448" lon="-5.43726">
        <ele>9.086598</ele>
        <time>2021-07-15T12:49:40Z</time>
      </trkpt>
      <trkpt lat="36.22471" lon="-5.43675">
        <ele>10.84723</ele>
        <time>2021-07-15T12:49:51Z</time>
      </trkpt>
      <trkpt lat="36.22534" lon="-5.43493">
        <ele>17.73505</ele>
        <time>2021-07-15T12:50:02Z</time>
      </trkpt>
      <trkpt lat="36.22537" lon="-5.43314">
        <ele>20.19697</ele>
        <time>2021-07-15T12:50:13Z</time>
      </trkpt>
      <trkpt lat="36.22644" lon="-5.43175">
        <ele>22.93634</ele>
        <time>2021-07-15T12:50:24Z</time>
      </trkpt>
      <trkpt lat="36.22667" lon="-5.42974">
        <ele>21.69149</ele>
        <time>2021-07-15T12:50:35Z</time>
      </trkpt>
      <trkpt lat="36.22725" lon="-5.42715">
        <ele>23.07082</ele>
        <time>2021-07-15T12:50:46Z</time>
      </trkpt>
      <trkpt lat="36.22735" lon="-5.42528">
        <ele>27.80262</ele>
        <time>2021-07-15T12:50:57Z</time>
      </trkpt>
      <trkpt lat="36.22631" lon="-5.42348">
        <ele>28.24484</ele>
        <time>2021-07-15T12:51:08Z</time>
      </trkpt>
      <trkpt lat="36.22589" lon="-5.42115">
        <ele>35.91041</ele>
        <time>2021-07-15T12:51:19Z</time>
      </trkpt>
      <trkpt lat="36.22566" lon="-5.41955">
        <ele>49.22532</ele>
        <time>2021-07-15T12:51:30Z</time>
      </trkpt>
      <trkpt lat="36.22576" lon="-5.41737">
        <ele>52.62394</ele>
        <time>2021-07-15T12:51:41Z</time>
      </trkpt>
      <trkpt lat="36.22657" lon="-5.41506">
        <ele>50.49928</ele>
        <time>2021-07-15T12:51:52Z</time>
      </trkpt>
      <trkpt lat="36.22742" lon="-5.41293">
        <ele>51.13853</ele>
        <time>2021-07-15T12:52:03Z</time>
      </trkpt>
      <trkpt lat="36.22776" lon="-5.41054">
        <ele>50.64056</ele>
        <time>2021-07-15T12:52:14Z</time>
      </trkpt>
      <trkpt lat="36.22812" lon="-5.40841">
        <ele>67.3082</ele>
        <time>2021-07-15T12:52:25Z</time>
      </trkpt>
      <trkpt lat="36.22964" lon="-5.4064">
        <ele>82.04517</ele>
        <time>2021-07-15T12:52:36Z</time>
      </trkpt>
      <trkpt lat="36.23078" lon="-5.40447">
        <ele>55.2388</ele>
        <time>2021-07-15T12:52:47Z</time>
      </trkpt>
      <trkpt lat="36.23174" lon="-5.40353">
        <ele>45.28974</ele>
        <time>2021-07-15T12:52:58Z</time>
      </trkpt>
      <trkpt lat="36.2314" lon="-5.40257">
        <ele>38.63089</ele>
        <time>2021-07-15T12:53:09Z</time>
      </trkpt>
      <trkpt lat="36.23141" lon="-5.40098">
        <ele>32.38852</ele>
        <time>2021-07-15T12:53:20Z</time>
      </trkpt>
      <trkpt lat="36.23199" lon="-5.39957">
        <ele>25.99478</ele>
        <time>2021-07-15T12:53:31Z</time>
      </trkpt>
      <trkpt lat="36.23105" lon="-5.39832">
        <ele>29.82452</ele>
        <time>2021-07-15T12:53:42Z</time>
      </trkpt>
      <trkpt lat="36.2293" lon="-5.39783">
        <ele>29.56814</ele>
        <time>2021-07-15T12:53:53Z</time>
      </trkpt>
      <trkpt lat="36.22719" lon="-5.39763">
        <ele>30.3858</ele>
        <time>2021-07-15T12:54:04Z</time>
      </trkpt>
      <trkpt lat="36.22524" lon="-5.39665">
        <ele>25.50105</ele>
        <time>2021-07-15T12:54:15Z</time>
      </trkpt>
      <trkpt lat="36.22338" lon="-5.39509">
        <ele>25.08791</ele>
        <time>2021-07-15T12:54:26Z</time>
      </trkpt>
      <trkpt lat="36.22129" lon="-5.39548">
        <ele>23.92247</ele>
        <time>2021-07-15T12:54:37Z</time>
      </trkpt>
      <trkpt lat="36.21913" lon="-5.39665">
        <ele>23.2245</ele>
        <time>2021-07-15T12:54:48Z</time>
      </trkpt>
      <trkpt lat="36.21766" lon="-5.39591">
        <ele>37.75618</ele>
        <time>2021-07-15T12:54:59Z</time>
      </trkpt>
      <trkpt lat="36.21729" lon="-5.39375">
        <ele>32.15711</ele>
        <time>2021-07-15T12:55:10Z</time>
      </trkpt>
      <trkpt lat="36.2162" lon="-5.39198">
        <ele>28.21758</ele>
        <time>2021-07-15T12:55:21Z</time>
      </trkpt>
      <trkpt lat="36.21683" lon="-5.39004">
        <ele>34.19434</ele>
        <time>2021-07-15T12:55:32Z</time>
      </trkpt>
      <trkpt lat="36.21758" lon="-5.38843">
        <ele>25.21717</ele>
        <time>2021-07-15T12:55:43Z</time>
      </trkpt>
      <trkpt lat="36.21764" lon="-5.38782">
        <ele>22.33705</ele>
        <time>2021-07-15T12:55:54Z</time>
      </trkpt>
      <trkpt lat="36.21764" lon="-5.38777">
        <ele>25.12583</ele>
        <time>2021-07-15T12:56:08Z</time>
      </trkpt>
      <trkpt lat="36.21764" lon="-5.38777">
        <ele>23.9915</ele>
        <time>2021-07-15T12:57:07Z</time>
      </trkpt>
      <trkpt lat="36.21764" lon="-5.38777">
        <ele>23.9915</ele>
        <time>2021-07-15T12:58:06Z</time>
      </trkpt>
      <trkpt lat="36.21764" lon="-5.3878">
        <ele>23.16498</ele>
        <time>2021-07-15T12:59:05Z</time>
      </trkpt>
      <trkpt lat="36.21764" lon="-5.38779">
        <ele>21.20095</ele>
        <time>2021-07-15T13:00:04Z</time>
      </trkpt>
      <trkpt lat="36.21764" lon="-5.3878">
        <ele>20.25975</ele>
        <time>2021-07-15T13:01:03Z</time>
      </trkpt>
      <trkpt lat="36.21764" lon="-5.3878">
        <ele>23.25158</ele>
        <time>2021-07-15T13:02:02Z</time>
      </trkpt>
      <trkpt lat="36.21764" lon="-5.38777">
        <ele>24.65299</ele>
        <time>2021-07-15T13:03:01Z</time>
      </trkpt>
      <trkpt lat="36.21764" lon="-5.38776">
        <ele>24.88738</ele>
        <time>2021-07-15T13:04:00Z</time>
      </trkpt>
      <trkpt lat="36.21764" lon="-5.38776">
        <ele>24.88738</ele>
        <time>2021-07-15T13:04:59Z</time>
      </trkpt>
      <trkpt lat="36.21764" lon="-5.38776">
        <ele>25.18932</ele>
        <time>2021-07-15T13:05:58Z</time>
      </trkpt>
      <trkpt lat="36.21767" lon="-5.38786">
        <ele>24.00522</ele>
        <time>2021-07-15T13:06:38Z</time>
      </trkpt>
      <trkpt lat="36.21756" lon="-5.38819">
        <ele>23.87966</ele>
        <time>2021-07-15T13:06:49Z</time>
      </trkpt>
      <trkpt lat="36.21672" lon="-5.38803">
        <ele>28.20849</ele>
        <time>2021-07-15T13:07:00Z</time>
      </trkpt>
      <trkpt lat="36.2155" lon="-5.38815">
        <ele>40.99677</ele>
        <time>2021-07-15T13:07:11Z</time>
      </trkpt>
      <trkpt lat="36.2147" lon="-5.38757">
        <ele>50.114</ele>
        <time>2021-07-15T13:07:22Z</time>
      </trkpt>
      <trkpt lat="36.21459" lon="-5.38595">
        <ele>56.46976</ele>
        <time>2021-07-15T13:07:33Z</time>
      </trkpt>
      <trkpt lat="36.21436" lon="-5.3848">
        <ele>69.68481</ele>
        <time>2021-07-15T13:07:44Z</time>
      </trkpt>
      <trkpt lat="36.21448" lon="-5.3839">
        <ele>71.44231</ele>
        <time>2021-07-15T13:07:55Z</time>
      </trkpt>
      <trkpt lat="36.21441" lon="-5.38341">
        <ele>78.39191</ele>
        <time>2021-07-15T13:08:06Z</time>
      </trkpt>
      <trkpt lat="36.21354" lon="-5.38285">
        <ele>83.87835</ele>
        <time>2021-07-15T13:08:17Z</time>
      </trkpt>
      <trkpt lat="36.21266" lon="-5.38233">
        <ele>89.40501</ele>
        <time>2021-07-15T13:08:28Z</time>
      </trkpt>
      <trkpt lat="36.21225" lon="-5.38192">
        <ele>84.69965</ele>
        <time>2021-07-15T13:08:39Z</time>
      </trkpt>
      <trkpt lat="36.21187" lon="-5.38176">
        <ele>83.28402</ele>
        <time>2021-07-15T13:08:50Z</time>
      </trkpt>
      <trkpt lat="36.21019" lon="-5.3815">
        <ele>81.66573</ele>
        <time>2021-07-15T13:09:01Z</time>
      </trkpt>
      <trkpt lat="36.20866" lon="-5.38152">
        <ele>71.24595</ele>
        <time>2021-07-15T13:09:12Z</time>
      </trkpt>
      <trkpt lat="36.20735" lon="-5.38311">
        <ele>70.84764</ele>
        <time>2021-07-15T13:09:24Z</time>
      </trkpt>
      <trkpt lat="36.20694" lon="-5.38466">
        <ele>62.86661</ele>
        <time>2021-07-15T13:09:35Z</time>
      </trkpt>
      <trkpt lat="36.20724" lon="-5.38594">
        <ele>62.15385</ele>
        <time>2021-07-15T13:09:46Z</time>
      </trkpt>
      <trkpt lat="36.20619" lon="-5.38564">
        <ele>61.18245</ele>
        <time>2021-07-15T13:09:57Z</time>
      </trkpt>
      <trkpt lat="36.20474" lon="-5.38441">
        <ele>61.25847</ele>
        <time>2021-07-15T13:10:08Z</time>
      </trkpt>
      <trkpt lat="36.20275" lon="-5.38386">
        <ele>54.17531</ele>
        <time>2021-07-15T13:10:19Z</time>
      </trkpt>
      <trkpt lat="36.20047" lon="-5.38322">
        <ele>38.70608</ele>
        <time>2021-07-15T13:10:30Z</time>
      </trkpt>
      <trkpt lat="36.19843" lon="-5.38266">
        <ele>24.21285</ele>
        <time>2021-07-15T13:10:41Z</time>
      </trkpt>
      <trkpt lat="36.19622" lon="-5.38324">
        <ele>15.5341</ele>
        <time>2021-07-15T13:10:52Z</time>
      </trkpt>
      <trkpt lat="36.19411" lon="-5.38419">
        <ele>8.690693</ele>
        <time>2021-07-15T13:11:03Z</time>
      </trkpt>
      <trkpt lat="36.19233" lon="-5.38494">
        <ele>8.218208</ele>
        <time>2021-07-15T13:11:14Z</time>
      </trkpt>
      <trkpt lat="36.19083" lon="-5.38555">
        <ele>6.99509</ele>
        <time>2021-07-15T13:11:25Z</time>
      </trkpt>
      <trkpt lat="36.18917" lon="-5.38598">
        <ele>6.773571</ele>
        <time>2021-07-15T13:11:36Z</time>
      </trkpt>
      <trkpt lat="36.18746" lon="-5.38487">
        <ele>7.164988</ele>
        <time>2021-07-15T13:11:47Z</time>
      </trkpt>
      <trkpt lat="36.18566" lon="-5.38329">
        <ele>5.616379</ele>
        <time>2021-07-15T13:11:58Z</time>
      </trkpt>
      <trkpt lat="36.18411" lon="-5.38201">
        <ele>4.313299</ele>
        <time>2021-07-15T13:12:09Z</time>
      </trkpt>
      <trkpt lat="36.1828" lon="-5.38128">
        <ele>2.544526</ele>
        <time>2021-07-15T13:12:20Z</time>
      </trkpt>
      <trkpt lat="36.18213" lon="-5.38116">
        <ele>5.64816</ele>
        <time>2021-07-15T13:12:31Z</time>
      </trkpt>
      <trkpt lat="36.18107" lon="-5.38028">
        <ele>5.21735</ele>
        <time>2021-07-15T13:12:42Z</time>
      </trkpt>
      <trkpt lat="36.17972" lon="-5.37935">
        <ele>8.971877</ele>
        <time>2021-07-15T13:12:53Z</time>
      </trkpt>
      <trkpt lat="36.17877" lon="-5.37846">
        <ele>13.49109</ele>
        <time>2021-07-15T13:13:04Z</time>
      </trkpt>
      <trkpt lat="36.17797" lon="-5.37763">
        <ele>15.24728</ele>
        <time>2021-07-15T13:13:15Z</time>
      </trkpt>
      <trkpt lat="36.17742" lon="-5.37671">
        <ele>18.69305</ele>
        <time>2021-07-15T13:13:26Z</time>
      </trkpt>
      <trkpt lat="36.17653" lon="-5.37559">
        <ele>15.71735</ele>
        <time>2021-07-15T13:13:37Z</time>
      </trkpt>
      <trkpt lat="36.17584" lon="-5.37475">
        <ele>14.93078</ele>
        <time>2021-07-15T13:13:48Z</time>
      </trkpt>
      <trkpt lat="36.17495" lon="-5.374">
        <ele>12.85158</ele>
        <time>2021-07-15T13:13:59Z</time>
      </trkpt>
      <trkpt lat="36.17384" lon="-5.37321">
        <ele>11.15048</ele>
        <time>2021-07-15T13:14:10Z</time>
      </trkpt>
      <trkpt lat="36.17263" lon="-5.3722">
        <ele>8.820461</ele>
        <time>2021-07-15T13:14:21Z</time>
      </trkpt>
      <trkpt lat="36.17125" lon="-5.37126">
        <ele>4.605202</ele>
        <time>2021-07-15T13:14:32Z</time>
      </trkpt>
      <trkpt lat="36.16982" lon="-5.37062">
        <ele>2.718409</ele>
        <time>2021-07-15T13:14:43Z</time>
      </trkpt>
      <trkpt lat="36.16871" lon="-5.36952">
        <ele>2.88554</ele>
        <time>2021-07-15T13:14:54Z</time>
      </trkpt>
      <trkpt lat="36.16813" lon="-5.36827">
        <ele>3.461563</ele>
        <time>2021-07-15T13:15:05Z</time>
      </trkpt>
      <trkpt lat="36.16763" lon="-5.36671">
        <ele>4.613872</ele>
        <time>2021-07-15T13:15:16Z</time>
      </trkpt>
      <trkpt lat="36.16714" lon="-5.36543">
        <ele>4.519367</ele>
        <time>2021-07-15T13:15:27Z</time>
      </trkpt>
      <trkpt lat="36.16684" lon="-5.3648">
        <ele>2.57734</ele>
        <time>2021-07-15T13:15:38Z</time>
      </trkpt>
      <trkpt lat="36.16642" lon="-5.36375">
        <ele>3.597388</ele>
        <time>2021-07-15T13:15:49Z</time>
      </trkpt>
      <trkpt lat="36.16588" lon="-5.36271">
        <ele>5.475416</ele>
        <time>2021-07-15T13:16:00Z</time>
      </trkpt>
      <trkpt lat="36.16529" lon="-5.36175">
        <ele>7.482174</ele>
        <time>2021-07-15T13:16:11Z</time>
      </trkpt>
      <trkpt lat="36.16486" lon="-5.36114">
        <ele>4.514287</ele>
        <time>2021-07-15T13:16:22Z</time>
      </trkpt>
      <trkpt lat="36.16455" lon="-5.36027">
        <ele>1.649309</ele>
        <time>2021-07-15T13:16:33Z</time>
      </trkpt>
      <trkpt lat="36.16402" lon="-5.35936">
        <ele>2.893958</ele>
        <time>2021-07-15T13:16:44Z</time>
      </trkpt>
      <trkpt lat="36.16346" lon="-5.35858">
        <ele>6.474247</ele>
        <time>2021-07-15T13:16:55Z</time>
      </trkpt>
      <trkpt lat="36.16303" lon="-5.35798">
        <ele>8.070859</ele>
        <time>2021-07-15T13:17:06Z</time>
      </trkpt>
      <trkpt lat="36.16259" lon="-5.35747">
        <ele>7.001737</ele>
        <time>2021-07-15T13:17:17Z</time>
      </trkpt>
      <trkpt lat="36.16215" lon="-5.35688">
        <ele>5.579913</ele>
        <time>2021-07-15T13:17:28Z</time>
      </trkpt>
      <trkpt lat="36.16158" lon="-5.35627">
        <ele>9.128442</ele>
        <time>2021-07-15T13:17:39Z</time>
      </trkpt>
      <trkpt lat="36.16084" lon="-5.35552">
        <ele>7.783212</ele>
        <time>2021-07-15T13:17:50Z</time>
      </trkpt>
      <trkpt lat="36.16" lon="-5.35476">
        <ele>7.318687</ele>
        <time>2021-07-15T13:18:01Z</time>
      </trkpt>
      <trkpt lat="36.15921" lon="-5.35404">
        <ele>6.435244</ele>
        <time>2021-07-15T13:18:12Z</time>
      </trkpt>
      <trkpt lat="36.1588" lon="-5.3537">
        <ele>6.379039</ele>
        <time>2021-07-15T13:18:23Z</time>
      </trkpt>
      <trkpt lat="36.15805" lon="-5.35321">
        <ele>5.572823</ele>
        <time>2021-07-15T13:18:34Z</time>
      </trkpt>
      <trkpt lat="36.15689" lon="-5.35245">
        <ele>5.700819</ele>
        <time>2021-07-15T13:18:45Z</time>
      </trkpt>
      <trkpt lat="36.15607" lon="-5.35192">
        <ele>4.580046</ele>
        <time>2021-07-15T13:18:56Z</time>
      </trkpt>
      <trkpt lat="36.15525" lon="-5.35187">
        <ele>4.08423</ele>
        <time>2021-07-15T13:19:07Z</time>
      </trkpt>
      <trkpt lat="36.15504" lon="-5.35063">
        <ele>4.099507</ele>
        <time>2021-07-15T13:19:18Z</time>
      </trkpt>
      <trkpt lat="36.15522" lon="-5.34948">
        <ele>6.713055</ele>
        <time>2021-07-15T13:19:29Z</time>
      </trkpt>
      <trkpt lat="36.15594" lon="-5.34946">
        <ele>7.776208</ele>
        <time>2021-07-15T13:19:40Z</time>
      </trkpt>
      <trkpt lat="36.15604" lon="-5.34874">
        <ele>6.928931</ele>
        <time>2021-07-15T13:19:51Z</time>
      </trkpt>
      <trkpt lat="36.15603" lon="-5.34848">
        <ele>6.18411</ele>
        <time>2021-07-15T13:20:02Z</time>
      </trkpt>
      <trkpt lat="36.15603" lon="-5.34843">
        <ele>6.133837</ele>
        <time>2021-07-15T13:20:16Z</time>
      </trkpt>
      <trkpt lat="36.15589" lon="-5.34835">
        <ele>5.869061</ele>
        <time>2021-07-15T13:20:27Z</time>
      </trkpt>
      <trkpt lat="36.15585" lon="-5.34836">
        <ele>9.174266</ele>
        <time>2021-07-15T13:20:42Z</time>
      </trkpt>
      <trkpt lat="36.15579" lon="-5.34836">
        <ele>9.410672</ele>
        <time>2021-07-15T13:20:53Z</time>
      </trkpt>
      <trkpt lat="36.15565" lon="-5.34837">
        <ele>8.711591</ele>
        <time>2021-07-15T13:21:04Z</time>
      </trkpt>
      <trkpt lat="36.15561" lon="-5.34837">
        <ele>8.439698</ele>
        <time>2021-07-15T13:21:18Z</time>
      </trkpt>
      <trkpt lat="36.15549" lon="-5.34838">
        <ele>9.874134</ele>
        <time>2021-07-15T13:21:29Z</time>
      </trkpt>
      <trkpt lat="36.15536" lon="-5.34838">
        <ele>9.086469</ele>
        <time>2021-07-15T13:21:40Z</time>
      </trkpt>
      <trkpt lat="36.15532" lon="-5.34837">
        <ele>7.925831</ele>
        <time>2021-07-15T13:21:51Z</time>
      </trkpt>
      <trkpt lat="36.15517" lon="-5.34838">
        <ele>9.287665</ele>
        <time>2021-07-15T13:22:02Z</time>
      </trkpt>
      <trkpt lat="36.15508" lon="-5.34839">
        <ele>10.60179</ele>
        <time>2021-07-15T13:22:13Z</time>
      </trkpt>
      <trkpt lat="36.15504" lon="-5.34839">
        <ele>6.934098</ele>
        <time>2021-07-15T13:22:43Z</time>
      </trkpt>
      <trkpt lat="36.15494" lon="-5.3484">
        <ele>7.994745</ele>
        <time>2021-07-15T13:22:54Z</time>
      </trkpt>
      <trkpt lat="36.1547" lon="-5.34841">
        <ele>11.87804</ele>
        <time>2021-07-15T13:23:05Z</time>
      </trkpt>
      <trkpt lat="36.15454" lon="-5.34844">
        <ele>12.2464</ele>
        <time>2021-07-15T13:23:16Z</time>
      </trkpt>
      <trkpt lat="36.15437" lon="-5.34848">
        <ele>17.8656</ele>
        <time>2021-07-15T13:23:27Z</time>
      </trkpt>
      <trkpt lat="36.15429" lon="-5.34848">
        <ele>15.88314</ele>
        <time>2021-07-15T13:24:12Z</time>
      </trkpt>
      <trkpt lat="36.15352" lon="-5.34856">
        <ele>10.71243</ele>
        <time>2021-07-15T13:24:23Z</time>
      </trkpt>
      <trkpt lat="36.15257" lon="-5.34861">
        <ele>7.849321</ele>
        <time>2021-07-15T13:24:34Z</time>
      </trkpt>
      <trkpt lat="36.15151" lon="-5.34872">
        <ele>9.41927</ele>
        <time>2021-07-15T13:24:45Z</time>
      </trkpt>
      <trkpt lat="36.1503" lon="-5.34884">
        <ele>6.38084</ele>
        <time>2021-07-15T13:24:56Z</time>
      </trkpt>
      <trkpt lat="36.14937" lon="-5.3491">
        <ele>6.804625</ele>
        <time>2021-07-15T13:25:07Z</time>
      </trkpt>
      <trkpt lat="36.14857" lon="-5.34943">
        <ele>7.997245</ele>
        <time>2021-07-15T13:25:18Z</time>
      </trkpt>
      <trkpt lat="36.14753" lon="-5.34979">
        <ele>8.260646</ele>
        <time>2021-07-15T13:25:29Z</time>
      </trkpt>
      <trkpt lat="36.14677" lon="-5.35038">
        <ele>10.24367</ele>
        <time>2021-07-15T13:25:40Z</time>
      </trkpt>
      <trkpt lat="36.14671" lon="-5.35044">
        <ele>14.60465</ele>
        <time>2021-07-15T13:25:51Z</time>
      </trkpt>
      <trkpt lat="36.14643" lon="-5.35057">
        <ele>25.16374</ele>
        <time>2021-07-15T13:26:02Z</time>
      </trkpt>
      <trkpt lat="36.1463" lon="-5.35115">
        <ele>30.31034</ele>
        <time>2021-07-15T13:26:13Z</time>
      </trkpt>
      <trkpt lat="36.14628" lon="-5.35208">
        <ele>24.53603</ele>
        <time>2021-07-15T13:26:24Z</time>
      </trkpt>
      <trkpt lat="36.14568" lon="-5.3528">
        <ele>14.40805</ele>
        <time>2021-07-15T13:26:35Z</time>
      </trkpt>
      <trkpt lat="36.14501" lon="-5.3534">
        <ele>9.009783</ele>
        <time>2021-07-15T13:26:46Z</time>
      </trkpt>
      <trkpt lat="36.14466" lon="-5.35383">
        <ele>10.00302</ele>
        <time>2021-07-15T13:26:57Z</time>
      </trkpt>
      <trkpt lat="36.14371" lon="-5.3542">
        <ele>12.9607</ele>
        <time>2021-07-15T13:27:08Z</time>
      </trkpt>
      <trkpt lat="36.14259" lon="-5.35429">
        <ele>14.58501</ele>
        <time>2021-07-15T13:27:19Z</time>
      </trkpt>
      <trkpt lat="36.14164" lon="-5.35447">
        <ele>19.75616</ele>
        <time>2021-07-15T13:27:30Z</time>
      </trkpt>
      <trkpt lat="36.14101" lon="-5.35468">
        <ele>23.74661</ele>
        <time>2021-07-15T13:27:41Z</time>
      </trkpt>
      <trkpt lat="36.14075" lon="-5.35476">
        <ele>35.76696</ele>
        <time>2021-07-15T13:27:52Z</time>
      </trkpt>
      <trkpt lat="36.14016" lon="-5.35468">
        <ele>29.90309</ele>
        <time>2021-07-15T13:28:03Z</time>
      </trkpt>
      <trkpt lat="36.13943" lon="-5.35476">
        <ele>26.65024</ele>
        <time>2021-07-15T13:28:14Z</time>
      </trkpt>
      <trkpt lat="36.13865" lon="-5.35473">
        <ele>25.71581</ele>
        <time>2021-07-15T13:28:25Z</time>
      </trkpt>
      <trkpt lat="36.13806" lon="-5.35466">
        <ele>14.85355</ele>
        <time>2021-07-15T13:28:36Z</time>
      </trkpt>
      <trkpt lat="36.13746" lon="-5.3545">
        <ele>8.538169</ele>
        <time>2021-07-15T13:28:47Z</time>
      </trkpt>
      <trkpt lat="36.13675" lon="-5.35418">
        <ele>8.328276</ele>
        <time>2021-07-15T13:28:58Z</time>
      </trkpt>
      <trkpt lat="36.13607" lon="-5.35401">
        <ele>9.654852</ele>
        <time>2021-07-15T13:29:09Z</time>
      </trkpt>
      <trkpt lat="36.13538" lon="-5.35373">
        <ele>5.991097</ele>
        <time>2021-07-15T13:29:20Z</time>
      </trkpt>
      <trkpt lat="36.13496" lon="-5.35333">
        <ele>6.145943</ele>
        <time>2021-07-15T13:29:31Z</time>
      </trkpt>
      <trkpt lat="36.13497" lon="-5.35295">
        <ele>7.140214</ele>
        <time>2021-07-15T13:29:42Z</time>
      </trkpt>
      <trkpt lat="36.13462" lon="-5.35276">
        <ele>9.878907</ele>
        <time>2021-07-15T13:29:53Z</time>
      </trkpt>
      <trkpt lat="36.13445" lon="-5.35269">
        <ele>16.37652</ele>
        <time>2021-07-15T13:30:04Z</time>
      </trkpt>
      <trkpt lat="36.13402" lon="-5.35277">
        <ele>21.22935</ele>
        <time>2021-07-15T13:30:15Z</time>
      </trkpt>
      <trkpt lat="36.13377" lon="-5.35244">
        <ele>21.66607</ele>
        <time>2021-07-15T13:30:26Z</time>
      </trkpt>
      <trkpt lat="36.1339" lon="-5.35157">
        <ele>25.96122</ele>
        <time>2021-07-15T13:30:37Z</time>
      </trkpt>
      <trkpt lat="36.13316" lon="-5.35119">
        <ele>37.01762</ele>
        <time>2021-07-15T13:30:48Z</time>
      </trkpt>
      <trkpt lat="36.13265" lon="-5.35094">
        <ele>37.48645</ele>
        <time>2021-07-15T13:30:59Z</time>
      </trkpt>
      <trkpt lat="36.13199" lon="-5.35063">
        <ele>44.69016</ele>
        <time>2021-07-15T13:31:10Z</time>
      </trkpt>
      <trkpt lat="36.13117" lon="-5.35003">
        <ele>55.37215</ele>
        <time>2021-07-15T13:31:21Z</time>
      </trkpt>
      <trkpt lat="36.13027" lon="-5.34977">
        <ele>66.46066</ele>
        <time>2021-07-15T13:31:32Z</time>
      </trkpt>
      <trkpt lat="36.12924" lon="-5.34953">
        <ele>78.14524</ele>
        <time>2021-07-15T13:31:43Z</time>
      </trkpt>
      <trkpt lat="36.12818" lon="-5.34947">
        <ele>83.62369</ele>
        <time>2021-07-15T13:31:54Z</time>
      </trkpt>
      <trkpt lat="36.12716" lon="-5.3496">
        <ele>85.26896</ele>
        <time>2021-07-15T13:32:05Z</time>
      </trkpt>
      <trkpt lat="36.12633" lon="-5.3497">
        <ele>91.91227</ele>
        <time>2021-07-15T13:32:16Z</time>
      </trkpt>
      <trkpt lat="36.12539" lon="-5.34971">
        <ele>92.57334</ele>
        <time>2021-07-15T13:32:27Z</time>
      </trkpt>
      <trkpt lat="36.1243" lon="-5.34958">
        <ele>87.11048</ele>
        <time>2021-07-15T13:32:38Z</time>
      </trkpt>
      <trkpt lat="36.12323" lon="-5.34946">
        <ele>87.80425</ele>
        <time>2021-07-15T13:32:49Z</time>
      </trkpt>
      <trkpt lat="36.12234" lon="-5.3489">
        <ele>89.85387</ele>
        <time>2021-07-15T13:33:00Z</time>
      </trkpt>
      <trkpt lat="36.1215" lon="-5.34818">
        <ele>95.48802</ele>
        <time>2021-07-15T13:33:11Z</time>
      </trkpt>
      <trkpt lat="36.12059" lon="-5.34759">
        <ele>97.08118</ele>
        <time>2021-07-15T13:33:22Z</time>
      </trkpt>
      <trkpt lat="36.11981" lon="-5.34735">
        <ele>92.92552</ele>
        <time>2021-07-15T13:33:33Z</time>
      </trkpt>
      <trkpt lat="36.11902" lon="-5.34756">
        <ele>91.82409</ele>
        <time>2021-07-15T13:33:44Z</time>
      </trkpt>
      <trkpt lat="36.11876" lon="-5.3481">
        <ele>85.69951</ele>
        <time>2021-07-15T13:33:55Z</time>
      </trkpt>
      <trkpt lat="36.11873" lon="-5.34813">
        <ele>92.13618</ele>
        <time>2021-07-15T13:34:06Z</time>
      </trkpt>
      <trkpt lat="36.11805" lon="-5.34823">
        <ele>87.49834</ele>
        <time>2021-07-15T13:34:18Z</time>
      </trkpt>
      <trkpt lat="36.11724" lon="-5.34829">
        <ele>81.87681</ele>
        <time>2021-07-15T13:34:29Z</time>
      </trkpt>
      <trkpt lat="36.11636" lon="-5.34843">
        <ele>72.04196</ele>
        <time>2021-07-15T13:34:40Z</time>
      </trkpt>
      <trkpt lat="36.11534" lon="-5.34816">
        <ele>67.43977</ele>
        <time>2021-07-15T13:34:51Z</time>
      </trkpt>
      <trkpt lat="36.11449" lon="-5.34855">
        <ele>61.96524</ele>
        <time>2021-07-15T13:35:02Z</time>
      </trkpt>
      <trkpt lat="36.11357" lon="-5.34873">
        <ele>54.40205</ele>
        <time>2021-07-15T13:35:13Z</time>
      </trkpt>
      <trkpt lat="36.11267" lon="-5.34766">
        <ele>54.32801</ele>
        <time>2021-07-15T13:35:24Z</time>
      </trkpt>
      <trkpt lat="36.11226" lon="-5.3463">
        <ele>46.47367</ele>
        <time>2021-07-15T13:35:35Z</time>
      </trkpt>
      <trkpt lat="36.11218" lon="-5.34529">
        <ele>36.584</ele>
        <time>2021-07-15T13:35:46Z</time>
      </trkpt>
      <trkpt lat="36.11251" lon="-5.34435">
        <ele>42.98521</ele>
        <time>2021-07-15T13:35:57Z</time>
      </trkpt>
      <trkpt lat="36.11325" lon="-5.34365">
        <ele>37.98146</ele>
        <time>2021-07-15T13:36:08Z</time>
      </trkpt>
      <trkpt lat="36.11436" lon="-5.34358">
        <ele>38.01837</ele>
        <time>2021-07-15T13:36:19Z</time>
      </trkpt>
      <trkpt lat="36.11537" lon="-5.34352">
        <ele>40.10367</ele>
        <time>2021-07-15T13:36:30Z</time>
      </trkpt>
      <trkpt lat="36.11659" lon="-5.34289">
        <ele>41.50955</ele>
        <time>2021-07-15T13:36:41Z</time>
      </trkpt>
      <trkpt lat="36.11748" lon="-5.3422">
        <ele>37.30114</ele>
        <time>2021-07-15T13:36:52Z</time>
      </trkpt>
      <trkpt lat="36.11836" lon="-5.34256">
        <ele>50.45318</ele>
        <time>2021-07-15T13:37:03Z</time>
      </trkpt>
      <trkpt lat="36.11912" lon="-5.34271">
        <ele>62.08088</ele>
        <time>2021-07-15T13:37:14Z</time>
      </trkpt>
      <trkpt lat="36.11962" lon="-5.34317">
        <ele>65.08869</ele>
        <time>2021-07-15T13:37:25Z</time>
      </trkpt>
      <trkpt lat="36.12074" lon="-5.34319">
        <ele>60.56669</ele>
        <time>2021-07-15T13:37:36Z</time>
      </trkpt>
      <trkpt lat="36.12188" lon="-5.34246">
        <ele>60.56669</ele>
        <time>2021-07-15T13:37:47Z</time>
      </trkpt>
      <trkpt lat="36.12654" lon="-5.34039">
        <ele>14.92952</ele>
        <time>2021-07-15T13:38:49Z</time>
      </trkpt>
      <trkpt lat="36.1271" lon="-5.3412">
        <ele>12.96759</ele>
        <time>2021-07-15T13:39:00Z</time>
      </trkpt>
      <trkpt lat="36.12736" lon="-5.34134">
        <ele>23.09937</ele>
        <time>2021-07-15T13:39:11Z</time>
      </trkpt>
      <trkpt lat="36.12734" lon="-5.34129">
        <ele>43.29259</ele>
        <time>2021-07-15T13:39:23Z</time>
      </trkpt>
      <trkpt lat="36.12737" lon="-5.34132">
        <ele>38.78082</ele>
        <time>2021-07-15T13:39:58Z</time>
      </trkpt>
      <trkpt lat="36.12734" lon="-5.34128">
        <ele>43.41729</ele>
        <time>2021-07-15T13:40:19Z</time>
      </trkpt>
      <trkpt lat="36.12728" lon="-5.34121">
        <ele>36.25075</ele>
        <time>2021-07-15T13:40:44Z</time>
      </trkpt>
      <trkpt lat="36.12661" lon="-5.34047">
        <ele>29.72251</ele>
        <time>2021-07-15T13:40:55Z</time>
      </trkpt>
      <trkpt lat="36.12576" lon="-5.34069">
        <ele>32.30644</ele>
        <time>2021-07-15T13:41:06Z</time>
      </trkpt>
      <trkpt lat="36.12489" lon="-5.34131">
        <ele>35.28924</ele>
        <time>2021-07-15T13:41:17Z</time>
      </trkpt>
      <trkpt lat="36.12392" lon="-5.34165">
        <ele>40.45163</ele>
        <time>2021-07-15T13:41:28Z</time>
      </trkpt>
      <trkpt lat="36.12288" lon="-5.34206">
        <ele>40.45163</ele>
        <time>2021-07-15T13:41:39Z</time>
      </trkpt>
      <trkpt lat="36.12183" lon="-5.34251">
        <ele>40.45163</ele>
        <time>2021-07-15T13:41:50Z</time>
      </trkpt>
      <trkpt lat="36.12088" lon="-5.34318">
        <ele>40.45163</ele>
        <time>2021-07-15T13:42:01Z</time>
      </trkpt>
      <trkpt lat="36.11978" lon="-5.34329">
        <ele>40.45163</ele>
        <time>2021-07-15T13:42:12Z</time>
      </trkpt>
      <trkpt lat="36.11909" lon="-5.34285">
        <ele>29.23601</ele>
        <time>2021-07-15T13:42:23Z</time>
      </trkpt>
      <trkpt lat="36.11818" lon="-5.3426">
        <ele>40.8787</ele>
        <time>2021-07-15T13:42:34Z</time>
      </trkpt>
      <trkpt lat="36.11732" lon="-5.34229">
        <ele>6.349636</ele>
        <time>2021-07-15T13:42:45Z</time>
      </trkpt>
      <trkpt lat="36.11686" lon="-5.34271">
        <ele>10.08885</ele>
        <time>2021-07-15T13:42:56Z</time>
      </trkpt>
      <trkpt lat="36.11637" lon="-5.3431">
        <ele>10.55763</ele>
        <time>2021-07-15T13:43:07Z</time>
      </trkpt>
      <trkpt lat="36.11547" lon="-5.34357">
        <ele>9.181592</ele>
        <time>2021-07-15T13:43:18Z</time>
      </trkpt>
      <trkpt lat="36.1145" lon="-5.3437">
        <ele>7.950316</ele>
        <time>2021-07-15T13:43:29Z</time>
      </trkpt>
      <trkpt lat="36.11357" lon="-5.34374">
        <ele>8.468312</ele>
        <time>2021-07-15T13:43:40Z</time>
      </trkpt>
      <trkpt lat="36.11269" lon="-5.34421">
        <ele>12.76002</ele>
        <time>2021-07-15T13:43:51Z</time>
      </trkpt>
      <trkpt lat="36.11241" lon="-5.34518">
        <ele>23.67212</ele>
        <time>2021-07-15T13:44:02Z</time>
      </trkpt>
      <trkpt lat="36.11176" lon="-5.34523">
        <ele>26.41443</ele>
        <time>2021-07-15T13:44:13Z</time>
      </trkpt>
      <trkpt lat="36.11077" lon="-5.34526">
        <ele>17.71546</ele>
        <time>2021-07-15T13:44:24Z</time>
      </trkpt>
      <trkpt lat="36.11023" lon="-5.34542">
        <ele>16.6031</ele>
        <time>2021-07-15T13:44:35Z</time>
      </trkpt>
      <trkpt lat="36.11026" lon="-5.34525">
        <ele>14.03768</ele>
        <time>2021-07-15T13:44:46Z</time>
      </trkpt>
      <trkpt lat="36.11025" lon="-5.34526">
        <ele>12.83841</ele>
        <time>2021-07-15T13:45:46Z</time>
      </trkpt>
      <trkpt lat="36.11028" lon="-5.34523">
        <ele>10.02232</ele>
        <time>2021-07-15T13:46:11Z</time>
      </trkpt>
      <trkpt lat="36.11024" lon="-5.34526">
        <ele>10.83044</ele>
        <time>2021-07-15T13:46:22Z</time>
      </trkpt>
      <trkpt lat="36.11008" lon="-5.34518">
        <ele>12.57631</ele>
        <time>2021-07-15T13:46:33Z</time>
      </trkpt>
      <trkpt lat="36.11001" lon="-5.34513">
        <ele>12.92754</ele>
        <time>2021-07-15T13:46:44Z</time>
      </trkpt>
      <trkpt lat="36.11002" lon="-5.34518">
        <ele>11.67121</ele>
        <time>2021-07-15T13:47:20Z</time>
      </trkpt>
      <trkpt lat="36.11006" lon="-5.34518">
        <ele>14.00224</ele>
        <time>2021-07-15T13:47:32Z</time>
      </trkpt>
      <trkpt lat="36.11004" lon="-5.3453">
        <ele>12.35013</ele>
        <time>2021-07-15T13:47:43Z</time>
      </trkpt>
      <trkpt lat="36.10997" lon="-5.34539">
        <ele>17.32935</ele>
        <time>2021-07-15T13:47:54Z</time>
      </trkpt>
      <trkpt lat="36.1099" lon="-5.34551">
        <ele>19.28413</ele>
        <time>2021-07-15T13:48:05Z</time>
      </trkpt>
      <trkpt lat="36.10984" lon="-5.34562">
        <ele>22.1409</ele>
        <time>2021-07-15T13:48:16Z</time>
      </trkpt>
      <trkpt lat="36.10988" lon="-5.3457">
        <ele>23.92908</ele>
        <time>2021-07-15T13:48:27Z</time>
      </trkpt>
      <trkpt lat="36.11" lon="-5.34573">
        <ele>25.15014</ele>
        <time>2021-07-15T13:48:38Z</time>
      </trkpt>
      <trkpt lat="36.10996" lon="-5.34584">
        <ele>28.82655</ele>
        <time>2021-07-15T13:48:49Z</time>
      </trkpt>
      <trkpt lat="36.10986" lon="-5.34582">
        <ele>25.70835</ele>
        <time>2021-07-15T13:49:00Z</time>
      </trkpt>
      <trkpt lat="36.10971" lon="-5.3458">
        <ele>26.13263</ele>
        <time>2021-07-15T13:49:11Z</time>
      </trkpt>
      <trkpt lat="36.10959" lon="-5.34579">
        <ele>21.10267</ele>
        <time>2021-07-15T13:49:22Z</time>
      </trkpt>
      <trkpt lat="36.10956" lon="-5.34582">
        <ele>18.92921</ele>
        <time>2021-07-15T13:49:42Z</time>
      </trkpt>
      <trkpt lat="36.10956" lon="-5.34587">
        <ele>19.6025</ele>
        <time>2021-07-15T13:50:20Z</time>
      </trkpt>
      <trkpt lat="36.10949" lon="-5.34593">
        <ele>18.32301</ele>
        <time>2021-07-15T13:50:31Z</time>
      </trkpt>
      <trkpt lat="36.10947" lon="-5.34608">
        <ele>21.88877</ele>
        <time>2021-07-15T13:50:42Z</time>
      </trkpt>
      <trkpt lat="36.10947" lon="-5.34622">
        <ele>25.24862</ele>
        <time>2021-07-15T13:50:53Z</time>
      </trkpt>
      <trkpt lat="36.10952" lon="-5.34625">
        <ele>26.22552</ele>
        <time>2021-07-15T13:51:04Z</time>
      </trkpt>
      <trkpt lat="36.10956" lon="-5.34625">
        <ele>31.27639</ele>
        <time>2021-07-15T13:51:15Z</time>
      </trkpt>
      <trkpt lat="36.10952" lon="-5.34623">
        <ele>25.69081</ele>
        <time>2021-07-15T13:51:55Z</time>
      </trkpt>
      <trkpt lat="36.10945" lon="-5.34632">
        <ele>26.60995</ele>
        <time>2021-07-15T13:52:06Z</time>
      </trkpt>
      <trkpt lat="36.10949" lon="-5.34646">
        <ele>24.92721</ele>
        <time>2021-07-15T13:52:17Z</time>
      </trkpt>
      <trkpt lat="36.10944" lon="-5.34645">
        <ele>26.77163</ele>
        <time>2021-07-15T13:52:28Z</time>
      </trkpt>
      <trkpt lat="36.10945" lon="-5.3465">
        <ele>25.06843</ele>
        <time>2021-07-15T13:52:45Z</time>
      </trkpt>
      <trkpt lat="36.10949" lon="-5.34647">
        <ele>26.93089</ele>
        <time>2021-07-15T13:53:06Z</time>
      </trkpt>
      <trkpt lat="36.10957" lon="-5.34655">
        <ele>27.23112</ele>
        <time>2021-07-15T13:53:17Z</time>
      </trkpt>
      <trkpt lat="36.10954" lon="-5.34663">
        <ele>26.44676</ele>
        <time>2021-07-15T13:53:28Z</time>
      </trkpt>
      <trkpt lat="36.10954" lon="-5.34654">
        <ele>24.77829</ele>
        <time>2021-07-15T13:53:39Z</time>
      </trkpt>
      <trkpt lat="36.1095" lon="-5.34655">
        <ele>25.22055</ele>
        <time>2021-07-15T13:53:50Z</time>
      </trkpt>
      <trkpt lat="36.10951" lon="-5.34661">
        <ele>25.6326</ele>
        <time>2021-07-15T13:54:19Z</time>
      </trkpt>
      <trkpt lat="36.10958" lon="-5.34654">
        <ele>25.8201</ele>
        <time>2021-07-15T13:54:30Z</time>
      </trkpt>
      <trkpt lat="36.10949" lon="-5.34641">
        <ele>27.69777</ele>
        <time>2021-07-15T13:54:41Z</time>
      </trkpt>
      <trkpt lat="36.10945" lon="-5.34625">
        <ele>24.15729</ele>
        <time>2021-07-15T13:54:52Z</time>
      </trkpt>
      <trkpt lat="36.1095" lon="-5.34626">
        <ele>29.15447</ele>
        <time>2021-07-15T13:55:03Z</time>
      </trkpt>
      <trkpt lat="36.1096" lon="-5.34624">
        <ele>30.62004</ele>
        <time>2021-07-15T13:55:14Z</time>
      </trkpt>
      <trkpt lat="36.10968" lon="-5.34612">
        <ele>30.62641</ele>
        <time>2021-07-15T13:55:25Z</time>
      </trkpt>
      <trkpt lat="36.10981" lon="-5.34605">
        <ele>32.10744</ele>
        <time>2021-07-15T13:55:36Z</time>
      </trkpt>
      <trkpt lat="36.10992" lon="-5.34609">
        <ele>32.986</ele>
        <time>2021-07-15T13:55:47Z</time>
      </trkpt>
      <trkpt lat="36.11003" lon="-5.34592">
        <ele>30.41536</ele>
        <time>2021-07-15T13:55:58Z</time>
      </trkpt>
      <trkpt lat="36.11007" lon="-5.34581">
        <ele>27.51293</ele>
        <time>2021-07-15T13:56:09Z</time>
      </trkpt>
      <trkpt lat="36.11004" lon="-5.34583">
        <ele>27.36746</ele>
        <time>2021-07-15T13:56:24Z</time>
      </trkpt>
      <trkpt lat="36.11007" lon="-5.34579">
        <ele>28.23722</ele>
        <time>2021-07-15T13:56:42Z</time>
      </trkpt>
      <trkpt lat="36.1101" lon="-5.34579">
        <ele>27.80117</ele>
        <time>2021-07-15T13:57:11Z</time>
      </trkpt>
      <trkpt lat="36.1101" lon="-5.34573">
        <ele>25.66278</ele>
        <time>2021-07-15T13:57:25Z</time>
      </trkpt>
      <trkpt lat="36.1101" lon="-5.3456">
        <ele>20.21703</ele>
        <time>2021-07-15T13:57:36Z</time>
      </trkpt>
      <trkpt lat="36.11009" lon="-5.34544">
        <ele>14.61551</ele>
        <time>2021-07-15T13:57:48Z</time>
      </trkpt>
      <trkpt lat="36.11012" lon="-5.34532">
        <ele>14.93036</ele>
        <time>2021-07-15T13:57:59Z</time>
      </trkpt>
      <trkpt lat="36.11019" lon="-5.34519">
        <ele>9.117267</ele>
        <time>2021-07-15T13:58:10Z</time>
      </trkpt>
      <trkpt lat="36.11022" lon="-5.34519">
        <ele>11.94967</ele>
        <time>2021-07-15T13:58:45Z</time>
      </trkpt>
      <trkpt lat="36.11019" lon="-5.34519">
        <ele>12.91707</ele>
        <time>2021-07-15T13:58:56Z</time>
      </trkpt>
      <trkpt lat="36.11006" lon="-5.34515">
        <ele>13.24845</ele>
        <time>2021-07-15T13:59:07Z</time>
      </trkpt>
      <trkpt lat="36.11" lon="-5.34516">
        <ele>11.63055</ele>
        <time>2021-07-15T13:59:18Z</time>
      </trkpt>
      <trkpt lat="36.11" lon="-5.34521">
        <ele>13.21143</ele>
        <time>2021-07-15T13:59:40Z</time>
      </trkpt>
      <trkpt lat="36.11001" lon="-5.34516">
        <ele>13.12763</ele>
        <time>2021-07-15T14:00:20Z</time>
      </trkpt>
      <trkpt lat="36.11005" lon="-5.34517">
        <ele>13.45938</ele>
        <time>2021-07-15T14:00:42Z</time>
      </trkpt>
      <trkpt lat="36.11017" lon="-5.3452">
        <ele>13.19123</ele>
        <time>2021-07-15T14:00:53Z</time>
      </trkpt>
      <trkpt lat="36.11021" lon="-5.34519">
        <ele>12.02864</ele>
        <time>2021-07-15T14:01:19Z</time>
      </trkpt>
      <trkpt lat="36.11025" lon="-5.34519">
        <ele>15.34005</ele>
        <time>2021-07-15T14:01:40Z</time>
      </trkpt>
      <trkpt lat="36.11027" lon="-5.34518">
        <ele>13.64428</ele>
        <time>2021-07-15T14:02:39Z</time>
      </trkpt>
      <trkpt lat="36.1103" lon="-5.34522">
        <ele>15.47901</ele>
        <time>2021-07-15T14:02:52Z</time>
      </trkpt>
      <trkpt lat="36.11074" lon="-5.34523">
        <ele>16.87443</ele>
        <time>2021-07-15T14:03:03Z</time>
      </trkpt>
      <trkpt lat="36.11103" lon="-5.34522">
        <ele>18.68276</ele>
        <time>2021-07-15T14:03:14Z</time>
      </trkpt>
      <trkpt lat="36.11128" lon="-5.34525">
        <ele>20.37368</ele>
        <time>2021-07-15T14:03:25Z</time>
      </trkpt>
      <trkpt lat="36.11114" lon="-5.34533">
        <ele>21.80061</ele>
        <time>2021-07-15T14:03:36Z</time>
      </trkpt>
      <trkpt lat="36.1111" lon="-5.34534">
        <ele>21.42619</ele>
        <time>2021-07-15T14:04:15Z</time>
      </trkpt>
      <trkpt lat="36.11109" lon="-5.3454">
        <ele>22.14574</ele>
        <time>2021-07-15T14:04:26Z</time>
      </trkpt>
      <trkpt lat="36.11108" lon="-5.34566">
        <ele>24.91357</ele>
        <time>2021-07-15T14:04:37Z</time>
      </trkpt>
      <trkpt lat="36.11101" lon="-5.34569">
        <ele>26.53356</ele>
        <time>2021-07-15T14:04:48Z</time>
      </trkpt>
      <trkpt lat="36.11094" lon="-5.34556">
        <ele>26.34057</ele>
        <time>2021-07-15T14:04:59Z</time>
      </trkpt>
      <trkpt lat="36.11092" lon="-5.34526">
        <ele>20.54943</ele>
        <time>2021-07-15T14:05:10Z</time>
      </trkpt>
      <trkpt lat="36.11159" lon="-5.3452">
        <ele>20.20469</ele>
        <time>2021-07-15T14:05:21Z</time>
      </trkpt>
      <trkpt lat="36.11225" lon="-5.34508">
        <ele>33.90275</ele>
        <time>2021-07-15T14:05:32Z</time>
      </trkpt>
      <trkpt lat="36.11293" lon="-5.34401">
        <ele>13.09259</ele>
        <time>2021-07-15T14:05:43Z</time>
      </trkpt>
      <trkpt lat="36.11393" lon="-5.34373">
        <ele>7.205106</ele>
        <time>2021-07-15T14:05:54Z</time>
      </trkpt>
      <trkpt lat="36.11508" lon="-5.3437">
        <ele>11.91036</ele>
        <time>2021-07-15T14:06:05Z</time>
      </trkpt>
      <trkpt lat="36.11621" lon="-5.34329">
        <ele>15.35743</ele>
        <time>2021-07-15T14:06:16Z</time>
      </trkpt>
      <trkpt lat="36.11708" lon="-5.34257">
        <ele>12.20567</ele>
        <time>2021-07-15T14:06:27Z</time>
      </trkpt>
      <trkpt lat="36.11778" lon="-5.3425">
        <ele>10.4654</ele>
        <time>2021-07-15T14:06:38Z</time>
      </trkpt>
      <trkpt lat="36.11836" lon="-5.34283">
        <ele>15.14786</ele>
        <time>2021-07-15T14:06:49Z</time>
      </trkpt>
      <trkpt lat="36.11859" lon="-5.34283">
        <ele>15.28194</ele>
        <time>2021-07-15T14:07:00Z</time>
      </trkpt>
      <trkpt lat="36.11957" lon="-5.34336">
        <ele>23.92899</ele>
        <time>2021-07-15T14:07:11Z</time>
      </trkpt>
      <trkpt lat="36.11972" lon="-5.3439">
        <ele>26.51734</ele>
        <time>2021-07-15T14:07:22Z</time>
      </trkpt>
      <trkpt lat="36.12589" lon="-5.34048">
        <ele>37.29233</ele>
        <time>2021-07-15T14:09:01Z</time>
      </trkpt>
      <trkpt lat="36.12665" lon="-5.34039">
        <ele>26.85182</ele>
        <time>2021-07-15T14:09:12Z</time>
      </trkpt>
      <trkpt lat="36.12709" lon="-5.34116">
        <ele>20.31903</ele>
        <time>2021-07-15T14:09:23Z</time>
      </trkpt>
      <trkpt lat="36.12781" lon="-5.3416">
        <ele>16.24878</ele>
        <time>2021-07-15T14:09:34Z</time>
      </trkpt>
      <trkpt lat="36.12846" lon="-5.34166">
        <ele>14.39385</ele>
        <time>2021-07-15T14:09:45Z</time>
      </trkpt>
      <trkpt lat="36.12887" lon="-5.3416">
        <ele>15.88729</ele>
        <time>2021-07-15T14:09:56Z</time>
      </trkpt>
      <trkpt lat="36.12889" lon="-5.34164">
        <ele>19.82391</ele>
        <time>2021-07-15T14:10:42Z</time>
      </trkpt>
      <trkpt lat="36.12893" lon="-5.34165">
        <ele>17.78187</ele>
        <time>2021-07-15T14:10:58Z</time>
      </trkpt>
      <trkpt lat="36.1289" lon="-5.34162">
        <ele>21.07161</ele>
        <time>2021-07-15T14:11:11Z</time>
      </trkpt>
      <trkpt lat="36.12889" lon="-5.34159">
        <ele>14.66343</ele>
        <time>2021-07-15T14:12:10Z</time>
      </trkpt>
      <trkpt lat="36.12897" lon="-5.34161">
        <ele>14.92573</ele>
        <time>2021-07-15T14:12:35Z</time>
      </trkpt>
      <trkpt lat="36.12976" lon="-5.34213">
        <ele>15.8123</ele>
        <time>2021-07-15T14:12:46Z</time>
      </trkpt>
      <trkpt lat="36.13072" lon="-5.34207">
        <ele>14.37645</ele>
        <time>2021-07-15T14:12:57Z</time>
      </trkpt>
      <trkpt lat="36.1316" lon="-5.34175">
        <ele>18.07791</ele>
        <time>2021-07-15T14:13:08Z</time>
      </trkpt>
      <trkpt lat="36.13258" lon="-5.34132">
        <ele>18.9536</ele>
        <time>2021-07-15T14:13:19Z</time>
      </trkpt>
      <trkpt lat="36.13349" lon="-5.34102">
        <ele>20.75266</ele>
        <time>2021-07-15T14:13:30Z</time>
      </trkpt>
      <trkpt lat="36.13456" lon="-5.34098">
        <ele>20.64208</ele>
        <time>2021-07-15T14:13:41Z</time>
      </trkpt>
      <trkpt lat="36.13541" lon="-5.34092">
        <ele>22.31032</ele>
        <time>2021-07-15T14:13:52Z</time>
      </trkpt>
      <trkpt lat="36.1366" lon="-5.34098">
        <ele>24.01241</ele>
        <time>2021-07-15T14:14:03Z</time>
      </trkpt>
      <trkpt lat="36.13754" lon="-5.34126">
        <ele>23.24339</ele>
        <time>2021-07-15T14:14:14Z</time>
      </trkpt>
      <trkpt lat="36.13835" lon="-5.34196">
        <ele>22.36753</ele>
        <time>2021-07-15T14:14:25Z</time>
      </trkpt>
      <trkpt lat="36.13932" lon="-5.34206">
        <ele>27.62033</ele>
        <time>2021-07-15T14:14:36Z</time>
      </trkpt>
      <trkpt lat="36.14008" lon="-5.34125">
        <ele>21.7659</ele>
        <time>2021-07-15T14:14:47Z</time>
      </trkpt>
      <trkpt lat="36.14091" lon="-5.34049">
        <ele>18.2607</ele>
        <time>2021-07-15T14:14:58Z</time>
      </trkpt>
      <trkpt lat="36.14193" lon="-5.33989">
        <ele>14.72525</ele>
        <time>2021-07-15T14:15:09Z</time>
      </trkpt>
      <trkpt lat="36.14317" lon="-5.33993">
        <ele>12.14871</ele>
        <time>2021-07-15T14:15:20Z</time>
      </trkpt>
      <trkpt lat="36.1444" lon="-5.34051">
        <ele>10.20875</ele>
        <time>2021-07-15T14:15:31Z</time>
      </trkpt>
      <trkpt lat="36.14525" lon="-5.34131">
        <ele>14.17189</ele>
        <time>2021-07-15T14:15:42Z</time>
      </trkpt>
      <trkpt lat="36.14605" lon="-5.34208">
        <ele>4.860277</ele>
        <time>2021-07-15T14:15:53Z</time>
      </trkpt>
      <trkpt lat="36.14657" lon="-5.34309">
        <ele>5.305607</ele>
        <time>2021-07-15T14:16:04Z</time>
      </trkpt>
      <trkpt lat="36.14699" lon="-5.34431">
        <ele>6.263799</ele>
        <time>2021-07-15T14:16:15Z</time>
      </trkpt>
      <trkpt lat="36.14737" lon="-5.34537">
        <ele>4.291973</ele>
        <time>2021-07-15T14:16:26Z</time>
      </trkpt>
      <trkpt lat="36.14771" lon="-5.34635">
        <ele>4.442293</ele>
        <time>2021-07-15T14:16:37Z</time>
      </trkpt>
      <trkpt lat="36.14816" lon="-5.34748">
        <ele>4.310523</ele>
        <time>2021-07-15T14:16:48Z</time>
      </trkpt>
      <trkpt lat="36.14851" lon="-5.34867">
        <ele>3.732627</ele>
        <time>2021-07-15T14:16:59Z</time>
      </trkpt>
      <trkpt lat="36.14861" lon="-5.34904">
        <ele>3.97383</ele>
        <time>2021-07-15T14:17:10Z</time>
      </trkpt>
      <trkpt lat="36.14879" lon="-5.34915">
        <ele>3.828502</ele>
        <time>2021-07-15T14:17:21Z</time>
      </trkpt>
      <trkpt lat="36.14887" lon="-5.34915">
        <ele>2.858287</ele>
        <time>2021-07-15T14:17:32Z</time>
      </trkpt>
      <trkpt lat="36.14888" lon="-5.34917">
        <ele>2.742151</ele>
        <time>2021-07-15T14:18:32Z</time>
      </trkpt>
      <trkpt lat="36.14888" lon="-5.34916">
        <ele>2.563684</ele>
        <time>2021-07-15T14:19:32Z</time>
      </trkpt>
      <trkpt lat="36.14888" lon="-5.34915">
        <ele>3.010643</ele>
        <time>2021-07-15T14:20:32Z</time>
      </trkpt>
      <trkpt lat="36.14892" lon="-5.34915">
        <ele>2.431397</ele>
        <time>2021-07-15T14:21:05Z</time>
      </trkpt>
      <trkpt lat="36.14888" lon="-5.34913">
        <ele>2.633362</ele>
        <time>2021-07-15T14:21:37Z</time>
      </trkpt>
      <trkpt lat="36.14885" lon="-5.34919">
        <ele>2.844349</ele>
        <time>2021-07-15T14:22:03Z</time>
      </trkpt>
      <trkpt lat="36.14887" lon="-5.34918">
        <ele>2.790402</ele>
        <time>2021-07-15T14:23:03Z</time>
      </trkpt>
      <trkpt lat="36.14889" lon="-5.34914">
        <ele>2.691592</ele>
        <time>2021-07-15T14:23:27Z</time>
      </trkpt>
      <trkpt lat="36.14901" lon="-5.34912">
        <ele>2.920445</ele>
        <time>2021-07-15T14:23:38Z</time>
      </trkpt>
      <trkpt lat="36.1493" lon="-5.34906">
        <ele>4.203228</ele>
        <time>2021-07-15T14:23:49Z</time>
      </trkpt>
      <trkpt lat="36.15003" lon="-5.34883">
        <ele>2.726896</ele>
        <time>2021-07-15T14:24:00Z</time>
      </trkpt>
      <trkpt lat="36.15084" lon="-5.34868">
        <ele>3.248882</ele>
        <time>2021-07-15T14:24:11Z</time>
      </trkpt>
      <trkpt lat="36.15162" lon="-5.3486">
        <ele>1.850841</ele>
        <time>2021-07-15T14:24:22Z</time>
      </trkpt>
      <trkpt lat="36.15227" lon="-5.34856">
        <ele>3.437762</ele>
        <time>2021-07-15T14:24:33Z</time>
      </trkpt>
      <trkpt lat="36.15287" lon="-5.34852">
        <ele>4.566065</ele>
        <time>2021-07-15T14:24:44Z</time>
      </trkpt>
      <trkpt lat="36.15322" lon="-5.34849">
        <ele>4.594113</ele>
        <time>2021-07-15T14:24:55Z</time>
      </trkpt>
      <trkpt lat="36.15339" lon="-5.34847">
        <ele>3.249791</ele>
        <time>2021-07-15T14:25:06Z</time>
      </trkpt>
      <trkpt lat="36.15387" lon="-5.34843">
        <ele>2.789154</ele>
        <time>2021-07-15T14:25:17Z</time>
      </trkpt>
      <trkpt lat="36.15449" lon="-5.34831">
        <ele>3.045424</ele>
        <time>2021-07-15T14:25:28Z</time>
      </trkpt>
      <trkpt lat="36.15468" lon="-5.34775">
        <ele>4.111124</ele>
        <time>2021-07-15T14:25:39Z</time>
      </trkpt>
      <trkpt lat="36.15471" lon="-5.34756">
        <ele>3.18773</ele>
        <time>2021-07-15T14:25:50Z</time>
      </trkpt>
      <trkpt lat="36.15474" lon="-5.34773">
        <ele>3.683303</ele>
        <time>2021-07-15T14:26:01Z</time>
      </trkpt>
      <trkpt lat="36.15475" lon="-5.34763">
        <ele>3.678502</ele>
        <time>2021-07-15T14:26:13Z</time>
      </trkpt>
      <trkpt lat="36.15479" lon="-5.34706">
        <ele>3.50651</ele>
        <time>2021-07-15T14:26:24Z</time>
      </trkpt>
      <trkpt lat="36.15479" lon="-5.34792">
        <ele>3.262177</ele>
        <time>2021-07-15T14:26:35Z</time>
      </trkpt>
      <trkpt lat="36.15487" lon="-5.34809">
        <ele>3.771574</ele>
        <time>2021-07-15T14:26:46Z</time>
      </trkpt>
      <trkpt lat="36.15487" lon="-5.34814">
        <ele>4.499679</ele>
        <time>2021-07-15T14:26:57Z</time>
      </trkpt>
      <trkpt lat="36.15491" lon="-5.34813">
        <ele>4.356686</ele>
        <time>2021-07-15T14:27:08Z</time>
      </trkpt>
      <trkpt lat="36.15498" lon="-5.34807">
        <ele>3.478042</ele>
        <time>2021-07-15T14:27:19Z</time>
      </trkpt>
      <trkpt lat="36.15506" lon="-5.34802">
        <ele>3.987192</ele>
        <time>2021-07-15T14:27:30Z</time>
      </trkpt>
      <trkpt lat="36.15515" lon="-5.348">
        <ele>3.976284</ele>
        <time>2021-07-15T14:27:41Z</time>
      </trkpt>
      <trkpt lat="36.15518" lon="-5.34791">
        <ele>2.535626</ele>
        <time>2021-07-15T14:27:52Z</time>
      </trkpt>
      <trkpt lat="36.1552" lon="-5.34784">
        <ele>2.03681</ele>
        <time>2021-07-15T14:28:03Z</time>
      </trkpt>
      <trkpt lat="36.15517" lon="-5.34774">
        <ele>2.067225</ele>
        <time>2021-07-15T14:28:14Z</time>
      </trkpt>
      <trkpt lat="36.15508" lon="-5.34719">
        <ele>2.880414</ele>
        <time>2021-07-15T14:28:25Z</time>
      </trkpt>
      <trkpt lat="36.15523" lon="-5.34733">
        <ele>3.718145</ele>
        <time>2021-07-15T14:28:36Z</time>
      </trkpt>
      <trkpt lat="36.15586" lon="-5.34751">
        <ele>2.785549</ele>
        <time>2021-07-15T14:28:47Z</time>
      </trkpt>
      <trkpt lat="36.1561" lon="-5.34697">
        <ele>3.666821</ele>
        <time>2021-07-15T14:28:58Z</time>
      </trkpt>
      <trkpt lat="36.15615" lon="-5.3463">
        <ele>3.235567</ele>
        <time>2021-07-15T14:29:09Z</time>
      </trkpt>
      <trkpt lat="36.15626" lon="-5.34696">
        <ele>2.797274</ele>
        <time>2021-07-15T14:29:20Z</time>
      </trkpt>
      <trkpt lat="36.15628" lon="-5.34764">
        <ele>3.372463</ele>
        <time>2021-07-15T14:29:31Z</time>
      </trkpt>
      <trkpt lat="36.15627" lon="-5.34793">
        <ele>4.117295</ele>
        <time>2021-07-15T14:29:42Z</time>
      </trkpt>
      <trkpt lat="36.15628" lon="-5.34818">
        <ele>3.870763</ele>
        <time>2021-07-15T14:29:53Z</time>
      </trkpt>
      <trkpt lat="36.1563" lon="-5.34827">
        <ele>3.630482</ele>
        <time>2021-07-15T14:30:04Z</time>
      </trkpt>
      <trkpt lat="36.1562" lon="-5.34915">
        <ele>4.315604</ele>
        <time>2021-07-15T14:30:15Z</time>
      </trkpt>
      <trkpt lat="36.15615" lon="-5.35057">
        <ele>3.739518</ele>
        <time>2021-07-15T14:30:26Z</time>
      </trkpt>
      <trkpt lat="36.15663" lon="-5.35195">
        <ele>4.047357</ele>
        <time>2021-07-15T14:30:37Z</time>
      </trkpt>
      <trkpt lat="36.15759" lon="-5.35284">
        <ele>1.908972</ele>
        <time>2021-07-15T14:30:48Z</time>
      </trkpt>
      <trkpt lat="36.15805" lon="-5.35306">
        <ele>2.261495</ele>
        <time>2021-07-15T14:30:59Z</time>
      </trkpt>
      <trkpt lat="36.15807" lon="-5.35311">
        <ele>3.111147</ele>
        <time>2021-07-15T14:31:14Z</time>
      </trkpt>
      <trkpt lat="36.15827" lon="-5.35319">
        <ele>2.456516</ele>
        <time>2021-07-15T14:31:25Z</time>
      </trkpt>
      <trkpt lat="36.15848" lon="-5.35323">
        <ele>1.998669</ele>
        <time>2021-07-15T14:31:36Z</time>
      </trkpt>
      <trkpt lat="36.15877" lon="-5.35348">
        <ele>2.710394</ele>
        <time>2021-07-15T14:31:47Z</time>
      </trkpt>
      <trkpt lat="36.15959" lon="-5.35427">
        <ele>4.289603</ele>
        <time>2021-07-15T14:31:58Z</time>
      </trkpt>
      <trkpt lat="36.16075" lon="-5.35528">
        <ele>2.517356</ele>
        <time>2021-07-15T14:32:09Z</time>
      </trkpt>
      <trkpt lat="36.16186" lon="-5.35641">
        <ele>3.280076</ele>
        <time>2021-07-15T14:32:20Z</time>
      </trkpt>
      <trkpt lat="36.16269" lon="-5.35714">
        <ele>3.756941</ele>
        <time>2021-07-15T14:32:31Z</time>
      </trkpt>
      <trkpt lat="36.16349" lon="-5.35846">
        <ele>3.643396</ele>
        <time>2021-07-15T14:32:42Z</time>
      </trkpt>
      <trkpt lat="36.16428" lon="-5.35964">
        <ele>4.742964</ele>
        <time>2021-07-15T14:32:53Z</time>
      </trkpt>
      <trkpt lat="36.1649" lon="-5.36059">
        <ele>3.050185</ele>
        <time>2021-07-15T14:33:04Z</time>
      </trkpt>
      <trkpt lat="36.16557" lon="-5.36207">
        <ele>4.950216</ele>
        <time>2021-07-15T14:33:15Z</time>
      </trkpt>
      <trkpt lat="36.16644" lon="-5.36363">
        <ele>2.861166</ele>
        <time>2021-07-15T14:33:26Z</time>
      </trkpt>
      <trkpt lat="36.16684" lon="-5.36431">
        <ele>3.317614</ele>
        <time>2021-07-15T14:33:37Z</time>
      </trkpt>
      <trkpt lat="36.16668" lon="-5.36456">
        <ele>5.969608</ele>
        <time>2021-07-15T14:33:48Z</time>
      </trkpt>
      <trkpt lat="36.16609" lon="-5.36305">
        <ele>2.323025</ele>
        <time>2021-07-15T14:33:59Z</time>
      </trkpt>
      <trkpt lat="36.16536" lon="-5.36182">
        <ele>0.979694</ele>
        <time>2021-07-15T14:34:10Z</time>
      </trkpt>
      <trkpt lat="36.16525" lon="-5.3617">
        <ele>1.666859</ele>
        <time>2021-07-15T14:34:21Z</time>
      </trkpt>
      <trkpt lat="36.16521" lon="-5.3617">
        <ele>2.238499</ele>
        <time>2021-07-15T14:35:17Z</time>
      </trkpt>
      <trkpt lat="36.1652" lon="-5.36161">
        <ele>2.35588</ele>
        <time>2021-07-15T14:35:31Z</time>
      </trkpt>
      <trkpt lat="36.1646" lon="-5.36071">
        <ele>1.768961</ele>
        <time>2021-07-15T14:35:42Z</time>
      </trkpt>
      <trkpt lat="36.1651" lon="-5.36121">
        <ele>2.868487</ele>
        <time>2021-07-15T14:35:53Z</time>
      </trkpt>
      <trkpt lat="36.16593" lon="-5.36258">
        <ele>3.222007</ele>
        <time>2021-07-15T14:36:04Z</time>
      </trkpt>
      <trkpt lat="36.16651" lon="-5.36367">
        <ele>2.58072</ele>
        <time>2021-07-15T14:36:15Z</time>
      </trkpt>
      <trkpt lat="36.16732" lon="-5.36413">
        <ele>3.270487</ele>
        <time>2021-07-15T14:36:26Z</time>
      </trkpt>
      <trkpt lat="36.16804" lon="-5.36341">
        <ele>3.617505</ele>
        <time>2021-07-15T14:36:37Z</time>
      </trkpt>
      <trkpt lat="36.16913" lon="-5.3634">
        <ele>3.827136</ele>
        <time>2021-07-15T14:36:48Z</time>
      </trkpt>
      <trkpt lat="36.17054" lon="-5.36327">
        <ele>6.174578</ele>
        <time>2021-07-15T14:36:59Z</time>
      </trkpt>
      <trkpt lat="36.17182" lon="-5.36321">
        <ele>7.755415</ele>
        <time>2021-07-15T14:37:10Z</time>
      </trkpt>
      <trkpt lat="36.173" lon="-5.36261">
        <ele>8.343695</ele>
        <time>2021-07-15T14:37:21Z</time>
      </trkpt>
      <trkpt lat="36.17389" lon="-5.36169">
        <ele>7.547907</ele>
        <time>2021-07-15T14:37:32Z</time>
      </trkpt>
      <trkpt lat="36.17425" lon="-5.3612">
        <ele>8.727375</ele>
        <time>2021-07-15T14:37:43Z</time>
      </trkpt>
      <trkpt lat="36.17395" lon="-5.36171">
        <ele>7.690217</ele>
        <time>2021-07-15T14:37:54Z</time>
      </trkpt>
      <trkpt lat="36.17358" lon="-5.36233">
        <ele>7.318618</ele>
        <time>2021-07-15T14:38:05Z</time>
      </trkpt>
      <trkpt lat="36.17392" lon="-5.36264">
        <ele>5.881821</ele>
        <time>2021-07-15T14:38:16Z</time>
      </trkpt>
      <trkpt lat="36.17414" lon="-5.36256">
        <ele>6.914703</ele>
        <time>2021-07-15T14:38:27Z</time>
      </trkpt>
      <trkpt lat="36.17416" lon="-5.36251">
        <ele>9.641757</ele>
        <time>2021-07-15T14:39:04Z</time>
      </trkpt>
      <trkpt lat="36.17415" lon="-5.36256">
        <ele>7.352195</ele>
        <time>2021-07-15T14:39:17Z</time>
      </trkpt>
      <trkpt lat="36.17414" lon="-5.36248">
        <ele>7.56986</ele>
        <time>2021-07-15T14:39:28Z</time>
      </trkpt>
      <trkpt lat="36.1741" lon="-5.36247">
        <ele>7.932132</ele>
        <time>2021-07-15T14:40:09Z</time>
      </trkpt>
      <trkpt lat="36.17412" lon="-5.3624">
        <ele>6.907544</ele>
        <time>2021-07-15T14:40:20Z</time>
      </trkpt>
      <trkpt lat="36.17411" lon="-5.36244">
        <ele>7.566044</ele>
        <time>2021-07-15T14:40:33Z</time>
      </trkpt>
      <trkpt lat="36.17414" lon="-5.3625">
        <ele>7.888458</ele>
        <time>2021-07-15T14:40:44Z</time>
      </trkpt>
      <trkpt lat="36.17414" lon="-5.36255">
        <ele>8.519101</ele>
        <time>2021-07-15T14:41:01Z</time>
      </trkpt>
      <trkpt lat="36.17418" lon="-5.36254">
        <ele>7.541132</ele>
        <time>2021-07-15T14:41:12Z</time>
      </trkpt>
      <trkpt lat="36.17424" lon="-5.36251">
        <ele>8.961062</ele>
        <time>2021-07-15T14:41:23Z</time>
      </trkpt>
      <trkpt lat="36.17421" lon="-5.36249">
        <ele>8.577946</ele>
        <time>2021-07-15T14:41:53Z</time>
      </trkpt>
      <trkpt lat="36.17423" lon="-5.36245">
        <ele>8.657657</ele>
        <time>2021-07-15T14:42:28Z</time>
      </trkpt>
      <trkpt lat="36.17418" lon="-5.36249">
        <ele>7.819039</ele>
        <time>2021-07-15T14:42:39Z</time>
      </trkpt>
      <trkpt lat="36.17417" lon="-5.36244">
        <ele>7.741476</ele>
        <time>2021-07-15T14:42:59Z</time>
      </trkpt>
      <trkpt lat="36.17414" lon="-5.36244">
        <ele>7.009773</ele>
        <time>2021-07-15T14:43:29Z</time>
      </trkpt>
      <trkpt lat="36.17411" lon="-5.36238">
        <ele>7.690833</ele>
        <time>2021-07-15T14:43:40Z</time>
      </trkpt>
      <trkpt lat="36.17414" lon="-5.36241">
        <ele>5.814027</ele>
        <time>2021-07-15T14:44:11Z</time>
      </trkpt>
      <trkpt lat="36.17418" lon="-5.36239">
        <ele>6.870695</ele>
        <time>2021-07-15T14:44:31Z</time>
      </trkpt>
      <trkpt lat="36.17417" lon="-5.36246">
        <ele>8.020859</ele>
        <time>2021-07-15T14:44:42Z</time>
      </trkpt>
      <trkpt lat="36.1742" lon="-5.36248">
        <ele>7.496518</ele>
        <time>2021-07-15T14:45:01Z</time>
      </trkpt>
      <trkpt lat="36.17414" lon="-5.36246">
        <ele>7.719816</ele>
        <time>2021-07-15T14:45:12Z</time>
      </trkpt>
      <trkpt lat="36.17418" lon="-5.36247">
        <ele>7.088882</ele>
        <time>2021-07-15T14:45:32Z</time>
      </trkpt>
      <trkpt lat="36.17414" lon="-5.36247">
        <ele>7.826612</ele>
        <time>2021-07-15T14:46:00Z</time>
      </trkpt>
      <trkpt lat="36.17416" lon="-5.36251">
        <ele>7.255776</ele>
        <time>2021-07-15T14:46:37Z</time>
      </trkpt>
      <trkpt lat="36.17416" lon="-5.36247">
        <ele>8.112085</ele>
        <time>2021-07-15T14:47:00Z</time>
      </trkpt>
      <trkpt lat="36.17419" lon="-5.36244">
        <ele>6.575988</ele>
        <time>2021-07-15T14:47:18Z</time>
      </trkpt>
      <trkpt lat="36.17421" lon="-5.36248">
        <ele>7.42952</ele>
        <time>2021-07-15T14:47:42Z</time>
      </trkpt>
      <trkpt lat="36.17424" lon="-5.36246">
        <ele>7.657123</ele>
        <time>2021-07-15T14:48:01Z</time>
      </trkpt>
      <trkpt lat="36.17421" lon="-5.36249">
        <ele>7.813905</ele>
        <time>2021-07-15T14:48:12Z</time>
      </trkpt>
      <trkpt lat="36.17415" lon="-5.36255">
        <ele>8.096025</ele>
        <time>2021-07-15T14:48:23Z</time>
      </trkpt>
      <trkpt lat="36.17413" lon="-5.36251">
        <ele>7.811008</ele>
        <time>2021-07-15T14:48:36Z</time>
      </trkpt>
      <trkpt lat="36.17413" lon="-5.36253">
        <ele>7.773142</ele>
        <time>2021-07-15T14:49:36Z</time>
      </trkpt>
      <trkpt lat="36.17413" lon="-5.36258">
        <ele>8.197476</ele>
        <time>2021-07-15T14:50:35Z</time>
      </trkpt>
      <trkpt lat="36.17414" lon="-5.36253">
        <ele>8.334812</ele>
        <time>2021-07-15T14:51:00Z</time>
      </trkpt>
      <trkpt lat="36.17413" lon="-5.36258">
        <ele>7.848443</ele>
        <time>2021-07-15T14:51:13Z</time>
      </trkpt>
      <trkpt lat="36.17411" lon="-5.36262">
        <ele>7.91126</ele>
        <time>2021-07-15T14:51:38Z</time>
      </trkpt>
      <trkpt lat="36.17415" lon="-5.3626">
        <ele>7.531916</ele>
        <time>2021-07-15T14:52:08Z</time>
      </trkpt>
      <trkpt lat="36.17414" lon="-5.36255">
        <ele>8.123503</ele>
        <time>2021-07-15T14:52:22Z</time>
      </trkpt>
      <trkpt lat="36.17409" lon="-5.36257">
        <ele>8.423093</ele>
        <time>2021-07-15T14:52:50Z</time>
      </trkpt>
      <trkpt lat="36.17409" lon="-5.36252">
        <ele>7.828972</ele>
        <time>2021-07-15T14:53:09Z</time>
      </trkpt>
      <trkpt lat="36.17412" lon="-5.36255">
        <ele>6.703409</ele>
        <time>2021-07-15T14:53:46Z</time>
      </trkpt>
      <trkpt lat="36.17415" lon="-5.36258">
        <ele>7.695913</ele>
        <time>2021-07-15T14:53:57Z</time>
      </trkpt>
      <trkpt lat="36.17412" lon="-5.36254">
        <ele>8.868148</ele>
        <time>2021-07-15T14:54:25Z</time>
      </trkpt>
      <trkpt lat="36.17413" lon="-5.36251">
        <ele>7.572148</ele>
        <time>2021-07-15T14:55:24Z</time>
      </trkpt>
      <trkpt lat="36.17415" lon="-5.36255">
        <ele>7.700006</ele>
        <time>2021-07-15T14:56:02Z</time>
      </trkpt>
      <trkpt lat="36.17411" lon="-5.36255">
        <ele>8.037277</ele>
        <time>2021-07-15T14:56:28Z</time>
      </trkpt>
      <trkpt lat="36.17411" lon="-5.3625">
        <ele>6.873115</ele>
        <time>2021-07-15T14:56:50Z</time>
      </trkpt>
      <trkpt lat="36.17413" lon="-5.36251">
        <ele>6.948312</ele>
        <time>2021-07-15T14:57:50Z</time>
      </trkpt>
      <trkpt lat="36.1741" lon="-5.36254">
        <ele>7.04015</ele>
        <time>2021-07-15T14:58:19Z</time>
      </trkpt>
      <trkpt lat="36.1741" lon="-5.36259">
        <ele>6.476191</ele>
        <time>2021-07-15T14:58:46Z</time>
      </trkpt>
      <trkpt lat="36.17409" lon="-5.36254">
        <ele>7.452182</ele>
        <time>2021-07-15T14:59:19Z</time>
      </trkpt>
      <trkpt lat="36.17406" lon="-5.36252">
        <ele>7.930678</ele>
        <time>2021-07-15T14:59:37Z</time>
      </trkpt>
      <trkpt lat="36.17407" lon="-5.36256">
        <ele>7.51146</ele>
        <time>2021-07-15T15:00:03Z</time>
      </trkpt>
      <trkpt lat="36.17407" lon="-5.36251">
        <ele>7.387096</ele>
        <time>2021-07-15T15:00:39Z</time>
      </trkpt>
      <trkpt lat="36.17403" lon="-5.36247">
        <ele>8.149605</ele>
        <time>2021-07-15T15:00:50Z</time>
      </trkpt>
      <trkpt lat="36.17407" lon="-5.36249">
        <ele>7.518666</ele>
        <time>2021-07-15T15:01:05Z</time>
      </trkpt>
      <trkpt lat="36.17408" lon="-5.36256">
        <ele>7.396031</ele>
        <time>2021-07-15T15:01:16Z</time>
      </trkpt>
      <trkpt lat="36.17407" lon="-5.36251">
        <ele>7.035931</ele>
        <time>2021-07-15T15:01:29Z</time>
      </trkpt>
      <trkpt lat="36.17409" lon="-5.36247">
        <ele>7.194828</ele>
        <time>2021-07-15T15:01:40Z</time>
      </trkpt>
      <trkpt lat="36.17409" lon="-5.36252">
        <ele>6.385267</ele>
        <time>2021-07-15T15:02:13Z</time>
      </trkpt>
      <trkpt lat="36.17411" lon="-5.36258">
        <ele>7.598396</ele>
        <time>2021-07-15T15:02:30Z</time>
      </trkpt>
      <trkpt lat="36.17412" lon="-5.36251">
        <ele>7.065441</ele>
        <time>2021-07-15T15:02:41Z</time>
      </trkpt>
      <trkpt lat="36.17414" lon="-5.36248">
        <ele>7.742536</ele>
        <time>2021-07-15T15:02:57Z</time>
      </trkpt>
      <trkpt lat="36.1741" lon="-5.36247">
        <ele>7.174801</ele>
        <time>2021-07-15T15:03:15Z</time>
      </trkpt>
      <trkpt lat="36.17408" lon="-5.36243">
        <ele>6.904305</ele>
        <time>2021-07-15T15:03:34Z</time>
      </trkpt>
      <trkpt lat="36.17411" lon="-5.36246">
        <ele>7.473787</ele>
        <time>2021-07-15T15:04:01Z</time>
      </trkpt>
      <trkpt lat="36.17405" lon="-5.36249">
        <ele>7.985142</ele>
        <time>2021-07-15T15:04:12Z</time>
      </trkpt>
      <trkpt lat="36.17408" lon="-5.36252">
        <ele>7.167915</ele>
        <time>2021-07-15T15:04:23Z</time>
      </trkpt>
      <trkpt lat="36.17411" lon="-5.36255">
        <ele>7.067924</ele>
        <time>2021-07-15T15:04:47Z</time>
      </trkpt>
      <trkpt lat="36.17413" lon="-5.3626">
        <ele>6.915024</ele>
        <time>2021-07-15T15:05:27Z</time>
      </trkpt>
      <trkpt lat="36.1741" lon="-5.36258">
        <ele>7.557702</ele>
        <time>2021-07-15T15:06:11Z</time>
      </trkpt>
      <trkpt lat="36.17416" lon="-5.36249">
        <ele>9.012361</ele>
        <time>2021-07-15T15:06:22Z</time>
      </trkpt>
      <trkpt lat="36.17416" lon="-5.36244">
        <ele>7.606486</ele>
        <time>2021-07-15T15:06:52Z</time>
      </trkpt>
      <trkpt lat="36.17413" lon="-5.36247">
        <ele>7.579775</ele>
        <time>2021-07-15T15:07:14Z</time>
      </trkpt>
      <trkpt lat="36.17412" lon="-5.36253">
        <ele>9.919333</ele>
        <time>2021-07-15T15:07:31Z</time>
      </trkpt>
      <trkpt lat="36.17405" lon="-5.36255">
        <ele>8.696917</ele>
        <time>2021-07-15T15:07:42Z</time>
      </trkpt>
      <trkpt lat="36.17409" lon="-5.36264">
        <ele>7.315693</ele>
        <time>2021-07-15T15:07:53Z</time>
      </trkpt>
      <trkpt lat="36.17414" lon="-5.3628">
        <ele>7.484568</ele>
        <time>2021-07-15T15:08:04Z</time>
      </trkpt>
      <trkpt lat="36.17412" lon="-5.36299">
        <ele>7.227572</ele>
        <time>2021-07-15T15:08:15Z</time>
      </trkpt>
      <trkpt lat="36.17413" lon="-5.3631">
        <ele>7.286415</ele>
        <time>2021-07-15T15:08:26Z</time>
      </trkpt>
      <trkpt lat="36.1741" lon="-5.36331">
        <ele>7.63511</ele>
        <time>2021-07-15T15:08:37Z</time>
      </trkpt>
      <trkpt lat="36.17406" lon="-5.36331">
        <ele>7.677662</ele>
        <time>2021-07-15T15:09:06Z</time>
      </trkpt>
      <trkpt lat="36.17397" lon="-5.36321">
        <ele>7.42571</ele>
        <time>2021-07-15T15:09:17Z</time>
      </trkpt>
      <trkpt lat="36.17391" lon="-5.36317">
        <ele>6.956275</ele>
        <time>2021-07-15T15:09:28Z</time>
      </trkpt>
      <trkpt lat="36.17387" lon="-5.3632">
        <ele>5.079848</ele>
        <time>2021-07-15T15:09:40Z</time>
      </trkpt>
      <trkpt lat="36.17402" lon="-5.36318">
        <ele>6.563492</ele>
        <time>2021-07-15T15:09:51Z</time>
      </trkpt>
      <trkpt lat="36.17412" lon="-5.36318">
        <ele>7.585154</ele>
        <time>2021-07-15T15:10:02Z</time>
      </trkpt>
      <trkpt lat="36.17413" lon="-5.36324">
        <ele>7.000045</ele>
        <time>2021-07-15T15:10:13Z</time>
      </trkpt>
      <trkpt lat="36.17408" lon="-5.36323">
        <ele>7.403116</ele>
        <time>2021-07-15T15:10:24Z</time>
      </trkpt>
      <trkpt lat="36.17415" lon="-5.36315">
        <ele>7.325539</ele>
        <time>2021-07-15T15:10:35Z</time>
      </trkpt>
      <trkpt lat="36.17411" lon="-5.36312">
        <ele>7.463535</ele>
        <time>2021-07-15T15:10:46Z</time>
      </trkpt>
      <trkpt lat="36.17407" lon="-5.36321">
        <ele>7.094672</ele>
        <time>2021-07-15T15:10:57Z</time>
      </trkpt>
      <trkpt lat="36.17409" lon="-5.36325">
        <ele>7.202608</ele>
        <time>2021-07-15T15:11:11Z</time>
      </trkpt>
      <trkpt lat="36.17405" lon="-5.36327">
        <ele>6.570711</ele>
        <time>2021-07-15T15:11:29Z</time>
      </trkpt>
      <trkpt lat="36.17406" lon="-5.36334">
        <ele>10.58069</ele>
        <time>2021-07-15T15:11:40Z</time>
      </trkpt>
      <trkpt lat="36.17402" lon="-5.36332">
        <ele>7.384938</ele>
        <time>2021-07-15T15:11:51Z</time>
      </trkpt>
      <trkpt lat="36.17405" lon="-5.36323">
        <ele>7.289427</ele>
        <time>2021-07-15T15:12:02Z</time>
      </trkpt>
      <trkpt lat="36.17408" lon="-5.3632">
        <ele>7.654832</ele>
        <time>2021-07-15T15:12:16Z</time>
      </trkpt>
      <trkpt lat="36.17413" lon="-5.36301">
        <ele>7.010811</ele>
        <time>2021-07-15T15:12:27Z</time>
      </trkpt>
      <trkpt lat="36.17409" lon="-5.36283">
        <ele>6.465219</ele>
        <time>2021-07-15T15:12:38Z</time>
      </trkpt>
      <trkpt lat="36.17408" lon="-5.36272">
        <ele>7.722962</ele>
        <time>2021-07-15T15:12:49Z</time>
      </trkpt>
      <trkpt lat="36.17408" lon="-5.36257">
        <ele>7.613138</ele>
        <time>2021-07-15T15:13:00Z</time>
      </trkpt>
      <trkpt lat="36.17413" lon="-5.36252">
        <ele>8.436723</ele>
        <time>2021-07-15T15:13:11Z</time>
      </trkpt>
      <trkpt lat="36.1741" lon="-5.36248">
        <ele>7.110756</ele>
        <time>2021-07-15T15:13:28Z</time>
      </trkpt>
      <trkpt lat="36.17408" lon="-5.36251">
        <ele>8.030065</ele>
        <time>2021-07-15T15:13:43Z</time>
      </trkpt>
      <trkpt lat="36.17411" lon="-5.36246">
        <ele>8.000166</ele>
        <time>2021-07-15T15:14:06Z</time>
      </trkpt>
      <trkpt lat="36.17415" lon="-5.36242">
        <ele>8.382439</ele>
        <time>2021-07-15T15:14:43Z</time>
      </trkpt>
      <trkpt lat="36.17411" lon="-5.36241">
        <ele>8.124437</ele>
        <time>2021-07-15T15:14:58Z</time>
      </trkpt>
      <trkpt lat="36.17409" lon="-5.36246">
        <ele>7.336959</ele>
        <time>2021-07-15T15:15:09Z</time>
      </trkpt>
      <trkpt lat="36.17406" lon="-5.36249">
        <ele>7.602124</ele>
        <time>2021-07-15T15:16:00Z</time>
      </trkpt>
      <trkpt lat="36.17409" lon="-5.36249">
        <ele>5.462358</ele>
        <time>2021-07-15T15:16:12Z</time>
      </trkpt>
      <trkpt lat="36.1741" lon="-5.36254">
        <ele>4.455786</ele>
        <time>2021-07-15T15:16:23Z</time>
      </trkpt>
      <trkpt lat="36.17412" lon="-5.36258">
        <ele>4.723635</ele>
        <time>2021-07-15T15:16:39Z</time>
      </trkpt>
      <trkpt lat="36.17416" lon="-5.36257">
        <ele>7.293771</ele>
        <time>2021-07-15T15:17:07Z</time>
      </trkpt>
      <trkpt lat="36.17419" lon="-5.36254">
        <ele>6.845094</ele>
        <time>2021-07-15T15:17:19Z</time>
      </trkpt>
      <trkpt lat="36.17412" lon="-5.3625">
        <ele>8.33036</ele>
        <time>2021-07-15T15:17:30Z</time>
      </trkpt>
      <trkpt lat="36.17409" lon="-5.36247">
        <ele>7.992682</ele>
        <time>2021-07-15T15:17:53Z</time>
      </trkpt>
      <trkpt lat="36.17406" lon="-5.3625">
        <ele>7.932933</ele>
        <time>2021-07-15T15:18:11Z</time>
      </trkpt>
      <trkpt lat="36.17407" lon="-5.36246">
        <ele>7.301813</ele>
        <time>2021-07-15T15:18:35Z</time>
      </trkpt>
      <trkpt lat="36.17412" lon="-5.36247">
        <ele>7.360789</ele>
        <time>2021-07-15T15:18:52Z</time>
      </trkpt>
      <trkpt lat="36.17406" lon="-5.36251">
        <ele>7.605903</ele>
        <time>2021-07-15T15:19:03Z</time>
      </trkpt>
      <trkpt lat="36.17401" lon="-5.36251">
        <ele>7.127485</ele>
        <time>2021-07-15T15:19:29Z</time>
      </trkpt>
      <trkpt lat="36.1741" lon="-5.36259">
        <ele>6.910102</ele>
        <time>2021-07-15T15:20:07Z</time>
      </trkpt>
      <trkpt lat="36.17415" lon="-5.36261">
        <ele>7.831416</ele>
        <time>2021-07-15T15:20:29Z</time>
      </trkpt>
      <trkpt lat="36.17409" lon="-5.3626">
        <ele>7.297736</ele>
        <time>2021-07-15T15:20:40Z</time>
      </trkpt>
      <trkpt lat="36.17409" lon="-5.36255">
        <ele>7.607981</ele>
        <time>2021-07-15T15:20:51Z</time>
      </trkpt>
      <trkpt lat="36.17407" lon="-5.3625">
        <ele>7.210755</ele>
        <time>2021-07-15T15:21:02Z</time>
      </trkpt>
      <trkpt lat="36.17409" lon="-5.36246">
        <ele>7.381183</ele>
        <time>2021-07-15T15:21:20Z</time>
      </trkpt>
      <trkpt lat="36.17412" lon="-5.36249">
        <ele>7.353109</ele>
        <time>2021-07-15T15:21:32Z</time>
      </trkpt>
      <trkpt lat="36.17409" lon="-5.3625">
        <ele>7.211853</ele>
        <time>2021-07-15T15:21:52Z</time>
      </trkpt>
      <trkpt lat="36.17411" lon="-5.36254">
        <ele>8.71845</ele>
        <time>2021-07-15T15:22:06Z</time>
      </trkpt>
      <trkpt lat="36.17409" lon="-5.36258">
        <ele>5.412694</ele>
        <time>2021-07-15T15:22:20Z</time>
      </trkpt>
      <trkpt lat="36.17404" lon="-5.36255">
        <ele>9.068137</ele>
        <time>2021-07-15T15:22:31Z</time>
      </trkpt>
      <trkpt lat="36.17403" lon="-5.3625">
        <ele>8.262908</ele>
        <time>2021-07-15T15:23:14Z</time>
      </trkpt>
      <trkpt lat="36.17409" lon="-5.36249">
        <ele>7.950534</ele>
        <time>2021-07-15T15:23:25Z</time>
      </trkpt>
      <trkpt lat="36.17412" lon="-5.36255">
        <ele>7.549813</ele>
        <time>2021-07-15T15:23:36Z</time>
      </trkpt>
      <trkpt lat="36.17413" lon="-5.36261">
        <ele>7.874468</ele>
        <time>2021-07-15T15:23:47Z</time>
      </trkpt>
      <trkpt lat="36.17417" lon="-5.36262">
        <ele>6.505447</ele>
        <time>2021-07-15T15:23:58Z</time>
      </trkpt>
      <trkpt lat="36.1742" lon="-5.36261">
        <ele>8.045082</ele>
        <time>2021-07-15T15:24:14Z</time>
      </trkpt>
      <trkpt lat="36.17417" lon="-5.36259">
        <ele>8.425919</ele>
        <time>2021-07-15T15:24:32Z</time>
      </trkpt>
      <trkpt lat="36.17414" lon="-5.36262">
        <ele>8.161399</ele>
        <time>2021-07-15T15:25:19Z</time>
      </trkpt>
      <trkpt lat="36.1742" lon="-5.36255">
        <ele>8.059847</ele>
        <time>2021-07-15T15:25:48Z</time>
      </trkpt>
      <trkpt lat="36.17419" lon="-5.36232">
        <ele>9.703266</ele>
        <time>2021-07-15T15:25:59Z</time>
      </trkpt>
      <trkpt lat="36.17404" lon="-5.36185">
        <ele>7.298954</ele>
        <time>2021-07-15T15:26:10Z</time>
      </trkpt>
      <trkpt lat="36.1743" lon="-5.36189">
        <ele>7.868526</ele>
        <time>2021-07-15T15:26:21Z</time>
      </trkpt>
      <trkpt lat="36.17431" lon="-5.36193">
        <ele>7.925777</ele>
        <time>2021-07-15T15:27:20Z</time>
      </trkpt>
      <trkpt lat="36.17432" lon="-5.36186">
        <ele>7.329801</ele>
        <time>2021-07-15T15:27:37Z</time>
      </trkpt>
      <trkpt lat="36.17428" lon="-5.36189">
        <ele>7.78572</ele>
        <time>2021-07-15T15:28:08Z</time>
      </trkpt>
      <trkpt lat="36.17431" lon="-5.36193">
        <ele>7.574224</ele>
        <time>2021-07-15T15:28:26Z</time>
      </trkpt>
      <trkpt lat="36.17435" lon="-5.36203">
        <ele>8.064225</ele>
        <time>2021-07-15T15:28:54Z</time>
      </trkpt>
      <trkpt lat="36.17442" lon="-5.36213">
        <ele>7.95847</ele>
        <time>2021-07-15T15:29:05Z</time>
      </trkpt>
      <trkpt lat="36.17438" lon="-5.36212">
        <ele>7.930103</ele>
        <time>2021-07-15T15:29:43Z</time>
      </trkpt>
      <trkpt lat="36.17435" lon="-5.36209">
        <ele>8.04719</ele>
        <time>2021-07-15T15:29:54Z</time>
      </trkpt>
      <trkpt lat="36.17437" lon="-5.36214">
        <ele>7.90481</ele>
        <time>2021-07-15T15:30:05Z</time>
      </trkpt>
      <trkpt lat="36.1742" lon="-5.36246">
        <ele>8.258277</ele>
        <time>2021-07-15T15:30:16Z</time>
      </trkpt>
      <trkpt lat="36.17381" lon="-5.36289">
        <ele>7.11977</ele>
        <time>2021-07-15T15:30:27Z</time>
      </trkpt>
      <trkpt lat="36.17352" lon="-5.36261">
        <ele>5.802046</ele>
        <time>2021-07-15T15:30:38Z</time>
      </trkpt>
      <trkpt lat="36.17341" lon="-5.36242">
        <ele>5.353387</ele>
        <time>2021-07-15T15:30:49Z</time>
      </trkpt>
      <trkpt lat="36.17287" lon="-5.36277">
        <ele>6.73006</ele>
        <time>2021-07-15T15:31:00Z</time>
      </trkpt>
      <trkpt lat="36.1723" lon="-5.36331">
        <ele>6.433736</ele>
        <time>2021-07-15T15:31:11Z</time>
      </trkpt>
      <trkpt lat="36.17308" lon="-5.36246">
        <ele>6.954383</ele>
        <time>2021-07-15T15:31:22Z</time>
      </trkpt>
      <trkpt lat="36.17394" lon="-5.3616">
        <ele>7.176965</ele>
        <time>2021-07-15T15:31:33Z</time>
      </trkpt>
      <trkpt lat="36.17422" lon="-5.36127">
        <ele>7.655356</ele>
        <time>2021-07-15T15:31:44Z</time>
      </trkpt>
      <trkpt lat="36.17475" lon="-5.36177">
        <ele>8.967225</ele>
        <time>2021-07-15T15:31:55Z</time>
      </trkpt>
      <trkpt lat="36.17546" lon="-5.36318">
        <ele>8.844913</ele>
        <time>2021-07-15T15:32:06Z</time>
      </trkpt>
      <trkpt lat="36.17622" lon="-5.36491">
        <ele>10.29719</ele>
        <time>2021-07-15T15:32:17Z</time>
      </trkpt>
      <trkpt lat="36.17696" lon="-5.36662">
        <ele>11.20582</ele>
        <time>2021-07-15T15:32:28Z</time>
      </trkpt>
      <trkpt lat="36.17762" lon="-5.36818">
        <ele>12.76672</ele>
        <time>2021-07-15T15:32:39Z</time>
      </trkpt>
      <trkpt lat="36.17793" lon="-5.36893">
        <ele>12.94171</ele>
        <time>2021-07-15T15:32:50Z</time>
      </trkpt>
      <trkpt lat="36.17748" lon="-5.3701">
        <ele>15.48263</ele>
        <time>2021-07-15T15:33:01Z</time>
      </trkpt>
      <trkpt lat="36.17804" lon="-5.37151">
        <ele>19.01549</ele>
        <time>2021-07-15T15:33:12Z</time>
      </trkpt>
      <trkpt lat="36.17882" lon="-5.37296">
        <ele>20.63316</ele>
        <time>2021-07-15T15:33:23Z</time>
      </trkpt>
      <trkpt lat="36.17978" lon="-5.37478">
        <ele>25.45418</ele>
        <time>2021-07-15T15:33:34Z</time>
      </trkpt>
      <trkpt lat="36.18069" lon="-5.37626">
        <ele>23.35542</ele>
        <time>2021-07-15T15:33:45Z</time>
      </trkpt>
      <trkpt lat="36.18153" lon="-5.3769">
        <ele>19.77096</ele>
        <time>2021-07-15T15:33:56Z</time>
      </trkpt>
      <trkpt lat="36.18154" lon="-5.37823">
        <ele>10.7347</ele>
        <time>2021-07-15T15:34:07Z</time>
      </trkpt>
      <trkpt lat="36.18214" lon="-5.37959">
        <ele>5.625294</ele>
        <time>2021-07-15T15:34:18Z</time>
      </trkpt>
      <trkpt lat="36.18275" lon="-5.38095">
        <ele>5.074272</ele>
        <time>2021-07-15T15:34:29Z</time>
      </trkpt>
      <trkpt lat="36.18439" lon="-5.382">
        <ele>6.861711</ele>
        <time>2021-07-15T15:34:40Z</time>
      </trkpt>
      <trkpt lat="36.186" lon="-5.38335">
        <ele>5.951627</ele>
        <time>2021-07-15T15:34:51Z</time>
      </trkpt>
      <trkpt lat="36.18766" lon="-5.38485">
        <ele>7.982855</ele>
        <time>2021-07-15T15:35:02Z</time>
      </trkpt>
      <trkpt lat="36.18956" lon="-5.38578">
        <ele>6.638427</ele>
        <time>2021-07-15T15:35:13Z</time>
      </trkpt>
      <trkpt lat="36.19111" lon="-5.38519">
        <ele>5.754272</ele>
        <time>2021-07-15T15:35:24Z</time>
      </trkpt>
      <trkpt lat="36.19231" lon="-5.38474">
        <ele>6.950606</ele>
        <time>2021-07-15T15:35:35Z</time>
      </trkpt>
      <trkpt lat="36.19394" lon="-5.38406">
        <ele>10.21859</ele>
        <time>2021-07-15T15:35:46Z</time>
      </trkpt>
      <trkpt lat="36.19579" lon="-5.38321">
        <ele>14.46029</ele>
        <time>2021-07-15T15:35:57Z</time>
      </trkpt>
      <trkpt lat="36.19789" lon="-5.38246">
        <ele>20.88921</ele>
        <time>2021-07-15T15:36:08Z</time>
      </trkpt>
      <trkpt lat="36.20004" lon="-5.38291">
        <ele>35.5536</ele>
        <time>2021-07-15T15:36:19Z</time>
      </trkpt>
      <trkpt lat="36.20227" lon="-5.38354">
        <ele>50.87592</ele>
        <time>2021-07-15T15:36:30Z</time>
      </trkpt>
      <trkpt lat="36.20445" lon="-5.38416">
        <ele>65.3007</ele>
        <time>2021-07-15T15:36:41Z</time>
      </trkpt>
      <trkpt lat="36.20602" lon="-5.38431">
        <ele>61.16809</ele>
        <time>2021-07-15T15:36:52Z</time>
      </trkpt>
      <trkpt lat="36.20708" lon="-5.38531">
        <ele>63.0748</ele>
        <time>2021-07-15T15:37:03Z</time>
      </trkpt>
      <trkpt lat="36.20776" lon="-5.38736">
        <ele>62.04634</ele>
        <time>2021-07-15T15:37:14Z</time>
      </trkpt>
      <trkpt lat="36.20774" lon="-5.38974">
        <ele>51.25642</ele>
        <time>2021-07-15T15:37:25Z</time>
      </trkpt>
      <trkpt lat="36.20738" lon="-5.39213">
        <ele>42.97095</ele>
        <time>2021-07-15T15:37:36Z</time>
      </trkpt>
      <trkpt lat="36.20705" lon="-5.39471">
        <ele>36.03135</ele>
        <time>2021-07-15T15:37:47Z</time>
      </trkpt>
      <trkpt lat="36.20737" lon="-5.39749">
        <ele>24.06971</ele>
        <time>2021-07-15T15:37:58Z</time>
      </trkpt>
      <trkpt lat="36.20788" lon="-5.3999">
        <ele>18.69899</ele>
        <time>2021-07-15T15:38:09Z</time>
      </trkpt>
      <trkpt lat="36.20851" lon="-5.40038">
        <ele>14.38072</ele>
        <time>2021-07-15T15:38:20Z</time>
      </trkpt>
      <trkpt lat="36.20944" lon="-5.39928">
        <ele>14.50183</ele>
        <time>2021-07-15T15:38:31Z</time>
      </trkpt>
      <trkpt lat="36.21031" lon="-5.39811">
        <ele>20.5808</ele>
        <time>2021-07-15T15:38:42Z</time>
      </trkpt>
      <trkpt lat="36.21146" lon="-5.39731">
        <ele>25.46114</ele>
        <time>2021-07-15T15:38:53Z</time>
      </trkpt>
      <trkpt lat="36.21261" lon="-5.3971">
        <ele>33.84555</ele>
        <time>2021-07-15T15:39:04Z</time>
      </trkpt>
      <trkpt lat="36.21319" lon="-5.39799">
        <ele>24.33896</ele>
        <time>2021-07-15T15:39:15Z</time>
      </trkpt>
      <trkpt lat="36.21403" lon="-5.39738">
        <ele>17.03086</ele>
        <time>2021-07-15T15:39:26Z</time>
      </trkpt>
      <trkpt lat="36.2149" lon="-5.39718">
        <ele>14.67449</ele>
        <time>2021-07-15T15:39:37Z</time>
      </trkpt>
      <trkpt lat="36.21599" lon="-5.39732">
        <ele>25.75545</ele>
        <time>2021-07-15T15:39:48Z</time>
      </trkpt>
      <trkpt lat="36.21696" lon="-5.39668">
        <ele>33.74217</ele>
        <time>2021-07-15T15:39:59Z</time>
      </trkpt>
      <trkpt lat="36.21747" lon="-5.39576">
        <ele>38.93948</ele>
        <time>2021-07-15T15:40:10Z</time>
      </trkpt>
      <trkpt lat="36.21768" lon="-5.39589">
        <ele>38.65513</ele>
        <time>2021-07-15T15:40:21Z</time>
      </trkpt>
      <trkpt lat="36.21864" lon="-5.39676">
        <ele>28.14582</ele>
        <time>2021-07-15T15:40:32Z</time>
      </trkpt>
      <trkpt lat="36.22023" lon="-5.396">
        <ele>22.74406</ele>
        <time>2021-07-15T15:40:43Z</time>
      </trkpt>
      <trkpt lat="36.2219" lon="-5.3951">
        <ele>24.96856</ele>
        <time>2021-07-15T15:40:54Z</time>
      </trkpt>
      <trkpt lat="36.22357" lon="-5.39526">
        <ele>24.80125</ele>
        <time>2021-07-15T15:41:05Z</time>
      </trkpt>
      <trkpt lat="36.2252" lon="-5.3966">
        <ele>24.75996</ele>
        <time>2021-07-15T15:41:16Z</time>
      </trkpt>
      <trkpt lat="36.22691" lon="-5.39756">
        <ele>28.49728</ele>
        <time>2021-07-15T15:41:27Z</time>
      </trkpt>
      <trkpt lat="36.22861" lon="-5.3977">
        <ele>32.42626</ele>
        <time>2021-07-15T15:41:38Z</time>
      </trkpt>
      <trkpt lat="36.23029" lon="-5.39802">
        <ele>33.54301</ele>
        <time>2021-07-15T15:41:49Z</time>
      </trkpt>
      <trkpt lat="36.23172" lon="-5.39877">
        <ele>33.10755</ele>
        <time>2021-07-15T15:42:00Z</time>
      </trkpt>
      <trkpt lat="36.23213" lon="-5.39988">
        <ele>29.70463</ele>
        <time>2021-07-15T15:42:11Z</time>
      </trkpt>
      <trkpt lat="36.23312" lon="-5.39912">
        <ele>28.34358</ele>
        <time>2021-07-15T15:42:22Z</time>
      </trkpt>
      <trkpt lat="36.23463" lon="-5.3999">
        <ele>44.19686</ele>
        <time>2021-07-15T15:42:33Z</time>
      </trkpt>
      <trkpt lat="36.23621" lon="-5.40077">
        <ele>50.07461</ele>
        <time>2021-07-15T15:42:44Z</time>
      </trkpt>
      <trkpt lat="36.23672" lon="-5.4024">
        <ele>52.5527</ele>
        <time>2021-07-15T15:42:55Z</time>
      </trkpt>
      <trkpt lat="36.23796" lon="-5.40427">
        <ele>53.07572</ele>
        <time>2021-07-15T15:43:06Z</time>
      </trkpt>
      <trkpt lat="36.23915" lon="-5.40624">
        <ele>53.88269</ele>
        <time>2021-07-15T15:43:17Z</time>
      </trkpt>
      <trkpt lat="36.24015" lon="-5.40884">
        <ele>57.59824</ele>
        <time>2021-07-15T15:43:28Z</time>
      </trkpt>
      <trkpt lat="36.24089" lon="-5.41087">
        <ele>60.67164</ele>
        <time>2021-07-15T15:43:39Z</time>
      </trkpt>
      <trkpt lat="36.24009" lon="-5.41232">
        <ele>58.24403</ele>
        <time>2021-07-15T15:43:50Z</time>
      </trkpt>
      <trkpt lat="36.23928" lon="-5.41369">
        <ele>57.31884</ele>
        <time>2021-07-15T15:44:01Z</time>
      </trkpt>
      <trkpt lat="36.23992" lon="-5.41482">
        <ele>59.86524</ele>
        <time>2021-07-15T15:44:12Z</time>
      </trkpt>
      <trkpt lat="36.2416" lon="-5.41537">
        <ele>60.92592</ele>
        <time>2021-07-15T15:44:23Z</time>
      </trkpt>
      <trkpt lat="36.24334" lon="-5.41589">
        <ele>60.36647</ele>
        <time>2021-07-15T15:44:34Z</time>
      </trkpt>
      <trkpt lat="36.24468" lon="-5.41554">
        <ele>68.62143</ele>
        <time>2021-07-15T15:44:45Z</time>
      </trkpt>
      <trkpt lat="36.24569" lon="-5.41462">
        <ele>79.17968</ele>
        <time>2021-07-15T15:44:56Z</time>
      </trkpt>
      <trkpt lat="36.24618" lon="-5.41433">
        <ele>77.18594</ele>
        <time>2021-07-15T15:45:07Z</time>
      </trkpt>
      <trkpt lat="36.24602" lon="-5.41435">
        <ele>81.03947</ele>
        <time>2021-07-15T15:45:18Z</time>
      </trkpt>
      <trkpt lat="36.24626" lon="-5.41433">
        <ele>79.60514</ele>
        <time>2021-07-15T15:45:29Z</time>
      </trkpt>
      <trkpt lat="36.24668" lon="-5.41427">
        <ele>77.94351</ele>
        <time>2021-07-15T15:45:40Z</time>
      </trkpt>
      <trkpt lat="36.24733" lon="-5.41492">
        <ele>77.98889</ele>
        <time>2021-07-15T15:45:51Z</time>
      </trkpt>
      <trkpt lat="36.24788" lon="-5.41509">
        <ele>79.72557</ele>
        <time>2021-07-15T15:46:02Z</time>
      </trkpt>
      <trkpt lat="36.24842" lon="-5.41523">
        <ele>81.01103</ele>
        <time>2021-07-15T15:46:13Z</time>
      </trkpt>
      <trkpt lat="36.2488" lon="-5.41482">
        <ele>85.15126</ele>
        <time>2021-07-15T15:46:24Z</time>
      </trkpt>
      <trkpt lat="36.24901" lon="-5.41384">
        <ele>85.1827</ele>
        <time>2021-07-15T15:46:35Z</time>
      </trkpt>
      <trkpt lat="36.24927" lon="-5.41309">
        <ele>83.06563</ele>
        <time>2021-07-15T15:46:46Z</time>
      </trkpt>
      <trkpt lat="36.24954" lon="-5.4125">
        <ele>84.27841</ele>
        <time>2021-07-15T15:46:57Z</time>
      </trkpt>
      <trkpt lat="36.24976" lon="-5.41187">
        <ele>89.08585</ele>
        <time>2021-07-15T15:47:08Z</time>
      </trkpt>
      <trkpt lat="36.24993" lon="-5.41156">
        <ele>89.03226</ele>
        <time>2021-07-15T15:47:19Z</time>
      </trkpt>
      <trkpt lat="36.24996" lon="-5.41151">
        <ele>85.49806</ele>
        <time>2021-07-15T15:47:35Z</time>
      </trkpt>
      <trkpt lat="36.24999" lon="-5.41147">
        <ele>89.46424</ele>
        <time>2021-07-15T15:47:46Z</time>
      </trkpt>
      <trkpt lat="36.24999" lon="-5.41143">
        <ele>94.81597</ele>
        <time>2021-07-15T15:48:02Z</time>
      </trkpt>
      <trkpt lat="36.25002" lon="-5.41151">
        <ele>89.41859</ele>
        <time>2021-07-15T15:48:13Z</time>
      </trkpt>
      <trkpt lat="36.24996" lon="-5.41171">
        <ele>83.8808</ele>
        <time>2021-07-15T15:48:24Z</time>
      </trkpt>
      <trkpt lat="36.25014" lon="-5.41229">
        <ele>79.72917</ele>
        <time>2021-07-15T15:48:35Z</time>
      </trkpt>
      <trkpt lat="36.25041" lon="-5.41258">
        <ele>78.90206</ele>
        <time>2021-07-15T15:48:46Z</time>
      </trkpt>
      <trkpt lat="36.2507" lon="-5.4129">
        <ele>77.67831</ele>
        <time>2021-07-15T15:48:57Z</time>
      </trkpt>
      <trkpt lat="36.25116" lon="-5.41329">
        <ele>76.84458</ele>
        <time>2021-07-15T15:49:08Z</time>
      </trkpt>
      <trkpt lat="36.25128" lon="-5.41408">
        <ele>77.15815</ele>
        <time>2021-07-15T15:49:19Z</time>
      </trkpt>
      <trkpt lat="36.25145" lon="-5.41529">
        <ele>78.14286</ele>
        <time>2021-07-15T15:49:30Z</time>
      </trkpt>
      <trkpt lat="36.25165" lon="-5.41614">
        <ele>76.7654</ele>
        <time>2021-07-15T15:49:41Z</time>
      </trkpt>
      <trkpt lat="36.25194" lon="-5.41687">
        <ele>75.59385</ele>
        <time>2021-07-15T15:49:52Z</time>
      </trkpt>
      <trkpt lat="36.25193" lon="-5.41767">
        <ele>74.5199</ele>
        <time>2021-07-15T15:50:03Z</time>
      </trkpt>
      <trkpt lat="36.25202" lon="-5.41835">
        <ele>68.1854</ele>
        <time>2021-07-15T15:50:14Z</time>
      </trkpt>
      <trkpt lat="36.25207" lon="-5.41893">
        <ele>68.41851</ele>
        <time>2021-07-15T15:50:25Z</time>
      </trkpt>
      <trkpt lat="36.25217" lon="-5.41948">
        <ele>65.18728</ele>
        <time>2021-07-15T15:50:36Z</time>
      </trkpt>
      <trkpt lat="36.25233" lon="-5.41993">
        <ele>66.43771</ele>
        <time>2021-07-15T15:50:47Z</time>
      </trkpt>
      <trkpt lat="36.25246" lon="-5.42008">
        <ele>66.52859</ele>
        <time>2021-07-15T15:50:58Z</time>
      </trkpt>
      <trkpt lat="36.25251" lon="-5.42013">
        <ele>63.53248</ele>
        <time>2021-07-15T15:51:12Z</time>
      </trkpt>
      <trkpt lat="36.25266" lon="-5.42042">
        <ele>63.41884</ele>
        <time>2021-07-15T15:51:23Z</time>
      </trkpt>
      <trkpt lat="36.25287" lon="-5.4209">
        <ele>66.355</ele>
        <time>2021-07-15T15:51:34Z</time>
      </trkpt>
      <trkpt lat="36.25303" lon="-5.42158">
        <ele>69.11886</ele>
        <time>2021-07-15T15:51:45Z</time>
      </trkpt>
      <trkpt lat="36.25281" lon="-5.42191">
        <ele>65.96574</ele>
        <time>2021-07-15T15:51:56Z</time>
      </trkpt>
      <trkpt lat="36.2526" lon="-5.42213">
        <ele>60.54014</ele>
        <time>2021-07-15T15:52:07Z</time>
      </trkpt>
      <trkpt lat="36.25233" lon="-5.4223">
        <ele>53.48292</ele>
        <time>2021-07-15T15:52:18Z</time>
      </trkpt>
      <trkpt lat="36.25206" lon="-5.42249">
        <ele>51.04888</ele>
        <time>2021-07-15T15:52:29Z</time>
      </trkpt>
      <trkpt lat="36.25186" lon="-5.42293">
        <ele>48.23857</ele>
        <time>2021-07-15T15:52:40Z</time>
      </trkpt>
      <trkpt lat="36.25201" lon="-5.42339">
        <ele>44.82308</ele>
        <time>2021-07-15T15:52:51Z</time>
      </trkpt>
      <trkpt lat="36.25209" lon="-5.42355">
        <ele>48.00155</ele>
        <time>2021-07-15T15:53:02Z</time>
      </trkpt>
      <trkpt lat="36.25209" lon="-5.42359">
        <ele>51.10057</ele>
        <time>2021-07-15T15:53:24Z</time>
      </trkpt>
      <trkpt lat="36.25226" lon="-5.42366">
        <ele>53.07729</ele>
        <time>2021-07-15T15:53:35Z</time>
      </trkpt>
      <trkpt lat="36.25227" lon="-5.4236">
        <ele>49.13898</ele>
        <time>2021-07-15T15:54:13Z</time>
      </trkpt>
      <trkpt lat="36.25282" lon="-5.4228">
        <ele>53.35393</ele>
        <time>2021-07-15T15:54:24Z</time>
      </trkpt>
      <trkpt lat="36.25373" lon="-5.42215">
        <ele>51.6155</ele>
        <time>2021-07-15T15:54:35Z</time>
      </trkpt>
      <trkpt lat="36.25361" lon="-5.42121">
        <ele>51.17609</ele>
        <time>2021-07-15T15:54:46Z</time>
      </trkpt>
      <trkpt lat="36.25343" lon="-5.42048">
        <ele>52.57814</ele>
        <time>2021-07-15T15:54:57Z</time>
      </trkpt>
      <trkpt lat="36.25358" lon="-5.41978">
        <ele>51.47277</ele>
        <time>2021-07-15T15:55:08Z</time>
      </trkpt>
      <trkpt lat="36.25411" lon="-5.4194">
        <ele>50.73587</ele>
        <time>2021-07-15T15:55:19Z</time>
      </trkpt>
      <trkpt lat="36.25519" lon="-5.42003">
        <ele>50.58706</ele>
        <time>2021-07-15T15:55:30Z</time>
      </trkpt>
      <trkpt lat="36.25594" lon="-5.41945">
        <ele>50.551</ele>
        <time>2021-07-15T15:55:41Z</time>
      </trkpt>
      <trkpt lat="36.25594" lon="-5.41737">
        <ele>50.84183</ele>
        <time>2021-07-15T15:55:52Z</time>
      </trkpt>
      <trkpt lat="36.25629" lon="-5.41545">
        <ele>50.4773</ele>
        <time>2021-07-15T15:56:03Z</time>
      </trkpt>
      <trkpt lat="36.25722" lon="-5.41461">
        <ele>53.80983</ele>
        <time>2021-07-15T15:56:14Z</time>
      </trkpt>
      <trkpt lat="36.25836" lon="-5.41499">
        <ele>52.7199</ele>
        <time>2021-07-15T15:56:25Z</time>
      </trkpt>
      <trkpt lat="36.2596" lon="-5.41412">
        <ele>54.66804</ele>
        <time>2021-07-15T15:56:36Z</time>
      </trkpt>
      <trkpt lat="36.26078" lon="-5.4135">
        <ele>52.59723</ele>
        <time>2021-07-15T15:56:47Z</time>
      </trkpt>
      <trkpt lat="36.26218" lon="-5.41396">
        <ele>51.73434</ele>
        <time>2021-07-15T15:56:58Z</time>
      </trkpt>
      <trkpt lat="36.26276" lon="-5.41266">
        <ele>51.33762</ele>
        <time>2021-07-15T15:57:09Z</time>
      </trkpt>
      <trkpt lat="36.26261" lon="-5.4108">
        <ele>49.59029</ele>
        <time>2021-07-15T15:57:20Z</time>
      </trkpt>
      <trkpt lat="36.26345" lon="-5.40958">
        <ele>50.4091</ele>
        <time>2021-07-15T15:57:31Z</time>
      </trkpt>
      <trkpt lat="36.26437" lon="-5.40883">
        <ele>52.02134</ele>
        <time>2021-07-15T15:57:42Z</time>
      </trkpt>
      <trkpt lat="36.26487" lon="-5.40875">
        <ele>55.66426</ele>
        <time>2021-07-15T15:57:53Z</time>
      </trkpt>
      <trkpt lat="36.26519" lon="-5.40818">
        <ele>55.28321</ele>
        <time>2021-07-15T15:58:04Z</time>
      </trkpt>
      <trkpt lat="36.26566" lon="-5.40814">
        <ele>53.47171</ele>
        <time>2021-07-15T15:58:15Z</time>
      </trkpt>
      <trkpt lat="36.26608" lon="-5.4082">
        <ele>56.05482</ele>
        <time>2021-07-15T15:58:26Z</time>
      </trkpt>
      <trkpt lat="36.26648" lon="-5.40813">
        <ele>59.7193</ele>
        <time>2021-07-15T15:58:37Z</time>
      </trkpt>
      <trkpt lat="36.26685" lon="-5.40789">
        <ele>63.55956</ele>
        <time>2021-07-15T15:58:48Z</time>
      </trkpt>
      <trkpt lat="36.26692" lon="-5.40773">
        <ele>67.78342</ele>
        <time>2021-07-15T15:58:59Z</time>
      </trkpt>
      <trkpt lat="36.26693" lon="-5.40768">
        <ele>69.05108</ele>
        <time>2021-07-15T15:59:14Z</time>
      </trkpt>
      <trkpt lat="36.26693" lon="-5.40763">
        <ele>69.35189</ele>
        <time>2021-07-15T15:59:25Z</time>
      </trkpt>
      <trkpt lat="36.26688" lon="-5.40762">
        <ele>71.70538</ele>
        <time>2021-07-15T15:59:36Z</time>
      </trkpt>
      <trkpt lat="36.26691" lon="-5.40766">
        <ele>69.27603</ele>
        <time>2021-07-15T15:59:48Z</time>
      </trkpt>
      <trkpt lat="36.26687" lon="-5.40761">
        <ele>70.34384</ele>
        <time>2021-07-15T16:00:29Z</time>
      </trkpt>
      <trkpt lat="36.26641" lon="-5.40752">
        <ele>75.77261</ele>
        <time>2021-07-15T16:00:40Z</time>
      </trkpt>
      <trkpt lat="36.26606" lon="-5.40735">
        <ele>78.02385</ele>
        <time>2021-07-15T16:00:51Z</time>
      </trkpt>
      <trkpt lat="36.26627" lon="-5.40707">
        <ele>81.95322</ele>
        <time>2021-07-15T16:01:02Z</time>
      </trkpt>
      <trkpt lat="36.26656" lon="-5.40672">
        <ele>82.02867</ele>
        <time>2021-07-15T16:01:13Z</time>
      </trkpt>
      <trkpt lat="36.2668" lon="-5.40642">
        <ele>86.92616</ele>
        <time>2021-07-15T16:01:24Z</time>
      </trkpt>
      <trkpt lat="36.26716" lon="-5.40593">
        <ele>92.50451</ele>
        <time>2021-07-15T16:01:35Z</time>
      </trkpt>
      <trkpt lat="36.26742" lon="-5.40552">
        <ele>95.99021</ele>
        <time>2021-07-15T16:01:46Z</time>
      </trkpt>
      <trkpt lat="36.26775" lon="-5.40513">
        <ele>99.68215</ele>
        <time>2021-07-15T16:01:57Z</time>
      </trkpt>
      <trkpt lat="36.26816" lon="-5.40494">
        <ele>107.5915</ele>
        <time>2021-07-15T16:02:08Z</time>
      </trkpt>
      <trkpt lat="36.26875" lon="-5.40492">
        <ele>111.7868</ele>
        <time>2021-07-15T16:02:19Z</time>
      </trkpt>
      <trkpt lat="36.26927" lon="-5.40495">
        <ele>117.9002</ele>
        <time>2021-07-15T16:02:30Z</time>
      </trkpt>
      <trkpt lat="36.26981" lon="-5.40475">
        <ele>116.7228</ele>
        <time>2021-07-15T16:02:41Z</time>
      </trkpt>
      <trkpt lat="36.26987" lon="-5.40452">
        <ele>125.377</ele>
        <time>2021-07-15T16:02:52Z</time>
      </trkpt>
      <trkpt lat="36.27033" lon="-5.40409">
        <ele>133.0339</ele>
        <time>2021-07-15T16:03:03Z</time>
      </trkpt>
      <trkpt lat="36.2705" lon="-5.40401">
        <ele>130.3011</ele>
        <time>2021-07-15T16:03:14Z</time>
      </trkpt>
      <trkpt lat="36.27058" lon="-5.40409">
        <ele>131.8462</ele>
        <time>2021-07-15T16:03:25Z</time>
      </trkpt>
      <trkpt lat="36.27092" lon="-5.40419">
        <ele>127.2441</ele>
        <time>2021-07-15T16:03:36Z</time>
      </trkpt>
      <trkpt lat="36.27124" lon="-5.40459">
        <ele>129.828</ele>
        <time>2021-07-15T16:03:47Z</time>
      </trkpt>
      <trkpt lat="36.27145" lon="-5.40478">
        <ele>122.0768</ele>
        <time>2021-07-15T16:03:58Z</time>
      </trkpt>
      <trkpt lat="36.27156" lon="-5.4049">
        <ele>118.1243</ele>
        <time>2021-07-15T16:04:09Z</time>
      </trkpt>
      <trkpt lat="36.27171" lon="-5.40513">
        <ele>116.4691</ele>
        <time>2021-07-15T16:04:20Z</time>
      </trkpt>
      <trkpt lat="36.27188" lon="-5.40542">
        <ele>113.7922</ele>
        <time>2021-07-15T16:04:31Z</time>
      </trkpt>
      <trkpt lat="36.27213" lon="-5.40587">
        <ele>113.8009</ele>
        <time>2021-07-15T16:04:42Z</time>
      </trkpt>
      <trkpt lat="36.27218" lon="-5.40601">
        <ele>110.9792</ele>
        <time>2021-07-15T16:04:53Z</time>
      </trkpt>
      <trkpt lat="36.2723" lon="-5.40618">
        <ele>105.9524</ele>
        <time>2021-07-15T16:05:04Z</time>
      </trkpt>
      <trkpt lat="36.27237" lon="-5.40643">
        <ele>102.927</ele>
        <time>2021-07-15T16:05:15Z</time>
      </trkpt>
      <trkpt lat="36.27248" lon="-5.40666">
        <ele>100.2636</ele>
        <time>2021-07-15T16:05:26Z</time>
      </trkpt>
      <trkpt lat="36.2728" lon="-5.4067">
        <ele>91.30782</ele>
        <time>2021-07-15T16:05:37Z</time>
      </trkpt>
      <trkpt lat="36.27286" lon="-5.40672">
        <ele>92.89923</ele>
        <time>2021-07-15T16:05:48Z</time>
      </trkpt>
      <trkpt lat="36.27287" lon="-5.4067">
        <ele>94.59118</ele>
        <time>2021-07-15T16:06:48Z</time>
      </trkpt>
      <trkpt lat="36.27286" lon="-5.40671">
        <ele>92.19659</ele>
        <time>2021-07-15T16:07:48Z</time>
      </trkpt>
      <trkpt lat="36.2729" lon="-5.40672">
        <ele>91.7687</ele>
        <time>2021-07-15T16:08:37Z</time>
      </trkpt>
      <trkpt lat="36.27302" lon="-5.40681">
        <ele>88.68323</ele>
        <time>2021-07-15T16:08:48Z</time>
      </trkpt>
      <trkpt lat="36.27309" lon="-5.40694">
        <ele>86.94243</ele>
        <time>2021-07-15T16:08:59Z</time>
      </trkpt>
      <trkpt lat="36.27316" lon="-5.40706">
        <ele>85.36058</ele>
        <time>2021-07-15T16:09:10Z</time>
      </trkpt>
      <trkpt lat="36.27318" lon="-5.40711">
        <ele>84.63867</ele>
        <time>2021-07-15T16:09:24Z</time>
      </trkpt>
      <trkpt lat="36.27321" lon="-5.40717">
        <ele>83.8131</ele>
        <time>2021-07-15T16:09:35Z</time>
      </trkpt>
      <trkpt lat="36.27323" lon="-5.40721">
        <ele>83.15228</ele>
        <time>2021-07-15T16:09:48Z</time>
      </trkpt>
      <trkpt lat="36.27328" lon="-5.4073">
        <ele>81.29365</ele>
        <time>2021-07-15T16:09:59Z</time>
      </trkpt>
      <trkpt lat="36.27335" lon="-5.40735">
        <ele>80.84417</ele>
        <time>2021-07-15T16:10:10Z</time>
      </trkpt>
      <trkpt lat="36.27339" lon="-5.40734">
        <ele>78.48633</ele>
        <time>2021-07-15T16:10:32Z</time>
      </trkpt>
      <trkpt lat="36.27355" lon="-5.40725">
        <ele>79.10175</ele>
        <time>2021-07-15T16:10:43Z</time>
      </trkpt>
      <trkpt lat="36.27359" lon="-5.40724">
        <ele>80.44175</ele>
        <time>2021-07-15T16:11:28Z</time>
      </trkpt>
      <trkpt lat="36.27364" lon="-5.40726">
        <ele>79.05459</ele>
        <time>2021-07-15T16:11:48Z</time>
      </trkpt>
      <trkpt lat="36.27366" lon="-5.40733">
        <ele>78.56648</ele>
        <time>2021-07-15T16:11:59Z</time>
      </trkpt>
      <trkpt lat="36.27363" lon="-5.40729">
        <ele>78.69295</ele>
        <time>2021-07-15T16:12:10Z</time>
      </trkpt>
      <trkpt lat="36.27346" lon="-5.40683">
        <ele>82.27722</ele>
        <time>2021-07-15T16:12:21Z</time>
      </trkpt>
      <trkpt lat="36.27342" lon="-5.4067">
        <ele>85.42996</ele>
        <time>2021-07-15T16:12:32Z</time>
      </trkpt>
      <trkpt lat="36.27346" lon="-5.40676">
        <ele>83.68435</ele>
        <time>2021-07-15T16:12:51Z</time>
      </trkpt>
      <trkpt lat="36.27353" lon="-5.40702">
        <ele>81.53232</ele>
        <time>2021-07-15T16:13:02Z</time>
      </trkpt>
      <trkpt lat="36.27359" lon="-5.4072">
        <ele>78.20119</ele>
        <time>2021-07-15T16:13:13Z</time>
      </trkpt>
      <trkpt lat="36.27345" lon="-5.40732">
        <ele>78.96358</ele>
        <time>2021-07-15T16:13:24Z</time>
      </trkpt>
      <trkpt lat="36.27343" lon="-5.40743">
        <ele>78.21319</ele>
        <time>2021-07-15T16:13:35Z</time>
      </trkpt>
      <trkpt lat="36.27342" lon="-5.40751">
        <ele>78.99403</ele>
        <time>2021-07-15T16:13:46Z</time>
      </trkpt>
      <trkpt lat="36.27338" lon="-5.40769">
        <ele>79.40602</ele>
        <time>2021-07-15T16:13:57Z</time>
      </trkpt>
      <trkpt lat="36.27338" lon="-5.40792">
        <ele>76.4666</ele>
        <time>2021-07-15T16:14:08Z</time>
      </trkpt>
      <trkpt lat="36.27339" lon="-5.40793">
        <ele>77.42673</ele>
        <time>2021-07-15T16:15:07Z</time>
      </trkpt>
      <trkpt lat="36.27337" lon="-5.40792">
        <ele>79.29167</ele>
        <time>2021-07-15T16:16:07Z</time>
      </trkpt>
      <trkpt lat="36.27337" lon="-5.40792">
        <ele>79.29167</ele>
        <time>2021-07-15T16:17:07Z</time>
      </trkpt>
      <trkpt lat="36.2734" lon="-5.40798">
        <ele>78.91379</ele>
        <time>2021-07-15T16:17:35Z</time>
      </trkpt>
      <trkpt lat="36.27355" lon="-5.40808">
        <ele>78.87931</ele>
        <time>2021-07-15T16:17:46Z</time>
      </trkpt>
      <trkpt lat="36.27363" lon="-5.40824">
        <ele>77.521</ele>
        <time>2021-07-15T16:17:57Z</time>
      </trkpt>
      <trkpt lat="36.2737" lon="-5.40851">
        <ele>74.03614</ele>
        <time>2021-07-15T16:18:08Z</time>
      </trkpt>
      <trkpt lat="36.27393" lon="-5.40914">
        <ele>72.60755</ele>
        <time>2021-07-15T16:18:19Z</time>
      </trkpt>
      <trkpt lat="36.27367" lon="-5.40887">
        <ele>75.36798</ele>
        <time>2021-07-15T16:18:30Z</time>
      </trkpt>
      <trkpt lat="36.27367" lon="-5.40901">
        <ele>75.70075</ele>
        <time>2021-07-15T16:18:41Z</time>
      </trkpt>
      <trkpt lat="36.27366" lon="-5.40908">
        <ele>71.69822</ele>
        <time>2021-07-15T16:19:17Z</time>
      </trkpt>
      <trkpt lat="36.27372" lon="-5.40925">
        <ele>72.06028</ele>
        <time>2021-07-15T16:19:28Z</time>
      </trkpt>
      <trkpt lat="36.27374" lon="-5.40951">
        <ele>72.94552</ele>
        <time>2021-07-15T16:19:39Z</time>
      </trkpt>
      <trkpt lat="36.27382" lon="-5.40977">
        <ele>71.57084</ele>
        <time>2021-07-15T16:19:50Z</time>
      </trkpt>
      <trkpt lat="36.27384" lon="-5.41002">
        <ele>71.55025</ele>
        <time>2021-07-15T16:20:01Z</time>
      </trkpt>
      <trkpt lat="36.27382" lon="-5.41036">
        <ele>70.65413</ele>
        <time>2021-07-15T16:20:12Z</time>
      </trkpt>
      <trkpt lat="36.27381" lon="-5.41071">
        <ele>69.7696</ele>
        <time>2021-07-15T16:20:23Z</time>
      </trkpt>
      <trkpt lat="36.27398" lon="-5.41099">
        <ele>67.91438</ele>
        <time>2021-07-15T16:20:34Z</time>
      </trkpt>
      <trkpt lat="36.27423" lon="-5.41133">
        <ele>65.97042</ele>
        <time>2021-07-15T16:20:45Z</time>
      </trkpt>
      <trkpt lat="36.27431" lon="-5.41145">
        <ele>65.77391</ele>
        <time>2021-07-15T16:20:56Z</time>
      </trkpt>
      <trkpt lat="36.27433" lon="-5.41143">
        <ele>68.02814</ele>
        <time>2021-07-15T16:21:56Z</time>
      </trkpt>
      <trkpt lat="36.27432" lon="-5.41145">
        <ele>65.33454</ele>
        <time>2021-07-15T16:22:56Z</time>
      </trkpt>
      <trkpt lat="36.27433" lon="-5.41146">
        <ele>66.2775</ele>
        <time>2021-07-15T16:23:56Z</time>
      </trkpt>
      <trkpt lat="36.27433" lon="-5.41147">
        <ele>67.02806</ele>
        <time>2021-07-15T16:24:56Z</time>
      </trkpt>
      <trkpt lat="36.27433" lon="-5.41147">
        <ele>67.02806</ele>
        <time>2021-07-15T16:25:56Z</time>
      </trkpt>
      <trkpt lat="36.27433" lon="-5.41147">
        <ele>67.02806</ele>
        <time>2021-07-15T16:26:56Z</time>
      </trkpt>
      <trkpt lat="36.27433" lon="-5.41147">
        <ele>67.02806</ele>
        <time>2021-07-15T16:27:56Z</time>
      </trkpt>
      <trkpt lat="36.27433" lon="-5.41147">
        <ele>67.02806</ele>
        <time>2021-07-15T16:28:56Z</time>
      </trkpt>
      <trkpt lat="36.27433" lon="-5.41144">
        <ele>67.37786</ele>
        <time>2021-07-15T16:29:56Z</time>
      </trkpt>
      <trkpt lat="36.27433" lon="-5.41143">
        <ele>66.99911</ele>
        <time>2021-07-15T16:30:56Z</time>
      </trkpt>
      <trkpt lat="36.27437" lon="-5.41147">
        <ele>66.9489</ele>
        <time>2021-07-15T16:31:22Z</time>
      </trkpt>
      <trkpt lat="36.27457" lon="-5.4117">
        <ele>65.16273</ele>
        <time>2021-07-15T16:31:33Z</time>
      </trkpt>
      <trkpt lat="36.27471" lon="-5.41214">
        <ele>61.41071</ele>
        <time>2021-07-15T16:31:44Z</time>
      </trkpt>
      <trkpt lat="36.27481" lon="-5.4125">
        <ele>58.39422</ele>
        <time>2021-07-15T16:31:55Z</time>
      </trkpt>
      <trkpt lat="36.27495" lon="-5.41297">
        <ele>58.27901</ele>
        <time>2021-07-15T16:32:06Z</time>
      </trkpt>
      <trkpt lat="36.27511" lon="-5.41337">
        <ele>59.2134</ele>
        <time>2021-07-15T16:32:17Z</time>
      </trkpt>
      <trkpt lat="36.2753" lon="-5.41375">
        <ele>56.62186</ele>
        <time>2021-07-15T16:32:28Z</time>
      </trkpt>
      <trkpt lat="36.27546" lon="-5.41396">
        <ele>55.59216</ele>
        <time>2021-07-15T16:32:39Z</time>
      </trkpt>
      <trkpt lat="36.27599" lon="-5.41382">
        <ele>55.92477</ele>
        <time>2021-07-15T16:32:50Z</time>
      </trkpt>
      <trkpt lat="36.27648" lon="-5.41473">
        <ele>57.66711</ele>
        <time>2021-07-15T16:33:01Z</time>
      </trkpt>
      <trkpt lat="36.27697" lon="-5.41608">
        <ele>57.5268</ele>
        <time>2021-07-15T16:33:12Z</time>
      </trkpt>
      <trkpt lat="36.27784" lon="-5.41665">
        <ele>55.59043</ele>
        <time>2021-07-15T16:33:23Z</time>
      </trkpt>
      <trkpt lat="36.2787" lon="-5.4157">
        <ele>55.56478</ele>
        <time>2021-07-15T16:33:34Z</time>
      </trkpt>
      <trkpt lat="36.27962" lon="-5.41582">
        <ele>54.97568</ele>
        <time>2021-07-15T16:33:45Z</time>
      </trkpt>
      <trkpt lat="36.27992" lon="-5.41648">
        <ele>55.42544</ele>
        <time>2021-07-15T16:33:56Z</time>
      </trkpt>
      <trkpt lat="36.28122" lon="-5.41602">
        <ele>54.46578</ele>
        <time>2021-07-15T16:34:07Z</time>
      </trkpt>
      <trkpt lat="36.28182" lon="-5.41494">
        <ele>55.00392</ele>
        <time>2021-07-15T16:34:18Z</time>
      </trkpt>
      <trkpt lat="36.28126" lon="-5.41388">
        <ele>53.37903</ele>
        <time>2021-07-15T16:34:29Z</time>
      </trkpt>
      <trkpt lat="36.28086" lon="-5.41224">
        <ele>54.64262</ele>
        <time>2021-07-15T16:34:40Z</time>
      </trkpt>
      <trkpt lat="36.28114" lon="-5.41077">
        <ele>55.25097</ele>
        <time>2021-07-15T16:34:51Z</time>
      </trkpt>
      <trkpt lat="36.28227" lon="-5.40917">
        <ele>57.47408</ele>
        <time>2021-07-15T16:35:02Z</time>
      </trkpt>
      <trkpt lat="36.28243" lon="-5.40816">
        <ele>56.55842</ele>
        <time>2021-07-15T16:35:13Z</time>
      </trkpt>
      <trkpt lat="36.28252" lon="-5.40742">
        <ele>54.34873</ele>
        <time>2021-07-15T16:35:24Z</time>
      </trkpt>
      <trkpt lat="36.28367" lon="-5.40766">
        <ele>53.07501</ele>
        <time>2021-07-15T16:35:35Z</time>
      </trkpt>
      <trkpt lat="36.28453" lon="-5.40668">
        <ele>52.05316</ele>
        <time>2021-07-15T16:35:46Z</time>
      </trkpt>
      <trkpt lat="36.28535" lon="-5.4068">
        <ele>50.59857</ele>
        <time>2021-07-15T16:35:57Z</time>
      </trkpt>
      <trkpt lat="36.28591" lon="-5.40822">
        <ele>49.62978</ele>
        <time>2021-07-15T16:36:08Z</time>
      </trkpt>
      <trkpt lat="36.28757" lon="-5.40786">
        <ele>53.61514</ele>
        <time>2021-07-15T16:36:19Z</time>
      </trkpt>
      <trkpt lat="36.289" lon="-5.4072">
        <ele>51.97465</ele>
        <time>2021-07-15T16:36:30Z</time>
      </trkpt>
      <trkpt lat="36.28948" lon="-5.40742">
        <ele>53.64603</ele>
        <time>2021-07-15T16:36:41Z</time>
      </trkpt>
      <trkpt lat="36.28945" lon="-5.40745">
        <ele>54.33302</ele>
        <time>2021-07-15T16:36:56Z</time>
      </trkpt>
      <trkpt lat="36.2887" lon="-5.40731">
        <ele>53.50713</ele>
        <time>2021-07-15T16:37:07Z</time>
      </trkpt>
      <trkpt lat="36.2869" lon="-5.40812">
        <ele>55.29187</ele>
        <time>2021-07-15T16:37:18Z</time>
      </trkpt>
      <trkpt lat="36.28573" lon="-5.40817">
        <ele>52.19308</ele>
        <time>2021-07-15T16:37:29Z</time>
      </trkpt>
      <trkpt lat="36.28532" lon="-5.40679">
        <ele>54.73388</ele>
        <time>2021-07-15T16:37:40Z</time>
      </trkpt>
      <trkpt lat="36.28537" lon="-5.40646">
        <ele>53.38861</ele>
        <time>2021-07-15T16:37:51Z</time>
      </trkpt>
      <trkpt lat="36.2854" lon="-5.40648">
        <ele>52.73932</ele>
        <time>2021-07-15T16:38:02Z</time>
      </trkpt>
      <trkpt lat="36.28548" lon="-5.40746">
        <ele>54.75755</ele>
        <time>2021-07-15T16:38:13Z</time>
      </trkpt>
      <trkpt lat="36.28601" lon="-5.40826">
        <ele>54.64172</ele>
        <time>2021-07-15T16:38:24Z</time>
      </trkpt>
      <trkpt lat="36.2868" lon="-5.40811">
        <ele>52.12265</ele>
        <time>2021-07-15T16:38:35Z</time>
      </trkpt>
      <trkpt lat="36.28764" lon="-5.4078">
        <ele>55.3843</ele>
        <time>2021-07-15T16:38:46Z</time>
      </trkpt>
      <trkpt lat="36.28855" lon="-5.40734">
        <ele>57.43887</ele>
        <time>2021-07-15T16:38:57Z</time>
      </trkpt>
      <trkpt lat="36.28895" lon="-5.40718">
        <ele>59.03249</ele>
        <time>2021-07-15T16:39:08Z</time>
      </trkpt>
      <trkpt lat="36.289" lon="-5.40717">
        <ele>61.00532</ele>
        <time>2021-07-15T16:39:19Z</time>
      </trkpt>
      <trkpt lat="36.28904" lon="-5.40717">
        <ele>61.63812</ele>
        <time>2021-07-15T16:39:35Z</time>
      </trkpt>
      <trkpt lat="36.289" lon="-5.40717">
        <ele>57.92632</ele>
        <time>2021-07-15T16:40:01Z</time>
      </trkpt>
      <trkpt lat="36.28926" lon="-5.40722">
        <ele>58.10645</ele>
        <time>2021-07-15T16:40:12Z</time>
      </trkpt>
      <trkpt lat="36.28941" lon="-5.40732">
        <ele>58.35555</ele>
        <time>2021-07-15T16:40:23Z</time>
      </trkpt>
      <trkpt lat="36.2895" lon="-5.407">
        <ele>55.90056</ele>
        <time>2021-07-15T16:40:46Z</time>
      </trkpt>
      <trkpt lat="36.28967" lon="-5.40688">
        <ele>57.45033</ele>
        <time>2021-07-15T16:40:57Z</time>
      </trkpt>
      <trkpt lat="36.28977" lon="-5.40718">
        <ele>54.59031</ele>
        <time>2021-07-15T16:41:08Z</time>
      </trkpt>
      <trkpt lat="36.28987" lon="-5.40721">
        <ele>56.04881</ele>
        <time>2021-07-15T16:41:19Z</time>
      </trkpt>
      <trkpt lat="36.28986" lon="-5.40717">
        <ele>63.11132</ele>
        <time>2021-07-15T16:41:54Z</time>
      </trkpt>
      <trkpt lat="36.28981" lon="-5.40715">
        <ele>63.51275</ele>
        <time>2021-07-15T16:42:05Z</time>
      </trkpt>
      <trkpt lat="36.28969" lon="-5.40726">
        <ele>61.97378</ele>
        <time>2021-07-15T16:42:16Z</time>
      </trkpt>
      <trkpt lat="36.28959" lon="-5.40729">
        <ele>60.63518</ele>
        <time>2021-07-15T16:42:27Z</time>
      </trkpt>
      <trkpt lat="36.2895" lon="-5.40721">
        <ele>58.88639</ele>
        <time>2021-07-15T16:42:38Z</time>
      </trkpt>
      <trkpt lat="36.28941" lon="-5.40716">
        <ele>54.1407</ele>
        <time>2021-07-15T16:42:49Z</time>
      </trkpt>
      <trkpt lat="36.28929" lon="-5.4071">
        <ele>55.04035</ele>
        <time>2021-07-15T16:43:00Z</time>
      </trkpt>
      <trkpt lat="36.28926" lon="-5.40711">
        <ele>52.29636</ele>
        <time>2021-07-15T16:43:20Z</time>
      </trkpt>
      <trkpt lat="36.28935" lon="-5.40715">
        <ele>49.58289</ele>
        <time>2021-07-15T16:43:31Z</time>
      </trkpt>
      <trkpt lat="36.28948" lon="-5.40722">
        <ele>53.72198</ele>
        <time>2021-07-15T16:43:42Z</time>
      </trkpt>
      <trkpt lat="36.28951" lon="-5.40719">
        <ele>54.18757</ele>
        <time>2021-07-15T16:43:54Z</time>
      </trkpt>
      <trkpt lat="36.28954" lon="-5.40717">
        <ele>57.29974</ele>
        <time>2021-07-15T16:44:27Z</time>
      </trkpt>
      <trkpt lat="36.28957" lon="-5.40721">
        <ele>55.10684</ele>
        <time>2021-07-15T16:44:56Z</time>
      </trkpt>
      <trkpt lat="36.28978" lon="-5.40725">
        <ele>49.9318</ele>
        <time>2021-07-15T16:45:07Z</time>
      </trkpt>
      <trkpt lat="36.28989" lon="-5.40723">
        <ele>50.41194</ele>
        <time>2021-07-15T16:45:18Z</time>
      </trkpt>
      <trkpt lat="36.28988" lon="-5.40719">
        <ele>56.69275</ele>
        <time>2021-07-15T16:45:32Z</time>
      </trkpt>
      <trkpt lat="36.2899" lon="-5.40721">
        <ele>54.92477</ele>
        <time>2021-07-15T16:46:32Z</time>
      </trkpt>
      <trkpt lat="36.28994" lon="-5.40717">
        <ele>54.3498</ele>
        <time>2021-07-15T16:46:54Z</time>
      </trkpt>
      <trkpt lat="36.29034" lon="-5.40697">
        <ele>56.68519</ele>
        <time>2021-07-15T16:47:05Z</time>
      </trkpt>
      <trkpt lat="36.29041" lon="-5.40697">
        <ele>58.54976</ele>
        <time>2021-07-15T16:47:17Z</time>
      </trkpt>
      <trkpt lat="36.29142" lon="-5.4061">
        <ele>61.40534</ele>
        <time>2021-07-15T16:47:28Z</time>
      </trkpt>
      <trkpt lat="36.29309" lon="-5.40521">
        <ele>63.01165</ele>
        <time>2021-07-15T16:47:39Z</time>
      </trkpt>
      <trkpt lat="36.29482" lon="-5.40437">
        <ele>64.17112</ele>
        <time>2021-07-15T16:47:50Z</time>
      </trkpt>
      <trkpt lat="36.29665" lon="-5.40343">
        <ele>72.0996</ele>
        <time>2021-07-15T16:48:01Z</time>
      </trkpt>
      <trkpt lat="36.29818" lon="-5.40178">
        <ele>77.51226</ele>
        <time>2021-07-15T16:48:12Z</time>
      </trkpt>
      <trkpt lat="36.29976" lon="-5.39993">
        <ele>82.75582</ele>
        <time>2021-07-15T16:48:23Z</time>
      </trkpt>
      <trkpt lat="36.30137" lon="-5.39833">
        <ele>82.23123</ele>
        <time>2021-07-15T16:48:34Z</time>
      </trkpt>
      <trkpt lat="36.30236" lon="-5.39708">
        <ele>86.7903</ele>
        <time>2021-07-15T16:48:45Z</time>
      </trkpt>
      <trkpt lat="36.30311" lon="-5.39814">
        <ele>87.11369</ele>
        <time>2021-07-15T16:48:56Z</time>
      </trkpt>
      <trkpt lat="36.30371" lon="-5.39986">
        <ele>78.51048</ele>
        <time>2021-07-15T16:49:07Z</time>
      </trkpt>
      <trkpt lat="36.30442" lon="-5.40059">
        <ele>79.90213</ele>
        <time>2021-07-15T16:49:18Z</time>
      </trkpt>
      <trkpt lat="36.30636" lon="-5.40059">
        <ele>84.68206</ele>
        <time>2021-07-15T16:49:29Z</time>
      </trkpt>
      <trkpt lat="36.30867" lon="-5.40049">
        <ele>88.71535</ele>
        <time>2021-07-15T16:49:40Z</time>
      </trkpt>
      <trkpt lat="36.31102" lon="-5.4004">
        <ele>88.12575</ele>
        <time>2021-07-15T16:49:52Z</time>
      </trkpt>
      <trkpt lat="36.31335" lon="-5.40032">
        <ele>89.03016</ele>
        <time>2021-07-15T16:50:03Z</time>
      </trkpt>
      <trkpt lat="36.31568" lon="-5.40024">
        <ele>89.90305</ele>
        <time>2021-07-15T16:50:14Z</time>
      </trkpt>
      <trkpt lat="36.31779" lon="-5.40161">
        <ele>78.57916</ele>
        <time>2021-07-15T16:50:25Z</time>
      </trkpt>
      <trkpt lat="36.31974" lon="-5.40321">
        <ele>57.16597</ele>
        <time>2021-07-15T16:50:36Z</time>
      </trkpt>
      <trkpt lat="36.32162" lon="-5.40508">
        <ele>37.41586</ele>
        <time>2021-07-15T16:50:47Z</time>
      </trkpt>
      <trkpt lat="36.32399" lon="-5.40484">
        <ele>31.02032</ele>
        <time>2021-07-15T16:50:58Z</time>
      </trkpt>
      <trkpt lat="36.32636" lon="-5.40454">
        <ele>25.89801</ele>
        <time>2021-07-15T16:51:09Z</time>
      </trkpt>
      <trkpt lat="36.32836" lon="-5.40424">
        <ele>24.49331</ele>
        <time>2021-07-15T16:51:20Z</time>
      </trkpt>
      <trkpt lat="36.33017" lon="-5.40333">
        <ele>27.02448</ele>
        <time>2021-07-15T16:51:31Z</time>
      </trkpt>
      <trkpt lat="36.33192" lon="-5.40258">
        <ele>20.65438</ele>
        <time>2021-07-15T16:51:42Z</time>
      </trkpt>
      <trkpt lat="36.33254" lon="-5.40198">
        <ele>21.7388</ele>
        <time>2021-07-15T16:51:53Z</time>
      </trkpt>
      <trkpt lat="36.33156" lon="-5.40279">
        <ele>22.96179</ele>
        <time>2021-07-15T16:52:04Z</time>
      </trkpt>
      <trkpt lat="36.32975" lon="-5.40365">
        <ele>23.67013</ele>
        <time>2021-07-15T16:52:15Z</time>
      </trkpt>
      <trkpt lat="36.32833" lon="-5.4043">
        <ele>20.33541</ele>
        <time>2021-07-15T16:52:26Z</time>
      </trkpt>
      <trkpt lat="36.32717" lon="-5.40446">
        <ele>29.4801</ele>
        <time>2021-07-15T16:52:37Z</time>
      </trkpt>
      <trkpt lat="36.32784" lon="-5.40452">
        <ele>24.42872</ele>
        <time>2021-07-15T16:52:48Z</time>
      </trkpt>
      <trkpt lat="36.32896" lon="-5.40425">
        <ele>19.36549</ele>
        <time>2021-07-15T16:52:59Z</time>
      </trkpt>
      <trkpt lat="36.32975" lon="-5.40413">
        <ele>14.35535</ele>
        <time>2021-07-15T16:53:10Z</time>
      </trkpt>
      <trkpt lat="36.33026" lon="-5.40563">
        <ele>8.938135</ele>
        <time>2021-07-15T16:53:21Z</time>
      </trkpt>
      <trkpt lat="36.33082" lon="-5.40704">
        <ele>24.09825</ele>
        <time>2021-07-15T16:53:32Z</time>
      </trkpt>
      <trkpt lat="36.33137" lon="-5.40843">
        <ele>21.49629</ele>
        <time>2021-07-15T16:53:43Z</time>
      </trkpt>
      <trkpt lat="36.33166" lon="-5.40835">
        <ele>23.48645</ele>
        <time>2021-07-15T16:53:54Z</time>
      </trkpt>
      <trkpt lat="36.33201" lon="-5.40868">
        <ele>22.52636</ele>
        <time>2021-07-15T16:54:05Z</time>
      </trkpt>
      <trkpt lat="36.33272" lon="-5.40971">
        <ele>21.63769</ele>
        <time>2021-07-15T16:54:16Z</time>
      </trkpt>
      <trkpt lat="36.3336" lon="-5.41049">
        <ele>22.00316</ele>
        <time>2021-07-15T16:54:27Z</time>
      </trkpt>
      <trkpt lat="36.33484" lon="-5.41144">
        <ele>22.23799</ele>
        <time>2021-07-15T16:54:38Z</time>
      </trkpt>
      <trkpt lat="36.33621" lon="-5.41253">
        <ele>23.81697</ele>
        <time>2021-07-15T16:54:49Z</time>
      </trkpt>
      <trkpt lat="36.3377" lon="-5.41374">
        <ele>22.21948</ele>
        <time>2021-07-15T16:55:00Z</time>
      </trkpt>
      <trkpt lat="36.33912" lon="-5.4149">
        <ele>16.71449</ele>
        <time>2021-07-15T16:55:11Z</time>
      </trkpt>
      <trkpt lat="36.34055" lon="-5.41604">
        <ele>18.07082</ele>
        <time>2021-07-15T16:55:22Z</time>
      </trkpt>
      <trkpt lat="36.34201" lon="-5.41731">
        <ele>18.84993</ele>
        <time>2021-07-15T16:55:33Z</time>
      </trkpt>
      <trkpt lat="36.34346" lon="-5.41847">
        <ele>22.51501</ele>
        <time>2021-07-15T16:55:44Z</time>
      </trkpt>
      <trkpt lat="36.34492" lon="-5.41964">
        <ele>26.59771</ele>
        <time>2021-07-15T16:55:55Z</time>
      </trkpt>
      <trkpt lat="36.34625" lon="-5.4207">
        <ele>19.5675</ele>
        <time>2021-07-15T16:56:06Z</time>
      </trkpt>
      <trkpt lat="36.34728" lon="-5.42152">
        <ele>19.26155</ele>
        <time>2021-07-15T16:56:17Z</time>
      </trkpt>
      <trkpt lat="36.34809" lon="-5.42217">
        <ele>25.99648</ele>
        <time>2021-07-15T16:56:28Z</time>
      </trkpt>
      <trkpt lat="36.3491" lon="-5.42298">
        <ele>19.30031</ele>
        <time>2021-07-15T16:56:39Z</time>
      </trkpt>
      <trkpt lat="36.35001" lon="-5.42372">
        <ele>15.77457</ele>
        <time>2021-07-15T16:56:50Z</time>
      </trkpt>
      <trkpt lat="36.35106" lon="-5.42469">
        <ele>19.51677</ele>
        <time>2021-07-15T16:57:01Z</time>
      </trkpt>
      <trkpt lat="36.35228" lon="-5.42567">
        <ele>21.61294</ele>
        <time>2021-07-15T16:57:12Z</time>
      </trkpt>
      <trkpt lat="36.35367" lon="-5.42616">
        <ele>24.67164</ele>
        <time>2021-07-15T16:57:23Z</time>
      </trkpt>
      <trkpt lat="36.35498" lon="-5.42645">
        <ele>26.61037</ele>
        <time>2021-07-15T16:57:34Z</time>
      </trkpt>
      <trkpt lat="36.35567" lon="-5.4265">
        <ele>22.4555</ele>
        <time>2021-07-15T16:57:45Z</time>
      </trkpt>
      <trkpt lat="36.35625" lon="-5.42557">
        <ele>10.80145</ele>
        <time>2021-07-15T16:57:56Z</time>
      </trkpt>
      <trkpt lat="36.35664" lon="-5.42579">
        <ele>10.93225</ele>
        <time>2021-07-15T16:58:07Z</time>
      </trkpt>
      <trkpt lat="36.35679" lon="-5.42651">
        <ele>22.63178</ele>
        <time>2021-07-15T16:58:18Z</time>
      </trkpt>
      <trkpt lat="36.3575" lon="-5.42668">
        <ele>24.50798</ele>
        <time>2021-07-15T16:58:29Z</time>
      </trkpt>
      <trkpt lat="36.35838" lon="-5.42664">
        <ele>28.29925</ele>
        <time>2021-07-15T16:58:40Z</time>
      </trkpt>
      <trkpt lat="36.35946" lon="-5.42658">
        <ele>27.16624</ele>
        <time>2021-07-15T16:58:51Z</time>
      </trkpt>
      <trkpt lat="36.36057" lon="-5.42656">
        <ele>24.58691</ele>
        <time>2021-07-15T16:59:02Z</time>
      </trkpt>
      <trkpt lat="36.36156" lon="-5.42632">
        <ele>16.65768</ele>
        <time>2021-07-15T16:59:13Z</time>
      </trkpt>
      <trkpt lat="36.36233" lon="-5.42613">
        <ele>15.92493</ele>
        <time>2021-07-15T16:59:24Z</time>
      </trkpt>
      <trkpt lat="36.3632" lon="-5.42592">
        <ele>21.62925</ele>
        <time>2021-07-15T16:59:35Z</time>
      </trkpt>
      <trkpt lat="36.36431" lon="-5.42565">
        <ele>21.13232</ele>
        <time>2021-07-15T16:59:46Z</time>
      </trkpt>
      <trkpt lat="36.36553" lon="-5.42536">
        <ele>22.40793</ele>
        <time>2021-07-15T16:59:57Z</time>
      </trkpt>
      <trkpt lat="36.3668" lon="-5.42505">
        <ele>22.09349</ele>
        <time>2021-07-15T17:00:08Z</time>
      </trkpt>
      <trkpt lat="36.36824" lon="-5.4247">
        <ele>31.7901</ele>
        <time>2021-07-15T17:00:19Z</time>
      </trkpt>
      <trkpt lat="36.36987" lon="-5.42432">
        <ele>43.1516</ele>
        <time>2021-07-15T17:00:30Z</time>
      </trkpt>
      <trkpt lat="36.3706" lon="-5.42415">
        <ele>21.20791</ele>
        <time>2021-07-15T17:00:41Z</time>
      </trkpt>
      <trkpt lat="36.37142" lon="-5.42412">
        <ele>19.34267</ele>
        <time>2021-07-15T17:00:52Z</time>
      </trkpt>
      <trkpt lat="36.37235" lon="-5.42316">
        <ele>20.4754</ele>
        <time>2021-07-15T17:01:03Z</time>
      </trkpt>
      <trkpt lat="36.37303" lon="-5.42339">
        <ele>21.82407</ele>
        <time>2021-07-15T17:01:14Z</time>
      </trkpt>
      <trkpt lat="36.37369" lon="-5.42436">
        <ele>22.57953</ele>
        <time>2021-07-15T17:01:25Z</time>
      </trkpt>
      <trkpt lat="36.37466" lon="-5.42449">
        <ele>22.33637</ele>
        <time>2021-07-15T17:01:36Z</time>
      </trkpt>
      <trkpt lat="36.37573" lon="-5.42466">
        <ele>21.53029</ele>
        <time>2021-07-15T17:01:47Z</time>
      </trkpt>
      <trkpt lat="36.37663" lon="-5.42507">
        <ele>20.57534</ele>
        <time>2021-07-15T17:01:58Z</time>
      </trkpt>
      <trkpt lat="36.37746" lon="-5.42579">
        <ele>22.24916</ele>
        <time>2021-07-15T17:02:09Z</time>
      </trkpt>
      <trkpt lat="36.3781" lon="-5.42691">
        <ele>22.99621</ele>
        <time>2021-07-15T17:02:20Z</time>
      </trkpt>
      <trkpt lat="36.37859" lon="-5.42806">
        <ele>27.41944</ele>
        <time>2021-07-15T17:02:31Z</time>
      </trkpt>
      <trkpt lat="36.37917" lon="-5.42943">
        <ele>29.78371</ele>
        <time>2021-07-15T17:02:42Z</time>
      </trkpt>
      <trkpt lat="36.37963" lon="-5.43051">
        <ele>25.38202</ele>
        <time>2021-07-15T17:02:53Z</time>
      </trkpt>
      <trkpt lat="36.38003" lon="-5.43">
        <ele>20.00822</ele>
        <time>2021-07-15T17:03:04Z</time>
      </trkpt>
      <trkpt lat="36.38032" lon="-5.42952">
        <ele>18.33849</ele>
        <time>2021-07-15T17:03:15Z</time>
      </trkpt>
      <trkpt lat="36.38049" lon="-5.42958">
        <ele>20.89687</ele>
        <time>2021-07-15T17:03:26Z</time>
      </trkpt>
      <trkpt lat="36.38062" lon="-5.42961">
        <ele>20.2235</ele>
        <time>2021-07-15T17:03:37Z</time>
      </trkpt>
      <trkpt lat="36.38065" lon="-5.42963">
        <ele>21.69169</ele>
        <time>2021-07-15T17:04:36Z</time>
      </trkpt>
      <trkpt lat="36.38063" lon="-5.4296">
        <ele>20.6613</ele>
        <time>2021-07-15T17:05:34Z</time>
      </trkpt>
      <trkpt lat="36.38063" lon="-5.42961">
        <ele>20.9899</ele>
        <time>2021-07-15T17:06:34Z</time>
      </trkpt>
      <trkpt lat="36.38064" lon="-5.42961">
        <ele>19.94095</ele>
        <time>2021-07-15T17:07:34Z</time>
      </trkpt>
      <trkpt lat="36.38064" lon="-5.42962">
        <ele>19.2015</ele>
        <time>2021-07-15T17:08:34Z</time>
      </trkpt>
      <trkpt lat="36.38064" lon="-5.42961">
        <ele>16.59865</ele>
        <time>2021-07-15T17:09:33Z</time>
      </trkpt>
      <trkpt lat="36.38064" lon="-5.42962">
        <ele>18.1252</ele>
        <time>2021-07-15T17:10:33Z</time>
      </trkpt>
      <trkpt lat="36.38064" lon="-5.42963">
        <ele>18.1686</ele>
        <time>2021-07-15T17:11:33Z</time>
      </trkpt>
      <trkpt lat="36.38064" lon="-5.42964">
        <ele>18.21268</ele>
        <time>2021-07-15T17:12:33Z</time>
      </trkpt>
      <trkpt lat="36.3807" lon="-5.42966">
        <ele>18.72141</ele>
        <time>2021-07-15T17:12:52Z</time>
      </trkpt>
      <trkpt lat="36.38131" lon="-5.43045">
        <ele>23.77477</ele>
        <time>2021-07-15T17:13:03Z</time>
      </trkpt>
      <trkpt lat="36.38199" lon="-5.43118">
        <ele>19.6353</ele>
        <time>2021-07-15T17:13:14Z</time>
      </trkpt>
      <trkpt lat="36.38283" lon="-5.43146">
        <ele>17.75018</ele>
        <time>2021-07-15T17:13:25Z</time>
      </trkpt>
      <trkpt lat="36.38331" lon="-5.43092">
        <ele>18.53743</ele>
        <time>2021-07-15T17:13:36Z</time>
      </trkpt>
      <trkpt lat="36.38397" lon="-5.42991">
        <ele>25.31042</ele>
        <time>2021-07-15T17:13:47Z</time>
      </trkpt>
      <trkpt lat="36.38492" lon="-5.42911">
        <ele>26.9605</ele>
        <time>2021-07-15T17:13:58Z</time>
      </trkpt>
      <trkpt lat="36.38539" lon="-5.42875">
        <ele>33.36635</ele>
        <time>2021-07-15T17:14:09Z</time>
      </trkpt>
      <trkpt lat="36.38635" lon="-5.42858">
        <ele>42.20621</ele>
        <time>2021-07-15T17:14:20Z</time>
      </trkpt>
      <trkpt lat="36.38725" lon="-5.42799">
        <ele>40.27928</ele>
        <time>2021-07-15T17:14:31Z</time>
      </trkpt>
      <trkpt lat="36.38836" lon="-5.42741">
        <ele>33.79405</ele>
        <time>2021-07-15T17:14:42Z</time>
      </trkpt>
      <trkpt lat="36.38958" lon="-5.42666">
        <ele>24.65706</ele>
        <time>2021-07-15T17:14:53Z</time>
      </trkpt>
      <trkpt lat="36.39111" lon="-5.42563">
        <ele>14.54584</ele>
        <time>2021-07-15T17:15:04Z</time>
      </trkpt>
      <trkpt lat="36.39259" lon="-5.42427">
        <ele>-5.617399</ele>
        <time>2021-07-15T17:15:15Z</time>
      </trkpt>
      <trkpt lat="36.39299" lon="-5.42272">
        <ele>36.78989</ele>
        <time>2021-07-15T17:15:26Z</time>
      </trkpt>
      <trkpt lat="36.39316" lon="-5.42068">
        <ele>37.42131</ele>
        <time>2021-07-15T17:15:37Z</time>
      </trkpt>
      <trkpt lat="36.39365" lon="-5.41873">
        <ele>25.39949</ele>
        <time>2021-07-15T17:15:48Z</time>
      </trkpt>
      <trkpt lat="36.39503" lon="-5.41778">
        <ele>30.20282</ele>
        <time>2021-07-15T17:15:59Z</time>
      </trkpt>
      <trkpt lat="36.39667" lon="-5.41705">
        <ele>33.83028</ele>
        <time>2021-07-15T17:16:10Z</time>
      </trkpt>
      <trkpt lat="36.39823" lon="-5.41615">
        <ele>36.23569</ele>
        <time>2021-07-15T17:16:21Z</time>
      </trkpt>
      <trkpt lat="36.40008" lon="-5.41563">
        <ele>42.8312</ele>
        <time>2021-07-15T17:16:32Z</time>
      </trkpt>
      <trkpt lat="36.40161" lon="-5.41518">
        <ele>45.07179</ele>
        <time>2021-07-15T17:16:43Z</time>
      </trkpt>
      <trkpt lat="36.4033" lon="-5.41462">
        <ele>49.42632</ele>
        <time>2021-07-15T17:16:54Z</time>
      </trkpt>
      <trkpt lat="36.405" lon="-5.41412">
        <ele>53.29216</ele>
        <time>2021-07-15T17:17:05Z</time>
      </trkpt>
      <trkpt lat="36.40627" lon="-5.41315">
        <ele>60.48307</ele>
        <time>2021-07-15T17:17:16Z</time>
      </trkpt>
      <trkpt lat="36.40752" lon="-5.41252">
        <ele>77.93885</ele>
        <time>2021-07-15T17:17:27Z</time>
      </trkpt>
      <trkpt lat="36.40868" lon="-5.41212">
        <ele>93.76083</ele>
        <time>2021-07-15T17:17:38Z</time>
      </trkpt>
      <trkpt lat="36.40937" lon="-5.41132">
        <ele>84.88713</ele>
        <time>2021-07-15T17:17:49Z</time>
      </trkpt>
      <trkpt lat="36.40998" lon="-5.41004">
        <ele>73.96423</ele>
        <time>2021-07-15T17:18:00Z</time>
      </trkpt>
      <trkpt lat="36.41083" lon="-5.40883">
        <ele>60.66514</ele>
        <time>2021-07-15T17:18:11Z</time>
      </trkpt>
      <trkpt lat="36.41169" lon="-5.40732">
        <ele>48.37875</ele>
        <time>2021-07-15T17:18:22Z</time>
      </trkpt>
      <trkpt lat="36.41214" lon="-5.40572">
        <ele>42.63856</ele>
        <time>2021-07-15T17:18:33Z</time>
      </trkpt>
      <trkpt lat="36.41231" lon="-5.40337">
        <ele>42.26471</ele>
        <time>2021-07-15T17:18:44Z</time>
      </trkpt>
      <trkpt lat="36.41255" lon="-5.40164">
        <ele>46.71476</ele>
        <time>2021-07-15T17:18:55Z</time>
      </trkpt>
      <trkpt lat="36.41363" lon="-5.40073">
        <ele>45.34409</ele>
        <time>2021-07-15T17:19:06Z</time>
      </trkpt>
      <trkpt lat="36.41439" lon="-5.40054">
        <ele>40.25811</ele>
        <time>2021-07-15T17:19:17Z</time>
      </trkpt>
      <trkpt lat="36.41484" lon="-5.40015">
        <ele>37.97088</ele>
        <time>2021-07-15T17:19:28Z</time>
      </trkpt>
      <trkpt lat="36.41527" lon="-5.39972">
        <ele>36.18726</ele>
        <time>2021-07-15T17:19:39Z</time>
      </trkpt>
      <trkpt lat="36.41585" lon="-5.39917">
        <ele>39.65834</ele>
        <time>2021-07-15T17:19:50Z</time>
      </trkpt>
      <trkpt lat="36.41683" lon="-5.3983">
        <ele>36.0422</ele>
        <time>2021-07-15T17:20:01Z</time>
      </trkpt>
      <trkpt lat="36.41775" lon="-5.39895">
        <ele>34.38602</ele>
        <time>2021-07-15T17:20:12Z</time>
      </trkpt>
      <trkpt lat="36.41942" lon="-5.40027">
        <ele>31.55095</ele>
        <time>2021-07-15T17:20:23Z</time>
      </trkpt>
      <trkpt lat="36.42155" lon="-5.40009">
        <ele>33.13569</ele>
        <time>2021-07-15T17:20:34Z</time>
      </trkpt>
      <trkpt lat="36.4231" lon="-5.39862">
        <ele>33.45941</ele>
        <time>2021-07-15T17:20:45Z</time>
      </trkpt>
      <trkpt lat="36.42417" lon="-5.39655">
        <ele>34.00901</ele>
        <time>2021-07-15T17:20:56Z</time>
      </trkpt>
      <trkpt lat="36.42616" lon="-5.39561">
        <ele>33.96047</ele>
        <time>2021-07-15T17:21:07Z</time>
      </trkpt>
      <trkpt lat="36.42788" lon="-5.39491">
        <ele>36.05911</ele>
        <time>2021-07-15T17:21:18Z</time>
      </trkpt>
      <trkpt lat="36.42947" lon="-5.39469">
        <ele>40.52046</ele>
        <time>2021-07-15T17:21:29Z</time>
      </trkpt>
      <trkpt lat="36.43158" lon="-5.39469">
        <ele>38.45957</ele>
        <time>2021-07-15T17:21:40Z</time>
      </trkpt>
      <trkpt lat="36.4332" lon="-5.39331">
        <ele>44.14401</ele>
        <time>2021-07-15T17:21:51Z</time>
      </trkpt>
      <trkpt lat="36.43496" lon="-5.39168">
        <ele>46.65531</ele>
        <time>2021-07-15T17:22:02Z</time>
      </trkpt>
      <trkpt lat="36.43602" lon="-5.39163">
        <ele>47.33233</ele>
        <time>2021-07-15T17:22:13Z</time>
      </trkpt>
      <trkpt lat="36.43655" lon="-5.39215">
        <ele>49.30895</ele>
        <time>2021-07-15T17:22:24Z</time>
      </trkpt>
      <trkpt lat="36.4367" lon="-5.39194">
        <ele>46.99773</ele>
        <time>2021-07-15T17:22:35Z</time>
      </trkpt>
      <trkpt lat="36.43676" lon="-5.39201">
        <ele>48.08454</ele>
        <time>2021-07-15T17:23:14Z</time>
      </trkpt>
      <trkpt lat="36.43666" lon="-5.39174">
        <ele>45.92819</ele>
        <time>2021-07-15T17:23:25Z</time>
      </trkpt>
      <trkpt lat="36.43643" lon="-5.39123">
        <ele>39.37705</ele>
        <time>2021-07-15T17:23:36Z</time>
      </trkpt>
      <trkpt lat="36.43639" lon="-5.39115">
        <ele>43.90488</ele>
        <time>2021-07-15T17:23:47Z</time>
      </trkpt>
      <trkpt lat="36.43641" lon="-5.39119">
        <ele>48.78255</ele>
        <time>2021-07-15T17:24:14Z</time>
      </trkpt>
      <trkpt lat="36.43646" lon="-5.39128">
        <ele>49.23902</ele>
        <time>2021-07-15T17:24:25Z</time>
      </trkpt>
      <trkpt lat="36.43649" lon="-5.39134">
        <ele>51.31653</ele>
        <time>2021-07-15T17:24:41Z</time>
      </trkpt>
      <trkpt lat="36.43676" lon="-5.39191">
        <ele>45.88745</ele>
        <time>2021-07-15T17:24:52Z</time>
      </trkpt>
      <trkpt lat="36.43645" lon="-5.39226">
        <ele>48.2392</ele>
        <time>2021-07-15T17:25:03Z</time>
      </trkpt>
      <trkpt lat="36.43671" lon="-5.39266">
        <ele>49.60575</ele>
        <time>2021-07-15T17:25:14Z</time>
      </trkpt>
      <trkpt lat="36.43761" lon="-5.39306">
        <ele>50.8643</ele>
        <time>2021-07-15T17:25:25Z</time>
      </trkpt>
      <trkpt lat="36.43838" lon="-5.39224">
        <ele>49.84136</ele>
        <time>2021-07-15T17:25:36Z</time>
      </trkpt>
      <trkpt lat="36.43977" lon="-5.39157">
        <ele>51.14233</ele>
        <time>2021-07-15T17:25:47Z</time>
      </trkpt>
      <trkpt lat="36.44117" lon="-5.39092">
        <ele>53.47301</ele>
        <time>2021-07-15T17:25:58Z</time>
      </trkpt>
      <trkpt lat="36.44212" lon="-5.38968">
        <ele>55.06041</ele>
        <time>2021-07-15T17:26:09Z</time>
      </trkpt>
      <trkpt lat="36.44339" lon="-5.38973">
        <ele>58.83177</ele>
        <time>2021-07-15T17:26:20Z</time>
      </trkpt>
      <trkpt lat="36.44471" lon="-5.38927">
        <ele>57.86001</ele>
        <time>2021-07-15T17:26:31Z</time>
      </trkpt>
      <trkpt lat="36.44582" lon="-5.38828">
        <ele>63.15988</ele>
        <time>2021-07-15T17:26:42Z</time>
      </trkpt>
      <trkpt lat="36.44693" lon="-5.38742">
        <ele>67.17859</ele>
        <time>2021-07-15T17:26:53Z</time>
      </trkpt>
      <trkpt lat="36.44786" lon="-5.38637">
        <ele>70.56673</ele>
        <time>2021-07-15T17:27:04Z</time>
      </trkpt>
      <trkpt lat="36.44889" lon="-5.38533">
        <ele>76.04026</ele>
        <time>2021-07-15T17:27:15Z</time>
      </trkpt>
      <trkpt lat="36.45009" lon="-5.38545">
        <ele>81.29301</ele>
        <time>2021-07-15T17:27:26Z</time>
      </trkpt>
      <trkpt lat="36.45083" lon="-5.38479">
        <ele>94.06413</ele>
        <time>2021-07-15T17:27:37Z</time>
      </trkpt>
      <trkpt lat="36.45136" lon="-5.38393">
        <ele>97.21866</ele>
        <time>2021-07-15T17:27:48Z</time>
      </trkpt>
      <trkpt lat="36.45206" lon="-5.383">
        <ele>100.1055</ele>
        <time>2021-07-15T17:27:59Z</time>
      </trkpt>
      <trkpt lat="36.45339" lon="-5.38306">
        <ele>102.1829</ele>
        <time>2021-07-15T17:28:10Z</time>
      </trkpt>
      <trkpt lat="36.45473" lon="-5.38322">
        <ele>94.87353</ele>
        <time>2021-07-15T17:28:21Z</time>
      </trkpt>
      <trkpt lat="36.45635" lon="-5.38312">
        <ele>107.2545</ele>
        <time>2021-07-15T17:28:32Z</time>
      </trkpt>
      <trkpt lat="36.4576" lon="-5.3825">
        <ele>108.3572</ele>
        <time>2021-07-15T17:28:43Z</time>
      </trkpt>
      <trkpt lat="36.45833" lon="-5.38147">
        <ele>115.0127</ele>
        <time>2021-07-15T17:28:54Z</time>
      </trkpt>
      <trkpt lat="36.45921" lon="-5.38045">
        <ele>114.5373</ele>
        <time>2021-07-15T17:29:05Z</time>
      </trkpt>
      <trkpt lat="36.4603" lon="-5.37971">
        <ele>105.1347</ele>
        <time>2021-07-15T17:29:16Z</time>
      </trkpt>
      <trkpt lat="36.46168" lon="-5.37921">
        <ele>109.9134</ele>
        <time>2021-07-15T17:29:27Z</time>
      </trkpt>
      <trkpt lat="36.46263" lon="-5.37869">
        <ele>116.507</ele>
        <time>2021-07-15T17:29:38Z</time>
      </trkpt>
      <trkpt lat="36.46389" lon="-5.37764">
        <ele>113.1036</ele>
        <time>2021-07-15T17:29:49Z</time>
      </trkpt>
      <trkpt lat="36.46543" lon="-5.37684">
        <ele>107.968</ele>
        <time>2021-07-15T17:30:00Z</time>
      </trkpt>
      <trkpt lat="36.46697" lon="-5.37623">
        <ele>107.1179</ele>
        <time>2021-07-15T17:30:11Z</time>
      </trkpt>
      <trkpt lat="36.4679" lon="-5.37548">
        <ele>112.6936</ele>
        <time>2021-07-15T17:30:22Z</time>
      </trkpt>
      <trkpt lat="36.46937" lon="-5.37545">
        <ele>120.2373</ele>
        <time>2021-07-15T17:30:33Z</time>
      </trkpt>
      <trkpt lat="36.47097" lon="-5.37614">
        <ele>127.7454</ele>
        <time>2021-07-15T17:30:44Z</time>
      </trkpt>
      <trkpt lat="36.47217" lon="-5.37755">
        <ele>126.8445</ele>
        <time>2021-07-15T17:30:55Z</time>
      </trkpt>
      <trkpt lat="36.4733" lon="-5.37838">
        <ele>131.0025</ele>
        <time>2021-07-15T17:31:06Z</time>
      </trkpt>
      <trkpt lat="36.47445" lon="-5.37904">
        <ele>139.1849</ele>
        <time>2021-07-15T17:31:17Z</time>
      </trkpt>
      <trkpt lat="36.47541" lon="-5.37859">
        <ele>145.0071</ele>
        <time>2021-07-15T17:31:28Z</time>
      </trkpt>
      <trkpt lat="36.47707" lon="-5.37718">
        <ele>157.0898</ele>
        <time>2021-07-15T17:31:39Z</time>
      </trkpt>
      <trkpt lat="36.4788" lon="-5.37607">
        <ele>169.986</ele>
        <time>2021-07-15T17:31:50Z</time>
      </trkpt>
      <trkpt lat="36.48107" lon="-5.37604">
        <ele>186.3366</ele>
        <time>2021-07-15T17:32:01Z</time>
      </trkpt>
      <trkpt lat="36.48305" lon="-5.37553">
        <ele>203.1588</ele>
        <time>2021-07-15T17:32:12Z</time>
      </trkpt>
      <trkpt lat="36.48455" lon="-5.37468">
        <ele>215.6863</ele>
        <time>2021-07-15T17:32:23Z</time>
      </trkpt>
      <trkpt lat="36.48573" lon="-5.37466">
        <ele>228.6223</ele>
        <time>2021-07-15T17:32:34Z</time>
      </trkpt>
      <trkpt lat="36.48695" lon="-5.3735">
        <ele>242.9968</ele>
        <time>2021-07-15T17:32:45Z</time>
      </trkpt>
      <trkpt lat="36.48828" lon="-5.37269">
        <ele>253.3744</ele>
        <time>2021-07-15T17:32:56Z</time>
      </trkpt>
      <trkpt lat="36.48954" lon="-5.3733">
        <ele>257.5334</ele>
        <time>2021-07-15T17:33:07Z</time>
      </trkpt>
      <trkpt lat="36.49019" lon="-5.37192">
        <ele>269.3474</ele>
        <time>2021-07-15T17:33:18Z</time>
      </trkpt>
      <trkpt lat="36.49158" lon="-5.37147">
        <ele>277.4312</ele>
        <time>2021-07-15T17:33:29Z</time>
      </trkpt>
      <trkpt lat="36.49306" lon="-5.3722">
        <ele>285.1958</ele>
        <time>2021-07-15T17:33:40Z</time>
      </trkpt>
      <trkpt lat="36.49455" lon="-5.37302">
        <ele>295.2663</ele>
        <time>2021-07-15T17:33:51Z</time>
      </trkpt>
      <trkpt lat="36.49603" lon="-5.37299">
        <ele>304.4691</ele>
        <time>2021-07-15T17:34:02Z</time>
      </trkpt>
      <trkpt lat="36.49723" lon="-5.37213">
        <ele>311.3102</ele>
        <time>2021-07-15T17:34:13Z</time>
      </trkpt>
      <trkpt lat="36.49868" lon="-5.37196">
        <ele>318.8515</ele>
        <time>2021-07-15T17:34:24Z</time>
      </trkpt>
      <trkpt lat="36.49903" lon="-5.37165">
        <ele>328.1801</ele>
        <time>2021-07-15T17:34:35Z</time>
      </trkpt>
      <trkpt lat="36.49775" lon="-5.37136">
        <ele>333.2376</ele>
        <time>2021-07-15T17:34:46Z</time>
      </trkpt>
      <trkpt lat="36.49744" lon="-5.37043">
        <ele>343.96</ele>
        <time>2021-07-15T17:34:57Z</time>
      </trkpt>
      <trkpt lat="36.49878" lon="-5.37018">
        <ele>352.7039</ele>
        <time>2021-07-15T17:35:08Z</time>
      </trkpt>
      <trkpt lat="36.49872" lon="-5.36919">
        <ele>359.008</ele>
        <time>2021-07-15T17:35:19Z</time>
      </trkpt>
      <trkpt lat="36.49743" lon="-5.36941">
        <ele>365.3643</ele>
        <time>2021-07-15T17:35:30Z</time>
      </trkpt>
      <trkpt lat="36.49823" lon="-5.3686">
        <ele>373.5158</ele>
        <time>2021-07-15T17:35:41Z</time>
      </trkpt>
      <trkpt lat="36.49913" lon="-5.36758">
        <ele>380.4378</ele>
        <time>2021-07-15T17:35:52Z</time>
      </trkpt>
      <trkpt lat="36.49968" lon="-5.36602">
        <ele>391.7127</ele>
        <time>2021-07-15T17:36:03Z</time>
      </trkpt>
      <trkpt lat="36.50039" lon="-5.36462">
        <ele>398.7447</ele>
        <time>2021-07-15T17:36:14Z</time>
      </trkpt>
      <trkpt lat="36.50052" lon="-5.36307">
        <ele>402.1389</ele>
        <time>2021-07-15T17:36:25Z</time>
      </trkpt>
      <trkpt lat="36.50147" lon="-5.36176">
        <ele>409.1688</ele>
        <time>2021-07-15T17:36:36Z</time>
      </trkpt>
      <trkpt lat="36.50267" lon="-5.36235">
        <ele>416.9712</ele>
        <time>2021-07-15T17:36:47Z</time>
      </trkpt>
      <trkpt lat="36.50334" lon="-5.36129">
        <ele>429.3288</ele>
        <time>2021-07-15T17:36:58Z</time>
      </trkpt>
      <trkpt lat="36.50344" lon="-5.35987">
        <ele>439.036</ele>
        <time>2021-07-15T17:37:09Z</time>
      </trkpt>
      <trkpt lat="36.50419" lon="-5.35987">
        <ele>445.3009</ele>
        <time>2021-07-15T17:37:20Z</time>
      </trkpt>
      <trkpt lat="36.50461" lon="-5.36141">
        <ele>450.7946</ele>
        <time>2021-07-15T17:37:31Z</time>
      </trkpt>
      <trkpt lat="36.50561" lon="-5.36076">
        <ele>457.5773</ele>
        <time>2021-07-15T17:37:42Z</time>
      </trkpt>
      <trkpt lat="36.50695" lon="-5.36089">
        <ele>468.6657</ele>
        <time>2021-07-15T17:37:53Z</time>
      </trkpt>
      <trkpt lat="36.50764" lon="-5.35977">
        <ele>479.6735</ele>
        <time>2021-07-15T17:38:04Z</time>
      </trkpt>
      <trkpt lat="36.50825" lon="-5.3584">
        <ele>490.5851</ele>
        <time>2021-07-15T17:38:15Z</time>
      </trkpt>
      <trkpt lat="36.5086" lon="-5.35698">
        <ele>497.2022</ele>
        <time>2021-07-15T17:38:26Z</time>
      </trkpt>
      <trkpt lat="36.50928" lon="-5.35704">
        <ele>502.8769</ele>
        <time>2021-07-15T17:38:37Z</time>
      </trkpt>
      <trkpt lat="36.50981" lon="-5.35818">
        <ele>511.2009</ele>
        <time>2021-07-15T17:38:48Z</time>
      </trkpt>
      <trkpt lat="36.51084" lon="-5.3585">
        <ele>519.007</ele>
        <time>2021-07-15T17:38:59Z</time>
      </trkpt>
      <trkpt lat="36.51183" lon="-5.35783">
        <ele>529.8535</ele>
        <time>2021-07-15T17:39:10Z</time>
      </trkpt>
      <trkpt lat="36.5129" lon="-5.35722">
        <ele>536.8541</ele>
        <time>2021-07-15T17:39:21Z</time>
      </trkpt>
      <trkpt lat="36.51356" lon="-5.35596">
        <ele>546.8626</ele>
        <time>2021-07-15T17:39:32Z</time>
      </trkpt>
      <trkpt lat="36.51405" lon="-5.35485">
        <ele>556.7263</ele>
        <time>2021-07-15T17:39:43Z</time>
      </trkpt>
      <trkpt lat="36.51492" lon="-5.35492">
        <ele>565.6256</ele>
        <time>2021-07-15T17:39:54Z</time>
      </trkpt>
      <trkpt lat="36.51559" lon="-5.35437">
        <ele>575.3475</ele>
        <time>2021-07-15T17:40:05Z</time>
      </trkpt>
      <trkpt lat="36.51553" lon="-5.35307">
        <ele>581.8153</ele>
        <time>2021-07-15T17:40:16Z</time>
      </trkpt>
      <trkpt lat="36.51515" lon="-5.3519">
        <ele>589.3217</ele>
        <time>2021-07-15T17:40:27Z</time>
      </trkpt>
      <trkpt lat="36.51404" lon="-5.3511">
        <ele>597.1549</ele>
        <time>2021-07-15T17:40:38Z</time>
      </trkpt>
      <trkpt lat="36.51316" lon="-5.35009">
        <ele>607.4828</ele>
        <time>2021-07-15T17:40:49Z</time>
      </trkpt>
      <trkpt lat="36.5133" lon="-5.34891">
        <ele>614.3802</ele>
        <time>2021-07-15T17:41:00Z</time>
      </trkpt>
      <trkpt lat="36.51426" lon="-5.34818">
        <ele>625.8032</ele>
        <time>2021-07-15T17:41:11Z</time>
      </trkpt>
      <trkpt lat="36.51441" lon="-5.34658">
        <ele>637.2886</ele>
        <time>2021-07-15T17:41:22Z</time>
      </trkpt>
      <trkpt lat="36.51488" lon="-5.34527">
        <ele>643.5336</ele>
        <time>2021-07-15T17:41:33Z</time>
      </trkpt>
      <trkpt lat="36.51422" lon="-5.34453">
        <ele>642.7359</ele>
        <time>2021-07-15T17:41:44Z</time>
      </trkpt>
      <trkpt lat="36.51398" lon="-5.34367">
        <ele>643.2674</ele>
        <time>2021-07-15T17:41:55Z</time>
      </trkpt>
      <trkpt lat="36.51357" lon="-5.34252">
        <ele>644.7708</ele>
        <time>2021-07-15T17:42:06Z</time>
      </trkpt>
      <trkpt lat="36.51372" lon="-5.3418">
        <ele>646.6405</ele>
        <time>2021-07-15T17:42:17Z</time>
      </trkpt>
      <trkpt lat="36.51337" lon="-5.34091">
        <ele>646.6583</ele>
        <time>2021-07-15T17:42:28Z</time>
      </trkpt>
      <trkpt lat="36.51333" lon="-5.34089">
        <ele>642.1721</ele>
        <time>2021-07-15T17:42:53Z</time>
      </trkpt>
      <trkpt lat="36.51331" lon="-5.34085">
        <ele>646.3649</ele>
        <time>2021-07-15T17:43:06Z</time>
      </trkpt>
      <trkpt lat="36.51335" lon="-5.34086">
        <ele>642.8889</ele>
        <time>2021-07-15T17:43:39Z</time>
      </trkpt>
      <trkpt lat="36.51337" lon="-5.34077">
        <ele>644.7425</ele>
        <time>2021-07-15T17:44:38Z</time>
      </trkpt>
      <trkpt lat="36.51379" lon="-5.33928">
        <ele>644.901</ele>
        <time>2021-07-15T17:44:49Z</time>
      </trkpt>
      <trkpt lat="36.51371" lon="-5.3375">
        <ele>644.9451</ele>
        <time>2021-07-15T17:45:00Z</time>
      </trkpt>
      <trkpt lat="36.51331" lon="-5.33577">
        <ele>645.4064</ele>
        <time>2021-07-15T17:45:11Z</time>
      </trkpt>
      <trkpt lat="36.51375" lon="-5.33389">
        <ele>650.2197</ele>
        <time>2021-07-15T17:45:22Z</time>
      </trkpt>
      <trkpt lat="36.51487" lon="-5.33271">
        <ele>652.5735</ele>
        <time>2021-07-15T17:45:33Z</time>
      </trkpt>
      <trkpt lat="36.51648" lon="-5.33143">
        <ele>651.279</ele>
        <time>2021-07-15T17:45:44Z</time>
      </trkpt>
      <trkpt lat="36.51768" lon="-5.33034">
        <ele>648.9697</ele>
        <time>2021-07-15T17:45:55Z</time>
      </trkpt>
      <trkpt lat="36.51847" lon="-5.32839">
        <ele>644.2232</ele>
        <time>2021-07-15T17:46:06Z</time>
      </trkpt>
      <trkpt lat="36.5194" lon="-5.32682">
        <ele>637.2699</ele>
        <time>2021-07-15T17:46:17Z</time>
      </trkpt>
      <trkpt lat="36.52" lon="-5.32556">
        <ele>634.2118</ele>
        <time>2021-07-15T17:46:28Z</time>
      </trkpt>
      <trkpt lat="36.52008" lon="-5.32485">
        <ele>636.9083</ele>
        <time>2021-07-15T17:46:39Z</time>
      </trkpt>
      <trkpt lat="36.52033" lon="-5.32318">
        <ele>629.6237</ele>
        <time>2021-07-15T17:46:50Z</time>
      </trkpt>
      <trkpt lat="36.5211" lon="-5.32149">
        <ele>620.22</ele>
        <time>2021-07-15T17:47:01Z</time>
      </trkpt>
      <trkpt lat="36.52109" lon="-5.31953">
        <ele>614.2693</ele>
        <time>2021-07-15T17:47:12Z</time>
      </trkpt>
      <trkpt lat="36.52017" lon="-5.31805">
        <ele>607.5099</ele>
        <time>2021-07-15T17:47:23Z</time>
      </trkpt>
      <trkpt lat="36.52049" lon="-5.31666">
        <ele>607.9489</ele>
        <time>2021-07-15T17:47:34Z</time>
      </trkpt>
      <trkpt lat="36.52201" lon="-5.31593">
        <ele>612.7745</ele>
        <time>2021-07-15T17:47:45Z</time>
      </trkpt>
      <trkpt lat="36.52336" lon="-5.31499">
        <ele>618.5738</ele>
        <time>2021-07-15T17:47:56Z</time>
      </trkpt>
      <trkpt lat="36.52445" lon="-5.31329">
        <ele>621.2254</ele>
        <time>2021-07-15T17:48:07Z</time>
      </trkpt>
      <trkpt lat="36.52581" lon="-5.31173">
        <ele>634.5568</ele>
        <time>2021-07-15T17:48:18Z</time>
      </trkpt>
      <trkpt lat="36.52742" lon="-5.31063">
        <ele>646.4608</ele>
        <time>2021-07-15T17:48:29Z</time>
      </trkpt>
      <trkpt lat="36.52865" lon="-5.30936">
        <ele>662.2524</ele>
        <time>2021-07-15T17:48:40Z</time>
      </trkpt>
      <trkpt lat="36.52995" lon="-5.30771">
        <ele>676.1142</ele>
        <time>2021-07-15T17:48:51Z</time>
      </trkpt>
      <trkpt lat="36.53134" lon="-5.3064">
        <ele>688.4537</ele>
        <time>2021-07-15T17:49:02Z</time>
      </trkpt>
      <trkpt lat="36.53143" lon="-5.3043">
        <ele>702.9614</ele>
        <time>2021-07-15T17:49:13Z</time>
      </trkpt>
      <trkpt lat="36.53287" lon="-5.30317">
        <ele>718.718</ele>
        <time>2021-07-15T17:49:24Z</time>
      </trkpt>
      <trkpt lat="36.53397" lon="-5.30172">
        <ele>737.4</ele>
        <time>2021-07-15T17:49:35Z</time>
      </trkpt>
      <trkpt lat="36.53526" lon="-5.30193">
        <ele>749.5854</ele>
        <time>2021-07-15T17:49:46Z</time>
      </trkpt>
      <trkpt lat="36.53703" lon="-5.30168">
        <ele>761.7164</ele>
        <time>2021-07-15T17:49:57Z</time>
      </trkpt>
      <trkpt lat="36.5389" lon="-5.30119">
        <ele>774.723</ele>
        <time>2021-07-15T17:50:08Z</time>
      </trkpt>
      <trkpt lat="36.54045" lon="-5.30257">
        <ele>789.1804</ele>
        <time>2021-07-15T17:50:19Z</time>
      </trkpt>
      <trkpt lat="36.5421" lon="-5.302">
        <ele>796.7131</ele>
        <time>2021-07-15T17:50:30Z</time>
      </trkpt>
      <trkpt lat="36.54313" lon="-5.3006">
        <ele>791.1287</ele>
        <time>2021-07-15T17:50:41Z</time>
      </trkpt>
      <trkpt lat="36.54273" lon="-5.30033">
        <ele>793.655</ele>
        <time>2021-07-15T17:50:52Z</time>
      </trkpt>
      <trkpt lat="36.54177" lon="-5.30037">
        <ele>797.7595</ele>
        <time>2021-07-15T17:51:03Z</time>
      </trkpt>
      <trkpt lat="36.54104" lon="-5.3005">
        <ele>798.8569</ele>
        <time>2021-07-15T17:51:14Z</time>
      </trkpt>
      <trkpt lat="36.54022" lon="-5.30097">
        <ele>793.4649</ele>
        <time>2021-07-15T17:51:25Z</time>
      </trkpt>
      <trkpt lat="36.53952" lon="-5.30082">
        <ele>779.0671</ele>
        <time>2021-07-15T17:51:36Z</time>
      </trkpt>
      <trkpt lat="36.53893" lon="-5.30034">
        <ele>767.2739</ele>
        <time>2021-07-15T17:51:47Z</time>
      </trkpt>
      <trkpt lat="36.53881" lon="-5.29927">
        <ele>766.8861</ele>
        <time>2021-07-15T17:51:58Z</time>
      </trkpt>
      <trkpt lat="36.53846" lon="-5.29813">
        <ele>755.9904</ele>
        <time>2021-07-15T17:52:09Z</time>
      </trkpt>
      <trkpt lat="36.53825" lon="-5.29699">
        <ele>745.7753</ele>
        <time>2021-07-15T17:52:20Z</time>
      </trkpt>
      <trkpt lat="36.53823" lon="-5.29572">
        <ele>736.4524</ele>
        <time>2021-07-15T17:52:31Z</time>
      </trkpt>
      <trkpt lat="36.53834" lon="-5.29413">
        <ele>739.6305</ele>
        <time>2021-07-15T17:52:42Z</time>
      </trkpt>
      <trkpt lat="36.53786" lon="-5.29326">
        <ele>725.942</ele>
        <time>2021-07-15T17:52:53Z</time>
      </trkpt>
      <trkpt lat="36.5376" lon="-5.29217">
        <ele>718.2634</ele>
        <time>2021-07-15T17:53:04Z</time>
      </trkpt>
      <trkpt lat="36.53695" lon="-5.29216">
        <ele>707.4273</ele>
        <time>2021-07-15T17:53:15Z</time>
      </trkpt>
      <trkpt lat="36.53627" lon="-5.29259">
        <ele>698.084</ele>
        <time>2021-07-15T17:53:26Z</time>
      </trkpt>
      <trkpt lat="36.5358" lon="-5.29226">
        <ele>694.1159</ele>
        <time>2021-07-15T17:53:37Z</time>
      </trkpt>
      <trkpt lat="36.53529" lon="-5.29179">
        <ele>687.7895</ele>
        <time>2021-07-15T17:53:48Z</time>
      </trkpt>
      <trkpt lat="36.53474" lon="-5.29113">
        <ele>680.6283</ele>
        <time>2021-07-15T17:53:59Z</time>
      </trkpt>
      <trkpt lat="36.53415" lon="-5.29089">
        <ele>675.3075</ele>
        <time>2021-07-15T17:54:10Z</time>
      </trkpt>
      <trkpt lat="36.53356" lon="-5.29068">
        <ele>667.8427</ele>
        <time>2021-07-15T17:54:21Z</time>
      </trkpt>
      <trkpt lat="36.53311" lon="-5.28997">
        <ele>662.9631</ele>
        <time>2021-07-15T17:54:32Z</time>
      </trkpt>
      <trkpt lat="36.53254" lon="-5.28918">
        <ele>656.4016</ele>
        <time>2021-07-15T17:54:43Z</time>
      </trkpt>
      <trkpt lat="36.53263" lon="-5.2879">
        <ele>653.4605</ele>
        <time>2021-07-15T17:54:54Z</time>
      </trkpt>
      <trkpt lat="36.53252" lon="-5.28669">
        <ele>647.0493</ele>
        <time>2021-07-15T17:55:05Z</time>
      </trkpt>
      <trkpt lat="36.53271" lon="-5.28557">
        <ele>637.6019</ele>
        <time>2021-07-15T17:55:16Z</time>
      </trkpt>
      <trkpt lat="36.53256" lon="-5.28524">
        <ele>628.4389</ele>
        <time>2021-07-15T17:55:27Z</time>
      </trkpt>
      <trkpt lat="36.53347" lon="-5.28493">
        <ele>620.2331</ele>
        <time>2021-07-15T17:55:38Z</time>
      </trkpt>
      <trkpt lat="36.53365" lon="-5.28397">
        <ele>609.0454</ele>
        <time>2021-07-15T17:55:49Z</time>
      </trkpt>
      <trkpt lat="36.53323" lon="-5.28428">
        <ele>606.1185</ele>
        <time>2021-07-15T17:56:00Z</time>
      </trkpt>
      <trkpt lat="36.53335" lon="-5.28306">
        <ele>601.5438</ele>
        <time>2021-07-15T17:56:11Z</time>
      </trkpt>
      <trkpt lat="36.53294" lon="-5.28236">
        <ele>587.2467</ele>
        <time>2021-07-15T17:56:22Z</time>
      </trkpt>
      <trkpt lat="36.53345" lon="-5.28231">
        <ele>573.5366</ele>
        <time>2021-07-15T17:56:33Z</time>
      </trkpt>
      <trkpt lat="36.53421" lon="-5.28227">
        <ele>560.228</ele>
        <time>2021-07-15T17:56:44Z</time>
      </trkpt>
      <trkpt lat="36.5346" lon="-5.28101">
        <ele>557.6013</ele>
        <time>2021-07-15T17:56:55Z</time>
      </trkpt>
      <trkpt lat="36.53535" lon="-5.28033">
        <ele>556.138</ele>
        <time>2021-07-15T17:57:06Z</time>
      </trkpt>
      <trkpt lat="36.5362" lon="-5.27956">
        <ele>548.8247</ele>
        <time>2021-07-15T17:57:17Z</time>
      </trkpt>
      <trkpt lat="36.53627" lon="-5.27854">
        <ele>542.2503</ele>
        <time>2021-07-15T17:57:28Z</time>
      </trkpt>
      <trkpt lat="36.53696" lon="-5.27753">
        <ele>531.9866</ele>
        <time>2021-07-15T17:57:39Z</time>
      </trkpt>
      <trkpt lat="36.53729" lon="-5.27635">
        <ele>523.0963</ele>
        <time>2021-07-15T17:57:50Z</time>
      </trkpt>
      <trkpt lat="36.53772" lon="-5.27555">
        <ele>512.9107</ele>
        <time>2021-07-15T17:58:01Z</time>
      </trkpt>
      <trkpt lat="36.53724" lon="-5.27449">
        <ele>508.6698</ele>
        <time>2021-07-15T17:58:12Z</time>
      </trkpt>
      <trkpt lat="36.53669" lon="-5.2733">
        <ele>494.0918</ele>
        <time>2021-07-15T17:58:23Z</time>
      </trkpt>
      <trkpt lat="36.53627" lon="-5.27196">
        <ele>490.7151</ele>
        <time>2021-07-15T17:58:34Z</time>
      </trkpt>
      <trkpt lat="36.53551" lon="-5.27141">
        <ele>487.8839</ele>
        <time>2021-07-15T17:58:45Z</time>
      </trkpt>
      <trkpt lat="36.53484" lon="-5.27158">
        <ele>483.6132</ele>
        <time>2021-07-15T17:58:56Z</time>
      </trkpt>
      <trkpt lat="36.53445" lon="-5.27211">
        <ele>477.5671</ele>
        <time>2021-07-15T17:59:07Z</time>
      </trkpt>
      <trkpt lat="36.53481" lon="-5.27122">
        <ele>467.5075</ele>
        <time>2021-07-15T17:59:18Z</time>
      </trkpt>
      <trkpt lat="36.53492" lon="-5.27031">
        <ele>457.3324</ele>
        <time>2021-07-15T17:59:29Z</time>
      </trkpt>
      <trkpt lat="36.53557" lon="-5.27069">
        <ele>450.2218</ele>
        <time>2021-07-15T17:59:40Z</time>
      </trkpt>
      <trkpt lat="36.5363" lon="-5.27072">
        <ele>443.3485</ele>
        <time>2021-07-15T17:59:51Z</time>
      </trkpt>
      <trkpt lat="36.53732" lon="-5.27092">
        <ele>429.5593</ele>
        <time>2021-07-15T18:00:02Z</time>
      </trkpt>
      <trkpt lat="36.53727" lon="-5.27088">
        <ele>418.9376</ele>
        <time>2021-07-15T18:00:14Z</time>
      </trkpt>
      <trkpt lat="36.53748" lon="-5.27085">
        <ele>417.0438</ele>
        <time>2021-07-15T18:00:25Z</time>
      </trkpt>
      <trkpt lat="36.53676" lon="-5.27041">
        <ele>409.4624</ele>
        <time>2021-07-15T18:00:36Z</time>
      </trkpt>
      <trkpt lat="36.53602" lon="-5.26998">
        <ele>403.1126</ele>
        <time>2021-07-15T18:00:47Z</time>
      </trkpt>
      <trkpt lat="36.5359" lon="-5.26913">
        <ele>398.978</ele>
        <time>2021-07-15T18:00:58Z</time>
      </trkpt>
      <trkpt lat="36.53543" lon="-5.26804">
        <ele>389.4372</ele>
        <time>2021-07-15T18:01:09Z</time>
      </trkpt>
      <trkpt lat="36.53499" lon="-5.26685">
        <ele>378.3797</ele>
        <time>2021-07-15T18:01:20Z</time>
      </trkpt>
      <trkpt lat="36.53452" lon="-5.26585">
        <ele>370.1449</ele>
        <time>2021-07-15T18:01:31Z</time>
      </trkpt>
      <trkpt lat="36.53389" lon="-5.26499">
        <ele>364.0848</ele>
        <time>2021-07-15T18:01:42Z</time>
      </trkpt>
      <trkpt lat="36.53369" lon="-5.26398">
        <ele>358.746</ele>
        <time>2021-07-15T18:01:53Z</time>
      </trkpt>
      <trkpt lat="36.5335" lon="-5.26308">
        <ele>354.9121</ele>
        <time>2021-07-15T18:02:04Z</time>
      </trkpt>
      <trkpt lat="36.53229" lon="-5.26293">
        <ele>347.2606</ele>
        <time>2021-07-15T18:02:15Z</time>
      </trkpt>
      <trkpt lat="36.53176" lon="-5.26338">
        <ele>340.7617</ele>
        <time>2021-07-15T18:02:26Z</time>
      </trkpt>
      <trkpt lat="36.53226" lon="-5.26266">
        <ele>336.402</ele>
        <time>2021-07-15T18:02:37Z</time>
      </trkpt>
      <trkpt lat="36.53329" lon="-5.26257">
        <ele>328.9274</ele>
        <time>2021-07-15T18:02:48Z</time>
      </trkpt>
      <trkpt lat="36.53403" lon="-5.26269">
        <ele>323.179</ele>
        <time>2021-07-15T18:02:59Z</time>
      </trkpt>
      <trkpt lat="36.5346" lon="-5.26276">
        <ele>315.9426</ele>
        <time>2021-07-15T18:03:10Z</time>
      </trkpt>
      <trkpt lat="36.53526" lon="-5.26326">
        <ele>306.6206</ele>
        <time>2021-07-15T18:03:21Z</time>
      </trkpt>
      <trkpt lat="36.5356" lon="-5.26427">
        <ele>295.4083</ele>
        <time>2021-07-15T18:03:32Z</time>
      </trkpt>
      <trkpt lat="36.5362" lon="-5.26455">
        <ele>294.237</ele>
        <time>2021-07-15T18:03:43Z</time>
      </trkpt>
      <trkpt lat="36.53687" lon="-5.2656">
        <ele>287.6005</ele>
        <time>2021-07-15T18:03:54Z</time>
      </trkpt>
      <trkpt lat="36.53757" lon="-5.26665">
        <ele>283.0656</ele>
        <time>2021-07-15T18:04:05Z</time>
      </trkpt>
      <trkpt lat="36.53811" lon="-5.2672">
        <ele>276.7391</ele>
        <time>2021-07-15T18:04:16Z</time>
      </trkpt>
      <trkpt lat="36.53809" lon="-5.26716">
        <ele>273.0052</ele>
        <time>2021-07-15T18:04:27Z</time>
      </trkpt>
      <trkpt lat="36.53776" lon="-5.26622">
        <ele>270.9892</ele>
        <time>2021-07-15T18:04:38Z</time>
      </trkpt>
      <trkpt lat="36.53735" lon="-5.26516">
        <ele>272.7257</ele>
        <time>2021-07-15T18:04:49Z</time>
      </trkpt>
      <trkpt lat="36.53744" lon="-5.26382">
        <ele>264.1229</ele>
        <time>2021-07-15T18:05:00Z</time>
      </trkpt>
      <trkpt lat="36.53783" lon="-5.2627">
        <ele>254.6383</ele>
        <time>2021-07-15T18:05:11Z</time>
      </trkpt>
      <trkpt lat="36.53815" lon="-5.26157">
        <ele>245.7566</ele>
        <time>2021-07-15T18:05:22Z</time>
      </trkpt>
      <trkpt lat="36.53834" lon="-5.26049">
        <ele>232.915</ele>
        <time>2021-07-15T18:05:33Z</time>
      </trkpt>
      <trkpt lat="36.53848" lon="-5.25973">
        <ele>231.7882</ele>
        <time>2021-07-15T18:05:44Z</time>
      </trkpt>
      <trkpt lat="36.53927" lon="-5.25952">
        <ele>225.5177</ele>
        <time>2021-07-15T18:05:55Z</time>
      </trkpt>
      <trkpt lat="36.54003" lon="-5.2596">
        <ele>217.2219</ele>
        <time>2021-07-15T18:06:06Z</time>
      </trkpt>
      <trkpt lat="36.54058" lon="-5.26039">
        <ele>208.7073</ele>
        <time>2021-07-15T18:06:17Z</time>
      </trkpt>
      <trkpt lat="36.54129" lon="-5.26112">
        <ele>204.4759</ele>
        <time>2021-07-15T18:06:28Z</time>
      </trkpt>
      <trkpt lat="36.54212" lon="-5.26167">
        <ele>196.6913</ele>
        <time>2021-07-15T18:06:39Z</time>
      </trkpt>
      <trkpt lat="36.54288" lon="-5.26171">
        <ele>183.957</ele>
        <time>2021-07-15T18:06:50Z</time>
      </trkpt>
      <trkpt lat="36.54331" lon="-5.26184">
        <ele>177.4548</ele>
        <time>2021-07-15T18:07:01Z</time>
      </trkpt>
      <trkpt lat="36.5438" lon="-5.26116">
        <ele>178.4615</ele>
        <time>2021-07-15T18:07:12Z</time>
      </trkpt>
      <trkpt lat="36.54429" lon="-5.26123">
        <ele>185.8505</ele>
        <time>2021-07-15T18:07:23Z</time>
      </trkpt>
      <trkpt lat="36.54505" lon="-5.26142">
        <ele>210.8624</ele>
        <time>2021-07-15T18:07:34Z</time>
      </trkpt>
      <trkpt lat="36.54436" lon="-5.26171">
        <ele>231.5132</ele>
        <time>2021-07-15T18:07:45Z</time>
      </trkpt>
      <trkpt lat="36.54455" lon="-5.26284">
        <ele>263.8976</ele>
        <time>2021-07-15T18:07:56Z</time>
      </trkpt>
      <trkpt lat="36.54491" lon="-5.26273">
        <ele>257.1223</ele>
        <time>2021-07-15T18:08:07Z</time>
      </trkpt>
      <trkpt lat="36.54509" lon="-5.26196">
        <ele>251.3785</ele>
        <time>2021-07-15T18:08:18Z</time>
      </trkpt>
      <trkpt lat="36.54583" lon="-5.26129">
        <ele>238.5909</ele>
        <time>2021-07-15T18:08:29Z</time>
      </trkpt>
      <trkpt lat="36.54659" lon="-5.26118">
        <ele>229.1327</ele>
        <time>2021-07-15T18:08:40Z</time>
      </trkpt>
      <trkpt lat="36.54719" lon="-5.26035">
        <ele>218.8322</ele>
        <time>2021-07-15T18:08:51Z</time>
      </trkpt>
      <trkpt lat="36.54805" lon="-5.25958">
        <ele>200.2645</ele>
        <time>2021-07-15T18:09:02Z</time>
      </trkpt>
      <trkpt lat="36.54868" lon="-5.25872">
        <ele>189.9279</ele>
        <time>2021-07-15T18:09:13Z</time>
      </trkpt>
      <trkpt lat="36.54891" lon="-5.25831">
        <ele>192.5723</ele>
        <time>2021-07-15T18:09:24Z</time>
      </trkpt>
      <trkpt lat="36.54889" lon="-5.25825">
        <ele>193.0943</ele>
        <time>2021-07-15T18:09:35Z</time>
      </trkpt>
      <trkpt lat="36.54852" lon="-5.25794">
        <ele>191.0444</ele>
        <time>2021-07-15T18:09:46Z</time>
      </trkpt>
      <trkpt lat="36.54826" lon="-5.25773">
        <ele>189.9802</ele>
        <time>2021-07-15T18:09:57Z</time>
      </trkpt>
      <trkpt lat="36.54828" lon="-5.25776">
        <ele>188.4044</ele>
        <time>2021-07-15T18:10:25Z</time>
      </trkpt>
      <trkpt lat="36.54826" lon="-5.25775">
        <ele>186.5401</ele>
        <time>2021-07-15T18:11:24Z</time>
      </trkpt>
      <trkpt lat="36.54828" lon="-5.25768">
        <ele>186.176</ele>
        <time>2021-07-15T18:11:39Z</time>
      </trkpt>
      <trkpt lat="36.54828" lon="-5.25767">
        <ele>186.0183</ele>
        <time>2021-07-15T18:12:38Z</time>
      </trkpt>
      <trkpt lat="36.54825" lon="-5.25766">
        <ele>190.1032</ele>
        <time>2021-07-15T18:13:37Z</time>
      </trkpt>
      <trkpt lat="36.54826" lon="-5.25766">
        <ele>184.949</ele>
        <time>2021-07-15T18:14:37Z</time>
      </trkpt>
      <trkpt lat="36.54828" lon="-5.25769">
        <ele>187.853</ele>
        <time>2021-07-15T18:15:37Z</time>
      </trkpt>
      <trkpt lat="36.54827" lon="-5.25766">
        <ele>187.4944</ele>
        <time>2021-07-15T18:16:37Z</time>
      </trkpt>
      <trkpt lat="36.54828" lon="-5.25768">
        <ele>187.2861</ele>
        <time>2021-07-15T18:17:36Z</time>
      </trkpt>
      <trkpt lat="36.54827" lon="-5.25768">
        <ele>187.6916</ele>
        <time>2021-07-15T18:18:34Z</time>
      </trkpt>
      <trkpt lat="36.5482" lon="-5.25767">
        <ele>188.2121</ele>
        <time>2021-07-15T18:19:30Z</time>
      </trkpt>
      <trkpt lat="36.54766" lon="-5.25724">
        <ele>191.563</ele>
        <time>2021-07-15T18:19:41Z</time>
      </trkpt>
      <trkpt lat="36.548" lon="-5.25657">
        <ele>195.571</ele>
        <time>2021-07-15T18:19:52Z</time>
      </trkpt>
      <trkpt lat="36.54814" lon="-5.25641">
        <ele>200.4802</ele>
        <time>2021-07-15T18:20:03Z</time>
      </trkpt>
      <trkpt lat="36.54818" lon="-5.25636">
        <ele>202.2838</ele>
        <time>2021-07-15T18:20:14Z</time>
      </trkpt>
      <trkpt lat="36.54843" lon="-5.25606">
        <ele>201.2513</ele>
        <time>2021-07-15T18:20:25Z</time>
      </trkpt>
      <trkpt lat="36.54793" lon="-5.25546">
        <ele>211.0743</ele>
        <time>2021-07-15T18:20:36Z</time>
      </trkpt>
      <trkpt lat="36.54691" lon="-5.25499">
        <ele>218.7754</ele>
        <time>2021-07-15T18:20:47Z</time>
      </trkpt>
      <trkpt lat="36.5468" lon="-5.25374">
        <ele>225.478</ele>
        <time>2021-07-15T18:20:58Z</time>
      </trkpt>
      <trkpt lat="36.5466" lon="-5.25284">
        <ele>238.5909</ele>
        <time>2021-07-15T18:21:09Z</time>
      </trkpt>
      <trkpt lat="36.5461" lon="-5.25261">
        <ele>239.6038</ele>
        <time>2021-07-15T18:21:20Z</time>
      </trkpt>
      <trkpt lat="36.54531" lon="-5.25297">
        <ele>223.2524</ele>
        <time>2021-07-15T18:21:31Z</time>
      </trkpt>
      <trkpt lat="36.54536" lon="-5.25337">
        <ele>213.0723</ele>
        <time>2021-07-15T18:21:42Z</time>
      </trkpt>
      <trkpt lat="36.54583" lon="-5.25373">
        <ele>207.2614</ele>
        <time>2021-07-15T18:21:53Z</time>
      </trkpt>
      <trkpt lat="36.54583" lon="-5.25443">
        <ele>194.1333</ele>
        <time>2021-07-15T18:22:04Z</time>
      </trkpt>
      <trkpt lat="36.54555" lon="-5.25476">
        <ele>192.3787</ele>
        <time>2021-07-15T18:22:15Z</time>
      </trkpt>
      <trkpt lat="36.54593" lon="-5.25516">
        <ele>192.2459</ele>
        <time>2021-07-15T18:22:26Z</time>
      </trkpt>
      <trkpt lat="36.54616" lon="-5.25557">
        <ele>198.6178</ele>
        <time>2021-07-15T18:22:37Z</time>
      </trkpt>
      <trkpt lat="36.54625" lon="-5.25576">
        <ele>198.3317</ele>
        <time>2021-07-15T18:22:48Z</time>
      </trkpt>
      <trkpt lat="36.54623" lon="-5.25571">
        <ele>194.7883</ele>
        <time>2021-07-15T18:22:59Z</time>
      </trkpt>
      <trkpt lat="36.54592" lon="-5.2553">
        <ele>193.339</ele>
        <time>2021-07-15T18:23:10Z</time>
      </trkpt>
      <trkpt lat="36.54584" lon="-5.25538">
        <ele>195.865</ele>
        <time>2021-07-15T18:23:23Z</time>
      </trkpt>
      <trkpt lat="36.54509" lon="-5.25563">
        <ele>204.4025</ele>
        <time>2021-07-15T18:23:34Z</time>
      </trkpt>
      <trkpt lat="36.5454" lon="-5.25641">
        <ele>216.9092</ele>
        <time>2021-07-15T18:23:45Z</time>
      </trkpt>
      <trkpt lat="36.54598" lon="-5.25699">
        <ele>226.1339</ele>
        <time>2021-07-15T18:23:56Z</time>
      </trkpt>
      <trkpt lat="36.54534" lon="-5.25735">
        <ele>236.1876</ele>
        <time>2021-07-15T18:24:07Z</time>
      </trkpt>
      <trkpt lat="36.54424" lon="-5.25698">
        <ele>251.9168</ele>
        <time>2021-07-15T18:24:18Z</time>
      </trkpt>
      <trkpt lat="36.5436" lon="-5.25732">
        <ele>268.5975</ele>
        <time>2021-07-15T18:24:29Z</time>
      </trkpt>
      <trkpt lat="36.54264" lon="-5.25673">
        <ele>284.8291</ele>
        <time>2021-07-15T18:24:40Z</time>
      </trkpt>
      <trkpt lat="36.54229" lon="-5.25566">
        <ele>281.767</ele>
        <time>2021-07-15T18:24:51Z</time>
      </trkpt>
      <trkpt lat="36.54211" lon="-5.25467">
        <ele>298.3553</ele>
        <time>2021-07-15T18:25:02Z</time>
      </trkpt>
      <trkpt lat="36.54119" lon="-5.25371">
        <ele>314.298</ele>
        <time>2021-07-15T18:25:13Z</time>
      </trkpt>
      <trkpt lat="36.54064" lon="-5.25279">
        <ele>324.7077</ele>
        <time>2021-07-15T18:25:24Z</time>
      </trkpt>
      <trkpt lat="36.54001" lon="-5.25209">
        <ele>340.2809</ele>
        <time>2021-07-15T18:25:35Z</time>
      </trkpt>
      <trkpt lat="36.53964" lon="-5.25157">
        <ele>348.6971</ele>
        <time>2021-07-15T18:25:46Z</time>
      </trkpt>
      <trkpt lat="36.53968" lon="-5.25154">
        <ele>347.4025</ele>
        <time>2021-07-15T18:25:59Z</time>
      </trkpt>
      <trkpt lat="36.53922" lon="-5.25147">
        <ele>357.5074</ele>
        <time>2021-07-15T18:26:10Z</time>
      </trkpt>
      <trkpt lat="36.53869" lon="-5.25166">
        <ele>364.2477</ele>
        <time>2021-07-15T18:26:21Z</time>
      </trkpt>
      <trkpt lat="36.53802" lon="-5.25189">
        <ele>365.1822</ele>
        <time>2021-07-15T18:26:32Z</time>
      </trkpt>
      <trkpt lat="36.53701" lon="-5.25108">
        <ele>373.3612</ele>
        <time>2021-07-15T18:26:43Z</time>
      </trkpt>
      <trkpt lat="36.5372" lon="-5.25068">
        <ele>380.3844</ele>
        <time>2021-07-15T18:26:54Z</time>
      </trkpt>
      <trkpt lat="36.53725" lon="-5.25067">
        <ele>382.6296</ele>
        <time>2021-07-15T18:27:19Z</time>
      </trkpt>
      <trkpt lat="36.53723" lon="-5.25064">
        <ele>387.3503</ele>
        <time>2021-07-15T18:28:18Z</time>
      </trkpt>
      <trkpt lat="36.53723" lon="-5.25064">
        <ele>387.3503</ele>
        <time>2021-07-15T18:29:17Z</time>
      </trkpt>
      <trkpt lat="36.53723" lon="-5.25064">
        <ele>387.3503</ele>
        <time>2021-07-15T18:30:17Z</time>
      </trkpt>
      <trkpt lat="36.53728" lon="-5.25065">
        <ele>384.7692</ele>
        <time>2021-07-15T18:30:46Z</time>
      </trkpt>
      <trkpt lat="36.53764" lon="-5.25107">
        <ele>378.8797</ele>
        <time>2021-07-15T18:30:57Z</time>
      </trkpt>
      <trkpt lat="36.53781" lon="-5.25112">
        <ele>381.577</ele>
        <time>2021-07-15T18:31:08Z</time>
      </trkpt>
      <trkpt lat="36.53782" lon="-5.25116">
        <ele>381.0921</ele>
        <time>2021-07-15T18:32:08Z</time>
      </trkpt>
      <trkpt lat="36.53784" lon="-5.25114">
        <ele>379.3307</ele>
        <time>2021-07-15T18:33:07Z</time>
      </trkpt>
      <trkpt lat="36.53787" lon="-5.25111">
        <ele>380.0226</ele>
        <time>2021-07-15T18:33:28Z</time>
      </trkpt>
      <trkpt lat="36.53785" lon="-5.2511">
        <ele>384.2936</ele>
        <time>2021-07-15T18:34:27Z</time>
      </trkpt>
      <trkpt lat="36.53787" lon="-5.2511">
        <ele>383.0811</ele>
        <time>2021-07-15T18:35:26Z</time>
      </trkpt>
      <trkpt lat="36.53783" lon="-5.2511">
        <ele>379.7774</ele>
        <time>2021-07-15T18:36:16Z</time>
      </trkpt>
      <trkpt lat="36.53787" lon="-5.25109">
        <ele>378.8589</ele>
        <time>2021-07-15T18:36:29Z</time>
      </trkpt>
      <trkpt lat="36.53789" lon="-5.25111">
        <ele>384.5576</ele>
        <time>2021-07-15T18:37:29Z</time>
      </trkpt>
      <trkpt lat="36.53792" lon="-5.25109">
        <ele>383.0521</ele>
        <time>2021-07-15T18:37:42Z</time>
      </trkpt>
      <trkpt lat="36.53782" lon="-5.2511">
        <ele>380.4604</ele>
        <time>2021-07-15T18:37:53Z</time>
      </trkpt>
      <trkpt lat="36.53779" lon="-5.25108">
        <ele>381.8133</ele>
        <time>2021-07-15T18:38:33Z</time>
      </trkpt>
      <trkpt lat="36.53775" lon="-5.25105">
        <ele>382.2869</ele>
        <time>2021-07-15T18:38:44Z</time>
      </trkpt>
      <trkpt lat="36.53776" lon="-5.2511">
        <ele>377.5071</ele>
        <time>2021-07-15T18:38:55Z</time>
      </trkpt>
      <trkpt lat="36.53778" lon="-5.25114">
        <ele>381.3201</ele>
        <time>2021-07-15T18:39:09Z</time>
      </trkpt>
      <trkpt lat="36.53781" lon="-5.25111">
        <ele>380.5777</ele>
        <time>2021-07-15T18:39:28Z</time>
      </trkpt>
      <trkpt lat="36.53781" lon="-5.25116">
        <ele>377.5398</ele>
        <time>2021-07-15T18:39:53Z</time>
      </trkpt>
      <trkpt lat="36.5378" lon="-5.2511">
        <ele>382.7529</ele>
        <time>2021-07-15T18:40:09Z</time>
      </trkpt>
      <trkpt lat="36.53777" lon="-5.25109">
        <ele>381.7116</ele>
        <time>2021-07-15T18:41:08Z</time>
      </trkpt>
      <trkpt lat="36.53773" lon="-5.25107">
        <ele>380.0318</ele>
        <time>2021-07-15T18:41:52Z</time>
      </trkpt>
      <trkpt lat="36.53773" lon="-5.25111">
        <ele>377.5011</ele>
        <time>2021-07-15T18:42:40Z</time>
      </trkpt>
      <trkpt lat="36.53777" lon="-5.2511">
        <ele>379.035</ele>
        <time>2021-07-15T18:42:53Z</time>
      </trkpt>
      <trkpt lat="36.53781" lon="-5.25111">
        <ele>383.4484</ele>
        <time>2021-07-15T18:43:16Z</time>
      </trkpt>
      <trkpt lat="36.5378" lon="-5.25111">
        <ele>383.0322</ele>
        <time>2021-07-15T18:44:15Z</time>
      </trkpt>
      <trkpt lat="36.53776" lon="-5.2511">
        <ele>382.2449</ele>
        <time>2021-07-15T18:44:37Z</time>
      </trkpt>
      <trkpt lat="36.53777" lon="-5.25106">
        <ele>382.1102</ele>
        <time>2021-07-15T18:45:20Z</time>
      </trkpt>
      <trkpt lat="36.5378" lon="-5.25109">
        <ele>378.0841</ele>
        <time>2021-07-15T18:45:35Z</time>
      </trkpt>
      <trkpt lat="36.53778" lon="-5.2511">
        <ele>380.0071</ele>
        <time>2021-07-15T18:46:34Z</time>
      </trkpt>
      <trkpt lat="36.53782" lon="-5.2511">
        <ele>382.309</ele>
        <time>2021-07-15T18:47:12Z</time>
      </trkpt>
      <trkpt lat="36.53778" lon="-5.25109">
        <ele>381.7119</ele>
        <time>2021-07-15T18:47:54Z</time>
      </trkpt>
      <trkpt lat="36.53777" lon="-5.25112">
        <ele>380.5051</ele>
        <time>2021-07-15T18:48:53Z</time>
      </trkpt>
      <trkpt lat="36.53774" lon="-5.2511">
        <ele>379.5454</ele>
        <time>2021-07-15T18:49:15Z</time>
      </trkpt>
      <trkpt lat="36.53778" lon="-5.2511">
        <ele>383.2944</ele>
        <time>2021-07-15T18:49:44Z</time>
      </trkpt>
      <trkpt lat="36.53778" lon="-5.25111">
        <ele>378.4343</ele>
        <time>2021-07-15T18:50:42Z</time>
      </trkpt>
      <trkpt lat="36.53777" lon="-5.25108">
        <ele>379.8103</ele>
        <time>2021-07-15T18:51:40Z</time>
      </trkpt>
      <trkpt lat="36.53778" lon="-5.2511">
        <ele>383.0045</ele>
        <time>2021-07-15T18:52:39Z</time>
      </trkpt>
      <trkpt lat="36.5378" lon="-5.2511">
        <ele>383.5346</ele>
        <time>2021-07-15T18:53:38Z</time>
      </trkpt>
      <trkpt lat="36.53777" lon="-5.25109">
        <ele>381.2866</ele>
        <time>2021-07-15T18:54:37Z</time>
      </trkpt>
      <trkpt lat="36.53778" lon="-5.2511">
        <ele>381.7818</ele>
        <time>2021-07-15T18:55:36Z</time>
      </trkpt>
      <trkpt lat="36.53779" lon="-5.25109">
        <ele>380.009</ele>
        <time>2021-07-15T18:56:34Z</time>
      </trkpt>
      <trkpt lat="36.53775" lon="-5.25111">
        <ele>377.0845</ele>
        <time>2021-07-15T18:57:32Z</time>
      </trkpt>
      <trkpt lat="36.53779" lon="-5.2511">
        <ele>378.8921</ele>
        <time>2021-07-15T18:58:13Z</time>
      </trkpt>
      <trkpt lat="36.53775" lon="-5.25109">
        <ele>383.4896</ele>
        <time>2021-07-15T18:58:41Z</time>
      </trkpt>
      <trkpt lat="36.53772" lon="-5.25111">
        <ele>379.3006</ele>
        <time>2021-07-15T18:59:01Z</time>
      </trkpt>
      <trkpt lat="36.53776" lon="-5.25111">
        <ele>381.2549</ele>
        <time>2021-07-15T18:59:21Z</time>
      </trkpt>
      <trkpt lat="36.53779" lon="-5.25109">
        <ele>379.616</ele>
        <time>2021-07-15T18:59:41Z</time>
      </trkpt>
      <trkpt lat="36.53775" lon="-5.25108">
        <ele>378.2193</ele>
        <time>2021-07-15T18:59:57Z</time>
      </trkpt>
      <trkpt lat="36.53773" lon="-5.25104">
        <ele>380.514</ele>
        <time>2021-07-15T19:00:14Z</time>
      </trkpt>
      <trkpt lat="36.53775" lon="-5.25108">
        <ele>378.9038</ele>
        <time>2021-07-15T19:01:04Z</time>
      </trkpt>
      <trkpt lat="36.53778" lon="-5.25113">
        <ele>380.7561</ele>
        <time>2021-07-15T19:01:47Z</time>
      </trkpt>
      <trkpt lat="36.53781" lon="-5.25118">
        <ele>379.2217</ele>
        <time>2021-07-15T19:01:58Z</time>
      </trkpt>
      <trkpt lat="36.53785" lon="-5.25117">
        <ele>378.6274</ele>
        <time>2021-07-15T19:02:28Z</time>
      </trkpt>
      <trkpt lat="36.53783" lon="-5.25116">
        <ele>381.3019</ele>
        <time>2021-07-15T19:03:28Z</time>
      </trkpt>
      <trkpt lat="36.53783" lon="-5.25116">
        <ele>381.3019</ele>
        <time>2021-07-15T19:04:27Z</time>
      </trkpt>
      <trkpt lat="36.53779" lon="-5.25113">
        <ele>382.3403</ele>
        <time>2021-07-15T19:05:13Z</time>
      </trkpt>
      <trkpt lat="36.53788" lon="-5.25118">
        <ele>380.8819</ele>
        <time>2021-07-15T19:05:24Z</time>
      </trkpt>
      <trkpt lat="36.53791" lon="-5.25122">
        <ele>378.2638</ele>
        <time>2021-07-15T19:05:35Z</time>
      </trkpt>
      <trkpt lat="36.53794" lon="-5.25126">
        <ele>376.6895</ele>
        <time>2021-07-15T19:05:52Z</time>
      </trkpt>
      <trkpt lat="36.53791" lon="-5.25122">
        <ele>379.8144</ele>
        <time>2021-07-15T19:06:03Z</time>
      </trkpt>
      <trkpt lat="36.53785" lon="-5.25114">
        <ele>378.4226</ele>
        <time>2021-07-15T19:06:14Z</time>
      </trkpt>
      <trkpt lat="36.53776" lon="-5.2511">
        <ele>381.25</ele>
        <time>2021-07-15T19:06:25Z</time>
      </trkpt>
      <trkpt lat="36.5378" lon="-5.25108">
        <ele>380.7578</ele>
        <time>2021-07-15T19:07:21Z</time>
      </trkpt>
      <trkpt lat="36.53779" lon="-5.25106">
        <ele>383.3268</ele>
        <time>2021-07-15T19:08:19Z</time>
      </trkpt>
      <trkpt lat="36.53775" lon="-5.25108">
        <ele>381.392</ele>
        <time>2021-07-15T19:09:06Z</time>
      </trkpt>
      <trkpt lat="36.53772" lon="-5.2511">
        <ele>377.5513</ele>
        <time>2021-07-15T19:09:28Z</time>
      </trkpt>
      <trkpt lat="36.53773" lon="-5.25105">
        <ele>378.6551</ele>
        <time>2021-07-15T19:09:56Z</time>
      </trkpt>
      <trkpt lat="36.53777" lon="-5.25108">
        <ele>380.2739</ele>
        <time>2021-07-15T19:10:20Z</time>
      </trkpt>
      <trkpt lat="36.53775" lon="-5.25108">
        <ele>378.9143</ele>
        <time>2021-07-15T19:11:18Z</time>
      </trkpt>
      <trkpt lat="36.53773" lon="-5.25112">
        <ele>380.7895</ele>
        <time>2021-07-15T19:11:48Z</time>
      </trkpt>
      <trkpt lat="36.53772" lon="-5.25107">
        <ele>380.1024</ele>
        <time>2021-07-15T19:12:22Z</time>
      </trkpt>
      <trkpt lat="36.53775" lon="-5.25112">
        <ele>380.3651</ele>
        <time>2021-07-15T19:13:04Z</time>
      </trkpt>
      <trkpt lat="36.53781" lon="-5.25112">
        <ele>379.6841</ele>
        <time>2021-07-15T19:13:15Z</time>
      </trkpt>
      <trkpt lat="36.53777" lon="-5.25111">
        <ele>379.0206</ele>
        <time>2021-07-15T19:13:26Z</time>
      </trkpt>
      <trkpt lat="36.53774" lon="-5.2511">
        <ele>380.7191</ele>
        <time>2021-07-15T19:13:37Z</time>
      </trkpt>
      <trkpt lat="36.53779" lon="-5.25112">
        <ele>380.9037</ele>
        <time>2021-07-15T19:13:48Z</time>
      </trkpt>
      <trkpt lat="36.53783" lon="-5.2511">
        <ele>383.2575</ele>
        <time>2021-07-15T19:14:17Z</time>
      </trkpt>
      <trkpt lat="36.53779" lon="-5.2511">
        <ele>380.1342</ele>
        <time>2021-07-15T19:14:39Z</time>
      </trkpt>
      <trkpt lat="36.53779" lon="-5.25115">
        <ele>380.8776</ele>
        <time>2021-07-15T19:15:28Z</time>
      </trkpt>
    </trkseg>
  </trk>
  <trk>
    <name><![CDATA[Road trip fait P/E_10]]></name>
    <extensions>
      <line xmlns="http://www.topografix.com/GPX/gpx_style/0/2">
        <color>FFFF00</color>
        <width>4</width>
      </line>
    </extensions>
    <trkseg>
      <trkpt lat="36.53778" lon="-5.25115">
        <ele>381.1093</ele>
        <time>2021-07-15T19:16:06Z</time>
      </trkpt>
      <trkpt lat="36.53778" lon="-5.25115">
        <ele>381.1093</ele>
        <time>2021-07-15T19:16:06Z</time>
      </trkpt>
      <trkpt lat="36.53777" lon="-5.25102">
        <ele>380.3876</ele>
        <time>2021-07-16T07:34:43Z</time>
      </trkpt>
      <trkpt lat="36.53784" lon="-5.25121">
        <ele>377.9548</ele>
        <time>2021-07-16T07:34:54Z</time>
      </trkpt>
      <trkpt lat="36.53783" lon="-5.25126">
        <ele>374.3628</ele>
        <time>2021-07-16T07:35:05Z</time>
      </trkpt>
      <trkpt lat="36.53782" lon="-5.25121">
        <ele>376.7857</ele>
        <time>2021-07-16T07:35:16Z</time>
      </trkpt>
      <trkpt lat="36.53785" lon="-5.25124">
        <ele>381.5833</ele>
        <time>2021-07-16T07:35:31Z</time>
      </trkpt>
      <trkpt lat="36.53781" lon="-5.25124">
        <ele>384.3781</ele>
        <time>2021-07-16T07:35:49Z</time>
      </trkpt>
      <trkpt lat="36.53785" lon="-5.25122">
        <ele>377.4897</ele>
        <time>2021-07-16T07:36:09Z</time>
      </trkpt>
      <trkpt lat="36.53782" lon="-5.25125">
        <ele>380.9009</ele>
        <time>2021-07-16T07:37:08Z</time>
      </trkpt>
      <trkpt lat="36.53784" lon="-5.25121">
        <ele>377.4654</ele>
        <time>2021-07-16T07:37:51Z</time>
      </trkpt>
      <trkpt lat="36.5378" lon="-5.25118">
        <ele>379.366</ele>
        <time>2021-07-16T07:38:04Z</time>
      </trkpt>
      <trkpt lat="36.5377" lon="-5.25117">
        <ele>377.7773</ele>
        <time>2021-07-16T07:38:15Z</time>
      </trkpt>
      <trkpt lat="36.53767" lon="-5.25115">
        <ele>376.3986</ele>
        <time>2021-07-16T07:38:31Z</time>
      </trkpt>
      <trkpt lat="36.53762" lon="-5.25114">
        <ele>379.7023</ele>
        <time>2021-07-16T07:38:44Z</time>
      </trkpt>
      <trkpt lat="36.53737" lon="-5.25076">
        <ele>381.0467</ele>
        <time>2021-07-16T07:38:55Z</time>
      </trkpt>
      <trkpt lat="36.53733" lon="-5.25071">
        <ele>379.8904</ele>
        <time>2021-07-16T07:39:06Z</time>
      </trkpt>
      <trkpt lat="36.53726" lon="-5.25078">
        <ele>379.1357</ele>
        <time>2021-07-16T07:39:17Z</time>
      </trkpt>
      <trkpt lat="36.53723" lon="-5.25052">
        <ele>383.3549</ele>
        <time>2021-07-16T07:39:28Z</time>
      </trkpt>
      <trkpt lat="36.53719" lon="-5.25039">
        <ele>385.9843</ele>
        <time>2021-07-16T07:39:39Z</time>
      </trkpt>
      <trkpt lat="36.53717" lon="-5.25035">
        <ele>386.6285</ele>
        <time>2021-07-16T07:39:55Z</time>
      </trkpt>
      <trkpt lat="36.53668" lon="-5.24985">
        <ele>395.5752</ele>
        <time>2021-07-16T07:40:06Z</time>
      </trkpt>
      <trkpt lat="36.53592" lon="-5.24984">
        <ele>409.4825</ele>
        <time>2021-07-16T07:40:17Z</time>
      </trkpt>
      <trkpt lat="36.53543" lon="-5.24895">
        <ele>417.243</ele>
        <time>2021-07-16T07:40:28Z</time>
      </trkpt>
      <trkpt lat="36.53461" lon="-5.24843">
        <ele>414.1086</ele>
        <time>2021-07-16T07:40:39Z</time>
      </trkpt>
      <trkpt lat="36.53358" lon="-5.24848">
        <ele>422.2494</ele>
        <time>2021-07-16T07:40:50Z</time>
      </trkpt>
      <trkpt lat="36.53242" lon="-5.24839">
        <ele>436.0754</ele>
        <time>2021-07-16T07:41:01Z</time>
      </trkpt>
      <trkpt lat="36.53165" lon="-5.24856">
        <ele>442.7771</ele>
        <time>2021-07-16T07:41:12Z</time>
      </trkpt>
      <trkpt lat="36.5309" lon="-5.24859">
        <ele>442.9602</ele>
        <time>2021-07-16T07:41:23Z</time>
      </trkpt>
      <trkpt lat="36.53005" lon="-5.24815">
        <ele>439.8985</ele>
        <time>2021-07-16T07:41:34Z</time>
      </trkpt>
      <trkpt lat="36.5291" lon="-5.24815">
        <ele>430.7816</ele>
        <time>2021-07-16T07:41:45Z</time>
      </trkpt>
      <trkpt lat="36.5282" lon="-5.24719">
        <ele>428.3034</ele>
        <time>2021-07-16T07:41:56Z</time>
      </trkpt>
      <trkpt lat="36.5279" lon="-5.24653">
        <ele>431.5578</ele>
        <time>2021-07-16T07:42:07Z</time>
      </trkpt>
      <trkpt lat="36.52799" lon="-5.24571">
        <ele>420.241</ele>
        <time>2021-07-16T07:42:18Z</time>
      </trkpt>
      <trkpt lat="36.52738" lon="-5.24515">
        <ele>416.624</ele>
        <time>2021-07-16T07:42:29Z</time>
      </trkpt>
      <trkpt lat="36.52768" lon="-5.2444">
        <ele>410.885</ele>
        <time>2021-07-16T07:42:40Z</time>
      </trkpt>
      <trkpt lat="36.52672" lon="-5.24418">
        <ele>408.217</ele>
        <time>2021-07-16T07:42:51Z</time>
      </trkpt>
      <trkpt lat="36.52618" lon="-5.24364">
        <ele>404.7151</ele>
        <time>2021-07-16T07:43:02Z</time>
      </trkpt>
      <trkpt lat="36.52541" lon="-5.24362">
        <ele>407.8092</ele>
        <time>2021-07-16T07:43:13Z</time>
      </trkpt>
      <trkpt lat="36.52482" lon="-5.24354">
        <ele>408.5788</ele>
        <time>2021-07-16T07:43:24Z</time>
      </trkpt>
      <trkpt lat="36.52502" lon="-5.24282">
        <ele>407.7166</ele>
        <time>2021-07-16T07:43:35Z</time>
      </trkpt>
      <trkpt lat="36.52535" lon="-5.24199">
        <ele>394.0535</ele>
        <time>2021-07-16T07:43:46Z</time>
      </trkpt>
      <trkpt lat="36.52497" lon="-5.24125">
        <ele>392.9811</ele>
        <time>2021-07-16T07:43:57Z</time>
      </trkpt>
      <trkpt lat="36.5244" lon="-5.24075">
        <ele>405.8876</ele>
        <time>2021-07-16T07:44:08Z</time>
      </trkpt>
      <trkpt lat="36.52429" lon="-5.24007">
        <ele>412.861</ele>
        <time>2021-07-16T07:44:19Z</time>
      </trkpt>
      <trkpt lat="36.5238" lon="-5.23961">
        <ele>398.9278</ele>
        <time>2021-07-16T07:44:30Z</time>
      </trkpt>
      <trkpt lat="36.52358" lon="-5.23893">
        <ele>391.4715</ele>
        <time>2021-07-16T07:44:41Z</time>
      </trkpt>
      <trkpt lat="36.5231" lon="-5.23843">
        <ele>379.6797</ele>
        <time>2021-07-16T07:44:52Z</time>
      </trkpt>
      <trkpt lat="36.52262" lon="-5.23809">
        <ele>379.8336</ele>
        <time>2021-07-16T07:45:03Z</time>
      </trkpt>
      <trkpt lat="36.52326" lon="-5.23765">
        <ele>389.9166</ele>
        <time>2021-07-16T07:45:14Z</time>
      </trkpt>
      <trkpt lat="36.52404" lon="-5.23781">
        <ele>399.9352</ele>
        <time>2021-07-16T07:45:25Z</time>
      </trkpt>
      <trkpt lat="36.52459" lon="-5.2375">
        <ele>404.682</ele>
        <time>2021-07-16T07:45:36Z</time>
      </trkpt>
      <trkpt lat="36.52535" lon="-5.23786">
        <ele>385.5407</ele>
        <time>2021-07-16T07:45:47Z</time>
      </trkpt>
      <trkpt lat="36.52604" lon="-5.23785">
        <ele>374.7099</ele>
        <time>2021-07-16T07:45:58Z</time>
      </trkpt>
      <trkpt lat="36.52629" lon="-5.23689">
        <ele>354.7616</ele>
        <time>2021-07-16T07:46:09Z</time>
      </trkpt>
      <trkpt lat="36.52738" lon="-5.23633">
        <ele>315.1407</ele>
        <time>2021-07-16T07:46:20Z</time>
      </trkpt>
      <trkpt lat="36.52731" lon="-5.23683">
        <ele>348.0394</ele>
        <time>2021-07-16T07:46:31Z</time>
      </trkpt>
      <trkpt lat="36.52782" lon="-5.23624">
        <ele>337.9737</ele>
        <time>2021-07-16T07:46:42Z</time>
      </trkpt>
      <trkpt lat="36.52708" lon="-5.23603">
        <ele>321.7016</ele>
        <time>2021-07-16T07:46:53Z</time>
      </trkpt>
      <trkpt lat="36.5265" lon="-5.23544">
        <ele>310.4608</ele>
        <time>2021-07-16T07:47:04Z</time>
      </trkpt>
      <trkpt lat="36.52657" lon="-5.23451">
        <ele>313.6921</ele>
        <time>2021-07-16T07:47:15Z</time>
      </trkpt>
      <trkpt lat="36.52691" lon="-5.23346">
        <ele>320.7557</ele>
        <time>2021-07-16T07:47:26Z</time>
      </trkpt>
      <trkpt lat="36.52698" lon="-5.23234">
        <ele>326.968</ele>
        <time>2021-07-16T07:47:37Z</time>
      </trkpt>
      <trkpt lat="36.52657" lon="-5.23198">
        <ele>321.2624</ele>
        <time>2021-07-16T07:47:48Z</time>
      </trkpt>
      <trkpt lat="36.52532" lon="-5.23175">
        <ele>332.7609</ele>
        <time>2021-07-16T07:47:59Z</time>
      </trkpt>
      <trkpt lat="36.52458" lon="-5.23117">
        <ele>342.3689</ele>
        <time>2021-07-16T07:48:10Z</time>
      </trkpt>
      <trkpt lat="36.52431" lon="-5.23034">
        <ele>337.0674</ele>
        <time>2021-07-16T07:48:21Z</time>
      </trkpt>
      <trkpt lat="36.52431" lon="-5.22984">
        <ele>343.0002</ele>
        <time>2021-07-16T07:48:32Z</time>
      </trkpt>
      <trkpt lat="36.52494" lon="-5.23">
        <ele>343.1276</ele>
        <time>2021-07-16T07:48:43Z</time>
      </trkpt>
      <trkpt lat="36.52541" lon="-5.23024">
        <ele>352.5079</ele>
        <time>2021-07-16T07:48:54Z</time>
      </trkpt>
      <trkpt lat="36.52623" lon="-5.23038">
        <ele>359.2978</ele>
        <time>2021-07-16T07:49:05Z</time>
      </trkpt>
      <trkpt lat="36.52692" lon="-5.23029">
        <ele>366.1434</ele>
        <time>2021-07-16T07:49:16Z</time>
      </trkpt>
      <trkpt lat="36.52761" lon="-5.23035">
        <ele>373.0316</ele>
        <time>2021-07-16T07:49:27Z</time>
      </trkpt>
      <trkpt lat="36.52843" lon="-5.23068">
        <ele>369.7984</ele>
        <time>2021-07-16T07:49:38Z</time>
      </trkpt>
      <trkpt lat="36.52877" lon="-5.23151">
        <ele>382.0492</ele>
        <time>2021-07-16T07:49:49Z</time>
      </trkpt>
      <trkpt lat="36.52899" lon="-5.23128">
        <ele>398.4328</ele>
        <time>2021-07-16T07:50:00Z</time>
      </trkpt>
      <trkpt lat="36.52956" lon="-5.23067">
        <ele>405.0185</ele>
        <time>2021-07-16T07:50:11Z</time>
      </trkpt>
      <trkpt lat="36.53009" lon="-5.23039">
        <ele>408.0795</ele>
        <time>2021-07-16T07:50:22Z</time>
      </trkpt>
      <trkpt lat="36.53087" lon="-5.23017">
        <ele>399.4173</ele>
        <time>2021-07-16T07:50:33Z</time>
      </trkpt>
      <trkpt lat="36.53118" lon="-5.22926">
        <ele>399.8374</ele>
        <time>2021-07-16T07:50:44Z</time>
      </trkpt>
      <trkpt lat="36.53089" lon="-5.22861">
        <ele>402.1036</ele>
        <time>2021-07-16T07:50:55Z</time>
      </trkpt>
      <trkpt lat="36.53003" lon="-5.22826">
        <ele>415.4926</ele>
        <time>2021-07-16T07:51:06Z</time>
      </trkpt>
      <trkpt lat="36.52956" lon="-5.22784">
        <ele>413.5729</ele>
        <time>2021-07-16T07:51:17Z</time>
      </trkpt>
      <trkpt lat="36.52851" lon="-5.22755">
        <ele>411.9156</ele>
        <time>2021-07-16T07:51:28Z</time>
      </trkpt>
      <trkpt lat="36.5275" lon="-5.22625">
        <ele>333.9898</ele>
        <time>2021-07-16T07:51:39Z</time>
      </trkpt>
      <trkpt lat="36.52706" lon="-5.22597">
        <ele>437.3644</ele>
        <time>2021-07-16T07:51:50Z</time>
      </trkpt>
      <trkpt lat="36.52651" lon="-5.22598">
        <ele>446.8189</ele>
        <time>2021-07-16T07:52:01Z</time>
      </trkpt>
      <trkpt lat="36.52643" lon="-5.22515">
        <ele>448.6417</ele>
        <time>2021-07-16T07:52:12Z</time>
      </trkpt>
      <trkpt lat="36.52648" lon="-5.22456">
        <ele>451.9681</ele>
        <time>2021-07-16T07:52:23Z</time>
      </trkpt>
      <trkpt lat="36.52646" lon="-5.2239">
        <ele>446.6454</ele>
        <time>2021-07-16T07:52:34Z</time>
      </trkpt>
      <trkpt lat="36.52609" lon="-5.22305">
        <ele>449.7038</ele>
        <time>2021-07-16T07:52:45Z</time>
      </trkpt>
      <trkpt lat="36.52587" lon="-5.22239">
        <ele>455.2232</ele>
        <time>2021-07-16T07:52:56Z</time>
      </trkpt>
      <trkpt lat="36.52539" lon="-5.22177">
        <ele>456.0985</ele>
        <time>2021-07-16T07:53:07Z</time>
      </trkpt>
      <trkpt lat="36.52584" lon="-5.22171">
        <ele>459.0487</ele>
        <time>2021-07-16T07:53:18Z</time>
      </trkpt>
      <trkpt lat="36.52621" lon="-5.22177">
        <ele>460.1876</ele>
        <time>2021-07-16T07:53:29Z</time>
      </trkpt>
      <trkpt lat="36.5268" lon="-5.22183">
        <ele>462.437</ele>
        <time>2021-07-16T07:53:40Z</time>
      </trkpt>
      <trkpt lat="36.5268" lon="-5.221">
        <ele>468.2895</ele>
        <time>2021-07-16T07:53:51Z</time>
      </trkpt>
      <trkpt lat="36.52723" lon="-5.21995">
        <ele>467.5626</ele>
        <time>2021-07-16T07:54:02Z</time>
      </trkpt>
      <trkpt lat="36.52711" lon="-5.21911">
        <ele>463.4864</ele>
        <time>2021-07-16T07:54:13Z</time>
      </trkpt>
      <trkpt lat="36.52705" lon="-5.21837">
        <ele>460.4551</ele>
        <time>2021-07-16T07:54:24Z</time>
      </trkpt>
      <trkpt lat="36.5276" lon="-5.2182">
        <ele>460.0844</ele>
        <time>2021-07-16T07:54:35Z</time>
      </trkpt>
      <trkpt lat="36.52835" lon="-5.21773">
        <ele>458.1266</ele>
        <time>2021-07-16T07:54:46Z</time>
      </trkpt>
      <trkpt lat="36.52845" lon="-5.2169">
        <ele>450.6883</ele>
        <time>2021-07-16T07:54:57Z</time>
      </trkpt>
      <trkpt lat="36.52884" lon="-5.2161">
        <ele>453.3491</ele>
        <time>2021-07-16T07:55:08Z</time>
      </trkpt>
      <trkpt lat="36.52875" lon="-5.21568">
        <ele>455.5956</ele>
        <time>2021-07-16T07:55:19Z</time>
      </trkpt>
      <trkpt lat="36.52793" lon="-5.21537">
        <ele>456.3207</ele>
        <time>2021-07-16T07:55:30Z</time>
      </trkpt>
      <trkpt lat="36.52696" lon="-5.21501">
        <ele>459.2982</ele>
        <time>2021-07-16T07:55:41Z</time>
      </trkpt>
      <trkpt lat="36.5265" lon="-5.21464">
        <ele>464.1091</ele>
        <time>2021-07-16T07:55:52Z</time>
      </trkpt>
      <trkpt lat="36.52617" lon="-5.21386">
        <ele>463.1062</ele>
        <time>2021-07-16T07:56:03Z</time>
      </trkpt>
      <trkpt lat="36.52528" lon="-5.21359">
        <ele>467.6588</ele>
        <time>2021-07-16T07:56:14Z</time>
      </trkpt>
      <trkpt lat="36.525" lon="-5.213">
        <ele>468.4322</ele>
        <time>2021-07-16T07:56:25Z</time>
      </trkpt>
      <trkpt lat="36.52436" lon="-5.21318">
        <ele>468.8911</ele>
        <time>2021-07-16T07:56:36Z</time>
      </trkpt>
      <trkpt lat="36.52386" lon="-5.21301">
        <ele>477.1649</ele>
        <time>2021-07-16T07:56:47Z</time>
      </trkpt>
      <trkpt lat="36.52303" lon="-5.21247">
        <ele>474.8935</ele>
        <time>2021-07-16T07:56:58Z</time>
      </trkpt>
      <trkpt lat="36.52218" lon="-5.21257">
        <ele>474.0783</ele>
        <time>2021-07-16T07:57:09Z</time>
      </trkpt>
      <trkpt lat="36.52226" lon="-5.21205">
        <ele>473.9386</ele>
        <time>2021-07-16T07:57:20Z</time>
      </trkpt>
      <trkpt lat="36.52298" lon="-5.21128">
        <ele>457.6034</ele>
        <time>2021-07-16T07:57:31Z</time>
      </trkpt>
      <trkpt lat="36.52315" lon="-5.21021">
        <ele>465.5747</ele>
        <time>2021-07-16T07:57:42Z</time>
      </trkpt>
      <trkpt lat="36.52296" lon="-5.20891">
        <ele>460.831</ele>
        <time>2021-07-16T07:57:53Z</time>
      </trkpt>
      <trkpt lat="36.52247" lon="-5.2085">
        <ele>454.068</ele>
        <time>2021-07-16T07:58:04Z</time>
      </trkpt>
      <trkpt lat="36.52202" lon="-5.20861">
        <ele>448.5424</ele>
        <time>2021-07-16T07:58:15Z</time>
      </trkpt>
      <trkpt lat="36.52197" lon="-5.20854">
        <ele>449.499</ele>
        <time>2021-07-16T07:58:26Z</time>
      </trkpt>
      <trkpt lat="36.52196" lon="-5.20855">
        <ele>449.2561</ele>
        <time>2021-07-16T07:59:26Z</time>
      </trkpt>
      <trkpt lat="36.52199" lon="-5.20858">
        <ele>450.8092</ele>
        <time>2021-07-16T07:59:45Z</time>
      </trkpt>
      <trkpt lat="36.52198" lon="-5.20855">
        <ele>452.9606</ele>
        <time>2021-07-16T08:00:45Z</time>
      </trkpt>
      <trkpt lat="36.5223" lon="-5.20804">
        <ele>445.1817</ele>
        <time>2021-07-16T08:00:56Z</time>
      </trkpt>
      <trkpt lat="36.52313" lon="-5.20733">
        <ele>447.0485</ele>
        <time>2021-07-16T08:01:07Z</time>
      </trkpt>
      <trkpt lat="36.52382" lon="-5.20697">
        <ele>464.425</ele>
        <time>2021-07-16T08:01:18Z</time>
      </trkpt>
      <trkpt lat="36.52418" lon="-5.20759">
        <ele>467.6188</ele>
        <time>2021-07-16T08:01:29Z</time>
      </trkpt>
      <trkpt lat="36.52417" lon="-5.20873">
        <ele>465.9057</ele>
        <time>2021-07-16T08:01:40Z</time>
      </trkpt>
      <trkpt lat="36.52473" lon="-5.20978">
        <ele>465.0896</ele>
        <time>2021-07-16T08:01:51Z</time>
      </trkpt>
      <trkpt lat="36.52544" lon="-5.21023">
        <ele>470.4073</ele>
        <time>2021-07-16T08:02:02Z</time>
      </trkpt>
      <trkpt lat="36.52616" lon="-5.21057">
        <ele>470.7278</ele>
        <time>2021-07-16T08:02:13Z</time>
      </trkpt>
      <trkpt lat="36.52674" lon="-5.21071">
        <ele>476.7179</ele>
        <time>2021-07-16T08:02:24Z</time>
      </trkpt>
      <trkpt lat="36.5273" lon="-5.21183">
        <ele>480.6011</ele>
        <time>2021-07-16T08:02:35Z</time>
      </trkpt>
      <trkpt lat="36.52835" lon="-5.21175">
        <ele>487.0914</ele>
        <time>2021-07-16T08:02:46Z</time>
      </trkpt>
      <trkpt lat="36.52867" lon="-5.21239">
        <ele>493.1813</ele>
        <time>2021-07-16T08:02:57Z</time>
      </trkpt>
      <trkpt lat="36.52965" lon="-5.21128">
        <ele>497.3244</ele>
        <time>2021-07-16T08:03:08Z</time>
      </trkpt>
      <trkpt lat="36.52986" lon="-5.20992">
        <ele>503.7764</ele>
        <time>2021-07-16T08:03:19Z</time>
      </trkpt>
      <trkpt lat="36.53077" lon="-5.20906">
        <ele>508.1798</ele>
        <time>2021-07-16T08:03:30Z</time>
      </trkpt>
      <trkpt lat="36.53083" lon="-5.2076">
        <ele>513.3465</ele>
        <time>2021-07-16T08:03:41Z</time>
      </trkpt>
      <trkpt lat="36.52993" lon="-5.207">
        <ele>521.7395</ele>
        <time>2021-07-16T08:03:52Z</time>
      </trkpt>
      <trkpt lat="36.52994" lon="-5.20553">
        <ele>531.2364</ele>
        <time>2021-07-16T08:04:03Z</time>
      </trkpt>
      <trkpt lat="36.52936" lon="-5.20444">
        <ele>536.5607</ele>
        <time>2021-07-16T08:04:14Z</time>
      </trkpt>
      <trkpt lat="36.52873" lon="-5.20352">
        <ele>542.9975</ele>
        <time>2021-07-16T08:04:25Z</time>
      </trkpt>
      <trkpt lat="36.52792" lon="-5.20258">
        <ele>558.0107</ele>
        <time>2021-07-16T08:04:36Z</time>
      </trkpt>
      <trkpt lat="36.52847" lon="-5.20173">
        <ele>561.0827</ele>
        <time>2021-07-16T08:04:47Z</time>
      </trkpt>
      <trkpt lat="36.52845" lon="-5.20072">
        <ele>561.9376</ele>
        <time>2021-07-16T08:04:58Z</time>
      </trkpt>
      <trkpt lat="36.52946" lon="-5.2005">
        <ele>569.8805</ele>
        <time>2021-07-16T08:05:09Z</time>
      </trkpt>
      <trkpt lat="36.53023" lon="-5.20084">
        <ele>584.5126</ele>
        <time>2021-07-16T08:05:20Z</time>
      </trkpt>
      <trkpt lat="36.53075" lon="-5.20162">
        <ele>589.9366</ele>
        <time>2021-07-16T08:05:31Z</time>
      </trkpt>
      <trkpt lat="36.53086" lon="-5.20077">
        <ele>595.9481</ele>
        <time>2021-07-16T08:05:42Z</time>
      </trkpt>
      <trkpt lat="36.53034" lon="-5.2001">
        <ele>596.965</ele>
        <time>2021-07-16T08:05:53Z</time>
      </trkpt>
      <trkpt lat="36.53055" lon="-5.20049">
        <ele>596.0334</ele>
        <time>2021-07-16T08:06:04Z</time>
      </trkpt>
      <trkpt lat="36.53091" lon="-5.2016">
        <ele>588.4396</ele>
        <time>2021-07-16T08:06:15Z</time>
      </trkpt>
      <trkpt lat="36.53017" lon="-5.20109">
        <ele>585.614</ele>
        <time>2021-07-16T08:06:26Z</time>
      </trkpt>
      <trkpt lat="36.52958" lon="-5.20045">
        <ele>575.9187</ele>
        <time>2021-07-16T08:06:37Z</time>
      </trkpt>
      <trkpt lat="36.52891" lon="-5.2006">
        <ele>564.0919</ele>
        <time>2021-07-16T08:06:48Z</time>
      </trkpt>
      <trkpt lat="36.52951" lon="-5.20071">
        <ele>552.9439</ele>
        <time>2021-07-16T08:06:59Z</time>
      </trkpt>
      <trkpt lat="36.52982" lon="-5.20112">
        <ele>553.7862</ele>
        <time>2021-07-16T08:07:10Z</time>
      </trkpt>
      <trkpt lat="36.52997" lon="-5.20224">
        <ele>546.5144</ele>
        <time>2021-07-16T08:07:21Z</time>
      </trkpt>
      <trkpt lat="36.53056" lon="-5.20276">
        <ele>531.9871</ele>
        <time>2021-07-16T08:07:32Z</time>
      </trkpt>
      <trkpt lat="36.5312" lon="-5.20306">
        <ele>536.8666</ele>
        <time>2021-07-16T08:07:43Z</time>
      </trkpt>
      <trkpt lat="36.53174" lon="-5.20337">
        <ele>531.6735</ele>
        <time>2021-07-16T08:07:54Z</time>
      </trkpt>
      <trkpt lat="36.53213" lon="-5.20248">
        <ele>519.7474</ele>
        <time>2021-07-16T08:08:05Z</time>
      </trkpt>
      <trkpt lat="36.53252" lon="-5.20225">
        <ele>521.4406</ele>
        <time>2021-07-16T08:08:16Z</time>
      </trkpt>
      <trkpt lat="36.53287" lon="-5.20159">
        <ele>502.5124</ele>
        <time>2021-07-16T08:08:27Z</time>
      </trkpt>
      <trkpt lat="36.53328" lon="-5.20063">
        <ele>500.9216</ele>
        <time>2021-07-16T08:08:38Z</time>
      </trkpt>
      <trkpt lat="36.53235" lon="-5.19999">
        <ele>487.5302</ele>
        <time>2021-07-16T08:08:49Z</time>
      </trkpt>
      <trkpt lat="36.53236" lon="-5.19931">
        <ele>489.7035</ele>
        <time>2021-07-16T08:09:00Z</time>
      </trkpt>
      <trkpt lat="36.53264" lon="-5.19811">
        <ele>473.869</ele>
        <time>2021-07-16T08:09:11Z</time>
      </trkpt>
      <trkpt lat="36.53295" lon="-5.19758">
        <ele>468.5832</ele>
        <time>2021-07-16T08:09:22Z</time>
      </trkpt>
      <trkpt lat="36.53326" lon="-5.19692">
        <ele>471.0205</ele>
        <time>2021-07-16T08:09:33Z</time>
      </trkpt>
      <trkpt lat="36.53369" lon="-5.19628">
        <ele>468.6442</ele>
        <time>2021-07-16T08:09:44Z</time>
      </trkpt>
      <trkpt lat="36.53392" lon="-5.19583">
        <ele>481.1853</ele>
        <time>2021-07-16T08:09:55Z</time>
      </trkpt>
      <trkpt lat="36.53398" lon="-5.19689">
        <ele>499.278</ele>
        <time>2021-07-16T08:10:06Z</time>
      </trkpt>
      <trkpt lat="36.53436" lon="-5.1979">
        <ele>501.4588</ele>
        <time>2021-07-16T08:10:17Z</time>
      </trkpt>
      <trkpt lat="36.53462" lon="-5.19864">
        <ele>479.1596</ele>
        <time>2021-07-16T08:10:28Z</time>
      </trkpt>
      <trkpt lat="36.53569" lon="-5.19926">
        <ele>463.6831</ele>
        <time>2021-07-16T08:10:39Z</time>
      </trkpt>
      <trkpt lat="36.53642" lon="-5.19996">
        <ele>467.3497</ele>
        <time>2021-07-16T08:10:50Z</time>
      </trkpt>
      <trkpt lat="36.53718" lon="-5.19987">
        <ele>479.2861</ele>
        <time>2021-07-16T08:11:01Z</time>
      </trkpt>
      <trkpt lat="36.53781" lon="-5.19903">
        <ele>478.9094</ele>
        <time>2021-07-16T08:11:12Z</time>
      </trkpt>
      <trkpt lat="36.53869" lon="-5.19838">
        <ele>464.3563</ele>
        <time>2021-07-16T08:11:23Z</time>
      </trkpt>
      <trkpt lat="36.53968" lon="-5.19768">
        <ele>462.5662</ele>
        <time>2021-07-16T08:11:34Z</time>
      </trkpt>
      <trkpt lat="36.5407" lon="-5.19673">
        <ele>465.5863</ele>
        <time>2021-07-16T08:11:45Z</time>
      </trkpt>
      <trkpt lat="36.54141" lon="-5.19619">
        <ele>470.0774</ele>
        <time>2021-07-16T08:11:56Z</time>
      </trkpt>
      <trkpt lat="36.5424" lon="-5.19587">
        <ele>476.8704</ele>
        <time>2021-07-16T08:12:07Z</time>
      </trkpt>
      <trkpt lat="36.54329" lon="-5.19518">
        <ele>483.7932</ele>
        <time>2021-07-16T08:12:18Z</time>
      </trkpt>
      <trkpt lat="36.54369" lon="-5.19559">
        <ele>490.3158</ele>
        <time>2021-07-16T08:12:29Z</time>
      </trkpt>
      <trkpt lat="36.54447" lon="-5.19513">
        <ele>496.9807</ele>
        <time>2021-07-16T08:12:40Z</time>
      </trkpt>
      <trkpt lat="36.54484" lon="-5.19402">
        <ele>505.415</ele>
        <time>2021-07-16T08:12:51Z</time>
      </trkpt>
      <trkpt lat="36.54576" lon="-5.19349">
        <ele>507.2785</ele>
        <time>2021-07-16T08:13:02Z</time>
      </trkpt>
      <trkpt lat="36.54668" lon="-5.1933">
        <ele>516.2353</ele>
        <time>2021-07-16T08:13:13Z</time>
      </trkpt>
      <trkpt lat="36.54728" lon="-5.19325">
        <ele>513.8694</ele>
        <time>2021-07-16T08:13:24Z</time>
      </trkpt>
      <trkpt lat="36.54707" lon="-5.19402">
        <ele>521.3991</ele>
        <time>2021-07-16T08:13:35Z</time>
      </trkpt>
      <trkpt lat="36.54666" lon="-5.19424">
        <ele>519.06</ele>
        <time>2021-07-16T08:13:46Z</time>
      </trkpt>
      <trkpt lat="36.54644" lon="-5.19429">
        <ele>524.9787</ele>
        <time>2021-07-16T08:13:57Z</time>
      </trkpt>
      <trkpt lat="36.54637" lon="-5.19429">
        <ele>523.0337</ele>
        <time>2021-07-16T08:14:08Z</time>
      </trkpt>
      <trkpt lat="36.54656" lon="-5.19421">
        <ele>524.4382</ele>
        <time>2021-07-16T08:14:19Z</time>
      </trkpt>
      <trkpt lat="36.54733" lon="-5.19364">
        <ele>522.0225</ele>
        <time>2021-07-16T08:14:30Z</time>
      </trkpt>
      <trkpt lat="36.54757" lon="-5.19273">
        <ele>534.7321</ele>
        <time>2021-07-16T08:14:41Z</time>
      </trkpt>
      <trkpt lat="36.54841" lon="-5.19268">
        <ele>550.609</ele>
        <time>2021-07-16T08:14:52Z</time>
      </trkpt>
      <trkpt lat="36.54796" lon="-5.19235">
        <ele>551.1537</ele>
        <time>2021-07-16T08:15:03Z</time>
      </trkpt>
      <trkpt lat="36.54782" lon="-5.19197">
        <ele>555.3506</ele>
        <time>2021-07-16T08:15:14Z</time>
      </trkpt>
      <trkpt lat="36.54848" lon="-5.19212">
        <ele>560.9026</ele>
        <time>2021-07-16T08:15:25Z</time>
      </trkpt>
      <trkpt lat="36.54915" lon="-5.19171">
        <ele>570.8556</ele>
        <time>2021-07-16T08:15:36Z</time>
      </trkpt>
      <trkpt lat="36.54988" lon="-5.19132">
        <ele>585.6318</ele>
        <time>2021-07-16T08:15:47Z</time>
      </trkpt>
      <trkpt lat="36.55055" lon="-5.192">
        <ele>580.5961</ele>
        <time>2021-07-16T08:15:58Z</time>
      </trkpt>
      <trkpt lat="36.5506" lon="-5.19088">
        <ele>590.2145</ele>
        <time>2021-07-16T08:16:09Z</time>
      </trkpt>
      <trkpt lat="36.55157" lon="-5.19077">
        <ele>602.5949</ele>
        <time>2021-07-16T08:16:20Z</time>
      </trkpt>
      <trkpt lat="36.5516" lon="-5.19078">
        <ele>619.3946</ele>
        <time>2021-07-16T08:16:45Z</time>
      </trkpt>
      <trkpt lat="36.55164" lon="-5.19078">
        <ele>620.7763</ele>
        <time>2021-07-16T08:17:22Z</time>
      </trkpt>
      <trkpt lat="36.55189" lon="-5.1908">
        <ele>616.4821</ele>
        <time>2021-07-16T08:17:33Z</time>
      </trkpt>
      <trkpt lat="36.55264" lon="-5.19034">
        <ele>605.8219</ele>
        <time>2021-07-16T08:17:44Z</time>
      </trkpt>
      <trkpt lat="36.55226" lon="-5.19017">
        <ele>610.5233</ele>
        <time>2021-07-16T08:17:55Z</time>
      </trkpt>
      <trkpt lat="36.55119" lon="-5.18951">
        <ele>618.5828</ele>
        <time>2021-07-16T08:18:06Z</time>
      </trkpt>
      <trkpt lat="36.55038" lon="-5.18874">
        <ele>619.7372</ele>
        <time>2021-07-16T08:18:17Z</time>
      </trkpt>
      <trkpt lat="36.54957" lon="-5.18853">
        <ele>630.8114</ele>
        <time>2021-07-16T08:18:28Z</time>
      </trkpt>
      <trkpt lat="36.54955" lon="-5.18846">
        <ele>630.6508</ele>
        <time>2021-07-16T08:19:25Z</time>
      </trkpt>
      <trkpt lat="36.54954" lon="-5.18841">
        <ele>631.5117</ele>
        <time>2021-07-16T08:19:50Z</time>
      </trkpt>
      <trkpt lat="36.54972" lon="-5.18841">
        <ele>633.9561</ele>
        <time>2021-07-16T08:20:01Z</time>
      </trkpt>
      <trkpt lat="36.5498" lon="-5.18843">
        <ele>633.2746</ele>
        <time>2021-07-16T08:20:12Z</time>
      </trkpt>
      <trkpt lat="36.54997" lon="-5.1884">
        <ele>634.6841</ele>
        <time>2021-07-16T08:20:23Z</time>
      </trkpt>
      <trkpt lat="36.55121" lon="-5.18836">
        <ele>641.5367</ele>
        <time>2021-07-16T08:20:34Z</time>
      </trkpt>
      <trkpt lat="36.552" lon="-5.1888">
        <ele>652.6942</ele>
        <time>2021-07-16T08:20:45Z</time>
      </trkpt>
      <trkpt lat="36.55287" lon="-5.18877">
        <ele>659.7256</ele>
        <time>2021-07-16T08:20:56Z</time>
      </trkpt>
      <trkpt lat="36.55374" lon="-5.18808">
        <ele>659.2521</ele>
        <time>2021-07-16T08:21:07Z</time>
      </trkpt>
      <trkpt lat="36.55426" lon="-5.18833">
        <ele>667.4441</ele>
        <time>2021-07-16T08:21:18Z</time>
      </trkpt>
      <trkpt lat="36.55521" lon="-5.18874">
        <ele>678.1826</ele>
        <time>2021-07-16T08:21:29Z</time>
      </trkpt>
      <trkpt lat="36.55609" lon="-5.18908">
        <ele>684.3339</ele>
        <time>2021-07-16T08:21:40Z</time>
      </trkpt>
      <trkpt lat="36.55619" lon="-5.18838">
        <ele>694.0374</ele>
        <time>2021-07-16T08:21:51Z</time>
      </trkpt>
      <trkpt lat="36.5553" lon="-5.18805">
        <ele>701.9462</ele>
        <time>2021-07-16T08:22:02Z</time>
      </trkpt>
      <trkpt lat="36.55447" lon="-5.18733">
        <ele>714.9326</ele>
        <time>2021-07-16T08:22:13Z</time>
      </trkpt>
      <trkpt lat="36.55447" lon="-5.18705">
        <ele>722.0482</ele>
        <time>2021-07-16T08:22:24Z</time>
      </trkpt>
      <trkpt lat="36.5555" lon="-5.18747">
        <ele>728.4193</ele>
        <time>2021-07-16T08:22:35Z</time>
      </trkpt>
      <trkpt lat="36.55673" lon="-5.18665">
        <ele>728.5678</ele>
        <time>2021-07-16T08:22:46Z</time>
      </trkpt>
      <trkpt lat="36.55764" lon="-5.18522">
        <ele>744.8626</ele>
        <time>2021-07-16T08:22:57Z</time>
      </trkpt>
      <trkpt lat="36.5583" lon="-5.18381">
        <ele>753.508</ele>
        <time>2021-07-16T08:23:08Z</time>
      </trkpt>
      <trkpt lat="36.55873" lon="-5.1827">
        <ele>759.0539</ele>
        <time>2021-07-16T08:23:19Z</time>
      </trkpt>
      <trkpt lat="36.55926" lon="-5.18193">
        <ele>757.9559</ele>
        <time>2021-07-16T08:23:30Z</time>
      </trkpt>
      <trkpt lat="36.55957" lon="-5.18006">
        <ele>760.6236</ele>
        <time>2021-07-16T08:23:41Z</time>
      </trkpt>
      <trkpt lat="36.55991" lon="-5.1784">
        <ele>767.1287</ele>
        <time>2021-07-16T08:23:52Z</time>
      </trkpt>
      <trkpt lat="36.56033" lon="-5.17872">
        <ele>773.1576</ele>
        <time>2021-07-16T08:24:03Z</time>
      </trkpt>
      <trkpt lat="36.56067" lon="-5.17986">
        <ele>773.9676</ele>
        <time>2021-07-16T08:24:14Z</time>
      </trkpt>
      <trkpt lat="36.56078" lon="-5.18099">
        <ele>781.1403</ele>
        <time>2021-07-16T08:24:25Z</time>
      </trkpt>
      <trkpt lat="36.56123" lon="-5.18214">
        <ele>779.2934</ele>
        <time>2021-07-16T08:24:36Z</time>
      </trkpt>
      <trkpt lat="36.56137" lon="-5.18232">
        <ele>783.0233</ele>
        <time>2021-07-16T08:24:48Z</time>
      </trkpt>
      <trkpt lat="36.56135" lon="-5.18236">
        <ele>781.3739</ele>
        <time>2021-07-16T08:25:06Z</time>
      </trkpt>
      <trkpt lat="36.5614" lon="-5.18236">
        <ele>784.7089</ele>
        <time>2021-07-16T08:25:43Z</time>
      </trkpt>
      <trkpt lat="36.56165" lon="-5.18145">
        <ele>788.8559</ele>
        <time>2021-07-16T08:25:54Z</time>
      </trkpt>
      <trkpt lat="36.56213" lon="-5.18037">
        <ele>795.6281</ele>
        <time>2021-07-16T08:26:05Z</time>
      </trkpt>
      <trkpt lat="36.56264" lon="-5.17943">
        <ele>796.1031</ele>
        <time>2021-07-16T08:26:16Z</time>
      </trkpt>
      <trkpt lat="36.5635" lon="-5.17939">
        <ele>797.6132</ele>
        <time>2021-07-16T08:26:27Z</time>
      </trkpt>
      <trkpt lat="36.56377" lon="-5.17847">
        <ele>804.4774</ele>
        <time>2021-07-16T08:26:38Z</time>
      </trkpt>
      <trkpt lat="36.56403" lon="-5.17768">
        <ele>816.0558</ele>
        <time>2021-07-16T08:26:49Z</time>
      </trkpt>
      <trkpt lat="36.56405" lon="-5.17666">
        <ele>823.3383</ele>
        <time>2021-07-16T08:27:00Z</time>
      </trkpt>
      <trkpt lat="36.56389" lon="-5.17559">
        <ele>826.7261</ele>
        <time>2021-07-16T08:27:11Z</time>
      </trkpt>
      <trkpt lat="36.56381" lon="-5.17475">
        <ele>834.0836</ele>
        <time>2021-07-16T08:27:22Z</time>
      </trkpt>
      <trkpt lat="36.56439" lon="-5.17379">
        <ele>836.5161</ele>
        <time>2021-07-16T08:27:33Z</time>
      </trkpt>
      <trkpt lat="36.56416" lon="-5.17291">
        <ele>838.2252</ele>
        <time>2021-07-16T08:27:44Z</time>
      </trkpt>
      <trkpt lat="36.56478" lon="-5.17251">
        <ele>840.3974</ele>
        <time>2021-07-16T08:27:55Z</time>
      </trkpt>
      <trkpt lat="36.56503" lon="-5.17177">
        <ele>842.6426</ele>
        <time>2021-07-16T08:28:06Z</time>
      </trkpt>
      <trkpt lat="36.56576" lon="-5.1723">
        <ele>850.1572</ele>
        <time>2021-07-16T08:28:17Z</time>
      </trkpt>
      <trkpt lat="36.56636" lon="-5.1726">
        <ele>855.1993</ele>
        <time>2021-07-16T08:28:28Z</time>
      </trkpt>
      <trkpt lat="36.56664" lon="-5.17164">
        <ele>860.5689</ele>
        <time>2021-07-16T08:28:39Z</time>
      </trkpt>
      <trkpt lat="36.56705" lon="-5.17125">
        <ele>864.46</ele>
        <time>2021-07-16T08:28:50Z</time>
      </trkpt>
      <trkpt lat="36.56776" lon="-5.17091">
        <ele>873.0776</ele>
        <time>2021-07-16T08:29:01Z</time>
      </trkpt>
      <trkpt lat="36.56808" lon="-5.16999">
        <ele>881.3812</ele>
        <time>2021-07-16T08:29:12Z</time>
      </trkpt>
      <trkpt lat="36.56819" lon="-5.16938">
        <ele>879.2556</ele>
        <time>2021-07-16T08:29:23Z</time>
      </trkpt>
      <trkpt lat="36.56913" lon="-5.16933">
        <ele>884.5256</ele>
        <time>2021-07-16T08:29:34Z</time>
      </trkpt>
      <trkpt lat="36.56909" lon="-5.16848">
        <ele>892.9003</ele>
        <time>2021-07-16T08:29:45Z</time>
      </trkpt>
      <trkpt lat="36.56871" lon="-5.16781">
        <ele>891.4812</ele>
        <time>2021-07-16T08:29:56Z</time>
      </trkpt>
      <trkpt lat="36.56935" lon="-5.16722">
        <ele>896.1716</ele>
        <time>2021-07-16T08:30:07Z</time>
      </trkpt>
      <trkpt lat="36.57002" lon="-5.16641">
        <ele>909.3456</ele>
        <time>2021-07-16T08:30:18Z</time>
      </trkpt>
      <trkpt lat="36.57086" lon="-5.16623">
        <ele>928.4528</ele>
        <time>2021-07-16T08:30:30Z</time>
      </trkpt>
      <trkpt lat="36.57162" lon="-5.16586">
        <ele>954.9635</ele>
        <time>2021-07-16T08:30:41Z</time>
      </trkpt>
      <trkpt lat="36.57171" lon="-5.16593">
        <ele>939.8129</ele>
        <time>2021-07-16T08:30:52Z</time>
      </trkpt>
      <trkpt lat="36.5718" lon="-5.16592">
        <ele>939.5861</ele>
        <time>2021-07-16T08:31:03Z</time>
      </trkpt>
      <trkpt lat="36.57227" lon="-5.16662">
        <ele>941.509</ele>
        <time>2021-07-16T08:31:14Z</time>
      </trkpt>
      <trkpt lat="36.57267" lon="-5.16713">
        <ele>943.1637</ele>
        <time>2021-07-16T08:31:25Z</time>
      </trkpt>
      <trkpt lat="36.57349" lon="-5.16774">
        <ele>953.4265</ele>
        <time>2021-07-16T08:31:36Z</time>
      </trkpt>
      <trkpt lat="36.57433" lon="-5.16786">
        <ele>963.1387</ele>
        <time>2021-07-16T08:31:47Z</time>
      </trkpt>
      <trkpt lat="36.57495" lon="-5.16821">
        <ele>974.7598</ele>
        <time>2021-07-16T08:31:58Z</time>
      </trkpt>
      <trkpt lat="36.57529" lon="-5.16897">
        <ele>982.6156</ele>
        <time>2021-07-16T08:32:09Z</time>
      </trkpt>
      <trkpt lat="36.57581" lon="-5.16958">
        <ele>991.453</ele>
        <time>2021-07-16T08:32:20Z</time>
      </trkpt>
      <trkpt lat="36.57623" lon="-5.17048">
        <ele>1003.948</ele>
        <time>2021-07-16T08:32:31Z</time>
      </trkpt>
      <trkpt lat="36.57632" lon="-5.1713">
        <ele>1009.023</ele>
        <time>2021-07-16T08:32:42Z</time>
      </trkpt>
      <trkpt lat="36.57649" lon="-5.17234">
        <ele>1016.16</ele>
        <time>2021-07-16T08:32:53Z</time>
      </trkpt>
      <trkpt lat="36.57729" lon="-5.17296">
        <ele>1025.795</ele>
        <time>2021-07-16T08:33:04Z</time>
      </trkpt>
      <trkpt lat="36.57739" lon="-5.1739">
        <ele>1034.279</ele>
        <time>2021-07-16T08:33:15Z</time>
      </trkpt>
      <trkpt lat="36.57742" lon="-5.17496">
        <ele>1039.92</ele>
        <time>2021-07-16T08:33:26Z</time>
      </trkpt>
      <trkpt lat="36.57745" lon="-5.1756">
        <ele>1046.091</ele>
        <time>2021-07-16T08:33:37Z</time>
      </trkpt>
      <trkpt lat="36.57756" lon="-5.17581">
        <ele>1045.406</ele>
        <time>2021-07-16T08:34:02Z</time>
      </trkpt>
      <trkpt lat="36.57796" lon="-5.1754">
        <ele>1043.169</ele>
        <time>2021-07-16T08:34:13Z</time>
      </trkpt>
      <trkpt lat="36.57785" lon="-5.17389">
        <ele>1054.968</ele>
        <time>2021-07-16T08:34:24Z</time>
      </trkpt>
      <trkpt lat="36.57808" lon="-5.17276">
        <ele>1056.872</ele>
        <time>2021-07-16T08:34:35Z</time>
      </trkpt>
      <trkpt lat="36.57803" lon="-5.17188">
        <ele>1050.446</ele>
        <time>2021-07-16T08:34:46Z</time>
      </trkpt>
      <trkpt lat="36.57821" lon="-5.17107">
        <ele>1046.316</ele>
        <time>2021-07-16T08:34:57Z</time>
      </trkpt>
      <trkpt lat="36.57821" lon="-5.16991">
        <ele>1045.984</ele>
        <time>2021-07-16T08:35:08Z</time>
      </trkpt>
      <trkpt lat="36.57867" lon="-5.16915">
        <ele>1049.397</ele>
        <time>2021-07-16T08:35:19Z</time>
      </trkpt>
      <trkpt lat="36.57875" lon="-5.16804">
        <ele>1051.627</ele>
        <time>2021-07-16T08:35:30Z</time>
      </trkpt>
      <trkpt lat="36.57946" lon="-5.16709">
        <ele>1057.348</ele>
        <time>2021-07-16T08:35:41Z</time>
      </trkpt>
      <trkpt lat="36.5802" lon="-5.16674">
        <ele>1046.768</ele>
        <time>2021-07-16T08:35:52Z</time>
      </trkpt>
      <trkpt lat="36.581" lon="-5.16556">
        <ele>1042.766</ele>
        <time>2021-07-16T08:36:03Z</time>
      </trkpt>
      <trkpt lat="36.58156" lon="-5.16458">
        <ele>1053.034</ele>
        <time>2021-07-16T08:36:14Z</time>
      </trkpt>
      <trkpt lat="36.58173" lon="-5.16445">
        <ele>1059.92</ele>
        <time>2021-07-16T08:36:25Z</time>
      </trkpt>
      <trkpt lat="36.58176" lon="-5.16443">
        <ele>1061.495</ele>
        <time>2021-07-16T08:36:37Z</time>
      </trkpt>
      <trkpt lat="36.58198" lon="-5.16427">
        <ele>1067.555</ele>
        <time>2021-07-16T08:36:48Z</time>
      </trkpt>
      <trkpt lat="36.58212" lon="-5.164">
        <ele>1075.514</ele>
        <time>2021-07-16T08:36:59Z</time>
      </trkpt>
      <trkpt lat="36.58215" lon="-5.16396">
        <ele>1075.985</ele>
        <time>2021-07-16T08:37:10Z</time>
      </trkpt>
      <trkpt lat="36.58202" lon="-5.164">
        <ele>1075.418</ele>
        <time>2021-07-16T08:37:21Z</time>
      </trkpt>
      <trkpt lat="36.582" lon="-5.16443">
        <ele>1067.373</ele>
        <time>2021-07-16T08:37:32Z</time>
      </trkpt>
      <trkpt lat="36.5816" lon="-5.16435">
        <ele>1061.334</ele>
        <time>2021-07-16T08:37:43Z</time>
      </trkpt>
      <trkpt lat="36.5816" lon="-5.1643">
        <ele>1059.639</ele>
        <time>2021-07-16T08:38:02Z</time>
      </trkpt>
      <trkpt lat="36.58175" lon="-5.16316">
        <ele>1054.773</ele>
        <time>2021-07-16T08:38:13Z</time>
      </trkpt>
      <trkpt lat="36.58242" lon="-5.16263">
        <ele>1056.106</ele>
        <time>2021-07-16T08:38:24Z</time>
      </trkpt>
      <trkpt lat="36.58323" lon="-5.16237">
        <ele>1062.492</ele>
        <time>2021-07-16T08:38:35Z</time>
      </trkpt>
      <trkpt lat="36.58398" lon="-5.16224">
        <ele>1067.548</ele>
        <time>2021-07-16T08:38:46Z</time>
      </trkpt>
      <trkpt lat="36.58491" lon="-5.16192">
        <ele>1060.537</ele>
        <time>2021-07-16T08:38:57Z</time>
      </trkpt>
      <trkpt lat="36.58527" lon="-5.16114">
        <ele>1050.914</ele>
        <time>2021-07-16T08:39:08Z</time>
      </trkpt>
      <trkpt lat="36.58549" lon="-5.16019">
        <ele>1040.712</ele>
        <time>2021-07-16T08:39:19Z</time>
      </trkpt>
      <trkpt lat="36.58567" lon="-5.15953">
        <ele>1040.129</ele>
        <time>2021-07-16T08:39:30Z</time>
      </trkpt>
      <trkpt lat="36.58607" lon="-5.15915">
        <ele>1037.725</ele>
        <time>2021-07-16T08:39:41Z</time>
      </trkpt>
      <trkpt lat="36.58676" lon="-5.15914">
        <ele>1048.815</ele>
        <time>2021-07-16T08:39:52Z</time>
      </trkpt>
      <trkpt lat="36.58757" lon="-5.15872">
        <ele>1047.464</ele>
        <time>2021-07-16T08:40:03Z</time>
      </trkpt>
      <trkpt lat="36.58828" lon="-5.15804">
        <ele>1047.528</ele>
        <time>2021-07-16T08:40:14Z</time>
      </trkpt>
      <trkpt lat="36.58856" lon="-5.15675">
        <ele>1049.92</ele>
        <time>2021-07-16T08:40:25Z</time>
      </trkpt>
      <trkpt lat="36.58857" lon="-5.15582">
        <ele>1047.727</ele>
        <time>2021-07-16T08:40:36Z</time>
      </trkpt>
      <trkpt lat="36.58915" lon="-5.15511">
        <ele>1036.955</ele>
        <time>2021-07-16T08:40:47Z</time>
      </trkpt>
      <trkpt lat="36.58967" lon="-5.15402">
        <ele>1028.67</ele>
        <time>2021-07-16T08:40:58Z</time>
      </trkpt>
      <trkpt lat="36.59011" lon="-5.15329">
        <ele>1020.927</ele>
        <time>2021-07-16T08:41:09Z</time>
      </trkpt>
      <trkpt lat="36.59091" lon="-5.15328">
        <ele>1015.01</ele>
        <time>2021-07-16T08:41:20Z</time>
      </trkpt>
      <trkpt lat="36.59166" lon="-5.15333">
        <ele>1017.526</ele>
        <time>2021-07-16T08:41:31Z</time>
      </trkpt>
      <trkpt lat="36.59252" lon="-5.15322">
        <ele>1021.274</ele>
        <time>2021-07-16T08:41:42Z</time>
      </trkpt>
      <trkpt lat="36.5932" lon="-5.15253">
        <ele>1019.784</ele>
        <time>2021-07-16T08:41:53Z</time>
      </trkpt>
      <trkpt lat="36.59379" lon="-5.15161">
        <ele>1008.464</ele>
        <time>2021-07-16T08:42:04Z</time>
      </trkpt>
      <trkpt lat="36.59419" lon="-5.15069">
        <ele>1001.805</ele>
        <time>2021-07-16T08:42:15Z</time>
      </trkpt>
      <trkpt lat="36.59449" lon="-5.14952">
        <ele>987.7827</ele>
        <time>2021-07-16T08:42:26Z</time>
      </trkpt>
      <trkpt lat="36.59521" lon="-5.14872">
        <ele>999.4914</ele>
        <time>2021-07-16T08:42:37Z</time>
      </trkpt>
      <trkpt lat="36.59524" lon="-5.14811">
        <ele>1001.214</ele>
        <time>2021-07-16T08:42:48Z</time>
      </trkpt>
      <trkpt lat="36.59498" lon="-5.14735">
        <ele>999.0629</ele>
        <time>2021-07-16T08:42:59Z</time>
      </trkpt>
      <trkpt lat="36.5952" lon="-5.1464">
        <ele>1003.694</ele>
        <time>2021-07-16T08:43:10Z</time>
      </trkpt>
      <trkpt lat="36.59567" lon="-5.14563">
        <ele>991.3299</ele>
        <time>2021-07-16T08:43:21Z</time>
      </trkpt>
      <trkpt lat="36.59571" lon="-5.14437">
        <ele>962.1179</ele>
        <time>2021-07-16T08:43:32Z</time>
      </trkpt>
      <trkpt lat="36.59586" lon="-5.14355">
        <ele>954.7267</ele>
        <time>2021-07-16T08:43:43Z</time>
      </trkpt>
      <trkpt lat="36.59627" lon="-5.14274">
        <ele>954.2843</ele>
        <time>2021-07-16T08:43:54Z</time>
      </trkpt>
      <trkpt lat="36.5965" lon="-5.1421">
        <ele>949.7078</ele>
        <time>2021-07-16T08:44:05Z</time>
      </trkpt>
      <trkpt lat="36.59658" lon="-5.14178">
        <ele>941.3987</ele>
        <time>2021-07-16T08:44:16Z</time>
      </trkpt>
      <trkpt lat="36.59657" lon="-5.14081">
        <ele>934.8711</ele>
        <time>2021-07-16T08:44:27Z</time>
      </trkpt>
      <trkpt lat="36.59662" lon="-5.1397">
        <ele>936.9133</ele>
        <time>2021-07-16T08:44:38Z</time>
      </trkpt>
      <trkpt lat="36.59662" lon="-5.139">
        <ele>929.3031</ele>
        <time>2021-07-16T08:44:49Z</time>
      </trkpt>
      <trkpt lat="36.59637" lon="-5.13801">
        <ele>926.5072</ele>
        <time>2021-07-16T08:45:00Z</time>
      </trkpt>
      <trkpt lat="36.59618" lon="-5.13669">
        <ele>926.759</ele>
        <time>2021-07-16T08:45:11Z</time>
      </trkpt>
      <trkpt lat="36.59601" lon="-5.13545">
        <ele>929.8701</ele>
        <time>2021-07-16T08:45:22Z</time>
      </trkpt>
      <trkpt lat="36.59655" lon="-5.13458">
        <ele>927.3309</ele>
        <time>2021-07-16T08:45:33Z</time>
      </trkpt>
      <trkpt lat="36.59707" lon="-5.13412">
        <ele>922.5924</ele>
        <time>2021-07-16T08:45:44Z</time>
      </trkpt>
      <trkpt lat="36.59723" lon="-5.13309">
        <ele>932.216</ele>
        <time>2021-07-16T08:45:55Z</time>
      </trkpt>
      <trkpt lat="36.59808" lon="-5.13221">
        <ele>948.8758</ele>
        <time>2021-07-16T08:46:06Z</time>
      </trkpt>
      <trkpt lat="36.5991" lon="-5.13156">
        <ele>961.9809</ele>
        <time>2021-07-16T08:46:17Z</time>
      </trkpt>
      <trkpt lat="36.59935" lon="-5.12977">
        <ele>971.5719</ele>
        <time>2021-07-16T08:46:28Z</time>
      </trkpt>
      <trkpt lat="36.59873" lon="-5.12817">
        <ele>973.5533</ele>
        <time>2021-07-16T08:46:39Z</time>
      </trkpt>
      <trkpt lat="36.59794" lon="-5.12738">
        <ele>980.1691</ele>
        <time>2021-07-16T08:46:50Z</time>
      </trkpt>
      <trkpt lat="36.59751" lon="-5.12634">
        <ele>989.7972</ele>
        <time>2021-07-16T08:47:01Z</time>
      </trkpt>
      <trkpt lat="36.59877" lon="-5.12583">
        <ele>1005.421</ele>
        <time>2021-07-16T08:47:12Z</time>
      </trkpt>
      <trkpt lat="36.59966" lon="-5.12513">
        <ele>1022.16</ele>
        <time>2021-07-16T08:47:23Z</time>
      </trkpt>
      <trkpt lat="36.60002" lon="-5.12398">
        <ele>1024.973</ele>
        <time>2021-07-16T08:47:34Z</time>
      </trkpt>
      <trkpt lat="36.60039" lon="-5.12255">
        <ele>1034.226</ele>
        <time>2021-07-16T08:47:45Z</time>
      </trkpt>
      <trkpt lat="36.60099" lon="-5.12114">
        <ele>1040.029</ele>
        <time>2021-07-16T08:47:56Z</time>
      </trkpt>
      <trkpt lat="36.6017" lon="-5.1202">
        <ele>1040.353</ele>
        <time>2021-07-16T08:48:07Z</time>
      </trkpt>
      <trkpt lat="36.60169" lon="-5.11885">
        <ele>1032.519</ele>
        <time>2021-07-16T08:48:18Z</time>
      </trkpt>
      <trkpt lat="36.60093" lon="-5.11808">
        <ele>1019.602</ele>
        <time>2021-07-16T08:48:29Z</time>
      </trkpt>
      <trkpt lat="36.5999" lon="-5.11706">
        <ele>1012.504</ele>
        <time>2021-07-16T08:48:40Z</time>
      </trkpt>
      <trkpt lat="36.59988" lon="-5.116">
        <ele>1012.297</ele>
        <time>2021-07-16T08:48:51Z</time>
      </trkpt>
      <trkpt lat="36.60093" lon="-5.11627">
        <ele>1005.803</ele>
        <time>2021-07-16T08:49:02Z</time>
      </trkpt>
      <trkpt lat="36.60156" lon="-5.11647">
        <ele>1001.081</ele>
        <time>2021-07-16T08:49:13Z</time>
      </trkpt>
      <trkpt lat="36.60237" lon="-5.11612">
        <ele>994.9565</ele>
        <time>2021-07-16T08:49:24Z</time>
      </trkpt>
      <trkpt lat="36.60304" lon="-5.11572">
        <ele>996.3862</ele>
        <time>2021-07-16T08:49:35Z</time>
      </trkpt>
      <trkpt lat="36.60277" lon="-5.11456">
        <ele>995.4498</ele>
        <time>2021-07-16T08:49:46Z</time>
      </trkpt>
      <trkpt lat="36.60333" lon="-5.11372">
        <ele>989.8628</ele>
        <time>2021-07-16T08:49:57Z</time>
      </trkpt>
      <trkpt lat="36.60411" lon="-5.11327">
        <ele>985.1168</ele>
        <time>2021-07-16T08:50:08Z</time>
      </trkpt>
      <trkpt lat="36.60428" lon="-5.11182">
        <ele>988.8437</ele>
        <time>2021-07-16T08:50:19Z</time>
      </trkpt>
      <trkpt lat="36.60419" lon="-5.11072">
        <ele>983.8067</ele>
        <time>2021-07-16T08:50:30Z</time>
      </trkpt>
      <trkpt lat="36.60452" lon="-5.10909">
        <ele>978.0457</ele>
        <time>2021-07-16T08:50:41Z</time>
      </trkpt>
      <trkpt lat="36.60503" lon="-5.10839">
        <ele>975.7132</ele>
        <time>2021-07-16T08:50:52Z</time>
      </trkpt>
      <trkpt lat="36.60538" lon="-5.10786">
        <ele>970.1424</ele>
        <time>2021-07-16T08:51:03Z</time>
      </trkpt>
      <trkpt lat="36.60538" lon="-5.10787">
        <ele>962.2574</ele>
        <time>2021-07-16T08:52:02Z</time>
      </trkpt>
      <trkpt lat="36.60541" lon="-5.10781">
        <ele>960.8682</ele>
        <time>2021-07-16T08:52:52Z</time>
      </trkpt>
      <trkpt lat="36.60557" lon="-5.10697">
        <ele>957.0253</ele>
        <time>2021-07-16T08:53:03Z</time>
      </trkpt>
      <trkpt lat="36.6056" lon="-5.10599">
        <ele>952.9225</ele>
        <time>2021-07-16T08:53:14Z</time>
      </trkpt>
      <trkpt lat="36.60583" lon="-5.10549">
        <ele>947.3202</ele>
        <time>2021-07-16T08:53:25Z</time>
      </trkpt>
      <trkpt lat="36.60672" lon="-5.10519">
        <ele>941.0689</ele>
        <time>2021-07-16T08:53:36Z</time>
      </trkpt>
      <trkpt lat="36.60751" lon="-5.10511">
        <ele>937.1212</ele>
        <time>2021-07-16T08:53:47Z</time>
      </trkpt>
      <trkpt lat="36.6081" lon="-5.10469">
        <ele>934.8067</ele>
        <time>2021-07-16T08:53:58Z</time>
      </trkpt>
      <trkpt lat="36.60834" lon="-5.10379">
        <ele>918.1068</ele>
        <time>2021-07-16T08:54:09Z</time>
      </trkpt>
      <trkpt lat="36.60906" lon="-5.1035">
        <ele>901.9227</ele>
        <time>2021-07-16T08:54:20Z</time>
      </trkpt>
      <trkpt lat="36.60899" lon="-5.10302">
        <ele>904.9816</ele>
        <time>2021-07-16T08:54:31Z</time>
      </trkpt>
      <trkpt lat="36.60945" lon="-5.1023">
        <ele>914.7844</ele>
        <time>2021-07-16T08:54:42Z</time>
      </trkpt>
      <trkpt lat="36.60953" lon="-5.10145">
        <ele>898.1856</ele>
        <time>2021-07-16T08:54:53Z</time>
      </trkpt>
      <trkpt lat="36.60932" lon="-5.10071">
        <ele>890.147</ele>
        <time>2021-07-16T08:55:04Z</time>
      </trkpt>
      <trkpt lat="36.60976" lon="-5.09997">
        <ele>900.3616</ele>
        <time>2021-07-16T08:55:15Z</time>
      </trkpt>
      <trkpt lat="36.6105" lon="-5.09993">
        <ele>889.9609</ele>
        <time>2021-07-16T08:55:26Z</time>
      </trkpt>
      <trkpt lat="36.61087" lon="-5.09938">
        <ele>892.2728</ele>
        <time>2021-07-16T08:55:37Z</time>
      </trkpt>
      <trkpt lat="36.61076" lon="-5.09861">
        <ele>897.8586</ele>
        <time>2021-07-16T08:55:48Z</time>
      </trkpt>
      <trkpt lat="36.61142" lon="-5.09839">
        <ele>896.4136</ele>
        <time>2021-07-16T08:55:59Z</time>
      </trkpt>
      <trkpt lat="36.61146" lon="-5.09738">
        <ele>903.7688</ele>
        <time>2021-07-16T08:56:10Z</time>
      </trkpt>
      <trkpt lat="36.61171" lon="-5.09707">
        <ele>906.8123</ele>
        <time>2021-07-16T08:56:21Z</time>
      </trkpt>
      <trkpt lat="36.6124" lon="-5.09675">
        <ele>903.7873</ele>
        <time>2021-07-16T08:56:32Z</time>
      </trkpt>
      <trkpt lat="36.61263" lon="-5.09601">
        <ele>897.2992</ele>
        <time>2021-07-16T08:56:43Z</time>
      </trkpt>
      <trkpt lat="36.61361" lon="-5.0957">
        <ele>890.9931</ele>
        <time>2021-07-16T08:56:54Z</time>
      </trkpt>
      <trkpt lat="36.61457" lon="-5.0951">
        <ele>884.6691</ele>
        <time>2021-07-16T08:57:05Z</time>
      </trkpt>
      <trkpt lat="36.6154" lon="-5.09491">
        <ele>885.5449</ele>
        <time>2021-07-16T08:57:16Z</time>
      </trkpt>
      <trkpt lat="36.61581" lon="-5.09401">
        <ele>896.3145</ele>
        <time>2021-07-16T08:57:27Z</time>
      </trkpt>
      <trkpt lat="36.61503" lon="-5.09302">
        <ele>904.2483</ele>
        <time>2021-07-16T08:57:38Z</time>
      </trkpt>
      <trkpt lat="36.61467" lon="-5.09199">
        <ele>913.5295</ele>
        <time>2021-07-16T08:57:49Z</time>
      </trkpt>
      <trkpt lat="36.61446" lon="-5.09082">
        <ele>910.6519</ele>
        <time>2021-07-16T08:58:00Z</time>
      </trkpt>
      <trkpt lat="36.61375" lon="-5.09005">
        <ele>917.9906</ele>
        <time>2021-07-16T08:58:11Z</time>
      </trkpt>
      <trkpt lat="36.61431" lon="-5.08984">
        <ele>922.6439</ele>
        <time>2021-07-16T08:58:22Z</time>
      </trkpt>
      <trkpt lat="36.61552" lon="-5.08963">
        <ele>920.026</ele>
        <time>2021-07-16T08:58:33Z</time>
      </trkpt>
      <trkpt lat="36.61654" lon="-5.08976">
        <ele>909.4749</ele>
        <time>2021-07-16T08:58:44Z</time>
      </trkpt>
      <trkpt lat="36.61712" lon="-5.08913">
        <ele>906.357</ele>
        <time>2021-07-16T08:58:55Z</time>
      </trkpt>
      <trkpt lat="36.61808" lon="-5.08914">
        <ele>892.4085</ele>
        <time>2021-07-16T08:59:06Z</time>
      </trkpt>
      <trkpt lat="36.61851" lon="-5.08832">
        <ele>874.9365</ele>
        <time>2021-07-16T08:59:17Z</time>
      </trkpt>
      <trkpt lat="36.61861" lon="-5.08738">
        <ele>864.8819</ele>
        <time>2021-07-16T08:59:28Z</time>
      </trkpt>
      <trkpt lat="36.61803" lon="-5.08697">
        <ele>845.5309</ele>
        <time>2021-07-16T08:59:39Z</time>
      </trkpt>
      <trkpt lat="36.61754" lon="-5.08641">
        <ele>842.8963</ele>
        <time>2021-07-16T08:59:50Z</time>
      </trkpt>
      <trkpt lat="36.61748" lon="-5.08566">
        <ele>862.2567</ele>
        <time>2021-07-16T09:00:02Z</time>
      </trkpt>
      <trkpt lat="36.61714" lon="-5.08477">
        <ele>873.0109</ele>
        <time>2021-07-16T09:00:13Z</time>
      </trkpt>
      <trkpt lat="36.61769" lon="-5.08463">
        <ele>885.498</ele>
        <time>2021-07-16T09:00:24Z</time>
      </trkpt>
      <trkpt lat="36.61865" lon="-5.08431">
        <ele>879.8749</ele>
        <time>2021-07-16T09:00:35Z</time>
      </trkpt>
      <trkpt lat="36.61885" lon="-5.08375">
        <ele>879.0342</ele>
        <time>2021-07-16T09:00:46Z</time>
      </trkpt>
      <trkpt lat="36.6181" lon="-5.08258">
        <ele>857.6429</ele>
        <time>2021-07-16T09:00:57Z</time>
      </trkpt>
      <trkpt lat="36.61794" lon="-5.08212">
        <ele>839.5635</ele>
        <time>2021-07-16T09:01:08Z</time>
      </trkpt>
      <trkpt lat="36.61846" lon="-5.08182">
        <ele>865.6373</ele>
        <time>2021-07-16T09:01:19Z</time>
      </trkpt>
      <trkpt lat="36.61899" lon="-5.08145">
        <ele>881.3327</ele>
        <time>2021-07-16T09:01:30Z</time>
      </trkpt>
      <trkpt lat="36.61844" lon="-5.0805">
        <ele>894.35</ele>
        <time>2021-07-16T09:01:41Z</time>
      </trkpt>
      <trkpt lat="36.61838" lon="-5.07939">
        <ele>896.6696</ele>
        <time>2021-07-16T09:01:52Z</time>
      </trkpt>
      <trkpt lat="36.61841" lon="-5.07837">
        <ele>898.1168</ele>
        <time>2021-07-16T09:02:03Z</time>
      </trkpt>
      <trkpt lat="36.61841" lon="-5.07762">
        <ele>904.2876</ele>
        <time>2021-07-16T09:02:14Z</time>
      </trkpt>
      <trkpt lat="36.61777" lon="-5.07713">
        <ele>891.5166</ele>
        <time>2021-07-16T09:02:25Z</time>
      </trkpt>
      <trkpt lat="36.61768" lon="-5.07665">
        <ele>896.6937</ele>
        <time>2021-07-16T09:02:36Z</time>
      </trkpt>
      <trkpt lat="36.61814" lon="-5.07622">
        <ele>888.1312</ele>
        <time>2021-07-16T09:02:47Z</time>
      </trkpt>
      <trkpt lat="36.61894" lon="-5.07536">
        <ele>873.6325</ele>
        <time>2021-07-16T09:02:58Z</time>
      </trkpt>
      <trkpt lat="36.6183" lon="-5.07457">
        <ele>867.1866</ele>
        <time>2021-07-16T09:03:09Z</time>
      </trkpt>
      <trkpt lat="36.61818" lon="-5.07342">
        <ele>871.6957</ele>
        <time>2021-07-16T09:03:20Z</time>
      </trkpt>
      <trkpt lat="36.6181" lon="-5.07249">
        <ele>866.7137</ele>
        <time>2021-07-16T09:03:31Z</time>
      </trkpt>
      <trkpt lat="36.61836" lon="-5.07232">
        <ele>866.943</ele>
        <time>2021-07-16T09:03:42Z</time>
      </trkpt>
      <trkpt lat="36.61871" lon="-5.07313">
        <ele>836.299</ele>
        <time>2021-07-16T09:03:53Z</time>
      </trkpt>
      <trkpt lat="36.61917" lon="-5.07352">
        <ele>846.2199</ele>
        <time>2021-07-16T09:04:04Z</time>
      </trkpt>
      <trkpt lat="36.62011" lon="-5.07415">
        <ele>849.3594</ele>
        <time>2021-07-16T09:04:15Z</time>
      </trkpt>
      <trkpt lat="36.62076" lon="-5.07456">
        <ele>898.4099</ele>
        <time>2021-07-16T09:04:26Z</time>
      </trkpt>
      <trkpt lat="36.62122" lon="-5.07374">
        <ele>906.6701</ele>
        <time>2021-07-16T09:04:37Z</time>
      </trkpt>
      <trkpt lat="36.62209" lon="-5.07296">
        <ele>912.0129</ele>
        <time>2021-07-16T09:04:48Z</time>
      </trkpt>
      <trkpt lat="36.62252" lon="-5.07174">
        <ele>911.6989</ele>
        <time>2021-07-16T09:04:59Z</time>
      </trkpt>
      <trkpt lat="36.62352" lon="-5.07082">
        <ele>921.1952</ele>
        <time>2021-07-16T09:05:10Z</time>
      </trkpt>
      <trkpt lat="36.62408" lon="-5.06977">
        <ele>930.1273</ele>
        <time>2021-07-16T09:05:21Z</time>
      </trkpt>
      <trkpt lat="36.62437" lon="-5.06937">
        <ele>931.2914</ele>
        <time>2021-07-16T09:05:32Z</time>
      </trkpt>
      <trkpt lat="36.62492" lon="-5.07015">
        <ele>936.1702</ele>
        <time>2021-07-16T09:05:43Z</time>
      </trkpt>
      <trkpt lat="36.62538" lon="-5.0708">
        <ele>949.5634</ele>
        <time>2021-07-16T09:05:54Z</time>
      </trkpt>
      <trkpt lat="36.62583" lon="-5.07024">
        <ele>950.1709</ele>
        <time>2021-07-16T09:06:05Z</time>
      </trkpt>
      <trkpt lat="36.62612" lon="-5.07099">
        <ele>955.673</ele>
        <time>2021-07-16T09:06:16Z</time>
      </trkpt>
      <trkpt lat="36.62664" lon="-5.07166">
        <ele>957.8949</ele>
        <time>2021-07-16T09:06:27Z</time>
      </trkpt>
      <trkpt lat="36.62622" lon="-5.072">
        <ele>963.1271</ele>
        <time>2021-07-16T09:06:38Z</time>
      </trkpt>
      <trkpt lat="36.62551" lon="-5.07249">
        <ele>977.3324</ele>
        <time>2021-07-16T09:06:49Z</time>
      </trkpt>
      <trkpt lat="36.6249" lon="-5.07332">
        <ele>987.7554</ele>
        <time>2021-07-16T09:07:00Z</time>
      </trkpt>
      <trkpt lat="36.62516" lon="-5.07423">
        <ele>987.6547</ele>
        <time>2021-07-16T09:07:11Z</time>
      </trkpt>
      <trkpt lat="36.62587" lon="-5.07441">
        <ele>995.0239</ele>
        <time>2021-07-16T09:07:22Z</time>
      </trkpt>
      <trkpt lat="36.62621" lon="-5.07529">
        <ele>1012.852</ele>
        <time>2021-07-16T09:07:33Z</time>
      </trkpt>
      <trkpt lat="36.62558" lon="-5.07619">
        <ele>1005.743</ele>
        <time>2021-07-16T09:07:44Z</time>
      </trkpt>
      <trkpt lat="36.6256" lon="-5.07712">
        <ele>999.2391</ele>
        <time>2021-07-16T09:07:55Z</time>
      </trkpt>
      <trkpt lat="36.62553" lon="-5.07701">
        <ele>1029.323</ele>
        <time>2021-07-16T09:08:06Z</time>
      </trkpt>
      <trkpt lat="36.62548" lon="-5.077">
        <ele>1032.182</ele>
        <time>2021-07-16T09:08:17Z</time>
      </trkpt>
      <trkpt lat="36.62549" lon="-5.07698">
        <ele>1032.228</ele>
        <time>2021-07-16T09:09:17Z</time>
      </trkpt>
      <trkpt lat="36.62549" lon="-5.07703">
        <ele>1031.951</ele>
        <time>2021-07-16T09:10:01Z</time>
      </trkpt>
      <trkpt lat="36.6255" lon="-5.07702">
        <ele>1028.505</ele>
        <time>2021-07-16T09:11:00Z</time>
      </trkpt>
      <trkpt lat="36.62549" lon="-5.07697">
        <ele>1026.532</ele>
        <time>2021-07-16T09:11:36Z</time>
      </trkpt>
      <trkpt lat="36.62551" lon="-5.07701">
        <ele>1028.153</ele>
        <time>2021-07-16T09:11:53Z</time>
      </trkpt>
      <trkpt lat="36.62549" lon="-5.07712">
        <ele>1030.736</ele>
        <time>2021-07-16T09:12:13Z</time>
      </trkpt>
      <trkpt lat="36.62592" lon="-5.0775">
        <ele>1028.622</ele>
        <time>2021-07-16T09:12:24Z</time>
      </trkpt>
      <trkpt lat="36.62548" lon="-5.07921">
        <ele>1032.288</ele>
        <time>2021-07-16T09:12:35Z</time>
      </trkpt>
      <trkpt lat="36.62592" lon="-5.08075">
        <ele>1030.942</ele>
        <time>2021-07-16T09:12:46Z</time>
      </trkpt>
      <trkpt lat="36.62752" lon="-5.08082">
        <ele>1029.704</ele>
        <time>2021-07-16T09:12:57Z</time>
      </trkpt>
      <trkpt lat="36.62715" lon="-5.08258">
        <ele>1031.742</ele>
        <time>2021-07-16T09:13:08Z</time>
      </trkpt>
      <trkpt lat="36.62661" lon="-5.08415">
        <ele>1033.511</ele>
        <time>2021-07-16T09:13:19Z</time>
      </trkpt>
      <trkpt lat="36.62606" lon="-5.08543">
        <ele>1032.615</ele>
        <time>2021-07-16T09:13:30Z</time>
      </trkpt>
      <trkpt lat="36.62476" lon="-5.08633">
        <ele>1034.245</ele>
        <time>2021-07-16T09:13:41Z</time>
      </trkpt>
      <trkpt lat="36.62474" lon="-5.08831">
        <ele>1035.805</ele>
        <time>2021-07-16T09:13:52Z</time>
      </trkpt>
      <trkpt lat="36.62422" lon="-5.09031">
        <ele>1037.739</ele>
        <time>2021-07-16T09:14:03Z</time>
      </trkpt>
      <trkpt lat="36.62496" lon="-5.09226">
        <ele>1034.537</ele>
        <time>2021-07-16T09:14:14Z</time>
      </trkpt>
      <trkpt lat="36.62603" lon="-5.09368">
        <ele>1034.171</ele>
        <time>2021-07-16T09:14:25Z</time>
      </trkpt>
      <trkpt lat="36.62737" lon="-5.09479">
        <ele>1036.303</ele>
        <time>2021-07-16T09:14:36Z</time>
      </trkpt>
      <trkpt lat="36.62897" lon="-5.0947">
        <ele>1042.436</ele>
        <time>2021-07-16T09:14:47Z</time>
      </trkpt>
      <trkpt lat="36.63046" lon="-5.0948">
        <ele>1050.32</ele>
        <time>2021-07-16T09:14:58Z</time>
      </trkpt>
      <trkpt lat="36.6315" lon="-5.09351">
        <ele>1058.541</ele>
        <time>2021-07-16T09:15:09Z</time>
      </trkpt>
      <trkpt lat="36.63277" lon="-5.09266">
        <ele>1070.983</ele>
        <time>2021-07-16T09:15:20Z</time>
      </trkpt>
      <trkpt lat="36.63377" lon="-5.09178">
        <ele>1083.681</ele>
        <time>2021-07-16T09:15:31Z</time>
      </trkpt>
      <trkpt lat="36.63425" lon="-5.0902">
        <ele>1094.845</ele>
        <time>2021-07-16T09:15:42Z</time>
      </trkpt>
      <trkpt lat="36.63584" lon="-5.09041">
        <ele>1102.334</ele>
        <time>2021-07-16T09:15:53Z</time>
      </trkpt>
      <trkpt lat="36.63759" lon="-5.09023">
        <ele>1109.948</ele>
        <time>2021-07-16T09:16:04Z</time>
      </trkpt>
      <trkpt lat="36.6392" lon="-5.08981">
        <ele>1117.034</ele>
        <time>2021-07-16T09:16:15Z</time>
      </trkpt>
      <trkpt lat="36.64083" lon="-5.09056">
        <ele>1120.317</ele>
        <time>2021-07-16T09:16:26Z</time>
      </trkpt>
      <trkpt lat="36.64222" lon="-5.0892">
        <ele>1121.863</ele>
        <time>2021-07-16T09:16:37Z</time>
      </trkpt>
      <trkpt lat="36.64342" lon="-5.08805">
        <ele>1119.403</ele>
        <time>2021-07-16T09:16:48Z</time>
      </trkpt>
      <trkpt lat="36.64477" lon="-5.08945">
        <ele>1118.873</ele>
        <time>2021-07-16T09:16:59Z</time>
      </trkpt>
      <trkpt lat="36.64658" lon="-5.09004">
        <ele>1115.12</ele>
        <time>2021-07-16T09:17:10Z</time>
      </trkpt>
      <trkpt lat="36.64797" lon="-5.09091">
        <ele>1106.844</ele>
        <time>2021-07-16T09:17:21Z</time>
      </trkpt>
      <trkpt lat="36.64981" lon="-5.09144">
        <ele>1095.013</ele>
        <time>2021-07-16T09:17:32Z</time>
      </trkpt>
      <trkpt lat="36.65187" lon="-5.0917">
        <ele>1088.347</ele>
        <time>2021-07-16T09:17:43Z</time>
      </trkpt>
      <trkpt lat="36.65379" lon="-5.09207">
        <ele>1083.763</ele>
        <time>2021-07-16T09:17:54Z</time>
      </trkpt>
      <trkpt lat="36.65535" lon="-5.09311">
        <ele>1083.85</ele>
        <time>2021-07-16T09:18:05Z</time>
      </trkpt>
      <trkpt lat="36.65637" lon="-5.09466">
        <ele>1083.796</ele>
        <time>2021-07-16T09:18:16Z</time>
      </trkpt>
      <trkpt lat="36.65629" lon="-5.09697">
        <ele>1091.623</ele>
        <time>2021-07-16T09:18:27Z</time>
      </trkpt>
      <trkpt lat="36.65716" lon="-5.09873">
        <ele>1088.79</ele>
        <time>2021-07-16T09:18:38Z</time>
      </trkpt>
      <trkpt lat="36.65894" lon="-5.0993">
        <ele>1077.669</ele>
        <time>2021-07-16T09:18:49Z</time>
      </trkpt>
      <trkpt lat="36.66079" lon="-5.09946">
        <ele>1071.141</ele>
        <time>2021-07-16T09:19:00Z</time>
      </trkpt>
      <trkpt lat="36.66174" lon="-5.10123">
        <ele>1064.286</ele>
        <time>2021-07-16T09:19:11Z</time>
      </trkpt>
      <trkpt lat="36.66268" lon="-5.10326">
        <ele>1052.124</ele>
        <time>2021-07-16T09:19:22Z</time>
      </trkpt>
      <trkpt lat="36.66422" lon="-5.10474">
        <ele>1046.493</ele>
        <time>2021-07-16T09:19:33Z</time>
      </trkpt>
      <trkpt lat="36.66488" lon="-5.10658">
        <ele>1046.707</ele>
        <time>2021-07-16T09:19:44Z</time>
      </trkpt>
      <trkpt lat="36.66617" lon="-5.10773">
        <ele>1054.374</ele>
        <time>2021-07-16T09:19:55Z</time>
      </trkpt>
      <trkpt lat="36.66692" lon="-5.10918">
        <ele>1051.785</ele>
        <time>2021-07-16T09:20:06Z</time>
      </trkpt>
      <trkpt lat="36.66719" lon="-5.11121">
        <ele>1045.666</ele>
        <time>2021-07-16T09:20:17Z</time>
      </trkpt>
      <trkpt lat="36.66806" lon="-5.11277">
        <ele>1034.912</ele>
        <time>2021-07-16T09:20:28Z</time>
      </trkpt>
      <trkpt lat="36.66903" lon="-5.1143">
        <ele>1021.449</ele>
        <time>2021-07-16T09:20:39Z</time>
      </trkpt>
      <trkpt lat="36.67016" lon="-5.1154">
        <ele>1010.299</ele>
        <time>2021-07-16T09:20:50Z</time>
      </trkpt>
      <trkpt lat="36.67081" lon="-5.11667">
        <ele>1008.425</ele>
        <time>2021-07-16T09:21:01Z</time>
      </trkpt>
      <trkpt lat="36.67105" lon="-5.11817">
        <ele>1006.049</ele>
        <time>2021-07-16T09:21:12Z</time>
      </trkpt>
      <trkpt lat="36.67198" lon="-5.11953">
        <ele>1002.21</ele>
        <time>2021-07-16T09:21:23Z</time>
      </trkpt>
      <trkpt lat="36.67344" lon="-5.11997">
        <ele>995.272</ele>
        <time>2021-07-16T09:21:34Z</time>
      </trkpt>
      <trkpt lat="36.675" lon="-5.11936">
        <ele>990.3746</ele>
        <time>2021-07-16T09:21:45Z</time>
      </trkpt>
      <trkpt lat="36.67654" lon="-5.11855">
        <ele>988.427</ele>
        <time>2021-07-16T09:21:56Z</time>
      </trkpt>
      <trkpt lat="36.67871" lon="-5.11799">
        <ele>981.2551</ele>
        <time>2021-07-16T09:22:07Z</time>
      </trkpt>
      <trkpt lat="36.68063" lon="-5.11613">
        <ele>971.9932</ele>
        <time>2021-07-16T09:22:18Z</time>
      </trkpt>
      <trkpt lat="36.68214" lon="-5.11499">
        <ele>968.3612</ele>
        <time>2021-07-16T09:22:29Z</time>
      </trkpt>
      <trkpt lat="36.68398" lon="-5.11518">
        <ele>956.3791</ele>
        <time>2021-07-16T09:22:40Z</time>
      </trkpt>
      <trkpt lat="36.68617" lon="-5.11561">
        <ele>942.2322</ele>
        <time>2021-07-16T09:22:51Z</time>
      </trkpt>
      <trkpt lat="36.68813" lon="-5.11655">
        <ele>937.2385</ele>
        <time>2021-07-16T09:23:02Z</time>
      </trkpt>
      <trkpt lat="36.68915" lon="-5.11794">
        <ele>940.9011</ele>
        <time>2021-07-16T09:23:13Z</time>
      </trkpt>
      <trkpt lat="36.68948" lon="-5.11978">
        <ele>941.0478</ele>
        <time>2021-07-16T09:23:24Z</time>
      </trkpt>
      <trkpt lat="36.69084" lon="-5.12044">
        <ele>940.4426</ele>
        <time>2021-07-16T09:23:35Z</time>
      </trkpt>
      <trkpt lat="36.69274" lon="-5.12004">
        <ele>944.6148</ele>
        <time>2021-07-16T09:23:46Z</time>
      </trkpt>
      <trkpt lat="36.69425" lon="-5.11964">
        <ele>951.2386</ele>
        <time>2021-07-16T09:23:57Z</time>
      </trkpt>
      <trkpt lat="36.69617" lon="-5.11919">
        <ele>959.6728</ele>
        <time>2021-07-16T09:24:08Z</time>
      </trkpt>
      <trkpt lat="36.69789" lon="-5.1187">
        <ele>961.1364</ele>
        <time>2021-07-16T09:24:19Z</time>
      </trkpt>
      <trkpt lat="36.69903" lon="-5.11715">
        <ele>959.8309</ele>
        <time>2021-07-16T09:24:30Z</time>
      </trkpt>
      <trkpt lat="36.70019" lon="-5.11771">
        <ele>963.3818</ele>
        <time>2021-07-16T09:24:41Z</time>
      </trkpt>
      <trkpt lat="36.70148" lon="-5.1193">
        <ele>960.5195</ele>
        <time>2021-07-16T09:24:52Z</time>
      </trkpt>
      <trkpt lat="36.70179" lon="-5.1212">
        <ele>956.5325</ele>
        <time>2021-07-16T09:25:03Z</time>
      </trkpt>
      <trkpt lat="36.7017" lon="-5.12294">
        <ele>955.4985</ele>
        <time>2021-07-16T09:25:14Z</time>
      </trkpt>
      <trkpt lat="36.70173" lon="-5.1248">
        <ele>949.0753</ele>
        <time>2021-07-16T09:25:25Z</time>
      </trkpt>
      <trkpt lat="36.70213" lon="-5.1269">
        <ele>935.3061</ele>
        <time>2021-07-16T09:25:36Z</time>
      </trkpt>
      <trkpt lat="36.70334" lon="-5.12865">
        <ele>928.3823</ele>
        <time>2021-07-16T09:25:47Z</time>
      </trkpt>
      <trkpt lat="36.70453" lon="-5.13022">
        <ele>927.143</ele>
        <time>2021-07-16T09:25:58Z</time>
      </trkpt>
      <trkpt lat="36.70639" lon="-5.13033">
        <ele>919.4609</ele>
        <time>2021-07-16T09:26:09Z</time>
      </trkpt>
      <trkpt lat="36.708" lon="-5.13057">
        <ele>905.4564</ele>
        <time>2021-07-16T09:26:20Z</time>
      </trkpt>
      <trkpt lat="36.70835" lon="-5.1325">
        <ele>889.2001</ele>
        <time>2021-07-16T09:26:31Z</time>
      </trkpt>
      <trkpt lat="36.70981" lon="-5.13231">
        <ele>871.2136</ele>
        <time>2021-07-16T09:26:42Z</time>
      </trkpt>
      <trkpt lat="36.71101" lon="-5.13106">
        <ele>861.5519</ele>
        <time>2021-07-16T09:26:53Z</time>
      </trkpt>
      <trkpt lat="36.71256" lon="-5.13158">
        <ele>848.3347</ele>
        <time>2021-07-16T09:27:04Z</time>
      </trkpt>
      <trkpt lat="36.71347" lon="-5.13318">
        <ele>834.8483</ele>
        <time>2021-07-16T09:27:15Z</time>
      </trkpt>
      <trkpt lat="36.71393" lon="-5.13501">
        <ele>820.342</ele>
        <time>2021-07-16T09:27:26Z</time>
      </trkpt>
      <trkpt lat="36.71413" lon="-5.13709">
        <ele>808.6621</ele>
        <time>2021-07-16T09:27:37Z</time>
      </trkpt>
      <trkpt lat="36.7153" lon="-5.13879">
        <ele>795.157</ele>
        <time>2021-07-16T09:27:48Z</time>
      </trkpt>
      <trkpt lat="36.71719" lon="-5.13936">
        <ele>781.8497</ele>
        <time>2021-07-16T09:27:59Z</time>
      </trkpt>
      <trkpt lat="36.71873" lon="-5.13982">
        <ele>773.7718</ele>
        <time>2021-07-16T09:28:10Z</time>
      </trkpt>
      <trkpt lat="36.71991" lon="-5.14123">
        <ele>765.3598</ele>
        <time>2021-07-16T09:28:21Z</time>
      </trkpt>
      <trkpt lat="36.7203" lon="-5.14282">
        <ele>758.1011</ele>
        <time>2021-07-16T09:28:32Z</time>
      </trkpt>
      <trkpt lat="36.72073" lon="-5.1445">
        <ele>750.1468</ele>
        <time>2021-07-16T09:28:43Z</time>
      </trkpt>
      <trkpt lat="36.72176" lon="-5.14551">
        <ele>751.4131</ele>
        <time>2021-07-16T09:28:54Z</time>
      </trkpt>
      <trkpt lat="36.72331" lon="-5.14588">
        <ele>749.8663</ele>
        <time>2021-07-16T09:29:05Z</time>
      </trkpt>
      <trkpt lat="36.72485" lon="-5.1463">
        <ele>748.3902</ele>
        <time>2021-07-16T09:29:16Z</time>
      </trkpt>
      <trkpt lat="36.72646" lon="-5.14683">
        <ele>742.0809</ele>
        <time>2021-07-16T09:29:27Z</time>
      </trkpt>
      <trkpt lat="36.72835" lon="-5.14734">
        <ele>729.7708</ele>
        <time>2021-07-16T09:29:38Z</time>
      </trkpt>
      <trkpt lat="36.73043" lon="-5.14739">
        <ele>713.9086</ele>
        <time>2021-07-16T09:29:49Z</time>
      </trkpt>
      <trkpt lat="36.73246" lon="-5.14706">
        <ele>705.4565</ele>
        <time>2021-07-16T09:30:00Z</time>
      </trkpt>
      <trkpt lat="36.734" lon="-5.14715">
        <ele>698.5302</ele>
        <time>2021-07-16T09:30:11Z</time>
      </trkpt>
      <trkpt lat="36.73553" lon="-5.14775">
        <ele>690.665</ele>
        <time>2021-07-16T09:30:22Z</time>
      </trkpt>
      <trkpt lat="36.73723" lon="-5.14833">
        <ele>683.164</ele>
        <time>2021-07-16T09:30:33Z</time>
      </trkpt>
      <trkpt lat="36.73881" lon="-5.14855">
        <ele>689.9703</ele>
        <time>2021-07-16T09:30:44Z</time>
      </trkpt>
      <trkpt lat="36.74044" lon="-5.14835">
        <ele>697.3213</ele>
        <time>2021-07-16T09:30:55Z</time>
      </trkpt>
      <trkpt lat="36.74184" lon="-5.14784">
        <ele>702.6444</ele>
        <time>2021-07-16T09:31:06Z</time>
      </trkpt>
      <trkpt lat="36.7433" lon="-5.147">
        <ele>703.2626</ele>
        <time>2021-07-16T09:31:17Z</time>
      </trkpt>
      <trkpt lat="36.74502" lon="-5.14592">
        <ele>705.452</ele>
        <time>2021-07-16T09:31:28Z</time>
      </trkpt>
      <trkpt lat="36.7467" lon="-5.14527">
        <ele>706.5728</ele>
        <time>2021-07-16T09:31:39Z</time>
      </trkpt>
      <trkpt lat="36.74841" lon="-5.14532">
        <ele>709.2841</ele>
        <time>2021-07-16T09:31:50Z</time>
      </trkpt>
      <trkpt lat="36.74984" lon="-5.14587">
        <ele>711.7467</ele>
        <time>2021-07-16T09:32:01Z</time>
      </trkpt>
      <trkpt lat="36.75134" lon="-5.14659">
        <ele>715.4695</ele>
        <time>2021-07-16T09:32:12Z</time>
      </trkpt>
      <trkpt lat="36.75256" lon="-5.14724">
        <ele>719.5948</ele>
        <time>2021-07-16T09:32:23Z</time>
      </trkpt>
      <trkpt lat="36.75316" lon="-5.14762">
        <ele>725.0755</ele>
        <time>2021-07-16T09:32:34Z</time>
      </trkpt>
      <trkpt lat="36.7533" lon="-5.14777">
        <ele>726.0542</ele>
        <time>2021-07-16T09:32:45Z</time>
      </trkpt>
      <trkpt lat="36.75358" lon="-5.14809">
        <ele>731.2142</ele>
        <time>2021-07-16T09:32:56Z</time>
      </trkpt>
      <trkpt lat="36.75412" lon="-5.14826">
        <ele>737.9854</ele>
        <time>2021-07-16T09:33:07Z</time>
      </trkpt>
      <trkpt lat="36.75478" lon="-5.14938">
        <ele>735.6257</ele>
        <time>2021-07-16T09:33:18Z</time>
      </trkpt>
      <trkpt lat="36.75378" lon="-5.14955">
        <ele>727.2307</ele>
        <time>2021-07-16T09:33:29Z</time>
      </trkpt>
      <trkpt lat="36.75338" lon="-5.14984">
        <ele>731.6923</ele>
        <time>2021-07-16T09:33:40Z</time>
      </trkpt>
      <trkpt lat="36.75285" lon="-5.15019">
        <ele>733.2504</ele>
        <time>2021-07-16T09:33:51Z</time>
      </trkpt>
      <trkpt lat="36.75229" lon="-5.15062">
        <ele>733.5592</ele>
        <time>2021-07-16T09:34:02Z</time>
      </trkpt>
      <trkpt lat="36.75179" lon="-5.15097">
        <ele>734.19</ele>
        <time>2021-07-16T09:34:13Z</time>
      </trkpt>
      <trkpt lat="36.75135" lon="-5.1513">
        <ele>741.9267</ele>
        <time>2021-07-16T09:34:24Z</time>
      </trkpt>
      <trkpt lat="36.75082" lon="-5.15184">
        <ele>739.9324</ele>
        <time>2021-07-16T09:34:35Z</time>
      </trkpt>
      <trkpt lat="36.75057" lon="-5.1521">
        <ele>746.3377</ele>
        <time>2021-07-16T09:34:46Z</time>
      </trkpt>
      <trkpt lat="36.75027" lon="-5.15242">
        <ele>755.0456</ele>
        <time>2021-07-16T09:34:57Z</time>
      </trkpt>
      <trkpt lat="36.74987" lon="-5.15292">
        <ele>748.805</ele>
        <time>2021-07-16T09:35:08Z</time>
      </trkpt>
      <trkpt lat="36.74951" lon="-5.1535">
        <ele>747.6453</ele>
        <time>2021-07-16T09:35:19Z</time>
      </trkpt>
      <trkpt lat="36.74913" lon="-5.15418">
        <ele>751.5597</ele>
        <time>2021-07-16T09:35:30Z</time>
      </trkpt>
      <trkpt lat="36.74876" lon="-5.15482">
        <ele>751.3342</ele>
        <time>2021-07-16T09:35:41Z</time>
      </trkpt>
      <trkpt lat="36.7484" lon="-5.15551">
        <ele>748.4575</ele>
        <time>2021-07-16T09:35:52Z</time>
      </trkpt>
      <trkpt lat="36.74813" lon="-5.15594">
        <ele>751.1651</ele>
        <time>2021-07-16T09:36:03Z</time>
      </trkpt>
      <trkpt lat="36.74781" lon="-5.15653">
        <ele>751.1467</ele>
        <time>2021-07-16T09:36:14Z</time>
      </trkpt>
      <trkpt lat="36.74755" lon="-5.15702">
        <ele>750.1998</ele>
        <time>2021-07-16T09:36:25Z</time>
      </trkpt>
      <trkpt lat="36.74718" lon="-5.15765">
        <ele>752.2273</ele>
        <time>2021-07-16T09:36:36Z</time>
      </trkpt>
      <trkpt lat="36.74671" lon="-5.15845">
        <ele>750.3783</ele>
        <time>2021-07-16T09:36:47Z</time>
      </trkpt>
      <trkpt lat="36.74641" lon="-5.159">
        <ele>748.4693</ele>
        <time>2021-07-16T09:36:58Z</time>
      </trkpt>
      <trkpt lat="36.7461" lon="-5.15955">
        <ele>745.7724</ele>
        <time>2021-07-16T09:37:09Z</time>
      </trkpt>
      <trkpt lat="36.74602" lon="-5.15987">
        <ele>744.8153</ele>
        <time>2021-07-16T09:37:20Z</time>
      </trkpt>
      <trkpt lat="36.74667" lon="-5.1604">
        <ele>746.7542</ele>
        <time>2021-07-16T09:37:31Z</time>
      </trkpt>
      <trkpt lat="36.74744" lon="-5.16102">
        <ele>743.8202</ele>
        <time>2021-07-16T09:37:42Z</time>
      </trkpt>
      <trkpt lat="36.74808" lon="-5.16151">
        <ele>744.8801</ele>
        <time>2021-07-16T09:37:53Z</time>
      </trkpt>
      <trkpt lat="36.74792" lon="-5.16211">
        <ele>744.5697</ele>
        <time>2021-07-16T09:38:04Z</time>
      </trkpt>
      <trkpt lat="36.74776" lon="-5.16242">
        <ele>744.1792</ele>
        <time>2021-07-16T09:38:15Z</time>
      </trkpt>
      <trkpt lat="36.74771" lon="-5.1625">
        <ele>745.0472</ele>
        <time>2021-07-16T09:38:26Z</time>
      </trkpt>
      <trkpt lat="36.74746" lon="-5.16298">
        <ele>746.322</ele>
        <time>2021-07-16T09:38:37Z</time>
      </trkpt>
      <trkpt lat="36.74713" lon="-5.16362">
        <ele>741.2386</ele>
        <time>2021-07-16T09:38:48Z</time>
      </trkpt>
      <trkpt lat="36.74739" lon="-5.16445">
        <ele>746.4194</ele>
        <time>2021-07-16T09:39:00Z</time>
      </trkpt>
      <trkpt lat="36.74756" lon="-5.16582">
        <ele>747.5889</ele>
        <time>2021-07-16T09:39:11Z</time>
      </trkpt>
      <trkpt lat="36.74765" lon="-5.16655">
        <ele>748.7701</ele>
        <time>2021-07-16T09:39:22Z</time>
      </trkpt>
      <trkpt lat="36.74713" lon="-5.16619">
        <ele>743.6453</ele>
        <time>2021-07-16T09:39:33Z</time>
      </trkpt>
      <trkpt lat="36.74671" lon="-5.16586">
        <ele>747.186</ele>
        <time>2021-07-16T09:39:44Z</time>
      </trkpt>
      <trkpt lat="36.74653" lon="-5.16569">
        <ele>749.2334</ele>
        <time>2021-07-16T09:39:55Z</time>
      </trkpt>
      <trkpt lat="36.74649" lon="-5.16562">
        <ele>754.2672</ele>
        <time>2021-07-16T09:40:06Z</time>
      </trkpt>
      <trkpt lat="36.74649" lon="-5.16558">
        <ele>757.0148</ele>
        <time>2021-07-16T09:40:17Z</time>
      </trkpt>
      <trkpt lat="36.74648" lon="-5.16563">
        <ele>760.0414</ele>
        <time>2021-07-16T09:40:29Z</time>
      </trkpt>
      <trkpt lat="36.74645" lon="-5.16569">
        <ele>758.7208</ele>
        <time>2021-07-16T09:40:40Z</time>
      </trkpt>
      <trkpt lat="36.74644" lon="-5.16573">
        <ele>759.7348</ele>
        <time>2021-07-16T09:40:54Z</time>
      </trkpt>
      <trkpt lat="36.74647" lon="-5.16574">
        <ele>756.4097</ele>
        <time>2021-07-16T09:41:53Z</time>
      </trkpt>
      <trkpt lat="36.74644" lon="-5.16571">
        <ele>759.1867</ele>
        <time>2021-07-16T09:42:08Z</time>
      </trkpt>
      <trkpt lat="36.74638" lon="-5.16554">
        <ele>765.1578</ele>
        <time>2021-07-16T09:42:19Z</time>
      </trkpt>
      <trkpt lat="36.7465" lon="-5.16553">
        <ele>737.9658</ele>
        <time>2021-07-16T09:42:30Z</time>
      </trkpt>
      <trkpt lat="36.74646" lon="-5.16551">
        <ele>740.4792</ele>
        <time>2021-07-16T09:42:41Z</time>
      </trkpt>
      <trkpt lat="36.74642" lon="-5.16559">
        <ele>736.5348</ele>
        <time>2021-07-16T09:42:52Z</time>
      </trkpt>
      <trkpt lat="36.74638" lon="-5.16563">
        <ele>737.9894</ele>
        <time>2021-07-16T09:43:03Z</time>
      </trkpt>
      <trkpt lat="36.74636" lon="-5.16563">
        <ele>738.9827</ele>
        <time>2021-07-16T09:44:03Z</time>
      </trkpt>
      <trkpt lat="36.7464" lon="-5.16563">
        <ele>739.2507</ele>
        <time>2021-07-16T09:44:15Z</time>
      </trkpt>
      <trkpt lat="36.74644" lon="-5.16562">
        <ele>739.4546</ele>
        <time>2021-07-16T09:44:40Z</time>
      </trkpt>
      <trkpt lat="36.7464" lon="-5.1656">
        <ele>738.6829</ele>
        <time>2021-07-16T09:44:53Z</time>
      </trkpt>
      <trkpt lat="36.74639" lon="-5.16561">
        <ele>740.1007</ele>
        <time>2021-07-16T09:45:52Z</time>
      </trkpt>
      <trkpt lat="36.74642" lon="-5.16563">
        <ele>740.2835</ele>
        <time>2021-07-16T09:46:12Z</time>
      </trkpt>
      <trkpt lat="36.74645" lon="-5.1656">
        <ele>739.486</ele>
        <time>2021-07-16T09:46:23Z</time>
      </trkpt>
      <trkpt lat="36.74649" lon="-5.16558">
        <ele>739.3639</ele>
        <time>2021-07-16T09:47:09Z</time>
      </trkpt>
      <trkpt lat="36.74643" lon="-5.16565">
        <ele>739.4822</ele>
        <time>2021-07-16T09:47:21Z</time>
      </trkpt>
      <trkpt lat="36.74646" lon="-5.16569">
        <ele>739.7386</ele>
        <time>2021-07-16T09:48:20Z</time>
      </trkpt>
      <trkpt lat="36.74643" lon="-5.16566">
        <ele>739.226</ele>
        <time>2021-07-16T09:48:40Z</time>
      </trkpt>
      <trkpt lat="36.74646" lon="-5.16563">
        <ele>739.0183</ele>
        <time>2021-07-16T09:49:14Z</time>
      </trkpt>
      <trkpt lat="36.7465" lon="-5.1656">
        <ele>739.2429</ele>
        <time>2021-07-16T09:49:38Z</time>
      </trkpt>
      <trkpt lat="36.74646" lon="-5.16561">
        <ele>739.4185</ele>
        <time>2021-07-16T09:49:59Z</time>
      </trkpt>
      <trkpt lat="36.74643" lon="-5.16562">
        <ele>739.4127</ele>
        <time>2021-07-16T09:50:14Z</time>
      </trkpt>
      <trkpt lat="36.74648" lon="-5.1656">
        <ele>739.4187</ele>
        <time>2021-07-16T09:50:25Z</time>
      </trkpt>
      <trkpt lat="36.74646" lon="-5.16557">
        <ele>740.8985</ele>
        <time>2021-07-16T09:51:25Z</time>
      </trkpt>
      <trkpt lat="36.74646" lon="-5.16557">
        <ele>740.8985</ele>
        <time>2021-07-16T09:52:25Z</time>
      </trkpt>
      <trkpt lat="36.74646" lon="-5.16557">
        <ele>740.8985</ele>
        <time>2021-07-16T09:53:25Z</time>
      </trkpt>
      <trkpt lat="36.74646" lon="-5.16557">
        <ele>740.8985</ele>
        <time>2021-07-16T09:54:25Z</time>
      </trkpt>
      <trkpt lat="36.74642" lon="-5.16561">
        <ele>740.3278</ele>
        <time>2021-07-16T09:55:20Z</time>
      </trkpt>
      <trkpt lat="36.74641" lon="-5.16557">
        <ele>740.2049</ele>
        <time>2021-07-16T09:55:44Z</time>
      </trkpt>
      <trkpt lat="36.74645" lon="-5.16561">
        <ele>739.7346</ele>
        <time>2021-07-16T09:56:39Z</time>
      </trkpt>
      <trkpt lat="36.74647" lon="-5.16557">
        <ele>739.272</ele>
        <time>2021-07-16T09:56:59Z</time>
      </trkpt>
      <trkpt lat="36.74651" lon="-5.16556">
        <ele>740.1827</ele>
        <time>2021-07-16T09:57:41Z</time>
      </trkpt>
      <trkpt lat="36.74648" lon="-5.16556">
        <ele>740.3507</ele>
        <time>2021-07-16T09:58:41Z</time>
      </trkpt>
      <trkpt lat="36.74645" lon="-5.16555">
        <ele>741.1748</ele>
        <time>2021-07-16T09:59:19Z</time>
      </trkpt>
      <trkpt lat="36.74643" lon="-5.16559">
        <ele>740.8843</ele>
        <time>2021-07-16T10:00:11Z</time>
      </trkpt>
      <trkpt lat="36.74644" lon="-5.16561">
        <ele>739.4104</ele>
        <time>2021-07-16T10:01:11Z</time>
      </trkpt>
      <trkpt lat="36.74641" lon="-5.16557">
        <ele>739.5661</ele>
        <time>2021-07-16T10:01:29Z</time>
      </trkpt>
      <trkpt lat="36.74645" lon="-5.16554">
        <ele>738.7761</ele>
        <time>2021-07-16T10:01:40Z</time>
      </trkpt>
      <trkpt lat="36.74642" lon="-5.16557">
        <ele>739.9822</ele>
        <time>2021-07-16T10:01:55Z</time>
      </trkpt>
      <trkpt lat="36.74638" lon="-5.16558">
        <ele>741.3192</ele>
        <time>2021-07-16T10:02:20Z</time>
      </trkpt>
      <trkpt lat="36.74642" lon="-5.16558">
        <ele>739.5622</ele>
        <time>2021-07-16T10:02:48Z</time>
      </trkpt>
      <trkpt lat="36.74646" lon="-5.16556">
        <ele>740.0705</ele>
        <time>2021-07-16T10:02:59Z</time>
      </trkpt>
      <trkpt lat="36.7465" lon="-5.16556">
        <ele>738.8452</ele>
        <time>2021-07-16T10:03:13Z</time>
      </trkpt>
      <trkpt lat="36.74644" lon="-5.1656">
        <ele>737.3107</ele>
        <time>2021-07-16T10:03:24Z</time>
      </trkpt>
      <trkpt lat="36.7464" lon="-5.1656">
        <ele>740.1878</ele>
        <time>2021-07-16T10:03:35Z</time>
      </trkpt>
      <trkpt lat="36.74642" lon="-5.16554">
        <ele>739.5647</ele>
        <time>2021-07-16T10:03:46Z</time>
      </trkpt>
      <trkpt lat="36.74646" lon="-5.16554">
        <ele>739.5905</ele>
        <time>2021-07-16T10:03:57Z</time>
      </trkpt>
      <trkpt lat="36.74648" lon="-5.16561">
        <ele>739.4403</ele>
        <time>2021-07-16T10:04:08Z</time>
      </trkpt>
      <trkpt lat="36.74647" lon="-5.16558">
        <ele>737.8542</ele>
        <time>2021-07-16T10:05:06Z</time>
      </trkpt>
      <trkpt lat="36.74646" lon="-5.16548">
        <ele>739.3099</ele>
        <time>2021-07-16T10:05:17Z</time>
      </trkpt>
      <trkpt lat="36.74648" lon="-5.16544">
        <ele>739.0356</ele>
        <time>2021-07-16T10:05:28Z</time>
      </trkpt>
      <trkpt lat="36.7464" lon="-5.16544">
        <ele>746.4311</ele>
        <time>2021-07-16T10:05:43Z</time>
      </trkpt>
      <trkpt lat="36.74637" lon="-5.16541">
        <ele>746.4311</ele>
        <time>2021-07-16T10:05:55Z</time>
      </trkpt>
      <trkpt lat="36.74638" lon="-5.16546">
        <ele>746.4311</ele>
        <time>2021-07-16T10:06:08Z</time>
      </trkpt>
      <trkpt lat="36.74637" lon="-5.16541">
        <ele>746.4311</ele>
        <time>2021-07-16T10:06:20Z</time>
      </trkpt>
      <trkpt lat="36.74641" lon="-5.16542">
        <ele>719.9012</ele>
        <time>2021-07-16T10:07:00Z</time>
      </trkpt>
      <trkpt lat="36.74637" lon="-5.16541">
        <ele>746.4311</ele>
        <time>2021-07-16T10:07:18Z</time>
      </trkpt>
      <trkpt lat="36.74633" lon="-5.16554">
        <ele>739.8126</ele>
        <time>2021-07-16T10:07:29Z</time>
      </trkpt>
      <trkpt lat="36.74664" lon="-5.16544">
        <ele>739.0196</ele>
        <time>2021-07-16T10:07:40Z</time>
      </trkpt>
      <trkpt lat="36.74648" lon="-5.1655">
        <ele>737.7276</ele>
        <time>2021-07-16T10:07:51Z</time>
      </trkpt>
      <trkpt lat="36.74644" lon="-5.16552">
        <ele>740.4912</ele>
        <time>2021-07-16T10:08:02Z</time>
      </trkpt>
      <trkpt lat="36.74641" lon="-5.16554">
        <ele>738.8599</ele>
        <time>2021-07-16T10:08:13Z</time>
      </trkpt>
      <trkpt lat="36.74645" lon="-5.16554">
        <ele>740.1441</ele>
        <time>2021-07-16T10:09:05Z</time>
      </trkpt>
      <trkpt lat="36.74644" lon="-5.16559">
        <ele>739.0702</ele>
        <time>2021-07-16T10:09:16Z</time>
      </trkpt>
      <trkpt lat="36.74646" lon="-5.16567">
        <ele>737.7425</ele>
        <time>2021-07-16T10:09:27Z</time>
      </trkpt>
      <trkpt lat="36.74643" lon="-5.1657">
        <ele>738.6114</ele>
        <time>2021-07-16T10:09:38Z</time>
      </trkpt>
      <trkpt lat="36.7464" lon="-5.16575">
        <ele>738.5773</ele>
        <time>2021-07-16T10:09:49Z</time>
      </trkpt>
      <trkpt lat="36.74641" lon="-5.16576">
        <ele>739.3163</ele>
        <time>2021-07-16T10:10:47Z</time>
      </trkpt>
      <trkpt lat="36.74638" lon="-5.16573">
        <ele>738.5059</ele>
        <time>2021-07-16T10:11:00Z</time>
      </trkpt>
      <trkpt lat="36.74597" lon="-5.16532">
        <ele>735.741</ele>
        <time>2021-07-16T10:11:11Z</time>
      </trkpt>
      <trkpt lat="36.74552" lon="-5.16509">
        <ele>735.9336</ele>
        <time>2021-07-16T10:11:22Z</time>
      </trkpt>
      <trkpt lat="36.74542" lon="-5.16499">
        <ele>737.2535</ele>
        <time>2021-07-16T10:11:33Z</time>
      </trkpt>
      <trkpt lat="36.74515" lon="-5.16557">
        <ele>734.9936</ele>
        <time>2021-07-16T10:11:44Z</time>
      </trkpt>
      <trkpt lat="36.74495" lon="-5.16584">
        <ele>733.2698</ele>
        <time>2021-07-16T10:11:55Z</time>
      </trkpt>
      <trkpt lat="36.74493" lon="-5.16598">
        <ele>734.4456</ele>
        <time>2021-07-16T10:12:06Z</time>
      </trkpt>
      <trkpt lat="36.74484" lon="-5.16621">
        <ele>733.5181</ele>
        <time>2021-07-16T10:12:17Z</time>
      </trkpt>
      <trkpt lat="36.74461" lon="-5.16663">
        <ele>732.2595</ele>
        <time>2021-07-16T10:12:28Z</time>
      </trkpt>
      <trkpt lat="36.7445" lon="-5.16692">
        <ele>730.9894</ele>
        <time>2021-07-16T10:12:39Z</time>
      </trkpt>
      <trkpt lat="36.74454" lon="-5.16695">
        <ele>731.633</ele>
        <time>2021-07-16T10:12:50Z</time>
      </trkpt>
      <trkpt lat="36.74447" lon="-5.16706">
        <ele>732.2954</ele>
        <time>2021-07-16T10:13:01Z</time>
      </trkpt>
      <trkpt lat="36.74443" lon="-5.16713">
        <ele>731.5562</ele>
        <time>2021-07-16T10:13:12Z</time>
      </trkpt>
      <trkpt lat="36.74442" lon="-5.16722">
        <ele>731.4703</ele>
        <time>2021-07-16T10:13:23Z</time>
      </trkpt>
      <trkpt lat="36.74429" lon="-5.1673">
        <ele>730.9427</ele>
        <time>2021-07-16T10:13:34Z</time>
      </trkpt>
      <trkpt lat="36.74404" lon="-5.16721">
        <ele>729.2135</ele>
        <time>2021-07-16T10:13:45Z</time>
      </trkpt>
      <trkpt lat="36.74336" lon="-5.167">
        <ele>725.7756</ele>
        <time>2021-07-16T10:13:56Z</time>
      </trkpt>
      <trkpt lat="36.74289" lon="-5.16682">
        <ele>724.1739</ele>
        <time>2021-07-16T10:14:07Z</time>
      </trkpt>
      <trkpt lat="36.74257" lon="-5.16667">
        <ele>723.9328</ele>
        <time>2021-07-16T10:14:18Z</time>
      </trkpt>
      <trkpt lat="36.74236" lon="-5.16659">
        <ele>724.7755</ele>
        <time>2021-07-16T10:14:29Z</time>
      </trkpt>
      <trkpt lat="36.74228" lon="-5.16654">
        <ele>726.05</ele>
        <time>2021-07-16T10:14:40Z</time>
      </trkpt>
      <trkpt lat="36.74199" lon="-5.16641">
        <ele>726.3809</ele>
        <time>2021-07-16T10:14:51Z</time>
      </trkpt>
      <trkpt lat="36.74146" lon="-5.16622">
        <ele>724.1445</ele>
        <time>2021-07-16T10:15:02Z</time>
      </trkpt>
      <trkpt lat="36.74105" lon="-5.16612">
        <ele>715.8307</ele>
        <time>2021-07-16T10:15:13Z</time>
      </trkpt>
      <trkpt lat="36.74053" lon="-5.16576">
        <ele>716.8488</ele>
        <time>2021-07-16T10:15:24Z</time>
      </trkpt>
      <trkpt lat="36.74012" lon="-5.16567">
        <ele>719.0435</ele>
        <time>2021-07-16T10:15:35Z</time>
      </trkpt>
      <trkpt lat="36.73959" lon="-5.16547">
        <ele>729.7936</ele>
        <time>2021-07-16T10:15:46Z</time>
      </trkpt>
      <trkpt lat="36.73899" lon="-5.16524">
        <ele>731.8224</ele>
        <time>2021-07-16T10:15:57Z</time>
      </trkpt>
      <trkpt lat="36.73841" lon="-5.16511">
        <ele>729.48</ele>
        <time>2021-07-16T10:16:08Z</time>
      </trkpt>
      <trkpt lat="36.73809" lon="-5.16489">
        <ele>728.764</ele>
        <time>2021-07-16T10:16:19Z</time>
      </trkpt>
      <trkpt lat="36.73769" lon="-5.16472">
        <ele>727.3803</ele>
        <time>2021-07-16T10:16:30Z</time>
      </trkpt>
      <trkpt lat="36.73719" lon="-5.16476">
        <ele>726.1784</ele>
        <time>2021-07-16T10:16:41Z</time>
      </trkpt>
      <trkpt lat="36.73642" lon="-5.16448">
        <ele>722.0283</ele>
        <time>2021-07-16T10:16:52Z</time>
      </trkpt>
      <trkpt lat="36.7359" lon="-5.16426">
        <ele>711.307</ele>
        <time>2021-07-16T10:17:03Z</time>
      </trkpt>
      <trkpt lat="36.73553" lon="-5.16423">
        <ele>710.6687</ele>
        <time>2021-07-16T10:17:14Z</time>
      </trkpt>
      <trkpt lat="36.73511" lon="-5.16503">
        <ele>712.7174</ele>
        <time>2021-07-16T10:17:25Z</time>
      </trkpt>
      <trkpt lat="36.73448" lon="-5.16489">
        <ele>700.3035</ele>
        <time>2021-07-16T10:17:36Z</time>
      </trkpt>
      <trkpt lat="36.73439" lon="-5.16488">
        <ele>701.8568</ele>
        <time>2021-07-16T10:17:47Z</time>
      </trkpt>
      <trkpt lat="36.73448" lon="-5.16489">
        <ele>702.6692</ele>
        <time>2021-07-16T10:17:58Z</time>
      </trkpt>
      <trkpt lat="36.73493" lon="-5.16542">
        <ele>697.3374</ele>
        <time>2021-07-16T10:18:09Z</time>
      </trkpt>
      <trkpt lat="36.73562" lon="-5.1661">
        <ele>680.6958</ele>
        <time>2021-07-16T10:18:20Z</time>
      </trkpt>
      <trkpt lat="36.73597" lon="-5.16643">
        <ele>682.7312</ele>
        <time>2021-07-16T10:18:31Z</time>
      </trkpt>
      <trkpt lat="36.7362" lon="-5.16666">
        <ele>680.2272</ele>
        <time>2021-07-16T10:18:42Z</time>
      </trkpt>
      <trkpt lat="36.7366" lon="-5.16729">
        <ele>668.5662</ele>
        <time>2021-07-16T10:18:53Z</time>
      </trkpt>
      <trkpt lat="36.73671" lon="-5.1681">
        <ele>659.1425</ele>
        <time>2021-07-16T10:19:04Z</time>
      </trkpt>
      <trkpt lat="36.73738" lon="-5.16859">
        <ele>648.0548</ele>
        <time>2021-07-16T10:19:15Z</time>
      </trkpt>
      <trkpt lat="36.73762" lon="-5.16896">
        <ele>640.5228</ele>
        <time>2021-07-16T10:19:26Z</time>
      </trkpt>
      <trkpt lat="36.73708" lon="-5.16928">
        <ele>628.5774</ele>
        <time>2021-07-16T10:19:37Z</time>
      </trkpt>
      <trkpt lat="36.73732" lon="-5.16991">
        <ele>620.2438</ele>
        <time>2021-07-16T10:19:48Z</time>
      </trkpt>
      <trkpt lat="36.73785" lon="-5.16995">
        <ele>608.8472</ele>
        <time>2021-07-16T10:19:59Z</time>
      </trkpt>
      <trkpt lat="36.73861" lon="-5.17016">
        <ele>598.0996</ele>
        <time>2021-07-16T10:20:10Z</time>
      </trkpt>
      <trkpt lat="36.73885" lon="-5.17018">
        <ele>594.9581</ele>
        <time>2021-07-16T10:20:21Z</time>
      </trkpt>
      <trkpt lat="36.73938" lon="-5.1702">
        <ele>598.8759</ele>
        <time>2021-07-16T10:20:32Z</time>
      </trkpt>
      <trkpt lat="36.73933" lon="-5.17027">
        <ele>593.3371</ele>
        <time>2021-07-16T10:20:43Z</time>
      </trkpt>
      <trkpt lat="36.73936" lon="-5.17016">
        <ele>592.1057</ele>
        <time>2021-07-16T10:21:03Z</time>
      </trkpt>
      <trkpt lat="36.73921" lon="-5.17016">
        <ele>592.9271</ele>
        <time>2021-07-16T10:21:14Z</time>
      </trkpt>
      <trkpt lat="36.73925" lon="-5.1701">
        <ele>590.1145</ele>
        <time>2021-07-16T10:21:25Z</time>
      </trkpt>
      <trkpt lat="36.73934" lon="-5.17018">
        <ele>590.2988</ele>
        <time>2021-07-16T10:21:36Z</time>
      </trkpt>
      <trkpt lat="36.73931" lon="-5.17028">
        <ele>590.2845</ele>
        <time>2021-07-16T10:21:47Z</time>
      </trkpt>
      <trkpt lat="36.73939" lon="-5.17018">
        <ele>590.7182</ele>
        <time>2021-07-16T10:22:01Z</time>
      </trkpt>
      <trkpt lat="36.73932" lon="-5.17028">
        <ele>590.9907</ele>
        <time>2021-07-16T10:22:12Z</time>
      </trkpt>
      <trkpt lat="36.73908" lon="-5.16988">
        <ele>589.6788</ele>
        <time>2021-07-16T10:22:23Z</time>
      </trkpt>
      <trkpt lat="36.73907" lon="-5.16989">
        <ele>589.5413</ele>
        <time>2021-07-16T10:23:21Z</time>
      </trkpt>
      <trkpt lat="36.73907" lon="-5.16989">
        <ele>590.3861</ele>
        <time>2021-07-16T10:24:20Z</time>
      </trkpt>
      <trkpt lat="36.73907" lon="-5.16986">
        <ele>590.7577</ele>
        <time>2021-07-16T10:25:19Z</time>
      </trkpt>
      <trkpt lat="36.73908" lon="-5.16991">
        <ele>590.2795</ele>
        <time>2021-07-16T10:26:06Z</time>
      </trkpt>
      <trkpt lat="36.73897" lon="-5.17013">
        <ele>589.4581</ele>
        <time>2021-07-16T10:26:17Z</time>
      </trkpt>
      <trkpt lat="36.73831" lon="-5.17023">
        <ele>602.6142</ele>
        <time>2021-07-16T10:26:28Z</time>
      </trkpt>
      <trkpt lat="36.73786" lon="-5.16999">
        <ele>609.0362</ele>
        <time>2021-07-16T10:26:39Z</time>
      </trkpt>
      <trkpt lat="36.73742" lon="-5.17009">
        <ele>615.2884</ele>
        <time>2021-07-16T10:26:50Z</time>
      </trkpt>
      <trkpt lat="36.73719" lon="-5.16958">
        <ele>625.0876</ele>
        <time>2021-07-16T10:27:01Z</time>
      </trkpt>
      <trkpt lat="36.73739" lon="-5.16903">
        <ele>635.5042</ele>
        <time>2021-07-16T10:27:12Z</time>
      </trkpt>
      <trkpt lat="36.73749" lon="-5.16866">
        <ele>644.2991</ele>
        <time>2021-07-16T10:27:23Z</time>
      </trkpt>
      <trkpt lat="36.73679" lon="-5.16817">
        <ele>658.9252</ele>
        <time>2021-07-16T10:27:34Z</time>
      </trkpt>
      <trkpt lat="36.7366" lon="-5.16746">
        <ele>669.0312</ele>
        <time>2021-07-16T10:27:45Z</time>
      </trkpt>
      <trkpt lat="36.73617" lon="-5.16666">
        <ele>678.5783</ele>
        <time>2021-07-16T10:27:56Z</time>
      </trkpt>
      <trkpt lat="36.73554" lon="-5.16606">
        <ele>686.3209</ele>
        <time>2021-07-16T10:28:07Z</time>
      </trkpt>
      <trkpt lat="36.735" lon="-5.16554">
        <ele>695.6426</ele>
        <time>2021-07-16T10:28:18Z</time>
      </trkpt>
      <trkpt lat="36.73455" lon="-5.16512">
        <ele>702.3966</ele>
        <time>2021-07-16T10:28:29Z</time>
      </trkpt>
      <trkpt lat="36.73441" lon="-5.16496">
        <ele>702.534</ele>
        <time>2021-07-16T10:28:40Z</time>
      </trkpt>
      <trkpt lat="36.73433" lon="-5.16467">
        <ele>701.2113</ele>
        <time>2021-07-16T10:28:51Z</time>
      </trkpt>
      <trkpt lat="36.73466" lon="-5.16501">
        <ele>702.6696</ele>
        <time>2021-07-16T10:29:02Z</time>
      </trkpt>
      <trkpt lat="36.73516" lon="-5.16467">
        <ele>711.3214</ele>
        <time>2021-07-16T10:29:13Z</time>
      </trkpt>
      <trkpt lat="36.73576" lon="-5.16419">
        <ele>714.235</ele>
        <time>2021-07-16T10:29:24Z</time>
      </trkpt>
      <trkpt lat="36.73649" lon="-5.1645">
        <ele>718.9694</ele>
        <time>2021-07-16T10:29:35Z</time>
      </trkpt>
      <trkpt lat="36.73725" lon="-5.16475">
        <ele>727.1447</ele>
        <time>2021-07-16T10:29:46Z</time>
      </trkpt>
      <trkpt lat="36.73797" lon="-5.16475">
        <ele>727.5586</ele>
        <time>2021-07-16T10:29:57Z</time>
      </trkpt>
      <trkpt lat="36.73865" lon="-5.16511">
        <ele>730.3431</ele>
        <time>2021-07-16T10:30:08Z</time>
      </trkpt>
      <trkpt lat="36.73937" lon="-5.16532">
        <ele>732.3341</ele>
        <time>2021-07-16T10:30:19Z</time>
      </trkpt>
      <trkpt lat="36.74011" lon="-5.16563">
        <ele>725.1088</ele>
        <time>2021-07-16T10:30:30Z</time>
      </trkpt>
      <trkpt lat="36.74079" lon="-5.1659">
        <ele>721.7556</ele>
        <time>2021-07-16T10:30:41Z</time>
      </trkpt>
      <trkpt lat="36.74137" lon="-5.16617">
        <ele>720.7103</ele>
        <time>2021-07-16T10:30:52Z</time>
      </trkpt>
      <trkpt lat="36.74188" lon="-5.16634">
        <ele>722.07</ele>
        <time>2021-07-16T10:31:03Z</time>
      </trkpt>
      <trkpt lat="36.74253" lon="-5.16657">
        <ele>725.2302</ele>
        <time>2021-07-16T10:31:14Z</time>
      </trkpt>
      <trkpt lat="36.74326" lon="-5.1669">
        <ele>728.6096</ele>
        <time>2021-07-16T10:31:25Z</time>
      </trkpt>
      <trkpt lat="36.74394" lon="-5.16721">
        <ele>731.3749</ele>
        <time>2021-07-16T10:31:36Z</time>
      </trkpt>
      <trkpt lat="36.74463" lon="-5.16738">
        <ele>731.8179</ele>
        <time>2021-07-16T10:31:47Z</time>
      </trkpt>
      <trkpt lat="36.74513" lon="-5.16768">
        <ele>734.0256</ele>
        <time>2021-07-16T10:31:58Z</time>
      </trkpt>
      <trkpt lat="36.74545" lon="-5.1679">
        <ele>735.3108</ele>
        <time>2021-07-16T10:32:09Z</time>
      </trkpt>
      <trkpt lat="36.74593" lon="-5.16819">
        <ele>735.6023</ele>
        <time>2021-07-16T10:32:20Z</time>
      </trkpt>
      <trkpt lat="36.74638" lon="-5.16847">
        <ele>735.3239</ele>
        <time>2021-07-16T10:32:31Z</time>
      </trkpt>
      <trkpt lat="36.74705" lon="-5.16885">
        <ele>741.4248</ele>
        <time>2021-07-16T10:32:42Z</time>
      </trkpt>
      <trkpt lat="36.74745" lon="-5.16821">
        <ele>744.2754</ele>
        <time>2021-07-16T10:32:53Z</time>
      </trkpt>
      <trkpt lat="36.74791" lon="-5.16826">
        <ele>747.3596</ele>
        <time>2021-07-16T10:33:04Z</time>
      </trkpt>
      <trkpt lat="36.74876" lon="-5.16883">
        <ele>749.6061</ele>
        <time>2021-07-16T10:33:15Z</time>
      </trkpt>
      <trkpt lat="36.74985" lon="-5.16945">
        <ele>752.7768</ele>
        <time>2021-07-16T10:33:26Z</time>
      </trkpt>
      <trkpt lat="36.75035" lon="-5.16855">
        <ele>758.3722</ele>
        <time>2021-07-16T10:33:37Z</time>
      </trkpt>
      <trkpt lat="36.75056" lon="-5.16749">
        <ele>766.0292</ele>
        <time>2021-07-16T10:33:48Z</time>
      </trkpt>
      <trkpt lat="36.75059" lon="-5.16677">
        <ele>766.4461</ele>
        <time>2021-07-16T10:33:59Z</time>
      </trkpt>
      <trkpt lat="36.75064" lon="-5.1657">
        <ele>759.4592</ele>
        <time>2021-07-16T10:34:10Z</time>
      </trkpt>
      <trkpt lat="36.75071" lon="-5.16492">
        <ele>755.2216</ele>
        <time>2021-07-16T10:34:21Z</time>
      </trkpt>
      <trkpt lat="36.75066" lon="-5.1645">
        <ele>753.5495</ele>
        <time>2021-07-16T10:34:32Z</time>
      </trkpt>
      <trkpt lat="36.75078" lon="-5.1639">
        <ele>751.0696</ele>
        <time>2021-07-16T10:34:43Z</time>
      </trkpt>
      <trkpt lat="36.75099" lon="-5.16362">
        <ele>748.9463</ele>
        <time>2021-07-16T10:34:54Z</time>
      </trkpt>
      <trkpt lat="36.75102" lon="-5.16368">
        <ele>749.7878</ele>
        <time>2021-07-16T10:35:05Z</time>
      </trkpt>
      <trkpt lat="36.75099" lon="-5.16374">
        <ele>750.1923</ele>
        <time>2021-07-16T10:35:16Z</time>
      </trkpt>
      <trkpt lat="36.75101" lon="-5.16372">
        <ele>750.076</ele>
        <time>2021-07-16T10:36:15Z</time>
      </trkpt>
      <trkpt lat="36.75083" lon="-5.16375">
        <ele>750.076</ele>
        <time>2021-07-16T10:36:26Z</time>
      </trkpt>
      <trkpt lat="36.75083" lon="-5.16372">
        <ele>750.3771</ele>
        <time>2021-07-16T10:37:25Z</time>
      </trkpt>
      <trkpt lat="36.75112" lon="-5.16372">
        <ele>750.0672</ele>
        <time>2021-07-16T10:37:44Z</time>
      </trkpt>
      <trkpt lat="36.7512" lon="-5.16371">
        <ele>750.0998</ele>
        <time>2021-07-16T10:37:55Z</time>
      </trkpt>
      <trkpt lat="36.75112" lon="-5.1637">
        <ele>749.7952</ele>
        <time>2021-07-16T10:38:06Z</time>
      </trkpt>
      <trkpt lat="36.75112" lon="-5.16371">
        <ele>749.4713</ele>
        <time>2021-07-16T10:39:05Z</time>
      </trkpt>
      <trkpt lat="36.75111" lon="-5.16375">
        <ele>750.3069</ele>
        <time>2021-07-16T10:39:43Z</time>
      </trkpt>
      <trkpt lat="36.75083" lon="-5.16377">
        <ele>751.1374</ele>
        <time>2021-07-16T10:39:54Z</time>
      </trkpt>
      <trkpt lat="36.75092" lon="-5.16343">
        <ele>749.8973</ele>
        <time>2021-07-16T10:40:05Z</time>
      </trkpt>
      <trkpt lat="36.7509" lon="-5.16225">
        <ele>743.8096</ele>
        <time>2021-07-16T10:40:16Z</time>
      </trkpt>
      <trkpt lat="36.75118" lon="-5.16108">
        <ele>740.9847</ele>
        <time>2021-07-16T10:40:27Z</time>
      </trkpt>
      <trkpt lat="36.75151" lon="-5.16007">
        <ele>739.5088</ele>
        <time>2021-07-16T10:40:38Z</time>
      </trkpt>
      <trkpt lat="36.75187" lon="-5.15901">
        <ele>739.3333</ele>
        <time>2021-07-16T10:40:49Z</time>
      </trkpt>
      <trkpt lat="36.75213" lon="-5.15831">
        <ele>737.4462</ele>
        <time>2021-07-16T10:41:00Z</time>
      </trkpt>
      <trkpt lat="36.75231" lon="-5.15782">
        <ele>736.6278</ele>
        <time>2021-07-16T10:41:11Z</time>
      </trkpt>
      <trkpt lat="36.75258" lon="-5.15672">
        <ele>734.3192</ele>
        <time>2021-07-16T10:41:22Z</time>
      </trkpt>
      <trkpt lat="36.75342" lon="-5.15539">
        <ele>731.1827</ele>
        <time>2021-07-16T10:41:33Z</time>
      </trkpt>
      <trkpt lat="36.75382" lon="-5.15416">
        <ele>730.4656</ele>
        <time>2021-07-16T10:41:44Z</time>
      </trkpt>
      <trkpt lat="36.75392" lon="-5.1534">
        <ele>721.3737</ele>
        <time>2021-07-16T10:41:55Z</time>
      </trkpt>
      <trkpt lat="36.75397" lon="-5.15303">
        <ele>721.7174</ele>
        <time>2021-07-16T10:42:06Z</time>
      </trkpt>
      <trkpt lat="36.75415" lon="-5.15187">
        <ele>722.1013</ele>
        <time>2021-07-16T10:42:17Z</time>
      </trkpt>
      <trkpt lat="36.75429" lon="-5.15072">
        <ele>723.9095</ele>
        <time>2021-07-16T10:42:28Z</time>
      </trkpt>
      <trkpt lat="36.75408" lon="-5.15032">
        <ele>727.3442</ele>
        <time>2021-07-16T10:42:39Z</time>
      </trkpt>
      <trkpt lat="36.7535" lon="-5.15006">
        <ele>729.1217</ele>
        <time>2021-07-16T10:42:50Z</time>
      </trkpt>
      <trkpt lat="36.75345" lon="-5.1495">
        <ele>724.7813</ele>
        <time>2021-07-16T10:43:01Z</time>
      </trkpt>
      <trkpt lat="36.75344" lon="-5.14792">
        <ele>723.6138</ele>
        <time>2021-07-16T10:43:12Z</time>
      </trkpt>
      <trkpt lat="36.7518" lon="-5.14687">
        <ele>716.5657</ele>
        <time>2021-07-16T10:43:23Z</time>
      </trkpt>
      <trkpt lat="36.7501" lon="-5.14605">
        <ele>712.6604</ele>
        <time>2021-07-16T10:43:34Z</time>
      </trkpt>
      <trkpt lat="36.74852" lon="-5.14546">
        <ele>709.1132</ele>
        <time>2021-07-16T10:43:45Z</time>
      </trkpt>
      <trkpt lat="36.74786" lon="-5.14622">
        <ele>699.249</ele>
        <time>2021-07-16T10:43:56Z</time>
      </trkpt>
      <trkpt lat="36.74811" lon="-5.14711">
        <ele>706.4396</ele>
        <time>2021-07-16T10:44:07Z</time>
      </trkpt>
      <trkpt lat="36.74773" lon="-5.14752">
        <ele>706.3714</ele>
        <time>2021-07-16T10:44:18Z</time>
      </trkpt>
      <trkpt lat="36.74762" lon="-5.14756">
        <ele>705.7038</ele>
        <time>2021-07-16T10:44:29Z</time>
      </trkpt>
      <trkpt lat="36.74737" lon="-5.14756">
        <ele>702.8688</ele>
        <time>2021-07-16T10:44:40Z</time>
      </trkpt>
      <trkpt lat="36.74739" lon="-5.1476">
        <ele>702.4777</ele>
        <time>2021-07-16T10:44:52Z</time>
      </trkpt>
      <trkpt lat="36.74743" lon="-5.14756">
        <ele>703.173</ele>
        <time>2021-07-16T10:45:12Z</time>
      </trkpt>
      <trkpt lat="36.74745" lon="-5.14752">
        <ele>703.0529</ele>
        <time>2021-07-16T10:45:45Z</time>
      </trkpt>
      <trkpt lat="36.74748" lon="-5.14754">
        <ele>703.3308</ele>
        <time>2021-07-16T10:46:01Z</time>
      </trkpt>
      <trkpt lat="36.74752" lon="-5.14759">
        <ele>703.3678</ele>
        <time>2021-07-16T10:46:12Z</time>
      </trkpt>
      <trkpt lat="36.74749" lon="-5.14761">
        <ele>702.9482</ele>
        <time>2021-07-16T10:46:41Z</time>
      </trkpt>
      <trkpt lat="36.74732" lon="-5.14751">
        <ele>702.8781</ele>
        <time>2021-07-16T10:47:31Z</time>
      </trkpt>
      <trkpt lat="36.74738" lon="-5.1474">
        <ele>702.6703</ele>
        <time>2021-07-16T10:47:42Z</time>
      </trkpt>
      <trkpt lat="36.74719" lon="-5.14743">
        <ele>703.0128</ele>
        <time>2021-07-16T10:48:13Z</time>
      </trkpt>
      <trkpt lat="36.74715" lon="-5.14746">
        <ele>702.7384</ele>
        <time>2021-07-16T10:48:41Z</time>
      </trkpt>
      <trkpt lat="36.74712" lon="-5.14766">
        <ele>702.4128</ele>
        <time>2021-07-16T10:48:52Z</time>
      </trkpt>
      <trkpt lat="36.7472" lon="-5.14756">
        <ele>702.6306</ele>
        <time>2021-07-16T10:49:03Z</time>
      </trkpt>
      <trkpt lat="36.74726" lon="-5.14749">
        <ele>702.2112</ele>
        <time>2021-07-16T10:49:14Z</time>
      </trkpt>
      <trkpt lat="36.74717" lon="-5.14739">
        <ele>701.4203</ele>
        <time>2021-07-16T10:49:25Z</time>
      </trkpt>
      <trkpt lat="36.74719" lon="-5.14763">
        <ele>702.7343</ele>
        <time>2021-07-16T10:49:37Z</time>
      </trkpt>
      <trkpt lat="36.74718" lon="-5.14755">
        <ele>702.8516</ele>
        <time>2021-07-16T10:49:48Z</time>
      </trkpt>
      <trkpt lat="36.74718" lon="-5.14762">
        <ele>702.2875</ele>
        <time>2021-07-16T10:50:03Z</time>
      </trkpt>
      <trkpt lat="36.74707" lon="-5.14762">
        <ele>702.7458</ele>
        <time>2021-07-16T10:50:14Z</time>
      </trkpt>
      <trkpt lat="36.74714" lon="-5.14759">
        <ele>702.4956</ele>
        <time>2021-07-16T10:50:25Z</time>
      </trkpt>
      <trkpt lat="36.74714" lon="-5.14744">
        <ele>702.3324</ele>
        <time>2021-07-16T10:50:37Z</time>
      </trkpt>
      <trkpt lat="36.74717" lon="-5.14748">
        <ele>702.4458</ele>
        <time>2021-07-16T10:50:48Z</time>
      </trkpt>
      <trkpt lat="36.74718" lon="-5.14756">
        <ele>702.5947</ele>
        <time>2021-07-16T10:50:59Z</time>
      </trkpt>
      <trkpt lat="36.74712" lon="-5.14751">
        <ele>702.3975</ele>
        <time>2021-07-16T10:51:10Z</time>
      </trkpt>
      <trkpt lat="36.74712" lon="-5.14746">
        <ele>702.3639</ele>
        <time>2021-07-16T10:51:21Z</time>
      </trkpt>
      <trkpt lat="36.74716" lon="-5.14768">
        <ele>703.1536</ele>
        <time>2021-07-16T10:51:32Z</time>
      </trkpt>
      <trkpt lat="36.74715" lon="-5.14774">
        <ele>702.4657</ele>
        <time>2021-07-16T10:51:43Z</time>
      </trkpt>
      <trkpt lat="36.74724" lon="-5.14781">
        <ele>702.7777</ele>
        <time>2021-07-16T10:51:54Z</time>
      </trkpt>
      <trkpt lat="36.74711" lon="-5.14781">
        <ele>702.823</ele>
        <time>2021-07-16T10:52:05Z</time>
      </trkpt>
      <trkpt lat="36.74723" lon="-5.14779">
        <ele>702.921</ele>
        <time>2021-07-16T10:52:16Z</time>
      </trkpt>
      <trkpt lat="36.74711" lon="-5.14743">
        <ele>701.8514</ele>
        <time>2021-07-16T10:52:27Z</time>
      </trkpt>
      <trkpt lat="36.74718" lon="-5.14746">
        <ele>702.7981</ele>
        <time>2021-07-16T10:52:38Z</time>
      </trkpt>
      <trkpt lat="36.74727" lon="-5.14759">
        <ele>702.0585</ele>
        <time>2021-07-16T10:52:49Z</time>
      </trkpt>
      <trkpt lat="36.74721" lon="-5.14743">
        <ele>702.4795</ele>
        <time>2021-07-16T10:53:00Z</time>
      </trkpt>
      <trkpt lat="36.74717" lon="-5.14756">
        <ele>702.7355</ele>
        <time>2021-07-16T10:53:11Z</time>
      </trkpt>
      <trkpt lat="36.74712" lon="-5.14749">
        <ele>702.2915</ele>
        <time>2021-07-16T10:53:22Z</time>
      </trkpt>
      <trkpt lat="36.74718" lon="-5.14784">
        <ele>702.5163</ele>
        <time>2021-07-16T10:53:48Z</time>
      </trkpt>
      <trkpt lat="36.74726" lon="-5.14757">
        <ele>703.0128</ele>
        <time>2021-07-16T10:54:25Z</time>
      </trkpt>
      <trkpt lat="36.7472" lon="-5.14757">
        <ele>703.0128</ele>
        <time>2021-07-16T10:54:40Z</time>
      </trkpt>
      <trkpt lat="36.74718" lon="-5.14753">
        <ele>703.0128</ele>
        <time>2021-07-16T10:55:06Z</time>
      </trkpt>
      <trkpt lat="36.74723" lon="-5.14755">
        <ele>703.0128</ele>
        <time>2021-07-16T10:55:19Z</time>
      </trkpt>
      <trkpt lat="36.74709" lon="-5.14765">
        <ele>703.0128</ele>
        <time>2021-07-16T10:55:32Z</time>
      </trkpt>
      <trkpt lat="36.74721" lon="-5.1476">
        <ele>703.0128</ele>
        <time>2021-07-16T10:55:45Z</time>
      </trkpt>
      <trkpt lat="36.74715" lon="-5.14759">
        <ele>703.0128</ele>
        <time>2021-07-16T10:55:58Z</time>
      </trkpt>
      <trkpt lat="36.74711" lon="-5.14765">
        <ele>703.0128</ele>
        <time>2021-07-16T10:56:11Z</time>
      </trkpt>
      <trkpt lat="36.74708" lon="-5.14769">
        <ele>703.0128</ele>
        <time>2021-07-16T10:56:24Z</time>
      </trkpt>
      <trkpt lat="36.74705" lon="-5.14775">
        <ele>703.0128</ele>
        <time>2021-07-16T10:56:37Z</time>
      </trkpt>
      <trkpt lat="36.74701" lon="-5.14778">
        <ele>703.0128</ele>
        <time>2021-07-16T10:56:50Z</time>
      </trkpt>
      <trkpt lat="36.74694" lon="-5.14779">
        <ele>703.0128</ele>
        <time>2021-07-16T10:57:03Z</time>
      </trkpt>
      <trkpt lat="36.74695" lon="-5.14784">
        <ele>703.0128</ele>
        <time>2021-07-16T10:57:16Z</time>
      </trkpt>
      <trkpt lat="36.74701" lon="-5.14783">
        <ele>703.0128</ele>
        <time>2021-07-16T10:57:35Z</time>
      </trkpt>
      <trkpt lat="36.74692" lon="-5.14794">
        <ele>703.0122</ele>
        <time>2021-07-16T10:57:46Z</time>
      </trkpt>
      <trkpt lat="36.74691" lon="-5.14781">
        <ele>703.0019</ele>
        <time>2021-07-16T10:57:57Z</time>
      </trkpt>
      <trkpt lat="36.74687" lon="-5.14781">
        <ele>703.0114</ele>
        <time>2021-07-16T10:58:15Z</time>
      </trkpt>
      <trkpt lat="36.74712" lon="-5.14779">
        <ele>703.0128</ele>
        <time>2021-07-16T10:58:47Z</time>
      </trkpt>
      <trkpt lat="36.747" lon="-5.14787">
        <ele>703.1291</ele>
        <time>2021-07-16T10:58:58Z</time>
      </trkpt>
      <trkpt lat="36.74719" lon="-5.1477">
        <ele>703.0128</ele>
        <time>2021-07-16T10:59:52Z</time>
      </trkpt>
      <trkpt lat="36.74714" lon="-5.14769">
        <ele>703.0128</ele>
        <time>2021-07-16T11:00:12Z</time>
      </trkpt>
      <trkpt lat="36.74705" lon="-5.14773">
        <ele>703.0128</ele>
        <time>2021-07-16T11:00:25Z</time>
      </trkpt>
      <trkpt lat="36.74708" lon="-5.1477">
        <ele>703.0128</ele>
        <time>2021-07-16T11:00:38Z</time>
      </trkpt>
      <trkpt lat="36.74712" lon="-5.14766">
        <ele>703.0128</ele>
        <time>2021-07-16T11:00:51Z</time>
      </trkpt>
      <trkpt lat="36.74707" lon="-5.14772">
        <ele>703.0128</ele>
        <time>2021-07-16T11:01:04Z</time>
      </trkpt>
      <trkpt lat="36.7471" lon="-5.14782">
        <ele>702.7208</ele>
        <time>2021-07-16T11:01:15Z</time>
      </trkpt>
      <trkpt lat="36.74714" lon="-5.14769">
        <ele>703.0128</ele>
        <time>2021-07-16T11:01:39Z</time>
      </trkpt>
      <trkpt lat="36.74714" lon="-5.14761">
        <ele>703.0128</ele>
        <time>2021-07-16T11:01:56Z</time>
      </trkpt>
      <trkpt lat="36.74718" lon="-5.14761">
        <ele>703.0128</ele>
        <time>2021-07-16T11:02:09Z</time>
      </trkpt>
      <trkpt lat="36.74722" lon="-5.14758">
        <ele>703.0128</ele>
        <time>2021-07-16T11:02:28Z</time>
      </trkpt>
      <trkpt lat="36.74719" lon="-5.14759">
        <ele>703.0128</ele>
        <time>2021-07-16T11:02:41Z</time>
      </trkpt>
      <trkpt lat="36.74722" lon="-5.14764">
        <ele>703.0128</ele>
        <time>2021-07-16T11:02:54Z</time>
      </trkpt>
      <trkpt lat="36.74718" lon="-5.14764">
        <ele>703.0128</ele>
        <time>2021-07-16T11:03:07Z</time>
      </trkpt>
      <trkpt lat="36.74716" lon="-5.1477">
        <ele>703.0128</ele>
        <time>2021-07-16T11:03:20Z</time>
      </trkpt>
      <trkpt lat="36.74723" lon="-5.14762">
        <ele>703.0128</ele>
        <time>2021-07-16T11:03:42Z</time>
      </trkpt>
      <trkpt lat="36.74719" lon="-5.14767">
        <ele>703.0128</ele>
        <time>2021-07-16T11:04:29Z</time>
      </trkpt>
      <trkpt lat="36.74722" lon="-5.14762">
        <ele>703.0128</ele>
        <time>2021-07-16T11:04:42Z</time>
      </trkpt>
      <trkpt lat="36.74717" lon="-5.14766">
        <ele>703.0128</ele>
        <time>2021-07-16T11:04:55Z</time>
      </trkpt>
      <trkpt lat="36.74721" lon="-5.14764">
        <ele>703.0128</ele>
        <time>2021-07-16T11:05:08Z</time>
      </trkpt>
      <trkpt lat="36.74729" lon="-5.14759">
        <ele>703.0128</ele>
        <time>2021-07-16T11:05:23Z</time>
      </trkpt>
      <trkpt lat="36.7472" lon="-5.14766">
        <ele>703.0128</ele>
        <time>2021-07-16T11:05:35Z</time>
      </trkpt>
      <trkpt lat="36.7472" lon="-5.14766">
        <ele>703.0128</ele>
        <time>2021-07-16T11:05:41Z</time>
      </trkpt>
      <trkpt lat="36.74724" lon="-5.1476">
        <ele>703.0128</ele>
        <time>2021-07-16T11:06:00Z</time>
      </trkpt>
      <trkpt lat="36.74741" lon="-5.14754">
        <ele>703.0128</ele>
        <time>2021-07-16T11:06:46Z</time>
      </trkpt>
      <trkpt lat="36.74742" lon="-5.14762">
        <ele>703.0011</ele>
        <time>2021-07-16T11:06:57Z</time>
      </trkpt>
      <trkpt lat="36.7474" lon="-5.14758">
        <ele>703.0789</ele>
        <time>2021-07-16T11:07:08Z</time>
      </trkpt>
      <trkpt lat="36.74734" lon="-5.14746">
        <ele>703.7734</ele>
        <time>2021-07-16T11:07:19Z</time>
      </trkpt>
      <trkpt lat="36.74732" lon="-5.14751">
        <ele>702.9508</ele>
        <time>2021-07-16T11:07:37Z</time>
      </trkpt>
      <trkpt lat="36.74732" lon="-5.14746">
        <ele>703.7662</ele>
        <time>2021-07-16T11:07:48Z</time>
      </trkpt>
      <trkpt lat="36.74737" lon="-5.1475">
        <ele>700.0608</ele>
        <time>2021-07-16T11:07:59Z</time>
      </trkpt>
      <trkpt lat="36.74737" lon="-5.14755">
        <ele>702.3588</ele>
        <time>2021-07-16T11:08:10Z</time>
      </trkpt>
      <trkpt lat="36.74738" lon="-5.14753">
        <ele>702.0533</ele>
        <time>2021-07-16T11:09:09Z</time>
      </trkpt>
      <trkpt lat="36.74742" lon="-5.14755">
        <ele>702.5708</ele>
        <time>2021-07-16T11:09:20Z</time>
      </trkpt>
      <trkpt lat="36.7474" lon="-5.14751">
        <ele>701.6932</ele>
        <time>2021-07-16T11:10:19Z</time>
      </trkpt>
      <trkpt lat="36.74737" lon="-5.14752">
        <ele>700.6033</ele>
        <time>2021-07-16T11:11:18Z</time>
      </trkpt>
      <trkpt lat="36.74737" lon="-5.14757">
        <ele>702.7957</ele>
        <time>2021-07-16T11:11:34Z</time>
      </trkpt>
      <trkpt lat="36.74734" lon="-5.14755">
        <ele>703.4359</ele>
        <time>2021-07-16T11:11:53Z</time>
      </trkpt>
      <trkpt lat="36.7473" lon="-5.14752">
        <ele>703.0779</ele>
        <time>2021-07-16T11:12:24Z</time>
      </trkpt>
      <trkpt lat="36.74728" lon="-5.14755">
        <ele>701.2222</ele>
        <time>2021-07-16T11:12:48Z</time>
      </trkpt>
      <trkpt lat="36.74733" lon="-5.14755">
        <ele>702.5756</ele>
        <time>2021-07-16T11:13:05Z</time>
      </trkpt>
      <trkpt lat="36.74738" lon="-5.14752">
        <ele>703.1249</ele>
        <time>2021-07-16T11:13:16Z</time>
      </trkpt>
      <trkpt lat="36.74735" lon="-5.14756">
        <ele>702.7845</ele>
        <time>2021-07-16T11:13:39Z</time>
      </trkpt>
      <trkpt lat="36.74737" lon="-5.14752">
        <ele>702.7979</ele>
        <time>2021-07-16T11:13:52Z</time>
      </trkpt>
      <trkpt lat="36.74733" lon="-5.14755">
        <ele>703.0941</ele>
        <time>2021-07-16T11:14:30Z</time>
      </trkpt>
      <trkpt lat="36.74737" lon="-5.14752">
        <ele>701.9944</ele>
        <time>2021-07-16T11:14:41Z</time>
      </trkpt>
      <trkpt lat="36.7474" lon="-5.14748">
        <ele>702.6406</ele>
        <time>2021-07-16T11:14:53Z</time>
      </trkpt>
      <trkpt lat="36.74743" lon="-5.14743">
        <ele>703.3985</ele>
        <time>2021-07-16T11:15:10Z</time>
      </trkpt>
      <trkpt lat="36.74744" lon="-5.14748">
        <ele>701.7964</ele>
        <time>2021-07-16T11:15:23Z</time>
      </trkpt>
      <trkpt lat="36.74748" lon="-5.14752">
        <ele>702.4276</ele>
        <time>2021-07-16T11:15:34Z</time>
      </trkpt>
      <trkpt lat="36.74748" lon="-5.14752">
        <ele>702.4276</ele>
        <time>2021-07-16T11:16:34Z</time>
      </trkpt>
      <trkpt lat="36.74751" lon="-5.14753">
        <ele>702.5081</ele>
        <time>2021-07-16T11:17:01Z</time>
      </trkpt>
      <trkpt lat="36.74746" lon="-5.14745">
        <ele>703.9713</ele>
        <time>2021-07-16T11:17:15Z</time>
      </trkpt>
      <trkpt lat="36.74766" lon="-5.14724">
        <ele>703.286</ele>
        <time>2021-07-16T11:17:26Z</time>
      </trkpt>
      <trkpt lat="36.74802" lon="-5.14695">
        <ele>702.5901</ele>
        <time>2021-07-16T11:17:37Z</time>
      </trkpt>
      <trkpt lat="36.74772" lon="-5.14603">
        <ele>700.9705</ele>
        <time>2021-07-16T11:17:48Z</time>
      </trkpt>
      <trkpt lat="36.7477" lon="-5.14504">
        <ele>703.7839</ele>
        <time>2021-07-16T11:17:59Z</time>
      </trkpt>
      <trkpt lat="36.74796" lon="-5.14493">
        <ele>702.834</ele>
        <time>2021-07-16T11:18:10Z</time>
      </trkpt>
      <trkpt lat="36.7496" lon="-5.14574">
        <ele>709.1459</ele>
        <time>2021-07-16T11:18:21Z</time>
      </trkpt>
      <trkpt lat="36.75161" lon="-5.14672">
        <ele>716.4703</ele>
        <time>2021-07-16T11:18:32Z</time>
      </trkpt>
      <trkpt lat="36.75324" lon="-5.14769">
        <ele>719.6917</ele>
        <time>2021-07-16T11:18:43Z</time>
      </trkpt>
      <trkpt lat="36.75397" lon="-5.14728">
        <ele>723.9643</ele>
        <time>2021-07-16T11:18:54Z</time>
      </trkpt>
      <trkpt lat="36.7543" lon="-5.14528">
        <ele>731.7586</ele>
        <time>2021-07-16T11:19:05Z</time>
      </trkpt>
      <trkpt lat="36.75455" lon="-5.14336">
        <ele>739.385</ele>
        <time>2021-07-16T11:19:16Z</time>
      </trkpt>
      <trkpt lat="36.75497" lon="-5.14126">
        <ele>736.7325</ele>
        <time>2021-07-16T11:19:27Z</time>
      </trkpt>
      <trkpt lat="36.75525" lon="-5.13963">
        <ele>739.5961</ele>
        <time>2021-07-16T11:19:38Z</time>
      </trkpt>
      <trkpt lat="36.75575" lon="-5.1377">
        <ele>741.4987</ele>
        <time>2021-07-16T11:19:49Z</time>
      </trkpt>
      <trkpt lat="36.75624" lon="-5.13543">
        <ele>738.6701</ele>
        <time>2021-07-16T11:20:00Z</time>
      </trkpt>
      <trkpt lat="36.75724" lon="-5.13308">
        <ele>737.9971</ele>
        <time>2021-07-16T11:20:11Z</time>
      </trkpt>
      <trkpt lat="36.75838" lon="-5.13062">
        <ele>740.4144</ele>
        <time>2021-07-16T11:20:22Z</time>
      </trkpt>
      <trkpt lat="36.75929" lon="-5.12808">
        <ele>747.3383</ele>
        <time>2021-07-16T11:20:33Z</time>
      </trkpt>
      <trkpt lat="36.76025" lon="-5.12548">
        <ele>750.8409</ele>
        <time>2021-07-16T11:20:44Z</time>
      </trkpt>
      <trkpt lat="36.76146" lon="-5.12308">
        <ele>755.3337</ele>
        <time>2021-07-16T11:20:55Z</time>
      </trkpt>
      <trkpt lat="36.76275" lon="-5.1207">
        <ele>761.2855</ele>
        <time>2021-07-16T11:21:06Z</time>
      </trkpt>
      <trkpt lat="36.76414" lon="-5.11816">
        <ele>761.7125</ele>
        <time>2021-07-16T11:21:17Z</time>
      </trkpt>
      <trkpt lat="36.76496" lon="-5.11526">
        <ele>761.3469</ele>
        <time>2021-07-16T11:21:28Z</time>
      </trkpt>
      <trkpt lat="36.76601" lon="-5.11238">
        <ele>767.1186</ele>
        <time>2021-07-16T11:21:39Z</time>
      </trkpt>
      <trkpt lat="36.76695" lon="-5.10951">
        <ele>773.6562</ele>
        <time>2021-07-16T11:21:50Z</time>
      </trkpt>
      <trkpt lat="36.7681" lon="-5.10747">
        <ele>776.1139</ele>
        <time>2021-07-16T11:22:01Z</time>
      </trkpt>
      <trkpt lat="36.77005" lon="-5.10517">
        <ele>781.7346</ele>
        <time>2021-07-16T11:22:12Z</time>
      </trkpt>
      <trkpt lat="36.77132" lon="-5.10285">
        <ele>783.9845</ele>
        <time>2021-07-16T11:22:23Z</time>
      </trkpt>
      <trkpt lat="36.77232" lon="-5.10012">
        <ele>795.5882</ele>
        <time>2021-07-16T11:22:34Z</time>
      </trkpt>
      <trkpt lat="36.77325" lon="-5.09734">
        <ele>808.7761</ele>
        <time>2021-07-16T11:22:45Z</time>
      </trkpt>
      <trkpt lat="36.7741" lon="-5.0952">
        <ele>823.3303</ele>
        <time>2021-07-16T11:22:56Z</time>
      </trkpt>
      <trkpt lat="36.77536" lon="-5.09372">
        <ele>835.9657</ele>
        <time>2021-07-16T11:23:07Z</time>
      </trkpt>
      <trkpt lat="36.77729" lon="-5.09317">
        <ele>850.0643</ele>
        <time>2021-07-16T11:23:18Z</time>
      </trkpt>
      <trkpt lat="36.77732" lon="-5.09153">
        <ele>860.1751</ele>
        <time>2021-07-16T11:23:29Z</time>
      </trkpt>
      <trkpt lat="36.77568" lon="-5.08978">
        <ele>861.9577</ele>
        <time>2021-07-16T11:23:40Z</time>
      </trkpt>
      <trkpt lat="36.77411" lon="-5.08815">
        <ele>864.6924</ele>
        <time>2021-07-16T11:23:51Z</time>
      </trkpt>
      <trkpt lat="36.77241" lon="-5.08653">
        <ele>871.836</ele>
        <time>2021-07-16T11:24:02Z</time>
      </trkpt>
      <trkpt lat="36.77264" lon="-5.08516">
        <ele>873.5278</ele>
        <time>2021-07-16T11:24:13Z</time>
      </trkpt>
      <trkpt lat="36.77329" lon="-5.08306">
        <ele>889.8537</ele>
        <time>2021-07-16T11:24:24Z</time>
      </trkpt>
      <trkpt lat="36.77356" lon="-5.08096">
        <ele>908.5003</ele>
        <time>2021-07-16T11:24:35Z</time>
      </trkpt>
      <trkpt lat="36.77318" lon="-5.07904">
        <ele>923.6585</ele>
        <time>2021-07-16T11:24:46Z</time>
      </trkpt>
      <trkpt lat="36.77388" lon="-5.07719">
        <ele>940.9152</ele>
        <time>2021-07-16T11:24:57Z</time>
      </trkpt>
      <trkpt lat="36.77538" lon="-5.07685">
        <ele>934.2174</ele>
        <time>2021-07-16T11:25:08Z</time>
      </trkpt>
      <trkpt lat="36.77603" lon="-5.07477">
        <ele>927.6441</ele>
        <time>2021-07-16T11:25:19Z</time>
      </trkpt>
      <trkpt lat="36.77669" lon="-5.0723">
        <ele>930.7556</ele>
        <time>2021-07-16T11:25:30Z</time>
      </trkpt>
      <trkpt lat="36.77712" lon="-5.06956">
        <ele>941.7819</ele>
        <time>2021-07-16T11:25:41Z</time>
      </trkpt>
      <trkpt lat="36.77753" lon="-5.06678">
        <ele>949.371</ele>
        <time>2021-07-16T11:25:52Z</time>
      </trkpt>
      <trkpt lat="36.77892" lon="-5.06474">
        <ele>956.2298</ele>
        <time>2021-07-16T11:26:03Z</time>
      </trkpt>
      <trkpt lat="36.77962" lon="-5.06276">
        <ele>960.3009</ele>
        <time>2021-07-16T11:26:14Z</time>
      </trkpt>
      <trkpt lat="36.78067" lon="-5.06054">
        <ele>961.2894</ele>
        <time>2021-07-16T11:26:25Z</time>
      </trkpt>
      <trkpt lat="36.78213" lon="-5.05861">
        <ele>972.3913</ele>
        <time>2021-07-16T11:26:36Z</time>
      </trkpt>
      <trkpt lat="36.78328" lon="-5.05653">
        <ele>978.1302</ele>
        <time>2021-07-16T11:26:47Z</time>
      </trkpt>
      <trkpt lat="36.78463" lon="-5.05575">
        <ele>987.0499</ele>
        <time>2021-07-16T11:26:58Z</time>
      </trkpt>
      <trkpt lat="36.78629" lon="-5.05483">
        <ele>998.8521</ele>
        <time>2021-07-16T11:27:09Z</time>
      </trkpt>
      <trkpt lat="36.78686" lon="-5.0531">
        <ele>1008.572</ele>
        <time>2021-07-16T11:27:20Z</time>
      </trkpt>
      <trkpt lat="36.78745" lon="-5.05107">
        <ele>1025.98</ele>
        <time>2021-07-16T11:27:31Z</time>
      </trkpt>
      <trkpt lat="36.78658" lon="-5.0495">
        <ele>1039.342</ele>
        <time>2021-07-16T11:27:42Z</time>
      </trkpt>
      <trkpt lat="36.78605" lon="-5.04827">
        <ele>1042.851</ele>
        <time>2021-07-16T11:27:53Z</time>
      </trkpt>
      <trkpt lat="36.78742" lon="-5.04904">
        <ele>1056.013</ele>
        <time>2021-07-16T11:28:04Z</time>
      </trkpt>
      <trkpt lat="36.78875" lon="-5.04855">
        <ele>1066.437</ele>
        <time>2021-07-16T11:28:15Z</time>
      </trkpt>
      <trkpt lat="36.78891" lon="-5.04698">
        <ele>1057.142</ele>
        <time>2021-07-16T11:28:26Z</time>
      </trkpt>
      <trkpt lat="36.78858" lon="-5.0452">
        <ele>1047.694</ele>
        <time>2021-07-16T11:28:37Z</time>
      </trkpt>
      <trkpt lat="36.78961" lon="-5.04294">
        <ele>1029.7</ele>
        <time>2021-07-16T11:28:48Z</time>
      </trkpt>
      <trkpt lat="36.7908" lon="-5.04103">
        <ele>1013.221</ele>
        <time>2021-07-16T11:28:59Z</time>
      </trkpt>
      <trkpt lat="36.79112" lon="-5.03879">
        <ele>996.2756</ele>
        <time>2021-07-16T11:29:10Z</time>
      </trkpt>
      <trkpt lat="36.79167" lon="-5.03646">
        <ele>984.6707</ele>
        <time>2021-07-16T11:29:21Z</time>
      </trkpt>
      <trkpt lat="36.79298" lon="-5.03511">
        <ele>985.8588</ele>
        <time>2021-07-16T11:29:32Z</time>
      </trkpt>
      <trkpt lat="36.79379" lon="-5.03327">
        <ele>982.5353</ele>
        <time>2021-07-16T11:29:43Z</time>
      </trkpt>
      <trkpt lat="36.79482" lon="-5.03127">
        <ele>975.2063</ele>
        <time>2021-07-16T11:29:54Z</time>
      </trkpt>
      <trkpt lat="36.79564" lon="-5.02932">
        <ele>966.7837</ele>
        <time>2021-07-16T11:30:05Z</time>
      </trkpt>
      <trkpt lat="36.79631" lon="-5.02745">
        <ele>963.169</ele>
        <time>2021-07-16T11:30:16Z</time>
      </trkpt>
      <trkpt lat="36.79744" lon="-5.02675">
        <ele>958.3466</ele>
        <time>2021-07-16T11:30:27Z</time>
      </trkpt>
      <trkpt lat="36.79872" lon="-5.02593">
        <ele>946.4945</ele>
        <time>2021-07-16T11:30:38Z</time>
      </trkpt>
      <trkpt lat="36.79838" lon="-5.02433">
        <ele>934.829</ele>
        <time>2021-07-16T11:30:49Z</time>
      </trkpt>
      <trkpt lat="36.7988" lon="-5.02234">
        <ele>922.8859</ele>
        <time>2021-07-16T11:31:00Z</time>
      </trkpt>
      <trkpt lat="36.79933" lon="-5.0205">
        <ele>913.4594</ele>
        <time>2021-07-16T11:31:11Z</time>
      </trkpt>
      <trkpt lat="36.79964" lon="-5.01865">
        <ele>902.8976</ele>
        <time>2021-07-16T11:31:22Z</time>
      </trkpt>
      <trkpt lat="36.8004" lon="-5.01696">
        <ele>891.1569</ele>
        <time>2021-07-16T11:31:33Z</time>
      </trkpt>
      <trkpt lat="36.80105" lon="-5.01492">
        <ele>880.4694</ele>
        <time>2021-07-16T11:31:44Z</time>
      </trkpt>
      <trkpt lat="36.80127" lon="-5.01288">
        <ele>881.5296</ele>
        <time>2021-07-16T11:31:55Z</time>
      </trkpt>
      <trkpt lat="36.80009" lon="-5.01181">
        <ele>896.4884</ele>
        <time>2021-07-16T11:32:06Z</time>
      </trkpt>
      <trkpt lat="36.79865" lon="-5.01094">
        <ele>905.0542</ele>
        <time>2021-07-16T11:32:17Z</time>
      </trkpt>
      <trkpt lat="36.79769" lon="-5.00957">
        <ele>915.2457</ele>
        <time>2021-07-16T11:32:28Z</time>
      </trkpt>
      <trkpt lat="36.7979" lon="-5.00848">
        <ele>923.6631</ele>
        <time>2021-07-16T11:32:39Z</time>
      </trkpt>
      <trkpt lat="36.79651" lon="-5.00762">
        <ele>932.7788</ele>
        <time>2021-07-16T11:32:50Z</time>
      </trkpt>
      <trkpt lat="36.7954" lon="-5.00541">
        <ele>936.2382</ele>
        <time>2021-07-16T11:33:01Z</time>
      </trkpt>
      <trkpt lat="36.79441" lon="-5.00284">
        <ele>937.9908</ele>
        <time>2021-07-16T11:33:12Z</time>
      </trkpt>
      <trkpt lat="36.79395" lon="-5.00002">
        <ele>944.6511</ele>
        <time>2021-07-16T11:33:23Z</time>
      </trkpt>
      <trkpt lat="36.79295" lon="-4.99827">
        <ele>957.2992</ele>
        <time>2021-07-16T11:33:34Z</time>
      </trkpt>
      <trkpt lat="36.791" lon="-4.9973">
        <ele>965.834</ele>
        <time>2021-07-16T11:33:45Z</time>
      </trkpt>
      <trkpt lat="36.78961" lon="-4.99517">
        <ele>974.7575</ele>
        <time>2021-07-16T11:33:56Z</time>
      </trkpt>
      <trkpt lat="36.78881" lon="-4.99294">
        <ele>971.4557</ele>
        <time>2021-07-16T11:34:07Z</time>
      </trkpt>
      <trkpt lat="36.78808" lon="-4.99246">
        <ele>965.0703</ele>
        <time>2021-07-16T11:34:18Z</time>
      </trkpt>
      <trkpt lat="36.78676" lon="-4.99264">
        <ele>960.0294</ele>
        <time>2021-07-16T11:34:29Z</time>
      </trkpt>
      <trkpt lat="36.78538" lon="-4.9931">
        <ele>946.1965</ele>
        <time>2021-07-16T11:34:40Z</time>
      </trkpt>
      <trkpt lat="36.78431" lon="-4.99449">
        <ele>934.7557</ele>
        <time>2021-07-16T11:34:51Z</time>
      </trkpt>
      <trkpt lat="36.783" lon="-4.99509">
        <ele>923.0592</ele>
        <time>2021-07-16T11:35:02Z</time>
      </trkpt>
      <trkpt lat="36.78284" lon="-4.99386">
        <ele>915.6659</ele>
        <time>2021-07-16T11:35:13Z</time>
      </trkpt>
      <trkpt lat="36.78172" lon="-4.99336">
        <ele>913.3005</ele>
        <time>2021-07-16T11:35:24Z</time>
      </trkpt>
      <trkpt lat="36.78039" lon="-4.99354">
        <ele>903.3039</ele>
        <time>2021-07-16T11:35:35Z</time>
      </trkpt>
      <trkpt lat="36.78035" lon="-4.99189">
        <ele>903.1423</ele>
        <time>2021-07-16T11:35:46Z</time>
      </trkpt>
      <trkpt lat="36.78072" lon="-4.99015">
        <ele>908.5782</ele>
        <time>2021-07-16T11:35:57Z</time>
      </trkpt>
      <trkpt lat="36.78139" lon="-4.98858">
        <ele>906.3523</ele>
        <time>2021-07-16T11:36:08Z</time>
      </trkpt>
      <trkpt lat="36.78223" lon="-4.98746">
        <ele>896.9709</ele>
        <time>2021-07-16T11:36:19Z</time>
      </trkpt>
      <trkpt lat="36.78332" lon="-4.98689">
        <ele>886.0352</ele>
        <time>2021-07-16T11:36:30Z</time>
      </trkpt>
      <trkpt lat="36.78344" lon="-4.98673">
        <ele>885.4453</ele>
        <time>2021-07-16T11:36:41Z</time>
      </trkpt>
      <trkpt lat="36.78295" lon="-4.98712">
        <ele>894.0126</ele>
        <time>2021-07-16T11:36:52Z</time>
      </trkpt>
      <trkpt lat="36.78201" lon="-4.98764">
        <ele>902.0441</ele>
        <time>2021-07-16T11:37:03Z</time>
      </trkpt>
      <trkpt lat="36.78187" lon="-4.98739">
        <ele>902.7771</ele>
        <time>2021-07-16T11:37:14Z</time>
      </trkpt>
      <trkpt lat="36.78185" lon="-4.98742">
        <ele>897.785</ele>
        <time>2021-07-16T11:37:56Z</time>
      </trkpt>
      <trkpt lat="36.78184" lon="-4.98733">
        <ele>896.6175</ele>
        <time>2021-07-16T11:38:07Z</time>
      </trkpt>
      <trkpt lat="36.78178" lon="-4.9872">
        <ele>900.4479</ele>
        <time>2021-07-16T11:38:18Z</time>
      </trkpt>
      <trkpt lat="36.78175" lon="-4.98708">
        <ele>905.2747</ele>
        <time>2021-07-16T11:38:29Z</time>
      </trkpt>
      <trkpt lat="36.78169" lon="-4.98693">
        <ele>909.5022</ele>
        <time>2021-07-16T11:38:40Z</time>
      </trkpt>
      <trkpt lat="36.78168" lon="-4.98677">
        <ele>911.0584</ele>
        <time>2021-07-16T11:38:51Z</time>
      </trkpt>
      <trkpt lat="36.78168" lon="-4.98661">
        <ele>913.052</ele>
        <time>2021-07-16T11:39:02Z</time>
      </trkpt>
      <trkpt lat="36.78172" lon="-4.98647">
        <ele>912.7379</ele>
        <time>2021-07-16T11:39:13Z</time>
      </trkpt>
      <trkpt lat="36.78174" lon="-4.98633">
        <ele>914.1923</ele>
        <time>2021-07-16T11:39:24Z</time>
      </trkpt>
      <trkpt lat="36.78173" lon="-4.9862">
        <ele>915.7151</ele>
        <time>2021-07-16T11:39:35Z</time>
      </trkpt>
      <trkpt lat="36.78165" lon="-4.98622">
        <ele>914.8577</ele>
        <time>2021-07-16T11:39:46Z</time>
      </trkpt>
      <trkpt lat="36.78159" lon="-4.98634">
        <ele>917.1201</ele>
        <time>2021-07-16T11:39:57Z</time>
      </trkpt>
      <trkpt lat="36.78151" lon="-4.98642">
        <ele>918.8598</ele>
        <time>2021-07-16T11:40:08Z</time>
      </trkpt>
      <trkpt lat="36.7814" lon="-4.98647">
        <ele>920.1783</ele>
        <time>2021-07-16T11:40:19Z</time>
      </trkpt>
      <trkpt lat="36.78144" lon="-4.98654">
        <ele>921.1411</ele>
        <time>2021-07-16T11:40:30Z</time>
      </trkpt>
      <trkpt lat="36.78142" lon="-4.98655">
        <ele>920.45</ele>
        <time>2021-07-16T11:41:30Z</time>
      </trkpt>
      <trkpt lat="36.78144" lon="-4.98655">
        <ele>920.5351</ele>
        <time>2021-07-16T11:42:30Z</time>
      </trkpt>
      <trkpt lat="36.78144" lon="-4.98655">
        <ele>922.3885</ele>
        <time>2021-07-16T11:43:30Z</time>
      </trkpt>
      <trkpt lat="36.78144" lon="-4.98655">
        <ele>920.9576</ele>
        <time>2021-07-16T11:44:30Z</time>
      </trkpt>
      <trkpt lat="36.78141" lon="-4.9866">
        <ele>923.6499</ele>
        <time>2021-07-16T11:45:25Z</time>
      </trkpt>
      <trkpt lat="36.78139" lon="-4.98669">
        <ele>924.5044</ele>
        <time>2021-07-16T11:45:36Z</time>
      </trkpt>
      <trkpt lat="36.78137" lon="-4.9867">
        <ele>924.1386</ele>
        <time>2021-07-16T11:46:36Z</time>
      </trkpt>
      <trkpt lat="36.78136" lon="-4.9867">
        <ele>924.9455</ele>
        <time>2021-07-16T11:47:35Z</time>
      </trkpt>
      <trkpt lat="36.7814" lon="-4.98671">
        <ele>923.9775</ele>
        <time>2021-07-16T11:48:03Z</time>
      </trkpt>
      <trkpt lat="36.78135" lon="-4.98671">
        <ele>922.7078</ele>
        <time>2021-07-16T11:48:26Z</time>
      </trkpt>
      <trkpt lat="36.78126" lon="-4.98674">
        <ele>920.8275</ele>
        <time>2021-07-16T11:48:37Z</time>
      </trkpt>
      <trkpt lat="36.78119" lon="-4.98676">
        <ele>919.0306</ele>
        <time>2021-07-16T11:48:48Z</time>
      </trkpt>
      <trkpt lat="36.78126" lon="-4.98687">
        <ele>916.3761</ele>
        <time>2021-07-16T11:48:59Z</time>
      </trkpt>
      <trkpt lat="36.7812" lon="-4.98691">
        <ele>914.6069</ele>
        <time>2021-07-16T11:49:10Z</time>
      </trkpt>
      <trkpt lat="36.78123" lon="-4.98707">
        <ele>913.24</ele>
        <time>2021-07-16T11:49:21Z</time>
      </trkpt>
      <trkpt lat="36.7813" lon="-4.98722">
        <ele>906.4275</ele>
        <time>2021-07-16T11:49:32Z</time>
      </trkpt>
      <trkpt lat="36.78145" lon="-4.98723">
        <ele>904.3329</ele>
        <time>2021-07-16T11:49:43Z</time>
      </trkpt>
      <trkpt lat="36.78158" lon="-4.98723">
        <ele>901.0661</ele>
        <time>2021-07-16T11:49:54Z</time>
      </trkpt>
      <trkpt lat="36.78169" lon="-4.98734">
        <ele>898.0298</ele>
        <time>2021-07-16T11:50:05Z</time>
      </trkpt>
      <trkpt lat="36.78178" lon="-4.98739">
        <ele>895.1647</ele>
        <time>2021-07-16T11:50:16Z</time>
      </trkpt>
      <trkpt lat="36.78184" lon="-4.98743">
        <ele>897.3803</ele>
        <time>2021-07-16T11:50:27Z</time>
      </trkpt>
      <trkpt lat="36.78183" lon="-4.98737">
        <ele>899.1582</ele>
        <time>2021-07-16T11:50:38Z</time>
      </trkpt>
      <trkpt lat="36.78185" lon="-4.98733">
        <ele>900.7366</ele>
        <time>2021-07-16T11:51:00Z</time>
      </trkpt>
      <trkpt lat="36.78188" lon="-4.98736">
        <ele>902.8507</ele>
        <time>2021-07-16T11:51:34Z</time>
      </trkpt>
      <trkpt lat="36.78191" lon="-4.9874">
        <ele>902.3754</ele>
        <time>2021-07-16T11:52:18Z</time>
      </trkpt>
      <trkpt lat="36.78227" lon="-4.98739">
        <ele>901.2714</ele>
        <time>2021-07-16T11:52:29Z</time>
      </trkpt>
      <trkpt lat="36.78359" lon="-4.98643">
        <ele>886.6612</ele>
        <time>2021-07-16T11:52:40Z</time>
      </trkpt>
      <trkpt lat="36.78471" lon="-4.98611">
        <ele>881.9071</ele>
        <time>2021-07-16T11:52:51Z</time>
      </trkpt>
      <trkpt lat="36.78582" lon="-4.98607">
        <ele>880.3857</ele>
        <time>2021-07-16T11:53:02Z</time>
      </trkpt>
      <trkpt lat="36.7868" lon="-4.98555">
        <ele>879.6367</ele>
        <time>2021-07-16T11:53:13Z</time>
      </trkpt>
      <trkpt lat="36.78814" lon="-4.98511">
        <ele>869.453</ele>
        <time>2021-07-16T11:53:24Z</time>
      </trkpt>
      <trkpt lat="36.78927" lon="-4.98523">
        <ele>858.3399</ele>
        <time>2021-07-16T11:53:35Z</time>
      </trkpt>
      <trkpt lat="36.79013" lon="-4.98424">
        <ele>845.6574</ele>
        <time>2021-07-16T11:53:46Z</time>
      </trkpt>
      <trkpt lat="36.79032" lon="-4.98301">
        <ele>834.9502</ele>
        <time>2021-07-16T11:53:57Z</time>
      </trkpt>
      <trkpt lat="36.78923" lon="-4.9828">
        <ele>825.2219</ele>
        <time>2021-07-16T11:54:08Z</time>
      </trkpt>
      <trkpt lat="36.78764" lon="-4.98202">
        <ele>812.9996</ele>
        <time>2021-07-16T11:54:19Z</time>
      </trkpt>
      <trkpt lat="36.78706" lon="-4.98004">
        <ele>797.9856</ele>
        <time>2021-07-16T11:54:30Z</time>
      </trkpt>
      <trkpt lat="36.78659" lon="-4.97818">
        <ele>778.8979</ele>
        <time>2021-07-16T11:54:41Z</time>
      </trkpt>
      <trkpt lat="36.78718" lon="-4.97699">
        <ele>770.4424</ele>
        <time>2021-07-16T11:54:52Z</time>
      </trkpt>
      <trkpt lat="36.78757" lon="-4.97506">
        <ele>763.3434</ele>
        <time>2021-07-16T11:55:03Z</time>
      </trkpt>
      <trkpt lat="36.78849" lon="-4.97387">
        <ele>749.6961</ele>
        <time>2021-07-16T11:55:14Z</time>
      </trkpt>
      <trkpt lat="36.78956" lon="-4.97476">
        <ele>738.8764</ele>
        <time>2021-07-16T11:55:25Z</time>
      </trkpt>
      <trkpt lat="36.78981" lon="-4.97348">
        <ele>732.7769</ele>
        <time>2021-07-16T11:55:36Z</time>
      </trkpt>
      <trkpt lat="36.79064" lon="-4.97229">
        <ele>724.1117</ele>
        <time>2021-07-16T11:55:47Z</time>
      </trkpt>
      <trkpt lat="36.79182" lon="-4.97307">
        <ele>712.9106</ele>
        <time>2021-07-16T11:55:58Z</time>
      </trkpt>
      <trkpt lat="36.79259" lon="-4.97306">
        <ele>704.9184</ele>
        <time>2021-07-16T11:56:09Z</time>
      </trkpt>
      <trkpt lat="36.79266" lon="-4.97144">
        <ele>695.068</ele>
        <time>2021-07-16T11:56:20Z</time>
      </trkpt>
      <trkpt lat="36.7924" lon="-4.97036">
        <ele>685.1547</ele>
        <time>2021-07-16T11:56:31Z</time>
      </trkpt>
      <trkpt lat="36.79183" lon="-4.96914">
        <ele>674.2516</ele>
        <time>2021-07-16T11:56:42Z</time>
      </trkpt>
      <trkpt lat="36.79131" lon="-4.96776">
        <ele>662.9962</ele>
        <time>2021-07-16T11:56:53Z</time>
      </trkpt>
      <trkpt lat="36.79199" lon="-4.96628">
        <ele>648.9755</ele>
        <time>2021-07-16T11:57:04Z</time>
      </trkpt>
      <trkpt lat="36.79192" lon="-4.96496">
        <ele>638.6607</ele>
        <time>2021-07-16T11:57:15Z</time>
      </trkpt>
      <trkpt lat="36.79195" lon="-4.96324">
        <ele>629.9474</ele>
        <time>2021-07-16T11:57:26Z</time>
      </trkpt>
      <trkpt lat="36.79173" lon="-4.96128">
        <ele>622.5043</ele>
        <time>2021-07-16T11:57:37Z</time>
      </trkpt>
      <trkpt lat="36.79178" lon="-4.95976">
        <ele>611.0317</ele>
        <time>2021-07-16T11:57:48Z</time>
      </trkpt>
      <trkpt lat="36.7906" lon="-4.95894">
        <ele>600.3907</ele>
        <time>2021-07-16T11:57:59Z</time>
      </trkpt>
      <trkpt lat="36.79066" lon="-4.95735">
        <ele>588.3663</ele>
        <time>2021-07-16T11:58:10Z</time>
      </trkpt>
      <trkpt lat="36.79073" lon="-4.95623">
        <ele>578.5347</ele>
        <time>2021-07-16T11:58:21Z</time>
      </trkpt>
      <trkpt lat="36.79115" lon="-4.95466">
        <ele>569.5156</ele>
        <time>2021-07-16T11:58:32Z</time>
      </trkpt>
      <trkpt lat="36.79146" lon="-4.95314">
        <ele>556.4081</ele>
        <time>2021-07-16T11:58:43Z</time>
      </trkpt>
      <trkpt lat="36.79095" lon="-4.95155">
        <ele>557.866</ele>
        <time>2021-07-16T11:58:54Z</time>
      </trkpt>
      <trkpt lat="36.79043" lon="-4.95024">
        <ele>556.3552</ele>
        <time>2021-07-16T11:59:05Z</time>
      </trkpt>
      <trkpt lat="36.78935" lon="-4.94963">
        <ele>552.3655</ele>
        <time>2021-07-16T11:59:16Z</time>
      </trkpt>
      <trkpt lat="36.78803" lon="-4.94903">
        <ele>549.9665</ele>
        <time>2021-07-16T11:59:27Z</time>
      </trkpt>
      <trkpt lat="36.78692" lon="-4.94701">
        <ele>562.3349</ele>
        <time>2021-07-16T11:59:38Z</time>
      </trkpt>
      <trkpt lat="36.78514" lon="-4.94527">
        <ele>576.8701</ele>
        <time>2021-07-16T11:59:49Z</time>
      </trkpt>
      <trkpt lat="36.78387" lon="-4.94368">
        <ele>590.1223</ele>
        <time>2021-07-16T12:00:00Z</time>
      </trkpt>
      <trkpt lat="36.78337" lon="-4.94158">
        <ele>605.0801</ele>
        <time>2021-07-16T12:00:11Z</time>
      </trkpt>
      <trkpt lat="36.78162" lon="-4.94069">
        <ele>601.0412</ele>
        <time>2021-07-16T12:00:22Z</time>
      </trkpt>
      <trkpt lat="36.78039" lon="-4.9407">
        <ele>594.0659</ele>
        <time>2021-07-16T12:00:33Z</time>
      </trkpt>
      <trkpt lat="36.77925" lon="-4.94036">
        <ele>582.7559</ele>
        <time>2021-07-16T12:00:44Z</time>
      </trkpt>
      <trkpt lat="36.77791" lon="-4.94065">
        <ele>574.7376</ele>
        <time>2021-07-16T12:00:55Z</time>
      </trkpt>
      <trkpt lat="36.77642" lon="-4.93935">
        <ele>580.1973</ele>
        <time>2021-07-16T12:01:06Z</time>
      </trkpt>
      <trkpt lat="36.77495" lon="-4.93795">
        <ele>582.6419</ele>
        <time>2021-07-16T12:01:17Z</time>
      </trkpt>
      <trkpt lat="36.7728" lon="-4.93781">
        <ele>588.0811</ele>
        <time>2021-07-16T12:01:28Z</time>
      </trkpt>
      <trkpt lat="36.77053" lon="-4.93735">
        <ele>601.44</ele>
        <time>2021-07-16T12:01:39Z</time>
      </trkpt>
      <trkpt lat="36.76815" lon="-4.93668">
        <ele>618.1069</ele>
        <time>2021-07-16T12:01:50Z</time>
      </trkpt>
      <trkpt lat="36.76694" lon="-4.93463">
        <ele>624.6353</ele>
        <time>2021-07-16T12:02:01Z</time>
      </trkpt>
      <trkpt lat="36.76548" lon="-4.93343">
        <ele>631.3109</ele>
        <time>2021-07-16T12:02:12Z</time>
      </trkpt>
      <trkpt lat="36.76441" lon="-4.93296">
        <ele>629.4947</ele>
        <time>2021-07-16T12:02:23Z</time>
      </trkpt>
      <trkpt lat="36.76371" lon="-4.93459">
        <ele>638.8873</ele>
        <time>2021-07-16T12:02:34Z</time>
      </trkpt>
      <trkpt lat="36.76271" lon="-4.93595">
        <ele>646.3468</ele>
        <time>2021-07-16T12:02:45Z</time>
      </trkpt>
      <trkpt lat="36.76126" lon="-4.93698">
        <ele>656.0193</ele>
        <time>2021-07-16T12:02:56Z</time>
      </trkpt>
      <trkpt lat="36.75984" lon="-4.93722">
        <ele>664.9549</ele>
        <time>2021-07-16T12:03:07Z</time>
      </trkpt>
      <trkpt lat="36.75853" lon="-4.93781">
        <ele>677.1987</ele>
        <time>2021-07-16T12:03:18Z</time>
      </trkpt>
      <trkpt lat="36.75731" lon="-4.93725">
        <ele>687.4203</ele>
        <time>2021-07-16T12:03:29Z</time>
      </trkpt>
      <trkpt lat="36.75813" lon="-4.93615">
        <ele>698.8083</ele>
        <time>2021-07-16T12:03:40Z</time>
      </trkpt>
      <trkpt lat="36.75785" lon="-4.93549">
        <ele>707.4698</ele>
        <time>2021-07-16T12:03:51Z</time>
      </trkpt>
      <trkpt lat="36.75782" lon="-4.93419">
        <ele>717.2625</ele>
        <time>2021-07-16T12:04:02Z</time>
      </trkpt>
      <trkpt lat="36.75676" lon="-4.93384">
        <ele>725.0496</ele>
        <time>2021-07-16T12:04:13Z</time>
      </trkpt>
      <trkpt lat="36.75692" lon="-4.93217">
        <ele>736.0436</ele>
        <time>2021-07-16T12:04:24Z</time>
      </trkpt>
      <trkpt lat="36.75594" lon="-4.93076">
        <ele>746.8243</ele>
        <time>2021-07-16T12:04:35Z</time>
      </trkpt>
      <trkpt lat="36.75455" lon="-4.93059">
        <ele>760.3933</ele>
        <time>2021-07-16T12:04:46Z</time>
      </trkpt>
      <trkpt lat="36.75336" lon="-4.93036">
        <ele>770.0372</ele>
        <time>2021-07-16T12:04:57Z</time>
      </trkpt>
      <trkpt lat="36.7521" lon="-4.93007">
        <ele>774.194</ele>
        <time>2021-07-16T12:05:08Z</time>
      </trkpt>
      <trkpt lat="36.75096" lon="-4.92943">
        <ele>783.7526</ele>
        <time>2021-07-16T12:05:19Z</time>
      </trkpt>
      <trkpt lat="36.74989" lon="-4.92899">
        <ele>791.0561</ele>
        <time>2021-07-16T12:05:30Z</time>
      </trkpt>
      <trkpt lat="36.74843" lon="-4.92917">
        <ele>799.4491</ele>
        <time>2021-07-16T12:05:41Z</time>
      </trkpt>
      <trkpt lat="36.74708" lon="-4.92985">
        <ele>808.2163</ele>
        <time>2021-07-16T12:05:52Z</time>
      </trkpt>
      <trkpt lat="36.74649" lon="-4.92833">
        <ele>819.6713</ele>
        <time>2021-07-16T12:06:03Z</time>
      </trkpt>
      <trkpt lat="36.74539" lon="-4.92804">
        <ele>816.8055</ele>
        <time>2021-07-16T12:06:14Z</time>
      </trkpt>
      <trkpt lat="36.74443" lon="-4.92858">
        <ele>808.0137</ele>
        <time>2021-07-16T12:06:25Z</time>
      </trkpt>
      <trkpt lat="36.74295" lon="-4.92695">
        <ele>792.71</ele>
        <time>2021-07-16T12:06:36Z</time>
      </trkpt>
      <trkpt lat="36.74293" lon="-4.92516">
        <ele>778.4878</ele>
        <time>2021-07-16T12:06:47Z</time>
      </trkpt>
      <trkpt lat="36.74367" lon="-4.92426">
        <ele>771.6759</ele>
        <time>2021-07-16T12:06:58Z</time>
      </trkpt>
      <trkpt lat="36.74175" lon="-4.92414">
        <ele>760.1413</ele>
        <time>2021-07-16T12:07:09Z</time>
      </trkpt>
      <trkpt lat="36.74039" lon="-4.92424">
        <ele>751.2017</ele>
        <time>2021-07-16T12:07:20Z</time>
      </trkpt>
      <trkpt lat="36.73885" lon="-4.9232">
        <ele>738.8564</ele>
        <time>2021-07-16T12:07:31Z</time>
      </trkpt>
      <trkpt lat="36.73816" lon="-4.92233">
        <ele>734.3162</ele>
        <time>2021-07-16T12:07:42Z</time>
      </trkpt>
      <trkpt lat="36.73776" lon="-4.92069">
        <ele>726.2426</ele>
        <time>2021-07-16T12:07:53Z</time>
      </trkpt>
      <trkpt lat="36.73701" lon="-4.9195">
        <ele>715.896</ele>
        <time>2021-07-16T12:08:04Z</time>
      </trkpt>
      <trkpt lat="36.73596" lon="-4.92011">
        <ele>707.5705</ele>
        <time>2021-07-16T12:08:15Z</time>
      </trkpt>
      <trkpt lat="36.7359" lon="-4.91871">
        <ele>703.5432</ele>
        <time>2021-07-16T12:08:26Z</time>
      </trkpt>
      <trkpt lat="36.73588" lon="-4.918">
        <ele>700.3412</ele>
        <time>2021-07-16T12:08:37Z</time>
      </trkpt>
      <trkpt lat="36.73538" lon="-4.91725">
        <ele>696.3962</ele>
        <time>2021-07-16T12:08:48Z</time>
      </trkpt>
      <trkpt lat="36.73459" lon="-4.91607">
        <ele>693.0267</ele>
        <time>2021-07-16T12:08:59Z</time>
      </trkpt>
      <trkpt lat="36.73321" lon="-4.91535">
        <ele>686.6861</ele>
        <time>2021-07-16T12:09:10Z</time>
      </trkpt>
      <trkpt lat="36.73206" lon="-4.91499">
        <ele>680.0241</ele>
        <time>2021-07-16T12:09:21Z</time>
      </trkpt>
      <trkpt lat="36.73247" lon="-4.91374">
        <ele>670.1313</ele>
        <time>2021-07-16T12:09:32Z</time>
      </trkpt>
      <trkpt lat="36.73297" lon="-4.91217">
        <ele>662.0442</ele>
        <time>2021-07-16T12:09:43Z</time>
      </trkpt>
      <trkpt lat="36.73356" lon="-4.91062">
        <ele>656.038</ele>
        <time>2021-07-16T12:09:54Z</time>
      </trkpt>
      <trkpt lat="36.73405" lon="-4.90923">
        <ele>653.3927</ele>
        <time>2021-07-16T12:10:05Z</time>
      </trkpt>
      <trkpt lat="36.73312" lon="-4.90833">
        <ele>643.794</ele>
        <time>2021-07-16T12:10:16Z</time>
      </trkpt>
      <trkpt lat="36.73159" lon="-4.90888">
        <ele>632.6261</ele>
        <time>2021-07-16T12:10:27Z</time>
      </trkpt>
      <trkpt lat="36.73135" lon="-4.90821">
        <ele>621.8519</ele>
        <time>2021-07-16T12:10:38Z</time>
      </trkpt>
      <trkpt lat="36.73228" lon="-4.90719">
        <ele>616.6567</ele>
        <time>2021-07-16T12:10:49Z</time>
      </trkpt>
      <trkpt lat="36.73363" lon="-4.90756">
        <ele>607.7258</ele>
        <time>2021-07-16T12:11:00Z</time>
      </trkpt>
      <trkpt lat="36.73337" lon="-4.90648">
        <ele>606.8157</ele>
        <time>2021-07-16T12:11:11Z</time>
      </trkpt>
      <trkpt lat="36.7339" lon="-4.90464">
        <ele>610.81</ele>
        <time>2021-07-16T12:11:22Z</time>
      </trkpt>
      <trkpt lat="36.73524" lon="-4.90352">
        <ele>599.557</ele>
        <time>2021-07-16T12:11:33Z</time>
      </trkpt>
      <trkpt lat="36.73518" lon="-4.90286">
        <ele>600.2937</ele>
        <time>2021-07-16T12:11:44Z</time>
      </trkpt>
      <trkpt lat="36.73427" lon="-4.90253">
        <ele>601.7023</ele>
        <time>2021-07-16T12:11:55Z</time>
      </trkpt>
      <trkpt lat="36.73424" lon="-4.90091">
        <ele>598.1777</ele>
        <time>2021-07-16T12:12:06Z</time>
      </trkpt>
      <trkpt lat="36.73491" lon="-4.90004">
        <ele>593.8669</ele>
        <time>2021-07-16T12:12:17Z</time>
      </trkpt>
      <trkpt lat="36.73582" lon="-4.89923">
        <ele>583.9562</ele>
        <time>2021-07-16T12:12:28Z</time>
      </trkpt>
      <trkpt lat="36.73548" lon="-4.89753">
        <ele>572.0716</ele>
        <time>2021-07-16T12:12:39Z</time>
      </trkpt>
      <trkpt lat="36.73612" lon="-4.89648">
        <ele>562.7233</ele>
        <time>2021-07-16T12:12:50Z</time>
      </trkpt>
      <trkpt lat="36.73566" lon="-4.8953">
        <ele>563.2589</ele>
        <time>2021-07-16T12:13:01Z</time>
      </trkpt>
      <trkpt lat="36.73479" lon="-4.89351">
        <ele>561.719</ele>
        <time>2021-07-16T12:13:12Z</time>
      </trkpt>
      <trkpt lat="36.7346" lon="-4.89157">
        <ele>557.7196</ele>
        <time>2021-07-16T12:13:23Z</time>
      </trkpt>
      <trkpt lat="36.73545" lon="-4.8902">
        <ele>545.8466</ele>
        <time>2021-07-16T12:13:34Z</time>
      </trkpt>
      <trkpt lat="36.73548" lon="-4.88901">
        <ele>547.9868</ele>
        <time>2021-07-16T12:13:45Z</time>
      </trkpt>
      <trkpt lat="36.73508" lon="-4.88722">
        <ele>553.5235</ele>
        <time>2021-07-16T12:13:56Z</time>
      </trkpt>
      <trkpt lat="36.73487" lon="-4.88582">
        <ele>556.7176</ele>
        <time>2021-07-16T12:14:07Z</time>
      </trkpt>
      <trkpt lat="36.73408" lon="-4.88411">
        <ele>565.0577</ele>
        <time>2021-07-16T12:14:18Z</time>
      </trkpt>
      <trkpt lat="36.73391" lon="-4.88249">
        <ele>571.8779</ele>
        <time>2021-07-16T12:14:29Z</time>
      </trkpt>
      <trkpt lat="36.73499" lon="-4.88278">
        <ele>568.1514</ele>
        <time>2021-07-16T12:14:40Z</time>
      </trkpt>
      <trkpt lat="36.73563" lon="-4.88066">
        <ele>556.421</ele>
        <time>2021-07-16T12:14:51Z</time>
      </trkpt>
      <trkpt lat="36.73637" lon="-4.88101">
        <ele>551.667</ele>
        <time>2021-07-16T12:15:03Z</time>
      </trkpt>
      <trkpt lat="36.73732" lon="-4.88057">
        <ele>552.0751</ele>
        <time>2021-07-16T12:15:14Z</time>
      </trkpt>
      <trkpt lat="36.73863" lon="-4.88107">
        <ele>538.8145</ele>
        <time>2021-07-16T12:15:25Z</time>
      </trkpt>
      <trkpt lat="36.73841" lon="-4.87952">
        <ele>522.1165</ele>
        <time>2021-07-16T12:15:36Z</time>
      </trkpt>
      <trkpt lat="36.73949" lon="-4.87844">
        <ele>511.9868</ele>
        <time>2021-07-16T12:15:47Z</time>
      </trkpt>
      <trkpt lat="36.73833" lon="-4.87783">
        <ele>507.8515</ele>
        <time>2021-07-16T12:15:58Z</time>
      </trkpt>
      <trkpt lat="36.73723" lon="-4.87678">
        <ele>495.3298</ele>
        <time>2021-07-16T12:16:09Z</time>
      </trkpt>
      <trkpt lat="36.73588" lon="-4.87674">
        <ele>487.93</ele>
        <time>2021-07-16T12:16:20Z</time>
      </trkpt>
      <trkpt lat="36.73674" lon="-4.875">
        <ele>484.013</ele>
        <time>2021-07-16T12:16:31Z</time>
      </trkpt>
      <trkpt lat="36.73696" lon="-4.87386">
        <ele>475.767</ele>
        <time>2021-07-16T12:16:42Z</time>
      </trkpt>
      <trkpt lat="36.73516" lon="-4.87441">
        <ele>463.4753</ele>
        <time>2021-07-16T12:16:53Z</time>
      </trkpt>
      <trkpt lat="36.73402" lon="-4.87363">
        <ele>450.5545</ele>
        <time>2021-07-16T12:17:04Z</time>
      </trkpt>
      <trkpt lat="36.73306" lon="-4.87333">
        <ele>428.3988</ele>
        <time>2021-07-16T12:17:15Z</time>
      </trkpt>
      <trkpt lat="36.73178" lon="-4.87256">
        <ele>433.2407</ele>
        <time>2021-07-16T12:17:26Z</time>
      </trkpt>
      <trkpt lat="36.73067" lon="-4.87083">
        <ele>417.5514</ele>
        <time>2021-07-16T12:17:37Z</time>
      </trkpt>
      <trkpt lat="36.73012" lon="-4.86915">
        <ele>406.1085</ele>
        <time>2021-07-16T12:17:48Z</time>
      </trkpt>
      <trkpt lat="36.72912" lon="-4.86798">
        <ele>396.8718</ele>
        <time>2021-07-16T12:17:59Z</time>
      </trkpt>
      <trkpt lat="36.72965" lon="-4.86646">
        <ele>392.467</ele>
        <time>2021-07-16T12:18:10Z</time>
      </trkpt>
      <trkpt lat="36.72931" lon="-4.86506">
        <ele>380.9006</ele>
        <time>2021-07-16T12:18:21Z</time>
      </trkpt>
      <trkpt lat="36.7293" lon="-4.86472">
        <ele>377.4725</ele>
        <time>2021-07-16T12:18:32Z</time>
      </trkpt>
      <trkpt lat="36.72942" lon="-4.86474">
        <ele>378.9643</ele>
        <time>2021-07-16T12:18:43Z</time>
      </trkpt>
      <trkpt lat="36.72902" lon="-4.86469">
        <ele>378.3715</ele>
        <time>2021-07-16T12:18:54Z</time>
      </trkpt>
      <trkpt lat="36.7286" lon="-4.86382">
        <ele>381.0886</ele>
        <time>2021-07-16T12:19:05Z</time>
      </trkpt>
      <trkpt lat="36.72803" lon="-4.86311">
        <ele>381.5571</ele>
        <time>2021-07-16T12:19:16Z</time>
      </trkpt>
      <trkpt lat="36.72747" lon="-4.86231">
        <ele>379.9272</ele>
        <time>2021-07-16T12:19:27Z</time>
      </trkpt>
      <trkpt lat="36.72733" lon="-4.86121">
        <ele>381.5027</ele>
        <time>2021-07-16T12:19:38Z</time>
      </trkpt>
      <trkpt lat="36.72748" lon="-4.86002">
        <ele>382.2615</ele>
        <time>2021-07-16T12:19:49Z</time>
      </trkpt>
      <trkpt lat="36.72788" lon="-4.85924">
        <ele>379.2228</ele>
        <time>2021-07-16T12:20:00Z</time>
      </trkpt>
      <trkpt lat="36.72806" lon="-4.85866">
        <ele>374.8005</ele>
        <time>2021-07-16T12:20:11Z</time>
      </trkpt>
      <trkpt lat="36.72812" lon="-4.85788">
        <ele>373.8125</ele>
        <time>2021-07-16T12:20:22Z</time>
      </trkpt>
      <trkpt lat="36.72798" lon="-4.85717">
        <ele>371.394</ele>
        <time>2021-07-16T12:20:33Z</time>
      </trkpt>
      <trkpt lat="36.72797" lon="-4.85677">
        <ele>369.4051</ele>
        <time>2021-07-16T12:20:44Z</time>
      </trkpt>
      <trkpt lat="36.72805" lon="-4.85664">
        <ele>376.6075</ele>
        <time>2021-07-16T12:20:55Z</time>
      </trkpt>
      <trkpt lat="36.72823" lon="-4.85692">
        <ele>374.1521</ele>
        <time>2021-07-16T12:21:06Z</time>
      </trkpt>
      <trkpt lat="36.72841" lon="-4.85729">
        <ele>373.6818</ele>
        <time>2021-07-16T12:21:17Z</time>
      </trkpt>
      <trkpt lat="36.72867" lon="-4.85761">
        <ele>367.5164</ele>
        <time>2021-07-16T12:21:28Z</time>
      </trkpt>
      <trkpt lat="36.72906" lon="-4.85797">
        <ele>357.7675</ele>
        <time>2021-07-16T12:21:39Z</time>
      </trkpt>
      <trkpt lat="36.72931" lon="-4.85835">
        <ele>355.8488</ele>
        <time>2021-07-16T12:21:50Z</time>
      </trkpt>
      <trkpt lat="36.72958" lon="-4.85874">
        <ele>352.5969</ele>
        <time>2021-07-16T12:22:01Z</time>
      </trkpt>
      <trkpt lat="36.73007" lon="-4.85914">
        <ele>344.8586</ele>
        <time>2021-07-16T12:22:12Z</time>
      </trkpt>
      <trkpt lat="36.7305" lon="-4.8588">
        <ele>341.7574</ele>
        <time>2021-07-16T12:22:23Z</time>
      </trkpt>
      <trkpt lat="36.73042" lon="-4.85731">
        <ele>334.285</ele>
        <time>2021-07-16T12:22:34Z</time>
      </trkpt>
      <trkpt lat="36.73058" lon="-4.85582">
        <ele>335.4029</ele>
        <time>2021-07-16T12:22:45Z</time>
      </trkpt>
      <trkpt lat="36.73154" lon="-4.85414">
        <ele>342.7421</ele>
        <time>2021-07-16T12:22:56Z</time>
      </trkpt>
      <trkpt lat="36.73298" lon="-4.85258">
        <ele>351.3801</ele>
        <time>2021-07-16T12:23:07Z</time>
      </trkpt>
      <trkpt lat="36.73381" lon="-4.85038">
        <ele>346.1649</ele>
        <time>2021-07-16T12:23:18Z</time>
      </trkpt>
      <trkpt lat="36.73462" lon="-4.84849">
        <ele>344.4916</ele>
        <time>2021-07-16T12:23:29Z</time>
      </trkpt>
      <trkpt lat="36.73589" lon="-4.84634">
        <ele>352.9759</ele>
        <time>2021-07-16T12:23:40Z</time>
      </trkpt>
      <trkpt lat="36.73729" lon="-4.84482">
        <ele>351.725</ele>
        <time>2021-07-16T12:23:51Z</time>
      </trkpt>
      <trkpt lat="36.73756" lon="-4.84311">
        <ele>356.806</ele>
        <time>2021-07-16T12:24:02Z</time>
      </trkpt>
      <trkpt lat="36.73848" lon="-4.84145">
        <ele>344.9259</ele>
        <time>2021-07-16T12:24:13Z</time>
      </trkpt>
      <trkpt lat="36.73918" lon="-4.8397">
        <ele>340.9108</ele>
        <time>2021-07-16T12:24:24Z</time>
      </trkpt>
      <trkpt lat="36.73894" lon="-4.8374">
        <ele>330.1134</ele>
        <time>2021-07-16T12:24:35Z</time>
      </trkpt>
      <trkpt lat="36.73901" lon="-4.83512">
        <ele>314.0148</ele>
        <time>2021-07-16T12:24:46Z</time>
      </trkpt>
      <trkpt lat="36.73862" lon="-4.83223">
        <ele>304.8063</ele>
        <time>2021-07-16T12:24:57Z</time>
      </trkpt>
      <trkpt lat="36.73851" lon="-4.82944">
        <ele>275.5875</ele>
        <time>2021-07-16T12:25:08Z</time>
      </trkpt>
      <trkpt lat="36.73865" lon="-4.82666">
        <ele>282.8625</ele>
        <time>2021-07-16T12:25:19Z</time>
      </trkpt>
      <trkpt lat="36.73875" lon="-4.82469">
        <ele>290.9013</ele>
        <time>2021-07-16T12:25:30Z</time>
      </trkpt>
      <trkpt lat="36.73882" lon="-4.82383">
        <ele>291.0937</ele>
        <time>2021-07-16T12:25:41Z</time>
      </trkpt>
      <trkpt lat="36.73883" lon="-4.82385">
        <ele>293.2672</ele>
        <time>2021-07-16T12:26:41Z</time>
      </trkpt>
      <trkpt lat="36.73884" lon="-4.82376">
        <ele>292.6428</ele>
        <time>2021-07-16T12:26:57Z</time>
      </trkpt>
      <trkpt lat="36.73956" lon="-4.82211">
        <ele>278.5122</ele>
        <time>2021-07-16T12:27:08Z</time>
      </trkpt>
      <trkpt lat="36.74035" lon="-4.82076">
        <ele>266.6038</ele>
        <time>2021-07-16T12:27:19Z</time>
      </trkpt>
      <trkpt lat="36.74048" lon="-4.82">
        <ele>266.2206</ele>
        <time>2021-07-16T12:27:30Z</time>
      </trkpt>
      <trkpt lat="36.74086" lon="-4.81947">
        <ele>260.8036</ele>
        <time>2021-07-16T12:27:41Z</time>
      </trkpt>
      <trkpt lat="36.74195" lon="-4.81777">
        <ele>241.6683</ele>
        <time>2021-07-16T12:27:52Z</time>
      </trkpt>
      <trkpt lat="36.74273" lon="-4.81697">
        <ele>244.3503</ele>
        <time>2021-07-16T12:28:03Z</time>
      </trkpt>
      <trkpt lat="36.74298" lon="-4.8163">
        <ele>239.6526</ele>
        <time>2021-07-16T12:28:14Z</time>
      </trkpt>
      <trkpt lat="36.74264" lon="-4.81475">
        <ele>235.812</ele>
        <time>2021-07-16T12:28:25Z</time>
      </trkpt>
      <trkpt lat="36.7429" lon="-4.81439">
        <ele>231.3945</ele>
        <time>2021-07-16T12:28:36Z</time>
      </trkpt>
      <trkpt lat="36.74293" lon="-4.81435">
        <ele>231.8319</ele>
        <time>2021-07-16T12:28:47Z</time>
      </trkpt>
      <trkpt lat="36.7431" lon="-4.81321">
        <ele>226.3882</ele>
        <time>2021-07-16T12:28:58Z</time>
      </trkpt>
      <trkpt lat="36.74261" lon="-4.81154">
        <ele>218.8011</ele>
        <time>2021-07-16T12:29:09Z</time>
      </trkpt>
      <trkpt lat="36.74194" lon="-4.81019">
        <ele>217.2107</ele>
        <time>2021-07-16T12:29:20Z</time>
      </trkpt>
      <trkpt lat="36.74133" lon="-4.80905">
        <ele>221.4209</ele>
        <time>2021-07-16T12:29:31Z</time>
      </trkpt>
      <trkpt lat="36.74047" lon="-4.80774">
        <ele>221.6526</ele>
        <time>2021-07-16T12:29:42Z</time>
      </trkpt>
      <trkpt lat="36.74008" lon="-4.80634">
        <ele>224.982</ele>
        <time>2021-07-16T12:29:53Z</time>
      </trkpt>
      <trkpt lat="36.74022" lon="-4.80484">
        <ele>223.9024</ele>
        <time>2021-07-16T12:30:04Z</time>
      </trkpt>
      <trkpt lat="36.74025" lon="-4.80345">
        <ele>218.886</ele>
        <time>2021-07-16T12:30:15Z</time>
      </trkpt>
      <trkpt lat="36.7403" lon="-4.80318">
        <ele>218.2442</ele>
        <time>2021-07-16T12:30:26Z</time>
      </trkpt>
      <trkpt lat="36.73985" lon="-4.80278">
        <ele>221.1468</ele>
        <time>2021-07-16T12:30:37Z</time>
      </trkpt>
      <trkpt lat="36.73936" lon="-4.80168">
        <ele>217.1912</ele>
        <time>2021-07-16T12:30:48Z</time>
      </trkpt>
      <trkpt lat="36.73856" lon="-4.80146">
        <ele>213.4736</ele>
        <time>2021-07-16T12:30:59Z</time>
      </trkpt>
      <trkpt lat="36.73832" lon="-4.80015">
        <ele>203.3109</ele>
        <time>2021-07-16T12:31:10Z</time>
      </trkpt>
      <trkpt lat="36.7374" lon="-4.79911">
        <ele>224.4652</ele>
        <time>2021-07-16T12:31:21Z</time>
      </trkpt>
      <trkpt lat="36.73742" lon="-4.79843">
        <ele>232.9802</ele>
        <time>2021-07-16T12:31:32Z</time>
      </trkpt>
      <trkpt lat="36.73805" lon="-4.79825">
        <ele>246.5013</ele>
        <time>2021-07-16T12:31:43Z</time>
      </trkpt>
      <trkpt lat="36.73841" lon="-4.79743">
        <ele>257.1047</ele>
        <time>2021-07-16T12:31:54Z</time>
      </trkpt>
      <trkpt lat="36.73883" lon="-4.79658">
        <ele>264.747</ele>
        <time>2021-07-16T12:32:05Z</time>
      </trkpt>
      <trkpt lat="36.73913" lon="-4.79542">
        <ele>274.3788</ele>
        <time>2021-07-16T12:32:16Z</time>
      </trkpt>
      <trkpt lat="36.73973" lon="-4.79439">
        <ele>277.4215</ele>
        <time>2021-07-16T12:32:27Z</time>
      </trkpt>
      <trkpt lat="36.74017" lon="-4.79367">
        <ele>272.2482</ele>
        <time>2021-07-16T12:32:38Z</time>
      </trkpt>
      <trkpt lat="36.74118" lon="-4.79315">
        <ele>264.8985</ele>
        <time>2021-07-16T12:32:49Z</time>
      </trkpt>
      <trkpt lat="36.74175" lon="-4.79227">
        <ele>262.916</ele>
        <time>2021-07-16T12:33:00Z</time>
      </trkpt>
      <trkpt lat="36.74199" lon="-4.79113">
        <ele>260.4864</ele>
        <time>2021-07-16T12:33:11Z</time>
      </trkpt>
      <trkpt lat="36.74191" lon="-4.79017">
        <ele>260.3328</ele>
        <time>2021-07-16T12:33:22Z</time>
      </trkpt>
      <trkpt lat="36.74206" lon="-4.78926">
        <ele>256.9478</ele>
        <time>2021-07-16T12:33:33Z</time>
      </trkpt>
      <trkpt lat="36.74221" lon="-4.78841">
        <ele>261.9826</ele>
        <time>2021-07-16T12:33:44Z</time>
      </trkpt>
      <trkpt lat="36.74256" lon="-4.78725">
        <ele>265.2636</ele>
        <time>2021-07-16T12:33:55Z</time>
      </trkpt>
      <trkpt lat="36.74257" lon="-4.7863">
        <ele>272.0267</ele>
        <time>2021-07-16T12:34:06Z</time>
      </trkpt>
      <trkpt lat="36.74263" lon="-4.78535">
        <ele>274.3763</ele>
        <time>2021-07-16T12:34:17Z</time>
      </trkpt>
      <trkpt lat="36.74288" lon="-4.78475">
        <ele>266.8338</ele>
        <time>2021-07-16T12:34:28Z</time>
      </trkpt>
      <trkpt lat="36.74324" lon="-4.78411">
        <ele>258.0681</ele>
        <time>2021-07-16T12:34:39Z</time>
      </trkpt>
      <trkpt lat="36.74363" lon="-4.78341">
        <ele>238.6012</ele>
        <time>2021-07-16T12:34:50Z</time>
      </trkpt>
      <trkpt lat="36.74406" lon="-4.78241">
        <ele>229.2901</ele>
        <time>2021-07-16T12:35:01Z</time>
      </trkpt>
      <trkpt lat="36.744" lon="-4.78154">
        <ele>218.4965</ele>
        <time>2021-07-16T12:35:12Z</time>
      </trkpt>
      <trkpt lat="36.74407" lon="-4.78042">
        <ele>221.3914</ele>
        <time>2021-07-16T12:35:23Z</time>
      </trkpt>
      <trkpt lat="36.74468" lon="-4.77919">
        <ele>228.1223</ele>
        <time>2021-07-16T12:35:34Z</time>
      </trkpt>
      <trkpt lat="36.74544" lon="-4.77779">
        <ele>235.8805</ele>
        <time>2021-07-16T12:35:45Z</time>
      </trkpt>
      <trkpt lat="36.746" lon="-4.77734">
        <ele>236.249</ele>
        <time>2021-07-16T12:35:56Z</time>
      </trkpt>
      <trkpt lat="36.7465" lon="-4.77642">
        <ele>249.497</ele>
        <time>2021-07-16T12:36:07Z</time>
      </trkpt>
      <trkpt lat="36.74652" lon="-4.77526">
        <ele>255.8289</ele>
        <time>2021-07-16T12:36:18Z</time>
      </trkpt>
      <trkpt lat="36.74638" lon="-4.77407">
        <ele>252.1653</ele>
        <time>2021-07-16T12:36:29Z</time>
      </trkpt>
      <trkpt lat="36.74657" lon="-4.77322">
        <ele>254.699</ele>
        <time>2021-07-16T12:36:40Z</time>
      </trkpt>
      <trkpt lat="36.74697" lon="-4.77217">
        <ele>257.2608</ele>
        <time>2021-07-16T12:36:51Z</time>
      </trkpt>
      <trkpt lat="36.74731" lon="-4.7714">
        <ele>265.7808</ele>
        <time>2021-07-16T12:37:02Z</time>
      </trkpt>
      <trkpt lat="36.74812" lon="-4.7713">
        <ele>260.6798</ele>
        <time>2021-07-16T12:37:13Z</time>
      </trkpt>
      <trkpt lat="36.74823" lon="-4.77036">
        <ele>253.651</ele>
        <time>2021-07-16T12:37:24Z</time>
      </trkpt>
      <trkpt lat="36.74826" lon="-4.76916">
        <ele>264.7699</ele>
        <time>2021-07-16T12:37:35Z</time>
      </trkpt>
      <trkpt lat="36.74832" lon="-4.76814">
        <ele>272.2104</ele>
        <time>2021-07-16T12:37:46Z</time>
      </trkpt>
      <trkpt lat="36.74863" lon="-4.76723">
        <ele>278.3579</ele>
        <time>2021-07-16T12:37:57Z</time>
      </trkpt>
      <trkpt lat="36.74864" lon="-4.76713">
        <ele>277.1371</ele>
        <time>2021-07-16T12:38:08Z</time>
      </trkpt>
      <trkpt lat="36.74868" lon="-4.76718">
        <ele>278.796</ele>
        <time>2021-07-16T12:38:19Z</time>
      </trkpt>
      <trkpt lat="36.74887" lon="-4.76672">
        <ele>291.0499</ele>
        <time>2021-07-16T12:38:30Z</time>
      </trkpt>
      <trkpt lat="36.74855" lon="-4.7662">
        <ele>289.8415</ele>
        <time>2021-07-16T12:38:41Z</time>
      </trkpt>
      <trkpt lat="36.7484" lon="-4.76598">
        <ele>292.559</ele>
        <time>2021-07-16T12:38:52Z</time>
      </trkpt>
      <trkpt lat="36.74813" lon="-4.76563">
        <ele>294.4815</ele>
        <time>2021-07-16T12:39:03Z</time>
      </trkpt>
      <trkpt lat="36.74789" lon="-4.76505">
        <ele>297.893</ele>
        <time>2021-07-16T12:39:14Z</time>
      </trkpt>
      <trkpt lat="36.74751" lon="-4.76435">
        <ele>299.1291</ele>
        <time>2021-07-16T12:39:25Z</time>
      </trkpt>
      <trkpt lat="36.74698" lon="-4.76338">
        <ele>292.0086</ele>
        <time>2021-07-16T12:39:36Z</time>
      </trkpt>
      <trkpt lat="36.74598" lon="-4.7623">
        <ele>282.154</ele>
        <time>2021-07-16T12:39:48Z</time>
      </trkpt>
      <trkpt lat="36.74513" lon="-4.76262">
        <ele>277.0735</ele>
        <time>2021-07-16T12:39:59Z</time>
      </trkpt>
      <trkpt lat="36.74445" lon="-4.7635">
        <ele>258.9661</ele>
        <time>2021-07-16T12:40:10Z</time>
      </trkpt>
      <trkpt lat="36.7436" lon="-4.76324">
        <ele>252.403</ele>
        <time>2021-07-16T12:40:21Z</time>
      </trkpt>
      <trkpt lat="36.7425" lon="-4.76285">
        <ele>239.2233</ele>
        <time>2021-07-16T12:40:32Z</time>
      </trkpt>
      <trkpt lat="36.74285" lon="-4.76254">
        <ele>229.5559</ele>
        <time>2021-07-16T12:40:43Z</time>
      </trkpt>
      <trkpt lat="36.74184" lon="-4.76241">
        <ele>215.7492</ele>
        <time>2021-07-16T12:40:54Z</time>
      </trkpt>
      <trkpt lat="36.74073" lon="-4.76139">
        <ele>197.8289</ele>
        <time>2021-07-16T12:41:05Z</time>
      </trkpt>
      <trkpt lat="36.74024" lon="-4.75958">
        <ele>201.3739</ele>
        <time>2021-07-16T12:41:16Z</time>
      </trkpt>
      <trkpt lat="36.73961" lon="-4.75792">
        <ele>201.3797</ele>
        <time>2021-07-16T12:41:27Z</time>
      </trkpt>
      <trkpt lat="36.74125" lon="-4.75658">
        <ele>201.7476</ele>
        <time>2021-07-16T12:41:38Z</time>
      </trkpt>
      <trkpt lat="36.74116" lon="-4.75415">
        <ele>200.5963</ele>
        <time>2021-07-16T12:41:49Z</time>
      </trkpt>
      <trkpt lat="36.74107" lon="-4.75181">
        <ele>194.6664</ele>
        <time>2021-07-16T12:42:00Z</time>
      </trkpt>
      <trkpt lat="36.74083" lon="-4.74952">
        <ele>184.2554</ele>
        <time>2021-07-16T12:42:11Z</time>
      </trkpt>
      <trkpt lat="36.73956" lon="-4.74903">
        <ele>167.6827</ele>
        <time>2021-07-16T12:42:23Z</time>
      </trkpt>
      <trkpt lat="36.73913" lon="-4.74718">
        <ele>164.9867</ele>
        <time>2021-07-16T12:42:34Z</time>
      </trkpt>
      <trkpt lat="36.73867" lon="-4.74514">
        <ele>157.7079</ele>
        <time>2021-07-16T12:42:45Z</time>
      </trkpt>
      <trkpt lat="36.73977" lon="-4.74336">
        <ele>152.6891</ele>
        <time>2021-07-16T12:42:56Z</time>
      </trkpt>
      <trkpt lat="36.74048" lon="-4.74144">
        <ele>155.7121</ele>
        <time>2021-07-16T12:43:07Z</time>
      </trkpt>
      <trkpt lat="36.74094" lon="-4.73905">
        <ele>141.5841</ele>
        <time>2021-07-16T12:43:18Z</time>
      </trkpt>
      <trkpt lat="36.74202" lon="-4.73687">
        <ele>123.6464</ele>
        <time>2021-07-16T12:43:29Z</time>
      </trkpt>
      <trkpt lat="36.74316" lon="-4.73523">
        <ele>117.0286</ele>
        <time>2021-07-16T12:43:40Z</time>
      </trkpt>
      <trkpt lat="36.74474" lon="-4.73404">
        <ele>114.1158</ele>
        <time>2021-07-16T12:43:51Z</time>
      </trkpt>
      <trkpt lat="36.74641" lon="-4.73344">
        <ele>112.6296</ele>
        <time>2021-07-16T12:44:02Z</time>
      </trkpt>
      <trkpt lat="36.74709" lon="-4.73231">
        <ele>108.7427</ele>
        <time>2021-07-16T12:44:13Z</time>
      </trkpt>
      <trkpt lat="36.74694" lon="-4.73046">
        <ele>106.1387</ele>
        <time>2021-07-16T12:44:24Z</time>
      </trkpt>
      <trkpt lat="36.74772" lon="-4.72912">
        <ele>91.17873</ele>
        <time>2021-07-16T12:44:35Z</time>
      </trkpt>
      <trkpt lat="36.74903" lon="-4.72772">
        <ele>76.09134</ele>
        <time>2021-07-16T12:44:46Z</time>
      </trkpt>
      <trkpt lat="36.74954" lon="-4.72603">
        <ele>74.649</ele>
        <time>2021-07-16T12:44:57Z</time>
      </trkpt>
      <trkpt lat="36.74957" lon="-4.72396">
        <ele>77.80901</ele>
        <time>2021-07-16T12:45:08Z</time>
      </trkpt>
      <trkpt lat="36.7492" lon="-4.72215">
        <ele>85.6966</ele>
        <time>2021-07-16T12:45:19Z</time>
      </trkpt>
      <trkpt lat="36.74898" lon="-4.72063">
        <ele>85.28258</ele>
        <time>2021-07-16T12:45:30Z</time>
      </trkpt>
      <trkpt lat="36.74887" lon="-4.71975">
        <ele>82.57536</ele>
        <time>2021-07-16T12:45:41Z</time>
      </trkpt>
      <trkpt lat="36.74872" lon="-4.71992">
        <ele>83.43914</ele>
        <time>2021-07-16T12:45:52Z</time>
      </trkpt>
      <trkpt lat="36.74871" lon="-4.71998">
        <ele>84.47148</ele>
        <time>2021-07-16T12:46:03Z</time>
      </trkpt>
      <trkpt lat="36.7486" lon="-4.72025">
        <ele>83.3794</ele>
        <time>2021-07-16T12:46:14Z</time>
      </trkpt>
      <trkpt lat="36.74858" lon="-4.72032">
        <ele>85.01151</ele>
        <time>2021-07-16T12:46:25Z</time>
      </trkpt>
      <trkpt lat="36.74839" lon="-4.72063">
        <ele>86.27441</ele>
        <time>2021-07-16T12:46:36Z</time>
      </trkpt>
      <trkpt lat="36.74791" lon="-4.72104">
        <ele>89.2967</ele>
        <time>2021-07-16T12:46:47Z</time>
      </trkpt>
      <trkpt lat="36.74787" lon="-4.72134">
        <ele>89.703</ele>
        <time>2021-07-16T12:46:58Z</time>
      </trkpt>
      <trkpt lat="36.74791" lon="-4.72133">
        <ele>89.50486</ele>
        <time>2021-07-16T12:47:09Z</time>
      </trkpt>
      <trkpt lat="36.74794" lon="-4.7213">
        <ele>89.13287</ele>
        <time>2021-07-16T12:47:44Z</time>
      </trkpt>
      <trkpt lat="36.74792" lon="-4.72129">
        <ele>88.97536</ele>
        <time>2021-07-16T12:48:43Z</time>
      </trkpt>
      <trkpt lat="36.74791" lon="-4.72127">
        <ele>88.40521</ele>
        <time>2021-07-16T12:49:43Z</time>
      </trkpt>
      <trkpt lat="36.74791" lon="-4.72129">
        <ele>88.92062</ele>
        <time>2021-07-16T12:50:43Z</time>
      </trkpt>
      <trkpt lat="36.74792" lon="-4.72128">
        <ele>89.61145</ele>
        <time>2021-07-16T12:51:43Z</time>
      </trkpt>
      <trkpt lat="36.74788" lon="-4.7213">
        <ele>88.75554</ele>
        <time>2021-07-16T12:52:17Z</time>
      </trkpt>
      <trkpt lat="36.74792" lon="-4.72131">
        <ele>89.03144</ele>
        <time>2021-07-16T12:52:40Z</time>
      </trkpt>
      <trkpt lat="36.74791" lon="-4.72125">
        <ele>90.42646</ele>
        <time>2021-07-16T12:53:29Z</time>
      </trkpt>
      <trkpt lat="36.7479" lon="-4.72128">
        <ele>88.8441</ele>
        <time>2021-07-16T12:54:28Z</time>
      </trkpt>
      <trkpt lat="36.7479" lon="-4.72129">
        <ele>88.53346</ele>
        <time>2021-07-16T12:55:27Z</time>
      </trkpt>
      <trkpt lat="36.74791" lon="-4.72128">
        <ele>88.95797</ele>
        <time>2021-07-16T12:56:27Z</time>
      </trkpt>
      <trkpt lat="36.74792" lon="-4.72128">
        <ele>89.11557</ele>
        <time>2021-07-16T12:57:26Z</time>
      </trkpt>
      <trkpt lat="36.7479" lon="-4.72124">
        <ele>88.65367</ele>
        <time>2021-07-16T12:58:22Z</time>
      </trkpt>
      <trkpt lat="36.74789" lon="-4.72128">
        <ele>88.86839</ele>
        <time>2021-07-16T12:58:50Z</time>
      </trkpt>
      <trkpt lat="36.74792" lon="-4.72127">
        <ele>89.32479</ele>
        <time>2021-07-16T12:59:30Z</time>
      </trkpt>
      <trkpt lat="36.74791" lon="-4.72128">
        <ele>89.39176</ele>
        <time>2021-07-16T13:00:30Z</time>
      </trkpt>
      <trkpt lat="36.74791" lon="-4.72129">
        <ele>88.72418</ele>
        <time>2021-07-16T13:01:28Z</time>
      </trkpt>
      <trkpt lat="36.74791" lon="-4.72128">
        <ele>88.67242</ele>
        <time>2021-07-16T13:02:27Z</time>
      </trkpt>
      <trkpt lat="36.7479" lon="-4.72129">
        <ele>89.05962</ele>
        <time>2021-07-16T13:03:27Z</time>
      </trkpt>
      <trkpt lat="36.74794" lon="-4.72128">
        <ele>88.50095</ele>
        <time>2021-07-16T13:04:26Z</time>
      </trkpt>
      <trkpt lat="36.7479" lon="-4.72127">
        <ele>88.81028</ele>
        <time>2021-07-16T13:05:25Z</time>
      </trkpt>
      <trkpt lat="36.74794" lon="-4.72128">
        <ele>89.13828</ele>
        <time>2021-07-16T13:05:48Z</time>
      </trkpt>
      <trkpt lat="36.7479" lon="-4.72131">
        <ele>89.91259</ele>
        <time>2021-07-16T13:06:02Z</time>
      </trkpt>
      <trkpt lat="36.74789" lon="-4.72132">
        <ele>89.24606</ele>
        <time>2021-07-16T13:07:01Z</time>
      </trkpt>
      <trkpt lat="36.74792" lon="-4.72128">
        <ele>88.95503</ele>
        <time>2021-07-16T13:07:32Z</time>
      </trkpt>
      <trkpt lat="36.7479" lon="-4.72125">
        <ele>89.18807</ele>
        <time>2021-07-16T13:08:30Z</time>
      </trkpt>
      <trkpt lat="36.74787" lon="-4.72127">
        <ele>88.82007</ele>
        <time>2021-07-16T13:09:10Z</time>
      </trkpt>
      <trkpt lat="36.7479" lon="-4.72129">
        <ele>88.62201</ele>
        <time>2021-07-16T13:09:28Z</time>
      </trkpt>
      <trkpt lat="36.7479" lon="-4.72132">
        <ele>88.90785</ele>
        <time>2021-07-16T13:10:27Z</time>
      </trkpt>
      <trkpt lat="36.7479" lon="-4.72127">
        <ele>88.78382</ele>
        <time>2021-07-16T13:11:09Z</time>
      </trkpt>
      <trkpt lat="36.74787" lon="-4.72125">
        <ele>89.26372</ele>
        <time>2021-07-16T13:11:28Z</time>
      </trkpt>
      <trkpt lat="36.74789" lon="-4.72129">
        <ele>89.38662</ele>
        <time>2021-07-16T13:11:51Z</time>
      </trkpt>
      <trkpt lat="36.74789" lon="-4.72128">
        <ele>88.44471</ele>
        <time>2021-07-16T13:12:51Z</time>
      </trkpt>
      <trkpt lat="36.74788" lon="-4.72129">
        <ele>88.57976</ele>
        <time>2021-07-16T13:13:51Z</time>
      </trkpt>
      <trkpt lat="36.74786" lon="-4.72132">
        <ele>89.16044</ele>
        <time>2021-07-16T13:14:06Z</time>
      </trkpt>
      <trkpt lat="36.74788" lon="-4.72129">
        <ele>88.5883</ele>
        <time>2021-07-16T13:14:57Z</time>
      </trkpt>
      <trkpt lat="36.74777" lon="-4.72117">
        <ele>88.96279</ele>
        <time>2021-07-16T13:15:46Z</time>
      </trkpt>
      <trkpt lat="36.74786" lon="-4.72129">
        <ele>89.21634</ele>
        <time>2021-07-16T13:15:57Z</time>
      </trkpt>
      <trkpt lat="36.7479" lon="-4.72132">
        <ele>89.22507</ele>
        <time>2021-07-16T13:16:08Z</time>
      </trkpt>
      <trkpt lat="36.74788" lon="-4.72128">
        <ele>89.06934</ele>
        <time>2021-07-16T13:16:19Z</time>
      </trkpt>
      <trkpt lat="36.74791" lon="-4.72126">
        <ele>89.40619</ele>
        <time>2021-07-16T13:17:18Z</time>
      </trkpt>
      <trkpt lat="36.74791" lon="-4.72127">
        <ele>89.83774</ele>
        <time>2021-07-16T13:18:17Z</time>
      </trkpt>
      <trkpt lat="36.7479" lon="-4.72122">
        <ele>89.04091</ele>
        <time>2021-07-16T13:18:38Z</time>
      </trkpt>
      <trkpt lat="36.74789" lon="-4.72118">
        <ele>89.27422</ele>
        <time>2021-07-16T13:18:50Z</time>
      </trkpt>
      <trkpt lat="36.74787" lon="-4.72122">
        <ele>90.41121</ele>
        <time>2021-07-16T13:19:11Z</time>
      </trkpt>
      <trkpt lat="36.74789" lon="-4.7213">
        <ele>89.39081</ele>
        <time>2021-07-16T13:19:22Z</time>
      </trkpt>
      <trkpt lat="36.74789" lon="-4.72125">
        <ele>89.02041</ele>
        <time>2021-07-16T13:19:33Z</time>
      </trkpt>
      <trkpt lat="36.74787" lon="-4.72129">
        <ele>89.48686</ele>
        <time>2021-07-16T13:20:04Z</time>
      </trkpt>
      <trkpt lat="36.74787" lon="-4.72127">
        <ele>88.87873</ele>
        <time>2021-07-16T13:21:03Z</time>
      </trkpt>
      <trkpt lat="36.74787" lon="-4.72127">
        <ele>88.87873</ele>
        <time>2021-07-16T13:22:02Z</time>
      </trkpt>
      <trkpt lat="36.74789" lon="-4.72131">
        <ele>89.73335</ele>
        <time>2021-07-16T13:22:28Z</time>
      </trkpt>
      <trkpt lat="36.74792" lon="-4.7214">
        <ele>89.27068</ele>
        <time>2021-07-16T13:22:39Z</time>
      </trkpt>
      <trkpt lat="36.74786" lon="-4.72139">
        <ele>88.82355</ele>
        <time>2021-07-16T13:22:58Z</time>
      </trkpt>
      <trkpt lat="36.74776" lon="-4.72115">
        <ele>89.39728</ele>
        <time>2021-07-16T13:23:09Z</time>
      </trkpt>
      <trkpt lat="36.74826" lon="-4.7207">
        <ele>87.61386</ele>
        <time>2021-07-16T13:23:20Z</time>
      </trkpt>
      <trkpt lat="36.74873" lon="-4.72001">
        <ele>83.75532</ele>
        <time>2021-07-16T13:23:31Z</time>
      </trkpt>
      <trkpt lat="36.74894" lon="-4.71868">
        <ele>80.90339</ele>
        <time>2021-07-16T13:23:42Z</time>
      </trkpt>
      <trkpt lat="36.7485" lon="-4.71707">
        <ele>72.41704</ele>
        <time>2021-07-16T13:23:53Z</time>
      </trkpt>
      <trkpt lat="36.74816" lon="-4.71607">
        <ele>70.60383</ele>
        <time>2021-07-16T13:24:04Z</time>
      </trkpt>
      <trkpt lat="36.74824" lon="-4.7157">
        <ele>70.12943</ele>
        <time>2021-07-16T13:24:15Z</time>
      </trkpt>
      <trkpt lat="36.74827" lon="-4.71565">
        <ele>70.11778</ele>
        <time>2021-07-16T13:24:26Z</time>
      </trkpt>
      <trkpt lat="36.74829" lon="-4.71558">
        <ele>70.24823</ele>
        <time>2021-07-16T13:24:45Z</time>
      </trkpt>
      <trkpt lat="36.748" lon="-4.71451">
        <ele>69.12244</ele>
        <time>2021-07-16T13:24:56Z</time>
      </trkpt>
      <trkpt lat="36.74746" lon="-4.71289">
        <ele>61.55706</ele>
        <time>2021-07-16T13:25:07Z</time>
      </trkpt>
      <trkpt lat="36.74726" lon="-4.71232">
        <ele>58.49538</ele>
        <time>2021-07-16T13:25:18Z</time>
      </trkpt>
      <trkpt lat="36.74726" lon="-4.71228">
        <ele>58.34834</ele>
        <time>2021-07-16T13:25:29Z</time>
      </trkpt>
      <trkpt lat="36.74726" lon="-4.71228">
        <ele>58.14334</ele>
        <time>2021-07-16T13:26:28Z</time>
      </trkpt>
      <trkpt lat="36.74723" lon="-4.71224">
        <ele>57.77458</ele>
        <time>2021-07-16T13:26:39Z</time>
      </trkpt>
      <trkpt lat="36.74834" lon="-4.71193">
        <ele>57.31743</ele>
        <time>2021-07-16T13:26:50Z</time>
      </trkpt>
      <trkpt lat="36.74972" lon="-4.71202">
        <ele>63.22172</ele>
        <time>2021-07-16T13:27:01Z</time>
      </trkpt>
      <trkpt lat="36.75068" lon="-4.71229">
        <ele>62.37743</ele>
        <time>2021-07-16T13:27:12Z</time>
      </trkpt>
      <trkpt lat="36.75124" lon="-4.71227">
        <ele>60.47733</ele>
        <time>2021-07-16T13:27:23Z</time>
      </trkpt>
      <trkpt lat="36.7523" lon="-4.71229">
        <ele>59.11596</ele>
        <time>2021-07-16T13:27:34Z</time>
      </trkpt>
      <trkpt lat="36.75357" lon="-4.71276">
        <ele>54.87992</ele>
        <time>2021-07-16T13:27:45Z</time>
      </trkpt>
      <trkpt lat="36.75495" lon="-4.71364">
        <ele>56.02537</ele>
        <time>2021-07-16T13:27:56Z</time>
      </trkpt>
      <trkpt lat="36.75611" lon="-4.71302">
        <ele>58.1612</ele>
        <time>2021-07-16T13:28:07Z</time>
      </trkpt>
      <trkpt lat="36.75665" lon="-4.71198">
        <ele>60.83089</ele>
        <time>2021-07-16T13:28:18Z</time>
      </trkpt>
      <trkpt lat="36.75697" lon="-4.71172">
        <ele>61.80734</ele>
        <time>2021-07-16T13:28:29Z</time>
      </trkpt>
      <trkpt lat="36.75748" lon="-4.71178">
        <ele>67.45501</ele>
        <time>2021-07-16T13:28:40Z</time>
      </trkpt>
      <trkpt lat="36.75824" lon="-4.7114">
        <ele>72.6994</ele>
        <time>2021-07-16T13:28:51Z</time>
      </trkpt>
      <trkpt lat="36.75861" lon="-4.71048">
        <ele>76.88979</ele>
        <time>2021-07-16T13:29:02Z</time>
      </trkpt>
      <trkpt lat="36.75865" lon="-4.71046">
        <ele>76.31806</ele>
        <time>2021-07-16T13:29:18Z</time>
      </trkpt>
      <trkpt lat="36.75869" lon="-4.71046">
        <ele>79.08252</ele>
        <time>2021-07-16T13:29:31Z</time>
      </trkpt>
      <trkpt lat="36.75873" lon="-4.7104">
        <ele>78.80198</ele>
        <time>2021-07-16T13:29:42Z</time>
      </trkpt>
      <trkpt lat="36.75887" lon="-4.71058">
        <ele>77.83008</ele>
        <time>2021-07-16T13:29:53Z</time>
      </trkpt>
      <trkpt lat="36.75971" lon="-4.71181">
        <ele>79.31955</ele>
        <time>2021-07-16T13:30:04Z</time>
      </trkpt>
      <trkpt lat="36.76131" lon="-4.71184">
        <ele>73.51117</ele>
        <time>2021-07-16T13:30:15Z</time>
      </trkpt>
      <trkpt lat="36.76276" lon="-4.71141">
        <ele>67.81691</ele>
        <time>2021-07-16T13:30:26Z</time>
      </trkpt>
      <trkpt lat="36.7636" lon="-4.71067">
        <ele>70.62453</ele>
        <time>2021-07-16T13:30:37Z</time>
      </trkpt>
      <trkpt lat="36.76408" lon="-4.71014">
        <ele>70.89696</ele>
        <time>2021-07-16T13:30:48Z</time>
      </trkpt>
      <trkpt lat="36.76435" lon="-4.7093">
        <ele>74.22391</ele>
        <time>2021-07-16T13:30:59Z</time>
      </trkpt>
      <trkpt lat="36.76463" lon="-4.70837">
        <ele>76.0268</ele>
        <time>2021-07-16T13:31:10Z</time>
      </trkpt>
      <trkpt lat="36.76477" lon="-4.70789">
        <ele>78.4293</ele>
        <time>2021-07-16T13:31:21Z</time>
      </trkpt>
      <trkpt lat="36.76504" lon="-4.70715">
        <ele>82.84916</ele>
        <time>2021-07-16T13:31:32Z</time>
      </trkpt>
      <trkpt lat="36.76523" lon="-4.70628">
        <ele>88.86363</ele>
        <time>2021-07-16T13:31:43Z</time>
      </trkpt>
      <trkpt lat="36.76452" lon="-4.70608">
        <ele>94.64216</ele>
        <time>2021-07-16T13:31:54Z</time>
      </trkpt>
      <trkpt lat="36.76398" lon="-4.70537">
        <ele>98.75563</ele>
        <time>2021-07-16T13:32:05Z</time>
      </trkpt>
      <trkpt lat="36.76319" lon="-4.70541">
        <ele>103.7325</ele>
        <time>2021-07-16T13:32:16Z</time>
      </trkpt>
      <trkpt lat="36.76242" lon="-4.70544">
        <ele>109.9607</ele>
        <time>2021-07-16T13:32:27Z</time>
      </trkpt>
      <trkpt lat="36.76175" lon="-4.70552">
        <ele>116.9468</ele>
        <time>2021-07-16T13:32:38Z</time>
      </trkpt>
      <trkpt lat="36.76118" lon="-4.7057">
        <ele>117.6645</ele>
        <time>2021-07-16T13:32:49Z</time>
      </trkpt>
      <trkpt lat="36.7609" lon="-4.70464">
        <ele>128.9931</ele>
        <time>2021-07-16T13:33:00Z</time>
      </trkpt>
      <trkpt lat="36.76103" lon="-4.70378">
        <ele>137.7834</ele>
        <time>2021-07-16T13:33:11Z</time>
      </trkpt>
      <trkpt lat="36.7614" lon="-4.70312">
        <ele>151.945</ele>
        <time>2021-07-16T13:33:22Z</time>
      </trkpt>
      <trkpt lat="36.76154" lon="-4.70207">
        <ele>163.7123</ele>
        <time>2021-07-16T13:33:33Z</time>
      </trkpt>
      <trkpt lat="36.76137" lon="-4.70143">
        <ele>169.7462</ele>
        <time>2021-07-16T13:33:44Z</time>
      </trkpt>
      <trkpt lat="36.76044" lon="-4.70094">
        <ele>166.8739</ele>
        <time>2021-07-16T13:33:55Z</time>
      </trkpt>
      <trkpt lat="36.75984" lon="-4.69956">
        <ele>178.4777</ele>
        <time>2021-07-16T13:34:06Z</time>
      </trkpt>
      <trkpt lat="36.75886" lon="-4.69966">
        <ele>183.8872</ele>
        <time>2021-07-16T13:34:17Z</time>
      </trkpt>
      <trkpt lat="36.75811" lon="-4.69891">
        <ele>172.107</ele>
        <time>2021-07-16T13:34:28Z</time>
      </trkpt>
      <trkpt lat="36.75702" lon="-4.69822">
        <ele>180.7091</ele>
        <time>2021-07-16T13:34:39Z</time>
      </trkpt>
      <trkpt lat="36.75672" lon="-4.69737">
        <ele>189.9049</ele>
        <time>2021-07-16T13:34:50Z</time>
      </trkpt>
      <trkpt lat="36.75653" lon="-4.69655">
        <ele>192.1913</ele>
        <time>2021-07-16T13:35:01Z</time>
      </trkpt>
      <trkpt lat="36.7562" lon="-4.69486">
        <ele>192.8046</ele>
        <time>2021-07-16T13:35:12Z</time>
      </trkpt>
      <trkpt lat="36.757" lon="-4.69379">
        <ele>185.8312</ele>
        <time>2021-07-16T13:35:23Z</time>
      </trkpt>
      <trkpt lat="36.75779" lon="-4.69307">
        <ele>178.5498</ele>
        <time>2021-07-16T13:35:34Z</time>
      </trkpt>
      <trkpt lat="36.75753" lon="-4.69167">
        <ele>175.6</ele>
        <time>2021-07-16T13:35:45Z</time>
      </trkpt>
      <trkpt lat="36.75809" lon="-4.69079">
        <ele>169.875</ele>
        <time>2021-07-16T13:35:56Z</time>
      </trkpt>
      <trkpt lat="36.75864" lon="-4.68972">
        <ele>170.3952</ele>
        <time>2021-07-16T13:36:07Z</time>
      </trkpt>
      <trkpt lat="36.75866" lon="-4.68819">
        <ele>173.9799</ele>
        <time>2021-07-16T13:36:18Z</time>
      </trkpt>
      <trkpt lat="36.75888" lon="-4.6871">
        <ele>174.1042</ele>
        <time>2021-07-16T13:36:29Z</time>
      </trkpt>
      <trkpt lat="36.75922" lon="-4.68596">
        <ele>162.4746</ele>
        <time>2021-07-16T13:36:40Z</time>
      </trkpt>
      <trkpt lat="36.75937" lon="-4.68487">
        <ele>168.0645</ele>
        <time>2021-07-16T13:36:51Z</time>
      </trkpt>
      <trkpt lat="36.75995" lon="-4.68407">
        <ele>175.7994</ele>
        <time>2021-07-16T13:37:02Z</time>
      </trkpt>
      <trkpt lat="36.7606" lon="-4.68321">
        <ele>177.6256</ele>
        <time>2021-07-16T13:37:13Z</time>
      </trkpt>
      <trkpt lat="36.7614" lon="-4.68226">
        <ele>171.5287</ele>
        <time>2021-07-16T13:37:24Z</time>
      </trkpt>
      <trkpt lat="36.76237" lon="-4.68188">
        <ele>163.0698</ele>
        <time>2021-07-16T13:37:35Z</time>
      </trkpt>
      <trkpt lat="36.76299" lon="-4.68106">
        <ele>174.4021</ele>
        <time>2021-07-16T13:37:46Z</time>
      </trkpt>
      <trkpt lat="36.7639" lon="-4.67984">
        <ele>190.7419</ele>
        <time>2021-07-16T13:37:57Z</time>
      </trkpt>
      <trkpt lat="36.76452" lon="-4.67863">
        <ele>197.482</ele>
        <time>2021-07-16T13:38:08Z</time>
      </trkpt>
      <trkpt lat="36.76535" lon="-4.67792">
        <ele>217.6488</ele>
        <time>2021-07-16T13:38:19Z</time>
      </trkpt>
      <trkpt lat="36.76616" lon="-4.67728">
        <ele>218.0633</ele>
        <time>2021-07-16T13:38:30Z</time>
      </trkpt>
      <trkpt lat="36.76711" lon="-4.67715">
        <ele>254.3225</ele>
        <time>2021-07-16T13:38:41Z</time>
      </trkpt>
      <trkpt lat="36.76736" lon="-4.67699">
        <ele>257.2118</ele>
        <time>2021-07-16T13:38:52Z</time>
      </trkpt>
      <trkpt lat="36.76684" lon="-4.67664">
        <ele>258.3624</ele>
        <time>2021-07-16T13:39:03Z</time>
      </trkpt>
      <trkpt lat="36.76697" lon="-4.67571">
        <ele>253.2109</ele>
        <time>2021-07-16T13:39:14Z</time>
      </trkpt>
      <trkpt lat="36.76716" lon="-4.67441">
        <ele>229.2334</ele>
        <time>2021-07-16T13:39:25Z</time>
      </trkpt>
      <trkpt lat="36.767" lon="-4.67318">
        <ele>224.4349</ele>
        <time>2021-07-16T13:39:36Z</time>
      </trkpt>
      <trkpt lat="36.76718" lon="-4.67221">
        <ele>209.8866</ele>
        <time>2021-07-16T13:39:47Z</time>
      </trkpt>
      <trkpt lat="36.76742" lon="-4.67232">
        <ele>203.3016</ele>
        <time>2021-07-16T13:39:58Z</time>
      </trkpt>
      <trkpt lat="36.76821" lon="-4.67274">
        <ele>195.0111</ele>
        <time>2021-07-16T13:40:09Z</time>
      </trkpt>
      <trkpt lat="36.76871" lon="-4.67331">
        <ele>184.1186</ele>
        <time>2021-07-16T13:40:20Z</time>
      </trkpt>
      <trkpt lat="36.76876" lon="-4.67237">
        <ele>178.5452</ele>
        <time>2021-07-16T13:40:31Z</time>
      </trkpt>
      <trkpt lat="36.76853" lon="-4.67188">
        <ele>178.8902</ele>
        <time>2021-07-16T13:40:42Z</time>
      </trkpt>
      <trkpt lat="36.7686" lon="-4.67084">
        <ele>169.7625</ele>
        <time>2021-07-16T13:40:53Z</time>
      </trkpt>
      <trkpt lat="36.76857" lon="-4.67002">
        <ele>160.4575</ele>
        <time>2021-07-16T13:41:04Z</time>
      </trkpt>
      <trkpt lat="36.7679" lon="-4.66935">
        <ele>171.0269</ele>
        <time>2021-07-16T13:41:15Z</time>
      </trkpt>
      <trkpt lat="36.76791" lon="-4.66849">
        <ele>174.3517</ele>
        <time>2021-07-16T13:41:26Z</time>
      </trkpt>
      <trkpt lat="36.76772" lon="-4.66778">
        <ele>186.8984</ele>
        <time>2021-07-16T13:41:37Z</time>
      </trkpt>
      <trkpt lat="36.76817" lon="-4.6668">
        <ele>200.9926</ele>
        <time>2021-07-16T13:41:48Z</time>
      </trkpt>
      <trkpt lat="36.76827" lon="-4.66563">
        <ele>219.8987</ele>
        <time>2021-07-16T13:41:59Z</time>
      </trkpt>
      <trkpt lat="36.7691" lon="-4.66516">
        <ele>236.0146</ele>
        <time>2021-07-16T13:42:10Z</time>
      </trkpt>
      <trkpt lat="36.77043" lon="-4.66546">
        <ele>252.6023</ele>
        <time>2021-07-16T13:42:21Z</time>
      </trkpt>
      <trkpt lat="36.77117" lon="-4.66444">
        <ele>268.1724</ele>
        <time>2021-07-16T13:42:32Z</time>
      </trkpt>
      <trkpt lat="36.7721" lon="-4.66367">
        <ele>289.7366</ele>
        <time>2021-07-16T13:42:43Z</time>
      </trkpt>
      <trkpt lat="36.77302" lon="-4.66316">
        <ele>291.9802</ele>
        <time>2021-07-16T13:42:54Z</time>
      </trkpt>
      <trkpt lat="36.7741" lon="-4.6625">
        <ele>288.6432</ele>
        <time>2021-07-16T13:43:05Z</time>
      </trkpt>
      <trkpt lat="36.77472" lon="-4.661">
        <ele>303.0018</ele>
        <time>2021-07-16T13:43:16Z</time>
      </trkpt>
      <trkpt lat="36.7757" lon="-4.66044">
        <ele>313.8725</ele>
        <time>2021-07-16T13:43:27Z</time>
      </trkpt>
      <trkpt lat="36.77679" lon="-4.65985">
        <ele>317.7551</ele>
        <time>2021-07-16T13:43:38Z</time>
      </trkpt>
      <trkpt lat="36.7774" lon="-4.65857">
        <ele>330.1025</ele>
        <time>2021-07-16T13:43:49Z</time>
      </trkpt>
      <trkpt lat="36.77782" lon="-4.65726">
        <ele>351.676</ele>
        <time>2021-07-16T13:44:00Z</time>
      </trkpt>
      <trkpt lat="36.77824" lon="-4.65622">
        <ele>354.5513</ele>
        <time>2021-07-16T13:44:11Z</time>
      </trkpt>
      <trkpt lat="36.77859" lon="-4.65556">
        <ele>358.3048</ele>
        <time>2021-07-16T13:44:22Z</time>
      </trkpt>
      <trkpt lat="36.77958" lon="-4.65508">
        <ele>364.5568</ele>
        <time>2021-07-16T13:44:33Z</time>
      </trkpt>
      <trkpt lat="36.78054" lon="-4.65415">
        <ele>380.6916</ele>
        <time>2021-07-16T13:44:44Z</time>
      </trkpt>
      <trkpt lat="36.78136" lon="-4.65389">
        <ele>396.7938</ele>
        <time>2021-07-16T13:44:55Z</time>
      </trkpt>
      <trkpt lat="36.78277" lon="-4.65311">
        <ele>404.0155</ele>
        <time>2021-07-16T13:45:06Z</time>
      </trkpt>
      <trkpt lat="36.78439" lon="-4.65314">
        <ele>409.8963</ele>
        <time>2021-07-16T13:45:17Z</time>
      </trkpt>
      <trkpt lat="36.78549" lon="-4.65252">
        <ele>432.9959</ele>
        <time>2021-07-16T13:45:28Z</time>
      </trkpt>
      <trkpt lat="36.78624" lon="-4.65139">
        <ele>439.2544</ele>
        <time>2021-07-16T13:45:39Z</time>
      </trkpt>
      <trkpt lat="36.78691" lon="-4.65059">
        <ele>437.0207</ele>
        <time>2021-07-16T13:45:50Z</time>
      </trkpt>
      <trkpt lat="36.78705" lon="-4.64948">
        <ele>440.863</ele>
        <time>2021-07-16T13:46:01Z</time>
      </trkpt>
      <trkpt lat="36.78722" lon="-4.64831">
        <ele>440.7239</ele>
        <time>2021-07-16T13:46:12Z</time>
      </trkpt>
      <trkpt lat="36.78753" lon="-4.64758">
        <ele>438.364</ele>
        <time>2021-07-16T13:46:23Z</time>
      </trkpt>
      <trkpt lat="36.78768" lon="-4.64749">
        <ele>437.6624</ele>
        <time>2021-07-16T13:46:34Z</time>
      </trkpt>
      <trkpt lat="36.78804" lon="-4.64728">
        <ele>437.1637</ele>
        <time>2021-07-16T13:46:45Z</time>
      </trkpt>
      <trkpt lat="36.78927" lon="-4.64672">
        <ele>447.5744</ele>
        <time>2021-07-16T13:46:56Z</time>
      </trkpt>
      <trkpt lat="36.79018" lon="-4.64564">
        <ele>447.5868</ele>
        <time>2021-07-16T13:47:07Z</time>
      </trkpt>
      <trkpt lat="36.79045" lon="-4.64435">
        <ele>450.034</ele>
        <time>2021-07-16T13:47:18Z</time>
      </trkpt>
      <trkpt lat="36.79116" lon="-4.64323">
        <ele>454.8168</ele>
        <time>2021-07-16T13:47:30Z</time>
      </trkpt>
      <trkpt lat="36.79205" lon="-4.64314">
        <ele>453.0954</ele>
        <time>2021-07-16T13:47:41Z</time>
      </trkpt>
      <trkpt lat="36.79173" lon="-4.64227">
        <ele>437.2793</ele>
        <time>2021-07-16T13:47:52Z</time>
      </trkpt>
      <trkpt lat="36.79148" lon="-4.64092">
        <ele>439.0363</ele>
        <time>2021-07-16T13:48:03Z</time>
      </trkpt>
      <trkpt lat="36.79144" lon="-4.63978">
        <ele>444.3426</ele>
        <time>2021-07-16T13:48:14Z</time>
      </trkpt>
      <trkpt lat="36.7919" lon="-4.6387">
        <ele>459.46</ele>
        <time>2021-07-16T13:48:25Z</time>
      </trkpt>
      <trkpt lat="36.79229" lon="-4.63715">
        <ele>473.7206</ele>
        <time>2021-07-16T13:48:36Z</time>
      </trkpt>
      <trkpt lat="36.79294" lon="-4.63701">
        <ele>467.5775</ele>
        <time>2021-07-16T13:48:47Z</time>
      </trkpt>
      <trkpt lat="36.79344" lon="-4.63765">
        <ele>474.6298</ele>
        <time>2021-07-16T13:48:58Z</time>
      </trkpt>
      <trkpt lat="36.79402" lon="-4.63707">
        <ele>480.0647</ele>
        <time>2021-07-16T13:49:09Z</time>
      </trkpt>
      <trkpt lat="36.79485" lon="-4.63643">
        <ele>487.7317</ele>
        <time>2021-07-16T13:49:20Z</time>
      </trkpt>
      <trkpt lat="36.79573" lon="-4.63623">
        <ele>483.7297</ele>
        <time>2021-07-16T13:49:31Z</time>
      </trkpt>
      <trkpt lat="36.79612" lon="-4.63537">
        <ele>500.9082</ele>
        <time>2021-07-16T13:49:42Z</time>
      </trkpt>
      <trkpt lat="36.79676" lon="-4.63422">
        <ele>509.9138</ele>
        <time>2021-07-16T13:49:53Z</time>
      </trkpt>
      <trkpt lat="36.7973" lon="-4.63282">
        <ele>525.5272</ele>
        <time>2021-07-16T13:50:04Z</time>
      </trkpt>
      <trkpt lat="36.79777" lon="-4.63168">
        <ele>540.523</ele>
        <time>2021-07-16T13:50:15Z</time>
      </trkpt>
      <trkpt lat="36.79738" lon="-4.63088">
        <ele>527.4934</ele>
        <time>2021-07-16T13:50:26Z</time>
      </trkpt>
      <trkpt lat="36.79788" lon="-4.63027">
        <ele>533.1237</ele>
        <time>2021-07-16T13:50:37Z</time>
      </trkpt>
      <trkpt lat="36.79799" lon="-4.63002">
        <ele>531.7555</ele>
        <time>2021-07-16T13:50:48Z</time>
      </trkpt>
      <trkpt lat="36.798" lon="-4.63001">
        <ele>531.1164</ele>
        <time>2021-07-16T13:51:48Z</time>
      </trkpt>
      <trkpt lat="36.798" lon="-4.63001">
        <ele>531.1206</ele>
        <time>2021-07-16T13:52:48Z</time>
      </trkpt>
      <trkpt lat="36.79799" lon="-4.63001">
        <ele>531.7264</ele>
        <time>2021-07-16T13:53:48Z</time>
      </trkpt>
      <trkpt lat="36.79805" lon="-4.63001">
        <ele>531.9625</ele>
        <time>2021-07-16T13:54:03Z</time>
      </trkpt>
      <trkpt lat="36.79889" lon="-4.63098">
        <ele>533.6091</ele>
        <time>2021-07-16T13:54:14Z</time>
      </trkpt>
      <trkpt lat="36.80011" lon="-4.6301">
        <ele>521.8737</ele>
        <time>2021-07-16T13:54:25Z</time>
      </trkpt>
      <trkpt lat="36.80133" lon="-4.62922">
        <ele>519.3517</ele>
        <time>2021-07-16T13:54:36Z</time>
      </trkpt>
      <trkpt lat="36.80255" lon="-4.62886">
        <ele>535.3188</ele>
        <time>2021-07-16T13:54:47Z</time>
      </trkpt>
      <trkpt lat="36.8038" lon="-4.62903">
        <ele>547.5774</ele>
        <time>2021-07-16T13:54:58Z</time>
      </trkpt>
      <trkpt lat="36.80508" lon="-4.62833">
        <ele>544.8188</ele>
        <time>2021-07-16T13:55:09Z</time>
      </trkpt>
      <trkpt lat="36.80631" lon="-4.62702">
        <ele>541.7759</ele>
        <time>2021-07-16T13:55:20Z</time>
      </trkpt>
      <trkpt lat="36.80758" lon="-4.62683">
        <ele>554.3869</ele>
        <time>2021-07-16T13:55:31Z</time>
      </trkpt>
      <trkpt lat="36.80877" lon="-4.62566">
        <ele>573.4951</ele>
        <time>2021-07-16T13:55:42Z</time>
      </trkpt>
      <trkpt lat="36.80969" lon="-4.62513">
        <ele>577.3427</ele>
        <time>2021-07-16T13:55:53Z</time>
      </trkpt>
      <trkpt lat="36.81106" lon="-4.62543">
        <ele>593.4039</ele>
        <time>2021-07-16T13:56:04Z</time>
      </trkpt>
      <trkpt lat="36.81208" lon="-4.62545">
        <ele>602.5688</ele>
        <time>2021-07-16T13:56:15Z</time>
      </trkpt>
      <trkpt lat="36.81291" lon="-4.62526">
        <ele>595.2281</ele>
        <time>2021-07-16T13:56:26Z</time>
      </trkpt>
      <trkpt lat="36.81318" lon="-4.62514">
        <ele>589.4564</ele>
        <time>2021-07-16T13:56:37Z</time>
      </trkpt>
      <trkpt lat="36.81326" lon="-4.62405">
        <ele>575.9098</ele>
        <time>2021-07-16T13:56:48Z</time>
      </trkpt>
      <trkpt lat="36.81385" lon="-4.62269">
        <ele>582.0698</ele>
        <time>2021-07-16T13:56:59Z</time>
      </trkpt>
      <trkpt lat="36.81407" lon="-4.62155">
        <ele>577.1114</ele>
        <time>2021-07-16T13:57:10Z</time>
      </trkpt>
      <trkpt lat="36.81431" lon="-4.62055">
        <ele>566.2745</ele>
        <time>2021-07-16T13:57:21Z</time>
      </trkpt>
      <trkpt lat="36.81497" lon="-4.61934">
        <ele>552.0883</ele>
        <time>2021-07-16T13:57:32Z</time>
      </trkpt>
      <trkpt lat="36.81587" lon="-4.61812">
        <ele>536.1866</ele>
        <time>2021-07-16T13:57:43Z</time>
      </trkpt>
      <trkpt lat="36.81611" lon="-4.61673">
        <ele>523.0284</ele>
        <time>2021-07-16T13:57:54Z</time>
      </trkpt>
      <trkpt lat="36.81678" lon="-4.61576">
        <ele>539.1347</ele>
        <time>2021-07-16T13:58:05Z</time>
      </trkpt>
      <trkpt lat="36.81784" lon="-4.61531">
        <ele>560.2397</ele>
        <time>2021-07-16T13:58:16Z</time>
      </trkpt>
      <trkpt lat="36.81869" lon="-4.61438">
        <ele>559.3357</ele>
        <time>2021-07-16T13:58:27Z</time>
      </trkpt>
      <trkpt lat="36.81976" lon="-4.6137">
        <ele>572.3791</ele>
        <time>2021-07-16T13:58:38Z</time>
      </trkpt>
      <trkpt lat="36.8208" lon="-4.61314">
        <ele>571.4645</ele>
        <time>2021-07-16T13:58:49Z</time>
      </trkpt>
      <trkpt lat="36.82157" lon="-4.61214">
        <ele>575.5286</ele>
        <time>2021-07-16T13:59:00Z</time>
      </trkpt>
      <trkpt lat="36.82231" lon="-4.61173">
        <ele>585.1628</ele>
        <time>2021-07-16T13:59:11Z</time>
      </trkpt>
      <trkpt lat="36.8222" lon="-4.61042">
        <ele>587.3422</ele>
        <time>2021-07-16T13:59:22Z</time>
      </trkpt>
      <trkpt lat="36.82274" lon="-4.60931">
        <ele>601.8241</ele>
        <time>2021-07-16T13:59:33Z</time>
      </trkpt>
      <trkpt lat="36.82278" lon="-4.60932">
        <ele>622.9982</ele>
        <time>2021-07-16T13:59:48Z</time>
      </trkpt>
      <trkpt lat="36.82346" lon="-4.60895">
        <ele>638.8668</ele>
        <time>2021-07-16T13:59:59Z</time>
      </trkpt>
      <trkpt lat="36.82364" lon="-4.60817">
        <ele>643.7163</ele>
        <time>2021-07-16T14:00:10Z</time>
      </trkpt>
      <trkpt lat="36.82366" lon="-4.608">
        <ele>640.8817</ele>
        <time>2021-07-16T14:00:21Z</time>
      </trkpt>
      <trkpt lat="36.82367" lon="-4.60792">
        <ele>640.5347</ele>
        <time>2021-07-16T14:00:47Z</time>
      </trkpt>
      <trkpt lat="36.82384" lon="-4.60675">
        <ele>654.2988</ele>
        <time>2021-07-16T14:00:59Z</time>
      </trkpt>
      <trkpt lat="36.82354" lon="-4.60573">
        <ele>656.7859</ele>
        <time>2021-07-16T14:01:10Z</time>
      </trkpt>
      <trkpt lat="36.82376" lon="-4.60497">
        <ele>666.857</ele>
        <time>2021-07-16T14:01:21Z</time>
      </trkpt>
      <trkpt lat="36.82343" lon="-4.60406">
        <ele>672.4833</ele>
        <time>2021-07-16T14:01:32Z</time>
      </trkpt>
      <trkpt lat="36.82313" lon="-4.60285">
        <ele>679.497</ele>
        <time>2021-07-16T14:01:43Z</time>
      </trkpt>
      <trkpt lat="36.82253" lon="-4.60206">
        <ele>680.6473</ele>
        <time>2021-07-16T14:01:54Z</time>
      </trkpt>
      <trkpt lat="36.82235" lon="-4.60069">
        <ele>681.6845</ele>
        <time>2021-07-16T14:02:05Z</time>
      </trkpt>
      <trkpt lat="36.82256" lon="-4.59985">
        <ele>682.4725</ele>
        <time>2021-07-16T14:02:16Z</time>
      </trkpt>
      <trkpt lat="36.82312" lon="-4.59835">
        <ele>694.5956</ele>
        <time>2021-07-16T14:02:27Z</time>
      </trkpt>
      <trkpt lat="36.82401" lon="-4.59755">
        <ele>705.0341</ele>
        <time>2021-07-16T14:02:38Z</time>
      </trkpt>
      <trkpt lat="36.82438" lon="-4.59821">
        <ele>710.464</ele>
        <time>2021-07-16T14:02:49Z</time>
      </trkpt>
      <trkpt lat="36.82479" lon="-4.59844">
        <ele>714.6932</ele>
        <time>2021-07-16T14:03:00Z</time>
      </trkpt>
      <trkpt lat="36.8257" lon="-4.59788">
        <ele>715.5693</ele>
        <time>2021-07-16T14:03:11Z</time>
      </trkpt>
      <trkpt lat="36.82612" lon="-4.59729">
        <ele>723.7309</ele>
        <time>2021-07-16T14:03:22Z</time>
      </trkpt>
      <trkpt lat="36.82665" lon="-4.59663">
        <ele>730.5393</ele>
        <time>2021-07-16T14:03:33Z</time>
      </trkpt>
      <trkpt lat="36.82719" lon="-4.59616">
        <ele>724.381</ele>
        <time>2021-07-16T14:03:44Z</time>
      </trkpt>
      <trkpt lat="36.82758" lon="-4.5949">
        <ele>724.7294</ele>
        <time>2021-07-16T14:03:55Z</time>
      </trkpt>
      <trkpt lat="36.82726" lon="-4.59399">
        <ele>716.623</ele>
        <time>2021-07-16T14:04:06Z</time>
      </trkpt>
      <trkpt lat="36.82749" lon="-4.59267">
        <ele>700.0036</ele>
        <time>2021-07-16T14:04:17Z</time>
      </trkpt>
      <trkpt lat="36.82846" lon="-4.59202">
        <ele>673.9815</ele>
        <time>2021-07-16T14:04:28Z</time>
      </trkpt>
      <trkpt lat="36.82929" lon="-4.59163">
        <ele>654.5459</ele>
        <time>2021-07-16T14:04:39Z</time>
      </trkpt>
      <trkpt lat="36.83001" lon="-4.59077">
        <ele>661.7657</ele>
        <time>2021-07-16T14:04:50Z</time>
      </trkpt>
      <trkpt lat="36.83019" lon="-4.5904">
        <ele>665.8791</ele>
        <time>2021-07-16T14:05:01Z</time>
      </trkpt>
      <trkpt lat="36.83081" lon="-4.58962">
        <ele>674.695</ele>
        <time>2021-07-16T14:05:12Z</time>
      </trkpt>
      <trkpt lat="36.8313" lon="-4.58859">
        <ele>673.1641</ele>
        <time>2021-07-16T14:05:23Z</time>
      </trkpt>
      <trkpt lat="36.83199" lon="-4.58707">
        <ele>666.1326</ele>
        <time>2021-07-16T14:05:34Z</time>
      </trkpt>
      <trkpt lat="36.8325" lon="-4.58563">
        <ele>661.3903</ele>
        <time>2021-07-16T14:05:45Z</time>
      </trkpt>
      <trkpt lat="36.83279" lon="-4.58385">
        <ele>648.2969</ele>
        <time>2021-07-16T14:05:56Z</time>
      </trkpt>
      <trkpt lat="36.83291" lon="-4.5827">
        <ele>637.5056</ele>
        <time>2021-07-16T14:06:07Z</time>
      </trkpt>
      <trkpt lat="36.83353" lon="-4.58216">
        <ele>634.1476</ele>
        <time>2021-07-16T14:06:18Z</time>
      </trkpt>
      <trkpt lat="36.83366" lon="-4.58116">
        <ele>636.4043</ele>
        <time>2021-07-16T14:06:29Z</time>
      </trkpt>
      <trkpt lat="36.83427" lon="-4.58005">
        <ele>636.7345</ele>
        <time>2021-07-16T14:06:40Z</time>
      </trkpt>
      <trkpt lat="36.83482" lon="-4.57916">
        <ele>628.4384</ele>
        <time>2021-07-16T14:06:51Z</time>
      </trkpt>
      <trkpt lat="36.83493" lon="-4.57829">
        <ele>598.3595</ele>
        <time>2021-07-16T14:07:02Z</time>
      </trkpt>
      <trkpt lat="36.83571" lon="-4.57733">
        <ele>594.0793</ele>
        <time>2021-07-16T14:07:13Z</time>
      </trkpt>
      <trkpt lat="36.83652" lon="-4.57663">
        <ele>604.9941</ele>
        <time>2021-07-16T14:07:24Z</time>
      </trkpt>
      <trkpt lat="36.83715" lon="-4.57641">
        <ele>611.2338</ele>
        <time>2021-07-16T14:07:35Z</time>
      </trkpt>
      <trkpt lat="36.83724" lon="-4.57537">
        <ele>611.0105</ele>
        <time>2021-07-16T14:07:46Z</time>
      </trkpt>
      <trkpt lat="36.83845" lon="-4.57495">
        <ele>608.9171</ele>
        <time>2021-07-16T14:07:57Z</time>
      </trkpt>
      <trkpt lat="36.83908" lon="-4.57459">
        <ele>598.4126</ele>
        <time>2021-07-16T14:08:08Z</time>
      </trkpt>
      <trkpt lat="36.83949" lon="-4.574">
        <ele>593.2325</ele>
        <time>2021-07-16T14:08:19Z</time>
      </trkpt>
      <trkpt lat="36.83985" lon="-4.57338">
        <ele>593.8919</ele>
        <time>2021-07-16T14:08:30Z</time>
      </trkpt>
      <trkpt lat="36.84061" lon="-4.57316">
        <ele>591.2258</ele>
        <time>2021-07-16T14:08:41Z</time>
      </trkpt>
      <trkpt lat="36.84132" lon="-4.5727">
        <ele>577.243</ele>
        <time>2021-07-16T14:08:52Z</time>
      </trkpt>
      <trkpt lat="36.84224" lon="-4.57269">
        <ele>558.8768</ele>
        <time>2021-07-16T14:09:03Z</time>
      </trkpt>
      <trkpt lat="36.84273" lon="-4.57183">
        <ele>533.1233</ele>
        <time>2021-07-16T14:09:14Z</time>
      </trkpt>
      <trkpt lat="36.84332" lon="-4.57159">
        <ele>522.2908</ele>
        <time>2021-07-16T14:09:25Z</time>
      </trkpt>
      <trkpt lat="36.84421" lon="-4.57154">
        <ele>520.2756</ele>
        <time>2021-07-16T14:09:36Z</time>
      </trkpt>
      <trkpt lat="36.84481" lon="-4.57148">
        <ele>513.3945</ele>
        <time>2021-07-16T14:09:47Z</time>
      </trkpt>
      <trkpt lat="36.8459" lon="-4.57104">
        <ele>508.6105</ele>
        <time>2021-07-16T14:09:58Z</time>
      </trkpt>
      <trkpt lat="36.84685" lon="-4.57059">
        <ele>504.5308</ele>
        <time>2021-07-16T14:10:09Z</time>
      </trkpt>
      <trkpt lat="36.84765" lon="-4.57012">
        <ele>495.9339</ele>
        <time>2021-07-16T14:10:20Z</time>
      </trkpt>
      <trkpt lat="36.84859" lon="-4.56982">
        <ele>485.7673</ele>
        <time>2021-07-16T14:10:31Z</time>
      </trkpt>
      <trkpt lat="36.84941" lon="-4.56887">
        <ele>474.696</ele>
        <time>2021-07-16T14:10:42Z</time>
      </trkpt>
      <trkpt lat="36.84927" lon="-4.56823">
        <ele>478.8297</ele>
        <time>2021-07-16T14:10:53Z</time>
      </trkpt>
      <trkpt lat="36.84979" lon="-4.56735">
        <ele>480.9819</ele>
        <time>2021-07-16T14:11:04Z</time>
      </trkpt>
      <trkpt lat="36.8504" lon="-4.5668">
        <ele>469.671</ele>
        <time>2021-07-16T14:11:15Z</time>
      </trkpt>
      <trkpt lat="36.85121" lon="-4.56674">
        <ele>475.8681</ele>
        <time>2021-07-16T14:11:26Z</time>
      </trkpt>
      <trkpt lat="36.85111" lon="-4.56588">
        <ele>475.2074</ele>
        <time>2021-07-16T14:11:37Z</time>
      </trkpt>
      <trkpt lat="36.85159" lon="-4.56539">
        <ele>473.0514</ele>
        <time>2021-07-16T14:11:48Z</time>
      </trkpt>
      <trkpt lat="36.85131" lon="-4.56501">
        <ele>476.5259</ele>
        <time>2021-07-16T14:11:59Z</time>
      </trkpt>
      <trkpt lat="36.85062" lon="-4.5646">
        <ele>484.2429</ele>
        <time>2021-07-16T14:12:10Z</time>
      </trkpt>
      <trkpt lat="36.85099" lon="-4.56391">
        <ele>480.5925</ele>
        <time>2021-07-16T14:12:21Z</time>
      </trkpt>
      <trkpt lat="36.85189" lon="-4.56345">
        <ele>476.3192</ele>
        <time>2021-07-16T14:12:32Z</time>
      </trkpt>
      <trkpt lat="36.85271" lon="-4.56258">
        <ele>469.8285</ele>
        <time>2021-07-16T14:12:43Z</time>
      </trkpt>
      <trkpt lat="36.85373" lon="-4.56165">
        <ele>478.1381</ele>
        <time>2021-07-16T14:12:54Z</time>
      </trkpt>
      <trkpt lat="36.85492" lon="-4.56119">
        <ele>477.6867</ele>
        <time>2021-07-16T14:13:05Z</time>
      </trkpt>
      <trkpt lat="36.85621" lon="-4.56076">
        <ele>477.4603</ele>
        <time>2021-07-16T14:13:16Z</time>
      </trkpt>
      <trkpt lat="36.85736" lon="-4.5593">
        <ele>464.2424</ele>
        <time>2021-07-16T14:13:27Z</time>
      </trkpt>
      <trkpt lat="36.85758" lon="-4.55846">
        <ele>459.8153</ele>
        <time>2021-07-16T14:13:38Z</time>
      </trkpt>
      <trkpt lat="36.85759" lon="-4.55839">
        <ele>466.7091</ele>
        <time>2021-07-16T14:14:09Z</time>
      </trkpt>
      <trkpt lat="36.85865" lon="-4.55773">
        <ele>474.9066</ele>
        <time>2021-07-16T14:14:20Z</time>
      </trkpt>
      <trkpt lat="36.86007" lon="-4.55764">
        <ele>488.4874</ele>
        <time>2021-07-16T14:14:31Z</time>
      </trkpt>
      <trkpt lat="36.8613" lon="-4.55658">
        <ele>497.9853</ele>
        <time>2021-07-16T14:14:42Z</time>
      </trkpt>
      <trkpt lat="36.86256" lon="-4.55575">
        <ele>511.3855</ele>
        <time>2021-07-16T14:14:53Z</time>
      </trkpt>
      <trkpt lat="36.86384" lon="-4.55488">
        <ele>513.3453</ele>
        <time>2021-07-16T14:15:04Z</time>
      </trkpt>
      <trkpt lat="36.8648" lon="-4.55391">
        <ele>503.6677</ele>
        <time>2021-07-16T14:15:15Z</time>
      </trkpt>
      <trkpt lat="36.86432" lon="-4.55212">
        <ele>500.3476</ele>
        <time>2021-07-16T14:15:26Z</time>
      </trkpt>
      <trkpt lat="36.86401" lon="-4.55115">
        <ele>500.3621</ele>
        <time>2021-07-16T14:15:37Z</time>
      </trkpt>
      <trkpt lat="36.86414" lon="-4.55116">
        <ele>501.2157</ele>
        <time>2021-07-16T14:15:48Z</time>
      </trkpt>
      <trkpt lat="36.86409" lon="-4.5512">
        <ele>500.7568</ele>
        <time>2021-07-16T14:16:00Z</time>
      </trkpt>
      <trkpt lat="36.86327" lon="-4.55088">
        <ele>503.6843</ele>
        <time>2021-07-16T14:16:11Z</time>
      </trkpt>
      <trkpt lat="36.86397" lon="-4.55023">
        <ele>504.6865</ele>
        <time>2021-07-16T14:16:22Z</time>
      </trkpt>
      <trkpt lat="36.86497" lon="-4.54939">
        <ele>508.9815</ele>
        <time>2021-07-16T14:16:33Z</time>
      </trkpt>
      <trkpt lat="36.86596" lon="-4.54839">
        <ele>510.5086</ele>
        <time>2021-07-16T14:16:44Z</time>
      </trkpt>
      <trkpt lat="36.866" lon="-4.54661">
        <ele>513.421</ele>
        <time>2021-07-16T14:16:55Z</time>
      </trkpt>
      <trkpt lat="36.86633" lon="-4.54465">
        <ele>518.1467</ele>
        <time>2021-07-16T14:17:06Z</time>
      </trkpt>
      <trkpt lat="36.86646" lon="-4.54296">
        <ele>520.3733</ele>
        <time>2021-07-16T14:17:17Z</time>
      </trkpt>
      <trkpt lat="36.8675" lon="-4.54268">
        <ele>528.0437</ele>
        <time>2021-07-16T14:17:28Z</time>
      </trkpt>
      <trkpt lat="36.86839" lon="-4.54293">
        <ele>530.9559</ele>
        <time>2021-07-16T14:17:39Z</time>
      </trkpt>
      <trkpt lat="36.86884" lon="-4.54321">
        <ele>531.1268</ele>
        <time>2021-07-16T14:17:50Z</time>
      </trkpt>
      <trkpt lat="36.86888" lon="-4.54329">
        <ele>528.4387</ele>
        <time>2021-07-16T14:18:04Z</time>
      </trkpt>
      <trkpt lat="36.86933" lon="-4.54424">
        <ele>518.7069</ele>
        <time>2021-07-16T14:18:15Z</time>
      </trkpt>
      <trkpt lat="36.86981" lon="-4.54457">
        <ele>516.9192</ele>
        <time>2021-07-16T14:18:26Z</time>
      </trkpt>
      <trkpt lat="36.87037" lon="-4.545">
        <ele>513.6341</ele>
        <time>2021-07-16T14:18:37Z</time>
      </trkpt>
      <trkpt lat="36.8703" lon="-4.5459">
        <ele>503.4134</ele>
        <time>2021-07-16T14:18:48Z</time>
      </trkpt>
      <trkpt lat="36.87068" lon="-4.54598">
        <ele>504.0263</ele>
        <time>2021-07-16T14:18:59Z</time>
      </trkpt>
      <trkpt lat="36.87158" lon="-4.54548">
        <ele>514.5771</ele>
        <time>2021-07-16T14:19:10Z</time>
      </trkpt>
      <trkpt lat="36.87236" lon="-4.54536">
        <ele>506.883</ele>
        <time>2021-07-16T14:19:21Z</time>
      </trkpt>
      <trkpt lat="36.87329" lon="-4.5456">
        <ele>500.3116</ele>
        <time>2021-07-16T14:19:32Z</time>
      </trkpt>
      <trkpt lat="36.87383" lon="-4.54451">
        <ele>495.898</ele>
        <time>2021-07-16T14:19:43Z</time>
      </trkpt>
      <trkpt lat="36.87445" lon="-4.54357">
        <ele>488.5353</ele>
        <time>2021-07-16T14:19:54Z</time>
      </trkpt>
      <trkpt lat="36.8754" lon="-4.54326">
        <ele>478.4349</ele>
        <time>2021-07-16T14:20:05Z</time>
      </trkpt>
      <trkpt lat="36.87634" lon="-4.54295">
        <ele>467.5825</ele>
        <time>2021-07-16T14:20:16Z</time>
      </trkpt>
      <trkpt lat="36.87667" lon="-4.54192">
        <ele>458.378</ele>
        <time>2021-07-16T14:20:27Z</time>
      </trkpt>
      <trkpt lat="36.87707" lon="-4.54042">
        <ele>448.3184</ele>
        <time>2021-07-16T14:20:38Z</time>
      </trkpt>
      <trkpt lat="36.87784" lon="-4.53879">
        <ele>437.3009</ele>
        <time>2021-07-16T14:20:49Z</time>
      </trkpt>
      <trkpt lat="36.87869" lon="-4.53695">
        <ele>424.9551</ele>
        <time>2021-07-16T14:21:00Z</time>
      </trkpt>
      <trkpt lat="36.87925" lon="-4.53566">
        <ele>416.0442</ele>
        <time>2021-07-16T14:21:11Z</time>
      </trkpt>
      <trkpt lat="36.87921" lon="-4.53524">
        <ele>411.6136</ele>
        <time>2021-07-16T14:21:22Z</time>
      </trkpt>
      <trkpt lat="36.87884" lon="-4.53501">
        <ele>401.3802</ele>
        <time>2021-07-16T14:21:33Z</time>
      </trkpt>
      <trkpt lat="36.87844" lon="-4.53426">
        <ele>387.1796</ele>
        <time>2021-07-16T14:21:44Z</time>
      </trkpt>
      <trkpt lat="36.87841" lon="-4.53322">
        <ele>378.1461</ele>
        <time>2021-07-16T14:21:55Z</time>
      </trkpt>
      <trkpt lat="36.87903" lon="-4.53275">
        <ele>375.6786</ele>
        <time>2021-07-16T14:22:06Z</time>
      </trkpt>
      <trkpt lat="36.88009" lon="-4.53269">
        <ele>372.8316</ele>
        <time>2021-07-16T14:22:17Z</time>
      </trkpt>
      <trkpt lat="36.8809" lon="-4.5325">
        <ele>355.5985</ele>
        <time>2021-07-16T14:22:28Z</time>
      </trkpt>
      <trkpt lat="36.88161" lon="-4.53281">
        <ele>333.4612</ele>
        <time>2021-07-16T14:22:39Z</time>
      </trkpt>
      <trkpt lat="36.88211" lon="-4.53358">
        <ele>334.9732</ele>
        <time>2021-07-16T14:22:50Z</time>
      </trkpt>
      <trkpt lat="36.88267" lon="-4.53302">
        <ele>358.7962</ele>
        <time>2021-07-16T14:23:01Z</time>
      </trkpt>
      <trkpt lat="36.88329" lon="-4.53268">
        <ele>380.716</ele>
        <time>2021-07-16T14:23:12Z</time>
      </trkpt>
      <trkpt lat="36.88386" lon="-4.53341">
        <ele>401.4333</ele>
        <time>2021-07-16T14:23:23Z</time>
      </trkpt>
      <trkpt lat="36.88457" lon="-4.53315">
        <ele>414.5348</ele>
        <time>2021-07-16T14:23:34Z</time>
      </trkpt>
      <trkpt lat="36.8853" lon="-4.53265">
        <ele>419.2142</ele>
        <time>2021-07-16T14:23:45Z</time>
      </trkpt>
      <trkpt lat="36.88533" lon="-4.53079">
        <ele>415.9517</ele>
        <time>2021-07-16T14:23:56Z</time>
      </trkpt>
      <trkpt lat="36.88536" lon="-4.52895">
        <ele>403.6817</ele>
        <time>2021-07-16T14:24:07Z</time>
      </trkpt>
      <trkpt lat="36.88579" lon="-4.52751">
        <ele>406.194</ele>
        <time>2021-07-16T14:24:18Z</time>
      </trkpt>
      <trkpt lat="36.88604" lon="-4.52611">
        <ele>400.9302</ele>
        <time>2021-07-16T14:24:29Z</time>
      </trkpt>
      <trkpt lat="36.88637" lon="-4.52476">
        <ele>394.0206</ele>
        <time>2021-07-16T14:24:40Z</time>
      </trkpt>
      <trkpt lat="36.88649" lon="-4.52341">
        <ele>378.3855</ele>
        <time>2021-07-16T14:24:51Z</time>
      </trkpt>
      <trkpt lat="36.88632" lon="-4.52212">
        <ele>360.5873</ele>
        <time>2021-07-16T14:25:02Z</time>
      </trkpt>
      <trkpt lat="36.88602" lon="-4.52064">
        <ele>355.7121</ele>
        <time>2021-07-16T14:25:13Z</time>
      </trkpt>
      <trkpt lat="36.88622" lon="-4.51915">
        <ele>359.1243</ele>
        <time>2021-07-16T14:25:24Z</time>
      </trkpt>
      <trkpt lat="36.88602" lon="-4.51814">
        <ele>363.6692</ele>
        <time>2021-07-16T14:25:35Z</time>
      </trkpt>
      <trkpt lat="36.88581" lon="-4.51714">
        <ele>351.2615</ele>
        <time>2021-07-16T14:25:47Z</time>
      </trkpt>
      <trkpt lat="36.88532" lon="-4.51651">
        <ele>353.1175</ele>
        <time>2021-07-16T14:25:58Z</time>
      </trkpt>
      <trkpt lat="36.88486" lon="-4.51582">
        <ele>372.4575</ele>
        <time>2021-07-16T14:26:09Z</time>
      </trkpt>
      <trkpt lat="36.88488" lon="-4.51535">
        <ele>377.718</ele>
        <time>2021-07-16T14:26:20Z</time>
      </trkpt>
      <trkpt lat="36.88502" lon="-4.51507">
        <ele>382.0272</ele>
        <time>2021-07-16T14:26:31Z</time>
      </trkpt>
      <trkpt lat="36.88593" lon="-4.51384">
        <ele>368.0901</ele>
        <time>2021-07-16T14:26:42Z</time>
      </trkpt>
      <trkpt lat="36.88661" lon="-4.51378">
        <ele>365.1371</ele>
        <time>2021-07-16T14:26:53Z</time>
      </trkpt>
      <trkpt lat="36.88788" lon="-4.51441">
        <ele>364.5605</ele>
        <time>2021-07-16T14:27:04Z</time>
      </trkpt>
      <trkpt lat="36.88954" lon="-4.51538">
        <ele>363.3857</ele>
        <time>2021-07-16T14:27:15Z</time>
      </trkpt>
      <trkpt lat="36.89111" lon="-4.51561">
        <ele>368.9359</ele>
        <time>2021-07-16T14:27:26Z</time>
      </trkpt>
      <trkpt lat="36.89304" lon="-4.51572">
        <ele>359.7838</ele>
        <time>2021-07-16T14:27:37Z</time>
      </trkpt>
      <trkpt lat="36.89463" lon="-4.51746">
        <ele>362.2117</ele>
        <time>2021-07-16T14:27:48Z</time>
      </trkpt>
      <trkpt lat="36.89603" lon="-4.51976">
        <ele>365.2081</ele>
        <time>2021-07-16T14:27:59Z</time>
      </trkpt>
      <trkpt lat="36.89745" lon="-4.52216">
        <ele>371.3027</ele>
        <time>2021-07-16T14:28:10Z</time>
      </trkpt>
      <trkpt lat="36.89861" lon="-4.52408">
        <ele>382.8948</ele>
        <time>2021-07-16T14:28:21Z</time>
      </trkpt>
      <trkpt lat="36.89872" lon="-4.52668">
        <ele>383.7957</ele>
        <time>2021-07-16T14:28:32Z</time>
      </trkpt>
      <trkpt lat="36.90028" lon="-4.527">
        <ele>391.1381</ele>
        <time>2021-07-16T14:28:43Z</time>
      </trkpt>
      <trkpt lat="36.90243" lon="-4.52647">
        <ele>398.5336</ele>
        <time>2021-07-16T14:28:54Z</time>
      </trkpt>
      <trkpt lat="36.9044" lon="-4.5258">
        <ele>406.3852</ele>
        <time>2021-07-16T14:29:05Z</time>
      </trkpt>
      <trkpt lat="36.90623" lon="-4.52484">
        <ele>415.5018</ele>
        <time>2021-07-16T14:29:16Z</time>
      </trkpt>
      <trkpt lat="36.90821" lon="-4.52328">
        <ele>413.3261</ele>
        <time>2021-07-16T14:29:27Z</time>
      </trkpt>
      <trkpt lat="36.91029" lon="-4.52304">
        <ele>417.7861</ele>
        <time>2021-07-16T14:29:38Z</time>
      </trkpt>
      <trkpt lat="36.9121" lon="-4.52343">
        <ele>412.2679</ele>
        <time>2021-07-16T14:29:49Z</time>
      </trkpt>
      <trkpt lat="36.91437" lon="-4.52355">
        <ele>415.6891</ele>
        <time>2021-07-16T14:30:00Z</time>
      </trkpt>
      <trkpt lat="36.91622" lon="-4.52364">
        <ele>423.8739</ele>
        <time>2021-07-16T14:30:11Z</time>
      </trkpt>
      <trkpt lat="36.91703" lon="-4.52384">
        <ele>424.6679</ele>
        <time>2021-07-16T14:30:22Z</time>
      </trkpt>
      <trkpt lat="36.91808" lon="-4.52467">
        <ele>430.0184</ele>
        <time>2021-07-16T14:30:33Z</time>
      </trkpt>
      <trkpt lat="36.9185" lon="-4.52544">
        <ele>442.1471</ele>
        <time>2021-07-16T14:30:44Z</time>
      </trkpt>
      <trkpt lat="36.91927" lon="-4.52546">
        <ele>449.7251</ele>
        <time>2021-07-16T14:30:55Z</time>
      </trkpt>
      <trkpt lat="36.9209" lon="-4.52571">
        <ele>464.6074</ele>
        <time>2021-07-16T14:31:06Z</time>
      </trkpt>
      <trkpt lat="36.92266" lon="-4.52607">
        <ele>480.5038</ele>
        <time>2021-07-16T14:31:17Z</time>
      </trkpt>
      <trkpt lat="36.92419" lon="-4.52542">
        <ele>497.3375</ele>
        <time>2021-07-16T14:31:28Z</time>
      </trkpt>
      <trkpt lat="36.92531" lon="-4.52604">
        <ele>511.8817</ele>
        <time>2021-07-16T14:31:39Z</time>
      </trkpt>
      <trkpt lat="36.92585" lon="-4.52696">
        <ele>523.6167</ele>
        <time>2021-07-16T14:31:50Z</time>
      </trkpt>
      <trkpt lat="36.92565" lon="-4.52766">
        <ele>531.6711</ele>
        <time>2021-07-16T14:32:01Z</time>
      </trkpt>
      <trkpt lat="36.9267" lon="-4.52827">
        <ele>544.3591</ele>
        <time>2021-07-16T14:32:12Z</time>
      </trkpt>
      <trkpt lat="36.928" lon="-4.52842">
        <ele>557.7595</ele>
        <time>2021-07-16T14:32:23Z</time>
      </trkpt>
      <trkpt lat="36.92923" lon="-4.52858">
        <ele>572.0336</ele>
        <time>2021-07-16T14:32:34Z</time>
      </trkpt>
      <trkpt lat="36.92993" lon="-4.52746">
        <ele>579.8802</ele>
        <time>2021-07-16T14:32:45Z</time>
      </trkpt>
      <trkpt lat="36.93095" lon="-4.52765">
        <ele>596.6076</ele>
        <time>2021-07-16T14:32:56Z</time>
      </trkpt>
      <trkpt lat="36.93177" lon="-4.52859">
        <ele>605.5383</ele>
        <time>2021-07-16T14:33:07Z</time>
      </trkpt>
      <trkpt lat="36.93237" lon="-4.52899">
        <ele>613.8125</ele>
        <time>2021-07-16T14:33:18Z</time>
      </trkpt>
      <trkpt lat="36.93314" lon="-4.52789">
        <ele>623.2586</ele>
        <time>2021-07-16T14:33:29Z</time>
      </trkpt>
      <trkpt lat="36.93404" lon="-4.52853">
        <ele>635.2665</ele>
        <time>2021-07-16T14:33:40Z</time>
      </trkpt>
      <trkpt lat="36.93488" lon="-4.52923">
        <ele>648.6214</ele>
        <time>2021-07-16T14:33:51Z</time>
      </trkpt>
      <trkpt lat="36.93581" lon="-4.53023">
        <ele>667.3359</ele>
        <time>2021-07-16T14:34:02Z</time>
      </trkpt>
      <trkpt lat="36.93711" lon="-4.52946">
        <ele>684.5533</ele>
        <time>2021-07-16T14:34:13Z</time>
      </trkpt>
      <trkpt lat="36.938" lon="-4.53078">
        <ele>697.8114</ele>
        <time>2021-07-16T14:34:24Z</time>
      </trkpt>
      <trkpt lat="36.93929" lon="-4.53242">
        <ele>715.0156</ele>
        <time>2021-07-16T14:34:35Z</time>
      </trkpt>
      <trkpt lat="36.94058" lon="-4.53246">
        <ele>731.9834</ele>
        <time>2021-07-16T14:34:46Z</time>
      </trkpt>
      <trkpt lat="36.94139" lon="-4.53357">
        <ele>752.9077</ele>
        <time>2021-07-16T14:34:57Z</time>
      </trkpt>
      <trkpt lat="36.94206" lon="-4.53592">
        <ele>776.7141</ele>
        <time>2021-07-16T14:35:08Z</time>
      </trkpt>
      <trkpt lat="36.94238" lon="-4.53482">
        <ele>786.2298</ele>
        <time>2021-07-16T14:35:19Z</time>
      </trkpt>
      <trkpt lat="36.94363" lon="-4.53502">
        <ele>799.593</ele>
        <time>2021-07-16T14:35:30Z</time>
      </trkpt>
      <trkpt lat="36.94417" lon="-4.53629">
        <ele>815.2955</ele>
        <time>2021-07-16T14:35:41Z</time>
      </trkpt>
      <trkpt lat="36.945" lon="-4.53643">
        <ele>829.1322</ele>
        <time>2021-07-16T14:35:52Z</time>
      </trkpt>
      <trkpt lat="36.94576" lon="-4.53637">
        <ele>844.9354</ele>
        <time>2021-07-16T14:36:03Z</time>
      </trkpt>
      <trkpt lat="36.94682" lon="-4.53467">
        <ele>850.6508</ele>
        <time>2021-07-16T14:36:14Z</time>
      </trkpt>
      <trkpt lat="36.94789" lon="-4.53379">
        <ele>852.4837</ele>
        <time>2021-07-16T14:36:25Z</time>
      </trkpt>
      <trkpt lat="36.94898" lon="-4.53231">
        <ele>862.5523</ele>
        <time>2021-07-16T14:36:36Z</time>
      </trkpt>
      <trkpt lat="36.95037" lon="-4.53024">
        <ele>874.1893</ele>
        <time>2021-07-16T14:36:47Z</time>
      </trkpt>
      <trkpt lat="36.95148" lon="-4.52948">
        <ele>885.1681</ele>
        <time>2021-07-16T14:36:58Z</time>
      </trkpt>
      <trkpt lat="36.95251" lon="-4.52832">
        <ele>893.9249</ele>
        <time>2021-07-16T14:37:09Z</time>
      </trkpt>
      <trkpt lat="36.95331" lon="-4.52637">
        <ele>902.0637</ele>
        <time>2021-07-16T14:37:20Z</time>
      </trkpt>
      <trkpt lat="36.95407" lon="-4.52438">
        <ele>910.553</ele>
        <time>2021-07-16T14:37:31Z</time>
      </trkpt>
      <trkpt lat="36.95529" lon="-4.52246">
        <ele>913.1173</ele>
        <time>2021-07-16T14:37:42Z</time>
      </trkpt>
      <trkpt lat="36.95668" lon="-4.52054">
        <ele>923.8601</ele>
        <time>2021-07-16T14:37:53Z</time>
      </trkpt>
      <trkpt lat="36.9581" lon="-4.51935">
        <ele>931.2003</ele>
        <time>2021-07-16T14:38:04Z</time>
      </trkpt>
      <trkpt lat="36.95894" lon="-4.51815">
        <ele>941.5225</ele>
        <time>2021-07-16T14:38:15Z</time>
      </trkpt>
      <trkpt lat="36.95995" lon="-4.51712">
        <ele>945.2092</ele>
        <time>2021-07-16T14:38:26Z</time>
      </trkpt>
      <trkpt lat="36.96102" lon="-4.51573">
        <ele>946.2119</ele>
        <time>2021-07-16T14:38:37Z</time>
      </trkpt>
      <trkpt lat="36.96242" lon="-4.5142">
        <ele>952.0615</ele>
        <time>2021-07-16T14:38:48Z</time>
      </trkpt>
      <trkpt lat="36.96346" lon="-4.51233">
        <ele>956.266</ele>
        <time>2021-07-16T14:38:59Z</time>
      </trkpt>
      <trkpt lat="36.9642" lon="-4.511">
        <ele>956.0016</ele>
        <time>2021-07-16T14:39:10Z</time>
      </trkpt>
      <trkpt lat="36.96402" lon="-4.51199">
        <ele>961.8308</ele>
        <time>2021-07-16T14:39:21Z</time>
      </trkpt>
      <trkpt lat="36.96335" lon="-4.51411">
        <ele>974.6402</ele>
        <time>2021-07-16T14:39:32Z</time>
      </trkpt>
      <trkpt lat="36.96252" lon="-4.51626">
        <ele>995.1488</ele>
        <time>2021-07-16T14:39:43Z</time>
      </trkpt>
      <trkpt lat="36.96231" lon="-4.51894">
        <ele>1024.582</ele>
        <time>2021-07-16T14:39:54Z</time>
      </trkpt>
      <trkpt lat="36.96229" lon="-4.52159">
        <ele>1055.513</ele>
        <time>2021-07-16T14:40:05Z</time>
      </trkpt>
      <trkpt lat="36.96151" lon="-4.52445">
        <ele>1082.527</ele>
        <time>2021-07-16T14:40:16Z</time>
      </trkpt>
      <trkpt lat="36.96072" lon="-4.52664">
        <ele>1106.739</ele>
        <time>2021-07-16T14:40:27Z</time>
      </trkpt>
      <trkpt lat="36.95945" lon="-4.52885">
        <ele>1117.143</ele>
        <time>2021-07-16T14:40:38Z</time>
      </trkpt>
      <trkpt lat="36.9585" lon="-4.53092">
        <ele>1137.536</ele>
        <time>2021-07-16T14:40:49Z</time>
      </trkpt>
      <trkpt lat="36.95819" lon="-4.53274">
        <ele>1146.847</ele>
        <time>2021-07-16T14:41:00Z</time>
      </trkpt>
      <trkpt lat="36.95872" lon="-4.53404">
        <ele>1159.835</ele>
        <time>2021-07-16T14:41:11Z</time>
      </trkpt>
      <trkpt lat="36.95855" lon="-4.53594">
        <ele>1174.042</ele>
        <time>2021-07-16T14:41:22Z</time>
      </trkpt>
      <trkpt lat="36.95799" lon="-4.53661">
        <ele>1184.048</ele>
        <time>2021-07-16T14:41:33Z</time>
      </trkpt>
      <trkpt lat="36.95741" lon="-4.53793">
        <ele>1195.183</ele>
        <time>2021-07-16T14:41:44Z</time>
      </trkpt>
      <trkpt lat="36.95642" lon="-4.53909">
        <ele>1209.31</ele>
        <time>2021-07-16T14:41:55Z</time>
      </trkpt>
      <trkpt lat="36.95565" lon="-4.54063">
        <ele>1222.427</ele>
        <time>2021-07-16T14:42:06Z</time>
      </trkpt>
      <trkpt lat="36.95555" lon="-4.54229">
        <ele>1224.52</ele>
        <time>2021-07-16T14:42:17Z</time>
      </trkpt>
      <trkpt lat="36.95482" lon="-4.54353">
        <ele>1215.072</ele>
        <time>2021-07-16T14:42:28Z</time>
      </trkpt>
      <trkpt lat="36.95351" lon="-4.54424">
        <ele>1208.937</ele>
        <time>2021-07-16T14:42:39Z</time>
      </trkpt>
      <trkpt lat="36.95323" lon="-4.54461">
        <ele>1207.28</ele>
        <time>2021-07-16T14:42:50Z</time>
      </trkpt>
      <trkpt lat="36.9534" lon="-4.5446">
        <ele>1204.522</ele>
        <time>2021-07-16T14:43:01Z</time>
      </trkpt>
      <trkpt lat="36.95344" lon="-4.5445">
        <ele>1205.646</ele>
        <time>2021-07-16T14:43:12Z</time>
      </trkpt>
      <trkpt lat="36.95344" lon="-4.5445">
        <ele>1209.533</ele>
        <time>2021-07-16T14:44:11Z</time>
      </trkpt>
      <trkpt lat="36.95346" lon="-4.54452">
        <ele>1208.458</ele>
        <time>2021-07-16T14:45:11Z</time>
      </trkpt>
      <trkpt lat="36.95346" lon="-4.5445">
        <ele>1208.151</ele>
        <time>2021-07-16T14:46:10Z</time>
      </trkpt>
      <trkpt lat="36.95346" lon="-4.54451">
        <ele>1207.972</ele>
        <time>2021-07-16T14:47:10Z</time>
      </trkpt>
      <trkpt lat="36.95346" lon="-4.54451">
        <ele>1207.712</ele>
        <time>2021-07-16T14:48:09Z</time>
      </trkpt>
      <trkpt lat="36.95346" lon="-4.54452">
        <ele>1207.075</ele>
        <time>2021-07-16T14:49:09Z</time>
      </trkpt>
      <trkpt lat="36.95346" lon="-4.54451">
        <ele>1207.246</ele>
        <time>2021-07-16T14:50:09Z</time>
      </trkpt>
      <trkpt lat="36.95346" lon="-4.5445">
        <ele>1207.426</ele>
        <time>2021-07-16T14:51:09Z</time>
      </trkpt>
      <trkpt lat="36.95346" lon="-4.54452">
        <ele>1208.18</ele>
        <time>2021-07-16T14:52:09Z</time>
      </trkpt>
      <trkpt lat="36.95346" lon="-4.54452">
        <ele>1208.18</ele>
        <time>2021-07-16T14:53:09Z</time>
      </trkpt>
      <trkpt lat="36.95346" lon="-4.54451">
        <ele>1206.707</ele>
        <time>2021-07-16T14:54:09Z</time>
      </trkpt>
      <trkpt lat="36.95346" lon="-4.5445">
        <ele>1207.873</ele>
        <time>2021-07-16T14:55:09Z</time>
      </trkpt>
      <trkpt lat="36.95346" lon="-4.54453">
        <ele>1206.751</ele>
        <time>2021-07-16T14:56:09Z</time>
      </trkpt>
      <trkpt lat="36.95345" lon="-4.54451">
        <ele>1206.785</ele>
        <time>2021-07-16T14:57:09Z</time>
      </trkpt>
      <trkpt lat="36.95346" lon="-4.54451">
        <ele>1207.455</ele>
        <time>2021-07-16T14:58:09Z</time>
      </trkpt>
      <trkpt lat="36.95346" lon="-4.5445">
        <ele>1206.983</ele>
        <time>2021-07-16T14:59:09Z</time>
      </trkpt>
      <trkpt lat="36.95344" lon="-4.54449">
        <ele>1206.063</ele>
        <time>2021-07-16T15:00:08Z</time>
      </trkpt>
      <trkpt lat="36.95345" lon="-4.54454">
        <ele>1207.902</ele>
        <time>2021-07-16T15:00:51Z</time>
      </trkpt>
      <trkpt lat="36.95348" lon="-4.54451">
        <ele>1207.824</ele>
        <time>2021-07-16T15:01:30Z</time>
      </trkpt>
      <trkpt lat="36.95347" lon="-4.5445">
        <ele>1207.627</ele>
        <time>2021-07-16T15:02:30Z</time>
      </trkpt>
      <trkpt lat="36.95345" lon="-4.54455">
        <ele>1207.652</ele>
        <time>2021-07-16T15:03:11Z</time>
      </trkpt>
      <trkpt lat="36.95347" lon="-4.54452">
        <ele>1207.866</ele>
        <time>2021-07-16T15:04:10Z</time>
      </trkpt>
      <trkpt lat="36.95345" lon="-4.54454">
        <ele>1207.372</ele>
        <time>2021-07-16T15:05:09Z</time>
      </trkpt>
      <trkpt lat="36.95347" lon="-4.54451">
        <ele>1207.516</ele>
        <time>2021-07-16T15:05:42Z</time>
      </trkpt>
      <trkpt lat="36.95347" lon="-4.54451">
        <ele>1207.749</ele>
        <time>2021-07-16T15:06:41Z</time>
      </trkpt>
      <trkpt lat="36.95346" lon="-4.54452">
        <ele>1207.954</ele>
        <time>2021-07-16T15:07:40Z</time>
      </trkpt>
      <trkpt lat="36.95347" lon="-4.54452">
        <ele>1207.842</ele>
        <time>2021-07-16T15:08:39Z</time>
      </trkpt>
      <trkpt lat="36.95346" lon="-4.54447">
        <ele>1208.274</ele>
        <time>2021-07-16T15:08:56Z</time>
      </trkpt>
      <trkpt lat="36.95347" lon="-4.54451">
        <ele>1206.64</ele>
        <time>2021-07-16T15:09:55Z</time>
      </trkpt>
      <trkpt lat="36.95346" lon="-4.54454">
        <ele>1207.799</ele>
        <time>2021-07-16T15:10:54Z</time>
      </trkpt>
      <trkpt lat="36.95348" lon="-4.54452">
        <ele>1207.533</ele>
        <time>2021-07-16T15:11:53Z</time>
      </trkpt>
      <trkpt lat="36.95348" lon="-4.54452">
        <ele>1207.533</ele>
        <time>2021-07-16T15:12:52Z</time>
      </trkpt>
      <trkpt lat="36.95348" lon="-4.54452">
        <ele>1207.533</ele>
        <time>2021-07-16T15:13:52Z</time>
      </trkpt>
      <trkpt lat="36.95348" lon="-4.54452">
        <ele>1207.533</ele>
        <time>2021-07-16T15:14:52Z</time>
      </trkpt>
      <trkpt lat="36.95347" lon="-4.54452">
        <ele>1207.437</ele>
        <time>2021-07-16T15:15:52Z</time>
      </trkpt>
      <trkpt lat="36.95347" lon="-4.54452">
        <ele>1208.126</ele>
        <time>2021-07-16T15:16:52Z</time>
      </trkpt>
      <trkpt lat="36.95348" lon="-4.54451">
        <ele>1207.675</ele>
        <time>2021-07-16T15:17:51Z</time>
      </trkpt>
      <trkpt lat="36.95348" lon="-4.54451">
        <ele>1208.128</ele>
        <time>2021-07-16T15:18:51Z</time>
      </trkpt>
      <trkpt lat="36.95347" lon="-4.54452">
        <ele>1207.647</ele>
        <time>2021-07-16T15:19:49Z</time>
      </trkpt>
      <trkpt lat="36.95346" lon="-4.54452">
        <ele>1208.961</ele>
        <time>2021-07-16T15:20:48Z</time>
      </trkpt>
      <trkpt lat="36.95348" lon="-4.5445">
        <ele>1210.013</ele>
        <time>2021-07-16T15:21:46Z</time>
      </trkpt>
      <trkpt lat="36.95348" lon="-4.54451">
        <ele>1207.911</ele>
        <time>2021-07-16T15:22:45Z</time>
      </trkpt>
      <trkpt lat="36.95347" lon="-4.54451">
        <ele>1207.686</ele>
        <time>2021-07-16T15:23:44Z</time>
      </trkpt>
      <trkpt lat="36.95347" lon="-4.54451">
        <ele>1208.021</ele>
        <time>2021-07-16T15:24:43Z</time>
      </trkpt>
      <trkpt lat="36.95347" lon="-4.54451">
        <ele>1208.021</ele>
        <time>2021-07-16T15:25:43Z</time>
      </trkpt>
      <trkpt lat="36.95347" lon="-4.54451">
        <ele>1208.021</ele>
        <time>2021-07-16T15:26:43Z</time>
      </trkpt>
      <trkpt lat="36.95347" lon="-4.54451">
        <ele>1208.021</ele>
        <time>2021-07-16T15:27:43Z</time>
      </trkpt>
      <trkpt lat="36.95347" lon="-4.54451">
        <ele>1208.021</ele>
        <time>2021-07-16T15:28:43Z</time>
      </trkpt>
      <trkpt lat="36.95347" lon="-4.54451">
        <ele>1208.021</ele>
        <time>2021-07-16T15:29:43Z</time>
      </trkpt>
      <trkpt lat="36.95347" lon="-4.54451">
        <ele>1208.021</ele>
        <time>2021-07-16T15:30:43Z</time>
      </trkpt>
      <trkpt lat="36.95346" lon="-4.54448">
        <ele>1207.723</ele>
        <time>2021-07-16T15:31:43Z</time>
      </trkpt>
      <trkpt lat="36.95346" lon="-4.54449">
        <ele>1207.775</ele>
        <time>2021-07-16T15:32:43Z</time>
      </trkpt>
      <trkpt lat="36.95346" lon="-4.54449">
        <ele>1207.775</ele>
        <time>2021-07-16T15:33:43Z</time>
      </trkpt>
      <trkpt lat="36.95345" lon="-4.54449">
        <ele>1207.592</ele>
        <time>2021-07-16T15:34:43Z</time>
      </trkpt>
      <trkpt lat="36.95347" lon="-4.54447">
        <ele>1207.479</ele>
        <time>2021-07-16T15:35:43Z</time>
      </trkpt>
      <trkpt lat="36.95343" lon="-4.54447">
        <ele>1207.301</ele>
        <time>2021-07-16T15:36:22Z</time>
      </trkpt>
      <trkpt lat="36.95343" lon="-4.54447">
        <ele>1207.984</ele>
        <time>2021-07-16T15:37:22Z</time>
      </trkpt>
      <trkpt lat="36.95342" lon="-4.54445">
        <ele>1208.963</ele>
        <time>2021-07-16T15:38:21Z</time>
      </trkpt>
      <trkpt lat="36.95343" lon="-4.54442">
        <ele>1207.727</ele>
        <time>2021-07-16T15:39:20Z</time>
      </trkpt>
      <trkpt lat="36.95338" lon="-4.54438">
        <ele>1206.612</ele>
        <time>2021-07-16T15:39:59Z</time>
      </trkpt>
      <trkpt lat="36.95346" lon="-4.54423">
        <ele>1207.121</ele>
        <time>2021-07-16T15:40:10Z</time>
      </trkpt>
      <trkpt lat="36.95481" lon="-4.54351">
        <ele>1212.162</ele>
        <time>2021-07-16T15:40:21Z</time>
      </trkpt>
      <trkpt lat="36.95555" lon="-4.54218">
        <ele>1222.955</ele>
        <time>2021-07-16T15:40:32Z</time>
      </trkpt>
      <trkpt lat="36.95563" lon="-4.54063">
        <ele>1223.441</ele>
        <time>2021-07-16T15:40:43Z</time>
      </trkpt>
      <trkpt lat="36.95629" lon="-4.53939">
        <ele>1214.111</ele>
        <time>2021-07-16T15:40:54Z</time>
      </trkpt>
      <trkpt lat="36.95725" lon="-4.53824">
        <ele>1202.575</ele>
        <time>2021-07-16T15:41:05Z</time>
      </trkpt>
      <trkpt lat="36.95799" lon="-4.53657">
        <ele>1186.343</ele>
        <time>2021-07-16T15:41:16Z</time>
      </trkpt>
      <trkpt lat="36.95866" lon="-4.53538">
        <ele>1174.141</ele>
        <time>2021-07-16T15:41:27Z</time>
      </trkpt>
      <trkpt lat="36.95864" lon="-4.53391">
        <ele>1163.818</ele>
        <time>2021-07-16T15:41:38Z</time>
      </trkpt>
      <trkpt lat="36.95813" lon="-4.53276">
        <ele>1148.283</ele>
        <time>2021-07-16T15:41:49Z</time>
      </trkpt>
      <trkpt lat="36.95841" lon="-4.53134">
        <ele>1140.261</ele>
        <time>2021-07-16T15:42:00Z</time>
      </trkpt>
      <trkpt lat="36.95891" lon="-4.52987">
        <ele>1123.596</ele>
        <time>2021-07-16T15:42:11Z</time>
      </trkpt>
      <trkpt lat="36.95966" lon="-4.52843">
        <ele>1109.318</ele>
        <time>2021-07-16T15:42:22Z</time>
      </trkpt>
      <trkpt lat="36.96058" lon="-4.52681">
        <ele>1101.99</ele>
        <time>2021-07-16T15:42:33Z</time>
      </trkpt>
      <trkpt lat="36.96136" lon="-4.52506">
        <ele>1091.696</ele>
        <time>2021-07-16T15:42:44Z</time>
      </trkpt>
      <trkpt lat="36.96183" lon="-4.52302">
        <ele>1068.692</ele>
        <time>2021-07-16T15:42:55Z</time>
      </trkpt>
      <trkpt lat="36.96237" lon="-4.52119">
        <ele>1039.137</ele>
        <time>2021-07-16T15:43:06Z</time>
      </trkpt>
      <trkpt lat="36.96224" lon="-4.51889">
        <ele>1021.757</ele>
        <time>2021-07-16T15:43:17Z</time>
      </trkpt>
      <trkpt lat="36.96244" lon="-4.51657">
        <ele>995.9032</ele>
        <time>2021-07-16T15:43:28Z</time>
      </trkpt>
      <trkpt lat="36.96318" lon="-4.51439">
        <ele>977.9131</ele>
        <time>2021-07-16T15:43:39Z</time>
      </trkpt>
      <trkpt lat="36.96389" lon="-4.51222">
        <ele>962.789</ele>
        <time>2021-07-16T15:43:50Z</time>
      </trkpt>
      <trkpt lat="36.96423" lon="-4.51113">
        <ele>952.5532</ele>
        <time>2021-07-16T15:44:01Z</time>
      </trkpt>
      <trkpt lat="36.96431" lon="-4.51078">
        <ele>952.0765</ele>
        <time>2021-07-16T15:44:12Z</time>
      </trkpt>
      <trkpt lat="36.9643" lon="-4.5108">
        <ele>952.8003</ele>
        <time>2021-07-16T15:45:11Z</time>
      </trkpt>
      <trkpt lat="36.96433" lon="-4.51075">
        <ele>952.86</ele>
        <time>2021-07-16T15:45:26Z</time>
      </trkpt>
      <trkpt lat="36.96512" lon="-4.50966">
        <ele>947.3439</ele>
        <time>2021-07-16T15:45:37Z</time>
      </trkpt>
      <trkpt lat="36.96617" lon="-4.5077">
        <ele>957.4788</ele>
        <time>2021-07-16T15:45:48Z</time>
      </trkpt>
      <trkpt lat="36.96712" lon="-4.50511">
        <ele>958.1733</ele>
        <time>2021-07-16T15:45:59Z</time>
      </trkpt>
      <trkpt lat="36.96865" lon="-4.50307">
        <ele>959.7179</ele>
        <time>2021-07-16T15:46:10Z</time>
      </trkpt>
      <trkpt lat="36.97003" lon="-4.50097">
        <ele>933.0452</ele>
        <time>2021-07-16T15:46:21Z</time>
      </trkpt>
      <trkpt lat="36.97014" lon="-4.50039">
        <ele>920.2627</ele>
        <time>2021-07-16T15:46:32Z</time>
      </trkpt>
      <trkpt lat="36.97004" lon="-4.49967">
        <ele>910.6625</ele>
        <time>2021-07-16T15:46:43Z</time>
      </trkpt>
      <trkpt lat="36.9712" lon="-4.49745">
        <ele>889.5376</ele>
        <time>2021-07-16T15:46:54Z</time>
      </trkpt>
      <trkpt lat="36.97226" lon="-4.49537">
        <ele>879.4682</ele>
        <time>2021-07-16T15:47:05Z</time>
      </trkpt>
      <trkpt lat="36.97343" lon="-4.49355">
        <ele>865.7835</ele>
        <time>2021-07-16T15:47:16Z</time>
      </trkpt>
      <trkpt lat="36.97376" lon="-4.49229">
        <ele>863.884</ele>
        <time>2021-07-16T15:47:27Z</time>
      </trkpt>
      <trkpt lat="36.97352" lon="-4.49172">
        <ele>866.7533</ele>
        <time>2021-07-16T15:47:38Z</time>
      </trkpt>
      <trkpt lat="36.97261" lon="-4.49023">
        <ele>880.1114</ele>
        <time>2021-07-16T15:47:49Z</time>
      </trkpt>
      <trkpt lat="36.97159" lon="-4.48956">
        <ele>875.3294</ele>
        <time>2021-07-16T15:48:00Z</time>
      </trkpt>
      <trkpt lat="36.9704" lon="-4.48961">
        <ele>860.075</ele>
        <time>2021-07-16T15:48:11Z</time>
      </trkpt>
      <trkpt lat="36.96996" lon="-4.48945">
        <ele>852.4419</ele>
        <time>2021-07-16T15:48:22Z</time>
      </trkpt>
      <trkpt lat="36.96962" lon="-4.48812">
        <ele>836.1532</ele>
        <time>2021-07-16T15:48:33Z</time>
      </trkpt>
      <trkpt lat="36.96921" lon="-4.48727">
        <ele>829.877</ele>
        <time>2021-07-16T15:48:44Z</time>
      </trkpt>
      <trkpt lat="36.96848" lon="-4.48763">
        <ele>823.7614</ele>
        <time>2021-07-16T15:48:55Z</time>
      </trkpt>
      <trkpt lat="36.96735" lon="-4.48836">
        <ele>815.4447</ele>
        <time>2021-07-16T15:49:06Z</time>
      </trkpt>
      <trkpt lat="36.96624" lon="-4.48865">
        <ele>807.6773</ele>
        <time>2021-07-16T15:49:17Z</time>
      </trkpt>
      <trkpt lat="36.96516" lon="-4.48835">
        <ele>798.3736</ele>
        <time>2021-07-16T15:49:28Z</time>
      </trkpt>
      <trkpt lat="36.96436" lon="-4.48782">
        <ele>794.0113</ele>
        <time>2021-07-16T15:49:39Z</time>
      </trkpt>
      <trkpt lat="36.96384" lon="-4.48689">
        <ele>791.5236</ele>
        <time>2021-07-16T15:49:50Z</time>
      </trkpt>
      <trkpt lat="36.96436" lon="-4.48591">
        <ele>794.0205</ele>
        <time>2021-07-16T15:50:01Z</time>
      </trkpt>
      <trkpt lat="36.96494" lon="-4.48496">
        <ele>793.1903</ele>
        <time>2021-07-16T15:50:12Z</time>
      </trkpt>
      <trkpt lat="36.96489" lon="-4.48436">
        <ele>792.2765</ele>
        <time>2021-07-16T15:50:23Z</time>
      </trkpt>
      <trkpt lat="36.96437" lon="-4.48417">
        <ele>789.7158</ele>
        <time>2021-07-16T15:50:34Z</time>
      </trkpt>
      <trkpt lat="36.963" lon="-4.48454">
        <ele>778.0824</ele>
        <time>2021-07-16T15:50:45Z</time>
      </trkpt>
      <trkpt lat="36.96189" lon="-4.4844">
        <ele>765.4052</ele>
        <time>2021-07-16T15:50:56Z</time>
      </trkpt>
      <trkpt lat="36.96119" lon="-4.48398">
        <ele>760.2283</ele>
        <time>2021-07-16T15:51:07Z</time>
      </trkpt>
      <trkpt lat="36.96036" lon="-4.48429">
        <ele>754.1796</ele>
        <time>2021-07-16T15:51:18Z</time>
      </trkpt>
      <trkpt lat="36.95997" lon="-4.48481">
        <ele>757.1883</ele>
        <time>2021-07-16T15:51:29Z</time>
      </trkpt>
      <trkpt lat="36.95956" lon="-4.48534">
        <ele>758.1778</ele>
        <time>2021-07-16T15:51:40Z</time>
      </trkpt>
      <trkpt lat="36.95902" lon="-4.48581">
        <ele>765.3162</ele>
        <time>2021-07-16T15:51:51Z</time>
      </trkpt>
      <trkpt lat="36.95844" lon="-4.48637">
        <ele>769.5756</ele>
        <time>2021-07-16T15:52:02Z</time>
      </trkpt>
      <trkpt lat="36.95773" lon="-4.48668">
        <ele>764.1065</ele>
        <time>2021-07-16T15:52:13Z</time>
      </trkpt>
      <trkpt lat="36.95716" lon="-4.48707">
        <ele>719.4917</ele>
        <time>2021-07-16T15:52:24Z</time>
      </trkpt>
      <trkpt lat="36.95657" lon="-4.48744">
        <ele>720.3551</ele>
        <time>2021-07-16T15:52:35Z</time>
      </trkpt>
      <trkpt lat="36.95651" lon="-4.48714">
        <ele>745.9256</ele>
        <time>2021-07-16T15:52:46Z</time>
      </trkpt>
      <trkpt lat="36.95628" lon="-4.48634">
        <ele>758.6203</ele>
        <time>2021-07-16T15:52:57Z</time>
      </trkpt>
      <trkpt lat="36.95615" lon="-4.48567">
        <ele>746.8547</ele>
        <time>2021-07-16T15:53:08Z</time>
      </trkpt>
      <trkpt lat="36.95593" lon="-4.48528">
        <ele>733.1289</ele>
        <time>2021-07-16T15:53:19Z</time>
      </trkpt>
      <trkpt lat="36.95535" lon="-4.48485">
        <ele>751.542</ele>
        <time>2021-07-16T15:53:30Z</time>
      </trkpt>
      <trkpt lat="36.9552" lon="-4.4845">
        <ele>765.6199</ele>
        <time>2021-07-16T15:53:41Z</time>
      </trkpt>
      <trkpt lat="36.95505" lon="-4.48409">
        <ele>777.4935</ele>
        <time>2021-07-16T15:53:52Z</time>
      </trkpt>
      <trkpt lat="36.95485" lon="-4.48364">
        <ele>765.2843</ele>
        <time>2021-07-16T15:54:03Z</time>
      </trkpt>
      <trkpt lat="36.95432" lon="-4.48328">
        <ele>742.8139</ele>
        <time>2021-07-16T15:54:14Z</time>
      </trkpt>
      <trkpt lat="36.95405" lon="-4.48272">
        <ele>730.2599</ele>
        <time>2021-07-16T15:54:25Z</time>
      </trkpt>
      <trkpt lat="36.95382" lon="-4.48236">
        <ele>743.0154</ele>
        <time>2021-07-16T15:54:36Z</time>
      </trkpt>
      <trkpt lat="36.95361" lon="-4.4821">
        <ele>756.1706</ele>
        <time>2021-07-16T15:54:47Z</time>
      </trkpt>
      <trkpt lat="36.95358" lon="-4.48211">
        <ele>781.6343</ele>
        <time>2021-07-16T15:55:03Z</time>
      </trkpt>
      <trkpt lat="36.95364" lon="-4.48207">
        <ele>742.9362</ele>
        <time>2021-07-16T15:55:30Z</time>
      </trkpt>
      <trkpt lat="36.95363" lon="-4.48205">
        <ele>740.4205</ele>
        <time>2021-07-16T15:56:30Z</time>
      </trkpt>
      <trkpt lat="36.95366" lon="-4.48206">
        <ele>738.3245</ele>
        <time>2021-07-16T15:57:30Z</time>
      </trkpt>
      <trkpt lat="36.95366" lon="-4.48204">
        <ele>740.156</ele>
        <time>2021-07-16T15:58:30Z</time>
      </trkpt>
      <trkpt lat="36.95383" lon="-4.48234">
        <ele>739.3134</ele>
        <time>2021-07-16T15:58:41Z</time>
      </trkpt>
      <trkpt lat="36.95419" lon="-4.48297">
        <ele>734.1217</ele>
        <time>2021-07-16T15:58:52Z</time>
      </trkpt>
      <trkpt lat="36.9547" lon="-4.48348">
        <ele>729.5015</ele>
        <time>2021-07-16T15:59:03Z</time>
      </trkpt>
      <trkpt lat="36.95505" lon="-4.48396">
        <ele>729.7086</ele>
        <time>2021-07-16T15:59:14Z</time>
      </trkpt>
      <trkpt lat="36.95525" lon="-4.48455">
        <ele>742.2665</ele>
        <time>2021-07-16T15:59:25Z</time>
      </trkpt>
      <trkpt lat="36.95558" lon="-4.485">
        <ele>760.7803</ele>
        <time>2021-07-16T15:59:36Z</time>
      </trkpt>
      <trkpt lat="36.95605" lon="-4.48564">
        <ele>779.1559</ele>
        <time>2021-07-16T15:59:47Z</time>
      </trkpt>
      <trkpt lat="36.95626" lon="-4.48643">
        <ele>773.4498</ele>
        <time>2021-07-16T15:59:58Z</time>
      </trkpt>
      <trkpt lat="36.95647" lon="-4.48711">
        <ele>745.3622</ele>
        <time>2021-07-16T16:00:09Z</time>
      </trkpt>
      <trkpt lat="36.9569" lon="-4.48723">
        <ele>751.5855</ele>
        <time>2021-07-16T16:00:20Z</time>
      </trkpt>
      <trkpt lat="36.95718" lon="-4.48718">
        <ele>758.2924</ele>
        <time>2021-07-16T16:00:31Z</time>
      </trkpt>
      <trkpt lat="36.95764" lon="-4.48674">
        <ele>773.7962</ele>
        <time>2021-07-16T16:00:42Z</time>
      </trkpt>
      <trkpt lat="36.95828" lon="-4.48651">
        <ele>769.8726</ele>
        <time>2021-07-16T16:00:53Z</time>
      </trkpt>
      <trkpt lat="36.95873" lon="-4.48606">
        <ele>767.1615</ele>
        <time>2021-07-16T16:01:04Z</time>
      </trkpt>
      <trkpt lat="36.95919" lon="-4.48564">
        <ele>765.5751</ele>
        <time>2021-07-16T16:01:15Z</time>
      </trkpt>
      <trkpt lat="36.9596" lon="-4.48531">
        <ele>763.9058</ele>
        <time>2021-07-16T16:01:26Z</time>
      </trkpt>
      <trkpt lat="36.95995" lon="-4.48482">
        <ele>769.3145</ele>
        <time>2021-07-16T16:01:37Z</time>
      </trkpt>
      <trkpt lat="36.96024" lon="-4.48434">
        <ele>770.3156</ele>
        <time>2021-07-16T16:01:48Z</time>
      </trkpt>
      <trkpt lat="36.96067" lon="-4.48412">
        <ele>766.6401</ele>
        <time>2021-07-16T16:01:59Z</time>
      </trkpt>
      <trkpt lat="36.96125" lon="-4.48396">
        <ele>763.7194</ele>
        <time>2021-07-16T16:02:10Z</time>
      </trkpt>
      <trkpt lat="36.96179" lon="-4.48432">
        <ele>766.1193</ele>
        <time>2021-07-16T16:02:21Z</time>
      </trkpt>
      <trkpt lat="36.96273" lon="-4.48457">
        <ele>771.2856</ele>
        <time>2021-07-16T16:02:32Z</time>
      </trkpt>
      <trkpt lat="36.96406" lon="-4.48428">
        <ele>778.0235</ele>
        <time>2021-07-16T16:02:43Z</time>
      </trkpt>
      <trkpt lat="36.96496" lon="-4.48414">
        <ele>786.5071</ele>
        <time>2021-07-16T16:02:54Z</time>
      </trkpt>
      <trkpt lat="36.9651" lon="-4.48487">
        <ele>786.4574</ele>
        <time>2021-07-16T16:03:05Z</time>
      </trkpt>
      <trkpt lat="36.96451" lon="-4.48569">
        <ele>790.2124</ele>
        <time>2021-07-16T16:03:16Z</time>
      </trkpt>
      <trkpt lat="36.96399" lon="-4.48674">
        <ele>788.5244</ele>
        <time>2021-07-16T16:03:27Z</time>
      </trkpt>
      <trkpt lat="36.96415" lon="-4.48758">
        <ele>789.8381</ele>
        <time>2021-07-16T16:03:38Z</time>
      </trkpt>
      <trkpt lat="36.96501" lon="-4.4883">
        <ele>796.1389</ele>
        <time>2021-07-16T16:03:49Z</time>
      </trkpt>
      <trkpt lat="36.96608" lon="-4.4887">
        <ele>805.9496</ele>
        <time>2021-07-16T16:04:00Z</time>
      </trkpt>
      <trkpt lat="36.96729" lon="-4.48834">
        <ele>818.5037</ele>
        <time>2021-07-16T16:04:11Z</time>
      </trkpt>
      <trkpt lat="36.96847" lon="-4.48761">
        <ele>827.4126</ele>
        <time>2021-07-16T16:04:22Z</time>
      </trkpt>
      <trkpt lat="36.96936" lon="-4.48729">
        <ele>830.6475</ele>
        <time>2021-07-16T16:04:33Z</time>
      </trkpt>
      <trkpt lat="36.96966" lon="-4.4882">
        <ele>831.5632</ele>
        <time>2021-07-16T16:04:44Z</time>
      </trkpt>
      <trkpt lat="36.96997" lon="-4.48945">
        <ele>845.3183</ele>
        <time>2021-07-16T16:04:55Z</time>
      </trkpt>
      <trkpt lat="36.97039" lon="-4.48959">
        <ele>854.4422</ele>
        <time>2021-07-16T16:05:06Z</time>
      </trkpt>
      <trkpt lat="36.97161" lon="-4.48955">
        <ele>876.8793</ele>
        <time>2021-07-16T16:05:17Z</time>
      </trkpt>
      <trkpt lat="36.9723" lon="-4.48992">
        <ele>886.9512</ele>
        <time>2021-07-16T16:05:28Z</time>
      </trkpt>
      <trkpt lat="36.97223" lon="-4.48992">
        <ele>886.9998</ele>
        <time>2021-07-16T16:05:39Z</time>
      </trkpt>
      <trkpt lat="36.9727" lon="-4.49031">
        <ele>883.7144</ele>
        <time>2021-07-16T16:05:50Z</time>
      </trkpt>
      <trkpt lat="36.97347" lon="-4.49156">
        <ele>868.1201</ele>
        <time>2021-07-16T16:06:01Z</time>
      </trkpt>
      <trkpt lat="36.97381" lon="-4.49231">
        <ele>861.8519</ele>
        <time>2021-07-16T16:06:12Z</time>
      </trkpt>
      <trkpt lat="36.97381" lon="-4.49232">
        <ele>864.6212</ele>
        <time>2021-07-16T16:07:12Z</time>
      </trkpt>
      <trkpt lat="36.97344" lon="-4.49314">
        <ele>866.2316</ele>
        <time>2021-07-16T16:07:23Z</time>
      </trkpt>
      <trkpt lat="36.97236" lon="-4.49522">
        <ele>874.9672</ele>
        <time>2021-07-16T16:07:34Z</time>
      </trkpt>
      <trkpt lat="36.97123" lon="-4.49742">
        <ele>887.9486</ele>
        <time>2021-07-16T16:07:45Z</time>
      </trkpt>
      <trkpt lat="36.97006" lon="-4.49969">
        <ele>909.5509</ele>
        <time>2021-07-16T16:07:56Z</time>
      </trkpt>
      <trkpt lat="36.97005" lon="-4.50041">
        <ele>922.8108</ele>
        <time>2021-07-16T16:08:07Z</time>
      </trkpt>
      <trkpt lat="36.97013" lon="-4.50091">
        <ele>933.6776</ele>
        <time>2021-07-16T16:08:18Z</time>
      </trkpt>
      <trkpt lat="36.96881" lon="-4.5029">
        <ele>944.1147</ele>
        <time>2021-07-16T16:08:29Z</time>
      </trkpt>
      <trkpt lat="36.96734" lon="-4.50468">
        <ele>953.7842</ele>
        <time>2021-07-16T16:08:40Z</time>
      </trkpt>
      <trkpt lat="36.96635" lon="-4.50733">
        <ele>958.8108</ele>
        <time>2021-07-16T16:08:51Z</time>
      </trkpt>
      <trkpt lat="36.96495" lon="-4.50992">
        <ele>951.7211</ele>
        <time>2021-07-16T16:09:02Z</time>
      </trkpt>
      <trkpt lat="36.96352" lon="-4.51222">
        <ele>957.765</ele>
        <time>2021-07-16T16:09:13Z</time>
      </trkpt>
      <trkpt lat="36.96197" lon="-4.51491">
        <ele>950.5078</ele>
        <time>2021-07-16T16:09:24Z</time>
      </trkpt>
      <trkpt lat="36.96036" lon="-4.51675">
        <ele>944.2118</ele>
        <time>2021-07-16T16:09:35Z</time>
      </trkpt>
      <trkpt lat="36.95916" lon="-4.51808">
        <ele>947.0647</ele>
        <time>2021-07-16T16:09:46Z</time>
      </trkpt>
      <trkpt lat="36.95837" lon="-4.51931">
        <ele>933.3578</ele>
        <time>2021-07-16T16:09:57Z</time>
      </trkpt>
      <trkpt lat="36.95691" lon="-4.52015">
        <ele>926.0003</ele>
        <time>2021-07-16T16:10:08Z</time>
      </trkpt>
      <trkpt lat="36.95557" lon="-4.52205">
        <ele>915.6792</ele>
        <time>2021-07-16T16:10:19Z</time>
      </trkpt>
      <trkpt lat="36.95407" lon="-4.52436">
        <ele>912.8019</ele>
        <time>2021-07-16T16:10:30Z</time>
      </trkpt>
      <trkpt lat="36.95316" lon="-4.52661">
        <ele>898.3368</ele>
        <time>2021-07-16T16:10:41Z</time>
      </trkpt>
      <trkpt lat="36.9522" lon="-4.52871">
        <ele>893.1622</ele>
        <time>2021-07-16T16:10:52Z</time>
      </trkpt>
      <trkpt lat="36.95075" lon="-4.52966">
        <ele>873.6127</ele>
        <time>2021-07-16T16:11:03Z</time>
      </trkpt>
      <trkpt lat="36.94964" lon="-4.53169">
        <ele>863.5386</ele>
        <time>2021-07-16T16:11:14Z</time>
      </trkpt>
      <trkpt lat="36.94816" lon="-4.53294">
        <ele>854.8308</ele>
        <time>2021-07-16T16:11:25Z</time>
      </trkpt>
      <trkpt lat="36.94705" lon="-4.53429">
        <ele>850.5202</ele>
        <time>2021-07-16T16:11:36Z</time>
      </trkpt>
      <trkpt lat="36.946" lon="-4.53615">
        <ele>849.3882</ele>
        <time>2021-07-16T16:11:47Z</time>
      </trkpt>
      <trkpt lat="36.94496" lon="-4.53651">
        <ele>832.2066</ele>
        <time>2021-07-16T16:11:58Z</time>
      </trkpt>
      <trkpt lat="36.94416" lon="-4.53634">
        <ele>817.8236</ele>
        <time>2021-07-16T16:12:09Z</time>
      </trkpt>
      <trkpt lat="36.94365" lon="-4.5353">
        <ele>800.2372</ele>
        <time>2021-07-16T16:12:20Z</time>
      </trkpt>
      <trkpt lat="36.94234" lon="-4.53482">
        <ele>782.6866</ele>
        <time>2021-07-16T16:12:31Z</time>
      </trkpt>
      <trkpt lat="36.94192" lon="-4.53566">
        <ele>777.4473</ele>
        <time>2021-07-16T16:12:42Z</time>
      </trkpt>
      <trkpt lat="36.94129" lon="-4.53341">
        <ele>759.48</ele>
        <time>2021-07-16T16:12:53Z</time>
      </trkpt>
      <trkpt lat="36.94044" lon="-4.53258">
        <ele>734.9559</ele>
        <time>2021-07-16T16:13:04Z</time>
      </trkpt>
      <trkpt lat="36.93914" lon="-4.53224">
        <ele>715.916</ele>
        <time>2021-07-16T16:13:15Z</time>
      </trkpt>
      <trkpt lat="36.93774" lon="-4.53043">
        <ele>692.6437</ele>
        <time>2021-07-16T16:13:26Z</time>
      </trkpt>
      <trkpt lat="36.93663" lon="-4.5296">
        <ele>672.8129</ele>
        <time>2021-07-16T16:13:37Z</time>
      </trkpt>
      <trkpt lat="36.93533" lon="-4.52996">
        <ele>657.0653</ele>
        <time>2021-07-16T16:13:48Z</time>
      </trkpt>
      <trkpt lat="36.93484" lon="-4.52858">
        <ele>644.6852</ele>
        <time>2021-07-16T16:13:59Z</time>
      </trkpt>
      <trkpt lat="36.93352" lon="-4.52822">
        <ele>631.6462</ele>
        <time>2021-07-16T16:14:10Z</time>
      </trkpt>
      <trkpt lat="36.93277" lon="-4.52841">
        <ele>615.9317</ele>
        <time>2021-07-16T16:14:21Z</time>
      </trkpt>
      <trkpt lat="36.93202" lon="-4.52888">
        <ele>604.429</ele>
        <time>2021-07-16T16:14:32Z</time>
      </trkpt>
      <trkpt lat="36.9314" lon="-4.52798">
        <ele>595.7645</ele>
        <time>2021-07-16T16:14:43Z</time>
      </trkpt>
      <trkpt lat="36.93083" lon="-4.52741">
        <ele>585.3993</ele>
        <time>2021-07-16T16:14:54Z</time>
      </trkpt>
      <trkpt lat="36.93074" lon="-4.52611">
        <ele>564.3434</ele>
        <time>2021-07-16T16:15:05Z</time>
      </trkpt>
      <trkpt lat="36.93153" lon="-4.52421">
        <ele>545.2459</ele>
        <time>2021-07-16T16:15:16Z</time>
      </trkpt>
      <trkpt lat="36.93209" lon="-4.52179">
        <ele>536.2288</ele>
        <time>2021-07-16T16:15:27Z</time>
      </trkpt>
      <trkpt lat="36.9329" lon="-4.51935">
        <ele>513.8986</ele>
        <time>2021-07-16T16:15:38Z</time>
      </trkpt>
      <trkpt lat="36.93389" lon="-4.51668">
        <ele>509.2788</ele>
        <time>2021-07-16T16:15:49Z</time>
      </trkpt>
      <trkpt lat="36.93372" lon="-4.51485">
        <ele>492.7085</ele>
        <time>2021-07-16T16:16:00Z</time>
      </trkpt>
      <trkpt lat="36.93448" lon="-4.5135">
        <ele>478.8271</ele>
        <time>2021-07-16T16:16:11Z</time>
      </trkpt>
      <trkpt lat="36.93444" lon="-4.51199">
        <ele>487.7726</ele>
        <time>2021-07-16T16:16:22Z</time>
      </trkpt>
      <trkpt lat="36.93362" lon="-4.51037">
        <ele>515.7888</ele>
        <time>2021-07-16T16:16:33Z</time>
      </trkpt>
      <trkpt lat="36.93349" lon="-4.50857">
        <ele>540.0079</ele>
        <time>2021-07-16T16:16:44Z</time>
      </trkpt>
      <trkpt lat="36.93282" lon="-4.50692">
        <ele>550.7138</ele>
        <time>2021-07-16T16:16:55Z</time>
      </trkpt>
      <trkpt lat="36.93231" lon="-4.50578">
        <ele>565.6208</ele>
        <time>2021-07-16T16:17:06Z</time>
      </trkpt>
      <trkpt lat="36.93385" lon="-4.50568">
        <ele>588.2422</ele>
        <time>2021-07-16T16:17:17Z</time>
      </trkpt>
      <trkpt lat="36.93412" lon="-4.50431">
        <ele>608.1399</ele>
        <time>2021-07-16T16:17:28Z</time>
      </trkpt>
      <trkpt lat="36.93475" lon="-4.50254">
        <ele>630.7391</ele>
        <time>2021-07-16T16:17:39Z</time>
      </trkpt>
      <trkpt lat="36.93502" lon="-4.50057">
        <ele>651.1515</ele>
        <time>2021-07-16T16:17:50Z</time>
      </trkpt>
      <trkpt lat="36.93567" lon="-4.49888">
        <ele>670.2516</ele>
        <time>2021-07-16T16:18:01Z</time>
      </trkpt>
      <trkpt lat="36.93617" lon="-4.49688">
        <ele>677.1974</ele>
        <time>2021-07-16T16:18:12Z</time>
      </trkpt>
      <trkpt lat="36.93557" lon="-4.49473">
        <ele>686.8513</ele>
        <time>2021-07-16T16:18:23Z</time>
      </trkpt>
      <trkpt lat="36.93503" lon="-4.49312">
        <ele>699.4581</ele>
        <time>2021-07-16T16:18:34Z</time>
      </trkpt>
      <trkpt lat="36.93543" lon="-4.49108">
        <ele>710.2795</ele>
        <time>2021-07-16T16:18:45Z</time>
      </trkpt>
      <trkpt lat="36.93629" lon="-4.48911">
        <ele>716.3564</ele>
        <time>2021-07-16T16:18:56Z</time>
      </trkpt>
      <trkpt lat="36.9366" lon="-4.48732">
        <ele>723.6841</ele>
        <time>2021-07-16T16:19:07Z</time>
      </trkpt>
      <trkpt lat="36.938" lon="-4.48689">
        <ele>727.0336</ele>
        <time>2021-07-16T16:19:18Z</time>
      </trkpt>
      <trkpt lat="36.93968" lon="-4.48577">
        <ele>732.6985</ele>
        <time>2021-07-16T16:19:29Z</time>
      </trkpt>
      <trkpt lat="36.94093" lon="-4.48415">
        <ele>740.4557</ele>
        <time>2021-07-16T16:19:40Z</time>
      </trkpt>
      <trkpt lat="36.94246" lon="-4.48259">
        <ele>750.206</ele>
        <time>2021-07-16T16:19:51Z</time>
      </trkpt>
      <trkpt lat="36.94274" lon="-4.48169">
        <ele>761.3652</ele>
        <time>2021-07-16T16:20:02Z</time>
      </trkpt>
      <trkpt lat="36.94249" lon="-4.47995">
        <ele>771.3513</ele>
        <time>2021-07-16T16:20:13Z</time>
      </trkpt>
      <trkpt lat="36.94268" lon="-4.47777">
        <ele>782.6832</ele>
        <time>2021-07-16T16:20:24Z</time>
      </trkpt>
      <trkpt lat="36.94231" lon="-4.47603">
        <ele>789.6227</ele>
        <time>2021-07-16T16:20:35Z</time>
      </trkpt>
      <trkpt lat="36.94171" lon="-4.47436">
        <ele>793.8636</ele>
        <time>2021-07-16T16:20:46Z</time>
      </trkpt>
      <trkpt lat="36.94282" lon="-4.47293">
        <ele>805.1489</ele>
        <time>2021-07-16T16:20:57Z</time>
      </trkpt>
      <trkpt lat="36.94382" lon="-4.47118">
        <ele>810.2787</ele>
        <time>2021-07-16T16:21:08Z</time>
      </trkpt>
      <trkpt lat="36.94457" lon="-4.46954">
        <ele>809.5623</ele>
        <time>2021-07-16T16:21:19Z</time>
      </trkpt>
      <trkpt lat="36.94436" lon="-4.46799">
        <ele>811.9724</ele>
        <time>2021-07-16T16:21:30Z</time>
      </trkpt>
      <trkpt lat="36.94456" lon="-4.46611">
        <ele>815.6319</ele>
        <time>2021-07-16T16:21:41Z</time>
      </trkpt>
      <trkpt lat="36.94506" lon="-4.46413">
        <ele>824.9246</ele>
        <time>2021-07-16T16:21:52Z</time>
      </trkpt>
      <trkpt lat="36.9462" lon="-4.46376">
        <ele>822.0493</ele>
        <time>2021-07-16T16:22:03Z</time>
      </trkpt>
      <trkpt lat="36.94754" lon="-4.46327">
        <ele>824.7175</ele>
        <time>2021-07-16T16:22:14Z</time>
      </trkpt>
      <trkpt lat="36.94858" lon="-4.46283">
        <ele>824.6273</ele>
        <time>2021-07-16T16:22:25Z</time>
      </trkpt>
      <trkpt lat="36.94887" lon="-4.46272">
        <ele>825.6788</ele>
        <time>2021-07-16T16:22:36Z</time>
      </trkpt>
      <trkpt lat="36.94888" lon="-4.46265">
        <ele>825.6132</ele>
        <time>2021-07-16T16:22:59Z</time>
      </trkpt>
      <trkpt lat="36.94892" lon="-4.46266">
        <ele>825.1658</ele>
        <time>2021-07-16T16:23:43Z</time>
      </trkpt>
      <trkpt lat="36.94955" lon="-4.46294">
        <ele>823.9599</ele>
        <time>2021-07-16T16:23:54Z</time>
      </trkpt>
      <trkpt lat="36.95027" lon="-4.46295">
        <ele>826.2998</ele>
        <time>2021-07-16T16:24:05Z</time>
      </trkpt>
      <trkpt lat="36.95127" lon="-4.46254">
        <ele>819.2449</ele>
        <time>2021-07-16T16:24:16Z</time>
      </trkpt>
      <trkpt lat="36.95258" lon="-4.462">
        <ele>816.5612</ele>
        <time>2021-07-16T16:24:27Z</time>
      </trkpt>
      <trkpt lat="36.95403" lon="-4.46188">
        <ele>813.533</ele>
        <time>2021-07-16T16:24:38Z</time>
      </trkpt>
      <trkpt lat="36.95481" lon="-4.46034">
        <ele>791.6306</ele>
        <time>2021-07-16T16:24:49Z</time>
      </trkpt>
      <trkpt lat="36.95484" lon="-4.45757">
        <ele>782.9629</ele>
        <time>2021-07-16T16:25:00Z</time>
      </trkpt>
      <trkpt lat="36.9554" lon="-4.45536">
        <ele>781.7122</ele>
        <time>2021-07-16T16:25:11Z</time>
      </trkpt>
      <trkpt lat="36.95682" lon="-4.45339">
        <ele>766.5522</ele>
        <time>2021-07-16T16:25:22Z</time>
      </trkpt>
      <trkpt lat="36.95816" lon="-4.45106">
        <ele>759.2312</ele>
        <time>2021-07-16T16:25:33Z</time>
      </trkpt>
      <trkpt lat="36.95893" lon="-4.44926">
        <ele>748.958</ele>
        <time>2021-07-16T16:25:44Z</time>
      </trkpt>
      <trkpt lat="36.95955" lon="-4.4482">
        <ele>734.4618</ele>
        <time>2021-07-16T16:25:55Z</time>
      </trkpt>
      <trkpt lat="36.96069" lon="-4.4487">
        <ele>745.1421</ele>
        <time>2021-07-16T16:26:06Z</time>
      </trkpt>
      <trkpt lat="36.96232" lon="-4.44771">
        <ele>757.6652</ele>
        <time>2021-07-16T16:26:17Z</time>
      </trkpt>
      <trkpt lat="36.96299" lon="-4.44643">
        <ele>768.7947</ele>
        <time>2021-07-16T16:26:28Z</time>
      </trkpt>
      <trkpt lat="36.96248" lon="-4.44743">
        <ele>762.7715</ele>
        <time>2021-07-16T16:26:39Z</time>
      </trkpt>
      <trkpt lat="36.96134" lon="-4.44855">
        <ele>750.0461</ele>
        <time>2021-07-16T16:26:50Z</time>
      </trkpt>
      <trkpt lat="36.96142" lon="-4.44821">
        <ele>749.3657</ele>
        <time>2021-07-16T16:27:01Z</time>
      </trkpt>
      <trkpt lat="36.96227" lon="-4.44728">
        <ele>753.9446</ele>
        <time>2021-07-16T16:27:12Z</time>
      </trkpt>
      <trkpt lat="36.96223" lon="-4.44653">
        <ele>749.5236</ele>
        <time>2021-07-16T16:27:23Z</time>
      </trkpt>
      <trkpt lat="36.96216" lon="-4.44597">
        <ele>756.8716</ele>
        <time>2021-07-16T16:27:34Z</time>
      </trkpt>
      <trkpt lat="36.96142" lon="-4.44577">
        <ele>749.8416</ele>
        <time>2021-07-16T16:27:45Z</time>
      </trkpt>
      <trkpt lat="36.96075" lon="-4.44577">
        <ele>744.7031</ele>
        <time>2021-07-16T16:27:56Z</time>
      </trkpt>
      <trkpt lat="36.9605" lon="-4.4453">
        <ele>746.6127</ele>
        <time>2021-07-16T16:28:07Z</time>
      </trkpt>
      <trkpt lat="36.96144" lon="-4.44522">
        <ele>757.5042</ele>
        <time>2021-07-16T16:28:18Z</time>
      </trkpt>
      <trkpt lat="36.96206" lon="-4.4447">
        <ele>765.507</ele>
        <time>2021-07-16T16:28:29Z</time>
      </trkpt>
      <trkpt lat="36.96346" lon="-4.44378">
        <ele>775.6762</ele>
        <time>2021-07-16T16:28:40Z</time>
      </trkpt>
      <trkpt lat="36.96537" lon="-4.44289">
        <ele>803.0114</ele>
        <time>2021-07-16T16:28:51Z</time>
      </trkpt>
      <trkpt lat="36.96659" lon="-4.44142">
        <ele>803.5893</ele>
        <time>2021-07-16T16:29:02Z</time>
      </trkpt>
      <trkpt lat="36.96783" lon="-4.44012">
        <ele>814.721</ele>
        <time>2021-07-16T16:29:13Z</time>
      </trkpt>
      <trkpt lat="36.96895" lon="-4.43844">
        <ele>813.243</ele>
        <time>2021-07-16T16:29:24Z</time>
      </trkpt>
      <trkpt lat="36.96931" lon="-4.43702">
        <ele>810.011</ele>
        <time>2021-07-16T16:29:35Z</time>
      </trkpt>
      <trkpt lat="36.96993" lon="-4.43512">
        <ele>810.7853</ele>
        <time>2021-07-16T16:29:46Z</time>
      </trkpt>
      <trkpt lat="36.97129" lon="-4.43409">
        <ele>808.6339</ele>
        <time>2021-07-16T16:29:57Z</time>
      </trkpt>
      <trkpt lat="36.97161" lon="-4.43199">
        <ele>797.838</ele>
        <time>2021-07-16T16:30:08Z</time>
      </trkpt>
      <trkpt lat="36.97198" lon="-4.42991">
        <ele>795.4719</ele>
        <time>2021-07-16T16:30:19Z</time>
      </trkpt>
      <trkpt lat="36.97234" lon="-4.42767">
        <ele>782.6715</ele>
        <time>2021-07-16T16:30:30Z</time>
      </trkpt>
      <trkpt lat="36.9728" lon="-4.42521">
        <ele>767.7481</ele>
        <time>2021-07-16T16:30:41Z</time>
      </trkpt>
      <trkpt lat="36.97319" lon="-4.42278">
        <ele>754.6785</ele>
        <time>2021-07-16T16:30:52Z</time>
      </trkpt>
      <trkpt lat="36.97357" lon="-4.42067">
        <ele>739.963</ele>
        <time>2021-07-16T16:31:03Z</time>
      </trkpt>
      <trkpt lat="36.97431" lon="-4.41815">
        <ele>734.4086</ele>
        <time>2021-07-16T16:31:14Z</time>
      </trkpt>
      <trkpt lat="36.975" lon="-4.41581">
        <ele>727.6794</ele>
        <time>2021-07-16T16:31:25Z</time>
      </trkpt>
      <trkpt lat="36.97584" lon="-4.41358">
        <ele>720.8993</ele>
        <time>2021-07-16T16:31:36Z</time>
      </trkpt>
      <trkpt lat="36.97655" lon="-4.41203">
        <ele>714.944</ele>
        <time>2021-07-16T16:31:47Z</time>
      </trkpt>
      <trkpt lat="36.97714" lon="-4.41214">
        <ele>717.8469</ele>
        <time>2021-07-16T16:31:58Z</time>
      </trkpt>
      <trkpt lat="36.97837" lon="-4.41117">
        <ele>712.7754</ele>
        <time>2021-07-16T16:32:09Z</time>
      </trkpt>
      <trkpt lat="36.97961" lon="-4.40989">
        <ele>713.9724</ele>
        <time>2021-07-16T16:32:20Z</time>
      </trkpt>
      <trkpt lat="36.98055" lon="-4.40801">
        <ele>710.5708</ele>
        <time>2021-07-16T16:32:31Z</time>
      </trkpt>
      <trkpt lat="36.98195" lon="-4.40728">
        <ele>708.3031</ele>
        <time>2021-07-16T16:32:42Z</time>
      </trkpt>
      <trkpt lat="36.98287" lon="-4.40537">
        <ele>703.3289</ele>
        <time>2021-07-16T16:32:53Z</time>
      </trkpt>
      <trkpt lat="36.98385" lon="-4.40326">
        <ele>692.7556</ele>
        <time>2021-07-16T16:33:04Z</time>
      </trkpt>
      <trkpt lat="36.98524" lon="-4.40165">
        <ele>678.5754</ele>
        <time>2021-07-16T16:33:15Z</time>
      </trkpt>
      <trkpt lat="36.98661" lon="-4.40142">
        <ele>668.221</ele>
        <time>2021-07-16T16:33:26Z</time>
      </trkpt>
      <trkpt lat="36.98714" lon="-4.40115">
        <ele>664.4908</ele>
        <time>2021-07-16T16:33:37Z</time>
      </trkpt>
      <trkpt lat="36.98703" lon="-4.40002">
        <ele>667.4541</ele>
        <time>2021-07-16T16:33:48Z</time>
      </trkpt>
      <trkpt lat="36.98708" lon="-4.3989">
        <ele>667.9013</ele>
        <time>2021-07-16T16:33:59Z</time>
      </trkpt>
      <trkpt lat="36.98714" lon="-4.39886">
        <ele>667.6244</ele>
        <time>2021-07-16T16:34:11Z</time>
      </trkpt>
      <trkpt lat="36.98642" lon="-4.39987">
        <ele>668.625</ele>
        <time>2021-07-16T16:34:22Z</time>
      </trkpt>
      <trkpt lat="36.98609" lon="-4.40022">
        <ele>671.1918</ele>
        <time>2021-07-16T16:34:33Z</time>
      </trkpt>
      <trkpt lat="36.98613" lon="-4.4002">
        <ele>670.8759</ele>
        <time>2021-07-16T16:35:10Z</time>
      </trkpt>
      <trkpt lat="36.98541" lon="-4.40065">
        <ele>674.9691</ele>
        <time>2021-07-16T16:35:21Z</time>
      </trkpt>
      <trkpt lat="36.98382" lon="-4.40097">
        <ele>679.3654</ele>
        <time>2021-07-16T16:35:32Z</time>
      </trkpt>
      <trkpt lat="36.9821" lon="-4.40148">
        <ele>677.722</ele>
        <time>2021-07-16T16:35:43Z</time>
      </trkpt>
      <trkpt lat="36.98057" lon="-4.40236">
        <ele>669.823</ele>
        <time>2021-07-16T16:35:54Z</time>
      </trkpt>
      <trkpt lat="36.97949" lon="-4.40194">
        <ele>668.7223</ele>
        <time>2021-07-16T16:36:05Z</time>
      </trkpt>
      <trkpt lat="36.97879" lon="-4.40067">
        <ele>679.0093</ele>
        <time>2021-07-16T16:36:16Z</time>
      </trkpt>
      <trkpt lat="36.97836" lon="-4.39896">
        <ele>680.719</ele>
        <time>2021-07-16T16:36:27Z</time>
      </trkpt>
      <trkpt lat="36.97891" lon="-4.39758">
        <ele>684.1427</ele>
        <time>2021-07-16T16:36:38Z</time>
      </trkpt>
      <trkpt lat="36.98022" lon="-4.39668">
        <ele>687.9605</ele>
        <time>2021-07-16T16:36:49Z</time>
      </trkpt>
      <trkpt lat="36.98169" lon="-4.39475">
        <ele>681.5452</ele>
        <time>2021-07-16T16:37:00Z</time>
      </trkpt>
      <trkpt lat="36.98319" lon="-4.39319">
        <ele>684.232</ele>
        <time>2021-07-16T16:37:11Z</time>
      </trkpt>
      <trkpt lat="36.98421" lon="-4.39111">
        <ele>669.6253</ele>
        <time>2021-07-16T16:37:22Z</time>
      </trkpt>
      <trkpt lat="36.98545" lon="-4.38877">
        <ele>671.8886</ele>
        <time>2021-07-16T16:37:33Z</time>
      </trkpt>
      <trkpt lat="36.98676" lon="-4.38814">
        <ele>671.078</ele>
        <time>2021-07-16T16:37:44Z</time>
      </trkpt>
      <trkpt lat="36.98821" lon="-4.38687">
        <ele>667.5676</ele>
        <time>2021-07-16T16:37:55Z</time>
      </trkpt>
      <trkpt lat="36.99009" lon="-4.38615">
        <ele>688.0254</ele>
        <time>2021-07-16T16:38:06Z</time>
      </trkpt>
      <trkpt lat="36.99131" lon="-4.38481">
        <ele>687.3078</ele>
        <time>2021-07-16T16:38:17Z</time>
      </trkpt>
      <trkpt lat="36.99262" lon="-4.38307">
        <ele>676.2094</ele>
        <time>2021-07-16T16:38:28Z</time>
      </trkpt>
      <trkpt lat="36.99401" lon="-4.38108">
        <ele>661.6739</ele>
        <time>2021-07-16T16:38:39Z</time>
      </trkpt>
      <trkpt lat="36.99538" lon="-4.37982">
        <ele>671.8647</ele>
        <time>2021-07-16T16:38:50Z</time>
      </trkpt>
      <trkpt lat="36.99599" lon="-4.37852">
        <ele>677.1326</ele>
        <time>2021-07-16T16:39:01Z</time>
      </trkpt>
      <trkpt lat="36.99594" lon="-4.37683">
        <ele>682.8486</ele>
        <time>2021-07-16T16:39:12Z</time>
      </trkpt>
      <trkpt lat="36.99561" lon="-4.37589">
        <ele>687.4805</ele>
        <time>2021-07-16T16:39:23Z</time>
      </trkpt>
      <trkpt lat="36.99589" lon="-4.37631">
        <ele>688.1106</ele>
        <time>2021-07-16T16:39:34Z</time>
      </trkpt>
      <trkpt lat="36.9959" lon="-4.37636">
        <ele>686.0359</ele>
        <time>2021-07-16T16:39:45Z</time>
      </trkpt>
      <trkpt lat="36.99584" lon="-4.37628">
        <ele>684.9526</ele>
        <time>2021-07-16T16:39:56Z</time>
      </trkpt>
      <trkpt lat="36.99587" lon="-4.37645">
        <ele>688.3043</ele>
        <time>2021-07-16T16:40:07Z</time>
      </trkpt>
      <trkpt lat="36.99585" lon="-4.3765">
        <ele>689.7715</ele>
        <time>2021-07-16T16:40:18Z</time>
      </trkpt>
      <trkpt lat="36.99585" lon="-4.3765">
        <ele>689.7715</ele>
        <time>2021-07-16T16:41:18Z</time>
      </trkpt>
      <trkpt lat="36.99581" lon="-4.37652">
        <ele>690.7877</ele>
        <time>2021-07-16T16:41:29Z</time>
      </trkpt>
      <trkpt lat="36.99581" lon="-4.37652">
        <ele>690.7877</ele>
        <time>2021-07-16T16:42:29Z</time>
      </trkpt>
      <trkpt lat="36.99578" lon="-4.37647">
        <ele>684.7797</ele>
        <time>2021-07-16T16:43:24Z</time>
      </trkpt>
      <trkpt lat="36.99586" lon="-4.37624">
        <ele>684.8708</ele>
        <time>2021-07-16T16:43:35Z</time>
      </trkpt>
      <trkpt lat="36.99583" lon="-4.37619">
        <ele>687.7334</ele>
        <time>2021-07-16T16:43:46Z</time>
      </trkpt>
      <trkpt lat="36.99586" lon="-4.37621">
        <ele>683.8806</ele>
        <time>2021-07-16T16:44:24Z</time>
      </trkpt>
      <trkpt lat="36.99582" lon="-4.37622">
        <ele>684.6996</ele>
        <time>2021-07-16T16:44:59Z</time>
      </trkpt>
      <trkpt lat="36.99587" lon="-4.37626">
        <ele>685.4985</ele>
        <time>2021-07-16T16:45:45Z</time>
      </trkpt>
      <trkpt lat="36.99591" lon="-4.37627">
        <ele>684.6179</ele>
        <time>2021-07-16T16:46:07Z</time>
      </trkpt>
      <trkpt lat="36.99587" lon="-4.37628">
        <ele>686.8663</ele>
        <time>2021-07-16T16:46:22Z</time>
      </trkpt>
      <trkpt lat="36.99585" lon="-4.37624">
        <ele>686.513</ele>
        <time>2021-07-16T16:46:59Z</time>
      </trkpt>
      <trkpt lat="36.99581" lon="-4.37625">
        <ele>686.6628</ele>
        <time>2021-07-16T16:47:13Z</time>
      </trkpt>
      <trkpt lat="36.99578" lon="-4.37622">
        <ele>685.6014</ele>
        <time>2021-07-16T16:47:25Z</time>
      </trkpt>
      <trkpt lat="36.99582" lon="-4.3762">
        <ele>685.0721</ele>
        <time>2021-07-16T16:47:51Z</time>
      </trkpt>
      <trkpt lat="36.99585" lon="-4.37624">
        <ele>685.8304</ele>
        <time>2021-07-16T16:48:37Z</time>
      </trkpt>
      <trkpt lat="36.99581" lon="-4.37622">
        <ele>687.8877</ele>
        <time>2021-07-16T16:48:58Z</time>
      </trkpt>
      <trkpt lat="36.99584" lon="-4.37623">
        <ele>685.3134</ele>
        <time>2021-07-16T16:49:13Z</time>
      </trkpt>
      <trkpt lat="36.99587" lon="-4.37626">
        <ele>687.557</ele>
        <time>2021-07-16T16:49:27Z</time>
      </trkpt>
      <trkpt lat="36.99583" lon="-4.37623">
        <ele>684.8721</ele>
        <time>2021-07-16T16:50:18Z</time>
      </trkpt>
      <trkpt lat="36.99587" lon="-4.37625">
        <ele>684.5415</ele>
        <time>2021-07-16T16:50:31Z</time>
      </trkpt>
      <trkpt lat="36.99585" lon="-4.37629">
        <ele>685.1891</ele>
        <time>2021-07-16T16:50:56Z</time>
      </trkpt>
      <trkpt lat="36.99584" lon="-4.37628">
        <ele>685.2717</ele>
        <time>2021-07-16T16:51:56Z</time>
      </trkpt>
      <trkpt lat="36.99585" lon="-4.37623">
        <ele>682.5326</ele>
        <time>2021-07-16T16:52:55Z</time>
      </trkpt>
      <trkpt lat="36.99589" lon="-4.37623">
        <ele>681.787</ele>
        <time>2021-07-16T16:53:06Z</time>
      </trkpt>
      <trkpt lat="36.99585" lon="-4.37625">
        <ele>682.1819</ele>
        <time>2021-07-16T16:53:26Z</time>
      </trkpt>
      <trkpt lat="36.99581" lon="-4.37623">
        <ele>683.5434</ele>
        <time>2021-07-16T16:53:37Z</time>
      </trkpt>
      <trkpt lat="36.99581" lon="-4.37626">
        <ele>688.9139</ele>
        <time>2021-07-16T16:54:36Z</time>
      </trkpt>
      <trkpt lat="36.99579" lon="-4.37623">
        <ele>687.058</ele>
        <time>2021-07-16T16:54:57Z</time>
      </trkpt>
      <trkpt lat="36.99581" lon="-4.37621">
        <ele>685.3409</ele>
        <time>2021-07-16T16:55:57Z</time>
      </trkpt>
      <trkpt lat="36.99587" lon="-4.37622">
        <ele>686.8756</ele>
        <time>2021-07-16T16:56:36Z</time>
      </trkpt>
      <trkpt lat="36.99584" lon="-4.37627">
        <ele>684.9543</ele>
        <time>2021-07-16T16:57:05Z</time>
      </trkpt>
      <trkpt lat="36.99597" lon="-4.37673">
        <ele>681.8997</ele>
        <time>2021-07-16T16:57:16Z</time>
      </trkpt>
      <trkpt lat="36.99547" lon="-4.37594">
        <ele>684.7023</ele>
        <time>2021-07-16T16:57:27Z</time>
      </trkpt>
      <trkpt lat="36.99454" lon="-4.37404">
        <ele>679.8074</ele>
        <time>2021-07-16T16:57:38Z</time>
      </trkpt>
      <trkpt lat="36.99352" lon="-4.37202">
        <ele>679.3091</ele>
        <time>2021-07-16T16:57:49Z</time>
      </trkpt>
      <trkpt lat="36.9941" lon="-4.37024">
        <ele>688.812</ele>
        <time>2021-07-16T16:58:00Z</time>
      </trkpt>
      <trkpt lat="36.99542" lon="-4.36924">
        <ele>687.5501</ele>
        <time>2021-07-16T16:58:11Z</time>
      </trkpt>
      <trkpt lat="36.99632" lon="-4.3681">
        <ele>683.227</ele>
        <time>2021-07-16T16:58:22Z</time>
      </trkpt>
      <trkpt lat="36.99648" lon="-4.36702">
        <ele>681.1357</ele>
        <time>2021-07-16T16:58:33Z</time>
      </trkpt>
      <trkpt lat="36.99718" lon="-4.36699">
        <ele>679.6963</ele>
        <time>2021-07-16T16:58:44Z</time>
      </trkpt>
      <trkpt lat="36.99771" lon="-4.36751">
        <ele>685.4639</ele>
        <time>2021-07-16T16:58:55Z</time>
      </trkpt>
      <trkpt lat="36.99825" lon="-4.36768">
        <ele>687.0551</ele>
        <time>2021-07-16T16:59:06Z</time>
      </trkpt>
      <trkpt lat="36.99887" lon="-4.36773">
        <ele>688.3883</ele>
        <time>2021-07-16T16:59:17Z</time>
      </trkpt>
      <trkpt lat="36.99952" lon="-4.36768">
        <ele>686.8991</ele>
        <time>2021-07-16T16:59:28Z</time>
      </trkpt>
      <trkpt lat="37.00036" lon="-4.36752">
        <ele>686.0131</ele>
        <time>2021-07-16T16:59:39Z</time>
      </trkpt>
      <trkpt lat="37.0015" lon="-4.3672">
        <ele>685.2774</ele>
        <time>2021-07-16T16:59:50Z</time>
      </trkpt>
      <trkpt lat="37.00252" lon="-4.36671">
        <ele>685.6746</ele>
        <time>2021-07-16T17:00:01Z</time>
      </trkpt>
      <trkpt lat="37.00346" lon="-4.36595">
        <ele>688.6625</ele>
        <time>2021-07-16T17:00:12Z</time>
      </trkpt>
      <trkpt lat="37.00474" lon="-4.36461">
        <ele>686.8896</ele>
        <time>2021-07-16T17:00:23Z</time>
      </trkpt>
      <trkpt lat="37.00575" lon="-4.36322">
        <ele>679.1286</ele>
        <time>2021-07-16T17:00:34Z</time>
      </trkpt>
      <trkpt lat="37.00709" lon="-4.36254">
        <ele>675.3268</ele>
        <time>2021-07-16T17:00:45Z</time>
      </trkpt>
      <trkpt lat="37.00849" lon="-4.36318">
        <ele>675.4242</ele>
        <time>2021-07-16T17:00:56Z</time>
      </trkpt>
      <trkpt lat="37.00932" lon="-4.3647">
        <ele>671.4603</ele>
        <time>2021-07-16T17:01:07Z</time>
      </trkpt>
      <trkpt lat="37.01052" lon="-4.36456">
        <ele>662.3583</ele>
        <time>2021-07-16T17:01:18Z</time>
      </trkpt>
      <trkpt lat="37.01183" lon="-4.36362">
        <ele>656.8342</ele>
        <time>2021-07-16T17:01:29Z</time>
      </trkpt>
      <trkpt lat="37.01296" lon="-4.36279">
        <ele>658.1135</ele>
        <time>2021-07-16T17:01:40Z</time>
      </trkpt>
      <trkpt lat="37.014" lon="-4.36047">
        <ele>662.816</ele>
        <time>2021-07-16T17:01:51Z</time>
      </trkpt>
      <trkpt lat="37.01505" lon="-4.35824">
        <ele>664.2309</ele>
        <time>2021-07-16T17:02:02Z</time>
      </trkpt>
      <trkpt lat="37.01677" lon="-4.35716">
        <ele>666.66</ele>
        <time>2021-07-16T17:02:13Z</time>
      </trkpt>
      <trkpt lat="37.01821" lon="-4.3548">
        <ele>667.5552</ele>
        <time>2021-07-16T17:02:24Z</time>
      </trkpt>
      <trkpt lat="37.01972" lon="-4.35288">
        <ele>673.6838</ele>
        <time>2021-07-16T17:02:35Z</time>
      </trkpt>
      <trkpt lat="37.02162" lon="-4.35259">
        <ele>675.7535</ele>
        <time>2021-07-16T17:02:46Z</time>
      </trkpt>
      <trkpt lat="37.02279" lon="-4.35101">
        <ele>678.4603</ele>
        <time>2021-07-16T17:02:57Z</time>
      </trkpt>
      <trkpt lat="37.02404" lon="-4.34915">
        <ele>684.5501</ele>
        <time>2021-07-16T17:03:08Z</time>
      </trkpt>
      <trkpt lat="37.02477" lon="-4.3474">
        <ele>681.0107</ele>
        <time>2021-07-16T17:03:19Z</time>
      </trkpt>
      <trkpt lat="37.02503" lon="-4.34543">
        <ele>685.5558</ele>
        <time>2021-07-16T17:03:30Z</time>
      </trkpt>
      <trkpt lat="37.02571" lon="-4.34386">
        <ele>688.1775</ele>
        <time>2021-07-16T17:03:41Z</time>
      </trkpt>
      <trkpt lat="37.02606" lon="-4.34334">
        <ele>685.2562</ele>
        <time>2021-07-16T17:03:52Z</time>
      </trkpt>
      <trkpt lat="37.02633" lon="-4.34236">
        <ele>684.653</ele>
        <time>2021-07-16T17:04:03Z</time>
      </trkpt>
      <trkpt lat="37.02651" lon="-4.34121">
        <ele>687.2087</ele>
        <time>2021-07-16T17:04:14Z</time>
      </trkpt>
      <trkpt lat="37.0268" lon="-4.34012">
        <ele>689.9857</ele>
        <time>2021-07-16T17:04:25Z</time>
      </trkpt>
      <trkpt lat="37.02732" lon="-4.3393">
        <ele>695.6414</ele>
        <time>2021-07-16T17:04:36Z</time>
      </trkpt>
      <trkpt lat="37.02773" lon="-4.33886">
        <ele>699.9374</ele>
        <time>2021-07-16T17:04:47Z</time>
      </trkpt>
      <trkpt lat="37.02791" lon="-4.33863">
        <ele>700.3379</ele>
        <time>2021-07-16T17:04:58Z</time>
      </trkpt>
      <trkpt lat="37.02779" lon="-4.33821">
        <ele>701.1838</ele>
        <time>2021-07-16T17:05:09Z</time>
      </trkpt>
      <trkpt lat="37.0276" lon="-4.33775">
        <ele>699.566</ele>
        <time>2021-07-16T17:05:20Z</time>
      </trkpt>
      <trkpt lat="37.02735" lon="-4.33727">
        <ele>700.6447</ele>
        <time>2021-07-16T17:05:31Z</time>
      </trkpt>
      <trkpt lat="37.02744" lon="-4.33658">
        <ele>702.263</ele>
        <time>2021-07-16T17:05:42Z</time>
      </trkpt>
      <trkpt lat="37.02791" lon="-4.33551">
        <ele>699.3056</ele>
        <time>2021-07-16T17:05:53Z</time>
      </trkpt>
      <trkpt lat="37.02808" lon="-4.33407">
        <ele>700.3312</ele>
        <time>2021-07-16T17:06:04Z</time>
      </trkpt>
      <trkpt lat="37.02804" lon="-4.3328">
        <ele>697.776</ele>
        <time>2021-07-16T17:06:15Z</time>
      </trkpt>
      <trkpt lat="37.02812" lon="-4.33234">
        <ele>695.1809</ele>
        <time>2021-07-16T17:06:26Z</time>
      </trkpt>
      <trkpt lat="37.02808" lon="-4.33195">
        <ele>694.4325</ele>
        <time>2021-07-16T17:06:37Z</time>
      </trkpt>
      <trkpt lat="37.02713" lon="-4.33176">
        <ele>704.3543</ele>
        <time>2021-07-16T17:06:48Z</time>
      </trkpt>
      <trkpt lat="37.02583" lon="-4.33173">
        <ele>706.2206</ele>
        <time>2021-07-16T17:06:59Z</time>
      </trkpt>
      <trkpt lat="37.02514" lon="-4.3314">
        <ele>711.5239</ele>
        <time>2021-07-16T17:07:10Z</time>
      </trkpt>
      <trkpt lat="37.02452" lon="-4.3308">
        <ele>712.5005</ele>
        <time>2021-07-16T17:07:21Z</time>
      </trkpt>
      <trkpt lat="37.02334" lon="-4.32883">
        <ele>719.4494</ele>
        <time>2021-07-16T17:07:32Z</time>
      </trkpt>
      <trkpt lat="37.0224" lon="-4.32687">
        <ele>729.6742</ele>
        <time>2021-07-16T17:07:43Z</time>
      </trkpt>
      <trkpt lat="37.02129" lon="-4.32546">
        <ele>735.0678</ele>
        <time>2021-07-16T17:07:54Z</time>
      </trkpt>
      <trkpt lat="37.02029" lon="-4.3239">
        <ele>748.3742</ele>
        <time>2021-07-16T17:08:05Z</time>
      </trkpt>
      <trkpt lat="37.01981" lon="-4.32213">
        <ele>765.5345</ele>
        <time>2021-07-16T17:08:16Z</time>
      </trkpt>
      <trkpt lat="37.01944" lon="-4.3206">
        <ele>782.661</ele>
        <time>2021-07-16T17:08:27Z</time>
      </trkpt>
      <trkpt lat="37.01907" lon="-4.31919">
        <ele>789.4409</ele>
        <time>2021-07-16T17:08:38Z</time>
      </trkpt>
      <trkpt lat="37.01828" lon="-4.31826">
        <ele>806.9504</ele>
        <time>2021-07-16T17:08:49Z</time>
      </trkpt>
      <trkpt lat="37.01746" lon="-4.31734">
        <ele>804.9087</ele>
        <time>2021-07-16T17:09:00Z</time>
      </trkpt>
      <trkpt lat="37.01706" lon="-4.31604">
        <ele>808.1176</ele>
        <time>2021-07-16T17:09:11Z</time>
      </trkpt>
      <trkpt lat="37.0174" lon="-4.31483">
        <ele>810.2417</ele>
        <time>2021-07-16T17:09:22Z</time>
      </trkpt>
      <trkpt lat="37.01807" lon="-4.31411">
        <ele>811.8067</ele>
        <time>2021-07-16T17:09:33Z</time>
      </trkpt>
      <trkpt lat="37.0183" lon="-4.31295">
        <ele>815.1032</ele>
        <time>2021-07-16T17:09:44Z</time>
      </trkpt>
      <trkpt lat="37.01833" lon="-4.31181">
        <ele>814.705</ele>
        <time>2021-07-16T17:09:55Z</time>
      </trkpt>
      <trkpt lat="37.0177" lon="-4.31088">
        <ele>817.2476</ele>
        <time>2021-07-16T17:10:06Z</time>
      </trkpt>
      <trkpt lat="37.0169" lon="-4.31025">
        <ele>813.2177</ele>
        <time>2021-07-16T17:10:17Z</time>
      </trkpt>
      <trkpt lat="37.01623" lon="-4.30982">
        <ele>821.6245</ele>
        <time>2021-07-16T17:10:28Z</time>
      </trkpt>
      <trkpt lat="37.0162" lon="-4.30854">
        <ele>834.0361</ele>
        <time>2021-07-16T17:10:39Z</time>
      </trkpt>
      <trkpt lat="37.01597" lon="-4.30734">
        <ele>852.8419</ele>
        <time>2021-07-16T17:10:50Z</time>
      </trkpt>
      <trkpt lat="37.01578" lon="-4.30629">
        <ele>862.9188</ele>
        <time>2021-07-16T17:11:01Z</time>
      </trkpt>
      <trkpt lat="37.01565" lon="-4.30557">
        <ele>870.5259</ele>
        <time>2021-07-16T17:11:12Z</time>
      </trkpt>
      <trkpt lat="37.01554" lon="-4.30556">
        <ele>868.8588</ele>
        <time>2021-07-16T17:11:23Z</time>
      </trkpt>
      <trkpt lat="37.0155" lon="-4.30552">
        <ele>862.5533</ele>
        <time>2021-07-16T17:11:34Z</time>
      </trkpt>
      <trkpt lat="37.0157" lon="-4.30555">
        <ele>863.1078</ele>
        <time>2021-07-16T17:11:45Z</time>
      </trkpt>
      <trkpt lat="37.01582" lon="-4.30643">
        <ele>857.8731</ele>
        <time>2021-07-16T17:11:56Z</time>
      </trkpt>
      <trkpt lat="37.01569" lon="-4.30647">
        <ele>860.5388</ele>
        <time>2021-07-16T17:12:07Z</time>
      </trkpt>
      <trkpt lat="37.01564" lon="-4.30649">
        <ele>861.3718</ele>
        <time>2021-07-16T17:12:18Z</time>
      </trkpt>
      <trkpt lat="37.01556" lon="-4.30644">
        <ele>865.1965</ele>
        <time>2021-07-16T17:20:26Z</time>
      </trkpt>
      <trkpt lat="37.01564" lon="-4.30647">
        <ele>860.7069</ele>
        <time>2021-07-16T17:20:37Z</time>
      </trkpt>
      <trkpt lat="37.01568" lon="-4.30649">
        <ele>860.5126</ele>
        <time>2021-07-16T17:20:49Z</time>
      </trkpt>
      <trkpt lat="37.01567" lon="-4.30648">
        <ele>860.576</ele>
        <time>2021-07-16T17:21:49Z</time>
      </trkpt>
      <trkpt lat="37.01563" lon="-4.3065">
        <ele>860.5103</ele>
        <time>2021-07-16T17:22:18Z</time>
      </trkpt>
      <trkpt lat="37.01566" lon="-4.30648">
        <ele>859.5591</ele>
        <time>2021-07-16T17:22:50Z</time>
      </trkpt>
      <trkpt lat="37.01566" lon="-4.30647">
        <ele>860.1175</ele>
        <time>2021-07-16T17:23:50Z</time>
      </trkpt>
      <trkpt lat="37.01563" lon="-4.3065">
        <ele>860.4194</ele>
        <time>2021-07-16T17:24:02Z</time>
      </trkpt>
      <trkpt lat="37.01566" lon="-4.30651">
        <ele>860.6465</ele>
        <time>2021-07-16T17:24:17Z</time>
      </trkpt>
      <trkpt lat="37.01565" lon="-4.30649">
        <ele>859.8768</ele>
        <time>2021-07-16T17:25:17Z</time>
      </trkpt>
      <trkpt lat="37.01568" lon="-4.30649">
        <ele>859.8197</ele>
        <time>2021-07-16T17:26:16Z</time>
      </trkpt>
      <trkpt lat="37.01564" lon="-4.3065">
        <ele>860.1877</ele>
        <time>2021-07-16T17:27:06Z</time>
      </trkpt>
      <trkpt lat="37.01563" lon="-4.30654">
        <ele>860.4056</ele>
        <time>2021-07-16T17:27:48Z</time>
      </trkpt>
      <trkpt lat="37.01566" lon="-4.30652">
        <ele>860.2528</ele>
        <time>2021-07-16T17:28:12Z</time>
      </trkpt>
      <trkpt lat="37.01566" lon="-4.30655">
        <ele>860.5806</ele>
        <time>2021-07-16T17:29:11Z</time>
      </trkpt>
      <trkpt lat="37.01579" lon="-4.30658">
        <ele>858.1559</ele>
        <time>2021-07-16T17:29:22Z</time>
      </trkpt>
      <trkpt lat="37.01587" lon="-4.30651">
        <ele>855.9028</ele>
        <time>2021-07-16T17:29:33Z</time>
      </trkpt>
      <trkpt lat="37.01601" lon="-4.30647">
        <ele>851.5166</ele>
        <time>2021-07-16T17:29:44Z</time>
      </trkpt>
      <trkpt lat="37.01616" lon="-4.30645">
        <ele>848.7083</ele>
        <time>2021-07-16T17:29:55Z</time>
      </trkpt>
      <trkpt lat="37.01627" lon="-4.30642">
        <ele>844.9741</ele>
        <time>2021-07-16T17:30:06Z</time>
      </trkpt>
      <trkpt lat="37.01637" lon="-4.3064">
        <ele>842.8263</ele>
        <time>2021-07-16T17:30:17Z</time>
      </trkpt>
      <trkpt lat="37.01653" lon="-4.30638">
        <ele>839.8186</ele>
        <time>2021-07-16T17:30:28Z</time>
      </trkpt>
      <trkpt lat="37.01664" lon="-4.30636">
        <ele>836.4236</ele>
        <time>2021-07-16T17:30:39Z</time>
      </trkpt>
      <trkpt lat="37.0166" lon="-4.3064">
        <ele>838.2001</ele>
        <time>2021-07-16T17:30:50Z</time>
      </trkpt>
      <trkpt lat="37.01663" lon="-4.30645">
        <ele>837.0793</ele>
        <time>2021-07-16T17:31:01Z</time>
      </trkpt>
      <trkpt lat="37.01663" lon="-4.30639">
        <ele>836.4757</ele>
        <time>2021-07-16T17:31:13Z</time>
      </trkpt>
      <trkpt lat="37.01662" lon="-4.30634">
        <ele>835.8415</ele>
        <time>2021-07-16T17:31:43Z</time>
      </trkpt>
      <trkpt lat="37.01659" lon="-4.30623">
        <ele>836.9011</ele>
        <time>2021-07-16T17:31:54Z</time>
      </trkpt>
      <trkpt lat="37.01659" lon="-4.30606">
        <ele>836.0455</ele>
        <time>2021-07-16T17:32:05Z</time>
      </trkpt>
      <trkpt lat="37.01669" lon="-4.30611">
        <ele>837.848</ele>
        <time>2021-07-16T17:32:16Z</time>
      </trkpt>
      <trkpt lat="37.01671" lon="-4.30617">
        <ele>835.3549</ele>
        <time>2021-07-16T17:32:27Z</time>
      </trkpt>
      <trkpt lat="37.01675" lon="-4.30617">
        <ele>835.0004</ele>
        <time>2021-07-16T17:32:51Z</time>
      </trkpt>
      <trkpt lat="37.01673" lon="-4.30613">
        <ele>834.3144</ele>
        <time>2021-07-16T17:33:43Z</time>
      </trkpt>
      <trkpt lat="37.01673" lon="-4.30608">
        <ele>834.4073</ele>
        <time>2021-07-16T17:34:17Z</time>
      </trkpt>
      <trkpt lat="37.01682" lon="-4.306">
        <ele>832.8359</ele>
        <time>2021-07-16T17:34:28Z</time>
      </trkpt>
      <trkpt lat="37.01696" lon="-4.30605">
        <ele>830.7287</ele>
        <time>2021-07-16T17:34:39Z</time>
      </trkpt>
      <trkpt lat="37.01707" lon="-4.30609">
        <ele>829.9888</ele>
        <time>2021-07-16T17:34:50Z</time>
      </trkpt>
      <trkpt lat="37.01714" lon="-4.3061">
        <ele>827.2921</ele>
        <time>2021-07-16T17:35:01Z</time>
      </trkpt>
      <trkpt lat="37.0172" lon="-4.30612">
        <ele>826.6116</ele>
        <time>2021-07-16T17:35:12Z</time>
      </trkpt>
      <trkpt lat="37.01725" lon="-4.30606">
        <ele>826.1359</ele>
        <time>2021-07-16T17:35:23Z</time>
      </trkpt>
      <trkpt lat="37.01721" lon="-4.30609">
        <ele>824.7304</ele>
        <time>2021-07-16T17:35:34Z</time>
      </trkpt>
      <trkpt lat="37.0171" lon="-4.30607">
        <ele>826.4023</ele>
        <time>2021-07-16T17:35:45Z</time>
      </trkpt>
      <trkpt lat="37.01697" lon="-4.30601">
        <ele>827.6924</ele>
        <time>2021-07-16T17:35:56Z</time>
      </trkpt>
      <trkpt lat="37.01685" lon="-4.30597">
        <ele>833.1724</ele>
        <time>2021-07-16T17:36:07Z</time>
      </trkpt>
      <trkpt lat="37.01674" lon="-4.30594">
        <ele>834.3366</ele>
        <time>2021-07-16T17:36:18Z</time>
      </trkpt>
      <trkpt lat="37.01663" lon="-4.30604">
        <ele>835.546</ele>
        <time>2021-07-16T17:36:29Z</time>
      </trkpt>
      <trkpt lat="37.01654" lon="-4.30607">
        <ele>838.1658</ele>
        <time>2021-07-16T17:36:40Z</time>
      </trkpt>
      <trkpt lat="37.01646" lon="-4.30618">
        <ele>839.2655</ele>
        <time>2021-07-16T17:36:51Z</time>
      </trkpt>
      <trkpt lat="37.01641" lon="-4.30623">
        <ele>843.6663</ele>
        <time>2021-07-16T17:37:02Z</time>
      </trkpt>
      <trkpt lat="37.01633" lon="-4.30631">
        <ele>843.5247</ele>
        <time>2021-07-16T17:37:13Z</time>
      </trkpt>
      <trkpt lat="37.01626" lon="-4.3064">
        <ele>844.4209</ele>
        <time>2021-07-16T17:37:24Z</time>
      </trkpt>
      <trkpt lat="37.01618" lon="-4.30644">
        <ele>848.72</ele>
        <time>2021-07-16T17:37:35Z</time>
      </trkpt>
      <trkpt lat="37.01608" lon="-4.30648">
        <ele>849.6452</ele>
        <time>2021-07-16T17:37:46Z</time>
      </trkpt>
      <trkpt lat="37.01599" lon="-4.30653">
        <ele>853.2034</ele>
        <time>2021-07-16T17:37:57Z</time>
      </trkpt>
      <trkpt lat="37.01591" lon="-4.30653">
        <ele>853.6768</ele>
        <time>2021-07-16T17:38:08Z</time>
      </trkpt>
      <trkpt lat="37.01581" lon="-4.30654">
        <ele>857.1563</ele>
        <time>2021-07-16T17:38:19Z</time>
      </trkpt>
      <trkpt lat="37.01572" lon="-4.30652">
        <ele>858.0459</ele>
        <time>2021-07-16T17:38:30Z</time>
      </trkpt>
      <trkpt lat="37.01566" lon="-4.30648">
        <ele>859.1883</ele>
        <time>2021-07-16T17:38:41Z</time>
      </trkpt>
      <trkpt lat="37.01564" lon="-4.30644">
        <ele>860.549</ele>
        <time>2021-07-16T17:39:00Z</time>
      </trkpt>
      <trkpt lat="37.01561" lon="-4.30646">
        <ele>859.9184</ele>
        <time>2021-07-16T17:39:27Z</time>
      </trkpt>
      <trkpt lat="37.01565" lon="-4.30646">
        <ele>863.1828</ele>
        <time>2021-07-16T17:39:48Z</time>
      </trkpt>
      <trkpt lat="37.01562" lon="-4.30646">
        <ele>859.8231</ele>
        <time>2021-07-16T17:40:47Z</time>
      </trkpt>
      <trkpt lat="37.01563" lon="-4.30654">
        <ele>861.3697</ele>
        <time>2021-07-16T17:41:10Z</time>
      </trkpt>
      <trkpt lat="37.01563" lon="-4.3065">
        <ele>860.7509</ele>
        <time>2021-07-16T17:41:39Z</time>
      </trkpt>
      <trkpt lat="37.01568" lon="-4.30649">
        <ele>860.8832</ele>
        <time>2021-07-16T17:42:10Z</time>
      </trkpt>
      <trkpt lat="37.01564" lon="-4.30651">
        <ele>861.2063</ele>
        <time>2021-07-16T17:42:26Z</time>
      </trkpt>
      <trkpt lat="37.01564" lon="-4.30651">
        <ele>861.3361</ele>
        <time>2021-07-16T17:43:25Z</time>
      </trkpt>
      <trkpt lat="37.01564" lon="-4.30649">
        <ele>861.5966</ele>
        <time>2021-07-16T17:44:24Z</time>
      </trkpt>
      <trkpt lat="37.01568" lon="-4.30647">
        <ele>860.8993</ele>
        <time>2021-07-16T17:45:03Z</time>
      </trkpt>
    </trkseg>
  </trk>
  <trk>
    <name><![CDATA[Road trip fait P/E_11]]></name>
    <extensions>
      <line xmlns="http://www.topografix.com/GPX/gpx_style/0/2">
        <color>00FFFF</color>
        <width>4</width>
      </line>
    </extensions>
    <trkseg>
      <trkpt lat="37.18823" lon="-2.88649">
        <ele>1001.495</ele>
        <time>2021-07-17T17:52:39Z</time>
      </trkpt>
      <trkpt lat="37.18823" lon="-2.88649">
        <ele>1001.495</ele>
        <time>2021-07-17T17:52:39Z</time>
      </trkpt>
      <trkpt lat="37.16706" lon="-2.8209">
        <ele>873.2246</ele>
        <time>2021-07-18T07:39:12Z</time>
      </trkpt>
      <trkpt lat="37.16705" lon="-2.82092">
        <ele>873.0781</ele>
        <time>2021-07-18T07:40:12Z</time>
      </trkpt>
      <trkpt lat="37.16703" lon="-2.82085">
        <ele>873.0993</ele>
        <time>2021-07-18T07:40:57Z</time>
      </trkpt>
      <trkpt lat="37.16715" lon="-2.82073">
        <ele>871.9625</ele>
        <time>2021-07-18T07:41:08Z</time>
      </trkpt>
      <trkpt lat="37.16719" lon="-2.82075">
        <ele>872.7253</ele>
        <time>2021-07-18T07:41:24Z</time>
      </trkpt>
      <trkpt lat="37.1676" lon="-2.82198">
        <ele>872.3228</ele>
        <time>2021-07-18T07:41:35Z</time>
      </trkpt>
      <trkpt lat="37.16798" lon="-2.823">
        <ele>873.6063</ele>
        <time>2021-07-18T07:41:46Z</time>
      </trkpt>
      <trkpt lat="37.16817" lon="-2.8243">
        <ele>873.8708</ele>
        <time>2021-07-18T07:41:57Z</time>
      </trkpt>
      <trkpt lat="37.16823" lon="-2.82545">
        <ele>879.1067</ele>
        <time>2021-07-18T07:42:08Z</time>
      </trkpt>
      <trkpt lat="37.16819" lon="-2.82584">
        <ele>888.4252</ele>
        <time>2021-07-18T07:42:19Z</time>
      </trkpt>
      <trkpt lat="37.16777" lon="-2.82633">
        <ele>893.6377</ele>
        <time>2021-07-18T07:42:30Z</time>
      </trkpt>
      <trkpt lat="37.16726" lon="-2.82776">
        <ele>887.0911</ele>
        <time>2021-07-18T07:42:41Z</time>
      </trkpt>
      <trkpt lat="37.1667" lon="-2.82902">
        <ele>884.6894</ele>
        <time>2021-07-18T07:42:52Z</time>
      </trkpt>
      <trkpt lat="37.16654" lon="-2.83038">
        <ele>883.2597</ele>
        <time>2021-07-18T07:43:03Z</time>
      </trkpt>
      <trkpt lat="37.16613" lon="-2.83081">
        <ele>894.1142</ele>
        <time>2021-07-18T07:43:14Z</time>
      </trkpt>
      <trkpt lat="37.16547" lon="-2.83132">
        <ele>911.4559</ele>
        <time>2021-07-18T07:43:25Z</time>
      </trkpt>
      <trkpt lat="37.16475" lon="-2.83188">
        <ele>917.8975</ele>
        <time>2021-07-18T07:43:36Z</time>
      </trkpt>
      <trkpt lat="37.16381" lon="-2.83232">
        <ele>917.3049</ele>
        <time>2021-07-18T07:43:47Z</time>
      </trkpt>
      <trkpt lat="37.16319" lon="-2.83317">
        <ele>914.9341</ele>
        <time>2021-07-18T07:43:58Z</time>
      </trkpt>
      <trkpt lat="37.16206" lon="-2.83389">
        <ele>913.5339</ele>
        <time>2021-07-18T07:44:09Z</time>
      </trkpt>
      <trkpt lat="37.16132" lon="-2.83401">
        <ele>918.5654</ele>
        <time>2021-07-18T07:44:20Z</time>
      </trkpt>
      <trkpt lat="37.16104" lon="-2.83294">
        <ele>919.6851</ele>
        <time>2021-07-18T07:44:31Z</time>
      </trkpt>
      <trkpt lat="37.16103" lon="-2.83285">
        <ele>920.9631</ele>
        <time>2021-07-18T07:44:42Z</time>
      </trkpt>
      <trkpt lat="37.16098" lon="-2.8329">
        <ele>919.7406</ele>
        <time>2021-07-18T07:44:54Z</time>
      </trkpt>
      <trkpt lat="37.16101" lon="-2.83287">
        <ele>917.6373</ele>
        <time>2021-07-18T07:45:05Z</time>
      </trkpt>
      <trkpt lat="37.16099" lon="-2.83285">
        <ele>916.6287</ele>
        <time>2021-07-18T07:46:04Z</time>
      </trkpt>
      <trkpt lat="37.161" lon="-2.83285">
        <ele>916.6893</ele>
        <time>2021-07-18T07:47:03Z</time>
      </trkpt>
      <trkpt lat="37.161" lon="-2.83285">
        <ele>916.6893</ele>
        <time>2021-07-18T07:48:02Z</time>
      </trkpt>
      <trkpt lat="37.16101" lon="-2.83282">
        <ele>915.1154</ele>
        <time>2021-07-18T07:49:01Z</time>
      </trkpt>
      <trkpt lat="37.16101" lon="-2.83282">
        <ele>915.1154</ele>
        <time>2021-07-18T07:50:00Z</time>
      </trkpt>
      <trkpt lat="37.16106" lon="-2.83282">
        <ele>913.6178</ele>
        <time>2021-07-18T07:50:15Z</time>
      </trkpt>
      <trkpt lat="37.16102" lon="-2.83283">
        <ele>914.7558</ele>
        <time>2021-07-18T07:50:27Z</time>
      </trkpt>
      <trkpt lat="37.16098" lon="-2.83287">
        <ele>916.2543</ele>
        <time>2021-07-18T07:50:38Z</time>
      </trkpt>
      <trkpt lat="37.16099" lon="-2.83289">
        <ele>917.1222</ele>
        <time>2021-07-18T07:51:37Z</time>
      </trkpt>
      <trkpt lat="37.16097" lon="-2.83286">
        <ele>914.3048</ele>
        <time>2021-07-18T07:51:55Z</time>
      </trkpt>
      <trkpt lat="37.16097" lon="-2.83283">
        <ele>914.2286</ele>
        <time>2021-07-18T07:52:54Z</time>
      </trkpt>
      <trkpt lat="37.16101" lon="-2.83278">
        <ele>915.5227</ele>
        <time>2021-07-18T07:53:28Z</time>
      </trkpt>
      <trkpt lat="37.16127" lon="-2.83292">
        <ele>917.3686</ele>
        <time>2021-07-18T07:53:39Z</time>
      </trkpt>
      <trkpt lat="37.16135" lon="-2.83507">
        <ele>921.9395</ele>
        <time>2021-07-18T07:53:50Z</time>
      </trkpt>
      <trkpt lat="37.16178" lon="-2.83721">
        <ele>924.0228</ele>
        <time>2021-07-18T07:54:01Z</time>
      </trkpt>
      <trkpt lat="37.16255" lon="-2.83927">
        <ele>928.1023</ele>
        <time>2021-07-18T07:54:12Z</time>
      </trkpt>
      <trkpt lat="37.16417" lon="-2.84037">
        <ele>928.671</ele>
        <time>2021-07-18T07:54:23Z</time>
      </trkpt>
      <trkpt lat="37.16553" lon="-2.84123">
        <ele>921.0392</ele>
        <time>2021-07-18T07:54:34Z</time>
      </trkpt>
      <trkpt lat="37.16647" lon="-2.84111">
        <ele>913.7017</ele>
        <time>2021-07-18T07:54:45Z</time>
      </trkpt>
      <trkpt lat="37.16717" lon="-2.84034">
        <ele>913.402</ele>
        <time>2021-07-18T07:54:56Z</time>
      </trkpt>
      <trkpt lat="37.16814" lon="-2.83987">
        <ele>913.0129</ele>
        <time>2021-07-18T07:55:07Z</time>
      </trkpt>
      <trkpt lat="37.16893" lon="-2.83962">
        <ele>918.408</ele>
        <time>2021-07-18T07:55:18Z</time>
      </trkpt>
      <trkpt lat="37.16958" lon="-2.83928">
        <ele>918.7567</ele>
        <time>2021-07-18T07:55:29Z</time>
      </trkpt>
      <trkpt lat="37.17007" lon="-2.83878">
        <ele>922.4065</ele>
        <time>2021-07-18T07:55:40Z</time>
      </trkpt>
      <trkpt lat="37.17052" lon="-2.83836">
        <ele>927.9781</ele>
        <time>2021-07-18T07:55:51Z</time>
      </trkpt>
      <trkpt lat="37.17075" lon="-2.83866">
        <ele>929.2142</ele>
        <time>2021-07-18T07:56:02Z</time>
      </trkpt>
      <trkpt lat="37.17126" lon="-2.83868">
        <ele>932.3085</ele>
        <time>2021-07-18T07:56:13Z</time>
      </trkpt>
      <trkpt lat="37.17186" lon="-2.83909">
        <ele>931.9934</ele>
        <time>2021-07-18T07:56:24Z</time>
      </trkpt>
      <trkpt lat="37.17262" lon="-2.83977">
        <ele>927.6205</ele>
        <time>2021-07-18T07:56:35Z</time>
      </trkpt>
      <trkpt lat="37.17338" lon="-2.84023">
        <ele>924.314</ele>
        <time>2021-07-18T07:56:46Z</time>
      </trkpt>
      <trkpt lat="37.17445" lon="-2.83981">
        <ele>917.5252</ele>
        <time>2021-07-18T07:56:57Z</time>
      </trkpt>
      <trkpt lat="37.1754" lon="-2.84036">
        <ele>912.2197</ele>
        <time>2021-07-18T07:57:08Z</time>
      </trkpt>
      <trkpt lat="37.17622" lon="-2.8397">
        <ele>912.6784</ele>
        <time>2021-07-18T07:57:19Z</time>
      </trkpt>
      <trkpt lat="37.1772" lon="-2.84066">
        <ele>903.0552</ele>
        <time>2021-07-18T07:57:30Z</time>
      </trkpt>
      <trkpt lat="37.17834" lon="-2.84179">
        <ele>904.8189</ele>
        <time>2021-07-18T07:57:41Z</time>
      </trkpt>
      <trkpt lat="37.17942" lon="-2.84278">
        <ele>918.6118</ele>
        <time>2021-07-18T07:57:52Z</time>
      </trkpt>
      <trkpt lat="37.18026" lon="-2.8435">
        <ele>922.3207</ele>
        <time>2021-07-18T07:58:03Z</time>
      </trkpt>
      <trkpt lat="37.18111" lon="-2.84339">
        <ele>924.3728</ele>
        <time>2021-07-18T07:58:14Z</time>
      </trkpt>
      <trkpt lat="37.18245" lon="-2.84297">
        <ele>929.2585</ele>
        <time>2021-07-18T07:58:25Z</time>
      </trkpt>
      <trkpt lat="37.18382" lon="-2.84237">
        <ele>933.854</ele>
        <time>2021-07-18T07:58:36Z</time>
      </trkpt>
      <trkpt lat="37.18484" lon="-2.84189">
        <ele>935.0889</ele>
        <time>2021-07-18T07:58:47Z</time>
      </trkpt>
      <trkpt lat="37.18571" lon="-2.84137">
        <ele>937.7344</ele>
        <time>2021-07-18T07:58:58Z</time>
      </trkpt>
      <trkpt lat="37.18648" lon="-2.84081">
        <ele>945.7071</ele>
        <time>2021-07-18T07:59:09Z</time>
      </trkpt>
      <trkpt lat="37.18634" lon="-2.84011">
        <ele>945.1558</ele>
        <time>2021-07-18T07:59:20Z</time>
      </trkpt>
      <trkpt lat="37.1859" lon="-2.83974">
        <ele>948.4595</ele>
        <time>2021-07-18T07:59:31Z</time>
      </trkpt>
      <trkpt lat="37.18674" lon="-2.83807">
        <ele>959.5821</ele>
        <time>2021-07-18T07:59:42Z</time>
      </trkpt>
      <trkpt lat="37.18781" lon="-2.83676">
        <ele>970.3405</ele>
        <time>2021-07-18T07:59:53Z</time>
      </trkpt>
      <trkpt lat="37.18853" lon="-2.83609">
        <ele>975.7997</ele>
        <time>2021-07-18T08:00:04Z</time>
      </trkpt>
      <trkpt lat="37.18931" lon="-2.83468">
        <ele>986.2206</ele>
        <time>2021-07-18T08:00:15Z</time>
      </trkpt>
      <trkpt lat="37.19016" lon="-2.83385">
        <ele>996.8676</ele>
        <time>2021-07-18T08:00:26Z</time>
      </trkpt>
      <trkpt lat="37.19115" lon="-2.83261">
        <ele>1007.174</ele>
        <time>2021-07-18T08:00:37Z</time>
      </trkpt>
      <trkpt lat="37.1922" lon="-2.83193">
        <ele>1016.7</ele>
        <time>2021-07-18T08:00:48Z</time>
      </trkpt>
      <trkpt lat="37.19271" lon="-2.83099">
        <ele>1020.892</ele>
        <time>2021-07-18T08:00:59Z</time>
      </trkpt>
      <trkpt lat="37.19376" lon="-2.8308">
        <ele>1038.942</ele>
        <time>2021-07-18T08:01:10Z</time>
      </trkpt>
      <trkpt lat="37.19481" lon="-2.83046">
        <ele>1038.077</ele>
        <time>2021-07-18T08:01:21Z</time>
      </trkpt>
      <trkpt lat="37.19586" lon="-2.83015">
        <ele>1047.599</ele>
        <time>2021-07-18T08:01:32Z</time>
      </trkpt>
      <trkpt lat="37.19669" lon="-2.82975">
        <ele>1054.037</ele>
        <time>2021-07-18T08:01:43Z</time>
      </trkpt>
      <trkpt lat="37.19687" lon="-2.82946">
        <ele>1058.413</ele>
        <time>2021-07-18T08:01:54Z</time>
      </trkpt>
      <trkpt lat="37.19611" lon="-2.82883">
        <ele>1069.105</ele>
        <time>2021-07-18T08:02:05Z</time>
      </trkpt>
      <trkpt lat="37.19602" lon="-2.8281">
        <ele>1074.67</ele>
        <time>2021-07-18T08:02:16Z</time>
      </trkpt>
      <trkpt lat="37.19698" lon="-2.8277">
        <ele>1084.55</ele>
        <time>2021-07-18T08:02:27Z</time>
      </trkpt>
      <trkpt lat="37.1979" lon="-2.82714">
        <ele>1095.82</ele>
        <time>2021-07-18T08:02:38Z</time>
      </trkpt>
      <trkpt lat="37.19866" lon="-2.82626">
        <ele>1109.015</ele>
        <time>2021-07-18T08:02:49Z</time>
      </trkpt>
      <trkpt lat="37.19921" lon="-2.82533">
        <ele>1123.983</ele>
        <time>2021-07-18T08:03:00Z</time>
      </trkpt>
      <trkpt lat="37.2" lon="-2.82514">
        <ele>1127.374</ele>
        <time>2021-07-18T08:03:11Z</time>
      </trkpt>
      <trkpt lat="37.2007" lon="-2.82467">
        <ele>1133.652</ele>
        <time>2021-07-18T08:03:22Z</time>
      </trkpt>
      <trkpt lat="37.20156" lon="-2.82469">
        <ele>1140.738</ele>
        <time>2021-07-18T08:03:33Z</time>
      </trkpt>
      <trkpt lat="37.20253" lon="-2.82473">
        <ele>1149.824</ele>
        <time>2021-07-18T08:03:44Z</time>
      </trkpt>
      <trkpt lat="37.20306" lon="-2.82417">
        <ele>1147.202</ele>
        <time>2021-07-18T08:03:55Z</time>
      </trkpt>
      <trkpt lat="37.2033" lon="-2.82442">
        <ele>1152.329</ele>
        <time>2021-07-18T08:04:06Z</time>
      </trkpt>
      <trkpt lat="37.20371" lon="-2.82422">
        <ele>1165.006</ele>
        <time>2021-07-18T08:04:17Z</time>
      </trkpt>
      <trkpt lat="37.20436" lon="-2.8239">
        <ele>1178.457</ele>
        <time>2021-07-18T08:04:28Z</time>
      </trkpt>
      <trkpt lat="37.20494" lon="-2.82366">
        <ele>1192.257</ele>
        <time>2021-07-18T08:04:39Z</time>
      </trkpt>
      <trkpt lat="37.20536" lon="-2.8234">
        <ele>1204.59</ele>
        <time>2021-07-18T08:04:50Z</time>
      </trkpt>
      <trkpt lat="37.20532" lon="-2.8234">
        <ele>1224.271</ele>
        <time>2021-07-18T08:05:02Z</time>
      </trkpt>
      <trkpt lat="37.20537" lon="-2.82339">
        <ele>1206.272</ele>
        <time>2021-07-18T08:05:13Z</time>
      </trkpt>
      <trkpt lat="37.20535" lon="-2.82341">
        <ele>1203.73</ele>
        <time>2021-07-18T08:06:13Z</time>
      </trkpt>
      <trkpt lat="37.20538" lon="-2.8234">
        <ele>1202.051</ele>
        <time>2021-07-18T08:07:13Z</time>
      </trkpt>
      <trkpt lat="37.20538" lon="-2.8234">
        <ele>1201.722</ele>
        <time>2021-07-18T08:08:13Z</time>
      </trkpt>
      <trkpt lat="37.20537" lon="-2.82338">
        <ele>1202.682</ele>
        <time>2021-07-18T08:09:13Z</time>
      </trkpt>
      <trkpt lat="37.20537" lon="-2.8234">
        <ele>1204.244</ele>
        <time>2021-07-18T08:10:13Z</time>
      </trkpt>
      <trkpt lat="37.20537" lon="-2.8234">
        <ele>1204.244</ele>
        <time>2021-07-18T08:11:13Z</time>
      </trkpt>
      <trkpt lat="37.20541" lon="-2.82337">
        <ele>1206.197</ele>
        <time>2021-07-18T08:12:10Z</time>
      </trkpt>
      <trkpt lat="37.20551" lon="-2.8233">
        <ele>1206.106</ele>
        <time>2021-07-18T08:12:21Z</time>
      </trkpt>
      <trkpt lat="37.20551" lon="-2.8233">
        <ele>1203.535</ele>
        <time>2021-07-18T08:13:21Z</time>
      </trkpt>
      <trkpt lat="37.20551" lon="-2.8233">
        <ele>1202.63</ele>
        <time>2021-07-18T08:14:20Z</time>
      </trkpt>
      <trkpt lat="37.20589" lon="-2.82302">
        <ele>1212.216</ele>
        <time>2021-07-18T08:14:31Z</time>
      </trkpt>
      <trkpt lat="37.20609" lon="-2.82257">
        <ele>1222.339</ele>
        <time>2021-07-18T08:14:42Z</time>
      </trkpt>
      <trkpt lat="37.2065" lon="-2.82261">
        <ele>1228.473</ele>
        <time>2021-07-18T08:14:53Z</time>
      </trkpt>
      <trkpt lat="37.20685" lon="-2.82251">
        <ele>1235.053</ele>
        <time>2021-07-18T08:15:04Z</time>
      </trkpt>
      <trkpt lat="37.20743" lon="-2.82219">
        <ele>1250.145</ele>
        <time>2021-07-18T08:15:15Z</time>
      </trkpt>
      <trkpt lat="37.20789" lon="-2.82251">
        <ele>1256.103</ele>
        <time>2021-07-18T08:15:26Z</time>
      </trkpt>
      <trkpt lat="37.20808" lon="-2.82222">
        <ele>1263.652</ele>
        <time>2021-07-18T08:15:37Z</time>
      </trkpt>
      <trkpt lat="37.20837" lon="-2.82209">
        <ele>1270.64</ele>
        <time>2021-07-18T08:15:48Z</time>
      </trkpt>
      <trkpt lat="37.20883" lon="-2.82197">
        <ele>1280.369</ele>
        <time>2021-07-18T08:15:59Z</time>
      </trkpt>
      <trkpt lat="37.20901" lon="-2.82127">
        <ele>1294.546</ele>
        <time>2021-07-18T08:16:10Z</time>
      </trkpt>
      <trkpt lat="37.20968" lon="-2.82064">
        <ele>1309.939</ele>
        <time>2021-07-18T08:16:21Z</time>
      </trkpt>
      <trkpt lat="37.21046" lon="-2.82035">
        <ele>1325.367</ele>
        <time>2021-07-18T08:16:32Z</time>
      </trkpt>
      <trkpt lat="37.21094" lon="-2.82024">
        <ele>1326.726</ele>
        <time>2021-07-18T08:16:43Z</time>
      </trkpt>
      <trkpt lat="37.21153" lon="-2.82028">
        <ele>1334.787</ele>
        <time>2021-07-18T08:16:54Z</time>
      </trkpt>
      <trkpt lat="37.21112" lon="-2.82008">
        <ele>1338.12</ele>
        <time>2021-07-18T08:17:05Z</time>
      </trkpt>
      <trkpt lat="37.21042" lon="-2.81984">
        <ele>1340.709</ele>
        <time>2021-07-18T08:17:16Z</time>
      </trkpt>
      <trkpt lat="37.20966" lon="-2.81925">
        <ele>1343.557</ele>
        <time>2021-07-18T08:17:27Z</time>
      </trkpt>
      <trkpt lat="37.20917" lon="-2.81819">
        <ele>1343.623</ele>
        <time>2021-07-18T08:17:38Z</time>
      </trkpt>
      <trkpt lat="37.20954" lon="-2.81851">
        <ele>1352.746</ele>
        <time>2021-07-18T08:17:49Z</time>
      </trkpt>
      <trkpt lat="37.21046" lon="-2.81917">
        <ele>1362.94</ele>
        <time>2021-07-18T08:18:00Z</time>
      </trkpt>
      <trkpt lat="37.21162" lon="-2.81928">
        <ele>1373.386</ele>
        <time>2021-07-18T08:18:11Z</time>
      </trkpt>
      <trkpt lat="37.21272" lon="-2.81895">
        <ele>1383.268</ele>
        <time>2021-07-18T08:18:22Z</time>
      </trkpt>
      <trkpt lat="37.21332" lon="-2.81973">
        <ele>1385.324</ele>
        <time>2021-07-18T08:18:33Z</time>
      </trkpt>
      <trkpt lat="37.21471" lon="-2.81977">
        <ele>1395.142</ele>
        <time>2021-07-18T08:18:44Z</time>
      </trkpt>
      <trkpt lat="37.2156" lon="-2.81932">
        <ele>1400.711</ele>
        <time>2021-07-18T08:18:55Z</time>
      </trkpt>
      <trkpt lat="37.21613" lon="-2.81859">
        <ele>1402.803</ele>
        <time>2021-07-18T08:19:06Z</time>
      </trkpt>
      <trkpt lat="37.21538" lon="-2.81754">
        <ele>1403.616</ele>
        <time>2021-07-18T08:19:17Z</time>
      </trkpt>
      <trkpt lat="37.21544" lon="-2.81618">
        <ele>1405.299</ele>
        <time>2021-07-18T08:19:28Z</time>
      </trkpt>
      <trkpt lat="37.2147" lon="-2.81515">
        <ele>1402.903</ele>
        <time>2021-07-18T08:19:39Z</time>
      </trkpt>
      <trkpt lat="37.21383" lon="-2.8144">
        <ele>1403.364</ele>
        <time>2021-07-18T08:19:50Z</time>
      </trkpt>
      <trkpt lat="37.2133" lon="-2.81351">
        <ele>1404.275</ele>
        <time>2021-07-18T08:20:01Z</time>
      </trkpt>
      <trkpt lat="37.2126" lon="-2.81225">
        <ele>1410.617</ele>
        <time>2021-07-18T08:20:12Z</time>
      </trkpt>
      <trkpt lat="37.21263" lon="-2.81127">
        <ele>1415.265</ele>
        <time>2021-07-18T08:20:23Z</time>
      </trkpt>
      <trkpt lat="37.21372" lon="-2.81116">
        <ele>1411.146</ele>
        <time>2021-07-18T08:20:34Z</time>
      </trkpt>
      <trkpt lat="37.21432" lon="-2.81203">
        <ele>1407.909</ele>
        <time>2021-07-18T08:20:45Z</time>
      </trkpt>
      <trkpt lat="37.21544" lon="-2.81178">
        <ele>1409.016</ele>
        <time>2021-07-18T08:20:56Z</time>
      </trkpt>
      <trkpt lat="37.21615" lon="-2.8109">
        <ele>1415.773</ele>
        <time>2021-07-18T08:21:07Z</time>
      </trkpt>
      <trkpt lat="37.21702" lon="-2.81034">
        <ele>1424.627</ele>
        <time>2021-07-18T08:21:18Z</time>
      </trkpt>
      <trkpt lat="37.21783" lon="-2.80979">
        <ele>1429.896</ele>
        <time>2021-07-18T08:21:29Z</time>
      </trkpt>
      <trkpt lat="37.21748" lon="-2.80869">
        <ele>1432.083</ele>
        <time>2021-07-18T08:21:40Z</time>
      </trkpt>
      <trkpt lat="37.21832" lon="-2.8087">
        <ele>1430.967</ele>
        <time>2021-07-18T08:21:51Z</time>
      </trkpt>
      <trkpt lat="37.21873" lon="-2.8079">
        <ele>1434.708</ele>
        <time>2021-07-18T08:22:02Z</time>
      </trkpt>
      <trkpt lat="37.21923" lon="-2.80935">
        <ele>1438.996</ele>
        <time>2021-07-18T08:22:13Z</time>
      </trkpt>
      <trkpt lat="37.21963" lon="-2.80866">
        <ele>1437.372</ele>
        <time>2021-07-18T08:22:24Z</time>
      </trkpt>
      <trkpt lat="37.22024" lon="-2.80907">
        <ele>1432.396</ele>
        <time>2021-07-18T08:22:35Z</time>
      </trkpt>
      <trkpt lat="37.22149" lon="-2.80993">
        <ele>1422.03</ele>
        <time>2021-07-18T08:22:46Z</time>
      </trkpt>
      <trkpt lat="37.22262" lon="-2.80934">
        <ele>1413.415</ele>
        <time>2021-07-18T08:22:57Z</time>
      </trkpt>
      <trkpt lat="37.22372" lon="-2.80876">
        <ele>1413.51</ele>
        <time>2021-07-18T08:23:08Z</time>
      </trkpt>
      <trkpt lat="37.22427" lon="-2.80851">
        <ele>1417.084</ele>
        <time>2021-07-18T08:23:19Z</time>
      </trkpt>
      <trkpt lat="37.22387" lon="-2.80997">
        <ele>1418.339</ele>
        <time>2021-07-18T08:23:30Z</time>
      </trkpt>
      <trkpt lat="37.22468" lon="-2.81054">
        <ele>1412.4</ele>
        <time>2021-07-18T08:23:41Z</time>
      </trkpt>
      <trkpt lat="37.2252" lon="-2.81099">
        <ele>1416.545</ele>
        <time>2021-07-18T08:23:52Z</time>
      </trkpt>
      <trkpt lat="37.22446" lon="-2.81213">
        <ele>1411.985</ele>
        <time>2021-07-18T08:24:03Z</time>
      </trkpt>
      <trkpt lat="37.22492" lon="-2.81318">
        <ele>1407.635</ele>
        <time>2021-07-18T08:24:14Z</time>
      </trkpt>
      <trkpt lat="37.22502" lon="-2.81433">
        <ele>1406.963</ele>
        <time>2021-07-18T08:24:25Z</time>
      </trkpt>
      <trkpt lat="37.22449" lon="-2.81544">
        <ele>1414.95</ele>
        <time>2021-07-18T08:24:36Z</time>
      </trkpt>
      <trkpt lat="37.22551" lon="-2.8167">
        <ele>1405.557</ele>
        <time>2021-07-18T08:24:47Z</time>
      </trkpt>
      <trkpt lat="37.2257" lon="-2.81575">
        <ele>1405.164</ele>
        <time>2021-07-18T08:24:58Z</time>
      </trkpt>
      <trkpt lat="37.22642" lon="-2.81487">
        <ele>1403.559</ele>
        <time>2021-07-18T08:25:09Z</time>
      </trkpt>
      <trkpt lat="37.22703" lon="-2.81348">
        <ele>1391.264</ele>
        <time>2021-07-18T08:25:20Z</time>
      </trkpt>
      <trkpt lat="37.22784" lon="-2.81248">
        <ele>1388.487</ele>
        <time>2021-07-18T08:25:31Z</time>
      </trkpt>
      <trkpt lat="37.22832" lon="-2.81223">
        <ele>1388.899</ele>
        <time>2021-07-18T08:25:42Z</time>
      </trkpt>
      <trkpt lat="37.2291" lon="-2.81194">
        <ele>1392.525</ele>
        <time>2021-07-18T08:25:53Z</time>
      </trkpt>
      <trkpt lat="37.23016" lon="-2.81116">
        <ele>1405.213</ele>
        <time>2021-07-18T08:26:04Z</time>
      </trkpt>
      <trkpt lat="37.2303" lon="-2.81166">
        <ele>1407.947</ele>
        <time>2021-07-18T08:26:15Z</time>
      </trkpt>
      <trkpt lat="37.22941" lon="-2.8127">
        <ele>1405.706</ele>
        <time>2021-07-18T08:26:26Z</time>
      </trkpt>
      <trkpt lat="37.22874" lon="-2.81412">
        <ele>1412.988</ele>
        <time>2021-07-18T08:26:37Z</time>
      </trkpt>
      <trkpt lat="37.22925" lon="-2.81496">
        <ele>1421.104</ele>
        <time>2021-07-18T08:26:49Z</time>
      </trkpt>
      <trkpt lat="37.23017" lon="-2.81579">
        <ele>1424.965</ele>
        <time>2021-07-18T08:27:00Z</time>
      </trkpt>
      <trkpt lat="37.23024" lon="-2.81638">
        <ele>1431.375</ele>
        <time>2021-07-18T08:27:11Z</time>
      </trkpt>
      <trkpt lat="37.22935" lon="-2.81723">
        <ele>1438.264</ele>
        <time>2021-07-18T08:27:22Z</time>
      </trkpt>
      <trkpt lat="37.22982" lon="-2.81848">
        <ele>1438.178</ele>
        <time>2021-07-18T08:27:33Z</time>
      </trkpt>
      <trkpt lat="37.23015" lon="-2.81965">
        <ele>1445.015</ele>
        <time>2021-07-18T08:27:44Z</time>
      </trkpt>
      <trkpt lat="37.23131" lon="-2.82046">
        <ele>1456.714</ele>
        <time>2021-07-18T08:27:55Z</time>
      </trkpt>
      <trkpt lat="37.2328" lon="-2.82053">
        <ele>1464.172</ele>
        <time>2021-07-18T08:28:06Z</time>
      </trkpt>
      <trkpt lat="37.23355" lon="-2.82096">
        <ele>1472.89</ele>
        <time>2021-07-18T08:28:17Z</time>
      </trkpt>
      <trkpt lat="37.23479" lon="-2.82084">
        <ele>1478.915</ele>
        <time>2021-07-18T08:28:28Z</time>
      </trkpt>
      <trkpt lat="37.23473" lon="-2.8218">
        <ele>1482.339</ele>
        <time>2021-07-18T08:28:39Z</time>
      </trkpt>
      <trkpt lat="37.2354" lon="-2.82285">
        <ele>1487.89</ele>
        <time>2021-07-18T08:28:50Z</time>
      </trkpt>
      <trkpt lat="37.23663" lon="-2.82317">
        <ele>1492.127</ele>
        <time>2021-07-18T08:29:01Z</time>
      </trkpt>
      <trkpt lat="37.23762" lon="-2.82328">
        <ele>1493.828</ele>
        <time>2021-07-18T08:29:12Z</time>
      </trkpt>
      <trkpt lat="37.23826" lon="-2.8219">
        <ele>1502.881</ele>
        <time>2021-07-18T08:29:23Z</time>
      </trkpt>
      <trkpt lat="37.23839" lon="-2.82046">
        <ele>1517.096</ele>
        <time>2021-07-18T08:29:34Z</time>
      </trkpt>
      <trkpt lat="37.23885" lon="-2.81941">
        <ele>1532.834</ele>
        <time>2021-07-18T08:29:45Z</time>
      </trkpt>
      <trkpt lat="37.23964" lon="-2.81801">
        <ele>1541.595</ele>
        <time>2021-07-18T08:29:56Z</time>
      </trkpt>
      <trkpt lat="37.24038" lon="-2.81667">
        <ele>1551.46</ele>
        <time>2021-07-18T08:30:07Z</time>
      </trkpt>
      <trkpt lat="37.241" lon="-2.81575">
        <ele>1549.984</ele>
        <time>2021-07-18T08:30:18Z</time>
      </trkpt>
      <trkpt lat="37.24162" lon="-2.81607">
        <ele>1546.48</ele>
        <time>2021-07-18T08:30:29Z</time>
      </trkpt>
      <trkpt lat="37.24231" lon="-2.817">
        <ele>1546.872</ele>
        <time>2021-07-18T08:30:40Z</time>
      </trkpt>
      <trkpt lat="37.24221" lon="-2.81818">
        <ele>1550.065</ele>
        <time>2021-07-18T08:30:51Z</time>
      </trkpt>
      <trkpt lat="37.24279" lon="-2.81872">
        <ele>1548.685</ele>
        <time>2021-07-18T08:31:02Z</time>
      </trkpt>
      <trkpt lat="37.24241" lon="-2.81984">
        <ele>1550.405</ele>
        <time>2021-07-18T08:31:13Z</time>
      </trkpt>
      <trkpt lat="37.2424" lon="-2.82153">
        <ele>1551.993</ele>
        <time>2021-07-18T08:31:24Z</time>
      </trkpt>
      <trkpt lat="37.24257" lon="-2.82106">
        <ele>1560.41</ele>
        <time>2021-07-18T08:31:35Z</time>
      </trkpt>
      <trkpt lat="37.24323" lon="-2.82107">
        <ele>1558.413</ele>
        <time>2021-07-18T08:31:46Z</time>
      </trkpt>
      <trkpt lat="37.24378" lon="-2.81867">
        <ele>1583.616</ele>
        <time>2021-07-18T08:31:57Z</time>
      </trkpt>
      <trkpt lat="37.24377" lon="-2.81861">
        <ele>1579.944</ele>
        <time>2021-07-18T08:32:11Z</time>
      </trkpt>
      <trkpt lat="37.24317" lon="-2.81754">
        <ele>1590.796</ele>
        <time>2021-07-18T08:32:22Z</time>
      </trkpt>
      <trkpt lat="37.24408" lon="-2.81841">
        <ele>1598.151</ele>
        <time>2021-07-18T08:32:33Z</time>
      </trkpt>
      <trkpt lat="37.24408" lon="-2.81997">
        <ele>1606.707</ele>
        <time>2021-07-18T08:32:44Z</time>
      </trkpt>
      <trkpt lat="37.24443" lon="-2.82163">
        <ele>1612.167</ele>
        <time>2021-07-18T08:32:55Z</time>
      </trkpt>
      <trkpt lat="37.24558" lon="-2.82175">
        <ele>1624.003</ele>
        <time>2021-07-18T08:33:06Z</time>
      </trkpt>
      <trkpt lat="37.24625" lon="-2.82264">
        <ele>1631.754</ele>
        <time>2021-07-18T08:33:17Z</time>
      </trkpt>
      <trkpt lat="37.24621" lon="-2.82369">
        <ele>1639.003</ele>
        <time>2021-07-18T08:33:28Z</time>
      </trkpt>
      <trkpt lat="37.24685" lon="-2.82512">
        <ele>1652.362</ele>
        <time>2021-07-18T08:33:39Z</time>
      </trkpt>
      <trkpt lat="37.24631" lon="-2.82684">
        <ele>1661.427</ele>
        <time>2021-07-18T08:33:50Z</time>
      </trkpt>
      <trkpt lat="37.2459" lon="-2.82855">
        <ele>1674.354</ele>
        <time>2021-07-18T08:34:01Z</time>
      </trkpt>
      <trkpt lat="37.24664" lon="-2.82892">
        <ele>1678.76</ele>
        <time>2021-07-18T08:34:12Z</time>
      </trkpt>
      <trkpt lat="37.24683" lon="-2.82778">
        <ele>1682.545</ele>
        <time>2021-07-18T08:34:23Z</time>
      </trkpt>
      <trkpt lat="37.2469" lon="-2.82733">
        <ele>1685.917</ele>
        <time>2021-07-18T08:34:34Z</time>
      </trkpt>
      <trkpt lat="37.2469" lon="-2.82733">
        <ele>1687.069</ele>
        <time>2021-07-18T08:35:33Z</time>
      </trkpt>
      <trkpt lat="37.2469" lon="-2.82733">
        <ele>1687.069</ele>
        <time>2021-07-18T08:36:32Z</time>
      </trkpt>
      <trkpt lat="37.2469" lon="-2.82733">
        <ele>1687.069</ele>
        <time>2021-07-18T08:37:32Z</time>
      </trkpt>
      <trkpt lat="37.24695" lon="-2.8273">
        <ele>1686.172</ele>
        <time>2021-07-18T08:37:57Z</time>
      </trkpt>
      <trkpt lat="37.24761" lon="-2.82726">
        <ele>1690.326</ele>
        <time>2021-07-18T08:38:08Z</time>
      </trkpt>
      <trkpt lat="37.24882" lon="-2.82666">
        <ele>1706.458</ele>
        <time>2021-07-18T08:38:19Z</time>
      </trkpt>
      <trkpt lat="37.24946" lon="-2.82495">
        <ele>1719.103</ele>
        <time>2021-07-18T08:38:30Z</time>
      </trkpt>
      <trkpt lat="37.24999" lon="-2.82362">
        <ele>1733.691</ele>
        <time>2021-07-18T08:38:41Z</time>
      </trkpt>
      <trkpt lat="37.25063" lon="-2.82237">
        <ele>1744.606</ele>
        <time>2021-07-18T08:38:52Z</time>
      </trkpt>
      <trkpt lat="37.25035" lon="-2.82116">
        <ele>1754.796</ele>
        <time>2021-07-18T08:39:03Z</time>
      </trkpt>
      <trkpt lat="37.25073" lon="-2.82037">
        <ele>1760.545</ele>
        <time>2021-07-18T08:39:14Z</time>
      </trkpt>
      <trkpt lat="37.25127" lon="-2.81869">
        <ele>1768.452</ele>
        <time>2021-07-18T08:39:25Z</time>
      </trkpt>
      <trkpt lat="37.25113" lon="-2.81765">
        <ele>1773.83</ele>
        <time>2021-07-18T08:39:36Z</time>
      </trkpt>
      <trkpt lat="37.2513" lon="-2.81615">
        <ele>1784.77</ele>
        <time>2021-07-18T08:39:47Z</time>
      </trkpt>
      <trkpt lat="37.25062" lon="-2.81438">
        <ele>1799.573</ele>
        <time>2021-07-18T08:39:58Z</time>
      </trkpt>
      <trkpt lat="37.25005" lon="-2.81241">
        <ele>1812.083</ele>
        <time>2021-07-18T08:40:09Z</time>
      </trkpt>
      <trkpt lat="37.24983" lon="-2.81033">
        <ele>1822.325</ele>
        <time>2021-07-18T08:40:20Z</time>
      </trkpt>
      <trkpt lat="37.25103" lon="-2.80924">
        <ele>1835.847</ele>
        <time>2021-07-18T08:40:31Z</time>
      </trkpt>
      <trkpt lat="37.25025" lon="-2.80883">
        <ele>1850.423</ele>
        <time>2021-07-18T08:40:42Z</time>
      </trkpt>
      <trkpt lat="37.24895" lon="-2.80804">
        <ele>1855.152</ele>
        <time>2021-07-18T08:40:53Z</time>
      </trkpt>
      <trkpt lat="37.24922" lon="-2.80618">
        <ele>1861.34</ele>
        <time>2021-07-18T08:41:04Z</time>
      </trkpt>
      <trkpt lat="37.24998" lon="-2.8051">
        <ele>1858.88</ele>
        <time>2021-07-18T08:41:15Z</time>
      </trkpt>
      <trkpt lat="37.25032" lon="-2.8037">
        <ele>1868.711</ele>
        <time>2021-07-18T08:41:26Z</time>
      </trkpt>
      <trkpt lat="37.2495" lon="-2.80347">
        <ele>1878.116</ele>
        <time>2021-07-18T08:41:37Z</time>
      </trkpt>
      <trkpt lat="37.24893" lon="-2.80242">
        <ele>1887.499</ele>
        <time>2021-07-18T08:41:48Z</time>
      </trkpt>
      <trkpt lat="37.24796" lon="-2.80274">
        <ele>1903.411</ele>
        <time>2021-07-18T08:41:59Z</time>
      </trkpt>
      <trkpt lat="37.24789" lon="-2.80145">
        <ele>1913.494</ele>
        <time>2021-07-18T08:42:10Z</time>
      </trkpt>
      <trkpt lat="37.24825" lon="-2.79935">
        <ele>1927.925</ele>
        <time>2021-07-18T08:42:21Z</time>
      </trkpt>
      <trkpt lat="37.24733" lon="-2.79828">
        <ele>1935.883</ele>
        <time>2021-07-18T08:42:32Z</time>
      </trkpt>
      <trkpt lat="37.24629" lon="-2.79694">
        <ele>1935.667</ele>
        <time>2021-07-18T08:42:43Z</time>
      </trkpt>
      <trkpt lat="37.24609" lon="-2.79592">
        <ele>1928.248</ele>
        <time>2021-07-18T08:42:54Z</time>
      </trkpt>
      <trkpt lat="37.24599" lon="-2.79551">
        <ele>1927.887</ele>
        <time>2021-07-18T08:43:05Z</time>
      </trkpt>
      <trkpt lat="37.24594" lon="-2.7954">
        <ele>1925.6</ele>
        <time>2021-07-18T08:43:23Z</time>
      </trkpt>
      <trkpt lat="37.24554" lon="-2.79401">
        <ele>1926.809</ele>
        <time>2021-07-18T08:43:34Z</time>
      </trkpt>
      <trkpt lat="37.24602" lon="-2.7932">
        <ele>1925.134</ele>
        <time>2021-07-18T08:43:45Z</time>
      </trkpt>
      <trkpt lat="37.24687" lon="-2.79304">
        <ele>1916.465</ele>
        <time>2021-07-18T08:43:56Z</time>
      </trkpt>
      <trkpt lat="37.24676" lon="-2.79217">
        <ele>1915.433</ele>
        <time>2021-07-18T08:44:07Z</time>
      </trkpt>
      <trkpt lat="37.24614" lon="-2.79075">
        <ele>1916.495</ele>
        <time>2021-07-18T08:44:18Z</time>
      </trkpt>
      <trkpt lat="37.24606" lon="-2.78951">
        <ele>1914.759</ele>
        <time>2021-07-18T08:44:29Z</time>
      </trkpt>
      <trkpt lat="37.24631" lon="-2.78805">
        <ele>1909.816</ele>
        <time>2021-07-18T08:44:40Z</time>
      </trkpt>
      <trkpt lat="37.24598" lon="-2.78684">
        <ele>1913.585</ele>
        <time>2021-07-18T08:44:51Z</time>
      </trkpt>
      <trkpt lat="37.24552" lon="-2.78535">
        <ele>1926.935</ele>
        <time>2021-07-18T08:45:02Z</time>
      </trkpt>
      <trkpt lat="37.24542" lon="-2.78408">
        <ele>1938.051</ele>
        <time>2021-07-18T08:45:13Z</time>
      </trkpt>
      <trkpt lat="37.24471" lon="-2.78254">
        <ele>1937.865</ele>
        <time>2021-07-18T08:45:24Z</time>
      </trkpt>
      <trkpt lat="37.24393" lon="-2.78295">
        <ele>1933.397</ele>
        <time>2021-07-18T08:45:35Z</time>
      </trkpt>
      <trkpt lat="37.24338" lon="-2.78168">
        <ele>1934.413</ele>
        <time>2021-07-18T08:45:46Z</time>
      </trkpt>
      <trkpt lat="37.24335" lon="-2.78048">
        <ele>1939.977</ele>
        <time>2021-07-18T08:45:57Z</time>
      </trkpt>
      <trkpt lat="37.24298" lon="-2.77887">
        <ele>1949.296</ele>
        <time>2021-07-18T08:46:08Z</time>
      </trkpt>
      <trkpt lat="37.24283" lon="-2.77728">
        <ele>1952.061</ele>
        <time>2021-07-18T08:46:19Z</time>
      </trkpt>
      <trkpt lat="37.2417" lon="-2.7765">
        <ele>1949.381</ele>
        <time>2021-07-18T08:46:30Z</time>
      </trkpt>
      <trkpt lat="37.24178" lon="-2.7752">
        <ele>1947.574</ele>
        <time>2021-07-18T08:46:41Z</time>
      </trkpt>
      <trkpt lat="37.24195" lon="-2.77391">
        <ele>1945.095</ele>
        <time>2021-07-18T08:46:52Z</time>
      </trkpt>
      <trkpt lat="37.24225" lon="-2.77336">
        <ele>1944.764</ele>
        <time>2021-07-18T08:47:03Z</time>
      </trkpt>
      <trkpt lat="37.24215" lon="-2.77324">
        <ele>1942.043</ele>
        <time>2021-07-18T08:47:22Z</time>
      </trkpt>
      <trkpt lat="37.24098" lon="-2.77226">
        <ele>1934.439</ele>
        <time>2021-07-18T08:47:33Z</time>
      </trkpt>
      <trkpt lat="37.23943" lon="-2.77123">
        <ele>1924.76</ele>
        <time>2021-07-18T08:47:44Z</time>
      </trkpt>
      <trkpt lat="37.23873" lon="-2.76946">
        <ele>1917.424</ele>
        <time>2021-07-18T08:47:55Z</time>
      </trkpt>
      <trkpt lat="37.23741" lon="-2.76724">
        <ele>1922.152</ele>
        <time>2021-07-18T08:48:06Z</time>
      </trkpt>
      <trkpt lat="37.23633" lon="-2.76524">
        <ele>1927.629</ele>
        <time>2021-07-18T08:48:17Z</time>
      </trkpt>
      <trkpt lat="37.23458" lon="-2.76463">
        <ele>1926.738</ele>
        <time>2021-07-18T08:48:28Z</time>
      </trkpt>
      <trkpt lat="37.23246" lon="-2.76349">
        <ele>1923.5</ele>
        <time>2021-07-18T08:48:39Z</time>
      </trkpt>
      <trkpt lat="37.23132" lon="-2.76151">
        <ele>1917.419</ele>
        <time>2021-07-18T08:48:50Z</time>
      </trkpt>
      <trkpt lat="37.23022" lon="-2.75866">
        <ele>1904.864</ele>
        <time>2021-07-18T08:49:01Z</time>
      </trkpt>
      <trkpt lat="37.22918" lon="-2.75609">
        <ele>1893.411</ele>
        <time>2021-07-18T08:49:12Z</time>
      </trkpt>
      <trkpt lat="37.22807" lon="-2.75344">
        <ele>1881.828</ele>
        <time>2021-07-18T08:49:23Z</time>
      </trkpt>
      <trkpt lat="37.22696" lon="-2.7514">
        <ele>1866.146</ele>
        <time>2021-07-18T08:49:34Z</time>
      </trkpt>
      <trkpt lat="37.22501" lon="-2.75081">
        <ele>1852.194</ele>
        <time>2021-07-18T08:49:45Z</time>
      </trkpt>
      <trkpt lat="37.22356" lon="-2.74964">
        <ele>1839.756</ele>
        <time>2021-07-18T08:49:56Z</time>
      </trkpt>
      <trkpt lat="37.22367" lon="-2.74796">
        <ele>1828.334</ele>
        <time>2021-07-18T08:50:07Z</time>
      </trkpt>
      <trkpt lat="37.22299" lon="-2.74641">
        <ele>1816.78</ele>
        <time>2021-07-18T08:50:18Z</time>
      </trkpt>
      <trkpt lat="37.22264" lon="-2.74475">
        <ele>1807.862</ele>
        <time>2021-07-18T08:50:29Z</time>
      </trkpt>
      <trkpt lat="37.2224" lon="-2.74255">
        <ele>1797.897</ele>
        <time>2021-07-18T08:50:40Z</time>
      </trkpt>
      <trkpt lat="37.22221" lon="-2.74096">
        <ele>1788.019</ele>
        <time>2021-07-18T08:50:51Z</time>
      </trkpt>
      <trkpt lat="37.22223" lon="-2.73891">
        <ele>1775.911</ele>
        <time>2021-07-18T08:51:02Z</time>
      </trkpt>
      <trkpt lat="37.2231" lon="-2.73683">
        <ele>1766.727</ele>
        <time>2021-07-18T08:51:13Z</time>
      </trkpt>
      <trkpt lat="37.2236" lon="-2.73539">
        <ele>1769.553</ele>
        <time>2021-07-18T08:51:24Z</time>
      </trkpt>
      <trkpt lat="37.22341" lon="-2.7344">
        <ele>1773.162</ele>
        <time>2021-07-18T08:51:35Z</time>
      </trkpt>
      <trkpt lat="37.22358" lon="-2.73275">
        <ele>1777.452</ele>
        <time>2021-07-18T08:51:46Z</time>
      </trkpt>
      <trkpt lat="37.22318" lon="-2.7321">
        <ele>1781.113</ele>
        <time>2021-07-18T08:51:57Z</time>
      </trkpt>
      <trkpt lat="37.22225" lon="-2.73118">
        <ele>1772.525</ele>
        <time>2021-07-18T08:52:08Z</time>
      </trkpt>
      <trkpt lat="37.22106" lon="-2.73112">
        <ele>1768.622</ele>
        <time>2021-07-18T08:52:19Z</time>
      </trkpt>
      <trkpt lat="37.21985" lon="-2.72994">
        <ele>1752.522</ele>
        <time>2021-07-18T08:52:30Z</time>
      </trkpt>
      <trkpt lat="37.21876" lon="-2.72922">
        <ele>1748.862</ele>
        <time>2021-07-18T08:52:41Z</time>
      </trkpt>
      <trkpt lat="37.21786" lon="-2.72931">
        <ele>1743.912</ele>
        <time>2021-07-18T08:52:52Z</time>
      </trkpt>
      <trkpt lat="37.2174" lon="-2.72896">
        <ele>1740.566</ele>
        <time>2021-07-18T08:53:03Z</time>
      </trkpt>
      <trkpt lat="37.2174" lon="-2.72901">
        <ele>1731.408</ele>
        <time>2021-07-18T08:53:27Z</time>
      </trkpt>
      <trkpt lat="37.2174" lon="-2.72896">
        <ele>1735.055</ele>
        <time>2021-07-18T08:53:49Z</time>
      </trkpt>
      <trkpt lat="37.2174" lon="-2.72896">
        <ele>1741.138</ele>
        <time>2021-07-18T08:54:49Z</time>
      </trkpt>
      <trkpt lat="37.21735" lon="-2.72892">
        <ele>1742.504</ele>
        <time>2021-07-18T08:55:25Z</time>
      </trkpt>
      <trkpt lat="37.21684" lon="-2.72779">
        <ele>1737.356</ele>
        <time>2021-07-18T08:55:36Z</time>
      </trkpt>
      <trkpt lat="37.21722" lon="-2.72653">
        <ele>1734.714</ele>
        <time>2021-07-18T08:55:47Z</time>
      </trkpt>
      <trkpt lat="37.21784" lon="-2.72584">
        <ele>1734.164</ele>
        <time>2021-07-18T08:55:58Z</time>
      </trkpt>
      <trkpt lat="37.21697" lon="-2.72442">
        <ele>1727.999</ele>
        <time>2021-07-18T08:56:09Z</time>
      </trkpt>
      <trkpt lat="37.21685" lon="-2.72322">
        <ele>1717.675</ele>
        <time>2021-07-18T08:56:20Z</time>
      </trkpt>
      <trkpt lat="37.21799" lon="-2.72261">
        <ele>1718.633</ele>
        <time>2021-07-18T08:56:31Z</time>
      </trkpt>
      <trkpt lat="37.21848" lon="-2.72142">
        <ele>1710.615</ele>
        <time>2021-07-18T08:56:42Z</time>
      </trkpt>
      <trkpt lat="37.21981" lon="-2.72034">
        <ele>1704.275</ele>
        <time>2021-07-18T08:56:53Z</time>
      </trkpt>
      <trkpt lat="37.22005" lon="-2.71951">
        <ele>1704.98</ele>
        <time>2021-07-18T08:57:04Z</time>
      </trkpt>
      <trkpt lat="37.21989" lon="-2.71779">
        <ele>1711.74</ele>
        <time>2021-07-18T08:57:15Z</time>
      </trkpt>
      <trkpt lat="37.21868" lon="-2.71689">
        <ele>1714.346</ele>
        <time>2021-07-18T08:57:26Z</time>
      </trkpt>
      <trkpt lat="37.21875" lon="-2.71517">
        <ele>1721.504</ele>
        <time>2021-07-18T08:57:37Z</time>
      </trkpt>
      <trkpt lat="37.21834" lon="-2.71404">
        <ele>1718.612</ele>
        <time>2021-07-18T08:57:48Z</time>
      </trkpt>
      <trkpt lat="37.21745" lon="-2.71326">
        <ele>1710.103</ele>
        <time>2021-07-18T08:57:59Z</time>
      </trkpt>
      <trkpt lat="37.21735" lon="-2.71184">
        <ele>1706.672</ele>
        <time>2021-07-18T08:58:10Z</time>
      </trkpt>
      <trkpt lat="37.21643" lon="-2.71055">
        <ele>1701.803</ele>
        <time>2021-07-18T08:58:21Z</time>
      </trkpt>
      <trkpt lat="37.21626" lon="-2.7094">
        <ele>1700.393</ele>
        <time>2021-07-18T08:58:32Z</time>
      </trkpt>
      <trkpt lat="37.21568" lon="-2.7084">
        <ele>1701.214</ele>
        <time>2021-07-18T08:58:43Z</time>
      </trkpt>
      <trkpt lat="37.21568" lon="-2.70657">
        <ele>1701.292</ele>
        <time>2021-07-18T08:58:54Z</time>
      </trkpt>
      <trkpt lat="37.21549" lon="-2.70575">
        <ele>1703.302</ele>
        <time>2021-07-18T08:59:05Z</time>
      </trkpt>
      <trkpt lat="37.21465" lon="-2.70625">
        <ele>1683.791</ele>
        <time>2021-07-18T08:59:16Z</time>
      </trkpt>
      <trkpt lat="37.21335" lon="-2.70695">
        <ele>1681.806</ele>
        <time>2021-07-18T08:59:27Z</time>
      </trkpt>
      <trkpt lat="37.2118" lon="-2.7074">
        <ele>1670.269</ele>
        <time>2021-07-18T08:59:38Z</time>
      </trkpt>
      <trkpt lat="37.21045" lon="-2.70786">
        <ele>1666.941</ele>
        <time>2021-07-18T08:59:49Z</time>
      </trkpt>
      <trkpt lat="37.21046" lon="-2.70678">
        <ele>1669.614</ele>
        <time>2021-07-18T09:00:00Z</time>
      </trkpt>
      <trkpt lat="37.2106" lon="-2.70524">
        <ele>1668.857</ele>
        <time>2021-07-18T09:00:11Z</time>
      </trkpt>
      <trkpt lat="37.21078" lon="-2.70385">
        <ele>1688.817</ele>
        <time>2021-07-18T09:00:22Z</time>
      </trkpt>
      <trkpt lat="37.20907" lon="-2.70368">
        <ele>1679.641</ele>
        <time>2021-07-18T09:00:33Z</time>
      </trkpt>
      <trkpt lat="37.20788" lon="-2.70314">
        <ele>1696.184</ele>
        <time>2021-07-18T09:00:44Z</time>
      </trkpt>
      <trkpt lat="37.20815" lon="-2.7015">
        <ele>1699.184</ele>
        <time>2021-07-18T09:00:55Z</time>
      </trkpt>
      <trkpt lat="37.20896" lon="-2.70059">
        <ele>1711.475</ele>
        <time>2021-07-18T09:01:06Z</time>
      </trkpt>
      <trkpt lat="37.20942" lon="-2.69952">
        <ele>1726.631</ele>
        <time>2021-07-18T09:01:17Z</time>
      </trkpt>
      <trkpt lat="37.20837" lon="-2.69932">
        <ele>1735.047</ele>
        <time>2021-07-18T09:01:28Z</time>
      </trkpt>
      <trkpt lat="37.20707" lon="-2.69872">
        <ele>1736.32</ele>
        <time>2021-07-18T09:01:39Z</time>
      </trkpt>
      <trkpt lat="37.2061" lon="-2.69781">
        <ele>1732.802</ele>
        <time>2021-07-18T09:01:50Z</time>
      </trkpt>
      <trkpt lat="37.20687" lon="-2.69792">
        <ele>1733.473</ele>
        <time>2021-07-18T09:02:01Z</time>
      </trkpt>
      <trkpt lat="37.20782" lon="-2.69768">
        <ele>1735.973</ele>
        <time>2021-07-18T09:02:12Z</time>
      </trkpt>
      <trkpt lat="37.20892" lon="-2.69828">
        <ele>1724.497</ele>
        <time>2021-07-18T09:02:23Z</time>
      </trkpt>
      <trkpt lat="37.20884" lon="-2.69799">
        <ele>1725.129</ele>
        <time>2021-07-18T09:02:34Z</time>
      </trkpt>
      <trkpt lat="37.20798" lon="-2.69693">
        <ele>1778.688</ele>
        <time>2021-07-18T09:02:45Z</time>
      </trkpt>
      <trkpt lat="37.20762" lon="-2.69586">
        <ele>1785.485</ele>
        <time>2021-07-18T09:02:56Z</time>
      </trkpt>
      <trkpt lat="37.20811" lon="-2.69453">
        <ele>1796.336</ele>
        <time>2021-07-18T09:03:07Z</time>
      </trkpt>
      <trkpt lat="37.20831" lon="-2.69311">
        <ele>1805.932</ele>
        <time>2021-07-18T09:03:18Z</time>
      </trkpt>
      <trkpt lat="37.20945" lon="-2.69316">
        <ele>1815.285</ele>
        <time>2021-07-18T09:03:29Z</time>
      </trkpt>
      <trkpt lat="37.21069" lon="-2.6936">
        <ele>1823.65</ele>
        <time>2021-07-18T09:03:40Z</time>
      </trkpt>
      <trkpt lat="37.21166" lon="-2.69406">
        <ele>1829.552</ele>
        <time>2021-07-18T09:03:51Z</time>
      </trkpt>
      <trkpt lat="37.21256" lon="-2.6932">
        <ele>1841.79</ele>
        <time>2021-07-18T09:04:02Z</time>
      </trkpt>
      <trkpt lat="37.21272" lon="-2.69202">
        <ele>1849.194</ele>
        <time>2021-07-18T09:04:13Z</time>
      </trkpt>
      <trkpt lat="37.21259" lon="-2.69053">
        <ele>1856.202</ele>
        <time>2021-07-18T09:04:24Z</time>
      </trkpt>
      <trkpt lat="37.21264" lon="-2.68979">
        <ele>1865.429</ele>
        <time>2021-07-18T09:04:35Z</time>
      </trkpt>
      <trkpt lat="37.21267" lon="-2.68974">
        <ele>1860.671</ele>
        <time>2021-07-18T09:04:51Z</time>
      </trkpt>
      <trkpt lat="37.21307" lon="-2.68871">
        <ele>1861.107</ele>
        <time>2021-07-18T09:05:02Z</time>
      </trkpt>
      <trkpt lat="37.21261" lon="-2.68806">
        <ele>1859.667</ele>
        <time>2021-07-18T09:05:13Z</time>
      </trkpt>
      <trkpt lat="37.21187" lon="-2.68775">
        <ele>1855.223</ele>
        <time>2021-07-18T09:05:24Z</time>
      </trkpt>
      <trkpt lat="37.21086" lon="-2.68719">
        <ele>1847.355</ele>
        <time>2021-07-18T09:05:35Z</time>
      </trkpt>
      <trkpt lat="37.21057" lon="-2.68595">
        <ele>1848.735</ele>
        <time>2021-07-18T09:05:46Z</time>
      </trkpt>
      <trkpt lat="37.21063" lon="-2.6846">
        <ele>1858.256</ele>
        <time>2021-07-18T09:05:57Z</time>
      </trkpt>
      <trkpt lat="37.20967" lon="-2.68336">
        <ele>1859.421</ele>
        <time>2021-07-18T09:06:08Z</time>
      </trkpt>
      <trkpt lat="37.20951" lon="-2.68202">
        <ele>1862.112</ele>
        <time>2021-07-18T09:06:19Z</time>
      </trkpt>
      <trkpt lat="37.20901" lon="-2.68027">
        <ele>1857.8</ele>
        <time>2021-07-18T09:06:30Z</time>
      </trkpt>
      <trkpt lat="37.20926" lon="-2.67886">
        <ele>1854.257</ele>
        <time>2021-07-18T09:06:41Z</time>
      </trkpt>
      <trkpt lat="37.20963" lon="-2.67726">
        <ele>1840.114</ele>
        <time>2021-07-18T09:06:52Z</time>
      </trkpt>
      <trkpt lat="37.20975" lon="-2.67579">
        <ele>1844.238</ele>
        <time>2021-07-18T09:07:03Z</time>
      </trkpt>
      <trkpt lat="37.20979" lon="-2.67435">
        <ele>1841.054</ele>
        <time>2021-07-18T09:07:14Z</time>
      </trkpt>
      <trkpt lat="37.21055" lon="-2.67292">
        <ele>1864.789</ele>
        <time>2021-07-18T09:07:25Z</time>
      </trkpt>
      <trkpt lat="37.21157" lon="-2.67164">
        <ele>1907.427</ele>
        <time>2021-07-18T09:07:36Z</time>
      </trkpt>
      <trkpt lat="37.21223" lon="-2.67021">
        <ele>1920.535</ele>
        <time>2021-07-18T09:07:47Z</time>
      </trkpt>
      <trkpt lat="37.21267" lon="-2.66911">
        <ele>1924.294</ele>
        <time>2021-07-18T09:07:58Z</time>
      </trkpt>
      <trkpt lat="37.21186" lon="-2.66754">
        <ele>1936.864</ele>
        <time>2021-07-18T09:08:09Z</time>
      </trkpt>
      <trkpt lat="37.21059" lon="-2.66645">
        <ele>1945.072</ele>
        <time>2021-07-18T09:08:20Z</time>
      </trkpt>
      <trkpt lat="37.20952" lon="-2.66524">
        <ele>1948.415</ele>
        <time>2021-07-18T09:08:31Z</time>
      </trkpt>
      <trkpt lat="37.20922" lon="-2.66398">
        <ele>1958.145</ele>
        <time>2021-07-18T09:08:42Z</time>
      </trkpt>
      <trkpt lat="37.20933" lon="-2.66216">
        <ele>1968.198</ele>
        <time>2021-07-18T09:08:53Z</time>
      </trkpt>
      <trkpt lat="37.20893" lon="-2.66116">
        <ele>1968.716</ele>
        <time>2021-07-18T09:09:04Z</time>
      </trkpt>
      <trkpt lat="37.20962" lon="-2.65987">
        <ele>1970.205</ele>
        <time>2021-07-18T09:09:15Z</time>
      </trkpt>
      <trkpt lat="37.21071" lon="-2.65857">
        <ele>1969.116</ele>
        <time>2021-07-18T09:09:26Z</time>
      </trkpt>
      <trkpt lat="37.21163" lon="-2.65736">
        <ele>1966.143</ele>
        <time>2021-07-18T09:09:37Z</time>
      </trkpt>
      <trkpt lat="37.21144" lon="-2.65546">
        <ele>1960.981</ele>
        <time>2021-07-18T09:09:48Z</time>
      </trkpt>
      <trkpt lat="37.21123" lon="-2.65308">
        <ele>1957.552</ele>
        <time>2021-07-18T09:09:59Z</time>
      </trkpt>
      <trkpt lat="37.21102" lon="-2.65139">
        <ele>1961.894</ele>
        <time>2021-07-18T09:10:10Z</time>
      </trkpt>
      <trkpt lat="37.21025" lon="-2.64972">
        <ele>1966.272</ele>
        <time>2021-07-18T09:10:21Z</time>
      </trkpt>
      <trkpt lat="37.20909" lon="-2.64844">
        <ele>1972.759</ele>
        <time>2021-07-18T09:10:32Z</time>
      </trkpt>
      <trkpt lat="37.2088" lon="-2.64669">
        <ele>1966.138</ele>
        <time>2021-07-18T09:10:43Z</time>
      </trkpt>
      <trkpt lat="37.20862" lon="-2.6445">
        <ele>1958.559</ele>
        <time>2021-07-18T09:10:54Z</time>
      </trkpt>
      <trkpt lat="37.20862" lon="-2.64234">
        <ele>1962.38</ele>
        <time>2021-07-18T09:11:05Z</time>
      </trkpt>
      <trkpt lat="37.20813" lon="-2.64063">
        <ele>1952.785</ele>
        <time>2021-07-18T09:11:16Z</time>
      </trkpt>
      <trkpt lat="37.2078" lon="-2.63861">
        <ele>1947.017</ele>
        <time>2021-07-18T09:11:27Z</time>
      </trkpt>
      <trkpt lat="37.20821" lon="-2.63725">
        <ele>1939.968</ele>
        <time>2021-07-18T09:11:38Z</time>
      </trkpt>
      <trkpt lat="37.20913" lon="-2.63599">
        <ele>1937.256</ele>
        <time>2021-07-18T09:11:49Z</time>
      </trkpt>
      <trkpt lat="37.20916" lon="-2.63391">
        <ele>1936.328</ele>
        <time>2021-07-18T09:12:00Z</time>
      </trkpt>
      <trkpt lat="37.2096" lon="-2.63222">
        <ele>1938.073</ele>
        <time>2021-07-18T09:12:11Z</time>
      </trkpt>
      <trkpt lat="37.20993" lon="-2.63057">
        <ele>1935.263</ele>
        <time>2021-07-18T09:12:22Z</time>
      </trkpt>
      <trkpt lat="37.20965" lon="-2.62908">
        <ele>1934.089</ele>
        <time>2021-07-18T09:12:33Z</time>
      </trkpt>
      <trkpt lat="37.20989" lon="-2.62701">
        <ele>1931.68</ele>
        <time>2021-07-18T09:12:44Z</time>
      </trkpt>
      <trkpt lat="37.21129" lon="-2.62488">
        <ele>1949.011</ele>
        <time>2021-07-18T09:12:55Z</time>
      </trkpt>
      <trkpt lat="37.21233" lon="-2.62335">
        <ele>1949.405</ele>
        <time>2021-07-18T09:13:06Z</time>
      </trkpt>
      <trkpt lat="37.21294" lon="-2.62129">
        <ele>1949.101</ele>
        <time>2021-07-18T09:13:17Z</time>
      </trkpt>
      <trkpt lat="37.21284" lon="-2.61916">
        <ele>1943.529</ele>
        <time>2021-07-18T09:13:28Z</time>
      </trkpt>
      <trkpt lat="37.21215" lon="-2.61669">
        <ele>1929.974</ele>
        <time>2021-07-18T09:13:39Z</time>
      </trkpt>
      <trkpt lat="37.21287" lon="-2.61513">
        <ele>1940.909</ele>
        <time>2021-07-18T09:13:50Z</time>
      </trkpt>
      <trkpt lat="37.21438" lon="-2.61371">
        <ele>1948.831</ele>
        <time>2021-07-18T09:14:01Z</time>
      </trkpt>
      <trkpt lat="37.21409" lon="-2.61249">
        <ele>1942.475</ele>
        <time>2021-07-18T09:14:12Z</time>
      </trkpt>
      <trkpt lat="37.21385" lon="-2.61001">
        <ele>1937.353</ele>
        <time>2021-07-18T09:14:23Z</time>
      </trkpt>
      <trkpt lat="37.21279" lon="-2.60865">
        <ele>1929.249</ele>
        <time>2021-07-18T09:14:34Z</time>
      </trkpt>
      <trkpt lat="37.21153" lon="-2.60761">
        <ele>1925.518</ele>
        <time>2021-07-18T09:14:45Z</time>
      </trkpt>
      <trkpt lat="37.21131" lon="-2.60739">
        <ele>1924.27</ele>
        <time>2021-07-18T09:14:56Z</time>
      </trkpt>
      <trkpt lat="37.21133" lon="-2.60796">
        <ele>1925.748</ele>
        <time>2021-07-18T09:15:07Z</time>
      </trkpt>
      <trkpt lat="37.21136" lon="-2.60793">
        <ele>1920.834</ele>
        <time>2021-07-18T09:15:37Z</time>
      </trkpt>
      <trkpt lat="37.21137" lon="-2.60788">
        <ele>1920.111</ele>
        <time>2021-07-18T09:15:52Z</time>
      </trkpt>
      <trkpt lat="37.21139" lon="-2.60788">
        <ele>1921.746</ele>
        <time>2021-07-18T09:16:51Z</time>
      </trkpt>
      <trkpt lat="37.21138" lon="-2.60786">
        <ele>1921.47</ele>
        <time>2021-07-18T09:17:50Z</time>
      </trkpt>
      <trkpt lat="37.21139" lon="-2.60788">
        <ele>1918.577</ele>
        <time>2021-07-18T09:18:50Z</time>
      </trkpt>
      <trkpt lat="37.21138" lon="-2.60788">
        <ele>1920.472</ele>
        <time>2021-07-18T09:19:49Z</time>
      </trkpt>
      <trkpt lat="37.21138" lon="-2.60788">
        <ele>1922.162</ele>
        <time>2021-07-18T09:20:49Z</time>
      </trkpt>
      <trkpt lat="37.21138" lon="-2.60788">
        <ele>1922.162</ele>
        <time>2021-07-18T09:21:49Z</time>
      </trkpt>
      <trkpt lat="37.21137" lon="-2.60785">
        <ele>1920.822</ele>
        <time>2021-07-18T09:22:48Z</time>
      </trkpt>
      <trkpt lat="37.21139" lon="-2.60787">
        <ele>1921.245</ele>
        <time>2021-07-18T09:23:48Z</time>
      </trkpt>
      <trkpt lat="37.21138" lon="-2.60787">
        <ele>1921.866</ele>
        <time>2021-07-18T09:24:48Z</time>
      </trkpt>
      <trkpt lat="37.21136" lon="-2.60786">
        <ele>1920.313</ele>
        <time>2021-07-18T09:25:47Z</time>
      </trkpt>
      <trkpt lat="37.21136" lon="-2.60786">
        <ele>1921.93</ele>
        <time>2021-07-18T09:26:46Z</time>
      </trkpt>
      <trkpt lat="37.2114" lon="-2.60788">
        <ele>1923.736</ele>
        <time>2021-07-18T09:27:34Z</time>
      </trkpt>
      <trkpt lat="37.21149" lon="-2.60781">
        <ele>1924.348</ele>
        <time>2021-07-18T09:27:45Z</time>
      </trkpt>
      <trkpt lat="37.21155" lon="-2.60788">
        <ele>1926.384</ele>
        <time>2021-07-18T09:27:56Z</time>
      </trkpt>
      <trkpt lat="37.21157" lon="-2.60794">
        <ele>1924.928</ele>
        <time>2021-07-18T09:28:07Z</time>
      </trkpt>
      <trkpt lat="37.2116" lon="-2.60794">
        <ele>1924.717</ele>
        <time>2021-07-18T09:29:06Z</time>
      </trkpt>
      <trkpt lat="37.21158" lon="-2.60791">
        <ele>1924.479</ele>
        <time>2021-07-18T09:29:19Z</time>
      </trkpt>
      <trkpt lat="37.21162" lon="-2.6079">
        <ele>1923.718</ele>
        <time>2021-07-18T09:29:45Z</time>
      </trkpt>
      <trkpt lat="37.21168" lon="-2.60792">
        <ele>1925.352</ele>
        <time>2021-07-18T09:29:56Z</time>
      </trkpt>
      <trkpt lat="37.21172" lon="-2.60794">
        <ele>1925.148</ele>
        <time>2021-07-18T09:30:29Z</time>
      </trkpt>
      <trkpt lat="37.21178" lon="-2.60794">
        <ele>1925.553</ele>
        <time>2021-07-18T09:30:40Z</time>
      </trkpt>
      <trkpt lat="37.21176" lon="-2.6079">
        <ele>1923.951</ele>
        <time>2021-07-18T09:31:23Z</time>
      </trkpt>
      <trkpt lat="37.21173" lon="-2.60793">
        <ele>1923.599</ele>
        <time>2021-07-18T09:31:46Z</time>
      </trkpt>
      <trkpt lat="37.2117" lon="-2.60796">
        <ele>1924.22</ele>
        <time>2021-07-18T09:32:04Z</time>
      </trkpt>
      <trkpt lat="37.21166" lon="-2.60796">
        <ele>1924.058</ele>
        <time>2021-07-18T09:32:16Z</time>
      </trkpt>
      <trkpt lat="37.21156" lon="-2.60787">
        <ele>1923.007</ele>
        <time>2021-07-18T09:32:27Z</time>
      </trkpt>
      <trkpt lat="37.21141" lon="-2.60784">
        <ele>1922.294</ele>
        <time>2021-07-18T09:32:38Z</time>
      </trkpt>
      <trkpt lat="37.21138" lon="-2.60787">
        <ele>1921.93</ele>
        <time>2021-07-18T09:32:49Z</time>
      </trkpt>
      <trkpt lat="37.21141" lon="-2.6079">
        <ele>1923.127</ele>
        <time>2021-07-18T09:33:28Z</time>
      </trkpt>
      <trkpt lat="37.21137" lon="-2.60791">
        <ele>1924.11</ele>
        <time>2021-07-18T09:34:10Z</time>
      </trkpt>
      <trkpt lat="37.21135" lon="-2.60794">
        <ele>1923.61</ele>
        <time>2021-07-18T09:35:09Z</time>
      </trkpt>
      <trkpt lat="37.21133" lon="-2.60791">
        <ele>1924.032</ele>
        <time>2021-07-18T09:36:08Z</time>
      </trkpt>
      <trkpt lat="37.21128" lon="-2.60788">
        <ele>1922.476</ele>
        <time>2021-07-18T09:36:34Z</time>
      </trkpt>
      <trkpt lat="37.21144" lon="-2.60717">
        <ele>1922.306</ele>
        <time>2021-07-18T09:36:45Z</time>
      </trkpt>
      <trkpt lat="37.21292" lon="-2.60711">
        <ele>1917.924</ele>
        <time>2021-07-18T09:36:56Z</time>
      </trkpt>
      <trkpt lat="37.21457" lon="-2.60694">
        <ele>1914.261</ele>
        <time>2021-07-18T09:37:07Z</time>
      </trkpt>
      <trkpt lat="37.21612" lon="-2.60601">
        <ele>1912.599</ele>
        <time>2021-07-18T09:37:18Z</time>
      </trkpt>
      <trkpt lat="37.21766" lon="-2.60555">
        <ele>1905.656</ele>
        <time>2021-07-18T09:37:29Z</time>
      </trkpt>
      <trkpt lat="37.21702" lon="-2.60383">
        <ele>1904.766</ele>
        <time>2021-07-18T09:37:40Z</time>
      </trkpt>
      <trkpt lat="37.21644" lon="-2.60118">
        <ele>1897.782</ele>
        <time>2021-07-18T09:37:51Z</time>
      </trkpt>
      <trkpt lat="37.21675" lon="-2.5985">
        <ele>1886.212</ele>
        <time>2021-07-18T09:38:02Z</time>
      </trkpt>
      <trkpt lat="37.21783" lon="-2.59648">
        <ele>1877.1</ele>
        <time>2021-07-18T09:38:13Z</time>
      </trkpt>
      <trkpt lat="37.21979" lon="-2.59463">
        <ele>1859.841</ele>
        <time>2021-07-18T09:38:24Z</time>
      </trkpt>
      <trkpt lat="37.22103" lon="-2.59276">
        <ele>1846.811</ele>
        <time>2021-07-18T09:38:35Z</time>
      </trkpt>
      <trkpt lat="37.22199" lon="-2.59146">
        <ele>1833.684</ele>
        <time>2021-07-18T09:38:46Z</time>
      </trkpt>
      <trkpt lat="37.22258" lon="-2.58977">
        <ele>1824.36</ele>
        <time>2021-07-18T09:38:57Z</time>
      </trkpt>
      <trkpt lat="37.22401" lon="-2.58889">
        <ele>1805.553</ele>
        <time>2021-07-18T09:39:08Z</time>
      </trkpt>
      <trkpt lat="37.22482" lon="-2.58794">
        <ele>1792.05</ele>
        <time>2021-07-18T09:39:19Z</time>
      </trkpt>
      <trkpt lat="37.2236" lon="-2.58827">
        <ele>1781.62</ele>
        <time>2021-07-18T09:39:30Z</time>
      </trkpt>
      <trkpt lat="37.22285" lon="-2.58824">
        <ele>1782.047</ele>
        <time>2021-07-18T09:39:41Z</time>
      </trkpt>
      <trkpt lat="37.22401" lon="-2.58697">
        <ele>1783.436</ele>
        <time>2021-07-18T09:39:52Z</time>
      </trkpt>
      <trkpt lat="37.22576" lon="-2.58567">
        <ele>1784.402</ele>
        <time>2021-07-18T09:40:03Z</time>
      </trkpt>
      <trkpt lat="37.22775" lon="-2.58428">
        <ele>1786.657</ele>
        <time>2021-07-18T09:40:14Z</time>
      </trkpt>
      <trkpt lat="37.22979" lon="-2.58366">
        <ele>1790.719</ele>
        <time>2021-07-18T09:40:25Z</time>
      </trkpt>
      <trkpt lat="37.23187" lon="-2.58375">
        <ele>1794.002</ele>
        <time>2021-07-18T09:40:36Z</time>
      </trkpt>
      <trkpt lat="37.23291" lon="-2.58335">
        <ele>1791.37</ele>
        <time>2021-07-18T09:40:47Z</time>
      </trkpt>
      <trkpt lat="37.23448" lon="-2.58224">
        <ele>1784.402</ele>
        <time>2021-07-18T09:40:58Z</time>
      </trkpt>
      <trkpt lat="37.23539" lon="-2.58104">
        <ele>1775.175</ele>
        <time>2021-07-18T09:41:09Z</time>
      </trkpt>
      <trkpt lat="37.23562" lon="-2.58006">
        <ele>1770.887</ele>
        <time>2021-07-18T09:41:20Z</time>
      </trkpt>
      <trkpt lat="37.23404" lon="-2.5794">
        <ele>1765.3</ele>
        <time>2021-07-18T09:41:31Z</time>
      </trkpt>
      <trkpt lat="37.23296" lon="-2.57944">
        <ele>1759.322</ele>
        <time>2021-07-18T09:41:42Z</time>
      </trkpt>
      <trkpt lat="37.23392" lon="-2.57845">
        <ele>1753.173</ele>
        <time>2021-07-18T09:41:53Z</time>
      </trkpt>
      <trkpt lat="37.23556" lon="-2.57779">
        <ele>1753.456</ele>
        <time>2021-07-18T09:42:04Z</time>
      </trkpt>
      <trkpt lat="37.23699" lon="-2.5774">
        <ele>1757.486</ele>
        <time>2021-07-18T09:42:15Z</time>
      </trkpt>
      <trkpt lat="37.23855" lon="-2.57752">
        <ele>1748.82</ele>
        <time>2021-07-18T09:42:26Z</time>
      </trkpt>
      <trkpt lat="37.23984" lon="-2.57865">
        <ele>1739.042</ele>
        <time>2021-07-18T09:42:37Z</time>
      </trkpt>
      <trkpt lat="37.24118" lon="-2.57803">
        <ele>1733.777</ele>
        <time>2021-07-18T09:42:48Z</time>
      </trkpt>
      <trkpt lat="37.24234" lon="-2.57752">
        <ele>1724.856</ele>
        <time>2021-07-18T09:42:59Z</time>
      </trkpt>
      <trkpt lat="37.24382" lon="-2.57782">
        <ele>1715.177</ele>
        <time>2021-07-18T09:43:10Z</time>
      </trkpt>
      <trkpt lat="37.24527" lon="-2.57819">
        <ele>1700.95</ele>
        <time>2021-07-18T09:43:21Z</time>
      </trkpt>
      <trkpt lat="37.24676" lon="-2.57695">
        <ele>1686.122</ele>
        <time>2021-07-18T09:43:32Z</time>
      </trkpt>
      <trkpt lat="37.24679" lon="-2.5755">
        <ele>1686.003</ele>
        <time>2021-07-18T09:43:43Z</time>
      </trkpt>
      <trkpt lat="37.24546" lon="-2.57334">
        <ele>1686.932</ele>
        <time>2021-07-18T09:43:54Z</time>
      </trkpt>
      <trkpt lat="37.24394" lon="-2.57124">
        <ele>1688.705</ele>
        <time>2021-07-18T09:44:05Z</time>
      </trkpt>
      <trkpt lat="37.24288" lon="-2.56963">
        <ele>1690.459</ele>
        <time>2021-07-18T09:44:16Z</time>
      </trkpt>
      <trkpt lat="37.24293" lon="-2.56773">
        <ele>1696.091</ele>
        <time>2021-07-18T09:44:27Z</time>
      </trkpt>
      <trkpt lat="37.24298" lon="-2.56603">
        <ele>1697.581</ele>
        <time>2021-07-18T09:44:38Z</time>
      </trkpt>
      <trkpt lat="37.24172" lon="-2.56469">
        <ele>1703.889</ele>
        <time>2021-07-18T09:44:49Z</time>
      </trkpt>
      <trkpt lat="37.24133" lon="-2.56305">
        <ele>1707</ele>
        <time>2021-07-18T09:45:00Z</time>
      </trkpt>
      <trkpt lat="37.24068" lon="-2.56226">
        <ele>1707.721</ele>
        <time>2021-07-18T09:45:11Z</time>
      </trkpt>
      <trkpt lat="37.24029" lon="-2.56054">
        <ele>1710.779</ele>
        <time>2021-07-18T09:45:22Z</time>
      </trkpt>
      <trkpt lat="37.23987" lon="-2.55843">
        <ele>1718.405</ele>
        <time>2021-07-18T09:45:33Z</time>
      </trkpt>
      <trkpt lat="37.23949" lon="-2.55668">
        <ele>1726.988</ele>
        <time>2021-07-18T09:45:44Z</time>
      </trkpt>
      <trkpt lat="37.23886" lon="-2.55603">
        <ele>1730.447</ele>
        <time>2021-07-18T09:45:55Z</time>
      </trkpt>
      <trkpt lat="37.23773" lon="-2.55636">
        <ele>1728.914</ele>
        <time>2021-07-18T09:46:06Z</time>
      </trkpt>
      <trkpt lat="37.23643" lon="-2.5566">
        <ele>1737.745</ele>
        <time>2021-07-18T09:46:17Z</time>
      </trkpt>
      <trkpt lat="37.23561" lon="-2.5565">
        <ele>1745.657</ele>
        <time>2021-07-18T09:46:28Z</time>
      </trkpt>
      <trkpt lat="37.23599" lon="-2.55526">
        <ele>1755.244</ele>
        <time>2021-07-18T09:46:39Z</time>
      </trkpt>
      <trkpt lat="37.23526" lon="-2.55413">
        <ele>1762.289</ele>
        <time>2021-07-18T09:46:50Z</time>
      </trkpt>
      <trkpt lat="37.23456" lon="-2.5535">
        <ele>1769.094</ele>
        <time>2021-07-18T09:47:01Z</time>
      </trkpt>
      <trkpt lat="37.2354" lon="-2.55236">
        <ele>1771.891</ele>
        <time>2021-07-18T09:47:12Z</time>
      </trkpt>
      <trkpt lat="37.23676" lon="-2.55155">
        <ele>1780.966</ele>
        <time>2021-07-18T09:47:23Z</time>
      </trkpt>
      <trkpt lat="37.23685" lon="-2.55025">
        <ele>1780.753</ele>
        <time>2021-07-18T09:47:34Z</time>
      </trkpt>
      <trkpt lat="37.23627" lon="-2.5487">
        <ele>1780.548</ele>
        <time>2021-07-18T09:47:45Z</time>
      </trkpt>
      <trkpt lat="37.23552" lon="-2.54736">
        <ele>1804.295</ele>
        <time>2021-07-18T09:47:56Z</time>
      </trkpt>
      <trkpt lat="37.23646" lon="-2.54697">
        <ele>1808.447</ele>
        <time>2021-07-18T09:48:07Z</time>
      </trkpt>
      <trkpt lat="37.23808" lon="-2.54661">
        <ele>1810.281</ele>
        <time>2021-07-18T09:48:18Z</time>
      </trkpt>
      <trkpt lat="37.23933" lon="-2.54745">
        <ele>1815.322</ele>
        <time>2021-07-18T09:48:29Z</time>
      </trkpt>
      <trkpt lat="37.24057" lon="-2.54703">
        <ele>1814.616</ele>
        <time>2021-07-18T09:48:40Z</time>
      </trkpt>
      <trkpt lat="37.24169" lon="-2.54736">
        <ele>1820.002</ele>
        <time>2021-07-18T09:48:51Z</time>
      </trkpt>
      <trkpt lat="37.24317" lon="-2.54727">
        <ele>1825.288</ele>
        <time>2021-07-18T09:49:02Z</time>
      </trkpt>
      <trkpt lat="37.24388" lon="-2.54605">
        <ele>1824.478</ele>
        <time>2021-07-18T09:49:13Z</time>
      </trkpt>
      <trkpt lat="37.24381" lon="-2.54341">
        <ele>1824.701</ele>
        <time>2021-07-18T09:49:24Z</time>
      </trkpt>
      <trkpt lat="37.24309" lon="-2.54128">
        <ele>1823.993</ele>
        <time>2021-07-18T09:49:35Z</time>
      </trkpt>
      <trkpt lat="37.24193" lon="-2.54056">
        <ele>1822.99</ele>
        <time>2021-07-18T09:49:46Z</time>
      </trkpt>
      <trkpt lat="37.24173" lon="-2.53917">
        <ele>1822.086</ele>
        <time>2021-07-18T09:49:57Z</time>
      </trkpt>
      <trkpt lat="37.24091" lon="-2.53686">
        <ele>1829.028</ele>
        <time>2021-07-18T09:50:08Z</time>
      </trkpt>
      <trkpt lat="37.23976" lon="-2.53555">
        <ele>1829.292</ele>
        <time>2021-07-18T09:50:19Z</time>
      </trkpt>
      <trkpt lat="37.2378" lon="-2.53493">
        <ele>1828.468</ele>
        <time>2021-07-18T09:50:30Z</time>
      </trkpt>
      <trkpt lat="37.23655" lon="-2.53466">
        <ele>1826.384</ele>
        <time>2021-07-18T09:50:41Z</time>
      </trkpt>
      <trkpt lat="37.23543" lon="-2.53479">
        <ele>1830.385</ele>
        <time>2021-07-18T09:50:52Z</time>
      </trkpt>
      <trkpt lat="37.23611" lon="-2.53372">
        <ele>1838.143</ele>
        <time>2021-07-18T09:51:03Z</time>
      </trkpt>
      <trkpt lat="37.23773" lon="-2.53313">
        <ele>1840.836</ele>
        <time>2021-07-18T09:51:14Z</time>
      </trkpt>
      <trkpt lat="37.23933" lon="-2.532">
        <ele>1838.294</ele>
        <time>2021-07-18T09:51:25Z</time>
      </trkpt>
      <trkpt lat="37.23978" lon="-2.53047">
        <ele>1826.351</ele>
        <time>2021-07-18T09:51:36Z</time>
      </trkpt>
      <trkpt lat="37.23829" lon="-2.52862">
        <ele>1835.246</ele>
        <time>2021-07-18T09:51:47Z</time>
      </trkpt>
      <trkpt lat="37.23729" lon="-2.52822">
        <ele>1841.628</ele>
        <time>2021-07-18T09:51:58Z</time>
      </trkpt>
      <trkpt lat="37.23601" lon="-2.52798">
        <ele>1840.151</ele>
        <time>2021-07-18T09:52:09Z</time>
      </trkpt>
      <trkpt lat="37.2354" lon="-2.52705">
        <ele>1841.943</ele>
        <time>2021-07-18T09:52:20Z</time>
      </trkpt>
      <trkpt lat="37.23539" lon="-2.52593">
        <ele>1844.824</ele>
        <time>2021-07-18T09:52:31Z</time>
      </trkpt>
      <trkpt lat="37.23464" lon="-2.52534">
        <ele>1845.371</ele>
        <time>2021-07-18T09:52:42Z</time>
      </trkpt>
      <trkpt lat="37.23412" lon="-2.52471">
        <ele>1844.101</ele>
        <time>2021-07-18T09:52:53Z</time>
      </trkpt>
      <trkpt lat="37.23351" lon="-2.52415">
        <ele>1844.041</ele>
        <time>2021-07-18T09:53:04Z</time>
      </trkpt>
      <trkpt lat="37.23289" lon="-2.52407">
        <ele>1842.957</ele>
        <time>2021-07-18T09:53:15Z</time>
      </trkpt>
      <trkpt lat="37.2335" lon="-2.52352">
        <ele>1846.273</ele>
        <time>2021-07-18T09:53:26Z</time>
      </trkpt>
      <trkpt lat="37.23447" lon="-2.52356">
        <ele>1852.217</ele>
        <time>2021-07-18T09:53:37Z</time>
      </trkpt>
      <trkpt lat="37.23531" lon="-2.52397">
        <ele>1855.167</ele>
        <time>2021-07-18T09:53:48Z</time>
      </trkpt>
      <trkpt lat="37.23646" lon="-2.52369">
        <ele>1851.309</ele>
        <time>2021-07-18T09:53:59Z</time>
      </trkpt>
      <trkpt lat="37.23688" lon="-2.52243">
        <ele>1851.113</ele>
        <time>2021-07-18T09:54:10Z</time>
      </trkpt>
      <trkpt lat="37.2378" lon="-2.52187">
        <ele>1851.998</ele>
        <time>2021-07-18T09:54:21Z</time>
      </trkpt>
      <trkpt lat="37.23845" lon="-2.52093">
        <ele>1854.358</ele>
        <time>2021-07-18T09:54:32Z</time>
      </trkpt>
      <trkpt lat="37.23893" lon="-2.51968">
        <ele>1855.313</ele>
        <time>2021-07-18T09:54:43Z</time>
      </trkpt>
      <trkpt lat="37.23951" lon="-2.51885">
        <ele>1855.644</ele>
        <time>2021-07-18T09:54:54Z</time>
      </trkpt>
      <trkpt lat="37.23955" lon="-2.5176">
        <ele>1857.493</ele>
        <time>2021-07-18T09:55:05Z</time>
      </trkpt>
      <trkpt lat="37.24057" lon="-2.5176">
        <ele>1859.814</ele>
        <time>2021-07-18T09:55:16Z</time>
      </trkpt>
      <trkpt lat="37.2416" lon="-2.51723">
        <ele>1862.826</ele>
        <time>2021-07-18T09:55:27Z</time>
      </trkpt>
      <trkpt lat="37.24232" lon="-2.51643">
        <ele>1863.542</ele>
        <time>2021-07-18T09:55:38Z</time>
      </trkpt>
      <trkpt lat="37.24281" lon="-2.51564">
        <ele>1859.884</ele>
        <time>2021-07-18T09:55:49Z</time>
      </trkpt>
      <trkpt lat="37.24282" lon="-2.51489">
        <ele>1865.977</ele>
        <time>2021-07-18T09:56:00Z</time>
      </trkpt>
      <trkpt lat="37.2412" lon="-2.51507">
        <ele>1877.111</ele>
        <time>2021-07-18T09:56:11Z</time>
      </trkpt>
      <trkpt lat="37.239" lon="-2.51572">
        <ele>1886.369</ele>
        <time>2021-07-18T09:56:22Z</time>
      </trkpt>
      <trkpt lat="37.237" lon="-2.51597">
        <ele>1891.872</ele>
        <time>2021-07-18T09:56:33Z</time>
      </trkpt>
      <trkpt lat="37.23461" lon="-2.51546">
        <ele>1895.628</ele>
        <time>2021-07-18T09:56:44Z</time>
      </trkpt>
      <trkpt lat="37.23307" lon="-2.51518">
        <ele>1899.216</ele>
        <time>2021-07-18T09:56:55Z</time>
      </trkpt>
      <trkpt lat="37.23139" lon="-2.51404">
        <ele>1906.543</ele>
        <time>2021-07-18T09:57:06Z</time>
      </trkpt>
      <trkpt lat="37.2297" lon="-2.51256">
        <ele>1920.732</ele>
        <time>2021-07-18T09:57:17Z</time>
      </trkpt>
      <trkpt lat="37.22763" lon="-2.51303">
        <ele>1932.059</ele>
        <time>2021-07-18T09:57:28Z</time>
      </trkpt>
      <trkpt lat="37.22619" lon="-2.51524">
        <ele>1935.575</ele>
        <time>2021-07-18T09:57:39Z</time>
      </trkpt>
      <trkpt lat="37.2242" lon="-2.51579">
        <ele>1942.49</ele>
        <time>2021-07-18T09:57:50Z</time>
      </trkpt>
      <trkpt lat="37.22235" lon="-2.51596">
        <ele>1937.704</ele>
        <time>2021-07-18T09:58:01Z</time>
      </trkpt>
      <trkpt lat="37.22153" lon="-2.51793">
        <ele>1922.564</ele>
        <time>2021-07-18T09:58:12Z</time>
      </trkpt>
      <trkpt lat="37.22103" lon="-2.51972">
        <ele>1933.925</ele>
        <time>2021-07-18T09:58:23Z</time>
      </trkpt>
      <trkpt lat="37.22004" lon="-2.52041">
        <ele>1933.685</ele>
        <time>2021-07-18T09:58:34Z</time>
      </trkpt>
      <trkpt lat="37.21884" lon="-2.51943">
        <ele>1936.225</ele>
        <time>2021-07-18T09:58:45Z</time>
      </trkpt>
      <trkpt lat="37.21722" lon="-2.51927">
        <ele>1950.09</ele>
        <time>2021-07-18T09:58:56Z</time>
      </trkpt>
      <trkpt lat="37.21575" lon="-2.51813">
        <ele>1958.439</ele>
        <time>2021-07-18T09:59:07Z</time>
      </trkpt>
      <trkpt lat="37.21372" lon="-2.51704">
        <ele>1970.163</ele>
        <time>2021-07-18T09:59:18Z</time>
      </trkpt>
      <trkpt lat="37.21238" lon="-2.51483">
        <ele>1967.48</ele>
        <time>2021-07-18T09:59:29Z</time>
      </trkpt>
      <trkpt lat="37.2119" lon="-2.51221">
        <ele>1958.317</ele>
        <time>2021-07-18T09:59:40Z</time>
      </trkpt>
      <trkpt lat="37.21168" lon="-2.50958">
        <ele>1950.653</ele>
        <time>2021-07-18T09:59:51Z</time>
      </trkpt>
      <trkpt lat="37.21177" lon="-2.50726">
        <ele>1947.426</ele>
        <time>2021-07-18T10:00:02Z</time>
      </trkpt>
      <trkpt lat="37.21125" lon="-2.50559">
        <ele>1947.219</ele>
        <time>2021-07-18T10:00:13Z</time>
      </trkpt>
      <trkpt lat="37.21021" lon="-2.50358">
        <ele>1944.866</ele>
        <time>2021-07-18T10:00:24Z</time>
      </trkpt>
      <trkpt lat="37.20916" lon="-2.50153">
        <ele>1942.163</ele>
        <time>2021-07-18T10:00:36Z</time>
      </trkpt>
      <trkpt lat="37.20789" lon="-2.5003">
        <ele>1942.912</ele>
        <time>2021-07-18T10:00:47Z</time>
      </trkpt>
      <trkpt lat="37.20712" lon="-2.49884">
        <ele>1941.773</ele>
        <time>2021-07-18T10:00:58Z</time>
      </trkpt>
      <trkpt lat="37.20766" lon="-2.49687">
        <ele>1946.701</ele>
        <time>2021-07-18T10:01:09Z</time>
      </trkpt>
      <trkpt lat="37.20845" lon="-2.49477">
        <ele>1945.592</ele>
        <time>2021-07-18T10:01:20Z</time>
      </trkpt>
      <trkpt lat="37.20923" lon="-2.49246">
        <ele>1939.71</ele>
        <time>2021-07-18T10:01:31Z</time>
      </trkpt>
      <trkpt lat="37.21024" lon="-2.49041">
        <ele>1916.241</ele>
        <time>2021-07-18T10:01:42Z</time>
      </trkpt>
      <trkpt lat="37.21101" lon="-2.48904">
        <ele>1942.974</ele>
        <time>2021-07-18T10:01:53Z</time>
      </trkpt>
      <trkpt lat="37.21266" lon="-2.48813">
        <ele>1943.212</ele>
        <time>2021-07-18T10:02:04Z</time>
      </trkpt>
      <trkpt lat="37.21445" lon="-2.48705">
        <ele>1939.331</ele>
        <time>2021-07-18T10:02:15Z</time>
      </trkpt>
      <trkpt lat="37.2157" lon="-2.48608">
        <ele>1936.703</ele>
        <time>2021-07-18T10:02:26Z</time>
      </trkpt>
      <trkpt lat="37.21518" lon="-2.48446">
        <ele>1932.367</ele>
        <time>2021-07-18T10:02:37Z</time>
      </trkpt>
      <trkpt lat="37.21446" lon="-2.48207">
        <ele>1930.955</ele>
        <time>2021-07-18T10:02:48Z</time>
      </trkpt>
      <trkpt lat="37.21442" lon="-2.48019">
        <ele>1930.702</ele>
        <time>2021-07-18T10:02:59Z</time>
      </trkpt>
      <trkpt lat="37.21501" lon="-2.47835">
        <ele>1935.813</ele>
        <time>2021-07-18T10:03:10Z</time>
      </trkpt>
      <trkpt lat="37.21525" lon="-2.47611">
        <ele>1936.024</ele>
        <time>2021-07-18T10:03:21Z</time>
      </trkpt>
      <trkpt lat="37.21585" lon="-2.47451">
        <ele>1936.575</ele>
        <time>2021-07-18T10:03:32Z</time>
      </trkpt>
      <trkpt lat="37.21647" lon="-2.47272">
        <ele>1930.993</ele>
        <time>2021-07-18T10:03:43Z</time>
      </trkpt>
      <trkpt lat="37.21741" lon="-2.47119">
        <ele>1933.858</ele>
        <time>2021-07-18T10:03:54Z</time>
      </trkpt>
      <trkpt lat="37.21867" lon="-2.4702">
        <ele>1939.647</ele>
        <time>2021-07-18T10:04:05Z</time>
      </trkpt>
      <trkpt lat="37.21842" lon="-2.4681">
        <ele>1931.74</ele>
        <time>2021-07-18T10:04:16Z</time>
      </trkpt>
      <trkpt lat="37.21823" lon="-2.46577">
        <ele>1924.874</ele>
        <time>2021-07-18T10:04:27Z</time>
      </trkpt>
      <trkpt lat="37.21818" lon="-2.46424">
        <ele>1912.162</ele>
        <time>2021-07-18T10:04:38Z</time>
      </trkpt>
      <trkpt lat="37.21755" lon="-2.46269">
        <ele>1909.58</ele>
        <time>2021-07-18T10:04:49Z</time>
      </trkpt>
      <trkpt lat="37.21794" lon="-2.46067">
        <ele>1909.474</ele>
        <time>2021-07-18T10:05:00Z</time>
      </trkpt>
      <trkpt lat="37.21811" lon="-2.45834">
        <ele>1906.624</ele>
        <time>2021-07-18T10:05:11Z</time>
      </trkpt>
      <trkpt lat="37.21798" lon="-2.45638">
        <ele>1901.367</ele>
        <time>2021-07-18T10:05:22Z</time>
      </trkpt>
      <trkpt lat="37.21823" lon="-2.45435">
        <ele>1889.012</ele>
        <time>2021-07-18T10:05:33Z</time>
      </trkpt>
      <trkpt lat="37.21863" lon="-2.45254">
        <ele>1875.795</ele>
        <time>2021-07-18T10:05:44Z</time>
      </trkpt>
      <trkpt lat="37.21975" lon="-2.45204">
        <ele>1869.541</ele>
        <time>2021-07-18T10:05:55Z</time>
      </trkpt>
      <trkpt lat="37.22101" lon="-2.45109">
        <ele>1864.645</ele>
        <time>2021-07-18T10:06:06Z</time>
      </trkpt>
      <trkpt lat="37.22201" lon="-2.44985">
        <ele>1850.35</ele>
        <time>2021-07-18T10:06:17Z</time>
      </trkpt>
      <trkpt lat="37.22177" lon="-2.44821">
        <ele>1851.24</ele>
        <time>2021-07-18T10:06:28Z</time>
      </trkpt>
      <trkpt lat="37.22133" lon="-2.44651">
        <ele>1857.961</ele>
        <time>2021-07-18T10:06:39Z</time>
      </trkpt>
      <trkpt lat="37.22199" lon="-2.44492">
        <ele>1868.336</ele>
        <time>2021-07-18T10:06:50Z</time>
      </trkpt>
      <trkpt lat="37.22326" lon="-2.44388">
        <ele>1868.315</ele>
        <time>2021-07-18T10:07:01Z</time>
      </trkpt>
      <trkpt lat="37.22335" lon="-2.44264">
        <ele>1865.487</ele>
        <time>2021-07-18T10:07:12Z</time>
      </trkpt>
      <trkpt lat="37.22413" lon="-2.44122">
        <ele>1860.974</ele>
        <time>2021-07-18T10:07:23Z</time>
      </trkpt>
      <trkpt lat="37.22537" lon="-2.44128">
        <ele>1854.657</ele>
        <time>2021-07-18T10:07:34Z</time>
      </trkpt>
      <trkpt lat="37.22667" lon="-2.44106">
        <ele>1842.003</ele>
        <time>2021-07-18T10:07:45Z</time>
      </trkpt>
      <trkpt lat="37.2279" lon="-2.44031">
        <ele>1824.002</ele>
        <time>2021-07-18T10:07:56Z</time>
      </trkpt>
      <trkpt lat="37.22859" lon="-2.43871">
        <ele>1834.388</ele>
        <time>2021-07-18T10:08:07Z</time>
      </trkpt>
      <trkpt lat="37.22804" lon="-2.43742">
        <ele>1847.749</ele>
        <time>2021-07-18T10:08:18Z</time>
      </trkpt>
      <trkpt lat="37.22902" lon="-2.43687">
        <ele>1862.25</ele>
        <time>2021-07-18T10:08:29Z</time>
      </trkpt>
      <trkpt lat="37.23022" lon="-2.43651">
        <ele>1865.381</ele>
        <time>2021-07-18T10:08:40Z</time>
      </trkpt>
      <trkpt lat="37.23084" lon="-2.43503">
        <ele>1848.373</ele>
        <time>2021-07-18T10:08:51Z</time>
      </trkpt>
      <trkpt lat="37.23024" lon="-2.43392">
        <ele>1847.052</ele>
        <time>2021-07-18T10:09:02Z</time>
      </trkpt>
      <trkpt lat="37.22953" lon="-2.43288">
        <ele>1849.197</ele>
        <time>2021-07-18T10:09:13Z</time>
      </trkpt>
      <trkpt lat="37.22911" lon="-2.43113">
        <ele>1859.815</ele>
        <time>2021-07-18T10:09:24Z</time>
      </trkpt>
      <trkpt lat="37.22781" lon="-2.42994">
        <ele>1862.085</ele>
        <time>2021-07-18T10:09:35Z</time>
      </trkpt>
      <trkpt lat="37.22629" lon="-2.4298">
        <ele>1864.699</ele>
        <time>2021-07-18T10:09:46Z</time>
      </trkpt>
      <trkpt lat="37.22524" lon="-2.42869">
        <ele>1860.12</ele>
        <time>2021-07-18T10:09:57Z</time>
      </trkpt>
      <trkpt lat="37.22574" lon="-2.42723">
        <ele>1859.329</ele>
        <time>2021-07-18T10:10:08Z</time>
      </trkpt>
      <trkpt lat="37.22605" lon="-2.42579">
        <ele>1850.806</ele>
        <time>2021-07-18T10:10:19Z</time>
      </trkpt>
      <trkpt lat="37.22738" lon="-2.42516">
        <ele>1841.342</ele>
        <time>2021-07-18T10:10:30Z</time>
      </trkpt>
      <trkpt lat="37.2285" lon="-2.42429">
        <ele>1826.737</ele>
        <time>2021-07-18T10:10:41Z</time>
      </trkpt>
      <trkpt lat="37.22999" lon="-2.42354">
        <ele>1821.496</ele>
        <time>2021-07-18T10:10:52Z</time>
      </trkpt>
      <trkpt lat="37.23113" lon="-2.42276">
        <ele>1819.364</ele>
        <time>2021-07-18T10:11:03Z</time>
      </trkpt>
      <trkpt lat="37.23232" lon="-2.42316">
        <ele>1828.253</ele>
        <time>2021-07-18T10:11:14Z</time>
      </trkpt>
      <trkpt lat="37.23328" lon="-2.42145">
        <ele>1839.212</ele>
        <time>2021-07-18T10:11:25Z</time>
      </trkpt>
      <trkpt lat="37.2346" lon="-2.41954">
        <ele>1845.369</ele>
        <time>2021-07-18T10:11:36Z</time>
      </trkpt>
      <trkpt lat="37.2353" lon="-2.41811">
        <ele>1839.927</ele>
        <time>2021-07-18T10:11:47Z</time>
      </trkpt>
      <trkpt lat="37.2354" lon="-2.41791">
        <ele>1832.371</ele>
        <time>2021-07-18T10:11:58Z</time>
      </trkpt>
      <trkpt lat="37.23539" lon="-2.41792">
        <ele>1826.195</ele>
        <time>2021-07-18T10:12:58Z</time>
      </trkpt>
      <trkpt lat="37.23541" lon="-2.41787">
        <ele>1829.832</ele>
        <time>2021-07-18T10:13:55Z</time>
      </trkpt>
      <trkpt lat="37.23534" lon="-2.41687">
        <ele>1827.216</ele>
        <time>2021-07-18T10:14:06Z</time>
      </trkpt>
      <trkpt lat="37.23412" lon="-2.4165">
        <ele>1820.721</ele>
        <time>2021-07-18T10:14:17Z</time>
      </trkpt>
      <trkpt lat="37.23265" lon="-2.41774">
        <ele>1815.097</ele>
        <time>2021-07-18T10:14:28Z</time>
      </trkpt>
      <trkpt lat="37.23117" lon="-2.41872">
        <ele>1809.199</ele>
        <time>2021-07-18T10:14:39Z</time>
      </trkpt>
      <trkpt lat="37.22979" lon="-2.41743">
        <ele>1804.966</ele>
        <time>2021-07-18T10:14:50Z</time>
      </trkpt>
      <trkpt lat="37.22823" lon="-2.41778">
        <ele>1800.376</ele>
        <time>2021-07-18T10:15:01Z</time>
      </trkpt>
      <trkpt lat="37.2279" lon="-2.41591">
        <ele>1799.788</ele>
        <time>2021-07-18T10:15:12Z</time>
      </trkpt>
      <trkpt lat="37.22656" lon="-2.41374">
        <ele>1796.503</ele>
        <time>2021-07-18T10:15:23Z</time>
      </trkpt>
      <trkpt lat="37.22623" lon="-2.41227">
        <ele>1793.818</ele>
        <time>2021-07-18T10:15:34Z</time>
      </trkpt>
      <trkpt lat="37.22574" lon="-2.41137">
        <ele>1789.639</ele>
        <time>2021-07-18T10:15:45Z</time>
      </trkpt>
      <trkpt lat="37.22573" lon="-2.41029">
        <ele>1783.25</ele>
        <time>2021-07-18T10:15:56Z</time>
      </trkpt>
      <trkpt lat="37.22601" lon="-2.4087">
        <ele>1753.061</ele>
        <time>2021-07-18T10:16:07Z</time>
      </trkpt>
      <trkpt lat="37.22557" lon="-2.40726">
        <ele>1691.982</ele>
        <time>2021-07-18T10:16:18Z</time>
      </trkpt>
      <trkpt lat="37.22449" lon="-2.40569">
        <ele>1779.772</ele>
        <time>2021-07-18T10:16:29Z</time>
      </trkpt>
      <trkpt lat="37.22372" lon="-2.40438">
        <ele>1776.577</ele>
        <time>2021-07-18T10:16:40Z</time>
      </trkpt>
      <trkpt lat="37.22384" lon="-2.40266">
        <ele>1773.979</ele>
        <time>2021-07-18T10:16:51Z</time>
      </trkpt>
      <trkpt lat="37.22353" lon="-2.40036">
        <ele>1771.474</ele>
        <time>2021-07-18T10:17:02Z</time>
      </trkpt>
      <trkpt lat="37.22265" lon="-2.39947">
        <ele>1768.696</ele>
        <time>2021-07-18T10:17:13Z</time>
      </trkpt>
      <trkpt lat="37.22292" lon="-2.39761">
        <ele>1765.038</ele>
        <time>2021-07-18T10:17:24Z</time>
      </trkpt>
      <trkpt lat="37.22295" lon="-2.39604">
        <ele>1760.999</ele>
        <time>2021-07-18T10:17:35Z</time>
      </trkpt>
      <trkpt lat="37.22202" lon="-2.39498">
        <ele>1754.778</ele>
        <time>2021-07-18T10:17:46Z</time>
      </trkpt>
      <trkpt lat="37.22243" lon="-2.39285">
        <ele>1750.142</ele>
        <time>2021-07-18T10:17:57Z</time>
      </trkpt>
      <trkpt lat="37.2222" lon="-2.39109">
        <ele>1742.514</ele>
        <time>2021-07-18T10:18:08Z</time>
      </trkpt>
      <trkpt lat="37.22252" lon="-2.38954">
        <ele>1738.881</ele>
        <time>2021-07-18T10:18:19Z</time>
      </trkpt>
      <trkpt lat="37.22226" lon="-2.38764">
        <ele>1734.569</ele>
        <time>2021-07-18T10:18:30Z</time>
      </trkpt>
      <trkpt lat="37.22284" lon="-2.38652">
        <ele>1734.086</ele>
        <time>2021-07-18T10:18:41Z</time>
      </trkpt>
      <trkpt lat="37.22287" lon="-2.38649">
        <ele>1736.632</ele>
        <time>2021-07-18T10:18:53Z</time>
      </trkpt>
      <trkpt lat="37.22287" lon="-2.38651">
        <ele>1738.469</ele>
        <time>2021-07-18T10:19:53Z</time>
      </trkpt>
      <trkpt lat="37.22286" lon="-2.38652">
        <ele>1739.398</ele>
        <time>2021-07-18T10:20:53Z</time>
      </trkpt>
      <trkpt lat="37.22284" lon="-2.38653">
        <ele>1734.312</ele>
        <time>2021-07-18T10:21:53Z</time>
      </trkpt>
      <trkpt lat="37.22287" lon="-2.38651">
        <ele>1735.949</ele>
        <time>2021-07-18T10:22:12Z</time>
      </trkpt>
      <trkpt lat="37.22289" lon="-2.38655">
        <ele>1736.887</ele>
        <time>2021-07-18T10:22:53Z</time>
      </trkpt>
      <trkpt lat="37.22289" lon="-2.38653">
        <ele>1738.307</ele>
        <time>2021-07-18T10:23:53Z</time>
      </trkpt>
      <trkpt lat="37.2229" lon="-2.38654">
        <ele>1738.53</ele>
        <time>2021-07-18T10:24:52Z</time>
      </trkpt>
      <trkpt lat="37.22286" lon="-2.38655">
        <ele>1740.048</ele>
        <time>2021-07-18T10:25:25Z</time>
      </trkpt>
      <trkpt lat="37.22284" lon="-2.38648">
        <ele>1731.997</ele>
        <time>2021-07-18T10:26:03Z</time>
      </trkpt>
      <trkpt lat="37.22288" lon="-2.38649">
        <ele>1733.284</ele>
        <time>2021-07-18T10:26:46Z</time>
      </trkpt>
      <trkpt lat="37.22287" lon="-2.38654">
        <ele>1733.715</ele>
        <time>2021-07-18T10:26:57Z</time>
      </trkpt>
      <trkpt lat="37.22291" lon="-2.38656">
        <ele>1732.022</ele>
        <time>2021-07-18T10:27:30Z</time>
      </trkpt>
      <trkpt lat="37.2229" lon="-2.38656">
        <ele>1733.508</ele>
        <time>2021-07-18T10:28:29Z</time>
      </trkpt>
      <trkpt lat="37.22289" lon="-2.38655">
        <ele>1732.095</ele>
        <time>2021-07-18T10:29:28Z</time>
      </trkpt>
      <trkpt lat="37.22289" lon="-2.38652">
        <ele>1731.978</ele>
        <time>2021-07-18T10:30:27Z</time>
      </trkpt>
      <trkpt lat="37.22286" lon="-2.38649">
        <ele>1731.606</ele>
        <time>2021-07-18T10:30:44Z</time>
      </trkpt>
      <trkpt lat="37.22285" lon="-2.38644">
        <ele>1733.598</ele>
        <time>2021-07-18T10:31:03Z</time>
      </trkpt>
      <trkpt lat="37.22287" lon="-2.3865">
        <ele>1733.439</ele>
        <time>2021-07-18T10:31:29Z</time>
      </trkpt>
      <trkpt lat="37.2229" lon="-2.38654">
        <ele>1735.587</ele>
        <time>2021-07-18T10:32:23Z</time>
      </trkpt>
      <trkpt lat="37.22288" lon="-2.38656">
        <ele>1734.511</ele>
        <time>2021-07-18T10:33:22Z</time>
      </trkpt>
      <trkpt lat="37.22291" lon="-2.38651">
        <ele>1732.73</ele>
        <time>2021-07-18T10:34:08Z</time>
      </trkpt>
      <trkpt lat="37.22327" lon="-2.38531">
        <ele>1729.135</ele>
        <time>2021-07-18T10:34:19Z</time>
      </trkpt>
      <trkpt lat="37.22268" lon="-2.3842">
        <ele>1724.227</ele>
        <time>2021-07-18T10:34:30Z</time>
      </trkpt>
      <trkpt lat="37.22347" lon="-2.38234">
        <ele>1719.066</ele>
        <time>2021-07-18T10:34:41Z</time>
      </trkpt>
      <trkpt lat="37.22343" lon="-2.38052">
        <ele>1710.838</ele>
        <time>2021-07-18T10:34:52Z</time>
      </trkpt>
      <trkpt lat="37.22392" lon="-2.37875">
        <ele>1718.049</ele>
        <time>2021-07-18T10:35:03Z</time>
      </trkpt>
      <trkpt lat="37.22384" lon="-2.37723">
        <ele>1716.182</ele>
        <time>2021-07-18T10:35:14Z</time>
      </trkpt>
      <trkpt lat="37.22431" lon="-2.37558">
        <ele>1716.449</ele>
        <time>2021-07-18T10:35:25Z</time>
      </trkpt>
      <trkpt lat="37.22414" lon="-2.37381">
        <ele>1716.159</ele>
        <time>2021-07-18T10:35:36Z</time>
      </trkpt>
      <trkpt lat="37.22424" lon="-2.37318">
        <ele>1713.346</ele>
        <time>2021-07-18T10:35:47Z</time>
      </trkpt>
      <trkpt lat="37.22582" lon="-2.37344">
        <ele>1708.128</ele>
        <time>2021-07-18T10:35:58Z</time>
      </trkpt>
      <trkpt lat="37.22665" lon="-2.37393">
        <ele>1701.737</ele>
        <time>2021-07-18T10:36:09Z</time>
      </trkpt>
      <trkpt lat="37.22681" lon="-2.37391">
        <ele>1703.406</ele>
        <time>2021-07-18T10:36:20Z</time>
      </trkpt>
      <trkpt lat="37.22687" lon="-2.37397">
        <ele>1706.389</ele>
        <time>2021-07-18T10:36:31Z</time>
      </trkpt>
      <trkpt lat="37.22656" lon="-2.37401">
        <ele>1710.529</ele>
        <time>2021-07-18T10:36:42Z</time>
      </trkpt>
      <trkpt lat="37.22603" lon="-2.37382">
        <ele>1704.676</ele>
        <time>2021-07-18T10:36:53Z</time>
      </trkpt>
      <trkpt lat="37.226" lon="-2.37379">
        <ele>1704.433</ele>
        <time>2021-07-18T10:37:06Z</time>
      </trkpt>
      <trkpt lat="37.22582" lon="-2.37343">
        <ele>1704.987</ele>
        <time>2021-07-18T10:37:17Z</time>
      </trkpt>
      <trkpt lat="37.22485" lon="-2.37304">
        <ele>1702.239</ele>
        <time>2021-07-18T10:37:28Z</time>
      </trkpt>
      <trkpt lat="37.22446" lon="-2.37407">
        <ele>1709.175</ele>
        <time>2021-07-18T10:37:39Z</time>
      </trkpt>
      <trkpt lat="37.22432" lon="-2.3754">
        <ele>1711.598</ele>
        <time>2021-07-18T10:37:50Z</time>
      </trkpt>
      <trkpt lat="37.22402" lon="-2.3748">
        <ele>1716.262</ele>
        <time>2021-07-18T10:38:01Z</time>
      </trkpt>
      <trkpt lat="37.22418" lon="-2.37372">
        <ele>1724.798</ele>
        <time>2021-07-18T10:38:12Z</time>
      </trkpt>
      <trkpt lat="37.22361" lon="-2.37249">
        <ele>1732.228</ele>
        <time>2021-07-18T10:38:23Z</time>
      </trkpt>
      <trkpt lat="37.22375" lon="-2.37099">
        <ele>1742.299</ele>
        <time>2021-07-18T10:38:34Z</time>
      </trkpt>
      <trkpt lat="37.22406" lon="-2.36927">
        <ele>1735.922</ele>
        <time>2021-07-18T10:38:45Z</time>
      </trkpt>
      <trkpt lat="37.22445" lon="-2.36768">
        <ele>1725.753</ele>
        <time>2021-07-18T10:38:56Z</time>
      </trkpt>
      <trkpt lat="37.22442" lon="-2.36588">
        <ele>1719.011</ele>
        <time>2021-07-18T10:39:07Z</time>
      </trkpt>
      <trkpt lat="37.22482" lon="-2.36463">
        <ele>1709.706</ele>
        <time>2021-07-18T10:39:18Z</time>
      </trkpt>
      <trkpt lat="37.22434" lon="-2.36347">
        <ele>1708.366</ele>
        <time>2021-07-18T10:39:29Z</time>
      </trkpt>
      <trkpt lat="37.22381" lon="-2.36169">
        <ele>1701.676</ele>
        <time>2021-07-18T10:39:40Z</time>
      </trkpt>
      <trkpt lat="37.22385" lon="-2.35979">
        <ele>1687.786</ele>
        <time>2021-07-18T10:39:51Z</time>
      </trkpt>
      <trkpt lat="37.22436" lon="-2.35874">
        <ele>1676.565</ele>
        <time>2021-07-18T10:40:02Z</time>
      </trkpt>
      <trkpt lat="37.22573" lon="-2.35843">
        <ele>1673.109</ele>
        <time>2021-07-18T10:40:13Z</time>
      </trkpt>
      <trkpt lat="37.22725" lon="-2.3576">
        <ele>1656.988</ele>
        <time>2021-07-18T10:40:24Z</time>
      </trkpt>
      <trkpt lat="37.22852" lon="-2.35684">
        <ele>1647.229</ele>
        <time>2021-07-18T10:40:35Z</time>
      </trkpt>
      <trkpt lat="37.22894" lon="-2.3554">
        <ele>1633.319</ele>
        <time>2021-07-18T10:40:46Z</time>
      </trkpt>
      <trkpt lat="37.23006" lon="-2.3548">
        <ele>1636.165</ele>
        <time>2021-07-18T10:40:57Z</time>
      </trkpt>
      <trkpt lat="37.23013" lon="-2.3543">
        <ele>1648.95</ele>
        <time>2021-07-18T10:41:08Z</time>
      </trkpt>
      <trkpt lat="37.2291" lon="-2.3546">
        <ele>1652.82</ele>
        <time>2021-07-18T10:41:19Z</time>
      </trkpt>
      <trkpt lat="37.22808" lon="-2.35519">
        <ele>1642.493</ele>
        <time>2021-07-18T10:41:30Z</time>
      </trkpt>
      <trkpt lat="37.22715" lon="-2.35542">
        <ele>1617.806</ele>
        <time>2021-07-18T10:41:41Z</time>
      </trkpt>
      <trkpt lat="37.22584" lon="-2.35514">
        <ele>1606.424</ele>
        <time>2021-07-18T10:41:52Z</time>
      </trkpt>
      <trkpt lat="37.22464" lon="-2.35446">
        <ele>1588.771</ele>
        <time>2021-07-18T10:42:03Z</time>
      </trkpt>
      <trkpt lat="37.22385" lon="-2.35316">
        <ele>1569.239</ele>
        <time>2021-07-18T10:42:14Z</time>
      </trkpt>
      <trkpt lat="37.22308" lon="-2.35139">
        <ele>1578.013</ele>
        <time>2021-07-18T10:42:25Z</time>
      </trkpt>
      <trkpt lat="37.2219" lon="-2.35083">
        <ele>1566.004</ele>
        <time>2021-07-18T10:42:36Z</time>
      </trkpt>
      <trkpt lat="37.22102" lon="-2.34978">
        <ele>1557.954</ele>
        <time>2021-07-18T10:42:47Z</time>
      </trkpt>
      <trkpt lat="37.22049" lon="-2.34832">
        <ele>1541.839</ele>
        <time>2021-07-18T10:42:58Z</time>
      </trkpt>
      <trkpt lat="37.22039" lon="-2.34801">
        <ele>1540.458</ele>
        <time>2021-07-18T10:43:09Z</time>
      </trkpt>
      <trkpt lat="37.22041" lon="-2.34807">
        <ele>1564.424</ele>
        <time>2021-07-18T10:43:27Z</time>
      </trkpt>
      <trkpt lat="37.22006" lon="-2.34919">
        <ele>1558.693</ele>
        <time>2021-07-18T10:43:38Z</time>
      </trkpt>
      <trkpt lat="37.21965" lon="-2.35027">
        <ele>1558.318</ele>
        <time>2021-07-18T10:43:49Z</time>
      </trkpt>
      <trkpt lat="37.21968" lon="-2.35093">
        <ele>1582.419</ele>
        <time>2021-07-18T10:44:00Z</time>
      </trkpt>
      <trkpt lat="37.21999" lon="-2.35138">
        <ele>1601.131</ele>
        <time>2021-07-18T10:44:11Z</time>
      </trkpt>
      <trkpt lat="37.22004" lon="-2.35145">
        <ele>1608.389</ele>
        <time>2021-07-18T10:44:28Z</time>
      </trkpt>
      <trkpt lat="37.22085" lon="-2.35232">
        <ele>1605.283</ele>
        <time>2021-07-18T10:44:39Z</time>
      </trkpt>
      <trkpt lat="37.22112" lon="-2.35291">
        <ele>1598.944</ele>
        <time>2021-07-18T10:44:50Z</time>
      </trkpt>
      <trkpt lat="37.22112" lon="-2.35296">
        <ele>1614.539</ele>
        <time>2021-07-18T10:45:11Z</time>
      </trkpt>
      <trkpt lat="37.2211" lon="-2.35331">
        <ele>1612.963</ele>
        <time>2021-07-18T10:45:22Z</time>
      </trkpt>
      <trkpt lat="37.22107" lon="-2.35336">
        <ele>1609.807</ele>
        <time>2021-07-18T10:45:33Z</time>
      </trkpt>
      <trkpt lat="37.22103" lon="-2.35345">
        <ele>1610.002</ele>
        <time>2021-07-18T10:46:04Z</time>
      </trkpt>
      <trkpt lat="37.22079" lon="-2.35401">
        <ele>1604.977</ele>
        <time>2021-07-18T10:46:15Z</time>
      </trkpt>
      <trkpt lat="37.22067" lon="-2.35455">
        <ele>1593.349</ele>
        <time>2021-07-18T10:46:26Z</time>
      </trkpt>
      <trkpt lat="37.2206" lon="-2.35534">
        <ele>1577.415</ele>
        <time>2021-07-18T10:46:37Z</time>
      </trkpt>
      <trkpt lat="37.22022" lon="-2.35582">
        <ele>1565.307</ele>
        <time>2021-07-18T10:46:48Z</time>
      </trkpt>
      <trkpt lat="37.22008" lon="-2.35638">
        <ele>1556.666</ele>
        <time>2021-07-18T10:46:59Z</time>
      </trkpt>
      <trkpt lat="37.22007" lon="-2.35687">
        <ele>1547.749</ele>
        <time>2021-07-18T10:47:10Z</time>
      </trkpt>
      <trkpt lat="37.21999" lon="-2.35739">
        <ele>1537.577</ele>
        <time>2021-07-18T10:47:21Z</time>
      </trkpt>
      <trkpt lat="37.21986" lon="-2.35781">
        <ele>1526.704</ele>
        <time>2021-07-18T10:47:32Z</time>
      </trkpt>
      <trkpt lat="37.2198" lon="-2.35835">
        <ele>1515.838</ele>
        <time>2021-07-18T10:47:43Z</time>
      </trkpt>
      <trkpt lat="37.21972" lon="-2.35891">
        <ele>1506.846</ele>
        <time>2021-07-18T10:47:54Z</time>
      </trkpt>
      <trkpt lat="37.21967" lon="-2.35923">
        <ele>1502.801</ele>
        <time>2021-07-18T10:48:05Z</time>
      </trkpt>
      <trkpt lat="37.21968" lon="-2.35981">
        <ele>1492.444</ele>
        <time>2021-07-18T10:48:16Z</time>
      </trkpt>
      <trkpt lat="37.21972" lon="-2.36052">
        <ele>1481.107</ele>
        <time>2021-07-18T10:48:27Z</time>
      </trkpt>
      <trkpt lat="37.21934" lon="-2.36126">
        <ele>1472.403</ele>
        <time>2021-07-18T10:48:38Z</time>
      </trkpt>
      <trkpt lat="37.21885" lon="-2.36169">
        <ele>1479.435</ele>
        <time>2021-07-18T10:48:49Z</time>
      </trkpt>
      <trkpt lat="37.21834" lon="-2.36192">
        <ele>1471.858</ele>
        <time>2021-07-18T10:49:00Z</time>
      </trkpt>
      <trkpt lat="37.21758" lon="-2.36193">
        <ele>1474.856</ele>
        <time>2021-07-18T10:49:11Z</time>
      </trkpt>
      <trkpt lat="37.21688" lon="-2.36252">
        <ele>1465.975</ele>
        <time>2021-07-18T10:49:22Z</time>
      </trkpt>
      <trkpt lat="37.21594" lon="-2.36231">
        <ele>1445.231</ele>
        <time>2021-07-18T10:49:33Z</time>
      </trkpt>
      <trkpt lat="37.21524" lon="-2.36223">
        <ele>1442.513</ele>
        <time>2021-07-18T10:49:44Z</time>
      </trkpt>
      <trkpt lat="37.21461" lon="-2.36273">
        <ele>1419.458</ele>
        <time>2021-07-18T10:49:55Z</time>
      </trkpt>
      <trkpt lat="37.21382" lon="-2.36372">
        <ele>1424.763</ele>
        <time>2021-07-18T10:50:06Z</time>
      </trkpt>
      <trkpt lat="37.21327" lon="-2.36421">
        <ele>1421.522</ele>
        <time>2021-07-18T10:50:17Z</time>
      </trkpt>
      <trkpt lat="37.21221" lon="-2.36354">
        <ele>1410.548</ele>
        <time>2021-07-18T10:50:28Z</time>
      </trkpt>
      <trkpt lat="37.21093" lon="-2.36321">
        <ele>1399.305</ele>
        <time>2021-07-18T10:50:39Z</time>
      </trkpt>
      <trkpt lat="37.21021" lon="-2.3629">
        <ele>1387.98</ele>
        <time>2021-07-18T10:50:50Z</time>
      </trkpt>
      <trkpt lat="37.21119" lon="-2.36257">
        <ele>1377.807</ele>
        <time>2021-07-18T10:51:01Z</time>
      </trkpt>
      <trkpt lat="37.21237" lon="-2.36224">
        <ele>1363.598</ele>
        <time>2021-07-18T10:51:12Z</time>
      </trkpt>
      <trkpt lat="37.21294" lon="-2.3621">
        <ele>1359.818</ele>
        <time>2021-07-18T10:51:23Z</time>
      </trkpt>
      <trkpt lat="37.21215" lon="-2.36177">
        <ele>1341.258</ele>
        <time>2021-07-18T10:51:34Z</time>
      </trkpt>
      <trkpt lat="37.21141" lon="-2.36137">
        <ele>1336.148</ele>
        <time>2021-07-18T10:51:45Z</time>
      </trkpt>
      <trkpt lat="37.21039" lon="-2.36118">
        <ele>1332.752</ele>
        <time>2021-07-18T10:51:56Z</time>
      </trkpt>
      <trkpt lat="37.20978" lon="-2.36082">
        <ele>1324.041</ele>
        <time>2021-07-18T10:52:07Z</time>
      </trkpt>
      <trkpt lat="37.21103" lon="-2.36071">
        <ele>1313.173</ele>
        <time>2021-07-18T10:52:18Z</time>
      </trkpt>
      <trkpt lat="37.21148" lon="-2.3601">
        <ele>1303.669</ele>
        <time>2021-07-18T10:52:29Z</time>
      </trkpt>
      <trkpt lat="37.21082" lon="-2.36006">
        <ele>1292.756</ele>
        <time>2021-07-18T10:52:40Z</time>
      </trkpt>
      <trkpt lat="37.20991" lon="-2.35988">
        <ele>1285.713</ele>
        <time>2021-07-18T10:52:51Z</time>
      </trkpt>
      <trkpt lat="37.20944" lon="-2.36002">
        <ele>1287.278</ele>
        <time>2021-07-18T10:53:02Z</time>
      </trkpt>
      <trkpt lat="37.20926" lon="-2.36">
        <ele>1311.912</ele>
        <time>2021-07-18T10:53:13Z</time>
      </trkpt>
      <trkpt lat="37.20869" lon="-2.35983">
        <ele>1318.456</ele>
        <time>2021-07-18T10:53:24Z</time>
      </trkpt>
      <trkpt lat="37.20878" lon="-2.35993">
        <ele>1273.411</ele>
        <time>2021-07-18T10:53:35Z</time>
      </trkpt>
      <trkpt lat="37.2088" lon="-2.35994">
        <ele>1274.383</ele>
        <time>2021-07-18T10:54:35Z</time>
      </trkpt>
      <trkpt lat="37.2088" lon="-2.35995">
        <ele>1274.759</ele>
        <time>2021-07-18T10:55:35Z</time>
      </trkpt>
      <trkpt lat="37.20864" lon="-2.35981">
        <ele>1272.783</ele>
        <time>2021-07-18T10:55:46Z</time>
      </trkpt>
      <trkpt lat="37.20829" lon="-2.35943">
        <ele>1259.829</ele>
        <time>2021-07-18T10:55:57Z</time>
      </trkpt>
      <trkpt lat="37.20898" lon="-2.35907">
        <ele>1245.349</ele>
        <time>2021-07-18T10:56:08Z</time>
      </trkpt>
      <trkpt lat="37.20973" lon="-2.3589">
        <ele>1243.046</ele>
        <time>2021-07-18T10:56:19Z</time>
      </trkpt>
      <trkpt lat="37.20938" lon="-2.35856">
        <ele>1232.72</ele>
        <time>2021-07-18T10:56:30Z</time>
      </trkpt>
      <trkpt lat="37.20866" lon="-2.35865">
        <ele>1220.83</ele>
        <time>2021-07-18T10:56:41Z</time>
      </trkpt>
      <trkpt lat="37.20798" lon="-2.35818">
        <ele>1205.381</ele>
        <time>2021-07-18T10:56:52Z</time>
      </trkpt>
      <trkpt lat="37.20708" lon="-2.35805">
        <ele>1198.855</ele>
        <time>2021-07-18T10:57:03Z</time>
      </trkpt>
      <trkpt lat="37.20626" lon="-2.35748">
        <ele>1189.363</ele>
        <time>2021-07-18T10:57:14Z</time>
      </trkpt>
      <trkpt lat="37.20571" lon="-2.35738">
        <ele>1183.583</ele>
        <time>2021-07-18T10:57:25Z</time>
      </trkpt>
      <trkpt lat="37.20578" lon="-2.35805">
        <ele>1175.248</ele>
        <time>2021-07-18T10:57:36Z</time>
      </trkpt>
      <trkpt lat="37.20583" lon="-2.35838">
        <ele>1169.45</ele>
        <time>2021-07-18T10:57:47Z</time>
      </trkpt>
      <trkpt lat="37.20579" lon="-2.35834">
        <ele>1168.343</ele>
        <time>2021-07-18T10:57:59Z</time>
      </trkpt>
      <trkpt lat="37.20525" lon="-2.35762">
        <ele>1162.209</ele>
        <time>2021-07-18T10:58:10Z</time>
      </trkpt>
      <trkpt lat="37.2046" lon="-2.35663">
        <ele>1148.942</ele>
        <time>2021-07-18T10:58:21Z</time>
      </trkpt>
      <trkpt lat="37.20415" lon="-2.35517">
        <ele>1132.28</ele>
        <time>2021-07-18T10:58:32Z</time>
      </trkpt>
      <trkpt lat="37.20348" lon="-2.35381">
        <ele>1109.323</ele>
        <time>2021-07-18T10:58:43Z</time>
      </trkpt>
      <trkpt lat="37.20261" lon="-2.3526">
        <ele>1102.123</ele>
        <time>2021-07-18T10:58:54Z</time>
      </trkpt>
      <trkpt lat="37.20147" lon="-2.35224">
        <ele>1108.102</ele>
        <time>2021-07-18T10:59:05Z</time>
      </trkpt>
      <trkpt lat="37.20015" lon="-2.35187">
        <ele>1083.34</ele>
        <time>2021-07-18T10:59:16Z</time>
      </trkpt>
      <trkpt lat="37.19885" lon="-2.35067">
        <ele>1089.555</ele>
        <time>2021-07-18T10:59:27Z</time>
      </trkpt>
      <trkpt lat="37.19793" lon="-2.34956">
        <ele>1083.267</ele>
        <time>2021-07-18T10:59:38Z</time>
      </trkpt>
      <trkpt lat="37.19707" lon="-2.34956">
        <ele>1083.877</ele>
        <time>2021-07-18T10:59:49Z</time>
      </trkpt>
      <trkpt lat="37.19615" lon="-2.34906">
        <ele>1078.415</ele>
        <time>2021-07-18T11:00:00Z</time>
      </trkpt>
      <trkpt lat="37.1958" lon="-2.34784">
        <ele>1069.032</ele>
        <time>2021-07-18T11:00:11Z</time>
      </trkpt>
      <trkpt lat="37.1957" lon="-2.34768">
        <ele>1064.504</ele>
        <time>2021-07-18T11:00:22Z</time>
      </trkpt>
      <trkpt lat="37.19542" lon="-2.34866">
        <ele>1055.493</ele>
        <time>2021-07-18T11:00:33Z</time>
      </trkpt>
      <trkpt lat="37.19561" lon="-2.34961">
        <ele>1047.797</ele>
        <time>2021-07-18T11:00:44Z</time>
      </trkpt>
      <trkpt lat="37.19621" lon="-2.35032">
        <ele>1037.007</ele>
        <time>2021-07-18T11:00:55Z</time>
      </trkpt>
      <trkpt lat="37.1972" lon="-2.35107">
        <ele>1025.295</ele>
        <time>2021-07-18T11:01:06Z</time>
      </trkpt>
      <trkpt lat="37.1981" lon="-2.35189">
        <ele>1017.983</ele>
        <time>2021-07-18T11:01:17Z</time>
      </trkpt>
      <trkpt lat="37.1989" lon="-2.35292">
        <ele>1012.539</ele>
        <time>2021-07-18T11:01:28Z</time>
      </trkpt>
      <trkpt lat="37.19979" lon="-2.3538">
        <ele>1002.78</ele>
        <time>2021-07-18T11:01:39Z</time>
      </trkpt>
      <trkpt lat="37.20065" lon="-2.35438">
        <ele>1000.086</ele>
        <time>2021-07-18T11:01:50Z</time>
      </trkpt>
      <trkpt lat="37.20035" lon="-2.35486">
        <ele>1002.907</ele>
        <time>2021-07-18T11:02:01Z</time>
      </trkpt>
      <trkpt lat="37.19945" lon="-2.35519">
        <ele>981.1822</ele>
        <time>2021-07-18T11:02:12Z</time>
      </trkpt>
      <trkpt lat="37.1986" lon="-2.35578">
        <ele>962.6717</ele>
        <time>2021-07-18T11:02:23Z</time>
      </trkpt>
      <trkpt lat="37.19801" lon="-2.35579">
        <ele>971.2014</ele>
        <time>2021-07-18T11:02:34Z</time>
      </trkpt>
      <trkpt lat="37.198" lon="-2.35703">
        <ele>966.7433</ele>
        <time>2021-07-18T11:02:45Z</time>
      </trkpt>
      <trkpt lat="37.19798" lon="-2.35822">
        <ele>964.5954</ele>
        <time>2021-07-18T11:02:56Z</time>
      </trkpt>
      <trkpt lat="37.19745" lon="-2.35778">
        <ele>971.6913</ele>
        <time>2021-07-18T11:03:07Z</time>
      </trkpt>
      <trkpt lat="37.19687" lon="-2.35674">
        <ele>965.7103</ele>
        <time>2021-07-18T11:03:18Z</time>
      </trkpt>
      <trkpt lat="37.19616" lon="-2.35662">
        <ele>947.418</ele>
        <time>2021-07-18T11:03:29Z</time>
      </trkpt>
      <trkpt lat="37.19564" lon="-2.35788">
        <ele>915.0527</ele>
        <time>2021-07-18T11:03:40Z</time>
      </trkpt>
      <trkpt lat="37.19526" lon="-2.35911">
        <ele>942.2167</ele>
        <time>2021-07-18T11:03:51Z</time>
      </trkpt>
      <trkpt lat="37.19497" lon="-2.35844">
        <ele>935.2551</ele>
        <time>2021-07-18T11:04:02Z</time>
      </trkpt>
      <trkpt lat="37.19442" lon="-2.35719">
        <ele>922.4595</ele>
        <time>2021-07-18T11:04:13Z</time>
      </trkpt>
      <trkpt lat="37.19403" lon="-2.35616">
        <ele>915.4322</ele>
        <time>2021-07-18T11:04:24Z</time>
      </trkpt>
      <trkpt lat="37.19332" lon="-2.35556">
        <ele>919.6075</ele>
        <time>2021-07-18T11:04:35Z</time>
      </trkpt>
      <trkpt lat="37.19273" lon="-2.35468">
        <ele>914.7341</ele>
        <time>2021-07-18T11:04:46Z</time>
      </trkpt>
      <trkpt lat="37.19171" lon="-2.35485">
        <ele>915.8802</ele>
        <time>2021-07-18T11:04:57Z</time>
      </trkpt>
      <trkpt lat="37.19088" lon="-2.35479">
        <ele>913.0361</ele>
        <time>2021-07-18T11:05:08Z</time>
      </trkpt>
      <trkpt lat="37.18978" lon="-2.35484">
        <ele>904.5236</ele>
        <time>2021-07-18T11:05:19Z</time>
      </trkpt>
      <trkpt lat="37.18846" lon="-2.35497">
        <ele>893.5235</ele>
        <time>2021-07-18T11:05:30Z</time>
      </trkpt>
      <trkpt lat="37.18783" lon="-2.35527">
        <ele>887.289</ele>
        <time>2021-07-18T11:05:41Z</time>
      </trkpt>
      <trkpt lat="37.18785" lon="-2.35686">
        <ele>882.9197</ele>
        <time>2021-07-18T11:05:52Z</time>
      </trkpt>
      <trkpt lat="37.18801" lon="-2.35844">
        <ele>888.59</ele>
        <time>2021-07-18T11:06:03Z</time>
      </trkpt>
      <trkpt lat="37.18822" lon="-2.35986">
        <ele>900.5764</ele>
        <time>2021-07-18T11:06:14Z</time>
      </trkpt>
      <trkpt lat="37.18768" lon="-2.36063">
        <ele>900.1576</ele>
        <time>2021-07-18T11:06:25Z</time>
      </trkpt>
      <trkpt lat="37.18738" lon="-2.36236">
        <ele>891.5481</ele>
        <time>2021-07-18T11:06:36Z</time>
      </trkpt>
      <trkpt lat="37.18759" lon="-2.36332">
        <ele>898.8017</ele>
        <time>2021-07-18T11:06:47Z</time>
      </trkpt>
      <trkpt lat="37.1887" lon="-2.36356">
        <ele>906.3455</ele>
        <time>2021-07-18T11:06:58Z</time>
      </trkpt>
      <trkpt lat="37.18911" lon="-2.36473">
        <ele>909.7806</ele>
        <time>2021-07-18T11:07:09Z</time>
      </trkpt>
      <trkpt lat="37.18978" lon="-2.36605">
        <ele>914.341</ele>
        <time>2021-07-18T11:07:20Z</time>
      </trkpt>
      <trkpt lat="37.19059" lon="-2.36685">
        <ele>912.7493</ele>
        <time>2021-07-18T11:07:31Z</time>
      </trkpt>
      <trkpt lat="37.19047" lon="-2.36752">
        <ele>910.9012</ele>
        <time>2021-07-18T11:07:42Z</time>
      </trkpt>
      <trkpt lat="37.18975" lon="-2.36808">
        <ele>916.1635</ele>
        <time>2021-07-18T11:07:53Z</time>
      </trkpt>
      <trkpt lat="37.18902" lon="-2.36834">
        <ele>911.9589</ele>
        <time>2021-07-18T11:08:04Z</time>
      </trkpt>
      <trkpt lat="37.18875" lon="-2.36969">
        <ele>907.3341</ele>
        <time>2021-07-18T11:08:15Z</time>
      </trkpt>
      <trkpt lat="37.18822" lon="-2.37047">
        <ele>902.3892</ele>
        <time>2021-07-18T11:08:26Z</time>
      </trkpt>
      <trkpt lat="37.18805" lon="-2.37159">
        <ele>896.7341</ele>
        <time>2021-07-18T11:08:37Z</time>
      </trkpt>
      <trkpt lat="37.18802" lon="-2.37221">
        <ele>897.8248</ele>
        <time>2021-07-18T11:08:48Z</time>
      </trkpt>
      <trkpt lat="37.1873" lon="-2.37212">
        <ele>903.7993</ele>
        <time>2021-07-18T11:08:59Z</time>
      </trkpt>
      <trkpt lat="37.18606" lon="-2.37201">
        <ele>902.2887</ele>
        <time>2021-07-18T11:09:10Z</time>
      </trkpt>
      <trkpt lat="37.18589" lon="-2.37298">
        <ele>903.8876</ele>
        <time>2021-07-18T11:09:21Z</time>
      </trkpt>
      <trkpt lat="37.18609" lon="-2.37455">
        <ele>904.8081</ele>
        <time>2021-07-18T11:09:32Z</time>
      </trkpt>
      <trkpt lat="37.18563" lon="-2.3751">
        <ele>907.9604</ele>
        <time>2021-07-18T11:09:43Z</time>
      </trkpt>
      <trkpt lat="37.18492" lon="-2.37393">
        <ele>910.2742</ele>
        <time>2021-07-18T11:09:54Z</time>
      </trkpt>
      <trkpt lat="37.18425" lon="-2.37399">
        <ele>916.3346</ele>
        <time>2021-07-18T11:10:05Z</time>
      </trkpt>
      <trkpt lat="37.18467" lon="-2.37527">
        <ele>921.397</ele>
        <time>2021-07-18T11:10:16Z</time>
      </trkpt>
      <trkpt lat="37.18511" lon="-2.37683">
        <ele>934.0787</ele>
        <time>2021-07-18T11:10:27Z</time>
      </trkpt>
      <trkpt lat="37.18545" lon="-2.37812">
        <ele>939.3485</ele>
        <time>2021-07-18T11:10:38Z</time>
      </trkpt>
      <trkpt lat="37.18538" lon="-2.379">
        <ele>944.1584</ele>
        <time>2021-07-18T11:10:49Z</time>
      </trkpt>
      <trkpt lat="37.18507" lon="-2.37971">
        <ele>945.0493</ele>
        <time>2021-07-18T11:11:00Z</time>
      </trkpt>
      <trkpt lat="37.18434" lon="-2.38014">
        <ele>945.5209</ele>
        <time>2021-07-18T11:11:11Z</time>
      </trkpt>
      <trkpt lat="37.18414" lon="-2.38152">
        <ele>940.7978</ele>
        <time>2021-07-18T11:11:22Z</time>
      </trkpt>
      <trkpt lat="37.1845" lon="-2.38289">
        <ele>941.7673</ele>
        <time>2021-07-18T11:11:33Z</time>
      </trkpt>
      <trkpt lat="37.18492" lon="-2.38359">
        <ele>946.063</ele>
        <time>2021-07-18T11:11:44Z</time>
      </trkpt>
      <trkpt lat="37.18441" lon="-2.38416">
        <ele>963.442</ele>
        <time>2021-07-18T11:11:55Z</time>
      </trkpt>
      <trkpt lat="37.1837" lon="-2.3848">
        <ele>970.6514</ele>
        <time>2021-07-18T11:12:06Z</time>
      </trkpt>
      <trkpt lat="37.18348" lon="-2.3852">
        <ele>975.7765</ele>
        <time>2021-07-18T11:12:17Z</time>
      </trkpt>
      <trkpt lat="37.18318" lon="-2.38471">
        <ele>979.2036</ele>
        <time>2021-07-18T11:12:28Z</time>
      </trkpt>
      <trkpt lat="37.18267" lon="-2.38387">
        <ele>979.6001</ele>
        <time>2021-07-18T11:12:39Z</time>
      </trkpt>
      <trkpt lat="37.1814" lon="-2.38388">
        <ele>988.4019</ele>
        <time>2021-07-18T11:12:50Z</time>
      </trkpt>
      <trkpt lat="37.18034" lon="-2.38365">
        <ele>986.8474</ele>
        <time>2021-07-18T11:13:01Z</time>
      </trkpt>
      <trkpt lat="37.18011" lon="-2.38481">
        <ele>993.4538</ele>
        <time>2021-07-18T11:13:12Z</time>
      </trkpt>
      <trkpt lat="37.17935" lon="-2.38579">
        <ele>1009.276</ele>
        <time>2021-07-18T11:13:23Z</time>
      </trkpt>
      <trkpt lat="37.17846" lon="-2.38634">
        <ele>1020.833</ele>
        <time>2021-07-18T11:13:34Z</time>
      </trkpt>
      <trkpt lat="37.1784" lon="-2.38806">
        <ele>1031.853</ele>
        <time>2021-07-18T11:13:45Z</time>
      </trkpt>
      <trkpt lat="37.17797" lon="-2.38963">
        <ele>1044.424</ele>
        <time>2021-07-18T11:13:56Z</time>
      </trkpt>
      <trkpt lat="37.17818" lon="-2.39079">
        <ele>1026.259</ele>
        <time>2021-07-18T11:14:07Z</time>
      </trkpt>
      <trkpt lat="37.17902" lon="-2.39066">
        <ele>1011.081</ele>
        <time>2021-07-18T11:14:18Z</time>
      </trkpt>
      <trkpt lat="37.17981" lon="-2.39225">
        <ele>1008.14</ele>
        <time>2021-07-18T11:14:29Z</time>
      </trkpt>
      <trkpt lat="37.18063" lon="-2.39322">
        <ele>1011.139</ele>
        <time>2021-07-18T11:14:40Z</time>
      </trkpt>
      <trkpt lat="37.18067" lon="-2.39392">
        <ele>1010.248</ele>
        <time>2021-07-18T11:14:51Z</time>
      </trkpt>
      <trkpt lat="37.1811" lon="-2.39453">
        <ele>998.1885</ele>
        <time>2021-07-18T11:15:02Z</time>
      </trkpt>
      <trkpt lat="37.18184" lon="-2.39509">
        <ele>990.9971</ele>
        <time>2021-07-18T11:15:13Z</time>
      </trkpt>
      <trkpt lat="37.18232" lon="-2.39649">
        <ele>982.8327</ele>
        <time>2021-07-18T11:15:24Z</time>
      </trkpt>
      <trkpt lat="37.18277" lon="-2.39822">
        <ele>975.8994</ele>
        <time>2021-07-18T11:15:35Z</time>
      </trkpt>
      <trkpt lat="37.18301" lon="-2.39942">
        <ele>972.0418</ele>
        <time>2021-07-18T11:15:46Z</time>
      </trkpt>
      <trkpt lat="37.18271" lon="-2.40052">
        <ele>975.0168</ele>
        <time>2021-07-18T11:15:57Z</time>
      </trkpt>
      <trkpt lat="37.184" lon="-2.40099">
        <ele>965.2946</ele>
        <time>2021-07-18T11:16:08Z</time>
      </trkpt>
      <trkpt lat="37.18516" lon="-2.40169">
        <ele>953.7021</ele>
        <time>2021-07-18T11:16:19Z</time>
      </trkpt>
      <trkpt lat="37.18623" lon="-2.40113">
        <ele>945.496</ele>
        <time>2021-07-18T11:16:30Z</time>
      </trkpt>
      <trkpt lat="37.18704" lon="-2.40078">
        <ele>934.196</ele>
        <time>2021-07-18T11:16:41Z</time>
      </trkpt>
      <trkpt lat="37.18666" lon="-2.40127">
        <ele>928.0711</ele>
        <time>2021-07-18T11:16:52Z</time>
      </trkpt>
      <trkpt lat="37.18588" lon="-2.40232">
        <ele>915.381</ele>
        <time>2021-07-18T11:17:03Z</time>
      </trkpt>
      <trkpt lat="37.18604" lon="-2.40238">
        <ele>906.0661</ele>
        <time>2021-07-18T11:17:14Z</time>
      </trkpt>
      <trkpt lat="37.18684" lon="-2.40201">
        <ele>891.6547</ele>
        <time>2021-07-18T11:17:25Z</time>
      </trkpt>
      <trkpt lat="37.18787" lon="-2.40236">
        <ele>881.7114</ele>
        <time>2021-07-18T11:17:36Z</time>
      </trkpt>
      <trkpt lat="37.18826" lon="-2.40229">
        <ele>876.9337</ele>
        <time>2021-07-18T11:17:47Z</time>
      </trkpt>
      <trkpt lat="37.18747" lon="-2.40337">
        <ele>861.0435</ele>
        <time>2021-07-18T11:17:58Z</time>
      </trkpt>
      <trkpt lat="37.18675" lon="-2.40363">
        <ele>856.9673</ele>
        <time>2021-07-18T11:18:09Z</time>
      </trkpt>
      <trkpt lat="37.18595" lon="-2.40423">
        <ele>839.2743</ele>
        <time>2021-07-18T11:18:20Z</time>
      </trkpt>
      <trkpt lat="37.18466" lon="-2.40488">
        <ele>848.7885</ele>
        <time>2021-07-18T11:18:31Z</time>
      </trkpt>
      <trkpt lat="37.18403" lon="-2.40707">
        <ele>858.2701</ele>
        <time>2021-07-18T11:18:42Z</time>
      </trkpt>
      <trkpt lat="37.18342" lon="-2.40916">
        <ele>826.2587</ele>
        <time>2021-07-18T11:18:53Z</time>
      </trkpt>
      <trkpt lat="37.18149" lon="-2.41034">
        <ele>805.5012</ele>
        <time>2021-07-18T11:19:04Z</time>
      </trkpt>
      <trkpt lat="37.1799" lon="-2.4123">
        <ele>792.6566</ele>
        <time>2021-07-18T11:19:15Z</time>
      </trkpt>
      <trkpt lat="37.17799" lon="-2.41371">
        <ele>781.1311</ele>
        <time>2021-07-18T11:19:26Z</time>
      </trkpt>
      <trkpt lat="37.17568" lon="-2.41304">
        <ele>773.7244</ele>
        <time>2021-07-18T11:19:37Z</time>
      </trkpt>
      <trkpt lat="37.17346" lon="-2.41309">
        <ele>771.7949</ele>
        <time>2021-07-18T11:19:48Z</time>
      </trkpt>
      <trkpt lat="37.17098" lon="-2.41352">
        <ele>763.6915</ele>
        <time>2021-07-18T11:19:59Z</time>
      </trkpt>
      <trkpt lat="37.16836" lon="-2.41412">
        <ele>760.3808</ele>
        <time>2021-07-18T11:20:10Z</time>
      </trkpt>
      <trkpt lat="37.16563" lon="-2.41465">
        <ele>749.2584</ele>
        <time>2021-07-18T11:20:21Z</time>
      </trkpt>
      <trkpt lat="37.16323" lon="-2.41534">
        <ele>733.1287</ele>
        <time>2021-07-18T11:20:32Z</time>
      </trkpt>
      <trkpt lat="37.16176" lon="-2.41666">
        <ele>729.1293</ele>
        <time>2021-07-18T11:20:43Z</time>
      </trkpt>
      <trkpt lat="37.15996" lon="-2.4176">
        <ele>723.2361</ele>
        <time>2021-07-18T11:20:54Z</time>
      </trkpt>
      <trkpt lat="37.158" lon="-2.41657">
        <ele>718.7532</ele>
        <time>2021-07-18T11:21:05Z</time>
      </trkpt>
      <trkpt lat="37.15596" lon="-2.41682">
        <ele>716.4463</ele>
        <time>2021-07-18T11:21:16Z</time>
      </trkpt>
      <trkpt lat="37.15435" lon="-2.41762">
        <ele>714.2514</ele>
        <time>2021-07-18T11:21:27Z</time>
      </trkpt>
      <trkpt lat="37.15221" lon="-2.41808">
        <ele>704.7654</ele>
        <time>2021-07-18T11:21:38Z</time>
      </trkpt>
      <trkpt lat="37.1506" lon="-2.41889">
        <ele>700.9927</ele>
        <time>2021-07-18T11:21:49Z</time>
      </trkpt>
      <trkpt lat="37.14882" lon="-2.42021">
        <ele>692.019</ele>
        <time>2021-07-18T11:22:00Z</time>
      </trkpt>
      <trkpt lat="37.1472" lon="-2.42159">
        <ele>685.6483</ele>
        <time>2021-07-18T11:22:11Z</time>
      </trkpt>
      <trkpt lat="37.14667" lon="-2.42187">
        <ele>684.9476</ele>
        <time>2021-07-18T11:22:22Z</time>
      </trkpt>
      <trkpt lat="37.14669" lon="-2.42181">
        <ele>685.8444</ele>
        <time>2021-07-18T11:22:39Z</time>
      </trkpt>
      <trkpt lat="37.1462" lon="-2.42129">
        <ele>681.7775</ele>
        <time>2021-07-18T11:22:50Z</time>
      </trkpt>
      <trkpt lat="37.14538" lon="-2.42085">
        <ele>675.563</ele>
        <time>2021-07-18T11:23:01Z</time>
      </trkpt>
      <trkpt lat="37.14437" lon="-2.42113">
        <ele>667.6825</ele>
        <time>2021-07-18T11:23:12Z</time>
      </trkpt>
      <trkpt lat="37.14393" lon="-2.42112">
        <ele>676.4003</ele>
        <time>2021-07-18T11:23:23Z</time>
      </trkpt>
      <trkpt lat="37.14396" lon="-2.42109">
        <ele>676.4377</ele>
        <time>2021-07-18T11:23:34Z</time>
      </trkpt>
      <trkpt lat="37.14399" lon="-2.42142">
        <ele>675.092</ele>
        <time>2021-07-18T11:23:45Z</time>
      </trkpt>
      <trkpt lat="37.14304" lon="-2.4219">
        <ele>671.0933</ele>
        <time>2021-07-18T11:23:56Z</time>
      </trkpt>
      <trkpt lat="37.14218" lon="-2.422">
        <ele>670.6465</ele>
        <time>2021-07-18T11:24:07Z</time>
      </trkpt>
      <trkpt lat="37.14125" lon="-2.42182">
        <ele>669.4597</ele>
        <time>2021-07-18T11:24:18Z</time>
      </trkpt>
      <trkpt lat="37.14045" lon="-2.42181">
        <ele>658.3633</ele>
        <time>2021-07-18T11:24:29Z</time>
      </trkpt>
      <trkpt lat="37.13966" lon="-2.4219">
        <ele>660.6082</ele>
        <time>2021-07-18T11:24:40Z</time>
      </trkpt>
      <trkpt lat="37.13882" lon="-2.42204">
        <ele>660.3937</ele>
        <time>2021-07-18T11:24:51Z</time>
      </trkpt>
      <trkpt lat="37.13785" lon="-2.42223">
        <ele>658.9614</ele>
        <time>2021-07-18T11:25:02Z</time>
      </trkpt>
      <trkpt lat="37.13681" lon="-2.42224">
        <ele>654.7317</ele>
        <time>2021-07-18T11:25:13Z</time>
      </trkpt>
      <trkpt lat="37.13591" lon="-2.42235">
        <ele>653.5211</ele>
        <time>2021-07-18T11:25:24Z</time>
      </trkpt>
      <trkpt lat="37.13511" lon="-2.42226">
        <ele>651.1657</ele>
        <time>2021-07-18T11:25:35Z</time>
      </trkpt>
      <trkpt lat="37.13422" lon="-2.42192">
        <ele>646.8295</ele>
        <time>2021-07-18T11:25:46Z</time>
      </trkpt>
      <trkpt lat="37.13355" lon="-2.42183">
        <ele>646.8968</ele>
        <time>2021-07-18T11:25:57Z</time>
      </trkpt>
      <trkpt lat="37.13259" lon="-2.42155">
        <ele>650.4342</ele>
        <time>2021-07-18T11:26:08Z</time>
      </trkpt>
      <trkpt lat="37.13225" lon="-2.42124">
        <ele>655.3552</ele>
        <time>2021-07-18T11:26:19Z</time>
      </trkpt>
      <trkpt lat="37.13147" lon="-2.42118">
        <ele>656.7023</ele>
        <time>2021-07-18T11:26:30Z</time>
      </trkpt>
      <trkpt lat="37.1307" lon="-2.42102">
        <ele>650.9919</ele>
        <time>2021-07-18T11:26:41Z</time>
      </trkpt>
      <trkpt lat="37.12997" lon="-2.42018">
        <ele>637.0416</ele>
        <time>2021-07-18T11:26:52Z</time>
      </trkpt>
      <trkpt lat="37.12916" lon="-2.41949">
        <ele>621.3036</ele>
        <time>2021-07-18T11:27:03Z</time>
      </trkpt>
      <trkpt lat="37.12851" lon="-2.41898">
        <ele>610.2135</ele>
        <time>2021-07-18T11:27:14Z</time>
      </trkpt>
      <trkpt lat="37.12754" lon="-2.41816">
        <ele>621.7093</ele>
        <time>2021-07-18T11:27:25Z</time>
      </trkpt>
      <trkpt lat="37.12687" lon="-2.41736">
        <ele>624.8031</ele>
        <time>2021-07-18T11:27:36Z</time>
      </trkpt>
      <trkpt lat="37.12606" lon="-2.4163">
        <ele>623.6019</ele>
        <time>2021-07-18T11:27:47Z</time>
      </trkpt>
      <trkpt lat="37.12487" lon="-2.41497">
        <ele>619.7422</ele>
        <time>2021-07-18T11:27:58Z</time>
      </trkpt>
      <trkpt lat="37.12388" lon="-2.41386">
        <ele>612.2215</ele>
        <time>2021-07-18T11:28:09Z</time>
      </trkpt>
      <trkpt lat="37.1231" lon="-2.41268">
        <ele>612.5824</ele>
        <time>2021-07-18T11:28:20Z</time>
      </trkpt>
      <trkpt lat="37.12212" lon="-2.41161">
        <ele>602.8422</ele>
        <time>2021-07-18T11:28:31Z</time>
      </trkpt>
      <trkpt lat="37.12087" lon="-2.41028">
        <ele>609.1532</ele>
        <time>2021-07-18T11:28:42Z</time>
      </trkpt>
      <trkpt lat="37.11966" lon="-2.40919">
        <ele>602.1548</ele>
        <time>2021-07-18T11:28:53Z</time>
      </trkpt>
      <trkpt lat="37.11862" lon="-2.408">
        <ele>600.8689</ele>
        <time>2021-07-18T11:29:04Z</time>
      </trkpt>
      <trkpt lat="37.11749" lon="-2.40699">
        <ele>598.8889</ele>
        <time>2021-07-18T11:29:15Z</time>
      </trkpt>
      <trkpt lat="37.11642" lon="-2.40643">
        <ele>589.3915</ele>
        <time>2021-07-18T11:29:26Z</time>
      </trkpt>
      <trkpt lat="37.11537" lon="-2.40529">
        <ele>583.1109</ele>
        <time>2021-07-18T11:29:37Z</time>
      </trkpt>
      <trkpt lat="37.11539" lon="-2.40397">
        <ele>574.8362</ele>
        <time>2021-07-18T11:29:48Z</time>
      </trkpt>
      <trkpt lat="37.1155" lon="-2.40239">
        <ele>588.5307</ele>
        <time>2021-07-18T11:29:59Z</time>
      </trkpt>
      <trkpt lat="37.1154" lon="-2.40057">
        <ele>603.0819</ele>
        <time>2021-07-18T11:30:10Z</time>
      </trkpt>
      <trkpt lat="37.11496" lon="-2.39856">
        <ele>610.86</ele>
        <time>2021-07-18T11:30:21Z</time>
      </trkpt>
      <trkpt lat="37.11445" lon="-2.39678">
        <ele>605.4927</ele>
        <time>2021-07-18T11:30:32Z</time>
      </trkpt>
      <trkpt lat="37.11403" lon="-2.39487">
        <ele>599.3535</ele>
        <time>2021-07-18T11:30:43Z</time>
      </trkpt>
      <trkpt lat="37.11372" lon="-2.39393">
        <ele>598.0434</ele>
        <time>2021-07-18T11:30:54Z</time>
      </trkpt>
      <trkpt lat="37.11314" lon="-2.3936">
        <ele>596.0061</ele>
        <time>2021-07-18T11:31:05Z</time>
      </trkpt>
      <trkpt lat="37.11188" lon="-2.39358">
        <ele>597.2371</ele>
        <time>2021-07-18T11:31:16Z</time>
      </trkpt>
      <trkpt lat="37.1109" lon="-2.39306">
        <ele>591.9245</ele>
        <time>2021-07-18T11:31:27Z</time>
      </trkpt>
      <trkpt lat="37.11045" lon="-2.39215">
        <ele>586.6973</ele>
        <time>2021-07-18T11:31:38Z</time>
      </trkpt>
      <trkpt lat="37.10952" lon="-2.39147">
        <ele>579.6981</ele>
        <time>2021-07-18T11:31:49Z</time>
      </trkpt>
      <trkpt lat="37.10839" lon="-2.39129">
        <ele>571.8747</ele>
        <time>2021-07-18T11:32:00Z</time>
      </trkpt>
      <trkpt lat="37.10691" lon="-2.39159">
        <ele>565.3804</ele>
        <time>2021-07-18T11:32:11Z</time>
      </trkpt>
      <trkpt lat="37.10558" lon="-2.39218">
        <ele>557.839</ele>
        <time>2021-07-18T11:32:22Z</time>
      </trkpt>
      <trkpt lat="37.10435" lon="-2.39292">
        <ele>552.0228</ele>
        <time>2021-07-18T11:32:33Z</time>
      </trkpt>
      <trkpt lat="37.10304" lon="-2.39345">
        <ele>544.771</ele>
        <time>2021-07-18T11:32:44Z</time>
      </trkpt>
      <trkpt lat="37.10157" lon="-2.39368">
        <ele>540.3923</ele>
        <time>2021-07-18T11:32:55Z</time>
      </trkpt>
      <trkpt lat="37.10027" lon="-2.39369">
        <ele>542.3493</ele>
        <time>2021-07-18T11:33:06Z</time>
      </trkpt>
      <trkpt lat="37.09885" lon="-2.39362">
        <ele>539.4818</ele>
        <time>2021-07-18T11:33:17Z</time>
      </trkpt>
      <trkpt lat="37.09747" lon="-2.39323">
        <ele>536.465</ele>
        <time>2021-07-18T11:33:29Z</time>
      </trkpt>
      <trkpt lat="37.09614" lon="-2.39258">
        <ele>532.8555</ele>
        <time>2021-07-18T11:33:40Z</time>
      </trkpt>
      <trkpt lat="37.09486" lon="-2.3922">
        <ele>526.3125</ele>
        <time>2021-07-18T11:33:51Z</time>
      </trkpt>
      <trkpt lat="37.09322" lon="-2.39215">
        <ele>519.8065</ele>
        <time>2021-07-18T11:34:02Z</time>
      </trkpt>
      <trkpt lat="37.09174" lon="-2.3918">
        <ele>513.2314</ele>
        <time>2021-07-18T11:34:13Z</time>
      </trkpt>
      <trkpt lat="37.09089" lon="-2.39167">
        <ele>509.5978</ele>
        <time>2021-07-18T11:34:24Z</time>
      </trkpt>
      <trkpt lat="37.08997" lon="-2.39124">
        <ele>476.4518</ele>
        <time>2021-07-18T11:34:35Z</time>
      </trkpt>
      <trkpt lat="37.08883" lon="-2.39071">
        <ele>463.1111</ele>
        <time>2021-07-18T11:34:46Z</time>
      </trkpt>
      <trkpt lat="37.08706" lon="-2.3904">
        <ele>494.0914</ele>
        <time>2021-07-18T11:34:57Z</time>
      </trkpt>
      <trkpt lat="37.08557" lon="-2.3901">
        <ele>492.5005</ele>
        <time>2021-07-18T11:35:08Z</time>
      </trkpt>
      <trkpt lat="37.08391" lon="-2.38999">
        <ele>489.5415</ele>
        <time>2021-07-18T11:35:19Z</time>
      </trkpt>
      <trkpt lat="37.08254" lon="-2.38973">
        <ele>484.7776</ele>
        <time>2021-07-18T11:35:30Z</time>
      </trkpt>
      <trkpt lat="37.08103" lon="-2.38931">
        <ele>481.321</ele>
        <time>2021-07-18T11:35:41Z</time>
      </trkpt>
      <trkpt lat="37.07944" lon="-2.38867">
        <ele>476.8002</ele>
        <time>2021-07-18T11:35:52Z</time>
      </trkpt>
      <trkpt lat="37.07796" lon="-2.3883">
        <ele>472.1307</ele>
        <time>2021-07-18T11:36:03Z</time>
      </trkpt>
      <trkpt lat="37.07714" lon="-2.38841">
        <ele>470</ele>
        <time>2021-07-18T11:36:47Z</time>
      </trkpt>
      <trkpt lat="37.0771" lon="-2.38839">
        <ele>473.3685</ele>
        <time>2021-07-18T11:37:35Z</time>
      </trkpt>
      <trkpt lat="37.07618" lon="-2.38821">
        <ele>468.0936</ele>
        <time>2021-07-18T11:37:46Z</time>
      </trkpt>
      <trkpt lat="37.07499" lon="-2.38825">
        <ele>464.0299</ele>
        <time>2021-07-18T11:37:57Z</time>
      </trkpt>
      <trkpt lat="37.07354" lon="-2.38855">
        <ele>458.5111</ele>
        <time>2021-07-18T11:38:08Z</time>
      </trkpt>
      <trkpt lat="37.07206" lon="-2.38853">
        <ele>456.5011</ele>
        <time>2021-07-18T11:38:19Z</time>
      </trkpt>
      <trkpt lat="37.0705" lon="-2.38825">
        <ele>449.0922</ele>
        <time>2021-07-18T11:38:30Z</time>
      </trkpt>
      <trkpt lat="37.06937" lon="-2.38786">
        <ele>443.7846</ele>
        <time>2021-07-18T11:38:41Z</time>
      </trkpt>
      <trkpt lat="37.06831" lon="-2.38771">
        <ele>441.5766</ele>
        <time>2021-07-18T11:38:52Z</time>
      </trkpt>
      <trkpt lat="37.06669" lon="-2.38789">
        <ele>436.9687</ele>
        <time>2021-07-18T11:39:03Z</time>
      </trkpt>
      <trkpt lat="37.06527" lon="-2.38784">
        <ele>433.1008</ele>
        <time>2021-07-18T11:39:14Z</time>
      </trkpt>
      <trkpt lat="37.06419" lon="-2.38811">
        <ele>426.1611</ele>
        <time>2021-07-18T11:39:25Z</time>
      </trkpt>
      <trkpt lat="37.06298" lon="-2.3886">
        <ele>424.1046</ele>
        <time>2021-07-18T11:39:36Z</time>
      </trkpt>
      <trkpt lat="37.06213" lon="-2.38798">
        <ele>433.8089</ele>
        <time>2021-07-18T11:39:47Z</time>
      </trkpt>
      <trkpt lat="37.06196" lon="-2.38773">
        <ele>436.2958</ele>
        <time>2021-07-18T11:39:58Z</time>
      </trkpt>
      <trkpt lat="37.06267" lon="-2.38853">
        <ele>428.2304</ele>
        <time>2021-07-18T11:40:09Z</time>
      </trkpt>
      <trkpt lat="37.063" lon="-2.38901">
        <ele>420.7177</ele>
        <time>2021-07-18T11:40:20Z</time>
      </trkpt>
      <trkpt lat="37.06236" lon="-2.3895">
        <ele>416.3147</ele>
        <time>2021-07-18T11:40:31Z</time>
      </trkpt>
      <trkpt lat="37.06182" lon="-2.3896">
        <ele>412.8143</ele>
        <time>2021-07-18T11:40:42Z</time>
      </trkpt>
      <trkpt lat="37.06107" lon="-2.38991">
        <ele>414.9467</ele>
        <time>2021-07-18T11:40:53Z</time>
      </trkpt>
      <trkpt lat="37.06037" lon="-2.39031">
        <ele>411.7517</ele>
        <time>2021-07-18T11:41:04Z</time>
      </trkpt>
      <trkpt lat="37.05926" lon="-2.39109">
        <ele>406.6596</ele>
        <time>2021-07-18T11:41:15Z</time>
      </trkpt>
      <trkpt lat="37.05824" lon="-2.39223">
        <ele>401.5481</ele>
        <time>2021-07-18T11:41:26Z</time>
      </trkpt>
      <trkpt lat="37.05763" lon="-2.39332">
        <ele>393.6474</ele>
        <time>2021-07-18T11:41:37Z</time>
      </trkpt>
      <trkpt lat="37.05704" lon="-2.39396">
        <ele>396.6907</ele>
        <time>2021-07-18T11:41:48Z</time>
      </trkpt>
      <trkpt lat="37.05658" lon="-2.39494">
        <ele>396.3598</ele>
        <time>2021-07-18T11:41:59Z</time>
      </trkpt>
      <trkpt lat="37.05584" lon="-2.3958">
        <ele>391.2991</ele>
        <time>2021-07-18T11:42:10Z</time>
      </trkpt>
      <trkpt lat="37.05489" lon="-2.39618">
        <ele>383.875</ele>
        <time>2021-07-18T11:42:21Z</time>
      </trkpt>
      <trkpt lat="37.05402" lon="-2.39715">
        <ele>373.7345</ele>
        <time>2021-07-18T11:42:32Z</time>
      </trkpt>
      <trkpt lat="37.05334" lon="-2.39823">
        <ele>374.2048</ele>
        <time>2021-07-18T11:42:43Z</time>
      </trkpt>
      <trkpt lat="37.05241" lon="-2.39866">
        <ele>377.6646</ele>
        <time>2021-07-18T11:42:54Z</time>
      </trkpt>
      <trkpt lat="37.05218" lon="-2.39883">
        <ele>380.576</ele>
        <time>2021-07-18T11:43:05Z</time>
      </trkpt>
      <trkpt lat="37.05275" lon="-2.39855">
        <ele>387.4628</ele>
        <time>2021-07-18T11:43:16Z</time>
      </trkpt>
      <trkpt lat="37.05234" lon="-2.39913">
        <ele>387.376</ele>
        <time>2021-07-18T11:43:27Z</time>
      </trkpt>
      <trkpt lat="37.05183" lon="-2.40015">
        <ele>381.1515</ele>
        <time>2021-07-18T11:43:38Z</time>
      </trkpt>
      <trkpt lat="37.05133" lon="-2.40141">
        <ele>369.2757</ele>
        <time>2021-07-18T11:43:49Z</time>
      </trkpt>
      <trkpt lat="37.05104" lon="-2.40274">
        <ele>361.738</ele>
        <time>2021-07-18T11:44:00Z</time>
      </trkpt>
      <trkpt lat="37.05075" lon="-2.40368">
        <ele>348.4927</ele>
        <time>2021-07-18T11:44:11Z</time>
      </trkpt>
      <trkpt lat="37.05016" lon="-2.40475">
        <ele>334.4712</ele>
        <time>2021-07-18T11:44:22Z</time>
      </trkpt>
      <trkpt lat="37.04944" lon="-2.40591">
        <ele>335.4766</ele>
        <time>2021-07-18T11:44:33Z</time>
      </trkpt>
      <trkpt lat="37.04864" lon="-2.40695">
        <ele>337.6415</ele>
        <time>2021-07-18T11:44:44Z</time>
      </trkpt>
      <trkpt lat="37.0481" lon="-2.40783">
        <ele>344.6779</ele>
        <time>2021-07-18T11:44:55Z</time>
      </trkpt>
      <trkpt lat="37.04783" lon="-2.40874">
        <ele>343.0489</ele>
        <time>2021-07-18T11:45:06Z</time>
      </trkpt>
      <trkpt lat="37.04745" lon="-2.40939">
        <ele>342.4905</ele>
        <time>2021-07-18T11:45:17Z</time>
      </trkpt>
      <trkpt lat="37.04698" lon="-2.4098">
        <ele>339.984</ele>
        <time>2021-07-18T11:45:28Z</time>
      </trkpt>
      <trkpt lat="37.04648" lon="-2.41048">
        <ele>336.8717</ele>
        <time>2021-07-18T11:45:39Z</time>
      </trkpt>
      <trkpt lat="37.04605" lon="-2.41102">
        <ele>336.9038</ele>
        <time>2021-07-18T11:45:50Z</time>
      </trkpt>
      <trkpt lat="37.04567" lon="-2.41145">
        <ele>334.5353</ele>
        <time>2021-07-18T11:46:01Z</time>
      </trkpt>
      <trkpt lat="37.04531" lon="-2.41218">
        <ele>332.756</ele>
        <time>2021-07-18T11:46:12Z</time>
      </trkpt>
      <trkpt lat="37.04463" lon="-2.41238">
        <ele>330.6991</ele>
        <time>2021-07-18T11:46:23Z</time>
      </trkpt>
      <trkpt lat="37.04433" lon="-2.41253">
        <ele>330.1197</ele>
        <time>2021-07-18T11:46:34Z</time>
      </trkpt>
      <trkpt lat="37.04395" lon="-2.4133">
        <ele>328.2722</ele>
        <time>2021-07-18T11:46:45Z</time>
      </trkpt>
      <trkpt lat="37.04389" lon="-2.41505">
        <ele>326.0616</ele>
        <time>2021-07-18T11:46:56Z</time>
      </trkpt>
      <trkpt lat="37.04371" lon="-2.41681">
        <ele>322.5987</ele>
        <time>2021-07-18T11:47:07Z</time>
      </trkpt>
      <trkpt lat="37.04381" lon="-2.41782">
        <ele>322.1516</ele>
        <time>2021-07-18T11:47:18Z</time>
      </trkpt>
      <trkpt lat="37.04466" lon="-2.41791">
        <ele>336.1657</ele>
        <time>2021-07-18T11:47:29Z</time>
      </trkpt>
      <trkpt lat="37.04547" lon="-2.41845">
        <ele>347.4422</ele>
        <time>2021-07-18T11:47:40Z</time>
      </trkpt>
      <trkpt lat="37.04568" lon="-2.41946">
        <ele>357.8324</ele>
        <time>2021-07-18T11:47:51Z</time>
      </trkpt>
      <trkpt lat="37.0459" lon="-2.41979">
        <ele>359.7661</ele>
        <time>2021-07-18T11:48:02Z</time>
      </trkpt>
      <trkpt lat="37.04594" lon="-2.4198">
        <ele>355.7086</ele>
        <time>2021-07-18T11:48:20Z</time>
      </trkpt>
      <trkpt lat="37.04582" lon="-2.41976">
        <ele>354.6283</ele>
        <time>2021-07-18T11:48:31Z</time>
      </trkpt>
      <trkpt lat="37.04552" lon="-2.41861">
        <ele>349.8623</ele>
        <time>2021-07-18T11:48:42Z</time>
      </trkpt>
      <trkpt lat="37.04474" lon="-2.41791">
        <ele>332.0278</ele>
        <time>2021-07-18T11:48:53Z</time>
      </trkpt>
      <trkpt lat="37.04397" lon="-2.41798">
        <ele>325.9321</ele>
        <time>2021-07-18T11:49:04Z</time>
      </trkpt>
      <trkpt lat="37.04351" lon="-2.41737">
        <ele>325.4081</ele>
        <time>2021-07-18T11:49:15Z</time>
      </trkpt>
      <trkpt lat="37.04312" lon="-2.41777">
        <ele>325.6419</ele>
        <time>2021-07-18T11:49:26Z</time>
      </trkpt>
      <trkpt lat="37.04299" lon="-2.41805">
        <ele>325.2073</ele>
        <time>2021-07-18T11:49:37Z</time>
      </trkpt>
      <trkpt lat="37.04296" lon="-2.41811">
        <ele>322.808</ele>
        <time>2021-07-18T11:49:52Z</time>
      </trkpt>
      <trkpt lat="37.04292" lon="-2.41806">
        <ele>322.3951</ele>
        <time>2021-07-18T11:50:03Z</time>
      </trkpt>
      <trkpt lat="37.04298" lon="-2.41806">
        <ele>320.1713</ele>
        <time>2021-07-18T11:50:25Z</time>
      </trkpt>
      <trkpt lat="37.04308" lon="-2.41817">
        <ele>322.0083</ele>
        <time>2021-07-18T11:50:36Z</time>
      </trkpt>
      <trkpt lat="37.04307" lon="-2.41817">
        <ele>322.173</ele>
        <time>2021-07-18T11:51:36Z</time>
      </trkpt>
      <trkpt lat="37.04303" lon="-2.41818">
        <ele>321.6465</ele>
        <time>2021-07-18T11:52:16Z</time>
      </trkpt>
      <trkpt lat="37.04306" lon="-2.41782">
        <ele>322.2982</ele>
        <time>2021-07-18T11:52:27Z</time>
      </trkpt>
      <trkpt lat="37.04318" lon="-2.41757">
        <ele>323.0002</ele>
        <time>2021-07-18T11:52:38Z</time>
      </trkpt>
      <trkpt lat="37.04318" lon="-2.41757">
        <ele>322.0831</ele>
        <time>2021-07-18T11:53:37Z</time>
      </trkpt>
      <trkpt lat="37.04316" lon="-2.41753">
        <ele>322.3086</ele>
        <time>2021-07-18T11:54:04Z</time>
      </trkpt>
      <trkpt lat="37.0432" lon="-2.41753">
        <ele>321.5943</ele>
        <time>2021-07-18T11:54:15Z</time>
      </trkpt>
      <trkpt lat="37.04318" lon="-2.41754">
        <ele>321.8445</ele>
        <time>2021-07-18T11:55:15Z</time>
      </trkpt>
      <trkpt lat="37.0432" lon="-2.41756">
        <ele>321.1793</ele>
        <time>2021-07-18T11:56:15Z</time>
      </trkpt>
      <trkpt lat="37.04317" lon="-2.41752">
        <ele>321.6601</ele>
        <time>2021-07-18T11:56:50Z</time>
      </trkpt>
      <trkpt lat="37.04317" lon="-2.41753">
        <ele>321.6204</ele>
        <time>2021-07-18T11:57:50Z</time>
      </trkpt>
      <trkpt lat="37.04313" lon="-2.41754">
        <ele>322.1936</ele>
        <time>2021-07-18T11:58:45Z</time>
      </trkpt>
      <trkpt lat="37.04313" lon="-2.41754">
        <ele>321.3425</ele>
        <time>2021-07-18T11:59:45Z</time>
      </trkpt>
      <trkpt lat="37.04315" lon="-2.41753">
        <ele>322.3128</ele>
        <time>2021-07-18T12:00:44Z</time>
      </trkpt>
      <trkpt lat="37.04318" lon="-2.41754">
        <ele>322.3377</ele>
        <time>2021-07-18T12:01:44Z</time>
      </trkpt>
      <trkpt lat="37.04318" lon="-2.41754">
        <ele>322.2348</ele>
        <time>2021-07-18T12:02:42Z</time>
      </trkpt>
      <trkpt lat="37.04319" lon="-2.41754">
        <ele>322.0865</ele>
        <time>2021-07-18T12:03:42Z</time>
      </trkpt>
      <trkpt lat="37.0432" lon="-2.41753">
        <ele>323.0427</ele>
        <time>2021-07-18T12:04:41Z</time>
      </trkpt>
      <trkpt lat="37.04321" lon="-2.41753">
        <ele>322.4148</ele>
        <time>2021-07-18T12:05:40Z</time>
      </trkpt>
      <trkpt lat="37.0432" lon="-2.41754">
        <ele>320.773</ele>
        <time>2021-07-18T12:06:40Z</time>
      </trkpt>
      <trkpt lat="37.04322" lon="-2.41754">
        <ele>322.4882</ele>
        <time>2021-07-18T12:07:40Z</time>
      </trkpt>
      <trkpt lat="37.04322" lon="-2.41753">
        <ele>322.1714</ele>
        <time>2021-07-18T12:08:40Z</time>
      </trkpt>
      <trkpt lat="37.04318" lon="-2.41753">
        <ele>322.3804</ele>
        <time>2021-07-18T12:09:19Z</time>
      </trkpt>
      <trkpt lat="37.04319" lon="-2.41753">
        <ele>322.2253</ele>
        <time>2021-07-18T12:10:19Z</time>
      </trkpt>
      <trkpt lat="37.04319" lon="-2.41755">
        <ele>321.5856</ele>
        <time>2021-07-18T12:11:19Z</time>
      </trkpt>
      <trkpt lat="37.0432" lon="-2.41754">
        <ele>321.8187</ele>
        <time>2021-07-18T12:12:19Z</time>
      </trkpt>
      <trkpt lat="37.0432" lon="-2.41753">
        <ele>321.4033</ele>
        <time>2021-07-18T12:13:19Z</time>
      </trkpt>
      <trkpt lat="37.04319" lon="-2.41751">
        <ele>322.086</ele>
        <time>2021-07-18T12:14:19Z</time>
      </trkpt>
      <trkpt lat="37.0432" lon="-2.41753">
        <ele>321.8291</ele>
        <time>2021-07-18T12:15:19Z</time>
      </trkpt>
      <trkpt lat="37.0432" lon="-2.41752">
        <ele>321.6031</ele>
        <time>2021-07-18T12:16:19Z</time>
      </trkpt>
      <trkpt lat="37.0432" lon="-2.41752">
        <ele>321.6031</ele>
        <time>2021-07-18T12:17:19Z</time>
      </trkpt>
      <trkpt lat="37.0432" lon="-2.41755">
        <ele>322.2616</ele>
        <time>2021-07-18T12:18:19Z</time>
      </trkpt>
      <trkpt lat="37.0432" lon="-2.41753">
        <ele>322.1786</ele>
        <time>2021-07-18T12:19:18Z</time>
      </trkpt>
      <trkpt lat="37.0432" lon="-2.41754">
        <ele>321.7831</ele>
        <time>2021-07-18T12:20:18Z</time>
      </trkpt>
      <trkpt lat="37.04319" lon="-2.41752">
        <ele>321.8728</ele>
        <time>2021-07-18T12:21:18Z</time>
      </trkpt>
      <trkpt lat="37.04319" lon="-2.41752">
        <ele>322.2419</ele>
        <time>2021-07-18T12:22:17Z</time>
      </trkpt>
      <trkpt lat="37.04319" lon="-2.41756">
        <ele>322.0388</ele>
        <time>2021-07-18T12:22:43Z</time>
      </trkpt>
      <trkpt lat="37.04319" lon="-2.41755">
        <ele>322.4313</ele>
        <time>2021-07-18T12:23:43Z</time>
      </trkpt>
      <trkpt lat="37.04319" lon="-2.4176">
        <ele>321.9201</ele>
        <time>2021-07-18T12:24:35Z</time>
      </trkpt>
      <trkpt lat="37.04312" lon="-2.41766">
        <ele>322.0593</ele>
        <time>2021-07-18T12:24:46Z</time>
      </trkpt>
      <trkpt lat="37.04315" lon="-2.41763">
        <ele>322.2244</ele>
        <time>2021-07-18T12:25:15Z</time>
      </trkpt>
      <trkpt lat="37.0432" lon="-2.41756">
        <ele>322.4798</ele>
        <time>2021-07-18T12:25:26Z</time>
      </trkpt>
      <trkpt lat="37.0432" lon="-2.41756">
        <ele>322.7296</ele>
        <time>2021-07-18T12:26:26Z</time>
      </trkpt>
      <trkpt lat="37.0432" lon="-2.41756">
        <ele>322.7296</ele>
        <time>2021-07-18T12:27:26Z</time>
      </trkpt>
      <trkpt lat="37.04324" lon="-2.41755">
        <ele>321.9529</ele>
        <time>2021-07-18T12:28:22Z</time>
      </trkpt>
      <trkpt lat="37.0436" lon="-2.41717">
        <ele>321.6799</ele>
        <time>2021-07-18T12:28:33Z</time>
      </trkpt>
      <trkpt lat="37.04385" lon="-2.41603">
        <ele>323.7147</ele>
        <time>2021-07-18T12:28:44Z</time>
      </trkpt>
      <trkpt lat="37.04384" lon="-2.41426">
        <ele>325.117</ele>
        <time>2021-07-18T12:28:55Z</time>
      </trkpt>
      <trkpt lat="37.04419" lon="-2.41271">
        <ele>331.4163</ele>
        <time>2021-07-18T12:29:06Z</time>
      </trkpt>
      <trkpt lat="37.04482" lon="-2.41083">
        <ele>332.8942</ele>
        <time>2021-07-18T12:29:17Z</time>
      </trkpt>
      <trkpt lat="37.04461" lon="-2.40915">
        <ele>335.8271</ele>
        <time>2021-07-18T12:29:28Z</time>
      </trkpt>
      <trkpt lat="37.04367" lon="-2.40747">
        <ele>334.3351</ele>
        <time>2021-07-18T12:29:39Z</time>
      </trkpt>
      <trkpt lat="37.04241" lon="-2.40526">
        <ele>338.8134</ele>
        <time>2021-07-18T12:29:50Z</time>
      </trkpt>
      <trkpt lat="37.04201" lon="-2.40466">
        <ele>339.2728</ele>
        <time>2021-07-18T12:30:01Z</time>
      </trkpt>
      <trkpt lat="37.04222" lon="-2.40451">
        <ele>339.8905</ele>
        <time>2021-07-18T12:30:12Z</time>
      </trkpt>
      <trkpt lat="37.04166" lon="-2.40302">
        <ele>340.5587</ele>
        <time>2021-07-18T12:30:23Z</time>
      </trkpt>
      <trkpt lat="37.041" lon="-2.4021">
        <ele>344.183</ele>
        <time>2021-07-18T12:30:34Z</time>
      </trkpt>
      <trkpt lat="37.04063" lon="-2.40115">
        <ele>347.8791</ele>
        <time>2021-07-18T12:30:45Z</time>
      </trkpt>
      <trkpt lat="37.04108" lon="-2.39997">
        <ele>351.8368</ele>
        <time>2021-07-18T12:30:56Z</time>
      </trkpt>
      <trkpt lat="37.04167" lon="-2.39933">
        <ele>352.8036</ele>
        <time>2021-07-18T12:31:07Z</time>
      </trkpt>
      <trkpt lat="37.04121" lon="-2.3989">
        <ele>354.0172</ele>
        <time>2021-07-18T12:31:18Z</time>
      </trkpt>
      <trkpt lat="37.0407" lon="-2.39792">
        <ele>356.4297</ele>
        <time>2021-07-18T12:31:29Z</time>
      </trkpt>
      <trkpt lat="37.0401" lon="-2.39714">
        <ele>364.2435</ele>
        <time>2021-07-18T12:31:40Z</time>
      </trkpt>
      <trkpt lat="37.03921" lon="-2.39671">
        <ele>362.8188</ele>
        <time>2021-07-18T12:31:51Z</time>
      </trkpt>
      <trkpt lat="37.03855" lon="-2.39639">
        <ele>364.5436</ele>
        <time>2021-07-18T12:32:02Z</time>
      </trkpt>
      <trkpt lat="37.03874" lon="-2.39532">
        <ele>368.017</ele>
        <time>2021-07-18T12:32:13Z</time>
      </trkpt>
      <trkpt lat="37.03864" lon="-2.39413">
        <ele>369.6771</ele>
        <time>2021-07-18T12:32:24Z</time>
      </trkpt>
      <trkpt lat="37.03878" lon="-2.39248">
        <ele>360.1212</ele>
        <time>2021-07-18T12:32:35Z</time>
      </trkpt>
      <trkpt lat="37.03854" lon="-2.39147">
        <ele>362.9482</ele>
        <time>2021-07-18T12:32:46Z</time>
      </trkpt>
      <trkpt lat="37.03832" lon="-2.3904">
        <ele>373.2713</ele>
        <time>2021-07-18T12:32:57Z</time>
      </trkpt>
      <trkpt lat="37.03812" lon="-2.38915">
        <ele>384.1126</ele>
        <time>2021-07-18T12:33:08Z</time>
      </trkpt>
      <trkpt lat="37.03797" lon="-2.38782">
        <ele>389.3359</ele>
        <time>2021-07-18T12:33:19Z</time>
      </trkpt>
      <trkpt lat="37.03857" lon="-2.38682">
        <ele>389.188</ele>
        <time>2021-07-18T12:33:30Z</time>
      </trkpt>
      <trkpt lat="37.03941" lon="-2.38619">
        <ele>393.1151</ele>
        <time>2021-07-18T12:33:41Z</time>
      </trkpt>
      <trkpt lat="37.04014" lon="-2.38577">
        <ele>391.9098</ele>
        <time>2021-07-18T12:33:52Z</time>
      </trkpt>
      <trkpt lat="37.04052" lon="-2.38657">
        <ele>393.5701</ele>
        <time>2021-07-18T12:34:03Z</time>
      </trkpt>
      <trkpt lat="37.04094" lon="-2.386">
        <ele>389.8798</ele>
        <time>2021-07-18T12:34:14Z</time>
      </trkpt>
      <trkpt lat="37.04112" lon="-2.3847">
        <ele>403.88</ele>
        <time>2021-07-18T12:34:25Z</time>
      </trkpt>
      <trkpt lat="37.04116" lon="-2.38354">
        <ele>414.7646</ele>
        <time>2021-07-18T12:34:36Z</time>
      </trkpt>
      <trkpt lat="37.04108" lon="-2.38222">
        <ele>418.7363</ele>
        <time>2021-07-18T12:34:47Z</time>
      </trkpt>
      <trkpt lat="37.04073" lon="-2.38042">
        <ele>428.9535</ele>
        <time>2021-07-18T12:34:58Z</time>
      </trkpt>
      <trkpt lat="37.04037" lon="-2.37888">
        <ele>433.7774</ele>
        <time>2021-07-18T12:35:09Z</time>
      </trkpt>
      <trkpt lat="37.04042" lon="-2.37765">
        <ele>441.9054</ele>
        <time>2021-07-18T12:35:20Z</time>
      </trkpt>
      <trkpt lat="37.03994" lon="-2.37655">
        <ele>443.0634</ele>
        <time>2021-07-18T12:35:31Z</time>
      </trkpt>
      <trkpt lat="37.0395" lon="-2.37548">
        <ele>436.1468</ele>
        <time>2021-07-18T12:35:42Z</time>
      </trkpt>
      <trkpt lat="37.03914" lon="-2.3749">
        <ele>419.2894</ele>
        <time>2021-07-18T12:35:53Z</time>
      </trkpt>
      <trkpt lat="37.03894" lon="-2.37449">
        <ele>425.8088</ele>
        <time>2021-07-18T12:36:04Z</time>
      </trkpt>
      <trkpt lat="37.03872" lon="-2.37363">
        <ele>431.7222</ele>
        <time>2021-07-18T12:36:15Z</time>
      </trkpt>
      <trkpt lat="37.03879" lon="-2.37258">
        <ele>428.6681</ele>
        <time>2021-07-18T12:36:26Z</time>
      </trkpt>
      <trkpt lat="37.03843" lon="-2.37139">
        <ele>426.6501</ele>
        <time>2021-07-18T12:36:37Z</time>
      </trkpt>
      <trkpt lat="37.03778" lon="-2.36998">
        <ele>430.237</ele>
        <time>2021-07-18T12:36:48Z</time>
      </trkpt>
      <trkpt lat="37.03705" lon="-2.3688">
        <ele>429.7283</ele>
        <time>2021-07-18T12:36:59Z</time>
      </trkpt>
      <trkpt lat="37.03673" lon="-2.36779">
        <ele>435.4165</ele>
        <time>2021-07-18T12:37:10Z</time>
      </trkpt>
      <trkpt lat="37.03699" lon="-2.36667">
        <ele>445.8491</ele>
        <time>2021-07-18T12:37:21Z</time>
      </trkpt>
      <trkpt lat="37.03733" lon="-2.36596">
        <ele>456.3104</ele>
        <time>2021-07-18T12:37:32Z</time>
      </trkpt>
      <trkpt lat="37.03734" lon="-2.36466">
        <ele>456.0026</ele>
        <time>2021-07-18T12:37:43Z</time>
      </trkpt>
      <trkpt lat="37.03716" lon="-2.36314">
        <ele>448.2339</ele>
        <time>2021-07-18T12:37:54Z</time>
      </trkpt>
      <trkpt lat="37.03669" lon="-2.36213">
        <ele>450.8825</ele>
        <time>2021-07-18T12:38:05Z</time>
      </trkpt>
      <trkpt lat="37.03611" lon="-2.36099">
        <ele>450.4015</ele>
        <time>2021-07-18T12:38:16Z</time>
      </trkpt>
      <trkpt lat="37.03636" lon="-2.35956">
        <ele>453.321</ele>
        <time>2021-07-18T12:38:27Z</time>
      </trkpt>
      <trkpt lat="37.03656" lon="-2.35849">
        <ele>459.9679</ele>
        <time>2021-07-18T12:38:38Z</time>
      </trkpt>
      <trkpt lat="37.0372" lon="-2.35829">
        <ele>467.5212</ele>
        <time>2021-07-18T12:38:49Z</time>
      </trkpt>
      <trkpt lat="37.03738" lon="-2.35746">
        <ele>470.1037</ele>
        <time>2021-07-18T12:39:00Z</time>
      </trkpt>
      <trkpt lat="37.03692" lon="-2.35655">
        <ele>476.2507</ele>
        <time>2021-07-18T12:39:11Z</time>
      </trkpt>
      <trkpt lat="37.0368" lon="-2.35554">
        <ele>477.5381</ele>
        <time>2021-07-18T12:39:22Z</time>
      </trkpt>
      <trkpt lat="37.03748" lon="-2.35503">
        <ele>477.7416</ele>
        <time>2021-07-18T12:39:33Z</time>
      </trkpt>
      <trkpt lat="37.03821" lon="-2.354">
        <ele>472.8528</ele>
        <time>2021-07-18T12:39:44Z</time>
      </trkpt>
      <trkpt lat="37.03925" lon="-2.35384">
        <ele>465.4587</ele>
        <time>2021-07-18T12:39:55Z</time>
      </trkpt>
      <trkpt lat="37.03972" lon="-2.35381">
        <ele>477.7291</ele>
        <time>2021-07-18T12:40:06Z</time>
      </trkpt>
      <trkpt lat="37.04011" lon="-2.35304">
        <ele>498.7491</ele>
        <time>2021-07-18T12:40:17Z</time>
      </trkpt>
      <trkpt lat="37.04028" lon="-2.3516">
        <ele>501.2453</ele>
        <time>2021-07-18T12:40:28Z</time>
      </trkpt>
      <trkpt lat="37.03994" lon="-2.35113">
        <ele>474.1951</ele>
        <time>2021-07-18T12:40:39Z</time>
      </trkpt>
      <trkpt lat="37.04015" lon="-2.3499">
        <ele>474.0977</ele>
        <time>2021-07-18T12:40:50Z</time>
      </trkpt>
      <trkpt lat="37.04046" lon="-2.34828">
        <ele>483.6503</ele>
        <time>2021-07-18T12:41:01Z</time>
      </trkpt>
      <trkpt lat="37.03978" lon="-2.34738">
        <ele>494.5078</ele>
        <time>2021-07-18T12:41:12Z</time>
      </trkpt>
      <trkpt lat="37.03947" lon="-2.34633">
        <ele>513.3106</ele>
        <time>2021-07-18T12:41:23Z</time>
      </trkpt>
      <trkpt lat="37.03957" lon="-2.34489">
        <ele>520.9567</ele>
        <time>2021-07-18T12:41:34Z</time>
      </trkpt>
      <trkpt lat="37.03912" lon="-2.34348">
        <ele>513.215</ele>
        <time>2021-07-18T12:41:45Z</time>
      </trkpt>
      <trkpt lat="37.03962" lon="-2.34261">
        <ele>515.0572</ele>
        <time>2021-07-18T12:41:56Z</time>
      </trkpt>
      <trkpt lat="37.03989" lon="-2.34187">
        <ele>520.2941</ele>
        <time>2021-07-18T12:42:07Z</time>
      </trkpt>
      <trkpt lat="37.04003" lon="-2.3407">
        <ele>523.6703</ele>
        <time>2021-07-18T12:42:18Z</time>
      </trkpt>
      <trkpt lat="37.03954" lon="-2.33972">
        <ele>542.8747</ele>
        <time>2021-07-18T12:42:29Z</time>
      </trkpt>
      <trkpt lat="37.03965" lon="-2.33815">
        <ele>550.2445</ele>
        <time>2021-07-18T12:42:40Z</time>
      </trkpt>
      <trkpt lat="37.03897" lon="-2.33697">
        <ele>554.4704</ele>
        <time>2021-07-18T12:42:51Z</time>
      </trkpt>
      <trkpt lat="37.03835" lon="-2.33562">
        <ele>557.2712</ele>
        <time>2021-07-18T12:43:02Z</time>
      </trkpt>
      <trkpt lat="37.03806" lon="-2.33416">
        <ele>560.618</ele>
        <time>2021-07-18T12:43:13Z</time>
      </trkpt>
      <trkpt lat="37.03777" lon="-2.33281">
        <ele>556.6951</ele>
        <time>2021-07-18T12:43:24Z</time>
      </trkpt>
      <trkpt lat="37.03753" lon="-2.33143">
        <ele>557.7589</ele>
        <time>2021-07-18T12:43:35Z</time>
      </trkpt>
      <trkpt lat="37.03798" lon="-2.33166">
        <ele>561.7077</ele>
        <time>2021-07-18T12:43:46Z</time>
      </trkpt>
      <trkpt lat="37.03885" lon="-2.33172">
        <ele>564.9996</ele>
        <time>2021-07-18T12:43:57Z</time>
      </trkpt>
      <trkpt lat="37.03913" lon="-2.3306">
        <ele>566.3167</ele>
        <time>2021-07-18T12:44:08Z</time>
      </trkpt>
      <trkpt lat="37.03965" lon="-2.32926">
        <ele>565.2663</ele>
        <time>2021-07-18T12:44:19Z</time>
      </trkpt>
      <trkpt lat="37.04046" lon="-2.3282">
        <ele>567.5798</ele>
        <time>2021-07-18T12:44:30Z</time>
      </trkpt>
      <trkpt lat="37.04122" lon="-2.32716">
        <ele>572.2459</ele>
        <time>2021-07-18T12:44:41Z</time>
      </trkpt>
      <trkpt lat="37.04101" lon="-2.32575">
        <ele>573.6973</ele>
        <time>2021-07-18T12:44:52Z</time>
      </trkpt>
      <trkpt lat="37.04125" lon="-2.32425">
        <ele>577.1451</ele>
        <time>2021-07-18T12:45:03Z</time>
      </trkpt>
      <trkpt lat="37.04177" lon="-2.32293">
        <ele>577.9419</ele>
        <time>2021-07-18T12:45:14Z</time>
      </trkpt>
      <trkpt lat="37.04233" lon="-2.32173">
        <ele>578.4841</ele>
        <time>2021-07-18T12:45:25Z</time>
      </trkpt>
      <trkpt lat="37.04249" lon="-2.32094">
        <ele>584.8029</ele>
        <time>2021-07-18T12:45:36Z</time>
      </trkpt>
      <trkpt lat="37.04226" lon="-2.32039">
        <ele>598.9995</ele>
        <time>2021-07-18T12:45:47Z</time>
      </trkpt>
      <trkpt lat="37.04203" lon="-2.31978">
        <ele>606.7222</ele>
        <time>2021-07-18T12:45:58Z</time>
      </trkpt>
      <trkpt lat="37.04204" lon="-2.31966">
        <ele>599.5064</ele>
        <time>2021-07-18T12:46:09Z</time>
      </trkpt>
      <trkpt lat="37.04205" lon="-2.31959">
        <ele>595.7304</ele>
        <time>2021-07-18T12:46:24Z</time>
      </trkpt>
      <trkpt lat="37.04253" lon="-2.3182">
        <ele>588.3565</ele>
        <time>2021-07-18T12:46:35Z</time>
      </trkpt>
      <trkpt lat="37.04345" lon="-2.31726">
        <ele>588.2783</ele>
        <time>2021-07-18T12:46:46Z</time>
      </trkpt>
      <trkpt lat="37.04462" lon="-2.31598">
        <ele>577.8583</ele>
        <time>2021-07-18T12:46:57Z</time>
      </trkpt>
      <trkpt lat="37.0453" lon="-2.31446">
        <ele>583.4427</ele>
        <time>2021-07-18T12:47:08Z</time>
      </trkpt>
      <trkpt lat="37.04519" lon="-2.31256">
        <ele>576.4089</ele>
        <time>2021-07-18T12:47:19Z</time>
      </trkpt>
      <trkpt lat="37.0453" lon="-2.31043">
        <ele>567.7291</ele>
        <time>2021-07-18T12:47:30Z</time>
      </trkpt>
      <trkpt lat="37.04601" lon="-2.30842">
        <ele>565.3838</ele>
        <time>2021-07-18T12:47:41Z</time>
      </trkpt>
      <trkpt lat="37.04606" lon="-2.30725">
        <ele>568.7131</ele>
        <time>2021-07-18T12:47:52Z</time>
      </trkpt>
      <trkpt lat="37.04666" lon="-2.307">
        <ele>570.2853</ele>
        <time>2021-07-18T12:48:03Z</time>
      </trkpt>
      <trkpt lat="37.04802" lon="-2.30616">
        <ele>566.2127</ele>
        <time>2021-07-18T12:48:14Z</time>
      </trkpt>
      <trkpt lat="37.04824" lon="-2.30493">
        <ele>564.8718</ele>
        <time>2021-07-18T12:48:25Z</time>
      </trkpt>
      <trkpt lat="37.04765" lon="-2.30338">
        <ele>566.902</ele>
        <time>2021-07-18T12:48:36Z</time>
      </trkpt>
      <trkpt lat="37.04786" lon="-2.30161">
        <ele>569.3967</ele>
        <time>2021-07-18T12:48:47Z</time>
      </trkpt>
      <trkpt lat="37.04897" lon="-2.30074">
        <ele>562.8673</ele>
        <time>2021-07-18T12:48:58Z</time>
      </trkpt>
      <trkpt lat="37.04946" lon="-2.29956">
        <ele>560.2457</ele>
        <time>2021-07-18T12:49:09Z</time>
      </trkpt>
      <trkpt lat="37.05026" lon="-2.29885">
        <ele>567.1979</ele>
        <time>2021-07-18T12:49:20Z</time>
      </trkpt>
      <trkpt lat="37.05142" lon="-2.29883">
        <ele>559.9213</ele>
        <time>2021-07-18T12:49:31Z</time>
      </trkpt>
      <trkpt lat="37.0526" lon="-2.29903">
        <ele>557.0659</ele>
        <time>2021-07-18T12:49:42Z</time>
      </trkpt>
      <trkpt lat="37.05405" lon="-2.29864">
        <ele>549.9942</ele>
        <time>2021-07-18T12:49:53Z</time>
      </trkpt>
      <trkpt lat="37.05508" lon="-2.29754">
        <ele>539.8569</ele>
        <time>2021-07-18T12:50:04Z</time>
      </trkpt>
      <trkpt lat="37.05605" lon="-2.29624">
        <ele>533.9845</ele>
        <time>2021-07-18T12:50:15Z</time>
      </trkpt>
      <trkpt lat="37.05648" lon="-2.2948">
        <ele>539.3063</ele>
        <time>2021-07-18T12:50:26Z</time>
      </trkpt>
      <trkpt lat="37.05629" lon="-2.29338">
        <ele>542.308</ele>
        <time>2021-07-18T12:50:37Z</time>
      </trkpt>
      <trkpt lat="37.05551" lon="-2.29123">
        <ele>543.7526</ele>
        <time>2021-07-18T12:50:48Z</time>
      </trkpt>
      <trkpt lat="37.05411" lon="-2.28923">
        <ele>544.127</ele>
        <time>2021-07-18T12:50:59Z</time>
      </trkpt>
      <trkpt lat="37.0529" lon="-2.28679">
        <ele>547.5456</ele>
        <time>2021-07-18T12:51:10Z</time>
      </trkpt>
      <trkpt lat="37.05199" lon="-2.28416">
        <ele>553.7966</ele>
        <time>2021-07-18T12:51:21Z</time>
      </trkpt>
      <trkpt lat="37.05118" lon="-2.28134">
        <ele>561.1064</ele>
        <time>2021-07-18T12:51:32Z</time>
      </trkpt>
      <trkpt lat="37.04975" lon="-2.27894">
        <ele>569.3826</ele>
        <time>2021-07-18T12:51:43Z</time>
      </trkpt>
      <trkpt lat="37.04813" lon="-2.27693">
        <ele>581.5925</ele>
        <time>2021-07-18T12:51:54Z</time>
      </trkpt>
      <trkpt lat="37.04624" lon="-2.2751">
        <ele>593.9333</ele>
        <time>2021-07-18T12:52:05Z</time>
      </trkpt>
      <trkpt lat="37.04411" lon="-2.27368">
        <ele>609.3222</ele>
        <time>2021-07-18T12:52:16Z</time>
      </trkpt>
      <trkpt lat="37.04221" lon="-2.27197">
        <ele>622.9766</ele>
        <time>2021-07-18T12:52:27Z</time>
      </trkpt>
      <trkpt lat="37.0401" lon="-2.27056">
        <ele>639.1525</ele>
        <time>2021-07-18T12:52:38Z</time>
      </trkpt>
      <trkpt lat="37.038" lon="-2.26951">
        <ele>656.5861</ele>
        <time>2021-07-18T12:52:49Z</time>
      </trkpt>
      <trkpt lat="37.03616" lon="-2.26847">
        <ele>675.1255</ele>
        <time>2021-07-18T12:53:00Z</time>
      </trkpt>
      <trkpt lat="37.03474" lon="-2.26741">
        <ele>691.1582</ele>
        <time>2021-07-18T12:53:11Z</time>
      </trkpt>
      <trkpt lat="37.0336" lon="-2.26753">
        <ele>701.1356</ele>
        <time>2021-07-18T12:53:22Z</time>
      </trkpt>
      <trkpt lat="37.03384" lon="-2.26592">
        <ele>715.198</ele>
        <time>2021-07-18T12:53:33Z</time>
      </trkpt>
      <trkpt lat="37.03414" lon="-2.26386">
        <ele>726.7489</ele>
        <time>2021-07-18T12:53:44Z</time>
      </trkpt>
      <trkpt lat="37.03323" lon="-2.26262">
        <ele>738.9239</ele>
        <time>2021-07-18T12:53:55Z</time>
      </trkpt>
      <trkpt lat="37.0332" lon="-2.26316">
        <ele>750.1882</ele>
        <time>2021-07-18T12:54:06Z</time>
      </trkpt>
      <trkpt lat="37.0332" lon="-2.26394">
        <ele>758.32</ele>
        <time>2021-07-18T12:54:17Z</time>
      </trkpt>
      <trkpt lat="37.03244" lon="-2.2624">
        <ele>769.394</ele>
        <time>2021-07-18T12:54:28Z</time>
      </trkpt>
      <trkpt lat="37.03216" lon="-2.26093">
        <ele>776.3801</ele>
        <time>2021-07-18T12:54:39Z</time>
      </trkpt>
      <trkpt lat="37.03197" lon="-2.2592">
        <ele>783.9158</ele>
        <time>2021-07-18T12:54:50Z</time>
      </trkpt>
      <trkpt lat="37.0318" lon="-2.25994">
        <ele>794.5177</ele>
        <time>2021-07-18T12:55:01Z</time>
      </trkpt>
      <trkpt lat="37.03128" lon="-2.2616">
        <ele>804.6088</ele>
        <time>2021-07-18T12:55:12Z</time>
      </trkpt>
      <trkpt lat="37.03208" lon="-2.26344">
        <ele>820.2085</ele>
        <time>2021-07-18T12:55:23Z</time>
      </trkpt>
      <trkpt lat="37.03166" lon="-2.26337">
        <ele>829.0783</ele>
        <time>2021-07-18T12:55:34Z</time>
      </trkpt>
      <trkpt lat="37.03051" lon="-2.26316">
        <ele>839.0079</ele>
        <time>2021-07-18T12:55:45Z</time>
      </trkpt>
      <trkpt lat="37.03043" lon="-2.26318">
        <ele>839.8605</ele>
        <time>2021-07-18T12:55:56Z</time>
      </trkpt>
      <trkpt lat="37.03085" lon="-2.2625">
        <ele>835.6857</ele>
        <time>2021-07-18T12:56:07Z</time>
      </trkpt>
      <trkpt lat="37.03007" lon="-2.26245">
        <ele>849.4834</ele>
        <time>2021-07-18T12:56:18Z</time>
      </trkpt>
      <trkpt lat="37.03015" lon="-2.26123">
        <ele>867.0409</ele>
        <time>2021-07-18T12:56:29Z</time>
      </trkpt>
      <trkpt lat="37.02971" lon="-2.26074">
        <ele>881.2114</ele>
        <time>2021-07-18T12:56:40Z</time>
      </trkpt>
      <trkpt lat="37.02991" lon="-2.25922">
        <ele>896.4957</ele>
        <time>2021-07-18T12:56:51Z</time>
      </trkpt>
      <trkpt lat="37.02847" lon="-2.26039">
        <ele>920.4023</ele>
        <time>2021-07-18T12:57:02Z</time>
      </trkpt>
      <trkpt lat="37.02729" lon="-2.26138">
        <ele>939.6659</ele>
        <time>2021-07-18T12:57:13Z</time>
      </trkpt>
      <trkpt lat="37.02625" lon="-2.26315">
        <ele>954.3401</ele>
        <time>2021-07-18T12:57:24Z</time>
      </trkpt>
      <trkpt lat="37.0247" lon="-2.26451">
        <ele>968.3885</ele>
        <time>2021-07-18T12:57:35Z</time>
      </trkpt>
      <trkpt lat="37.02329" lon="-2.26517">
        <ele>983.3208</ele>
        <time>2021-07-18T12:57:46Z</time>
      </trkpt>
      <trkpt lat="37.02196" lon="-2.26633">
        <ele>992.3503</ele>
        <time>2021-07-18T12:57:57Z</time>
      </trkpt>
      <trkpt lat="37.02045" lon="-2.26729">
        <ele>999.8165</ele>
        <time>2021-07-18T12:58:08Z</time>
      </trkpt>
      <trkpt lat="37.01933" lon="-2.26649">
        <ele>1011.619</ele>
        <time>2021-07-18T12:58:19Z</time>
      </trkpt>
      <trkpt lat="37.01816" lon="-2.26698">
        <ele>1026.835</ele>
        <time>2021-07-18T12:58:30Z</time>
      </trkpt>
      <trkpt lat="37.01697" lon="-2.26713">
        <ele>1025.015</ele>
        <time>2021-07-18T12:58:41Z</time>
      </trkpt>
      <trkpt lat="37.01706" lon="-2.26712">
        <ele>1025.765</ele>
        <time>2021-07-18T12:58:52Z</time>
      </trkpt>
      <trkpt lat="37.01805" lon="-2.26708">
        <ele>1027.388</ele>
        <time>2021-07-18T12:59:03Z</time>
      </trkpt>
      <trkpt lat="37.01804" lon="-2.26719">
        <ele>1028.212</ele>
        <time>2021-07-18T12:59:14Z</time>
      </trkpt>
      <trkpt lat="37.01804" lon="-2.26717">
        <ele>1028.037</ele>
        <time>2021-07-18T13:00:14Z</time>
      </trkpt>
      <trkpt lat="37.01804" lon="-2.26716">
        <ele>1027.754</ele>
        <time>2021-07-18T13:01:13Z</time>
      </trkpt>
      <trkpt lat="37.01802" lon="-2.2672">
        <ele>1024.135</ele>
        <time>2021-07-18T13:01:53Z</time>
      </trkpt>
      <trkpt lat="37.01805" lon="-2.26721">
        <ele>1022.584</ele>
        <time>2021-07-18T13:02:24Z</time>
      </trkpt>
      <trkpt lat="37.01806" lon="-2.2672">
        <ele>1024.625</ele>
        <time>2021-07-18T13:03:24Z</time>
      </trkpt>
      <trkpt lat="37.01807" lon="-2.26722">
        <ele>1024.464</ele>
        <time>2021-07-18T13:04:23Z</time>
      </trkpt>
      <trkpt lat="37.01804" lon="-2.2672">
        <ele>1023.318</ele>
        <time>2021-07-18T13:05:03Z</time>
      </trkpt>
      <trkpt lat="37.01802" lon="-2.26719">
        <ele>1021.782</ele>
        <time>2021-07-18T13:06:02Z</time>
      </trkpt>
      <trkpt lat="37.01805" lon="-2.26716">
        <ele>1023.868</ele>
        <time>2021-07-18T13:06:16Z</time>
      </trkpt>
      <trkpt lat="37.01804" lon="-2.2672">
        <ele>1024.334</ele>
        <time>2021-07-18T13:06:57Z</time>
      </trkpt>
      <trkpt lat="37.01805" lon="-2.26716">
        <ele>1022.892</ele>
        <time>2021-07-18T13:07:24Z</time>
      </trkpt>
      <trkpt lat="37.01803" lon="-2.2672">
        <ele>1023.419</ele>
        <time>2021-07-18T13:07:40Z</time>
      </trkpt>
      <trkpt lat="37.01804" lon="-2.26719">
        <ele>1022.138</ele>
        <time>2021-07-18T13:08:40Z</time>
      </trkpt>
      <trkpt lat="37.01802" lon="-2.26715">
        <ele>1023.928</ele>
        <time>2021-07-18T13:09:28Z</time>
      </trkpt>
      <trkpt lat="37.01804" lon="-2.26719">
        <ele>1024.213</ele>
        <time>2021-07-18T13:09:48Z</time>
      </trkpt>
      <trkpt lat="37.01804" lon="-2.26714">
        <ele>1023.74</ele>
        <time>2021-07-18T13:10:12Z</time>
      </trkpt>
      <trkpt lat="37.018" lon="-2.26713">
        <ele>1023.411</ele>
        <time>2021-07-18T13:10:23Z</time>
      </trkpt>
      <trkpt lat="37.01804" lon="-2.26717">
        <ele>1020.743</ele>
        <time>2021-07-18T13:10:53Z</time>
      </trkpt>
      <trkpt lat="37.018" lon="-2.26716">
        <ele>1025.53</ele>
        <time>2021-07-18T13:11:14Z</time>
      </trkpt>
      <trkpt lat="37.01801" lon="-2.26716">
        <ele>1025.803</ele>
        <time>2021-07-18T13:12:13Z</time>
      </trkpt>
      <trkpt lat="37.01804" lon="-2.26716">
        <ele>1025.527</ele>
        <time>2021-07-18T13:13:13Z</time>
      </trkpt>
      <trkpt lat="37.018" lon="-2.26717">
        <ele>1022.915</ele>
        <time>2021-07-18T13:14:13Z</time>
      </trkpt>
      <trkpt lat="37.01797" lon="-2.26715">
        <ele>1024.851</ele>
        <time>2021-07-18T13:14:30Z</time>
      </trkpt>
      <trkpt lat="37.018" lon="-2.26716">
        <ele>1025.816</ele>
        <time>2021-07-18T13:15:26Z</time>
      </trkpt>
      <trkpt lat="37.01804" lon="-2.26718">
        <ele>1026.371</ele>
        <time>2021-07-18T13:15:43Z</time>
      </trkpt>
      <trkpt lat="37.01799" lon="-2.26715">
        <ele>1023.453</ele>
        <time>2021-07-18T13:16:16Z</time>
      </trkpt>
      <trkpt lat="37.01795" lon="-2.26717">
        <ele>1024.832</ele>
        <time>2021-07-18T13:16:59Z</time>
      </trkpt>
      <trkpt lat="37.01783" lon="-2.26728">
        <ele>1024.137</ele>
        <time>2021-07-18T13:17:10Z</time>
      </trkpt>
      <trkpt lat="37.01771" lon="-2.26741">
        <ele>1026.964</ele>
        <time>2021-07-18T13:17:21Z</time>
      </trkpt>
      <trkpt lat="37.01759" lon="-2.26755">
        <ele>1029.587</ele>
        <time>2021-07-18T13:17:32Z</time>
      </trkpt>
      <trkpt lat="37.01747" lon="-2.26768">
        <ele>1029.918</ele>
        <time>2021-07-18T13:17:43Z</time>
      </trkpt>
      <trkpt lat="37.01737" lon="-2.26781">
        <ele>1032.968</ele>
        <time>2021-07-18T13:17:54Z</time>
      </trkpt>
      <trkpt lat="37.01726" lon="-2.26795">
        <ele>1035.832</ele>
        <time>2021-07-18T13:18:05Z</time>
      </trkpt>
      <trkpt lat="37.01715" lon="-2.26807">
        <ele>1037.17</ele>
        <time>2021-07-18T13:18:16Z</time>
      </trkpt>
      <trkpt lat="37.01705" lon="-2.26817">
        <ele>1037.911</ele>
        <time>2021-07-18T13:18:27Z</time>
      </trkpt>
      <trkpt lat="37.01694" lon="-2.2683">
        <ele>1043.08</ele>
        <time>2021-07-18T13:18:38Z</time>
      </trkpt>
      <trkpt lat="37.0169" lon="-2.26837">
        <ele>1045.493</ele>
        <time>2021-07-18T13:18:49Z</time>
      </trkpt>
      <trkpt lat="37.01682" lon="-2.26843">
        <ele>1048.137</ele>
        <time>2021-07-18T13:19:00Z</time>
      </trkpt>
      <trkpt lat="37.01676" lon="-2.26849">
        <ele>1047.239</ele>
        <time>2021-07-18T13:19:11Z</time>
      </trkpt>
      <trkpt lat="37.01666" lon="-2.26855">
        <ele>1051.092</ele>
        <time>2021-07-18T13:19:22Z</time>
      </trkpt>
      <trkpt lat="37.01663" lon="-2.26862">
        <ele>1051.957</ele>
        <time>2021-07-18T13:19:33Z</time>
      </trkpt>
      <trkpt lat="37.01658" lon="-2.26869">
        <ele>1054.565</ele>
        <time>2021-07-18T13:19:44Z</time>
      </trkpt>
      <trkpt lat="37.01654" lon="-2.26876">
        <ele>1056.211</ele>
        <time>2021-07-18T13:19:55Z</time>
      </trkpt>
      <trkpt lat="37.01648" lon="-2.26882">
        <ele>1058.537</ele>
        <time>2021-07-18T13:20:06Z</time>
      </trkpt>
      <trkpt lat="37.01642" lon="-2.26884">
        <ele>1061.009</ele>
        <time>2021-07-18T13:20:17Z</time>
      </trkpt>
      <trkpt lat="37.01635" lon="-2.26892">
        <ele>1063.714</ele>
        <time>2021-07-18T13:20:28Z</time>
      </trkpt>
      <trkpt lat="37.01632" lon="-2.26897">
        <ele>1065.319</ele>
        <time>2021-07-18T13:20:39Z</time>
      </trkpt>
      <trkpt lat="37.01623" lon="-2.26902">
        <ele>1068.446</ele>
        <time>2021-07-18T13:20:50Z</time>
      </trkpt>
      <trkpt lat="37.01616" lon="-2.2691">
        <ele>1072.805</ele>
        <time>2021-07-18T13:21:01Z</time>
      </trkpt>
      <trkpt lat="37.0161" lon="-2.26917">
        <ele>1074.255</ele>
        <time>2021-07-18T13:21:12Z</time>
      </trkpt>
      <trkpt lat="37.01609" lon="-2.26922">
        <ele>1076.803</ele>
        <time>2021-07-18T13:21:30Z</time>
      </trkpt>
      <trkpt lat="37.01603" lon="-2.26928">
        <ele>1081.217</ele>
        <time>2021-07-18T13:21:41Z</time>
      </trkpt>
      <trkpt lat="37.01596" lon="-2.26933">
        <ele>1083.338</ele>
        <time>2021-07-18T13:21:52Z</time>
      </trkpt>
      <trkpt lat="37.01594" lon="-2.26936">
        <ele>1085.503</ele>
        <time>2021-07-18T13:22:03Z</time>
      </trkpt>
      <trkpt lat="37.01597" lon="-2.26935">
        <ele>1083.908</ele>
        <time>2021-07-18T13:22:16Z</time>
      </trkpt>
      <trkpt lat="37.01601" lon="-2.26932">
        <ele>1079.338</ele>
        <time>2021-07-18T13:22:38Z</time>
      </trkpt>
      <trkpt lat="37.01606" lon="-2.26929">
        <ele>1079.774</ele>
        <time>2021-07-18T13:22:49Z</time>
      </trkpt>
      <trkpt lat="37.01611" lon="-2.26926">
        <ele>1076.449</ele>
        <time>2021-07-18T13:23:00Z</time>
      </trkpt>
      <trkpt lat="37.01616" lon="-2.26917">
        <ele>1074.616</ele>
        <time>2021-07-18T13:23:11Z</time>
      </trkpt>
      <trkpt lat="37.01623" lon="-2.2691">
        <ele>1071.302</ele>
        <time>2021-07-18T13:23:22Z</time>
      </trkpt>
      <trkpt lat="37.01629" lon="-2.26903">
        <ele>1068.599</ele>
        <time>2021-07-18T13:23:33Z</time>
      </trkpt>
      <trkpt lat="37.01636" lon="-2.26895">
        <ele>1063.422</ele>
        <time>2021-07-18T13:23:44Z</time>
      </trkpt>
      <trkpt lat="37.01647" lon="-2.26885">
        <ele>1059.003</ele>
        <time>2021-07-18T13:23:55Z</time>
      </trkpt>
      <trkpt lat="37.01659" lon="-2.26872">
        <ele>1055.65</ele>
        <time>2021-07-18T13:24:06Z</time>
      </trkpt>
      <trkpt lat="37.01671" lon="-2.26862">
        <ele>1051.029</ele>
        <time>2021-07-18T13:24:17Z</time>
      </trkpt>
      <trkpt lat="37.01686" lon="-2.26845">
        <ele>1045.804</ele>
        <time>2021-07-18T13:24:28Z</time>
      </trkpt>
      <trkpt lat="37.01704" lon="-2.26824">
        <ele>1039.128</ele>
        <time>2021-07-18T13:24:39Z</time>
      </trkpt>
      <trkpt lat="37.01719" lon="-2.26811">
        <ele>1037.662</ele>
        <time>2021-07-18T13:24:50Z</time>
      </trkpt>
      <trkpt lat="37.01731" lon="-2.26796">
        <ele>1031.787</ele>
        <time>2021-07-18T13:25:01Z</time>
      </trkpt>
      <trkpt lat="37.01745" lon="-2.2678">
        <ele>1031.013</ele>
        <time>2021-07-18T13:25:12Z</time>
      </trkpt>
      <trkpt lat="37.01755" lon="-2.26766">
        <ele>1030.923</ele>
        <time>2021-07-18T13:25:23Z</time>
      </trkpt>
      <trkpt lat="37.01767" lon="-2.26753">
        <ele>1029.263</ele>
        <time>2021-07-18T13:25:34Z</time>
      </trkpt>
      <trkpt lat="37.01778" lon="-2.2674">
        <ele>1026.772</ele>
        <time>2021-07-18T13:25:45Z</time>
      </trkpt>
      <trkpt lat="37.01789" lon="-2.26728">
        <ele>1025.825</ele>
        <time>2021-07-18T13:25:56Z</time>
      </trkpt>
      <trkpt lat="37.018" lon="-2.26719">
        <ele>1026.825</ele>
        <time>2021-07-18T13:26:07Z</time>
      </trkpt>
      <trkpt lat="37.018" lon="-2.26718">
        <ele>1025.653</ele>
        <time>2021-07-18T13:27:06Z</time>
      </trkpt>
      <trkpt lat="37.01802" lon="-2.26719">
        <ele>1024.653</ele>
        <time>2021-07-18T13:28:04Z</time>
      </trkpt>
      <trkpt lat="37.01803" lon="-2.2672">
        <ele>1024.25</ele>
        <time>2021-07-18T13:29:04Z</time>
      </trkpt>
      <trkpt lat="37.01803" lon="-2.2672">
        <ele>1024.25</ele>
        <time>2021-07-18T13:30:04Z</time>
      </trkpt>
      <trkpt lat="37.01802" lon="-2.26717">
        <ele>1026.943</ele>
        <time>2021-07-18T13:31:03Z</time>
      </trkpt>
      <trkpt lat="37.01802" lon="-2.26717">
        <ele>1026.649</ele>
        <time>2021-07-18T13:32:02Z</time>
      </trkpt>
      <trkpt lat="37.01802" lon="-2.26718">
        <ele>1025.857</ele>
        <time>2021-07-18T13:33:01Z</time>
      </trkpt>
      <trkpt lat="37.01803" lon="-2.26719">
        <ele>1026.051</ele>
        <time>2021-07-18T13:34:00Z</time>
      </trkpt>
      <trkpt lat="37.01793" lon="-2.26718">
        <ele>1025.297</ele>
        <time>2021-07-18T13:34:11Z</time>
      </trkpt>
      <trkpt lat="37.01724" lon="-2.26716">
        <ele>1025.778</ele>
        <time>2021-07-18T13:34:22Z</time>
      </trkpt>
      <trkpt lat="37.01591" lon="-2.26664">
        <ele>1031.609</ele>
        <time>2021-07-18T13:34:33Z</time>
      </trkpt>
      <trkpt lat="37.01425" lon="-2.26671">
        <ele>1043.716</ele>
        <time>2021-07-18T13:34:44Z</time>
      </trkpt>
      <trkpt lat="37.01274" lon="-2.26698">
        <ele>1064.031</ele>
        <time>2021-07-18T13:34:55Z</time>
      </trkpt>
      <trkpt lat="37.0116" lon="-2.26745">
        <ele>1075.575</ele>
        <time>2021-07-18T13:35:06Z</time>
      </trkpt>
      <trkpt lat="37.01068" lon="-2.26841">
        <ele>1087.283</ele>
        <time>2021-07-18T13:35:17Z</time>
      </trkpt>
      <trkpt lat="37.01053" lon="-2.26972">
        <ele>1084.463</ele>
        <time>2021-07-18T13:35:28Z</time>
      </trkpt>
      <trkpt lat="37.00955" lon="-2.26973">
        <ele>1098.203</ele>
        <time>2021-07-18T13:35:39Z</time>
      </trkpt>
      <trkpt lat="37.01005" lon="-2.27099">
        <ele>1106.175</ele>
        <time>2021-07-18T13:35:50Z</time>
      </trkpt>
      <trkpt lat="37.00982" lon="-2.27301">
        <ele>1112</ele>
        <time>2021-07-18T13:36:01Z</time>
      </trkpt>
      <trkpt lat="37.00903" lon="-2.27461">
        <ele>1122.958</ele>
        <time>2021-07-18T13:36:12Z</time>
      </trkpt>
      <trkpt lat="37.00892" lon="-2.2761">
        <ele>1128.413</ele>
        <time>2021-07-18T13:36:23Z</time>
      </trkpt>
      <trkpt lat="37.00917" lon="-2.27715">
        <ele>1131.693</ele>
        <time>2021-07-18T13:36:34Z</time>
      </trkpt>
      <trkpt lat="37.00975" lon="-2.27852">
        <ele>1133.533</ele>
        <time>2021-07-18T13:36:45Z</time>
      </trkpt>
      <trkpt lat="37.01024" lon="-2.27978">
        <ele>1139.615</ele>
        <time>2021-07-18T13:36:56Z</time>
      </trkpt>
      <trkpt lat="37.01065" lon="-2.2814">
        <ele>1145.666</ele>
        <time>2021-07-18T13:37:07Z</time>
      </trkpt>
      <trkpt lat="37.01055" lon="-2.28316">
        <ele>1150.716</ele>
        <time>2021-07-18T13:37:18Z</time>
      </trkpt>
      <trkpt lat="37.00988" lon="-2.28507">
        <ele>1153.482</ele>
        <time>2021-07-18T13:37:29Z</time>
      </trkpt>
      <trkpt lat="37.00927" lon="-2.28652">
        <ele>1157.427</ele>
        <time>2021-07-18T13:37:40Z</time>
      </trkpt>
      <trkpt lat="37.00866" lon="-2.28495">
        <ele>1170.947</ele>
        <time>2021-07-18T13:37:51Z</time>
      </trkpt>
      <trkpt lat="37.00842" lon="-2.28496">
        <ele>1179.83</ele>
        <time>2021-07-18T13:38:02Z</time>
      </trkpt>
      <trkpt lat="37.00826" lon="-2.2866">
        <ele>1190.074</ele>
        <time>2021-07-18T13:38:13Z</time>
      </trkpt>
      <trkpt lat="37.00718" lon="-2.28735">
        <ele>1197.823</ele>
        <time>2021-07-18T13:38:24Z</time>
      </trkpt>
      <trkpt lat="37.00642" lon="-2.28813">
        <ele>1206.725</ele>
        <time>2021-07-18T13:38:35Z</time>
      </trkpt>
      <trkpt lat="37.00673" lon="-2.28954">
        <ele>1212.478</ele>
        <time>2021-07-18T13:38:46Z</time>
      </trkpt>
      <trkpt lat="37.00628" lon="-2.29138">
        <ele>1210.809</ele>
        <time>2021-07-18T13:38:57Z</time>
      </trkpt>
      <trkpt lat="37.00549" lon="-2.29296">
        <ele>1209.358</ele>
        <time>2021-07-18T13:39:08Z</time>
      </trkpt>
      <trkpt lat="37.00492" lon="-2.29445">
        <ele>1216.008</ele>
        <time>2021-07-18T13:39:19Z</time>
      </trkpt>
      <trkpt lat="37.00401" lon="-2.29552">
        <ele>1226.406</ele>
        <time>2021-07-18T13:39:30Z</time>
      </trkpt>
      <trkpt lat="37.00345" lon="-2.29638">
        <ele>1239.25</ele>
        <time>2021-07-18T13:39:41Z</time>
      </trkpt>
      <trkpt lat="37.00234" lon="-2.29747">
        <ele>1253.062</ele>
        <time>2021-07-18T13:39:52Z</time>
      </trkpt>
      <trkpt lat="37.00199" lon="-2.29915">
        <ele>1263.767</ele>
        <time>2021-07-18T13:40:03Z</time>
      </trkpt>
      <trkpt lat="37.00162" lon="-2.30099">
        <ele>1276.6</ele>
        <time>2021-07-18T13:40:14Z</time>
      </trkpt>
      <trkpt lat="37.00081" lon="-2.30274">
        <ele>1282.81</ele>
        <time>2021-07-18T13:40:25Z</time>
      </trkpt>
      <trkpt lat="37.00005" lon="-2.3041">
        <ele>1293.525</ele>
        <time>2021-07-18T13:40:36Z</time>
      </trkpt>
      <trkpt lat="36.99968" lon="-2.30562">
        <ele>1297.059</ele>
        <time>2021-07-18T13:40:47Z</time>
      </trkpt>
      <trkpt lat="36.99995" lon="-2.30757">
        <ele>1294.442</ele>
        <time>2021-07-18T13:40:58Z</time>
      </trkpt>
      <trkpt lat="37.00023" lon="-2.30934">
        <ele>1299.362</ele>
        <time>2021-07-18T13:41:09Z</time>
      </trkpt>
      <trkpt lat="36.99971" lon="-2.31077">
        <ele>1284.17</ele>
        <time>2021-07-18T13:41:20Z</time>
      </trkpt>
      <trkpt lat="36.99906" lon="-2.31209">
        <ele>1274.696</ele>
        <time>2021-07-18T13:41:31Z</time>
      </trkpt>
      <trkpt lat="36.99805" lon="-2.31323">
        <ele>1283.163</ele>
        <time>2021-07-18T13:41:42Z</time>
      </trkpt>
      <trkpt lat="36.9976" lon="-2.31465">
        <ele>1278.947</ele>
        <time>2021-07-18T13:41:53Z</time>
      </trkpt>
      <trkpt lat="36.99685" lon="-2.31536">
        <ele>1248.896</ele>
        <time>2021-07-18T13:42:04Z</time>
      </trkpt>
      <trkpt lat="36.9962" lon="-2.31704">
        <ele>1275.469</ele>
        <time>2021-07-18T13:42:15Z</time>
      </trkpt>
      <trkpt lat="36.99605" lon="-2.3184">
        <ele>1283.089</ele>
        <time>2021-07-18T13:42:26Z</time>
      </trkpt>
      <trkpt lat="36.99531" lon="-2.31951">
        <ele>1286.446</ele>
        <time>2021-07-18T13:42:37Z</time>
      </trkpt>
      <trkpt lat="36.99436" lon="-2.32018">
        <ele>1289.236</ele>
        <time>2021-07-18T13:42:48Z</time>
      </trkpt>
      <trkpt lat="36.99419" lon="-2.32147">
        <ele>1292.94</ele>
        <time>2021-07-18T13:42:59Z</time>
      </trkpt>
      <trkpt lat="36.99491" lon="-2.32146">
        <ele>1286.094</ele>
        <time>2021-07-18T13:43:10Z</time>
      </trkpt>
      <trkpt lat="36.99586" lon="-2.32194">
        <ele>1280.908</ele>
        <time>2021-07-18T13:43:21Z</time>
      </trkpt>
      <trkpt lat="36.99634" lon="-2.32304">
        <ele>1274.527</ele>
        <time>2021-07-18T13:43:32Z</time>
      </trkpt>
      <trkpt lat="36.99588" lon="-2.32406">
        <ele>1271.085</ele>
        <time>2021-07-18T13:43:43Z</time>
      </trkpt>
      <trkpt lat="36.99518" lon="-2.32504">
        <ele>1264.419</ele>
        <time>2021-07-18T13:43:54Z</time>
      </trkpt>
      <trkpt lat="36.99495" lon="-2.32562">
        <ele>1256.113</ele>
        <time>2021-07-18T13:44:05Z</time>
      </trkpt>
      <trkpt lat="36.99542" lon="-2.32662">
        <ele>1248.168</ele>
        <time>2021-07-18T13:44:16Z</time>
      </trkpt>
      <trkpt lat="36.99625" lon="-2.32695">
        <ele>1241.762</ele>
        <time>2021-07-18T13:44:27Z</time>
      </trkpt>
      <trkpt lat="36.9967" lon="-2.3277">
        <ele>1233.741</ele>
        <time>2021-07-18T13:44:38Z</time>
      </trkpt>
      <trkpt lat="36.9962" lon="-2.32888">
        <ele>1230.42</ele>
        <time>2021-07-18T13:44:49Z</time>
      </trkpt>
      <trkpt lat="36.99604" lon="-2.33021">
        <ele>1219.912</ele>
        <time>2021-07-18T13:45:00Z</time>
      </trkpt>
      <trkpt lat="36.99558" lon="-2.33115">
        <ele>1208.031</ele>
        <time>2021-07-18T13:45:11Z</time>
      </trkpt>
      <trkpt lat="36.99551" lon="-2.3323">
        <ele>1198.968</ele>
        <time>2021-07-18T13:45:22Z</time>
      </trkpt>
      <trkpt lat="36.99517" lon="-2.33363">
        <ele>1197.769</ele>
        <time>2021-07-18T13:45:33Z</time>
      </trkpt>
      <trkpt lat="36.99501" lon="-2.33478">
        <ele>1199.87</ele>
        <time>2021-07-18T13:45:44Z</time>
      </trkpt>
      <trkpt lat="36.99471" lon="-2.33608">
        <ele>1205.628</ele>
        <time>2021-07-18T13:45:55Z</time>
      </trkpt>
      <trkpt lat="36.99419" lon="-2.33756">
        <ele>1217.064</ele>
        <time>2021-07-18T13:46:06Z</time>
      </trkpt>
      <trkpt lat="36.99384" lon="-2.33743">
        <ele>1222.966</ele>
        <time>2021-07-18T13:46:17Z</time>
      </trkpt>
      <trkpt lat="36.99313" lon="-2.33695">
        <ele>1225.243</ele>
        <time>2021-07-18T13:46:28Z</time>
      </trkpt>
      <trkpt lat="36.99275" lon="-2.33747">
        <ele>1236.256</ele>
        <time>2021-07-18T13:46:39Z</time>
      </trkpt>
      <trkpt lat="36.99264" lon="-2.33876">
        <ele>1243.112</ele>
        <time>2021-07-18T13:46:50Z</time>
      </trkpt>
      <trkpt lat="36.99178" lon="-2.33865">
        <ele>1248.037</ele>
        <time>2021-07-18T13:47:01Z</time>
      </trkpt>
      <trkpt lat="36.99174" lon="-2.33874">
        <ele>1250.431</ele>
        <time>2021-07-18T13:47:12Z</time>
      </trkpt>
      <trkpt lat="36.99205" lon="-2.33919">
        <ele>1253.552</ele>
        <time>2021-07-18T13:47:23Z</time>
      </trkpt>
      <trkpt lat="36.99304" lon="-2.33886">
        <ele>1256.994</ele>
        <time>2021-07-18T13:47:34Z</time>
      </trkpt>
      <trkpt lat="36.9936" lon="-2.33942">
        <ele>1262.729</ele>
        <time>2021-07-18T13:47:45Z</time>
      </trkpt>
      <trkpt lat="36.99372" lon="-2.34058">
        <ele>1266.976</ele>
        <time>2021-07-18T13:47:56Z</time>
      </trkpt>
      <trkpt lat="36.99402" lon="-2.34158">
        <ele>1276.746</ele>
        <time>2021-07-18T13:48:07Z</time>
      </trkpt>
      <trkpt lat="36.99417" lon="-2.34267">
        <ele>1285.335</ele>
        <time>2021-07-18T13:48:18Z</time>
      </trkpt>
      <trkpt lat="36.99448" lon="-2.34396">
        <ele>1290.257</ele>
        <time>2021-07-18T13:48:29Z</time>
      </trkpt>
      <trkpt lat="36.99452" lon="-2.34497">
        <ele>1289.528</ele>
        <time>2021-07-18T13:48:40Z</time>
      </trkpt>
      <trkpt lat="36.99453" lon="-2.34514">
        <ele>1290.355</ele>
        <time>2021-07-18T13:48:51Z</time>
      </trkpt>
      <trkpt lat="36.99451" lon="-2.34522">
        <ele>1288.711</ele>
        <time>2021-07-18T13:49:21Z</time>
      </trkpt>
      <trkpt lat="36.99438" lon="-2.3462">
        <ele>1288.321</ele>
        <time>2021-07-18T13:49:32Z</time>
      </trkpt>
      <trkpt lat="36.99433" lon="-2.34705">
        <ele>1287.102</ele>
        <time>2021-07-18T13:49:43Z</time>
      </trkpt>
      <trkpt lat="36.99404" lon="-2.34861">
        <ele>1288.735</ele>
        <time>2021-07-18T13:49:54Z</time>
      </trkpt>
      <trkpt lat="36.99349" lon="-2.35007">
        <ele>1292.239</ele>
        <time>2021-07-18T13:50:05Z</time>
      </trkpt>
      <trkpt lat="36.99348" lon="-2.35164">
        <ele>1291.009</ele>
        <time>2021-07-18T13:50:16Z</time>
      </trkpt>
      <trkpt lat="36.99315" lon="-2.35272">
        <ele>1290.4</ele>
        <time>2021-07-18T13:50:27Z</time>
      </trkpt>
      <trkpt lat="36.99262" lon="-2.35424">
        <ele>1291.313</ele>
        <time>2021-07-18T13:50:38Z</time>
      </trkpt>
      <trkpt lat="36.99151" lon="-2.35538">
        <ele>1295.476</ele>
        <time>2021-07-18T13:50:49Z</time>
      </trkpt>
      <trkpt lat="36.99077" lon="-2.35632">
        <ele>1296.348</ele>
        <time>2021-07-18T13:51:00Z</time>
      </trkpt>
      <trkpt lat="36.99031" lon="-2.35742">
        <ele>1301.085</ele>
        <time>2021-07-18T13:51:11Z</time>
      </trkpt>
      <trkpt lat="36.99006" lon="-2.35862">
        <ele>1297.161</ele>
        <time>2021-07-18T13:51:22Z</time>
      </trkpt>
      <trkpt lat="36.98969" lon="-2.36024">
        <ele>1299.39</ele>
        <time>2021-07-18T13:51:33Z</time>
      </trkpt>
      <trkpt lat="36.98961" lon="-2.36166">
        <ele>1305.602</ele>
        <time>2021-07-18T13:51:44Z</time>
      </trkpt>
      <trkpt lat="36.98891" lon="-2.36316">
        <ele>1305.76</ele>
        <time>2021-07-18T13:51:55Z</time>
      </trkpt>
      <trkpt lat="36.98767" lon="-2.36418">
        <ele>1304.576</ele>
        <time>2021-07-18T13:52:06Z</time>
      </trkpt>
      <trkpt lat="36.98635" lon="-2.36462">
        <ele>1308.746</ele>
        <time>2021-07-18T13:52:17Z</time>
      </trkpt>
      <trkpt lat="36.98609" lon="-2.36501">
        <ele>1309.767</ele>
        <time>2021-07-18T13:52:28Z</time>
      </trkpt>
      <trkpt lat="36.98609" lon="-2.36502">
        <ele>1311.189</ele>
        <time>2021-07-18T13:53:28Z</time>
      </trkpt>
      <trkpt lat="36.9861" lon="-2.36507">
        <ele>1310.374</ele>
        <time>2021-07-18T13:53:39Z</time>
      </trkpt>
      <trkpt lat="36.98656" lon="-2.36628">
        <ele>1297.029</ele>
        <time>2021-07-18T13:53:50Z</time>
      </trkpt>
      <trkpt lat="36.98708" lon="-2.36783">
        <ele>1302.424</ele>
        <time>2021-07-18T13:54:01Z</time>
      </trkpt>
      <trkpt lat="36.9869" lon="-2.36959">
        <ele>1302.706</ele>
        <time>2021-07-18T13:54:12Z</time>
      </trkpt>
      <trkpt lat="36.98641" lon="-2.37137">
        <ele>1301.062</ele>
        <time>2021-07-18T13:54:23Z</time>
      </trkpt>
      <trkpt lat="36.98564" lon="-2.37233">
        <ele>1295.092</ele>
        <time>2021-07-18T13:54:34Z</time>
      </trkpt>
      <trkpt lat="36.98538" lon="-2.37346">
        <ele>1293.286</ele>
        <time>2021-07-18T13:54:45Z</time>
      </trkpt>
      <trkpt lat="36.98613" lon="-2.37419">
        <ele>1286.456</ele>
        <time>2021-07-18T13:54:56Z</time>
      </trkpt>
      <trkpt lat="36.98653" lon="-2.37563">
        <ele>1280.302</ele>
        <time>2021-07-18T13:55:07Z</time>
      </trkpt>
      <trkpt lat="36.98662" lon="-2.37714">
        <ele>1270.927</ele>
        <time>2021-07-18T13:55:18Z</time>
      </trkpt>
      <trkpt lat="36.98695" lon="-2.37898">
        <ele>1275.748</ele>
        <time>2021-07-18T13:55:29Z</time>
      </trkpt>
      <trkpt lat="36.98706" lon="-2.3807">
        <ele>1270.734</ele>
        <time>2021-07-18T13:55:40Z</time>
      </trkpt>
      <trkpt lat="36.98742" lon="-2.38218">
        <ele>1267.626</ele>
        <time>2021-07-18T13:55:51Z</time>
      </trkpt>
      <trkpt lat="36.98727" lon="-2.38331">
        <ele>1265.324</ele>
        <time>2021-07-18T13:56:02Z</time>
      </trkpt>
      <trkpt lat="36.98669" lon="-2.38441">
        <ele>1257.015</ele>
        <time>2021-07-18T13:56:13Z</time>
      </trkpt>
      <trkpt lat="36.98694" lon="-2.38529">
        <ele>1252.834</ele>
        <time>2021-07-18T13:56:24Z</time>
      </trkpt>
      <trkpt lat="36.98733" lon="-2.38611">
        <ele>1245.762</ele>
        <time>2021-07-18T13:56:35Z</time>
      </trkpt>
      <trkpt lat="36.98724" lon="-2.38718">
        <ele>1239.278</ele>
        <time>2021-07-18T13:56:46Z</time>
      </trkpt>
      <trkpt lat="36.98747" lon="-2.38833">
        <ele>1230.448</ele>
        <time>2021-07-18T13:56:57Z</time>
      </trkpt>
      <trkpt lat="36.98715" lon="-2.38951">
        <ele>1222.421</ele>
        <time>2021-07-18T13:57:08Z</time>
      </trkpt>
      <trkpt lat="36.98668" lon="-2.39055">
        <ele>1215.049</ele>
        <time>2021-07-18T13:57:19Z</time>
      </trkpt>
      <trkpt lat="36.98668" lon="-2.39176">
        <ele>1204.491</ele>
        <time>2021-07-18T13:57:30Z</time>
      </trkpt>
      <trkpt lat="36.9871" lon="-2.39288">
        <ele>1190.856</ele>
        <time>2021-07-18T13:57:41Z</time>
      </trkpt>
      <trkpt lat="36.98738" lon="-2.39399">
        <ele>1181.466</ele>
        <time>2021-07-18T13:57:52Z</time>
      </trkpt>
      <trkpt lat="36.98753" lon="-2.39484">
        <ele>1179.272</ele>
        <time>2021-07-18T13:58:03Z</time>
      </trkpt>
      <trkpt lat="36.98738" lon="-2.39577">
        <ele>1176.799</ele>
        <time>2021-07-18T13:58:14Z</time>
      </trkpt>
      <trkpt lat="36.98688" lon="-2.39668">
        <ele>1167.229</ele>
        <time>2021-07-18T13:58:25Z</time>
      </trkpt>
      <trkpt lat="36.98672" lon="-2.39765">
        <ele>1159.053</ele>
        <time>2021-07-18T13:58:36Z</time>
      </trkpt>
      <trkpt lat="36.98721" lon="-2.39712">
        <ele>1154.676</ele>
        <time>2021-07-18T13:58:47Z</time>
      </trkpt>
      <trkpt lat="36.98773" lon="-2.39603">
        <ele>1141.255</ele>
        <time>2021-07-18T13:58:58Z</time>
      </trkpt>
      <trkpt lat="36.98825" lon="-2.39499">
        <ele>1131.738</ele>
        <time>2021-07-18T13:59:09Z</time>
      </trkpt>
      <trkpt lat="36.9887" lon="-2.39428">
        <ele>1127.639</ele>
        <time>2021-07-18T13:59:20Z</time>
      </trkpt>
      <trkpt lat="36.98868" lon="-2.3952">
        <ele>1125.76</ele>
        <time>2021-07-18T13:59:31Z</time>
      </trkpt>
      <trkpt lat="36.98835" lon="-2.39629">
        <ele>1117.776</ele>
        <time>2021-07-18T13:59:42Z</time>
      </trkpt>
      <trkpt lat="36.98816" lon="-2.39748">
        <ele>1108.585</ele>
        <time>2021-07-18T13:59:53Z</time>
      </trkpt>
      <trkpt lat="36.98779" lon="-2.39848">
        <ele>1097.673</ele>
        <time>2021-07-18T14:00:04Z</time>
      </trkpt>
      <trkpt lat="36.98778" lon="-2.39964">
        <ele>1086.611</ele>
        <time>2021-07-18T14:00:15Z</time>
      </trkpt>
      <trkpt lat="36.98779" lon="-2.40082">
        <ele>1081.136</ele>
        <time>2021-07-18T14:00:26Z</time>
      </trkpt>
      <trkpt lat="36.98791" lon="-2.40191">
        <ele>1073.907</ele>
        <time>2021-07-18T14:00:37Z</time>
      </trkpt>
      <trkpt lat="36.98806" lon="-2.40298">
        <ele>1067.306</ele>
        <time>2021-07-18T14:00:48Z</time>
      </trkpt>
      <trkpt lat="36.98847" lon="-2.40376">
        <ele>1055.996</ele>
        <time>2021-07-18T14:00:59Z</time>
      </trkpt>
      <trkpt lat="36.98855" lon="-2.40293">
        <ele>1054.084</ele>
        <time>2021-07-18T14:01:10Z</time>
      </trkpt>
      <trkpt lat="36.98882" lon="-2.40222">
        <ele>1054.263</ele>
        <time>2021-07-18T14:01:21Z</time>
      </trkpt>
      <trkpt lat="36.98908" lon="-2.4013">
        <ele>1047.603</ele>
        <time>2021-07-18T14:01:32Z</time>
      </trkpt>
      <trkpt lat="36.98907" lon="-2.40054">
        <ele>1042.252</ele>
        <time>2021-07-18T14:01:43Z</time>
      </trkpt>
      <trkpt lat="36.98956" lon="-2.40077">
        <ele>1044.128</ele>
        <time>2021-07-18T14:01:54Z</time>
      </trkpt>
      <trkpt lat="36.99027" lon="-2.40025">
        <ele>1031.401</ele>
        <time>2021-07-18T14:02:05Z</time>
      </trkpt>
      <trkpt lat="36.99045" lon="-2.39978">
        <ele>1028.127</ele>
        <time>2021-07-18T14:02:16Z</time>
      </trkpt>
      <trkpt lat="36.9911" lon="-2.39953">
        <ele>1020.223</ele>
        <time>2021-07-18T14:02:27Z</time>
      </trkpt>
      <trkpt lat="36.99162" lon="-2.39901">
        <ele>1013.297</ele>
        <time>2021-07-18T14:02:38Z</time>
      </trkpt>
      <trkpt lat="36.99189" lon="-2.39797">
        <ele>1005.308</ele>
        <time>2021-07-18T14:02:49Z</time>
      </trkpt>
      <trkpt lat="36.99201" lon="-2.397">
        <ele>998.3894</ele>
        <time>2021-07-18T14:03:00Z</time>
      </trkpt>
      <trkpt lat="36.99239" lon="-2.39654">
        <ele>998.4682</ele>
        <time>2021-07-18T14:03:11Z</time>
      </trkpt>
      <trkpt lat="36.99222" lon="-2.39728">
        <ele>993.2262</ele>
        <time>2021-07-18T14:03:22Z</time>
      </trkpt>
      <trkpt lat="36.99225" lon="-2.39862">
        <ele>984.6889</ele>
        <time>2021-07-18T14:03:33Z</time>
      </trkpt>
      <trkpt lat="36.99256" lon="-2.39972">
        <ele>978.4617</ele>
        <time>2021-07-18T14:03:44Z</time>
      </trkpt>
      <trkpt lat="36.99261" lon="-2.39908">
        <ele>968.8588</ele>
        <time>2021-07-18T14:03:55Z</time>
      </trkpt>
      <trkpt lat="36.99263" lon="-2.39788">
        <ele>944.058</ele>
        <time>2021-07-18T14:04:06Z</time>
      </trkpt>
      <trkpt lat="36.99322" lon="-2.39772">
        <ele>948.2738</ele>
        <time>2021-07-18T14:04:17Z</time>
      </trkpt>
      <trkpt lat="36.99334" lon="-2.39801">
        <ele>952.3492</ele>
        <time>2021-07-18T14:04:28Z</time>
      </trkpt>
      <trkpt lat="36.99322" lon="-2.39855">
        <ele>955.7967</ele>
        <time>2021-07-18T14:04:39Z</time>
      </trkpt>
      <trkpt lat="36.99378" lon="-2.39886">
        <ele>946.887</ele>
        <time>2021-07-18T14:04:50Z</time>
      </trkpt>
      <trkpt lat="36.9939" lon="-2.3998">
        <ele>938.0572</ele>
        <time>2021-07-18T14:05:01Z</time>
      </trkpt>
      <trkpt lat="36.99445" lon="-2.40056">
        <ele>920.3426</ele>
        <time>2021-07-18T14:05:12Z</time>
      </trkpt>
      <trkpt lat="36.99384" lon="-2.40102">
        <ele>909.329</ele>
        <time>2021-07-18T14:05:23Z</time>
      </trkpt>
      <trkpt lat="36.99329" lon="-2.40155">
        <ele>904.1819</ele>
        <time>2021-07-18T14:05:34Z</time>
      </trkpt>
      <trkpt lat="36.99309" lon="-2.40245">
        <ele>906.516</ele>
        <time>2021-07-18T14:05:45Z</time>
      </trkpt>
      <trkpt lat="36.99303" lon="-2.40337">
        <ele>911.0627</ele>
        <time>2021-07-18T14:05:56Z</time>
      </trkpt>
      <trkpt lat="36.99244" lon="-2.40394">
        <ele>908.3001</ele>
        <time>2021-07-18T14:06:07Z</time>
      </trkpt>
      <trkpt lat="36.99215" lon="-2.40419">
        <ele>909.7806</ele>
        <time>2021-07-18T14:06:18Z</time>
      </trkpt>
      <trkpt lat="36.99262" lon="-2.40511">
        <ele>899.3976</ele>
        <time>2021-07-18T14:06:29Z</time>
      </trkpt>
      <trkpt lat="36.99349" lon="-2.40547">
        <ele>874.2369</ele>
        <time>2021-07-18T14:06:40Z</time>
      </trkpt>
      <trkpt lat="36.99436" lon="-2.40582">
        <ele>861.7311</ele>
        <time>2021-07-18T14:06:51Z</time>
      </trkpt>
      <trkpt lat="36.99476" lon="-2.40666">
        <ele>854.2065</ele>
        <time>2021-07-18T14:07:02Z</time>
      </trkpt>
      <trkpt lat="36.99394" lon="-2.40705">
        <ele>850.6633</ele>
        <time>2021-07-18T14:07:13Z</time>
      </trkpt>
      <trkpt lat="36.99353" lon="-2.40705">
        <ele>849.0336</ele>
        <time>2021-07-18T14:07:24Z</time>
      </trkpt>
      <trkpt lat="36.99329" lon="-2.40788">
        <ele>844.5861</ele>
        <time>2021-07-18T14:07:35Z</time>
      </trkpt>
      <trkpt lat="36.99364" lon="-2.4082">
        <ele>839.8027</ele>
        <time>2021-07-18T14:07:46Z</time>
      </trkpt>
      <trkpt lat="36.99419" lon="-2.40882">
        <ele>832.4497</ele>
        <time>2021-07-18T14:07:57Z</time>
      </trkpt>
      <trkpt lat="36.99373" lon="-2.40976">
        <ele>824.4092</ele>
        <time>2021-07-18T14:08:08Z</time>
      </trkpt>
      <trkpt lat="36.99323" lon="-2.40996">
        <ele>816.7731</ele>
        <time>2021-07-18T14:08:19Z</time>
      </trkpt>
      <trkpt lat="36.99364" lon="-2.41051">
        <ele>810.1381</ele>
        <time>2021-07-18T14:08:30Z</time>
      </trkpt>
      <trkpt lat="36.99344" lon="-2.4112">
        <ele>805.0947</ele>
        <time>2021-07-18T14:08:41Z</time>
      </trkpt>
      <trkpt lat="36.99342" lon="-2.41123">
        <ele>804.762</ele>
        <time>2021-07-18T14:09:06Z</time>
      </trkpt>
      <trkpt lat="36.99343" lon="-2.41123">
        <ele>804.1384</ele>
        <time>2021-07-18T14:10:06Z</time>
      </trkpt>
      <trkpt lat="36.9934" lon="-2.41126">
        <ele>802.1411</ele>
        <time>2021-07-18T14:10:32Z</time>
      </trkpt>
      <trkpt lat="36.99304" lon="-2.4118">
        <ele>791.8728</ele>
        <time>2021-07-18T14:10:43Z</time>
      </trkpt>
      <trkpt lat="36.99281" lon="-2.41241">
        <ele>782.5571</ele>
        <time>2021-07-18T14:10:54Z</time>
      </trkpt>
      <trkpt lat="36.9932" lon="-2.4123">
        <ele>782.2298</ele>
        <time>2021-07-18T14:11:05Z</time>
      </trkpt>
      <trkpt lat="36.99325" lon="-2.41229">
        <ele>782.6862</ele>
        <time>2021-07-18T14:11:17Z</time>
      </trkpt>
      <trkpt lat="36.99362" lon="-2.41237">
        <ele>781.9835</ele>
        <time>2021-07-18T14:11:28Z</time>
      </trkpt>
      <trkpt lat="36.99421" lon="-2.41227">
        <ele>774.7926</ele>
        <time>2021-07-18T14:11:39Z</time>
      </trkpt>
      <trkpt lat="36.99461" lon="-2.41233">
        <ele>768.955</ele>
        <time>2021-07-18T14:11:50Z</time>
      </trkpt>
      <trkpt lat="36.9948" lon="-2.41279">
        <ele>764.1343</ele>
        <time>2021-07-18T14:12:01Z</time>
      </trkpt>
      <trkpt lat="36.99483" lon="-2.41309">
        <ele>759.4587</ele>
        <time>2021-07-18T14:12:12Z</time>
      </trkpt>
      <trkpt lat="36.9945" lon="-2.41343">
        <ele>751.1734</ele>
        <time>2021-07-18T14:12:23Z</time>
      </trkpt>
      <trkpt lat="36.99493" lon="-2.41339">
        <ele>753.8069</ele>
        <time>2021-07-18T14:12:34Z</time>
      </trkpt>
      <trkpt lat="36.9952" lon="-2.41337">
        <ele>755.3423</ele>
        <time>2021-07-18T14:12:45Z</time>
      </trkpt>
      <trkpt lat="36.9948" lon="-2.4136">
        <ele>752.1016</ele>
        <time>2021-07-18T14:12:56Z</time>
      </trkpt>
      <trkpt lat="36.99434" lon="-2.41383">
        <ele>744.5361</ele>
        <time>2021-07-18T14:13:07Z</time>
      </trkpt>
      <trkpt lat="36.99429" lon="-2.4145">
        <ele>738.9873</ele>
        <time>2021-07-18T14:13:18Z</time>
      </trkpt>
      <trkpt lat="36.99467" lon="-2.41434">
        <ele>736.7317</ele>
        <time>2021-07-18T14:13:29Z</time>
      </trkpt>
      <trkpt lat="36.99505" lon="-2.41409">
        <ele>735.9179</ele>
        <time>2021-07-18T14:13:40Z</time>
      </trkpt>
      <trkpt lat="36.99559" lon="-2.41392">
        <ele>730.6532</ele>
        <time>2021-07-18T14:13:51Z</time>
      </trkpt>
      <trkpt lat="36.996" lon="-2.41378">
        <ele>722.832</ele>
        <time>2021-07-18T14:14:02Z</time>
      </trkpt>
      <trkpt lat="36.99587" lon="-2.41433">
        <ele>718.4342</ele>
        <time>2021-07-18T14:14:13Z</time>
      </trkpt>
      <trkpt lat="36.99624" lon="-2.41422">
        <ele>716.235</ele>
        <time>2021-07-18T14:14:24Z</time>
      </trkpt>
      <trkpt lat="36.99587" lon="-2.41487">
        <ele>709.7849</ele>
        <time>2021-07-18T14:14:35Z</time>
      </trkpt>
      <trkpt lat="36.99526" lon="-2.4155">
        <ele>704.1192</ele>
        <time>2021-07-18T14:14:46Z</time>
      </trkpt>
      <trkpt lat="36.99503" lon="-2.41589">
        <ele>694.4526</ele>
        <time>2021-07-18T14:14:57Z</time>
      </trkpt>
      <trkpt lat="36.99571" lon="-2.41597">
        <ele>683.2204</ele>
        <time>2021-07-18T14:15:08Z</time>
      </trkpt>
      <trkpt lat="36.996" lon="-2.41624">
        <ele>677.1814</ele>
        <time>2021-07-18T14:15:19Z</time>
      </trkpt>
      <trkpt lat="36.99542" lon="-2.41642">
        <ele>678.911</ele>
        <time>2021-07-18T14:15:30Z</time>
      </trkpt>
      <trkpt lat="36.99494" lon="-2.41653">
        <ele>681.8655</ele>
        <time>2021-07-18T14:15:41Z</time>
      </trkpt>
      <trkpt lat="36.99465" lon="-2.41714">
        <ele>677.5348</ele>
        <time>2021-07-18T14:15:52Z</time>
      </trkpt>
      <trkpt lat="36.99493" lon="-2.41751">
        <ele>678.2317</ele>
        <time>2021-07-18T14:16:03Z</time>
      </trkpt>
      <trkpt lat="36.99488" lon="-2.41704">
        <ele>674.7244</ele>
        <time>2021-07-18T14:16:14Z</time>
      </trkpt>
      <trkpt lat="36.99528" lon="-2.41697">
        <ele>670.8533</ele>
        <time>2021-07-18T14:16:25Z</time>
      </trkpt>
      <trkpt lat="36.99575" lon="-2.41672">
        <ele>663.6602</ele>
        <time>2021-07-18T14:16:36Z</time>
      </trkpt>
      <trkpt lat="36.99631" lon="-2.41704">
        <ele>647.3266</ele>
        <time>2021-07-18T14:16:47Z</time>
      </trkpt>
      <trkpt lat="36.99701" lon="-2.41737">
        <ele>644.2488</ele>
        <time>2021-07-18T14:16:59Z</time>
      </trkpt>
      <trkpt lat="36.99746" lon="-2.41719">
        <ele>645.6937</ele>
        <time>2021-07-18T14:17:10Z</time>
      </trkpt>
      <trkpt lat="36.99735" lon="-2.4177">
        <ele>644.7389</ele>
        <time>2021-07-18T14:17:21Z</time>
      </trkpt>
      <trkpt lat="36.99738" lon="-2.41836">
        <ele>636.8622</ele>
        <time>2021-07-18T14:17:32Z</time>
      </trkpt>
      <trkpt lat="36.99795" lon="-2.4191">
        <ele>627.2018</ele>
        <time>2021-07-18T14:17:43Z</time>
      </trkpt>
      <trkpt lat="36.99826" lon="-2.41901">
        <ele>621.4093</ele>
        <time>2021-07-18T14:17:54Z</time>
      </trkpt>
      <trkpt lat="36.99802" lon="-2.41846">
        <ele>617.3619</ele>
        <time>2021-07-18T14:18:05Z</time>
      </trkpt>
      <trkpt lat="36.99808" lon="-2.41822">
        <ele>611.6023</ele>
        <time>2021-07-18T14:18:16Z</time>
      </trkpt>
      <trkpt lat="36.99863" lon="-2.41799">
        <ele>605.1745</ele>
        <time>2021-07-18T14:18:27Z</time>
      </trkpt>
      <trkpt lat="36.99902" lon="-2.41777">
        <ele>596.4348</ele>
        <time>2021-07-18T14:18:38Z</time>
      </trkpt>
      <trkpt lat="36.9994" lon="-2.41714">
        <ele>593.8604</ele>
        <time>2021-07-18T14:18:49Z</time>
      </trkpt>
      <trkpt lat="37.0001" lon="-2.41695">
        <ele>588.97</ele>
        <time>2021-07-18T14:19:00Z</time>
      </trkpt>
      <trkpt lat="37.00049" lon="-2.41668">
        <ele>583.8918</ele>
        <time>2021-07-18T14:19:11Z</time>
      </trkpt>
      <trkpt lat="37.0011" lon="-2.41711">
        <ele>566.7488</ele>
        <time>2021-07-18T14:19:22Z</time>
      </trkpt>
      <trkpt lat="37.00179" lon="-2.41734">
        <ele>562.5951</ele>
        <time>2021-07-18T14:19:33Z</time>
      </trkpt>
      <trkpt lat="37.00183" lon="-2.41816">
        <ele>522.8273</ele>
        <time>2021-07-18T14:19:44Z</time>
      </trkpt>
      <trkpt lat="37.00204" lon="-2.41879">
        <ele>551.3681</ele>
        <time>2021-07-18T14:19:55Z</time>
      </trkpt>
      <trkpt lat="37.00229" lon="-2.41921">
        <ele>596.8067</ele>
        <time>2021-07-18T14:20:06Z</time>
      </trkpt>
      <trkpt lat="37.00225" lon="-2.41937">
        <ele>563.1176</ele>
        <time>2021-07-18T14:20:17Z</time>
      </trkpt>
      <trkpt lat="37.00239" lon="-2.41983">
        <ele>564.9981</ele>
        <time>2021-07-18T14:20:28Z</time>
      </trkpt>
      <trkpt lat="37.00269" lon="-2.41947">
        <ele>561.6116</ele>
        <time>2021-07-18T14:20:39Z</time>
      </trkpt>
      <trkpt lat="37.00225" lon="-2.41875">
        <ele>555.0038</ele>
        <time>2021-07-18T14:20:50Z</time>
      </trkpt>
      <trkpt lat="37.00258" lon="-2.41805">
        <ele>550.4049</ele>
        <time>2021-07-18T14:21:01Z</time>
      </trkpt>
      <trkpt lat="37.0026" lon="-2.41731">
        <ele>544.4828</ele>
        <time>2021-07-18T14:21:12Z</time>
      </trkpt>
      <trkpt lat="37.00276" lon="-2.41678">
        <ele>539.6619</ele>
        <time>2021-07-18T14:21:23Z</time>
      </trkpt>
      <trkpt lat="37.00353" lon="-2.41736">
        <ele>532.9993</ele>
        <time>2021-07-18T14:21:34Z</time>
      </trkpt>
      <trkpt lat="37.00346" lon="-2.41819">
        <ele>528.4257</ele>
        <time>2021-07-18T14:21:45Z</time>
      </trkpt>
      <trkpt lat="37.00381" lon="-2.41851">
        <ele>523.8868</ele>
        <time>2021-07-18T14:21:56Z</time>
      </trkpt>
      <trkpt lat="37.00486" lon="-2.41891">
        <ele>517.9727</ele>
        <time>2021-07-18T14:22:07Z</time>
      </trkpt>
      <trkpt lat="37.00542" lon="-2.41846">
        <ele>513.6348</ele>
        <time>2021-07-18T14:22:18Z</time>
      </trkpt>
      <trkpt lat="37.00593" lon="-2.41861">
        <ele>510.2816</ele>
        <time>2021-07-18T14:22:29Z</time>
      </trkpt>
      <trkpt lat="37.00616" lon="-2.41959">
        <ele>503.9228</ele>
        <time>2021-07-18T14:22:40Z</time>
      </trkpt>
      <trkpt lat="37.00624" lon="-2.42028">
        <ele>498.0469</ele>
        <time>2021-07-18T14:22:51Z</time>
      </trkpt>
      <trkpt lat="37.00672" lon="-2.42033">
        <ele>490.7563</ele>
        <time>2021-07-18T14:23:02Z</time>
      </trkpt>
      <trkpt lat="37.00735" lon="-2.42042">
        <ele>483.2323</ele>
        <time>2021-07-18T14:23:13Z</time>
      </trkpt>
      <trkpt lat="37.00748" lon="-2.42062">
        <ele>481.2619</ele>
        <time>2021-07-18T14:23:24Z</time>
      </trkpt>
      <trkpt lat="37.00747" lon="-2.42063">
        <ele>479.6103</ele>
        <time>2021-07-18T14:24:24Z</time>
      </trkpt>
      <trkpt lat="37.00753" lon="-2.42055">
        <ele>476.4659</ele>
        <time>2021-07-18T14:24:41Z</time>
      </trkpt>
      <trkpt lat="37.00796" lon="-2.41973">
        <ele>475.7594</ele>
        <time>2021-07-18T14:24:52Z</time>
      </trkpt>
      <trkpt lat="37.00805" lon="-2.41948">
        <ele>471.5804</ele>
        <time>2021-07-18T14:25:04Z</time>
      </trkpt>
      <trkpt lat="37.00805" lon="-2.41939">
        <ele>470.643</ele>
        <time>2021-07-18T14:25:36Z</time>
      </trkpt>
      <trkpt lat="37.0077" lon="-2.41814">
        <ele>452.7803</ele>
        <time>2021-07-18T14:25:47Z</time>
      </trkpt>
      <trkpt lat="37.00773" lon="-2.41781">
        <ele>462.2197</ele>
        <time>2021-07-18T14:25:58Z</time>
      </trkpt>
      <trkpt lat="37.00825" lon="-2.41828">
        <ele>453.4849</ele>
        <time>2021-07-18T14:26:09Z</time>
      </trkpt>
      <trkpt lat="37.00807" lon="-2.41739">
        <ele>448.3043</ele>
        <time>2021-07-18T14:26:20Z</time>
      </trkpt>
      <trkpt lat="37.00846" lon="-2.41772">
        <ele>449.1531</ele>
        <time>2021-07-18T14:26:31Z</time>
      </trkpt>
      <trkpt lat="37.00893" lon="-2.41788">
        <ele>443.1855</ele>
        <time>2021-07-18T14:26:42Z</time>
      </trkpt>
      <trkpt lat="37.00968" lon="-2.41832">
        <ele>436.1045</ele>
        <time>2021-07-18T14:26:53Z</time>
      </trkpt>
      <trkpt lat="37.01008" lon="-2.41764">
        <ele>431.2748</ele>
        <time>2021-07-18T14:27:04Z</time>
      </trkpt>
      <trkpt lat="37.01066" lon="-2.41761">
        <ele>424.5298</ele>
        <time>2021-07-18T14:27:15Z</time>
      </trkpt>
      <trkpt lat="37.01125" lon="-2.41774">
        <ele>417.4538</ele>
        <time>2021-07-18T14:27:26Z</time>
      </trkpt>
      <trkpt lat="37.01182" lon="-2.41715">
        <ele>407.1234</ele>
        <time>2021-07-18T14:27:37Z</time>
      </trkpt>
      <trkpt lat="37.01233" lon="-2.41658">
        <ele>400.7284</ele>
        <time>2021-07-18T14:27:48Z</time>
      </trkpt>
      <trkpt lat="37.01274" lon="-2.41614">
        <ele>399.7561</ele>
        <time>2021-07-18T14:27:59Z</time>
      </trkpt>
      <trkpt lat="37.01324" lon="-2.41676">
        <ele>387.5342</ele>
        <time>2021-07-18T14:28:10Z</time>
      </trkpt>
      <trkpt lat="37.01375" lon="-2.41785">
        <ele>379.8071</ele>
        <time>2021-07-18T14:28:21Z</time>
      </trkpt>
      <trkpt lat="37.01437" lon="-2.41806">
        <ele>376.213</ele>
        <time>2021-07-18T14:28:32Z</time>
      </trkpt>
      <trkpt lat="37.01511" lon="-2.41759">
        <ele>369.6306</ele>
        <time>2021-07-18T14:28:43Z</time>
      </trkpt>
      <trkpt lat="37.01587" lon="-2.41774">
        <ele>362.132</ele>
        <time>2021-07-18T14:28:54Z</time>
      </trkpt>
      <trkpt lat="37.01665" lon="-2.4182">
        <ele>355.1698</ele>
        <time>2021-07-18T14:29:05Z</time>
      </trkpt>
      <trkpt lat="37.01715" lon="-2.41828">
        <ele>350.1964</ele>
        <time>2021-07-18T14:29:16Z</time>
      </trkpt>
      <trkpt lat="37.01758" lon="-2.41928">
        <ele>351.5014</ele>
        <time>2021-07-18T14:29:27Z</time>
      </trkpt>
      <trkpt lat="37.0176" lon="-2.42006">
        <ele>347.2648</ele>
        <time>2021-07-18T14:29:38Z</time>
      </trkpt>
      <trkpt lat="37.0182" lon="-2.42078">
        <ele>339.4758</ele>
        <time>2021-07-18T14:29:49Z</time>
      </trkpt>
      <trkpt lat="37.01892" lon="-2.42108">
        <ele>333.6076</ele>
        <time>2021-07-18T14:30:00Z</time>
      </trkpt>
      <trkpt lat="37.01946" lon="-2.42214">
        <ele>330.78</ele>
        <time>2021-07-18T14:30:11Z</time>
      </trkpt>
      <trkpt lat="37.02005" lon="-2.42275">
        <ele>323.6309</ele>
        <time>2021-07-18T14:30:22Z</time>
      </trkpt>
      <trkpt lat="37.02003" lon="-2.42356">
        <ele>327.767</ele>
        <time>2021-07-18T14:30:33Z</time>
      </trkpt>
      <trkpt lat="37.01957" lon="-2.42404">
        <ele>329.5733</ele>
        <time>2021-07-18T14:30:44Z</time>
      </trkpt>
      <trkpt lat="37.01911" lon="-2.42431">
        <ele>330.6582</ele>
        <time>2021-07-18T14:30:55Z</time>
      </trkpt>
      <trkpt lat="37.01928" lon="-2.42514">
        <ele>326.9725</ele>
        <time>2021-07-18T14:31:06Z</time>
      </trkpt>
      <trkpt lat="37.0193" lon="-2.42519">
        <ele>326.7233</ele>
        <time>2021-07-18T14:31:17Z</time>
      </trkpt>
      <trkpt lat="37.0193" lon="-2.42519">
        <ele>324.3663</ele>
        <time>2021-07-18T14:32:16Z</time>
      </trkpt>
      <trkpt lat="37.0193" lon="-2.42519">
        <ele>324.1651</ele>
        <time>2021-07-18T14:33:16Z</time>
      </trkpt>
      <trkpt lat="37.0193" lon="-2.42519">
        <ele>324.1114</ele>
        <time>2021-07-18T14:34:16Z</time>
      </trkpt>
      <trkpt lat="37.0193" lon="-2.4252">
        <ele>324.2593</ele>
        <time>2021-07-18T14:35:16Z</time>
      </trkpt>
      <trkpt lat="37.01933" lon="-2.42527">
        <ele>324.1574</ele>
        <time>2021-07-18T14:35:51Z</time>
      </trkpt>
      <trkpt lat="37.01926" lon="-2.42588">
        <ele>320.5752</ele>
        <time>2021-07-18T14:36:02Z</time>
      </trkpt>
      <trkpt lat="37.01946" lon="-2.4269">
        <ele>319.561</ele>
        <time>2021-07-18T14:36:13Z</time>
      </trkpt>
      <trkpt lat="37.01961" lon="-2.42778">
        <ele>314.0121</ele>
        <time>2021-07-18T14:36:24Z</time>
      </trkpt>
      <trkpt lat="37.02002" lon="-2.42846">
        <ele>315.7214</ele>
        <time>2021-07-18T14:36:35Z</time>
      </trkpt>
      <trkpt lat="37.02057" lon="-2.42903">
        <ele>313.7425</ele>
        <time>2021-07-18T14:36:46Z</time>
      </trkpt>
      <trkpt lat="37.02114" lon="-2.42984">
        <ele>311.8439</ele>
        <time>2021-07-18T14:36:57Z</time>
      </trkpt>
      <trkpt lat="37.02143" lon="-2.43163">
        <ele>306.6897</ele>
        <time>2021-07-18T14:37:08Z</time>
      </trkpt>
      <trkpt lat="37.02078" lon="-2.43292">
        <ele>306.4512</ele>
        <time>2021-07-18T14:37:19Z</time>
      </trkpt>
      <trkpt lat="37.02054" lon="-2.43429">
        <ele>302.6805</ele>
        <time>2021-07-18T14:37:30Z</time>
      </trkpt>
      <trkpt lat="37.02111" lon="-2.43474">
        <ele>300.4744</ele>
        <time>2021-07-18T14:37:41Z</time>
      </trkpt>
      <trkpt lat="37.02118" lon="-2.43475">
        <ele>299.9697</ele>
        <time>2021-07-18T14:37:52Z</time>
      </trkpt>
      <trkpt lat="37.02057" lon="-2.43647">
        <ele>294.7755</ele>
        <time>2021-07-18T14:38:03Z</time>
      </trkpt>
      <trkpt lat="37.02007" lon="-2.43946">
        <ele>281.931</ele>
        <time>2021-07-18T14:38:14Z</time>
      </trkpt>
      <trkpt lat="37.019" lon="-2.44163">
        <ele>269.4309</ele>
        <time>2021-07-18T14:38:25Z</time>
      </trkpt>
      <trkpt lat="37.01869" lon="-2.44362">
        <ele>258.5357</ele>
        <time>2021-07-18T14:38:36Z</time>
      </trkpt>
      <trkpt lat="37.01876" lon="-2.44499">
        <ele>269.8762</ele>
        <time>2021-07-18T14:38:47Z</time>
      </trkpt>
      <trkpt lat="37.01862" lon="-2.44614">
        <ele>275.1613</ele>
        <time>2021-07-18T14:38:58Z</time>
      </trkpt>
      <trkpt lat="37.01702" lon="-2.44607">
        <ele>275.5775</ele>
        <time>2021-07-18T14:39:09Z</time>
      </trkpt>
      <trkpt lat="37.01577" lon="-2.44621">
        <ele>273.6048</ele>
        <time>2021-07-18T14:39:20Z</time>
      </trkpt>
      <trkpt lat="37.01535" lon="-2.44627">
        <ele>270.3651</ele>
        <time>2021-07-18T14:39:31Z</time>
      </trkpt>
      <trkpt lat="37.01431" lon="-2.44645">
        <ele>268.8558</ele>
        <time>2021-07-18T14:39:42Z</time>
      </trkpt>
      <trkpt lat="37.01317" lon="-2.44743">
        <ele>244.8171</ele>
        <time>2021-07-18T14:39:53Z</time>
      </trkpt>
      <trkpt lat="37.01217" lon="-2.44892">
        <ele>198.6962</ele>
        <time>2021-07-18T14:40:04Z</time>
      </trkpt>
      <trkpt lat="37.01108" lon="-2.45058">
        <ele>133.8975</ele>
        <time>2021-07-18T14:40:15Z</time>
      </trkpt>
      <trkpt lat="37.00973" lon="-2.45318">
        <ele>239.759</ele>
        <time>2021-07-18T14:40:26Z</time>
      </trkpt>
      <trkpt lat="37.00889" lon="-2.45483">
        <ele>229.1986</ele>
        <time>2021-07-18T14:40:37Z</time>
      </trkpt>
      <trkpt lat="37.00804" lon="-2.45513">
        <ele>221.2682</ele>
        <time>2021-07-18T14:40:48Z</time>
      </trkpt>
      <trkpt lat="37.00789" lon="-2.45516">
        <ele>221.5293</ele>
        <time>2021-07-18T14:40:59Z</time>
      </trkpt>
      <trkpt lat="37.00813" lon="-2.45518">
        <ele>220.7894</ele>
        <time>2021-07-18T14:41:10Z</time>
      </trkpt>
      <trkpt lat="37.00829" lon="-2.45552">
        <ele>220.2151</ele>
        <time>2021-07-18T14:41:21Z</time>
      </trkpt>
      <trkpt lat="37.00869" lon="-2.4561">
        <ele>218.9652</ele>
        <time>2021-07-18T14:41:32Z</time>
      </trkpt>
      <trkpt lat="37.00889" lon="-2.45666">
        <ele>220.0006</ele>
        <time>2021-07-18T14:41:43Z</time>
      </trkpt>
      <trkpt lat="37.00843" lon="-2.45709">
        <ele>220.6442</ele>
        <time>2021-07-18T14:41:54Z</time>
      </trkpt>
      <trkpt lat="37.00764" lon="-2.45728">
        <ele>217.7883</ele>
        <time>2021-07-18T14:42:05Z</time>
      </trkpt>
      <trkpt lat="37.00719" lon="-2.4579">
        <ele>213.8599</ele>
        <time>2021-07-18T14:42:16Z</time>
      </trkpt>
      <trkpt lat="37.0065" lon="-2.45827">
        <ele>214.3146</ele>
        <time>2021-07-18T14:42:27Z</time>
      </trkpt>
      <trkpt lat="37.00587" lon="-2.4588">
        <ele>213.4253</ele>
        <time>2021-07-18T14:42:38Z</time>
      </trkpt>
      <trkpt lat="37.00511" lon="-2.45971">
        <ele>212.9505</ele>
        <time>2021-07-18T14:42:49Z</time>
      </trkpt>
      <trkpt lat="37.00446" lon="-2.4605">
        <ele>209.085</ele>
        <time>2021-07-18T14:43:00Z</time>
      </trkpt>
      <trkpt lat="37.00375" lon="-2.46153">
        <ele>208.672</ele>
        <time>2021-07-18T14:43:11Z</time>
      </trkpt>
      <trkpt lat="37.0031" lon="-2.46238">
        <ele>214.5041</ele>
        <time>2021-07-18T14:43:22Z</time>
      </trkpt>
      <trkpt lat="37.00247" lon="-2.46311">
        <ele>208.1556</ele>
        <time>2021-07-18T14:43:33Z</time>
      </trkpt>
      <trkpt lat="37.00175" lon="-2.46349">
        <ele>205.2465</ele>
        <time>2021-07-18T14:43:44Z</time>
      </trkpt>
      <trkpt lat="37.00065" lon="-2.46388">
        <ele>204.3623</ele>
        <time>2021-07-18T14:43:55Z</time>
      </trkpt>
      <trkpt lat="36.99972" lon="-2.46431">
        <ele>203.2639</ele>
        <time>2021-07-18T14:44:06Z</time>
      </trkpt>
      <trkpt lat="36.99902" lon="-2.46508">
        <ele>201.1966</ele>
        <time>2021-07-18T14:44:17Z</time>
      </trkpt>
      <trkpt lat="36.99854" lon="-2.4661">
        <ele>201.1792</ele>
        <time>2021-07-18T14:44:28Z</time>
      </trkpt>
      <trkpt lat="36.99789" lon="-2.46657">
        <ele>199.2049</ele>
        <time>2021-07-18T14:44:39Z</time>
      </trkpt>
      <trkpt lat="36.99731" lon="-2.46641">
        <ele>197.9607</ele>
        <time>2021-07-18T14:44:50Z</time>
      </trkpt>
      <trkpt lat="36.99672" lon="-2.46577">
        <ele>199.709</ele>
        <time>2021-07-18T14:45:01Z</time>
      </trkpt>
      <trkpt lat="36.99598" lon="-2.46552">
        <ele>200.0583</ele>
        <time>2021-07-18T14:45:12Z</time>
      </trkpt>
      <trkpt lat="36.99521" lon="-2.4656">
        <ele>195.2451</ele>
        <time>2021-07-18T14:45:23Z</time>
      </trkpt>
      <trkpt lat="36.99479" lon="-2.46618">
        <ele>193.6998</ele>
        <time>2021-07-18T14:45:34Z</time>
      </trkpt>
      <trkpt lat="36.99461" lon="-2.4666">
        <ele>192.5461</ele>
        <time>2021-07-18T14:45:45Z</time>
      </trkpt>
      <trkpt lat="36.99458" lon="-2.46668">
        <ele>190.9583</ele>
        <time>2021-07-18T14:46:05Z</time>
      </trkpt>
      <trkpt lat="36.99396" lon="-2.46734">
        <ele>191.0771</ele>
        <time>2021-07-18T14:46:16Z</time>
      </trkpt>
      <trkpt lat="36.9933" lon="-2.46751">
        <ele>191.5205</ele>
        <time>2021-07-18T14:46:27Z</time>
      </trkpt>
      <trkpt lat="36.99323" lon="-2.46751">
        <ele>192.3812</ele>
        <time>2021-07-18T14:46:39Z</time>
      </trkpt>
      <trkpt lat="36.9926" lon="-2.46709">
        <ele>191.2009</ele>
        <time>2021-07-18T14:46:50Z</time>
      </trkpt>
      <trkpt lat="36.99217" lon="-2.4664">
        <ele>190.3031</ele>
        <time>2021-07-18T14:47:01Z</time>
      </trkpt>
      <trkpt lat="36.9918" lon="-2.46541">
        <ele>191.3429</ele>
        <time>2021-07-18T14:47:12Z</time>
      </trkpt>
      <trkpt lat="36.99147" lon="-2.46516">
        <ele>191.0119</ele>
        <time>2021-07-18T14:47:23Z</time>
      </trkpt>
      <trkpt lat="36.99098" lon="-2.46479">
        <ele>190.219</ele>
        <time>2021-07-18T14:47:34Z</time>
      </trkpt>
      <trkpt lat="36.99051" lon="-2.46469">
        <ele>188.6278</ele>
        <time>2021-07-18T14:47:45Z</time>
      </trkpt>
      <trkpt lat="36.99047" lon="-2.4647">
        <ele>188.2164</ele>
        <time>2021-07-18T14:47:57Z</time>
      </trkpt>
      <trkpt lat="36.99034" lon="-2.46475">
        <ele>185.0502</ele>
        <time>2021-07-18T14:48:08Z</time>
      </trkpt>
      <trkpt lat="36.98938" lon="-2.46525">
        <ele>183.5145</ele>
        <time>2021-07-18T14:48:19Z</time>
      </trkpt>
      <trkpt lat="36.98847" lon="-2.46573">
        <ele>181.1441</ele>
        <time>2021-07-18T14:48:30Z</time>
      </trkpt>
      <trkpt lat="36.98787" lon="-2.46684">
        <ele>182.1175</ele>
        <time>2021-07-18T14:48:41Z</time>
      </trkpt>
      <trkpt lat="36.98708" lon="-2.4674">
        <ele>179.7263</ele>
        <time>2021-07-18T14:48:52Z</time>
      </trkpt>
      <trkpt lat="36.98616" lon="-2.46764">
        <ele>179.3355</ele>
        <time>2021-07-18T14:49:03Z</time>
      </trkpt>
      <trkpt lat="36.98527" lon="-2.46761">
        <ele>178.0275</ele>
        <time>2021-07-18T14:49:14Z</time>
      </trkpt>
      <trkpt lat="36.98346" lon="-2.46769">
        <ele>178.4667</ele>
        <time>2021-07-18T14:49:25Z</time>
      </trkpt>
      <trkpt lat="36.98257" lon="-2.46764">
        <ele>176.2444</ele>
        <time>2021-07-18T14:49:36Z</time>
      </trkpt>
      <trkpt lat="36.98173" lon="-2.46741">
        <ele>174.2175</ele>
        <time>2021-07-18T14:49:47Z</time>
      </trkpt>
      <trkpt lat="36.98066" lon="-2.46658">
        <ele>172.3771</ele>
        <time>2021-07-18T14:49:58Z</time>
      </trkpt>
      <trkpt lat="36.97975" lon="-2.46563">
        <ele>164.2164</ele>
        <time>2021-07-18T14:50:09Z</time>
      </trkpt>
      <trkpt lat="36.97862" lon="-2.4658">
        <ele>165.6031</ele>
        <time>2021-07-18T14:50:20Z</time>
      </trkpt>
      <trkpt lat="36.97767" lon="-2.46633">
        <ele>170.1634</ele>
        <time>2021-07-18T14:50:31Z</time>
      </trkpt>
      <trkpt lat="36.97616" lon="-2.46659">
        <ele>164.7481</ele>
        <time>2021-07-18T14:50:42Z</time>
      </trkpt>
      <trkpt lat="36.97493" lon="-2.46642">
        <ele>165.9457</ele>
        <time>2021-07-18T14:50:53Z</time>
      </trkpt>
      <trkpt lat="36.97352" lon="-2.46635">
        <ele>158.2057</ele>
        <time>2021-07-18T14:51:04Z</time>
      </trkpt>
      <trkpt lat="36.97196" lon="-2.46639">
        <ele>163.5657</ele>
        <time>2021-07-18T14:51:15Z</time>
      </trkpt>
      <trkpt lat="36.97056" lon="-2.46629">
        <ele>180.6648</ele>
        <time>2021-07-18T14:51:26Z</time>
      </trkpt>
      <trkpt lat="36.96886" lon="-2.46638">
        <ele>171.0938</ele>
        <time>2021-07-18T14:51:37Z</time>
      </trkpt>
      <trkpt lat="36.96737" lon="-2.46655">
        <ele>173.0907</ele>
        <time>2021-07-18T14:51:48Z</time>
      </trkpt>
      <trkpt lat="36.96605" lon="-2.46695">
        <ele>175.6382</ele>
        <time>2021-07-18T14:51:59Z</time>
      </trkpt>
      <trkpt lat="36.96475" lon="-2.46716">
        <ele>175.2609</ele>
        <time>2021-07-18T14:52:10Z</time>
      </trkpt>
      <trkpt lat="36.96441" lon="-2.46712">
        <ele>169.7814</ele>
        <time>2021-07-18T14:52:21Z</time>
      </trkpt>
      <trkpt lat="36.96434" lon="-2.4671">
        <ele>168.9099</ele>
        <time>2021-07-18T14:52:43Z</time>
      </trkpt>
      <trkpt lat="36.9637" lon="-2.46752">
        <ele>162.3749</ele>
        <time>2021-07-18T14:52:54Z</time>
      </trkpt>
      <trkpt lat="36.96246" lon="-2.46788">
        <ele>147.1463</ele>
        <time>2021-07-18T14:53:05Z</time>
      </trkpt>
      <trkpt lat="36.96146" lon="-2.46843">
        <ele>145.5371</ele>
        <time>2021-07-18T14:53:16Z</time>
      </trkpt>
      <trkpt lat="36.96011" lon="-2.4689">
        <ele>148.7408</ele>
        <time>2021-07-18T14:53:27Z</time>
      </trkpt>
      <trkpt lat="36.95876" lon="-2.46932">
        <ele>140.7443</ele>
        <time>2021-07-18T14:53:38Z</time>
      </trkpt>
      <trkpt lat="36.9577" lon="-2.46999">
        <ele>140.0344</ele>
        <time>2021-07-18T14:53:49Z</time>
      </trkpt>
      <trkpt lat="36.95657" lon="-2.47084">
        <ele>139.0623</ele>
        <time>2021-07-18T14:54:00Z</time>
      </trkpt>
      <trkpt lat="36.95536" lon="-2.4716">
        <ele>143.985</ele>
        <time>2021-07-18T14:54:11Z</time>
      </trkpt>
      <trkpt lat="36.954" lon="-2.47229">
        <ele>147.7023</ele>
        <time>2021-07-18T14:54:22Z</time>
      </trkpt>
      <trkpt lat="36.95249" lon="-2.47327">
        <ele>148.6233</ele>
        <time>2021-07-18T14:54:33Z</time>
      </trkpt>
      <trkpt lat="36.95205" lon="-2.47371">
        <ele>148.3366</ele>
        <time>2021-07-18T14:54:44Z</time>
      </trkpt>
      <trkpt lat="36.95074" lon="-2.47403">
        <ele>144.9439</ele>
        <time>2021-07-18T14:54:55Z</time>
      </trkpt>
      <trkpt lat="36.94984" lon="-2.4742">
        <ele>138.9819</ele>
        <time>2021-07-18T14:55:06Z</time>
      </trkpt>
      <trkpt lat="36.94843" lon="-2.47346">
        <ele>137.0213</ele>
        <time>2021-07-18T14:55:17Z</time>
      </trkpt>
      <trkpt lat="36.94714" lon="-2.47215">
        <ele>134.906</ele>
        <time>2021-07-18T14:55:28Z</time>
      </trkpt>
      <trkpt lat="36.94623" lon="-2.47108">
        <ele>133.6236</ele>
        <time>2021-07-18T14:55:39Z</time>
      </trkpt>
      <trkpt lat="36.94543" lon="-2.47042">
        <ele>133.2687</ele>
        <time>2021-07-18T14:55:50Z</time>
      </trkpt>
      <trkpt lat="36.94533" lon="-2.47034">
        <ele>135.3767</ele>
        <time>2021-07-18T14:56:27Z</time>
      </trkpt>
      <trkpt lat="36.94395" lon="-2.4689">
        <ele>132.9983</ele>
        <time>2021-07-18T14:56:38Z</time>
      </trkpt>
      <trkpt lat="36.94301" lon="-2.46818">
        <ele>132.0415</ele>
        <time>2021-07-18T14:56:49Z</time>
      </trkpt>
      <trkpt lat="36.94208" lon="-2.46674">
        <ele>129.5481</ele>
        <time>2021-07-18T14:57:00Z</time>
      </trkpt>
      <trkpt lat="36.94075" lon="-2.46492">
        <ele>128.949</ele>
        <time>2021-07-18T14:57:11Z</time>
      </trkpt>
      <trkpt lat="36.93969" lon="-2.46355">
        <ele>125.7936</ele>
        <time>2021-07-18T14:57:22Z</time>
      </trkpt>
      <trkpt lat="36.93927" lon="-2.46262">
        <ele>124.7211</ele>
        <time>2021-07-18T14:57:33Z</time>
      </trkpt>
      <trkpt lat="36.93894" lon="-2.46176">
        <ele>124.0246</ele>
        <time>2021-07-18T14:57:44Z</time>
      </trkpt>
      <trkpt lat="36.93854" lon="-2.46135">
        <ele>124.7038</ele>
        <time>2021-07-18T14:57:55Z</time>
      </trkpt>
      <trkpt lat="36.93816" lon="-2.46079">
        <ele>123.0559</ele>
        <time>2021-07-18T14:58:06Z</time>
      </trkpt>
      <trkpt lat="36.93787" lon="-2.4605">
        <ele>124.3314</ele>
        <time>2021-07-18T14:58:17Z</time>
      </trkpt>
      <trkpt lat="36.93774" lon="-2.46042">
        <ele>127.1404</ele>
        <time>2021-07-18T14:58:28Z</time>
      </trkpt>
      <trkpt lat="36.93739" lon="-2.46023">
        <ele>125.5153</ele>
        <time>2021-07-18T14:58:39Z</time>
      </trkpt>
      <trkpt lat="36.93723" lon="-2.45968">
        <ele>122.7507</ele>
        <time>2021-07-18T14:58:50Z</time>
      </trkpt>
      <trkpt lat="36.93719" lon="-2.45939">
        <ele>124.212</ele>
        <time>2021-07-18T14:59:01Z</time>
      </trkpt>
      <trkpt lat="36.93724" lon="-2.4594">
        <ele>121.9375</ele>
        <time>2021-07-18T14:59:17Z</time>
      </trkpt>
      <trkpt lat="36.93731" lon="-2.45925">
        <ele>122.0986</ele>
        <time>2021-07-18T14:59:28Z</time>
      </trkpt>
      <trkpt lat="36.93726" lon="-2.45924">
        <ele>123.9659</ele>
        <time>2021-07-18T14:59:45Z</time>
      </trkpt>
      <trkpt lat="36.9372" lon="-2.45919">
        <ele>125.0489</ele>
        <time>2021-07-18T15:00:00Z</time>
      </trkpt>
      <trkpt lat="36.93665" lon="-2.45818">
        <ele>121.04</ele>
        <time>2021-07-18T15:00:11Z</time>
      </trkpt>
      <trkpt lat="36.93611" lon="-2.45717">
        <ele>118.6062</ele>
        <time>2021-07-18T15:00:22Z</time>
      </trkpt>
      <trkpt lat="36.93548" lon="-2.45591">
        <ele>118.9782</ele>
        <time>2021-07-18T15:00:33Z</time>
      </trkpt>
      <trkpt lat="36.93477" lon="-2.45436">
        <ele>117.4528</ele>
        <time>2021-07-18T15:00:44Z</time>
      </trkpt>
      <trkpt lat="36.93415" lon="-2.45284">
        <ele>114.5509</ele>
        <time>2021-07-18T15:00:55Z</time>
      </trkpt>
      <trkpt lat="36.93347" lon="-2.45204">
        <ele>114.1713</ele>
        <time>2021-07-18T15:01:06Z</time>
      </trkpt>
      <trkpt lat="36.93284" lon="-2.45141">
        <ele>114.2329</ele>
        <time>2021-07-18T15:01:17Z</time>
      </trkpt>
      <trkpt lat="36.93226" lon="-2.45081">
        <ele>113.4148</ele>
        <time>2021-07-18T15:01:28Z</time>
      </trkpt>
      <trkpt lat="36.93154" lon="-2.45026">
        <ele>111.6686</ele>
        <time>2021-07-18T15:01:39Z</time>
      </trkpt>
      <trkpt lat="36.93088" lon="-2.44998">
        <ele>112.7507</ele>
        <time>2021-07-18T15:01:50Z</time>
      </trkpt>
      <trkpt lat="36.93019" lon="-2.44973">
        <ele>110.7507</ele>
        <time>2021-07-18T15:02:01Z</time>
      </trkpt>
      <trkpt lat="36.92908" lon="-2.4494">
        <ele>109.4905</ele>
        <time>2021-07-18T15:02:12Z</time>
      </trkpt>
      <trkpt lat="36.92793" lon="-2.44909">
        <ele>105.6034</ele>
        <time>2021-07-18T15:02:23Z</time>
      </trkpt>
      <trkpt lat="36.92661" lon="-2.44883">
        <ele>104.7366</ele>
        <time>2021-07-18T15:02:34Z</time>
      </trkpt>
      <trkpt lat="36.9255" lon="-2.44883">
        <ele>105.5599</ele>
        <time>2021-07-18T15:02:45Z</time>
      </trkpt>
      <trkpt lat="36.92465" lon="-2.4486">
        <ele>105.8499</ele>
        <time>2021-07-18T15:02:56Z</time>
      </trkpt>
      <trkpt lat="36.92352" lon="-2.4482">
        <ele>103.2964</ele>
        <time>2021-07-18T15:03:07Z</time>
      </trkpt>
      <trkpt lat="36.92228" lon="-2.4476">
        <ele>101.953</ele>
        <time>2021-07-18T15:03:18Z</time>
      </trkpt>
      <trkpt lat="36.92088" lon="-2.44711">
        <ele>100.4365</ele>
        <time>2021-07-18T15:03:29Z</time>
      </trkpt>
      <trkpt lat="36.91985" lon="-2.44678">
        <ele>99.07946</ele>
        <time>2021-07-18T15:03:40Z</time>
      </trkpt>
      <trkpt lat="36.919" lon="-2.44662">
        <ele>98.62517</ele>
        <time>2021-07-18T15:03:51Z</time>
      </trkpt>
      <trkpt lat="36.91791" lon="-2.44642">
        <ele>96.3555</ele>
        <time>2021-07-18T15:04:02Z</time>
      </trkpt>
      <trkpt lat="36.91694" lon="-2.44653">
        <ele>95.13171</ele>
        <time>2021-07-18T15:04:13Z</time>
      </trkpt>
      <trkpt lat="36.91601" lon="-2.44653">
        <ele>96.48808</ele>
        <time>2021-07-18T15:04:24Z</time>
      </trkpt>
      <trkpt lat="36.91596" lon="-2.4465">
        <ele>95.50369</ele>
        <time>2021-07-18T15:04:36Z</time>
      </trkpt>
      <trkpt lat="36.91476" lon="-2.4466">
        <ele>95.01606</ele>
        <time>2021-07-18T15:04:47Z</time>
      </trkpt>
      <trkpt lat="36.91332" lon="-2.44655">
        <ele>92.76699</ele>
        <time>2021-07-18T15:04:58Z</time>
      </trkpt>
      <trkpt lat="36.91214" lon="-2.44688">
        <ele>89.59701</ele>
        <time>2021-07-18T15:05:09Z</time>
      </trkpt>
      <trkpt lat="36.91065" lon="-2.44652">
        <ele>90.01548</ele>
        <time>2021-07-18T15:05:20Z</time>
      </trkpt>
      <trkpt lat="36.90946" lon="-2.4461">
        <ele>89.21092</ele>
        <time>2021-07-18T15:05:32Z</time>
      </trkpt>
      <trkpt lat="36.90819" lon="-2.44601">
        <ele>85.10041</ele>
        <time>2021-07-18T15:05:43Z</time>
      </trkpt>
      <trkpt lat="36.90683" lon="-2.44564">
        <ele>85.47325</ele>
        <time>2021-07-18T15:05:54Z</time>
      </trkpt>
      <trkpt lat="36.9056" lon="-2.44493">
        <ele>85.30513</ele>
        <time>2021-07-18T15:06:05Z</time>
      </trkpt>
      <trkpt lat="36.90427" lon="-2.44407">
        <ele>81.69898</ele>
        <time>2021-07-18T15:06:16Z</time>
      </trkpt>
      <trkpt lat="36.903" lon="-2.44352">
        <ele>76.47918</ele>
        <time>2021-07-18T15:06:27Z</time>
      </trkpt>
      <trkpt lat="36.90203" lon="-2.44273">
        <ele>77.50161</ele>
        <time>2021-07-18T15:06:38Z</time>
      </trkpt>
      <trkpt lat="36.90125" lon="-2.44141">
        <ele>80.32144</ele>
        <time>2021-07-18T15:06:49Z</time>
      </trkpt>
      <trkpt lat="36.90054" lon="-2.44008">
        <ele>77.72227</ele>
        <time>2021-07-18T15:07:00Z</time>
      </trkpt>
      <trkpt lat="36.89941" lon="-2.43859">
        <ele>76.32802</ele>
        <time>2021-07-18T15:07:12Z</time>
      </trkpt>
      <trkpt lat="36.89869" lon="-2.43795">
        <ele>76.62926</ele>
        <time>2021-07-18T15:07:23Z</time>
      </trkpt>
      <trkpt lat="36.89752" lon="-2.43753">
        <ele>75.2752</ele>
        <time>2021-07-18T15:07:34Z</time>
      </trkpt>
      <trkpt lat="36.89619" lon="-2.43691">
        <ele>74.08695</ele>
        <time>2021-07-18T15:07:45Z</time>
      </trkpt>
      <trkpt lat="36.89487" lon="-2.43613">
        <ele>73.38962</ele>
        <time>2021-07-18T15:07:56Z</time>
      </trkpt>
      <trkpt lat="36.89373" lon="-2.43544">
        <ele>73.14086</ele>
        <time>2021-07-18T15:08:07Z</time>
      </trkpt>
      <trkpt lat="36.89253" lon="-2.43466">
        <ele>70.88667</ele>
        <time>2021-07-18T15:08:18Z</time>
      </trkpt>
      <trkpt lat="36.89112" lon="-2.43409">
        <ele>68.66176</ele>
        <time>2021-07-18T15:08:29Z</time>
      </trkpt>
      <trkpt lat="36.88978" lon="-2.43336">
        <ele>71.82669</ele>
        <time>2021-07-18T15:08:40Z</time>
      </trkpt>
      <trkpt lat="36.88863" lon="-2.43251">
        <ele>67.3571</ele>
        <time>2021-07-18T15:08:51Z</time>
      </trkpt>
      <trkpt lat="36.88756" lon="-2.43204">
        <ele>66.29612</ele>
        <time>2021-07-18T15:09:02Z</time>
      </trkpt>
      <trkpt lat="36.88636" lon="-2.43148">
        <ele>65.33565</ele>
        <time>2021-07-18T15:09:13Z</time>
      </trkpt>
      <trkpt lat="36.88561" lon="-2.43101">
        <ele>65.75892</ele>
        <time>2021-07-18T15:09:24Z</time>
      </trkpt>
      <trkpt lat="36.8857" lon="-2.43048">
        <ele>69.23305</ele>
        <time>2021-07-18T15:09:35Z</time>
      </trkpt>
      <trkpt lat="36.88569" lon="-2.43043">
        <ele>69.60297</ele>
        <time>2021-07-18T15:10:03Z</time>
      </trkpt>
      <trkpt lat="36.88569" lon="-2.43045">
        <ele>67.28387</ele>
        <time>2021-07-18T15:11:03Z</time>
      </trkpt>
      <trkpt lat="36.88573" lon="-2.43034">
        <ele>67.54608</ele>
        <time>2021-07-18T15:11:17Z</time>
      </trkpt>
      <trkpt lat="36.88614" lon="-2.42937">
        <ele>68.05039</ele>
        <time>2021-07-18T15:11:28Z</time>
      </trkpt>
      <trkpt lat="36.88648" lon="-2.42861">
        <ele>69.48085</ele>
        <time>2021-07-18T15:11:39Z</time>
      </trkpt>
      <trkpt lat="36.88666" lon="-2.42803">
        <ele>69.84368</ele>
        <time>2021-07-18T15:11:50Z</time>
      </trkpt>
      <trkpt lat="36.88651" lon="-2.42778">
        <ele>70.6775</ele>
        <time>2021-07-18T15:12:01Z</time>
      </trkpt>
      <trkpt lat="36.88589" lon="-2.42702">
        <ele>72.54075</ele>
        <time>2021-07-18T15:12:12Z</time>
      </trkpt>
      <trkpt lat="36.88451" lon="-2.42607">
        <ele>67.84936</ele>
        <time>2021-07-18T15:12:23Z</time>
      </trkpt>
      <trkpt lat="36.88314" lon="-2.42503">
        <ele>64.63513</ele>
        <time>2021-07-18T15:12:34Z</time>
      </trkpt>
      <trkpt lat="36.88196" lon="-2.42464">
        <ele>63.98263</ele>
        <time>2021-07-18T15:12:45Z</time>
      </trkpt>
      <trkpt lat="36.88136" lon="-2.42651">
        <ele>65.49278</ele>
        <time>2021-07-18T15:12:56Z</time>
      </trkpt>
      <trkpt lat="36.88081" lon="-2.42846">
        <ele>67.31931</ele>
        <time>2021-07-18T15:13:07Z</time>
      </trkpt>
      <trkpt lat="36.8803" lon="-2.4303">
        <ele>68.68785</ele>
        <time>2021-07-18T15:13:18Z</time>
      </trkpt>
      <trkpt lat="36.87958" lon="-2.43267">
        <ele>69.18617</ele>
        <time>2021-07-18T15:13:29Z</time>
      </trkpt>
      <trkpt lat="36.87867" lon="-2.43495">
        <ele>75.17915</ele>
        <time>2021-07-18T15:13:40Z</time>
      </trkpt>
      <trkpt lat="36.87746" lon="-2.4368">
        <ele>72.00939</ele>
        <time>2021-07-18T15:13:51Z</time>
      </trkpt>
      <trkpt lat="36.87588" lon="-2.43836">
        <ele>67.93354</ele>
        <time>2021-07-18T15:14:02Z</time>
      </trkpt>
      <trkpt lat="36.87414" lon="-2.43957">
        <ele>72.72039</ele>
        <time>2021-07-18T15:14:13Z</time>
      </trkpt>
      <trkpt lat="36.87312" lon="-2.44068">
        <ele>74.10747</ele>
        <time>2021-07-18T15:14:24Z</time>
      </trkpt>
      <trkpt lat="36.87257" lon="-2.4423">
        <ele>76.98488</ele>
        <time>2021-07-18T15:14:35Z</time>
      </trkpt>
      <trkpt lat="36.87225" lon="-2.44387">
        <ele>83.90338</ele>
        <time>2021-07-18T15:14:46Z</time>
      </trkpt>
      <trkpt lat="36.87168" lon="-2.44475">
        <ele>85.59793</ele>
        <time>2021-07-18T15:14:57Z</time>
      </trkpt>
      <trkpt lat="36.87002" lon="-2.44539">
        <ele>87.48352</ele>
        <time>2021-07-18T15:15:08Z</time>
      </trkpt>
      <trkpt lat="36.86832" lon="-2.44593">
        <ele>96.29068</ele>
        <time>2021-07-18T15:15:19Z</time>
      </trkpt>
      <trkpt lat="36.86672" lon="-2.4469">
        <ele>105.1705</ele>
        <time>2021-07-18T15:15:30Z</time>
      </trkpt>
      <trkpt lat="36.86539" lon="-2.44829">
        <ele>113.0586</ele>
        <time>2021-07-18T15:15:41Z</time>
      </trkpt>
      <trkpt lat="36.86487" lon="-2.44892">
        <ele>111.849</ele>
        <time>2021-07-18T15:15:52Z</time>
      </trkpt>
      <trkpt lat="36.86354" lon="-2.44879">
        <ele>112.1162</ele>
        <time>2021-07-18T15:16:03Z</time>
      </trkpt>
      <trkpt lat="36.86212" lon="-2.44885">
        <ele>106.2625</ele>
        <time>2021-07-18T15:16:14Z</time>
      </trkpt>
      <trkpt lat="36.86118" lon="-2.44864">
        <ele>102.0052</ele>
        <time>2021-07-18T15:16:25Z</time>
      </trkpt>
      <trkpt lat="36.86012" lon="-2.44755">
        <ele>96.09038</ele>
        <time>2021-07-18T15:16:36Z</time>
      </trkpt>
      <trkpt lat="36.85934" lon="-2.44694">
        <ele>94.73092</ele>
        <time>2021-07-18T15:16:47Z</time>
      </trkpt>
      <trkpt lat="36.8583" lon="-2.4474">
        <ele>88.26689</ele>
        <time>2021-07-18T15:16:58Z</time>
      </trkpt>
      <trkpt lat="36.85701" lon="-2.44872">
        <ele>83.49024</ele>
        <time>2021-07-18T15:17:09Z</time>
      </trkpt>
      <trkpt lat="36.85605" lon="-2.44954">
        <ele>92.06028</ele>
        <time>2021-07-18T15:17:20Z</time>
      </trkpt>
      <trkpt lat="36.85599" lon="-2.44909">
        <ele>89.73569</ele>
        <time>2021-07-18T15:17:31Z</time>
      </trkpt>
      <trkpt lat="36.85732" lon="-2.44818">
        <ele>96.77292</ele>
        <time>2021-07-18T15:17:42Z</time>
      </trkpt>
      <trkpt lat="36.85776" lon="-2.44744">
        <ele>91.81122</ele>
        <time>2021-07-18T15:17:53Z</time>
      </trkpt>
      <trkpt lat="36.85776" lon="-2.44736">
        <ele>88.7606</ele>
        <time>2021-07-18T15:18:04Z</time>
      </trkpt>
      <trkpt lat="36.85777" lon="-2.44741">
        <ele>91.95922</ele>
        <time>2021-07-18T15:18:16Z</time>
      </trkpt>
      <trkpt lat="36.8577" lon="-2.44753">
        <ele>94.80339</ele>
        <time>2021-07-18T15:18:27Z</time>
      </trkpt>
      <trkpt lat="36.85767" lon="-2.44772">
        <ele>99.92401</ele>
        <time>2021-07-18T15:18:38Z</time>
      </trkpt>
      <trkpt lat="36.85766" lon="-2.44776">
        <ele>99.26569</ele>
        <time>2021-07-18T15:19:01Z</time>
      </trkpt>
      <trkpt lat="36.85766" lon="-2.44774">
        <ele>99.26539</ele>
        <time>2021-07-18T15:20:01Z</time>
      </trkpt>
      <trkpt lat="36.85768" lon="-2.44765">
        <ele>100.3105</ele>
        <time>2021-07-18T15:20:48Z</time>
      </trkpt>
      <trkpt lat="36.8577" lon="-2.44759">
        <ele>99.63995</ele>
        <time>2021-07-18T15:20:59Z</time>
      </trkpt>
      <trkpt lat="36.8578" lon="-2.44759">
        <ele>102.5159</ele>
        <time>2021-07-18T15:21:10Z</time>
      </trkpt>
      <trkpt lat="36.85779" lon="-2.44746">
        <ele>103.4335</ele>
        <time>2021-07-18T15:21:21Z</time>
      </trkpt>
      <trkpt lat="36.85778" lon="-2.44724">
        <ele>82.30311</ele>
        <time>2021-07-18T15:21:32Z</time>
      </trkpt>
      <trkpt lat="36.85775" lon="-2.44713">
        <ele>81.12214</ele>
        <time>2021-07-18T15:21:43Z</time>
      </trkpt>
      <trkpt lat="36.85779" lon="-2.44714">
        <ele>81.16207</ele>
        <time>2021-07-18T15:21:55Z</time>
      </trkpt>
      <trkpt lat="36.85784" lon="-2.44715">
        <ele>79.8536</ele>
        <time>2021-07-18T15:22:06Z</time>
      </trkpt>
      <trkpt lat="36.85787" lon="-2.4472">
        <ele>81.44144</ele>
        <time>2021-07-18T15:22:20Z</time>
      </trkpt>
      <trkpt lat="36.85789" lon="-2.44726">
        <ele>80.25099</ele>
        <time>2021-07-18T15:22:31Z</time>
      </trkpt>
      <trkpt lat="36.8579" lon="-2.44721">
        <ele>79.68217</ele>
        <time>2021-07-18T15:22:42Z</time>
      </trkpt>
      <trkpt lat="36.85782" lon="-2.44714">
        <ele>80.81909</ele>
        <time>2021-07-18T15:22:53Z</time>
      </trkpt>
      <trkpt lat="36.8578" lon="-2.44719">
        <ele>80.97812</ele>
        <time>2021-07-18T15:23:04Z</time>
      </trkpt>
      <trkpt lat="36.85783" lon="-2.44711">
        <ele>81.73703</ele>
        <time>2021-07-18T15:23:15Z</time>
      </trkpt>
      <trkpt lat="36.85783" lon="-2.44705">
        <ele>82.56186</ele>
        <time>2021-07-18T15:23:26Z</time>
      </trkpt>
      <trkpt lat="36.85781" lon="-2.4471">
        <ele>82.63482</ele>
        <time>2021-07-18T15:23:37Z</time>
      </trkpt>
      <trkpt lat="36.85779" lon="-2.44714">
        <ele>81.56691</ele>
        <time>2021-07-18T15:23:48Z</time>
      </trkpt>
      <trkpt lat="36.85784" lon="-2.44711">
        <ele>81.95207</ele>
        <time>2021-07-18T15:23:59Z</time>
      </trkpt>
      <trkpt lat="36.85782" lon="-2.44721">
        <ele>83.04482</ele>
        <time>2021-07-18T15:24:19Z</time>
      </trkpt>
      <trkpt lat="36.85781" lon="-2.44732">
        <ele>79.49518</ele>
        <time>2021-07-18T15:24:30Z</time>
      </trkpt>
      <trkpt lat="36.85783" lon="-2.44744">
        <ele>77.93331</ele>
        <time>2021-07-18T15:24:41Z</time>
      </trkpt>
      <trkpt lat="36.85787" lon="-2.44736">
        <ele>78.53243</ele>
        <time>2021-07-18T15:24:52Z</time>
      </trkpt>
      <trkpt lat="36.85784" lon="-2.44734">
        <ele>78.71854</ele>
        <time>2021-07-18T15:25:03Z</time>
      </trkpt>
      <trkpt lat="36.85781" lon="-2.44727">
        <ele>78.9217</ele>
        <time>2021-07-18T15:25:14Z</time>
      </trkpt>
      <trkpt lat="36.85784" lon="-2.44729">
        <ele>79.11043</ele>
        <time>2021-07-18T15:25:25Z</time>
      </trkpt>
      <trkpt lat="36.8579" lon="-2.44736">
        <ele>78.58013</ele>
        <time>2021-07-18T15:25:36Z</time>
      </trkpt>
      <trkpt lat="36.8579" lon="-2.44731">
        <ele>78.22802</ele>
        <time>2021-07-18T15:25:50Z</time>
      </trkpt>
      <trkpt lat="36.85784" lon="-2.44726">
        <ele>80.24946</ele>
        <time>2021-07-18T15:26:01Z</time>
      </trkpt>
      <trkpt lat="36.85781" lon="-2.44729">
        <ele>80.06194</ele>
        <time>2021-07-18T15:26:16Z</time>
      </trkpt>
      <trkpt lat="36.85777" lon="-2.4473">
        <ele>78.81369</ele>
        <time>2021-07-18T15:26:58Z</time>
      </trkpt>
      <trkpt lat="36.85778" lon="-2.44724">
        <ele>79.4413</ele>
        <time>2021-07-18T15:27:42Z</time>
      </trkpt>
      <trkpt lat="36.85815" lon="-2.44717">
        <ele>81.16517</ele>
        <time>2021-07-18T15:27:54Z</time>
      </trkpt>
      <trkpt lat="36.85892" lon="-2.4467">
        <ele>87.58883</ele>
        <time>2021-07-18T15:28:05Z</time>
      </trkpt>
      <trkpt lat="36.85942" lon="-2.44677">
        <ele>87.46817</ele>
        <time>2021-07-18T15:28:16Z</time>
      </trkpt>
      <trkpt lat="36.85844" lon="-2.44735">
        <ele>80.48501</ele>
        <time>2021-07-18T15:28:27Z</time>
      </trkpt>
      <trkpt lat="36.85721" lon="-2.44858">
        <ele>74.36243</ele>
        <time>2021-07-18T15:28:38Z</time>
      </trkpt>
      <trkpt lat="36.8562" lon="-2.44935">
        <ele>70.57582</ele>
        <time>2021-07-18T15:28:49Z</time>
      </trkpt>
      <trkpt lat="36.85567" lon="-2.44946">
        <ele>66.83996</ele>
        <time>2021-07-18T15:29:00Z</time>
      </trkpt>
      <trkpt lat="36.8546" lon="-2.45018">
        <ele>63.06019</ele>
        <time>2021-07-18T15:29:11Z</time>
      </trkpt>
      <trkpt lat="36.85333" lon="-2.45155">
        <ele>57.45333</ele>
        <time>2021-07-18T15:29:22Z</time>
      </trkpt>
      <trkpt lat="36.85216" lon="-2.45257">
        <ele>53.37794</ele>
        <time>2021-07-18T15:29:33Z</time>
      </trkpt>
      <trkpt lat="36.85121" lon="-2.4535">
        <ele>49.86454</ele>
        <time>2021-07-18T15:29:44Z</time>
      </trkpt>
      <trkpt lat="36.8503" lon="-2.45451">
        <ele>48.45303</ele>
        <time>2021-07-18T15:29:55Z</time>
      </trkpt>
      <trkpt lat="36.84953" lon="-2.45535">
        <ele>45.98622</ele>
        <time>2021-07-18T15:30:06Z</time>
      </trkpt>
      <trkpt lat="36.84867" lon="-2.45631">
        <ele>44.24052</ele>
        <time>2021-07-18T15:30:17Z</time>
      </trkpt>
      <trkpt lat="36.84815" lon="-2.45687">
        <ele>40.54297</ele>
        <time>2021-07-18T15:30:28Z</time>
      </trkpt>
      <trkpt lat="36.84812" lon="-2.45693">
        <ele>42.01303</ele>
        <time>2021-07-18T15:30:41Z</time>
      </trkpt>
      <trkpt lat="36.84765" lon="-2.45743">
        <ele>41.76007</ele>
        <time>2021-07-18T15:30:52Z</time>
      </trkpt>
      <trkpt lat="36.84711" lon="-2.45806">
        <ele>41.19586</ele>
        <time>2021-07-18T15:31:03Z</time>
      </trkpt>
      <trkpt lat="36.84668" lon="-2.4585">
        <ele>38.66087</ele>
        <time>2021-07-18T15:31:14Z</time>
      </trkpt>
      <trkpt lat="36.84645" lon="-2.45877">
        <ele>38.87238</ele>
        <time>2021-07-18T15:31:25Z</time>
      </trkpt>
      <trkpt lat="36.84637" lon="-2.45886">
        <ele>39.19452</ele>
        <time>2021-07-18T15:31:36Z</time>
      </trkpt>
      <trkpt lat="36.84597" lon="-2.45922">
        <ele>36.58926</ele>
        <time>2021-07-18T15:31:47Z</time>
      </trkpt>
      <trkpt lat="36.84553" lon="-2.45974">
        <ele>35.49984</ele>
        <time>2021-07-18T15:31:58Z</time>
      </trkpt>
      <trkpt lat="36.8452" lon="-2.4601">
        <ele>35.68432</ele>
        <time>2021-07-18T15:32:09Z</time>
      </trkpt>
      <trkpt lat="36.84459" lon="-2.46075">
        <ele>33.11501</ele>
        <time>2021-07-18T15:32:20Z</time>
      </trkpt>
      <trkpt lat="36.84396" lon="-2.46131">
        <ele>31.00083</ele>
        <time>2021-07-18T15:32:31Z</time>
      </trkpt>
      <trkpt lat="36.84326" lon="-2.46202">
        <ele>30.33533</ele>
        <time>2021-07-18T15:32:42Z</time>
      </trkpt>
      <trkpt lat="36.84262" lon="-2.46266">
        <ele>28.2202</ele>
        <time>2021-07-18T15:32:53Z</time>
      </trkpt>
      <trkpt lat="36.84218" lon="-2.46319">
        <ele>27.40213</ele>
        <time>2021-07-18T15:33:04Z</time>
      </trkpt>
      <trkpt lat="36.84194" lon="-2.46374">
        <ele>25.36931</ele>
        <time>2021-07-18T15:33:15Z</time>
      </trkpt>
      <trkpt lat="36.84188" lon="-2.46381">
        <ele>27.24693</ele>
        <time>2021-07-18T15:33:26Z</time>
      </trkpt>
      <trkpt lat="36.84186" lon="-2.46385">
        <ele>27.66515</ele>
        <time>2021-07-18T15:33:46Z</time>
      </trkpt>
      <trkpt lat="36.84184" lon="-2.46393">
        <ele>26.92213</ele>
        <time>2021-07-18T15:34:19Z</time>
      </trkpt>
      <trkpt lat="36.84182" lon="-2.46468">
        <ele>25.27124</ele>
        <time>2021-07-18T15:34:30Z</time>
      </trkpt>
      <trkpt lat="36.84213" lon="-2.46525">
        <ele>26.49893</ele>
        <time>2021-07-18T15:34:41Z</time>
      </trkpt>
      <trkpt lat="36.84241" lon="-2.46612">
        <ele>29.2602</ele>
        <time>2021-07-18T15:34:52Z</time>
      </trkpt>
      <trkpt lat="36.84218" lon="-2.46666">
        <ele>34.5014</ele>
        <time>2021-07-18T15:35:03Z</time>
      </trkpt>
      <trkpt lat="36.8411" lon="-2.46715">
        <ele>32.73341</ele>
        <time>2021-07-18T15:35:14Z</time>
      </trkpt>
      <trkpt lat="36.84062" lon="-2.46797">
        <ele>28.24862</ele>
        <time>2021-07-18T15:35:25Z</time>
      </trkpt>
      <trkpt lat="36.8401" lon="-2.46793">
        <ele>24.66394</ele>
        <time>2021-07-18T15:35:36Z</time>
      </trkpt>
      <trkpt lat="36.83966" lon="-2.46752">
        <ele>20.03297</ele>
        <time>2021-07-18T15:35:47Z</time>
      </trkpt>
      <trkpt lat="36.83965" lon="-2.46739">
        <ele>20.17973</ele>
        <time>2021-07-18T15:35:58Z</time>
      </trkpt>
      <trkpt lat="36.83949" lon="-2.46728">
        <ele>19.50172</ele>
        <time>2021-07-18T15:36:09Z</time>
      </trkpt>
      <trkpt lat="36.83878" lon="-2.46732">
        <ele>15.68971</ele>
        <time>2021-07-18T15:36:20Z</time>
      </trkpt>
      <trkpt lat="36.83858" lon="-2.4674">
        <ele>16.57373</ele>
        <time>2021-07-18T15:36:31Z</time>
      </trkpt>
      <trkpt lat="36.83855" lon="-2.46743">
        <ele>15.66451</ele>
        <time>2021-07-18T15:36:42Z</time>
      </trkpt>
      <trkpt lat="36.83857" lon="-2.46754">
        <ele>16.12787</ele>
        <time>2021-07-18T15:37:31Z</time>
      </trkpt>
      <trkpt lat="36.83862" lon="-2.46763">
        <ele>16.01063</ele>
        <time>2021-07-18T15:37:42Z</time>
      </trkpt>
      <trkpt lat="36.83801" lon="-2.46794">
        <ele>13.44331</ele>
        <time>2021-07-18T15:37:53Z</time>
      </trkpt>
      <trkpt lat="36.83765" lon="-2.46795">
        <ele>12.72914</ele>
        <time>2021-07-18T15:38:04Z</time>
      </trkpt>
      <trkpt lat="36.83734" lon="-2.46826">
        <ele>11.6793</ele>
        <time>2021-07-18T15:38:15Z</time>
      </trkpt>
      <trkpt lat="36.83745" lon="-2.46906">
        <ele>11.49295</ele>
        <time>2021-07-18T15:38:26Z</time>
      </trkpt>
      <trkpt lat="36.83766" lon="-2.46986">
        <ele>8.363293</ele>
        <time>2021-07-18T15:38:37Z</time>
      </trkpt>
      <trkpt lat="36.83713" lon="-2.4702">
        <ele>6.114087</ele>
        <time>2021-07-18T15:38:48Z</time>
      </trkpt>
      <trkpt lat="36.83678" lon="-2.46967">
        <ele>7.251987</ele>
        <time>2021-07-18T15:38:59Z</time>
      </trkpt>
      <trkpt lat="36.83641" lon="-2.46839">
        <ele>6.107799</ele>
        <time>2021-07-18T15:39:10Z</time>
      </trkpt>
      <trkpt lat="36.83602" lon="-2.46716">
        <ele>7.783342</ele>
        <time>2021-07-18T15:39:21Z</time>
      </trkpt>
      <trkpt lat="36.83595" lon="-2.46686">
        <ele>8.762929</ele>
        <time>2021-07-18T15:39:32Z</time>
      </trkpt>
      <trkpt lat="36.83647" lon="-2.46646">
        <ele>11.11129</ele>
        <time>2021-07-18T15:39:43Z</time>
      </trkpt>
      <trkpt lat="36.83718" lon="-2.46595">
        <ele>12.2451</ele>
        <time>2021-07-18T15:39:54Z</time>
      </trkpt>
      <trkpt lat="36.83775" lon="-2.4657">
        <ele>14.20166</ele>
        <time>2021-07-18T15:40:05Z</time>
      </trkpt>
      <trkpt lat="36.83824" lon="-2.46554">
        <ele>15.35183</ele>
        <time>2021-07-18T15:40:16Z</time>
      </trkpt>
      <trkpt lat="36.83885" lon="-2.46557">
        <ele>17.24492</ele>
        <time>2021-07-18T15:40:27Z</time>
      </trkpt>
      <trkpt lat="36.83933" lon="-2.46544">
        <ele>22.21608</ele>
        <time>2021-07-18T15:40:38Z</time>
      </trkpt>
      <trkpt lat="36.83984" lon="-2.46532">
        <ele>21.52063</ele>
        <time>2021-07-18T15:40:49Z</time>
      </trkpt>
      <trkpt lat="36.84055" lon="-2.46518">
        <ele>22.34841</ele>
        <time>2021-07-18T15:41:00Z</time>
      </trkpt>
      <trkpt lat="36.84095" lon="-2.46517">
        <ele>23.00695</ele>
        <time>2021-07-18T15:41:11Z</time>
      </trkpt>
      <trkpt lat="36.84146" lon="-2.46587">
        <ele>24.82725</ele>
        <time>2021-07-18T15:41:22Z</time>
      </trkpt>
      <trkpt lat="36.84156" lon="-2.46606">
        <ele>24.94026</ele>
        <time>2021-07-18T15:41:33Z</time>
      </trkpt>
      <trkpt lat="36.84162" lon="-2.46618">
        <ele>26.93744</ele>
        <time>2021-07-18T15:41:44Z</time>
      </trkpt>
      <trkpt lat="36.84164" lon="-2.46623">
        <ele>27.02588</ele>
        <time>2021-07-18T15:41:55Z</time>
      </trkpt>
      <trkpt lat="36.84164" lon="-2.46622">
        <ele>27.4544</ele>
        <time>2021-07-18T15:42:55Z</time>
      </trkpt>
      <trkpt lat="36.84156" lon="-2.46631">
        <ele>27.62052</ele>
        <time>2021-07-18T15:43:06Z</time>
      </trkpt>
      <trkpt lat="36.84159" lon="-2.46628">
        <ele>26.31437</ele>
        <time>2021-07-18T15:43:33Z</time>
      </trkpt>
      <trkpt lat="36.84162" lon="-2.46625">
        <ele>27.21391</ele>
        <time>2021-07-18T15:43:52Z</time>
      </trkpt>
      <trkpt lat="36.84166" lon="-2.46625">
        <ele>27.60131</ele>
        <time>2021-07-18T15:44:05Z</time>
      </trkpt>
      <trkpt lat="36.84163" lon="-2.46627">
        <ele>27.75573</ele>
        <time>2021-07-18T15:44:20Z</time>
      </trkpt>
      <trkpt lat="36.84159" lon="-2.46631">
        <ele>27.59131</ele>
        <time>2021-07-18T15:44:31Z</time>
      </trkpt>
      <trkpt lat="36.84166" lon="-2.46626">
        <ele>27.75234</ele>
        <time>2021-07-18T15:44:42Z</time>
      </trkpt>
      <trkpt lat="36.84163" lon="-2.46622">
        <ele>23.5125</ele>
        <time>2021-07-18T15:45:06Z</time>
      </trkpt>
      <trkpt lat="36.84166" lon="-2.46626">
        <ele>27.36163</ele>
        <time>2021-07-18T15:45:17Z</time>
      </trkpt>
      <trkpt lat="36.84163" lon="-2.46622">
        <ele>27.78331</ele>
        <time>2021-07-18T15:46:08Z</time>
      </trkpt>
      <trkpt lat="36.84162" lon="-2.46619">
        <ele>27.33575</ele>
        <time>2021-07-18T15:47:07Z</time>
      </trkpt>
      <trkpt lat="36.84164" lon="-2.46622">
        <ele>27.36082</ele>
        <time>2021-07-18T15:47:22Z</time>
      </trkpt>
    </trkseg>
  </trk>
  <trk>
    <name><![CDATA[Road trip fait P/E_12]]></name>
    <extensions>
      <line xmlns="http://www.topografix.com/GPX/gpx_style/0/2">
        <color>00FF00</color>
        <width>4</width>
      </line>
    </extensions>
    <trkseg>
      <trkpt lat="36.84167" lon="-2.46627">
        <ele>27.59946</ele>
        <time>2021-07-19T08:50:00Z</time>
      </trkpt>
      <trkpt lat="36.84167" lon="-2.46627">
        <ele>27.59946</ele>
        <time>2021-07-19T08:50:00Z</time>
      </trkpt>
      <trkpt lat="36.84165" lon="-2.46631">
        <ele>28.02345</ele>
        <time>2021-07-19T08:50:23Z</time>
      </trkpt>
      <trkpt lat="36.84164" lon="-2.46631">
        <ele>28.06648</ele>
        <time>2021-07-19T08:51:23Z</time>
      </trkpt>
      <trkpt lat="36.84164" lon="-2.46631">
        <ele>28.06648</ele>
        <time>2021-07-19T08:52:23Z</time>
      </trkpt>
      <trkpt lat="36.8416" lon="-2.4663">
        <ele>28.25891</ele>
        <time>2021-07-19T08:52:44Z</time>
      </trkpt>
      <trkpt lat="36.84161" lon="-2.46625">
        <ele>28.01224</ele>
        <time>2021-07-19T08:53:23Z</time>
      </trkpt>
      <trkpt lat="36.84164" lon="-2.46629">
        <ele>27.76394</ele>
        <time>2021-07-19T08:53:36Z</time>
      </trkpt>
      <trkpt lat="36.84162" lon="-2.46625">
        <ele>28.05966</ele>
        <time>2021-07-19T08:54:27Z</time>
      </trkpt>
      <trkpt lat="36.84159" lon="-2.4663">
        <ele>28.28702</ele>
        <time>2021-07-19T08:54:38Z</time>
      </trkpt>
      <trkpt lat="36.84154" lon="-2.46632">
        <ele>28.16255</ele>
        <time>2021-07-19T08:54:52Z</time>
      </trkpt>
      <trkpt lat="36.84157" lon="-2.46629">
        <ele>28.50854</ele>
        <time>2021-07-19T08:55:11Z</time>
      </trkpt>
      <trkpt lat="36.8416" lon="-2.46632">
        <ele>29.42611</ele>
        <time>2021-07-19T08:55:30Z</time>
      </trkpt>
      <trkpt lat="36.84165" lon="-2.4663">
        <ele>28.60957</ele>
        <time>2021-07-19T08:55:41Z</time>
      </trkpt>
      <trkpt lat="36.84164" lon="-2.46625">
        <ele>28.75764</ele>
        <time>2021-07-19T08:56:30Z</time>
      </trkpt>
      <trkpt lat="36.84161" lon="-2.46627">
        <ele>27.79805</ele>
        <time>2021-07-19T08:56:50Z</time>
      </trkpt>
      <trkpt lat="36.84154" lon="-2.46629">
        <ele>27.45137</ele>
        <time>2021-07-19T08:57:27Z</time>
      </trkpt>
      <trkpt lat="36.84103" lon="-2.46674">
        <ele>28.88496</ele>
        <time>2021-07-19T08:57:38Z</time>
      </trkpt>
      <trkpt lat="36.84071" lon="-2.46665">
        <ele>25.77095</ele>
        <time>2021-07-19T08:57:49Z</time>
      </trkpt>
      <trkpt lat="36.84049" lon="-2.4665">
        <ele>23.06899</ele>
        <time>2021-07-19T08:58:00Z</time>
      </trkpt>
      <trkpt lat="36.84028" lon="-2.46611">
        <ele>21.0816</ele>
        <time>2021-07-19T08:58:11Z</time>
      </trkpt>
      <trkpt lat="36.84011" lon="-2.46591">
        <ele>22.29746</ele>
        <time>2021-07-19T08:58:22Z</time>
      </trkpt>
      <trkpt lat="36.83978" lon="-2.46573">
        <ele>19.00397</ele>
        <time>2021-07-19T08:58:33Z</time>
      </trkpt>
      <trkpt lat="36.83981" lon="-2.46534">
        <ele>19.52763</ele>
        <time>2021-07-19T08:58:44Z</time>
      </trkpt>
      <trkpt lat="36.83977" lon="-2.46507">
        <ele>20.34484</ele>
        <time>2021-07-19T08:58:55Z</time>
      </trkpt>
      <trkpt lat="36.8396" lon="-2.46456">
        <ele>18.40689</ele>
        <time>2021-07-19T08:59:06Z</time>
      </trkpt>
      <trkpt lat="36.83957" lon="-2.46421">
        <ele>19.95216</ele>
        <time>2021-07-19T08:59:17Z</time>
      </trkpt>
      <trkpt lat="36.83955" lon="-2.46418">
        <ele>20.18687</ele>
        <time>2021-07-19T08:59:30Z</time>
      </trkpt>
      <trkpt lat="36.83954" lon="-2.46398">
        <ele>18.32732</ele>
        <time>2021-07-19T08:59:41Z</time>
      </trkpt>
      <trkpt lat="36.83944" lon="-2.46363">
        <ele>19.0552</ele>
        <time>2021-07-19T08:59:52Z</time>
      </trkpt>
      <trkpt lat="36.8393" lon="-2.46352">
        <ele>17.96548</ele>
        <time>2021-07-19T09:00:03Z</time>
      </trkpt>
      <trkpt lat="36.83911" lon="-2.46346">
        <ele>16.5428</ele>
        <time>2021-07-19T09:00:14Z</time>
      </trkpt>
      <trkpt lat="36.839" lon="-2.46346">
        <ele>17.17015</ele>
        <time>2021-07-19T09:00:25Z</time>
      </trkpt>
      <trkpt lat="36.83864" lon="-2.4634">
        <ele>17.24006</ele>
        <time>2021-07-19T09:00:36Z</time>
      </trkpt>
      <trkpt lat="36.83834" lon="-2.46335">
        <ele>17.21669</ele>
        <time>2021-07-19T09:00:47Z</time>
      </trkpt>
      <trkpt lat="36.8379" lon="-2.46328">
        <ele>14.96459</ele>
        <time>2021-07-19T09:00:58Z</time>
      </trkpt>
      <trkpt lat="36.83726" lon="-2.46321">
        <ele>13.32274</ele>
        <time>2021-07-19T09:01:09Z</time>
      </trkpt>
      <trkpt lat="36.83659" lon="-2.46307">
        <ele>10.30671</ele>
        <time>2021-07-19T09:01:20Z</time>
      </trkpt>
      <trkpt lat="36.8359" lon="-2.46298">
        <ele>10.38416</ele>
        <time>2021-07-19T09:01:31Z</time>
      </trkpt>
      <trkpt lat="36.83563" lon="-2.46294">
        <ele>11</ele>
        <time>2021-07-19T09:01:42Z</time>
      </trkpt>
      <trkpt lat="36.83559" lon="-2.46292">
        <ele>11.73761</ele>
        <time>2021-07-19T09:01:53Z</time>
      </trkpt>
      <trkpt lat="36.83551" lon="-2.46289">
        <ele>11.90251</ele>
        <time>2021-07-19T09:02:27Z</time>
      </trkpt>
      <trkpt lat="36.83507" lon="-2.46239">
        <ele>8.004627</ele>
        <time>2021-07-19T09:02:38Z</time>
      </trkpt>
      <trkpt lat="36.83519" lon="-2.46222">
        <ele>8.871191</ele>
        <time>2021-07-19T09:02:53Z</time>
      </trkpt>
      <trkpt lat="36.83618" lon="-2.46153">
        <ele>11.80844</ele>
        <time>2021-07-19T09:03:04Z</time>
      </trkpt>
      <trkpt lat="36.83623" lon="-2.46151">
        <ele>11.43762</ele>
        <time>2021-07-19T09:03:15Z</time>
      </trkpt>
      <trkpt lat="36.83628" lon="-2.46148">
        <ele>11.27098</ele>
        <time>2021-07-19T09:03:26Z</time>
      </trkpt>
      <trkpt lat="36.83711" lon="-2.46091">
        <ele>11.96955</ele>
        <time>2021-07-19T09:03:37Z</time>
      </trkpt>
      <trkpt lat="36.83785" lon="-2.46042">
        <ele>14.39376</ele>
        <time>2021-07-19T09:03:48Z</time>
      </trkpt>
      <trkpt lat="36.83813" lon="-2.4602">
        <ele>15.73608</ele>
        <time>2021-07-19T09:03:59Z</time>
      </trkpt>
      <trkpt lat="36.83796" lon="-2.45976">
        <ele>17.0232</ele>
        <time>2021-07-19T09:04:10Z</time>
      </trkpt>
      <trkpt lat="36.83793" lon="-2.45967">
        <ele>17.695</ele>
        <time>2021-07-19T09:04:21Z</time>
      </trkpt>
      <trkpt lat="36.83789" lon="-2.45963">
        <ele>17.07931</ele>
        <time>2021-07-19T09:04:32Z</time>
      </trkpt>
      <trkpt lat="36.83789" lon="-2.45958">
        <ele>17.78148</ele>
        <time>2021-07-19T09:04:44Z</time>
      </trkpt>
      <trkpt lat="36.83769" lon="-2.45912">
        <ele>16.28564</ele>
        <time>2021-07-19T09:04:55Z</time>
      </trkpt>
      <trkpt lat="36.83723" lon="-2.45807">
        <ele>15.43269</ele>
        <time>2021-07-19T09:05:06Z</time>
      </trkpt>
      <trkpt lat="36.8368" lon="-2.45705">
        <ele>13.21332</ele>
        <time>2021-07-19T09:05:17Z</time>
      </trkpt>
      <trkpt lat="36.83665" lon="-2.45672">
        <ele>10.26218</ele>
        <time>2021-07-19T09:05:28Z</time>
      </trkpt>
      <trkpt lat="36.83651" lon="-2.45627">
        <ele>13.95304</ele>
        <time>2021-07-19T09:05:39Z</time>
      </trkpt>
      <trkpt lat="36.83739" lon="-2.45575">
        <ele>13.90569</ele>
        <time>2021-07-19T09:05:50Z</time>
      </trkpt>
      <trkpt lat="36.83852" lon="-2.4551">
        <ele>16.09802</ele>
        <time>2021-07-19T09:06:01Z</time>
      </trkpt>
      <trkpt lat="36.83971" lon="-2.45445">
        <ele>18.81158</ele>
        <time>2021-07-19T09:06:12Z</time>
      </trkpt>
      <trkpt lat="36.84089" lon="-2.45372">
        <ele>22.97841</ele>
        <time>2021-07-19T09:06:23Z</time>
      </trkpt>
      <trkpt lat="36.84199" lon="-2.45311">
        <ele>26.12307</ele>
        <time>2021-07-19T09:06:34Z</time>
      </trkpt>
      <trkpt lat="36.84326" lon="-2.45261">
        <ele>25.69861</ele>
        <time>2021-07-19T09:06:45Z</time>
      </trkpt>
      <trkpt lat="36.8444" lon="-2.45234">
        <ele>30.49497</ele>
        <time>2021-07-19T09:06:56Z</time>
      </trkpt>
      <trkpt lat="36.84533" lon="-2.45172">
        <ele>34.49458</ele>
        <time>2021-07-19T09:07:07Z</time>
      </trkpt>
      <trkpt lat="36.84555" lon="-2.45073">
        <ele>33.64564</ele>
        <time>2021-07-19T09:07:18Z</time>
      </trkpt>
      <trkpt lat="36.84558" lon="-2.45067">
        <ele>33.25928</ele>
        <time>2021-07-19T09:08:05Z</time>
      </trkpt>
      <trkpt lat="36.84574" lon="-2.44951">
        <ele>31.58058</ele>
        <time>2021-07-19T09:08:16Z</time>
      </trkpt>
      <trkpt lat="36.84578" lon="-2.44807">
        <ele>28.58691</ele>
        <time>2021-07-19T09:08:27Z</time>
      </trkpt>
      <trkpt lat="36.84575" lon="-2.44785">
        <ele>29.98196</ele>
        <time>2021-07-19T09:08:38Z</time>
      </trkpt>
      <trkpt lat="36.84574" lon="-2.44778">
        <ele>31.21702</ele>
        <time>2021-07-19T09:08:56Z</time>
      </trkpt>
      <trkpt lat="36.84555" lon="-2.44712">
        <ele>31.34984</ele>
        <time>2021-07-19T09:09:07Z</time>
      </trkpt>
      <trkpt lat="36.84607" lon="-2.44712">
        <ele>32.97657</ele>
        <time>2021-07-19T09:09:18Z</time>
      </trkpt>
      <trkpt lat="36.84636" lon="-2.4471">
        <ele>35.0286</ele>
        <time>2021-07-19T09:09:29Z</time>
      </trkpt>
      <trkpt lat="36.84638" lon="-2.44716">
        <ele>33.25845</ele>
        <time>2021-07-19T09:09:56Z</time>
      </trkpt>
      <trkpt lat="36.84644" lon="-2.44714">
        <ele>33.39326</ele>
        <time>2021-07-19T09:10:14Z</time>
      </trkpt>
      <trkpt lat="36.84722" lon="-2.44689">
        <ele>41.3922</ele>
        <time>2021-07-19T09:10:25Z</time>
      </trkpt>
      <trkpt lat="36.84808" lon="-2.44674">
        <ele>46.00574</ele>
        <time>2021-07-19T09:10:36Z</time>
      </trkpt>
      <trkpt lat="36.84856" lon="-2.44665">
        <ele>49.503</ele>
        <time>2021-07-19T09:10:47Z</time>
      </trkpt>
      <trkpt lat="36.84863" lon="-2.44667">
        <ele>50.38265</ele>
        <time>2021-07-19T09:10:58Z</time>
      </trkpt>
      <trkpt lat="36.84873" lon="-2.44658">
        <ele>51.19137</ele>
        <time>2021-07-19T09:11:09Z</time>
      </trkpt>
      <trkpt lat="36.84889" lon="-2.44682">
        <ele>52.25424</ele>
        <time>2021-07-19T09:11:20Z</time>
      </trkpt>
      <trkpt lat="36.84884" lon="-2.4473">
        <ele>52.1026</ele>
        <time>2021-07-19T09:11:31Z</time>
      </trkpt>
      <trkpt lat="36.84886" lon="-2.4475">
        <ele>52.59262</ele>
        <time>2021-07-19T09:11:42Z</time>
      </trkpt>
      <trkpt lat="36.84886" lon="-2.44748">
        <ele>52.8177</ele>
        <time>2021-07-19T09:12:40Z</time>
      </trkpt>
      <trkpt lat="36.84887" lon="-2.44752">
        <ele>52.52558</ele>
        <time>2021-07-19T09:13:18Z</time>
      </trkpt>
      <trkpt lat="36.84887" lon="-2.44757">
        <ele>54.28961</ele>
        <time>2021-07-19T09:13:36Z</time>
      </trkpt>
      <trkpt lat="36.84899" lon="-2.44761">
        <ele>53.46556</ele>
        <time>2021-07-19T09:13:47Z</time>
      </trkpt>
      <trkpt lat="36.84902" lon="-2.44764">
        <ele>54.1368</ele>
        <time>2021-07-19T09:13:58Z</time>
      </trkpt>
      <trkpt lat="36.84907" lon="-2.44762">
        <ele>54.38128</ele>
        <time>2021-07-19T09:14:14Z</time>
      </trkpt>
      <trkpt lat="36.84911" lon="-2.44761">
        <ele>54.40463</ele>
        <time>2021-07-19T09:14:27Z</time>
      </trkpt>
      <trkpt lat="36.84917" lon="-2.44761">
        <ele>54.66445</ele>
        <time>2021-07-19T09:14:38Z</time>
      </trkpt>
      <trkpt lat="36.84927" lon="-2.44752">
        <ele>55.24844</ele>
        <time>2021-07-19T09:14:49Z</time>
      </trkpt>
      <trkpt lat="36.84927" lon="-2.44744">
        <ele>54.99154</ele>
        <time>2021-07-19T09:15:00Z</time>
      </trkpt>
      <trkpt lat="36.84922" lon="-2.44744">
        <ele>54.56037</ele>
        <time>2021-07-19T09:15:15Z</time>
      </trkpt>
      <trkpt lat="36.84917" lon="-2.4474">
        <ele>54.61597</ele>
        <time>2021-07-19T09:16:02Z</time>
      </trkpt>
      <trkpt lat="36.84919" lon="-2.44745">
        <ele>53.6048</ele>
        <time>2021-07-19T09:16:30Z</time>
      </trkpt>
      <trkpt lat="36.84916" lon="-2.4475">
        <ele>54.89476</ele>
        <time>2021-07-19T09:16:41Z</time>
      </trkpt>
      <trkpt lat="36.84901" lon="-2.44754">
        <ele>53.99738</ele>
        <time>2021-07-19T09:16:52Z</time>
      </trkpt>
      <trkpt lat="36.84891" lon="-2.44744">
        <ele>51.95666</ele>
        <time>2021-07-19T09:17:03Z</time>
      </trkpt>
      <trkpt lat="36.84887" lon="-2.44746">
        <ele>53.02736</ele>
        <time>2021-07-19T09:17:14Z</time>
      </trkpt>
      <trkpt lat="36.84889" lon="-2.44754">
        <ele>52.72474</ele>
        <time>2021-07-19T09:17:25Z</time>
      </trkpt>
      <trkpt lat="36.84885" lon="-2.44755">
        <ele>51.89245</ele>
        <time>2021-07-19T09:17:50Z</time>
      </trkpt>
      <trkpt lat="36.84889" lon="-2.44756">
        <ele>52.58119</ele>
        <time>2021-07-19T09:18:05Z</time>
      </trkpt>
      <trkpt lat="36.8489" lon="-2.44761">
        <ele>52.52262</ele>
        <time>2021-07-19T09:18:50Z</time>
      </trkpt>
      <trkpt lat="36.84888" lon="-2.44767">
        <ele>53.06848</ele>
        <time>2021-07-19T09:19:01Z</time>
      </trkpt>
      <trkpt lat="36.84887" lon="-2.44781">
        <ele>54.02683</ele>
        <time>2021-07-19T09:19:12Z</time>
      </trkpt>
      <trkpt lat="36.84896" lon="-2.44896">
        <ele>50.14461</ele>
        <time>2021-07-19T09:19:23Z</time>
      </trkpt>
      <trkpt lat="36.84899" lon="-2.45008">
        <ele>44.17632</ele>
        <time>2021-07-19T09:19:34Z</time>
      </trkpt>
      <trkpt lat="36.849" lon="-2.45047">
        <ele>43.33503</ele>
        <time>2021-07-19T09:19:45Z</time>
      </trkpt>
      <trkpt lat="36.84901" lon="-2.45056">
        <ele>43.05633</ele>
        <time>2021-07-19T09:19:56Z</time>
      </trkpt>
      <trkpt lat="36.8494" lon="-2.45093">
        <ele>43.53944</ele>
        <time>2021-07-19T09:20:07Z</time>
      </trkpt>
      <trkpt lat="36.84999" lon="-2.45101">
        <ele>47.09228</ele>
        <time>2021-07-19T09:20:18Z</time>
      </trkpt>
      <trkpt lat="36.85014" lon="-2.45098">
        <ele>47.68462</ele>
        <time>2021-07-19T09:20:29Z</time>
      </trkpt>
      <trkpt lat="36.85028" lon="-2.45099">
        <ele>48.27475</ele>
        <time>2021-07-19T09:20:40Z</time>
      </trkpt>
      <trkpt lat="36.85088" lon="-2.45091">
        <ele>51.48535</ele>
        <time>2021-07-19T09:20:51Z</time>
      </trkpt>
      <trkpt lat="36.85113" lon="-2.45104">
        <ele>52.9717</ele>
        <time>2021-07-19T09:21:02Z</time>
      </trkpt>
      <trkpt lat="36.85119" lon="-2.45195">
        <ele>52.64944</ele>
        <time>2021-07-19T09:21:13Z</time>
      </trkpt>
      <trkpt lat="36.85122" lon="-2.45201">
        <ele>52.27518</ele>
        <time>2021-07-19T09:21:24Z</time>
      </trkpt>
      <trkpt lat="36.85159" lon="-2.45206">
        <ele>53.03647</ele>
        <time>2021-07-19T09:21:35Z</time>
      </trkpt>
      <trkpt lat="36.85287" lon="-2.45153">
        <ele>54.55433</ele>
        <time>2021-07-19T09:21:46Z</time>
      </trkpt>
      <trkpt lat="36.85391" lon="-2.45065">
        <ele>60.06755</ele>
        <time>2021-07-19T09:21:57Z</time>
      </trkpt>
      <trkpt lat="36.85487" lon="-2.44985">
        <ele>64.37059</ele>
        <time>2021-07-19T09:22:08Z</time>
      </trkpt>
      <trkpt lat="36.85554" lon="-2.44936">
        <ele>65.86974</ele>
        <time>2021-07-19T09:22:19Z</time>
      </trkpt>
      <trkpt lat="36.85586" lon="-2.44911">
        <ele>66.81305</ele>
        <time>2021-07-19T09:22:30Z</time>
      </trkpt>
      <trkpt lat="36.85667" lon="-2.44883">
        <ele>72.0428</ele>
        <time>2021-07-19T09:22:41Z</time>
      </trkpt>
      <trkpt lat="36.85778" lon="-2.44777">
        <ele>77.02172</ele>
        <time>2021-07-19T09:22:52Z</time>
      </trkpt>
      <trkpt lat="36.85883" lon="-2.4468">
        <ele>84.80257</ele>
        <time>2021-07-19T09:23:03Z</time>
      </trkpt>
      <trkpt lat="36.85944" lon="-2.44661">
        <ele>89.40391</ele>
        <time>2021-07-19T09:23:15Z</time>
      </trkpt>
      <trkpt lat="36.8603" lon="-2.44744">
        <ele>87.27066</ele>
        <time>2021-07-19T09:23:26Z</time>
      </trkpt>
      <trkpt lat="36.8612" lon="-2.44838">
        <ele>92.70597</ele>
        <time>2021-07-19T09:23:37Z</time>
      </trkpt>
      <trkpt lat="36.8617" lon="-2.44862">
        <ele>94.38722</ele>
        <time>2021-07-19T09:23:48Z</time>
      </trkpt>
      <trkpt lat="36.862" lon="-2.44876">
        <ele>95.28193</ele>
        <time>2021-07-19T09:23:59Z</time>
      </trkpt>
      <trkpt lat="36.86292" lon="-2.44874">
        <ele>100.977</ele>
        <time>2021-07-19T09:24:10Z</time>
      </trkpt>
      <trkpt lat="36.86372" lon="-2.44863">
        <ele>104.6202</ele>
        <time>2021-07-19T09:24:21Z</time>
      </trkpt>
      <trkpt lat="36.86382" lon="-2.44864">
        <ele>104.7742</ele>
        <time>2021-07-19T09:24:32Z</time>
      </trkpt>
      <trkpt lat="36.86395" lon="-2.44861">
        <ele>104.8901</ele>
        <time>2021-07-19T09:24:43Z</time>
      </trkpt>
      <trkpt lat="36.864" lon="-2.4486">
        <ele>104.7309</ele>
        <time>2021-07-19T09:24:54Z</time>
      </trkpt>
      <trkpt lat="36.86425" lon="-2.44848">
        <ele>105.4755</ele>
        <time>2021-07-19T09:25:05Z</time>
      </trkpt>
      <trkpt lat="36.86451" lon="-2.44815">
        <ele>105.024</ele>
        <time>2021-07-19T09:25:16Z</time>
      </trkpt>
      <trkpt lat="36.86532" lon="-2.44822">
        <ele>105.0415</ele>
        <time>2021-07-19T09:25:27Z</time>
      </trkpt>
      <trkpt lat="36.86662" lon="-2.447">
        <ele>105.7827</ele>
        <time>2021-07-19T09:25:38Z</time>
      </trkpt>
      <trkpt lat="36.86789" lon="-2.44594">
        <ele>90.90251</ele>
        <time>2021-07-19T09:25:49Z</time>
      </trkpt>
      <trkpt lat="36.86876" lon="-2.44579">
        <ele>82.37194</ele>
        <time>2021-07-19T09:26:00Z</time>
      </trkpt>
      <trkpt lat="36.87013" lon="-2.44524">
        <ele>76.47871</ele>
        <time>2021-07-19T09:26:11Z</time>
      </trkpt>
      <trkpt lat="36.87091" lon="-2.44484">
        <ele>75.19457</ele>
        <time>2021-07-19T09:26:22Z</time>
      </trkpt>
      <trkpt lat="36.87124" lon="-2.44469">
        <ele>76.95314</ele>
        <time>2021-07-19T09:26:33Z</time>
      </trkpt>
      <trkpt lat="36.87147" lon="-2.44453">
        <ele>77.97803</ele>
        <time>2021-07-19T09:26:44Z</time>
      </trkpt>
      <trkpt lat="36.87203" lon="-2.444">
        <ele>78.19072</ele>
        <time>2021-07-19T09:26:55Z</time>
      </trkpt>
      <trkpt lat="36.87245" lon="-2.4428">
        <ele>73.79596</ele>
        <time>2021-07-19T09:27:06Z</time>
      </trkpt>
      <trkpt lat="36.8725" lon="-2.44247">
        <ele>74.2925</ele>
        <time>2021-07-19T09:27:17Z</time>
      </trkpt>
      <trkpt lat="36.87255" lon="-2.44221">
        <ele>74.34168</ele>
        <time>2021-07-19T09:27:28Z</time>
      </trkpt>
      <trkpt lat="36.8726" lon="-2.44191">
        <ele>72.88757</ele>
        <time>2021-07-19T09:27:39Z</time>
      </trkpt>
      <trkpt lat="36.87262" lon="-2.44177">
        <ele>71.67784</ele>
        <time>2021-07-19T09:27:50Z</time>
      </trkpt>
      <trkpt lat="36.87263" lon="-2.44161">
        <ele>71.1941</ele>
        <time>2021-07-19T09:28:01Z</time>
      </trkpt>
      <trkpt lat="36.87259" lon="-2.44135">
        <ele>71.82954</ele>
        <time>2021-07-19T09:28:12Z</time>
      </trkpt>
      <trkpt lat="36.87328" lon="-2.44024">
        <ele>69.64095</ele>
        <time>2021-07-19T09:28:23Z</time>
      </trkpt>
      <trkpt lat="36.8746" lon="-2.43921">
        <ele>66.54998</ele>
        <time>2021-07-19T09:28:34Z</time>
      </trkpt>
      <trkpt lat="36.87611" lon="-2.43813">
        <ele>64.48619</ele>
        <time>2021-07-19T09:28:45Z</time>
      </trkpt>
      <trkpt lat="36.87744" lon="-2.43676">
        <ele>66.83627</ele>
        <time>2021-07-19T09:28:56Z</time>
      </trkpt>
      <trkpt lat="36.87841" lon="-2.43527">
        <ele>68.75906</ele>
        <time>2021-07-19T09:29:07Z</time>
      </trkpt>
      <trkpt lat="36.87927" lon="-2.43341">
        <ele>66.0985</ele>
        <time>2021-07-19T09:29:18Z</time>
      </trkpt>
      <trkpt lat="36.87998" lon="-2.43124">
        <ele>65.94329</ele>
        <time>2021-07-19T09:29:29Z</time>
      </trkpt>
      <trkpt lat="36.88051" lon="-2.42938">
        <ele>66.03215</ele>
        <time>2021-07-19T09:29:40Z</time>
      </trkpt>
      <trkpt lat="36.88111" lon="-2.42724">
        <ele>65.85695</ele>
        <time>2021-07-19T09:29:51Z</time>
      </trkpt>
      <trkpt lat="36.88158" lon="-2.42555">
        <ele>60.79815</ele>
        <time>2021-07-19T09:30:02Z</time>
      </trkpt>
      <trkpt lat="36.8818" lon="-2.42464">
        <ele>60.19169</ele>
        <time>2021-07-19T09:30:13Z</time>
      </trkpt>
      <trkpt lat="36.88119" lon="-2.42409">
        <ele>58.81078</ele>
        <time>2021-07-19T09:30:24Z</time>
      </trkpt>
      <trkpt lat="36.88012" lon="-2.42398">
        <ele>58.28243</ele>
        <time>2021-07-19T09:30:35Z</time>
      </trkpt>
      <trkpt lat="36.87997" lon="-2.42328">
        <ele>62.19969</ele>
        <time>2021-07-19T09:30:46Z</time>
      </trkpt>
      <trkpt lat="36.8801" lon="-2.42251">
        <ele>66.89765</ele>
        <time>2021-07-19T09:30:57Z</time>
      </trkpt>
      <trkpt lat="36.87931" lon="-2.42234">
        <ele>66.74072</ele>
        <time>2021-07-19T09:31:08Z</time>
      </trkpt>
      <trkpt lat="36.8789" lon="-2.42255">
        <ele>65.00125</ele>
        <time>2021-07-19T09:31:19Z</time>
      </trkpt>
      <trkpt lat="36.8788" lon="-2.42306">
        <ele>60.67902</ele>
        <time>2021-07-19T09:31:30Z</time>
      </trkpt>
      <trkpt lat="36.87868" lon="-2.42305">
        <ele>63.89992</ele>
        <time>2021-07-19T09:31:41Z</time>
      </trkpt>
      <trkpt lat="36.87865" lon="-2.42302">
        <ele>63.57561</ele>
        <time>2021-07-19T09:32:03Z</time>
      </trkpt>
      <trkpt lat="36.87863" lon="-2.42298">
        <ele>62.73428</ele>
        <time>2021-07-19T09:32:36Z</time>
      </trkpt>
      <trkpt lat="36.87867" lon="-2.42299">
        <ele>64.27236</ele>
        <time>2021-07-19T09:33:06Z</time>
      </trkpt>
      <trkpt lat="36.87865" lon="-2.42309">
        <ele>64.29587</ele>
        <time>2021-07-19T09:33:53Z</time>
      </trkpt>
      <trkpt lat="36.87864" lon="-2.42302">
        <ele>63.97472</ele>
        <time>2021-07-19T09:34:04Z</time>
      </trkpt>
      <trkpt lat="36.87866" lon="-2.42301">
        <ele>63.5885</ele>
        <time>2021-07-19T09:35:03Z</time>
      </trkpt>
      <trkpt lat="36.87863" lon="-2.42297">
        <ele>63.60126</ele>
        <time>2021-07-19T09:35:33Z</time>
      </trkpt>
      <trkpt lat="36.87865" lon="-2.42293">
        <ele>64.62646</ele>
        <time>2021-07-19T09:35:45Z</time>
      </trkpt>
      <trkpt lat="36.87867" lon="-2.42297">
        <ele>64.46343</ele>
        <time>2021-07-19T09:36:06Z</time>
      </trkpt>
      <trkpt lat="36.87867" lon="-2.42302">
        <ele>63.87674</ele>
        <time>2021-07-19T09:36:38Z</time>
      </trkpt>
      <trkpt lat="36.87866" lon="-2.42302">
        <ele>62.87709</ele>
        <time>2021-07-19T09:37:37Z</time>
      </trkpt>
      <trkpt lat="36.87867" lon="-2.423">
        <ele>64.14097</ele>
        <time>2021-07-19T09:38:36Z</time>
      </trkpt>
      <trkpt lat="36.87867" lon="-2.42295">
        <ele>63.28908</ele>
        <time>2021-07-19T09:39:05Z</time>
      </trkpt>
      <trkpt lat="36.87869" lon="-2.423">
        <ele>65.23597</ele>
        <time>2021-07-19T09:39:16Z</time>
      </trkpt>
      <trkpt lat="36.87875" lon="-2.42302">
        <ele>63.09861</ele>
        <time>2021-07-19T09:39:27Z</time>
      </trkpt>
      <trkpt lat="36.87925" lon="-2.42326">
        <ele>59.1597</ele>
        <time>2021-07-19T09:39:38Z</time>
      </trkpt>
      <trkpt lat="36.88001" lon="-2.42352">
        <ele>59.30189</ele>
        <time>2021-07-19T09:39:49Z</time>
      </trkpt>
      <trkpt lat="36.88046" lon="-2.42404">
        <ele>58.90835</ele>
        <time>2021-07-19T09:40:00Z</time>
      </trkpt>
      <trkpt lat="36.88137" lon="-2.42408">
        <ele>59.21453</ele>
        <time>2021-07-19T09:40:11Z</time>
      </trkpt>
      <trkpt lat="36.88209" lon="-2.42429">
        <ele>59.48504</ele>
        <time>2021-07-19T09:40:22Z</time>
      </trkpt>
      <trkpt lat="36.88168" lon="-2.42543">
        <ele>61.44143</ele>
        <time>2021-07-19T09:40:33Z</time>
      </trkpt>
      <trkpt lat="36.88117" lon="-2.42721">
        <ele>63.01506</ele>
        <time>2021-07-19T09:40:44Z</time>
      </trkpt>
      <trkpt lat="36.88069" lon="-2.42895">
        <ele>64.73708</ele>
        <time>2021-07-19T09:40:55Z</time>
      </trkpt>
      <trkpt lat="36.88012" lon="-2.43099">
        <ele>65.04736</ele>
        <time>2021-07-19T09:41:06Z</time>
      </trkpt>
      <trkpt lat="36.87949" lon="-2.43297">
        <ele>64.33963</ele>
        <time>2021-07-19T09:41:17Z</time>
      </trkpt>
      <trkpt lat="36.87866" lon="-2.43493">
        <ele>69.77151</ele>
        <time>2021-07-19T09:41:28Z</time>
      </trkpt>
      <trkpt lat="36.87753" lon="-2.43672">
        <ele>67.25204</ele>
        <time>2021-07-19T09:41:39Z</time>
      </trkpt>
      <trkpt lat="36.87614" lon="-2.43816">
        <ele>62.44377</ele>
        <time>2021-07-19T09:41:50Z</time>
      </trkpt>
      <trkpt lat="36.87469" lon="-2.4392">
        <ele>66.5565</ele>
        <time>2021-07-19T09:42:01Z</time>
      </trkpt>
      <trkpt lat="36.87373" lon="-2.4399">
        <ele>69.49913</ele>
        <time>2021-07-19T09:42:12Z</time>
      </trkpt>
      <trkpt lat="36.87328" lon="-2.44031">
        <ele>70.0119</ele>
        <time>2021-07-19T09:42:23Z</time>
      </trkpt>
      <trkpt lat="36.87312" lon="-2.44054">
        <ele>69.31627</ele>
        <time>2021-07-19T09:42:34Z</time>
      </trkpt>
      <trkpt lat="36.87287" lon="-2.44142">
        <ele>71.42677</ele>
        <time>2021-07-19T09:42:45Z</time>
      </trkpt>
      <trkpt lat="36.87257" lon="-2.44253">
        <ele>75.62666</ele>
        <time>2021-07-19T09:42:56Z</time>
      </trkpt>
      <trkpt lat="36.87241" lon="-2.44355">
        <ele>77.55953</ele>
        <time>2021-07-19T09:43:07Z</time>
      </trkpt>
      <trkpt lat="36.87208" lon="-2.44451">
        <ele>76.71622</ele>
        <time>2021-07-19T09:43:18Z</time>
      </trkpt>
      <trkpt lat="36.87072" lon="-2.44501">
        <ele>75.68949</ele>
        <time>2021-07-19T09:43:29Z</time>
      </trkpt>
      <trkpt lat="36.86888" lon="-2.44583">
        <ele>84.36846</ele>
        <time>2021-07-19T09:43:40Z</time>
      </trkpt>
      <trkpt lat="36.86807" lon="-2.44599">
        <ele>88.30285</ele>
        <time>2021-07-19T09:43:51Z</time>
      </trkpt>
      <trkpt lat="36.86675" lon="-2.44689">
        <ele>96.45371</ele>
        <time>2021-07-19T09:44:02Z</time>
      </trkpt>
      <trkpt lat="36.86572" lon="-2.44807">
        <ele>107.134</ele>
        <time>2021-07-19T09:44:13Z</time>
      </trkpt>
      <trkpt lat="36.8655" lon="-2.44822">
        <ele>109.8817</ele>
        <time>2021-07-19T09:44:25Z</time>
      </trkpt>
      <trkpt lat="36.86536" lon="-2.44831">
        <ele>108.7962</ele>
        <time>2021-07-19T09:44:36Z</time>
      </trkpt>
      <trkpt lat="36.86519" lon="-2.44845">
        <ele>106.7447</ele>
        <time>2021-07-19T09:44:47Z</time>
      </trkpt>
      <trkpt lat="36.86475" lon="-2.44893">
        <ele>104.5771</ele>
        <time>2021-07-19T09:44:58Z</time>
      </trkpt>
      <trkpt lat="36.86396" lon="-2.44868">
        <ele>102.3264</ele>
        <time>2021-07-19T09:45:09Z</time>
      </trkpt>
      <trkpt lat="36.862" lon="-2.4488">
        <ele>96.69173</ele>
        <time>2021-07-19T09:45:20Z</time>
      </trkpt>
      <trkpt lat="36.86093" lon="-2.44835">
        <ele>91.81399</ele>
        <time>2021-07-19T09:45:31Z</time>
      </trkpt>
      <trkpt lat="36.85969" lon="-2.44715">
        <ele>83.77528</ele>
        <time>2021-07-19T09:45:42Z</time>
      </trkpt>
      <trkpt lat="36.85955" lon="-2.44706">
        <ele>83.27475</ele>
        <time>2021-07-19T09:45:53Z</time>
      </trkpt>
      <trkpt lat="36.85951" lon="-2.44707">
        <ele>83.0674</ele>
        <time>2021-07-19T09:46:11Z</time>
      </trkpt>
      <trkpt lat="36.85941" lon="-2.44696">
        <ele>82.84606</ele>
        <time>2021-07-19T09:46:23Z</time>
      </trkpt>
      <trkpt lat="36.85848" lon="-2.44729">
        <ele>80.45572</ele>
        <time>2021-07-19T09:46:34Z</time>
      </trkpt>
      <trkpt lat="36.8574" lon="-2.44841">
        <ele>75.09645</ele>
        <time>2021-07-19T09:46:45Z</time>
      </trkpt>
      <trkpt lat="36.85646" lon="-2.44917">
        <ele>70.06742</ele>
        <time>2021-07-19T09:46:56Z</time>
      </trkpt>
      <trkpt lat="36.85621" lon="-2.44933">
        <ele>68.82686</ele>
        <time>2021-07-19T09:47:07Z</time>
      </trkpt>
      <trkpt lat="36.85571" lon="-2.44953">
        <ele>67.3501</ele>
        <time>2021-07-19T09:47:18Z</time>
      </trkpt>
      <trkpt lat="36.85466" lon="-2.45017">
        <ele>62.78968</ele>
        <time>2021-07-19T09:47:29Z</time>
      </trkpt>
      <trkpt lat="36.85338" lon="-2.45155">
        <ele>57.01374</ele>
        <time>2021-07-19T09:47:40Z</time>
      </trkpt>
      <trkpt lat="36.85241" lon="-2.45241">
        <ele>52.66275</ele>
        <time>2021-07-19T09:47:51Z</time>
      </trkpt>
      <trkpt lat="36.8522" lon="-2.45253">
        <ele>52.94477</ele>
        <time>2021-07-19T09:48:02Z</time>
      </trkpt>
      <trkpt lat="36.85199" lon="-2.45266">
        <ele>52.13392</ele>
        <time>2021-07-19T09:48:13Z</time>
      </trkpt>
      <trkpt lat="36.85165" lon="-2.4531">
        <ele>52.12134</ele>
        <time>2021-07-19T09:48:24Z</time>
      </trkpt>
      <trkpt lat="36.85115" lon="-2.45359">
        <ele>49.39975</ele>
        <time>2021-07-19T09:48:35Z</time>
      </trkpt>
      <trkpt lat="36.8508" lon="-2.45395">
        <ele>50.0227</ele>
        <time>2021-07-19T09:48:46Z</time>
      </trkpt>
      <trkpt lat="36.85056" lon="-2.45422">
        <ele>49.23091</ele>
        <time>2021-07-19T09:48:57Z</time>
      </trkpt>
      <trkpt lat="36.85053" lon="-2.45427">
        <ele>49.34674</ele>
        <time>2021-07-19T09:49:21Z</time>
      </trkpt>
      <trkpt lat="36.85047" lon="-2.45431">
        <ele>48.79633</ele>
        <time>2021-07-19T09:49:32Z</time>
      </trkpt>
      <trkpt lat="36.85044" lon="-2.45435">
        <ele>49.41186</ele>
        <time>2021-07-19T09:49:46Z</time>
      </trkpt>
      <trkpt lat="36.84932" lon="-2.45559">
        <ele>43.51416</ele>
        <time>2021-07-19T09:49:57Z</time>
      </trkpt>
      <trkpt lat="36.84835" lon="-2.45667">
        <ele>42.80193</ele>
        <time>2021-07-19T09:50:08Z</time>
      </trkpt>
      <trkpt lat="36.84778" lon="-2.45728">
        <ele>40.59329</ele>
        <time>2021-07-19T09:50:19Z</time>
      </trkpt>
      <trkpt lat="36.84729" lon="-2.45769">
        <ele>41.51317</ele>
        <time>2021-07-19T09:50:30Z</time>
      </trkpt>
      <trkpt lat="36.84639" lon="-2.45761">
        <ele>37.36239</ele>
        <time>2021-07-19T09:50:41Z</time>
      </trkpt>
      <trkpt lat="36.84582" lon="-2.45757">
        <ele>34.52455</ele>
        <time>2021-07-19T09:50:52Z</time>
      </trkpt>
      <trkpt lat="36.84567" lon="-2.45805">
        <ele>35.15526</ele>
        <time>2021-07-19T09:51:03Z</time>
      </trkpt>
      <trkpt lat="36.84544" lon="-2.45855">
        <ele>33.99668</ele>
        <time>2021-07-19T09:51:14Z</time>
      </trkpt>
      <trkpt lat="36.84525" lon="-2.45852">
        <ele>32.84244</ele>
        <time>2021-07-19T09:51:25Z</time>
      </trkpt>
      <trkpt lat="36.84515" lon="-2.45863">
        <ele>33.11233</ele>
        <time>2021-07-19T09:51:36Z</time>
      </trkpt>
      <trkpt lat="36.84519" lon="-2.45873">
        <ele>33.78368</ele>
        <time>2021-07-19T09:51:47Z</time>
      </trkpt>
      <trkpt lat="36.84518" lon="-2.45885">
        <ele>33.34539</ele>
        <time>2021-07-19T09:51:58Z</time>
      </trkpt>
      <trkpt lat="36.84512" lon="-2.45898">
        <ele>33.0781</ele>
        <time>2021-07-19T09:52:09Z</time>
      </trkpt>
      <trkpt lat="36.84508" lon="-2.45904">
        <ele>33.18237</ele>
        <time>2021-07-19T09:52:20Z</time>
      </trkpt>
      <trkpt lat="36.84509" lon="-2.45909">
        <ele>33.43781</ele>
        <time>2021-07-19T09:53:03Z</time>
      </trkpt>
      <trkpt lat="36.84496" lon="-2.45898">
        <ele>32.45056</ele>
        <time>2021-07-19T09:53:14Z</time>
      </trkpt>
      <trkpt lat="36.84505" lon="-2.45881">
        <ele>33.55382</ele>
        <time>2021-07-19T09:53:25Z</time>
      </trkpt>
      <trkpt lat="36.84508" lon="-2.45884">
        <ele>33.2423</ele>
        <time>2021-07-19T09:53:37Z</time>
      </trkpt>
      <trkpt lat="36.84504" lon="-2.45878">
        <ele>33.61575</ele>
        <time>2021-07-19T09:53:48Z</time>
      </trkpt>
      <trkpt lat="36.84496" lon="-2.45877">
        <ele>33.46246</ele>
        <time>2021-07-19T09:53:59Z</time>
      </trkpt>
      <trkpt lat="36.84499" lon="-2.4588">
        <ele>34.02852</ele>
        <time>2021-07-19T09:54:18Z</time>
      </trkpt>
      <trkpt lat="36.8451" lon="-2.45885">
        <ele>32.39918</ele>
        <time>2021-07-19T09:54:29Z</time>
      </trkpt>
      <trkpt lat="36.84515" lon="-2.45893">
        <ele>33.09297</ele>
        <time>2021-07-19T09:54:40Z</time>
      </trkpt>
      <trkpt lat="36.84489" lon="-2.45883">
        <ele>33.06638</ele>
        <time>2021-07-19T09:54:51Z</time>
      </trkpt>
      <trkpt lat="36.84489" lon="-2.45873">
        <ele>33.41363</ele>
        <time>2021-07-19T09:55:02Z</time>
      </trkpt>
      <trkpt lat="36.84492" lon="-2.45884">
        <ele>33.35378</ele>
        <time>2021-07-19T09:55:13Z</time>
      </trkpt>
      <trkpt lat="36.84496" lon="-2.45893">
        <ele>33.23025</ele>
        <time>2021-07-19T09:55:24Z</time>
      </trkpt>
      <trkpt lat="36.84492" lon="-2.45891">
        <ele>32.91935</ele>
        <time>2021-07-19T09:55:38Z</time>
      </trkpt>
      <trkpt lat="36.84504" lon="-2.45885">
        <ele>32.87807</ele>
        <time>2021-07-19T09:55:49Z</time>
      </trkpt>
      <trkpt lat="36.84499" lon="-2.45896">
        <ele>33.36991</ele>
        <time>2021-07-19T09:56:00Z</time>
      </trkpt>
      <trkpt lat="36.84499" lon="-2.45891">
        <ele>32.90626</ele>
        <time>2021-07-19T09:56:28Z</time>
      </trkpt>
      <trkpt lat="36.84502" lon="-2.45891">
        <ele>33.20329</ele>
        <time>2021-07-19T09:56:41Z</time>
      </trkpt>
      <trkpt lat="36.84499" lon="-2.45896">
        <ele>32.90116</ele>
        <time>2021-07-19T09:56:52Z</time>
      </trkpt>
      <trkpt lat="36.84505" lon="-2.45895">
        <ele>33.72866</ele>
        <time>2021-07-19T09:57:03Z</time>
      </trkpt>
      <trkpt lat="36.8451" lon="-2.45897">
        <ele>33.24982</ele>
        <time>2021-07-19T09:57:23Z</time>
      </trkpt>
      <trkpt lat="36.84501" lon="-2.45896">
        <ele>32.89221</ele>
        <time>2021-07-19T09:57:34Z</time>
      </trkpt>
      <trkpt lat="36.84495" lon="-2.45894">
        <ele>33.39508</ele>
        <time>2021-07-19T09:57:45Z</time>
      </trkpt>
      <trkpt lat="36.845" lon="-2.45884">
        <ele>33.33592</ele>
        <time>2021-07-19T09:57:59Z</time>
      </trkpt>
      <trkpt lat="36.84496" lon="-2.45886">
        <ele>33.04046</ele>
        <time>2021-07-19T09:58:13Z</time>
      </trkpt>
      <trkpt lat="36.84495" lon="-2.4589">
        <ele>34.1492</ele>
        <time>2021-07-19T09:58:25Z</time>
      </trkpt>
      <trkpt lat="36.84503" lon="-2.459">
        <ele>32.69061</ele>
        <time>2021-07-19T09:58:36Z</time>
      </trkpt>
      <trkpt lat="36.8451" lon="-2.45903">
        <ele>33.29181</ele>
        <time>2021-07-19T09:58:47Z</time>
      </trkpt>
      <trkpt lat="36.84504" lon="-2.45906">
        <ele>33.70702</ele>
        <time>2021-07-19T09:59:14Z</time>
      </trkpt>
      <trkpt lat="36.84503" lon="-2.45911">
        <ele>33.36408</ele>
        <time>2021-07-19T09:59:25Z</time>
      </trkpt>
      <trkpt lat="36.84507" lon="-2.45909">
        <ele>33.07676</ele>
        <time>2021-07-19T09:59:36Z</time>
      </trkpt>
      <trkpt lat="36.84509" lon="-2.45905">
        <ele>34.43515</ele>
        <time>2021-07-19T09:59:51Z</time>
      </trkpt>
      <trkpt lat="36.84513" lon="-2.45903">
        <ele>33.28332</ele>
        <time>2021-07-19T10:00:02Z</time>
      </trkpt>
      <trkpt lat="36.84515" lon="-2.45898">
        <ele>33.69275</ele>
        <time>2021-07-19T10:00:29Z</time>
      </trkpt>
      <trkpt lat="36.84512" lon="-2.45903">
        <ele>33.50791</ele>
        <time>2021-07-19T10:00:40Z</time>
      </trkpt>
      <trkpt lat="36.84513" lon="-2.45909">
        <ele>33.91516</ele>
        <time>2021-07-19T10:00:51Z</time>
      </trkpt>
      <trkpt lat="36.84515" lon="-2.45912">
        <ele>33.39964</ele>
        <time>2021-07-19T10:01:06Z</time>
      </trkpt>
      <trkpt lat="36.84516" lon="-2.45911">
        <ele>33.37221</ele>
        <time>2021-07-19T10:01:14Z</time>
      </trkpt>
      <trkpt lat="36.84516" lon="-2.45907">
        <ele>33.15534</ele>
        <time>2021-07-19T10:01:28Z</time>
      </trkpt>
      <trkpt lat="36.8452" lon="-2.45905">
        <ele>33.25437</ele>
        <time>2021-07-19T10:01:42Z</time>
      </trkpt>
      <trkpt lat="36.84524" lon="-2.45906">
        <ele>33.91567</ele>
        <time>2021-07-19T10:02:31Z</time>
      </trkpt>
      <trkpt lat="36.8452" lon="-2.45906">
        <ele>34.05663</ele>
        <time>2021-07-19T10:02:49Z</time>
      </trkpt>
      <trkpt lat="36.84517" lon="-2.45904">
        <ele>34.31931</ele>
        <time>2021-07-19T10:03:15Z</time>
      </trkpt>
      <trkpt lat="36.84517" lon="-2.45909">
        <ele>32.88074</ele>
        <time>2021-07-19T10:03:29Z</time>
      </trkpt>
      <trkpt lat="36.8453" lon="-2.45919">
        <ele>31.22504</ele>
        <time>2021-07-19T10:03:40Z</time>
      </trkpt>
      <trkpt lat="36.8454" lon="-2.45921">
        <ele>34.96747</ele>
        <time>2021-07-19T10:03:51Z</time>
      </trkpt>
      <trkpt lat="36.84565" lon="-2.45931">
        <ele>34.24025</ele>
        <time>2021-07-19T10:04:02Z</time>
      </trkpt>
      <trkpt lat="36.8466" lon="-2.45962">
        <ele>38.89851</ele>
        <time>2021-07-19T10:04:13Z</time>
      </trkpt>
      <trkpt lat="36.84749" lon="-2.45972">
        <ele>41.76903</ele>
        <time>2021-07-19T10:04:24Z</time>
      </trkpt>
      <trkpt lat="36.84772" lon="-2.45988">
        <ele>41.88608</ele>
        <time>2021-07-19T10:04:35Z</time>
      </trkpt>
      <trkpt lat="36.84784" lon="-2.46043">
        <ele>43.09367</ele>
        <time>2021-07-19T10:04:46Z</time>
      </trkpt>
      <trkpt lat="36.84764" lon="-2.46022">
        <ele>41.59179</ele>
        <time>2021-07-19T10:04:57Z</time>
      </trkpt>
      <trkpt lat="36.84765" lon="-2.46018">
        <ele>41.73263</ele>
        <time>2021-07-19T10:05:53Z</time>
      </trkpt>
      <trkpt lat="36.84762" lon="-2.46021">
        <ele>41.78966</ele>
        <time>2021-07-19T10:06:16Z</time>
      </trkpt>
      <trkpt lat="36.84759" lon="-2.46016">
        <ele>41.55148</ele>
        <time>2021-07-19T10:06:32Z</time>
      </trkpt>
      <trkpt lat="36.84749" lon="-2.46003">
        <ele>41.31315</ele>
        <time>2021-07-19T10:06:43Z</time>
      </trkpt>
      <trkpt lat="36.84743" lon="-2.45997">
        <ele>43.10684</ele>
        <time>2021-07-19T10:07:08Z</time>
      </trkpt>
      <trkpt lat="36.84629" lon="-2.45943">
        <ele>38.34267</ele>
        <time>2021-07-19T10:07:19Z</time>
      </trkpt>
      <trkpt lat="36.84572" lon="-2.45919">
        <ele>35.40394</ele>
        <time>2021-07-19T10:07:30Z</time>
      </trkpt>
      <trkpt lat="36.84473" lon="-2.45852">
        <ele>32.36909</ele>
        <time>2021-07-19T10:07:41Z</time>
      </trkpt>
      <trkpt lat="36.8444" lon="-2.45833">
        <ele>31.10112</ele>
        <time>2021-07-19T10:07:52Z</time>
      </trkpt>
      <trkpt lat="36.84437" lon="-2.4583">
        <ele>31.33798</ele>
        <time>2021-07-19T10:08:09Z</time>
      </trkpt>
      <trkpt lat="36.84442" lon="-2.4583">
        <ele>31.0862</ele>
        <time>2021-07-19T10:08:28Z</time>
      </trkpt>
      <trkpt lat="36.84425" lon="-2.45804">
        <ele>30.3385</ele>
        <time>2021-07-19T10:08:39Z</time>
      </trkpt>
      <trkpt lat="36.84484" lon="-2.45824">
        <ele>31.55744</ele>
        <time>2021-07-19T10:08:50Z</time>
      </trkpt>
      <trkpt lat="36.84556" lon="-2.45872">
        <ele>34.84834</ele>
        <time>2021-07-19T10:09:01Z</time>
      </trkpt>
      <trkpt lat="36.84631" lon="-2.45917">
        <ele>37.11459</ele>
        <time>2021-07-19T10:09:12Z</time>
      </trkpt>
      <trkpt lat="36.84686" lon="-2.45891">
        <ele>39.10984</ele>
        <time>2021-07-19T10:09:23Z</time>
      </trkpt>
      <trkpt lat="36.84741" lon="-2.45906">
        <ele>42.66622</ele>
        <time>2021-07-19T10:09:34Z</time>
      </trkpt>
      <trkpt lat="36.84737" lon="-2.45945">
        <ele>41.04296</ele>
        <time>2021-07-19T10:09:45Z</time>
      </trkpt>
      <trkpt lat="36.84733" lon="-2.45967">
        <ele>39.29632</ele>
        <time>2021-07-19T10:09:56Z</time>
      </trkpt>
      <trkpt lat="36.84621" lon="-2.4594">
        <ele>37.26714</ele>
        <time>2021-07-19T10:10:07Z</time>
      </trkpt>
      <trkpt lat="36.84618" lon="-2.45937">
        <ele>36.97215</ele>
        <time>2021-07-19T10:10:35Z</time>
      </trkpt>
      <trkpt lat="36.845" lon="-2.4587">
        <ele>32.70822</ele>
        <time>2021-07-19T10:10:46Z</time>
      </trkpt>
      <trkpt lat="36.84436" lon="-2.4583">
        <ele>30.97927</ele>
        <time>2021-07-19T10:10:57Z</time>
      </trkpt>
      <trkpt lat="36.84431" lon="-2.45827">
        <ele>31.11971</ele>
        <time>2021-07-19T10:11:48Z</time>
      </trkpt>
      <trkpt lat="36.84426" lon="-2.45737">
        <ele>28.93783</ele>
        <time>2021-07-19T10:11:59Z</time>
      </trkpt>
      <trkpt lat="36.84432" lon="-2.45741">
        <ele>30.8837</ele>
        <time>2021-07-19T10:12:10Z</time>
      </trkpt>
      <trkpt lat="36.84436" lon="-2.4574">
        <ele>31.0405</ele>
        <time>2021-07-19T10:12:30Z</time>
      </trkpt>
      <trkpt lat="36.84505" lon="-2.45715">
        <ele>31.5358</ele>
        <time>2021-07-19T10:12:41Z</time>
      </trkpt>
      <trkpt lat="36.84558" lon="-2.45705">
        <ele>33.9193</ele>
        <time>2021-07-19T10:12:52Z</time>
      </trkpt>
      <trkpt lat="36.84625" lon="-2.45684">
        <ele>36.05448</ele>
        <time>2021-07-19T10:13:03Z</time>
      </trkpt>
      <trkpt lat="36.84682" lon="-2.45645">
        <ele>37.70974</ele>
        <time>2021-07-19T10:13:14Z</time>
      </trkpt>
      <trkpt lat="36.84748" lon="-2.45588">
        <ele>39.59577</ele>
        <time>2021-07-19T10:13:25Z</time>
      </trkpt>
      <trkpt lat="36.84778" lon="-2.45566">
        <ele>39.93147</ele>
        <time>2021-07-19T10:13:36Z</time>
      </trkpt>
      <trkpt lat="36.84811" lon="-2.45542">
        <ele>40.97288</ele>
        <time>2021-07-19T10:13:47Z</time>
      </trkpt>
      <trkpt lat="36.84876" lon="-2.45499">
        <ele>43.81444</ele>
        <time>2021-07-19T10:13:58Z</time>
      </trkpt>
      <trkpt lat="36.84936" lon="-2.45467">
        <ele>44.87419</ele>
        <time>2021-07-19T10:14:09Z</time>
      </trkpt>
      <trkpt lat="36.84983" lon="-2.45415">
        <ele>44.88018</ele>
        <time>2021-07-19T10:14:20Z</time>
      </trkpt>
      <trkpt lat="36.85032" lon="-2.45361">
        <ele>47.43026</ele>
        <time>2021-07-19T10:14:31Z</time>
      </trkpt>
      <trkpt lat="36.85056" lon="-2.45335">
        <ele>49.61451</ele>
        <time>2021-07-19T10:14:42Z</time>
      </trkpt>
      <trkpt lat="36.85091" lon="-2.45322">
        <ele>50.5544</ele>
        <time>2021-07-19T10:14:53Z</time>
      </trkpt>
      <trkpt lat="36.85116" lon="-2.45222">
        <ele>52.01191</ele>
        <time>2021-07-19T10:15:04Z</time>
      </trkpt>
      <trkpt lat="36.85281" lon="-2.45158">
        <ele>55.02127</ele>
        <time>2021-07-19T10:15:15Z</time>
      </trkpt>
      <trkpt lat="36.8541" lon="-2.4505">
        <ele>61.34984</ele>
        <time>2021-07-19T10:15:26Z</time>
      </trkpt>
      <trkpt lat="36.85418" lon="-2.45045">
        <ele>62.51368</ele>
        <time>2021-07-19T10:15:37Z</time>
      </trkpt>
      <trkpt lat="36.85422" lon="-2.45045">
        <ele>62.91391</ele>
        <time>2021-07-19T10:16:02Z</time>
      </trkpt>
      <trkpt lat="36.85495" lon="-2.44983">
        <ele>64.35282</ele>
        <time>2021-07-19T10:16:13Z</time>
      </trkpt>
      <trkpt lat="36.85593" lon="-2.44908">
        <ele>69.98345</ele>
        <time>2021-07-19T10:16:24Z</time>
      </trkpt>
      <trkpt lat="36.85656" lon="-2.44892">
        <ele>72.33095</ele>
        <time>2021-07-19T10:16:35Z</time>
      </trkpt>
      <trkpt lat="36.85659" lon="-2.44893">
        <ele>72.66432</ele>
        <time>2021-07-19T10:16:58Z</time>
      </trkpt>
      <trkpt lat="36.85782" lon="-2.44772">
        <ele>77.62061</ele>
        <time>2021-07-19T10:17:09Z</time>
      </trkpt>
      <trkpt lat="36.85898" lon="-2.44669">
        <ele>87.64614</ele>
        <time>2021-07-19T10:17:20Z</time>
      </trkpt>
      <trkpt lat="36.85965" lon="-2.44687">
        <ele>88.78296</ele>
        <time>2021-07-19T10:17:31Z</time>
      </trkpt>
      <trkpt lat="36.86112" lon="-2.44827">
        <ele>91.97981</ele>
        <time>2021-07-19T10:17:42Z</time>
      </trkpt>
      <trkpt lat="36.86242" lon="-2.44878">
        <ele>98.51146</ele>
        <time>2021-07-19T10:17:53Z</time>
      </trkpt>
      <trkpt lat="36.86403" lon="-2.44858">
        <ele>104.6043</ele>
        <time>2021-07-19T10:18:04Z</time>
      </trkpt>
      <trkpt lat="36.86451" lon="-2.44815">
        <ele>105.3917</ele>
        <time>2021-07-19T10:18:15Z</time>
      </trkpt>
      <trkpt lat="36.86541" lon="-2.44817">
        <ele>107.4127</ele>
        <time>2021-07-19T10:18:26Z</time>
      </trkpt>
      <trkpt lat="36.86659" lon="-2.44699">
        <ele>108.6158</ele>
        <time>2021-07-19T10:18:37Z</time>
      </trkpt>
      <trkpt lat="36.8679" lon="-2.44594">
        <ele>89.33427</ele>
        <time>2021-07-19T10:18:48Z</time>
      </trkpt>
      <trkpt lat="36.86871" lon="-2.44578">
        <ele>81.37587</ele>
        <time>2021-07-19T10:18:59Z</time>
      </trkpt>
      <trkpt lat="36.8702" lon="-2.44524">
        <ele>75.46404</ele>
        <time>2021-07-19T10:19:10Z</time>
      </trkpt>
      <trkpt lat="36.87095" lon="-2.44489">
        <ele>76.50246</ele>
        <time>2021-07-19T10:19:21Z</time>
      </trkpt>
      <trkpt lat="36.871" lon="-2.44483">
        <ele>78.79475</ele>
        <time>2021-07-19T10:19:32Z</time>
      </trkpt>
      <trkpt lat="36.87129" lon="-2.44469">
        <ele>81.77549</ele>
        <time>2021-07-19T10:19:43Z</time>
      </trkpt>
      <trkpt lat="36.87151" lon="-2.44454">
        <ele>81.45551</ele>
        <time>2021-07-19T10:19:54Z</time>
      </trkpt>
      <trkpt lat="36.87236" lon="-2.44464">
        <ele>79.74987</ele>
        <time>2021-07-19T10:20:05Z</time>
      </trkpt>
      <trkpt lat="36.87279" lon="-2.44472">
        <ele>83.16193</ele>
        <time>2021-07-19T10:20:16Z</time>
      </trkpt>
      <trkpt lat="36.87345" lon="-2.44489">
        <ele>84.44986</ele>
        <time>2021-07-19T10:20:27Z</time>
      </trkpt>
      <trkpt lat="36.87422" lon="-2.44505">
        <ele>86.61833</ele>
        <time>2021-07-19T10:20:38Z</time>
      </trkpt>
      <trkpt lat="36.87515" lon="-2.44518">
        <ele>87.16761</ele>
        <time>2021-07-19T10:20:49Z</time>
      </trkpt>
      <trkpt lat="36.87631" lon="-2.44522">
        <ele>82.98117</ele>
        <time>2021-07-19T10:21:00Z</time>
      </trkpt>
      <trkpt lat="36.87754" lon="-2.44515">
        <ele>81.9242</ele>
        <time>2021-07-19T10:21:11Z</time>
      </trkpt>
      <trkpt lat="36.87902" lon="-2.44482">
        <ele>85.98856</ele>
        <time>2021-07-19T10:21:22Z</time>
      </trkpt>
      <trkpt lat="36.88059" lon="-2.44412">
        <ele>89.54341</ele>
        <time>2021-07-19T10:21:33Z</time>
      </trkpt>
      <trkpt lat="36.8821" lon="-2.44391">
        <ele>98.11397</ele>
        <time>2021-07-19T10:21:44Z</time>
      </trkpt>
      <trkpt lat="36.88303" lon="-2.44389">
        <ele>97.60454</ele>
        <time>2021-07-19T10:21:55Z</time>
      </trkpt>
      <trkpt lat="36.88373" lon="-2.44422">
        <ele>93.97402</ele>
        <time>2021-07-19T10:22:06Z</time>
      </trkpt>
      <trkpt lat="36.88405" lon="-2.44426">
        <ele>92.8114</ele>
        <time>2021-07-19T10:22:17Z</time>
      </trkpt>
      <trkpt lat="36.8841" lon="-2.44426">
        <ele>93.50431</ele>
        <time>2021-07-19T10:22:28Z</time>
      </trkpt>
      <trkpt lat="36.88499" lon="-2.44453">
        <ele>91.29063</ele>
        <time>2021-07-19T10:22:39Z</time>
      </trkpt>
      <trkpt lat="36.88632" lon="-2.44428">
        <ele>94.60213</ele>
        <time>2021-07-19T10:22:50Z</time>
      </trkpt>
      <trkpt lat="36.88753" lon="-2.44451">
        <ele>99.66311</ele>
        <time>2021-07-19T10:23:01Z</time>
      </trkpt>
      <trkpt lat="36.88831" lon="-2.44462">
        <ele>103.4952</ele>
        <time>2021-07-19T10:23:12Z</time>
      </trkpt>
      <trkpt lat="36.88939" lon="-2.44491">
        <ele>108.1537</ele>
        <time>2021-07-19T10:23:23Z</time>
      </trkpt>
      <trkpt lat="36.89064" lon="-2.44517">
        <ele>111.8719</ele>
        <time>2021-07-19T10:23:34Z</time>
      </trkpt>
      <trkpt lat="36.89125" lon="-2.44511">
        <ele>112.0936</ele>
        <time>2021-07-19T10:23:45Z</time>
      </trkpt>
      <trkpt lat="36.89205" lon="-2.4454">
        <ele>111.5144</ele>
        <time>2021-07-19T10:23:56Z</time>
      </trkpt>
      <trkpt lat="36.89331" lon="-2.44496">
        <ele>106.121</ele>
        <time>2021-07-19T10:24:07Z</time>
      </trkpt>
      <trkpt lat="36.89461" lon="-2.44453">
        <ele>109.7218</ele>
        <time>2021-07-19T10:24:18Z</time>
      </trkpt>
      <trkpt lat="36.89535" lon="-2.44453">
        <ele>110.0873</ele>
        <time>2021-07-19T10:24:29Z</time>
      </trkpt>
      <trkpt lat="36.89673" lon="-2.44482">
        <ele>108.033</ele>
        <time>2021-07-19T10:24:40Z</time>
      </trkpt>
      <trkpt lat="36.89819" lon="-2.44529">
        <ele>106.8815</ele>
        <time>2021-07-19T10:24:51Z</time>
      </trkpt>
      <trkpt lat="36.89954" lon="-2.44566">
        <ele>107.6436</ele>
        <time>2021-07-19T10:25:02Z</time>
      </trkpt>
      <trkpt lat="36.90148" lon="-2.44568">
        <ele>112.5255</ele>
        <time>2021-07-19T10:25:13Z</time>
      </trkpt>
      <trkpt lat="36.90311" lon="-2.44692">
        <ele>116.4506</ele>
        <time>2021-07-19T10:25:24Z</time>
      </trkpt>
      <trkpt lat="36.90444" lon="-2.44797">
        <ele>110.7648</ele>
        <time>2021-07-19T10:25:35Z</time>
      </trkpt>
      <trkpt lat="36.90543" lon="-2.4491">
        <ele>109.9692</ele>
        <time>2021-07-19T10:25:46Z</time>
      </trkpt>
      <trkpt lat="36.90691" lon="-2.4507">
        <ele>109.6957</ele>
        <time>2021-07-19T10:25:57Z</time>
      </trkpt>
      <trkpt lat="36.90858" lon="-2.45177">
        <ele>119.955</ele>
        <time>2021-07-19T10:26:08Z</time>
      </trkpt>
      <trkpt lat="36.90978" lon="-2.45364">
        <ele>131.794</ele>
        <time>2021-07-19T10:26:19Z</time>
      </trkpt>
      <trkpt lat="36.91042" lon="-2.45629">
        <ele>138.6155</ele>
        <time>2021-07-19T10:26:30Z</time>
      </trkpt>
      <trkpt lat="36.91206" lon="-2.45804">
        <ele>130.2515</ele>
        <time>2021-07-19T10:26:41Z</time>
      </trkpt>
      <trkpt lat="36.91422" lon="-2.45789">
        <ele>132.6858</ele>
        <time>2021-07-19T10:26:52Z</time>
      </trkpt>
      <trkpt lat="36.91603" lon="-2.45903">
        <ele>128.1706</ele>
        <time>2021-07-19T10:27:03Z</time>
      </trkpt>
      <trkpt lat="36.91799" lon="-2.4601">
        <ele>127.5595</ele>
        <time>2021-07-19T10:27:14Z</time>
      </trkpt>
      <trkpt lat="36.9201" lon="-2.46026">
        <ele>132.0076</ele>
        <time>2021-07-19T10:27:25Z</time>
      </trkpt>
      <trkpt lat="36.92164" lon="-2.4605">
        <ele>137.7793</ele>
        <time>2021-07-19T10:27:36Z</time>
      </trkpt>
      <trkpt lat="36.92226" lon="-2.46077">
        <ele>137.6888</ele>
        <time>2021-07-19T10:27:47Z</time>
      </trkpt>
      <trkpt lat="36.92289" lon="-2.46107">
        <ele>141.9919</ele>
        <time>2021-07-19T10:27:58Z</time>
      </trkpt>
      <trkpt lat="36.92372" lon="-2.46145">
        <ele>141.4474</ele>
        <time>2021-07-19T10:28:09Z</time>
      </trkpt>
      <trkpt lat="36.92462" lon="-2.46183">
        <ele>143.4815</ele>
        <time>2021-07-19T10:28:20Z</time>
      </trkpt>
      <trkpt lat="36.92565" lon="-2.46182">
        <ele>145.7687</ele>
        <time>2021-07-19T10:28:31Z</time>
      </trkpt>
      <trkpt lat="36.92629" lon="-2.46161">
        <ele>142.9534</ele>
        <time>2021-07-19T10:28:42Z</time>
      </trkpt>
      <trkpt lat="36.92698" lon="-2.46133">
        <ele>140.7382</ele>
        <time>2021-07-19T10:28:53Z</time>
      </trkpt>
      <trkpt lat="36.92829" lon="-2.46089">
        <ele>142.9324</ele>
        <time>2021-07-19T10:29:04Z</time>
      </trkpt>
      <trkpt lat="36.92964" lon="-2.46043">
        <ele>143.7127</ele>
        <time>2021-07-19T10:29:15Z</time>
      </trkpt>
      <trkpt lat="36.93137" lon="-2.46038">
        <ele>146.2899</ele>
        <time>2021-07-19T10:29:26Z</time>
      </trkpt>
      <trkpt lat="36.93258" lon="-2.46257">
        <ele>143.461</ele>
        <time>2021-07-19T10:29:37Z</time>
      </trkpt>
      <trkpt lat="36.9333" lon="-2.46466">
        <ele>139.1336</ele>
        <time>2021-07-19T10:29:48Z</time>
      </trkpt>
      <trkpt lat="36.93456" lon="-2.46423">
        <ele>144.3948</ele>
        <time>2021-07-19T10:29:59Z</time>
      </trkpt>
      <trkpt lat="36.93536" lon="-2.4624">
        <ele>137.9391</ele>
        <time>2021-07-19T10:30:10Z</time>
      </trkpt>
      <trkpt lat="36.93591" lon="-2.46138">
        <ele>137.0418</ele>
        <time>2021-07-19T10:30:21Z</time>
      </trkpt>
      <trkpt lat="36.93627" lon="-2.46103">
        <ele>135.8367</ele>
        <time>2021-07-19T10:30:32Z</time>
      </trkpt>
      <trkpt lat="36.9372" lon="-2.46018">
        <ele>135.0061</ele>
        <time>2021-07-19T10:30:43Z</time>
      </trkpt>
      <trkpt lat="36.93829" lon="-2.45917">
        <ele>134.1357</ele>
        <time>2021-07-19T10:30:54Z</time>
      </trkpt>
      <trkpt lat="36.93955" lon="-2.45923">
        <ele>132.5113</ele>
        <time>2021-07-19T10:31:05Z</time>
      </trkpt>
      <trkpt lat="36.94093" lon="-2.4604">
        <ele>130.6209</ele>
        <time>2021-07-19T10:31:16Z</time>
      </trkpt>
      <trkpt lat="36.94223" lon="-2.46149">
        <ele>129.4401</ele>
        <time>2021-07-19T10:31:27Z</time>
      </trkpt>
      <trkpt lat="36.94308" lon="-2.4622">
        <ele>131.4066</ele>
        <time>2021-07-19T10:31:38Z</time>
      </trkpt>
      <trkpt lat="36.94351" lon="-2.46256">
        <ele>133.9335</ele>
        <time>2021-07-19T10:31:49Z</time>
      </trkpt>
      <trkpt lat="36.94402" lon="-2.46298">
        <ele>137.2179</ele>
        <time>2021-07-19T10:32:00Z</time>
      </trkpt>
      <trkpt lat="36.94484" lon="-2.46302">
        <ele>138.0682</ele>
        <time>2021-07-19T10:32:11Z</time>
      </trkpt>
      <trkpt lat="36.94533" lon="-2.46374">
        <ele>135.336</ele>
        <time>2021-07-19T10:32:22Z</time>
      </trkpt>
      <trkpt lat="36.9458" lon="-2.46479">
        <ele>137.4005</ele>
        <time>2021-07-19T10:32:33Z</time>
      </trkpt>
      <trkpt lat="36.94627" lon="-2.46582">
        <ele>138.91</ele>
        <time>2021-07-19T10:32:44Z</time>
      </trkpt>
      <trkpt lat="36.94667" lon="-2.46677">
        <ele>139.9335</ele>
        <time>2021-07-19T10:32:55Z</time>
      </trkpt>
      <trkpt lat="36.94722" lon="-2.46801">
        <ele>137.3477</ele>
        <time>2021-07-19T10:33:06Z</time>
      </trkpt>
      <trkpt lat="36.94782" lon="-2.46921">
        <ele>138.4988</ele>
        <time>2021-07-19T10:33:17Z</time>
      </trkpt>
      <trkpt lat="36.94904" lon="-2.46986">
        <ele>138.7147</ele>
        <time>2021-07-19T10:33:28Z</time>
      </trkpt>
      <trkpt lat="36.95042" lon="-2.47025">
        <ele>141.5769</ele>
        <time>2021-07-19T10:33:39Z</time>
      </trkpt>
      <trkpt lat="36.95111" lon="-2.47006">
        <ele>143.7655</ele>
        <time>2021-07-19T10:33:50Z</time>
      </trkpt>
      <trkpt lat="36.95272" lon="-2.46959">
        <ele>146.274</ele>
        <time>2021-07-19T10:34:01Z</time>
      </trkpt>
      <trkpt lat="36.95486" lon="-2.46904">
        <ele>150.1279</ele>
        <time>2021-07-19T10:34:12Z</time>
      </trkpt>
      <trkpt lat="36.95722" lon="-2.46832">
        <ele>154.769</ele>
        <time>2021-07-19T10:34:23Z</time>
      </trkpt>
      <trkpt lat="36.9594" lon="-2.46737">
        <ele>157.0229</ele>
        <time>2021-07-19T10:34:34Z</time>
      </trkpt>
      <trkpt lat="36.96103" lon="-2.46706">
        <ele>162.8522</ele>
        <time>2021-07-19T10:34:45Z</time>
      </trkpt>
      <trkpt lat="36.96106" lon="-2.46557">
        <ele>165.6435</ele>
        <time>2021-07-19T10:34:56Z</time>
      </trkpt>
      <trkpt lat="36.96136" lon="-2.46479">
        <ele>166.0905</ele>
        <time>2021-07-19T10:35:07Z</time>
      </trkpt>
      <trkpt lat="36.96312" lon="-2.46582">
        <ele>160.8735</ele>
        <time>2021-07-19T10:35:18Z</time>
      </trkpt>
      <trkpt lat="36.96544" lon="-2.46522">
        <ele>160.4008</ele>
        <time>2021-07-19T10:35:29Z</time>
      </trkpt>
      <trkpt lat="36.96784" lon="-2.46479">
        <ele>162.8105</ele>
        <time>2021-07-19T10:35:40Z</time>
      </trkpt>
      <trkpt lat="36.97022" lon="-2.4647">
        <ele>167.5609</ele>
        <time>2021-07-19T10:35:51Z</time>
      </trkpt>
      <trkpt lat="36.97258" lon="-2.46462">
        <ele>169.9698</ele>
        <time>2021-07-19T10:36:02Z</time>
      </trkpt>
      <trkpt lat="36.97494" lon="-2.46452">
        <ele>178.3449</ele>
        <time>2021-07-19T10:36:13Z</time>
      </trkpt>
      <trkpt lat="36.97734" lon="-2.46443">
        <ele>186.507</ele>
        <time>2021-07-19T10:36:24Z</time>
      </trkpt>
      <trkpt lat="36.97976" lon="-2.46432">
        <ele>188.9796</ele>
        <time>2021-07-19T10:36:35Z</time>
      </trkpt>
      <trkpt lat="36.98193" lon="-2.46391">
        <ele>194.7428</ele>
        <time>2021-07-19T10:36:46Z</time>
      </trkpt>
      <trkpt lat="36.98429" lon="-2.46301">
        <ele>200.4495</ele>
        <time>2021-07-19T10:36:57Z</time>
      </trkpt>
      <trkpt lat="36.98669" lon="-2.463">
        <ele>200.9507</ele>
        <time>2021-07-19T10:37:08Z</time>
      </trkpt>
      <trkpt lat="36.9891" lon="-2.46332">
        <ele>201.3396</ele>
        <time>2021-07-19T10:37:19Z</time>
      </trkpt>
      <trkpt lat="36.99151" lon="-2.46283">
        <ele>200.3578</ele>
        <time>2021-07-19T10:37:30Z</time>
      </trkpt>
      <trkpt lat="36.9935" lon="-2.46384">
        <ele>210.7956</ele>
        <time>2021-07-19T10:37:41Z</time>
      </trkpt>
      <trkpt lat="36.99588" lon="-2.4635">
        <ele>225.0786</ele>
        <time>2021-07-19T10:37:52Z</time>
      </trkpt>
      <trkpt lat="36.99821" lon="-2.46228">
        <ele>236.1206</ele>
        <time>2021-07-19T10:38:03Z</time>
      </trkpt>
      <trkpt lat="37.00059" lon="-2.46127">
        <ele>238.995</ele>
        <time>2021-07-19T10:38:14Z</time>
      </trkpt>
      <trkpt lat="37.00237" lon="-2.45909">
        <ele>234.9659</ele>
        <time>2021-07-19T10:38:25Z</time>
      </trkpt>
      <trkpt lat="37.00429" lon="-2.4575">
        <ele>237.6848</ele>
        <time>2021-07-19T10:38:36Z</time>
      </trkpt>
      <trkpt lat="37.00623" lon="-2.45584">
        <ele>237.2588</ele>
        <time>2021-07-19T10:38:47Z</time>
      </trkpt>
      <trkpt lat="37.00794" lon="-2.45424">
        <ele>234.0167</ele>
        <time>2021-07-19T10:38:58Z</time>
      </trkpt>
      <trkpt lat="37.00967" lon="-2.45221">
        <ele>241.7879</ele>
        <time>2021-07-19T10:39:09Z</time>
      </trkpt>
      <trkpt lat="37.0111" lon="-2.44972">
        <ele>252.6984</ele>
        <time>2021-07-19T10:39:20Z</time>
      </trkpt>
      <trkpt lat="37.01254" lon="-2.44725">
        <ele>262.3873</ele>
        <time>2021-07-19T10:39:31Z</time>
      </trkpt>
      <trkpt lat="37.01458" lon="-2.44547">
        <ele>269.5003</ele>
        <time>2021-07-19T10:39:42Z</time>
      </trkpt>
      <trkpt lat="37.01706" lon="-2.44475">
        <ele>272.7687</ele>
        <time>2021-07-19T10:39:53Z</time>
      </trkpt>
      <trkpt lat="37.01838" lon="-2.44385">
        <ele>264.6383</ele>
        <time>2021-07-19T10:40:04Z</time>
      </trkpt>
      <trkpt lat="37.01856" lon="-2.44259">
        <ele>263.3748</ele>
        <time>2021-07-19T10:40:15Z</time>
      </trkpt>
      <trkpt lat="37.01975" lon="-2.44057">
        <ele>276.5031</ele>
        <time>2021-07-19T10:40:26Z</time>
      </trkpt>
      <trkpt lat="37.02032" lon="-2.4376">
        <ele>289.1098</ele>
        <time>2021-07-19T10:40:37Z</time>
      </trkpt>
      <trkpt lat="37.02119" lon="-2.43471">
        <ele>299.2457</ele>
        <time>2021-07-19T10:40:48Z</time>
      </trkpt>
      <trkpt lat="37.02292" lon="-2.43297">
        <ele>300.0421</ele>
        <time>2021-07-19T10:40:59Z</time>
      </trkpt>
      <trkpt lat="37.02428" lon="-2.43075">
        <ele>312.3171</ele>
        <time>2021-07-19T10:41:10Z</time>
      </trkpt>
      <trkpt lat="37.02531" lon="-2.42816">
        <ele>322.3519</ele>
        <time>2021-07-19T10:41:21Z</time>
      </trkpt>
      <trkpt lat="37.02728" lon="-2.42789">
        <ele>322.3758</ele>
        <time>2021-07-19T10:41:32Z</time>
      </trkpt>
      <trkpt lat="37.02917" lon="-2.42722">
        <ele>309.9589</ele>
        <time>2021-07-19T10:41:43Z</time>
      </trkpt>
      <trkpt lat="37.0304" lon="-2.42519">
        <ele>314.4727</ele>
        <time>2021-07-19T10:41:54Z</time>
      </trkpt>
      <trkpt lat="37.03087" lon="-2.42314">
        <ele>327.5525</ele>
        <time>2021-07-19T10:42:05Z</time>
      </trkpt>
      <trkpt lat="37.03233" lon="-2.42352">
        <ele>334.1719</ele>
        <time>2021-07-19T10:42:16Z</time>
      </trkpt>
      <trkpt lat="37.03394" lon="-2.42219">
        <ele>342.7505</ele>
        <time>2021-07-19T10:42:27Z</time>
      </trkpt>
      <trkpt lat="37.03523" lon="-2.41999">
        <ele>348.8211</ele>
        <time>2021-07-19T10:42:38Z</time>
      </trkpt>
      <trkpt lat="37.03654" lon="-2.41779">
        <ele>349.2475</ele>
        <time>2021-07-19T10:42:49Z</time>
      </trkpt>
      <trkpt lat="37.03787" lon="-2.41563">
        <ele>355.5272</ele>
        <time>2021-07-19T10:43:00Z</time>
      </trkpt>
      <trkpt lat="37.03961" lon="-2.41415">
        <ele>361.5784</ele>
        <time>2021-07-19T10:43:11Z</time>
      </trkpt>
      <trkpt lat="37.04149" lon="-2.41277">
        <ele>367.1241</ele>
        <time>2021-07-19T10:43:22Z</time>
      </trkpt>
      <trkpt lat="37.04245" lon="-2.41023">
        <ele>367.7718</ele>
        <time>2021-07-19T10:43:33Z</time>
      </trkpt>
      <trkpt lat="37.04212" lon="-2.40767">
        <ele>356.3756</ele>
        <time>2021-07-19T10:43:44Z</time>
      </trkpt>
      <trkpt lat="37.04238" lon="-2.40562">
        <ele>349.1283</ele>
        <time>2021-07-19T10:43:55Z</time>
      </trkpt>
      <trkpt lat="37.04455" lon="-2.40402">
        <ele>361.1246</ele>
        <time>2021-07-19T10:44:06Z</time>
      </trkpt>
      <trkpt lat="37.04678" lon="-2.40246">
        <ele>375.9143</ele>
        <time>2021-07-19T10:44:17Z</time>
      </trkpt>
      <trkpt lat="37.04897" lon="-2.40093">
        <ele>377.9707</ele>
        <time>2021-07-19T10:44:28Z</time>
      </trkpt>
      <trkpt lat="37.05108" lon="-2.39928">
        <ele>382.0886</ele>
        <time>2021-07-19T10:44:39Z</time>
      </trkpt>
      <trkpt lat="37.05305" lon="-2.39742">
        <ele>387.4568</ele>
        <time>2021-07-19T10:44:50Z</time>
      </trkpt>
      <trkpt lat="37.05493" lon="-2.39531">
        <ele>395.6336</ele>
        <time>2021-07-19T10:45:01Z</time>
      </trkpt>
      <trkpt lat="37.05675" lon="-2.393">
        <ele>408.0402</ele>
        <time>2021-07-19T10:45:12Z</time>
      </trkpt>
      <trkpt lat="37.0585" lon="-2.39064">
        <ele>424.0898</ele>
        <time>2021-07-19T10:45:23Z</time>
      </trkpt>
      <trkpt lat="37.06006" lon="-2.38857">
        <ele>432.778</ele>
        <time>2021-07-19T10:45:34Z</time>
      </trkpt>
      <trkpt lat="37.06098" lon="-2.38719">
        <ele>436.5278</ele>
        <time>2021-07-19T10:45:45Z</time>
      </trkpt>
      <trkpt lat="37.06174" lon="-2.38688">
        <ele>438.1403</ele>
        <time>2021-07-19T10:45:56Z</time>
      </trkpt>
      <trkpt lat="37.0631" lon="-2.38678">
        <ele>443.6546</ele>
        <time>2021-07-19T10:46:07Z</time>
      </trkpt>
      <trkpt lat="37.06491" lon="-2.38666">
        <ele>447.8246</ele>
        <time>2021-07-19T10:46:18Z</time>
      </trkpt>
      <trkpt lat="37.06701" lon="-2.38644">
        <ele>452.8453</ele>
        <time>2021-07-19T10:46:29Z</time>
      </trkpt>
      <trkpt lat="37.06916" lon="-2.38587">
        <ele>459.7653</ele>
        <time>2021-07-19T10:46:40Z</time>
      </trkpt>
      <trkpt lat="37.0712" lon="-2.38456">
        <ele>463.7129</ele>
        <time>2021-07-19T10:46:51Z</time>
      </trkpt>
      <trkpt lat="37.07326" lon="-2.3832">
        <ele>465.3964</ele>
        <time>2021-07-19T10:47:02Z</time>
      </trkpt>
      <trkpt lat="37.07529" lon="-2.38179">
        <ele>468.3016</ele>
        <time>2021-07-19T10:47:13Z</time>
      </trkpt>
      <trkpt lat="37.07737" lon="-2.38026">
        <ele>468.2342</ele>
        <time>2021-07-19T10:47:24Z</time>
      </trkpt>
      <trkpt lat="37.07923" lon="-2.37875">
        <ele>473.2647</ele>
        <time>2021-07-19T10:47:35Z</time>
      </trkpt>
      <trkpt lat="37.08135" lon="-2.37709">
        <ele>474.8336</ele>
        <time>2021-07-19T10:47:46Z</time>
      </trkpt>
      <trkpt lat="37.08339" lon="-2.3751">
        <ele>473.1795</ele>
        <time>2021-07-19T10:47:57Z</time>
      </trkpt>
      <trkpt lat="37.08551" lon="-2.37293">
        <ele>474.8041</ele>
        <time>2021-07-19T10:48:08Z</time>
      </trkpt>
      <trkpt lat="37.08771" lon="-2.37125">
        <ele>478.1938</ele>
        <time>2021-07-19T10:48:19Z</time>
      </trkpt>
      <trkpt lat="37.09001" lon="-2.3701">
        <ele>482.3141</ele>
        <time>2021-07-19T10:48:30Z</time>
      </trkpt>
      <trkpt lat="37.0924" lon="-2.36906">
        <ele>485.3962</ele>
        <time>2021-07-19T10:48:41Z</time>
      </trkpt>
      <trkpt lat="37.09453" lon="-2.36718">
        <ele>493.2017</ele>
        <time>2021-07-19T10:48:52Z</time>
      </trkpt>
      <trkpt lat="37.09653" lon="-2.3655">
        <ele>498.8756</ele>
        <time>2021-07-19T10:49:03Z</time>
      </trkpt>
      <trkpt lat="37.09863" lon="-2.36382">
        <ele>502.5649</ele>
        <time>2021-07-19T10:49:14Z</time>
      </trkpt>
      <trkpt lat="37.10059" lon="-2.36225">
        <ele>508.083</ele>
        <time>2021-07-19T10:49:25Z</time>
      </trkpt>
      <trkpt lat="37.10291" lon="-2.36059">
        <ele>515.741</ele>
        <time>2021-07-19T10:49:36Z</time>
      </trkpt>
      <trkpt lat="37.10506" lon="-2.35857">
        <ele>520.4082</ele>
        <time>2021-07-19T10:49:47Z</time>
      </trkpt>
      <trkpt lat="37.10705" lon="-2.3565">
        <ele>528.2523</ele>
        <time>2021-07-19T10:49:58Z</time>
      </trkpt>
      <trkpt lat="37.10949" lon="-2.35507">
        <ele>540.7591</ele>
        <time>2021-07-19T10:50:09Z</time>
      </trkpt>
      <trkpt lat="37.11198" lon="-2.3537">
        <ele>550.4196</ele>
        <time>2021-07-19T10:50:20Z</time>
      </trkpt>
      <trkpt lat="37.11448" lon="-2.35229">
        <ele>561.8597</ele>
        <time>2021-07-19T10:50:31Z</time>
      </trkpt>
      <trkpt lat="37.11708" lon="-2.35048">
        <ele>561.1362</ele>
        <time>2021-07-19T10:50:42Z</time>
      </trkpt>
      <trkpt lat="37.11943" lon="-2.34881">
        <ele>559.3233</ele>
        <time>2021-07-19T10:50:53Z</time>
      </trkpt>
      <trkpt lat="37.12182" lon="-2.3472">
        <ele>565.1411</ele>
        <time>2021-07-19T10:51:04Z</time>
      </trkpt>
      <trkpt lat="37.12424" lon="-2.34586">
        <ele>571.0704</ele>
        <time>2021-07-19T10:51:15Z</time>
      </trkpt>
      <trkpt lat="37.12687" lon="-2.34487">
        <ele>577.9107</ele>
        <time>2021-07-19T10:51:27Z</time>
      </trkpt>
      <trkpt lat="37.1295" lon="-2.34385">
        <ele>580.8365</ele>
        <time>2021-07-19T10:51:38Z</time>
      </trkpt>
      <trkpt lat="37.13168" lon="-2.34181">
        <ele>581.6788</ele>
        <time>2021-07-19T10:51:49Z</time>
      </trkpt>
      <trkpt lat="37.13425" lon="-2.34047">
        <ele>584.8911</ele>
        <time>2021-07-19T10:52:00Z</time>
      </trkpt>
      <trkpt lat="37.13691" lon="-2.33922">
        <ele>596.1206</ele>
        <time>2021-07-19T10:52:11Z</time>
      </trkpt>
      <trkpt lat="37.13947" lon="-2.3379">
        <ele>609.9539</ele>
        <time>2021-07-19T10:52:22Z</time>
      </trkpt>
      <trkpt lat="37.14208" lon="-2.33725">
        <ele>603.6671</ele>
        <time>2021-07-19T10:52:33Z</time>
      </trkpt>
      <trkpt lat="37.14453" lon="-2.33571">
        <ele>607.7377</ele>
        <time>2021-07-19T10:52:44Z</time>
      </trkpt>
      <trkpt lat="37.14651" lon="-2.33293">
        <ele>616.25</ele>
        <time>2021-07-19T10:52:55Z</time>
      </trkpt>
      <trkpt lat="37.14738" lon="-2.32962">
        <ele>630.1967</ele>
        <time>2021-07-19T10:53:06Z</time>
      </trkpt>
      <trkpt lat="37.14835" lon="-2.32634">
        <ele>635.0309</ele>
        <time>2021-07-19T10:53:17Z</time>
      </trkpt>
      <trkpt lat="37.15057" lon="-2.32413">
        <ele>644.1446</ele>
        <time>2021-07-19T10:53:28Z</time>
      </trkpt>
      <trkpt lat="37.15223" lon="-2.32173">
        <ele>659.6873</ele>
        <time>2021-07-19T10:53:39Z</time>
      </trkpt>
      <trkpt lat="37.1543" lon="-2.31933">
        <ele>677.129</ele>
        <time>2021-07-19T10:53:50Z</time>
      </trkpt>
      <trkpt lat="37.15647" lon="-2.31662">
        <ele>697.918</ele>
        <time>2021-07-19T10:54:01Z</time>
      </trkpt>
      <trkpt lat="37.15865" lon="-2.31433">
        <ele>713.7371</ele>
        <time>2021-07-19T10:54:12Z</time>
      </trkpt>
      <trkpt lat="37.16027" lon="-2.31162">
        <ele>732.8847</ele>
        <time>2021-07-19T10:54:23Z</time>
      </trkpt>
      <trkpt lat="37.16097" lon="-2.30827">
        <ele>746.3021</ele>
        <time>2021-07-19T10:54:34Z</time>
      </trkpt>
      <trkpt lat="37.16207" lon="-2.30508">
        <ele>757.4727</ele>
        <time>2021-07-19T10:54:45Z</time>
      </trkpt>
      <trkpt lat="37.16275" lon="-2.3017">
        <ele>770.0157</ele>
        <time>2021-07-19T10:54:56Z</time>
      </trkpt>
      <trkpt lat="37.16343" lon="-2.29836">
        <ele>788.1923</ele>
        <time>2021-07-19T10:55:07Z</time>
      </trkpt>
      <trkpt lat="37.16527" lon="-2.29575">
        <ele>805.744</ele>
        <time>2021-07-19T10:55:18Z</time>
      </trkpt>
      <trkpt lat="37.16796" lon="-2.29474">
        <ele>825.179</ele>
        <time>2021-07-19T10:55:29Z</time>
      </trkpt>
      <trkpt lat="37.17007" lon="-2.29384">
        <ele>839.6717</ele>
        <time>2021-07-19T10:55:40Z</time>
      </trkpt>
      <trkpt lat="37.17178" lon="-2.29283">
        <ele>846.2066</ele>
        <time>2021-07-19T10:55:51Z</time>
      </trkpt>
      <trkpt lat="37.17311" lon="-2.29169">
        <ele>850.1536</ele>
        <time>2021-07-19T10:56:02Z</time>
      </trkpt>
      <trkpt lat="37.17383" lon="-2.2902">
        <ele>857.6056</ele>
        <time>2021-07-19T10:56:13Z</time>
      </trkpt>
      <trkpt lat="37.17412" lon="-2.28838">
        <ele>869.4828</ele>
        <time>2021-07-19T10:56:24Z</time>
      </trkpt>
      <trkpt lat="37.17452" lon="-2.28559">
        <ele>885.1215</ele>
        <time>2021-07-19T10:56:35Z</time>
      </trkpt>
      <trkpt lat="37.17615" lon="-2.28273">
        <ele>903.826</ele>
        <time>2021-07-19T10:56:46Z</time>
      </trkpt>
      <trkpt lat="37.17759" lon="-2.27998">
        <ele>925.4114</ele>
        <time>2021-07-19T10:56:57Z</time>
      </trkpt>
      <trkpt lat="37.17919" lon="-2.27846">
        <ele>936.1529</ele>
        <time>2021-07-19T10:57:08Z</time>
      </trkpt>
      <trkpt lat="37.18095" lon="-2.28067">
        <ele>962.1495</ele>
        <time>2021-07-19T10:57:19Z</time>
      </trkpt>
      <trkpt lat="37.1835" lon="-2.28122">
        <ele>981.7546</ele>
        <time>2021-07-19T10:57:30Z</time>
      </trkpt>
      <trkpt lat="37.18619" lon="-2.28072">
        <ele>996.3302</ele>
        <time>2021-07-19T10:57:41Z</time>
      </trkpt>
      <trkpt lat="37.18849" lon="-2.28173">
        <ele>1015.611</ele>
        <time>2021-07-19T10:57:52Z</time>
      </trkpt>
      <trkpt lat="37.19066" lon="-2.2838">
        <ele>1035.619</ele>
        <time>2021-07-19T10:58:03Z</time>
      </trkpt>
      <trkpt lat="37.1921" lon="-2.28649">
        <ele>1056.719</ele>
        <time>2021-07-19T10:58:14Z</time>
      </trkpt>
      <trkpt lat="37.19228" lon="-2.28983">
        <ele>1077.088</ele>
        <time>2021-07-19T10:58:25Z</time>
      </trkpt>
      <trkpt lat="37.19447" lon="-2.29109">
        <ele>1099.67</ele>
        <time>2021-07-19T10:58:36Z</time>
      </trkpt>
      <trkpt lat="37.1972" lon="-2.29111">
        <ele>1122.452</ele>
        <time>2021-07-19T10:58:47Z</time>
      </trkpt>
      <trkpt lat="37.19972" lon="-2.29075">
        <ele>1141.935</ele>
        <time>2021-07-19T10:58:58Z</time>
      </trkpt>
      <trkpt lat="37.20238" lon="-2.29079">
        <ele>1159.297</ele>
        <time>2021-07-19T10:59:09Z</time>
      </trkpt>
      <trkpt lat="37.20428" lon="-2.29277">
        <ele>1177.012</ele>
        <time>2021-07-19T10:59:20Z</time>
      </trkpt>
      <trkpt lat="37.20595" lon="-2.29209">
        <ele>1194.32</ele>
        <time>2021-07-19T10:59:31Z</time>
      </trkpt>
      <trkpt lat="37.20732" lon="-2.2893">
        <ele>1209.65</ele>
        <time>2021-07-19T10:59:42Z</time>
      </trkpt>
      <trkpt lat="37.20904" lon="-2.28713">
        <ele>1226.489</ele>
        <time>2021-07-19T10:59:53Z</time>
      </trkpt>
      <trkpt lat="37.21046" lon="-2.28486">
        <ele>1241.447</ele>
        <time>2021-07-19T11:00:04Z</time>
      </trkpt>
      <trkpt lat="37.21248" lon="-2.28552">
        <ele>1231.258</ele>
        <time>2021-07-19T11:00:15Z</time>
      </trkpt>
      <trkpt lat="37.21249" lon="-2.28867">
        <ele>1221.226</ele>
        <time>2021-07-19T11:00:26Z</time>
      </trkpt>
      <trkpt lat="37.21258" lon="-2.2914">
        <ele>1205.005</ele>
        <time>2021-07-19T11:00:37Z</time>
      </trkpt>
      <trkpt lat="37.21342" lon="-2.29399">
        <ele>1189.907</ele>
        <time>2021-07-19T11:00:48Z</time>
      </trkpt>
      <trkpt lat="37.21505" lon="-2.29507">
        <ele>1175.745</ele>
        <time>2021-07-19T11:00:59Z</time>
      </trkpt>
      <trkpt lat="37.21616" lon="-2.29347">
        <ele>1165.008</ele>
        <time>2021-07-19T11:01:10Z</time>
      </trkpt>
      <trkpt lat="37.21704" lon="-2.29469">
        <ele>1158.29</ele>
        <time>2021-07-19T11:01:21Z</time>
      </trkpt>
      <trkpt lat="37.21648" lon="-2.29697">
        <ele>1156.398</ele>
        <time>2021-07-19T11:01:32Z</time>
      </trkpt>
      <trkpt lat="37.21779" lon="-2.29752">
        <ele>1145.177</ele>
        <time>2021-07-19T11:01:43Z</time>
      </trkpt>
      <trkpt lat="37.2193" lon="-2.29542">
        <ele>1129.796</ele>
        <time>2021-07-19T11:01:54Z</time>
      </trkpt>
      <trkpt lat="37.22074" lon="-2.29318">
        <ele>1122.754</ele>
        <time>2021-07-19T11:02:05Z</time>
      </trkpt>
      <trkpt lat="37.22205" lon="-2.29286">
        <ele>1116.03</ele>
        <time>2021-07-19T11:02:16Z</time>
      </trkpt>
      <trkpt lat="37.22205" lon="-2.29503">
        <ele>1109.502</ele>
        <time>2021-07-19T11:02:27Z</time>
      </trkpt>
      <trkpt lat="37.22283" lon="-2.2971">
        <ele>1103.943</ele>
        <time>2021-07-19T11:02:38Z</time>
      </trkpt>
      <trkpt lat="37.2231" lon="-2.29893">
        <ele>1101.669</ele>
        <time>2021-07-19T11:02:49Z</time>
      </trkpt>
      <trkpt lat="37.22451" lon="-2.29862">
        <ele>1096.938</ele>
        <time>2021-07-19T11:03:00Z</time>
      </trkpt>
      <trkpt lat="37.2253" lon="-2.29657">
        <ele>1083.076</ele>
        <time>2021-07-19T11:03:11Z</time>
      </trkpt>
      <trkpt lat="37.22616" lon="-2.2953">
        <ele>1075.742</ele>
        <time>2021-07-19T11:03:22Z</time>
      </trkpt>
      <trkpt lat="37.22763" lon="-2.29358">
        <ele>1074.165</ele>
        <time>2021-07-19T11:03:33Z</time>
      </trkpt>
      <trkpt lat="37.22921" lon="-2.29585">
        <ele>1059.019</ele>
        <time>2021-07-19T11:03:44Z</time>
      </trkpt>
      <trkpt lat="37.23092" lon="-2.29662">
        <ele>1046.499</ele>
        <time>2021-07-19T11:03:55Z</time>
      </trkpt>
      <trkpt lat="37.23278" lon="-2.29678">
        <ele>1050.131</ele>
        <time>2021-07-19T11:04:06Z</time>
      </trkpt>
      <trkpt lat="37.23346" lon="-2.29444">
        <ele>1064.244</ele>
        <time>2021-07-19T11:04:17Z</time>
      </trkpt>
      <trkpt lat="37.23567" lon="-2.29281">
        <ele>1071.748</ele>
        <time>2021-07-19T11:04:28Z</time>
      </trkpt>
      <trkpt lat="37.23776" lon="-2.29274">
        <ele>1071.445</ele>
        <time>2021-07-19T11:04:39Z</time>
      </trkpt>
      <trkpt lat="37.23978" lon="-2.29198">
        <ele>1079.99</ele>
        <time>2021-07-19T11:04:50Z</time>
      </trkpt>
      <trkpt lat="37.24207" lon="-2.29302">
        <ele>1086.336</ele>
        <time>2021-07-19T11:05:01Z</time>
      </trkpt>
      <trkpt lat="37.2441" lon="-2.29349">
        <ele>1089.47</ele>
        <time>2021-07-19T11:05:12Z</time>
      </trkpt>
      <trkpt lat="37.24393" lon="-2.29599">
        <ele>1098.992</ele>
        <time>2021-07-19T11:05:23Z</time>
      </trkpt>
      <trkpt lat="37.24564" lon="-2.29563">
        <ele>1099.309</ele>
        <time>2021-07-19T11:05:34Z</time>
      </trkpt>
      <trkpt lat="37.24718" lon="-2.29592">
        <ele>1098.919</ele>
        <time>2021-07-19T11:05:45Z</time>
      </trkpt>
      <trkpt lat="37.24866" lon="-2.29632">
        <ele>1102.179</ele>
        <time>2021-07-19T11:05:56Z</time>
      </trkpt>
      <trkpt lat="37.2503" lon="-2.29641">
        <ele>1106.339</ele>
        <time>2021-07-19T11:06:07Z</time>
      </trkpt>
      <trkpt lat="37.25175" lon="-2.29516">
        <ele>1112.463</ele>
        <time>2021-07-19T11:06:18Z</time>
      </trkpt>
      <trkpt lat="37.2535" lon="-2.29442">
        <ele>1115.96</ele>
        <time>2021-07-19T11:06:29Z</time>
      </trkpt>
      <trkpt lat="37.25565" lon="-2.29501">
        <ele>1123.899</ele>
        <time>2021-07-19T11:06:40Z</time>
      </trkpt>
      <trkpt lat="37.25741" lon="-2.29593">
        <ele>1121.965</ele>
        <time>2021-07-19T11:06:51Z</time>
      </trkpt>
      <trkpt lat="37.258" lon="-2.29787">
        <ele>1123.066</ele>
        <time>2021-07-19T11:07:02Z</time>
      </trkpt>
      <trkpt lat="37.26021" lon="-2.29855">
        <ele>1127.161</ele>
        <time>2021-07-19T11:07:13Z</time>
      </trkpt>
      <trkpt lat="37.26207" lon="-2.30033">
        <ele>1135.784</ele>
        <time>2021-07-19T11:07:24Z</time>
      </trkpt>
      <trkpt lat="37.26335" lon="-2.30265">
        <ele>1153.96</ele>
        <time>2021-07-19T11:07:35Z</time>
      </trkpt>
      <trkpt lat="37.26519" lon="-2.30385">
        <ele>1164.93</ele>
        <time>2021-07-19T11:07:46Z</time>
      </trkpt>
      <trkpt lat="37.26733" lon="-2.30372">
        <ele>1152.315</ele>
        <time>2021-07-19T11:07:57Z</time>
      </trkpt>
      <trkpt lat="37.26852" lon="-2.30143">
        <ele>1141.386</ele>
        <time>2021-07-19T11:08:08Z</time>
      </trkpt>
      <trkpt lat="37.27077" lon="-2.30165">
        <ele>1133.107</ele>
        <time>2021-07-19T11:08:19Z</time>
      </trkpt>
      <trkpt lat="37.27321" lon="-2.3031">
        <ele>1121.713</ele>
        <time>2021-07-19T11:08:30Z</time>
      </trkpt>
      <trkpt lat="37.27494" lon="-2.30136">
        <ele>1110.913</ele>
        <time>2021-07-19T11:08:41Z</time>
      </trkpt>
      <trkpt lat="37.27432" lon="-2.29874">
        <ele>1094.709</ele>
        <time>2021-07-19T11:08:52Z</time>
      </trkpt>
      <trkpt lat="37.27492" lon="-2.296">
        <ele>1074.901</ele>
        <time>2021-07-19T11:09:03Z</time>
      </trkpt>
      <trkpt lat="37.2769" lon="-2.29508">
        <ele>1058.971</ele>
        <time>2021-07-19T11:09:14Z</time>
      </trkpt>
      <trkpt lat="37.27915" lon="-2.29446">
        <ele>1041.593</ele>
        <time>2021-07-19T11:09:25Z</time>
      </trkpt>
      <trkpt lat="37.28122" lon="-2.29401">
        <ele>1021.778</ele>
        <time>2021-07-19T11:09:36Z</time>
      </trkpt>
      <trkpt lat="37.28144" lon="-2.29123">
        <ele>1008.762</ele>
        <time>2021-07-19T11:09:47Z</time>
      </trkpt>
      <trkpt lat="37.2832" lon="-2.29087">
        <ele>997.8472</ele>
        <time>2021-07-19T11:09:58Z</time>
      </trkpt>
      <trkpt lat="37.28497" lon="-2.29043">
        <ele>984.503</ele>
        <time>2021-07-19T11:10:09Z</time>
      </trkpt>
      <trkpt lat="37.28427" lon="-2.28732">
        <ele>963.8971</ele>
        <time>2021-07-19T11:10:21Z</time>
      </trkpt>
      <trkpt lat="37.28571" lon="-2.28609">
        <ele>945.7345</ele>
        <time>2021-07-19T11:10:32Z</time>
      </trkpt>
      <trkpt lat="37.28573" lon="-2.28395">
        <ele>933.4075</ele>
        <time>2021-07-19T11:10:43Z</time>
      </trkpt>
      <trkpt lat="37.2865" lon="-2.28143">
        <ele>917.6296</ele>
        <time>2021-07-19T11:10:54Z</time>
      </trkpt>
      <trkpt lat="37.28852" lon="-2.28033">
        <ele>899.2197</ele>
        <time>2021-07-19T11:11:05Z</time>
      </trkpt>
      <trkpt lat="37.29017" lon="-2.27964">
        <ele>886.9808</ele>
        <time>2021-07-19T11:11:16Z</time>
      </trkpt>
      <trkpt lat="37.29225" lon="-2.2798">
        <ele>869.4543</ele>
        <time>2021-07-19T11:11:27Z</time>
      </trkpt>
      <trkpt lat="37.29414" lon="-2.27884">
        <ele>848.4808</ele>
        <time>2021-07-19T11:11:38Z</time>
      </trkpt>
      <trkpt lat="37.29602" lon="-2.27782">
        <ele>833.5868</ele>
        <time>2021-07-19T11:11:49Z</time>
      </trkpt>
      <trkpt lat="37.29797" lon="-2.27673">
        <ele>829.0085</ele>
        <time>2021-07-19T11:12:00Z</time>
      </trkpt>
      <trkpt lat="37.30033" lon="-2.27765">
        <ele>827.8322</ele>
        <time>2021-07-19T11:12:11Z</time>
      </trkpt>
      <trkpt lat="37.30181" lon="-2.28001">
        <ele>827.2587</ele>
        <time>2021-07-19T11:12:22Z</time>
      </trkpt>
      <trkpt lat="37.3028" lon="-2.2824">
        <ele>832.7012</ele>
        <time>2021-07-19T11:12:33Z</time>
      </trkpt>
      <trkpt lat="37.30552" lon="-2.28275">
        <ele>854.0862</ele>
        <time>2021-07-19T11:12:44Z</time>
      </trkpt>
      <trkpt lat="37.30802" lon="-2.28348">
        <ele>868.5878</ele>
        <time>2021-07-19T11:12:55Z</time>
      </trkpt>
      <trkpt lat="37.3102" lon="-2.28233">
        <ele>883.3161</ele>
        <time>2021-07-19T11:13:06Z</time>
      </trkpt>
      <trkpt lat="37.31278" lon="-2.28223">
        <ele>870.2929</ele>
        <time>2021-07-19T11:13:17Z</time>
      </trkpt>
      <trkpt lat="37.3151" lon="-2.2813">
        <ele>848.7867</ele>
        <time>2021-07-19T11:13:28Z</time>
      </trkpt>
      <trkpt lat="37.31679" lon="-2.28167">
        <ele>834.2142</ele>
        <time>2021-07-19T11:13:39Z</time>
      </trkpt>
      <trkpt lat="37.31655" lon="-2.28417">
        <ele>820.2981</ele>
        <time>2021-07-19T11:13:50Z</time>
      </trkpt>
      <trkpt lat="37.31756" lon="-2.28488">
        <ele>819.9501</ele>
        <time>2021-07-19T11:14:01Z</time>
      </trkpt>
      <trkpt lat="37.31908" lon="-2.28471">
        <ele>814.0203</ele>
        <time>2021-07-19T11:14:12Z</time>
      </trkpt>
      <trkpt lat="37.32026" lon="-2.28346">
        <ele>802.7335</ele>
        <time>2021-07-19T11:14:23Z</time>
      </trkpt>
      <trkpt lat="37.32134" lon="-2.28222">
        <ele>789.9664</ele>
        <time>2021-07-19T11:14:34Z</time>
      </trkpt>
      <trkpt lat="37.32227" lon="-2.27969">
        <ele>776.4227</ele>
        <time>2021-07-19T11:14:45Z</time>
      </trkpt>
      <trkpt lat="37.32343" lon="-2.27595">
        <ele>750.4249</ele>
        <time>2021-07-19T11:14:56Z</time>
      </trkpt>
      <trkpt lat="37.32476" lon="-2.27325">
        <ele>725.033</ele>
        <time>2021-07-19T11:15:07Z</time>
      </trkpt>
      <trkpt lat="37.32583" lon="-2.27254">
        <ele>717.5339</ele>
        <time>2021-07-19T11:15:18Z</time>
      </trkpt>
      <trkpt lat="37.32677" lon="-2.27239">
        <ele>711.0328</ele>
        <time>2021-07-19T11:15:29Z</time>
      </trkpt>
      <trkpt lat="37.32768" lon="-2.27259">
        <ele>703.6807</ele>
        <time>2021-07-19T11:15:40Z</time>
      </trkpt>
      <trkpt lat="37.3285" lon="-2.27309">
        <ele>698.1573</ele>
        <time>2021-07-19T11:15:51Z</time>
      </trkpt>
      <trkpt lat="37.32923" lon="-2.27388">
        <ele>689.0881</ele>
        <time>2021-07-19T11:16:02Z</time>
      </trkpt>
      <trkpt lat="37.3298" lon="-2.27481">
        <ele>682.3142</ele>
        <time>2021-07-19T11:16:13Z</time>
      </trkpt>
      <trkpt lat="37.33041" lon="-2.2767">
        <ele>671.1304</ele>
        <time>2021-07-19T11:16:24Z</time>
      </trkpt>
      <trkpt lat="37.33074" lon="-2.28019">
        <ele>649.4919</ele>
        <time>2021-07-19T11:16:35Z</time>
      </trkpt>
      <trkpt lat="37.33062" lon="-2.28337">
        <ele>628.2155</ele>
        <time>2021-07-19T11:16:46Z</time>
      </trkpt>
      <trkpt lat="37.33165" lon="-2.287">
        <ele>604.3119</ele>
        <time>2021-07-19T11:16:57Z</time>
      </trkpt>
      <trkpt lat="37.33406" lon="-2.28857">
        <ele>582.0064</ele>
        <time>2021-07-19T11:17:08Z</time>
      </trkpt>
      <trkpt lat="37.33667" lon="-2.28922">
        <ele>560.3512</ele>
        <time>2021-07-19T11:17:19Z</time>
      </trkpt>
      <trkpt lat="37.33825" lon="-2.29206">
        <ele>544.1394</ele>
        <time>2021-07-19T11:17:30Z</time>
      </trkpt>
      <trkpt lat="37.34012" lon="-2.29427">
        <ele>527.1432</ele>
        <time>2021-07-19T11:17:41Z</time>
      </trkpt>
      <trkpt lat="37.34276" lon="-2.29377">
        <ele>504.4366</ele>
        <time>2021-07-19T11:17:52Z</time>
      </trkpt>
      <trkpt lat="37.34522" lon="-2.29276">
        <ele>492.2228</ele>
        <time>2021-07-19T11:18:03Z</time>
      </trkpt>
      <trkpt lat="37.34734" lon="-2.29158">
        <ele>473.7546</ele>
        <time>2021-07-19T11:18:14Z</time>
      </trkpt>
      <trkpt lat="37.34942" lon="-2.29178">
        <ele>455.9488</ele>
        <time>2021-07-19T11:18:25Z</time>
      </trkpt>
      <trkpt lat="37.35081" lon="-2.29329">
        <ele>454.1937</ele>
        <time>2021-07-19T11:18:36Z</time>
      </trkpt>
      <trkpt lat="37.35264" lon="-2.29238">
        <ele>458.8165</ele>
        <time>2021-07-19T11:18:47Z</time>
      </trkpt>
      <trkpt lat="37.35434" lon="-2.29059">
        <ele>454.4772</ele>
        <time>2021-07-19T11:18:58Z</time>
      </trkpt>
      <trkpt lat="37.35545" lon="-2.29009">
        <ele>452.3967</ele>
        <time>2021-07-19T11:19:09Z</time>
      </trkpt>
      <trkpt lat="37.35573" lon="-2.28995">
        <ele>453.3629</ele>
        <time>2021-07-19T11:19:20Z</time>
      </trkpt>
      <trkpt lat="37.35632" lon="-2.28924">
        <ele>453.8033</ele>
        <time>2021-07-19T11:19:31Z</time>
      </trkpt>
      <trkpt lat="37.35672" lon="-2.28823">
        <ele>458.412</ele>
        <time>2021-07-19T11:19:42Z</time>
      </trkpt>
      <trkpt lat="37.35719" lon="-2.28723">
        <ele>463.2559</ele>
        <time>2021-07-19T11:19:53Z</time>
      </trkpt>
      <trkpt lat="37.35762" lon="-2.28591">
        <ele>462.0952</ele>
        <time>2021-07-19T11:20:04Z</time>
      </trkpt>
      <trkpt lat="37.35775" lon="-2.28422">
        <ele>455.3057</ele>
        <time>2021-07-19T11:20:15Z</time>
      </trkpt>
      <trkpt lat="37.35904" lon="-2.2835">
        <ele>453.2568</ele>
        <time>2021-07-19T11:20:26Z</time>
      </trkpt>
      <trkpt lat="37.35869" lon="-2.28366">
        <ele>455.3269</ele>
        <time>2021-07-19T11:20:37Z</time>
      </trkpt>
      <trkpt lat="37.35846" lon="-2.28518">
        <ele>453.906</ele>
        <time>2021-07-19T11:20:48Z</time>
      </trkpt>
      <trkpt lat="37.35819" lon="-2.28672">
        <ele>456.8623</ele>
        <time>2021-07-19T11:20:59Z</time>
      </trkpt>
      <trkpt lat="37.35788" lon="-2.28853">
        <ele>459.1978</ele>
        <time>2021-07-19T11:21:10Z</time>
      </trkpt>
      <trkpt lat="37.35789" lon="-2.29072">
        <ele>462.6522</ele>
        <time>2021-07-19T11:21:21Z</time>
      </trkpt>
      <trkpt lat="37.35844" lon="-2.29377">
        <ele>469.0004</ele>
        <time>2021-07-19T11:21:32Z</time>
      </trkpt>
      <trkpt lat="37.35946" lon="-2.29604">
        <ele>471.8244</ele>
        <time>2021-07-19T11:21:43Z</time>
      </trkpt>
      <trkpt lat="37.36069" lon="-2.29808">
        <ele>476.2113</ele>
        <time>2021-07-19T11:21:54Z</time>
      </trkpt>
      <trkpt lat="37.36192" lon="-2.30017">
        <ele>480.2269</ele>
        <time>2021-07-19T11:22:05Z</time>
      </trkpt>
      <trkpt lat="37.36303" lon="-2.30242">
        <ele>488.1208</ele>
        <time>2021-07-19T11:22:16Z</time>
      </trkpt>
      <trkpt lat="37.36361" lon="-2.30514">
        <ele>493.3302</ele>
        <time>2021-07-19T11:22:27Z</time>
      </trkpt>
      <trkpt lat="37.36364" lon="-2.30832">
        <ele>496.9741</ele>
        <time>2021-07-19T11:22:38Z</time>
      </trkpt>
      <trkpt lat="37.36365" lon="-2.31153">
        <ele>498.585</ele>
        <time>2021-07-19T11:22:49Z</time>
      </trkpt>
      <trkpt lat="37.36351" lon="-2.31469">
        <ele>496.6196</ele>
        <time>2021-07-19T11:23:00Z</time>
      </trkpt>
      <trkpt lat="37.36205" lon="-2.31748">
        <ele>496.3569</ele>
        <time>2021-07-19T11:23:11Z</time>
      </trkpt>
      <trkpt lat="37.36056" lon="-2.32001">
        <ele>509.7932</ele>
        <time>2021-07-19T11:23:22Z</time>
      </trkpt>
      <trkpt lat="37.35893" lon="-2.3225">
        <ele>510.7147</ele>
        <time>2021-07-19T11:23:33Z</time>
      </trkpt>
      <trkpt lat="37.35943" lon="-2.32596">
        <ele>505.1438</ele>
        <time>2021-07-19T11:23:44Z</time>
      </trkpt>
      <trkpt lat="37.35871" lon="-2.32935">
        <ele>506.8646</ele>
        <time>2021-07-19T11:23:55Z</time>
      </trkpt>
      <trkpt lat="37.35831" lon="-2.3327">
        <ele>509.208</ele>
        <time>2021-07-19T11:24:06Z</time>
      </trkpt>
      <trkpt lat="37.35824" lon="-2.33606">
        <ele>513.5048</ele>
        <time>2021-07-19T11:24:17Z</time>
      </trkpt>
      <trkpt lat="37.35871" lon="-2.33939">
        <ele>516.9892</ele>
        <time>2021-07-19T11:24:28Z</time>
      </trkpt>
      <trkpt lat="37.35964" lon="-2.34248">
        <ele>519.8238</ele>
        <time>2021-07-19T11:24:39Z</time>
      </trkpt>
      <trkpt lat="37.35966" lon="-2.34519">
        <ele>517.0719</ele>
        <time>2021-07-19T11:24:50Z</time>
      </trkpt>
      <trkpt lat="37.35817" lon="-2.34731">
        <ele>513.7263</ele>
        <time>2021-07-19T11:25:01Z</time>
      </trkpt>
      <trkpt lat="37.35632" lon="-2.34886">
        <ele>512.0197</ele>
        <time>2021-07-19T11:25:12Z</time>
      </trkpt>
      <trkpt lat="37.35425" lon="-2.35035">
        <ele>523.5376</ele>
        <time>2021-07-19T11:25:23Z</time>
      </trkpt>
      <trkpt lat="37.35207" lon="-2.35173">
        <ele>525.1743</ele>
        <time>2021-07-19T11:25:34Z</time>
      </trkpt>
      <trkpt lat="37.35043" lon="-2.35392">
        <ele>531.322</ele>
        <time>2021-07-19T11:25:45Z</time>
      </trkpt>
      <trkpt lat="37.35042" lon="-2.35693">
        <ele>535.9545</ele>
        <time>2021-07-19T11:25:56Z</time>
      </trkpt>
      <trkpt lat="37.35179" lon="-2.35965">
        <ele>541.6399</ele>
        <time>2021-07-19T11:26:07Z</time>
      </trkpt>
      <trkpt lat="37.35258" lon="-2.36269">
        <ele>546.8348</ele>
        <time>2021-07-19T11:26:18Z</time>
      </trkpt>
      <trkpt lat="37.35278" lon="-2.36599">
        <ele>546.3438</ele>
        <time>2021-07-19T11:26:29Z</time>
      </trkpt>
      <trkpt lat="37.353" lon="-2.36935">
        <ele>544.8803</ele>
        <time>2021-07-19T11:26:40Z</time>
      </trkpt>
      <trkpt lat="37.35242" lon="-2.37234">
        <ele>556.4496</ele>
        <time>2021-07-19T11:26:51Z</time>
      </trkpt>
      <trkpt lat="37.35155" lon="-2.37499">
        <ele>559.4812</ele>
        <time>2021-07-19T11:27:02Z</time>
      </trkpt>
      <trkpt lat="37.35204" lon="-2.37814">
        <ele>567.1917</ele>
        <time>2021-07-19T11:27:13Z</time>
      </trkpt>
      <trkpt lat="37.35246" lon="-2.38123">
        <ele>575.9539</ele>
        <time>2021-07-19T11:27:24Z</time>
      </trkpt>
      <trkpt lat="37.35027" lon="-2.38264">
        <ele>592.2083</ele>
        <time>2021-07-19T11:27:35Z</time>
      </trkpt>
      <trkpt lat="37.34846" lon="-2.38477">
        <ele>607.2588</ele>
        <time>2021-07-19T11:27:46Z</time>
      </trkpt>
      <trkpt lat="37.34829" lon="-2.388">
        <ele>620.7702</ele>
        <time>2021-07-19T11:27:57Z</time>
      </trkpt>
      <trkpt lat="37.34761" lon="-2.39108">
        <ele>609.9962</ele>
        <time>2021-07-19T11:28:08Z</time>
      </trkpt>
      <trkpt lat="37.34883" lon="-2.3942">
        <ele>590.7264</ele>
        <time>2021-07-19T11:28:19Z</time>
      </trkpt>
      <trkpt lat="37.35016" lon="-2.39701">
        <ele>589.0947</ele>
        <time>2021-07-19T11:28:30Z</time>
      </trkpt>
      <trkpt lat="37.3491" lon="-2.39985">
        <ele>602.0796</ele>
        <time>2021-07-19T11:28:41Z</time>
      </trkpt>
      <trkpt lat="37.349" lon="-2.40317">
        <ele>612.0676</ele>
        <time>2021-07-19T11:28:52Z</time>
      </trkpt>
      <trkpt lat="37.34958" lon="-2.40645">
        <ele>615.6386</ele>
        <time>2021-07-19T11:29:03Z</time>
      </trkpt>
      <trkpt lat="37.34997" lon="-2.40965">
        <ele>609.3228</ele>
        <time>2021-07-19T11:29:14Z</time>
      </trkpt>
      <trkpt lat="37.35122" lon="-2.41237">
        <ele>611.8637</ele>
        <time>2021-07-19T11:29:25Z</time>
      </trkpt>
      <trkpt lat="37.35203" lon="-2.41524">
        <ele>622.2556</ele>
        <time>2021-07-19T11:29:36Z</time>
      </trkpt>
      <trkpt lat="37.35045" lon="-2.41758">
        <ele>622.7131</ele>
        <time>2021-07-19T11:29:47Z</time>
      </trkpt>
      <trkpt lat="37.34883" lon="-2.41993">
        <ele>631.6977</ele>
        <time>2021-07-19T11:29:58Z</time>
      </trkpt>
      <trkpt lat="37.34877" lon="-2.42278">
        <ele>633.8802</ele>
        <time>2021-07-19T11:30:09Z</time>
      </trkpt>
      <trkpt lat="37.34922" lon="-2.42455">
        <ele>642.1284</ele>
        <time>2021-07-19T11:30:20Z</time>
      </trkpt>
      <trkpt lat="37.34957" lon="-2.42737">
        <ele>655.9477</ele>
        <time>2021-07-19T11:30:31Z</time>
      </trkpt>
      <trkpt lat="37.3497" lon="-2.43025">
        <ele>666.5585</ele>
        <time>2021-07-19T11:30:42Z</time>
      </trkpt>
      <trkpt lat="37.34943" lon="-2.43347">
        <ele>666.369</ele>
        <time>2021-07-19T11:30:53Z</time>
      </trkpt>
      <trkpt lat="37.34907" lon="-2.43681">
        <ele>662.7177</ele>
        <time>2021-07-19T11:31:04Z</time>
      </trkpt>
      <trkpt lat="37.34879" lon="-2.44015">
        <ele>666.366</ele>
        <time>2021-07-19T11:31:15Z</time>
      </trkpt>
      <trkpt lat="37.34919" lon="-2.44312">
        <ele>662.3818</ele>
        <time>2021-07-19T11:31:26Z</time>
      </trkpt>
      <trkpt lat="37.35041" lon="-2.44623">
        <ele>663.6494</ele>
        <time>2021-07-19T11:31:37Z</time>
      </trkpt>
      <trkpt lat="37.35138" lon="-2.44924">
        <ele>661.9737</ele>
        <time>2021-07-19T11:31:48Z</time>
      </trkpt>
      <trkpt lat="37.35129" lon="-2.45255">
        <ele>662.9054</ele>
        <time>2021-07-19T11:31:59Z</time>
      </trkpt>
      <trkpt lat="37.35185" lon="-2.45582">
        <ele>669.8782</ele>
        <time>2021-07-19T11:32:10Z</time>
      </trkpt>
      <trkpt lat="37.35092" lon="-2.45882">
        <ele>680.4383</ele>
        <time>2021-07-19T11:32:21Z</time>
      </trkpt>
      <trkpt lat="37.34911" lon="-2.46138">
        <ele>689.8976</ele>
        <time>2021-07-19T11:32:32Z</time>
      </trkpt>
      <trkpt lat="37.34776" lon="-2.46425">
        <ele>691.9405</ele>
        <time>2021-07-19T11:32:43Z</time>
      </trkpt>
      <trkpt lat="37.34713" lon="-2.46752">
        <ele>692.6389</ele>
        <time>2021-07-19T11:32:54Z</time>
      </trkpt>
      <trkpt lat="37.3465" lon="-2.47075">
        <ele>703.3903</ele>
        <time>2021-07-19T11:33:05Z</time>
      </trkpt>
      <trkpt lat="37.34544" lon="-2.47346">
        <ele>715.1359</ele>
        <time>2021-07-19T11:33:16Z</time>
      </trkpt>
      <trkpt lat="37.34397" lon="-2.47544">
        <ele>720.6029</ele>
        <time>2021-07-19T11:33:27Z</time>
      </trkpt>
      <trkpt lat="37.34218" lon="-2.47753">
        <ele>717.6941</ele>
        <time>2021-07-19T11:33:38Z</time>
      </trkpt>
      <trkpt lat="37.3404" lon="-2.47957">
        <ele>721.9058</ele>
        <time>2021-07-19T11:33:49Z</time>
      </trkpt>
      <trkpt lat="37.3395" lon="-2.48278">
        <ele>728.6346</ele>
        <time>2021-07-19T11:34:00Z</time>
      </trkpt>
      <trkpt lat="37.3388" lon="-2.48599">
        <ele>724.7484</ele>
        <time>2021-07-19T11:34:11Z</time>
      </trkpt>
      <trkpt lat="37.33901" lon="-2.4894">
        <ele>728.5124</ele>
        <time>2021-07-19T11:34:22Z</time>
      </trkpt>
      <trkpt lat="37.34052" lon="-2.49198">
        <ele>725.1109</ele>
        <time>2021-07-19T11:34:33Z</time>
      </trkpt>
      <trkpt lat="37.34324" lon="-2.49211">
        <ele>730.5226</ele>
        <time>2021-07-19T11:34:44Z</time>
      </trkpt>
      <trkpt lat="37.3459" lon="-2.49282">
        <ele>739.0219</ele>
        <time>2021-07-19T11:34:55Z</time>
      </trkpt>
      <trkpt lat="37.34792" lon="-2.49519">
        <ele>743.3957</ele>
        <time>2021-07-19T11:35:06Z</time>
      </trkpt>
      <trkpt lat="37.35027" lon="-2.49687">
        <ele>748.2532</ele>
        <time>2021-07-19T11:35:17Z</time>
      </trkpt>
      <trkpt lat="37.3529" lon="-2.49791">
        <ele>754.8484</ele>
        <time>2021-07-19T11:35:28Z</time>
      </trkpt>
      <trkpt lat="37.35473" lon="-2.50002">
        <ele>755.9705</ele>
        <time>2021-07-19T11:35:39Z</time>
      </trkpt>
      <trkpt lat="37.35677" lon="-2.50262">
        <ele>758.3061</ele>
        <time>2021-07-19T11:35:50Z</time>
      </trkpt>
      <trkpt lat="37.35864" lon="-2.50505">
        <ele>766.2349</ele>
        <time>2021-07-19T11:36:01Z</time>
      </trkpt>
      <trkpt lat="37.36047" lon="-2.50742">
        <ele>774.6448</ele>
        <time>2021-07-19T11:36:12Z</time>
      </trkpt>
      <trkpt lat="37.36231" lon="-2.50982">
        <ele>786.0232</ele>
        <time>2021-07-19T11:36:23Z</time>
      </trkpt>
      <trkpt lat="37.36333" lon="-2.51289">
        <ele>798.9861</ele>
        <time>2021-07-19T11:36:34Z</time>
      </trkpt>
      <trkpt lat="37.36334" lon="-2.51621">
        <ele>815.8759</ele>
        <time>2021-07-19T11:36:45Z</time>
      </trkpt>
      <trkpt lat="37.36446" lon="-2.5191">
        <ele>831.7055</ele>
        <time>2021-07-19T11:36:56Z</time>
      </trkpt>
      <trkpt lat="37.36548" lon="-2.52202">
        <ele>833.5479</ele>
        <time>2021-07-19T11:37:07Z</time>
      </trkpt>
      <trkpt lat="37.3646" lon="-2.52499">
        <ele>838.5804</ele>
        <time>2021-07-19T11:37:18Z</time>
      </trkpt>
      <trkpt lat="37.36466" lon="-2.52809">
        <ele>848.2309</ele>
        <time>2021-07-19T11:37:29Z</time>
      </trkpt>
      <trkpt lat="37.36515" lon="-2.53104">
        <ele>857.5611</ele>
        <time>2021-07-19T11:37:40Z</time>
      </trkpt>
      <trkpt lat="37.36626" lon="-2.53405">
        <ele>868.0388</ele>
        <time>2021-07-19T11:37:51Z</time>
      </trkpt>
      <trkpt lat="37.36693" lon="-2.53733">
        <ele>878.8302</ele>
        <time>2021-07-19T11:38:02Z</time>
      </trkpt>
      <trkpt lat="37.36667" lon="-2.54054">
        <ele>887.9364</ele>
        <time>2021-07-19T11:38:13Z</time>
      </trkpt>
      <trkpt lat="37.36644" lon="-2.54391">
        <ele>899.1035</ele>
        <time>2021-07-19T11:38:24Z</time>
      </trkpt>
      <trkpt lat="37.3671" lon="-2.54701">
        <ele>908.8089</ele>
        <time>2021-07-19T11:38:35Z</time>
      </trkpt>
      <trkpt lat="37.3685" lon="-2.54981">
        <ele>918.9569</ele>
        <time>2021-07-19T11:38:46Z</time>
      </trkpt>
      <trkpt lat="37.36996" lon="-2.55259">
        <ele>928.4161</ele>
        <time>2021-07-19T11:38:57Z</time>
      </trkpt>
      <trkpt lat="37.37145" lon="-2.55547">
        <ele>932.661</ele>
        <time>2021-07-19T11:39:08Z</time>
      </trkpt>
      <trkpt lat="37.37291" lon="-2.55819">
        <ele>933.4586</ele>
        <time>2021-07-19T11:39:19Z</time>
      </trkpt>
      <trkpt lat="37.37433" lon="-2.56093">
        <ele>933.9735</ele>
        <time>2021-07-19T11:39:30Z</time>
      </trkpt>
      <trkpt lat="37.3756" lon="-2.5638">
        <ele>941.0155</ele>
        <time>2021-07-19T11:39:41Z</time>
      </trkpt>
      <trkpt lat="37.37652" lon="-2.56639">
        <ele>947.2937</ele>
        <time>2021-07-19T11:39:52Z</time>
      </trkpt>
      <trkpt lat="37.37761" lon="-2.56937">
        <ele>955.8786</ele>
        <time>2021-07-19T11:40:03Z</time>
      </trkpt>
      <trkpt lat="37.37873" lon="-2.5723">
        <ele>950.1161</ele>
        <time>2021-07-19T11:40:14Z</time>
      </trkpt>
      <trkpt lat="37.37992" lon="-2.57533">
        <ele>947.3438</ele>
        <time>2021-07-19T11:40:25Z</time>
      </trkpt>
      <trkpt lat="37.38124" lon="-2.57832">
        <ele>954.6421</ele>
        <time>2021-07-19T11:40:36Z</time>
      </trkpt>
      <trkpt lat="37.38313" lon="-2.58092">
        <ele>957.0394</ele>
        <time>2021-07-19T11:40:47Z</time>
      </trkpt>
      <trkpt lat="37.38481" lon="-2.58362">
        <ele>959.5456</ele>
        <time>2021-07-19T11:40:58Z</time>
      </trkpt>
      <trkpt lat="37.38687" lon="-2.58567">
        <ele>959.6582</ele>
        <time>2021-07-19T11:41:09Z</time>
      </trkpt>
      <trkpt lat="37.389" lon="-2.58775">
        <ele>950.8684</ele>
        <time>2021-07-19T11:41:20Z</time>
      </trkpt>
      <trkpt lat="37.3905" lon="-2.59004">
        <ele>944.4475</ele>
        <time>2021-07-19T11:41:31Z</time>
      </trkpt>
      <trkpt lat="37.39227" lon="-2.59148">
        <ele>953.8794</ele>
        <time>2021-07-19T11:41:42Z</time>
      </trkpt>
      <trkpt lat="37.39325" lon="-2.59226">
        <ele>960.5066</ele>
        <time>2021-07-19T11:41:53Z</time>
      </trkpt>
      <trkpt lat="37.39455" lon="-2.5933">
        <ele>966.3057</ele>
        <time>2021-07-19T11:42:04Z</time>
      </trkpt>
      <trkpt lat="37.39574" lon="-2.59428">
        <ele>969.9491</ele>
        <time>2021-07-19T11:42:15Z</time>
      </trkpt>
      <trkpt lat="37.39686" lon="-2.59513">
        <ele>967.4584</ele>
        <time>2021-07-19T11:42:26Z</time>
      </trkpt>
      <trkpt lat="37.39825" lon="-2.59627">
        <ele>970.1219</ele>
        <time>2021-07-19T11:42:37Z</time>
      </trkpt>
      <trkpt lat="37.3999" lon="-2.59813">
        <ele>972.6021</ele>
        <time>2021-07-19T11:42:48Z</time>
      </trkpt>
      <trkpt lat="37.40009" lon="-2.60129">
        <ele>980.9449</ele>
        <time>2021-07-19T11:42:59Z</time>
      </trkpt>
      <trkpt lat="37.40069" lon="-2.60416">
        <ele>985.0804</ele>
        <time>2021-07-19T11:43:10Z</time>
      </trkpt>
      <trkpt lat="37.40142" lon="-2.60688">
        <ele>981.8404</ele>
        <time>2021-07-19T11:43:21Z</time>
      </trkpt>
      <trkpt lat="37.40205" lon="-2.60945">
        <ele>981.4874</ele>
        <time>2021-07-19T11:43:32Z</time>
      </trkpt>
      <trkpt lat="37.40286" lon="-2.61256">
        <ele>977.5037</ele>
        <time>2021-07-19T11:43:43Z</time>
      </trkpt>
      <trkpt lat="37.40343" lon="-2.61475">
        <ele>972.725</ele>
        <time>2021-07-19T11:43:54Z</time>
      </trkpt>
      <trkpt lat="37.40398" lon="-2.61682">
        <ele>969.2974</ele>
        <time>2021-07-19T11:44:05Z</time>
      </trkpt>
      <trkpt lat="37.40443" lon="-2.61855">
        <ele>968.4689</ele>
        <time>2021-07-19T11:44:16Z</time>
      </trkpt>
      <trkpt lat="37.40483" lon="-2.62013">
        <ele>968.5703</ele>
        <time>2021-07-19T11:44:27Z</time>
      </trkpt>
      <trkpt lat="37.40534" lon="-2.62214">
        <ele>968.7989</ele>
        <time>2021-07-19T11:44:38Z</time>
      </trkpt>
      <trkpt lat="37.40589" lon="-2.62425">
        <ele>971.0809</ele>
        <time>2021-07-19T11:44:49Z</time>
      </trkpt>
      <trkpt lat="37.40652" lon="-2.62666">
        <ele>974.6446</ele>
        <time>2021-07-19T11:45:00Z</time>
      </trkpt>
      <trkpt lat="37.40714" lon="-2.62902">
        <ele>981.348</ele>
        <time>2021-07-19T11:45:11Z</time>
      </trkpt>
      <trkpt lat="37.40782" lon="-2.63166">
        <ele>989.21</ele>
        <time>2021-07-19T11:45:22Z</time>
      </trkpt>
      <trkpt lat="37.40855" lon="-2.63448">
        <ele>993.2284</ele>
        <time>2021-07-19T11:45:33Z</time>
      </trkpt>
      <trkpt lat="37.40935" lon="-2.63753">
        <ele>990.4188</ele>
        <time>2021-07-19T11:45:44Z</time>
      </trkpt>
      <trkpt lat="37.41013" lon="-2.64052">
        <ele>986.7793</ele>
        <time>2021-07-19T11:45:55Z</time>
      </trkpt>
      <trkpt lat="37.41095" lon="-2.64348">
        <ele>987.1904</ele>
        <time>2021-07-19T11:46:06Z</time>
      </trkpt>
      <trkpt lat="37.4116" lon="-2.64628">
        <ele>986.8265</ele>
        <time>2021-07-19T11:46:17Z</time>
      </trkpt>
      <trkpt lat="37.4126" lon="-2.65003">
        <ele>980.1663</ele>
        <time>2021-07-19T11:46:28Z</time>
      </trkpt>
      <trkpt lat="37.41345" lon="-2.65347">
        <ele>979.8673</ele>
        <time>2021-07-19T11:46:39Z</time>
      </trkpt>
      <trkpt lat="37.41442" lon="-2.65705">
        <ele>980.7482</ele>
        <time>2021-07-19T11:46:50Z</time>
      </trkpt>
      <trkpt lat="37.41535" lon="-2.66047">
        <ele>979.9994</ele>
        <time>2021-07-19T11:47:01Z</time>
      </trkpt>
      <trkpt lat="37.41662" lon="-2.66379">
        <ele>963.2345</ele>
        <time>2021-07-19T11:47:12Z</time>
      </trkpt>
      <trkpt lat="37.41815" lon="-2.66701">
        <ele>944.856</ele>
        <time>2021-07-19T11:47:23Z</time>
      </trkpt>
      <trkpt lat="37.41973" lon="-2.67006">
        <ele>939.3772</ele>
        <time>2021-07-19T11:47:34Z</time>
      </trkpt>
      <trkpt lat="37.42118" lon="-2.67312">
        <ele>945.6541</ele>
        <time>2021-07-19T11:47:45Z</time>
      </trkpt>
      <trkpt lat="37.42229" lon="-2.6764">
        <ele>950.9844</ele>
        <time>2021-07-19T11:47:56Z</time>
      </trkpt>
      <trkpt lat="37.42333" lon="-2.6797">
        <ele>956.0947</ele>
        <time>2021-07-19T11:48:07Z</time>
      </trkpt>
      <trkpt lat="37.42439" lon="-2.68314">
        <ele>957.9126</ele>
        <time>2021-07-19T11:48:18Z</time>
      </trkpt>
      <trkpt lat="37.42543" lon="-2.68649">
        <ele>952.2619</ele>
        <time>2021-07-19T11:48:29Z</time>
      </trkpt>
      <trkpt lat="37.4265" lon="-2.68983">
        <ele>944.2626</ele>
        <time>2021-07-19T11:48:40Z</time>
      </trkpt>
      <trkpt lat="37.42811" lon="-2.69267">
        <ele>936.7069</ele>
        <time>2021-07-19T11:48:51Z</time>
      </trkpt>
      <trkpt lat="37.42999" lon="-2.69525">
        <ele>930.4311</ele>
        <time>2021-07-19T11:49:02Z</time>
      </trkpt>
      <trkpt lat="37.43189" lon="-2.69781">
        <ele>924.2335</ele>
        <time>2021-07-19T11:49:13Z</time>
      </trkpt>
      <trkpt lat="37.43352" lon="-2.70066">
        <ele>912.0538</ele>
        <time>2021-07-19T11:49:24Z</time>
      </trkpt>
      <trkpt lat="37.43391" lon="-2.70416">
        <ele>898.36</ele>
        <time>2021-07-19T11:49:35Z</time>
      </trkpt>
      <trkpt lat="37.4352" lon="-2.70732">
        <ele>887.0842</ele>
        <time>2021-07-19T11:49:46Z</time>
      </trkpt>
      <trkpt lat="37.43684" lon="-2.71001">
        <ele>872.599</ele>
        <time>2021-07-19T11:49:57Z</time>
      </trkpt>
      <trkpt lat="37.43838" lon="-2.71244">
        <ele>863.3607</ele>
        <time>2021-07-19T11:50:08Z</time>
      </trkpt>
      <trkpt lat="37.43997" lon="-2.71477">
        <ele>859.5336</ele>
        <time>2021-07-19T11:50:19Z</time>
      </trkpt>
      <trkpt lat="37.44167" lon="-2.71715">
        <ele>855.9822</ele>
        <time>2021-07-19T11:50:30Z</time>
      </trkpt>
      <trkpt lat="37.44344" lon="-2.7196">
        <ele>856.3107</ele>
        <time>2021-07-19T11:50:41Z</time>
      </trkpt>
      <trkpt lat="37.4449" lon="-2.72244">
        <ele>857.0606</ele>
        <time>2021-07-19T11:50:52Z</time>
      </trkpt>
      <trkpt lat="37.4461" lon="-2.72518">
        <ele>855.5464</ele>
        <time>2021-07-19T11:51:03Z</time>
      </trkpt>
      <trkpt lat="37.44745" lon="-2.72788">
        <ele>850.1022</ele>
        <time>2021-07-19T11:51:14Z</time>
      </trkpt>
      <trkpt lat="37.44916" lon="-2.73065">
        <ele>862.6498</ele>
        <time>2021-07-19T11:51:25Z</time>
      </trkpt>
      <trkpt lat="37.45094" lon="-2.73298">
        <ele>867.3358</ele>
        <time>2021-07-19T11:51:36Z</time>
      </trkpt>
      <trkpt lat="37.45253" lon="-2.73515">
        <ele>866.2524</ele>
        <time>2021-07-19T11:51:47Z</time>
      </trkpt>
      <trkpt lat="37.45353" lon="-2.73657">
        <ele>865.4814</ele>
        <time>2021-07-19T11:51:58Z</time>
      </trkpt>
      <trkpt lat="37.45415" lon="-2.73719">
        <ele>868.1875</ele>
        <time>2021-07-19T11:52:09Z</time>
      </trkpt>
      <trkpt lat="37.45489" lon="-2.73847">
        <ele>870.4803</ele>
        <time>2021-07-19T11:52:20Z</time>
      </trkpt>
      <trkpt lat="37.45612" lon="-2.74017">
        <ele>870.0883</ele>
        <time>2021-07-19T11:52:31Z</time>
      </trkpt>
      <trkpt lat="37.45759" lon="-2.74179">
        <ele>863.6696</ele>
        <time>2021-07-19T11:52:42Z</time>
      </trkpt>
      <trkpt lat="37.45908" lon="-2.74338">
        <ele>860.3521</ele>
        <time>2021-07-19T11:52:53Z</time>
      </trkpt>
      <trkpt lat="37.46051" lon="-2.74485">
        <ele>859.593</ele>
        <time>2021-07-19T11:53:04Z</time>
      </trkpt>
      <trkpt lat="37.46199" lon="-2.74645">
        <ele>855.0072</ele>
        <time>2021-07-19T11:53:15Z</time>
      </trkpt>
      <trkpt lat="37.46336" lon="-2.74797">
        <ele>854.8096</ele>
        <time>2021-07-19T11:53:26Z</time>
      </trkpt>
      <trkpt lat="37.46472" lon="-2.74977">
        <ele>856.3198</ele>
        <time>2021-07-19T11:53:37Z</time>
      </trkpt>
      <trkpt lat="37.46603" lon="-2.75156">
        <ele>856.8537</ele>
        <time>2021-07-19T11:53:48Z</time>
      </trkpt>
      <trkpt lat="37.4673" lon="-2.75332">
        <ele>856.6261</ele>
        <time>2021-07-19T11:53:59Z</time>
      </trkpt>
      <trkpt lat="37.46861" lon="-2.75514">
        <ele>857.1327</ele>
        <time>2021-07-19T11:54:10Z</time>
      </trkpt>
      <trkpt lat="37.46993" lon="-2.757">
        <ele>858.0145</ele>
        <time>2021-07-19T11:54:21Z</time>
      </trkpt>
      <trkpt lat="37.47118" lon="-2.75859">
        <ele>858.3025</ele>
        <time>2021-07-19T11:54:32Z</time>
      </trkpt>
      <trkpt lat="37.47235" lon="-2.75999">
        <ele>854.2613</ele>
        <time>2021-07-19T11:54:43Z</time>
      </trkpt>
      <trkpt lat="37.47356" lon="-2.76118">
        <ele>852.0938</ele>
        <time>2021-07-19T11:54:54Z</time>
      </trkpt>
      <trkpt lat="37.47476" lon="-2.76215">
        <ele>847.5467</ele>
        <time>2021-07-19T11:55:05Z</time>
      </trkpt>
      <trkpt lat="37.47592" lon="-2.76305">
        <ele>846.5952</ele>
        <time>2021-07-19T11:55:16Z</time>
      </trkpt>
      <trkpt lat="37.47721" lon="-2.76404">
        <ele>844.6417</ele>
        <time>2021-07-19T11:55:27Z</time>
      </trkpt>
      <trkpt lat="37.47854" lon="-2.76506">
        <ele>839.7363</ele>
        <time>2021-07-19T11:55:38Z</time>
      </trkpt>
      <trkpt lat="37.4798" lon="-2.76549">
        <ele>837.4465</ele>
        <time>2021-07-19T11:55:49Z</time>
      </trkpt>
      <trkpt lat="37.48092" lon="-2.76601">
        <ele>838.4869</ele>
        <time>2021-07-19T11:56:00Z</time>
      </trkpt>
      <trkpt lat="37.48154" lon="-2.76651">
        <ele>839.535</ele>
        <time>2021-07-19T11:56:11Z</time>
      </trkpt>
      <trkpt lat="37.48223" lon="-2.76711">
        <ele>843.9249</ele>
        <time>2021-07-19T11:56:22Z</time>
      </trkpt>
      <trkpt lat="37.48294" lon="-2.76769">
        <ele>843.3296</ele>
        <time>2021-07-19T11:56:33Z</time>
      </trkpt>
      <trkpt lat="37.48342" lon="-2.76804">
        <ele>841.9286</ele>
        <time>2021-07-19T11:56:44Z</time>
      </trkpt>
      <trkpt lat="37.48309" lon="-2.76783">
        <ele>847.1235</ele>
        <time>2021-07-19T11:56:55Z</time>
      </trkpt>
      <trkpt lat="37.48267" lon="-2.76747">
        <ele>849.5195</ele>
        <time>2021-07-19T11:57:06Z</time>
      </trkpt>
      <trkpt lat="37.48248" lon="-2.76731">
        <ele>849.9552</ele>
        <time>2021-07-19T11:57:17Z</time>
      </trkpt>
      <trkpt lat="37.48245" lon="-2.76727">
        <ele>852.7835</ele>
        <time>2021-07-19T11:57:28Z</time>
      </trkpt>
      <trkpt lat="37.48243" lon="-2.76723">
        <ele>854.873</ele>
        <time>2021-07-19T11:57:42Z</time>
      </trkpt>
      <trkpt lat="37.4824" lon="-2.76725">
        <ele>859.6848</ele>
        <time>2021-07-19T11:58:13Z</time>
      </trkpt>
      <trkpt lat="37.48243" lon="-2.76725">
        <ele>860.3354</ele>
        <time>2021-07-19T11:58:40Z</time>
      </trkpt>
      <trkpt lat="37.48247" lon="-2.76726">
        <ele>857.5142</ele>
        <time>2021-07-19T11:59:03Z</time>
      </trkpt>
      <trkpt lat="37.48315" lon="-2.76782">
        <ele>854.1252</ele>
        <time>2021-07-19T11:59:14Z</time>
      </trkpt>
      <trkpt lat="37.48359" lon="-2.76872">
        <ele>856.4352</ele>
        <time>2021-07-19T11:59:25Z</time>
      </trkpt>
      <trkpt lat="37.48359" lon="-2.76987">
        <ele>861.5365</ele>
        <time>2021-07-19T11:59:36Z</time>
      </trkpt>
      <trkpt lat="37.48362" lon="-2.77107">
        <ele>861.8292</ele>
        <time>2021-07-19T11:59:47Z</time>
      </trkpt>
      <trkpt lat="37.48374" lon="-2.77258">
        <ele>871.2623</ele>
        <time>2021-07-19T11:59:58Z</time>
      </trkpt>
      <trkpt lat="37.48393" lon="-2.77363">
        <ele>871.3715</ele>
        <time>2021-07-19T12:00:09Z</time>
      </trkpt>
      <trkpt lat="37.48401" lon="-2.77373">
        <ele>869.4774</ele>
        <time>2021-07-19T12:00:20Z</time>
      </trkpt>
      <trkpt lat="37.48406" lon="-2.77379">
        <ele>868.3383</ele>
        <time>2021-07-19T12:00:31Z</time>
      </trkpt>
      <trkpt lat="37.48409" lon="-2.77383">
        <ele>870.633</ele>
        <time>2021-07-19T12:00:42Z</time>
      </trkpt>
      <trkpt lat="37.48409" lon="-2.77382">
        <ele>868.4678</ele>
        <time>2021-07-19T12:01:40Z</time>
      </trkpt>
      <trkpt lat="37.48413" lon="-2.77387">
        <ele>868.926</ele>
        <time>2021-07-19T12:02:11Z</time>
      </trkpt>
      <trkpt lat="37.48416" lon="-2.77383">
        <ele>872.3901</ele>
        <time>2021-07-19T12:02:28Z</time>
      </trkpt>
      <trkpt lat="37.48461" lon="-2.77455">
        <ele>872.1906</ele>
        <time>2021-07-19T12:02:39Z</time>
      </trkpt>
      <trkpt lat="37.48538" lon="-2.77565">
        <ele>876.8878</ele>
        <time>2021-07-19T12:02:50Z</time>
      </trkpt>
      <trkpt lat="37.48618" lon="-2.77674">
        <ele>878.8034</ele>
        <time>2021-07-19T12:03:01Z</time>
      </trkpt>
      <trkpt lat="37.48668" lon="-2.77729">
        <ele>876.5502</ele>
        <time>2021-07-19T12:03:12Z</time>
      </trkpt>
      <trkpt lat="37.48743" lon="-2.77738">
        <ele>870.9073</ele>
        <time>2021-07-19T12:03:23Z</time>
      </trkpt>
      <trkpt lat="37.4875" lon="-2.77737">
        <ele>872.7499</ele>
        <time>2021-07-19T12:03:50Z</time>
      </trkpt>
      <trkpt lat="37.48846" lon="-2.77777">
        <ele>874.3563</ele>
        <time>2021-07-19T12:04:01Z</time>
      </trkpt>
      <trkpt lat="37.48929" lon="-2.77828">
        <ele>877.165</ele>
        <time>2021-07-19T12:04:12Z</time>
      </trkpt>
      <trkpt lat="37.4901" lon="-2.77872">
        <ele>879.2515</ele>
        <time>2021-07-19T12:04:23Z</time>
      </trkpt>
      <trkpt lat="37.49097" lon="-2.77884">
        <ele>877.2454</ele>
        <time>2021-07-19T12:04:34Z</time>
      </trkpt>
      <trkpt lat="37.49098" lon="-2.77892">
        <ele>877.1035</ele>
        <time>2021-07-19T12:04:45Z</time>
      </trkpt>
      <trkpt lat="37.49097" lon="-2.77897">
        <ele>875.2657</ele>
        <time>2021-07-19T12:04:56Z</time>
      </trkpt>
      <trkpt lat="37.49097" lon="-2.77901">
        <ele>872.7772</ele>
        <time>2021-07-19T12:05:56Z</time>
      </trkpt>
      <trkpt lat="37.49097" lon="-2.77898">
        <ele>876.4649</ele>
        <time>2021-07-19T12:06:55Z</time>
      </trkpt>
      <trkpt lat="37.49093" lon="-2.77899">
        <ele>874.3767</ele>
        <time>2021-07-19T12:07:15Z</time>
      </trkpt>
      <trkpt lat="37.49091" lon="-2.77899">
        <ele>866.3456</ele>
        <time>2021-07-19T12:08:14Z</time>
      </trkpt>
      <trkpt lat="37.49088" lon="-2.77902">
        <ele>869.6296</ele>
        <time>2021-07-19T12:08:57Z</time>
      </trkpt>
      <trkpt lat="37.49092" lon="-2.77901">
        <ele>870.9651</ele>
        <time>2021-07-19T12:09:09Z</time>
      </trkpt>
      <trkpt lat="37.49095" lon="-2.77896">
        <ele>870.2137</ele>
        <time>2021-07-19T12:09:20Z</time>
      </trkpt>
      <trkpt lat="37.49102" lon="-2.77893">
        <ele>875.9094</ele>
        <time>2021-07-19T12:10:18Z</time>
      </trkpt>
      <trkpt lat="37.49177" lon="-2.77898">
        <ele>877.9451</ele>
        <time>2021-07-19T12:10:29Z</time>
      </trkpt>
      <trkpt lat="37.49262" lon="-2.77861">
        <ele>873.8266</ele>
        <time>2021-07-19T12:10:40Z</time>
      </trkpt>
      <trkpt lat="37.49394" lon="-2.77807">
        <ele>856.7214</ele>
        <time>2021-07-19T12:10:51Z</time>
      </trkpt>
      <trkpt lat="37.49503" lon="-2.77888">
        <ele>852.6766</ele>
        <time>2021-07-19T12:11:02Z</time>
      </trkpt>
      <trkpt lat="37.49551" lon="-2.77883">
        <ele>850.7231</ele>
        <time>2021-07-19T12:11:13Z</time>
      </trkpt>
      <trkpt lat="37.49612" lon="-2.77941">
        <ele>852.8404</ele>
        <time>2021-07-19T12:11:24Z</time>
      </trkpt>
      <trkpt lat="37.49695" lon="-2.78082">
        <ele>861.4131</ele>
        <time>2021-07-19T12:11:35Z</time>
      </trkpt>
      <trkpt lat="37.49769" lon="-2.78278">
        <ele>866.8959</ele>
        <time>2021-07-19T12:11:46Z</time>
      </trkpt>
      <trkpt lat="37.49949" lon="-2.78365">
        <ele>873.184</ele>
        <time>2021-07-19T12:11:57Z</time>
      </trkpt>
      <trkpt lat="37.50139" lon="-2.78444">
        <ele>881.0049</ele>
        <time>2021-07-19T12:12:08Z</time>
      </trkpt>
      <trkpt lat="37.50307" lon="-2.78514">
        <ele>884.2742</ele>
        <time>2021-07-19T12:12:19Z</time>
      </trkpt>
      <trkpt lat="37.50349" lon="-2.78677">
        <ele>893.8954</ele>
        <time>2021-07-19T12:12:30Z</time>
      </trkpt>
      <trkpt lat="37.50429" lon="-2.78878">
        <ele>898.2111</ele>
        <time>2021-07-19T12:12:41Z</time>
      </trkpt>
      <trkpt lat="37.50564" lon="-2.79081">
        <ele>912.2755</ele>
        <time>2021-07-19T12:12:52Z</time>
      </trkpt>
      <trkpt lat="37.50705" lon="-2.79207">
        <ele>924.5094</ele>
        <time>2021-07-19T12:13:03Z</time>
      </trkpt>
      <trkpt lat="37.50772" lon="-2.79401">
        <ele>932.7497</ele>
        <time>2021-07-19T12:13:14Z</time>
      </trkpt>
      <trkpt lat="37.50606" lon="-2.79537">
        <ele>944.6634</ele>
        <time>2021-07-19T12:13:25Z</time>
      </trkpt>
      <trkpt lat="37.5041" lon="-2.79637">
        <ele>956.9057</ele>
        <time>2021-07-19T12:13:36Z</time>
      </trkpt>
      <trkpt lat="37.50265" lon="-2.79815">
        <ele>974.4123</ele>
        <time>2021-07-19T12:13:47Z</time>
      </trkpt>
      <trkpt lat="37.50179" lon="-2.80031">
        <ele>974.8939</ele>
        <time>2021-07-19T12:13:58Z</time>
      </trkpt>
      <trkpt lat="37.5024" lon="-2.80106">
        <ele>972.1215</ele>
        <time>2021-07-19T12:14:09Z</time>
      </trkpt>
      <trkpt lat="37.5048" lon="-2.80207">
        <ele>967.1344</ele>
        <time>2021-07-19T12:14:20Z</time>
      </trkpt>
      <trkpt lat="37.50717" lon="-2.80338">
        <ele>959.0156</ele>
        <time>2021-07-19T12:14:31Z</time>
      </trkpt>
      <trkpt lat="37.50851" lon="-2.8055">
        <ele>949.7557</ele>
        <time>2021-07-19T12:14:42Z</time>
      </trkpt>
      <trkpt lat="37.50913" lon="-2.8071">
        <ele>947.9014</ele>
        <time>2021-07-19T12:14:53Z</time>
      </trkpt>
      <trkpt lat="37.50937" lon="-2.80824">
        <ele>947.7151</ele>
        <time>2021-07-19T12:15:04Z</time>
      </trkpt>
      <trkpt lat="37.50997" lon="-2.81067">
        <ele>950.5341</ele>
        <time>2021-07-19T12:15:15Z</time>
      </trkpt>
      <trkpt lat="37.51168" lon="-2.81168">
        <ele>947.8096</ele>
        <time>2021-07-19T12:15:26Z</time>
      </trkpt>
      <trkpt lat="37.51398" lon="-2.81213">
        <ele>939.4071</ele>
        <time>2021-07-19T12:15:37Z</time>
      </trkpt>
      <trkpt lat="37.51555" lon="-2.81393">
        <ele>932.2545</ele>
        <time>2021-07-19T12:15:48Z</time>
      </trkpt>
      <trkpt lat="37.51754" lon="-2.8144">
        <ele>928.6443</ele>
        <time>2021-07-19T12:15:59Z</time>
      </trkpt>
      <trkpt lat="37.51964" lon="-2.81374">
        <ele>930.8473</ele>
        <time>2021-07-19T12:16:10Z</time>
      </trkpt>
      <trkpt lat="37.52183" lon="-2.81466">
        <ele>928.496</ele>
        <time>2021-07-19T12:16:21Z</time>
      </trkpt>
      <trkpt lat="37.52352" lon="-2.81659">
        <ele>923.0247</ele>
        <time>2021-07-19T12:16:32Z</time>
      </trkpt>
      <trkpt lat="37.52568" lon="-2.81583">
        <ele>919.236</ele>
        <time>2021-07-19T12:16:43Z</time>
      </trkpt>
      <trkpt lat="37.52726" lon="-2.81365">
        <ele>918.5286</ele>
        <time>2021-07-19T12:16:54Z</time>
      </trkpt>
      <trkpt lat="37.52941" lon="-2.81377">
        <ele>913.4076</ele>
        <time>2021-07-19T12:17:05Z</time>
      </trkpt>
      <trkpt lat="37.53049" lon="-2.81597">
        <ele>897.5174</ele>
        <time>2021-07-19T12:17:16Z</time>
      </trkpt>
      <trkpt lat="37.52983" lon="-2.81862">
        <ele>882.8858</ele>
        <time>2021-07-19T12:17:27Z</time>
      </trkpt>
      <trkpt lat="37.52964" lon="-2.82148">
        <ele>869.7377</ele>
        <time>2021-07-19T12:17:38Z</time>
      </trkpt>
      <trkpt lat="37.52977" lon="-2.82426">
        <ele>858.5556</ele>
        <time>2021-07-19T12:17:49Z</time>
      </trkpt>
      <trkpt lat="37.53102" lon="-2.82641">
        <ele>848.9175</ele>
        <time>2021-07-19T12:18:00Z</time>
      </trkpt>
      <trkpt lat="37.53194" lon="-2.82881">
        <ele>837.5632</ele>
        <time>2021-07-19T12:18:11Z</time>
      </trkpt>
      <trkpt lat="37.53283" lon="-2.83121">
        <ele>826.756</ele>
        <time>2021-07-19T12:18:22Z</time>
      </trkpt>
      <trkpt lat="37.53366" lon="-2.83316">
        <ele>821.66</ele>
        <time>2021-07-19T12:18:33Z</time>
      </trkpt>
      <trkpt lat="37.53453" lon="-2.83404">
        <ele>819.7406</ele>
        <time>2021-07-19T12:18:44Z</time>
      </trkpt>
      <trkpt lat="37.53583" lon="-2.83489">
        <ele>812.999</ele>
        <time>2021-07-19T12:18:55Z</time>
      </trkpt>
      <trkpt lat="37.53642" lon="-2.83562">
        <ele>810.7203</ele>
        <time>2021-07-19T12:19:06Z</time>
      </trkpt>
      <trkpt lat="37.53599" lon="-2.83823">
        <ele>800.0997</ele>
        <time>2021-07-19T12:19:17Z</time>
      </trkpt>
      <trkpt lat="37.53551" lon="-2.84138">
        <ele>800.4165</ele>
        <time>2021-07-19T12:19:28Z</time>
      </trkpt>
      <trkpt lat="37.53502" lon="-2.84449">
        <ele>809.4941</ele>
        <time>2021-07-19T12:19:39Z</time>
      </trkpt>
      <trkpt lat="37.53454" lon="-2.8476">
        <ele>803.0249</ele>
        <time>2021-07-19T12:19:50Z</time>
      </trkpt>
      <trkpt lat="37.53452" lon="-2.85076">
        <ele>818.6506</ele>
        <time>2021-07-19T12:20:01Z</time>
      </trkpt>
      <trkpt lat="37.53484" lon="-2.85383">
        <ele>820.7126</ele>
        <time>2021-07-19T12:20:12Z</time>
      </trkpt>
      <trkpt lat="37.53507" lon="-2.85589">
        <ele>825.0051</ele>
        <time>2021-07-19T12:20:23Z</time>
      </trkpt>
      <trkpt lat="37.53471" lon="-2.85783">
        <ele>830.1098</ele>
        <time>2021-07-19T12:20:34Z</time>
      </trkpt>
      <trkpt lat="37.5341" lon="-2.86102">
        <ele>829.418</ele>
        <time>2021-07-19T12:20:45Z</time>
      </trkpt>
      <trkpt lat="37.53348" lon="-2.86429">
        <ele>827.282</ele>
        <time>2021-07-19T12:20:56Z</time>
      </trkpt>
      <trkpt lat="37.53285" lon="-2.86756">
        <ele>831.4657</ele>
        <time>2021-07-19T12:21:07Z</time>
      </trkpt>
      <trkpt lat="37.53246" lon="-2.87092">
        <ele>840.2639</ele>
        <time>2021-07-19T12:21:18Z</time>
      </trkpt>
      <trkpt lat="37.53234" lon="-2.87433">
        <ele>846.1599</ele>
        <time>2021-07-19T12:21:29Z</time>
      </trkpt>
      <trkpt lat="37.53228" lon="-2.87776">
        <ele>838.9067</ele>
        <time>2021-07-19T12:21:40Z</time>
      </trkpt>
      <trkpt lat="37.53323" lon="-2.88112">
        <ele>835.6845</ele>
        <time>2021-07-19T12:21:51Z</time>
      </trkpt>
      <trkpt lat="37.53456" lon="-2.88416">
        <ele>829.2312</ele>
        <time>2021-07-19T12:22:02Z</time>
      </trkpt>
      <trkpt lat="37.53481" lon="-2.88739">
        <ele>823.5645</ele>
        <time>2021-07-19T12:22:13Z</time>
      </trkpt>
      <trkpt lat="37.53391" lon="-2.89017">
        <ele>819.4759</ele>
        <time>2021-07-19T12:22:24Z</time>
      </trkpt>
      <trkpt lat="37.53381" lon="-2.89324">
        <ele>819.0258</ele>
        <time>2021-07-19T12:22:35Z</time>
      </trkpt>
      <trkpt lat="37.53457" lon="-2.89633">
        <ele>819.6154</ele>
        <time>2021-07-19T12:22:46Z</time>
      </trkpt>
      <trkpt lat="37.53531" lon="-2.89936">
        <ele>812.4088</ele>
        <time>2021-07-19T12:22:57Z</time>
      </trkpt>
      <trkpt lat="37.53607" lon="-2.90248">
        <ele>795.0126</ele>
        <time>2021-07-19T12:23:08Z</time>
      </trkpt>
      <trkpt lat="37.53693" lon="-2.90564">
        <ele>774.9746</ele>
        <time>2021-07-19T12:23:19Z</time>
      </trkpt>
      <trkpt lat="37.53738" lon="-2.90888">
        <ele>767.8244</ele>
        <time>2021-07-19T12:23:30Z</time>
      </trkpt>
      <trkpt lat="37.53655" lon="-2.91208">
        <ele>751.4418</ele>
        <time>2021-07-19T12:23:41Z</time>
      </trkpt>
      <trkpt lat="37.53533" lon="-2.91484">
        <ele>735.0624</ele>
        <time>2021-07-19T12:23:52Z</time>
      </trkpt>
      <trkpt lat="37.5341" lon="-2.91764">
        <ele>744.5623</ele>
        <time>2021-07-19T12:24:03Z</time>
      </trkpt>
      <trkpt lat="37.53301" lon="-2.92064">
        <ele>739.6646</ele>
        <time>2021-07-19T12:24:14Z</time>
      </trkpt>
      <trkpt lat="37.53281" lon="-2.92386">
        <ele>739.5135</ele>
        <time>2021-07-19T12:24:25Z</time>
      </trkpt>
      <trkpt lat="37.53408" lon="-2.92667">
        <ele>740.9457</ele>
        <time>2021-07-19T12:24:36Z</time>
      </trkpt>
      <trkpt lat="37.53554" lon="-2.9293">
        <ele>731.1925</ele>
        <time>2021-07-19T12:24:47Z</time>
      </trkpt>
      <trkpt lat="37.53703" lon="-2.93192">
        <ele>718.9971</ele>
        <time>2021-07-19T12:24:58Z</time>
      </trkpt>
      <trkpt lat="37.53849" lon="-2.93456">
        <ele>710.7429</ele>
        <time>2021-07-19T12:25:09Z</time>
      </trkpt>
      <trkpt lat="37.54005" lon="-2.93728">
        <ele>702.9319</ele>
        <time>2021-07-19T12:25:20Z</time>
      </trkpt>
      <trkpt lat="37.54218" lon="-2.93944">
        <ele>694.7008</ele>
        <time>2021-07-19T12:25:31Z</time>
      </trkpt>
      <trkpt lat="37.54465" lon="-2.94107">
        <ele>687.096</ele>
        <time>2021-07-19T12:25:42Z</time>
      </trkpt>
      <trkpt lat="37.54705" lon="-2.94287">
        <ele>680.3253</ele>
        <time>2021-07-19T12:25:53Z</time>
      </trkpt>
      <trkpt lat="37.54919" lon="-2.94522">
        <ele>668.6857</ele>
        <time>2021-07-19T12:26:04Z</time>
      </trkpt>
      <trkpt lat="37.55083" lon="-2.94807">
        <ele>656.3096</ele>
        <time>2021-07-19T12:26:15Z</time>
      </trkpt>
      <trkpt lat="37.55265" lon="-2.95071">
        <ele>655.9989</ele>
        <time>2021-07-19T12:26:26Z</time>
      </trkpt>
      <trkpt lat="37.55503" lon="-2.95246">
        <ele>656.5853</ele>
        <time>2021-07-19T12:26:37Z</time>
      </trkpt>
      <trkpt lat="37.55727" lon="-2.9537">
        <ele>639.8287</ele>
        <time>2021-07-19T12:26:48Z</time>
      </trkpt>
      <trkpt lat="37.5586" lon="-2.9535">
        <ele>633.5222</ele>
        <time>2021-07-19T12:26:59Z</time>
      </trkpt>
      <trkpt lat="37.56006" lon="-2.9542">
        <ele>637.4406</ele>
        <time>2021-07-19T12:27:10Z</time>
      </trkpt>
      <trkpt lat="37.56152" lon="-2.95491">
        <ele>640.9761</ele>
        <time>2021-07-19T12:27:21Z</time>
      </trkpt>
      <trkpt lat="37.56267" lon="-2.95369">
        <ele>643.6767</ele>
        <time>2021-07-19T12:27:32Z</time>
      </trkpt>
      <trkpt lat="37.5639" lon="-2.95188">
        <ele>656.5218</ele>
        <time>2021-07-19T12:27:43Z</time>
      </trkpt>
      <trkpt lat="37.56389" lon="-2.95162">
        <ele>658.9738</ele>
        <time>2021-07-19T12:27:54Z</time>
      </trkpt>
      <trkpt lat="37.5639" lon="-2.95157">
        <ele>653.1188</ele>
        <time>2021-07-19T12:28:48Z</time>
      </trkpt>
      <trkpt lat="37.56392" lon="-2.9516">
        <ele>656.9772</ele>
        <time>2021-07-19T12:29:33Z</time>
      </trkpt>
      <trkpt lat="37.56392" lon="-2.95157">
        <ele>657.5364</ele>
        <time>2021-07-19T12:30:31Z</time>
      </trkpt>
      <trkpt lat="37.56396" lon="-2.95156">
        <ele>657.7122</ele>
        <time>2021-07-19T12:30:50Z</time>
      </trkpt>
      <trkpt lat="37.564" lon="-2.95158">
        <ele>656.4155</ele>
        <time>2021-07-19T12:31:40Z</time>
      </trkpt>
      <trkpt lat="37.56404" lon="-2.9516">
        <ele>657.8128</ele>
        <time>2021-07-19T12:31:57Z</time>
      </trkpt>
      <trkpt lat="37.56452" lon="-2.95141">
        <ele>665.5937</ele>
        <time>2021-07-19T12:32:08Z</time>
      </trkpt>
      <trkpt lat="37.56643" lon="-2.95083">
        <ele>681.5518</ele>
        <time>2021-07-19T12:32:19Z</time>
      </trkpt>
      <trkpt lat="37.56851" lon="-2.9516">
        <ele>699.724</ele>
        <time>2021-07-19T12:32:30Z</time>
      </trkpt>
      <trkpt lat="37.57022" lon="-2.95369">
        <ele>712.0016</ele>
        <time>2021-07-19T12:32:41Z</time>
      </trkpt>
      <trkpt lat="37.57255" lon="-2.95375">
        <ele>717.0919</ele>
        <time>2021-07-19T12:32:52Z</time>
      </trkpt>
      <trkpt lat="37.57478" lon="-2.95414">
        <ele>720.0452</ele>
        <time>2021-07-19T12:33:03Z</time>
      </trkpt>
      <trkpt lat="37.57711" lon="-2.95419">
        <ele>732.9553</ele>
        <time>2021-07-19T12:33:14Z</time>
      </trkpt>
      <trkpt lat="37.57902" lon="-2.95345">
        <ele>744.7534</ele>
        <time>2021-07-19T12:33:25Z</time>
      </trkpt>
      <trkpt lat="37.58107" lon="-2.95397">
        <ele>761.1792</ele>
        <time>2021-07-19T12:33:36Z</time>
      </trkpt>
      <trkpt lat="37.58284" lon="-2.95263">
        <ele>772.928</ele>
        <time>2021-07-19T12:33:47Z</time>
      </trkpt>
      <trkpt lat="37.58304" lon="-2.94951">
        <ele>786.7857</ele>
        <time>2021-07-19T12:33:58Z</time>
      </trkpt>
      <trkpt lat="37.58345" lon="-2.94643">
        <ele>786.8891</ele>
        <time>2021-07-19T12:34:09Z</time>
      </trkpt>
      <trkpt lat="37.58465" lon="-2.94348">
        <ele>784.594</ele>
        <time>2021-07-19T12:34:20Z</time>
      </trkpt>
      <trkpt lat="37.58661" lon="-2.94087">
        <ele>788.0798</ele>
        <time>2021-07-19T12:34:31Z</time>
      </trkpt>
      <trkpt lat="37.58864" lon="-2.93872">
        <ele>786.5113</ele>
        <time>2021-07-19T12:34:42Z</time>
      </trkpt>
      <trkpt lat="37.59123" lon="-2.93908">
        <ele>784.7015</ele>
        <time>2021-07-19T12:34:53Z</time>
      </trkpt>
      <trkpt lat="37.59364" lon="-2.93984">
        <ele>781.5738</ele>
        <time>2021-07-19T12:35:04Z</time>
      </trkpt>
      <trkpt lat="37.59637" lon="-2.94028">
        <ele>776.5739</ele>
        <time>2021-07-19T12:35:15Z</time>
      </trkpt>
      <trkpt lat="37.59905" lon="-2.94014">
        <ele>787.343</ele>
        <time>2021-07-19T12:35:26Z</time>
      </trkpt>
      <trkpt lat="37.60175" lon="-2.93979">
        <ele>790.5838</ele>
        <time>2021-07-19T12:35:37Z</time>
      </trkpt>
      <trkpt lat="37.60436" lon="-2.94013">
        <ele>801.5729</ele>
        <time>2021-07-19T12:35:48Z</time>
      </trkpt>
      <trkpt lat="37.60602" lon="-2.94046">
        <ele>807.9783</ele>
        <time>2021-07-19T12:35:59Z</time>
      </trkpt>
      <trkpt lat="37.60782" lon="-2.9396">
        <ele>807.0431</ele>
        <time>2021-07-19T12:36:10Z</time>
      </trkpt>
      <trkpt lat="37.6094" lon="-2.93741">
        <ele>809.6478</ele>
        <time>2021-07-19T12:36:21Z</time>
      </trkpt>
      <trkpt lat="37.61031" lon="-2.93491">
        <ele>814.1998</ele>
        <time>2021-07-19T12:36:32Z</time>
      </trkpt>
      <trkpt lat="37.61191" lon="-2.93327">
        <ele>813.1906</ele>
        <time>2021-07-19T12:36:43Z</time>
      </trkpt>
      <trkpt lat="37.61308" lon="-2.93256">
        <ele>811.8726</ele>
        <time>2021-07-19T12:36:54Z</time>
      </trkpt>
      <trkpt lat="37.6153" lon="-2.93248">
        <ele>812.3263</ele>
        <time>2021-07-19T12:37:05Z</time>
      </trkpt>
      <trkpt lat="37.6178" lon="-2.93286">
        <ele>816.0001</ele>
        <time>2021-07-19T12:37:16Z</time>
      </trkpt>
      <trkpt lat="37.62028" lon="-2.93287">
        <ele>815.0589</ele>
        <time>2021-07-19T12:37:27Z</time>
      </trkpt>
      <trkpt lat="37.62285" lon="-2.93287">
        <ele>813.4235</ele>
        <time>2021-07-19T12:37:38Z</time>
      </trkpt>
      <trkpt lat="37.6254" lon="-2.93377">
        <ele>812.6869</ele>
        <time>2021-07-19T12:37:49Z</time>
      </trkpt>
      <trkpt lat="37.62793" lon="-2.93468">
        <ele>814.1335</ele>
        <time>2021-07-19T12:38:00Z</time>
      </trkpt>
      <trkpt lat="37.63044" lon="-2.93566">
        <ele>812.8165</ele>
        <time>2021-07-19T12:38:11Z</time>
      </trkpt>
      <trkpt lat="37.63282" lon="-2.93671">
        <ele>812.3188</ele>
        <time>2021-07-19T12:38:22Z</time>
      </trkpt>
      <trkpt lat="37.63521" lon="-2.93757">
        <ele>817.0948</ele>
        <time>2021-07-19T12:38:33Z</time>
      </trkpt>
      <trkpt lat="37.63797" lon="-2.93733">
        <ele>816.7561</ele>
        <time>2021-07-19T12:38:44Z</time>
      </trkpt>
      <trkpt lat="37.64075" lon="-2.93715">
        <ele>817.6226</ele>
        <time>2021-07-19T12:38:55Z</time>
      </trkpt>
      <trkpt lat="37.64354" lon="-2.93699">
        <ele>819.5076</ele>
        <time>2021-07-19T12:39:06Z</time>
      </trkpt>
      <trkpt lat="37.64614" lon="-2.93676">
        <ele>823.205</ele>
        <time>2021-07-19T12:39:17Z</time>
      </trkpt>
      <trkpt lat="37.64867" lon="-2.93601">
        <ele>831.8802</ele>
        <time>2021-07-19T12:39:28Z</time>
      </trkpt>
      <trkpt lat="37.6513" lon="-2.93522">
        <ele>845.6585</ele>
        <time>2021-07-19T12:39:39Z</time>
      </trkpt>
      <trkpt lat="37.65392" lon="-2.93454">
        <ele>854.9201</ele>
        <time>2021-07-19T12:39:50Z</time>
      </trkpt>
      <trkpt lat="37.65665" lon="-2.93451">
        <ele>860.3769</ele>
        <time>2021-07-19T12:40:01Z</time>
      </trkpt>
      <trkpt lat="37.65938" lon="-2.93431">
        <ele>865.7073</ele>
        <time>2021-07-19T12:40:12Z</time>
      </trkpt>
      <trkpt lat="37.66204" lon="-2.93331">
        <ele>870.7442</ele>
        <time>2021-07-19T12:40:23Z</time>
      </trkpt>
      <trkpt lat="37.66473" lon="-2.93231">
        <ele>874.9811</ele>
        <time>2021-07-19T12:40:34Z</time>
      </trkpt>
      <trkpt lat="37.66742" lon="-2.93132">
        <ele>875.9342</ele>
        <time>2021-07-19T12:40:45Z</time>
      </trkpt>
      <trkpt lat="37.67008" lon="-2.93035">
        <ele>874.5106</ele>
        <time>2021-07-19T12:40:56Z</time>
      </trkpt>
      <trkpt lat="37.67276" lon="-2.92934">
        <ele>880.5894</ele>
        <time>2021-07-19T12:41:07Z</time>
      </trkpt>
      <trkpt lat="37.67536" lon="-2.92854">
        <ele>883.5231</ele>
        <time>2021-07-19T12:41:18Z</time>
      </trkpt>
      <trkpt lat="37.6779" lon="-2.92777">
        <ele>888.1737</ele>
        <time>2021-07-19T12:41:29Z</time>
      </trkpt>
      <trkpt lat="37.68044" lon="-2.92714">
        <ele>894.4153</ele>
        <time>2021-07-19T12:41:40Z</time>
      </trkpt>
      <trkpt lat="37.683" lon="-2.92768">
        <ele>898.3183</ele>
        <time>2021-07-19T12:41:51Z</time>
      </trkpt>
      <trkpt lat="37.6855" lon="-2.92853">
        <ele>899.0544</ele>
        <time>2021-07-19T12:42:02Z</time>
      </trkpt>
      <trkpt lat="37.68789" lon="-2.92941">
        <ele>896.6915</ele>
        <time>2021-07-19T12:42:13Z</time>
      </trkpt>
      <trkpt lat="37.68984" lon="-2.93044">
        <ele>891.8637</ele>
        <time>2021-07-19T12:42:24Z</time>
      </trkpt>
      <trkpt lat="37.6917" lon="-2.93167">
        <ele>882.7225</ele>
        <time>2021-07-19T12:42:35Z</time>
      </trkpt>
      <trkpt lat="37.69281" lon="-2.93374">
        <ele>872.6784</ele>
        <time>2021-07-19T12:42:46Z</time>
      </trkpt>
      <trkpt lat="37.69449" lon="-2.93493">
        <ele>859.3037</ele>
        <time>2021-07-19T12:42:57Z</time>
      </trkpt>
      <trkpt lat="37.69601" lon="-2.9347">
        <ele>858.6415</ele>
        <time>2021-07-19T12:43:08Z</time>
      </trkpt>
      <trkpt lat="37.69756" lon="-2.9342">
        <ele>856.063</ele>
        <time>2021-07-19T12:43:19Z</time>
      </trkpt>
      <trkpt lat="37.69884" lon="-2.93395">
        <ele>852.309</ele>
        <time>2021-07-19T12:43:30Z</time>
      </trkpt>
      <trkpt lat="37.69987" lon="-2.93408">
        <ele>849.1923</ele>
        <time>2021-07-19T12:43:41Z</time>
      </trkpt>
      <trkpt lat="37.70003" lon="-2.93402">
        <ele>847.3242</ele>
        <time>2021-07-19T12:43:52Z</time>
      </trkpt>
      <trkpt lat="37.70008" lon="-2.93409">
        <ele>851.4998</ele>
        <time>2021-07-19T12:44:03Z</time>
      </trkpt>
      <trkpt lat="37.70008" lon="-2.93417">
        <ele>851.6393</ele>
        <time>2021-07-19T12:44:14Z</time>
      </trkpt>
      <trkpt lat="37.70012" lon="-2.93408">
        <ele>843.983</ele>
        <time>2021-07-19T12:44:53Z</time>
      </trkpt>
      <trkpt lat="37.70013" lon="-2.93408">
        <ele>835.4592</ele>
        <time>2021-07-19T12:45:53Z</time>
      </trkpt>
      <trkpt lat="37.70012" lon="-2.93418">
        <ele>833.0165</ele>
        <time>2021-07-19T12:46:04Z</time>
      </trkpt>
      <trkpt lat="37.70011" lon="-2.93418">
        <ele>833.1707</ele>
        <time>2021-07-19T12:47:04Z</time>
      </trkpt>
      <trkpt lat="37.70011" lon="-2.93418">
        <ele>833.1707</ele>
        <time>2021-07-19T12:48:04Z</time>
      </trkpt>
      <trkpt lat="37.70009" lon="-2.93416">
        <ele>831.1014</ele>
        <time>2021-07-19T12:49:04Z</time>
      </trkpt>
      <trkpt lat="37.70009" lon="-2.93416">
        <ele>831.1014</ele>
        <time>2021-07-19T12:50:04Z</time>
      </trkpt>
      <trkpt lat="37.70009" lon="-2.93416">
        <ele>831.1014</ele>
        <time>2021-07-19T12:51:04Z</time>
      </trkpt>
      <trkpt lat="37.70014" lon="-2.93415">
        <ele>828.6082</ele>
        <time>2021-07-19T12:51:43Z</time>
      </trkpt>
      <trkpt lat="37.70013" lon="-2.93411">
        <ele>835.7494</ele>
        <time>2021-07-19T12:52:34Z</time>
      </trkpt>
      <trkpt lat="37.7001" lon="-2.93413">
        <ele>840.4178</ele>
        <time>2021-07-19T12:52:53Z</time>
      </trkpt>
      <trkpt lat="37.70009" lon="-2.93418">
        <ele>848.5135</ele>
        <time>2021-07-19T12:53:09Z</time>
      </trkpt>
      <trkpt lat="37.70061" lon="-2.93433">
        <ele>852.4166</ele>
        <time>2021-07-19T12:53:20Z</time>
      </trkpt>
      <trkpt lat="37.7011" lon="-2.9344">
        <ele>855.878</ele>
        <time>2021-07-19T12:53:31Z</time>
      </trkpt>
      <trkpt lat="37.70148" lon="-2.93459">
        <ele>867.1777</ele>
        <time>2021-07-19T12:53:42Z</time>
      </trkpt>
      <trkpt lat="37.70156" lon="-2.9346">
        <ele>866.4707</ele>
        <time>2021-07-19T12:53:53Z</time>
      </trkpt>
      <trkpt lat="37.70153" lon="-2.93453">
        <ele>866.5029</ele>
        <time>2021-07-19T12:54:04Z</time>
      </trkpt>
      <trkpt lat="37.70155" lon="-2.93443">
        <ele>865.8862</ele>
        <time>2021-07-19T12:54:25Z</time>
      </trkpt>
      <trkpt lat="37.7016" lon="-2.93444">
        <ele>869.2235</ele>
        <time>2021-07-19T12:54:55Z</time>
      </trkpt>
      <trkpt lat="37.70151" lon="-2.93443">
        <ele>864.4513</ele>
        <time>2021-07-19T12:55:06Z</time>
      </trkpt>
      <trkpt lat="37.70136" lon="-2.93436">
        <ele>866.5513</ele>
        <time>2021-07-19T12:55:17Z</time>
      </trkpt>
      <trkpt lat="37.70139" lon="-2.93433">
        <ele>866.5536</ele>
        <time>2021-07-19T12:55:33Z</time>
      </trkpt>
      <trkpt lat="37.70136" lon="-2.93431">
        <ele>849.5687</ele>
        <time>2021-07-19T12:55:46Z</time>
      </trkpt>
      <trkpt lat="37.70139" lon="-2.93438">
        <ele>849.1125</ele>
        <time>2021-07-19T12:55:57Z</time>
      </trkpt>
      <trkpt lat="37.70137" lon="-2.93434">
        <ele>848.2172</ele>
        <time>2021-07-19T12:56:14Z</time>
      </trkpt>
      <trkpt lat="37.70138" lon="-2.93441">
        <ele>848.7582</ele>
        <time>2021-07-19T12:56:44Z</time>
      </trkpt>
      <trkpt lat="37.70134" lon="-2.93443">
        <ele>849.9475</ele>
        <time>2021-07-19T12:57:14Z</time>
      </trkpt>
      <trkpt lat="37.70135" lon="-2.93438">
        <ele>851.2529</ele>
        <time>2021-07-19T12:57:26Z</time>
      </trkpt>
      <trkpt lat="37.70133" lon="-2.93433">
        <ele>849.4549</ele>
        <time>2021-07-19T12:57:40Z</time>
      </trkpt>
      <trkpt lat="37.70138" lon="-2.93438">
        <ele>850.3323</ele>
        <time>2021-07-19T12:57:51Z</time>
      </trkpt>
      <trkpt lat="37.70141" lon="-2.93441">
        <ele>849.8772</ele>
        <time>2021-07-19T12:58:32Z</time>
      </trkpt>
      <trkpt lat="37.70145" lon="-2.93443">
        <ele>849.7283</ele>
        <time>2021-07-19T12:58:44Z</time>
      </trkpt>
      <trkpt lat="37.70143" lon="-2.93439">
        <ele>849.5843</ele>
        <time>2021-07-19T12:58:58Z</time>
      </trkpt>
      <trkpt lat="37.70141" lon="-2.93435">
        <ele>848.1853</ele>
        <time>2021-07-19T12:59:30Z</time>
      </trkpt>
      <trkpt lat="37.70148" lon="-2.93438">
        <ele>848.8543</ele>
        <time>2021-07-19T13:00:05Z</time>
      </trkpt>
      <trkpt lat="37.70144" lon="-2.93436">
        <ele>846.8977</ele>
        <time>2021-07-19T13:00:16Z</time>
      </trkpt>
      <trkpt lat="37.70143" lon="-2.93431">
        <ele>848.4826</ele>
        <time>2021-07-19T13:00:27Z</time>
      </trkpt>
      <trkpt lat="37.70143" lon="-2.93436">
        <ele>849.1531</ele>
        <time>2021-07-19T13:01:09Z</time>
      </trkpt>
      <trkpt lat="37.70143" lon="-2.93431">
        <ele>848.7748</ele>
        <time>2021-07-19T13:01:27Z</time>
      </trkpt>
      <trkpt lat="37.70139" lon="-2.9343">
        <ele>849.189</ele>
        <time>2021-07-19T13:02:06Z</time>
      </trkpt>
      <trkpt lat="37.70141" lon="-2.93433">
        <ele>850.1122</ele>
        <time>2021-07-19T13:02:33Z</time>
      </trkpt>
      <trkpt lat="37.70142" lon="-2.93437">
        <ele>849.1419</ele>
        <time>2021-07-19T13:02:58Z</time>
      </trkpt>
      <trkpt lat="37.70139" lon="-2.93437">
        <ele>849.0533</ele>
        <time>2021-07-19T13:03:57Z</time>
      </trkpt>
      <trkpt lat="37.70142" lon="-2.93439">
        <ele>848.5819</ele>
        <time>2021-07-19T13:04:20Z</time>
      </trkpt>
      <trkpt lat="37.7014" lon="-2.93443">
        <ele>848.7948</ele>
        <time>2021-07-19T13:04:42Z</time>
      </trkpt>
      <trkpt lat="37.70141" lon="-2.93438">
        <ele>851.1576</ele>
        <time>2021-07-19T13:05:11Z</time>
      </trkpt>
      <trkpt lat="37.70139" lon="-2.93434">
        <ele>850.9384</ele>
        <time>2021-07-19T13:05:26Z</time>
      </trkpt>
      <trkpt lat="37.70135" lon="-2.93437">
        <ele>850.6378</ele>
        <time>2021-07-19T13:05:59Z</time>
      </trkpt>
      <trkpt lat="37.70136" lon="-2.93444">
        <ele>850.2443</ele>
        <time>2021-07-19T13:06:10Z</time>
      </trkpt>
      <trkpt lat="37.70138" lon="-2.93439">
        <ele>849.7796</ele>
        <time>2021-07-19T13:06:24Z</time>
      </trkpt>
      <trkpt lat="37.70141" lon="-2.93435">
        <ele>849.6886</ele>
        <time>2021-07-19T13:06:44Z</time>
      </trkpt>
      <trkpt lat="37.70144" lon="-2.93438">
        <ele>850.1417</ele>
        <time>2021-07-19T13:06:55Z</time>
      </trkpt>
      <trkpt lat="37.7014" lon="-2.93435">
        <ele>850.5923</ele>
        <time>2021-07-19T13:07:06Z</time>
      </trkpt>
      <trkpt lat="37.70143" lon="-2.93438">
        <ele>849.4189</ele>
        <time>2021-07-19T13:07:46Z</time>
      </trkpt>
      <trkpt lat="37.70147" lon="-2.93438">
        <ele>850.1236</ele>
        <time>2021-07-19T13:08:03Z</time>
      </trkpt>
      <trkpt lat="37.70152" lon="-2.93442">
        <ele>849.7564</ele>
        <time>2021-07-19T13:08:14Z</time>
      </trkpt>
      <trkpt lat="37.70147" lon="-2.93441">
        <ele>849.0236</ele>
        <time>2021-07-19T13:08:25Z</time>
      </trkpt>
      <trkpt lat="37.70144" lon="-2.93438">
        <ele>849.2184</ele>
        <time>2021-07-19T13:08:37Z</time>
      </trkpt>
      <trkpt lat="37.70142" lon="-2.93436">
        <ele>849.5497</ele>
        <time>2021-07-19T13:09:06Z</time>
      </trkpt>
      <trkpt lat="37.70142" lon="-2.93433">
        <ele>850.1488</ele>
        <time>2021-07-19T13:10:05Z</time>
      </trkpt>
      <trkpt lat="37.70146" lon="-2.93433">
        <ele>849.9851</ele>
        <time>2021-07-19T13:10:38Z</time>
      </trkpt>
      <trkpt lat="37.7015" lon="-2.93434">
        <ele>849.1639</ele>
        <time>2021-07-19T13:11:31Z</time>
      </trkpt>
      <trkpt lat="37.70146" lon="-2.93437">
        <ele>849.08</ele>
        <time>2021-07-19T13:11:42Z</time>
      </trkpt>
      <trkpt lat="37.70149" lon="-2.93434">
        <ele>849.3297</ele>
        <time>2021-07-19T13:11:56Z</time>
      </trkpt>
      <trkpt lat="37.70146" lon="-2.93431">
        <ele>850.4202</ele>
        <time>2021-07-19T13:12:30Z</time>
      </trkpt>
      <trkpt lat="37.70147" lon="-2.93435">
        <ele>849.3191</ele>
        <time>2021-07-19T13:13:23Z</time>
      </trkpt>
      <trkpt lat="37.70145" lon="-2.93439">
        <ele>848.7066</ele>
        <time>2021-07-19T13:14:20Z</time>
      </trkpt>
      <trkpt lat="37.70145" lon="-2.93438">
        <ele>848.733</ele>
        <time>2021-07-19T13:15:19Z</time>
      </trkpt>
      <trkpt lat="37.70143" lon="-2.93436">
        <ele>849.3471</ele>
        <time>2021-07-19T13:16:19Z</time>
      </trkpt>
      <trkpt lat="37.70147" lon="-2.93435">
        <ele>849.735</ele>
        <time>2021-07-19T13:16:47Z</time>
      </trkpt>
      <trkpt lat="37.70146" lon="-2.93431">
        <ele>848.9548</ele>
        <time>2021-07-19T13:17:17Z</time>
      </trkpt>
      <trkpt lat="37.70147" lon="-2.93434">
        <ele>848.6859</ele>
        <time>2021-07-19T13:18:17Z</time>
      </trkpt>
      <trkpt lat="37.70145" lon="-2.93442">
        <ele>848.5862</ele>
        <time>2021-07-19T13:18:54Z</time>
      </trkpt>
      <trkpt lat="37.70145" lon="-2.93441">
        <ele>848.6283</ele>
        <time>2021-07-19T13:19:54Z</time>
      </trkpt>
      <trkpt lat="37.70145" lon="-2.93441">
        <ele>848.6283</ele>
        <time>2021-07-19T13:20:54Z</time>
      </trkpt>
      <trkpt lat="37.70145" lon="-2.93441">
        <ele>848.6283</ele>
        <time>2021-07-19T13:21:54Z</time>
      </trkpt>
      <trkpt lat="37.70144" lon="-2.93441">
        <ele>849.1611</ele>
        <time>2021-07-19T13:22:54Z</time>
      </trkpt>
      <trkpt lat="37.70144" lon="-2.93441">
        <ele>849.2908</ele>
        <time>2021-07-19T13:23:54Z</time>
      </trkpt>
      <trkpt lat="37.70144" lon="-2.93441">
        <ele>849.2908</ele>
        <time>2021-07-19T13:24:54Z</time>
      </trkpt>
      <trkpt lat="37.70144" lon="-2.93441">
        <ele>849.2908</ele>
        <time>2021-07-19T13:25:54Z</time>
      </trkpt>
      <trkpt lat="37.70139" lon="-2.93442">
        <ele>849.4642</ele>
        <time>2021-07-19T13:26:05Z</time>
      </trkpt>
      <trkpt lat="37.70142" lon="-2.93439">
        <ele>849.32</ele>
        <time>2021-07-19T13:26:16Z</time>
      </trkpt>
      <trkpt lat="37.70146" lon="-2.93437">
        <ele>849.5515</ele>
        <time>2021-07-19T13:26:27Z</time>
      </trkpt>
      <trkpt lat="37.7015" lon="-2.93435">
        <ele>849.0912</ele>
        <time>2021-07-19T13:26:41Z</time>
      </trkpt>
      <trkpt lat="37.70147" lon="-2.93432">
        <ele>849.2269</ele>
        <time>2021-07-19T13:27:35Z</time>
      </trkpt>
      <trkpt lat="37.70147" lon="-2.93433">
        <ele>848.1431</ele>
        <time>2021-07-19T13:28:35Z</time>
      </trkpt>
      <trkpt lat="37.70147" lon="-2.93433">
        <ele>848.1431</ele>
        <time>2021-07-19T13:29:35Z</time>
      </trkpt>
      <trkpt lat="37.70147" lon="-2.93433">
        <ele>848.1431</ele>
        <time>2021-07-19T13:30:35Z</time>
      </trkpt>
      <trkpt lat="37.70145" lon="-2.93436">
        <ele>849.7755</ele>
        <time>2021-07-19T13:31:35Z</time>
      </trkpt>
      <trkpt lat="37.70145" lon="-2.93436">
        <ele>849.7755</ele>
        <time>2021-07-19T13:32:35Z</time>
      </trkpt>
      <trkpt lat="37.70145" lon="-2.93436">
        <ele>849.7755</ele>
        <time>2021-07-19T13:33:35Z</time>
      </trkpt>
      <trkpt lat="37.70145" lon="-2.93436">
        <ele>849.1896</ele>
        <time>2021-07-19T13:34:34Z</time>
      </trkpt>
      <trkpt lat="37.70146" lon="-2.9344">
        <ele>849.2095</ele>
        <time>2021-07-19T13:34:52Z</time>
      </trkpt>
      <trkpt lat="37.70148" lon="-2.93441">
        <ele>850.3446</ele>
        <time>2021-07-19T13:35:51Z</time>
      </trkpt>
      <trkpt lat="37.70144" lon="-2.93437">
        <ele>848.4243</ele>
        <time>2021-07-19T13:36:31Z</time>
      </trkpt>
      <trkpt lat="37.70141" lon="-2.93437">
        <ele>850.374</ele>
        <time>2021-07-19T13:36:51Z</time>
      </trkpt>
      <trkpt lat="37.70139" lon="-2.93439">
        <ele>849.51</ele>
        <time>2021-07-19T13:37:50Z</time>
      </trkpt>
      <trkpt lat="37.70143" lon="-2.93433">
        <ele>850.2486</ele>
        <time>2021-07-19T13:38:06Z</time>
      </trkpt>
      <trkpt lat="37.70147" lon="-2.93435">
        <ele>849.0623</ele>
        <time>2021-07-19T13:38:37Z</time>
      </trkpt>
      <trkpt lat="37.70143" lon="-2.93438">
        <ele>847.3518</ele>
        <time>2021-07-19T13:38:57Z</time>
      </trkpt>
      <trkpt lat="37.70143" lon="-2.93436">
        <ele>848.1152</ele>
        <time>2021-07-19T13:39:56Z</time>
      </trkpt>
      <trkpt lat="37.70142" lon="-2.93433">
        <ele>848.8028</ele>
        <time>2021-07-19T13:40:55Z</time>
      </trkpt>
      <trkpt lat="37.70142" lon="-2.93433">
        <ele>848.8028</ele>
        <time>2021-07-19T13:41:55Z</time>
      </trkpt>
      <trkpt lat="37.70139" lon="-2.93435">
        <ele>848.6755</ele>
        <time>2021-07-19T13:42:38Z</time>
      </trkpt>
      <trkpt lat="37.70142" lon="-2.93433">
        <ele>847.7815</ele>
        <time>2021-07-19T13:42:53Z</time>
      </trkpt>
      <trkpt lat="37.70146" lon="-2.93433">
        <ele>850.1832</ele>
        <time>2021-07-19T13:43:06Z</time>
      </trkpt>
      <trkpt lat="37.70145" lon="-2.93435">
        <ele>849.2313</ele>
        <time>2021-07-19T13:44:06Z</time>
      </trkpt>
      <trkpt lat="37.70145" lon="-2.93435">
        <ele>849.2313</ele>
        <time>2021-07-19T13:45:06Z</time>
      </trkpt>
      <trkpt lat="37.70145" lon="-2.93435">
        <ele>849.2313</ele>
        <time>2021-07-19T13:46:06Z</time>
      </trkpt>
      <trkpt lat="37.70145" lon="-2.93435">
        <ele>849.2313</ele>
        <time>2021-07-19T13:47:06Z</time>
      </trkpt>
      <trkpt lat="37.70147" lon="-2.93432">
        <ele>851.0974</ele>
        <time>2021-07-19T13:48:06Z</time>
      </trkpt>
      <trkpt lat="37.70147" lon="-2.93434">
        <ele>850.5008</ele>
        <time>2021-07-19T13:49:06Z</time>
      </trkpt>
      <trkpt lat="37.70147" lon="-2.93434">
        <ele>850.5008</ele>
        <time>2021-07-19T13:50:06Z</time>
      </trkpt>
      <trkpt lat="37.70147" lon="-2.93434">
        <ele>850.5008</ele>
        <time>2021-07-19T13:51:06Z</time>
      </trkpt>
      <trkpt lat="37.70145" lon="-2.93435">
        <ele>849.8866</ele>
        <time>2021-07-19T13:52:05Z</time>
      </trkpt>
      <trkpt lat="37.70144" lon="-2.93435">
        <ele>849.5264</ele>
        <time>2021-07-19T13:53:04Z</time>
      </trkpt>
      <trkpt lat="37.70144" lon="-2.93435">
        <ele>849.5264</ele>
        <time>2021-07-19T13:54:03Z</time>
      </trkpt>
      <trkpt lat="37.70144" lon="-2.93434">
        <ele>850.526</ele>
        <time>2021-07-19T13:55:02Z</time>
      </trkpt>
      <trkpt lat="37.70142" lon="-2.93434">
        <ele>849.7364</ele>
        <time>2021-07-19T13:56:00Z</time>
      </trkpt>
      <trkpt lat="37.70149" lon="-2.93439">
        <ele>850.196</ele>
        <time>2021-07-19T13:56:11Z</time>
      </trkpt>
      <trkpt lat="37.70151" lon="-2.93441">
        <ele>849.0091</ele>
        <time>2021-07-19T13:57:10Z</time>
      </trkpt>
      <trkpt lat="37.70149" lon="-2.93445">
        <ele>848.9112</ele>
        <time>2021-07-19T13:57:23Z</time>
      </trkpt>
      <trkpt lat="37.70152" lon="-2.93442">
        <ele>849.1789</ele>
        <time>2021-07-19T13:57:43Z</time>
      </trkpt>
      <trkpt lat="37.70156" lon="-2.93441">
        <ele>847.9517</ele>
        <time>2021-07-19T13:58:16Z</time>
      </trkpt>
      <trkpt lat="37.70157" lon="-2.93438">
        <ele>849.7925</ele>
        <time>2021-07-19T13:59:15Z</time>
      </trkpt>
      <trkpt lat="37.70154" lon="-2.93442">
        <ele>852.6079</ele>
        <time>2021-07-19T13:59:26Z</time>
      </trkpt>
      <trkpt lat="37.70156" lon="-2.93445">
        <ele>852.2269</ele>
        <time>2021-07-19T13:59:56Z</time>
      </trkpt>
      <trkpt lat="37.70156" lon="-2.9345">
        <ele>855.1217</ele>
        <time>2021-07-19T14:00:09Z</time>
      </trkpt>
      <trkpt lat="37.70155" lon="-2.93449">
        <ele>852.9502</ele>
        <time>2021-07-19T14:01:08Z</time>
      </trkpt>
      <trkpt lat="37.70157" lon="-2.93458">
        <ele>857.3618</ele>
        <time>2021-07-19T14:01:28Z</time>
      </trkpt>
      <trkpt lat="37.70207" lon="-2.9349">
        <ele>854.5112</ele>
        <time>2021-07-19T14:01:39Z</time>
      </trkpt>
      <trkpt lat="37.70267" lon="-2.93558">
        <ele>849.7673</ele>
        <time>2021-07-19T14:01:50Z</time>
      </trkpt>
      <trkpt lat="37.7031" lon="-2.93648">
        <ele>843.3102</ele>
        <time>2021-07-19T14:02:01Z</time>
      </trkpt>
      <trkpt lat="37.70397" lon="-2.93662">
        <ele>842.1754</ele>
        <time>2021-07-19T14:02:12Z</time>
      </trkpt>
      <trkpt lat="37.70459" lon="-2.93707">
        <ele>848.7777</ele>
        <time>2021-07-19T14:02:23Z</time>
      </trkpt>
      <trkpt lat="37.70527" lon="-2.93769">
        <ele>847.4373</ele>
        <time>2021-07-19T14:02:34Z</time>
      </trkpt>
      <trkpt lat="37.70603" lon="-2.93821">
        <ele>844.9532</ele>
        <time>2021-07-19T14:02:45Z</time>
      </trkpt>
      <trkpt lat="37.7066" lon="-2.9386">
        <ele>846.3305</ele>
        <time>2021-07-19T14:02:56Z</time>
      </trkpt>
      <trkpt lat="37.70723" lon="-2.93961">
        <ele>844.0698</ele>
        <time>2021-07-19T14:03:07Z</time>
      </trkpt>
      <trkpt lat="37.70772" lon="-2.9417">
        <ele>837.2585</ele>
        <time>2021-07-19T14:03:18Z</time>
      </trkpt>
      <trkpt lat="37.70858" lon="-2.94465">
        <ele>828.2399</ele>
        <time>2021-07-19T14:03:29Z</time>
      </trkpt>
      <trkpt lat="37.70949" lon="-2.94754">
        <ele>823.646</ele>
        <time>2021-07-19T14:03:40Z</time>
      </trkpt>
      <trkpt lat="37.71034" lon="-2.95021">
        <ele>817.1611</ele>
        <time>2021-07-19T14:03:51Z</time>
      </trkpt>
      <trkpt lat="37.71123" lon="-2.95291">
        <ele>811.6504</ele>
        <time>2021-07-19T14:04:02Z</time>
      </trkpt>
      <trkpt lat="37.71213" lon="-2.95533">
        <ele>809.6284</ele>
        <time>2021-07-19T14:04:13Z</time>
      </trkpt>
      <trkpt lat="37.71313" lon="-2.95816">
        <ele>805.2925</ele>
        <time>2021-07-19T14:04:24Z</time>
      </trkpt>
      <trkpt lat="37.7141" lon="-2.96121">
        <ele>800.5283</ele>
        <time>2021-07-19T14:04:35Z</time>
      </trkpt>
      <trkpt lat="37.71505" lon="-2.96425">
        <ele>794.4555</ele>
        <time>2021-07-19T14:04:46Z</time>
      </trkpt>
      <trkpt lat="37.71601" lon="-2.9673">
        <ele>791.642</ele>
        <time>2021-07-19T14:04:57Z</time>
      </trkpt>
      <trkpt lat="37.7168" lon="-2.97045">
        <ele>785.6435</ele>
        <time>2021-07-19T14:05:08Z</time>
      </trkpt>
      <trkpt lat="37.71655" lon="-2.97386">
        <ele>780.3452</ele>
        <time>2021-07-19T14:05:19Z</time>
      </trkpt>
      <trkpt lat="37.71627" lon="-2.97693">
        <ele>780.4874</ele>
        <time>2021-07-19T14:05:30Z</time>
      </trkpt>
      <trkpt lat="37.71563" lon="-2.97993">
        <ele>781.6008</ele>
        <time>2021-07-19T14:05:41Z</time>
      </trkpt>
      <trkpt lat="37.71444" lon="-2.98276">
        <ele>776.8558</ele>
        <time>2021-07-19T14:05:52Z</time>
      </trkpt>
      <trkpt lat="37.71311" lon="-2.98571">
        <ele>771.1705</ele>
        <time>2021-07-19T14:06:03Z</time>
      </trkpt>
      <trkpt lat="37.7118" lon="-2.98864">
        <ele>758.8396</ele>
        <time>2021-07-19T14:06:14Z</time>
      </trkpt>
      <trkpt lat="37.71112" lon="-2.99173">
        <ele>739.5017</ele>
        <time>2021-07-19T14:06:25Z</time>
      </trkpt>
      <trkpt lat="37.71107" lon="-2.99483">
        <ele>719.2451</ele>
        <time>2021-07-19T14:06:36Z</time>
      </trkpt>
      <trkpt lat="37.71036" lon="-2.99788">
        <ele>697.105</ele>
        <time>2021-07-19T14:06:47Z</time>
      </trkpt>
      <trkpt lat="37.7093" lon="-3.00083">
        <ele>684.1885</ele>
        <time>2021-07-19T14:06:58Z</time>
      </trkpt>
      <trkpt lat="37.70862" lon="-3.00398">
        <ele>683.0057</ele>
        <time>2021-07-19T14:07:09Z</time>
      </trkpt>
      <trkpt lat="37.70795" lon="-3.00705">
        <ele>690.9106</ele>
        <time>2021-07-19T14:07:20Z</time>
      </trkpt>
      <trkpt lat="37.70717" lon="-3.00993">
        <ele>697.0221</ele>
        <time>2021-07-19T14:07:31Z</time>
      </trkpt>
      <trkpt lat="37.70737" lon="-3.01299">
        <ele>684.6682</ele>
        <time>2021-07-19T14:07:42Z</time>
      </trkpt>
      <trkpt lat="37.70524" lon="-3.01466">
        <ele>666.7477</ele>
        <time>2021-07-19T14:07:53Z</time>
      </trkpt>
      <trkpt lat="37.70287" lon="-3.01598">
        <ele>652.4296</ele>
        <time>2021-07-19T14:08:04Z</time>
      </trkpt>
      <trkpt lat="37.70211" lon="-3.01897">
        <ele>641.4146</ele>
        <time>2021-07-19T14:08:15Z</time>
      </trkpt>
      <trkpt lat="37.7032" lon="-3.02196">
        <ele>628.0442</ele>
        <time>2021-07-19T14:08:26Z</time>
      </trkpt>
      <trkpt lat="37.7051" lon="-3.02428">
        <ele>614.4068</ele>
        <time>2021-07-19T14:08:37Z</time>
      </trkpt>
      <trkpt lat="37.70592" lon="-3.0275">
        <ele>599.4902</ele>
        <time>2021-07-19T14:08:48Z</time>
      </trkpt>
      <trkpt lat="37.70567" lon="-3.03053">
        <ele>585.3715</ele>
        <time>2021-07-19T14:08:59Z</time>
      </trkpt>
      <trkpt lat="37.70474" lon="-3.03345">
        <ele>564.9907</ele>
        <time>2021-07-19T14:09:10Z</time>
      </trkpt>
      <trkpt lat="37.70577" lon="-3.03663">
        <ele>547.0402</ele>
        <time>2021-07-19T14:09:21Z</time>
      </trkpt>
      <trkpt lat="37.70647" lon="-3.04006">
        <ele>525.5623</ele>
        <time>2021-07-19T14:09:32Z</time>
      </trkpt>
      <trkpt lat="37.7069" lon="-3.04335">
        <ele>504.542</ele>
        <time>2021-07-19T14:09:43Z</time>
      </trkpt>
      <trkpt lat="37.7089" lon="-3.04547">
        <ele>495.9839</ele>
        <time>2021-07-19T14:09:54Z</time>
      </trkpt>
      <trkpt lat="37.71123" lon="-3.04647">
        <ele>492.7983</ele>
        <time>2021-07-19T14:10:05Z</time>
      </trkpt>
      <trkpt lat="37.7133" lon="-3.04792">
        <ele>489.4315</ele>
        <time>2021-07-19T14:10:16Z</time>
      </trkpt>
      <trkpt lat="37.71492" lon="-3.05025">
        <ele>486.724</ele>
        <time>2021-07-19T14:10:27Z</time>
      </trkpt>
      <trkpt lat="37.71731" lon="-3.04931">
        <ele>484.8608</ele>
        <time>2021-07-19T14:10:38Z</time>
      </trkpt>
      <trkpt lat="37.71958" lon="-3.04796">
        <ele>480.3948</ele>
        <time>2021-07-19T14:10:49Z</time>
      </trkpt>
      <trkpt lat="37.72139" lon="-3.0498">
        <ele>474.8549</ele>
        <time>2021-07-19T14:11:00Z</time>
      </trkpt>
      <trkpt lat="37.72216" lon="-3.05298">
        <ele>474.3857</ele>
        <time>2021-07-19T14:11:11Z</time>
      </trkpt>
      <trkpt lat="37.7241" lon="-3.05448">
        <ele>475.2805</ele>
        <time>2021-07-19T14:11:22Z</time>
      </trkpt>
      <trkpt lat="37.72657" lon="-3.0543">
        <ele>477.5358</ele>
        <time>2021-07-19T14:11:33Z</time>
      </trkpt>
      <trkpt lat="37.72901" lon="-3.05417">
        <ele>485.6939</ele>
        <time>2021-07-19T14:11:44Z</time>
      </trkpt>
      <trkpt lat="37.73127" lon="-3.05475">
        <ele>488.9475</ele>
        <time>2021-07-19T14:11:55Z</time>
      </trkpt>
      <trkpt lat="37.73271" lon="-3.05741">
        <ele>483.5954</ele>
        <time>2021-07-19T14:12:06Z</time>
      </trkpt>
      <trkpt lat="37.73331" lon="-3.06028">
        <ele>484.712</ele>
        <time>2021-07-19T14:12:17Z</time>
      </trkpt>
      <trkpt lat="37.73408" lon="-3.06244">
        <ele>496.8382</ele>
        <time>2021-07-19T14:12:28Z</time>
      </trkpt>
      <trkpt lat="37.73389" lon="-3.06468">
        <ele>496.0937</ele>
        <time>2021-07-19T14:12:39Z</time>
      </trkpt>
      <trkpt lat="37.73301" lon="-3.06696">
        <ele>484.8038</ele>
        <time>2021-07-19T14:12:50Z</time>
      </trkpt>
      <trkpt lat="37.73213" lon="-3.06911">
        <ele>474.4523</ele>
        <time>2021-07-19T14:13:01Z</time>
      </trkpt>
      <trkpt lat="37.73026" lon="-3.07115">
        <ele>465.5932</ele>
        <time>2021-07-19T14:13:12Z</time>
      </trkpt>
      <trkpt lat="37.72944" lon="-3.07369">
        <ele>470.6381</ele>
        <time>2021-07-19T14:13:23Z</time>
      </trkpt>
      <trkpt lat="37.73046" lon="-3.07656">
        <ele>468.1149</ele>
        <time>2021-07-19T14:13:34Z</time>
      </trkpt>
      <trkpt lat="37.73237" lon="-3.07727">
        <ele>467.2769</ele>
        <time>2021-07-19T14:13:45Z</time>
      </trkpt>
      <trkpt lat="37.73452" lon="-3.07791">
        <ele>464.1931</ele>
        <time>2021-07-19T14:13:56Z</time>
      </trkpt>
      <trkpt lat="37.73664" lon="-3.07818">
        <ele>461.5202</ele>
        <time>2021-07-19T14:14:07Z</time>
      </trkpt>
      <trkpt lat="37.73862" lon="-3.07897">
        <ele>460.2151</ele>
        <time>2021-07-19T14:14:18Z</time>
      </trkpt>
      <trkpt lat="37.74033" lon="-3.08065">
        <ele>466.1358</ele>
        <time>2021-07-19T14:14:29Z</time>
      </trkpt>
      <trkpt lat="37.7418" lon="-3.08131">
        <ele>478.582</ele>
        <time>2021-07-19T14:14:40Z</time>
      </trkpt>
      <trkpt lat="37.74316" lon="-3.08331">
        <ele>498.6324</ele>
        <time>2021-07-19T14:14:51Z</time>
      </trkpt>
      <trkpt lat="37.74368" lon="-3.08562">
        <ele>515.9934</ele>
        <time>2021-07-19T14:15:02Z</time>
      </trkpt>
      <trkpt lat="37.74522" lon="-3.0866">
        <ele>534.5594</ele>
        <time>2021-07-19T14:15:13Z</time>
      </trkpt>
      <trkpt lat="37.74685" lon="-3.08729">
        <ele>554.4943</ele>
        <time>2021-07-19T14:15:24Z</time>
      </trkpt>
      <trkpt lat="37.74765" lon="-3.0896">
        <ele>571.8419</ele>
        <time>2021-07-19T14:15:35Z</time>
      </trkpt>
      <trkpt lat="37.74938" lon="-3.08962">
        <ele>586.1556</ele>
        <time>2021-07-19T14:15:46Z</time>
      </trkpt>
      <trkpt lat="37.75091" lon="-3.08777">
        <ele>582.8455</ele>
        <time>2021-07-19T14:15:57Z</time>
      </trkpt>
      <trkpt lat="37.75199" lon="-3.08566">
        <ele>573.3342</ele>
        <time>2021-07-19T14:16:08Z</time>
      </trkpt>
      <trkpt lat="37.753" lon="-3.08435">
        <ele>574.9162</ele>
        <time>2021-07-19T14:16:19Z</time>
      </trkpt>
      <trkpt lat="37.75438" lon="-3.08364">
        <ele>585.6011</ele>
        <time>2021-07-19T14:16:30Z</time>
      </trkpt>
      <trkpt lat="37.75608" lon="-3.0839">
        <ele>595.6016</ele>
        <time>2021-07-19T14:16:41Z</time>
      </trkpt>
      <trkpt lat="37.75787" lon="-3.08285">
        <ele>601.2176</ele>
        <time>2021-07-19T14:16:52Z</time>
      </trkpt>
      <trkpt lat="37.75922" lon="-3.08178">
        <ele>604.8575</ele>
        <time>2021-07-19T14:17:03Z</time>
      </trkpt>
      <trkpt lat="37.76079" lon="-3.08146">
        <ele>616.6321</ele>
        <time>2021-07-19T14:17:14Z</time>
      </trkpt>
      <trkpt lat="37.76231" lon="-3.08128">
        <ele>610.7745</ele>
        <time>2021-07-19T14:17:25Z</time>
      </trkpt>
      <trkpt lat="37.76312" lon="-3.08204">
        <ele>614.6801</ele>
        <time>2021-07-19T14:17:36Z</time>
      </trkpt>
      <trkpt lat="37.76364" lon="-3.08123">
        <ele>621.7044</ele>
        <time>2021-07-19T14:17:47Z</time>
      </trkpt>
      <trkpt lat="37.76414" lon="-3.08024">
        <ele>628.826</ele>
        <time>2021-07-19T14:17:58Z</time>
      </trkpt>
      <trkpt lat="37.76464" lon="-3.07924">
        <ele>634.7729</ele>
        <time>2021-07-19T14:18:09Z</time>
      </trkpt>
      <trkpt lat="37.76491" lon="-3.07865">
        <ele>637.5278</ele>
        <time>2021-07-19T14:18:20Z</time>
      </trkpt>
      <trkpt lat="37.76521" lon="-3.07792">
        <ele>649.0617</ele>
        <time>2021-07-19T14:18:31Z</time>
      </trkpt>
      <trkpt lat="37.76575" lon="-3.07703">
        <ele>653.6732</ele>
        <time>2021-07-19T14:18:42Z</time>
      </trkpt>
      <trkpt lat="37.76629" lon="-3.07615">
        <ele>656.1105</ele>
        <time>2021-07-19T14:18:53Z</time>
      </trkpt>
      <trkpt lat="37.76686" lon="-3.07599">
        <ele>653.881</ele>
        <time>2021-07-19T14:19:04Z</time>
      </trkpt>
      <trkpt lat="37.76798" lon="-3.07666">
        <ele>651.1923</ele>
        <time>2021-07-19T14:19:15Z</time>
      </trkpt>
      <trkpt lat="37.76935" lon="-3.0779">
        <ele>650.1012</ele>
        <time>2021-07-19T14:19:26Z</time>
      </trkpt>
      <trkpt lat="37.77153" lon="-3.0789">
        <ele>653.6536</ele>
        <time>2021-07-19T14:19:37Z</time>
      </trkpt>
      <trkpt lat="37.77357" lon="-3.07997">
        <ele>663.6113</ele>
        <time>2021-07-19T14:19:48Z</time>
      </trkpt>
      <trkpt lat="37.77452" lon="-3.08076">
        <ele>667.6465</ele>
        <time>2021-07-19T14:19:59Z</time>
      </trkpt>
      <trkpt lat="37.77434" lon="-3.08114">
        <ele>666.6725</ele>
        <time>2021-07-19T14:20:10Z</time>
      </trkpt>
      <trkpt lat="37.77432" lon="-3.08115">
        <ele>666.633</ele>
        <time>2021-07-19T14:21:10Z</time>
      </trkpt>
      <trkpt lat="37.77432" lon="-3.08115">
        <ele>666.633</ele>
        <time>2021-07-19T14:22:10Z</time>
      </trkpt>
      <trkpt lat="37.77436" lon="-3.08122">
        <ele>673.3186</ele>
        <time>2021-07-19T14:22:37Z</time>
      </trkpt>
      <trkpt lat="37.77435" lon="-3.08117">
        <ele>673.6299</ele>
        <time>2021-07-19T14:23:04Z</time>
      </trkpt>
      <trkpt lat="37.77419" lon="-3.08085">
        <ele>670.9143</ele>
        <time>2021-07-19T14:23:15Z</time>
      </trkpt>
      <trkpt lat="37.77421" lon="-3.08063">
        <ele>668.9273</ele>
        <time>2021-07-19T14:23:26Z</time>
      </trkpt>
      <trkpt lat="37.7752" lon="-3.08116">
        <ele>670.3934</ele>
        <time>2021-07-19T14:23:37Z</time>
      </trkpt>
      <trkpt lat="37.77662" lon="-3.08254">
        <ele>680.7531</ele>
        <time>2021-07-19T14:23:48Z</time>
      </trkpt>
      <trkpt lat="37.77813" lon="-3.08264">
        <ele>684.6735</ele>
        <time>2021-07-19T14:23:59Z</time>
      </trkpt>
      <trkpt lat="37.77946" lon="-3.08336">
        <ele>695.9843</ele>
        <time>2021-07-19T14:24:10Z</time>
      </trkpt>
      <trkpt lat="37.78084" lon="-3.08483">
        <ele>705.3503</ele>
        <time>2021-07-19T14:24:21Z</time>
      </trkpt>
      <trkpt lat="37.78281" lon="-3.08554">
        <ele>712.1458</ele>
        <time>2021-07-19T14:24:32Z</time>
      </trkpt>
      <trkpt lat="37.78485" lon="-3.08557">
        <ele>721.8043</ele>
        <time>2021-07-19T14:24:43Z</time>
      </trkpt>
      <trkpt lat="37.78681" lon="-3.08493">
        <ele>731.9354</ele>
        <time>2021-07-19T14:24:54Z</time>
      </trkpt>
      <trkpt lat="37.78829" lon="-3.08444">
        <ele>744.4678</ele>
        <time>2021-07-19T14:25:05Z</time>
      </trkpt>
      <trkpt lat="37.78931" lon="-3.08487">
        <ele>753.3213</ele>
        <time>2021-07-19T14:25:16Z</time>
      </trkpt>
      <trkpt lat="37.79041" lon="-3.08446">
        <ele>760.4844</ele>
        <time>2021-07-19T14:25:27Z</time>
      </trkpt>
      <trkpt lat="37.79133" lon="-3.08354">
        <ele>771.9947</ele>
        <time>2021-07-19T14:25:38Z</time>
      </trkpt>
      <trkpt lat="37.79225" lon="-3.08279">
        <ele>780.5367</ele>
        <time>2021-07-19T14:25:49Z</time>
      </trkpt>
      <trkpt lat="37.79384" lon="-3.08278">
        <ele>795.6189</ele>
        <time>2021-07-19T14:26:00Z</time>
      </trkpt>
      <trkpt lat="37.79546" lon="-3.08284">
        <ele>807.5956</ele>
        <time>2021-07-19T14:26:11Z</time>
      </trkpt>
      <trkpt lat="37.79729" lon="-3.08381">
        <ele>812.9143</ele>
        <time>2021-07-19T14:26:22Z</time>
      </trkpt>
      <trkpt lat="37.79898" lon="-3.08434">
        <ele>820.8648</ele>
        <time>2021-07-19T14:26:33Z</time>
      </trkpt>
      <trkpt lat="37.80112" lon="-3.08366">
        <ele>816.1007</ele>
        <time>2021-07-19T14:26:44Z</time>
      </trkpt>
      <trkpt lat="37.80344" lon="-3.08296">
        <ele>813.19</ele>
        <time>2021-07-19T14:26:55Z</time>
      </trkpt>
      <trkpt lat="37.80556" lon="-3.08217">
        <ele>815.0831</ele>
        <time>2021-07-19T14:27:06Z</time>
      </trkpt>
      <trkpt lat="37.80755" lon="-3.08404">
        <ele>824.283</ele>
        <time>2021-07-19T14:27:17Z</time>
      </trkpt>
      <trkpt lat="37.80978" lon="-3.08561">
        <ele>827.1027</ele>
        <time>2021-07-19T14:27:28Z</time>
      </trkpt>
      <trkpt lat="37.81178" lon="-3.08774">
        <ele>817.2304</ele>
        <time>2021-07-19T14:27:39Z</time>
      </trkpt>
      <trkpt lat="37.81347" lon="-3.08898">
        <ele>804.1579</ele>
        <time>2021-07-19T14:27:50Z</time>
      </trkpt>
      <trkpt lat="37.81449" lon="-3.09163">
        <ele>782.6375</ele>
        <time>2021-07-19T14:28:01Z</time>
      </trkpt>
      <trkpt lat="37.8165" lon="-3.09313">
        <ele>766.2889</ele>
        <time>2021-07-19T14:28:12Z</time>
      </trkpt>
      <trkpt lat="37.81866" lon="-3.09423">
        <ele>747.8512</ele>
        <time>2021-07-19T14:28:23Z</time>
      </trkpt>
      <trkpt lat="37.82063" lon="-3.09533">
        <ele>743.8638</ele>
        <time>2021-07-19T14:28:34Z</time>
      </trkpt>
      <trkpt lat="37.8223" lon="-3.09454">
        <ele>746.6375</ele>
        <time>2021-07-19T14:28:45Z</time>
      </trkpt>
      <trkpt lat="37.8233" lon="-3.09561">
        <ele>749.5881</ele>
        <time>2021-07-19T14:28:56Z</time>
      </trkpt>
      <trkpt lat="37.82431" lon="-3.09682">
        <ele>753.7975</ele>
        <time>2021-07-19T14:29:07Z</time>
      </trkpt>
      <trkpt lat="37.8256" lon="-3.09782">
        <ele>756.3173</ele>
        <time>2021-07-19T14:29:18Z</time>
      </trkpt>
      <trkpt lat="37.82629" lon="-3.09946">
        <ele>757.458</ele>
        <time>2021-07-19T14:29:29Z</time>
      </trkpt>
      <trkpt lat="37.82759" lon="-3.10019">
        <ele>763.8367</ele>
        <time>2021-07-19T14:29:40Z</time>
      </trkpt>
      <trkpt lat="37.82851" lon="-3.10125">
        <ele>773.0492</ele>
        <time>2021-07-19T14:29:51Z</time>
      </trkpt>
      <trkpt lat="37.82923" lon="-3.10071">
        <ele>782.2321</ele>
        <time>2021-07-19T14:30:02Z</time>
      </trkpt>
      <trkpt lat="37.82989" lon="-3.10008">
        <ele>790.3761</ele>
        <time>2021-07-19T14:30:13Z</time>
      </trkpt>
      <trkpt lat="37.8311" lon="-3.10006">
        <ele>801.168</ele>
        <time>2021-07-19T14:30:24Z</time>
      </trkpt>
      <trkpt lat="37.83233" lon="-3.09917">
        <ele>813.7147</ele>
        <time>2021-07-19T14:30:35Z</time>
      </trkpt>
      <trkpt lat="37.8336" lon="-3.09922">
        <ele>822.4418</ele>
        <time>2021-07-19T14:30:46Z</time>
      </trkpt>
      <trkpt lat="37.83426" lon="-3.09773">
        <ele>831.8641</ele>
        <time>2021-07-19T14:30:57Z</time>
      </trkpt>
      <trkpt lat="37.83513" lon="-3.09644">
        <ele>841.027</ele>
        <time>2021-07-19T14:31:08Z</time>
      </trkpt>
      <trkpt lat="37.83639" lon="-3.09528">
        <ele>851.0403</ele>
        <time>2021-07-19T14:31:19Z</time>
      </trkpt>
      <trkpt lat="37.83811" lon="-3.09514">
        <ele>851.3368</ele>
        <time>2021-07-19T14:31:30Z</time>
      </trkpt>
      <trkpt lat="37.83979" lon="-3.09507">
        <ele>845.3797</ele>
        <time>2021-07-19T14:31:41Z</time>
      </trkpt>
      <trkpt lat="37.84112" lon="-3.09336">
        <ele>834.9001</ele>
        <time>2021-07-19T14:31:52Z</time>
      </trkpt>
      <trkpt lat="37.84198" lon="-3.0901">
        <ele>832.5794</ele>
        <time>2021-07-19T14:32:03Z</time>
      </trkpt>
      <trkpt lat="37.84249" lon="-3.08744">
        <ele>835.8646</ele>
        <time>2021-07-19T14:32:14Z</time>
      </trkpt>
      <trkpt lat="37.84323" lon="-3.08483">
        <ele>821.1862</ele>
        <time>2021-07-19T14:32:25Z</time>
      </trkpt>
      <trkpt lat="37.84277" lon="-3.08214">
        <ele>808.1903</ele>
        <time>2021-07-19T14:32:36Z</time>
      </trkpt>
      <trkpt lat="37.84236" lon="-3.07921">
        <ele>789.8745</ele>
        <time>2021-07-19T14:32:47Z</time>
      </trkpt>
      <trkpt lat="37.84089" lon="-3.07734">
        <ele>775.2147</ele>
        <time>2021-07-19T14:32:58Z</time>
      </trkpt>
      <trkpt lat="37.84198" lon="-3.07565">
        <ele>756.2932</ele>
        <time>2021-07-19T14:33:09Z</time>
      </trkpt>
      <trkpt lat="37.84312" lon="-3.07494">
        <ele>743.6221</ele>
        <time>2021-07-19T14:33:20Z</time>
      </trkpt>
      <trkpt lat="37.84322" lon="-3.07595">
        <ele>737.6553</ele>
        <time>2021-07-19T14:33:31Z</time>
      </trkpt>
      <trkpt lat="37.84485" lon="-3.0763">
        <ele>725.126</ele>
        <time>2021-07-19T14:33:42Z</time>
      </trkpt>
      <trkpt lat="37.84633" lon="-3.07635">
        <ele>707.874</ele>
        <time>2021-07-19T14:33:53Z</time>
      </trkpt>
      <trkpt lat="37.84709" lon="-3.07601">
        <ele>692.2632</ele>
        <time>2021-07-19T14:34:04Z</time>
      </trkpt>
      <trkpt lat="37.84767" lon="-3.07593">
        <ele>673.0239</ele>
        <time>2021-07-19T14:34:15Z</time>
      </trkpt>
      <trkpt lat="37.84743" lon="-3.07363">
        <ele>657.1485</ele>
        <time>2021-07-19T14:34:26Z</time>
      </trkpt>
      <trkpt lat="37.84637" lon="-3.07309">
        <ele>649.4291</ele>
        <time>2021-07-19T14:34:37Z</time>
      </trkpt>
      <trkpt lat="37.84583" lon="-3.07273">
        <ele>652.7543</ele>
        <time>2021-07-19T14:34:48Z</time>
      </trkpt>
      <trkpt lat="37.8474" lon="-3.0726">
        <ele>641.472</ele>
        <time>2021-07-19T14:35:00Z</time>
      </trkpt>
      <trkpt lat="37.84872" lon="-3.07429">
        <ele>623.285</ele>
        <time>2021-07-19T14:35:11Z</time>
      </trkpt>
      <trkpt lat="37.85046" lon="-3.07535">
        <ele>613.7786</ele>
        <time>2021-07-19T14:35:22Z</time>
      </trkpt>
      <trkpt lat="37.85237" lon="-3.07635">
        <ele>600.3966</ele>
        <time>2021-07-19T14:35:33Z</time>
      </trkpt>
      <trkpt lat="37.85313" lon="-3.07836">
        <ele>586.0397</ele>
        <time>2021-07-19T14:35:44Z</time>
      </trkpt>
      <trkpt lat="37.85355" lon="-3.07954">
        <ele>576.7557</ele>
        <time>2021-07-19T14:35:55Z</time>
      </trkpt>
      <trkpt lat="37.85514" lon="-3.08042">
        <ele>564.2419</ele>
        <time>2021-07-19T14:36:06Z</time>
      </trkpt>
      <trkpt lat="37.85631" lon="-3.08244">
        <ele>555.8932</ele>
        <time>2021-07-19T14:36:17Z</time>
      </trkpt>
      <trkpt lat="37.85785" lon="-3.08318">
        <ele>561.9402</ele>
        <time>2021-07-19T14:36:28Z</time>
      </trkpt>
      <trkpt lat="37.8598" lon="-3.08405">
        <ele>579.8812</ele>
        <time>2021-07-19T14:36:39Z</time>
      </trkpt>
      <trkpt lat="37.86099" lon="-3.08507">
        <ele>589.5154</ele>
        <time>2021-07-19T14:36:50Z</time>
      </trkpt>
      <trkpt lat="37.86242" lon="-3.08495">
        <ele>601.7836</ele>
        <time>2021-07-19T14:37:01Z</time>
      </trkpt>
      <trkpt lat="37.86338" lon="-3.08407">
        <ele>608.8798</ele>
        <time>2021-07-19T14:37:12Z</time>
      </trkpt>
      <trkpt lat="37.86298" lon="-3.0815">
        <ele>610.736</ele>
        <time>2021-07-19T14:37:23Z</time>
      </trkpt>
      <trkpt lat="37.86357" lon="-3.07929">
        <ele>619.2022</ele>
        <time>2021-07-19T14:37:34Z</time>
      </trkpt>
      <trkpt lat="37.86485" lon="-3.07662">
        <ele>643.4378</ele>
        <time>2021-07-19T14:37:45Z</time>
      </trkpt>
      <trkpt lat="37.86563" lon="-3.0743">
        <ele>659.2019</ele>
        <time>2021-07-19T14:37:56Z</time>
      </trkpt>
      <trkpt lat="37.86554" lon="-3.07209">
        <ele>672.0548</ele>
        <time>2021-07-19T14:38:07Z</time>
      </trkpt>
      <trkpt lat="37.86509" lon="-3.06963">
        <ele>685.3606</ele>
        <time>2021-07-19T14:38:18Z</time>
      </trkpt>
      <trkpt lat="37.86608" lon="-3.06735">
        <ele>691.5671</ele>
        <time>2021-07-19T14:38:29Z</time>
      </trkpt>
      <trkpt lat="37.86852" lon="-3.06793">
        <ele>699.9583</ele>
        <time>2021-07-19T14:38:40Z</time>
      </trkpt>
      <trkpt lat="37.87063" lon="-3.06929">
        <ele>705.341</ele>
        <time>2021-07-19T14:38:51Z</time>
      </trkpt>
      <trkpt lat="37.87317" lon="-3.07068">
        <ele>706.3377</ele>
        <time>2021-07-19T14:39:02Z</time>
      </trkpt>
      <trkpt lat="37.8757" lon="-3.0719">
        <ele>717.531</ele>
        <time>2021-07-19T14:39:13Z</time>
      </trkpt>
      <trkpt lat="37.87834" lon="-3.07213">
        <ele>716.3342</ele>
        <time>2021-07-19T14:39:24Z</time>
      </trkpt>
      <trkpt lat="37.88121" lon="-3.07191">
        <ele>698.4673</ele>
        <time>2021-07-19T14:39:35Z</time>
      </trkpt>
      <trkpt lat="37.88375" lon="-3.07172">
        <ele>693.7867</ele>
        <time>2021-07-19T14:39:46Z</time>
      </trkpt>
      <trkpt lat="37.88625" lon="-3.07094">
        <ele>683.3748</ele>
        <time>2021-07-19T14:39:57Z</time>
      </trkpt>
      <trkpt lat="37.88874" lon="-3.07025">
        <ele>683.0839</ele>
        <time>2021-07-19T14:40:08Z</time>
      </trkpt>
      <trkpt lat="37.89029" lon="-3.06909">
        <ele>692.5279</ele>
        <time>2021-07-19T14:40:19Z</time>
      </trkpt>
      <trkpt lat="37.89068" lon="-3.06628">
        <ele>703.4229</ele>
        <time>2021-07-19T14:40:30Z</time>
      </trkpt>
      <trkpt lat="37.89006" lon="-3.0639">
        <ele>714.9258</ele>
        <time>2021-07-19T14:40:41Z</time>
      </trkpt>
      <trkpt lat="37.891" lon="-3.06202">
        <ele>726.5096</ele>
        <time>2021-07-19T14:40:52Z</time>
      </trkpt>
      <trkpt lat="37.89298" lon="-3.06051">
        <ele>740.336</ele>
        <time>2021-07-19T14:41:03Z</time>
      </trkpt>
      <trkpt lat="37.89402" lon="-3.05833">
        <ele>758.3281</ele>
        <time>2021-07-19T14:41:14Z</time>
      </trkpt>
      <trkpt lat="37.89317" lon="-3.05547">
        <ele>773.9275</ele>
        <time>2021-07-19T14:41:25Z</time>
      </trkpt>
      <trkpt lat="37.89219" lon="-3.05372">
        <ele>787.7369</ele>
        <time>2021-07-19T14:41:36Z</time>
      </trkpt>
      <trkpt lat="37.89195" lon="-3.05157">
        <ele>791.1685</ele>
        <time>2021-07-19T14:41:47Z</time>
      </trkpt>
      <trkpt lat="37.89338" lon="-3.05017">
        <ele>783.4941</ele>
        <time>2021-07-19T14:41:58Z</time>
      </trkpt>
      <trkpt lat="37.89442" lon="-3.04782">
        <ele>790.2041</ele>
        <time>2021-07-19T14:42:09Z</time>
      </trkpt>
      <trkpt lat="37.89589" lon="-3.04709">
        <ele>787.694</ele>
        <time>2021-07-19T14:42:20Z</time>
      </trkpt>
      <trkpt lat="37.89598" lon="-3.04481">
        <ele>789.0674</ele>
        <time>2021-07-19T14:42:31Z</time>
      </trkpt>
      <trkpt lat="37.89593" lon="-3.04349">
        <ele>793.0782</ele>
        <time>2021-07-19T14:42:42Z</time>
      </trkpt>
      <trkpt lat="37.8976" lon="-3.04442">
        <ele>805.1721</ele>
        <time>2021-07-19T14:42:53Z</time>
      </trkpt>
      <trkpt lat="37.89842" lon="-3.04356">
        <ele>809.3669</ele>
        <time>2021-07-19T14:43:04Z</time>
      </trkpt>
      <trkpt lat="37.89801" lon="-3.04146">
        <ele>815.364</ele>
        <time>2021-07-19T14:43:15Z</time>
      </trkpt>
      <trkpt lat="37.89926" lon="-3.04107">
        <ele>821.5043</ele>
        <time>2021-07-19T14:43:26Z</time>
      </trkpt>
      <trkpt lat="37.90115" lon="-3.04093">
        <ele>827.0794</ele>
        <time>2021-07-19T14:43:37Z</time>
      </trkpt>
      <trkpt lat="37.90199" lon="-3.03973">
        <ele>833.932</ele>
        <time>2021-07-19T14:43:48Z</time>
      </trkpt>
      <trkpt lat="37.90227" lon="-3.03689">
        <ele>829.666</ele>
        <time>2021-07-19T14:43:59Z</time>
      </trkpt>
      <trkpt lat="37.90249" lon="-3.03441">
        <ele>830.1462</ele>
        <time>2021-07-19T14:44:10Z</time>
      </trkpt>
      <trkpt lat="37.90275" lon="-3.03203">
        <ele>832.966</ele>
        <time>2021-07-19T14:44:21Z</time>
      </trkpt>
      <trkpt lat="37.9022" lon="-3.02981">
        <ele>840.3122</ele>
        <time>2021-07-19T14:44:32Z</time>
      </trkpt>
      <trkpt lat="37.90179" lon="-3.02775">
        <ele>842.3925</ele>
        <time>2021-07-19T14:44:43Z</time>
      </trkpt>
      <trkpt lat="37.90064" lon="-3.02592">
        <ele>841.0723</ele>
        <time>2021-07-19T14:44:54Z</time>
      </trkpt>
      <trkpt lat="37.89973" lon="-3.02464">
        <ele>836.8791</ele>
        <time>2021-07-19T14:45:05Z</time>
      </trkpt>
      <trkpt lat="37.90133" lon="-3.02501">
        <ele>833.0282</ele>
        <time>2021-07-19T14:45:16Z</time>
      </trkpt>
      <trkpt lat="37.9032" lon="-3.0258">
        <ele>824.3197</ele>
        <time>2021-07-19T14:45:27Z</time>
      </trkpt>
      <trkpt lat="37.90467" lon="-3.02687">
        <ele>817.6397</ele>
        <time>2021-07-19T14:45:38Z</time>
      </trkpt>
      <trkpt lat="37.90674" lon="-3.02786">
        <ele>815.746</ele>
        <time>2021-07-19T14:45:49Z</time>
      </trkpt>
      <trkpt lat="37.90865" lon="-3.02813">
        <ele>813.692</ele>
        <time>2021-07-19T14:46:00Z</time>
      </trkpt>
      <trkpt lat="37.90983" lon="-3.02638">
        <ele>810.7527</ele>
        <time>2021-07-19T14:46:11Z</time>
      </trkpt>
      <trkpt lat="37.90895" lon="-3.02392">
        <ele>796.4563</ele>
        <time>2021-07-19T14:46:22Z</time>
      </trkpt>
      <trkpt lat="37.90856" lon="-3.02165">
        <ele>804.8154</ele>
        <time>2021-07-19T14:46:33Z</time>
      </trkpt>
      <trkpt lat="37.90757" lon="-3.01951">
        <ele>815.405</ele>
        <time>2021-07-19T14:46:44Z</time>
      </trkpt>
      <trkpt lat="37.90736" lon="-3.01708">
        <ele>820.6149</ele>
        <time>2021-07-19T14:46:55Z</time>
      </trkpt>
      <trkpt lat="37.90933" lon="-3.0158">
        <ele>808.0426</ele>
        <time>2021-07-19T14:47:06Z</time>
      </trkpt>
      <trkpt lat="37.9111" lon="-3.01494">
        <ele>798.7036</ele>
        <time>2021-07-19T14:47:17Z</time>
      </trkpt>
      <trkpt lat="37.91308" lon="-3.01399">
        <ele>783.8341</ele>
        <time>2021-07-19T14:47:28Z</time>
      </trkpt>
      <trkpt lat="37.91488" lon="-3.01505">
        <ele>769.8426</ele>
        <time>2021-07-19T14:47:39Z</time>
      </trkpt>
      <trkpt lat="37.91639" lon="-3.01573">
        <ele>751.1935</ele>
        <time>2021-07-19T14:47:50Z</time>
      </trkpt>
      <trkpt lat="37.91609" lon="-3.01431">
        <ele>746.0769</ele>
        <time>2021-07-19T14:48:01Z</time>
      </trkpt>
      <trkpt lat="37.91487" lon="-3.01385">
        <ele>753.3083</ele>
        <time>2021-07-19T14:48:12Z</time>
      </trkpt>
      <trkpt lat="37.91448" lon="-3.01426">
        <ele>756.2434</ele>
        <time>2021-07-19T14:48:23Z</time>
      </trkpt>
      <trkpt lat="37.91529" lon="-3.01381">
        <ele>757.6203</ele>
        <time>2021-07-19T14:48:34Z</time>
      </trkpt>
      <trkpt lat="37.91651" lon="-3.01496">
        <ele>751.9313</ele>
        <time>2021-07-19T14:48:45Z</time>
      </trkpt>
      <trkpt lat="37.91713" lon="-3.01621">
        <ele>748.2292</ele>
        <time>2021-07-19T14:48:56Z</time>
      </trkpt>
      <trkpt lat="37.91688" lon="-3.01482">
        <ele>741.0701</ele>
        <time>2021-07-19T14:49:07Z</time>
      </trkpt>
      <trkpt lat="37.9156" lon="-3.01268">
        <ele>734.4333</ele>
        <time>2021-07-19T14:49:18Z</time>
      </trkpt>
      <trkpt lat="37.91425" lon="-3.01069">
        <ele>729.3544</ele>
        <time>2021-07-19T14:49:29Z</time>
      </trkpt>
      <trkpt lat="37.91249" lon="-3.01045">
        <ele>721.8729</ele>
        <time>2021-07-19T14:49:40Z</time>
      </trkpt>
      <trkpt lat="37.91157" lon="-3.00959">
        <ele>717.0496</ele>
        <time>2021-07-19T14:49:51Z</time>
      </trkpt>
      <trkpt lat="37.91267" lon="-3.00899">
        <ele>714.374</ele>
        <time>2021-07-19T14:50:02Z</time>
      </trkpt>
      <trkpt lat="37.91369" lon="-3.0084">
        <ele>721.1084</ele>
        <time>2021-07-19T14:50:13Z</time>
      </trkpt>
      <trkpt lat="37.91407" lon="-3.00724">
        <ele>726.2977</ele>
        <time>2021-07-19T14:50:24Z</time>
      </trkpt>
      <trkpt lat="37.91461" lon="-3.00683">
        <ele>732.5789</ele>
        <time>2021-07-19T14:50:35Z</time>
      </trkpt>
      <trkpt lat="37.9151" lon="-3.00673">
        <ele>741.5047</ele>
        <time>2021-07-19T14:50:46Z</time>
      </trkpt>
      <trkpt lat="37.91583" lon="-3.0066">
        <ele>751.7989</ele>
        <time>2021-07-19T14:50:57Z</time>
      </trkpt>
      <trkpt lat="37.91676" lon="-3.00696">
        <ele>755.3491</ele>
        <time>2021-07-19T14:51:08Z</time>
      </trkpt>
      <trkpt lat="37.9173" lon="-3.0062">
        <ele>759.3259</ele>
        <time>2021-07-19T14:51:19Z</time>
      </trkpt>
      <trkpt lat="37.91823" lon="-3.00614">
        <ele>763.0004</ele>
        <time>2021-07-19T14:51:30Z</time>
      </trkpt>
      <trkpt lat="37.91867" lon="-3.00599">
        <ele>771.5478</ele>
        <time>2021-07-19T14:51:41Z</time>
      </trkpt>
      <trkpt lat="37.91915" lon="-3.00552">
        <ele>769.7026</ele>
        <time>2021-07-19T14:51:52Z</time>
      </trkpt>
      <trkpt lat="37.91967" lon="-3.0045">
        <ele>772.2544</ele>
        <time>2021-07-19T14:52:03Z</time>
      </trkpt>
      <trkpt lat="37.91958" lon="-3.00357">
        <ele>782.0404</ele>
        <time>2021-07-19T14:52:14Z</time>
      </trkpt>
      <trkpt lat="37.91895" lon="-3.00384">
        <ele>789.7519</ele>
        <time>2021-07-19T14:52:25Z</time>
      </trkpt>
      <trkpt lat="37.91789" lon="-3.00318">
        <ele>801.3541</ele>
        <time>2021-07-19T14:52:36Z</time>
      </trkpt>
      <trkpt lat="37.91856" lon="-3.00265">
        <ele>811.9191</ele>
        <time>2021-07-19T14:52:47Z</time>
      </trkpt>
      <trkpt lat="37.91935" lon="-3.00162">
        <ele>817.7747</ele>
        <time>2021-07-19T14:52:58Z</time>
      </trkpt>
      <trkpt lat="37.91991" lon="-3.00049">
        <ele>837.8414</ele>
        <time>2021-07-19T14:53:09Z</time>
      </trkpt>
      <trkpt lat="37.92055" lon="-2.99958">
        <ele>845.1425</ele>
        <time>2021-07-19T14:53:20Z</time>
      </trkpt>
      <trkpt lat="37.92098" lon="-2.99773">
        <ele>857.8244</ele>
        <time>2021-07-19T14:53:31Z</time>
      </trkpt>
      <trkpt lat="37.92113" lon="-2.99627">
        <ele>869.3604</ele>
        <time>2021-07-19T14:53:42Z</time>
      </trkpt>
      <trkpt lat="37.92141" lon="-2.99508">
        <ele>879.662</ele>
        <time>2021-07-19T14:53:53Z</time>
      </trkpt>
      <trkpt lat="37.9222" lon="-2.99404">
        <ele>883.2595</ele>
        <time>2021-07-19T14:54:04Z</time>
      </trkpt>
      <trkpt lat="37.92255" lon="-2.99293">
        <ele>887.1135</ele>
        <time>2021-07-19T14:54:15Z</time>
      </trkpt>
      <trkpt lat="37.92221" lon="-2.99183">
        <ele>894.1073</ele>
        <time>2021-07-19T14:54:26Z</time>
      </trkpt>
      <trkpt lat="37.92186" lon="-2.99067">
        <ele>897.7836</ele>
        <time>2021-07-19T14:54:37Z</time>
      </trkpt>
      <trkpt lat="37.92159" lon="-2.98983">
        <ele>898.6725</ele>
        <time>2021-07-19T14:54:48Z</time>
      </trkpt>
      <trkpt lat="37.92097" lon="-2.98899">
        <ele>895.9389</ele>
        <time>2021-07-19T14:54:59Z</time>
      </trkpt>
      <trkpt lat="37.92074" lon="-2.98777">
        <ele>900.3843</ele>
        <time>2021-07-19T14:55:10Z</time>
      </trkpt>
      <trkpt lat="37.92157" lon="-2.987">
        <ele>908.3314</ele>
        <time>2021-07-19T14:55:21Z</time>
      </trkpt>
      <trkpt lat="37.92239" lon="-2.98551">
        <ele>908.3696</ele>
        <time>2021-07-19T14:55:32Z</time>
      </trkpt>
      <trkpt lat="37.92219" lon="-2.98379">
        <ele>912.6728</ele>
        <time>2021-07-19T14:55:43Z</time>
      </trkpt>
      <trkpt lat="37.92275" lon="-2.9825">
        <ele>908.5744</ele>
        <time>2021-07-19T14:55:54Z</time>
      </trkpt>
      <trkpt lat="37.92439" lon="-2.98161">
        <ele>899.1964</ele>
        <time>2021-07-19T14:56:05Z</time>
      </trkpt>
      <trkpt lat="37.92522" lon="-2.98048">
        <ele>891.6742</ele>
        <time>2021-07-19T14:56:16Z</time>
      </trkpt>
      <trkpt lat="37.9261" lon="-2.97884">
        <ele>886.3277</ele>
        <time>2021-07-19T14:56:27Z</time>
      </trkpt>
      <trkpt lat="37.92598" lon="-2.97728">
        <ele>879.5814</ele>
        <time>2021-07-19T14:56:38Z</time>
      </trkpt>
      <trkpt lat="37.92662" lon="-2.97541">
        <ele>871.6321</ele>
        <time>2021-07-19T14:56:49Z</time>
      </trkpt>
      <trkpt lat="37.92717" lon="-2.9733">
        <ele>862.1672</ele>
        <time>2021-07-19T14:57:00Z</time>
      </trkpt>
      <trkpt lat="37.92797" lon="-2.97109">
        <ele>849.8842</ele>
        <time>2021-07-19T14:57:11Z</time>
      </trkpt>
      <trkpt lat="37.92802" lon="-2.96988">
        <ele>845.7273</ele>
        <time>2021-07-19T14:57:22Z</time>
      </trkpt>
      <trkpt lat="37.92894" lon="-2.96993">
        <ele>848.3544</ele>
        <time>2021-07-19T14:57:33Z</time>
      </trkpt>
      <trkpt lat="37.93027" lon="-2.97013">
        <ele>856.8276</ele>
        <time>2021-07-19T14:57:44Z</time>
      </trkpt>
      <trkpt lat="37.93185" lon="-2.97101">
        <ele>864.4082</ele>
        <time>2021-07-19T14:57:55Z</time>
      </trkpt>
      <trkpt lat="37.93331" lon="-2.9721">
        <ele>870.1842</ele>
        <time>2021-07-19T14:58:06Z</time>
      </trkpt>
      <trkpt lat="37.93397" lon="-2.97283">
        <ele>873.6729</ele>
        <time>2021-07-19T14:58:17Z</time>
      </trkpt>
      <trkpt lat="37.93359" lon="-2.97143">
        <ele>877.2843</ele>
        <time>2021-07-19T14:58:28Z</time>
      </trkpt>
      <trkpt lat="37.9353" lon="-2.97057">
        <ele>880.5405</ele>
        <time>2021-07-19T14:58:39Z</time>
      </trkpt>
      <trkpt lat="37.93718" lon="-2.969">
        <ele>884.7841</ele>
        <time>2021-07-19T14:58:50Z</time>
      </trkpt>
      <trkpt lat="37.93812" lon="-2.96711">
        <ele>886.9632</ele>
        <time>2021-07-19T14:59:01Z</time>
      </trkpt>
      <trkpt lat="37.93835" lon="-2.96494">
        <ele>892.9371</ele>
        <time>2021-07-19T14:59:12Z</time>
      </trkpt>
      <trkpt lat="37.93753" lon="-2.9625">
        <ele>898.8102</ele>
        <time>2021-07-19T14:59:23Z</time>
      </trkpt>
      <trkpt lat="37.93768" lon="-2.95997">
        <ele>903.0739</ele>
        <time>2021-07-19T14:59:34Z</time>
      </trkpt>
      <trkpt lat="37.93795" lon="-2.95768">
        <ele>913.9135</ele>
        <time>2021-07-19T14:59:45Z</time>
      </trkpt>
      <trkpt lat="37.93831" lon="-2.95608">
        <ele>921.2191</ele>
        <time>2021-07-19T14:59:56Z</time>
      </trkpt>
      <trkpt lat="37.93945" lon="-2.95621">
        <ele>919.6385</ele>
        <time>2021-07-19T15:00:07Z</time>
      </trkpt>
      <trkpt lat="37.94077" lon="-2.95639">
        <ele>919.1037</ele>
        <time>2021-07-19T15:00:18Z</time>
      </trkpt>
      <trkpt lat="37.94233" lon="-2.95551">
        <ele>929.283</ele>
        <time>2021-07-19T15:00:29Z</time>
      </trkpt>
      <trkpt lat="37.94367" lon="-2.95441">
        <ele>937.1805</ele>
        <time>2021-07-19T15:00:40Z</time>
      </trkpt>
      <trkpt lat="37.94492" lon="-2.9536">
        <ele>942.596</ele>
        <time>2021-07-19T15:00:51Z</time>
      </trkpt>
      <trkpt lat="37.94564" lon="-2.95293">
        <ele>949.1101</ele>
        <time>2021-07-19T15:01:02Z</time>
      </trkpt>
      <trkpt lat="37.94622" lon="-2.95234">
        <ele>954.5813</ele>
        <time>2021-07-19T15:01:13Z</time>
      </trkpt>
      <trkpt lat="37.94715" lon="-2.95117">
        <ele>963.4801</ele>
        <time>2021-07-19T15:01:24Z</time>
      </trkpt>
      <trkpt lat="37.94812" lon="-2.94938">
        <ele>968.2702</ele>
        <time>2021-07-19T15:01:35Z</time>
      </trkpt>
      <trkpt lat="37.94881" lon="-2.9483">
        <ele>972.1694</ele>
        <time>2021-07-19T15:01:46Z</time>
      </trkpt>
      <trkpt lat="37.94918" lon="-2.94773">
        <ele>978.271</ele>
        <time>2021-07-19T15:01:57Z</time>
      </trkpt>
      <trkpt lat="37.94975" lon="-2.94743">
        <ele>986.6494</ele>
        <time>2021-07-19T15:02:08Z</time>
      </trkpt>
      <trkpt lat="37.95108" lon="-2.94839">
        <ele>1000.439</ele>
        <time>2021-07-19T15:02:19Z</time>
      </trkpt>
      <trkpt lat="37.95282" lon="-2.94909">
        <ele>1007.987</ele>
        <time>2021-07-19T15:02:30Z</time>
      </trkpt>
      <trkpt lat="37.95466" lon="-2.94904">
        <ele>1018.607</ele>
        <time>2021-07-19T15:02:41Z</time>
      </trkpt>
      <trkpt lat="37.95567" lon="-2.94927">
        <ele>1025.453</ele>
        <time>2021-07-19T15:02:52Z</time>
      </trkpt>
      <trkpt lat="37.95402" lon="-2.94846">
        <ele>1034.554</ele>
        <time>2021-07-19T15:03:03Z</time>
      </trkpt>
      <trkpt lat="37.95228" lon="-2.94763">
        <ele>1047.903</ele>
        <time>2021-07-19T15:03:14Z</time>
      </trkpt>
      <trkpt lat="37.95069" lon="-2.9461">
        <ele>1057.966</ele>
        <time>2021-07-19T15:03:25Z</time>
      </trkpt>
      <trkpt lat="37.95019" lon="-2.94482">
        <ele>1069.241</ele>
        <time>2021-07-19T15:03:36Z</time>
      </trkpt>
      <trkpt lat="37.94869" lon="-2.94593">
        <ele>1078.34</ele>
        <time>2021-07-19T15:03:47Z</time>
      </trkpt>
      <trkpt lat="37.94761" lon="-2.94597">
        <ele>1081.443</ele>
        <time>2021-07-19T15:03:58Z</time>
      </trkpt>
      <trkpt lat="37.94718" lon="-2.94725">
        <ele>1089.012</ele>
        <time>2021-07-19T15:04:09Z</time>
      </trkpt>
      <trkpt lat="37.94657" lon="-2.94838">
        <ele>1090.321</ele>
        <time>2021-07-19T15:04:20Z</time>
      </trkpt>
      <trkpt lat="37.94631" lon="-2.94862">
        <ele>1096.126</ele>
        <time>2021-07-19T15:04:31Z</time>
      </trkpt>
      <trkpt lat="37.94681" lon="-2.9475">
        <ele>1098.717</ele>
        <time>2021-07-19T15:04:42Z</time>
      </trkpt>
      <trkpt lat="37.94694" lon="-2.94588">
        <ele>1102.037</ele>
        <time>2021-07-19T15:04:53Z</time>
      </trkpt>
      <trkpt lat="37.94741" lon="-2.94493">
        <ele>1109.338</ele>
        <time>2021-07-19T15:05:04Z</time>
      </trkpt>
      <trkpt lat="37.94835" lon="-2.9449">
        <ele>1115.436</ele>
        <time>2021-07-19T15:05:15Z</time>
      </trkpt>
      <trkpt lat="37.94923" lon="-2.94402">
        <ele>1120.536</ele>
        <time>2021-07-19T15:05:26Z</time>
      </trkpt>
      <trkpt lat="37.95025" lon="-2.94296">
        <ele>1124.696</ele>
        <time>2021-07-19T15:05:37Z</time>
      </trkpt>
      <trkpt lat="37.95107" lon="-2.94195">
        <ele>1125.968</ele>
        <time>2021-07-19T15:05:48Z</time>
      </trkpt>
      <trkpt lat="37.95197" lon="-2.94313">
        <ele>1128.164</ele>
        <time>2021-07-19T15:05:59Z</time>
      </trkpt>
      <trkpt lat="37.95269" lon="-2.94451">
        <ele>1137.773</ele>
        <time>2021-07-19T15:06:10Z</time>
      </trkpt>
      <trkpt lat="37.95295" lon="-2.94578">
        <ele>1146.07</ele>
        <time>2021-07-19T15:06:21Z</time>
      </trkpt>
      <trkpt lat="37.95298" lon="-2.9436">
        <ele>1159.675</ele>
        <time>2021-07-19T15:06:32Z</time>
      </trkpt>
      <trkpt lat="37.95199" lon="-2.94191">
        <ele>1168.14</ele>
        <time>2021-07-19T15:06:43Z</time>
      </trkpt>
      <trkpt lat="37.95109" lon="-2.93994">
        <ele>1180.92</ele>
        <time>2021-07-19T15:06:54Z</time>
      </trkpt>
      <trkpt lat="37.94932" lon="-2.94138">
        <ele>1195.118</ele>
        <time>2021-07-19T15:07:05Z</time>
      </trkpt>
      <trkpt lat="37.94766" lon="-2.94147">
        <ele>1205.568</ele>
        <time>2021-07-19T15:07:16Z</time>
      </trkpt>
      <trkpt lat="37.9456" lon="-2.94143">
        <ele>1217.721</ele>
        <time>2021-07-19T15:07:27Z</time>
      </trkpt>
      <trkpt lat="37.94409" lon="-2.9407">
        <ele>1231.967</ele>
        <time>2021-07-19T15:07:38Z</time>
      </trkpt>
      <trkpt lat="37.94298" lon="-2.93972">
        <ele>1239.728</ele>
        <time>2021-07-19T15:07:49Z</time>
      </trkpt>
      <trkpt lat="37.94169" lon="-2.93974">
        <ele>1245.71</ele>
        <time>2021-07-19T15:08:00Z</time>
      </trkpt>
      <trkpt lat="37.9409" lon="-2.93915">
        <ele>1241.297</ele>
        <time>2021-07-19T15:08:11Z</time>
      </trkpt>
      <trkpt lat="37.94088" lon="-2.93908">
        <ele>1243.109</ele>
        <time>2021-07-19T15:08:22Z</time>
      </trkpt>
      <trkpt lat="37.94089" lon="-2.93904">
        <ele>1243.215</ele>
        <time>2021-07-19T15:09:06Z</time>
      </trkpt>
      <trkpt lat="37.94097" lon="-2.93907">
        <ele>1243.503</ele>
        <time>2021-07-19T15:09:17Z</time>
      </trkpt>
      <trkpt lat="37.94099" lon="-2.93903">
        <ele>1243.14</ele>
        <time>2021-07-19T15:09:29Z</time>
      </trkpt>
      <trkpt lat="37.94098" lon="-2.93908">
        <ele>1245.13</ele>
        <time>2021-07-19T15:09:48Z</time>
      </trkpt>
      <trkpt lat="37.94092" lon="-2.93907">
        <ele>1242.182</ele>
        <time>2021-07-19T15:09:59Z</time>
      </trkpt>
      <trkpt lat="37.94094" lon="-2.93907">
        <ele>1237.398</ele>
        <time>2021-07-19T15:10:58Z</time>
      </trkpt>
      <trkpt lat="37.94092" lon="-2.93908">
        <ele>1236.084</ele>
        <time>2021-07-19T15:11:57Z</time>
      </trkpt>
      <trkpt lat="37.94089" lon="-2.93908">
        <ele>1235.027</ele>
        <time>2021-07-19T15:12:57Z</time>
      </trkpt>
      <trkpt lat="37.94087" lon="-2.9391">
        <ele>1238.615</ele>
        <time>2021-07-19T15:13:57Z</time>
      </trkpt>
      <trkpt lat="37.9409" lon="-2.93913">
        <ele>1238.987</ele>
        <time>2021-07-19T15:14:57Z</time>
      </trkpt>
      <trkpt lat="37.94087" lon="-2.93916">
        <ele>1239.349</ele>
        <time>2021-07-19T15:15:23Z</time>
      </trkpt>
      <trkpt lat="37.94037" lon="-2.93924">
        <ele>1236.467</ele>
        <time>2021-07-19T15:15:34Z</time>
      </trkpt>
      <trkpt lat="37.93876" lon="-2.93939">
        <ele>1227.132</ele>
        <time>2021-07-19T15:15:45Z</time>
      </trkpt>
      <trkpt lat="37.93749" lon="-2.9398">
        <ele>1218.5</ele>
        <time>2021-07-19T15:15:56Z</time>
      </trkpt>
      <trkpt lat="37.93688" lon="-2.94103">
        <ele>1212.363</ele>
        <time>2021-07-19T15:16:07Z</time>
      </trkpt>
      <trkpt lat="37.93631" lon="-2.94243">
        <ele>1206.838</ele>
        <time>2021-07-19T15:16:18Z</time>
      </trkpt>
      <trkpt lat="37.93517" lon="-2.9433">
        <ele>1198.566</ele>
        <time>2021-07-19T15:16:29Z</time>
      </trkpt>
      <trkpt lat="37.93446" lon="-2.94413">
        <ele>1192.204</ele>
        <time>2021-07-19T15:16:40Z</time>
      </trkpt>
      <trkpt lat="37.93343" lon="-2.94509">
        <ele>1182.349</ele>
        <time>2021-07-19T15:16:51Z</time>
      </trkpt>
      <trkpt lat="37.93232" lon="-2.94604">
        <ele>1171.575</ele>
        <time>2021-07-19T15:17:02Z</time>
      </trkpt>
      <trkpt lat="37.93134" lon="-2.94698">
        <ele>1163.628</ele>
        <time>2021-07-19T15:17:13Z</time>
      </trkpt>
      <trkpt lat="37.93046" lon="-2.94737">
        <ele>1159.183</ele>
        <time>2021-07-19T15:17:24Z</time>
      </trkpt>
      <trkpt lat="37.93001" lon="-2.94856">
        <ele>1156.748</ele>
        <time>2021-07-19T15:17:35Z</time>
      </trkpt>
      <trkpt lat="37.92897" lon="-2.9491">
        <ele>1147.747</ele>
        <time>2021-07-19T15:17:46Z</time>
      </trkpt>
      <trkpt lat="37.92791" lon="-2.94927">
        <ele>1138.965</ele>
        <time>2021-07-19T15:17:57Z</time>
      </trkpt>
      <trkpt lat="37.927" lon="-2.94981">
        <ele>1135.887</ele>
        <time>2021-07-19T15:18:08Z</time>
      </trkpt>
      <trkpt lat="37.92586" lon="-2.95072">
        <ele>1134.515</ele>
        <time>2021-07-19T15:18:19Z</time>
      </trkpt>
      <trkpt lat="37.92472" lon="-2.95186">
        <ele>1128.013</ele>
        <time>2021-07-19T15:18:30Z</time>
      </trkpt>
      <trkpt lat="37.92365" lon="-2.95201">
        <ele>1122.471</ele>
        <time>2021-07-19T15:18:41Z</time>
      </trkpt>
      <trkpt lat="37.92232" lon="-2.95279">
        <ele>1108.93</ele>
        <time>2021-07-19T15:18:52Z</time>
      </trkpt>
      <trkpt lat="37.92075" lon="-2.95323">
        <ele>1102.542</ele>
        <time>2021-07-19T15:19:03Z</time>
      </trkpt>
      <trkpt lat="37.91928" lon="-2.95317">
        <ele>1084.153</ele>
        <time>2021-07-19T15:19:14Z</time>
      </trkpt>
      <trkpt lat="37.91856" lon="-2.95361">
        <ele>1085.001</ele>
        <time>2021-07-19T15:19:25Z</time>
      </trkpt>
      <trkpt lat="37.91738" lon="-2.95388">
        <ele>1078.79</ele>
        <time>2021-07-19T15:19:36Z</time>
      </trkpt>
      <trkpt lat="37.91667" lon="-2.95419">
        <ele>1079.929</ele>
        <time>2021-07-19T15:19:47Z</time>
      </trkpt>
      <trkpt lat="37.91673" lon="-2.95266">
        <ele>1066.877</ele>
        <time>2021-07-19T15:19:58Z</time>
      </trkpt>
      <trkpt lat="37.91696" lon="-2.95128">
        <ele>1056.245</ele>
        <time>2021-07-19T15:20:09Z</time>
      </trkpt>
      <trkpt lat="37.91831" lon="-2.951">
        <ele>1045.925</ele>
        <time>2021-07-19T15:20:20Z</time>
      </trkpt>
      <trkpt lat="37.91937" lon="-2.95007">
        <ele>1030.475</ele>
        <time>2021-07-19T15:20:31Z</time>
      </trkpt>
      <trkpt lat="37.91915" lon="-2.94873">
        <ele>1023.88</ele>
        <time>2021-07-19T15:20:42Z</time>
      </trkpt>
      <trkpt lat="37.92061" lon="-2.94865">
        <ele>1015.204</ele>
        <time>2021-07-19T15:20:53Z</time>
      </trkpt>
      <trkpt lat="37.92211" lon="-2.94824">
        <ele>995.1107</ele>
        <time>2021-07-19T15:21:04Z</time>
      </trkpt>
      <trkpt lat="37.92314" lon="-2.94658">
        <ele>984.4599</ele>
        <time>2021-07-19T15:21:15Z</time>
      </trkpt>
      <trkpt lat="37.92459" lon="-2.94506">
        <ele>969.0674</ele>
        <time>2021-07-19T15:21:26Z</time>
      </trkpt>
      <trkpt lat="37.92547" lon="-2.9432">
        <ele>956.8634</ele>
        <time>2021-07-19T15:21:37Z</time>
      </trkpt>
      <trkpt lat="37.92609" lon="-2.94105">
        <ele>943.7435</ele>
        <time>2021-07-19T15:21:48Z</time>
      </trkpt>
      <trkpt lat="37.92584" lon="-2.93956">
        <ele>932.9963</ele>
        <time>2021-07-19T15:21:59Z</time>
      </trkpt>
      <trkpt lat="37.92594" lon="-2.93731">
        <ele>913.895</ele>
        <time>2021-07-19T15:22:10Z</time>
      </trkpt>
      <trkpt lat="37.92675" lon="-2.9355">
        <ele>906.8963</ele>
        <time>2021-07-19T15:22:21Z</time>
      </trkpt>
      <trkpt lat="37.9268" lon="-2.93349">
        <ele>898.2467</ele>
        <time>2021-07-19T15:22:32Z</time>
      </trkpt>
      <trkpt lat="37.92716" lon="-2.93289">
        <ele>894.0549</ele>
        <time>2021-07-19T15:22:43Z</time>
      </trkpt>
      <trkpt lat="37.92802" lon="-2.93411">
        <ele>876.1142</ele>
        <time>2021-07-19T15:22:54Z</time>
      </trkpt>
      <trkpt lat="37.92794" lon="-2.93286">
        <ele>868.4408</ele>
        <time>2021-07-19T15:23:05Z</time>
      </trkpt>
      <trkpt lat="37.92761" lon="-2.93123">
        <ele>854.1271</ele>
        <time>2021-07-19T15:23:16Z</time>
      </trkpt>
      <trkpt lat="37.92847" lon="-2.93082">
        <ele>845.3308</ele>
        <time>2021-07-19T15:23:27Z</time>
      </trkpt>
      <trkpt lat="37.92953" lon="-2.93097">
        <ele>836.8288</ele>
        <time>2021-07-19T15:23:38Z</time>
      </trkpt>
      <trkpt lat="37.93038" lon="-2.93033">
        <ele>826.3422</ele>
        <time>2021-07-19T15:23:49Z</time>
      </trkpt>
      <trkpt lat="37.9312" lon="-2.9301">
        <ele>812.379</ele>
        <time>2021-07-19T15:24:00Z</time>
      </trkpt>
      <trkpt lat="37.9305" lon="-2.929">
        <ele>804.3799</ele>
        <time>2021-07-19T15:24:11Z</time>
      </trkpt>
      <trkpt lat="37.93105" lon="-2.92814">
        <ele>802.3287</ele>
        <time>2021-07-19T15:24:22Z</time>
      </trkpt>
      <trkpt lat="37.93202" lon="-2.92861">
        <ele>808.0049</ele>
        <time>2021-07-19T15:24:33Z</time>
      </trkpt>
      <trkpt lat="37.9329" lon="-2.92904">
        <ele>804.051</ele>
        <time>2021-07-19T15:24:44Z</time>
      </trkpt>
      <trkpt lat="37.93399" lon="-2.92923">
        <ele>805.403</ele>
        <time>2021-07-19T15:24:55Z</time>
      </trkpt>
      <trkpt lat="37.93502" lon="-2.9292">
        <ele>805.1267</ele>
        <time>2021-07-19T15:25:06Z</time>
      </trkpt>
      <trkpt lat="37.93664" lon="-2.92925">
        <ele>804.5655</ele>
        <time>2021-07-19T15:25:17Z</time>
      </trkpt>
      <trkpt lat="37.93783" lon="-2.92917">
        <ele>804.2313</ele>
        <time>2021-07-19T15:25:28Z</time>
      </trkpt>
      <trkpt lat="37.93885" lon="-2.92762">
        <ele>802.616</ele>
        <time>2021-07-19T15:25:39Z</time>
      </trkpt>
      <trkpt lat="37.94033" lon="-2.9261">
        <ele>802.3358</ele>
        <time>2021-07-19T15:25:50Z</time>
      </trkpt>
      <trkpt lat="37.94227" lon="-2.92579">
        <ele>802.1651</ele>
        <time>2021-07-19T15:26:01Z</time>
      </trkpt>
      <trkpt lat="37.9438" lon="-2.92496">
        <ele>804.7419</ele>
        <time>2021-07-19T15:26:12Z</time>
      </trkpt>
      <trkpt lat="37.94482" lon="-2.92301">
        <ele>807.6505</ele>
        <time>2021-07-19T15:26:23Z</time>
      </trkpt>
      <trkpt lat="37.94484" lon="-2.92114">
        <ele>811.4046</ele>
        <time>2021-07-19T15:26:34Z</time>
      </trkpt>
      <trkpt lat="37.94551" lon="-2.92058">
        <ele>811.9085</ele>
        <time>2021-07-19T15:26:45Z</time>
      </trkpt>
      <trkpt lat="37.94638" lon="-2.92061">
        <ele>813.0491</ele>
        <time>2021-07-19T15:26:56Z</time>
      </trkpt>
      <trkpt lat="37.94713" lon="-2.92089">
        <ele>808.6914</ele>
        <time>2021-07-19T15:27:07Z</time>
      </trkpt>
      <trkpt lat="37.94761" lon="-2.92088">
        <ele>806.6262</ele>
        <time>2021-07-19T15:27:18Z</time>
      </trkpt>
      <trkpt lat="37.9481" lon="-2.92083">
        <ele>807.7504</ele>
        <time>2021-07-19T15:27:29Z</time>
      </trkpt>
      <trkpt lat="37.94888" lon="-2.92082">
        <ele>809.8353</ele>
        <time>2021-07-19T15:27:41Z</time>
      </trkpt>
      <trkpt lat="37.94957" lon="-2.92081">
        <ele>812.5572</ele>
        <time>2021-07-19T15:27:52Z</time>
      </trkpt>
      <trkpt lat="37.95119" lon="-2.9207">
        <ele>807.1972</ele>
        <time>2021-07-19T15:28:03Z</time>
      </trkpt>
      <trkpt lat="37.95308" lon="-2.92056">
        <ele>804.8444</ele>
        <time>2021-07-19T15:28:14Z</time>
      </trkpt>
      <trkpt lat="37.95507" lon="-2.91942">
        <ele>802.0384</ele>
        <time>2021-07-19T15:28:25Z</time>
      </trkpt>
      <trkpt lat="37.95665" lon="-2.91851">
        <ele>803.898</ele>
        <time>2021-07-19T15:28:36Z</time>
      </trkpt>
      <trkpt lat="37.9585" lon="-2.91805">
        <ele>807.0127</ele>
        <time>2021-07-19T15:28:47Z</time>
      </trkpt>
      <trkpt lat="37.96046" lon="-2.91704">
        <ele>811.4181</ele>
        <time>2021-07-19T15:28:58Z</time>
      </trkpt>
      <trkpt lat="37.96194" lon="-2.91581">
        <ele>789.3868</ele>
        <time>2021-07-19T15:29:09Z</time>
      </trkpt>
      <trkpt lat="37.96358" lon="-2.91481">
        <ele>779.3429</ele>
        <time>2021-07-19T15:29:20Z</time>
      </trkpt>
      <trkpt lat="37.96458" lon="-2.91335">
        <ele>771.8625</ele>
        <time>2021-07-19T15:29:31Z</time>
      </trkpt>
      <trkpt lat="37.96586" lon="-2.9133">
        <ele>764.9247</ele>
        <time>2021-07-19T15:29:42Z</time>
      </trkpt>
      <trkpt lat="37.96697" lon="-2.91237">
        <ele>757.656</ele>
        <time>2021-07-19T15:29:53Z</time>
      </trkpt>
      <trkpt lat="37.96841" lon="-2.91295">
        <ele>746.5259</ele>
        <time>2021-07-19T15:30:04Z</time>
      </trkpt>
      <trkpt lat="37.9701" lon="-2.91364">
        <ele>741.8304</ele>
        <time>2021-07-19T15:30:15Z</time>
      </trkpt>
      <trkpt lat="37.97054" lon="-2.9128">
        <ele>745.1822</ele>
        <time>2021-07-19T15:30:26Z</time>
      </trkpt>
      <trkpt lat="37.97037" lon="-2.91113">
        <ele>745.0351</ele>
        <time>2021-07-19T15:30:37Z</time>
      </trkpt>
      <trkpt lat="37.97221" lon="-2.91008">
        <ele>738.4021</ele>
        <time>2021-07-19T15:30:48Z</time>
      </trkpt>
      <trkpt lat="37.97383" lon="-2.90817">
        <ele>737.3066</ele>
        <time>2021-07-19T15:30:59Z</time>
      </trkpt>
      <trkpt lat="37.97449" lon="-2.9064">
        <ele>739.5739</ele>
        <time>2021-07-19T15:31:10Z</time>
      </trkpt>
      <trkpt lat="37.97621" lon="-2.90594">
        <ele>742.5215</ele>
        <time>2021-07-19T15:31:21Z</time>
      </trkpt>
      <trkpt lat="37.97793" lon="-2.90666">
        <ele>736.6772</ele>
        <time>2021-07-19T15:31:32Z</time>
      </trkpt>
      <trkpt lat="37.97977" lon="-2.90753">
        <ele>738.8608</ele>
        <time>2021-07-19T15:31:43Z</time>
      </trkpt>
      <trkpt lat="37.98127" lon="-2.90874">
        <ele>727.5368</ele>
        <time>2021-07-19T15:31:54Z</time>
      </trkpt>
      <trkpt lat="37.98283" lon="-2.90835">
        <ele>728.5191</ele>
        <time>2021-07-19T15:32:05Z</time>
      </trkpt>
      <trkpt lat="37.9845" lon="-2.90731">
        <ele>731.0157</ele>
        <time>2021-07-19T15:32:16Z</time>
      </trkpt>
      <trkpt lat="37.9861" lon="-2.90667">
        <ele>739.1761</ele>
        <time>2021-07-19T15:32:27Z</time>
      </trkpt>
      <trkpt lat="37.98721" lon="-2.90659">
        <ele>737.6729</ele>
        <time>2021-07-19T15:32:38Z</time>
      </trkpt>
      <trkpt lat="37.9886" lon="-2.90482">
        <ele>732.3598</ele>
        <time>2021-07-19T15:32:49Z</time>
      </trkpt>
      <trkpt lat="37.98938" lon="-2.90363">
        <ele>730.1438</ele>
        <time>2021-07-19T15:33:00Z</time>
      </trkpt>
      <trkpt lat="37.99061" lon="-2.90217">
        <ele>717.3586</ele>
        <time>2021-07-19T15:33:11Z</time>
      </trkpt>
      <trkpt lat="37.99113" lon="-2.90027">
        <ele>713.525</ele>
        <time>2021-07-19T15:33:22Z</time>
      </trkpt>
      <trkpt lat="37.99239" lon="-2.89949">
        <ele>708.6388</ele>
        <time>2021-07-19T15:33:33Z</time>
      </trkpt>
      <trkpt lat="37.99362" lon="-2.89851">
        <ele>713.972</ele>
        <time>2021-07-19T15:33:44Z</time>
      </trkpt>
      <trkpt lat="37.99495" lon="-2.89779">
        <ele>717.2524</ele>
        <time>2021-07-19T15:33:55Z</time>
      </trkpt>
      <trkpt lat="37.99541" lon="-2.89601">
        <ele>721.9815</ele>
        <time>2021-07-19T15:34:06Z</time>
      </trkpt>
      <trkpt lat="37.99628" lon="-2.89438">
        <ele>725.1054</ele>
        <time>2021-07-19T15:34:17Z</time>
      </trkpt>
      <trkpt lat="37.99744" lon="-2.89298">
        <ele>726.8108</ele>
        <time>2021-07-19T15:34:28Z</time>
      </trkpt>
      <trkpt lat="37.9983" lon="-2.89088">
        <ele>730.8945</ele>
        <time>2021-07-19T15:34:39Z</time>
      </trkpt>
      <trkpt lat="37.99953" lon="-2.88967">
        <ele>731.0134</ele>
        <time>2021-07-19T15:34:50Z</time>
      </trkpt>
      <trkpt lat="38.00042" lon="-2.88769">
        <ele>736.5026</ele>
        <time>2021-07-19T15:35:01Z</time>
      </trkpt>
      <trkpt lat="38.00194" lon="-2.88661">
        <ele>737.6969</ele>
        <time>2021-07-19T15:35:12Z</time>
      </trkpt>
      <trkpt lat="38.00354" lon="-2.88627">
        <ele>736.5297</ele>
        <time>2021-07-19T15:35:23Z</time>
      </trkpt>
      <trkpt lat="38.00319" lon="-2.88535">
        <ele>736.3681</ele>
        <time>2021-07-19T15:35:34Z</time>
      </trkpt>
      <trkpt lat="38.00267" lon="-2.88364">
        <ele>735.8918</ele>
        <time>2021-07-19T15:35:45Z</time>
      </trkpt>
      <trkpt lat="38.00356" lon="-2.8819">
        <ele>735.7009</ele>
        <time>2021-07-19T15:35:56Z</time>
      </trkpt>
      <trkpt lat="38.00496" lon="-2.88009">
        <ele>732.3651</ele>
        <time>2021-07-19T15:36:07Z</time>
      </trkpt>
      <trkpt lat="38.0059" lon="-2.88121">
        <ele>726.7683</ele>
        <time>2021-07-19T15:36:18Z</time>
      </trkpt>
      <trkpt lat="38.00696" lon="-2.87991">
        <ele>720.3947</ele>
        <time>2021-07-19T15:36:29Z</time>
      </trkpt>
      <trkpt lat="38.00779" lon="-2.87838">
        <ele>706.7499</ele>
        <time>2021-07-19T15:36:40Z</time>
      </trkpt>
      <trkpt lat="38.00904" lon="-2.8767">
        <ele>699.8659</ele>
        <time>2021-07-19T15:36:51Z</time>
      </trkpt>
      <trkpt lat="38.01061" lon="-2.87557">
        <ele>693.0848</ele>
        <time>2021-07-19T15:37:02Z</time>
      </trkpt>
      <trkpt lat="38.01185" lon="-2.87381">
        <ele>696.6017</ele>
        <time>2021-07-19T15:37:13Z</time>
      </trkpt>
      <trkpt lat="38.01298" lon="-2.873">
        <ele>701.8737</ele>
        <time>2021-07-19T15:37:24Z</time>
      </trkpt>
      <trkpt lat="38.01317" lon="-2.87292">
        <ele>700.4279</ele>
        <time>2021-07-19T15:37:35Z</time>
      </trkpt>
      <trkpt lat="38.0132" lon="-2.87289">
        <ele>699.792</ele>
        <time>2021-07-19T15:37:46Z</time>
      </trkpt>
      <trkpt lat="38.01362" lon="-2.87285">
        <ele>700.0955</ele>
        <time>2021-07-19T15:37:57Z</time>
      </trkpt>
      <trkpt lat="38.01448" lon="-2.87201">
        <ele>696.5647</ele>
        <time>2021-07-19T15:38:08Z</time>
      </trkpt>
      <trkpt lat="38.01541" lon="-2.8727">
        <ele>689.3568</ele>
        <time>2021-07-19T15:38:19Z</time>
      </trkpt>
      <trkpt lat="38.0169" lon="-2.8725">
        <ele>692.7363</ele>
        <time>2021-07-19T15:38:30Z</time>
      </trkpt>
      <trkpt lat="38.01849" lon="-2.87249">
        <ele>682.7187</ele>
        <time>2021-07-19T15:38:41Z</time>
      </trkpt>
      <trkpt lat="38.0201" lon="-2.87149">
        <ele>676.5728</ele>
        <time>2021-07-19T15:38:52Z</time>
      </trkpt>
      <trkpt lat="38.02177" lon="-2.87087">
        <ele>671.6334</ele>
        <time>2021-07-19T15:39:03Z</time>
      </trkpt>
      <trkpt lat="38.02353" lon="-2.87056">
        <ele>670.4205</ele>
        <time>2021-07-19T15:39:14Z</time>
      </trkpt>
      <trkpt lat="38.02483" lon="-2.86877">
        <ele>673.5509</ele>
        <time>2021-07-19T15:39:25Z</time>
      </trkpt>
      <trkpt lat="38.02563" lon="-2.8667">
        <ele>670.1623</ele>
        <time>2021-07-19T15:39:36Z</time>
      </trkpt>
      <trkpt lat="38.02674" lon="-2.86555">
        <ele>664.8124</ele>
        <time>2021-07-19T15:39:47Z</time>
      </trkpt>
      <trkpt lat="38.02853" lon="-2.86598">
        <ele>660.0736</ele>
        <time>2021-07-19T15:39:58Z</time>
      </trkpt>
      <trkpt lat="38.02995" lon="-2.86568">
        <ele>662.7947</ele>
        <time>2021-07-19T15:40:09Z</time>
      </trkpt>
      <trkpt lat="38.03164" lon="-2.86578">
        <ele>664.0115</ele>
        <time>2021-07-19T15:40:20Z</time>
      </trkpt>
      <trkpt lat="38.03333" lon="-2.86595">
        <ele>671.6761</ele>
        <time>2021-07-19T15:40:31Z</time>
      </trkpt>
      <trkpt lat="38.03495" lon="-2.86582">
        <ele>680.9681</ele>
        <time>2021-07-19T15:40:42Z</time>
      </trkpt>
      <trkpt lat="38.03596" lon="-2.86589">
        <ele>688.5084</ele>
        <time>2021-07-19T15:40:53Z</time>
      </trkpt>
      <trkpt lat="38.03718" lon="-2.86473">
        <ele>689.2894</ele>
        <time>2021-07-19T15:41:04Z</time>
      </trkpt>
      <trkpt lat="38.03852" lon="-2.86299">
        <ele>683.8375</ele>
        <time>2021-07-19T15:41:15Z</time>
      </trkpt>
      <trkpt lat="38.04031" lon="-2.86172">
        <ele>679.419</ele>
        <time>2021-07-19T15:41:26Z</time>
      </trkpt>
      <trkpt lat="38.0415" lon="-2.86038">
        <ele>671.976</ele>
        <time>2021-07-19T15:41:37Z</time>
      </trkpt>
      <trkpt lat="38.04278" lon="-2.85951">
        <ele>663.421</ele>
        <time>2021-07-19T15:41:48Z</time>
      </trkpt>
      <trkpt lat="38.04346" lon="-2.85805">
        <ele>662.8645</ele>
        <time>2021-07-19T15:41:59Z</time>
      </trkpt>
      <trkpt lat="38.04425" lon="-2.85595">
        <ele>660.9567</ele>
        <time>2021-07-19T15:42:10Z</time>
      </trkpt>
      <trkpt lat="38.04601" lon="-2.85398">
        <ele>655.4566</ele>
        <time>2021-07-19T15:42:21Z</time>
      </trkpt>
      <trkpt lat="38.04718" lon="-2.8532">
        <ele>662.5166</ele>
        <time>2021-07-19T15:42:32Z</time>
      </trkpt>
      <trkpt lat="38.0485" lon="-2.85145">
        <ele>660.5721</ele>
        <time>2021-07-19T15:42:43Z</time>
      </trkpt>
      <trkpt lat="38.04905" lon="-2.85004">
        <ele>661.5383</ele>
        <time>2021-07-19T15:42:54Z</time>
      </trkpt>
      <trkpt lat="38.04965" lon="-2.84876">
        <ele>662.3154</ele>
        <time>2021-07-19T15:43:05Z</time>
      </trkpt>
      <trkpt lat="38.05008" lon="-2.84738">
        <ele>661.5399</ele>
        <time>2021-07-19T15:43:16Z</time>
      </trkpt>
      <trkpt lat="38.0509" lon="-2.84573">
        <ele>662.8775</ele>
        <time>2021-07-19T15:43:27Z</time>
      </trkpt>
      <trkpt lat="38.0522" lon="-2.84408">
        <ele>666.5493</ele>
        <time>2021-07-19T15:43:38Z</time>
      </trkpt>
      <trkpt lat="38.0537" lon="-2.8429">
        <ele>662.0666</ele>
        <time>2021-07-19T15:43:49Z</time>
      </trkpt>
      <trkpt lat="38.05503" lon="-2.84126">
        <ele>664.2606</ele>
        <time>2021-07-19T15:44:00Z</time>
      </trkpt>
      <trkpt lat="38.0559" lon="-2.83962">
        <ele>664.7702</ele>
        <time>2021-07-19T15:44:11Z</time>
      </trkpt>
      <trkpt lat="38.05632" lon="-2.83755">
        <ele>662.7951</ele>
        <time>2021-07-19T15:44:22Z</time>
      </trkpt>
      <trkpt lat="38.05744" lon="-2.8359">
        <ele>660.9991</ele>
        <time>2021-07-19T15:44:33Z</time>
      </trkpt>
      <trkpt lat="38.05858" lon="-2.8343">
        <ele>659.2405</ele>
        <time>2021-07-19T15:44:44Z</time>
      </trkpt>
      <trkpt lat="38.05978" lon="-2.83289">
        <ele>661.9149</ele>
        <time>2021-07-19T15:44:55Z</time>
      </trkpt>
      <trkpt lat="38.0612" lon="-2.83143">
        <ele>665.0113</ele>
        <time>2021-07-19T15:45:06Z</time>
      </trkpt>
      <trkpt lat="38.06292" lon="-2.83048">
        <ele>673.6965</ele>
        <time>2021-07-19T15:45:17Z</time>
      </trkpt>
      <trkpt lat="38.06461" lon="-2.82942">
        <ele>677.8785</ele>
        <time>2021-07-19T15:45:28Z</time>
      </trkpt>
      <trkpt lat="38.06596" lon="-2.82807">
        <ele>673.6531</ele>
        <time>2021-07-19T15:45:39Z</time>
      </trkpt>
      <trkpt lat="38.06758" lon="-2.82808">
        <ele>667.9706</ele>
        <time>2021-07-19T15:45:50Z</time>
      </trkpt>
      <trkpt lat="38.06774" lon="-2.82633">
        <ele>673.3395</ele>
        <time>2021-07-19T15:46:01Z</time>
      </trkpt>
      <trkpt lat="38.06878" lon="-2.82499">
        <ele>677.0966</ele>
        <time>2021-07-19T15:46:12Z</time>
      </trkpt>
      <trkpt lat="38.06962" lon="-2.82328">
        <ele>689.1754</ele>
        <time>2021-07-19T15:46:23Z</time>
      </trkpt>
      <trkpt lat="38.07094" lon="-2.82167">
        <ele>691.9928</ele>
        <time>2021-07-19T15:46:34Z</time>
      </trkpt>
      <trkpt lat="38.0724" lon="-2.82157">
        <ele>706.1251</ele>
        <time>2021-07-19T15:46:45Z</time>
      </trkpt>
      <trkpt lat="38.07364" lon="-2.82139">
        <ele>712.2966</ele>
        <time>2021-07-19T15:46:56Z</time>
      </trkpt>
      <trkpt lat="38.0752" lon="-2.82241">
        <ele>702.0986</ele>
        <time>2021-07-19T15:47:07Z</time>
      </trkpt>
      <trkpt lat="38.07672" lon="-2.82287">
        <ele>692.0572</ele>
        <time>2021-07-19T15:47:18Z</time>
      </trkpt>
      <trkpt lat="38.07741" lon="-2.82176">
        <ele>683.8117</ele>
        <time>2021-07-19T15:47:29Z</time>
      </trkpt>
      <trkpt lat="38.07857" lon="-2.8202">
        <ele>674.4724</ele>
        <time>2021-07-19T15:47:40Z</time>
      </trkpt>
      <trkpt lat="38.07995" lon="-2.81827">
        <ele>664.8496</ele>
        <time>2021-07-19T15:47:51Z</time>
      </trkpt>
      <trkpt lat="38.08073" lon="-2.81771">
        <ele>664.7334</ele>
        <time>2021-07-19T15:48:02Z</time>
      </trkpt>
      <trkpt lat="38.0804" lon="-2.81633">
        <ele>664.397</ele>
        <time>2021-07-19T15:48:13Z</time>
      </trkpt>
      <trkpt lat="38.08124" lon="-2.81549">
        <ele>664.038</ele>
        <time>2021-07-19T15:48:24Z</time>
      </trkpt>
      <trkpt lat="38.08214" lon="-2.81668">
        <ele>662.2008</ele>
        <time>2021-07-19T15:48:35Z</time>
      </trkpt>
      <trkpt lat="38.08296" lon="-2.81776">
        <ele>658.3036</ele>
        <time>2021-07-19T15:48:46Z</time>
      </trkpt>
      <trkpt lat="38.08415" lon="-2.8178">
        <ele>658.3268</ele>
        <time>2021-07-19T15:48:57Z</time>
      </trkpt>
      <trkpt lat="38.08523" lon="-2.81705">
        <ele>662.9266</ele>
        <time>2021-07-19T15:49:08Z</time>
      </trkpt>
      <trkpt lat="38.08645" lon="-2.81613">
        <ele>669.59</ele>
        <time>2021-07-19T15:49:19Z</time>
      </trkpt>
      <trkpt lat="38.08789" lon="-2.81559">
        <ele>669.3124</ele>
        <time>2021-07-19T15:49:30Z</time>
      </trkpt>
      <trkpt lat="38.0894" lon="-2.81508">
        <ele>669.6437</ele>
        <time>2021-07-19T15:49:41Z</time>
      </trkpt>
      <trkpt lat="38.09026" lon="-2.81456">
        <ele>675.0269</ele>
        <time>2021-07-19T15:49:52Z</time>
      </trkpt>
      <trkpt lat="38.091" lon="-2.81353">
        <ele>687.4807</ele>
        <time>2021-07-19T15:50:03Z</time>
      </trkpt>
      <trkpt lat="38.09253" lon="-2.81234">
        <ele>700.2816</ele>
        <time>2021-07-19T15:50:14Z</time>
      </trkpt>
      <trkpt lat="38.0941" lon="-2.81247">
        <ele>696.4906</ele>
        <time>2021-07-19T15:50:25Z</time>
      </trkpt>
      <trkpt lat="38.09567" lon="-2.81213">
        <ele>692.5109</ele>
        <time>2021-07-19T15:50:36Z</time>
      </trkpt>
      <trkpt lat="38.09693" lon="-2.81217">
        <ele>688.4222</ele>
        <time>2021-07-19T15:50:47Z</time>
      </trkpt>
      <trkpt lat="38.0985" lon="-2.8119">
        <ele>683.4165</ele>
        <time>2021-07-19T15:50:58Z</time>
      </trkpt>
      <trkpt lat="38.09997" lon="-2.81212">
        <ele>683.1838</ele>
        <time>2021-07-19T15:51:09Z</time>
      </trkpt>
      <trkpt lat="38.10154" lon="-2.81316">
        <ele>682.3048</ele>
        <time>2021-07-19T15:51:20Z</time>
      </trkpt>
      <trkpt lat="38.10343" lon="-2.81255">
        <ele>686.1443</ele>
        <time>2021-07-19T15:51:31Z</time>
      </trkpt>
      <trkpt lat="38.10425" lon="-2.81092">
        <ele>688.698</ele>
        <time>2021-07-19T15:51:42Z</time>
      </trkpt>
      <trkpt lat="38.10455" lon="-2.80886">
        <ele>688.5619</ele>
        <time>2021-07-19T15:51:53Z</time>
      </trkpt>
      <trkpt lat="38.10625" lon="-2.80773">
        <ele>693.0091</ele>
        <time>2021-07-19T15:52:04Z</time>
      </trkpt>
      <trkpt lat="38.10754" lon="-2.80678">
        <ele>692.7742</ele>
        <time>2021-07-19T15:52:15Z</time>
      </trkpt>
      <trkpt lat="38.10918" lon="-2.80636">
        <ele>683.4766</ele>
        <time>2021-07-19T15:52:26Z</time>
      </trkpt>
      <trkpt lat="38.11026" lon="-2.8051">
        <ele>679.2303</ele>
        <time>2021-07-19T15:52:37Z</time>
      </trkpt>
      <trkpt lat="38.11115" lon="-2.8043">
        <ele>676.537</ele>
        <time>2021-07-19T15:52:48Z</time>
      </trkpt>
      <trkpt lat="38.11264" lon="-2.80469">
        <ele>675.6761</ele>
        <time>2021-07-19T15:52:59Z</time>
      </trkpt>
      <trkpt lat="38.11414" lon="-2.80361">
        <ele>677.9973</ele>
        <time>2021-07-19T15:53:10Z</time>
      </trkpt>
      <trkpt lat="38.11559" lon="-2.8022">
        <ele>675.811</ele>
        <time>2021-07-19T15:53:21Z</time>
      </trkpt>
      <trkpt lat="38.11639" lon="-2.80055">
        <ele>673.4222</ele>
        <time>2021-07-19T15:53:32Z</time>
      </trkpt>
      <trkpt lat="38.11739" lon="-2.80112">
        <ele>676.0206</ele>
        <time>2021-07-19T15:53:43Z</time>
      </trkpt>
      <trkpt lat="38.11748" lon="-2.8031">
        <ele>682.3069</ele>
        <time>2021-07-19T15:53:54Z</time>
      </trkpt>
      <trkpt lat="38.11742" lon="-2.80538">
        <ele>691.6628</ele>
        <time>2021-07-19T15:54:05Z</time>
      </trkpt>
      <trkpt lat="38.11811" lon="-2.80665">
        <ele>692.9623</ele>
        <time>2021-07-19T15:54:16Z</time>
      </trkpt>
      <trkpt lat="38.11887" lon="-2.80544">
        <ele>696.4291</ele>
        <time>2021-07-19T15:54:27Z</time>
      </trkpt>
      <trkpt lat="38.11989" lon="-2.80536">
        <ele>691.1271</ele>
        <time>2021-07-19T15:54:38Z</time>
      </trkpt>
      <trkpt lat="38.12097" lon="-2.80661">
        <ele>688.2996</ele>
        <time>2021-07-19T15:54:49Z</time>
      </trkpt>
      <trkpt lat="38.12158" lon="-2.80459">
        <ele>683.802</ele>
        <time>2021-07-19T15:55:00Z</time>
      </trkpt>
      <trkpt lat="38.12221" lon="-2.80275">
        <ele>684.4438</ele>
        <time>2021-07-19T15:55:11Z</time>
      </trkpt>
      <trkpt lat="38.12302" lon="-2.80048">
        <ele>687.0308</ele>
        <time>2021-07-19T15:55:22Z</time>
      </trkpt>
      <trkpt lat="38.12326" lon="-2.79924">
        <ele>687.264</ele>
        <time>2021-07-19T15:55:33Z</time>
      </trkpt>
      <trkpt lat="38.12234" lon="-2.79788">
        <ele>687.2088</ele>
        <time>2021-07-19T15:55:44Z</time>
      </trkpt>
      <trkpt lat="38.12332" lon="-2.79594">
        <ele>688.0506</ele>
        <time>2021-07-19T15:55:55Z</time>
      </trkpt>
      <trkpt lat="38.12447" lon="-2.79602">
        <ele>679.9815</ele>
        <time>2021-07-19T15:56:06Z</time>
      </trkpt>
      <trkpt lat="38.12538" lon="-2.7957">
        <ele>692.1464</ele>
        <time>2021-07-19T15:56:17Z</time>
      </trkpt>
      <trkpt lat="38.12519" lon="-2.79351">
        <ele>686.4551</ele>
        <time>2021-07-19T15:56:28Z</time>
      </trkpt>
      <trkpt lat="38.12655" lon="-2.79312">
        <ele>686.1245</ele>
        <time>2021-07-19T15:56:39Z</time>
      </trkpt>
      <trkpt lat="38.12762" lon="-2.79118">
        <ele>682.8225</ele>
        <time>2021-07-19T15:56:50Z</time>
      </trkpt>
      <trkpt lat="38.12791" lon="-2.78942">
        <ele>681.4106</ele>
        <time>2021-07-19T15:57:01Z</time>
      </trkpt>
      <trkpt lat="38.12937" lon="-2.78823">
        <ele>682.2827</ele>
        <time>2021-07-19T15:57:12Z</time>
      </trkpt>
      <trkpt lat="38.13061" lon="-2.78623">
        <ele>690.8353</ele>
        <time>2021-07-19T15:57:23Z</time>
      </trkpt>
      <trkpt lat="38.13188" lon="-2.78476">
        <ele>695.0654</ele>
        <time>2021-07-19T15:57:34Z</time>
      </trkpt>
      <trkpt lat="38.13329" lon="-2.78398">
        <ele>696.8197</ele>
        <time>2021-07-19T15:57:45Z</time>
      </trkpt>
      <trkpt lat="38.13534" lon="-2.78425">
        <ele>696.7229</ele>
        <time>2021-07-19T15:57:56Z</time>
      </trkpt>
      <trkpt lat="38.13702" lon="-2.78433">
        <ele>699.922</ele>
        <time>2021-07-19T15:58:07Z</time>
      </trkpt>
      <trkpt lat="38.1389" lon="-2.78436">
        <ele>706.0237</ele>
        <time>2021-07-19T15:58:18Z</time>
      </trkpt>
      <trkpt lat="38.14039" lon="-2.78529">
        <ele>708.7137</ele>
        <time>2021-07-19T15:58:29Z</time>
      </trkpt>
      <trkpt lat="38.14106" lon="-2.78706">
        <ele>716.3986</ele>
        <time>2021-07-19T15:58:40Z</time>
      </trkpt>
      <trkpt lat="38.14274" lon="-2.78783">
        <ele>711.1637</ele>
        <time>2021-07-19T15:58:51Z</time>
      </trkpt>
      <trkpt lat="38.14419" lon="-2.78883">
        <ele>705.4901</ele>
        <time>2021-07-19T15:59:02Z</time>
      </trkpt>
      <trkpt lat="38.1447" lon="-2.79108">
        <ele>704.0684</ele>
        <time>2021-07-19T15:59:13Z</time>
      </trkpt>
      <trkpt lat="38.14495" lon="-2.79341">
        <ele>703.3383</ele>
        <time>2021-07-19T15:59:24Z</time>
      </trkpt>
      <trkpt lat="38.14597" lon="-2.79502">
        <ele>697.0389</ele>
        <time>2021-07-19T15:59:35Z</time>
      </trkpt>
      <trkpt lat="38.14693" lon="-2.79423">
        <ele>702.9733</ele>
        <time>2021-07-19T15:59:46Z</time>
      </trkpt>
      <trkpt lat="38.1482" lon="-2.79373">
        <ele>702.4126</ele>
        <time>2021-07-19T15:59:57Z</time>
      </trkpt>
      <trkpt lat="38.14903" lon="-2.79188">
        <ele>707.3548</ele>
        <time>2021-07-19T16:00:08Z</time>
      </trkpt>
      <trkpt lat="38.14954" lon="-2.78945">
        <ele>713.4898</ele>
        <time>2021-07-19T16:00:19Z</time>
      </trkpt>
      <trkpt lat="38.15046" lon="-2.78732">
        <ele>707.8451</ele>
        <time>2021-07-19T16:00:30Z</time>
      </trkpt>
      <trkpt lat="38.15051" lon="-2.78715">
        <ele>705.0947</ele>
        <time>2021-07-19T16:00:41Z</time>
      </trkpt>
      <trkpt lat="38.15054" lon="-2.78713">
        <ele>703.6847</ele>
        <time>2021-07-19T16:01:03Z</time>
      </trkpt>
      <trkpt lat="38.15052" lon="-2.78717">
        <ele>708.3532</ele>
        <time>2021-07-19T16:01:22Z</time>
      </trkpt>
      <trkpt lat="38.15041" lon="-2.78715">
        <ele>708.81</ele>
        <time>2021-07-19T16:01:33Z</time>
      </trkpt>
      <trkpt lat="38.15029" lon="-2.78708">
        <ele>709.8592</ele>
        <time>2021-07-19T16:01:44Z</time>
      </trkpt>
      <trkpt lat="38.15021" lon="-2.78699">
        <ele>711.146</ele>
        <time>2021-07-19T16:01:55Z</time>
      </trkpt>
      <trkpt lat="38.15017" lon="-2.78689">
        <ele>699.9064</ele>
        <time>2021-07-19T16:02:06Z</time>
      </trkpt>
      <trkpt lat="38.15007" lon="-2.78677">
        <ele>694.1284</ele>
        <time>2021-07-19T16:02:17Z</time>
      </trkpt>
      <trkpt lat="38.14998" lon="-2.78664">
        <ele>696.3089</ele>
        <time>2021-07-19T16:02:28Z</time>
      </trkpt>
      <trkpt lat="38.1499" lon="-2.78651">
        <ele>694.098</ele>
        <time>2021-07-19T16:02:39Z</time>
      </trkpt>
      <trkpt lat="38.14991" lon="-2.78656">
        <ele>692.2376</ele>
        <time>2021-07-19T16:03:24Z</time>
      </trkpt>
      <trkpt lat="38.14992" lon="-2.78651">
        <ele>691.8988</ele>
        <time>2021-07-19T16:03:59Z</time>
      </trkpt>
      <trkpt lat="38.14996" lon="-2.78637">
        <ele>691.4337</ele>
        <time>2021-07-19T16:04:10Z</time>
      </trkpt>
      <trkpt lat="38.15002" lon="-2.7863">
        <ele>690.6456</ele>
        <time>2021-07-19T16:04:21Z</time>
      </trkpt>
      <trkpt lat="38.15008" lon="-2.78627">
        <ele>687.5373</ele>
        <time>2021-07-19T16:04:32Z</time>
      </trkpt>
      <trkpt lat="38.15006" lon="-2.78631">
        <ele>684.7505</ele>
        <time>2021-07-19T16:04:54Z</time>
      </trkpt>
      <trkpt lat="38.15001" lon="-2.78645">
        <ele>688.6342</ele>
        <time>2021-07-19T16:05:05Z</time>
      </trkpt>
      <trkpt lat="38.15001" lon="-2.7866">
        <ele>691.5672</ele>
        <time>2021-07-19T16:05:16Z</time>
      </trkpt>
      <trkpt lat="38.15004" lon="-2.78673">
        <ele>695.8667</ele>
        <time>2021-07-19T16:05:27Z</time>
      </trkpt>
      <trkpt lat="38.15007" lon="-2.78682">
        <ele>695.2054</ele>
        <time>2021-07-19T16:05:38Z</time>
      </trkpt>
      <trkpt lat="38.15009" lon="-2.78687">
        <ele>692.1154</ele>
        <time>2021-07-19T16:05:50Z</time>
      </trkpt>
      <trkpt lat="38.15018" lon="-2.78698">
        <ele>696.4255</ele>
        <time>2021-07-19T16:06:01Z</time>
      </trkpt>
      <trkpt lat="38.15022" lon="-2.78708">
        <ele>693.6709</ele>
        <time>2021-07-19T16:06:12Z</time>
      </trkpt>
      <trkpt lat="38.15034" lon="-2.78718">
        <ele>695.5944</ele>
        <time>2021-07-19T16:06:23Z</time>
      </trkpt>
      <trkpt lat="38.15048" lon="-2.7872">
        <ele>698.5356</ele>
        <time>2021-07-19T16:06:34Z</time>
      </trkpt>
      <trkpt lat="38.15051" lon="-2.7871">
        <ele>697.592</ele>
        <time>2021-07-19T16:06:45Z</time>
      </trkpt>
      <trkpt lat="38.15054" lon="-2.78717">
        <ele>697.6305</ele>
        <time>2021-07-19T16:07:10Z</time>
      </trkpt>
      <trkpt lat="38.15056" lon="-2.78711">
        <ele>698.7041</ele>
        <time>2021-07-19T16:08:09Z</time>
      </trkpt>
      <trkpt lat="38.15079" lon="-2.78708">
        <ele>695.7802</ele>
        <time>2021-07-19T16:08:20Z</time>
      </trkpt>
      <trkpt lat="38.1508" lon="-2.78713">
        <ele>696.8948</ele>
        <time>2021-07-19T16:08:31Z</time>
      </trkpt>
      <trkpt lat="38.15087" lon="-2.78709">
        <ele>697.0674</ele>
        <time>2021-07-19T16:09:02Z</time>
      </trkpt>
      <trkpt lat="38.1522" lon="-2.78667">
        <ele>693.365</ele>
        <time>2021-07-19T16:09:13Z</time>
      </trkpt>
      <trkpt lat="38.15362" lon="-2.78644">
        <ele>688.2639</ele>
        <time>2021-07-19T16:09:24Z</time>
      </trkpt>
      <trkpt lat="38.15486" lon="-2.78668">
        <ele>686.4684</ele>
        <time>2021-07-19T16:09:35Z</time>
      </trkpt>
      <trkpt lat="38.15628" lon="-2.78671">
        <ele>691.6845</ele>
        <time>2021-07-19T16:09:46Z</time>
      </trkpt>
      <trkpt lat="38.15764" lon="-2.78606">
        <ele>689.4733</ele>
        <time>2021-07-19T16:09:57Z</time>
      </trkpt>
      <trkpt lat="38.15896" lon="-2.78622">
        <ele>681.704</ele>
        <time>2021-07-19T16:10:08Z</time>
      </trkpt>
      <trkpt lat="38.1602" lon="-2.7864">
        <ele>681.4106</ele>
        <time>2021-07-19T16:10:19Z</time>
      </trkpt>
      <trkpt lat="38.16103" lon="-2.78518">
        <ele>681.4651</ele>
        <time>2021-07-19T16:10:30Z</time>
      </trkpt>
      <trkpt lat="38.16259" lon="-2.78518">
        <ele>679.2018</ele>
        <time>2021-07-19T16:10:41Z</time>
      </trkpt>
      <trkpt lat="38.16419" lon="-2.78496">
        <ele>680.4539</ele>
        <time>2021-07-19T16:10:52Z</time>
      </trkpt>
      <trkpt lat="38.16558" lon="-2.78559">
        <ele>678.1414</ele>
        <time>2021-07-19T16:11:03Z</time>
      </trkpt>
      <trkpt lat="38.1657" lon="-2.78749">
        <ele>678.0207</ele>
        <time>2021-07-19T16:11:14Z</time>
      </trkpt>
      <trkpt lat="38.16636" lon="-2.78932">
        <ele>672.3512</ele>
        <time>2021-07-19T16:11:25Z</time>
      </trkpt>
      <trkpt lat="38.16669" lon="-2.79075">
        <ele>667.7176</ele>
        <time>2021-07-19T16:11:36Z</time>
      </trkpt>
      <trkpt lat="38.16706" lon="-2.79251">
        <ele>661.3512</ele>
        <time>2021-07-19T16:11:47Z</time>
      </trkpt>
      <trkpt lat="38.16616" lon="-2.79461">
        <ele>654.2527</ele>
        <time>2021-07-19T16:11:58Z</time>
      </trkpt>
      <trkpt lat="38.16606" lon="-2.79596">
        <ele>651.8695</ele>
        <time>2021-07-19T16:12:09Z</time>
      </trkpt>
      <trkpt lat="38.16683" lon="-2.79794">
        <ele>657.1665</ele>
        <time>2021-07-19T16:12:20Z</time>
      </trkpt>
      <trkpt lat="38.1678" lon="-2.79867">
        <ele>649.8286</ele>
        <time>2021-07-19T16:12:31Z</time>
      </trkpt>
      <trkpt lat="38.16896" lon="-2.79712">
        <ele>644.9623</ele>
        <time>2021-07-19T16:12:42Z</time>
      </trkpt>
      <trkpt lat="38.17063" lon="-2.79673">
        <ele>640.1274</ele>
        <time>2021-07-19T16:12:53Z</time>
      </trkpt>
      <trkpt lat="38.17174" lon="-2.79706">
        <ele>637.5466</ele>
        <time>2021-07-19T16:13:05Z</time>
      </trkpt>
      <trkpt lat="38.17293" lon="-2.79689">
        <ele>638.3701</ele>
        <time>2021-07-19T16:13:16Z</time>
      </trkpt>
      <trkpt lat="38.17364" lon="-2.79676">
        <ele>636.7448</ele>
        <time>2021-07-19T16:13:27Z</time>
      </trkpt>
      <trkpt lat="38.17364" lon="-2.79674">
        <ele>636.7162</ele>
        <time>2021-07-19T16:14:27Z</time>
      </trkpt>
      <trkpt lat="38.17407" lon="-2.79618">
        <ele>636.3916</ele>
        <time>2021-07-19T16:14:38Z</time>
      </trkpt>
      <trkpt lat="38.1751" lon="-2.79593">
        <ele>632.7602</ele>
        <time>2021-07-19T16:14:49Z</time>
      </trkpt>
      <trkpt lat="38.17594" lon="-2.79523">
        <ele>638.1667</ele>
        <time>2021-07-19T16:15:00Z</time>
      </trkpt>
      <trkpt lat="38.17552" lon="-2.79404">
        <ele>651.369</ele>
        <time>2021-07-19T16:15:11Z</time>
      </trkpt>
      <trkpt lat="38.17489" lon="-2.79279">
        <ele>652.7492</ele>
        <time>2021-07-19T16:15:22Z</time>
      </trkpt>
      <trkpt lat="38.17402" lon="-2.79213">
        <ele>654.6676</ele>
        <time>2021-07-19T16:15:33Z</time>
      </trkpt>
      <trkpt lat="38.17297" lon="-2.79151">
        <ele>657.8904</ele>
        <time>2021-07-19T16:15:44Z</time>
      </trkpt>
      <trkpt lat="38.17184" lon="-2.79083">
        <ele>664.7818</ele>
        <time>2021-07-19T16:15:55Z</time>
      </trkpt>
      <trkpt lat="38.17077" lon="-2.7896">
        <ele>671.2592</ele>
        <time>2021-07-19T16:16:06Z</time>
      </trkpt>
      <trkpt lat="38.17024" lon="-2.78773">
        <ele>664.0209</ele>
        <time>2021-07-19T16:16:17Z</time>
      </trkpt>
      <trkpt lat="38.17043" lon="-2.78591">
        <ele>650.0607</ele>
        <time>2021-07-19T16:16:28Z</time>
      </trkpt>
      <trkpt lat="38.17143" lon="-2.7844">
        <ele>648.3757</ele>
        <time>2021-07-19T16:16:39Z</time>
      </trkpt>
      <trkpt lat="38.17278" lon="-2.78223">
        <ele>659.0382</ele>
        <time>2021-07-19T16:16:50Z</time>
      </trkpt>
      <trkpt lat="38.17427" lon="-2.78085">
        <ele>667.485</ele>
        <time>2021-07-19T16:17:01Z</time>
      </trkpt>
      <trkpt lat="38.17592" lon="-2.77885">
        <ele>681.7063</ele>
        <time>2021-07-19T16:17:12Z</time>
      </trkpt>
      <trkpt lat="38.17754" lon="-2.77763">
        <ele>696.0062</ele>
        <time>2021-07-19T16:17:23Z</time>
      </trkpt>
      <trkpt lat="38.17909" lon="-2.77656">
        <ele>708.41</ele>
        <time>2021-07-19T16:17:34Z</time>
      </trkpt>
      <trkpt lat="38.18118" lon="-2.77633">
        <ele>720.5528</ele>
        <time>2021-07-19T16:17:45Z</time>
      </trkpt>
      <trkpt lat="38.1828" lon="-2.77672">
        <ele>731.8639</ele>
        <time>2021-07-19T16:17:56Z</time>
      </trkpt>
      <trkpt lat="38.1831" lon="-2.77552">
        <ele>753.8835</ele>
        <time>2021-07-19T16:18:07Z</time>
      </trkpt>
      <trkpt lat="38.18381" lon="-2.77471">
        <ele>752.4631</ele>
        <time>2021-07-19T16:18:18Z</time>
      </trkpt>
      <trkpt lat="38.18559" lon="-2.77353">
        <ele>761.5937</ele>
        <time>2021-07-19T16:18:29Z</time>
      </trkpt>
      <trkpt lat="38.18663" lon="-2.77162">
        <ele>762.3477</ele>
        <time>2021-07-19T16:18:40Z</time>
      </trkpt>
      <trkpt lat="38.18802" lon="-2.77032">
        <ele>754.6119</ele>
        <time>2021-07-19T16:18:51Z</time>
      </trkpt>
      <trkpt lat="38.18955" lon="-2.77096">
        <ele>752.8444</ele>
        <time>2021-07-19T16:19:02Z</time>
      </trkpt>
      <trkpt lat="38.19126" lon="-2.7721">
        <ele>743.9258</ele>
        <time>2021-07-19T16:19:13Z</time>
      </trkpt>
      <trkpt lat="38.19214" lon="-2.77071">
        <ele>750.9212</ele>
        <time>2021-07-19T16:19:24Z</time>
      </trkpt>
      <trkpt lat="38.19266" lon="-2.76897">
        <ele>754.1915</ele>
        <time>2021-07-19T16:19:35Z</time>
      </trkpt>
      <trkpt lat="38.19289" lon="-2.76665">
        <ele>768.2579</ele>
        <time>2021-07-19T16:19:46Z</time>
      </trkpt>
      <trkpt lat="38.19427" lon="-2.76492">
        <ele>765.6819</ele>
        <time>2021-07-19T16:19:57Z</time>
      </trkpt>
      <trkpt lat="38.19479" lon="-2.76259">
        <ele>759.248</ele>
        <time>2021-07-19T16:20:08Z</time>
      </trkpt>
      <trkpt lat="38.19621" lon="-2.76096">
        <ele>761.5694</ele>
        <time>2021-07-19T16:20:19Z</time>
      </trkpt>
      <trkpt lat="38.1978" lon="-2.75987">
        <ele>769.241</ele>
        <time>2021-07-19T16:20:30Z</time>
      </trkpt>
      <trkpt lat="38.1995" lon="-2.75885">
        <ele>779.4675</ele>
        <time>2021-07-19T16:20:41Z</time>
      </trkpt>
      <trkpt lat="38.20122" lon="-2.75805">
        <ele>785.9855</ele>
        <time>2021-07-19T16:20:52Z</time>
      </trkpt>
      <trkpt lat="38.20336" lon="-2.75685">
        <ele>791.6985</ele>
        <time>2021-07-19T16:21:03Z</time>
      </trkpt>
      <trkpt lat="38.20552" lon="-2.7568">
        <ele>787.616</ele>
        <time>2021-07-19T16:21:14Z</time>
      </trkpt>
      <trkpt lat="38.20756" lon="-2.75668">
        <ele>782.8669</ele>
        <time>2021-07-19T16:21:25Z</time>
      </trkpt>
      <trkpt lat="38.20956" lon="-2.75696">
        <ele>773.0267</ele>
        <time>2021-07-19T16:21:36Z</time>
      </trkpt>
      <trkpt lat="38.21138" lon="-2.7572">
        <ele>778.2366</ele>
        <time>2021-07-19T16:21:47Z</time>
      </trkpt>
      <trkpt lat="38.21327" lon="-2.75628">
        <ele>780.537</ele>
        <time>2021-07-19T16:21:58Z</time>
      </trkpt>
      <trkpt lat="38.21507" lon="-2.75526">
        <ele>783.1633</ele>
        <time>2021-07-19T16:22:09Z</time>
      </trkpt>
      <trkpt lat="38.21684" lon="-2.75413">
        <ele>772.3726</ele>
        <time>2021-07-19T16:22:20Z</time>
      </trkpt>
      <trkpt lat="38.21863" lon="-2.75315">
        <ele>757.7685</ele>
        <time>2021-07-19T16:22:31Z</time>
      </trkpt>
      <trkpt lat="38.22037" lon="-2.7534">
        <ele>755.1989</ele>
        <time>2021-07-19T16:22:42Z</time>
      </trkpt>
      <trkpt lat="38.22177" lon="-2.75134">
        <ele>748.0302</ele>
        <time>2021-07-19T16:22:53Z</time>
      </trkpt>
      <trkpt lat="38.22325" lon="-2.74963">
        <ele>734.5567</ele>
        <time>2021-07-19T16:23:04Z</time>
      </trkpt>
      <trkpt lat="38.2241" lon="-2.74743">
        <ele>721.839</ele>
        <time>2021-07-19T16:23:15Z</time>
      </trkpt>
      <trkpt lat="38.22328" lon="-2.7455">
        <ele>702.1215</ele>
        <time>2021-07-19T16:23:26Z</time>
      </trkpt>
      <trkpt lat="38.22329" lon="-2.7431">
        <ele>697.1678</ele>
        <time>2021-07-19T16:23:37Z</time>
      </trkpt>
      <trkpt lat="38.22289" lon="-2.74115">
        <ele>691.1385</ele>
        <time>2021-07-19T16:23:48Z</time>
      </trkpt>
      <trkpt lat="38.22341" lon="-2.73846">
        <ele>683.0676</ele>
        <time>2021-07-19T16:23:59Z</time>
      </trkpt>
      <trkpt lat="38.22362" lon="-2.73614">
        <ele>677.0257</ele>
        <time>2021-07-19T16:24:10Z</time>
      </trkpt>
      <trkpt lat="38.22225" lon="-2.7344">
        <ele>666.3639</ele>
        <time>2021-07-19T16:24:21Z</time>
      </trkpt>
      <trkpt lat="38.22085" lon="-2.73274">
        <ele>656.085</ele>
        <time>2021-07-19T16:24:32Z</time>
      </trkpt>
      <trkpt lat="38.22018" lon="-2.73082">
        <ele>649.3027</ele>
        <time>2021-07-19T16:24:43Z</time>
      </trkpt>
      <trkpt lat="38.22171" lon="-2.72996">
        <ele>655.4958</ele>
        <time>2021-07-19T16:24:54Z</time>
      </trkpt>
      <trkpt lat="38.224" lon="-2.72962">
        <ele>663.4756</ele>
        <time>2021-07-19T16:25:05Z</time>
      </trkpt>
      <trkpt lat="38.22608" lon="-2.72828">
        <ele>666.773</ele>
        <time>2021-07-19T16:25:16Z</time>
      </trkpt>
      <trkpt lat="38.22831" lon="-2.72721">
        <ele>669.9365</ele>
        <time>2021-07-19T16:25:27Z</time>
      </trkpt>
      <trkpt lat="38.22966" lon="-2.72561">
        <ele>674.9354</ele>
        <time>2021-07-19T16:25:38Z</time>
      </trkpt>
      <trkpt lat="38.23066" lon="-2.72462">
        <ele>678.4817</ele>
        <time>2021-07-19T16:25:49Z</time>
      </trkpt>
      <trkpt lat="38.2296" lon="-2.72321">
        <ele>681.5382</ele>
        <time>2021-07-19T16:26:00Z</time>
      </trkpt>
      <trkpt lat="38.22797" lon="-2.72157">
        <ele>689.1405</ele>
        <time>2021-07-19T16:26:11Z</time>
      </trkpt>
      <trkpt lat="38.2272" lon="-2.71944">
        <ele>703.6187</ele>
        <time>2021-07-19T16:26:22Z</time>
      </trkpt>
      <trkpt lat="38.22826" lon="-2.71799">
        <ele>695.0452</ele>
        <time>2021-07-19T16:26:33Z</time>
      </trkpt>
      <trkpt lat="38.22772" lon="-2.71571">
        <ele>697.315</ele>
        <time>2021-07-19T16:26:44Z</time>
      </trkpt>
      <trkpt lat="38.22678" lon="-2.71382">
        <ele>705.5998</ele>
        <time>2021-07-19T16:26:55Z</time>
      </trkpt>
      <trkpt lat="38.22631" lon="-2.71155">
        <ele>709.1935</ele>
        <time>2021-07-19T16:27:06Z</time>
      </trkpt>
      <trkpt lat="38.22511" lon="-2.71185">
        <ele>717.4489</ele>
        <time>2021-07-19T16:27:17Z</time>
      </trkpt>
      <trkpt lat="38.22475" lon="-2.71386">
        <ele>729.0157</ele>
        <time>2021-07-19T16:27:28Z</time>
      </trkpt>
      <trkpt lat="38.22345" lon="-2.71506">
        <ele>743.1057</ele>
        <time>2021-07-19T16:27:39Z</time>
      </trkpt>
      <trkpt lat="38.2219" lon="-2.71619">
        <ele>754.3229</ele>
        <time>2021-07-19T16:27:50Z</time>
      </trkpt>
      <trkpt lat="38.22054" lon="-2.71679">
        <ele>769.2175</ele>
        <time>2021-07-19T16:28:01Z</time>
      </trkpt>
      <trkpt lat="38.21959" lon="-2.71837">
        <ele>784.1499</ele>
        <time>2021-07-19T16:28:12Z</time>
      </trkpt>
      <trkpt lat="38.2192" lon="-2.71705">
        <ele>791.6144</ele>
        <time>2021-07-19T16:28:23Z</time>
      </trkpt>
      <trkpt lat="38.22052" lon="-2.71504">
        <ele>810.2124</ele>
        <time>2021-07-19T16:28:34Z</time>
      </trkpt>
      <trkpt lat="38.22102" lon="-2.71351">
        <ele>826.4767</ele>
        <time>2021-07-19T16:28:45Z</time>
      </trkpt>
      <trkpt lat="38.22101" lon="-2.71275">
        <ele>840.0707</ele>
        <time>2021-07-19T16:28:56Z</time>
      </trkpt>
      <trkpt lat="38.22013" lon="-2.71426">
        <ele>848.9685</ele>
        <time>2021-07-19T16:29:07Z</time>
      </trkpt>
      <trkpt lat="38.21889" lon="-2.71524">
        <ele>849.01</ele>
        <time>2021-07-19T16:29:18Z</time>
      </trkpt>
      <trkpt lat="38.21756" lon="-2.71601">
        <ele>860.8085</ele>
        <time>2021-07-19T16:29:29Z</time>
      </trkpt>
      <trkpt lat="38.21655" lon="-2.71685">
        <ele>870.7337</ele>
        <time>2021-07-19T16:29:40Z</time>
      </trkpt>
      <trkpt lat="38.21589" lon="-2.71756">
        <ele>869.2788</ele>
        <time>2021-07-19T16:29:51Z</time>
      </trkpt>
      <trkpt lat="38.21489" lon="-2.71839">
        <ele>852.3629</ele>
        <time>2021-07-19T16:30:02Z</time>
      </trkpt>
      <trkpt lat="38.21324" lon="-2.71956">
        <ele>848.1408</ele>
        <time>2021-07-19T16:30:13Z</time>
      </trkpt>
      <trkpt lat="38.21163" lon="-2.71987">
        <ele>845.5845</ele>
        <time>2021-07-19T16:30:24Z</time>
      </trkpt>
      <trkpt lat="38.21074" lon="-2.71824">
        <ele>845.6643</ele>
        <time>2021-07-19T16:30:35Z</time>
      </trkpt>
      <trkpt lat="38.209" lon="-2.71738">
        <ele>849.3719</ele>
        <time>2021-07-19T16:30:46Z</time>
      </trkpt>
      <trkpt lat="38.2073" lon="-2.71624">
        <ele>833.3258</ele>
        <time>2021-07-19T16:30:57Z</time>
      </trkpt>
      <trkpt lat="38.20609" lon="-2.71481">
        <ele>823.9203</ele>
        <time>2021-07-19T16:31:08Z</time>
      </trkpt>
      <trkpt lat="38.20485" lon="-2.71633">
        <ele>820.6483</ele>
        <time>2021-07-19T16:31:19Z</time>
      </trkpt>
      <trkpt lat="38.20356" lon="-2.71773">
        <ele>810.1936</ele>
        <time>2021-07-19T16:31:30Z</time>
      </trkpt>
      <trkpt lat="38.2016" lon="-2.71747">
        <ele>800.7887</ele>
        <time>2021-07-19T16:31:41Z</time>
      </trkpt>
      <trkpt lat="38.20004" lon="-2.7164">
        <ele>792.8269</ele>
        <time>2021-07-19T16:31:52Z</time>
      </trkpt>
      <trkpt lat="38.19906" lon="-2.71499">
        <ele>776.0651</ele>
        <time>2021-07-19T16:32:03Z</time>
      </trkpt>
      <trkpt lat="38.19855" lon="-2.71329">
        <ele>762.1167</ele>
        <time>2021-07-19T16:32:14Z</time>
      </trkpt>
      <trkpt lat="38.19774" lon="-2.71302">
        <ele>751.311</ele>
        <time>2021-07-19T16:32:25Z</time>
      </trkpt>
      <trkpt lat="38.19794" lon="-2.71468">
        <ele>740.1955</ele>
        <time>2021-07-19T16:32:36Z</time>
      </trkpt>
      <trkpt lat="38.19822" lon="-2.71666">
        <ele>728.7969</ele>
        <time>2021-07-19T16:32:47Z</time>
      </trkpt>
      <trkpt lat="38.19861" lon="-2.71874">
        <ele>719.8013</ele>
        <time>2021-07-19T16:32:58Z</time>
      </trkpt>
      <trkpt lat="38.19851" lon="-2.72187">
        <ele>727.947</ele>
        <time>2021-07-19T16:33:09Z</time>
      </trkpt>
      <trkpt lat="38.19758" lon="-2.72371">
        <ele>752.5524</ele>
        <time>2021-07-19T16:33:20Z</time>
      </trkpt>
      <trkpt lat="38.19604" lon="-2.72426">
        <ele>759.1638</ele>
        <time>2021-07-19T16:33:31Z</time>
      </trkpt>
      <trkpt lat="38.19448" lon="-2.72508">
        <ele>764.5349</ele>
        <time>2021-07-19T16:33:42Z</time>
      </trkpt>
      <trkpt lat="38.19272" lon="-2.72658">
        <ele>772.3542</ele>
        <time>2021-07-19T16:33:53Z</time>
      </trkpt>
      <trkpt lat="38.19124" lon="-2.7282">
        <ele>768.1531</ele>
        <time>2021-07-19T16:34:04Z</time>
      </trkpt>
      <trkpt lat="38.18921" lon="-2.72812">
        <ele>764.1283</ele>
        <time>2021-07-19T16:34:15Z</time>
      </trkpt>
      <trkpt lat="38.18715" lon="-2.72752">
        <ele>762.3068</ele>
        <time>2021-07-19T16:34:26Z</time>
      </trkpt>
      <trkpt lat="38.18597" lon="-2.72812">
        <ele>776.7743</ele>
        <time>2021-07-19T16:34:37Z</time>
      </trkpt>
      <trkpt lat="38.1854" lon="-2.72701">
        <ele>793.6313</ele>
        <time>2021-07-19T16:34:48Z</time>
      </trkpt>
      <trkpt lat="38.1836" lon="-2.72718">
        <ele>813.4412</ele>
        <time>2021-07-19T16:34:59Z</time>
      </trkpt>
      <trkpt lat="38.18237" lon="-2.72783">
        <ele>831.3438</ele>
        <time>2021-07-19T16:35:10Z</time>
      </trkpt>
      <trkpt lat="38.18336" lon="-2.72677">
        <ele>845.5909</ele>
        <time>2021-07-19T16:35:21Z</time>
      </trkpt>
      <trkpt lat="38.18313" lon="-2.7264">
        <ele>862.9978</ele>
        <time>2021-07-19T16:35:32Z</time>
      </trkpt>
      <trkpt lat="38.18131" lon="-2.72675">
        <ele>882.5904</ele>
        <time>2021-07-19T16:35:43Z</time>
      </trkpt>
      <trkpt lat="38.18066" lon="-2.72788">
        <ele>889.4838</ele>
        <time>2021-07-19T16:35:54Z</time>
      </trkpt>
      <trkpt lat="38.1805" lon="-2.72625">
        <ele>902.6612</ele>
        <time>2021-07-19T16:36:05Z</time>
      </trkpt>
      <trkpt lat="38.17914" lon="-2.72615">
        <ele>923.4099</ele>
        <time>2021-07-19T16:36:16Z</time>
      </trkpt>
      <trkpt lat="38.17808" lon="-2.72692">
        <ele>937.1821</ele>
        <time>2021-07-19T16:36:27Z</time>
      </trkpt>
      <trkpt lat="38.17621" lon="-2.7275">
        <ele>963.2253</ele>
        <time>2021-07-19T16:36:38Z</time>
      </trkpt>
      <trkpt lat="38.17516" lon="-2.72832">
        <ele>981.1374</ele>
        <time>2021-07-19T16:36:49Z</time>
      </trkpt>
      <trkpt lat="38.17407" lon="-2.72839">
        <ele>996.9685</ele>
        <time>2021-07-19T16:37:00Z</time>
      </trkpt>
      <trkpt lat="38.17528" lon="-2.72763">
        <ele>1006.99</ele>
        <time>2021-07-19T16:37:11Z</time>
      </trkpt>
      <trkpt lat="38.17528" lon="-2.72577">
        <ele>1021.044</ele>
        <time>2021-07-19T16:37:22Z</time>
      </trkpt>
      <trkpt lat="38.17582" lon="-2.7242">
        <ele>1039.748</ele>
        <time>2021-07-19T16:37:33Z</time>
      </trkpt>
      <trkpt lat="38.17662" lon="-2.72297">
        <ele>1060.877</ele>
        <time>2021-07-19T16:37:44Z</time>
      </trkpt>
      <trkpt lat="38.1768" lon="-2.72104">
        <ele>1073.216</ele>
        <time>2021-07-19T16:37:55Z</time>
      </trkpt>
      <trkpt lat="38.17719" lon="-2.71856">
        <ele>1077.663</ele>
        <time>2021-07-19T16:38:06Z</time>
      </trkpt>
      <trkpt lat="38.17599" lon="-2.71606">
        <ele>1081.573</ele>
        <time>2021-07-19T16:38:17Z</time>
      </trkpt>
      <trkpt lat="38.17398" lon="-2.715">
        <ele>1090.085</ele>
        <time>2021-07-19T16:38:28Z</time>
      </trkpt>
      <trkpt lat="38.17297" lon="-2.71502">
        <ele>1108.095</ele>
        <time>2021-07-19T16:38:39Z</time>
      </trkpt>
      <trkpt lat="38.17189" lon="-2.71512">
        <ele>1121.501</ele>
        <time>2021-07-19T16:38:51Z</time>
      </trkpt>
      <trkpt lat="38.17146" lon="-2.71315">
        <ele>1124.069</ele>
        <time>2021-07-19T16:39:02Z</time>
      </trkpt>
      <trkpt lat="38.1703" lon="-2.71282">
        <ele>1110.376</ele>
        <time>2021-07-19T16:39:13Z</time>
      </trkpt>
      <trkpt lat="38.1695" lon="-2.71269">
        <ele>1096.969</ele>
        <time>2021-07-19T16:39:24Z</time>
      </trkpt>
      <trkpt lat="38.1709" lon="-2.71098">
        <ele>1072.684</ele>
        <time>2021-07-19T16:39:35Z</time>
      </trkpt>
      <trkpt lat="38.17071" lon="-2.70972">
        <ele>1051.479</ele>
        <time>2021-07-19T16:39:46Z</time>
      </trkpt>
      <trkpt lat="38.16961" lon="-2.70927">
        <ele>1068.859</ele>
        <time>2021-07-19T16:39:57Z</time>
      </trkpt>
      <trkpt lat="38.16843" lon="-2.70741">
        <ele>1089.474</ele>
        <time>2021-07-19T16:40:08Z</time>
      </trkpt>
      <trkpt lat="38.16913" lon="-2.70533">
        <ele>1083.014</ele>
        <time>2021-07-19T16:40:19Z</time>
      </trkpt>
      <trkpt lat="38.17004" lon="-2.70315">
        <ele>1067.853</ele>
        <time>2021-07-19T16:40:30Z</time>
      </trkpt>
      <trkpt lat="38.16838" lon="-2.70224">
        <ele>1065.612</ele>
        <time>2021-07-19T16:40:41Z</time>
      </trkpt>
      <trkpt lat="38.16708" lon="-2.70018">
        <ele>1072.933</ele>
        <time>2021-07-19T16:40:52Z</time>
      </trkpt>
      <trkpt lat="38.16654" lon="-2.69791">
        <ele>1093.988</ele>
        <time>2021-07-19T16:41:03Z</time>
      </trkpt>
      <trkpt lat="38.16641" lon="-2.69669">
        <ele>1110.025</ele>
        <time>2021-07-19T16:41:14Z</time>
      </trkpt>
      <trkpt lat="38.16545" lon="-2.69489">
        <ele>1130.001</ele>
        <time>2021-07-19T16:41:25Z</time>
      </trkpt>
      <trkpt lat="38.16446" lon="-2.69298">
        <ele>1150.738</ele>
        <time>2021-07-19T16:41:36Z</time>
      </trkpt>
      <trkpt lat="38.16515" lon="-2.69112">
        <ele>1167.936</ele>
        <time>2021-07-19T16:41:47Z</time>
      </trkpt>
      <trkpt lat="38.16661" lon="-2.68879">
        <ele>1185.965</ele>
        <time>2021-07-19T16:41:58Z</time>
      </trkpt>
      <trkpt lat="38.16742" lon="-2.68709">
        <ele>1194.394</ele>
        <time>2021-07-19T16:42:09Z</time>
      </trkpt>
      <trkpt lat="38.16573" lon="-2.68828">
        <ele>1215.936</ele>
        <time>2021-07-19T16:42:20Z</time>
      </trkpt>
      <trkpt lat="38.16408" lon="-2.68992">
        <ele>1225.089</ele>
        <time>2021-07-19T16:42:31Z</time>
      </trkpt>
      <trkpt lat="38.1634" lon="-2.68879">
        <ele>1228.449</ele>
        <time>2021-07-19T16:42:42Z</time>
      </trkpt>
      <trkpt lat="38.16269" lon="-2.68684">
        <ele>1224.011</ele>
        <time>2021-07-19T16:42:53Z</time>
      </trkpt>
      <trkpt lat="38.16146" lon="-2.68766">
        <ele>1231.76</ele>
        <time>2021-07-19T16:43:04Z</time>
      </trkpt>
      <trkpt lat="38.16054" lon="-2.68894">
        <ele>1238.832</ele>
        <time>2021-07-19T16:43:15Z</time>
      </trkpt>
      <trkpt lat="38.15912" lon="-2.68874">
        <ele>1243.864</ele>
        <time>2021-07-19T16:43:26Z</time>
      </trkpt>
      <trkpt lat="38.15772" lon="-2.68865">
        <ele>1251.696</ele>
        <time>2021-07-19T16:43:37Z</time>
      </trkpt>
      <trkpt lat="38.15694" lon="-2.68772">
        <ele>1261.511</ele>
        <time>2021-07-19T16:43:48Z</time>
      </trkpt>
      <trkpt lat="38.1567" lon="-2.68961">
        <ele>1274.248</ele>
        <time>2021-07-19T16:43:59Z</time>
      </trkpt>
      <trkpt lat="38.1566" lon="-2.69186">
        <ele>1289.333</ele>
        <time>2021-07-19T16:44:10Z</time>
      </trkpt>
      <trkpt lat="38.15513" lon="-2.69166">
        <ele>1303.651</ele>
        <time>2021-07-19T16:44:21Z</time>
      </trkpt>
      <trkpt lat="38.15427" lon="-2.68996">
        <ele>1320.207</ele>
        <time>2021-07-19T16:44:32Z</time>
      </trkpt>
      <trkpt lat="38.15336" lon="-2.69013">
        <ele>1314.799</ele>
        <time>2021-07-19T16:44:43Z</time>
      </trkpt>
      <trkpt lat="38.15136" lon="-2.6894">
        <ele>1330.2</ele>
        <time>2021-07-19T16:44:54Z</time>
      </trkpt>
      <trkpt lat="38.15058" lon="-2.68816">
        <ele>1347.301</ele>
        <time>2021-07-19T16:45:05Z</time>
      </trkpt>
      <trkpt lat="38.15114" lon="-2.68651">
        <ele>1366.114</ele>
        <time>2021-07-19T16:45:16Z</time>
      </trkpt>
      <trkpt lat="38.15011" lon="-2.68611">
        <ele>1377.745</ele>
        <time>2021-07-19T16:45:27Z</time>
      </trkpt>
      <trkpt lat="38.14924" lon="-2.68513">
        <ele>1389.095</ele>
        <time>2021-07-19T16:45:38Z</time>
      </trkpt>
      <trkpt lat="38.14769" lon="-2.68472">
        <ele>1401.871</ele>
        <time>2021-07-19T16:45:49Z</time>
      </trkpt>
      <trkpt lat="38.14579" lon="-2.68508">
        <ele>1413.05</ele>
        <time>2021-07-19T16:46:00Z</time>
      </trkpt>
      <trkpt lat="38.1436" lon="-2.68517">
        <ele>1427.1</ele>
        <time>2021-07-19T16:46:11Z</time>
      </trkpt>
      <trkpt lat="38.14159" lon="-2.68629">
        <ele>1441.124</ele>
        <time>2021-07-19T16:46:22Z</time>
      </trkpt>
      <trkpt lat="38.13999" lon="-2.68671">
        <ele>1447.826</ele>
        <time>2021-07-19T16:46:33Z</time>
      </trkpt>
      <trkpt lat="38.13967" lon="-2.68711">
        <ele>1451.206</ele>
        <time>2021-07-19T16:46:44Z</time>
      </trkpt>
      <trkpt lat="38.14024" lon="-2.68644">
        <ele>1451.606</ele>
        <time>2021-07-19T16:46:55Z</time>
      </trkpt>
      <trkpt lat="38.14059" lon="-2.68492">
        <ele>1454.966</ele>
        <time>2021-07-19T16:47:06Z</time>
      </trkpt>
      <trkpt lat="38.14173" lon="-2.68337">
        <ele>1462.155</ele>
        <time>2021-07-19T16:47:17Z</time>
      </trkpt>
      <trkpt lat="38.14345" lon="-2.68319">
        <ele>1467.593</ele>
        <time>2021-07-19T16:47:28Z</time>
      </trkpt>
      <trkpt lat="38.14535" lon="-2.68295">
        <ele>1472.188</ele>
        <time>2021-07-19T16:47:39Z</time>
      </trkpt>
      <trkpt lat="38.14738" lon="-2.68251">
        <ele>1485.61</ele>
        <time>2021-07-19T16:47:50Z</time>
      </trkpt>
      <trkpt lat="38.14945" lon="-2.68154">
        <ele>1498.232</ele>
        <time>2021-07-19T16:48:01Z</time>
      </trkpt>
      <trkpt lat="38.15162" lon="-2.68179">
        <ele>1497.909</ele>
        <time>2021-07-19T16:48:12Z</time>
      </trkpt>
      <trkpt lat="38.15366" lon="-2.68136">
        <ele>1491.571</ele>
        <time>2021-07-19T16:48:23Z</time>
      </trkpt>
      <trkpt lat="38.15578" lon="-2.67937">
        <ele>1493.025</ele>
        <time>2021-07-19T16:48:34Z</time>
      </trkpt>
      <trkpt lat="38.15744" lon="-2.67769">
        <ele>1501.551</ele>
        <time>2021-07-19T16:48:45Z</time>
      </trkpt>
      <trkpt lat="38.15944" lon="-2.67738">
        <ele>1492.499</ele>
        <time>2021-07-19T16:48:56Z</time>
      </trkpt>
      <trkpt lat="38.16083" lon="-2.67638">
        <ele>1485.879</ele>
        <time>2021-07-19T16:49:07Z</time>
      </trkpt>
      <trkpt lat="38.16249" lon="-2.676">
        <ele>1481.227</ele>
        <time>2021-07-19T16:49:18Z</time>
      </trkpt>
      <trkpt lat="38.16377" lon="-2.6754">
        <ele>1486.2</ele>
        <time>2021-07-19T16:49:29Z</time>
      </trkpt>
      <trkpt lat="38.1647" lon="-2.67411">
        <ele>1501.946</ele>
        <time>2021-07-19T16:49:40Z</time>
      </trkpt>
      <trkpt lat="38.16552" lon="-2.67297">
        <ele>1507.121</ele>
        <time>2021-07-19T16:49:51Z</time>
      </trkpt>
      <trkpt lat="38.16492" lon="-2.67186">
        <ele>1506.839</ele>
        <time>2021-07-19T16:50:02Z</time>
      </trkpt>
      <trkpt lat="38.16599" lon="-2.67082">
        <ele>1498.832</ele>
        <time>2021-07-19T16:50:13Z</time>
      </trkpt>
      <trkpt lat="38.16798" lon="-2.67072">
        <ele>1490.085</ele>
        <time>2021-07-19T16:50:24Z</time>
      </trkpt>
      <trkpt lat="38.16995" lon="-2.67088">
        <ele>1477.481</ele>
        <time>2021-07-19T16:50:35Z</time>
      </trkpt>
      <trkpt lat="38.17129" lon="-2.67153">
        <ele>1467.738</ele>
        <time>2021-07-19T16:50:46Z</time>
      </trkpt>
      <trkpt lat="38.17282" lon="-2.67122">
        <ele>1472.627</ele>
        <time>2021-07-19T16:50:57Z</time>
      </trkpt>
      <trkpt lat="38.17441" lon="-2.67013">
        <ele>1475.211</ele>
        <time>2021-07-19T16:51:08Z</time>
      </trkpt>
      <trkpt lat="38.17597" lon="-2.67022">
        <ele>1480.283</ele>
        <time>2021-07-19T16:51:19Z</time>
      </trkpt>
      <trkpt lat="38.1777" lon="-2.66863">
        <ele>1491.829</ele>
        <time>2021-07-19T16:51:30Z</time>
      </trkpt>
      <trkpt lat="38.17968" lon="-2.66789">
        <ele>1506.516</ele>
        <time>2021-07-19T16:51:41Z</time>
      </trkpt>
      <trkpt lat="38.18144" lon="-2.6683">
        <ele>1504.448</ele>
        <time>2021-07-19T16:51:52Z</time>
      </trkpt>
      <trkpt lat="38.18236" lon="-2.66935">
        <ele>1503.746</ele>
        <time>2021-07-19T16:52:03Z</time>
      </trkpt>
      <trkpt lat="38.18444" lon="-2.66874">
        <ele>1493.559</ele>
        <time>2021-07-19T16:52:14Z</time>
      </trkpt>
      <trkpt lat="38.18636" lon="-2.66992">
        <ele>1476.892</ele>
        <time>2021-07-19T16:52:25Z</time>
      </trkpt>
      <trkpt lat="38.1886" lon="-2.67092">
        <ele>1478.637</ele>
        <time>2021-07-19T16:52:36Z</time>
      </trkpt>
      <trkpt lat="38.1907" lon="-2.66996">
        <ele>1477.299</ele>
        <time>2021-07-19T16:52:47Z</time>
      </trkpt>
      <trkpt lat="38.19219" lon="-2.6684">
        <ele>1479.598</ele>
        <time>2021-07-19T16:52:58Z</time>
      </trkpt>
      <trkpt lat="38.19413" lon="-2.6671">
        <ele>1477.658</ele>
        <time>2021-07-19T16:53:09Z</time>
      </trkpt>
      <trkpt lat="38.19565" lon="-2.66654">
        <ele>1477.049</ele>
        <time>2021-07-19T16:53:20Z</time>
      </trkpt>
      <trkpt lat="38.19729" lon="-2.66509">
        <ele>1478.845</ele>
        <time>2021-07-19T16:53:31Z</time>
      </trkpt>
      <trkpt lat="38.19893" lon="-2.66566">
        <ele>1467.276</ele>
        <time>2021-07-19T16:53:42Z</time>
      </trkpt>
      <trkpt lat="38.20084" lon="-2.66567">
        <ele>1465.304</ele>
        <time>2021-07-19T16:53:53Z</time>
      </trkpt>
      <trkpt lat="38.20279" lon="-2.66496">
        <ele>1466.816</ele>
        <time>2021-07-19T16:54:04Z</time>
      </trkpt>
      <trkpt lat="38.20393" lon="-2.66298">
        <ele>1483.13</ele>
        <time>2021-07-19T16:54:15Z</time>
      </trkpt>
      <trkpt lat="38.20553" lon="-2.6632">
        <ele>1484.444</ele>
        <time>2021-07-19T16:54:26Z</time>
      </trkpt>
      <trkpt lat="38.20745" lon="-2.66192">
        <ele>1491.719</ele>
        <time>2021-07-19T16:54:37Z</time>
      </trkpt>
      <trkpt lat="38.20981" lon="-2.66154">
        <ele>1486.618</ele>
        <time>2021-07-19T16:54:48Z</time>
      </trkpt>
      <trkpt lat="38.21184" lon="-2.6609">
        <ele>1481.519</ele>
        <time>2021-07-19T16:54:59Z</time>
      </trkpt>
      <trkpt lat="38.21257" lon="-2.65918">
        <ele>1485.273</ele>
        <time>2021-07-19T16:55:10Z</time>
      </trkpt>
      <trkpt lat="38.21371" lon="-2.65773">
        <ele>1486.89</ele>
        <time>2021-07-19T16:55:21Z</time>
      </trkpt>
      <trkpt lat="38.21561" lon="-2.65599">
        <ele>1499.848</ele>
        <time>2021-07-19T16:55:32Z</time>
      </trkpt>
      <trkpt lat="38.21661" lon="-2.65352">
        <ele>1509.911</ele>
        <time>2021-07-19T16:55:43Z</time>
      </trkpt>
      <trkpt lat="38.21789" lon="-2.65359">
        <ele>1522.736</ele>
        <time>2021-07-19T16:55:54Z</time>
      </trkpt>
      <trkpt lat="38.21933" lon="-2.65244">
        <ele>1514.389</ele>
        <time>2021-07-19T16:56:05Z</time>
      </trkpt>
      <trkpt lat="38.22094" lon="-2.65256">
        <ele>1506.481</ele>
        <time>2021-07-19T16:56:16Z</time>
      </trkpt>
      <trkpt lat="38.22279" lon="-2.65235">
        <ele>1494.76</ele>
        <time>2021-07-19T16:56:27Z</time>
      </trkpt>
      <trkpt lat="38.22502" lon="-2.65238">
        <ele>1477.966</ele>
        <time>2021-07-19T16:56:38Z</time>
      </trkpt>
      <trkpt lat="38.22677" lon="-2.65186">
        <ele>1466.806</ele>
        <time>2021-07-19T16:56:49Z</time>
      </trkpt>
      <trkpt lat="38.22869" lon="-2.65157">
        <ele>1460.273</ele>
        <time>2021-07-19T16:57:00Z</time>
      </trkpt>
      <trkpt lat="38.23034" lon="-2.65256">
        <ele>1454.846</ele>
        <time>2021-07-19T16:57:11Z</time>
      </trkpt>
      <trkpt lat="38.23148" lon="-2.65423">
        <ele>1443.514</ele>
        <time>2021-07-19T16:57:22Z</time>
      </trkpt>
      <trkpt lat="38.23265" lon="-2.65484">
        <ele>1434.396</ele>
        <time>2021-07-19T16:57:33Z</time>
      </trkpt>
      <trkpt lat="38.23487" lon="-2.65421">
        <ele>1426.667</ele>
        <time>2021-07-19T16:57:44Z</time>
      </trkpt>
      <trkpt lat="38.23655" lon="-2.65501">
        <ele>1427.483</ele>
        <time>2021-07-19T16:57:55Z</time>
      </trkpt>
      <trkpt lat="38.23777" lon="-2.65553">
        <ele>1438.524</ele>
        <time>2021-07-19T16:58:06Z</time>
      </trkpt>
      <trkpt lat="38.23871" lon="-2.65379">
        <ele>1451.973</ele>
        <time>2021-07-19T16:58:17Z</time>
      </trkpt>
      <trkpt lat="38.24031" lon="-2.65341">
        <ele>1450.639</ele>
        <time>2021-07-19T16:58:28Z</time>
      </trkpt>
      <trkpt lat="38.24165" lon="-2.65246">
        <ele>1448.847</ele>
        <time>2021-07-19T16:58:39Z</time>
      </trkpt>
      <trkpt lat="38.24314" lon="-2.65279">
        <ele>1439.881</ele>
        <time>2021-07-19T16:58:50Z</time>
      </trkpt>
      <trkpt lat="38.24481" lon="-2.65212">
        <ele>1433.872</ele>
        <time>2021-07-19T16:59:01Z</time>
      </trkpt>
      <trkpt lat="38.24641" lon="-2.65067">
        <ele>1428.779</ele>
        <time>2021-07-19T16:59:12Z</time>
      </trkpt>
      <trkpt lat="38.24844" lon="-2.64945">
        <ele>1424.858</ele>
        <time>2021-07-19T16:59:23Z</time>
      </trkpt>
      <trkpt lat="38.2502" lon="-2.64851">
        <ele>1420.779</ele>
        <time>2021-07-19T16:59:34Z</time>
      </trkpt>
      <trkpt lat="38.25231" lon="-2.64708">
        <ele>1419.549</ele>
        <time>2021-07-19T16:59:45Z</time>
      </trkpt>
      <trkpt lat="38.25399" lon="-2.64545">
        <ele>1421.304</ele>
        <time>2021-07-19T16:59:56Z</time>
      </trkpt>
      <trkpt lat="38.25523" lon="-2.64314">
        <ele>1417.275</ele>
        <time>2021-07-19T17:00:07Z</time>
      </trkpt>
      <trkpt lat="38.25627" lon="-2.64064">
        <ele>1410.904</ele>
        <time>2021-07-19T17:00:18Z</time>
      </trkpt>
      <trkpt lat="38.25793" lon="-2.64011">
        <ele>1397.525</ele>
        <time>2021-07-19T17:00:29Z</time>
      </trkpt>
      <trkpt lat="38.2593" lon="-2.63901">
        <ele>1388.403</ele>
        <time>2021-07-19T17:00:40Z</time>
      </trkpt>
      <trkpt lat="38.25901" lon="-2.63731">
        <ele>1384.292</ele>
        <time>2021-07-19T17:00:51Z</time>
      </trkpt>
      <trkpt lat="38.26025" lon="-2.63607">
        <ele>1375.152</ele>
        <time>2021-07-19T17:01:02Z</time>
      </trkpt>
      <trkpt lat="38.26173" lon="-2.63627">
        <ele>1370.858</ele>
        <time>2021-07-19T17:01:13Z</time>
      </trkpt>
      <trkpt lat="38.26281" lon="-2.63452">
        <ele>1362.175</ele>
        <time>2021-07-19T17:01:24Z</time>
      </trkpt>
      <trkpt lat="38.26403" lon="-2.63379">
        <ele>1355.349</ele>
        <time>2021-07-19T17:01:35Z</time>
      </trkpt>
      <trkpt lat="38.26414" lon="-2.6337">
        <ele>1353.37</ele>
        <time>2021-07-19T17:01:47Z</time>
      </trkpt>
      <trkpt lat="38.26414" lon="-2.63368">
        <ele>1356.639</ele>
        <time>2021-07-19T17:02:47Z</time>
      </trkpt>
      <trkpt lat="38.26413" lon="-2.6337">
        <ele>1356.158</ele>
        <time>2021-07-19T17:03:46Z</time>
      </trkpt>
      <trkpt lat="38.26416" lon="-2.63363">
        <ele>1354.155</ele>
        <time>2021-07-19T17:04:36Z</time>
      </trkpt>
      <trkpt lat="38.26363" lon="-2.63272">
        <ele>1345.737</ele>
        <time>2021-07-19T17:04:47Z</time>
      </trkpt>
      <trkpt lat="38.26205" lon="-2.63243">
        <ele>1327.256</ele>
        <time>2021-07-19T17:04:58Z</time>
      </trkpt>
      <trkpt lat="38.26288" lon="-2.63156">
        <ele>1317.543</ele>
        <time>2021-07-19T17:05:09Z</time>
      </trkpt>
      <trkpt lat="38.26506" lon="-2.63009">
        <ele>1313.074</ele>
        <time>2021-07-19T17:05:20Z</time>
      </trkpt>
      <trkpt lat="38.26657" lon="-2.6279">
        <ele>1324.204</ele>
        <time>2021-07-19T17:05:31Z</time>
      </trkpt>
      <trkpt lat="38.26792" lon="-2.62785">
        <ele>1326.473</ele>
        <time>2021-07-19T17:05:42Z</time>
      </trkpt>
      <trkpt lat="38.26946" lon="-2.62789">
        <ele>1345.753</ele>
        <time>2021-07-19T17:05:53Z</time>
      </trkpt>
      <trkpt lat="38.27113" lon="-2.62712">
        <ele>1343.279</ele>
        <time>2021-07-19T17:06:04Z</time>
      </trkpt>
      <trkpt lat="38.2726" lon="-2.62605">
        <ele>1341.516</ele>
        <time>2021-07-19T17:06:15Z</time>
      </trkpt>
      <trkpt lat="38.27425" lon="-2.6244">
        <ele>1337.141</ele>
        <time>2021-07-19T17:06:26Z</time>
      </trkpt>
      <trkpt lat="38.27557" lon="-2.6225">
        <ele>1325.225</ele>
        <time>2021-07-19T17:06:37Z</time>
      </trkpt>
      <trkpt lat="38.27706" lon="-2.62116">
        <ele>1317.276</ele>
        <time>2021-07-19T17:06:48Z</time>
      </trkpt>
      <trkpt lat="38.27844" lon="-2.61955">
        <ele>1293.951</ele>
        <time>2021-07-19T17:06:59Z</time>
      </trkpt>
      <trkpt lat="38.27939" lon="-2.6182">
        <ele>1266.912</ele>
        <time>2021-07-19T17:07:10Z</time>
      </trkpt>
      <trkpt lat="38.28108" lon="-2.61666">
        <ele>1307.552</ele>
        <time>2021-07-19T17:07:21Z</time>
      </trkpt>
      <trkpt lat="38.282" lon="-2.61495">
        <ele>1310.968</ele>
        <time>2021-07-19T17:07:32Z</time>
      </trkpt>
      <trkpt lat="38.28312" lon="-2.61278">
        <ele>1308.441</ele>
        <time>2021-07-19T17:07:43Z</time>
      </trkpt>
      <trkpt lat="38.2841" lon="-2.6106">
        <ele>1307.058</ele>
        <time>2021-07-19T17:07:54Z</time>
      </trkpt>
      <trkpt lat="38.28434" lon="-2.60889">
        <ele>1312.08</ele>
        <time>2021-07-19T17:08:05Z</time>
      </trkpt>
      <trkpt lat="38.28535" lon="-2.60723">
        <ele>1310.031</ele>
        <time>2021-07-19T17:08:16Z</time>
      </trkpt>
      <trkpt lat="38.28699" lon="-2.60635">
        <ele>1315.786</ele>
        <time>2021-07-19T17:08:27Z</time>
      </trkpt>
      <trkpt lat="38.28878" lon="-2.60496">
        <ele>1319.179</ele>
        <time>2021-07-19T17:08:38Z</time>
      </trkpt>
      <trkpt lat="38.28979" lon="-2.60317">
        <ele>1322.699</ele>
        <time>2021-07-19T17:08:49Z</time>
      </trkpt>
      <trkpt lat="38.29092" lon="-2.60231">
        <ele>1322.872</ele>
        <time>2021-07-19T17:09:00Z</time>
      </trkpt>
      <trkpt lat="38.2923" lon="-2.60093">
        <ele>1331.053</ele>
        <time>2021-07-19T17:09:11Z</time>
      </trkpt>
      <trkpt lat="38.29381" lon="-2.59979">
        <ele>1336.655</ele>
        <time>2021-07-19T17:09:22Z</time>
      </trkpt>
      <trkpt lat="38.29531" lon="-2.59756">
        <ele>1345.549</ele>
        <time>2021-07-19T17:09:33Z</time>
      </trkpt>
      <trkpt lat="38.2973" lon="-2.59544">
        <ele>1346.588</ele>
        <time>2021-07-19T17:09:44Z</time>
      </trkpt>
      <trkpt lat="38.29923" lon="-2.59336">
        <ele>1355.507</ele>
        <time>2021-07-19T17:09:55Z</time>
      </trkpt>
      <trkpt lat="38.30062" lon="-2.59161">
        <ele>1356.53</ele>
        <time>2021-07-19T17:10:06Z</time>
      </trkpt>
      <trkpt lat="38.30152" lon="-2.59031">
        <ele>1355.343</ele>
        <time>2021-07-19T17:10:17Z</time>
      </trkpt>
      <trkpt lat="38.303" lon="-2.58918">
        <ele>1358.835</ele>
        <time>2021-07-19T17:10:28Z</time>
      </trkpt>
      <trkpt lat="38.30398" lon="-2.58763">
        <ele>1365.568</ele>
        <time>2021-07-19T17:10:39Z</time>
      </trkpt>
      <trkpt lat="38.3049" lon="-2.58593">
        <ele>1379.817</ele>
        <time>2021-07-19T17:10:50Z</time>
      </trkpt>
      <trkpt lat="38.30602" lon="-2.58467">
        <ele>1379.418</ele>
        <time>2021-07-19T17:11:01Z</time>
      </trkpt>
      <trkpt lat="38.3071" lon="-2.58308">
        <ele>1365.828</ele>
        <time>2021-07-19T17:11:12Z</time>
      </trkpt>
      <trkpt lat="38.30861" lon="-2.58263">
        <ele>1358.069</ele>
        <time>2021-07-19T17:11:23Z</time>
      </trkpt>
      <trkpt lat="38.3103" lon="-2.58236">
        <ele>1338.949</ele>
        <time>2021-07-19T17:11:34Z</time>
      </trkpt>
      <trkpt lat="38.31221" lon="-2.58175">
        <ele>1343.984</ele>
        <time>2021-07-19T17:11:45Z</time>
      </trkpt>
      <trkpt lat="38.31282" lon="-2.58041">
        <ele>1339.566</ele>
        <time>2021-07-19T17:11:56Z</time>
      </trkpt>
      <trkpt lat="38.31294" lon="-2.57822">
        <ele>1345.862</ele>
        <time>2021-07-19T17:12:07Z</time>
      </trkpt>
      <trkpt lat="38.31432" lon="-2.57674">
        <ele>1345.008</ele>
        <time>2021-07-19T17:12:18Z</time>
      </trkpt>
      <trkpt lat="38.31638" lon="-2.57582">
        <ele>1337.191</ele>
        <time>2021-07-19T17:12:29Z</time>
      </trkpt>
      <trkpt lat="38.31813" lon="-2.57535">
        <ele>1331.393</ele>
        <time>2021-07-19T17:12:40Z</time>
      </trkpt>
      <trkpt lat="38.31975" lon="-2.57442">
        <ele>1322.105</ele>
        <time>2021-07-19T17:12:51Z</time>
      </trkpt>
      <trkpt lat="38.3201" lon="-2.57523">
        <ele>1315.354</ele>
        <time>2021-07-19T17:13:02Z</time>
      </trkpt>
      <trkpt lat="38.31914" lon="-2.5765">
        <ele>1311.448</ele>
        <time>2021-07-19T17:13:13Z</time>
      </trkpt>
      <trkpt lat="38.31924" lon="-2.57776">
        <ele>1310.523</ele>
        <time>2021-07-19T17:13:24Z</time>
      </trkpt>
      <trkpt lat="38.32052" lon="-2.57693">
        <ele>1297.59</ele>
        <time>2021-07-19T17:13:35Z</time>
      </trkpt>
      <trkpt lat="38.32237" lon="-2.57661">
        <ele>1277.243</ele>
        <time>2021-07-19T17:13:46Z</time>
      </trkpt>
      <trkpt lat="38.32421" lon="-2.57558">
        <ele>1280.332</ele>
        <time>2021-07-19T17:13:57Z</time>
      </trkpt>
      <trkpt lat="38.32568" lon="-2.57504">
        <ele>1277.286</ele>
        <time>2021-07-19T17:14:08Z</time>
      </trkpt>
      <trkpt lat="38.32696" lon="-2.57444">
        <ele>1282.179</ele>
        <time>2021-07-19T17:14:19Z</time>
      </trkpt>
      <trkpt lat="38.32809" lon="-2.57368">
        <ele>1280.959</ele>
        <time>2021-07-19T17:14:30Z</time>
      </trkpt>
      <trkpt lat="38.32913" lon="-2.57478">
        <ele>1288.241</ele>
        <time>2021-07-19T17:14:41Z</time>
      </trkpt>
      <trkpt lat="38.32948" lon="-2.57352">
        <ele>1293.524</ele>
        <time>2021-07-19T17:14:52Z</time>
      </trkpt>
      <trkpt lat="38.32886" lon="-2.57279">
        <ele>1301.446</ele>
        <time>2021-07-19T17:15:03Z</time>
      </trkpt>
      <trkpt lat="38.32964" lon="-2.57216">
        <ele>1302.781</ele>
        <time>2021-07-19T17:15:14Z</time>
      </trkpt>
      <trkpt lat="38.32888" lon="-2.57071">
        <ele>1313.554</ele>
        <time>2021-07-19T17:15:25Z</time>
      </trkpt>
      <trkpt lat="38.32919" lon="-2.57041">
        <ele>1326.235</ele>
        <time>2021-07-19T17:15:36Z</time>
      </trkpt>
      <trkpt lat="38.33027" lon="-2.5715">
        <ele>1333.01</ele>
        <time>2021-07-19T17:15:47Z</time>
      </trkpt>
      <trkpt lat="38.3319" lon="-2.57172">
        <ele>1328.69</ele>
        <time>2021-07-19T17:15:58Z</time>
      </trkpt>
      <trkpt lat="38.33339" lon="-2.57073">
        <ele>1310.785</ele>
        <time>2021-07-19T17:16:09Z</time>
      </trkpt>
      <trkpt lat="38.3349" lon="-2.56972">
        <ele>1308.892</ele>
        <time>2021-07-19T17:16:20Z</time>
      </trkpt>
      <trkpt lat="38.33635" lon="-2.56928">
        <ele>1299.485</ele>
        <time>2021-07-19T17:16:31Z</time>
      </trkpt>
      <trkpt lat="38.33759" lon="-2.57081">
        <ele>1296.062</ele>
        <time>2021-07-19T17:16:42Z</time>
      </trkpt>
      <trkpt lat="38.33897" lon="-2.57023">
        <ele>1274.208</ele>
        <time>2021-07-19T17:16:53Z</time>
      </trkpt>
      <trkpt lat="38.33992" lon="-2.56856">
        <ele>1264.129</ele>
        <time>2021-07-19T17:17:04Z</time>
      </trkpt>
      <trkpt lat="38.34017" lon="-2.56667">
        <ele>1254.419</ele>
        <time>2021-07-19T17:17:15Z</time>
      </trkpt>
      <trkpt lat="38.33992" lon="-2.56517">
        <ele>1249.917</ele>
        <time>2021-07-19T17:17:26Z</time>
      </trkpt>
      <trkpt lat="38.33961" lon="-2.56447">
        <ele>1242.164</ele>
        <time>2021-07-19T17:17:37Z</time>
      </trkpt>
      <trkpt lat="38.3407" lon="-2.565">
        <ele>1234.272</ele>
        <time>2021-07-19T17:17:48Z</time>
      </trkpt>
      <trkpt lat="38.34198" lon="-2.56476">
        <ele>1222.565</ele>
        <time>2021-07-19T17:17:59Z</time>
      </trkpt>
      <trkpt lat="38.34129" lon="-2.5637">
        <ele>1212.779</ele>
        <time>2021-07-19T17:18:10Z</time>
      </trkpt>
      <trkpt lat="38.34046" lon="-2.56312">
        <ele>1200.786</ele>
        <time>2021-07-19T17:18:21Z</time>
      </trkpt>
      <trkpt lat="38.34158" lon="-2.5632">
        <ele>1189.278</ele>
        <time>2021-07-19T17:18:32Z</time>
      </trkpt>
      <trkpt lat="38.343" lon="-2.56401">
        <ele>1180.164</ele>
        <time>2021-07-19T17:18:43Z</time>
      </trkpt>
      <trkpt lat="38.34316" lon="-2.56562">
        <ele>1173.899</ele>
        <time>2021-07-19T17:18:54Z</time>
      </trkpt>
      <trkpt lat="38.34296" lon="-2.56645">
        <ele>1175.799</ele>
        <time>2021-07-19T17:19:05Z</time>
      </trkpt>
      <trkpt lat="38.34233" lon="-2.5681">
        <ele>1168.606</ele>
        <time>2021-07-19T17:19:16Z</time>
      </trkpt>
      <trkpt lat="38.3428" lon="-2.56923">
        <ele>1162.788</ele>
        <time>2021-07-19T17:19:27Z</time>
      </trkpt>
      <trkpt lat="38.34338" lon="-2.57111">
        <ele>1149.949</ele>
        <time>2021-07-19T17:19:38Z</time>
      </trkpt>
      <trkpt lat="38.34341" lon="-2.57297">
        <ele>1134.778</ele>
        <time>2021-07-19T17:19:49Z</time>
      </trkpt>
      <trkpt lat="38.34357" lon="-2.57446">
        <ele>1124.522</ele>
        <time>2021-07-19T17:20:00Z</time>
      </trkpt>
      <trkpt lat="38.34467" lon="-2.57469">
        <ele>1115.827</ele>
        <time>2021-07-19T17:20:11Z</time>
      </trkpt>
      <trkpt lat="38.34595" lon="-2.57508">
        <ele>1104.269</ele>
        <time>2021-07-19T17:20:22Z</time>
      </trkpt>
      <trkpt lat="38.34701" lon="-2.57595">
        <ele>1097.711</ele>
        <time>2021-07-19T17:20:33Z</time>
      </trkpt>
      <trkpt lat="38.34821" lon="-2.57663">
        <ele>1087.946</ele>
        <time>2021-07-19T17:20:44Z</time>
      </trkpt>
      <trkpt lat="38.34855" lon="-2.57829">
        <ele>1071.456</ele>
        <time>2021-07-19T17:20:55Z</time>
      </trkpt>
      <trkpt lat="38.3489" lon="-2.57981">
        <ele>1061.103</ele>
        <time>2021-07-19T17:21:06Z</time>
      </trkpt>
      <trkpt lat="38.34942" lon="-2.58177">
        <ele>1048.202</ele>
        <time>2021-07-19T17:21:17Z</time>
      </trkpt>
      <trkpt lat="38.34959" lon="-2.58303">
        <ele>1035.233</ele>
        <time>2021-07-19T17:21:28Z</time>
      </trkpt>
      <trkpt lat="38.35097" lon="-2.58373">
        <ele>1021.481</ele>
        <time>2021-07-19T17:21:39Z</time>
      </trkpt>
      <trkpt lat="38.35267" lon="-2.58465">
        <ele>1000.849</ele>
        <time>2021-07-19T17:21:50Z</time>
      </trkpt>
      <trkpt lat="38.35246" lon="-2.58357">
        <ele>998.7801</ele>
        <time>2021-07-19T17:22:01Z</time>
      </trkpt>
      <trkpt lat="38.35267" lon="-2.58303">
        <ele>990.7615</ele>
        <time>2021-07-19T17:22:12Z</time>
      </trkpt>
      <trkpt lat="38.35373" lon="-2.58359">
        <ele>974.3998</ele>
        <time>2021-07-19T17:22:23Z</time>
      </trkpt>
      <trkpt lat="38.35386" lon="-2.58467">
        <ele>965.8991</ele>
        <time>2021-07-19T17:22:34Z</time>
      </trkpt>
      <trkpt lat="38.35508" lon="-2.58357">
        <ele>951.6891</ele>
        <time>2021-07-19T17:22:45Z</time>
      </trkpt>
      <trkpt lat="38.35666" lon="-2.58301">
        <ele>934.8359</ele>
        <time>2021-07-19T17:22:56Z</time>
      </trkpt>
      <trkpt lat="38.35804" lon="-2.58293">
        <ele>919.0599</ele>
        <time>2021-07-19T17:23:07Z</time>
      </trkpt>
      <trkpt lat="38.35945" lon="-2.58284">
        <ele>896.9904</ele>
        <time>2021-07-19T17:23:18Z</time>
      </trkpt>
      <trkpt lat="38.36071" lon="-2.58287">
        <ele>882.0358</ele>
        <time>2021-07-19T17:23:29Z</time>
      </trkpt>
      <trkpt lat="38.35961" lon="-2.58224">
        <ele>878.8295</ele>
        <time>2021-07-19T17:23:40Z</time>
      </trkpt>
      <trkpt lat="38.36059" lon="-2.58202">
        <ele>863.2967</ele>
        <time>2021-07-19T17:23:51Z</time>
      </trkpt>
      <trkpt lat="38.35997" lon="-2.58158">
        <ele>860.2449</ele>
        <time>2021-07-19T17:24:02Z</time>
      </trkpt>
      <trkpt lat="38.36075" lon="-2.58098">
        <ele>857.9994</ele>
        <time>2021-07-19T17:24:13Z</time>
      </trkpt>
      <trkpt lat="38.36203" lon="-2.58103">
        <ele>837.6723</ele>
        <time>2021-07-19T17:24:24Z</time>
      </trkpt>
      <trkpt lat="38.36304" lon="-2.5809">
        <ele>827.4996</ele>
        <time>2021-07-19T17:24:35Z</time>
      </trkpt>
      <trkpt lat="38.36453" lon="-2.58018">
        <ele>810.5076</ele>
        <time>2021-07-19T17:24:46Z</time>
      </trkpt>
      <trkpt lat="38.36648" lon="-2.57971">
        <ele>800.6923</ele>
        <time>2021-07-19T17:24:57Z</time>
      </trkpt>
      <trkpt lat="38.36768" lon="-2.5793">
        <ele>794.0861</ele>
        <time>2021-07-19T17:25:08Z</time>
      </trkpt>
      <trkpt lat="38.36906" lon="-2.57878">
        <ele>781.9648</ele>
        <time>2021-07-19T17:25:19Z</time>
      </trkpt>
      <trkpt lat="38.3701" lon="-2.5784">
        <ele>778.2763</ele>
        <time>2021-07-19T17:25:30Z</time>
      </trkpt>
      <trkpt lat="38.37117" lon="-2.57833">
        <ele>781.7286</ele>
        <time>2021-07-19T17:25:41Z</time>
      </trkpt>
      <trkpt lat="38.37237" lon="-2.57892">
        <ele>784.349</ele>
        <time>2021-07-19T17:25:52Z</time>
      </trkpt>
      <trkpt lat="38.37374" lon="-2.57986">
        <ele>782.3502</ele>
        <time>2021-07-19T17:26:03Z</time>
      </trkpt>
      <trkpt lat="38.37523" lon="-2.58004">
        <ele>774.9854</ele>
        <time>2021-07-19T17:26:14Z</time>
      </trkpt>
      <trkpt lat="38.37623" lon="-2.58073">
        <ele>772.159</ele>
        <time>2021-07-19T17:26:25Z</time>
      </trkpt>
      <trkpt lat="38.37748" lon="-2.5814">
        <ele>764.3774</ele>
        <time>2021-07-19T17:26:36Z</time>
      </trkpt>
      <trkpt lat="38.37826" lon="-2.58284">
        <ele>760.5372</ele>
        <time>2021-07-19T17:26:47Z</time>
      </trkpt>
      <trkpt lat="38.37914" lon="-2.58473">
        <ele>756.8048</ele>
        <time>2021-07-19T17:26:58Z</time>
      </trkpt>
      <trkpt lat="38.37994" lon="-2.58601">
        <ele>749.1434</ele>
        <time>2021-07-19T17:27:09Z</time>
      </trkpt>
      <trkpt lat="38.38079" lon="-2.58713">
        <ele>745.397</ele>
        <time>2021-07-19T17:27:20Z</time>
      </trkpt>
      <trkpt lat="38.38167" lon="-2.58847">
        <ele>750.7238</ele>
        <time>2021-07-19T17:27:31Z</time>
      </trkpt>
      <trkpt lat="38.3827" lon="-2.58958">
        <ele>754.0901</ele>
        <time>2021-07-19T17:27:42Z</time>
      </trkpt>
      <trkpt lat="38.38319" lon="-2.58977">
        <ele>752.6542</ele>
        <time>2021-07-19T17:27:53Z</time>
      </trkpt>
      <trkpt lat="38.38323" lon="-2.58978">
        <ele>757.7738</ele>
        <time>2021-07-19T17:28:07Z</time>
      </trkpt>
      <trkpt lat="38.38433" lon="-2.58939">
        <ele>770.7355</ele>
        <time>2021-07-19T17:28:18Z</time>
      </trkpt>
      <trkpt lat="38.38473" lon="-2.58749">
        <ele>782.5899</ele>
        <time>2021-07-19T17:28:29Z</time>
      </trkpt>
      <trkpt lat="38.38507" lon="-2.5861">
        <ele>788.7068</ele>
        <time>2021-07-19T17:28:40Z</time>
      </trkpt>
      <trkpt lat="38.38521" lon="-2.58603">
        <ele>787.6687</ele>
        <time>2021-07-19T17:28:51Z</time>
      </trkpt>
      <trkpt lat="38.38515" lon="-2.58607">
        <ele>787.8015</ele>
        <time>2021-07-19T17:29:02Z</time>
      </trkpt>
      <trkpt lat="38.38513" lon="-2.58605">
        <ele>781.9377</ele>
        <time>2021-07-19T17:30:02Z</time>
      </trkpt>
      <trkpt lat="38.38511" lon="-2.58612">
        <ele>787.1608</ele>
        <time>2021-07-19T17:30:13Z</time>
      </trkpt>
      <trkpt lat="38.38511" lon="-2.58613">
        <ele>787.4592</ele>
        <time>2021-07-19T17:31:13Z</time>
      </trkpt>
      <trkpt lat="38.38503" lon="-2.58615">
        <ele>795.6542</ele>
        <time>2021-07-19T17:31:52Z</time>
      </trkpt>
      <trkpt lat="38.38505" lon="-2.5862">
        <ele>800.8943</ele>
        <time>2021-07-19T17:32:10Z</time>
      </trkpt>
      <trkpt lat="38.38507" lon="-2.58625">
        <ele>804.2085</ele>
        <time>2021-07-19T17:32:21Z</time>
      </trkpt>
      <trkpt lat="38.38516" lon="-2.58625">
        <ele>802.9795</ele>
        <time>2021-07-19T17:32:32Z</time>
      </trkpt>
      <trkpt lat="38.38513" lon="-2.58622">
        <ele>801.3215</ele>
        <time>2021-07-19T17:32:45Z</time>
      </trkpt>
      <trkpt lat="38.38508" lon="-2.58622">
        <ele>808.9346</ele>
        <time>2021-07-19T17:33:03Z</time>
      </trkpt>
      <trkpt lat="38.38504" lon="-2.58617">
        <ele>815.6861</ele>
        <time>2021-07-19T17:33:24Z</time>
      </trkpt>
      <trkpt lat="38.38513" lon="-2.58628">
        <ele>811.1126</ele>
        <time>2021-07-19T17:33:35Z</time>
      </trkpt>
      <trkpt lat="38.38515" lon="-2.5863">
        <ele>802.1244</ele>
        <time>2021-07-19T17:34:35Z</time>
      </trkpt>
      <trkpt lat="38.38515" lon="-2.5863">
        <ele>802.1244</ele>
        <time>2021-07-19T17:35:35Z</time>
      </trkpt>
      <trkpt lat="38.38515" lon="-2.5863">
        <ele>802.1244</ele>
        <time>2021-07-19T17:36:35Z</time>
      </trkpt>
      <trkpt lat="38.38515" lon="-2.5863">
        <ele>802.1244</ele>
        <time>2021-07-19T17:37:35Z</time>
      </trkpt>
      <trkpt lat="38.38515" lon="-2.5863">
        <ele>802.1244</ele>
        <time>2021-07-19T17:38:35Z</time>
      </trkpt>
      <trkpt lat="38.38515" lon="-2.5863">
        <ele>802.1244</ele>
        <time>2021-07-19T17:39:35Z</time>
      </trkpt>
      <trkpt lat="38.38518" lon="-2.58628">
        <ele>795.2122</ele>
        <time>2021-07-19T17:39:59Z</time>
      </trkpt>
      <trkpt lat="38.38515" lon="-2.58631">
        <ele>795.5268</ele>
        <time>2021-07-19T17:40:47Z</time>
      </trkpt>
      <trkpt lat="38.38517" lon="-2.58636">
        <ele>789.034</ele>
        <time>2021-07-19T17:40:58Z</time>
      </trkpt>
      <trkpt lat="38.38515" lon="-2.5864">
        <ele>791.4984</ele>
        <time>2021-07-19T17:41:22Z</time>
      </trkpt>
      <trkpt lat="38.38529" lon="-2.5853">
        <ele>791.8275</ele>
        <time>2021-07-19T17:41:33Z</time>
      </trkpt>
      <trkpt lat="38.38603" lon="-2.58428">
        <ele>800.5593</ele>
        <time>2021-07-19T17:41:44Z</time>
      </trkpt>
      <trkpt lat="38.38704" lon="-2.58473">
        <ele>808.0214</ele>
        <time>2021-07-19T17:41:55Z</time>
      </trkpt>
      <trkpt lat="38.38802" lon="-2.58468">
        <ele>814.1715</ele>
        <time>2021-07-19T17:42:06Z</time>
      </trkpt>
      <trkpt lat="38.38871" lon="-2.58482">
        <ele>817.6243</ele>
        <time>2021-07-19T17:42:17Z</time>
      </trkpt>
      <trkpt lat="38.38948" lon="-2.58465">
        <ele>825.5775</ele>
        <time>2021-07-19T17:42:28Z</time>
      </trkpt>
      <trkpt lat="38.38989" lon="-2.58427">
        <ele>831.1896</ele>
        <time>2021-07-19T17:42:39Z</time>
      </trkpt>
      <trkpt lat="38.39058" lon="-2.58346">
        <ele>831.1993</ele>
        <time>2021-07-19T17:42:50Z</time>
      </trkpt>
      <trkpt lat="38.39185" lon="-2.58266">
        <ele>836.414</ele>
        <time>2021-07-19T17:43:01Z</time>
      </trkpt>
      <trkpt lat="38.39355" lon="-2.58138">
        <ele>834.137</ele>
        <time>2021-07-19T17:43:12Z</time>
      </trkpt>
      <trkpt lat="38.39572" lon="-2.57949">
        <ele>834.8257</ele>
        <time>2021-07-19T17:43:23Z</time>
      </trkpt>
      <trkpt lat="38.39699" lon="-2.57672">
        <ele>834.2764</ele>
        <time>2021-07-19T17:43:34Z</time>
      </trkpt>
      <trkpt lat="38.39829" lon="-2.5739">
        <ele>829.304</ele>
        <time>2021-07-19T17:43:45Z</time>
      </trkpt>
      <trkpt lat="38.39727" lon="-2.57091">
        <ele>818.9855</ele>
        <time>2021-07-19T17:43:56Z</time>
      </trkpt>
      <trkpt lat="38.39675" lon="-2.56864">
        <ele>811.5818</ele>
        <time>2021-07-19T17:44:07Z</time>
      </trkpt>
      <trkpt lat="38.39757" lon="-2.5655">
        <ele>802.0095</ele>
        <time>2021-07-19T17:44:18Z</time>
      </trkpt>
      <trkpt lat="38.39793" lon="-2.56207">
        <ele>797.0983</ele>
        <time>2021-07-19T17:44:29Z</time>
      </trkpt>
      <trkpt lat="38.39833" lon="-2.55963">
        <ele>795.2858</ele>
        <time>2021-07-19T17:44:40Z</time>
      </trkpt>
      <trkpt lat="38.39884" lon="-2.55644">
        <ele>789.4188</ele>
        <time>2021-07-19T17:44:51Z</time>
      </trkpt>
      <trkpt lat="38.39992" lon="-2.55343">
        <ele>799.2626</ele>
        <time>2021-07-19T17:45:02Z</time>
      </trkpt>
      <trkpt lat="38.40197" lon="-2.55139">
        <ele>808.1667</ele>
        <time>2021-07-19T17:45:13Z</time>
      </trkpt>
      <trkpt lat="38.40408" lon="-2.55001">
        <ele>806.8438</ele>
        <time>2021-07-19T17:45:24Z</time>
      </trkpt>
      <trkpt lat="38.40627" lon="-2.5506">
        <ele>791.6814</ele>
        <time>2021-07-19T17:45:35Z</time>
      </trkpt>
      <trkpt lat="38.40847" lon="-2.5507">
        <ele>776.8727</ele>
        <time>2021-07-19T17:45:46Z</time>
      </trkpt>
      <trkpt lat="38.40914" lon="-2.54833">
        <ele>760.9979</ele>
        <time>2021-07-19T17:45:57Z</time>
      </trkpt>
      <trkpt lat="38.41123" lon="-2.54711">
        <ele>748.9284</ele>
        <time>2021-07-19T17:46:08Z</time>
      </trkpt>
      <trkpt lat="38.41404" lon="-2.54687">
        <ele>739.9642</ele>
        <time>2021-07-19T17:46:19Z</time>
      </trkpt>
      <trkpt lat="38.41648" lon="-2.5462">
        <ele>732.6561</ele>
        <time>2021-07-19T17:46:30Z</time>
      </trkpt>
      <trkpt lat="38.41882" lon="-2.54503">
        <ele>733.1335</ele>
        <time>2021-07-19T17:46:41Z</time>
      </trkpt>
      <trkpt lat="38.42076" lon="-2.54259">
        <ele>734.2783</ele>
        <time>2021-07-19T17:46:52Z</time>
      </trkpt>
      <trkpt lat="38.42261" lon="-2.54135">
        <ele>732.927</ele>
        <time>2021-07-19T17:47:03Z</time>
      </trkpt>
      <trkpt lat="38.42394" lon="-2.53912">
        <ele>741.3781</ele>
        <time>2021-07-19T17:47:14Z</time>
      </trkpt>
      <trkpt lat="38.42508" lon="-2.53613">
        <ele>751.4226</ele>
        <time>2021-07-19T17:47:25Z</time>
      </trkpt>
      <trkpt lat="38.42666" lon="-2.53339">
        <ele>756.5069</ele>
        <time>2021-07-19T17:47:36Z</time>
      </trkpt>
      <trkpt lat="38.42844" lon="-2.53171">
        <ele>757.6311</ele>
        <time>2021-07-19T17:47:47Z</time>
      </trkpt>
      <trkpt lat="38.43039" lon="-2.5302">
        <ele>749.8845</ele>
        <time>2021-07-19T17:47:58Z</time>
      </trkpt>
      <trkpt lat="38.43189" lon="-2.52823">
        <ele>745.8234</ele>
        <time>2021-07-19T17:48:09Z</time>
      </trkpt>
      <trkpt lat="38.43346" lon="-2.52616">
        <ele>749.9441</ele>
        <time>2021-07-19T17:48:20Z</time>
      </trkpt>
      <trkpt lat="38.4351" lon="-2.524">
        <ele>758.1586</ele>
        <time>2021-07-19T17:48:31Z</time>
      </trkpt>
      <trkpt lat="38.43683" lon="-2.5217">
        <ele>769.3426</ele>
        <time>2021-07-19T17:48:42Z</time>
      </trkpt>
      <trkpt lat="38.43888" lon="-2.51966">
        <ele>779.4551</ele>
        <time>2021-07-19T17:48:53Z</time>
      </trkpt>
      <trkpt lat="38.44078" lon="-2.51778">
        <ele>788.621</ele>
        <time>2021-07-19T17:49:04Z</time>
      </trkpt>
      <trkpt lat="38.44325" lon="-2.51719">
        <ele>794.6851</ele>
        <time>2021-07-19T17:49:15Z</time>
      </trkpt>
      <trkpt lat="38.44533" lon="-2.51537">
        <ele>804.4365</ele>
        <time>2021-07-19T17:49:26Z</time>
      </trkpt>
      <trkpt lat="38.44679" lon="-2.51272">
        <ele>821.5092</ele>
        <time>2021-07-19T17:49:37Z</time>
      </trkpt>
      <trkpt lat="38.44713" lon="-2.50979">
        <ele>831.5217</ele>
        <time>2021-07-19T17:49:48Z</time>
      </trkpt>
      <trkpt lat="38.44738" lon="-2.50748">
        <ele>838.0444</ele>
        <time>2021-07-19T17:49:59Z</time>
      </trkpt>
      <trkpt lat="38.44706" lon="-2.5048">
        <ele>852.8078</ele>
        <time>2021-07-19T17:50:10Z</time>
      </trkpt>
      <trkpt lat="38.44511" lon="-2.50265">
        <ele>868.3267</ele>
        <time>2021-07-19T17:50:21Z</time>
      </trkpt>
      <trkpt lat="38.44378" lon="-2.50048">
        <ele>878.1468</ele>
        <time>2021-07-19T17:50:32Z</time>
      </trkpt>
      <trkpt lat="38.44293" lon="-2.49858">
        <ele>887.3457</ele>
        <time>2021-07-19T17:50:43Z</time>
      </trkpt>
      <trkpt lat="38.44316" lon="-2.49585">
        <ele>904.6043</ele>
        <time>2021-07-19T17:50:54Z</time>
      </trkpt>
      <trkpt lat="38.44414" lon="-2.49285">
        <ele>915.3793</ele>
        <time>2021-07-19T17:51:05Z</time>
      </trkpt>
      <trkpt lat="38.44519" lon="-2.48954">
        <ele>934.2321</ele>
        <time>2021-07-19T17:51:16Z</time>
      </trkpt>
      <trkpt lat="38.4466" lon="-2.48675">
        <ele>943.3009</ele>
        <time>2021-07-19T17:51:27Z</time>
      </trkpt>
      <trkpt lat="38.44776" lon="-2.48472">
        <ele>954.4354</ele>
        <time>2021-07-19T17:51:38Z</time>
      </trkpt>
      <trkpt lat="38.4488" lon="-2.48234">
        <ele>968.4038</ele>
        <time>2021-07-19T17:51:49Z</time>
      </trkpt>
      <trkpt lat="38.44962" lon="-2.47978">
        <ele>978.7377</ele>
        <time>2021-07-19T17:52:00Z</time>
      </trkpt>
      <trkpt lat="38.45026" lon="-2.47649">
        <ele>992.2962</ele>
        <time>2021-07-19T17:52:11Z</time>
      </trkpt>
      <trkpt lat="38.45065" lon="-2.47353">
        <ele>1003.853</ele>
        <time>2021-07-19T17:52:22Z</time>
      </trkpt>
      <trkpt lat="38.45139" lon="-2.47182">
        <ele>1009.277</ele>
        <time>2021-07-19T17:52:33Z</time>
      </trkpt>
      <trkpt lat="38.45219" lon="-2.47085">
        <ele>1016.411</ele>
        <time>2021-07-19T17:52:44Z</time>
      </trkpt>
      <trkpt lat="38.45224" lon="-2.4691">
        <ele>1023.84</ele>
        <time>2021-07-19T17:52:55Z</time>
      </trkpt>
      <trkpt lat="38.45143" lon="-2.46783">
        <ele>1025.944</ele>
        <time>2021-07-19T17:53:06Z</time>
      </trkpt>
      <trkpt lat="38.45267" lon="-2.46769">
        <ele>1031.224</ele>
        <time>2021-07-19T17:53:17Z</time>
      </trkpt>
      <trkpt lat="38.45419" lon="-2.46732">
        <ele>1041.354</ele>
        <time>2021-07-19T17:53:28Z</time>
      </trkpt>
      <trkpt lat="38.45604" lon="-2.46669">
        <ele>1042.136</ele>
        <time>2021-07-19T17:53:39Z</time>
      </trkpt>
      <trkpt lat="38.45815" lon="-2.46688">
        <ele>1045.457</ele>
        <time>2021-07-19T17:53:50Z</time>
      </trkpt>
      <trkpt lat="38.46014" lon="-2.46559">
        <ele>1060.529</ele>
        <time>2021-07-19T17:54:01Z</time>
      </trkpt>
      <trkpt lat="38.46269" lon="-2.46432">
        <ele>1076.556</ele>
        <time>2021-07-19T17:54:12Z</time>
      </trkpt>
      <trkpt lat="38.46454" lon="-2.46238">
        <ele>1097.334</ele>
        <time>2021-07-19T17:54:23Z</time>
      </trkpt>
      <trkpt lat="38.46627" lon="-2.45977">
        <ele>1121.854</ele>
        <time>2021-07-19T17:54:34Z</time>
      </trkpt>
      <trkpt lat="38.46747" lon="-2.45772">
        <ele>1135.637</ele>
        <time>2021-07-19T17:54:45Z</time>
      </trkpt>
      <trkpt lat="38.46798" lon="-2.45621">
        <ele>1141.563</ele>
        <time>2021-07-19T17:54:56Z</time>
      </trkpt>
      <trkpt lat="38.46872" lon="-2.45453">
        <ele>1136.389</ele>
        <time>2021-07-19T17:55:07Z</time>
      </trkpt>
      <trkpt lat="38.47005" lon="-2.4515">
        <ele>1124.007</ele>
        <time>2021-07-19T17:55:18Z</time>
      </trkpt>
      <trkpt lat="38.47136" lon="-2.44803">
        <ele>1112.82</ele>
        <time>2021-07-19T17:55:29Z</time>
      </trkpt>
      <trkpt lat="38.47337" lon="-2.44619">
        <ele>1097.618</ele>
        <time>2021-07-19T17:55:40Z</time>
      </trkpt>
      <trkpt lat="38.47607" lon="-2.44555">
        <ele>1076.076</ele>
        <time>2021-07-19T17:55:51Z</time>
      </trkpt>
      <trkpt lat="38.47668" lon="-2.44291">
        <ele>1064.732</ele>
        <time>2021-07-19T17:56:02Z</time>
      </trkpt>
      <trkpt lat="38.47769" lon="-2.43917">
        <ele>1051.017</ele>
        <time>2021-07-19T17:56:13Z</time>
      </trkpt>
      <trkpt lat="38.47902" lon="-2.43606">
        <ele>1044.788</ele>
        <time>2021-07-19T17:56:24Z</time>
      </trkpt>
      <trkpt lat="38.4804" lon="-2.43315">
        <ele>1036.872</ele>
        <time>2021-07-19T17:56:35Z</time>
      </trkpt>
      <trkpt lat="38.48124" lon="-2.43001">
        <ele>1031.608</ele>
        <time>2021-07-19T17:56:46Z</time>
      </trkpt>
      <trkpt lat="38.48234" lon="-2.42712">
        <ele>1024.738</ele>
        <time>2021-07-19T17:56:57Z</time>
      </trkpt>
      <trkpt lat="38.48395" lon="-2.42468">
        <ele>1020.446</ele>
        <time>2021-07-19T17:57:08Z</time>
      </trkpt>
      <trkpt lat="38.48352" lon="-2.42284">
        <ele>1013.948</ele>
        <time>2021-07-19T17:57:19Z</time>
      </trkpt>
      <trkpt lat="38.48205" lon="-2.42082">
        <ele>1007.365</ele>
        <time>2021-07-19T17:57:30Z</time>
      </trkpt>
      <trkpt lat="38.48289" lon="-2.41854">
        <ele>999.4813</ele>
        <time>2021-07-19T17:57:41Z</time>
      </trkpt>
      <trkpt lat="38.48282" lon="-2.41638">
        <ele>998.213</ele>
        <time>2021-07-19T17:57:52Z</time>
      </trkpt>
      <trkpt lat="38.48283" lon="-2.41444">
        <ele>993.5809</ele>
        <time>2021-07-19T17:58:03Z</time>
      </trkpt>
      <trkpt lat="38.48338" lon="-2.41185">
        <ele>981.4411</ele>
        <time>2021-07-19T17:58:14Z</time>
      </trkpt>
      <trkpt lat="38.48425" lon="-2.40925">
        <ele>971.1381</ele>
        <time>2021-07-19T17:58:25Z</time>
      </trkpt>
      <trkpt lat="38.48639" lon="-2.40834">
        <ele>959.1582</ele>
        <time>2021-07-19T17:58:36Z</time>
      </trkpt>
      <trkpt lat="38.48894" lon="-2.40945">
        <ele>951.7344</ele>
        <time>2021-07-19T17:58:47Z</time>
      </trkpt>
      <trkpt lat="38.4909" lon="-2.41206">
        <ele>947.4919</ele>
        <time>2021-07-19T17:58:58Z</time>
      </trkpt>
      <trkpt lat="38.49273" lon="-2.41211">
        <ele>943.7746</ele>
        <time>2021-07-19T17:59:09Z</time>
      </trkpt>
      <trkpt lat="38.49346" lon="-2.41162">
        <ele>944.5385</ele>
        <time>2021-07-19T17:59:20Z</time>
      </trkpt>
      <trkpt lat="38.49425" lon="-2.41232">
        <ele>951.2532</ele>
        <time>2021-07-19T17:59:31Z</time>
      </trkpt>
      <trkpt lat="38.4952" lon="-2.41469">
        <ele>962.622</ele>
        <time>2021-07-19T17:59:42Z</time>
      </trkpt>
      <trkpt lat="38.49635" lon="-2.41615">
        <ele>971.6856</ele>
        <time>2021-07-19T17:59:53Z</time>
      </trkpt>
      <trkpt lat="38.49746" lon="-2.41673">
        <ele>971.833</ele>
        <time>2021-07-19T18:00:04Z</time>
      </trkpt>
      <trkpt lat="38.49858" lon="-2.41705">
        <ele>975.0777</ele>
        <time>2021-07-19T18:00:15Z</time>
      </trkpt>
      <trkpt lat="38.49908" lon="-2.41746">
        <ele>977.5309</ele>
        <time>2021-07-19T18:00:26Z</time>
      </trkpt>
      <trkpt lat="38.49892" lon="-2.41913">
        <ele>968.9394</ele>
        <time>2021-07-19T18:00:37Z</time>
      </trkpt>
      <trkpt lat="38.4987" lon="-2.42083">
        <ele>966.0776</ele>
        <time>2021-07-19T18:00:48Z</time>
      </trkpt>
      <trkpt lat="38.4982" lon="-2.42253">
        <ele>965.0847</ele>
        <time>2021-07-19T18:00:59Z</time>
      </trkpt>
      <trkpt lat="38.49792" lon="-2.42436">
        <ele>963.1447</ele>
        <time>2021-07-19T18:01:10Z</time>
      </trkpt>
      <trkpt lat="38.49776" lon="-2.42652">
        <ele>966.3695</ele>
        <time>2021-07-19T18:01:21Z</time>
      </trkpt>
      <trkpt lat="38.49804" lon="-2.43001">
        <ele>963.9709</ele>
        <time>2021-07-19T18:01:32Z</time>
      </trkpt>
      <trkpt lat="38.49871" lon="-2.43336">
        <ele>965.6298</ele>
        <time>2021-07-19T18:01:43Z</time>
      </trkpt>
      <trkpt lat="38.49871" lon="-2.43645">
        <ele>968.5758</ele>
        <time>2021-07-19T18:01:54Z</time>
      </trkpt>
      <trkpt lat="38.49847" lon="-2.44017">
        <ele>972.4458</ele>
        <time>2021-07-19T18:02:05Z</time>
      </trkpt>
      <trkpt lat="38.4979" lon="-2.44316">
        <ele>978.3218</ele>
        <time>2021-07-19T18:02:16Z</time>
      </trkpt>
      <trkpt lat="38.49811" lon="-2.44664">
        <ele>989.0617</ele>
        <time>2021-07-19T18:02:27Z</time>
      </trkpt>
      <trkpt lat="38.50002" lon="-2.44924">
        <ele>990.5725</ele>
        <time>2021-07-19T18:02:38Z</time>
      </trkpt>
      <trkpt lat="38.50182" lon="-2.45186">
        <ele>998.8688</ele>
        <time>2021-07-19T18:02:49Z</time>
      </trkpt>
      <trkpt lat="38.50236" lon="-2.45508">
        <ele>1000.178</ele>
        <time>2021-07-19T18:03:00Z</time>
      </trkpt>
      <trkpt lat="38.50262" lon="-2.45813">
        <ele>1015.15</ele>
        <time>2021-07-19T18:03:11Z</time>
      </trkpt>
      <trkpt lat="38.50317" lon="-2.46148">
        <ele>1003.081</ele>
        <time>2021-07-19T18:03:22Z</time>
      </trkpt>
      <trkpt lat="38.50433" lon="-2.46437">
        <ele>1003.47</ele>
        <time>2021-07-19T18:03:33Z</time>
      </trkpt>
      <trkpt lat="38.50503" lon="-2.46751">
        <ele>1005.595</ele>
        <time>2021-07-19T18:03:44Z</time>
      </trkpt>
      <trkpt lat="38.50634" lon="-2.47048">
        <ele>1010.834</ele>
        <time>2021-07-19T18:03:55Z</time>
      </trkpt>
      <trkpt lat="38.50729" lon="-2.47368">
        <ele>1023.655</ele>
        <time>2021-07-19T18:04:06Z</time>
      </trkpt>
      <trkpt lat="38.50738" lon="-2.47715">
        <ele>1031.391</ele>
        <time>2021-07-19T18:04:17Z</time>
      </trkpt>
      <trkpt lat="38.5073" lon="-2.48051">
        <ele>1037.894</ele>
        <time>2021-07-19T18:04:28Z</time>
      </trkpt>
      <trkpt lat="38.50717" lon="-2.48316">
        <ele>1048.171</ele>
        <time>2021-07-19T18:04:39Z</time>
      </trkpt>
      <trkpt lat="38.50695" lon="-2.48534">
        <ele>1054.947</ele>
        <time>2021-07-19T18:04:50Z</time>
      </trkpt>
      <trkpt lat="38.50743" lon="-2.48799">
        <ele>1066.286</ele>
        <time>2021-07-19T18:05:01Z</time>
      </trkpt>
      <trkpt lat="38.50882" lon="-2.48975">
        <ele>1079.562</ele>
        <time>2021-07-19T18:05:12Z</time>
      </trkpt>
      <trkpt lat="38.50899" lon="-2.49136">
        <ele>1088.778</ele>
        <time>2021-07-19T18:05:23Z</time>
      </trkpt>
      <trkpt lat="38.50985" lon="-2.4935">
        <ele>1107.972</ele>
        <time>2021-07-19T18:05:34Z</time>
      </trkpt>
      <trkpt lat="38.51056" lon="-2.49527">
        <ele>1129.771</ele>
        <time>2021-07-19T18:05:45Z</time>
      </trkpt>
      <trkpt lat="38.51122" lon="-2.49705">
        <ele>1146.436</ele>
        <time>2021-07-19T18:05:56Z</time>
      </trkpt>
      <trkpt lat="38.51061" lon="-2.49845">
        <ele>1159.772</ele>
        <time>2021-07-19T18:06:07Z</time>
      </trkpt>
      <trkpt lat="38.5104" lon="-2.50001">
        <ele>1165.623</ele>
        <time>2021-07-19T18:06:18Z</time>
      </trkpt>
      <trkpt lat="38.50964" lon="-2.50019">
        <ele>1178.167</ele>
        <time>2021-07-19T18:06:29Z</time>
      </trkpt>
      <trkpt lat="38.51089" lon="-2.50208">
        <ele>1190.964</ele>
        <time>2021-07-19T18:06:40Z</time>
      </trkpt>
      <trkpt lat="38.51192" lon="-2.50302">
        <ele>1203.476</ele>
        <time>2021-07-19T18:06:51Z</time>
      </trkpt>
      <trkpt lat="38.51355" lon="-2.50494">
        <ele>1226.456</ele>
        <time>2021-07-19T18:07:02Z</time>
      </trkpt>
      <trkpt lat="38.51425" lon="-2.50701">
        <ele>1236.601</ele>
        <time>2021-07-19T18:07:13Z</time>
      </trkpt>
      <trkpt lat="38.51458" lon="-2.5092">
        <ele>1248.636</ele>
        <time>2021-07-19T18:07:24Z</time>
      </trkpt>
      <trkpt lat="38.51544" lon="-2.51141">
        <ele>1263.857</ele>
        <time>2021-07-19T18:07:35Z</time>
      </trkpt>
      <trkpt lat="38.51485" lon="-2.51315">
        <ele>1271.189</ele>
        <time>2021-07-19T18:07:46Z</time>
      </trkpt>
      <trkpt lat="38.51602" lon="-2.51141">
        <ele>1285.54</ele>
        <time>2021-07-19T18:07:57Z</time>
      </trkpt>
      <trkpt lat="38.51637" lon="-2.50924">
        <ele>1299.203</ele>
        <time>2021-07-19T18:08:08Z</time>
      </trkpt>
      <trkpt lat="38.51747" lon="-2.50752">
        <ele>1289.291</ele>
        <time>2021-07-19T18:08:19Z</time>
      </trkpt>
      <trkpt lat="38.51767" lon="-2.5057">
        <ele>1274.83</ele>
        <time>2021-07-19T18:08:30Z</time>
      </trkpt>
      <trkpt lat="38.51834" lon="-2.50748">
        <ele>1269.001</ele>
        <time>2021-07-19T18:08:41Z</time>
      </trkpt>
      <trkpt lat="38.51887" lon="-2.50957">
        <ele>1257.506</ele>
        <time>2021-07-19T18:08:52Z</time>
      </trkpt>
      <trkpt lat="38.52093" lon="-2.51086">
        <ele>1238.932</ele>
        <time>2021-07-19T18:09:03Z</time>
      </trkpt>
      <trkpt lat="38.5227" lon="-2.51233">
        <ele>1219.539</ele>
        <time>2021-07-19T18:09:14Z</time>
      </trkpt>
      <trkpt lat="38.52521" lon="-2.51295">
        <ele>1203.111</ele>
        <time>2021-07-19T18:09:25Z</time>
      </trkpt>
      <trkpt lat="38.5268" lon="-2.51376">
        <ele>1182.702</ele>
        <time>2021-07-19T18:09:36Z</time>
      </trkpt>
      <trkpt lat="38.52903" lon="-2.51399">
        <ele>1167.151</ele>
        <time>2021-07-19T18:09:47Z</time>
      </trkpt>
      <trkpt lat="38.53078" lon="-2.51324">
        <ele>1164.319</ele>
        <time>2021-07-19T18:09:58Z</time>
      </trkpt>
      <trkpt lat="38.53276" lon="-2.51281">
        <ele>1159.602</ele>
        <time>2021-07-19T18:10:09Z</time>
      </trkpt>
      <trkpt lat="38.53451" lon="-2.51217">
        <ele>1151.198</ele>
        <time>2021-07-19T18:10:20Z</time>
      </trkpt>
      <trkpt lat="38.53654" lon="-2.51212">
        <ele>1147.855</ele>
        <time>2021-07-19T18:10:31Z</time>
      </trkpt>
      <trkpt lat="38.53865" lon="-2.51226">
        <ele>1139.895</ele>
        <time>2021-07-19T18:10:42Z</time>
      </trkpt>
      <trkpt lat="38.54033" lon="-2.51035">
        <ele>1132.633</ele>
        <time>2021-07-19T18:10:53Z</time>
      </trkpt>
      <trkpt lat="38.5427" lon="-2.5098">
        <ele>1130.47</ele>
        <time>2021-07-19T18:11:04Z</time>
      </trkpt>
      <trkpt lat="38.54477" lon="-2.50838">
        <ele>1124.722</ele>
        <time>2021-07-19T18:11:15Z</time>
      </trkpt>
      <trkpt lat="38.54628" lon="-2.50596">
        <ele>1120.454</ele>
        <time>2021-07-19T18:11:26Z</time>
      </trkpt>
      <trkpt lat="38.54789" lon="-2.50439">
        <ele>1116.507</ele>
        <time>2021-07-19T18:11:37Z</time>
      </trkpt>
      <trkpt lat="38.54984" lon="-2.50221">
        <ele>1114.261</ele>
        <time>2021-07-19T18:11:48Z</time>
      </trkpt>
      <trkpt lat="38.55182" lon="-2.50094">
        <ele>1103.639</ele>
        <time>2021-07-19T18:11:59Z</time>
      </trkpt>
      <trkpt lat="38.55399" lon="-2.50221">
        <ele>1091.737</ele>
        <time>2021-07-19T18:12:10Z</time>
      </trkpt>
      <trkpt lat="38.55622" lon="-2.50227">
        <ele>1093.363</ele>
        <time>2021-07-19T18:12:21Z</time>
      </trkpt>
      <trkpt lat="38.5585" lon="-2.50301">
        <ele>1080.528</ele>
        <time>2021-07-19T18:12:32Z</time>
      </trkpt>
      <trkpt lat="38.56081" lon="-2.50237">
        <ele>1079.399</ele>
        <time>2021-07-19T18:12:43Z</time>
      </trkpt>
      <trkpt lat="38.56292" lon="-2.50376">
        <ele>1074.768</ele>
        <time>2021-07-19T18:12:54Z</time>
      </trkpt>
      <trkpt lat="38.56513" lon="-2.50409">
        <ele>1068.23</ele>
        <time>2021-07-19T18:13:05Z</time>
      </trkpt>
      <trkpt lat="38.56733" lon="-2.50523">
        <ele>1065.645</ele>
        <time>2021-07-19T18:13:16Z</time>
      </trkpt>
      <trkpt lat="38.56908" lon="-2.50549">
        <ele>1055.507</ele>
        <time>2021-07-19T18:13:27Z</time>
      </trkpt>
      <trkpt lat="38.57122" lon="-2.50735">
        <ele>1047.612</ele>
        <time>2021-07-19T18:13:38Z</time>
      </trkpt>
      <trkpt lat="38.57326" lon="-2.50778">
        <ele>1045.828</ele>
        <time>2021-07-19T18:13:49Z</time>
      </trkpt>
      <trkpt lat="38.57463" lon="-2.50973">
        <ele>1045.225</ele>
        <time>2021-07-19T18:14:00Z</time>
      </trkpt>
      <trkpt lat="38.57526" lon="-2.51214">
        <ele>1047.765</ele>
        <time>2021-07-19T18:14:11Z</time>
      </trkpt>
      <trkpt lat="38.57644" lon="-2.51323">
        <ele>1041.688</ele>
        <time>2021-07-19T18:14:22Z</time>
      </trkpt>
      <trkpt lat="38.57658" lon="-2.51364">
        <ele>1042.252</ele>
        <time>2021-07-19T18:14:33Z</time>
      </trkpt>
      <trkpt lat="38.57659" lon="-2.51372">
        <ele>1044.434</ele>
        <time>2021-07-19T18:14:51Z</time>
      </trkpt>
      <trkpt lat="38.57754" lon="-2.51605">
        <ele>1041.728</ele>
        <time>2021-07-19T18:15:02Z</time>
      </trkpt>
      <trkpt lat="38.57806" lon="-2.51954">
        <ele>1040.09</ele>
        <time>2021-07-19T18:15:13Z</time>
      </trkpt>
      <trkpt lat="38.57879" lon="-2.52212">
        <ele>1037.257</ele>
        <time>2021-07-19T18:15:24Z</time>
      </trkpt>
      <trkpt lat="38.58" lon="-2.52457">
        <ele>1028.016</ele>
        <time>2021-07-19T18:15:35Z</time>
      </trkpt>
      <trkpt lat="38.58236" lon="-2.5264">
        <ele>1025.216</ele>
        <time>2021-07-19T18:15:46Z</time>
      </trkpt>
      <trkpt lat="38.58458" lon="-2.52851">
        <ele>1012.762</ele>
        <time>2021-07-19T18:15:57Z</time>
      </trkpt>
      <trkpt lat="38.58598" lon="-2.53145">
        <ele>998.4132</ele>
        <time>2021-07-19T18:16:08Z</time>
      </trkpt>
      <trkpt lat="38.58676" lon="-2.53412">
        <ele>978.4145</ele>
        <time>2021-07-19T18:16:19Z</time>
      </trkpt>
      <trkpt lat="38.58851" lon="-2.53597">
        <ele>962.3238</ele>
        <time>2021-07-19T18:16:30Z</time>
      </trkpt>
      <trkpt lat="38.59044" lon="-2.53909">
        <ele>952.6561</ele>
        <time>2021-07-19T18:16:41Z</time>
      </trkpt>
      <trkpt lat="38.59155" lon="-2.54287">
        <ele>965.7391</ele>
        <time>2021-07-19T18:16:52Z</time>
      </trkpt>
      <trkpt lat="38.59327" lon="-2.54619">
        <ele>965.452</ele>
        <time>2021-07-19T18:17:03Z</time>
      </trkpt>
      <trkpt lat="38.59461" lon="-2.54895">
        <ele>960.6221</ele>
        <time>2021-07-19T18:17:14Z</time>
      </trkpt>
      <trkpt lat="38.59581" lon="-2.55219">
        <ele>943.053</ele>
        <time>2021-07-19T18:17:25Z</time>
      </trkpt>
      <trkpt lat="38.59736" lon="-2.55537">
        <ele>916.2819</ele>
        <time>2021-07-19T18:17:36Z</time>
      </trkpt>
      <trkpt lat="38.59843" lon="-2.55871">
        <ele>909.3319</ele>
        <time>2021-07-19T18:17:47Z</time>
      </trkpt>
      <trkpt lat="38.59998" lon="-2.56163">
        <ele>906.4006</ele>
        <time>2021-07-19T18:17:58Z</time>
      </trkpt>
      <trkpt lat="38.60167" lon="-2.56287">
        <ele>906.547</ele>
        <time>2021-07-19T18:18:09Z</time>
      </trkpt>
      <trkpt lat="38.60414" lon="-2.56217">
        <ele>925.4896</ele>
        <time>2021-07-19T18:18:20Z</time>
      </trkpt>
      <trkpt lat="38.60615" lon="-2.56281">
        <ele>942.6241</ele>
        <time>2021-07-19T18:18:31Z</time>
      </trkpt>
      <trkpt lat="38.60841" lon="-2.56236">
        <ele>936.4469</ele>
        <time>2021-07-19T18:18:42Z</time>
      </trkpt>
      <trkpt lat="38.61079" lon="-2.56189">
        <ele>929.7094</ele>
        <time>2021-07-19T18:18:53Z</time>
      </trkpt>
      <trkpt lat="38.612" lon="-2.55917">
        <ele>915.6321</ele>
        <time>2021-07-19T18:19:04Z</time>
      </trkpt>
      <trkpt lat="38.61305" lon="-2.55677">
        <ele>899.3943</ele>
        <time>2021-07-19T18:19:15Z</time>
      </trkpt>
      <trkpt lat="38.61511" lon="-2.55489">
        <ele>892.3355</ele>
        <time>2021-07-19T18:19:26Z</time>
      </trkpt>
      <trkpt lat="38.61686" lon="-2.55454">
        <ele>887.1545</ele>
        <time>2021-07-19T18:19:37Z</time>
      </trkpt>
      <trkpt lat="38.61861" lon="-2.55616">
        <ele>868.799</ele>
        <time>2021-07-19T18:19:48Z</time>
      </trkpt>
      <trkpt lat="38.61939" lon="-2.55888">
        <ele>859.0992</ele>
        <time>2021-07-19T18:19:59Z</time>
      </trkpt>
      <trkpt lat="38.62022" lon="-2.56176">
        <ele>850.8699</ele>
        <time>2021-07-19T18:20:10Z</time>
      </trkpt>
      <trkpt lat="38.62115" lon="-2.56444">
        <ele>847.7546</ele>
        <time>2021-07-19T18:20:21Z</time>
      </trkpt>
      <trkpt lat="38.62306" lon="-2.56586">
        <ele>846.9222</ele>
        <time>2021-07-19T18:20:32Z</time>
      </trkpt>
      <trkpt lat="38.62553" lon="-2.56588">
        <ele>846.5393</ele>
        <time>2021-07-19T18:20:43Z</time>
      </trkpt>
      <trkpt lat="38.62697" lon="-2.56722">
        <ele>836.5485</ele>
        <time>2021-07-19T18:20:54Z</time>
      </trkpt>
      <trkpt lat="38.62958" lon="-2.56717">
        <ele>833.0711</ele>
        <time>2021-07-19T18:21:05Z</time>
      </trkpt>
      <trkpt lat="38.63241" lon="-2.56697">
        <ele>832.1092</ele>
        <time>2021-07-19T18:21:16Z</time>
      </trkpt>
      <trkpt lat="38.63521" lon="-2.56678">
        <ele>832.2993</ele>
        <time>2021-07-19T18:21:27Z</time>
      </trkpt>
      <trkpt lat="38.63802" lon="-2.56659">
        <ele>831.0638</ele>
        <time>2021-07-19T18:21:38Z</time>
      </trkpt>
      <trkpt lat="38.64072" lon="-2.56633">
        <ele>825.7998</ele>
        <time>2021-07-19T18:21:49Z</time>
      </trkpt>
      <trkpt lat="38.64341" lon="-2.56604">
        <ele>823.8649</ele>
        <time>2021-07-19T18:22:00Z</time>
      </trkpt>
      <trkpt lat="38.64603" lon="-2.56568">
        <ele>823.2055</ele>
        <time>2021-07-19T18:22:11Z</time>
      </trkpt>
      <trkpt lat="38.64833" lon="-2.56402">
        <ele>826.329</ele>
        <time>2021-07-19T18:22:22Z</time>
      </trkpt>
      <trkpt lat="38.65062" lon="-2.56232">
        <ele>825.626</ele>
        <time>2021-07-19T18:22:33Z</time>
      </trkpt>
      <trkpt lat="38.65292" lon="-2.56059">
        <ele>830.853</ele>
        <time>2021-07-19T18:22:44Z</time>
      </trkpt>
      <trkpt lat="38.65509" lon="-2.55866">
        <ele>834.38</ele>
        <time>2021-07-19T18:22:55Z</time>
      </trkpt>
      <trkpt lat="38.65702" lon="-2.55643">
        <ele>837.1022</ele>
        <time>2021-07-19T18:23:06Z</time>
      </trkpt>
      <trkpt lat="38.65854" lon="-2.55366">
        <ele>835.7615</ele>
        <time>2021-07-19T18:23:17Z</time>
      </trkpt>
      <trkpt lat="38.66049" lon="-2.55134">
        <ele>834.0385</ele>
        <time>2021-07-19T18:23:28Z</time>
      </trkpt>
      <trkpt lat="38.66253" lon="-2.54898">
        <ele>832.8412</ele>
        <time>2021-07-19T18:23:39Z</time>
      </trkpt>
      <trkpt lat="38.66432" lon="-2.54639">
        <ele>834.3901</ele>
        <time>2021-07-19T18:23:50Z</time>
      </trkpt>
      <trkpt lat="38.66449" lon="-2.54297">
        <ele>838.6353</ele>
        <time>2021-07-19T18:24:01Z</time>
      </trkpt>
      <trkpt lat="38.66441" lon="-2.53967">
        <ele>842.8807</ele>
        <time>2021-07-19T18:24:12Z</time>
      </trkpt>
      <trkpt lat="38.6643" lon="-2.53627">
        <ele>846.0826</ele>
        <time>2021-07-19T18:24:23Z</time>
      </trkpt>
      <trkpt lat="38.66458" lon="-2.53283">
        <ele>848.7147</ele>
        <time>2021-07-19T18:24:34Z</time>
      </trkpt>
      <trkpt lat="38.6649" lon="-2.5294">
        <ele>854.9772</ele>
        <time>2021-07-19T18:24:45Z</time>
      </trkpt>
      <trkpt lat="38.66576" lon="-2.52626">
        <ele>854.4871</ele>
        <time>2021-07-19T18:24:56Z</time>
      </trkpt>
      <trkpt lat="38.66714" lon="-2.52338">
        <ele>855.3882</ele>
        <time>2021-07-19T18:25:07Z</time>
      </trkpt>
      <trkpt lat="38.6686" lon="-2.52037">
        <ele>859.3439</ele>
        <time>2021-07-19T18:25:18Z</time>
      </trkpt>
      <trkpt lat="38.67005" lon="-2.5174">
        <ele>864.8433</ele>
        <time>2021-07-19T18:25:29Z</time>
      </trkpt>
      <trkpt lat="38.67148" lon="-2.51445">
        <ele>868.3399</ele>
        <time>2021-07-19T18:25:40Z</time>
      </trkpt>
      <trkpt lat="38.6731" lon="-2.5116">
        <ele>869.6357</ele>
        <time>2021-07-19T18:25:51Z</time>
      </trkpt>
      <trkpt lat="38.6742" lon="-2.50832">
        <ele>873.4624</ele>
        <time>2021-07-19T18:26:02Z</time>
      </trkpt>
      <trkpt lat="38.67516" lon="-2.505">
        <ele>879.4526</ele>
        <time>2021-07-19T18:26:13Z</time>
      </trkpt>
      <trkpt lat="38.67478" lon="-2.50185">
        <ele>885.2024</ele>
        <time>2021-07-19T18:26:24Z</time>
      </trkpt>
      <trkpt lat="38.67342" lon="-2.49897">
        <ele>894.2562</ele>
        <time>2021-07-19T18:26:35Z</time>
      </trkpt>
      <trkpt lat="38.67291" lon="-2.49581">
        <ele>903.9116</ele>
        <time>2021-07-19T18:26:46Z</time>
      </trkpt>
      <trkpt lat="38.67271" lon="-2.49307">
        <ele>916.0416</ele>
        <time>2021-07-19T18:26:57Z</time>
      </trkpt>
      <trkpt lat="38.67414" lon="-2.49267">
        <ele>914.8515</ele>
        <time>2021-07-19T18:27:08Z</time>
      </trkpt>
      <trkpt lat="38.67599" lon="-2.49342">
        <ele>909.8507</ele>
        <time>2021-07-19T18:27:19Z</time>
      </trkpt>
      <trkpt lat="38.67808" lon="-2.49429">
        <ele>903.2877</ele>
        <time>2021-07-19T18:27:30Z</time>
      </trkpt>
      <trkpt lat="38.68008" lon="-2.49511">
        <ele>900.899</ele>
        <time>2021-07-19T18:27:41Z</time>
      </trkpt>
      <trkpt lat="38.68196" lon="-2.49573">
        <ele>900.0964</ele>
        <time>2021-07-19T18:27:52Z</time>
      </trkpt>
      <trkpt lat="38.68425" lon="-2.49523">
        <ele>898.1575</ele>
        <time>2021-07-19T18:28:03Z</time>
      </trkpt>
      <trkpt lat="38.68703" lon="-2.49416">
        <ele>913.9093</ele>
        <time>2021-07-19T18:28:14Z</time>
      </trkpt>
      <trkpt lat="38.68936" lon="-2.4921">
        <ele>919.8015</ele>
        <time>2021-07-19T18:28:25Z</time>
      </trkpt>
      <trkpt lat="38.69177" lon="-2.48996">
        <ele>924.6611</ele>
        <time>2021-07-19T18:28:36Z</time>
      </trkpt>
      <trkpt lat="38.69416" lon="-2.48782">
        <ele>924.7516</ele>
        <time>2021-07-19T18:28:47Z</time>
      </trkpt>
      <trkpt lat="38.69621" lon="-2.48509">
        <ele>916.0017</ele>
        <time>2021-07-19T18:28:58Z</time>
      </trkpt>
      <trkpt lat="38.69884" lon="-2.48337">
        <ele>921.3122</ele>
        <time>2021-07-19T18:29:09Z</time>
      </trkpt>
      <trkpt lat="38.70156" lon="-2.48118">
        <ele>930.2892</ele>
        <time>2021-07-19T18:29:20Z</time>
      </trkpt>
      <trkpt lat="38.70401" lon="-2.47898">
        <ele>937.0707</ele>
        <time>2021-07-19T18:29:31Z</time>
      </trkpt>
      <trkpt lat="38.70677" lon="-2.47751">
        <ele>944.9666</ele>
        <time>2021-07-19T18:29:42Z</time>
      </trkpt>
      <trkpt lat="38.70952" lon="-2.47592">
        <ele>951.2794</ele>
        <time>2021-07-19T18:29:53Z</time>
      </trkpt>
      <trkpt lat="38.71223" lon="-2.47436">
        <ele>959.5188</ele>
        <time>2021-07-19T18:30:04Z</time>
      </trkpt>
      <trkpt lat="38.71511" lon="-2.47358">
        <ele>966.8987</ele>
        <time>2021-07-19T18:30:15Z</time>
      </trkpt>
      <trkpt lat="38.71771" lon="-2.47206">
        <ele>970.8199</ele>
        <time>2021-07-19T18:30:26Z</time>
      </trkpt>
      <trkpt lat="38.7195" lon="-2.47031">
        <ele>976.287</ele>
        <time>2021-07-19T18:30:37Z</time>
      </trkpt>
      <trkpt lat="38.72089" lon="-2.46882">
        <ele>982.2715</ele>
        <time>2021-07-19T18:30:48Z</time>
      </trkpt>
      <trkpt lat="38.72249" lon="-2.46755">
        <ele>987.4824</ele>
        <time>2021-07-19T18:30:59Z</time>
      </trkpt>
      <trkpt lat="38.72456" lon="-2.46787">
        <ele>997.02</ele>
        <time>2021-07-19T18:31:10Z</time>
      </trkpt>
      <trkpt lat="38.72657" lon="-2.46996">
        <ele>1012.021</ele>
        <time>2021-07-19T18:31:21Z</time>
      </trkpt>
      <trkpt lat="38.72866" lon="-2.46999">
        <ele>1024.823</ele>
        <time>2021-07-19T18:31:32Z</time>
      </trkpt>
      <trkpt lat="38.73045" lon="-2.46866">
        <ele>1036.459</ele>
        <time>2021-07-19T18:31:43Z</time>
      </trkpt>
      <trkpt lat="38.73211" lon="-2.46694">
        <ele>1044.141</ele>
        <time>2021-07-19T18:31:54Z</time>
      </trkpt>
      <trkpt lat="38.73404" lon="-2.46662">
        <ele>1049.818</ele>
        <time>2021-07-19T18:32:05Z</time>
      </trkpt>
      <trkpt lat="38.73595" lon="-2.46592">
        <ele>1059.271</ele>
        <time>2021-07-19T18:32:16Z</time>
      </trkpt>
      <trkpt lat="38.73757" lon="-2.4633">
        <ele>1066.841</ele>
        <time>2021-07-19T18:32:27Z</time>
      </trkpt>
      <trkpt lat="38.73944" lon="-2.46041">
        <ele>1067.254</ele>
        <time>2021-07-19T18:32:38Z</time>
      </trkpt>
      <trkpt lat="38.74171" lon="-2.45746">
        <ele>1052.293</ele>
        <time>2021-07-19T18:32:49Z</time>
      </trkpt>
      <trkpt lat="38.74401" lon="-2.45565">
        <ele>1053.32</ele>
        <time>2021-07-19T18:33:00Z</time>
      </trkpt>
      <trkpt lat="38.74702" lon="-2.45604">
        <ele>1056.728</ele>
        <time>2021-07-19T18:33:11Z</time>
      </trkpt>
      <trkpt lat="38.75008" lon="-2.45573">
        <ele>1044.12</ele>
        <time>2021-07-19T18:33:22Z</time>
      </trkpt>
      <trkpt lat="38.75329" lon="-2.45574">
        <ele>1047.067</ele>
        <time>2021-07-19T18:33:33Z</time>
      </trkpt>
      <trkpt lat="38.75614" lon="-2.45508">
        <ele>1049.817</ele>
        <time>2021-07-19T18:33:44Z</time>
      </trkpt>
      <trkpt lat="38.75763" lon="-2.45252">
        <ele>1041.396</ele>
        <time>2021-07-19T18:33:55Z</time>
      </trkpt>
      <trkpt lat="38.75907" lon="-2.4506">
        <ele>1033.183</ele>
        <time>2021-07-19T18:34:06Z</time>
      </trkpt>
      <trkpt lat="38.76066" lon="-2.44917">
        <ele>1026.708</ele>
        <time>2021-07-19T18:34:17Z</time>
      </trkpt>
      <trkpt lat="38.76276" lon="-2.44899">
        <ele>1019.469</ele>
        <time>2021-07-19T18:34:28Z</time>
      </trkpt>
      <trkpt lat="38.76537" lon="-2.44949">
        <ele>1013.812</ele>
        <time>2021-07-19T18:34:39Z</time>
      </trkpt>
      <trkpt lat="38.76786" lon="-2.44997">
        <ele>1010.221</ele>
        <time>2021-07-19T18:34:50Z</time>
      </trkpt>
      <trkpt lat="38.77075" lon="-2.45052">
        <ele>1006.9</ele>
        <time>2021-07-19T18:35:01Z</time>
      </trkpt>
      <trkpt lat="38.77364" lon="-2.45027">
        <ele>1003.984</ele>
        <time>2021-07-19T18:35:12Z</time>
      </trkpt>
      <trkpt lat="38.77534" lon="-2.44768">
        <ele>1001.93</ele>
        <time>2021-07-19T18:35:23Z</time>
      </trkpt>
      <trkpt lat="38.77639" lon="-2.44415">
        <ele>995.5434</ele>
        <time>2021-07-19T18:35:34Z</time>
      </trkpt>
      <trkpt lat="38.77684" lon="-2.441">
        <ele>988.7773</ele>
        <time>2021-07-19T18:35:45Z</time>
      </trkpt>
      <trkpt lat="38.77674" lon="-2.43844">
        <ele>985.9427</ele>
        <time>2021-07-19T18:35:56Z</time>
      </trkpt>
      <trkpt lat="38.77594" lon="-2.43555">
        <ele>980.6605</ele>
        <time>2021-07-19T18:36:07Z</time>
      </trkpt>
      <trkpt lat="38.77643" lon="-2.43242">
        <ele>975.3961</ele>
        <time>2021-07-19T18:36:18Z</time>
      </trkpt>
      <trkpt lat="38.77498" lon="-2.42972">
        <ele>973.6668</ele>
        <time>2021-07-19T18:36:30Z</time>
      </trkpt>
      <trkpt lat="38.77358" lon="-2.42671">
        <ele>964.2312</ele>
        <time>2021-07-19T18:36:41Z</time>
      </trkpt>
      <trkpt lat="38.7733" lon="-2.42308">
        <ele>961.3963</ele>
        <time>2021-07-19T18:36:52Z</time>
      </trkpt>
      <trkpt lat="38.77404" lon="-2.42006">
        <ele>957.8485</ele>
        <time>2021-07-19T18:37:03Z</time>
      </trkpt>
      <trkpt lat="38.7741" lon="-2.41703">
        <ele>948.163</ele>
        <time>2021-07-19T18:37:14Z</time>
      </trkpt>
      <trkpt lat="38.77443" lon="-2.41358">
        <ele>941.6187</ele>
        <time>2021-07-19T18:37:25Z</time>
      </trkpt>
      <trkpt lat="38.77478" lon="-2.40983">
        <ele>935.7736</ele>
        <time>2021-07-19T18:37:36Z</time>
      </trkpt>
      <trkpt lat="38.77516" lon="-2.40582">
        <ele>932.868</ele>
        <time>2021-07-19T18:37:47Z</time>
      </trkpt>
      <trkpt lat="38.77572" lon="-2.40212">
        <ele>928.2513</ele>
        <time>2021-07-19T18:37:58Z</time>
      </trkpt>
      <trkpt lat="38.77629" lon="-2.39841">
        <ele>926.9066</ele>
        <time>2021-07-19T18:38:09Z</time>
      </trkpt>
      <trkpt lat="38.77641" lon="-2.39501">
        <ele>926.5214</ele>
        <time>2021-07-19T18:38:20Z</time>
      </trkpt>
      <trkpt lat="38.77814" lon="-2.39254">
        <ele>926.784</ele>
        <time>2021-07-19T18:38:31Z</time>
      </trkpt>
      <trkpt lat="38.78039" lon="-2.39048">
        <ele>924.6424</ele>
        <time>2021-07-19T18:38:42Z</time>
      </trkpt>
      <trkpt lat="38.78302" lon="-2.38848">
        <ele>919.0685</ele>
        <time>2021-07-19T18:38:53Z</time>
      </trkpt>
      <trkpt lat="38.78489" lon="-2.38725">
        <ele>916.2328</ele>
        <time>2021-07-19T18:39:04Z</time>
      </trkpt>
      <trkpt lat="38.78663" lon="-2.38605">
        <ele>917.8815</ele>
        <time>2021-07-19T18:39:15Z</time>
      </trkpt>
      <trkpt lat="38.78733" lon="-2.38372">
        <ele>916.984</ele>
        <time>2021-07-19T18:39:26Z</time>
      </trkpt>
      <trkpt lat="38.78707" lon="-2.38098">
        <ele>914.3239</ele>
        <time>2021-07-19T18:39:37Z</time>
      </trkpt>
      <trkpt lat="38.78767" lon="-2.37823">
        <ele>914.9449</ele>
        <time>2021-07-19T18:39:48Z</time>
      </trkpt>
      <trkpt lat="38.79005" lon="-2.37796">
        <ele>915.7394</ele>
        <time>2021-07-19T18:39:59Z</time>
      </trkpt>
      <trkpt lat="38.79172" lon="-2.37569">
        <ele>913.7561</ele>
        <time>2021-07-19T18:40:10Z</time>
      </trkpt>
      <trkpt lat="38.79334" lon="-2.37412">
        <ele>912.5894</ele>
        <time>2021-07-19T18:40:21Z</time>
      </trkpt>
      <trkpt lat="38.79549" lon="-2.37294">
        <ele>913.2858</ele>
        <time>2021-07-19T18:40:32Z</time>
      </trkpt>
      <trkpt lat="38.79702" lon="-2.37043">
        <ele>912.8397</ele>
        <time>2021-07-19T18:40:43Z</time>
      </trkpt>
      <trkpt lat="38.79794" lon="-2.36703">
        <ele>915.1104</ele>
        <time>2021-07-19T18:40:54Z</time>
      </trkpt>
      <trkpt lat="38.79887" lon="-2.36357">
        <ele>915.623</ele>
        <time>2021-07-19T18:41:05Z</time>
      </trkpt>
      <trkpt lat="38.80026" lon="-2.36054">
        <ele>914.8376</ele>
        <time>2021-07-19T18:41:16Z</time>
      </trkpt>
      <trkpt lat="38.80069" lon="-2.35693">
        <ele>911.6089</ele>
        <time>2021-07-19T18:41:27Z</time>
      </trkpt>
      <trkpt lat="38.8015" lon="-2.35349">
        <ele>911.5955</ele>
        <time>2021-07-19T18:41:38Z</time>
      </trkpt>
      <trkpt lat="38.80127" lon="-2.34989">
        <ele>910.0967</ele>
        <time>2021-07-19T18:41:49Z</time>
      </trkpt>
      <trkpt lat="38.80011" lon="-2.34651">
        <ele>909.2134</ele>
        <time>2021-07-19T18:42:00Z</time>
      </trkpt>
      <trkpt lat="38.79975" lon="-2.34294">
        <ele>906.3709</ele>
        <time>2021-07-19T18:42:11Z</time>
      </trkpt>
      <trkpt lat="38.80054" lon="-2.33944">
        <ele>900.4639</ele>
        <time>2021-07-19T18:42:22Z</time>
      </trkpt>
      <trkpt lat="38.80118" lon="-2.33603">
        <ele>899.7977</ele>
        <time>2021-07-19T18:42:33Z</time>
      </trkpt>
      <trkpt lat="38.80098" lon="-2.33279">
        <ele>901.2912</ele>
        <time>2021-07-19T18:42:44Z</time>
      </trkpt>
      <trkpt lat="38.80305" lon="-2.33117">
        <ele>898.8382</ele>
        <time>2021-07-19T18:42:55Z</time>
      </trkpt>
      <trkpt lat="38.80534" lon="-2.3306">
        <ele>894.5871</ele>
        <time>2021-07-19T18:43:06Z</time>
      </trkpt>
      <trkpt lat="38.80594" lon="-2.32894">
        <ele>898.7021</ele>
        <time>2021-07-19T18:43:17Z</time>
      </trkpt>
      <trkpt lat="38.80627" lon="-2.32759">
        <ele>899.7535</ele>
        <time>2021-07-19T18:43:28Z</time>
      </trkpt>
      <trkpt lat="38.80718" lon="-2.32675">
        <ele>897.6322</ele>
        <time>2021-07-19T18:43:39Z</time>
      </trkpt>
      <trkpt lat="38.80835" lon="-2.32742">
        <ele>895.9495</ele>
        <time>2021-07-19T18:43:50Z</time>
      </trkpt>
      <trkpt lat="38.80931" lon="-2.328">
        <ele>897.5624</ele>
        <time>2021-07-19T18:44:01Z</time>
      </trkpt>
      <trkpt lat="38.81045" lon="-2.32761">
        <ele>896.6626</ele>
        <time>2021-07-19T18:44:12Z</time>
      </trkpt>
      <trkpt lat="38.81131" lon="-2.32676">
        <ele>896.6245</ele>
        <time>2021-07-19T18:44:23Z</time>
      </trkpt>
      <trkpt lat="38.81215" lon="-2.3259">
        <ele>897.6259</ele>
        <time>2021-07-19T18:44:34Z</time>
      </trkpt>
      <trkpt lat="38.81271" lon="-2.32501">
        <ele>895.881</ele>
        <time>2021-07-19T18:44:45Z</time>
      </trkpt>
      <trkpt lat="38.81275" lon="-2.32368">
        <ele>896.2485</ele>
        <time>2021-07-19T18:44:56Z</time>
      </trkpt>
      <trkpt lat="38.81243" lon="-2.32243">
        <ele>894.5632</ele>
        <time>2021-07-19T18:45:07Z</time>
      </trkpt>
      <trkpt lat="38.81125" lon="-2.32149">
        <ele>891.2409</ele>
        <time>2021-07-19T18:45:18Z</time>
      </trkpt>
      <trkpt lat="38.81036" lon="-2.32007">
        <ele>889.7673</ele>
        <time>2021-07-19T18:45:29Z</time>
      </trkpt>
      <trkpt lat="38.81061" lon="-2.31755">
        <ele>886.9359</ele>
        <time>2021-07-19T18:45:40Z</time>
      </trkpt>
      <trkpt lat="38.81107" lon="-2.31434">
        <ele>883.1364</ele>
        <time>2021-07-19T18:45:51Z</time>
      </trkpt>
      <trkpt lat="38.81131" lon="-2.31123">
        <ele>879.9955</ele>
        <time>2021-07-19T18:46:02Z</time>
      </trkpt>
      <trkpt lat="38.8103" lon="-2.30885">
        <ele>879.258</ele>
        <time>2021-07-19T18:46:13Z</time>
      </trkpt>
      <trkpt lat="38.81131" lon="-2.30708">
        <ele>878.4164</ele>
        <time>2021-07-19T18:46:24Z</time>
      </trkpt>
      <trkpt lat="38.81213" lon="-2.30478">
        <ele>879.0645</ele>
        <time>2021-07-19T18:46:35Z</time>
      </trkpt>
      <trkpt lat="38.81034" lon="-2.30349">
        <ele>880.4166</ele>
        <time>2021-07-19T18:46:46Z</time>
      </trkpt>
      <trkpt lat="38.80999" lon="-2.30097">
        <ele>873.8507</ele>
        <time>2021-07-19T18:46:57Z</time>
      </trkpt>
      <trkpt lat="38.81144" lon="-2.29887">
        <ele>872.0904</ele>
        <time>2021-07-19T18:47:08Z</time>
      </trkpt>
      <trkpt lat="38.81191" lon="-2.29597">
        <ele>871.0213</ele>
        <time>2021-07-19T18:47:19Z</time>
      </trkpt>
      <trkpt lat="38.81273" lon="-2.29465">
        <ele>869.4138</ele>
        <time>2021-07-19T18:47:30Z</time>
      </trkpt>
      <trkpt lat="38.81449" lon="-2.29457">
        <ele>863.9181</ele>
        <time>2021-07-19T18:47:41Z</time>
      </trkpt>
      <trkpt lat="38.81514" lon="-2.29158">
        <ele>868.0258</ele>
        <time>2021-07-19T18:47:52Z</time>
      </trkpt>
      <trkpt lat="38.81367" lon="-2.28972">
        <ele>864.3359</ele>
        <time>2021-07-19T18:48:03Z</time>
      </trkpt>
      <trkpt lat="38.81456" lon="-2.28822">
        <ele>863.6896</ele>
        <time>2021-07-19T18:48:14Z</time>
      </trkpt>
      <trkpt lat="38.81663" lon="-2.28816">
        <ele>861.7272</ele>
        <time>2021-07-19T18:48:25Z</time>
      </trkpt>
      <trkpt lat="38.8176" lon="-2.28603">
        <ele>860.0653</ele>
        <time>2021-07-19T18:48:36Z</time>
      </trkpt>
      <trkpt lat="38.8173" lon="-2.28303">
        <ele>857.3649</ele>
        <time>2021-07-19T18:48:47Z</time>
      </trkpt>
      <trkpt lat="38.81811" lon="-2.28036">
        <ele>852.7608</ele>
        <time>2021-07-19T18:48:58Z</time>
      </trkpt>
      <trkpt lat="38.82043" lon="-2.27981">
        <ele>850.2114</ele>
        <time>2021-07-19T18:49:09Z</time>
      </trkpt>
      <trkpt lat="38.82248" lon="-2.28116">
        <ele>851.4548</ele>
        <time>2021-07-19T18:49:20Z</time>
      </trkpt>
      <trkpt lat="38.8243" lon="-2.28026">
        <ele>851.4883</ele>
        <time>2021-07-19T18:49:31Z</time>
      </trkpt>
      <trkpt lat="38.82429" lon="-2.27755">
        <ele>851.9325</ele>
        <time>2021-07-19T18:49:42Z</time>
      </trkpt>
      <trkpt lat="38.82263" lon="-2.27574">
        <ele>850.4063</ele>
        <time>2021-07-19T18:49:53Z</time>
      </trkpt>
      <trkpt lat="38.82272" lon="-2.27314">
        <ele>847.8388</ele>
        <time>2021-07-19T18:50:04Z</time>
      </trkpt>
      <trkpt lat="38.82468" lon="-2.27172">
        <ele>849.7816</ele>
        <time>2021-07-19T18:50:15Z</time>
      </trkpt>
      <trkpt lat="38.82673" lon="-2.27295">
        <ele>844.6555</ele>
        <time>2021-07-19T18:50:26Z</time>
      </trkpt>
      <trkpt lat="38.82783" lon="-2.27076">
        <ele>843.3215</ele>
        <time>2021-07-19T18:50:37Z</time>
      </trkpt>
      <trkpt lat="38.82767" lon="-2.2677">
        <ele>840.8723</ele>
        <time>2021-07-19T18:50:48Z</time>
      </trkpt>
      <trkpt lat="38.82648" lon="-2.26526">
        <ele>836.0815</ele>
        <time>2021-07-19T18:50:59Z</time>
      </trkpt>
      <trkpt lat="38.82636" lon="-2.26251">
        <ele>839.1221</ele>
        <time>2021-07-19T18:51:10Z</time>
      </trkpt>
      <trkpt lat="38.82656" lon="-2.25958">
        <ele>836.2667</ele>
        <time>2021-07-19T18:51:21Z</time>
      </trkpt>
      <trkpt lat="38.82745" lon="-2.25659">
        <ele>835.6722</ele>
        <time>2021-07-19T18:51:32Z</time>
      </trkpt>
      <trkpt lat="38.82843" lon="-2.25393">
        <ele>833.9848</ele>
        <time>2021-07-19T18:51:43Z</time>
      </trkpt>
      <trkpt lat="38.83061" lon="-2.25232">
        <ele>835.0004</ele>
        <time>2021-07-19T18:51:54Z</time>
      </trkpt>
      <trkpt lat="38.83173" lon="-2.24977">
        <ele>835.8806</ele>
        <time>2021-07-19T18:52:05Z</time>
      </trkpt>
      <trkpt lat="38.83129" lon="-2.2473">
        <ele>834.7478</ele>
        <time>2021-07-19T18:52:16Z</time>
      </trkpt>
      <trkpt lat="38.83128" lon="-2.24516">
        <ele>832.1353</ele>
        <time>2021-07-19T18:52:27Z</time>
      </trkpt>
      <trkpt lat="38.83339" lon="-2.24297">
        <ele>825.4912</ele>
        <time>2021-07-19T18:52:38Z</time>
      </trkpt>
      <trkpt lat="38.83571" lon="-2.24063">
        <ele>823.0912</ele>
        <time>2021-07-19T18:52:49Z</time>
      </trkpt>
      <trkpt lat="38.83804" lon="-2.23833">
        <ele>821.5943</ele>
        <time>2021-07-19T18:53:00Z</time>
      </trkpt>
      <trkpt lat="38.84001" lon="-2.23594">
        <ele>820.2444</ele>
        <time>2021-07-19T18:53:11Z</time>
      </trkpt>
      <trkpt lat="38.84151" lon="-2.23349">
        <ele>819.243</ele>
        <time>2021-07-19T18:53:22Z</time>
      </trkpt>
      <trkpt lat="38.84289" lon="-2.23076">
        <ele>815.9807</ele>
        <time>2021-07-19T18:53:33Z</time>
      </trkpt>
      <trkpt lat="38.84491" lon="-2.23012">
        <ele>819.5177</ele>
        <time>2021-07-19T18:53:44Z</time>
      </trkpt>
      <trkpt lat="38.84711" lon="-2.22948">
        <ele>818.2972</ele>
        <time>2021-07-19T18:53:55Z</time>
      </trkpt>
      <trkpt lat="38.84933" lon="-2.22774">
        <ele>818.9441</ele>
        <time>2021-07-19T18:54:06Z</time>
      </trkpt>
      <trkpt lat="38.85206" lon="-2.22638">
        <ele>814.5956</ele>
        <time>2021-07-19T18:54:17Z</time>
      </trkpt>
      <trkpt lat="38.85486" lon="-2.22522">
        <ele>812.3036</ele>
        <time>2021-07-19T18:54:28Z</time>
      </trkpt>
      <trkpt lat="38.85617" lon="-2.22203">
        <ele>814.8811</ele>
        <time>2021-07-19T18:54:39Z</time>
      </trkpt>
      <trkpt lat="38.85693" lon="-2.21862">
        <ele>819.1482</ele>
        <time>2021-07-19T18:54:50Z</time>
      </trkpt>
      <trkpt lat="38.85828" lon="-2.2159">
        <ele>822.7037</ele>
        <time>2021-07-19T18:55:01Z</time>
      </trkpt>
      <trkpt lat="38.86006" lon="-2.2131">
        <ele>816.4777</ele>
        <time>2021-07-19T18:55:12Z</time>
      </trkpt>
      <trkpt lat="38.86079" lon="-2.2098">
        <ele>812.6631</ele>
        <time>2021-07-19T18:55:23Z</time>
      </trkpt>
      <trkpt lat="38.86014" lon="-2.20673">
        <ele>806.2499</ele>
        <time>2021-07-19T18:55:34Z</time>
      </trkpt>
      <trkpt lat="38.86233" lon="-2.20561">
        <ele>799.4219</ele>
        <time>2021-07-19T18:55:45Z</time>
      </trkpt>
      <trkpt lat="38.86505" lon="-2.205">
        <ele>796.2461</ele>
        <time>2021-07-19T18:55:56Z</time>
      </trkpt>
      <trkpt lat="38.86777" lon="-2.20431">
        <ele>796.4802</ele>
        <time>2021-07-19T18:56:07Z</time>
      </trkpt>
      <trkpt lat="38.87051" lon="-2.20446">
        <ele>795.8674</ele>
        <time>2021-07-19T18:56:18Z</time>
      </trkpt>
      <trkpt lat="38.87293" lon="-2.20323">
        <ele>795.6499</ele>
        <time>2021-07-19T18:56:29Z</time>
      </trkpt>
      <trkpt lat="38.87504" lon="-2.20147">
        <ele>793.2222</ele>
        <time>2021-07-19T18:56:40Z</time>
      </trkpt>
      <trkpt lat="38.87747" lon="-2.20074">
        <ele>790.4772</ele>
        <time>2021-07-19T18:56:51Z</time>
      </trkpt>
      <trkpt lat="38.87928" lon="-2.19917">
        <ele>788.6072</ele>
        <time>2021-07-19T18:57:02Z</time>
      </trkpt>
      <trkpt lat="38.87943" lon="-2.19653">
        <ele>787.6643</ele>
        <time>2021-07-19T18:57:13Z</time>
      </trkpt>
      <trkpt lat="38.87887" lon="-2.19392">
        <ele>784.5986</ele>
        <time>2021-07-19T18:57:24Z</time>
      </trkpt>
      <trkpt lat="38.88093" lon="-2.19275">
        <ele>784.4731</ele>
        <time>2021-07-19T18:57:35Z</time>
      </trkpt>
      <trkpt lat="38.88267" lon="-2.19083">
        <ele>783.9671</ele>
        <time>2021-07-19T18:57:46Z</time>
      </trkpt>
      <trkpt lat="38.88249" lon="-2.18778">
        <ele>783.9034</ele>
        <time>2021-07-19T18:57:57Z</time>
      </trkpt>
      <trkpt lat="38.88363" lon="-2.1847">
        <ele>786.5548</ele>
        <time>2021-07-19T18:58:08Z</time>
      </trkpt>
      <trkpt lat="38.88476" lon="-2.18182">
        <ele>790.6873</ele>
        <time>2021-07-19T18:58:19Z</time>
      </trkpt>
      <trkpt lat="38.88591" lon="-2.17886">
        <ele>783.0556</ele>
        <time>2021-07-19T18:58:30Z</time>
      </trkpt>
      <trkpt lat="38.88654" lon="-2.17564">
        <ele>780.2476</ele>
        <time>2021-07-19T18:58:41Z</time>
      </trkpt>
      <trkpt lat="38.88548" lon="-2.17249">
        <ele>778.2053</ele>
        <time>2021-07-19T18:58:52Z</time>
      </trkpt>
      <trkpt lat="38.88381" lon="-2.16971">
        <ele>777.4991</ele>
        <time>2021-07-19T18:59:03Z</time>
      </trkpt>
      <trkpt lat="38.88268" lon="-2.16642">
        <ele>779.4607</ele>
        <time>2021-07-19T18:59:14Z</time>
      </trkpt>
      <trkpt lat="38.88162" lon="-2.16325">
        <ele>777.8467</ele>
        <time>2021-07-19T18:59:25Z</time>
      </trkpt>
      <trkpt lat="38.88075" lon="-2.15991">
        <ele>773.9561</ele>
        <time>2021-07-19T18:59:36Z</time>
      </trkpt>
      <trkpt lat="38.87938" lon="-2.15688">
        <ele>771.4488</ele>
        <time>2021-07-19T18:59:47Z</time>
      </trkpt>
      <trkpt lat="38.8784" lon="-2.15371">
        <ele>770.3656</ele>
        <time>2021-07-19T18:59:58Z</time>
      </trkpt>
      <trkpt lat="38.87823" lon="-2.15063">
        <ele>767.8356</ele>
        <time>2021-07-19T19:00:09Z</time>
      </trkpt>
      <trkpt lat="38.87899" lon="-2.14781">
        <ele>767.0131</ele>
        <time>2021-07-19T19:00:20Z</time>
      </trkpt>
      <trkpt lat="38.8804" lon="-2.14523">
        <ele>766.9632</ele>
        <time>2021-07-19T19:00:31Z</time>
      </trkpt>
      <trkpt lat="38.88149" lon="-2.14246">
        <ele>765.6047</ele>
        <time>2021-07-19T19:00:42Z</time>
      </trkpt>
      <trkpt lat="38.88211" lon="-2.1398">
        <ele>764.6648</ele>
        <time>2021-07-19T19:00:53Z</time>
      </trkpt>
      <trkpt lat="38.88318" lon="-2.13689">
        <ele>763.7121</ele>
        <time>2021-07-19T19:01:04Z</time>
      </trkpt>
      <trkpt lat="38.8847" lon="-2.13375">
        <ele>761.765</ele>
        <time>2021-07-19T19:01:15Z</time>
      </trkpt>
      <trkpt lat="38.88628" lon="-2.13054">
        <ele>760.3323</ele>
        <time>2021-07-19T19:01:26Z</time>
      </trkpt>
      <trkpt lat="38.88773" lon="-2.12747">
        <ele>760.5811</ele>
        <time>2021-07-19T19:01:37Z</time>
      </trkpt>
      <trkpt lat="38.88897" lon="-2.12434">
        <ele>758.7177</ele>
        <time>2021-07-19T19:01:48Z</time>
      </trkpt>
      <trkpt lat="38.89017" lon="-2.12132">
        <ele>754.4346</ele>
        <time>2021-07-19T19:01:59Z</time>
      </trkpt>
      <trkpt lat="38.89143" lon="-2.11819">
        <ele>752.6139</ele>
        <time>2021-07-19T19:02:10Z</time>
      </trkpt>
      <trkpt lat="38.89271" lon="-2.11497">
        <ele>749.9679</ele>
        <time>2021-07-19T19:02:21Z</time>
      </trkpt>
      <trkpt lat="38.894" lon="-2.11176">
        <ele>746.6763</ele>
        <time>2021-07-19T19:02:32Z</time>
      </trkpt>
      <trkpt lat="38.89525" lon="-2.1086">
        <ele>744.7237</ele>
        <time>2021-07-19T19:02:43Z</time>
      </trkpt>
      <trkpt lat="38.89649" lon="-2.10551">
        <ele>743.0177</ele>
        <time>2021-07-19T19:02:54Z</time>
      </trkpt>
      <trkpt lat="38.8977" lon="-2.10247">
        <ele>741.3212</ele>
        <time>2021-07-19T19:03:05Z</time>
      </trkpt>
      <trkpt lat="38.8989" lon="-2.09944">
        <ele>739.4281</ele>
        <time>2021-07-19T19:03:16Z</time>
      </trkpt>
      <trkpt lat="38.90013" lon="-2.09637">
        <ele>737.9705</ele>
        <time>2021-07-19T19:03:27Z</time>
      </trkpt>
      <trkpt lat="38.90137" lon="-2.09324">
        <ele>735.3674</ele>
        <time>2021-07-19T19:03:38Z</time>
      </trkpt>
      <trkpt lat="38.90262" lon="-2.09012">
        <ele>734.454</ele>
        <time>2021-07-19T19:03:49Z</time>
      </trkpt>
      <trkpt lat="38.90386" lon="-2.08699">
        <ele>732.822</ele>
        <time>2021-07-19T19:04:00Z</time>
      </trkpt>
      <trkpt lat="38.9051" lon="-2.08389">
        <ele>731.0766</ele>
        <time>2021-07-19T19:04:11Z</time>
      </trkpt>
      <trkpt lat="38.90634" lon="-2.08077">
        <ele>730.8568</ele>
        <time>2021-07-19T19:04:22Z</time>
      </trkpt>
      <trkpt lat="38.90757" lon="-2.07768">
        <ele>729.1339</ele>
        <time>2021-07-19T19:04:33Z</time>
      </trkpt>
      <trkpt lat="38.90882" lon="-2.07454">
        <ele>725.6075</ele>
        <time>2021-07-19T19:04:44Z</time>
      </trkpt>
      <trkpt lat="38.91006" lon="-2.07144">
        <ele>723.5987</ele>
        <time>2021-07-19T19:04:55Z</time>
      </trkpt>
      <trkpt lat="38.91129" lon="-2.06837">
        <ele>722.5082</ele>
        <time>2021-07-19T19:05:06Z</time>
      </trkpt>
      <trkpt lat="38.9125" lon="-2.06531">
        <ele>721.7216</ele>
        <time>2021-07-19T19:05:17Z</time>
      </trkpt>
      <trkpt lat="38.91372" lon="-2.06226">
        <ele>720.9216</ele>
        <time>2021-07-19T19:05:28Z</time>
      </trkpt>
      <trkpt lat="38.91495" lon="-2.05917">
        <ele>718.8969</ele>
        <time>2021-07-19T19:05:39Z</time>
      </trkpt>
      <trkpt lat="38.9162" lon="-2.05603">
        <ele>716.9053</ele>
        <time>2021-07-19T19:05:50Z</time>
      </trkpt>
      <trkpt lat="38.91746" lon="-2.05288">
        <ele>715.6135</ele>
        <time>2021-07-19T19:06:01Z</time>
      </trkpt>
      <trkpt lat="38.9187" lon="-2.04978">
        <ele>714.0027</ele>
        <time>2021-07-19T19:06:12Z</time>
      </trkpt>
      <trkpt lat="38.9199" lon="-2.04675">
        <ele>714.43</ele>
        <time>2021-07-19T19:06:23Z</time>
      </trkpt>
      <trkpt lat="38.92114" lon="-2.04363">
        <ele>711.712</ele>
        <time>2021-07-19T19:06:34Z</time>
      </trkpt>
      <trkpt lat="38.92235" lon="-2.0406">
        <ele>709.4297</ele>
        <time>2021-07-19T19:06:45Z</time>
      </trkpt>
      <trkpt lat="38.92344" lon="-2.03785">
        <ele>708.88</ele>
        <time>2021-07-19T19:06:56Z</time>
      </trkpt>
      <trkpt lat="38.92458" lon="-2.03497">
        <ele>707.7032</ele>
        <time>2021-07-19T19:07:07Z</time>
      </trkpt>
      <trkpt lat="38.92569" lon="-2.03221">
        <ele>704.7048</ele>
        <time>2021-07-19T19:07:18Z</time>
      </trkpt>
      <trkpt lat="38.92672" lon="-2.0296">
        <ele>706.3953</ele>
        <time>2021-07-19T19:07:29Z</time>
      </trkpt>
      <trkpt lat="38.92778" lon="-2.02693">
        <ele>705.0168</ele>
        <time>2021-07-19T19:07:40Z</time>
      </trkpt>
      <trkpt lat="38.92895" lon="-2.02403">
        <ele>702.2743</ele>
        <time>2021-07-19T19:07:51Z</time>
      </trkpt>
      <trkpt lat="38.93004" lon="-2.0213">
        <ele>704.1743</ele>
        <time>2021-07-19T19:08:02Z</time>
      </trkpt>
      <trkpt lat="38.93112" lon="-2.01857">
        <ele>704.0644</ele>
        <time>2021-07-19T19:08:13Z</time>
      </trkpt>
      <trkpt lat="38.93226" lon="-2.01574">
        <ele>704.3982</ele>
        <time>2021-07-19T19:08:24Z</time>
      </trkpt>
      <trkpt lat="38.93361" lon="-2.01232">
        <ele>701.7241</ele>
        <time>2021-07-19T19:08:35Z</time>
      </trkpt>
      <trkpt lat="38.93497" lon="-2.00888">
        <ele>699.0574</ele>
        <time>2021-07-19T19:08:46Z</time>
      </trkpt>
      <trkpt lat="38.93632" lon="-2.0055">
        <ele>697.0659</ele>
        <time>2021-07-19T19:08:57Z</time>
      </trkpt>
      <trkpt lat="38.93767" lon="-2.0021">
        <ele>694.653</ele>
        <time>2021-07-19T19:09:08Z</time>
      </trkpt>
      <trkpt lat="38.93904" lon="-1.99862">
        <ele>695.5665</ele>
        <time>2021-07-19T19:09:19Z</time>
      </trkpt>
      <trkpt lat="38.94045" lon="-1.99508">
        <ele>694.3425</ele>
        <time>2021-07-19T19:09:30Z</time>
      </trkpt>
      <trkpt lat="38.94183" lon="-1.99162">
        <ele>694.4708</ele>
        <time>2021-07-19T19:09:41Z</time>
      </trkpt>
      <trkpt lat="38.94313" lon="-1.98834">
        <ele>692.3839</ele>
        <time>2021-07-19T19:09:52Z</time>
      </trkpt>
      <trkpt lat="38.94444" lon="-1.98504">
        <ele>691.0854</ele>
        <time>2021-07-19T19:10:03Z</time>
      </trkpt>
      <trkpt lat="38.94574" lon="-1.98176">
        <ele>690.679</ele>
        <time>2021-07-19T19:10:14Z</time>
      </trkpt>
      <trkpt lat="38.94698" lon="-1.97867">
        <ele>698.6406</ele>
        <time>2021-07-19T19:10:25Z</time>
      </trkpt>
      <trkpt lat="38.94816" lon="-1.97569">
        <ele>690.913</ele>
        <time>2021-07-19T19:10:36Z</time>
      </trkpt>
      <trkpt lat="38.94936" lon="-1.97267">
        <ele>690.0591</ele>
        <time>2021-07-19T19:10:47Z</time>
      </trkpt>
      <trkpt lat="38.95052" lon="-1.96972">
        <ele>690.164</ele>
        <time>2021-07-19T19:10:58Z</time>
      </trkpt>
      <trkpt lat="38.95164" lon="-1.96694">
        <ele>690.4115</ele>
        <time>2021-07-19T19:11:09Z</time>
      </trkpt>
      <trkpt lat="38.95274" lon="-1.96415">
        <ele>690.936</ele>
        <time>2021-07-19T19:11:20Z</time>
      </trkpt>
      <trkpt lat="38.95388" lon="-1.96129">
        <ele>691.2161</ele>
        <time>2021-07-19T19:11:31Z</time>
      </trkpt>
      <trkpt lat="38.95504" lon="-1.95845">
        <ele>694.6855</ele>
        <time>2021-07-19T19:11:42Z</time>
      </trkpt>
      <trkpt lat="38.95601" lon="-1.95594">
        <ele>702.4101</ele>
        <time>2021-07-19T19:11:53Z</time>
      </trkpt>
      <trkpt lat="38.95704" lon="-1.95333">
        <ele>703.1691</ele>
        <time>2021-07-19T19:12:04Z</time>
      </trkpt>
      <trkpt lat="38.95807" lon="-1.9508">
        <ele>699.7994</ele>
        <time>2021-07-19T19:12:15Z</time>
      </trkpt>
      <trkpt lat="38.95901" lon="-1.94841">
        <ele>695.53</ele>
        <time>2021-07-19T19:12:26Z</time>
      </trkpt>
      <trkpt lat="38.95993" lon="-1.94611">
        <ele>698.5207</ele>
        <time>2021-07-19T19:12:37Z</time>
      </trkpt>
      <trkpt lat="38.96077" lon="-1.94399">
        <ele>695.5722</ele>
        <time>2021-07-19T19:12:48Z</time>
      </trkpt>
      <trkpt lat="38.96137" lon="-1.94267">
        <ele>692.3866</ele>
        <time>2021-07-19T19:12:59Z</time>
      </trkpt>
      <trkpt lat="38.96196" lon="-1.94168">
        <ele>693.7803</ele>
        <time>2021-07-19T19:13:10Z</time>
      </trkpt>
      <trkpt lat="38.96252" lon="-1.94032">
        <ele>702.0026</ele>
        <time>2021-07-19T19:13:21Z</time>
      </trkpt>
      <trkpt lat="38.96319" lon="-1.93886">
        <ele>697.7187</ele>
        <time>2021-07-19T19:13:32Z</time>
      </trkpt>
      <trkpt lat="38.96385" lon="-1.93727">
        <ele>699.4906</ele>
        <time>2021-07-19T19:13:43Z</time>
      </trkpt>
      <trkpt lat="38.96449" lon="-1.93559">
        <ele>701.7619</ele>
        <time>2021-07-19T19:13:54Z</time>
      </trkpt>
      <trkpt lat="38.96521" lon="-1.93388">
        <ele>699.3126</ele>
        <time>2021-07-19T19:14:05Z</time>
      </trkpt>
      <trkpt lat="38.96588" lon="-1.93229">
        <ele>702.2355</ele>
        <time>2021-07-19T19:14:16Z</time>
      </trkpt>
      <trkpt lat="38.96626" lon="-1.93094">
        <ele>694.9618</ele>
        <time>2021-07-19T19:14:27Z</time>
      </trkpt>
      <trkpt lat="38.96673" lon="-1.92974">
        <ele>697.1326</ele>
        <time>2021-07-19T19:14:38Z</time>
      </trkpt>
      <trkpt lat="38.96752" lon="-1.92822">
        <ele>693.7944</ele>
        <time>2021-07-19T19:14:49Z</time>
      </trkpt>
      <trkpt lat="38.96804" lon="-1.92561">
        <ele>688.2447</ele>
        <time>2021-07-19T19:15:00Z</time>
      </trkpt>
      <trkpt lat="38.96892" lon="-1.92335">
        <ele>685.8661</ele>
        <time>2021-07-19T19:15:11Z</time>
      </trkpt>
      <trkpt lat="38.96893" lon="-1.92255">
        <ele>684.7136</ele>
        <time>2021-07-19T19:15:22Z</time>
      </trkpt>
      <trkpt lat="38.96976" lon="-1.92264">
        <ele>685.1252</ele>
        <time>2021-07-19T19:15:33Z</time>
      </trkpt>
      <trkpt lat="38.96976" lon="-1.92275">
        <ele>686.2872</ele>
        <time>2021-07-19T19:15:44Z</time>
      </trkpt>
      <trkpt lat="38.96975" lon="-1.92275">
        <ele>686.0381</ele>
        <time>2021-07-19T19:16:42Z</time>
      </trkpt>
      <trkpt lat="38.96979" lon="-1.92275">
        <ele>685.282</ele>
        <time>2021-07-19T19:16:53Z</time>
      </trkpt>
      <trkpt lat="38.96981" lon="-1.92274">
        <ele>682.7139</ele>
        <time>2021-07-19T19:17:51Z</time>
      </trkpt>
      <trkpt lat="38.96981" lon="-1.92273">
        <ele>683.6206</ele>
        <time>2021-07-19T19:18:49Z</time>
      </trkpt>
      <trkpt lat="38.9698" lon="-1.92274">
        <ele>682.802</ele>
        <time>2021-07-19T19:19:49Z</time>
      </trkpt>
      <trkpt lat="38.96978" lon="-1.92273">
        <ele>684.6225</ele>
        <time>2021-07-19T19:20:48Z</time>
      </trkpt>
      <trkpt lat="38.96972" lon="-1.92276">
        <ele>685.4132</ele>
        <time>2021-07-19T19:20:59Z</time>
      </trkpt>
      <trkpt lat="38.96972" lon="-1.92275">
        <ele>685.7106</ele>
        <time>2021-07-19T19:21:58Z</time>
      </trkpt>
      <trkpt lat="38.96915" lon="-1.92306">
        <ele>687.1152</ele>
        <time>2021-07-19T19:22:09Z</time>
      </trkpt>
      <trkpt lat="38.96815" lon="-1.92548">
        <ele>687.0314</ele>
        <time>2021-07-19T19:22:20Z</time>
      </trkpt>
      <trkpt lat="38.96801" lon="-1.92737">
        <ele>687.3469</ele>
        <time>2021-07-19T19:22:31Z</time>
      </trkpt>
      <trkpt lat="38.96933" lon="-1.92705">
        <ele>685.9719</ele>
        <time>2021-07-19T19:22:42Z</time>
      </trkpt>
      <trkpt lat="38.97117" lon="-1.92536">
        <ele>688.076</ele>
        <time>2021-07-19T19:22:53Z</time>
      </trkpt>
      <trkpt lat="38.97326" lon="-1.92345">
        <ele>687.4899</ele>
        <time>2021-07-19T19:23:04Z</time>
      </trkpt>
      <trkpt lat="38.97537" lon="-1.92151">
        <ele>689.1509</ele>
        <time>2021-07-19T19:23:15Z</time>
      </trkpt>
      <trkpt lat="38.97747" lon="-1.9197">
        <ele>686.0614</ele>
        <time>2021-07-19T19:23:26Z</time>
      </trkpt>
      <trkpt lat="38.98003" lon="-1.91826">
        <ele>682.9362</ele>
        <time>2021-07-19T19:23:37Z</time>
      </trkpt>
      <trkpt lat="38.98287" lon="-1.91763">
        <ele>684.3247</ele>
        <time>2021-07-19T19:23:48Z</time>
      </trkpt>
      <trkpt lat="38.98577" lon="-1.91782">
        <ele>683.8795</ele>
        <time>2021-07-19T19:23:59Z</time>
      </trkpt>
      <trkpt lat="38.9887" lon="-1.91803">
        <ele>682.5549</ele>
        <time>2021-07-19T19:24:10Z</time>
      </trkpt>
      <trkpt lat="38.99161" lon="-1.91791">
        <ele>682.3768</ele>
        <time>2021-07-19T19:24:21Z</time>
      </trkpt>
      <trkpt lat="38.9944" lon="-1.91711">
        <ele>682.6616</ele>
        <time>2021-07-19T19:24:32Z</time>
      </trkpt>
      <trkpt lat="38.99682" lon="-1.9151">
        <ele>681.6137</ele>
        <time>2021-07-19T19:24:43Z</time>
      </trkpt>
      <trkpt lat="38.99852" lon="-1.91212">
        <ele>678.8468</ele>
        <time>2021-07-19T19:24:54Z</time>
      </trkpt>
      <trkpt lat="38.99967" lon="-1.9089">
        <ele>680.7338</ele>
        <time>2021-07-19T19:25:05Z</time>
      </trkpt>
      <trkpt lat="39.00075" lon="-1.9059">
        <ele>682.5621</ele>
        <time>2021-07-19T19:25:16Z</time>
      </trkpt>
      <trkpt lat="39.00192" lon="-1.90262">
        <ele>682.1278</ele>
        <time>2021-07-19T19:25:27Z</time>
      </trkpt>
      <trkpt lat="39.00306" lon="-1.89942">
        <ele>684.4825</ele>
        <time>2021-07-19T19:25:38Z</time>
      </trkpt>
      <trkpt lat="39.00416" lon="-1.89637">
        <ele>685.1147</ele>
        <time>2021-07-19T19:25:49Z</time>
      </trkpt>
      <trkpt lat="39.00521" lon="-1.89342">
        <ele>682.2742</ele>
        <time>2021-07-19T19:26:00Z</time>
      </trkpt>
      <trkpt lat="39.00631" lon="-1.89031">
        <ele>681.3772</ele>
        <time>2021-07-19T19:26:11Z</time>
      </trkpt>
      <trkpt lat="39.00744" lon="-1.88715">
        <ele>679.6698</ele>
        <time>2021-07-19T19:26:22Z</time>
      </trkpt>
      <trkpt lat="39.00859" lon="-1.88392">
        <ele>679.6158</ele>
        <time>2021-07-19T19:26:33Z</time>
      </trkpt>
      <trkpt lat="39.00975" lon="-1.88068">
        <ele>679.6027</ele>
        <time>2021-07-19T19:26:44Z</time>
      </trkpt>
      <trkpt lat="39.01073" lon="-1.8779">
        <ele>679.2226</ele>
        <time>2021-07-19T19:26:55Z</time>
      </trkpt>
      <trkpt lat="39.01145" lon="-1.87497">
        <ele>680.2224</ele>
        <time>2021-07-19T19:27:06Z</time>
      </trkpt>
      <trkpt lat="39.01178" lon="-1.87186">
        <ele>679.766</ele>
        <time>2021-07-19T19:27:17Z</time>
      </trkpt>
      <trkpt lat="39.01167" lon="-1.86873">
        <ele>678.5405</ele>
        <time>2021-07-19T19:27:28Z</time>
      </trkpt>
      <trkpt lat="39.01144" lon="-1.86547">
        <ele>677.8648</ele>
        <time>2021-07-19T19:27:39Z</time>
      </trkpt>
      <trkpt lat="39.01182" lon="-1.86226">
        <ele>681.6165</ele>
        <time>2021-07-19T19:27:50Z</time>
      </trkpt>
      <trkpt lat="39.01317" lon="-1.85962">
        <ele>685.2932</ele>
        <time>2021-07-19T19:28:01Z</time>
      </trkpt>
      <trkpt lat="39.01518" lon="-1.8576">
        <ele>682.687</ele>
        <time>2021-07-19T19:28:12Z</time>
      </trkpt>
      <trkpt lat="39.01766" lon="-1.85614">
        <ele>678.6112</ele>
        <time>2021-07-19T19:28:23Z</time>
      </trkpt>
      <trkpt lat="39.02002" lon="-1.85452">
        <ele>679.2037</ele>
        <time>2021-07-19T19:28:34Z</time>
      </trkpt>
      <trkpt lat="39.02243" lon="-1.85289">
        <ele>677.0917</ele>
        <time>2021-07-19T19:28:45Z</time>
      </trkpt>
      <trkpt lat="39.02483" lon="-1.85124">
        <ele>679.1379</ele>
        <time>2021-07-19T19:28:56Z</time>
      </trkpt>
      <trkpt lat="39.0272" lon="-1.84956">
        <ele>681.2997</ele>
        <time>2021-07-19T19:29:07Z</time>
      </trkpt>
      <trkpt lat="39.02951" lon="-1.84793">
        <ele>682.4412</ele>
        <time>2021-07-19T19:29:18Z</time>
      </trkpt>
      <trkpt lat="39.03182" lon="-1.84629">
        <ele>681.9849</ele>
        <time>2021-07-19T19:29:29Z</time>
      </trkpt>
      <trkpt lat="39.03409" lon="-1.84468">
        <ele>684.4823</ele>
        <time>2021-07-19T19:29:40Z</time>
      </trkpt>
      <trkpt lat="39.0364" lon="-1.84305">
        <ele>686.354</ele>
        <time>2021-07-19T19:29:51Z</time>
      </trkpt>
      <trkpt lat="39.03878" lon="-1.84136">
        <ele>684.7303</ele>
        <time>2021-07-19T19:30:02Z</time>
      </trkpt>
      <trkpt lat="39.04117" lon="-1.83967">
        <ele>683.8343</ele>
        <time>2021-07-19T19:30:13Z</time>
      </trkpt>
      <trkpt lat="39.04354" lon="-1.83799">
        <ele>683.7234</ele>
        <time>2021-07-19T19:30:24Z</time>
      </trkpt>
      <trkpt lat="39.0459" lon="-1.83633">
        <ele>684.9567</ele>
        <time>2021-07-19T19:30:35Z</time>
      </trkpt>
      <trkpt lat="39.04819" lon="-1.83471">
        <ele>684.515</ele>
        <time>2021-07-19T19:30:46Z</time>
      </trkpt>
      <trkpt lat="39.05053" lon="-1.83312">
        <ele>683.4556</ele>
        <time>2021-07-19T19:30:57Z</time>
      </trkpt>
      <trkpt lat="39.05292" lon="-1.83143">
        <ele>683.6137</ele>
        <time>2021-07-19T19:31:08Z</time>
      </trkpt>
      <trkpt lat="39.05531" lon="-1.82974">
        <ele>683.1481</ele>
        <time>2021-07-19T19:31:19Z</time>
      </trkpt>
      <trkpt lat="39.05775" lon="-1.82802">
        <ele>683.3018</ele>
        <time>2021-07-19T19:31:30Z</time>
      </trkpt>
      <trkpt lat="39.06018" lon="-1.8263">
        <ele>682.8036</ele>
        <time>2021-07-19T19:31:41Z</time>
      </trkpt>
      <trkpt lat="39.06259" lon="-1.82459">
        <ele>681.2086</ele>
        <time>2021-07-19T19:31:52Z</time>
      </trkpt>
      <trkpt lat="39.065" lon="-1.82288">
        <ele>680.0236</ele>
        <time>2021-07-19T19:32:03Z</time>
      </trkpt>
      <trkpt lat="39.06741" lon="-1.82117">
        <ele>678.6979</ele>
        <time>2021-07-19T19:32:14Z</time>
      </trkpt>
      <trkpt lat="39.06984" lon="-1.81946">
        <ele>678.4258</ele>
        <time>2021-07-19T19:32:25Z</time>
      </trkpt>
      <trkpt lat="39.07225" lon="-1.81775">
        <ele>681.8301</ele>
        <time>2021-07-19T19:32:36Z</time>
      </trkpt>
      <trkpt lat="39.07473" lon="-1.81599">
        <ele>684.6335</ele>
        <time>2021-07-19T19:32:47Z</time>
      </trkpt>
      <trkpt lat="39.07721" lon="-1.81423">
        <ele>682.8676</ele>
        <time>2021-07-19T19:32:58Z</time>
      </trkpt>
      <trkpt lat="39.07965" lon="-1.81249">
        <ele>683.3745</ele>
        <time>2021-07-19T19:33:09Z</time>
      </trkpt>
      <trkpt lat="39.08191" lon="-1.81089">
        <ele>685.7388</ele>
        <time>2021-07-19T19:33:20Z</time>
      </trkpt>
      <trkpt lat="39.08396" lon="-1.80943">
        <ele>686.0927</ele>
        <time>2021-07-19T19:33:31Z</time>
      </trkpt>
      <trkpt lat="39.08605" lon="-1.80796">
        <ele>688.8797</ele>
        <time>2021-07-19T19:33:42Z</time>
      </trkpt>
      <trkpt lat="39.08811" lon="-1.80649">
        <ele>687.5504</ele>
        <time>2021-07-19T19:33:53Z</time>
      </trkpt>
      <trkpt lat="39.09015" lon="-1.80505">
        <ele>685.0972</ele>
        <time>2021-07-19T19:34:04Z</time>
      </trkpt>
      <trkpt lat="39.09223" lon="-1.80357">
        <ele>688.1022</ele>
        <time>2021-07-19T19:34:15Z</time>
      </trkpt>
      <trkpt lat="39.09433" lon="-1.80208">
        <ele>689.1372</ele>
        <time>2021-07-19T19:34:26Z</time>
      </trkpt>
      <trkpt lat="39.09638" lon="-1.80063">
        <ele>691.5444</ele>
        <time>2021-07-19T19:34:37Z</time>
      </trkpt>
      <trkpt lat="39.09837" lon="-1.79922">
        <ele>689.7522</ele>
        <time>2021-07-19T19:34:48Z</time>
      </trkpt>
      <trkpt lat="39.10043" lon="-1.79776">
        <ele>685.2549</ele>
        <time>2021-07-19T19:34:59Z</time>
      </trkpt>
      <trkpt lat="39.10252" lon="-1.79629">
        <ele>680.6996</ele>
        <time>2021-07-19T19:35:10Z</time>
      </trkpt>
      <trkpt lat="39.10472" lon="-1.79473">
        <ele>681.2401</ele>
        <time>2021-07-19T19:35:21Z</time>
      </trkpt>
      <trkpt lat="39.10697" lon="-1.79315">
        <ele>677.7847</ele>
        <time>2021-07-19T19:35:32Z</time>
      </trkpt>
      <trkpt lat="39.1092" lon="-1.79157">
        <ele>676.5329</ele>
        <time>2021-07-19T19:35:43Z</time>
      </trkpt>
      <trkpt lat="39.11147" lon="-1.78996">
        <ele>676.9868</ele>
        <time>2021-07-19T19:35:54Z</time>
      </trkpt>
      <trkpt lat="39.11375" lon="-1.78833">
        <ele>675.006</ele>
        <time>2021-07-19T19:36:05Z</time>
      </trkpt>
      <trkpt lat="39.11604" lon="-1.78671">
        <ele>676.5162</ele>
        <time>2021-07-19T19:36:16Z</time>
      </trkpt>
      <trkpt lat="39.11832" lon="-1.78509">
        <ele>677.6808</ele>
        <time>2021-07-19T19:36:27Z</time>
      </trkpt>
      <trkpt lat="39.12058" lon="-1.7835">
        <ele>677.7799</ele>
        <time>2021-07-19T19:36:38Z</time>
      </trkpt>
      <trkpt lat="39.12287" lon="-1.78187">
        <ele>679.1717</ele>
        <time>2021-07-19T19:36:49Z</time>
      </trkpt>
      <trkpt lat="39.12526" lon="-1.78019">
        <ele>674.979</ele>
        <time>2021-07-19T19:37:00Z</time>
      </trkpt>
      <trkpt lat="39.12767" lon="-1.77848">
        <ele>670.0795</ele>
        <time>2021-07-19T19:37:11Z</time>
      </trkpt>
      <trkpt lat="39.13008" lon="-1.77678">
        <ele>669.7865</ele>
        <time>2021-07-19T19:37:22Z</time>
      </trkpt>
      <trkpt lat="39.13248" lon="-1.77508">
        <ele>668.1419</ele>
        <time>2021-07-19T19:37:33Z</time>
      </trkpt>
      <trkpt lat="39.13481" lon="-1.77339">
        <ele>669.1755</ele>
        <time>2021-07-19T19:37:44Z</time>
      </trkpt>
      <trkpt lat="39.13711" lon="-1.77175">
        <ele>672.7651</ele>
        <time>2021-07-19T19:37:55Z</time>
      </trkpt>
      <trkpt lat="39.13926" lon="-1.7697">
        <ele>664.5662</ele>
        <time>2021-07-19T19:38:06Z</time>
      </trkpt>
      <trkpt lat="39.14073" lon="-1.76706">
        <ele>648.9785</ele>
        <time>2021-07-19T19:38:17Z</time>
      </trkpt>
      <trkpt lat="39.14184" lon="-1.76479">
        <ele>637.092</ele>
        <time>2021-07-19T19:38:28Z</time>
      </trkpt>
      <trkpt lat="39.14292" lon="-1.76371">
        <ele>632.0201</ele>
        <time>2021-07-19T19:38:39Z</time>
      </trkpt>
      <trkpt lat="39.14357" lon="-1.76279">
        <ele>626.2598</ele>
        <time>2021-07-19T19:38:50Z</time>
      </trkpt>
      <trkpt lat="39.14312" lon="-1.76148">
        <ele>620.1633</ele>
        <time>2021-07-19T19:39:01Z</time>
      </trkpt>
      <trkpt lat="39.14274" lon="-1.7601">
        <ele>616.0886</ele>
        <time>2021-07-19T19:39:12Z</time>
      </trkpt>
      <trkpt lat="39.14266" lon="-1.75978">
        <ele>617.6562</ele>
        <time>2021-07-19T19:39:23Z</time>
      </trkpt>
      <trkpt lat="39.14227" lon="-1.75861">
        <ele>614.6288</ele>
        <time>2021-07-19T19:39:34Z</time>
      </trkpt>
      <trkpt lat="39.14168" lon="-1.75749">
        <ele>613.0646</ele>
        <time>2021-07-19T19:39:45Z</time>
      </trkpt>
      <trkpt lat="39.14118" lon="-1.75668">
        <ele>610.1874</ele>
        <time>2021-07-19T19:39:56Z</time>
      </trkpt>
      <trkpt lat="39.1406" lon="-1.75556">
        <ele>610.2773</ele>
        <time>2021-07-19T19:40:07Z</time>
      </trkpt>
      <trkpt lat="39.13994" lon="-1.75426">
        <ele>611.1002</ele>
        <time>2021-07-19T19:40:18Z</time>
      </trkpt>
      <trkpt lat="39.13908" lon="-1.75271">
        <ele>609.4318</ele>
        <time>2021-07-19T19:40:29Z</time>
      </trkpt>
      <trkpt lat="39.13843" lon="-1.75147">
        <ele>608.641</ele>
        <time>2021-07-19T19:40:40Z</time>
      </trkpt>
      <trkpt lat="39.13761" lon="-1.75042">
        <ele>611.253</ele>
        <time>2021-07-19T19:40:51Z</time>
      </trkpt>
      <trkpt lat="39.13736" lon="-1.75015">
        <ele>612.0084</ele>
        <time>2021-07-19T19:41:02Z</time>
      </trkpt>
      <trkpt lat="39.13676" lon="-1.74903">
        <ele>613.3309</ele>
        <time>2021-07-19T19:41:13Z</time>
      </trkpt>
      <trkpt lat="39.13663" lon="-1.74865">
        <ele>613.2944</ele>
        <time>2021-07-19T19:41:24Z</time>
      </trkpt>
      <trkpt lat="39.13671" lon="-1.74886">
        <ele>610.3589</ele>
        <time>2021-07-19T19:41:35Z</time>
      </trkpt>
      <trkpt lat="39.13723" lon="-1.74916">
        <ele>612.2459</ele>
        <time>2021-07-19T19:41:46Z</time>
      </trkpt>
      <trkpt lat="39.1375" lon="-1.74943">
        <ele>616.6891</ele>
        <time>2021-07-19T19:41:57Z</time>
      </trkpt>
      <trkpt lat="39.13715" lon="-1.74908">
        <ele>615.8679</ele>
        <time>2021-07-19T19:42:08Z</time>
      </trkpt>
      <trkpt lat="39.13692" lon="-1.74863">
        <ele>611.9746</ele>
        <time>2021-07-19T19:42:19Z</time>
      </trkpt>
      <trkpt lat="39.13686" lon="-1.74851">
        <ele>615.4132</ele>
        <time>2021-07-19T19:42:30Z</time>
      </trkpt>
      <trkpt lat="39.13731" lon="-1.74999">
        <ele>615.3574</ele>
        <time>2021-07-19T19:42:41Z</time>
      </trkpt>
      <trkpt lat="39.13855" lon="-1.75155">
        <ele>613.1836</ele>
        <time>2021-07-19T19:42:52Z</time>
      </trkpt>
      <trkpt lat="39.13911" lon="-1.75258">
        <ele>609.7479</ele>
        <time>2021-07-19T19:43:03Z</time>
      </trkpt>
      <trkpt lat="39.13909" lon="-1.75257">
        <ele>615.0958</ele>
        <time>2021-07-19T19:44:02Z</time>
      </trkpt>
      <trkpt lat="39.13911" lon="-1.75261">
        <ele>616.0831</ele>
        <time>2021-07-19T19:44:31Z</time>
      </trkpt>
      <trkpt lat="39.13871" lon="-1.75189">
        <ele>615.2427</ele>
        <time>2021-07-19T19:44:42Z</time>
      </trkpt>
      <trkpt lat="39.13791" lon="-1.75074">
        <ele>614.3679</ele>
        <time>2021-07-19T19:44:53Z</time>
      </trkpt>
      <trkpt lat="39.13724" lon="-1.74999">
        <ele>615.0994</ele>
        <time>2021-07-19T19:45:04Z</time>
      </trkpt>
      <trkpt lat="39.13676" lon="-1.74907">
        <ele>611.7714</ele>
        <time>2021-07-19T19:45:15Z</time>
      </trkpt>
      <trkpt lat="39.13649" lon="-1.74798">
        <ele>610.6957</ele>
        <time>2021-07-19T19:45:26Z</time>
      </trkpt>
      <trkpt lat="39.13636" lon="-1.74693">
        <ele>611.0593</ele>
        <time>2021-07-19T19:45:37Z</time>
      </trkpt>
      <trkpt lat="39.13666" lon="-1.74581">
        <ele>612.486</ele>
        <time>2021-07-19T19:45:48Z</time>
      </trkpt>
      <trkpt lat="39.13697" lon="-1.74477">
        <ele>619.3277</ele>
        <time>2021-07-19T19:45:59Z</time>
      </trkpt>
      <trkpt lat="39.13757" lon="-1.74415">
        <ele>608.1825</ele>
        <time>2021-07-19T19:46:10Z</time>
      </trkpt>
      <trkpt lat="39.13816" lon="-1.74373">
        <ele>608.7313</ele>
        <time>2021-07-19T19:46:21Z</time>
      </trkpt>
      <trkpt lat="39.13833" lon="-1.74374">
        <ele>608.7561</ele>
        <time>2021-07-19T19:46:32Z</time>
      </trkpt>
      <trkpt lat="39.13846" lon="-1.74376">
        <ele>607.6026</ele>
        <time>2021-07-19T19:46:43Z</time>
      </trkpt>
      <trkpt lat="39.13799" lon="-1.74406">
        <ele>607.0535</ele>
        <time>2021-07-19T19:46:54Z</time>
      </trkpt>
      <trkpt lat="39.13757" lon="-1.74454">
        <ele>605.8367</ele>
        <time>2021-07-19T19:47:05Z</time>
      </trkpt>
      <trkpt lat="39.13749" lon="-1.74464">
        <ele>613.9174</ele>
        <time>2021-07-19T19:47:16Z</time>
      </trkpt>
      <trkpt lat="39.13752" lon="-1.74461">
        <ele>623.5323</ele>
        <time>2021-07-19T19:47:32Z</time>
      </trkpt>
      <trkpt lat="39.13791" lon="-1.74412">
        <ele>620.7891</ele>
        <time>2021-07-19T19:47:43Z</time>
      </trkpt>
      <trkpt lat="39.13841" lon="-1.74386">
        <ele>612.3879</ele>
        <time>2021-07-19T19:47:54Z</time>
      </trkpt>
      <trkpt lat="39.13877" lon="-1.74379">
        <ele>609.9119</ele>
        <time>2021-07-19T19:48:05Z</time>
      </trkpt>
      <trkpt lat="39.13926" lon="-1.74395">
        <ele>606.2986</ele>
        <time>2021-07-19T19:48:16Z</time>
      </trkpt>
      <trkpt lat="39.13937" lon="-1.74392">
        <ele>608.5994</ele>
        <time>2021-07-19T19:48:27Z</time>
      </trkpt>
      <trkpt lat="39.13939" lon="-1.74397">
        <ele>609.0896</ele>
        <time>2021-07-19T19:48:38Z</time>
      </trkpt>
      <trkpt lat="39.13933" lon="-1.74392">
        <ele>607.3662</ele>
        <time>2021-07-19T19:49:30Z</time>
      </trkpt>
      <trkpt lat="39.13851" lon="-1.74377">
        <ele>608.2402</ele>
        <time>2021-07-19T19:49:41Z</time>
      </trkpt>
      <trkpt lat="39.13792" lon="-1.74394">
        <ele>609.0799</ele>
        <time>2021-07-19T19:49:52Z</time>
      </trkpt>
      <trkpt lat="39.13717" lon="-1.74457">
        <ele>611.1786</ele>
        <time>2021-07-19T19:50:03Z</time>
      </trkpt>
      <trkpt lat="39.13752" lon="-1.74368">
        <ele>617.464</ele>
        <time>2021-07-19T19:50:14Z</time>
      </trkpt>
      <trkpt lat="39.13761" lon="-1.7423">
        <ele>626.0859</ele>
        <time>2021-07-19T19:50:25Z</time>
      </trkpt>
      <trkpt lat="39.1374" lon="-1.74132">
        <ele>634.4189</ele>
        <time>2021-07-19T19:50:36Z</time>
      </trkpt>
      <trkpt lat="39.13726" lon="-1.74083">
        <ele>631.9297</ele>
        <time>2021-07-19T19:50:47Z</time>
      </trkpt>
      <trkpt lat="39.13695" lon="-1.73959">
        <ele>637.0141</ele>
        <time>2021-07-19T19:50:58Z</time>
      </trkpt>
      <trkpt lat="39.13669" lon="-1.73831">
        <ele>640.5703</ele>
        <time>2021-07-19T19:51:09Z</time>
      </trkpt>
      <trkpt lat="39.13698" lon="-1.73818">
        <ele>640.0942</ele>
        <time>2021-07-19T19:51:20Z</time>
      </trkpt>
      <trkpt lat="39.13747" lon="-1.73802">
        <ele>637.2523</ele>
        <time>2021-07-19T19:51:31Z</time>
      </trkpt>
      <trkpt lat="39.13806" lon="-1.73812">
        <ele>635.1209</ele>
        <time>2021-07-19T19:51:42Z</time>
      </trkpt>
      <trkpt lat="39.13857" lon="-1.73834">
        <ele>626.6268</ele>
        <time>2021-07-19T19:51:53Z</time>
      </trkpt>
      <trkpt lat="39.13905" lon="-1.73877">
        <ele>632.3786</ele>
        <time>2021-07-19T19:52:04Z</time>
      </trkpt>
      <trkpt lat="39.13952" lon="-1.73828">
        <ele>628.2028</ele>
        <time>2021-07-19T19:52:15Z</time>
      </trkpt>
      <trkpt lat="39.14005" lon="-1.73768">
        <ele>627.434</ele>
        <time>2021-07-19T19:52:26Z</time>
      </trkpt>
      <trkpt lat="39.14051" lon="-1.73721">
        <ele>625.8106</ele>
        <time>2021-07-19T19:52:37Z</time>
      </trkpt>
      <trkpt lat="39.14089" lon="-1.73693">
        <ele>625.9286</ele>
        <time>2021-07-19T19:52:48Z</time>
      </trkpt>
      <trkpt lat="39.14138" lon="-1.73645">
        <ele>625.7242</ele>
        <time>2021-07-19T19:52:59Z</time>
      </trkpt>
      <trkpt lat="39.14167" lon="-1.73616">
        <ele>624.5477</ele>
        <time>2021-07-19T19:53:10Z</time>
      </trkpt>
      <trkpt lat="39.1421" lon="-1.73569">
        <ele>624.6853</ele>
        <time>2021-07-19T19:53:21Z</time>
      </trkpt>
      <trkpt lat="39.14192" lon="-1.73591">
        <ele>623.2652</ele>
        <time>2021-07-19T19:53:32Z</time>
      </trkpt>
      <trkpt lat="39.1411" lon="-1.73677">
        <ele>624.4544</ele>
        <time>2021-07-19T19:53:43Z</time>
      </trkpt>
      <trkpt lat="39.14105" lon="-1.73732">
        <ele>625.2875</ele>
        <time>2021-07-19T19:53:54Z</time>
      </trkpt>
      <trkpt lat="39.14111" lon="-1.7375">
        <ele>624.9279</ele>
        <time>2021-07-19T19:54:05Z</time>
      </trkpt>
      <trkpt lat="39.14113" lon="-1.73759">
        <ele>624.5135</ele>
        <time>2021-07-19T19:54:31Z</time>
      </trkpt>
      <trkpt lat="39.14187" lon="-1.73866">
        <ele>625.4032</ele>
        <time>2021-07-19T19:54:42Z</time>
      </trkpt>
      <trkpt lat="39.14228" lon="-1.73919">
        <ele>623.3493</ele>
        <time>2021-07-19T19:54:53Z</time>
      </trkpt>
      <trkpt lat="39.14258" lon="-1.73903">
        <ele>623.258</ele>
        <time>2021-07-19T19:55:04Z</time>
      </trkpt>
      <trkpt lat="39.14285" lon="-1.7387">
        <ele>624.7513</ele>
        <time>2021-07-19T19:55:15Z</time>
      </trkpt>
      <trkpt lat="39.14315" lon="-1.73846">
        <ele>624.2531</ele>
        <time>2021-07-19T19:55:26Z</time>
      </trkpt>
      <trkpt lat="39.14341" lon="-1.7384">
        <ele>623.4544</ele>
        <time>2021-07-19T19:55:37Z</time>
      </trkpt>
      <trkpt lat="39.14373" lon="-1.73841">
        <ele>624.7795</ele>
        <time>2021-07-19T19:55:48Z</time>
      </trkpt>
      <trkpt lat="39.14372" lon="-1.73833">
        <ele>622.9325</ele>
        <time>2021-07-19T19:55:59Z</time>
      </trkpt>
      <trkpt lat="39.14344" lon="-1.73841">
        <ele>623.2378</ele>
        <time>2021-07-19T19:56:10Z</time>
      </trkpt>
      <trkpt lat="39.1434" lon="-1.73842">
        <ele>624.3714</ele>
        <time>2021-07-19T19:56:24Z</time>
      </trkpt>
      <trkpt lat="39.14336" lon="-1.73843">
        <ele>624.1847</ele>
        <time>2021-07-19T19:57:23Z</time>
      </trkpt>
    </trkseg>
  </trk>
  <trk>
    <name><![CDATA[Road trip fait P/E_13]]></name>
    <extensions>
      <line xmlns="http://www.topografix.com/GPX/gpx_style/0/2">
        <color>FF00FF</color>
        <width>4</width>
      </line>
    </extensions>
    <trkseg>
      <trkpt lat="39.14337" lon="-1.73844">
        <ele>625.1133</ele>
        <time>2021-07-19T19:58:10Z</time>
      </trkpt>
      <trkpt lat="39.14337" lon="-1.73844">
        <ele>625.1133</ele>
        <time>2021-07-19T19:58:10Z</time>
      </trkpt>
      <trkpt lat="39.002" lon="-1.86752">
        <ele>677.5797</ele>
        <time>2021-07-20T08:59:36Z</time>
      </trkpt>
      <trkpt lat="39.00201" lon="-1.86749">
        <ele>677.9617</ele>
        <time>2021-07-20T09:00:35Z</time>
      </trkpt>
      <trkpt lat="39.00203" lon="-1.86742">
        <ele>678.3828</ele>
        <time>2021-07-20T09:00:46Z</time>
      </trkpt>
      <trkpt lat="39.00201" lon="-1.86756">
        <ele>677.6224</ele>
        <time>2021-07-20T09:01:21Z</time>
      </trkpt>
      <trkpt lat="39.00196" lon="-1.86756">
        <ele>677.5747</ele>
        <time>2021-07-20T09:01:33Z</time>
      </trkpt>
      <trkpt lat="39.00193" lon="-1.86751">
        <ele>677.0051</ele>
        <time>2021-07-20T09:01:44Z</time>
      </trkpt>
      <trkpt lat="39.00189" lon="-1.86749">
        <ele>676.6523</ele>
        <time>2021-07-20T09:01:55Z</time>
      </trkpt>
      <trkpt lat="39.00183" lon="-1.86776">
        <ele>677.3928</ele>
        <time>2021-07-20T09:02:06Z</time>
      </trkpt>
      <trkpt lat="39.00178" lon="-1.8678">
        <ele>678.3977</ele>
        <time>2021-07-20T09:02:20Z</time>
      </trkpt>
      <trkpt lat="39.00107" lon="-1.86916">
        <ele>677.4473</ele>
        <time>2021-07-20T09:02:31Z</time>
      </trkpt>
      <trkpt lat="39.0002" lon="-1.8702">
        <ele>678.1253</ele>
        <time>2021-07-20T09:02:42Z</time>
      </trkpt>
      <trkpt lat="38.99933" lon="-1.87089">
        <ele>678.1048</ele>
        <time>2021-07-20T09:02:53Z</time>
      </trkpt>
      <trkpt lat="38.99881" lon="-1.87124">
        <ele>678.3639</ele>
        <time>2021-07-20T09:03:04Z</time>
      </trkpt>
      <trkpt lat="38.9986" lon="-1.87154">
        <ele>680.1024</ele>
        <time>2021-07-20T09:03:15Z</time>
      </trkpt>
      <trkpt lat="38.99853" lon="-1.87124">
        <ele>679.5696</ele>
        <time>2021-07-20T09:03:26Z</time>
      </trkpt>
      <trkpt lat="38.99901" lon="-1.87103">
        <ele>677.8781</ele>
        <time>2021-07-20T09:03:37Z</time>
      </trkpt>
      <trkpt lat="38.99938" lon="-1.87071">
        <ele>678.1939</ele>
        <time>2021-07-20T09:03:48Z</time>
      </trkpt>
      <trkpt lat="38.99974" lon="-1.87044">
        <ele>677.0324</ele>
        <time>2021-07-20T09:03:59Z</time>
      </trkpt>
      <trkpt lat="39.00059" lon="-1.86972">
        <ele>677.1021</ele>
        <time>2021-07-20T09:04:10Z</time>
      </trkpt>
      <trkpt lat="39.00132" lon="-1.86858">
        <ele>677.4916</ele>
        <time>2021-07-20T09:04:21Z</time>
      </trkpt>
      <trkpt lat="39.00198" lon="-1.86748">
        <ele>676.4624</ele>
        <time>2021-07-20T09:04:32Z</time>
      </trkpt>
      <trkpt lat="39.00265" lon="-1.86626">
        <ele>676.3656</ele>
        <time>2021-07-20T09:04:43Z</time>
      </trkpt>
      <trkpt lat="39.00346" lon="-1.86544">
        <ele>676.7385</ele>
        <time>2021-07-20T09:04:54Z</time>
      </trkpt>
      <trkpt lat="39.00392" lon="-1.86509">
        <ele>676.6576</ele>
        <time>2021-07-20T09:05:05Z</time>
      </trkpt>
      <trkpt lat="39.00437" lon="-1.865">
        <ele>677.2585</ele>
        <time>2021-07-20T09:05:16Z</time>
      </trkpt>
      <trkpt lat="39.00511" lon="-1.86517">
        <ele>673.9111</ele>
        <time>2021-07-20T09:05:27Z</time>
      </trkpt>
      <trkpt lat="39.00616" lon="-1.86447">
        <ele>674.0364</ele>
        <time>2021-07-20T09:05:38Z</time>
      </trkpt>
      <trkpt lat="39.00746" lon="-1.86355">
        <ele>674.8274</ele>
        <time>2021-07-20T09:05:49Z</time>
      </trkpt>
      <trkpt lat="39.00826" lon="-1.86293">
        <ele>673.7632</ele>
        <time>2021-07-20T09:06:00Z</time>
      </trkpt>
      <trkpt lat="39.0087" lon="-1.86256">
        <ele>674.6325</ele>
        <time>2021-07-20T09:06:11Z</time>
      </trkpt>
      <trkpt lat="39.01021" lon="-1.86163">
        <ele>674.45</ele>
        <time>2021-07-20T09:06:23Z</time>
      </trkpt>
      <trkpt lat="39.01198" lon="-1.86016">
        <ele>680.5917</ele>
        <time>2021-07-20T09:06:34Z</time>
      </trkpt>
      <trkpt lat="39.01307" lon="-1.85803">
        <ele>675.8745</ele>
        <time>2021-07-20T09:06:45Z</time>
      </trkpt>
      <trkpt lat="39.01248" lon="-1.85695">
        <ele>676.4097</ele>
        <time>2021-07-20T09:06:56Z</time>
      </trkpt>
      <trkpt lat="39.01216" lon="-1.85502">
        <ele>679.5426</ele>
        <time>2021-07-20T09:07:07Z</time>
      </trkpt>
      <trkpt lat="39.01284" lon="-1.85314">
        <ele>674.9449</ele>
        <time>2021-07-20T09:07:18Z</time>
      </trkpt>
      <trkpt lat="39.01369" lon="-1.85266">
        <ele>674.3459</ele>
        <time>2021-07-20T09:07:29Z</time>
      </trkpt>
      <trkpt lat="39.01345" lon="-1.85424">
        <ele>674.0168</ele>
        <time>2021-07-20T09:07:40Z</time>
      </trkpt>
      <trkpt lat="39.0148" lon="-1.8554">
        <ele>674.2853</ele>
        <time>2021-07-20T09:07:51Z</time>
      </trkpt>
      <trkpt lat="39.01652" lon="-1.85656">
        <ele>675.4598</ele>
        <time>2021-07-20T09:08:02Z</time>
      </trkpt>
      <trkpt lat="39.01862" lon="-1.8553">
        <ele>675.8261</ele>
        <time>2021-07-20T09:08:13Z</time>
      </trkpt>
      <trkpt lat="39.02092" lon="-1.85372">
        <ele>676.1058</ele>
        <time>2021-07-20T09:08:24Z</time>
      </trkpt>
      <trkpt lat="39.02325" lon="-1.85214">
        <ele>675.8762</ele>
        <time>2021-07-20T09:08:35Z</time>
      </trkpt>
      <trkpt lat="39.02535" lon="-1.85015">
        <ele>676.8947</ele>
        <time>2021-07-20T09:08:46Z</time>
      </trkpt>
      <trkpt lat="39.02647" lon="-1.84883">
        <ele>679.0059</ele>
        <time>2021-07-20T09:08:57Z</time>
      </trkpt>
      <trkpt lat="39.02838" lon="-1.8483">
        <ele>676.979</ele>
        <time>2021-07-20T09:09:08Z</time>
      </trkpt>
      <trkpt lat="39.03048" lon="-1.84707">
        <ele>679.565</ele>
        <time>2021-07-20T09:09:19Z</time>
      </trkpt>
      <trkpt lat="39.03248" lon="-1.84569">
        <ele>679.9935</ele>
        <time>2021-07-20T09:09:30Z</time>
      </trkpt>
      <trkpt lat="39.03425" lon="-1.84444">
        <ele>680.6429</ele>
        <time>2021-07-20T09:09:41Z</time>
      </trkpt>
      <trkpt lat="39.03594" lon="-1.84326">
        <ele>679.9528</ele>
        <time>2021-07-20T09:09:52Z</time>
      </trkpt>
      <trkpt lat="39.03779" lon="-1.84179">
        <ele>679.4132</ele>
        <time>2021-07-20T09:10:03Z</time>
      </trkpt>
      <trkpt lat="39.03908" lon="-1.84035">
        <ele>682.9767</ele>
        <time>2021-07-20T09:10:14Z</time>
      </trkpt>
      <trkpt lat="39.03984" lon="-1.84011">
        <ele>684.1658</ele>
        <time>2021-07-20T09:10:25Z</time>
      </trkpt>
      <trkpt lat="39.04202" lon="-1.83894">
        <ele>682.9186</ele>
        <time>2021-07-20T09:10:36Z</time>
      </trkpt>
      <trkpt lat="39.04419" lon="-1.83739">
        <ele>682.4887</ele>
        <time>2021-07-20T09:10:47Z</time>
      </trkpt>
      <trkpt lat="39.04637" lon="-1.83584">
        <ele>683.5279</ele>
        <time>2021-07-20T09:10:58Z</time>
      </trkpt>
      <trkpt lat="39.04841" lon="-1.83415">
        <ele>683.5514</ele>
        <time>2021-07-20T09:11:09Z</time>
      </trkpt>
      <trkpt lat="39.04946" lon="-1.83223">
        <ele>684.8986</ele>
        <time>2021-07-20T09:11:20Z</time>
      </trkpt>
      <trkpt lat="39.04977" lon="-1.83265">
        <ele>681.0105</ele>
        <time>2021-07-20T09:11:31Z</time>
      </trkpt>
      <trkpt lat="39.04975" lon="-1.83351">
        <ele>677.96</ele>
        <time>2021-07-20T09:11:42Z</time>
      </trkpt>
      <trkpt lat="39.05179" lon="-1.83223">
        <ele>682.1134</ele>
        <time>2021-07-20T09:11:53Z</time>
      </trkpt>
      <trkpt lat="39.05411" lon="-1.83058">
        <ele>684.164</ele>
        <time>2021-07-20T09:12:04Z</time>
      </trkpt>
      <trkpt lat="39.0564" lon="-1.82896">
        <ele>684.5728</ele>
        <time>2021-07-20T09:12:15Z</time>
      </trkpt>
      <trkpt lat="39.05876" lon="-1.82731">
        <ele>684.3332</ele>
        <time>2021-07-20T09:12:26Z</time>
      </trkpt>
      <trkpt lat="39.06085" lon="-1.82582">
        <ele>682.5852</ele>
        <time>2021-07-20T09:12:37Z</time>
      </trkpt>
      <trkpt lat="39.06332" lon="-1.82407">
        <ele>679.666</ele>
        <time>2021-07-20T09:12:48Z</time>
      </trkpt>
      <trkpt lat="39.06559" lon="-1.82247">
        <ele>677.7428</ele>
        <time>2021-07-20T09:12:59Z</time>
      </trkpt>
      <trkpt lat="39.06788" lon="-1.82086">
        <ele>676.5685</ele>
        <time>2021-07-20T09:13:10Z</time>
      </trkpt>
      <trkpt lat="39.07016" lon="-1.81923">
        <ele>676.7177</ele>
        <time>2021-07-20T09:13:21Z</time>
      </trkpt>
      <trkpt lat="39.07239" lon="-1.81766">
        <ele>681.6638</ele>
        <time>2021-07-20T09:13:32Z</time>
      </trkpt>
      <trkpt lat="39.07465" lon="-1.81605">
        <ele>683.5776</ele>
        <time>2021-07-20T09:13:43Z</time>
      </trkpt>
      <trkpt lat="39.07691" lon="-1.81445">
        <ele>681.9134</ele>
        <time>2021-07-20T09:13:54Z</time>
      </trkpt>
      <trkpt lat="39.07904" lon="-1.81295">
        <ele>680.3471</ele>
        <time>2021-07-20T09:14:05Z</time>
      </trkpt>
      <trkpt lat="39.08096" lon="-1.81158">
        <ele>680.4795</ele>
        <time>2021-07-20T09:14:16Z</time>
      </trkpt>
      <trkpt lat="39.08269" lon="-1.81034">
        <ele>682.3564</ele>
        <time>2021-07-20T09:14:27Z</time>
      </trkpt>
      <trkpt lat="39.0843" lon="-1.8092">
        <ele>685.2999</ele>
        <time>2021-07-20T09:14:38Z</time>
      </trkpt>
      <trkpt lat="39.08642" lon="-1.8077">
        <ele>687.3273</ele>
        <time>2021-07-20T09:14:49Z</time>
      </trkpt>
      <trkpt lat="39.0884" lon="-1.80631">
        <ele>686.8979</ele>
        <time>2021-07-20T09:15:00Z</time>
      </trkpt>
      <trkpt lat="39.09045" lon="-1.80486">
        <ele>685.1973</ele>
        <time>2021-07-20T09:15:11Z</time>
      </trkpt>
      <trkpt lat="39.09256" lon="-1.80335">
        <ele>684.9323</ele>
        <time>2021-07-20T09:15:22Z</time>
      </trkpt>
      <trkpt lat="39.09472" lon="-1.80185">
        <ele>685.8619</ele>
        <time>2021-07-20T09:15:33Z</time>
      </trkpt>
      <trkpt lat="39.09684" lon="-1.80033">
        <ele>685.6395</ele>
        <time>2021-07-20T09:15:44Z</time>
      </trkpt>
      <trkpt lat="39.09882" lon="-1.79889">
        <ele>683.9861</ele>
        <time>2021-07-20T09:15:55Z</time>
      </trkpt>
      <trkpt lat="39.10075" lon="-1.79754">
        <ele>680.0502</ele>
        <time>2021-07-20T09:16:06Z</time>
      </trkpt>
      <trkpt lat="39.10328" lon="-1.79578">
        <ele>679.1869</ele>
        <time>2021-07-20T09:16:17Z</time>
      </trkpt>
      <trkpt lat="39.10532" lon="-1.79429">
        <ele>676.308</ele>
        <time>2021-07-20T09:16:28Z</time>
      </trkpt>
      <trkpt lat="39.10738" lon="-1.79284">
        <ele>673.7461</ele>
        <time>2021-07-20T09:16:39Z</time>
      </trkpt>
      <trkpt lat="39.10948" lon="-1.79135">
        <ele>673.6844</ele>
        <time>2021-07-20T09:16:50Z</time>
      </trkpt>
      <trkpt lat="39.11241" lon="-1.7893">
        <ele>674.6064</ele>
        <time>2021-07-20T09:17:01Z</time>
      </trkpt>
      <trkpt lat="39.1143" lon="-1.78796">
        <ele>671.6379</ele>
        <time>2021-07-20T09:17:12Z</time>
      </trkpt>
      <trkpt lat="39.11624" lon="-1.78657">
        <ele>670.9675</ele>
        <time>2021-07-20T09:17:23Z</time>
      </trkpt>
      <trkpt lat="39.1184" lon="-1.78502">
        <ele>675.7084</ele>
        <time>2021-07-20T09:17:34Z</time>
      </trkpt>
      <trkpt lat="39.121" lon="-1.78319">
        <ele>674.0275</ele>
        <time>2021-07-20T09:17:45Z</time>
      </trkpt>
      <trkpt lat="39.12344" lon="-1.78146">
        <ele>673.6082</ele>
        <time>2021-07-20T09:17:56Z</time>
      </trkpt>
      <trkpt lat="39.12581" lon="-1.77977">
        <ele>670.4699</ele>
        <time>2021-07-20T09:18:07Z</time>
      </trkpt>
      <trkpt lat="39.12812" lon="-1.77813">
        <ele>664.3031</ele>
        <time>2021-07-20T09:18:18Z</time>
      </trkpt>
      <trkpt lat="39.13035" lon="-1.77655">
        <ele>666.4639</ele>
        <time>2021-07-20T09:18:29Z</time>
      </trkpt>
      <trkpt lat="39.13257" lon="-1.77493">
        <ele>667.1251</ele>
        <time>2021-07-20T09:18:40Z</time>
      </trkpt>
      <trkpt lat="39.13462" lon="-1.77348">
        <ele>665.0255</ele>
        <time>2021-07-20T09:18:51Z</time>
      </trkpt>
      <trkpt lat="39.13687" lon="-1.77191">
        <ele>667.8608</ele>
        <time>2021-07-20T09:19:02Z</time>
      </trkpt>
      <trkpt lat="39.13899" lon="-1.77003">
        <ele>662.8666</ele>
        <time>2021-07-20T09:19:13Z</time>
      </trkpt>
      <trkpt lat="39.14059" lon="-1.76739">
        <ele>650.357</ele>
        <time>2021-07-20T09:19:24Z</time>
      </trkpt>
      <trkpt lat="39.14205" lon="-1.76449">
        <ele>634.7894</ele>
        <time>2021-07-20T09:19:35Z</time>
      </trkpt>
      <trkpt lat="39.14474" lon="-1.763">
        <ele>624.7733</ele>
        <time>2021-07-20T09:19:46Z</time>
      </trkpt>
      <trkpt lat="39.14706" lon="-1.76155">
        <ele>632.5332</ele>
        <time>2021-07-20T09:19:57Z</time>
      </trkpt>
      <trkpt lat="39.14849" lon="-1.75953">
        <ele>634.2563</ele>
        <time>2021-07-20T09:20:08Z</time>
      </trkpt>
      <trkpt lat="39.14991" lon="-1.75779">
        <ele>643.4792</ele>
        <time>2021-07-20T09:20:19Z</time>
      </trkpt>
      <trkpt lat="39.15191" lon="-1.75677">
        <ele>652.3712</ele>
        <time>2021-07-20T09:20:30Z</time>
      </trkpt>
      <trkpt lat="39.15453" lon="-1.75699">
        <ele>664.6815</ele>
        <time>2021-07-20T09:20:41Z</time>
      </trkpt>
      <trkpt lat="39.15671" lon="-1.75678">
        <ele>677.6866</ele>
        <time>2021-07-20T09:20:52Z</time>
      </trkpt>
      <trkpt lat="39.15886" lon="-1.75574">
        <ele>683.1132</ele>
        <time>2021-07-20T09:21:03Z</time>
      </trkpt>
      <trkpt lat="39.16134" lon="-1.75441">
        <ele>682.4387</ele>
        <time>2021-07-20T09:21:14Z</time>
      </trkpt>
      <trkpt lat="39.16405" lon="-1.75296">
        <ele>682.457</ele>
        <time>2021-07-20T09:21:25Z</time>
      </trkpt>
      <trkpt lat="39.16651" lon="-1.75165">
        <ele>684.2742</ele>
        <time>2021-07-20T09:21:36Z</time>
      </trkpt>
      <trkpt lat="39.16904" lon="-1.75029">
        <ele>683.6078</ele>
        <time>2021-07-20T09:21:47Z</time>
      </trkpt>
      <trkpt lat="39.17188" lon="-1.74878">
        <ele>685.5972</ele>
        <time>2021-07-20T09:21:58Z</time>
      </trkpt>
      <trkpt lat="39.17457" lon="-1.74735">
        <ele>684.8641</ele>
        <time>2021-07-20T09:22:09Z</time>
      </trkpt>
      <trkpt lat="39.17736" lon="-1.74693">
        <ele>681.7692</ele>
        <time>2021-07-20T09:22:20Z</time>
      </trkpt>
      <trkpt lat="39.17997" lon="-1.74665">
        <ele>676.3884</ele>
        <time>2021-07-20T09:22:31Z</time>
      </trkpt>
      <trkpt lat="39.18205" lon="-1.7448">
        <ele>671.6995</ele>
        <time>2021-07-20T09:22:42Z</time>
      </trkpt>
      <trkpt lat="39.18405" lon="-1.74283">
        <ele>664.6856</ele>
        <time>2021-07-20T09:22:53Z</time>
      </trkpt>
      <trkpt lat="39.18587" lon="-1.74102">
        <ele>660.8959</ele>
        <time>2021-07-20T09:23:04Z</time>
      </trkpt>
      <trkpt lat="39.18808" lon="-1.73918">
        <ele>666.9672</ele>
        <time>2021-07-20T09:23:15Z</time>
      </trkpt>
      <trkpt lat="39.19066" lon="-1.73903">
        <ele>669.207</ele>
        <time>2021-07-20T09:23:26Z</time>
      </trkpt>
      <trkpt lat="39.1936" lon="-1.73789">
        <ele>671.2883</ele>
        <time>2021-07-20T09:23:37Z</time>
      </trkpt>
      <trkpt lat="39.19606" lon="-1.73624">
        <ele>673.0211</ele>
        <time>2021-07-20T09:23:48Z</time>
      </trkpt>
      <trkpt lat="39.19864" lon="-1.73451">
        <ele>675.4732</ele>
        <time>2021-07-20T09:23:59Z</time>
      </trkpt>
      <trkpt lat="39.20107" lon="-1.73288">
        <ele>676.0163</ele>
        <time>2021-07-20T09:24:10Z</time>
      </trkpt>
      <trkpt lat="39.20321" lon="-1.73141">
        <ele>675.5261</ele>
        <time>2021-07-20T09:24:21Z</time>
      </trkpt>
      <trkpt lat="39.20534" lon="-1.73">
        <ele>676.2516</ele>
        <time>2021-07-20T09:24:32Z</time>
      </trkpt>
      <trkpt lat="39.20748" lon="-1.72857">
        <ele>675.1369</ele>
        <time>2021-07-20T09:24:43Z</time>
      </trkpt>
      <trkpt lat="39.20888" lon="-1.72659">
        <ele>669.9045</ele>
        <time>2021-07-20T09:24:54Z</time>
      </trkpt>
      <trkpt lat="39.20955" lon="-1.72462">
        <ele>667.3641</ele>
        <time>2021-07-20T09:25:05Z</time>
      </trkpt>
      <trkpt lat="39.21009" lon="-1.7229">
        <ele>666.9792</ele>
        <time>2021-07-20T09:25:16Z</time>
      </trkpt>
      <trkpt lat="39.21102" lon="-1.7203">
        <ele>667.9494</ele>
        <time>2021-07-20T09:25:27Z</time>
      </trkpt>
      <trkpt lat="39.2121" lon="-1.71723">
        <ele>672.4307</ele>
        <time>2021-07-20T09:25:38Z</time>
      </trkpt>
      <trkpt lat="39.2132" lon="-1.71408">
        <ele>669.2729</ele>
        <time>2021-07-20T09:25:49Z</time>
      </trkpt>
      <trkpt lat="39.21426" lon="-1.71094">
        <ele>674.7397</ele>
        <time>2021-07-20T09:26:00Z</time>
      </trkpt>
      <trkpt lat="39.21532" lon="-1.7079">
        <ele>678.6125</ele>
        <time>2021-07-20T09:26:11Z</time>
      </trkpt>
      <trkpt lat="39.21643" lon="-1.7047">
        <ele>677.8708</ele>
        <time>2021-07-20T09:26:22Z</time>
      </trkpt>
      <trkpt lat="39.21751" lon="-1.70157">
        <ele>682.0375</ele>
        <time>2021-07-20T09:26:33Z</time>
      </trkpt>
      <trkpt lat="39.21853" lon="-1.6986">
        <ele>684.5855</ele>
        <time>2021-07-20T09:26:44Z</time>
      </trkpt>
      <trkpt lat="39.21953" lon="-1.69565">
        <ele>684.8862</ele>
        <time>2021-07-20T09:26:55Z</time>
      </trkpt>
      <trkpt lat="39.22058" lon="-1.69265">
        <ele>683.2401</ele>
        <time>2021-07-20T09:27:06Z</time>
      </trkpt>
      <trkpt lat="39.22154" lon="-1.68987">
        <ele>681.998</ele>
        <time>2021-07-20T09:27:17Z</time>
      </trkpt>
      <trkpt lat="39.22262" lon="-1.68675">
        <ele>682.2002</ele>
        <time>2021-07-20T09:27:28Z</time>
      </trkpt>
      <trkpt lat="39.22376" lon="-1.68347">
        <ele>683.7918</ele>
        <time>2021-07-20T09:27:39Z</time>
      </trkpt>
      <trkpt lat="39.22481" lon="-1.68042">
        <ele>687.2576</ele>
        <time>2021-07-20T09:27:50Z</time>
      </trkpt>
      <trkpt lat="39.22587" lon="-1.67726">
        <ele>694.7726</ele>
        <time>2021-07-20T09:28:01Z</time>
      </trkpt>
      <trkpt lat="39.22695" lon="-1.67418">
        <ele>700.4658</ele>
        <time>2021-07-20T09:28:12Z</time>
      </trkpt>
      <trkpt lat="39.22802" lon="-1.67108">
        <ele>701.114</ele>
        <time>2021-07-20T09:28:23Z</time>
      </trkpt>
      <trkpt lat="39.2291" lon="-1.66797">
        <ele>703.7228</ele>
        <time>2021-07-20T09:28:34Z</time>
      </trkpt>
      <trkpt lat="39.23017" lon="-1.66488">
        <ele>708.6696</ele>
        <time>2021-07-20T09:28:45Z</time>
      </trkpt>
      <trkpt lat="39.2312" lon="-1.66178">
        <ele>717.4921</ele>
        <time>2021-07-20T09:28:56Z</time>
      </trkpt>
      <trkpt lat="39.23231" lon="-1.65864">
        <ele>714.1118</ele>
        <time>2021-07-20T09:29:07Z</time>
      </trkpt>
      <trkpt lat="39.23339" lon="-1.6555">
        <ele>712.3093</ele>
        <time>2021-07-20T09:29:19Z</time>
      </trkpt>
      <trkpt lat="39.23445" lon="-1.65245">
        <ele>718.9862</ele>
        <time>2021-07-20T09:29:30Z</time>
      </trkpt>
      <trkpt lat="39.23518" lon="-1.64927">
        <ele>724.2244</ele>
        <time>2021-07-20T09:29:41Z</time>
      </trkpt>
      <trkpt lat="39.23568" lon="-1.64603">
        <ele>733.1622</ele>
        <time>2021-07-20T09:29:52Z</time>
      </trkpt>
      <trkpt lat="39.23631" lon="-1.6428">
        <ele>737.5591</ele>
        <time>2021-07-20T09:30:03Z</time>
      </trkpt>
      <trkpt lat="39.23718" lon="-1.63927">
        <ele>740.9728</ele>
        <time>2021-07-20T09:30:14Z</time>
      </trkpt>
      <trkpt lat="39.23792" lon="-1.63628">
        <ele>738.0768</ele>
        <time>2021-07-20T09:30:25Z</time>
      </trkpt>
      <trkpt lat="39.23841" lon="-1.63424">
        <ele>738.2997</ele>
        <time>2021-07-20T09:30:36Z</time>
      </trkpt>
      <trkpt lat="39.23898" lon="-1.63192">
        <ele>737.5673</ele>
        <time>2021-07-20T09:30:47Z</time>
      </trkpt>
      <trkpt lat="39.23968" lon="-1.62897">
        <ele>738.7632</ele>
        <time>2021-07-20T09:30:58Z</time>
      </trkpt>
      <trkpt lat="39.24054" lon="-1.62545">
        <ele>738.2429</ele>
        <time>2021-07-20T09:31:09Z</time>
      </trkpt>
      <trkpt lat="39.2412" lon="-1.62279">
        <ele>739.1718</ele>
        <time>2021-07-20T09:31:20Z</time>
      </trkpt>
      <trkpt lat="39.24192" lon="-1.62044">
        <ele>739.4835</ele>
        <time>2021-07-20T09:31:31Z</time>
      </trkpt>
      <trkpt lat="39.2428" lon="-1.61772">
        <ele>737.5449</ele>
        <time>2021-07-20T09:31:42Z</time>
      </trkpt>
      <trkpt lat="39.24388" lon="-1.61446">
        <ele>733.182</ele>
        <time>2021-07-20T09:31:53Z</time>
      </trkpt>
      <trkpt lat="39.24489" lon="-1.61132">
        <ele>728.8407</ele>
        <time>2021-07-20T09:32:04Z</time>
      </trkpt>
      <trkpt lat="39.24597" lon="-1.608">
        <ele>728.2854</ele>
        <time>2021-07-20T09:32:15Z</time>
      </trkpt>
      <trkpt lat="39.24696" lon="-1.60496">
        <ele>731.754</ele>
        <time>2021-07-20T09:32:26Z</time>
      </trkpt>
      <trkpt lat="39.24812" lon="-1.60194">
        <ele>726.4412</ele>
        <time>2021-07-20T09:32:37Z</time>
      </trkpt>
      <trkpt lat="39.24929" lon="-1.59898">
        <ele>723.8601</ele>
        <time>2021-07-20T09:32:48Z</time>
      </trkpt>
      <trkpt lat="39.25054" lon="-1.59615">
        <ele>719.5172</ele>
        <time>2021-07-20T09:32:59Z</time>
      </trkpt>
      <trkpt lat="39.252" lon="-1.59346">
        <ele>708.9955</ele>
        <time>2021-07-20T09:33:10Z</time>
      </trkpt>
      <trkpt lat="39.25309" lon="-1.59029">
        <ele>701.1393</ele>
        <time>2021-07-20T09:33:21Z</time>
      </trkpt>
      <trkpt lat="39.25408" lon="-1.5873">
        <ele>693.5587</ele>
        <time>2021-07-20T09:33:32Z</time>
      </trkpt>
      <trkpt lat="39.25509" lon="-1.58412">
        <ele>689.8574</ele>
        <time>2021-07-20T09:33:43Z</time>
      </trkpt>
      <trkpt lat="39.25649" lon="-1.58089">
        <ele>685.136</ele>
        <time>2021-07-20T09:33:54Z</time>
      </trkpt>
      <trkpt lat="39.25809" lon="-1.57827">
        <ele>678.871</ele>
        <time>2021-07-20T09:34:05Z</time>
      </trkpt>
      <trkpt lat="39.26002" lon="-1.57593">
        <ele>668.8005</ele>
        <time>2021-07-20T09:34:16Z</time>
      </trkpt>
      <trkpt lat="39.26215" lon="-1.57383">
        <ele>658.106</ele>
        <time>2021-07-20T09:34:27Z</time>
      </trkpt>
      <trkpt lat="39.26431" lon="-1.57177">
        <ele>653.3921</ele>
        <time>2021-07-20T09:34:38Z</time>
      </trkpt>
      <trkpt lat="39.26641" lon="-1.5697">
        <ele>655.0716</ele>
        <time>2021-07-20T09:34:49Z</time>
      </trkpt>
      <trkpt lat="39.2684" lon="-1.56744">
        <ele>654.4051</ele>
        <time>2021-07-20T09:35:00Z</time>
      </trkpt>
      <trkpt lat="39.27018" lon="-1.56507">
        <ele>656.3842</ele>
        <time>2021-07-20T09:35:11Z</time>
      </trkpt>
      <trkpt lat="39.27188" lon="-1.56233">
        <ele>664.7728</ele>
        <time>2021-07-20T09:35:22Z</time>
      </trkpt>
      <trkpt lat="39.27337" lon="-1.55945">
        <ele>676.7039</ele>
        <time>2021-07-20T09:35:33Z</time>
      </trkpt>
      <trkpt lat="39.27451" lon="-1.5567">
        <ele>688.3455</ele>
        <time>2021-07-20T09:35:44Z</time>
      </trkpt>
      <trkpt lat="39.27566" lon="-1.55359">
        <ele>698.1929</ele>
        <time>2021-07-20T09:35:55Z</time>
      </trkpt>
      <trkpt lat="39.27683" lon="-1.55045">
        <ele>705.8564</ele>
        <time>2021-07-20T09:36:06Z</time>
      </trkpt>
      <trkpt lat="39.27797" lon="-1.54739">
        <ele>709.4459</ele>
        <time>2021-07-20T09:36:17Z</time>
      </trkpt>
      <trkpt lat="39.2791" lon="-1.54387">
        <ele>710.8266</ele>
        <time>2021-07-20T09:36:28Z</time>
      </trkpt>
      <trkpt lat="39.27998" lon="-1.54072">
        <ele>714.4564</ele>
        <time>2021-07-20T09:36:39Z</time>
      </trkpt>
      <trkpt lat="39.28069" lon="-1.53749">
        <ele>717.2048</ele>
        <time>2021-07-20T09:36:50Z</time>
      </trkpt>
      <trkpt lat="39.28127" lon="-1.53428">
        <ele>721.2418</ele>
        <time>2021-07-20T09:37:01Z</time>
      </trkpt>
      <trkpt lat="39.28171" lon="-1.53086">
        <ele>726.5025</ele>
        <time>2021-07-20T09:37:12Z</time>
      </trkpt>
      <trkpt lat="39.28198" lon="-1.5274">
        <ele>727.4873</ele>
        <time>2021-07-20T09:37:23Z</time>
      </trkpt>
      <trkpt lat="39.28215" lon="-1.52392">
        <ele>724.8699</ele>
        <time>2021-07-20T09:37:34Z</time>
      </trkpt>
      <trkpt lat="39.28228" lon="-1.52062">
        <ele>723.89</ele>
        <time>2021-07-20T09:37:45Z</time>
      </trkpt>
      <trkpt lat="39.28244" lon="-1.51704">
        <ele>723.6711</ele>
        <time>2021-07-20T09:37:56Z</time>
      </trkpt>
      <trkpt lat="39.28232" lon="-1.51339">
        <ele>724.6431</ele>
        <time>2021-07-20T09:38:07Z</time>
      </trkpt>
      <trkpt lat="39.28176" lon="-1.50985">
        <ele>727.1764</ele>
        <time>2021-07-20T09:38:18Z</time>
      </trkpt>
      <trkpt lat="39.28069" lon="-1.50626">
        <ele>730.2812</ele>
        <time>2021-07-20T09:38:29Z</time>
      </trkpt>
      <trkpt lat="39.27934" lon="-1.50324">
        <ele>729.9535</ele>
        <time>2021-07-20T09:38:40Z</time>
      </trkpt>
      <trkpt lat="39.27775" lon="-1.50039">
        <ele>727.9936</ele>
        <time>2021-07-20T09:38:51Z</time>
      </trkpt>
      <trkpt lat="39.27624" lon="-1.49748">
        <ele>725.9573</ele>
        <time>2021-07-20T09:39:02Z</time>
      </trkpt>
      <trkpt lat="39.27501" lon="-1.49424">
        <ele>726.2335</ele>
        <time>2021-07-20T09:39:13Z</time>
      </trkpt>
      <trkpt lat="39.27416" lon="-1.49096">
        <ele>728.7796</ele>
        <time>2021-07-20T09:39:24Z</time>
      </trkpt>
      <trkpt lat="39.27363" lon="-1.4875">
        <ele>729.3032</ele>
        <time>2021-07-20T09:39:35Z</time>
      </trkpt>
      <trkpt lat="39.27345" lon="-1.48401">
        <ele>729.4283</ele>
        <time>2021-07-20T09:39:46Z</time>
      </trkpt>
      <trkpt lat="39.27362" lon="-1.48084">
        <ele>730.3972</ele>
        <time>2021-07-20T09:39:57Z</time>
      </trkpt>
      <trkpt lat="39.27416" lon="-1.47709">
        <ele>727.7686</ele>
        <time>2021-07-20T09:40:08Z</time>
      </trkpt>
      <trkpt lat="39.27476" lon="-1.47371">
        <ele>724.8675</ele>
        <time>2021-07-20T09:40:19Z</time>
      </trkpt>
      <trkpt lat="39.27537" lon="-1.47025">
        <ele>720.5108</ele>
        <time>2021-07-20T09:40:30Z</time>
      </trkpt>
      <trkpt lat="39.27613" lon="-1.46681">
        <ele>711.9372</ele>
        <time>2021-07-20T09:40:41Z</time>
      </trkpt>
      <trkpt lat="39.27721" lon="-1.46351">
        <ele>704.1815</ele>
        <time>2021-07-20T09:40:52Z</time>
      </trkpt>
      <trkpt lat="39.2786" lon="-1.46048">
        <ele>701.664</ele>
        <time>2021-07-20T09:41:03Z</time>
      </trkpt>
      <trkpt lat="39.28017" lon="-1.45746">
        <ele>699.7325</ele>
        <time>2021-07-20T09:41:14Z</time>
      </trkpt>
      <trkpt lat="39.28154" lon="-1.45427">
        <ele>695.6581</ele>
        <time>2021-07-20T09:41:25Z</time>
      </trkpt>
      <trkpt lat="39.28248" lon="-1.45117">
        <ele>695.9083</ele>
        <time>2021-07-20T09:41:36Z</time>
      </trkpt>
      <trkpt lat="39.28311" lon="-1.44791">
        <ele>696.9322</ele>
        <time>2021-07-20T09:41:47Z</time>
      </trkpt>
      <trkpt lat="39.28342" lon="-1.4448">
        <ele>699.4409</ele>
        <time>2021-07-20T09:41:58Z</time>
      </trkpt>
      <trkpt lat="39.28342" lon="-1.44154">
        <ele>701.8108</ele>
        <time>2021-07-20T09:42:09Z</time>
      </trkpt>
      <trkpt lat="39.28312" lon="-1.43835">
        <ele>705.0737</ele>
        <time>2021-07-20T09:42:20Z</time>
      </trkpt>
      <trkpt lat="39.28271" lon="-1.43502">
        <ele>704.9557</ele>
        <time>2021-07-20T09:42:31Z</time>
      </trkpt>
      <trkpt lat="39.28221" lon="-1.43098">
        <ele>702.4139</ele>
        <time>2021-07-20T09:42:42Z</time>
      </trkpt>
      <trkpt lat="39.28203" lon="-1.42682">
        <ele>702.9435</ele>
        <time>2021-07-20T09:42:53Z</time>
      </trkpt>
      <trkpt lat="39.28216" lon="-1.42348">
        <ele>698.821</ele>
        <time>2021-07-20T09:43:04Z</time>
      </trkpt>
      <trkpt lat="39.28198" lon="-1.42039">
        <ele>696.0106</ele>
        <time>2021-07-20T09:43:15Z</time>
      </trkpt>
      <trkpt lat="39.28155" lon="-1.41717">
        <ele>695.8827</ele>
        <time>2021-07-20T09:43:26Z</time>
      </trkpt>
      <trkpt lat="39.28185" lon="-1.41396">
        <ele>693.4183</ele>
        <time>2021-07-20T09:43:37Z</time>
      </trkpt>
      <trkpt lat="39.2811" lon="-1.41067">
        <ele>697.7549</ele>
        <time>2021-07-20T09:43:48Z</time>
      </trkpt>
      <trkpt lat="39.28049" lon="-1.40744">
        <ele>698.9906</ele>
        <time>2021-07-20T09:44:00Z</time>
      </trkpt>
      <trkpt lat="39.27995" lon="-1.40427">
        <ele>697.3831</ele>
        <time>2021-07-20T09:44:11Z</time>
      </trkpt>
      <trkpt lat="39.28039" lon="-1.40148">
        <ele>699.1946</ele>
        <time>2021-07-20T09:44:22Z</time>
      </trkpt>
      <trkpt lat="39.28238" lon="-1.39957">
        <ele>700.486</ele>
        <time>2021-07-20T09:44:33Z</time>
      </trkpt>
      <trkpt lat="39.28443" lon="-1.39708">
        <ele>700.8152</ele>
        <time>2021-07-20T09:44:44Z</time>
      </trkpt>
      <trkpt lat="39.28611" lon="-1.39449">
        <ele>704.0579</ele>
        <time>2021-07-20T09:44:55Z</time>
      </trkpt>
      <trkpt lat="39.28725" lon="-1.3915">
        <ele>708.5645</ele>
        <time>2021-07-20T09:45:06Z</time>
      </trkpt>
      <trkpt lat="39.28792" lon="-1.38835">
        <ele>708.9515</ele>
        <time>2021-07-20T09:45:17Z</time>
      </trkpt>
      <trkpt lat="39.28862" lon="-1.38518">
        <ele>711.7185</ele>
        <time>2021-07-20T09:45:28Z</time>
      </trkpt>
      <trkpt lat="39.2893" lon="-1.38198">
        <ele>715.466</ele>
        <time>2021-07-20T09:45:39Z</time>
      </trkpt>
      <trkpt lat="39.28997" lon="-1.37871">
        <ele>716.5007</ele>
        <time>2021-07-20T09:45:50Z</time>
      </trkpt>
      <trkpt lat="39.29067" lon="-1.37554">
        <ele>723.5716</ele>
        <time>2021-07-20T09:46:01Z</time>
      </trkpt>
      <trkpt lat="39.29155" lon="-1.37274">
        <ele>730.8797</ele>
        <time>2021-07-20T09:46:12Z</time>
      </trkpt>
      <trkpt lat="39.29287" lon="-1.36981">
        <ele>733.9258</ele>
        <time>2021-07-20T09:46:23Z</time>
      </trkpt>
      <trkpt lat="39.29397" lon="-1.3663">
        <ele>733.7374</ele>
        <time>2021-07-20T09:46:34Z</time>
      </trkpt>
      <trkpt lat="39.29477" lon="-1.36305">
        <ele>729.6345</ele>
        <time>2021-07-20T09:46:45Z</time>
      </trkpt>
      <trkpt lat="39.29561" lon="-1.35987">
        <ele>724.0859</ele>
        <time>2021-07-20T09:46:56Z</time>
      </trkpt>
      <trkpt lat="39.29731" lon="-1.35732">
        <ele>720.2393</ele>
        <time>2021-07-20T09:47:07Z</time>
      </trkpt>
      <trkpt lat="39.29945" lon="-1.35539">
        <ele>714.2427</ele>
        <time>2021-07-20T09:47:18Z</time>
      </trkpt>
      <trkpt lat="39.30163" lon="-1.35354">
        <ele>715.0104</ele>
        <time>2021-07-20T09:47:29Z</time>
      </trkpt>
      <trkpt lat="39.30284" lon="-1.35122">
        <ele>711.9242</ele>
        <time>2021-07-20T09:47:40Z</time>
      </trkpt>
      <trkpt lat="39.30315" lon="-1.34818">
        <ele>701.2597</ele>
        <time>2021-07-20T09:47:51Z</time>
      </trkpt>
      <trkpt lat="39.30262" lon="-1.34611">
        <ele>688.8305</ele>
        <time>2021-07-20T09:48:02Z</time>
      </trkpt>
      <trkpt lat="39.30328" lon="-1.34373">
        <ele>681.5097</ele>
        <time>2021-07-20T09:48:13Z</time>
      </trkpt>
      <trkpt lat="39.30221" lon="-1.34146">
        <ele>668.3987</ele>
        <time>2021-07-20T09:48:24Z</time>
      </trkpt>
      <trkpt lat="39.30361" lon="-1.33982">
        <ele>653.3017</ele>
        <time>2021-07-20T09:48:35Z</time>
      </trkpt>
      <trkpt lat="39.3054" lon="-1.33798">
        <ele>633.5318</ele>
        <time>2021-07-20T09:48:46Z</time>
      </trkpt>
      <trkpt lat="39.30613" lon="-1.33618">
        <ele>628.712</ele>
        <time>2021-07-20T09:48:57Z</time>
      </trkpt>
      <trkpt lat="39.30606" lon="-1.33417">
        <ele>618.7487</ele>
        <time>2021-07-20T09:49:08Z</time>
      </trkpt>
      <trkpt lat="39.30826" lon="-1.33319">
        <ele>605.0897</ele>
        <time>2021-07-20T09:49:19Z</time>
      </trkpt>
      <trkpt lat="39.30948" lon="-1.3309">
        <ele>588.0569</ele>
        <time>2021-07-20T09:49:30Z</time>
      </trkpt>
      <trkpt lat="39.31181" lon="-1.32986">
        <ele>580.4532</ele>
        <time>2021-07-20T09:49:41Z</time>
      </trkpt>
      <trkpt lat="39.31353" lon="-1.32981">
        <ele>567.2287</ele>
        <time>2021-07-20T09:49:52Z</time>
      </trkpt>
      <trkpt lat="39.31512" lon="-1.3287">
        <ele>557.2624</ele>
        <time>2021-07-20T09:50:03Z</time>
      </trkpt>
      <trkpt lat="39.31657" lon="-1.32821">
        <ele>541.1183</ele>
        <time>2021-07-20T09:50:14Z</time>
      </trkpt>
      <trkpt lat="39.3175" lon="-1.32581">
        <ele>531.1681</ele>
        <time>2021-07-20T09:50:25Z</time>
      </trkpt>
      <trkpt lat="39.31906" lon="-1.32376">
        <ele>519.3533</ele>
        <time>2021-07-20T09:50:36Z</time>
      </trkpt>
      <trkpt lat="39.32118" lon="-1.32412">
        <ele>509.2608</ele>
        <time>2021-07-20T09:50:47Z</time>
      </trkpt>
      <trkpt lat="39.32363" lon="-1.32215">
        <ele>494.2135</ele>
        <time>2021-07-20T09:50:58Z</time>
      </trkpt>
      <trkpt lat="39.32511" lon="-1.32394">
        <ele>480.8267</ele>
        <time>2021-07-20T09:51:09Z</time>
      </trkpt>
      <trkpt lat="39.32544" lon="-1.3266">
        <ele>470.8135</ele>
        <time>2021-07-20T09:51:20Z</time>
      </trkpt>
      <trkpt lat="39.32581" lon="-1.32947">
        <ele>461.7111</ele>
        <time>2021-07-20T09:51:31Z</time>
      </trkpt>
      <trkpt lat="39.32623" lon="-1.33258">
        <ele>450.4591</ele>
        <time>2021-07-20T09:51:42Z</time>
      </trkpt>
      <trkpt lat="39.32679" lon="-1.33578">
        <ele>444.9094</ele>
        <time>2021-07-20T09:51:53Z</time>
      </trkpt>
      <trkpt lat="39.32751" lon="-1.33882">
        <ele>446.1234</ele>
        <time>2021-07-20T09:52:04Z</time>
      </trkpt>
      <trkpt lat="39.32876" lon="-1.34145">
        <ele>448.35</ele>
        <time>2021-07-20T09:52:15Z</time>
      </trkpt>
      <trkpt lat="39.33064" lon="-1.34347">
        <ele>449.1151</ele>
        <time>2021-07-20T09:52:26Z</time>
      </trkpt>
      <trkpt lat="39.33293" lon="-1.34478">
        <ele>443.9398</ele>
        <time>2021-07-20T09:52:37Z</time>
      </trkpt>
      <trkpt lat="39.33487" lon="-1.34568">
        <ele>434.7</ele>
        <time>2021-07-20T09:52:48Z</time>
      </trkpt>
      <trkpt lat="39.33697" lon="-1.34673">
        <ele>424.4645</ele>
        <time>2021-07-20T09:52:59Z</time>
      </trkpt>
      <trkpt lat="39.33929" lon="-1.3479">
        <ele>423.6107</ele>
        <time>2021-07-20T09:53:10Z</time>
      </trkpt>
      <trkpt lat="39.34157" lon="-1.34901">
        <ele>417.9053</ele>
        <time>2021-07-20T09:53:21Z</time>
      </trkpt>
      <trkpt lat="39.34412" lon="-1.35004">
        <ele>420.3657</ele>
        <time>2021-07-20T09:53:32Z</time>
      </trkpt>
      <trkpt lat="39.34657" lon="-1.35055">
        <ele>423.7493</ele>
        <time>2021-07-20T09:53:43Z</time>
      </trkpt>
      <trkpt lat="39.3491" lon="-1.35077">
        <ele>428.6858</ele>
        <time>2021-07-20T09:53:54Z</time>
      </trkpt>
      <trkpt lat="39.35148" lon="-1.35069">
        <ele>437.7949</ele>
        <time>2021-07-20T09:54:05Z</time>
      </trkpt>
      <trkpt lat="39.35319" lon="-1.34843">
        <ele>447.2829</ele>
        <time>2021-07-20T09:54:16Z</time>
      </trkpt>
      <trkpt lat="39.35542" lon="-1.34687">
        <ele>456.4193</ele>
        <time>2021-07-20T09:54:27Z</time>
      </trkpt>
      <trkpt lat="39.35848" lon="-1.34598">
        <ele>461.2782</ele>
        <time>2021-07-20T09:54:38Z</time>
      </trkpt>
      <trkpt lat="39.36141" lon="-1.34744">
        <ele>480.3665</ele>
        <time>2021-07-20T09:54:49Z</time>
      </trkpt>
      <trkpt lat="39.36415" lon="-1.34691">
        <ele>499.637</ele>
        <time>2021-07-20T09:55:00Z</time>
      </trkpt>
      <trkpt lat="39.36609" lon="-1.34478">
        <ele>519.6924</ele>
        <time>2021-07-20T09:55:11Z</time>
      </trkpt>
      <trkpt lat="39.36887" lon="-1.3452">
        <ele>534.565</ele>
        <time>2021-07-20T09:55:22Z</time>
      </trkpt>
      <trkpt lat="39.37162" lon="-1.34387">
        <ele>559.1284</ele>
        <time>2021-07-20T09:55:33Z</time>
      </trkpt>
      <trkpt lat="39.37479" lon="-1.34384">
        <ele>578.6893</ele>
        <time>2021-07-20T09:55:44Z</time>
      </trkpt>
      <trkpt lat="39.37735" lon="-1.34376">
        <ele>585.3332</ele>
        <time>2021-07-20T09:55:55Z</time>
      </trkpt>
      <trkpt lat="39.3803" lon="-1.3433">
        <ele>586.9738</ele>
        <time>2021-07-20T09:56:06Z</time>
      </trkpt>
      <trkpt lat="39.38307" lon="-1.34407">
        <ele>603.2481</ele>
        <time>2021-07-20T09:56:17Z</time>
      </trkpt>
      <trkpt lat="39.38576" lon="-1.34343">
        <ele>597.1012</ele>
        <time>2021-07-20T09:56:28Z</time>
      </trkpt>
      <trkpt lat="39.38838" lon="-1.34151">
        <ele>616.6396</ele>
        <time>2021-07-20T09:56:39Z</time>
      </trkpt>
      <trkpt lat="39.39072" lon="-1.33887">
        <ele>632.3438</ele>
        <time>2021-07-20T09:56:50Z</time>
      </trkpt>
      <trkpt lat="39.39389" lon="-1.33815">
        <ele>637.4476</ele>
        <time>2021-07-20T09:57:01Z</time>
      </trkpt>
      <trkpt lat="39.39701" lon="-1.33749">
        <ele>644.5927</ele>
        <time>2021-07-20T09:57:12Z</time>
      </trkpt>
      <trkpt lat="39.3992" lon="-1.33529">
        <ele>648.6733</ele>
        <time>2021-07-20T09:57:23Z</time>
      </trkpt>
      <trkpt lat="39.4018" lon="-1.33543">
        <ele>642.9209</ele>
        <time>2021-07-20T09:57:34Z</time>
      </trkpt>
      <trkpt lat="39.40402" lon="-1.3353">
        <ele>656.0517</ele>
        <time>2021-07-20T09:57:45Z</time>
      </trkpt>
      <trkpt lat="39.40483" lon="-1.33266">
        <ele>661.3629</ele>
        <time>2021-07-20T09:57:56Z</time>
      </trkpt>
      <trkpt lat="39.40609" lon="-1.32993">
        <ele>665.101</ele>
        <time>2021-07-20T09:58:07Z</time>
      </trkpt>
      <trkpt lat="39.40707" lon="-1.3271">
        <ele>662.5199</ele>
        <time>2021-07-20T09:58:18Z</time>
      </trkpt>
      <trkpt lat="39.40956" lon="-1.32458">
        <ele>646.4538</ele>
        <time>2021-07-20T09:58:29Z</time>
      </trkpt>
      <trkpt lat="39.41158" lon="-1.32144">
        <ele>630.7265</ele>
        <time>2021-07-20T09:58:40Z</time>
      </trkpt>
      <trkpt lat="39.41269" lon="-1.31785">
        <ele>624.4437</ele>
        <time>2021-07-20T09:58:51Z</time>
      </trkpt>
      <trkpt lat="39.41372" lon="-1.31448">
        <ele>620.8923</ele>
        <time>2021-07-20T09:59:02Z</time>
      </trkpt>
      <trkpt lat="39.41391" lon="-1.31126">
        <ele>612.5023</ele>
        <time>2021-07-20T09:59:13Z</time>
      </trkpt>
      <trkpt lat="39.41462" lon="-1.30926">
        <ele>609.6299</ele>
        <time>2021-07-20T09:59:24Z</time>
      </trkpt>
      <trkpt lat="39.41646" lon="-1.30743">
        <ele>601.7332</ele>
        <time>2021-07-20T09:59:35Z</time>
      </trkpt>
      <trkpt lat="39.41692" lon="-1.30448">
        <ele>593.4858</ele>
        <time>2021-07-20T09:59:46Z</time>
      </trkpt>
      <trkpt lat="39.41712" lon="-1.30195">
        <ele>588.6763</ele>
        <time>2021-07-20T09:59:57Z</time>
      </trkpt>
      <trkpt lat="39.41777" lon="-1.30012">
        <ele>582.4959</ele>
        <time>2021-07-20T10:00:08Z</time>
      </trkpt>
      <trkpt lat="39.41851" lon="-1.29859">
        <ele>587.6068</ele>
        <time>2021-07-20T10:00:19Z</time>
      </trkpt>
      <trkpt lat="39.41865" lon="-1.29834">
        <ele>589.0521</ele>
        <time>2021-07-20T10:00:30Z</time>
      </trkpt>
      <trkpt lat="39.41908" lon="-1.29753">
        <ele>594.4365</ele>
        <time>2021-07-20T10:00:41Z</time>
      </trkpt>
      <trkpt lat="39.41978" lon="-1.29605">
        <ele>597.5878</ele>
        <time>2021-07-20T10:00:52Z</time>
      </trkpt>
      <trkpt lat="39.42068" lon="-1.29431">
        <ele>603.8951</ele>
        <time>2021-07-20T10:01:03Z</time>
      </trkpt>
      <trkpt lat="39.42161" lon="-1.29251">
        <ele>613.4289</ele>
        <time>2021-07-20T10:01:14Z</time>
      </trkpt>
      <trkpt lat="39.42285" lon="-1.29094">
        <ele>622.1959</ele>
        <time>2021-07-20T10:01:25Z</time>
      </trkpt>
      <trkpt lat="39.42516" lon="-1.28889">
        <ele>619.7246</ele>
        <time>2021-07-20T10:01:36Z</time>
      </trkpt>
      <trkpt lat="39.42751" lon="-1.28659">
        <ele>627.0582</ele>
        <time>2021-07-20T10:01:47Z</time>
      </trkpt>
      <trkpt lat="39.42851" lon="-1.28323">
        <ele>642.7922</ele>
        <time>2021-07-20T10:01:58Z</time>
      </trkpt>
      <trkpt lat="39.42779" lon="-1.27957">
        <ele>652.2409</ele>
        <time>2021-07-20T10:02:09Z</time>
      </trkpt>
      <trkpt lat="39.42801" lon="-1.27627">
        <ele>656.9464</ele>
        <time>2021-07-20T10:02:20Z</time>
      </trkpt>
      <trkpt lat="39.42827" lon="-1.27278">
        <ele>651.3847</ele>
        <time>2021-07-20T10:02:31Z</time>
      </trkpt>
      <trkpt lat="39.42851" lon="-1.26943">
        <ele>654.3707</ele>
        <time>2021-07-20T10:02:42Z</time>
      </trkpt>
      <trkpt lat="39.42875" lon="-1.26627">
        <ele>660.4704</ele>
        <time>2021-07-20T10:02:54Z</time>
      </trkpt>
      <trkpt lat="39.42898" lon="-1.26315">
        <ele>670.0353</ele>
        <time>2021-07-20T10:03:05Z</time>
      </trkpt>
      <trkpt lat="39.42922" lon="-1.25978">
        <ele>672.7168</ele>
        <time>2021-07-20T10:03:16Z</time>
      </trkpt>
      <trkpt lat="39.42945" lon="-1.25643">
        <ele>678.2056</ele>
        <time>2021-07-20T10:03:27Z</time>
      </trkpt>
      <trkpt lat="39.42982" lon="-1.2531">
        <ele>663.664</ele>
        <time>2021-07-20T10:03:38Z</time>
      </trkpt>
      <trkpt lat="39.431" lon="-1.24994">
        <ele>643.9936</ele>
        <time>2021-07-20T10:03:49Z</time>
      </trkpt>
      <trkpt lat="39.43132" lon="-1.2469">
        <ele>629.4133</ele>
        <time>2021-07-20T10:04:00Z</time>
      </trkpt>
      <trkpt lat="39.43067" lon="-1.24358">
        <ele>614.7598</ele>
        <time>2021-07-20T10:04:11Z</time>
      </trkpt>
      <trkpt lat="39.4323" lon="-1.24079">
        <ele>602.759</ele>
        <time>2021-07-20T10:04:22Z</time>
      </trkpt>
      <trkpt lat="39.4323" lon="-1.23762">
        <ele>590.7502</ele>
        <time>2021-07-20T10:04:33Z</time>
      </trkpt>
      <trkpt lat="39.43137" lon="-1.23394">
        <ele>582.1332</ele>
        <time>2021-07-20T10:04:44Z</time>
      </trkpt>
      <trkpt lat="39.43214" lon="-1.23059">
        <ele>571.6196</ele>
        <time>2021-07-20T10:04:55Z</time>
      </trkpt>
      <trkpt lat="39.43327" lon="-1.22782">
        <ele>565.0591</ele>
        <time>2021-07-20T10:05:06Z</time>
      </trkpt>
      <trkpt lat="39.43448" lon="-1.22483">
        <ele>566.3852</ele>
        <time>2021-07-20T10:05:17Z</time>
      </trkpt>
      <trkpt lat="39.4357" lon="-1.2218">
        <ele>574.6141</ele>
        <time>2021-07-20T10:05:28Z</time>
      </trkpt>
      <trkpt lat="39.43691" lon="-1.21879">
        <ele>577.5821</ele>
        <time>2021-07-20T10:05:39Z</time>
      </trkpt>
      <trkpt lat="39.43815" lon="-1.21573">
        <ele>577.9837</ele>
        <time>2021-07-20T10:05:50Z</time>
      </trkpt>
      <trkpt lat="39.43932" lon="-1.21288">
        <ele>581.3604</ele>
        <time>2021-07-20T10:06:01Z</time>
      </trkpt>
      <trkpt lat="39.44053" lon="-1.20993">
        <ele>579.7982</ele>
        <time>2021-07-20T10:06:12Z</time>
      </trkpt>
      <trkpt lat="39.4417" lon="-1.20702">
        <ele>589.49</ele>
        <time>2021-07-20T10:06:23Z</time>
      </trkpt>
      <trkpt lat="39.44291" lon="-1.20395">
        <ele>604.2109</ele>
        <time>2021-07-20T10:06:34Z</time>
      </trkpt>
      <trkpt lat="39.44421" lon="-1.20081">
        <ele>602.4327</ele>
        <time>2021-07-20T10:06:45Z</time>
      </trkpt>
      <trkpt lat="39.44562" lon="-1.19729">
        <ele>602.8554</ele>
        <time>2021-07-20T10:06:56Z</time>
      </trkpt>
      <trkpt lat="39.44678" lon="-1.19449">
        <ele>607.4025</ele>
        <time>2021-07-20T10:07:07Z</time>
      </trkpt>
      <trkpt lat="39.44801" lon="-1.19148">
        <ele>613.478</ele>
        <time>2021-07-20T10:07:18Z</time>
      </trkpt>
      <trkpt lat="39.44926" lon="-1.18841">
        <ele>606.728</ele>
        <time>2021-07-20T10:07:29Z</time>
      </trkpt>
      <trkpt lat="39.45049" lon="-1.18535">
        <ele>604.3507</ele>
        <time>2021-07-20T10:07:40Z</time>
      </trkpt>
      <trkpt lat="39.45172" lon="-1.1823">
        <ele>607.0015</ele>
        <time>2021-07-20T10:07:51Z</time>
      </trkpt>
      <trkpt lat="39.45296" lon="-1.17924">
        <ele>610.9612</ele>
        <time>2021-07-20T10:08:02Z</time>
      </trkpt>
      <trkpt lat="39.45417" lon="-1.17622">
        <ele>614.6839</ele>
        <time>2021-07-20T10:08:13Z</time>
      </trkpt>
      <trkpt lat="39.45538" lon="-1.17324">
        <ele>613.5384</ele>
        <time>2021-07-20T10:08:24Z</time>
      </trkpt>
      <trkpt lat="39.45658" lon="-1.17027">
        <ele>614.9364</ele>
        <time>2021-07-20T10:08:35Z</time>
      </trkpt>
      <trkpt lat="39.45793" lon="-1.16698">
        <ele>617.8989</ele>
        <time>2021-07-20T10:08:46Z</time>
      </trkpt>
      <trkpt lat="39.45917" lon="-1.16394">
        <ele>621.6065</ele>
        <time>2021-07-20T10:08:57Z</time>
      </trkpt>
      <trkpt lat="39.46037" lon="-1.16096">
        <ele>632.7165</ele>
        <time>2021-07-20T10:09:08Z</time>
      </trkpt>
      <trkpt lat="39.46136" lon="-1.15836">
        <ele>647.8745</ele>
        <time>2021-07-20T10:09:19Z</time>
      </trkpt>
      <trkpt lat="39.46251" lon="-1.15543">
        <ele>644.4602</ele>
        <time>2021-07-20T10:09:30Z</time>
      </trkpt>
      <trkpt lat="39.46368" lon="-1.15239">
        <ele>640.9892</ele>
        <time>2021-07-20T10:09:41Z</time>
      </trkpt>
      <trkpt lat="39.46483" lon="-1.14937">
        <ele>643.0631</ele>
        <time>2021-07-20T10:09:52Z</time>
      </trkpt>
      <trkpt lat="39.46608" lon="-1.14606">
        <ele>644.2496</ele>
        <time>2021-07-20T10:10:03Z</time>
      </trkpt>
      <trkpt lat="39.46723" lon="-1.14308">
        <ele>646.1578</ele>
        <time>2021-07-20T10:10:14Z</time>
      </trkpt>
      <trkpt lat="39.46839" lon="-1.14007">
        <ele>651.7826</ele>
        <time>2021-07-20T10:10:25Z</time>
      </trkpt>
      <trkpt lat="39.46963" lon="-1.13684">
        <ele>654.3629</ele>
        <time>2021-07-20T10:10:36Z</time>
      </trkpt>
      <trkpt lat="39.47083" lon="-1.13363">
        <ele>661.2467</ele>
        <time>2021-07-20T10:10:47Z</time>
      </trkpt>
      <trkpt lat="39.47202" lon="-1.13044">
        <ele>663.9264</ele>
        <time>2021-07-20T10:10:58Z</time>
      </trkpt>
      <trkpt lat="39.47299" lon="-1.12783">
        <ele>670.3511</ele>
        <time>2021-07-20T10:11:09Z</time>
      </trkpt>
      <trkpt lat="39.47387" lon="-1.12542">
        <ele>668.4061</ele>
        <time>2021-07-20T10:11:20Z</time>
      </trkpt>
      <trkpt lat="39.47478" lon="-1.12313">
        <ele>662.7043</ele>
        <time>2021-07-20T10:11:31Z</time>
      </trkpt>
      <trkpt lat="39.47547" lon="-1.12128">
        <ele>661.5662</ele>
        <time>2021-07-20T10:11:42Z</time>
      </trkpt>
      <trkpt lat="39.47606" lon="-1.11969">
        <ele>664.6384</ele>
        <time>2021-07-20T10:11:53Z</time>
      </trkpt>
      <trkpt lat="39.47656" lon="-1.11845">
        <ele>663.4181</ele>
        <time>2021-07-20T10:12:04Z</time>
      </trkpt>
      <trkpt lat="39.47745" lon="-1.11746">
        <ele>657.8984</ele>
        <time>2021-07-20T10:12:15Z</time>
      </trkpt>
      <trkpt lat="39.47871" lon="-1.11627">
        <ele>654.4303</ele>
        <time>2021-07-20T10:12:26Z</time>
      </trkpt>
      <trkpt lat="39.47983" lon="-1.11443">
        <ele>652.3753</ele>
        <time>2021-07-20T10:12:37Z</time>
      </trkpt>
      <trkpt lat="39.481" lon="-1.11211">
        <ele>652.453</ele>
        <time>2021-07-20T10:12:48Z</time>
      </trkpt>
      <trkpt lat="39.48221" lon="-1.10975">
        <ele>656.7666</ele>
        <time>2021-07-20T10:12:59Z</time>
      </trkpt>
      <trkpt lat="39.48319" lon="-1.10784">
        <ele>668.2516</ele>
        <time>2021-07-20T10:13:10Z</time>
      </trkpt>
      <trkpt lat="39.48345" lon="-1.10697">
        <ele>672.236</ele>
        <time>2021-07-20T10:13:21Z</time>
      </trkpt>
      <trkpt lat="39.48363" lon="-1.10627">
        <ele>673.6823</ele>
        <time>2021-07-20T10:13:32Z</time>
      </trkpt>
      <trkpt lat="39.48377" lon="-1.10524">
        <ele>680.5013</ele>
        <time>2021-07-20T10:13:43Z</time>
      </trkpt>
      <trkpt lat="39.48369" lon="-1.10405">
        <ele>686.0352</ele>
        <time>2021-07-20T10:13:54Z</time>
      </trkpt>
      <trkpt lat="39.48356" lon="-1.10293">
        <ele>684.7909</ele>
        <time>2021-07-20T10:14:05Z</time>
      </trkpt>
      <trkpt lat="39.48346" lon="-1.10198">
        <ele>680.6732</ele>
        <time>2021-07-20T10:14:16Z</time>
      </trkpt>
      <trkpt lat="39.48333" lon="-1.10063">
        <ele>679.9733</ele>
        <time>2021-07-20T10:14:27Z</time>
      </trkpt>
      <trkpt lat="39.48319" lon="-1.09878">
        <ele>675.6652</ele>
        <time>2021-07-20T10:14:38Z</time>
      </trkpt>
      <trkpt lat="39.48336" lon="-1.0972">
        <ele>674.7142</ele>
        <time>2021-07-20T10:14:49Z</time>
      </trkpt>
      <trkpt lat="39.4837" lon="-1.0957">
        <ele>675.6401</ele>
        <time>2021-07-20T10:15:00Z</time>
      </trkpt>
      <trkpt lat="39.48401" lon="-1.09431">
        <ele>678.9658</ele>
        <time>2021-07-20T10:15:11Z</time>
      </trkpt>
      <trkpt lat="39.48431" lon="-1.09303">
        <ele>686.659</ele>
        <time>2021-07-20T10:15:22Z</time>
      </trkpt>
      <trkpt lat="39.48461" lon="-1.09161">
        <ele>691.5693</ele>
        <time>2021-07-20T10:15:33Z</time>
      </trkpt>
      <trkpt lat="39.48493" lon="-1.09017">
        <ele>696.701</ele>
        <time>2021-07-20T10:15:44Z</time>
      </trkpt>
      <trkpt lat="39.48501" lon="-1.0893">
        <ele>697.48</ele>
        <time>2021-07-20T10:15:55Z</time>
      </trkpt>
      <trkpt lat="39.48516" lon="-1.08856">
        <ele>699.3245</ele>
        <time>2021-07-20T10:16:06Z</time>
      </trkpt>
      <trkpt lat="39.4853" lon="-1.08769">
        <ele>699.4334</ele>
        <time>2021-07-20T10:16:17Z</time>
      </trkpt>
      <trkpt lat="39.48522" lon="-1.08596">
        <ele>701.1392</ele>
        <time>2021-07-20T10:16:28Z</time>
      </trkpt>
      <trkpt lat="39.48502" lon="-1.08458">
        <ele>703.4439</ele>
        <time>2021-07-20T10:16:39Z</time>
      </trkpt>
      <trkpt lat="39.48503" lon="-1.08278">
        <ele>703.6695</ele>
        <time>2021-07-20T10:16:50Z</time>
      </trkpt>
      <trkpt lat="39.48492" lon="-1.08091">
        <ele>705.9774</ele>
        <time>2021-07-20T10:17:01Z</time>
      </trkpt>
      <trkpt lat="39.48478" lon="-1.07859">
        <ele>713.2578</ele>
        <time>2021-07-20T10:17:12Z</time>
      </trkpt>
      <trkpt lat="39.48461" lon="-1.07614">
        <ele>718.6024</ele>
        <time>2021-07-20T10:17:23Z</time>
      </trkpt>
      <trkpt lat="39.48439" lon="-1.07338">
        <ele>710.9163</ele>
        <time>2021-07-20T10:17:34Z</time>
      </trkpt>
      <trkpt lat="39.48449" lon="-1.07034">
        <ele>717.0789</ele>
        <time>2021-07-20T10:17:45Z</time>
      </trkpt>
      <trkpt lat="39.48466" lon="-1.06733">
        <ele>726.4405</ele>
        <time>2021-07-20T10:17:56Z</time>
      </trkpt>
      <trkpt lat="39.4843" lon="-1.06423">
        <ele>727.4389</ele>
        <time>2021-07-20T10:18:07Z</time>
      </trkpt>
      <trkpt lat="39.48309" lon="-1.06122">
        <ele>723.8474</ele>
        <time>2021-07-20T10:18:18Z</time>
      </trkpt>
      <trkpt lat="39.48176" lon="-1.05808">
        <ele>713.7937</ele>
        <time>2021-07-20T10:18:29Z</time>
      </trkpt>
      <trkpt lat="39.48048" lon="-1.05511">
        <ele>700.1688</ele>
        <time>2021-07-20T10:18:40Z</time>
      </trkpt>
      <trkpt lat="39.4793" lon="-1.05213">
        <ele>686.2263</ele>
        <time>2021-07-20T10:18:51Z</time>
      </trkpt>
      <trkpt lat="39.47922" lon="-1.04879">
        <ele>677.092</ele>
        <time>2021-07-20T10:19:02Z</time>
      </trkpt>
      <trkpt lat="39.47953" lon="-1.04539">
        <ele>686.5127</ele>
        <time>2021-07-20T10:19:13Z</time>
      </trkpt>
      <trkpt lat="39.47885" lon="-1.04219">
        <ele>701.7207</ele>
        <time>2021-07-20T10:19:24Z</time>
      </trkpt>
      <trkpt lat="39.47781" lon="-1.03915">
        <ele>712.2136</ele>
        <time>2021-07-20T10:19:35Z</time>
      </trkpt>
      <trkpt lat="39.47703" lon="-1.03595">
        <ele>715.2377</ele>
        <time>2021-07-20T10:19:46Z</time>
      </trkpt>
      <trkpt lat="39.47629" lon="-1.03289">
        <ele>712.732</ele>
        <time>2021-07-20T10:19:57Z</time>
      </trkpt>
      <trkpt lat="39.47554" lon="-1.02966">
        <ele>712.6761</ele>
        <time>2021-07-20T10:20:08Z</time>
      </trkpt>
      <trkpt lat="39.47474" lon="-1.02632">
        <ele>712.0525</ele>
        <time>2021-07-20T10:20:19Z</time>
      </trkpt>
      <trkpt lat="39.4739" lon="-1.02272">
        <ele>709.3708</ele>
        <time>2021-07-20T10:20:30Z</time>
      </trkpt>
      <trkpt lat="39.47309" lon="-1.01924">
        <ele>707.6642</ele>
        <time>2021-07-20T10:20:41Z</time>
      </trkpt>
      <trkpt lat="39.47242" lon="-1.01595">
        <ele>708.1338</ele>
        <time>2021-07-20T10:20:52Z</time>
      </trkpt>
      <trkpt lat="39.47175" lon="-1.01295">
        <ele>709.5995</ele>
        <time>2021-07-20T10:21:03Z</time>
      </trkpt>
      <trkpt lat="39.47067" lon="-1.01188">
        <ele>708.551</ele>
        <time>2021-07-20T10:21:14Z</time>
      </trkpt>
      <trkpt lat="39.47036" lon="-1.01164">
        <ele>706.1741</ele>
        <time>2021-07-20T10:21:25Z</time>
      </trkpt>
      <trkpt lat="39.47117" lon="-1.01135">
        <ele>709.2509</ele>
        <time>2021-07-20T10:21:36Z</time>
      </trkpt>
      <trkpt lat="39.47082" lon="-1.00957">
        <ele>714.0686</ele>
        <time>2021-07-20T10:21:47Z</time>
      </trkpt>
      <trkpt lat="39.47008" lon="-1.0064">
        <ele>715.446</ele>
        <time>2021-07-20T10:21:58Z</time>
      </trkpt>
      <trkpt lat="39.4691" lon="-1.00305">
        <ele>716.5064</ele>
        <time>2021-07-20T10:22:09Z</time>
      </trkpt>
      <trkpt lat="39.46829" lon="-0.99953">
        <ele>715.4317</ele>
        <time>2021-07-20T10:22:20Z</time>
      </trkpt>
      <trkpt lat="39.46746" lon="-0.99598">
        <ele>712.6365</ele>
        <time>2021-07-20T10:22:31Z</time>
      </trkpt>
      <trkpt lat="39.46653" lon="-0.9929">
        <ele>712.913</ele>
        <time>2021-07-20T10:22:42Z</time>
      </trkpt>
      <trkpt lat="39.46607" lon="-0.99096">
        <ele>709.0765</ele>
        <time>2021-07-20T10:22:53Z</time>
      </trkpt>
      <trkpt lat="39.4655" lon="-0.98783">
        <ele>701.6894</ele>
        <time>2021-07-20T10:23:04Z</time>
      </trkpt>
      <trkpt lat="39.4647" lon="-0.98455">
        <ele>698.0361</ele>
        <time>2021-07-20T10:23:15Z</time>
      </trkpt>
      <trkpt lat="39.46395" lon="-0.98177">
        <ele>702.6498</ele>
        <time>2021-07-20T10:23:26Z</time>
      </trkpt>
      <trkpt lat="39.46334" lon="-0.97887">
        <ele>698.5043</ele>
        <time>2021-07-20T10:23:37Z</time>
      </trkpt>
      <trkpt lat="39.46243" lon="-0.97547">
        <ele>709.7641</ele>
        <time>2021-07-20T10:23:48Z</time>
      </trkpt>
      <trkpt lat="39.46164" lon="-0.97231">
        <ele>713.24</ele>
        <time>2021-07-20T10:23:59Z</time>
      </trkpt>
      <trkpt lat="39.46097" lon="-0.96854">
        <ele>704.8891</ele>
        <time>2021-07-20T10:24:10Z</time>
      </trkpt>
      <trkpt lat="39.46042" lon="-0.96467">
        <ele>702.5148</ele>
        <time>2021-07-20T10:24:21Z</time>
      </trkpt>
      <trkpt lat="39.45987" lon="-0.96079">
        <ele>697.1317</ele>
        <time>2021-07-20T10:24:32Z</time>
      </trkpt>
      <trkpt lat="39.45932" lon="-0.95698">
        <ele>693.8033</ele>
        <time>2021-07-20T10:24:43Z</time>
      </trkpt>
      <trkpt lat="39.45826" lon="-0.95408">
        <ele>697.9664</ele>
        <time>2021-07-20T10:24:54Z</time>
      </trkpt>
      <trkpt lat="39.45816" lon="-0.95287">
        <ele>699.534</ele>
        <time>2021-07-20T10:25:05Z</time>
      </trkpt>
      <trkpt lat="39.45822" lon="-0.95282">
        <ele>700.2325</ele>
        <time>2021-07-20T10:25:20Z</time>
      </trkpt>
      <trkpt lat="39.45928" lon="-0.95111">
        <ele>704.4221</ele>
        <time>2021-07-20T10:25:31Z</time>
      </trkpt>
      <trkpt lat="39.46047" lon="-0.94847">
        <ele>703.4673</ele>
        <time>2021-07-20T10:25:42Z</time>
      </trkpt>
      <trkpt lat="39.4613" lon="-0.9455">
        <ele>717.5861</ele>
        <time>2021-07-20T10:25:53Z</time>
      </trkpt>
      <trkpt lat="39.46255" lon="-0.94328">
        <ele>731.1763</ele>
        <time>2021-07-20T10:26:04Z</time>
      </trkpt>
      <trkpt lat="39.46381" lon="-0.94039">
        <ele>732.6345</ele>
        <time>2021-07-20T10:26:15Z</time>
      </trkpt>
      <trkpt lat="39.46574" lon="-0.93806">
        <ele>730.9355</ele>
        <time>2021-07-20T10:26:26Z</time>
      </trkpt>
      <trkpt lat="39.46763" lon="-0.93657">
        <ele>736.6755</ele>
        <time>2021-07-20T10:26:37Z</time>
      </trkpt>
      <trkpt lat="39.46673" lon="-0.93493">
        <ele>751.5097</ele>
        <time>2021-07-20T10:26:48Z</time>
      </trkpt>
      <trkpt lat="39.46733" lon="-0.93278">
        <ele>765.1726</ele>
        <time>2021-07-20T10:26:59Z</time>
      </trkpt>
      <trkpt lat="39.46874" lon="-0.93052">
        <ele>760.4832</ele>
        <time>2021-07-20T10:27:10Z</time>
      </trkpt>
      <trkpt lat="39.47093" lon="-0.92863">
        <ele>758.8561</ele>
        <time>2021-07-20T10:27:21Z</time>
      </trkpt>
      <trkpt lat="39.47308" lon="-0.92686">
        <ele>754.6442</ele>
        <time>2021-07-20T10:27:32Z</time>
      </trkpt>
      <trkpt lat="39.47295" lon="-0.92375">
        <ele>739.5021</ele>
        <time>2021-07-20T10:27:43Z</time>
      </trkpt>
      <trkpt lat="39.47337" lon="-0.92106">
        <ele>724.2803</ele>
        <time>2021-07-20T10:27:54Z</time>
      </trkpt>
      <trkpt lat="39.47303" lon="-0.91946">
        <ele>715.6775</ele>
        <time>2021-07-20T10:28:05Z</time>
      </trkpt>
      <trkpt lat="39.47383" lon="-0.91858">
        <ele>709.5044</ele>
        <time>2021-07-20T10:28:16Z</time>
      </trkpt>
      <trkpt lat="39.4743" lon="-0.91781">
        <ele>705.1555</ele>
        <time>2021-07-20T10:28:27Z</time>
      </trkpt>
      <trkpt lat="39.47378" lon="-0.91669">
        <ele>702.5251</ele>
        <time>2021-07-20T10:28:38Z</time>
      </trkpt>
      <trkpt lat="39.47337" lon="-0.9158">
        <ele>704.3696</ele>
        <time>2021-07-20T10:28:49Z</time>
      </trkpt>
      <trkpt lat="39.47289" lon="-0.91484">
        <ele>697.4721</ele>
        <time>2021-07-20T10:29:00Z</time>
      </trkpt>
      <trkpt lat="39.47195" lon="-0.9146">
        <ele>690.8732</ele>
        <time>2021-07-20T10:29:11Z</time>
      </trkpt>
      <trkpt lat="39.47104" lon="-0.91405">
        <ele>682.8198</ele>
        <time>2021-07-20T10:29:22Z</time>
      </trkpt>
      <trkpt lat="39.47046" lon="-0.91266">
        <ele>677.3583</ele>
        <time>2021-07-20T10:29:33Z</time>
      </trkpt>
      <trkpt lat="39.46961" lon="-0.91042">
        <ele>673.6471</ele>
        <time>2021-07-20T10:29:44Z</time>
      </trkpt>
      <trkpt lat="39.46793" lon="-0.91025">
        <ele>681.4062</ele>
        <time>2021-07-20T10:29:55Z</time>
      </trkpt>
      <trkpt lat="39.46652" lon="-0.90911">
        <ele>685.0227</ele>
        <time>2021-07-20T10:30:06Z</time>
      </trkpt>
      <trkpt lat="39.46486" lon="-0.90827">
        <ele>686.7535</ele>
        <time>2021-07-20T10:30:17Z</time>
      </trkpt>
      <trkpt lat="39.46281" lon="-0.9074">
        <ele>684.8904</ele>
        <time>2021-07-20T10:30:28Z</time>
      </trkpt>
      <trkpt lat="39.46087" lon="-0.90724">
        <ele>670.7541</ele>
        <time>2021-07-20T10:30:39Z</time>
      </trkpt>
      <trkpt lat="39.4585" lon="-0.90554">
        <ele>665.3241</ele>
        <time>2021-07-20T10:30:50Z</time>
      </trkpt>
      <trkpt lat="39.45667" lon="-0.90396">
        <ele>655.8996</ele>
        <time>2021-07-20T10:31:01Z</time>
      </trkpt>
      <trkpt lat="39.45602" lon="-0.90333">
        <ele>649.9674</ele>
        <time>2021-07-20T10:31:12Z</time>
      </trkpt>
      <trkpt lat="39.4567" lon="-0.90394">
        <ele>655.094</ele>
        <time>2021-07-20T10:31:23Z</time>
      </trkpt>
      <trkpt lat="39.45888" lon="-0.90578">
        <ele>670.8168</ele>
        <time>2021-07-20T10:31:34Z</time>
      </trkpt>
      <trkpt lat="39.46138" lon="-0.90753">
        <ele>680.4631</ele>
        <time>2021-07-20T10:31:45Z</time>
      </trkpt>
      <trkpt lat="39.46334" lon="-0.90766">
        <ele>687.201</ele>
        <time>2021-07-20T10:31:56Z</time>
      </trkpt>
      <trkpt lat="39.46568" lon="-0.90856">
        <ele>686.2086</ele>
        <time>2021-07-20T10:32:07Z</time>
      </trkpt>
      <trkpt lat="39.46736" lon="-0.90978">
        <ele>682.7482</ele>
        <time>2021-07-20T10:32:18Z</time>
      </trkpt>
      <trkpt lat="39.46883" lon="-0.90999">
        <ele>677.7521</ele>
        <time>2021-07-20T10:32:29Z</time>
      </trkpt>
      <trkpt lat="39.47007" lon="-0.91146">
        <ele>669.085</ele>
        <time>2021-07-20T10:32:40Z</time>
      </trkpt>
      <trkpt lat="39.47076" lon="-0.91322">
        <ele>678.5436</ele>
        <time>2021-07-20T10:32:51Z</time>
      </trkpt>
      <trkpt lat="39.47134" lon="-0.91443">
        <ele>685.6089</ele>
        <time>2021-07-20T10:33:02Z</time>
      </trkpt>
      <trkpt lat="39.47247" lon="-0.91451">
        <ele>695.382</ele>
        <time>2021-07-20T10:33:13Z</time>
      </trkpt>
      <trkpt lat="39.47313" lon="-0.91518">
        <ele>699.6685</ele>
        <time>2021-07-20T10:33:24Z</time>
      </trkpt>
      <trkpt lat="39.47348" lon="-0.91595">
        <ele>704.6089</ele>
        <time>2021-07-20T10:33:35Z</time>
      </trkpt>
      <trkpt lat="39.47274" lon="-0.91651">
        <ele>706.9473</ele>
        <time>2021-07-20T10:33:46Z</time>
      </trkpt>
      <trkpt lat="39.47225" lon="-0.91689">
        <ele>712.5132</ele>
        <time>2021-07-20T10:33:57Z</time>
      </trkpt>
      <trkpt lat="39.47191" lon="-0.91724">
        <ele>709.2976</ele>
        <time>2021-07-20T10:34:08Z</time>
      </trkpt>
      <trkpt lat="39.47163" lon="-0.91767">
        <ele>709.1193</ele>
        <time>2021-07-20T10:34:19Z</time>
      </trkpt>
      <trkpt lat="39.47119" lon="-0.91656">
        <ele>708.9017</ele>
        <time>2021-07-20T10:34:30Z</time>
      </trkpt>
      <trkpt lat="39.47087" lon="-0.91602">
        <ele>704.8572</ele>
        <time>2021-07-20T10:34:41Z</time>
      </trkpt>
      <trkpt lat="39.47085" lon="-0.91595">
        <ele>712.5992</ele>
        <time>2021-07-20T10:34:52Z</time>
      </trkpt>
      <trkpt lat="39.47087" lon="-0.91598">
        <ele>724.8311</ele>
        <time>2021-07-20T10:35:16Z</time>
      </trkpt>
      <trkpt lat="39.4708" lon="-0.91557">
        <ele>734.6906</ele>
        <time>2021-07-20T10:35:27Z</time>
      </trkpt>
      <trkpt lat="39.47054" lon="-0.915">
        <ele>718.4015</ele>
        <time>2021-07-20T10:35:38Z</time>
      </trkpt>
      <trkpt lat="39.47021" lon="-0.91483">
        <ele>712.0846</ele>
        <time>2021-07-20T10:35:49Z</time>
      </trkpt>
      <trkpt lat="39.47009" lon="-0.91432">
        <ele>704.2243</ele>
        <time>2021-07-20T10:36:00Z</time>
      </trkpt>
      <trkpt lat="39.47066" lon="-0.91388">
        <ele>694.71</ele>
        <time>2021-07-20T10:36:11Z</time>
      </trkpt>
      <trkpt lat="39.47085" lon="-0.91386">
        <ele>693.2846</ele>
        <time>2021-07-20T10:36:22Z</time>
      </trkpt>
      <trkpt lat="39.4709" lon="-0.91383">
        <ele>690.362</ele>
        <time>2021-07-20T10:36:33Z</time>
      </trkpt>
      <trkpt lat="39.47094" lon="-0.91383">
        <ele>690.5254</ele>
        <time>2021-07-20T10:36:45Z</time>
      </trkpt>
      <trkpt lat="39.47093" lon="-0.91382">
        <ele>686.6087</ele>
        <time>2021-07-20T10:37:44Z</time>
      </trkpt>
      <trkpt lat="39.47092" lon="-0.91381">
        <ele>686.7115</ele>
        <time>2021-07-20T10:38:43Z</time>
      </trkpt>
      <trkpt lat="39.4713" lon="-0.91442">
        <ele>689.6743</ele>
        <time>2021-07-20T10:38:54Z</time>
      </trkpt>
      <trkpt lat="39.47243" lon="-0.91452">
        <ele>697.7905</ele>
        <time>2021-07-20T10:39:05Z</time>
      </trkpt>
      <trkpt lat="39.47308" lon="-0.915">
        <ele>700.4578</ele>
        <time>2021-07-20T10:39:16Z</time>
      </trkpt>
      <trkpt lat="39.47343" lon="-0.91503">
        <ele>699.9241</ele>
        <time>2021-07-20T10:39:27Z</time>
      </trkpt>
      <trkpt lat="39.47351" lon="-0.91503">
        <ele>699.6164</ele>
        <time>2021-07-20T10:39:38Z</time>
      </trkpt>
      <trkpt lat="39.47357" lon="-0.91505">
        <ele>700.0924</ele>
        <time>2021-07-20T10:39:49Z</time>
      </trkpt>
      <trkpt lat="39.47384" lon="-0.91501">
        <ele>701.1319</ele>
        <time>2021-07-20T10:40:00Z</time>
      </trkpt>
      <trkpt lat="39.47369" lon="-0.91505">
        <ele>700.4745</ele>
        <time>2021-07-20T10:40:11Z</time>
      </trkpt>
      <trkpt lat="39.47364" lon="-0.91504">
        <ele>700.3</ele>
        <time>2021-07-20T10:40:24Z</time>
      </trkpt>
      <trkpt lat="39.47361" lon="-0.91502">
        <ele>698.3027</ele>
        <time>2021-07-20T10:40:35Z</time>
      </trkpt>
      <trkpt lat="39.47361" lon="-0.91502">
        <ele>700.9576</ele>
        <time>2021-07-20T10:41:33Z</time>
      </trkpt>
      <trkpt lat="39.47357" lon="-0.91503">
        <ele>701.1333</ele>
        <time>2021-07-20T10:41:55Z</time>
      </trkpt>
      <trkpt lat="39.47352" lon="-0.91503">
        <ele>701.9754</ele>
        <time>2021-07-20T10:42:08Z</time>
      </trkpt>
      <trkpt lat="39.47342" lon="-0.91499">
        <ele>702.1839</ele>
        <time>2021-07-20T10:42:19Z</time>
      </trkpt>
      <trkpt lat="39.47348" lon="-0.91499">
        <ele>695.0376</ele>
        <time>2021-07-20T10:42:30Z</time>
      </trkpt>
      <trkpt lat="39.4734" lon="-0.91502">
        <ele>694.6458</ele>
        <time>2021-07-20T10:42:41Z</time>
      </trkpt>
      <trkpt lat="39.47336" lon="-0.91507">
        <ele>696.5482</ele>
        <time>2021-07-20T10:42:52Z</time>
      </trkpt>
      <trkpt lat="39.47339" lon="-0.91505">
        <ele>696.6681</ele>
        <time>2021-07-20T10:43:13Z</time>
      </trkpt>
      <trkpt lat="39.47339" lon="-0.91506">
        <ele>696.0085</ele>
        <time>2021-07-20T10:44:12Z</time>
      </trkpt>
      <trkpt lat="39.47341" lon="-0.91506">
        <ele>696.3625</ele>
        <time>2021-07-20T10:45:10Z</time>
      </trkpt>
      <trkpt lat="39.47342" lon="-0.91505">
        <ele>696.3519</ele>
        <time>2021-07-20T10:46:08Z</time>
      </trkpt>
      <trkpt lat="39.47339" lon="-0.91508">
        <ele>696.5956</ele>
        <time>2021-07-20T10:46:48Z</time>
      </trkpt>
      <trkpt lat="39.47341" lon="-0.91512">
        <ele>696.3259</ele>
        <time>2021-07-20T10:47:15Z</time>
      </trkpt>
      <trkpt lat="39.47339" lon="-0.9151">
        <ele>696.741</ele>
        <time>2021-07-20T10:48:13Z</time>
      </trkpt>
      <trkpt lat="39.47339" lon="-0.91507">
        <ele>696.4991</ele>
        <time>2021-07-20T10:49:11Z</time>
      </trkpt>
      <trkpt lat="39.4734" lon="-0.91508">
        <ele>696.8562</ele>
        <time>2021-07-20T10:50:10Z</time>
      </trkpt>
      <trkpt lat="39.47341" lon="-0.91508">
        <ele>696.2005</ele>
        <time>2021-07-20T10:51:10Z</time>
      </trkpt>
      <trkpt lat="39.4734" lon="-0.91509">
        <ele>696.778</ele>
        <time>2021-07-20T10:52:10Z</time>
      </trkpt>
      <trkpt lat="39.47341" lon="-0.91505">
        <ele>697.0906</ele>
        <time>2021-07-20T10:53:10Z</time>
      </trkpt>
      <trkpt lat="39.4734" lon="-0.91506">
        <ele>696.6194</ele>
        <time>2021-07-20T10:54:09Z</time>
      </trkpt>
      <trkpt lat="39.47342" lon="-0.91506">
        <ele>696.7697</ele>
        <time>2021-07-20T10:55:09Z</time>
      </trkpt>
      <trkpt lat="39.47342" lon="-0.91503">
        <ele>696.3849</ele>
        <time>2021-07-20T10:56:08Z</time>
      </trkpt>
      <trkpt lat="39.47344" lon="-0.91505">
        <ele>695.8125</ele>
        <time>2021-07-20T10:57:08Z</time>
      </trkpt>
      <trkpt lat="39.47342" lon="-0.91507">
        <ele>696.4855</ele>
        <time>2021-07-20T10:58:08Z</time>
      </trkpt>
      <trkpt lat="39.47338" lon="-0.91507">
        <ele>696.5866</ele>
        <time>2021-07-20T10:59:08Z</time>
      </trkpt>
      <trkpt lat="39.47338" lon="-0.91507">
        <ele>696.4869</ele>
        <time>2021-07-20T11:00:07Z</time>
      </trkpt>
      <trkpt lat="39.4734" lon="-0.91504">
        <ele>696.366</ele>
        <time>2021-07-20T11:01:06Z</time>
      </trkpt>
      <trkpt lat="39.4734" lon="-0.91509">
        <ele>696.2412</ele>
        <time>2021-07-20T11:02:06Z</time>
      </trkpt>
      <trkpt lat="39.4734" lon="-0.91507">
        <ele>696.7784</ele>
        <time>2021-07-20T11:03:06Z</time>
      </trkpt>
      <trkpt lat="39.47339" lon="-0.91507">
        <ele>696.2193</ele>
        <time>2021-07-20T11:04:06Z</time>
      </trkpt>
      <trkpt lat="39.4734" lon="-0.91508">
        <ele>696.0424</ele>
        <time>2021-07-20T11:05:05Z</time>
      </trkpt>
      <trkpt lat="39.47339" lon="-0.91506">
        <ele>696.8337</ele>
        <time>2021-07-20T11:06:05Z</time>
      </trkpt>
      <trkpt lat="39.47341" lon="-0.91508">
        <ele>696.8799</ele>
        <time>2021-07-20T11:07:03Z</time>
      </trkpt>
      <trkpt lat="39.47342" lon="-0.91506">
        <ele>696.0484</ele>
        <time>2021-07-20T11:08:03Z</time>
      </trkpt>
      <trkpt lat="39.47343" lon="-0.91504">
        <ele>696.5091</ele>
        <time>2021-07-20T11:09:02Z</time>
      </trkpt>
      <trkpt lat="39.47345" lon="-0.91505">
        <ele>696.5806</ele>
        <time>2021-07-20T11:10:00Z</time>
      </trkpt>
      <trkpt lat="39.47342" lon="-0.91509">
        <ele>696.3423</ele>
        <time>2021-07-20T11:10:23Z</time>
      </trkpt>
      <trkpt lat="39.47341" lon="-0.91508">
        <ele>696.7956</ele>
        <time>2021-07-20T11:11:23Z</time>
      </trkpt>
      <trkpt lat="39.4734" lon="-0.91509">
        <ele>696.6412</ele>
        <time>2021-07-20T11:12:23Z</time>
      </trkpt>
      <trkpt lat="39.47343" lon="-0.91508">
        <ele>696.322</ele>
        <time>2021-07-20T11:13:23Z</time>
      </trkpt>
      <trkpt lat="39.47343" lon="-0.91507">
        <ele>696.378</ele>
        <time>2021-07-20T11:14:23Z</time>
      </trkpt>
      <trkpt lat="39.47343" lon="-0.91508">
        <ele>696.1296</ele>
        <time>2021-07-20T11:15:23Z</time>
      </trkpt>
      <trkpt lat="39.47341" lon="-0.9151">
        <ele>696.1161</ele>
        <time>2021-07-20T11:16:23Z</time>
      </trkpt>
      <trkpt lat="39.47341" lon="-0.9151">
        <ele>696.1161</ele>
        <time>2021-07-20T11:17:23Z</time>
      </trkpt>
      <trkpt lat="39.47341" lon="-0.91509">
        <ele>696.5872</ele>
        <time>2021-07-20T11:18:23Z</time>
      </trkpt>
      <trkpt lat="39.47342" lon="-0.91508">
        <ele>696.4896</ele>
        <time>2021-07-20T11:19:23Z</time>
      </trkpt>
      <trkpt lat="39.47342" lon="-0.91508">
        <ele>696.4896</ele>
        <time>2021-07-20T11:20:23Z</time>
      </trkpt>
      <trkpt lat="39.4734" lon="-0.9151">
        <ele>696.7236</ele>
        <time>2021-07-20T11:21:22Z</time>
      </trkpt>
      <trkpt lat="39.47343" lon="-0.91508">
        <ele>696.2651</ele>
        <time>2021-07-20T11:21:53Z</time>
      </trkpt>
      <trkpt lat="39.47341" lon="-0.91508">
        <ele>696.2496</ele>
        <time>2021-07-20T11:22:53Z</time>
      </trkpt>
      <trkpt lat="39.47343" lon="-0.91506">
        <ele>695.9823</ele>
        <time>2021-07-20T11:23:52Z</time>
      </trkpt>
      <trkpt lat="39.47343" lon="-0.91506">
        <ele>696.0446</ele>
        <time>2021-07-20T11:24:50Z</time>
      </trkpt>
      <trkpt lat="39.47344" lon="-0.91507">
        <ele>695.6492</ele>
        <time>2021-07-20T11:25:49Z</time>
      </trkpt>
      <trkpt lat="39.47343" lon="-0.91505">
        <ele>695.8167</ele>
        <time>2021-07-20T11:26:48Z</time>
      </trkpt>
      <trkpt lat="39.47343" lon="-0.91505">
        <ele>695.8167</ele>
        <time>2021-07-20T11:27:47Z</time>
      </trkpt>
      <trkpt lat="39.47343" lon="-0.91504">
        <ele>695.6844</ele>
        <time>2021-07-20T11:28:46Z</time>
      </trkpt>
      <trkpt lat="39.47347" lon="-0.91502">
        <ele>694.5882</ele>
        <time>2021-07-20T11:29:41Z</time>
      </trkpt>
      <trkpt lat="39.47343" lon="-0.91506">
        <ele>696.2474</ele>
        <time>2021-07-20T11:30:00Z</time>
      </trkpt>
      <trkpt lat="39.47343" lon="-0.91506">
        <ele>696.1662</ele>
        <time>2021-07-20T11:30:59Z</time>
      </trkpt>
      <trkpt lat="39.47343" lon="-0.91506">
        <ele>696.1662</ele>
        <time>2021-07-20T11:31:59Z</time>
      </trkpt>
      <trkpt lat="39.47343" lon="-0.91506">
        <ele>696.1662</ele>
        <time>2021-07-20T11:32:58Z</time>
      </trkpt>
      <trkpt lat="39.47345" lon="-0.91505">
        <ele>696.1737</ele>
        <time>2021-07-20T11:33:58Z</time>
      </trkpt>
      <trkpt lat="39.47345" lon="-0.91505">
        <ele>696.1737</ele>
        <time>2021-07-20T11:34:57Z</time>
      </trkpt>
      <trkpt lat="39.47345" lon="-0.91505">
        <ele>696.1737</ele>
        <time>2021-07-20T11:35:57Z</time>
      </trkpt>
      <trkpt lat="39.47343" lon="-0.91507">
        <ele>695.845</ele>
        <time>2021-07-20T11:36:13Z</time>
      </trkpt>
      <trkpt lat="39.47342" lon="-0.91507">
        <ele>696.5141</ele>
        <time>2021-07-20T11:37:12Z</time>
      </trkpt>
      <trkpt lat="39.47342" lon="-0.91508">
        <ele>696.3041</ele>
        <time>2021-07-20T11:38:11Z</time>
      </trkpt>
      <trkpt lat="39.47342" lon="-0.91508">
        <ele>696.3041</ele>
        <time>2021-07-20T11:39:10Z</time>
      </trkpt>
      <trkpt lat="39.47343" lon="-0.91507">
        <ele>696.4396</ele>
        <time>2021-07-20T11:40:09Z</time>
      </trkpt>
      <trkpt lat="39.47343" lon="-0.91507">
        <ele>696.4396</ele>
        <time>2021-07-20T11:41:08Z</time>
      </trkpt>
      <trkpt lat="39.47343" lon="-0.91507">
        <ele>696.4396</ele>
        <time>2021-07-20T11:42:08Z</time>
      </trkpt>
      <trkpt lat="39.4734" lon="-0.91508">
        <ele>696.6601</ele>
        <time>2021-07-20T11:42:56Z</time>
      </trkpt>
      <trkpt lat="39.47336" lon="-0.91509">
        <ele>696.8979</ele>
        <time>2021-07-20T11:43:27Z</time>
      </trkpt>
      <trkpt lat="39.47341" lon="-0.91507">
        <ele>695.6254</ele>
        <time>2021-07-20T11:43:38Z</time>
      </trkpt>
      <trkpt lat="39.47343" lon="-0.91504">
        <ele>696.3029</ele>
        <time>2021-07-20T11:44:01Z</time>
      </trkpt>
      <trkpt lat="39.47339" lon="-0.91506">
        <ele>695.3104</ele>
        <time>2021-07-20T11:44:29Z</time>
      </trkpt>
      <trkpt lat="39.4734" lon="-0.91504">
        <ele>695.5815</ele>
        <time>2021-07-20T11:45:27Z</time>
      </trkpt>
      <trkpt lat="39.47346" lon="-0.9151">
        <ele>696.2764</ele>
        <time>2021-07-20T11:45:38Z</time>
      </trkpt>
      <trkpt lat="39.4735" lon="-0.91511">
        <ele>697.0406</ele>
        <time>2021-07-20T11:46:12Z</time>
      </trkpt>
      <trkpt lat="39.47363" lon="-0.91504">
        <ele>695.4578</ele>
        <time>2021-07-20T11:46:23Z</time>
      </trkpt>
      <trkpt lat="39.47361" lon="-0.91501">
        <ele>695.4481</ele>
        <time>2021-07-20T11:47:22Z</time>
      </trkpt>
      <trkpt lat="39.47361" lon="-0.91502">
        <ele>696.4901</ele>
        <time>2021-07-20T11:48:21Z</time>
      </trkpt>
      <trkpt lat="39.4736" lon="-0.91501">
        <ele>697.2288</ele>
        <time>2021-07-20T11:49:20Z</time>
      </trkpt>
      <trkpt lat="39.47362" lon="-0.91501">
        <ele>695.7648</ele>
        <time>2021-07-20T11:50:19Z</time>
      </trkpt>
      <trkpt lat="39.47362" lon="-0.91506">
        <ele>695.1179</ele>
        <time>2021-07-20T11:50:45Z</time>
      </trkpt>
      <trkpt lat="39.47365" lon="-0.91503">
        <ele>697.104</ele>
        <time>2021-07-20T11:51:05Z</time>
      </trkpt>
      <trkpt lat="39.47351" lon="-0.91504">
        <ele>696.0368</ele>
        <time>2021-07-20T11:51:16Z</time>
      </trkpt>
      <trkpt lat="39.47314" lon="-0.91506">
        <ele>697.2387</ele>
        <time>2021-07-20T11:51:27Z</time>
      </trkpt>
      <trkpt lat="39.47272" lon="-0.91458">
        <ele>692.0137</ele>
        <time>2021-07-20T11:51:38Z</time>
      </trkpt>
      <trkpt lat="39.47151" lon="-0.91457">
        <ele>686.9884</ele>
        <time>2021-07-20T11:51:49Z</time>
      </trkpt>
      <trkpt lat="39.47071" lon="-0.91325">
        <ele>680.838</ele>
        <time>2021-07-20T11:52:00Z</time>
      </trkpt>
      <trkpt lat="39.46999" lon="-0.91143">
        <ele>669.0539</ele>
        <time>2021-07-20T11:52:11Z</time>
      </trkpt>
      <trkpt lat="39.46883" lon="-0.91004">
        <ele>676.2456</ele>
        <time>2021-07-20T11:52:22Z</time>
      </trkpt>
      <trkpt lat="39.46753" lon="-0.91001">
        <ele>684.0173</ele>
        <time>2021-07-20T11:52:33Z</time>
      </trkpt>
      <trkpt lat="39.46623" lon="-0.9089">
        <ele>688.3826</ele>
        <time>2021-07-20T11:52:44Z</time>
      </trkpt>
      <trkpt lat="39.46453" lon="-0.90813">
        <ele>689.2325</ele>
        <time>2021-07-20T11:52:55Z</time>
      </trkpt>
      <trkpt lat="39.46285" lon="-0.90742">
        <ele>686.6654</ele>
        <time>2021-07-20T11:53:06Z</time>
      </trkpt>
      <trkpt lat="39.46136" lon="-0.90754">
        <ele>676.5482</ele>
        <time>2021-07-20T11:53:17Z</time>
      </trkpt>
      <trkpt lat="39.4597" lon="-0.90649">
        <ele>670.2362</ele>
        <time>2021-07-20T11:53:28Z</time>
      </trkpt>
      <trkpt lat="39.45801" lon="-0.90511">
        <ele>660.4998</ele>
        <time>2021-07-20T11:53:39Z</time>
      </trkpt>
      <trkpt lat="39.45652" lon="-0.90381">
        <ele>655.0846</ele>
        <time>2021-07-20T11:53:50Z</time>
      </trkpt>
      <trkpt lat="39.456" lon="-0.90323">
        <ele>649.2599</ele>
        <time>2021-07-20T11:54:01Z</time>
      </trkpt>
      <trkpt lat="39.45675" lon="-0.90251">
        <ele>647.6622</ele>
        <time>2021-07-20T11:54:12Z</time>
      </trkpt>
      <trkpt lat="39.4569" lon="-0.90074">
        <ele>643.8777</ele>
        <time>2021-07-20T11:54:23Z</time>
      </trkpt>
      <trkpt lat="39.45646" lon="-0.899">
        <ele>638.5324</ele>
        <time>2021-07-20T11:54:34Z</time>
      </trkpt>
      <trkpt lat="39.45651" lon="-0.89808">
        <ele>631.4025</ele>
        <time>2021-07-20T11:54:45Z</time>
      </trkpt>
      <trkpt lat="39.45627" lon="-0.89702">
        <ele>633.0191</ele>
        <time>2021-07-20T11:54:56Z</time>
      </trkpt>
      <trkpt lat="39.4567" lon="-0.89441">
        <ele>622.1635</ele>
        <time>2021-07-20T11:55:07Z</time>
      </trkpt>
      <trkpt lat="39.45728" lon="-0.8915">
        <ele>616.8695</ele>
        <time>2021-07-20T11:55:18Z</time>
      </trkpt>
      <trkpt lat="39.45641" lon="-0.88917">
        <ele>613.8817</ele>
        <time>2021-07-20T11:55:29Z</time>
      </trkpt>
      <trkpt lat="39.45685" lon="-0.88701">
        <ele>609.7354</ele>
        <time>2021-07-20T11:55:40Z</time>
      </trkpt>
      <trkpt lat="39.45711" lon="-0.88437">
        <ele>607.281</ele>
        <time>2021-07-20T11:55:51Z</time>
      </trkpt>
      <trkpt lat="39.45676" lon="-0.88098">
        <ele>606.4231</ele>
        <time>2021-07-20T11:56:02Z</time>
      </trkpt>
      <trkpt lat="39.45683" lon="-0.87768">
        <ele>603.6627</ele>
        <time>2021-07-20T11:56:13Z</time>
      </trkpt>
      <trkpt lat="39.45666" lon="-0.87499">
        <ele>596.4433</ele>
        <time>2021-07-20T11:56:24Z</time>
      </trkpt>
      <trkpt lat="39.45665" lon="-0.8724">
        <ele>590.2955</ele>
        <time>2021-07-20T11:56:35Z</time>
      </trkpt>
      <trkpt lat="39.45449" lon="-0.87113">
        <ele>589.7909</ele>
        <time>2021-07-20T11:56:46Z</time>
      </trkpt>
      <trkpt lat="39.45302" lon="-0.86876">
        <ele>586.5206</ele>
        <time>2021-07-20T11:56:57Z</time>
      </trkpt>
      <trkpt lat="39.4535" lon="-0.86686">
        <ele>591.6075</ele>
        <time>2021-07-20T11:57:08Z</time>
      </trkpt>
      <trkpt lat="39.45568" lon="-0.86559">
        <ele>584.267</ele>
        <time>2021-07-20T11:57:19Z</time>
      </trkpt>
      <trkpt lat="39.45499" lon="-0.86268">
        <ele>582.861</ele>
        <time>2021-07-20T11:57:30Z</time>
      </trkpt>
      <trkpt lat="39.45352" lon="-0.85998">
        <ele>581.8504</ele>
        <time>2021-07-20T11:57:41Z</time>
      </trkpt>
      <trkpt lat="39.4526" lon="-0.85648">
        <ele>586.0621</ele>
        <time>2021-07-20T11:57:52Z</time>
      </trkpt>
      <trkpt lat="39.45072" lon="-0.85379">
        <ele>602.6805</ele>
        <time>2021-07-20T11:58:03Z</time>
      </trkpt>
      <trkpt lat="39.44982" lon="-0.85056">
        <ele>612.7625</ele>
        <time>2021-07-20T11:58:14Z</time>
      </trkpt>
      <trkpt lat="39.4489" lon="-0.8472">
        <ele>608.8331</ele>
        <time>2021-07-20T11:58:25Z</time>
      </trkpt>
      <trkpt lat="39.44745" lon="-0.84399">
        <ele>603.9786</ele>
        <time>2021-07-20T11:58:36Z</time>
      </trkpt>
      <trkpt lat="39.44595" lon="-0.84161">
        <ele>606.9239</ele>
        <time>2021-07-20T11:58:47Z</time>
      </trkpt>
      <trkpt lat="39.44468" lon="-0.83874">
        <ele>602.0307</ele>
        <time>2021-07-20T11:58:58Z</time>
      </trkpt>
      <trkpt lat="39.44402" lon="-0.83546">
        <ele>587.8712</ele>
        <time>2021-07-20T11:59:09Z</time>
      </trkpt>
      <trkpt lat="39.44302" lon="-0.83224">
        <ele>593.4687</ele>
        <time>2021-07-20T11:59:20Z</time>
      </trkpt>
      <trkpt lat="39.44225" lon="-0.82881">
        <ele>600.2324</ele>
        <time>2021-07-20T11:59:31Z</time>
      </trkpt>
      <trkpt lat="39.44088" lon="-0.82565">
        <ele>598.1776</ele>
        <time>2021-07-20T11:59:42Z</time>
      </trkpt>
      <trkpt lat="39.43869" lon="-0.8231">
        <ele>590.4552</ele>
        <time>2021-07-20T11:59:53Z</time>
      </trkpt>
      <trkpt lat="39.43644" lon="-0.82142">
        <ele>589.7766</ele>
        <time>2021-07-20T12:00:04Z</time>
      </trkpt>
      <trkpt lat="39.43413" lon="-0.8199">
        <ele>590.996</ele>
        <time>2021-07-20T12:00:15Z</time>
      </trkpt>
      <trkpt lat="39.43221" lon="-0.81834">
        <ele>569.8049</ele>
        <time>2021-07-20T12:00:26Z</time>
      </trkpt>
      <trkpt lat="39.43164" lon="-0.81524">
        <ele>552.4642</ele>
        <time>2021-07-20T12:00:37Z</time>
      </trkpt>
      <trkpt lat="39.43094" lon="-0.81222">
        <ele>534.3903</ele>
        <time>2021-07-20T12:00:48Z</time>
      </trkpt>
      <trkpt lat="39.43073" lon="-0.80933">
        <ele>520.5834</ele>
        <time>2021-07-20T12:00:59Z</time>
      </trkpt>
      <trkpt lat="39.43139" lon="-0.80635">
        <ele>504.5582</ele>
        <time>2021-07-20T12:01:10Z</time>
      </trkpt>
      <trkpt lat="39.42982" lon="-0.80348">
        <ele>486.5289</ele>
        <time>2021-07-20T12:01:21Z</time>
      </trkpt>
      <trkpt lat="39.4294" lon="-0.80019">
        <ele>474.2542</ele>
        <time>2021-07-20T12:01:32Z</time>
      </trkpt>
      <trkpt lat="39.42959" lon="-0.79745">
        <ele>462.6713</ele>
        <time>2021-07-20T12:01:43Z</time>
      </trkpt>
      <trkpt lat="39.42817" lon="-0.79444">
        <ele>444.3264</ele>
        <time>2021-07-20T12:01:54Z</time>
      </trkpt>
      <trkpt lat="39.42686" lon="-0.79307">
        <ele>430.5796</ele>
        <time>2021-07-20T12:02:05Z</time>
      </trkpt>
      <trkpt lat="39.42583" lon="-0.79185">
        <ele>423.1962</ele>
        <time>2021-07-20T12:02:16Z</time>
      </trkpt>
      <trkpt lat="39.42496" lon="-0.7907">
        <ele>417.8244</ele>
        <time>2021-07-20T12:02:27Z</time>
      </trkpt>
      <trkpt lat="39.42447" lon="-0.78997">
        <ele>419.9914</ele>
        <time>2021-07-20T12:02:38Z</time>
      </trkpt>
      <trkpt lat="39.42468" lon="-0.78934">
        <ele>421.3499</ele>
        <time>2021-07-20T12:02:49Z</time>
      </trkpt>
      <trkpt lat="39.42521" lon="-0.7884">
        <ele>419.344</ele>
        <time>2021-07-20T12:03:00Z</time>
      </trkpt>
      <trkpt lat="39.42428" lon="-0.7882">
        <ele>414.0417</ele>
        <time>2021-07-20T12:03:11Z</time>
      </trkpt>
      <trkpt lat="39.42308" lon="-0.78862">
        <ele>406.4001</ele>
        <time>2021-07-20T12:03:22Z</time>
      </trkpt>
      <trkpt lat="39.42203" lon="-0.78896">
        <ele>394.6477</ele>
        <time>2021-07-20T12:03:33Z</time>
      </trkpt>
      <trkpt lat="39.42117" lon="-0.78966">
        <ele>384.4327</ele>
        <time>2021-07-20T12:03:44Z</time>
      </trkpt>
      <trkpt lat="39.42105" lon="-0.78962">
        <ele>385.4447</ele>
        <time>2021-07-20T12:03:55Z</time>
      </trkpt>
      <trkpt lat="39.42074" lon="-0.78964">
        <ele>386.0368</ele>
        <time>2021-07-20T12:04:06Z</time>
      </trkpt>
      <trkpt lat="39.41971" lon="-0.78949">
        <ele>382.6266</ele>
        <time>2021-07-20T12:04:17Z</time>
      </trkpt>
      <trkpt lat="39.41876" lon="-0.7888">
        <ele>375.3389</ele>
        <time>2021-07-20T12:04:28Z</time>
      </trkpt>
      <trkpt lat="39.41793" lon="-0.78836">
        <ele>370.2151</ele>
        <time>2021-07-20T12:04:39Z</time>
      </trkpt>
      <trkpt lat="39.41717" lon="-0.78793">
        <ele>367.437</ele>
        <time>2021-07-20T12:04:50Z</time>
      </trkpt>
      <trkpt lat="39.4168" lon="-0.78783">
        <ele>368.8089</ele>
        <time>2021-07-20T12:05:01Z</time>
      </trkpt>
      <trkpt lat="39.41648" lon="-0.78836">
        <ele>370.0378</ele>
        <time>2021-07-20T12:05:12Z</time>
      </trkpt>
      <trkpt lat="39.41596" lon="-0.78925">
        <ele>356.7072</ele>
        <time>2021-07-20T12:05:23Z</time>
      </trkpt>
      <trkpt lat="39.41505" lon="-0.78874">
        <ele>343.2709</ele>
        <time>2021-07-20T12:05:34Z</time>
      </trkpt>
      <trkpt lat="39.41412" lon="-0.78797">
        <ele>342.2608</ele>
        <time>2021-07-20T12:05:45Z</time>
      </trkpt>
      <trkpt lat="39.41293" lon="-0.78689">
        <ele>328.1056</ele>
        <time>2021-07-20T12:05:56Z</time>
      </trkpt>
      <trkpt lat="39.41106" lon="-0.78634">
        <ele>317.2466</ele>
        <time>2021-07-20T12:06:07Z</time>
      </trkpt>
      <trkpt lat="39.40862" lon="-0.78562">
        <ele>310.8578</ele>
        <time>2021-07-20T12:06:18Z</time>
      </trkpt>
      <trkpt lat="39.4065" lon="-0.78491">
        <ele>304.3548</ele>
        <time>2021-07-20T12:06:29Z</time>
      </trkpt>
      <trkpt lat="39.40439" lon="-0.78453">
        <ele>307.8018</ele>
        <time>2021-07-20T12:06:40Z</time>
      </trkpt>
      <trkpt lat="39.40263" lon="-0.7836">
        <ele>317.2002</ele>
        <time>2021-07-20T12:06:51Z</time>
      </trkpt>
      <trkpt lat="39.40093" lon="-0.78284">
        <ele>320.7976</ele>
        <time>2021-07-20T12:07:02Z</time>
      </trkpt>
      <trkpt lat="39.39943" lon="-0.78311">
        <ele>325.4731</ele>
        <time>2021-07-20T12:07:13Z</time>
      </trkpt>
      <trkpt lat="39.39857" lon="-0.7846">
        <ele>318.827</ele>
        <time>2021-07-20T12:07:24Z</time>
      </trkpt>
      <trkpt lat="39.39776" lon="-0.78327">
        <ele>323.1881</ele>
        <time>2021-07-20T12:07:35Z</time>
      </trkpt>
      <trkpt lat="39.39714" lon="-0.7815">
        <ele>331.9888</ele>
        <time>2021-07-20T12:07:46Z</time>
      </trkpt>
      <trkpt lat="39.39633" lon="-0.78137">
        <ele>337.0961</ele>
        <time>2021-07-20T12:07:57Z</time>
      </trkpt>
      <trkpt lat="39.39533" lon="-0.78027">
        <ele>341.2124</ele>
        <time>2021-07-20T12:08:08Z</time>
      </trkpt>
      <trkpt lat="39.3945" lon="-0.77893">
        <ele>345.0073</ele>
        <time>2021-07-20T12:08:19Z</time>
      </trkpt>
      <trkpt lat="39.39414" lon="-0.77759">
        <ele>347.8587</ele>
        <time>2021-07-20T12:08:30Z</time>
      </trkpt>
      <trkpt lat="39.39373" lon="-0.7759">
        <ele>340.1167</ele>
        <time>2021-07-20T12:08:41Z</time>
      </trkpt>
      <trkpt lat="39.39379" lon="-0.7742">
        <ele>329.0817</ele>
        <time>2021-07-20T12:08:52Z</time>
      </trkpt>
      <trkpt lat="39.393" lon="-0.77302">
        <ele>315.5802</ele>
        <time>2021-07-20T12:09:03Z</time>
      </trkpt>
      <trkpt lat="39.39242" lon="-0.77186">
        <ele>309.8945</ele>
        <time>2021-07-20T12:09:14Z</time>
      </trkpt>
      <trkpt lat="39.39156" lon="-0.77095">
        <ele>307.7094</ele>
        <time>2021-07-20T12:09:25Z</time>
      </trkpt>
      <trkpt lat="39.39095" lon="-0.77009">
        <ele>303.7369</ele>
        <time>2021-07-20T12:09:36Z</time>
      </trkpt>
      <trkpt lat="39.39094" lon="-0.76916">
        <ele>297.3674</ele>
        <time>2021-07-20T12:09:47Z</time>
      </trkpt>
      <trkpt lat="39.39121" lon="-0.76815">
        <ele>289.9905</ele>
        <time>2021-07-20T12:09:58Z</time>
      </trkpt>
      <trkpt lat="39.3924" lon="-0.76838">
        <ele>282.8044</ele>
        <time>2021-07-20T12:10:09Z</time>
      </trkpt>
      <trkpt lat="39.39349" lon="-0.76858">
        <ele>278.3563</ele>
        <time>2021-07-20T12:10:20Z</time>
      </trkpt>
      <trkpt lat="39.39293" lon="-0.76769">
        <ele>270.3043</ele>
        <time>2021-07-20T12:10:31Z</time>
      </trkpt>
      <trkpt lat="39.39248" lon="-0.76624">
        <ele>267.0892</ele>
        <time>2021-07-20T12:10:42Z</time>
      </trkpt>
      <trkpt lat="39.39291" lon="-0.76484">
        <ele>269.7876</ele>
        <time>2021-07-20T12:10:53Z</time>
      </trkpt>
      <trkpt lat="39.39366" lon="-0.76462">
        <ele>276.1528</ele>
        <time>2021-07-20T12:11:04Z</time>
      </trkpt>
      <trkpt lat="39.39309" lon="-0.76325">
        <ele>282.1401</ele>
        <time>2021-07-20T12:11:15Z</time>
      </trkpt>
      <trkpt lat="39.39215" lon="-0.76146">
        <ele>282.0755</ele>
        <time>2021-07-20T12:11:26Z</time>
      </trkpt>
      <trkpt lat="39.39093" lon="-0.75906">
        <ele>274.5238</ele>
        <time>2021-07-20T12:11:37Z</time>
      </trkpt>
      <trkpt lat="39.38946" lon="-0.75629">
        <ele>268.0951</ele>
        <time>2021-07-20T12:11:48Z</time>
      </trkpt>
      <trkpt lat="39.38797" lon="-0.75356">
        <ele>257.0179</ele>
        <time>2021-07-20T12:11:59Z</time>
      </trkpt>
      <trkpt lat="39.38729" lon="-0.75067">
        <ele>251.9902</ele>
        <time>2021-07-20T12:12:10Z</time>
      </trkpt>
      <trkpt lat="39.38695" lon="-0.74715">
        <ele>259.5446</ele>
        <time>2021-07-20T12:12:21Z</time>
      </trkpt>
      <trkpt lat="39.38657" lon="-0.74392">
        <ele>260.6227</ele>
        <time>2021-07-20T12:12:32Z</time>
      </trkpt>
      <trkpt lat="39.38671" lon="-0.74046">
        <ele>260.8101</ele>
        <time>2021-07-20T12:12:43Z</time>
      </trkpt>
      <trkpt lat="39.38707" lon="-0.73707">
        <ele>259.6427</ele>
        <time>2021-07-20T12:12:54Z</time>
      </trkpt>
      <trkpt lat="39.38738" lon="-0.73374">
        <ele>262.5339</ele>
        <time>2021-07-20T12:13:05Z</time>
      </trkpt>
      <trkpt lat="39.38771" lon="-0.73049">
        <ele>271.3309</ele>
        <time>2021-07-20T12:13:16Z</time>
      </trkpt>
      <trkpt lat="39.38805" lon="-0.72729">
        <ele>268.379</ele>
        <time>2021-07-20T12:13:27Z</time>
      </trkpt>
      <trkpt lat="39.38844" lon="-0.72406">
        <ele>274.8942</ele>
        <time>2021-07-20T12:13:38Z</time>
      </trkpt>
      <trkpt lat="39.38899" lon="-0.7216">
        <ele>274.638</ele>
        <time>2021-07-20T12:13:49Z</time>
      </trkpt>
      <trkpt lat="39.38934" lon="-0.72015">
        <ele>272.2113</ele>
        <time>2021-07-20T12:14:00Z</time>
      </trkpt>
      <trkpt lat="39.38967" lon="-0.71852">
        <ele>272.3261</ele>
        <time>2021-07-20T12:14:11Z</time>
      </trkpt>
      <trkpt lat="39.39005" lon="-0.71698">
        <ele>275.1003</ele>
        <time>2021-07-20T12:14:22Z</time>
      </trkpt>
      <trkpt lat="39.39042" lon="-0.7154">
        <ele>274.1724</ele>
        <time>2021-07-20T12:14:33Z</time>
      </trkpt>
      <trkpt lat="39.39075" lon="-0.71409">
        <ele>274.5163</ele>
        <time>2021-07-20T12:14:44Z</time>
      </trkpt>
      <trkpt lat="39.39072" lon="-0.71289">
        <ele>276.7176</ele>
        <time>2021-07-20T12:14:55Z</time>
      </trkpt>
      <trkpt lat="39.39058" lon="-0.71159">
        <ele>275.4068</ele>
        <time>2021-07-20T12:15:06Z</time>
      </trkpt>
      <trkpt lat="39.39094" lon="-0.7105">
        <ele>286.2913</ele>
        <time>2021-07-20T12:15:17Z</time>
      </trkpt>
      <trkpt lat="39.39137" lon="-0.70929">
        <ele>284.812</ele>
        <time>2021-07-20T12:15:28Z</time>
      </trkpt>
      <trkpt lat="39.3917" lon="-0.70815">
        <ele>280.7807</ele>
        <time>2021-07-20T12:15:39Z</time>
      </trkpt>
      <trkpt lat="39.39197" lon="-0.70701">
        <ele>279.7791</ele>
        <time>2021-07-20T12:15:50Z</time>
      </trkpt>
      <trkpt lat="39.39224" lon="-0.70578">
        <ele>281.1142</ele>
        <time>2021-07-20T12:16:01Z</time>
      </trkpt>
      <trkpt lat="39.3925" lon="-0.70472">
        <ele>279.5932</ele>
        <time>2021-07-20T12:16:12Z</time>
      </trkpt>
      <trkpt lat="39.39258" lon="-0.7038">
        <ele>277.051</ele>
        <time>2021-07-20T12:16:23Z</time>
      </trkpt>
      <trkpt lat="39.39207" lon="-0.70292">
        <ele>277.1573</ele>
        <time>2021-07-20T12:16:34Z</time>
      </trkpt>
      <trkpt lat="39.39114" lon="-0.70189">
        <ele>275.6907</ele>
        <time>2021-07-20T12:16:45Z</time>
      </trkpt>
      <trkpt lat="39.39007" lon="-0.70074">
        <ele>268.5525</ele>
        <time>2021-07-20T12:16:56Z</time>
      </trkpt>
      <trkpt lat="39.3891" lon="-0.69944">
        <ele>260.3306</ele>
        <time>2021-07-20T12:17:07Z</time>
      </trkpt>
      <trkpt lat="39.38909" lon="-0.69744">
        <ele>252.8254</ele>
        <time>2021-07-20T12:17:18Z</time>
      </trkpt>
      <trkpt lat="39.38909" lon="-0.69548">
        <ele>252.619</ele>
        <time>2021-07-20T12:17:29Z</time>
      </trkpt>
      <trkpt lat="39.38877" lon="-0.69358">
        <ele>251.467</ele>
        <time>2021-07-20T12:17:40Z</time>
      </trkpt>
      <trkpt lat="39.38808" lon="-0.69166">
        <ele>248.5221</ele>
        <time>2021-07-20T12:17:51Z</time>
      </trkpt>
      <trkpt lat="39.38757" lon="-0.68941">
        <ele>240.0691</ele>
        <time>2021-07-20T12:18:02Z</time>
      </trkpt>
      <trkpt lat="39.38723" lon="-0.68729">
        <ele>239.1633</ele>
        <time>2021-07-20T12:18:13Z</time>
      </trkpt>
      <trkpt lat="39.38717" lon="-0.68481">
        <ele>234.404</ele>
        <time>2021-07-20T12:18:24Z</time>
      </trkpt>
      <trkpt lat="39.38734" lon="-0.68242">
        <ele>231.934</ele>
        <time>2021-07-20T12:18:35Z</time>
      </trkpt>
      <trkpt lat="39.38731" lon="-0.67993">
        <ele>230.4116</ele>
        <time>2021-07-20T12:18:46Z</time>
      </trkpt>
      <trkpt lat="39.38726" lon="-0.67745">
        <ele>228.2123</ele>
        <time>2021-07-20T12:18:57Z</time>
      </trkpt>
      <trkpt lat="39.38725" lon="-0.67491">
        <ele>228.9057</ele>
        <time>2021-07-20T12:19:08Z</time>
      </trkpt>
      <trkpt lat="39.38717" lon="-0.67234">
        <ele>229.906</ele>
        <time>2021-07-20T12:19:19Z</time>
      </trkpt>
      <trkpt lat="39.38687" lon="-0.66879">
        <ele>232.771</ele>
        <time>2021-07-20T12:19:30Z</time>
      </trkpt>
      <trkpt lat="39.38769" lon="-0.66537">
        <ele>232.1935</ele>
        <time>2021-07-20T12:19:41Z</time>
      </trkpt>
      <trkpt lat="39.38904" lon="-0.6621">
        <ele>230.5289</ele>
        <time>2021-07-20T12:19:52Z</time>
      </trkpt>
      <trkpt lat="39.38895" lon="-0.65857">
        <ele>224.9728</ele>
        <time>2021-07-20T12:20:03Z</time>
      </trkpt>
      <trkpt lat="39.38877" lon="-0.65501">
        <ele>213.3386</ele>
        <time>2021-07-20T12:20:14Z</time>
      </trkpt>
      <trkpt lat="39.39008" lon="-0.65179">
        <ele>213.304</ele>
        <time>2021-07-20T12:20:25Z</time>
      </trkpt>
      <trkpt lat="39.39059" lon="-0.6488">
        <ele>210.9316</ele>
        <time>2021-07-20T12:20:36Z</time>
      </trkpt>
      <trkpt lat="39.39015" lon="-0.64555">
        <ele>206.8044</ele>
        <time>2021-07-20T12:20:47Z</time>
      </trkpt>
      <trkpt lat="39.38967" lon="-0.64228">
        <ele>203.8625</ele>
        <time>2021-07-20T12:20:58Z</time>
      </trkpt>
      <trkpt lat="39.38923" lon="-0.63902">
        <ele>202.8745</ele>
        <time>2021-07-20T12:21:09Z</time>
      </trkpt>
      <trkpt lat="39.38876" lon="-0.63568">
        <ele>200.613</ele>
        <time>2021-07-20T12:21:20Z</time>
      </trkpt>
      <trkpt lat="39.38828" lon="-0.6323">
        <ele>195.3263</ele>
        <time>2021-07-20T12:21:31Z</time>
      </trkpt>
      <trkpt lat="39.38778" lon="-0.62895">
        <ele>190.3779</ele>
        <time>2021-07-20T12:21:42Z</time>
      </trkpt>
      <trkpt lat="39.38732" lon="-0.62566">
        <ele>193.5577</ele>
        <time>2021-07-20T12:21:53Z</time>
      </trkpt>
      <trkpt lat="39.38685" lon="-0.62232">
        <ele>203.3728</ele>
        <time>2021-07-20T12:22:04Z</time>
      </trkpt>
      <trkpt lat="39.38637" lon="-0.61905">
        <ele>208.2434</ele>
        <time>2021-07-20T12:22:15Z</time>
      </trkpt>
      <trkpt lat="39.38592" lon="-0.61584">
        <ele>210.4816</ele>
        <time>2021-07-20T12:22:26Z</time>
      </trkpt>
      <trkpt lat="39.38546" lon="-0.61264">
        <ele>211.5578</ele>
        <time>2021-07-20T12:22:37Z</time>
      </trkpt>
      <trkpt lat="39.38442" lon="-0.60985">
        <ele>208.8564</ele>
        <time>2021-07-20T12:22:48Z</time>
      </trkpt>
      <trkpt lat="39.38321" lon="-0.6071">
        <ele>207.1247</ele>
        <time>2021-07-20T12:22:59Z</time>
      </trkpt>
      <trkpt lat="39.382" lon="-0.60433">
        <ele>215.181</ele>
        <time>2021-07-20T12:23:10Z</time>
      </trkpt>
      <trkpt lat="39.38081" lon="-0.60162">
        <ele>223.7504</ele>
        <time>2021-07-20T12:23:21Z</time>
      </trkpt>
      <trkpt lat="39.37973" lon="-0.59906">
        <ele>226.3646</ele>
        <time>2021-07-20T12:23:32Z</time>
      </trkpt>
      <trkpt lat="39.3793" lon="-0.59615">
        <ele>231.0277</ele>
        <time>2021-07-20T12:23:43Z</time>
      </trkpt>
      <trkpt lat="39.37899" lon="-0.59313">
        <ele>224.2783</ele>
        <time>2021-07-20T12:23:54Z</time>
      </trkpt>
      <trkpt lat="39.37863" lon="-0.59014">
        <ele>223.1286</ele>
        <time>2021-07-20T12:24:05Z</time>
      </trkpt>
      <trkpt lat="39.3783" lon="-0.58713">
        <ele>229.8537</ele>
        <time>2021-07-20T12:24:16Z</time>
      </trkpt>
      <trkpt lat="39.37755" lon="-0.58423">
        <ele>229.2865</ele>
        <time>2021-07-20T12:24:27Z</time>
      </trkpt>
      <trkpt lat="39.37668" lon="-0.58157">
        <ele>227.2503</ele>
        <time>2021-07-20T12:24:38Z</time>
      </trkpt>
      <trkpt lat="39.37567" lon="-0.57853">
        <ele>219.6935</ele>
        <time>2021-07-20T12:24:49Z</time>
      </trkpt>
      <trkpt lat="39.3747" lon="-0.57555">
        <ele>214.4687</ele>
        <time>2021-07-20T12:25:00Z</time>
      </trkpt>
      <trkpt lat="39.37454" lon="-0.57233">
        <ele>212.2683</ele>
        <time>2021-07-20T12:25:11Z</time>
      </trkpt>
      <trkpt lat="39.3744" lon="-0.56914">
        <ele>197.912</ele>
        <time>2021-07-20T12:25:22Z</time>
      </trkpt>
      <trkpt lat="39.3738" lon="-0.56772">
        <ele>191.4103</ele>
        <time>2021-07-20T12:25:33Z</time>
      </trkpt>
      <trkpt lat="39.37353" lon="-0.56686">
        <ele>193.226</ele>
        <time>2021-07-20T12:25:44Z</time>
      </trkpt>
      <trkpt lat="39.37427" lon="-0.56571">
        <ele>194.2081</ele>
        <time>2021-07-20T12:25:55Z</time>
      </trkpt>
      <trkpt lat="39.37509" lon="-0.56409">
        <ele>192.3853</ele>
        <time>2021-07-20T12:26:06Z</time>
      </trkpt>
      <trkpt lat="39.37599" lon="-0.56236">
        <ele>190.5374</ele>
        <time>2021-07-20T12:26:17Z</time>
      </trkpt>
      <trkpt lat="39.37696" lon="-0.56044">
        <ele>194.7792</ele>
        <time>2021-07-20T12:26:28Z</time>
      </trkpt>
      <trkpt lat="39.37799" lon="-0.55841">
        <ele>196.2243</ele>
        <time>2021-07-20T12:26:39Z</time>
      </trkpt>
      <trkpt lat="39.37945" lon="-0.55618">
        <ele>193.6869</ele>
        <time>2021-07-20T12:26:50Z</time>
      </trkpt>
      <trkpt lat="39.38067" lon="-0.55455">
        <ele>199.0467</ele>
        <time>2021-07-20T12:27:01Z</time>
      </trkpt>
      <trkpt lat="39.38167" lon="-0.55322">
        <ele>208.2362</ele>
        <time>2021-07-20T12:27:12Z</time>
      </trkpt>
      <trkpt lat="39.38274" lon="-0.55184">
        <ele>213.3003</ele>
        <time>2021-07-20T12:27:23Z</time>
      </trkpt>
      <trkpt lat="39.38352" lon="-0.551">
        <ele>215.3522</ele>
        <time>2021-07-20T12:27:34Z</time>
      </trkpt>
      <trkpt lat="39.38491" lon="-0.54946">
        <ele>215.2741</ele>
        <time>2021-07-20T12:27:45Z</time>
      </trkpt>
      <trkpt lat="39.38649" lon="-0.54771">
        <ele>204.6745</ele>
        <time>2021-07-20T12:27:56Z</time>
      </trkpt>
      <trkpt lat="39.38822" lon="-0.54626">
        <ele>191.8119</ele>
        <time>2021-07-20T12:28:07Z</time>
      </trkpt>
      <trkpt lat="39.38935" lon="-0.5442">
        <ele>176.9802</ele>
        <time>2021-07-20T12:28:18Z</time>
      </trkpt>
      <trkpt lat="39.39017" lon="-0.5421">
        <ele>172.2479</ele>
        <time>2021-07-20T12:28:29Z</time>
      </trkpt>
      <trkpt lat="39.39058" lon="-0.54011">
        <ele>168.3502</ele>
        <time>2021-07-20T12:28:40Z</time>
      </trkpt>
      <trkpt lat="39.39171" lon="-0.53879">
        <ele>163.6785</ele>
        <time>2021-07-20T12:28:51Z</time>
      </trkpt>
      <trkpt lat="39.39311" lon="-0.53726">
        <ele>159.1602</ele>
        <time>2021-07-20T12:29:02Z</time>
      </trkpt>
      <trkpt lat="39.3943" lon="-0.53598">
        <ele>154.8715</ele>
        <time>2021-07-20T12:29:13Z</time>
      </trkpt>
      <trkpt lat="39.39569" lon="-0.53473">
        <ele>149.0593</ele>
        <time>2021-07-20T12:29:24Z</time>
      </trkpt>
      <trkpt lat="39.39713" lon="-0.53383">
        <ele>143.2602</ele>
        <time>2021-07-20T12:29:35Z</time>
      </trkpt>
      <trkpt lat="39.3985" lon="-0.53295">
        <ele>141.2025</ele>
        <time>2021-07-20T12:29:46Z</time>
      </trkpt>
      <trkpt lat="39.39983" lon="-0.53182">
        <ele>140.656</ele>
        <time>2021-07-20T12:29:57Z</time>
      </trkpt>
      <trkpt lat="39.40122" lon="-0.53037">
        <ele>138.3052</ele>
        <time>2021-07-20T12:30:08Z</time>
      </trkpt>
      <trkpt lat="39.40265" lon="-0.52883">
        <ele>134.5239</ele>
        <time>2021-07-20T12:30:19Z</time>
      </trkpt>
      <trkpt lat="39.40407" lon="-0.52734">
        <ele>132.7667</ele>
        <time>2021-07-20T12:30:30Z</time>
      </trkpt>
      <trkpt lat="39.40564" lon="-0.52608">
        <ele>133.5206</ele>
        <time>2021-07-20T12:30:41Z</time>
      </trkpt>
      <trkpt lat="39.40717" lon="-0.52503">
        <ele>125.0518</ele>
        <time>2021-07-20T12:30:52Z</time>
      </trkpt>
      <trkpt lat="39.40914" lon="-0.52378">
        <ele>118.7891</ele>
        <time>2021-07-20T12:31:03Z</time>
      </trkpt>
      <trkpt lat="39.41078" lon="-0.52273">
        <ele>112.157</ele>
        <time>2021-07-20T12:31:14Z</time>
      </trkpt>
      <trkpt lat="39.41163" lon="-0.52101">
        <ele>108.8068</ele>
        <time>2021-07-20T12:31:25Z</time>
      </trkpt>
      <trkpt lat="39.41099" lon="-0.51903">
        <ele>106.7438</ele>
        <time>2021-07-20T12:31:36Z</time>
      </trkpt>
      <trkpt lat="39.41051" lon="-0.51719">
        <ele>100.6577</ele>
        <time>2021-07-20T12:31:47Z</time>
      </trkpt>
      <trkpt lat="39.41047" lon="-0.51524">
        <ele>95.92412</ele>
        <time>2021-07-20T12:31:58Z</time>
      </trkpt>
      <trkpt lat="39.41152" lon="-0.51388">
        <ele>90.64609</ele>
        <time>2021-07-20T12:32:09Z</time>
      </trkpt>
      <trkpt lat="39.4129" lon="-0.51266">
        <ele>84.10346</ele>
        <time>2021-07-20T12:32:20Z</time>
      </trkpt>
      <trkpt lat="39.41413" lon="-0.51165">
        <ele>79.66537</ele>
        <time>2021-07-20T12:32:31Z</time>
      </trkpt>
      <trkpt lat="39.41478" lon="-0.51094">
        <ele>78.75427</ele>
        <time>2021-07-20T12:32:42Z</time>
      </trkpt>
      <trkpt lat="39.41527" lon="-0.5103">
        <ele>80.47023</ele>
        <time>2021-07-20T12:32:53Z</time>
      </trkpt>
      <trkpt lat="39.41664" lon="-0.50934">
        <ele>79.16126</ele>
        <time>2021-07-20T12:33:04Z</time>
      </trkpt>
      <trkpt lat="39.41811" lon="-0.50811">
        <ele>76.46625</ele>
        <time>2021-07-20T12:33:15Z</time>
      </trkpt>
      <trkpt lat="39.41883" lon="-0.50745">
        <ele>72.90561</ele>
        <time>2021-07-20T12:33:26Z</time>
      </trkpt>
      <trkpt lat="39.42012" lon="-0.50653">
        <ele>73.2405</ele>
        <time>2021-07-20T12:33:37Z</time>
      </trkpt>
      <trkpt lat="39.42131" lon="-0.50555">
        <ele>72.73949</ele>
        <time>2021-07-20T12:33:48Z</time>
      </trkpt>
      <trkpt lat="39.42186" lon="-0.50471">
        <ele>74.03733</ele>
        <time>2021-07-20T12:33:59Z</time>
      </trkpt>
      <trkpt lat="39.42297" lon="-0.50425">
        <ele>73.93624</ele>
        <time>2021-07-20T12:34:10Z</time>
      </trkpt>
      <trkpt lat="39.42461" lon="-0.50292">
        <ele>76.91088</ele>
        <time>2021-07-20T12:34:21Z</time>
      </trkpt>
      <trkpt lat="39.42637" lon="-0.50151">
        <ele>74.50619</ele>
        <time>2021-07-20T12:34:32Z</time>
      </trkpt>
      <trkpt lat="39.42797" lon="-0.5002">
        <ele>71.50484</ele>
        <time>2021-07-20T12:34:43Z</time>
      </trkpt>
      <trkpt lat="39.42868" lon="-0.49809">
        <ele>64.32591</ele>
        <time>2021-07-20T12:34:54Z</time>
      </trkpt>
      <trkpt lat="39.42929" lon="-0.4957">
        <ele>65.51328</ele>
        <time>2021-07-20T12:35:05Z</time>
      </trkpt>
      <trkpt lat="39.4298" lon="-0.49373">
        <ele>65.62026</ele>
        <time>2021-07-20T12:35:16Z</time>
      </trkpt>
      <trkpt lat="39.43011" lon="-0.49256">
        <ele>64.06971</ele>
        <time>2021-07-20T12:35:27Z</time>
      </trkpt>
      <trkpt lat="39.43024" lon="-0.49201">
        <ele>65.59355</ele>
        <time>2021-07-20T12:35:38Z</time>
      </trkpt>
      <trkpt lat="39.4303" lon="-0.49165">
        <ele>67.3782</ele>
        <time>2021-07-20T12:35:49Z</time>
      </trkpt>
      <trkpt lat="39.42981" lon="-0.49114">
        <ele>67.81679</ele>
        <time>2021-07-20T12:36:00Z</time>
      </trkpt>
      <trkpt lat="39.42911" lon="-0.49098">
        <ele>71.5545</ele>
        <time>2021-07-20T12:36:11Z</time>
      </trkpt>
      <trkpt lat="39.42854" lon="-0.49066">
        <ele>73.94679</ele>
        <time>2021-07-20T12:36:22Z</time>
      </trkpt>
      <trkpt lat="39.42847" lon="-0.48989">
        <ele>78.00324</ele>
        <time>2021-07-20T12:36:33Z</time>
      </trkpt>
      <trkpt lat="39.42897" lon="-0.48883">
        <ele>81.80785</ele>
        <time>2021-07-20T12:36:44Z</time>
      </trkpt>
      <trkpt lat="39.42885" lon="-0.48831">
        <ele>82.54935</ele>
        <time>2021-07-20T12:36:55Z</time>
      </trkpt>
      <trkpt lat="39.42828" lon="-0.48765">
        <ele>87.81949</ele>
        <time>2021-07-20T12:37:06Z</time>
      </trkpt>
      <trkpt lat="39.42803" lon="-0.487">
        <ele>92.79288</ele>
        <time>2021-07-20T12:37:17Z</time>
      </trkpt>
      <trkpt lat="39.42789" lon="-0.48681">
        <ele>90.66556</ele>
        <time>2021-07-20T12:37:28Z</time>
      </trkpt>
      <trkpt lat="39.42731" lon="-0.48621">
        <ele>86.81868</ele>
        <time>2021-07-20T12:37:39Z</time>
      </trkpt>
      <trkpt lat="39.42764" lon="-0.48562">
        <ele>86.6049</ele>
        <time>2021-07-20T12:37:50Z</time>
      </trkpt>
      <trkpt lat="39.42849" lon="-0.48464">
        <ele>80.97224</ele>
        <time>2021-07-20T12:38:01Z</time>
      </trkpt>
      <trkpt lat="39.42955" lon="-0.48389">
        <ele>80.73035</ele>
        <time>2021-07-20T12:38:12Z</time>
      </trkpt>
      <trkpt lat="39.43066" lon="-0.48336">
        <ele>72.77398</ele>
        <time>2021-07-20T12:38:23Z</time>
      </trkpt>
      <trkpt lat="39.43171" lon="-0.4834">
        <ele>70.74356</ele>
        <time>2021-07-20T12:38:34Z</time>
      </trkpt>
      <trkpt lat="39.43235" lon="-0.48315">
        <ele>74.84409</ele>
        <time>2021-07-20T12:38:45Z</time>
      </trkpt>
      <trkpt lat="39.43268" lon="-0.48297">
        <ele>68.2401</ele>
        <time>2021-07-20T12:38:56Z</time>
      </trkpt>
      <trkpt lat="39.43193" lon="-0.48255">
        <ele>69.77006</ele>
        <time>2021-07-20T12:39:07Z</time>
      </trkpt>
      <trkpt lat="39.43083" lon="-0.48142">
        <ele>71.3522</ele>
        <time>2021-07-20T12:39:18Z</time>
      </trkpt>
      <trkpt lat="39.42987" lon="-0.48025">
        <ele>70.51166</ele>
        <time>2021-07-20T12:39:29Z</time>
      </trkpt>
      <trkpt lat="39.4292" lon="-0.47947">
        <ele>73.36004</ele>
        <time>2021-07-20T12:39:40Z</time>
      </trkpt>
      <trkpt lat="39.42867" lon="-0.4789">
        <ele>73.08755</ele>
        <time>2021-07-20T12:39:51Z</time>
      </trkpt>
      <trkpt lat="39.42811" lon="-0.4783">
        <ele>72.71744</ele>
        <time>2021-07-20T12:40:02Z</time>
      </trkpt>
      <trkpt lat="39.42716" lon="-0.47732">
        <ele>70.65162</ele>
        <time>2021-07-20T12:40:13Z</time>
      </trkpt>
      <trkpt lat="39.42758" lon="-0.47659">
        <ele>66.48443</ele>
        <time>2021-07-20T12:40:24Z</time>
      </trkpt>
      <trkpt lat="39.42848" lon="-0.47518">
        <ele>63.8794</ele>
        <time>2021-07-20T12:40:35Z</time>
      </trkpt>
      <trkpt lat="39.42921" lon="-0.47407">
        <ele>61.0597</ele>
        <time>2021-07-20T12:40:46Z</time>
      </trkpt>
      <trkpt lat="39.42998" lon="-0.4729">
        <ele>60.50261</ele>
        <time>2021-07-20T12:40:57Z</time>
      </trkpt>
      <trkpt lat="39.43035" lon="-0.4723">
        <ele>64.43484</ele>
        <time>2021-07-20T12:41:08Z</time>
      </trkpt>
      <trkpt lat="39.43026" lon="-0.4714">
        <ele>63.3176</ele>
        <time>2021-07-20T12:41:19Z</time>
      </trkpt>
      <trkpt lat="39.43009" lon="-0.47102">
        <ele>64.92537</ele>
        <time>2021-07-20T12:41:30Z</time>
      </trkpt>
      <trkpt lat="39.4298" lon="-0.47068">
        <ele>64.69218</ele>
        <time>2021-07-20T12:41:41Z</time>
      </trkpt>
      <trkpt lat="39.42894" lon="-0.46973">
        <ele>63.71256</ele>
        <time>2021-07-20T12:41:52Z</time>
      </trkpt>
      <trkpt lat="39.42803" lon="-0.46873">
        <ele>56.01354</ele>
        <time>2021-07-20T12:42:03Z</time>
      </trkpt>
      <trkpt lat="39.42763" lon="-0.46854">
        <ele>52.84391</ele>
        <time>2021-07-20T12:42:14Z</time>
      </trkpt>
      <trkpt lat="39.42694" lon="-0.4678">
        <ele>51.54558</ele>
        <time>2021-07-20T12:42:25Z</time>
      </trkpt>
      <trkpt lat="39.42578" lon="-0.46615">
        <ele>49.68792</ele>
        <time>2021-07-20T12:42:36Z</time>
      </trkpt>
      <trkpt lat="39.42546" lon="-0.46353">
        <ele>47.52298</ele>
        <time>2021-07-20T12:42:47Z</time>
      </trkpt>
      <trkpt lat="39.42546" lon="-0.4608">
        <ele>49.92764</ele>
        <time>2021-07-20T12:42:58Z</time>
      </trkpt>
      <trkpt lat="39.42545" lon="-0.45787">
        <ele>44.51329</ele>
        <time>2021-07-20T12:43:09Z</time>
      </trkpt>
      <trkpt lat="39.42546" lon="-0.45475">
        <ele>40.33182</ele>
        <time>2021-07-20T12:43:20Z</time>
      </trkpt>
      <trkpt lat="39.42555" lon="-0.4518">
        <ele>38.78985</ele>
        <time>2021-07-20T12:43:31Z</time>
      </trkpt>
      <trkpt lat="39.42653" lon="-0.44924">
        <ele>38.73742</ele>
        <time>2021-07-20T12:43:42Z</time>
      </trkpt>
      <trkpt lat="39.42845" lon="-0.44762">
        <ele>37.62905</ele>
        <time>2021-07-20T12:43:54Z</time>
      </trkpt>
      <trkpt lat="39.43073" lon="-0.4468">
        <ele>37.5204</ele>
        <time>2021-07-20T12:44:05Z</time>
      </trkpt>
      <trkpt lat="39.43314" lon="-0.44596">
        <ele>32.26408</ele>
        <time>2021-07-20T12:44:16Z</time>
      </trkpt>
      <trkpt lat="39.43569" lon="-0.44506">
        <ele>29.86779</ele>
        <time>2021-07-20T12:44:27Z</time>
      </trkpt>
      <trkpt lat="39.43816" lon="-0.44324">
        <ele>34.71109</ele>
        <time>2021-07-20T12:44:38Z</time>
      </trkpt>
      <trkpt lat="39.43945" lon="-0.44045">
        <ele>33.72515</ele>
        <time>2021-07-20T12:44:49Z</time>
      </trkpt>
      <trkpt lat="39.43961" lon="-0.43724">
        <ele>33.60656</ele>
        <time>2021-07-20T12:45:00Z</time>
      </trkpt>
      <trkpt lat="39.43941" lon="-0.43399">
        <ele>29.65056</ele>
        <time>2021-07-20T12:45:11Z</time>
      </trkpt>
      <trkpt lat="39.43951" lon="-0.43107">
        <ele>25.7048</ele>
        <time>2021-07-20T12:45:22Z</time>
      </trkpt>
      <trkpt lat="39.4404" lon="-0.42809">
        <ele>33.32921</ele>
        <time>2021-07-20T12:45:33Z</time>
      </trkpt>
      <trkpt lat="39.44166" lon="-0.42568">
        <ele>33.20264</ele>
        <time>2021-07-20T12:45:44Z</time>
      </trkpt>
      <trkpt lat="39.44314" lon="-0.42333">
        <ele>31.00289</ele>
        <time>2021-07-20T12:45:55Z</time>
      </trkpt>
      <trkpt lat="39.44468" lon="-0.42095">
        <ele>26.00356</ele>
        <time>2021-07-20T12:46:06Z</time>
      </trkpt>
      <trkpt lat="39.44623" lon="-0.41855">
        <ele>25.19025</ele>
        <time>2021-07-20T12:46:17Z</time>
      </trkpt>
      <trkpt lat="39.44782" lon="-0.4161">
        <ele>24.67052</ele>
        <time>2021-07-20T12:46:28Z</time>
      </trkpt>
      <trkpt lat="39.44943" lon="-0.4136">
        <ele>22.83185</ele>
        <time>2021-07-20T12:46:39Z</time>
      </trkpt>
      <trkpt lat="39.45073" lon="-0.41162">
        <ele>23.54996</ele>
        <time>2021-07-20T12:46:50Z</time>
      </trkpt>
      <trkpt lat="39.45225" lon="-0.40959">
        <ele>29.1715</ele>
        <time>2021-07-20T12:47:01Z</time>
      </trkpt>
      <trkpt lat="39.45349" lon="-0.40792">
        <ele>21.90787</ele>
        <time>2021-07-20T12:47:12Z</time>
      </trkpt>
      <trkpt lat="39.4546" lon="-0.40638">
        <ele>18.77588</ele>
        <time>2021-07-20T12:47:23Z</time>
      </trkpt>
      <trkpt lat="39.45578" lon="-0.40479">
        <ele>17.97412</ele>
        <time>2021-07-20T12:47:34Z</time>
      </trkpt>
      <trkpt lat="39.4567" lon="-0.40383">
        <ele>23.19465</ele>
        <time>2021-07-20T12:47:45Z</time>
      </trkpt>
      <trkpt lat="39.4567" lon="-0.40378">
        <ele>25.39784</ele>
        <time>2021-07-20T12:48:24Z</time>
      </trkpt>
      <trkpt lat="39.45674" lon="-0.40375">
        <ele>29.41952</ele>
        <time>2021-07-20T12:48:37Z</time>
      </trkpt>
      <trkpt lat="39.4575" lon="-0.40291">
        <ele>27.76997</ele>
        <time>2021-07-20T12:48:48Z</time>
      </trkpt>
      <trkpt lat="39.45797" lon="-0.40196">
        <ele>25.37518</ele>
        <time>2021-07-20T12:48:59Z</time>
      </trkpt>
      <trkpt lat="39.45912" lon="-0.40123">
        <ele>25.50214</ele>
        <time>2021-07-20T12:49:10Z</time>
      </trkpt>
      <trkpt lat="39.45996" lon="-0.4003">
        <ele>29.05327</ele>
        <time>2021-07-20T12:49:21Z</time>
      </trkpt>
      <trkpt lat="39.46104" lon="-0.39917">
        <ele>31.65439</ele>
        <time>2021-07-20T12:49:32Z</time>
      </trkpt>
      <trkpt lat="39.46199" lon="-0.3981">
        <ele>26.74386</ele>
        <time>2021-07-20T12:49:43Z</time>
      </trkpt>
      <trkpt lat="39.46252" lon="-0.39754">
        <ele>27.74996</ele>
        <time>2021-07-20T12:49:54Z</time>
      </trkpt>
      <trkpt lat="39.46256" lon="-0.39751">
        <ele>29.89361</ele>
        <time>2021-07-20T12:50:05Z</time>
      </trkpt>
      <trkpt lat="39.46261" lon="-0.39748">
        <ele>38.7024</ele>
        <time>2021-07-20T12:50:28Z</time>
      </trkpt>
      <trkpt lat="39.46322" lon="-0.3968">
        <ele>38.30052</ele>
        <time>2021-07-20T12:50:39Z</time>
      </trkpt>
      <trkpt lat="39.46375" lon="-0.39623">
        <ele>35.7553</ele>
        <time>2021-07-20T12:50:50Z</time>
      </trkpt>
      <trkpt lat="39.46392" lon="-0.3957">
        <ele>44.49487</ele>
        <time>2021-07-20T12:51:01Z</time>
      </trkpt>
      <trkpt lat="39.46398" lon="-0.39465">
        <ele>40.97275</ele>
        <time>2021-07-20T12:51:12Z</time>
      </trkpt>
      <trkpt lat="39.46403" lon="-0.3932">
        <ele>40.18918</ele>
        <time>2021-07-20T12:51:23Z</time>
      </trkpt>
      <trkpt lat="39.46413" lon="-0.39147">
        <ele>30.65121</ele>
        <time>2021-07-20T12:51:34Z</time>
      </trkpt>
      <trkpt lat="39.46416" lon="-0.39001">
        <ele>25.8186</ele>
        <time>2021-07-20T12:51:45Z</time>
      </trkpt>
      <trkpt lat="39.4642" lon="-0.38905">
        <ele>25.08901</ele>
        <time>2021-07-20T12:51:56Z</time>
      </trkpt>
      <trkpt lat="39.46422" lon="-0.389">
        <ele>30.81758</ele>
        <time>2021-07-20T12:52:07Z</time>
      </trkpt>
      <trkpt lat="39.46421" lon="-0.38896">
        <ele>40.12434</ele>
        <time>2021-07-20T12:52:25Z</time>
      </trkpt>
      <trkpt lat="39.46421" lon="-0.38888">
        <ele>39.26013</ele>
        <time>2021-07-20T12:52:47Z</time>
      </trkpt>
      <trkpt lat="39.4642" lon="-0.38852">
        <ele>32.63612</ele>
        <time>2021-07-20T12:52:58Z</time>
      </trkpt>
      <trkpt lat="39.46367" lon="-0.38776">
        <ele>30.92535</ele>
        <time>2021-07-20T12:53:09Z</time>
      </trkpt>
      <trkpt lat="39.46285" lon="-0.38717">
        <ele>33.17221</ele>
        <time>2021-07-20T12:53:20Z</time>
      </trkpt>
      <trkpt lat="39.46275" lon="-0.3871">
        <ele>46.00901</ele>
        <time>2021-07-20T12:53:31Z</time>
      </trkpt>
      <trkpt lat="39.46236" lon="-0.38682">
        <ele>54.53149</ele>
        <time>2021-07-20T12:53:42Z</time>
      </trkpt>
      <trkpt lat="39.46115" lon="-0.38597">
        <ele>50.38711</ele>
        <time>2021-07-20T12:53:53Z</time>
      </trkpt>
      <trkpt lat="39.45989" lon="-0.38508">
        <ele>50.65121</ele>
        <time>2021-07-20T12:54:04Z</time>
      </trkpt>
      <trkpt lat="39.45865" lon="-0.38422">
        <ele>51.72461</ele>
        <time>2021-07-20T12:54:15Z</time>
      </trkpt>
      <trkpt lat="39.45731" lon="-0.38321">
        <ele>34.58268</ele>
        <time>2021-07-20T12:54:26Z</time>
      </trkpt>
      <trkpt lat="39.4562" lon="-0.38239">
        <ele>28.52987</ele>
        <time>2021-07-20T12:54:37Z</time>
      </trkpt>
      <trkpt lat="39.45532" lon="-0.38094">
        <ele>26.7436</ele>
        <time>2021-07-20T12:54:48Z</time>
      </trkpt>
      <trkpt lat="39.45542" lon="-0.37926">
        <ele>18.41028</ele>
        <time>2021-07-20T12:54:59Z</time>
      </trkpt>
      <trkpt lat="39.45605" lon="-0.37771">
        <ele>13.87645</ele>
        <time>2021-07-20T12:55:10Z</time>
      </trkpt>
      <trkpt lat="39.4563" lon="-0.37709">
        <ele>15.98415</ele>
        <time>2021-07-20T12:55:21Z</time>
      </trkpt>
      <trkpt lat="39.45661" lon="-0.37629">
        <ele>15.40778</ele>
        <time>2021-07-20T12:55:32Z</time>
      </trkpt>
      <trkpt lat="39.45657" lon="-0.37585">
        <ele>13.89622</ele>
        <time>2021-07-20T12:55:43Z</time>
      </trkpt>
      <trkpt lat="39.45665" lon="-0.37481">
        <ele>15.81404</ele>
        <time>2021-07-20T12:55:54Z</time>
      </trkpt>
      <trkpt lat="39.4565" lon="-0.37413">
        <ele>21.48325</ele>
        <time>2021-07-20T12:56:05Z</time>
      </trkpt>
      <trkpt lat="39.4563" lon="-0.3732">
        <ele>31.0913</ele>
        <time>2021-07-20T12:56:16Z</time>
      </trkpt>
      <trkpt lat="39.45603" lon="-0.37191">
        <ele>35.716</ele>
        <time>2021-07-20T12:56:27Z</time>
      </trkpt>
      <trkpt lat="39.45573" lon="-0.37063">
        <ele>21.97097</ele>
        <time>2021-07-20T12:56:38Z</time>
      </trkpt>
      <trkpt lat="39.45554" lon="-0.36982">
        <ele>9.953759</ele>
        <time>2021-07-20T12:56:49Z</time>
      </trkpt>
      <trkpt lat="39.4555" lon="-0.3696">
        <ele>7.639924</ele>
        <time>2021-07-20T12:57:00Z</time>
      </trkpt>
      <trkpt lat="39.45545" lon="-0.36931">
        <ele>6.550328</ele>
        <time>2021-07-20T12:57:11Z</time>
      </trkpt>
      <trkpt lat="39.45543" lon="-0.36919">
        <ele>10.74736</ele>
        <time>2021-07-20T12:57:22Z</time>
      </trkpt>
      <trkpt lat="39.45543" lon="-0.36921">
        <ele>17.77748</ele>
        <time>2021-07-20T12:58:22Z</time>
      </trkpt>
      <trkpt lat="39.45544" lon="-0.36927">
        <ele>24.35671</ele>
        <time>2021-07-20T12:58:50Z</time>
      </trkpt>
      <trkpt lat="39.45544" lon="-0.36925">
        <ele>20.16957</ele>
        <time>2021-07-20T12:59:50Z</time>
      </trkpt>
      <trkpt lat="39.45543" lon="-0.3692">
        <ele>17.30502</ele>
        <time>2021-07-20T13:00:01Z</time>
      </trkpt>
      <trkpt lat="39.45506" lon="-0.36825">
        <ele>40.25454</ele>
        <time>2021-07-20T13:45:07Z</time>
      </trkpt>
      <trkpt lat="39.45514" lon="-0.36829">
        <ele>36.98213</ele>
        <time>2021-07-20T13:45:18Z</time>
      </trkpt>
      <trkpt lat="39.45521" lon="-0.36824">
        <ele>42.10225</ele>
        <time>2021-07-20T13:45:29Z</time>
      </trkpt>
      <trkpt lat="39.45527" lon="-0.36823">
        <ele>45.72606</ele>
        <time>2021-07-20T13:45:40Z</time>
      </trkpt>
      <trkpt lat="39.45511" lon="-0.36812">
        <ele>10.54591</ele>
        <time>2021-07-20T13:45:51Z</time>
      </trkpt>
      <trkpt lat="39.4551" lon="-0.36816">
        <ele>11.32983</ele>
        <time>2021-07-20T13:46:05Z</time>
      </trkpt>
      <trkpt lat="39.45507" lon="-0.3682">
        <ele>12.17882</ele>
        <time>2021-07-20T13:46:19Z</time>
      </trkpt>
      <trkpt lat="39.45505" lon="-0.36815">
        <ele>11.01942</ele>
        <time>2021-07-20T13:46:37Z</time>
      </trkpt>
      <trkpt lat="39.45508" lon="-0.36818">
        <ele>10.8245</ele>
        <time>2021-07-20T13:47:06Z</time>
      </trkpt>
      <trkpt lat="39.45508" lon="-0.36819">
        <ele>10.37574</ele>
        <time>2021-07-20T13:48:05Z</time>
      </trkpt>
      <trkpt lat="39.45512" lon="-0.36819">
        <ele>11.00132</ele>
        <time>2021-07-20T13:48:29Z</time>
      </trkpt>
      <trkpt lat="39.45518" lon="-0.36819">
        <ele>11.73431</ele>
        <time>2021-07-20T13:48:40Z</time>
      </trkpt>
      <trkpt lat="39.45519" lon="-0.36824">
        <ele>11.10224</ele>
        <time>2021-07-20T13:49:04Z</time>
      </trkpt>
      <trkpt lat="39.45515" lon="-0.3682">
        <ele>10.9334</ele>
        <time>2021-07-20T13:49:15Z</time>
      </trkpt>
      <trkpt lat="39.45512" lon="-0.36822">
        <ele>10.83433</ele>
        <time>2021-07-20T13:49:31Z</time>
      </trkpt>
      <trkpt lat="39.45515" lon="-0.36819">
        <ele>10.41924</ele>
        <time>2021-07-20T13:49:46Z</time>
      </trkpt>
      <trkpt lat="39.45518" lon="-0.36817">
        <ele>8.990087</ele>
        <time>2021-07-20T13:50:09Z</time>
      </trkpt>
      <trkpt lat="39.45511" lon="-0.36821">
        <ele>11.32256</ele>
        <time>2021-07-20T13:50:20Z</time>
      </trkpt>
      <trkpt lat="39.45508" lon="-0.36818">
        <ele>10.9541</ele>
        <time>2021-07-20T13:50:40Z</time>
      </trkpt>
      <trkpt lat="39.45512" lon="-0.36819">
        <ele>10.33854</ele>
        <time>2021-07-20T13:51:15Z</time>
      </trkpt>
      <trkpt lat="39.45515" lon="-0.36824">
        <ele>8.750923</ele>
        <time>2021-07-20T13:51:26Z</time>
      </trkpt>
      <trkpt lat="39.45524" lon="-0.36825">
        <ele>8.688293</ele>
        <time>2021-07-20T13:51:37Z</time>
      </trkpt>
      <trkpt lat="39.45522" lon="-0.3683">
        <ele>10.06401</ele>
        <time>2021-07-20T13:51:48Z</time>
      </trkpt>
      <trkpt lat="39.45513" lon="-0.36826">
        <ele>9.892811</ele>
        <time>2021-07-20T13:51:59Z</time>
      </trkpt>
      <trkpt lat="39.45508" lon="-0.36823">
        <ele>9.984412</ele>
        <time>2021-07-20T13:52:10Z</time>
      </trkpt>
      <trkpt lat="39.4552" lon="-0.36819">
        <ele>9.871609</ele>
        <time>2021-07-20T13:52:21Z</time>
      </trkpt>
      <trkpt lat="39.45528" lon="-0.3683">
        <ele>9.304493</ele>
        <time>2021-07-20T13:52:32Z</time>
      </trkpt>
      <trkpt lat="39.45511" lon="-0.36829">
        <ele>10.39775</ele>
        <time>2021-07-20T13:52:43Z</time>
      </trkpt>
      <trkpt lat="39.4551" lon="-0.36824">
        <ele>10.4512</ele>
        <time>2021-07-20T13:52:54Z</time>
      </trkpt>
      <trkpt lat="39.45517" lon="-0.36822">
        <ele>9.617114</ele>
        <time>2021-07-20T13:53:05Z</time>
      </trkpt>
      <trkpt lat="39.45527" lon="-0.3683">
        <ele>10.31267</ele>
        <time>2021-07-20T13:53:16Z</time>
      </trkpt>
      <trkpt lat="39.45537" lon="-0.36832">
        <ele>10.24376</ele>
        <time>2021-07-20T13:53:27Z</time>
      </trkpt>
      <trkpt lat="39.45546" lon="-0.36838">
        <ele>10.66257</ele>
        <time>2021-07-20T13:53:38Z</time>
      </trkpt>
      <trkpt lat="39.4554" lon="-0.36846">
        <ele>11.38758</ele>
        <time>2021-07-20T13:53:49Z</time>
      </trkpt>
      <trkpt lat="39.45542" lon="-0.36863">
        <ele>12.97516</ele>
        <time>2021-07-20T13:54:00Z</time>
      </trkpt>
      <trkpt lat="39.45537" lon="-0.36872">
        <ele>9.773901</ele>
        <time>2021-07-20T13:54:11Z</time>
      </trkpt>
      <trkpt lat="39.45542" lon="-0.3688">
        <ele>10.30247</ele>
        <time>2021-07-20T13:54:22Z</time>
      </trkpt>
      <trkpt lat="39.4554" lon="-0.36896">
        <ele>11.84474</ele>
        <time>2021-07-20T13:54:33Z</time>
      </trkpt>
      <trkpt lat="39.45537" lon="-0.36914">
        <ele>6.933236</ele>
        <time>2021-07-20T13:54:44Z</time>
      </trkpt>
      <trkpt lat="39.45538" lon="-0.36926">
        <ele>8.706222</ele>
        <time>2021-07-20T13:54:55Z</time>
      </trkpt>
      <trkpt lat="39.45542" lon="-0.36941">
        <ele>10.21785</ele>
        <time>2021-07-20T13:55:06Z</time>
      </trkpt>
      <trkpt lat="39.45544" lon="-0.36957">
        <ele>9.833863</ele>
        <time>2021-07-20T13:55:17Z</time>
      </trkpt>
      <trkpt lat="39.45546" lon="-0.36973">
        <ele>10.51299</ele>
        <time>2021-07-20T13:55:28Z</time>
      </trkpt>
      <trkpt lat="39.45548" lon="-0.36988">
        <ele>11.47002</ele>
        <time>2021-07-20T13:55:39Z</time>
      </trkpt>
      <trkpt lat="39.45543" lon="-0.37">
        <ele>8.827034</ele>
        <time>2021-07-20T13:55:50Z</time>
      </trkpt>
      <trkpt lat="39.45539" lon="-0.37012">
        <ele>10.14075</ele>
        <time>2021-07-20T13:56:01Z</time>
      </trkpt>
      <trkpt lat="39.45532" lon="-0.37029">
        <ele>10.62595</ele>
        <time>2021-07-20T13:56:12Z</time>
      </trkpt>
      <trkpt lat="39.45527" lon="-0.37045">
        <ele>11.53296</ele>
        <time>2021-07-20T13:56:23Z</time>
      </trkpt>
      <trkpt lat="39.45522" lon="-0.37056">
        <ele>10.41271</ele>
        <time>2021-07-20T13:56:34Z</time>
      </trkpt>
      <trkpt lat="39.45518" lon="-0.37067">
        <ele>11.5374</ele>
        <time>2021-07-20T13:56:45Z</time>
      </trkpt>
      <trkpt lat="39.45514" lon="-0.37083">
        <ele>9.867376</ele>
        <time>2021-07-20T13:56:56Z</time>
      </trkpt>
      <trkpt lat="39.45507" lon="-0.37097">
        <ele>10.49015</ele>
        <time>2021-07-20T13:57:07Z</time>
      </trkpt>
      <trkpt lat="39.455" lon="-0.37118">
        <ele>13.36282</ele>
        <time>2021-07-20T13:57:18Z</time>
      </trkpt>
      <trkpt lat="39.45493" lon="-0.37135">
        <ele>11.81383</ele>
        <time>2021-07-20T13:57:29Z</time>
      </trkpt>
      <trkpt lat="39.45481" lon="-0.37144">
        <ele>10.16861</ele>
        <time>2021-07-20T13:57:40Z</time>
      </trkpt>
      <trkpt lat="39.45476" lon="-0.37147">
        <ele>10.41486</ele>
        <time>2021-07-20T13:57:51Z</time>
      </trkpt>
      <trkpt lat="39.45464" lon="-0.37154">
        <ele>11.6974</ele>
        <time>2021-07-20T13:58:02Z</time>
      </trkpt>
      <trkpt lat="39.45457" lon="-0.3715">
        <ele>11.6627</ele>
        <time>2021-07-20T13:58:13Z</time>
      </trkpt>
      <trkpt lat="39.45451" lon="-0.37142">
        <ele>11.53653</ele>
        <time>2021-07-20T13:58:24Z</time>
      </trkpt>
      <trkpt lat="39.45444" lon="-0.37152">
        <ele>42.21393</ele>
        <time>2021-07-20T13:58:57Z</time>
      </trkpt>
      <trkpt lat="39.45447" lon="-0.37154">
        <ele>42.21393</ele>
        <time>2021-07-20T13:59:11Z</time>
      </trkpt>
      <trkpt lat="39.45444" lon="-0.37149">
        <ele>42.21393</ele>
        <time>2021-07-20T13:59:26Z</time>
      </trkpt>
      <trkpt lat="39.4545" lon="-0.37153">
        <ele>42.21393</ele>
        <time>2021-07-20T13:59:49Z</time>
      </trkpt>
      <trkpt lat="39.45447" lon="-0.37149">
        <ele>18.89237</ele>
        <time>2021-07-20T14:00:00Z</time>
      </trkpt>
      <trkpt lat="39.45442" lon="-0.37128">
        <ele>42.21393</ele>
        <time>2021-07-20T14:00:41Z</time>
      </trkpt>
      <trkpt lat="39.45445" lon="-0.37147">
        <ele>42.21393</ele>
        <time>2021-07-20T14:00:55Z</time>
      </trkpt>
      <trkpt lat="39.45445" lon="-0.37133">
        <ele>42.21393</ele>
        <time>2021-07-20T14:01:12Z</time>
      </trkpt>
      <trkpt lat="39.4544" lon="-0.37142">
        <ele>42.21393</ele>
        <time>2021-07-20T14:01:49Z</time>
      </trkpt>
      <trkpt lat="39.45437" lon="-0.37138">
        <ele>42.21393</ele>
        <time>2021-07-20T14:02:04Z</time>
      </trkpt>
      <trkpt lat="39.45442" lon="-0.37132">
        <ele>42.21393</ele>
        <time>2021-07-20T14:02:20Z</time>
      </trkpt>
      <trkpt lat="39.45444" lon="-0.3712">
        <ele>42.21393</ele>
        <time>2021-07-20T14:02:36Z</time>
      </trkpt>
      <trkpt lat="39.45442" lon="-0.37126">
        <ele>42.21393</ele>
        <time>2021-07-20T14:02:50Z</time>
      </trkpt>
      <trkpt lat="39.45445" lon="-0.37116">
        <ele>42.21393</ele>
        <time>2021-07-20T14:03:05Z</time>
      </trkpt>
      <trkpt lat="39.45444" lon="-0.37123">
        <ele>42.21393</ele>
        <time>2021-07-20T14:03:28Z</time>
      </trkpt>
      <trkpt lat="39.45414" lon="-0.37091">
        <ele>42.21393</ele>
        <time>2021-07-20T14:03:43Z</time>
      </trkpt>
      <trkpt lat="39.45418" lon="-0.37074">
        <ele>42.21393</ele>
        <time>2021-07-20T14:03:58Z</time>
      </trkpt>
      <trkpt lat="39.45434" lon="-0.37095">
        <ele>42.21393</ele>
        <time>2021-07-20T14:04:15Z</time>
      </trkpt>
      <trkpt lat="39.45425" lon="-0.37071">
        <ele>42.21393</ele>
        <time>2021-07-20T14:04:29Z</time>
      </trkpt>
      <trkpt lat="39.4542" lon="-0.37072">
        <ele>42.21393</ele>
        <time>2021-07-20T14:04:45Z</time>
      </trkpt>
      <trkpt lat="39.45421" lon="-0.37067">
        <ele>42.21393</ele>
        <time>2021-07-20T14:05:00Z</time>
      </trkpt>
      <trkpt lat="39.45423" lon="-0.37071">
        <ele>42.21393</ele>
        <time>2021-07-20T14:05:14Z</time>
      </trkpt>
      <trkpt lat="39.45423" lon="-0.37078">
        <ele>42.21393</ele>
        <time>2021-07-20T14:05:27Z</time>
      </trkpt>
      <trkpt lat="39.45442" lon="-0.37092">
        <ele>42.21393</ele>
        <time>2021-07-20T14:05:43Z</time>
      </trkpt>
      <trkpt lat="39.45445" lon="-0.37116">
        <ele>42.21393</ele>
        <time>2021-07-20T14:05:58Z</time>
      </trkpt>
      <trkpt lat="39.45441" lon="-0.37091">
        <ele>42.21393</ele>
        <time>2021-07-20T14:06:13Z</time>
      </trkpt>
      <trkpt lat="39.45444" lon="-0.37116">
        <ele>42.21393</ele>
        <time>2021-07-20T14:06:26Z</time>
      </trkpt>
      <trkpt lat="39.45439" lon="-0.3708">
        <ele>42.21393</ele>
        <time>2021-07-20T14:06:40Z</time>
      </trkpt>
      <trkpt lat="39.45441" lon="-0.3709">
        <ele>42.21393</ele>
        <time>2021-07-20T14:06:56Z</time>
      </trkpt>
      <trkpt lat="39.45443" lon="-0.37105">
        <ele>42.21393</ele>
        <time>2021-07-20T14:07:12Z</time>
      </trkpt>
      <trkpt lat="39.45443" lon="-0.37113">
        <ele>42.21393</ele>
        <time>2021-07-20T14:07:29Z</time>
      </trkpt>
      <trkpt lat="39.45444" lon="-0.37121">
        <ele>42.21393</ele>
        <time>2021-07-20T14:07:44Z</time>
      </trkpt>
      <trkpt lat="39.45441" lon="-0.37093">
        <ele>42.21393</ele>
        <time>2021-07-20T14:08:08Z</time>
      </trkpt>
      <trkpt lat="39.45446" lon="-0.37132">
        <ele>42.21393</ele>
        <time>2021-07-20T14:08:25Z</time>
      </trkpt>
      <trkpt lat="39.45448" lon="-0.37146">
        <ele>42.21393</ele>
        <time>2021-07-20T14:08:38Z</time>
      </trkpt>
      <trkpt lat="39.45446" lon="-0.37131">
        <ele>42.21393</ele>
        <time>2021-07-20T14:08:50Z</time>
      </trkpt>
      <trkpt lat="39.45436" lon="-0.37147">
        <ele>42.21393</ele>
        <time>2021-07-20T14:09:04Z</time>
      </trkpt>
      <trkpt lat="39.45448" lon="-0.37133">
        <ele>42.21393</ele>
        <time>2021-07-20T14:09:19Z</time>
      </trkpt>
      <trkpt lat="39.45444" lon="-0.37134">
        <ele>42.21393</ele>
        <time>2021-07-20T14:09:32Z</time>
      </trkpt>
      <trkpt lat="39.45449" lon="-0.37138">
        <ele>42.21393</ele>
        <time>2021-07-20T14:10:13Z</time>
      </trkpt>
      <trkpt lat="39.45446" lon="-0.37134">
        <ele>42.21393</ele>
        <time>2021-07-20T14:10:24Z</time>
      </trkpt>
      <trkpt lat="39.45446" lon="-0.37123">
        <ele>42.21393</ele>
        <time>2021-07-20T14:10:38Z</time>
      </trkpt>
      <trkpt lat="39.45446" lon="-0.37063">
        <ele>42.21393</ele>
        <time>2021-07-20T14:10:50Z</time>
      </trkpt>
      <trkpt lat="39.45474" lon="-0.37054">
        <ele>11.53606</ele>
        <time>2021-07-20T14:11:01Z</time>
      </trkpt>
      <trkpt lat="39.4547" lon="-0.37057">
        <ele>11.64475</ele>
        <time>2021-07-20T14:11:12Z</time>
      </trkpt>
      <trkpt lat="39.45477" lon="-0.37054">
        <ele>11.72049</ele>
        <time>2021-07-20T14:11:23Z</time>
      </trkpt>
      <trkpt lat="39.45481" lon="-0.37053">
        <ele>12.03902</ele>
        <time>2021-07-20T14:11:34Z</time>
      </trkpt>
      <trkpt lat="39.45493" lon="-0.37051">
        <ele>11.31222</ele>
        <time>2021-07-20T14:11:45Z</time>
      </trkpt>
      <trkpt lat="39.45503" lon="-0.37064">
        <ele>12.41283</ele>
        <time>2021-07-20T14:11:56Z</time>
      </trkpt>
      <trkpt lat="39.45507" lon="-0.37063">
        <ele>9.563832</ele>
        <time>2021-07-20T14:12:07Z</time>
      </trkpt>
      <trkpt lat="39.45525" lon="-0.37063">
        <ele>9.651275</ele>
        <time>2021-07-20T14:12:18Z</time>
      </trkpt>
      <trkpt lat="39.45533" lon="-0.37042">
        <ele>9.5483</ele>
        <time>2021-07-20T14:12:29Z</time>
      </trkpt>
      <trkpt lat="39.45533" lon="-0.37027">
        <ele>9.853495</ele>
        <time>2021-07-20T14:12:40Z</time>
      </trkpt>
      <trkpt lat="39.45539" lon="-0.37011">
        <ele>10.97767</ele>
        <time>2021-07-20T14:12:51Z</time>
      </trkpt>
      <trkpt lat="39.45542" lon="-0.36996">
        <ele>9.079894</ele>
        <time>2021-07-20T14:13:02Z</time>
      </trkpt>
      <trkpt lat="39.45547" lon="-0.36977">
        <ele>10.00366</ele>
        <time>2021-07-20T14:13:13Z</time>
      </trkpt>
      <trkpt lat="39.45543" lon="-0.36964">
        <ele>7.14505</ele>
        <time>2021-07-20T14:13:24Z</time>
      </trkpt>
      <trkpt lat="39.45538" lon="-0.36944">
        <ele>10.57117</ele>
        <time>2021-07-20T14:13:35Z</time>
      </trkpt>
      <trkpt lat="39.45536" lon="-0.36927">
        <ele>10.88288</ele>
        <time>2021-07-20T14:13:46Z</time>
      </trkpt>
      <trkpt lat="39.45539" lon="-0.36915">
        <ele>10.36238</ele>
        <time>2021-07-20T14:13:57Z</time>
      </trkpt>
      <trkpt lat="39.45535" lon="-0.36917">
        <ele>9.228748</ele>
        <time>2021-07-20T14:14:12Z</time>
      </trkpt>
      <trkpt lat="39.45534" lon="-0.36908">
        <ele>10.8376</ele>
        <time>2021-07-20T14:14:23Z</time>
      </trkpt>
      <trkpt lat="39.45537" lon="-0.36903">
        <ele>10.12713</ele>
        <time>2021-07-20T14:14:34Z</time>
      </trkpt>
      <trkpt lat="39.45532" lon="-0.36906">
        <ele>8.857247</ele>
        <time>2021-07-20T14:14:51Z</time>
      </trkpt>
      <trkpt lat="39.45534" lon="-0.36918">
        <ele>10.76908</ele>
        <time>2021-07-20T14:15:02Z</time>
      </trkpt>
      <trkpt lat="39.45534" lon="-0.36923">
        <ele>10.38164</ele>
        <time>2021-07-20T14:15:30Z</time>
      </trkpt>
      <trkpt lat="39.45538" lon="-0.36922">
        <ele>11.70199</ele>
        <time>2021-07-20T14:15:47Z</time>
      </trkpt>
      <trkpt lat="39.45534" lon="-0.36918">
        <ele>10.77035</ele>
        <time>2021-07-20T14:15:58Z</time>
      </trkpt>
      <trkpt lat="39.45537" lon="-0.36914">
        <ele>11.43661</ele>
        <time>2021-07-20T14:16:09Z</time>
      </trkpt>
      <trkpt lat="39.45533" lon="-0.36914">
        <ele>10.47992</ele>
        <time>2021-07-20T14:16:20Z</time>
      </trkpt>
      <trkpt lat="39.45533" lon="-0.36917">
        <ele>10.36549</ele>
        <time>2021-07-20T14:17:19Z</time>
      </trkpt>
      <trkpt lat="39.45532" lon="-0.36913">
        <ele>10.4987</ele>
        <time>2021-07-20T14:17:57Z</time>
      </trkpt>
      <trkpt lat="39.45536" lon="-0.36913">
        <ele>11.88462</ele>
        <time>2021-07-20T14:18:32Z</time>
      </trkpt>
      <trkpt lat="39.4554" lon="-0.36914">
        <ele>11.66997</ele>
        <time>2021-07-20T14:18:47Z</time>
      </trkpt>
      <trkpt lat="39.45541" lon="-0.36909">
        <ele>11.84354</ele>
        <time>2021-07-20T14:19:14Z</time>
      </trkpt>
      <trkpt lat="39.4554" lon="-0.36904">
        <ele>10.86317</ele>
        <time>2021-07-20T14:19:25Z</time>
      </trkpt>
      <trkpt lat="39.45532" lon="-0.36912">
        <ele>10.71549</ele>
        <time>2021-07-20T14:19:36Z</time>
      </trkpt>
      <trkpt lat="39.45538" lon="-0.36913">
        <ele>13.61292</ele>
        <time>2021-07-20T14:19:47Z</time>
      </trkpt>
      <trkpt lat="39.45535" lon="-0.36916">
        <ele>11.17594</ele>
        <time>2021-07-20T14:20:01Z</time>
      </trkpt>
      <trkpt lat="39.45538" lon="-0.36913">
        <ele>11.49659</ele>
        <time>2021-07-20T14:20:13Z</time>
      </trkpt>
      <trkpt lat="39.45543" lon="-0.36901">
        <ele>11.70239</ele>
        <time>2021-07-20T14:20:24Z</time>
      </trkpt>
      <trkpt lat="39.4554" lon="-0.3689">
        <ele>12.6622</ele>
        <time>2021-07-20T14:20:35Z</time>
      </trkpt>
      <trkpt lat="39.45549" lon="-0.36895">
        <ele>11.66556</ele>
        <time>2021-07-20T14:20:46Z</time>
      </trkpt>
      <trkpt lat="39.4555" lon="-0.36909">
        <ele>8.84719</ele>
        <time>2021-07-20T14:20:57Z</time>
      </trkpt>
      <trkpt lat="39.45543" lon="-0.3692">
        <ele>10.88261</ele>
        <time>2021-07-20T14:21:08Z</time>
      </trkpt>
      <trkpt lat="39.45539" lon="-0.3692">
        <ele>5.119254</ele>
        <time>2021-07-20T14:21:27Z</time>
      </trkpt>
      <trkpt lat="39.45534" lon="-0.3692">
        <ele>10.68564</ele>
        <time>2021-07-20T14:21:54Z</time>
      </trkpt>
      <trkpt lat="39.45538" lon="-0.36918">
        <ele>10.62134</ele>
        <time>2021-07-20T14:22:33Z</time>
      </trkpt>
      <trkpt lat="39.45542" lon="-0.3692">
        <ele>11.09667</ele>
        <time>2021-07-20T14:23:07Z</time>
      </trkpt>
      <trkpt lat="39.45538" lon="-0.3692">
        <ele>10.57514</ele>
        <time>2021-07-20T14:24:00Z</time>
      </trkpt>
      <trkpt lat="39.45537" lon="-0.36922">
        <ele>10.66946</ele>
        <time>2021-07-20T14:24:59Z</time>
      </trkpt>
      <trkpt lat="39.45538" lon="-0.36921">
        <ele>10.61695</ele>
        <time>2021-07-20T14:25:57Z</time>
      </trkpt>
      <trkpt lat="39.45541" lon="-0.36919">
        <ele>11.0971</ele>
        <time>2021-07-20T14:26:13Z</time>
      </trkpt>
      <trkpt lat="39.45537" lon="-0.36918">
        <ele>10.42455</ele>
        <time>2021-07-20T14:26:51Z</time>
      </trkpt>
      <trkpt lat="39.45536" lon="-0.36919">
        <ele>10.54807</ele>
        <time>2021-07-20T14:27:49Z</time>
      </trkpt>
      <trkpt lat="39.45531" lon="-0.36919">
        <ele>10.34863</ele>
        <time>2021-07-20T14:28:34Z</time>
      </trkpt>
      <trkpt lat="39.45536" lon="-0.36919">
        <ele>10.00792</ele>
        <time>2021-07-20T14:28:55Z</time>
      </trkpt>
      <trkpt lat="39.4554" lon="-0.3692">
        <ele>12.44804</ele>
        <time>2021-07-20T14:29:15Z</time>
      </trkpt>
      <trkpt lat="39.45537" lon="-0.36923">
        <ele>10.78756</ele>
        <time>2021-07-20T14:29:54Z</time>
      </trkpt>
      <trkpt lat="39.45533" lon="-0.36924">
        <ele>9.918148</ele>
        <time>2021-07-20T14:30:31Z</time>
      </trkpt>
      <trkpt lat="39.45528" lon="-0.36924">
        <ele>10.79422</ele>
        <time>2021-07-20T14:30:49Z</time>
      </trkpt>
      <trkpt lat="39.45535" lon="-0.36919">
        <ele>10.73829</ele>
        <time>2021-07-20T14:31:00Z</time>
      </trkpt>
      <trkpt lat="39.45539" lon="-0.36915">
        <ele>10.40426</ele>
        <time>2021-07-20T14:31:19Z</time>
      </trkpt>
      <trkpt lat="39.45557" lon="-0.36909">
        <ele>11.03692</ele>
        <time>2021-07-20T14:31:30Z</time>
      </trkpt>
      <trkpt lat="39.45551" lon="-0.36916">
        <ele>10.57495</ele>
        <time>2021-07-20T14:31:41Z</time>
      </trkpt>
      <trkpt lat="39.45551" lon="-0.36921">
        <ele>10.67759</ele>
        <time>2021-07-20T14:31:53Z</time>
      </trkpt>
      <trkpt lat="39.45546" lon="-0.36921">
        <ele>10.66504</ele>
        <time>2021-07-20T14:32:05Z</time>
      </trkpt>
      <trkpt lat="39.45546" lon="-0.36915">
        <ele>10.62354</ele>
        <time>2021-07-20T14:32:40Z</time>
      </trkpt>
      <trkpt lat="39.45543" lon="-0.36915">
        <ele>10.46169</ele>
        <time>2021-07-20T14:33:01Z</time>
      </trkpt>
      <trkpt lat="39.45539" lon="-0.36914">
        <ele>10.64067</ele>
        <time>2021-07-20T14:33:14Z</time>
      </trkpt>
      <trkpt lat="39.45542" lon="-0.36915">
        <ele>10.6861</ele>
        <time>2021-07-20T14:33:25Z</time>
      </trkpt>
      <trkpt lat="39.45548" lon="-0.36917">
        <ele>11.75465</ele>
        <time>2021-07-20T14:33:36Z</time>
      </trkpt>
      <trkpt lat="39.45542" lon="-0.36916">
        <ele>10.56961</ele>
        <time>2021-07-20T14:33:48Z</time>
      </trkpt>
      <trkpt lat="39.45546" lon="-0.36914">
        <ele>10.53613</ele>
        <time>2021-07-20T14:34:17Z</time>
      </trkpt>
      <trkpt lat="39.45542" lon="-0.36914">
        <ele>10.3133</ele>
        <time>2021-07-20T14:34:44Z</time>
      </trkpt>
      <trkpt lat="39.45546" lon="-0.36914">
        <ele>10.21981</ele>
        <time>2021-07-20T14:34:55Z</time>
      </trkpt>
      <trkpt lat="39.45549" lon="-0.36913">
        <ele>10.70317</ele>
        <time>2021-07-20T14:35:07Z</time>
      </trkpt>
      <trkpt lat="39.45553" lon="-0.36909">
        <ele>11.68712</ele>
        <time>2021-07-20T14:35:24Z</time>
      </trkpt>
      <trkpt lat="39.45541" lon="-0.36914">
        <ele>10.55978</ele>
        <time>2021-07-20T14:35:35Z</time>
      </trkpt>
      <trkpt lat="39.4554" lon="-0.36908">
        <ele>8.684257</ele>
        <time>2021-07-20T14:35:49Z</time>
      </trkpt>
      <trkpt lat="39.45541" lon="-0.36917">
        <ele>9.955337</ele>
        <time>2021-07-20T14:36:00Z</time>
      </trkpt>
      <trkpt lat="39.45541" lon="-0.36913">
        <ele>10.88268</ele>
        <time>2021-07-20T14:36:59Z</time>
      </trkpt>
      <trkpt lat="39.45541" lon="-0.36912">
        <ele>11.77341</ele>
        <time>2021-07-20T14:37:58Z</time>
      </trkpt>
      <trkpt lat="39.45541" lon="-0.36916">
        <ele>12.31254</ele>
        <time>2021-07-20T14:38:44Z</time>
      </trkpt>
      <trkpt lat="39.45544" lon="-0.3692">
        <ele>12.16977</ele>
        <time>2021-07-20T14:39:31Z</time>
      </trkpt>
      <trkpt lat="39.45548" lon="-0.36919">
        <ele>11.23557</ele>
        <time>2021-07-20T14:39:58Z</time>
      </trkpt>
      <trkpt lat="39.45553" lon="-0.3692">
        <ele>11.36102</ele>
        <time>2021-07-20T14:40:18Z</time>
      </trkpt>
      <trkpt lat="39.45557" lon="-0.36918">
        <ele>11.13531</ele>
        <time>2021-07-20T14:40:45Z</time>
      </trkpt>
      <trkpt lat="39.45554" lon="-0.36914">
        <ele>11.12413</ele>
        <time>2021-07-20T14:41:30Z</time>
      </trkpt>
      <trkpt lat="39.4555" lon="-0.36915">
        <ele>11.69131</ele>
        <time>2021-07-20T14:41:42Z</time>
      </trkpt>
      <trkpt lat="39.45541" lon="-0.36895">
        <ele>11.48006</ele>
        <time>2021-07-20T14:41:53Z</time>
      </trkpt>
      <trkpt lat="39.45517" lon="-0.368">
        <ele>11.79562</ele>
        <time>2021-07-20T14:42:04Z</time>
      </trkpt>
      <trkpt lat="39.45513" lon="-0.36767">
        <ele>11.54028</ele>
        <time>2021-07-20T14:42:15Z</time>
      </trkpt>
      <trkpt lat="39.45516" lon="-0.3676">
        <ele>11.36071</ele>
        <time>2021-07-20T14:42:26Z</time>
      </trkpt>
      <trkpt lat="39.45521" lon="-0.36754">
        <ele>10.81504</ele>
        <time>2021-07-20T14:42:37Z</time>
      </trkpt>
      <trkpt lat="39.4552" lon="-0.36746">
        <ele>10.23898</ele>
        <time>2021-07-20T14:43:09Z</time>
      </trkpt>
      <trkpt lat="39.45492" lon="-0.36708">
        <ele>9.785092</ele>
        <time>2021-07-20T14:43:20Z</time>
      </trkpt>
      <trkpt lat="39.45535" lon="-0.36764">
        <ele>10.05025</ele>
        <time>2021-07-20T14:43:31Z</time>
      </trkpt>
      <trkpt lat="39.45544" lon="-0.36814">
        <ele>10.88988</ele>
        <time>2021-07-20T14:43:42Z</time>
      </trkpt>
      <trkpt lat="39.45538" lon="-0.36816">
        <ele>11.1772</ele>
        <time>2021-07-20T14:43:53Z</time>
      </trkpt>
      <trkpt lat="39.45538" lon="-0.36824">
        <ele>11.4351</ele>
        <time>2021-07-20T14:44:04Z</time>
      </trkpt>
      <trkpt lat="39.45539" lon="-0.36829">
        <ele>10.90487</ele>
        <time>2021-07-20T14:44:15Z</time>
      </trkpt>
      <trkpt lat="39.45539" lon="-0.36829">
        <ele>10.90487</ele>
        <time>2021-07-20T14:45:14Z</time>
      </trkpt>
      <trkpt lat="39.45521" lon="-0.36829">
        <ele>11.14993</ele>
        <time>2021-07-20T14:45:27Z</time>
      </trkpt>
      <trkpt lat="39.45526" lon="-0.3684">
        <ele>10.66974</ele>
        <time>2021-07-20T14:45:38Z</time>
      </trkpt>
      <trkpt lat="39.45554" lon="-0.36903">
        <ele>11.30397</ele>
        <time>2021-07-20T14:45:49Z</time>
      </trkpt>
      <trkpt lat="39.45582" lon="-0.37039">
        <ele>11.39987</ele>
        <time>2021-07-20T14:46:00Z</time>
      </trkpt>
      <trkpt lat="39.45603" lon="-0.37128">
        <ele>10.92976</ele>
        <time>2021-07-20T14:46:11Z</time>
      </trkpt>
      <trkpt lat="39.456" lon="-0.37125">
        <ele>12.22223</ele>
        <time>2021-07-20T14:46:27Z</time>
      </trkpt>
      <trkpt lat="39.45602" lon="-0.37131">
        <ele>12.14794</ele>
        <time>2021-07-20T14:46:53Z</time>
      </trkpt>
      <trkpt lat="39.45629" lon="-0.3726">
        <ele>12.23081</ele>
        <time>2021-07-20T14:47:04Z</time>
      </trkpt>
      <trkpt lat="39.45647" lon="-0.37346">
        <ele>12.41368</ele>
        <time>2021-07-20T14:47:15Z</time>
      </trkpt>
      <trkpt lat="39.4565" lon="-0.37354">
        <ele>13.04052</ele>
        <time>2021-07-20T14:47:26Z</time>
      </trkpt>
      <trkpt lat="39.45652" lon="-0.37362">
        <ele>12.92929</ele>
        <time>2021-07-20T14:47:37Z</time>
      </trkpt>
      <trkpt lat="39.45654" lon="-0.37373">
        <ele>13.3829</ele>
        <time>2021-07-20T14:47:56Z</time>
      </trkpt>
      <trkpt lat="39.45665" lon="-0.3742">
        <ele>12.18764</ele>
        <time>2021-07-20T14:48:07Z</time>
      </trkpt>
      <trkpt lat="39.45679" lon="-0.37484">
        <ele>11.72671</ele>
        <time>2021-07-20T14:48:18Z</time>
      </trkpt>
      <trkpt lat="39.45681" lon="-0.37489">
        <ele>12.93727</ele>
        <time>2021-07-20T14:48:29Z</time>
      </trkpt>
      <trkpt lat="39.4568" lon="-0.37494">
        <ele>13.2026</ele>
        <time>2021-07-20T14:48:41Z</time>
      </trkpt>
      <trkpt lat="39.45685" lon="-0.37515">
        <ele>12.86745</ele>
        <time>2021-07-20T14:48:52Z</time>
      </trkpt>
      <trkpt lat="39.4569" lon="-0.37531">
        <ele>12.27494</ele>
        <time>2021-07-20T14:49:03Z</time>
      </trkpt>
      <trkpt lat="39.45692" lon="-0.37534">
        <ele>11.3902</ele>
        <time>2021-07-20T14:50:02Z</time>
      </trkpt>
      <trkpt lat="39.45711" lon="-0.37545">
        <ele>12.55954</ele>
        <time>2021-07-20T14:50:13Z</time>
      </trkpt>
      <trkpt lat="39.45706" lon="-0.37561">
        <ele>12.68478</ele>
        <time>2021-07-20T14:50:24Z</time>
      </trkpt>
      <trkpt lat="39.45704" lon="-0.37566">
        <ele>13.12145</ele>
        <time>2021-07-20T14:50:52Z</time>
      </trkpt>
      <trkpt lat="39.45676" lon="-0.37632">
        <ele>12.18526</ele>
        <time>2021-07-20T14:51:03Z</time>
      </trkpt>
      <trkpt lat="39.45597" lon="-0.3781">
        <ele>15.20893</ele>
        <time>2021-07-20T14:51:14Z</time>
      </trkpt>
      <trkpt lat="39.45533" lon="-0.38034">
        <ele>21.44317</ele>
        <time>2021-07-20T14:51:25Z</time>
      </trkpt>
      <trkpt lat="39.4564" lon="-0.3824">
        <ele>14.67905</ele>
        <time>2021-07-20T14:51:36Z</time>
      </trkpt>
      <trkpt lat="39.45791" lon="-0.38348">
        <ele>14.02561</ele>
        <time>2021-07-20T14:51:47Z</time>
      </trkpt>
      <trkpt lat="39.45916" lon="-0.38441">
        <ele>14.42687</ele>
        <time>2021-07-20T14:51:58Z</time>
      </trkpt>
      <trkpt lat="39.46033" lon="-0.38524">
        <ele>15.38776</ele>
        <time>2021-07-20T14:52:09Z</time>
      </trkpt>
      <trkpt lat="39.46139" lon="-0.38598">
        <ele>17.80584</ele>
        <time>2021-07-20T14:52:20Z</time>
      </trkpt>
      <trkpt lat="39.46215" lon="-0.38652">
        <ele>17.84493</ele>
        <time>2021-07-20T14:52:31Z</time>
      </trkpt>
      <trkpt lat="39.46217" lon="-0.38656">
        <ele>18.55535</ele>
        <time>2021-07-20T14:52:50Z</time>
      </trkpt>
      <trkpt lat="39.46221" lon="-0.38658">
        <ele>18.45849</ele>
        <time>2021-07-20T14:53:01Z</time>
      </trkpt>
      <trkpt lat="39.46226" lon="-0.38662">
        <ele>18.46678</ele>
        <time>2021-07-20T14:53:24Z</time>
      </trkpt>
      <trkpt lat="39.46303" lon="-0.38717">
        <ele>18.4038</ele>
        <time>2021-07-20T14:53:35Z</time>
      </trkpt>
      <trkpt lat="39.46355" lon="-0.38753">
        <ele>18.39681</ele>
        <time>2021-07-20T14:53:46Z</time>
      </trkpt>
      <trkpt lat="39.46475" lon="-0.38837">
        <ele>19.45931</ele>
        <time>2021-07-20T14:53:57Z</time>
      </trkpt>
      <trkpt lat="39.466" lon="-0.38927">
        <ele>19.90685</ele>
        <time>2021-07-20T14:54:08Z</time>
      </trkpt>
      <trkpt lat="39.46651" lon="-0.38976">
        <ele>20.82367</ele>
        <time>2021-07-20T14:54:19Z</time>
      </trkpt>
      <trkpt lat="39.4668" lon="-0.39001">
        <ele>27.22082</ele>
        <time>2021-07-20T14:54:30Z</time>
      </trkpt>
      <trkpt lat="39.46748" lon="-0.39042">
        <ele>42.47231</ele>
        <time>2021-07-20T14:54:41Z</time>
      </trkpt>
      <trkpt lat="39.46828" lon="-0.39108">
        <ele>40.24283</ele>
        <time>2021-07-20T14:54:52Z</time>
      </trkpt>
      <trkpt lat="39.46877" lon="-0.39147">
        <ele>44.93579</ele>
        <time>2021-07-20T14:55:03Z</time>
      </trkpt>
      <trkpt lat="39.46879" lon="-0.39144">
        <ele>48.58757</ele>
        <time>2021-07-20T14:55:17Z</time>
      </trkpt>
      <trkpt lat="39.46876" lon="-0.3915">
        <ele>53.61637</ele>
        <time>2021-07-20T14:55:28Z</time>
      </trkpt>
      <trkpt lat="39.46873" lon="-0.39155">
        <ele>60.15965</ele>
        <time>2021-07-20T14:55:48Z</time>
      </trkpt>
      <trkpt lat="39.46868" lon="-0.39164">
        <ele>62.6967</ele>
        <time>2021-07-20T14:55:59Z</time>
      </trkpt>
      <trkpt lat="39.46896" lon="-0.39163">
        <ele>57.11816</ele>
        <time>2021-07-20T14:56:10Z</time>
      </trkpt>
      <trkpt lat="39.46962" lon="-0.39194">
        <ele>53.72978</ele>
        <time>2021-07-20T14:56:21Z</time>
      </trkpt>
      <trkpt lat="39.47049" lon="-0.39258">
        <ele>21.04993</ele>
        <time>2021-07-20T14:56:32Z</time>
      </trkpt>
      <trkpt lat="39.47136" lon="-0.39314">
        <ele>21.98899</ele>
        <time>2021-07-20T14:56:43Z</time>
      </trkpt>
      <trkpt lat="39.47235" lon="-0.39384">
        <ele>22.73353</ele>
        <time>2021-07-20T14:56:54Z</time>
      </trkpt>
      <trkpt lat="39.47316" lon="-0.39442">
        <ele>23.62229</ele>
        <time>2021-07-20T14:57:05Z</time>
      </trkpt>
      <trkpt lat="39.47436" lon="-0.39526">
        <ele>21.21162</ele>
        <time>2021-07-20T14:57:16Z</time>
      </trkpt>
      <trkpt lat="39.47489" lon="-0.39564">
        <ele>22.50773</ele>
        <time>2021-07-20T14:57:27Z</time>
      </trkpt>
      <trkpt lat="39.47492" lon="-0.39566">
        <ele>29.32459</ele>
        <time>2021-07-20T14:57:41Z</time>
      </trkpt>
      <trkpt lat="39.47489" lon="-0.39563">
        <ele>32.42999</ele>
        <time>2021-07-20T14:57:55Z</time>
      </trkpt>
      <trkpt lat="39.47492" lon="-0.39567">
        <ele>38.53351</ele>
        <time>2021-07-20T14:58:15Z</time>
      </trkpt>
      <trkpt lat="39.47554" lon="-0.39613">
        <ele>32.21994</ele>
        <time>2021-07-20T14:58:26Z</time>
      </trkpt>
      <trkpt lat="39.47677" lon="-0.39697">
        <ele>24.96733</ele>
        <time>2021-07-20T14:58:37Z</time>
      </trkpt>
      <trkpt lat="39.47805" lon="-0.39788">
        <ele>21.16566</ele>
        <time>2021-07-20T14:58:48Z</time>
      </trkpt>
      <trkpt lat="39.47934" lon="-0.39877">
        <ele>22.16665</ele>
        <time>2021-07-20T14:58:59Z</time>
      </trkpt>
      <trkpt lat="39.48077" lon="-0.39981">
        <ele>24.34575</ele>
        <time>2021-07-20T14:59:10Z</time>
      </trkpt>
      <trkpt lat="39.4822" lon="-0.40083">
        <ele>22.49695</ele>
        <time>2021-07-20T14:59:21Z</time>
      </trkpt>
      <trkpt lat="39.48254" lon="-0.40104">
        <ele>25.56895</ele>
        <time>2021-07-20T14:59:32Z</time>
      </trkpt>
      <trkpt lat="39.48259" lon="-0.40106">
        <ele>23.79809</ele>
        <time>2021-07-20T15:00:12Z</time>
      </trkpt>
      <trkpt lat="39.48342" lon="-0.40157">
        <ele>24.57014</ele>
        <time>2021-07-20T15:00:23Z</time>
      </trkpt>
      <trkpt lat="39.48474" lon="-0.40269">
        <ele>27.58014</ele>
        <time>2021-07-20T15:00:34Z</time>
      </trkpt>
      <trkpt lat="39.48613" lon="-0.40369">
        <ele>36.81901</ele>
        <time>2021-07-20T15:00:45Z</time>
      </trkpt>
      <trkpt lat="39.48732" lon="-0.40457">
        <ele>41.06585</ele>
        <time>2021-07-20T15:00:56Z</time>
      </trkpt>
      <trkpt lat="39.48763" lon="-0.40436">
        <ele>35.23878</ele>
        <time>2021-07-20T15:01:07Z</time>
      </trkpt>
      <trkpt lat="39.48771" lon="-0.40433">
        <ele>26.61438</ele>
        <time>2021-07-20T15:01:34Z</time>
      </trkpt>
      <trkpt lat="39.48777" lon="-0.4043">
        <ele>25.5198</ele>
        <time>2021-07-20T15:01:48Z</time>
      </trkpt>
      <trkpt lat="39.48774" lon="-0.40414">
        <ele>25.83772</ele>
        <time>2021-07-20T15:02:04Z</time>
      </trkpt>
      <trkpt lat="39.4877" lon="-0.40414">
        <ele>22.19015</ele>
        <time>2021-07-20T15:02:36Z</time>
      </trkpt>
      <trkpt lat="39.4877" lon="-0.40414">
        <ele>22.03768</ele>
        <time>2021-07-20T15:03:35Z</time>
      </trkpt>
      <trkpt lat="39.48759" lon="-0.40416">
        <ele>10.17816</ele>
        <time>2021-07-20T15:04:22Z</time>
      </trkpt>
      <trkpt lat="39.48759" lon="-0.40416">
        <ele>10.59409</ele>
        <time>2021-07-20T15:05:22Z</time>
      </trkpt>
      <trkpt lat="39.48763" lon="-0.40415">
        <ele>9.216248</ele>
        <time>2021-07-20T15:05:45Z</time>
      </trkpt>
      <trkpt lat="39.48766" lon="-0.40406">
        <ele>9.200694</ele>
        <time>2021-07-20T15:05:56Z</time>
      </trkpt>
      <trkpt lat="39.48762" lon="-0.40395">
        <ele>15.27164</ele>
        <time>2021-07-20T15:06:07Z</time>
      </trkpt>
      <trkpt lat="39.48766" lon="-0.40392">
        <ele>21.00549</ele>
        <time>2021-07-20T15:06:19Z</time>
      </trkpt>
      <trkpt lat="39.48763" lon="-0.40395">
        <ele>34.97555</ele>
        <time>2021-07-20T15:06:43Z</time>
      </trkpt>
      <trkpt lat="39.48764" lon="-0.40391">
        <ele>29.80711</ele>
        <time>2021-07-20T15:07:12Z</time>
      </trkpt>
      <trkpt lat="39.48763" lon="-0.40395">
        <ele>30.21921</ele>
        <time>2021-07-20T15:07:58Z</time>
      </trkpt>
      <trkpt lat="39.48772" lon="-0.40402">
        <ele>24.01853</ele>
        <time>2021-07-20T15:08:21Z</time>
      </trkpt>
      <trkpt lat="39.48744" lon="-0.40418">
        <ele>25.87699</ele>
        <time>2021-07-20T15:08:32Z</time>
      </trkpt>
      <trkpt lat="39.48741" lon="-0.40461">
        <ele>31.373</ele>
        <time>2021-07-20T15:08:43Z</time>
      </trkpt>
      <trkpt lat="39.48809" lon="-0.40498">
        <ele>30.80127</ele>
        <time>2021-07-20T15:08:54Z</time>
      </trkpt>
      <trkpt lat="39.4881" lon="-0.40543">
        <ele>29.87749</ele>
        <time>2021-07-20T15:09:05Z</time>
      </trkpt>
      <trkpt lat="39.48809" lon="-0.40547">
        <ele>29.73806</ele>
        <time>2021-07-20T15:09:50Z</time>
      </trkpt>
      <trkpt lat="39.48818" lon="-0.40659">
        <ele>25.54207</ele>
        <time>2021-07-20T15:10:01Z</time>
      </trkpt>
      <trkpt lat="39.48844" lon="-0.40905">
        <ele>27.40307</ele>
        <time>2021-07-20T15:10:12Z</time>
      </trkpt>
      <trkpt lat="39.48927" lon="-0.41173">
        <ele>27.456</ele>
        <time>2021-07-20T15:10:23Z</time>
      </trkpt>
      <trkpt lat="39.49012" lon="-0.4144">
        <ele>27.40577</ele>
        <time>2021-07-20T15:10:34Z</time>
      </trkpt>
      <trkpt lat="39.49065" lon="-0.41693">
        <ele>28.46624</ele>
        <time>2021-07-20T15:10:45Z</time>
      </trkpt>
      <trkpt lat="39.49127" lon="-0.41813">
        <ele>28.6182</ele>
        <time>2021-07-20T15:10:56Z</time>
      </trkpt>
      <trkpt lat="39.49303" lon="-0.41807">
        <ele>28.87061</ele>
        <time>2021-07-20T15:11:07Z</time>
      </trkpt>
      <trkpt lat="39.49417" lon="-0.41883">
        <ele>31.86241</ele>
        <time>2021-07-20T15:11:18Z</time>
      </trkpt>
      <trkpt lat="39.49604" lon="-0.41898">
        <ele>44.55924</ele>
        <time>2021-07-20T15:11:29Z</time>
      </trkpt>
      <trkpt lat="39.49656" lon="-0.4189">
        <ele>39.14261</ele>
        <time>2021-07-20T15:11:40Z</time>
      </trkpt>
      <trkpt lat="39.4966" lon="-0.41888">
        <ele>39.4683</ele>
        <time>2021-07-20T15:12:21Z</time>
      </trkpt>
      <trkpt lat="39.49671" lon="-0.41922">
        <ele>39.84515</ele>
        <time>2021-07-20T15:12:32Z</time>
      </trkpt>
      <trkpt lat="39.49659" lon="-0.42156">
        <ele>40.6189</ele>
        <time>2021-07-20T15:12:43Z</time>
      </trkpt>
      <trkpt lat="39.49646" lon="-0.42449">
        <ele>42.71846</ele>
        <time>2021-07-20T15:12:54Z</time>
      </trkpt>
      <trkpt lat="39.49669" lon="-0.42741">
        <ele>52.4357</ele>
        <time>2021-07-20T15:13:05Z</time>
      </trkpt>
      <trkpt lat="39.49791" lon="-0.42834">
        <ele>44.82398</ele>
        <time>2021-07-20T15:13:16Z</time>
      </trkpt>
      <trkpt lat="39.49805" lon="-0.42926">
        <ele>49.24113</ele>
        <time>2021-07-20T15:13:27Z</time>
      </trkpt>
      <trkpt lat="39.49849" lon="-0.43047">
        <ele>55.43168</ele>
        <time>2021-07-20T15:13:38Z</time>
      </trkpt>
      <trkpt lat="39.49941" lon="-0.4309">
        <ele>51.25171</ele>
        <time>2021-07-20T15:13:49Z</time>
      </trkpt>
      <trkpt lat="39.50067" lon="-0.43127">
        <ele>55.73767</ele>
        <time>2021-07-20T15:14:00Z</time>
      </trkpt>
      <trkpt lat="39.50147" lon="-0.43099">
        <ele>55.15689</ele>
        <time>2021-07-20T15:14:11Z</time>
      </trkpt>
      <trkpt lat="39.50159" lon="-0.43207">
        <ele>51.70862</ele>
        <time>2021-07-20T15:14:22Z</time>
      </trkpt>
      <trkpt lat="39.50272" lon="-0.4326">
        <ele>53.12866</ele>
        <time>2021-07-20T15:14:33Z</time>
      </trkpt>
      <trkpt lat="39.50395" lon="-0.43274">
        <ele>54.0027</ele>
        <time>2021-07-20T15:14:44Z</time>
      </trkpt>
      <trkpt lat="39.50531" lon="-0.43286">
        <ele>55.31591</ele>
        <time>2021-07-20T15:14:55Z</time>
      </trkpt>
      <trkpt lat="39.50651" lon="-0.433">
        <ele>53.51906</ele>
        <time>2021-07-20T15:15:06Z</time>
      </trkpt>
      <trkpt lat="39.50762" lon="-0.43347">
        <ele>57.09914</ele>
        <time>2021-07-20T15:15:17Z</time>
      </trkpt>
      <trkpt lat="39.50796" lon="-0.43389">
        <ele>58.13277</ele>
        <time>2021-07-20T15:15:28Z</time>
      </trkpt>
      <trkpt lat="39.5082" lon="-0.43406">
        <ele>54.7503</ele>
        <time>2021-07-20T15:15:39Z</time>
      </trkpt>
      <trkpt lat="39.50854" lon="-0.43506">
        <ele>60.09703</ele>
        <time>2021-07-20T15:15:50Z</time>
      </trkpt>
      <trkpt lat="39.50834" lon="-0.43529">
        <ele>62.28324</ele>
        <time>2021-07-20T15:16:01Z</time>
      </trkpt>
      <trkpt lat="39.50822" lon="-0.43542">
        <ele>62.97777</ele>
        <time>2021-07-20T15:16:12Z</time>
      </trkpt>
      <trkpt lat="39.50831" lon="-0.437">
        <ele>70.28351</ele>
        <time>2021-07-20T15:16:23Z</time>
      </trkpt>
      <trkpt lat="39.50919" lon="-0.43954">
        <ele>79.87133</ele>
        <time>2021-07-20T15:16:34Z</time>
      </trkpt>
      <trkpt lat="39.51014" lon="-0.44217">
        <ele>88.08212</ele>
        <time>2021-07-20T15:16:45Z</time>
      </trkpt>
      <trkpt lat="39.51116" lon="-0.44502">
        <ele>81.2639</ele>
        <time>2021-07-20T15:16:56Z</time>
      </trkpt>
      <trkpt lat="39.51145" lon="-0.44779">
        <ele>78.99664</ele>
        <time>2021-07-20T15:17:07Z</time>
      </trkpt>
      <trkpt lat="39.51146" lon="-0.45033">
        <ele>70.51676</ele>
        <time>2021-07-20T15:17:18Z</time>
      </trkpt>
      <trkpt lat="39.51135" lon="-0.45289">
        <ele>59.52754</ele>
        <time>2021-07-20T15:17:29Z</time>
      </trkpt>
      <trkpt lat="39.51028" lon="-0.45536">
        <ele>58.87942</ele>
        <time>2021-07-20T15:17:40Z</time>
      </trkpt>
      <trkpt lat="39.50897" lon="-0.45725">
        <ele>61.53942</ele>
        <time>2021-07-20T15:17:51Z</time>
      </trkpt>
      <trkpt lat="39.50785" lon="-0.45889">
        <ele>63.11436</ele>
        <time>2021-07-20T15:18:02Z</time>
      </trkpt>
      <trkpt lat="39.50691" lon="-0.46021">
        <ele>62.71664</ele>
        <time>2021-07-20T15:18:13Z</time>
      </trkpt>
      <trkpt lat="39.50563" lon="-0.46203">
        <ele>57.49508</ele>
        <time>2021-07-20T15:18:24Z</time>
      </trkpt>
      <trkpt lat="39.50406" lon="-0.46427">
        <ele>53.01951</ele>
        <time>2021-07-20T15:18:35Z</time>
      </trkpt>
      <trkpt lat="39.50235" lon="-0.46643">
        <ele>51.21665</ele>
        <time>2021-07-20T15:18:46Z</time>
      </trkpt>
      <trkpt lat="39.50083" lon="-0.46779">
        <ele>50.03115</ele>
        <time>2021-07-20T15:18:57Z</time>
      </trkpt>
      <trkpt lat="39.49904" lon="-0.46894">
        <ele>50.30482</ele>
        <time>2021-07-20T15:19:08Z</time>
      </trkpt>
      <trkpt lat="39.49765" lon="-0.46941">
        <ele>61.17086</ele>
        <time>2021-07-20T15:19:19Z</time>
      </trkpt>
      <trkpt lat="39.49645" lon="-0.46968">
        <ele>64.55241</ele>
        <time>2021-07-20T15:19:30Z</time>
      </trkpt>
      <trkpt lat="39.49614" lon="-0.4698">
        <ele>67.00797</ele>
        <time>2021-07-20T15:19:41Z</time>
      </trkpt>
      <trkpt lat="39.49622" lon="-0.47072">
        <ele>71.67519</ele>
        <time>2021-07-20T15:19:52Z</time>
      </trkpt>
      <trkpt lat="39.49641" lon="-0.47174">
        <ele>71.30152</ele>
        <time>2021-07-20T15:20:03Z</time>
      </trkpt>
      <trkpt lat="39.49559" lon="-0.47233">
        <ele>76.26738</ele>
        <time>2021-07-20T15:20:14Z</time>
      </trkpt>
      <trkpt lat="39.49508" lon="-0.47281">
        <ele>72.40914</ele>
        <time>2021-07-20T15:20:25Z</time>
      </trkpt>
      <trkpt lat="39.49528" lon="-0.47383">
        <ele>66.05295</ele>
        <time>2021-07-20T15:20:36Z</time>
      </trkpt>
      <trkpt lat="39.49562" lon="-0.47524">
        <ele>61.69037</ele>
        <time>2021-07-20T15:20:47Z</time>
      </trkpt>
      <trkpt lat="39.49599" lon="-0.47657">
        <ele>62.89227</ele>
        <time>2021-07-20T15:20:58Z</time>
      </trkpt>
      <trkpt lat="39.4962" lon="-0.47747">
        <ele>63.23454</ele>
        <time>2021-07-20T15:21:09Z</time>
      </trkpt>
      <trkpt lat="39.49644" lon="-0.47865">
        <ele>65.2902</ele>
        <time>2021-07-20T15:21:20Z</time>
      </trkpt>
      <trkpt lat="39.49677" lon="-0.47977">
        <ele>64.59262</ele>
        <time>2021-07-20T15:21:31Z</time>
      </trkpt>
      <trkpt lat="39.49716" lon="-0.4816">
        <ele>64.83831</ele>
        <time>2021-07-20T15:21:42Z</time>
      </trkpt>
      <trkpt lat="39.4976" lon="-0.48349">
        <ele>66.97614</ele>
        <time>2021-07-20T15:21:53Z</time>
      </trkpt>
      <trkpt lat="39.4981" lon="-0.48548">
        <ele>66.09735</ele>
        <time>2021-07-20T15:22:04Z</time>
      </trkpt>
      <trkpt lat="39.49852" lon="-0.48734">
        <ele>68.52441</ele>
        <time>2021-07-20T15:22:15Z</time>
      </trkpt>
      <trkpt lat="39.49906" lon="-0.48818">
        <ele>68.44633</ele>
        <time>2021-07-20T15:22:26Z</time>
      </trkpt>
      <trkpt lat="39.49989" lon="-0.48922">
        <ele>68.41904</ele>
        <time>2021-07-20T15:22:37Z</time>
      </trkpt>
      <trkpt lat="39.50051" lon="-0.49081">
        <ele>71.87119</ele>
        <time>2021-07-20T15:22:48Z</time>
      </trkpt>
      <trkpt lat="39.50122" lon="-0.4924">
        <ele>79.00318</ele>
        <time>2021-07-20T15:22:59Z</time>
      </trkpt>
      <trkpt lat="39.50211" lon="-0.49406">
        <ele>88.22384</ele>
        <time>2021-07-20T15:23:10Z</time>
      </trkpt>
      <trkpt lat="39.50284" lon="-0.49568">
        <ele>92.37237</ele>
        <time>2021-07-20T15:23:21Z</time>
      </trkpt>
      <trkpt lat="39.50343" lon="-0.49731">
        <ele>91.06597</ele>
        <time>2021-07-20T15:23:32Z</time>
      </trkpt>
      <trkpt lat="39.50376" lon="-0.49837">
        <ele>88.00104</ele>
        <time>2021-07-20T15:23:43Z</time>
      </trkpt>
      <trkpt lat="39.50409" lon="-0.49908">
        <ele>89.47088</ele>
        <time>2021-07-20T15:23:54Z</time>
      </trkpt>
      <trkpt lat="39.50487" lon="-0.50051">
        <ele>88.96938</ele>
        <time>2021-07-20T15:24:05Z</time>
      </trkpt>
      <trkpt lat="39.50566" lon="-0.5025">
        <ele>88.52155</ele>
        <time>2021-07-20T15:24:16Z</time>
      </trkpt>
      <trkpt lat="39.50645" lon="-0.50474">
        <ele>88.30059</ele>
        <time>2021-07-20T15:24:27Z</time>
      </trkpt>
      <trkpt lat="39.50737" lon="-0.5068">
        <ele>86.35013</ele>
        <time>2021-07-20T15:24:38Z</time>
      </trkpt>
      <trkpt lat="39.50849" lon="-0.50952">
        <ele>89.67403</ele>
        <time>2021-07-20T15:24:49Z</time>
      </trkpt>
      <trkpt lat="39.50954" lon="-0.51215">
        <ele>94.18843</ele>
        <time>2021-07-20T15:25:00Z</time>
      </trkpt>
      <trkpt lat="39.51074" lon="-0.51391">
        <ele>94.95634</ele>
        <time>2021-07-20T15:25:11Z</time>
      </trkpt>
      <trkpt lat="39.51204" lon="-0.5157">
        <ele>103.1869</ele>
        <time>2021-07-20T15:25:22Z</time>
      </trkpt>
      <trkpt lat="39.51355" lon="-0.51753">
        <ele>113.1407</ele>
        <time>2021-07-20T15:25:33Z</time>
      </trkpt>
      <trkpt lat="39.5151" lon="-0.5189">
        <ele>114.9916</ele>
        <time>2021-07-20T15:25:44Z</time>
      </trkpt>
      <trkpt lat="39.51623" lon="-0.52131">
        <ele>100.6413</ele>
        <time>2021-07-20T15:25:55Z</time>
      </trkpt>
      <trkpt lat="39.51721" lon="-0.5231">
        <ele>89.69324</ele>
        <time>2021-07-20T15:26:06Z</time>
      </trkpt>
      <trkpt lat="39.51879" lon="-0.52442">
        <ele>83.71972</ele>
        <time>2021-07-20T15:26:17Z</time>
      </trkpt>
      <trkpt lat="39.51996" lon="-0.52583">
        <ele>88.15657</ele>
        <time>2021-07-20T15:26:28Z</time>
      </trkpt>
      <trkpt lat="39.5205" lon="-0.52649">
        <ele>89.6114</ele>
        <time>2021-07-20T15:26:39Z</time>
      </trkpt>
      <trkpt lat="39.52097" lon="-0.52693">
        <ele>89.37118</ele>
        <time>2021-07-20T15:26:50Z</time>
      </trkpt>
      <trkpt lat="39.52168" lon="-0.52793">
        <ele>88.48008</ele>
        <time>2021-07-20T15:27:01Z</time>
      </trkpt>
      <trkpt lat="39.52322" lon="-0.52992">
        <ele>84.54121</ele>
        <time>2021-07-20T15:27:12Z</time>
      </trkpt>
      <trkpt lat="39.52493" lon="-0.53142">
        <ele>86.9959</ele>
        <time>2021-07-20T15:27:23Z</time>
      </trkpt>
      <trkpt lat="39.5258" lon="-0.53191">
        <ele>88.59223</ele>
        <time>2021-07-20T15:27:34Z</time>
      </trkpt>
      <trkpt lat="39.52656" lon="-0.5321">
        <ele>90.20803</ele>
        <time>2021-07-20T15:27:45Z</time>
      </trkpt>
      <trkpt lat="39.52748" lon="-0.5333">
        <ele>93.06862</ele>
        <time>2021-07-20T15:27:56Z</time>
      </trkpt>
      <trkpt lat="39.52922" lon="-0.53496">
        <ele>98.15371</ele>
        <time>2021-07-20T15:28:07Z</time>
      </trkpt>
      <trkpt lat="39.53109" lon="-0.53662">
        <ele>99.11599</ele>
        <time>2021-07-20T15:28:18Z</time>
      </trkpt>
      <trkpt lat="39.53315" lon="-0.5382">
        <ele>97.03899</ele>
        <time>2021-07-20T15:28:29Z</time>
      </trkpt>
      <trkpt lat="39.53541" lon="-0.54008">
        <ele>87.61217</ele>
        <time>2021-07-20T15:28:40Z</time>
      </trkpt>
      <trkpt lat="39.53709" lon="-0.54223">
        <ele>88.54781</ele>
        <time>2021-07-20T15:28:51Z</time>
      </trkpt>
      <trkpt lat="39.53769" lon="-0.54318">
        <ele>89.63313</ele>
        <time>2021-07-20T15:29:02Z</time>
      </trkpt>
      <trkpt lat="39.53868" lon="-0.54498">
        <ele>98.6578</ele>
        <time>2021-07-20T15:29:13Z</time>
      </trkpt>
      <trkpt lat="39.5403" lon="-0.54749">
        <ele>98.38474</ele>
        <time>2021-07-20T15:29:24Z</time>
      </trkpt>
      <trkpt lat="39.54187" lon="-0.55016">
        <ele>94.11542</ele>
        <time>2021-07-20T15:29:35Z</time>
      </trkpt>
      <trkpt lat="39.54265" lon="-0.55289">
        <ele>88.85256</ele>
        <time>2021-07-20T15:29:46Z</time>
      </trkpt>
      <trkpt lat="39.54328" lon="-0.5548">
        <ele>91.59758</ele>
        <time>2021-07-20T15:29:57Z</time>
      </trkpt>
      <trkpt lat="39.54331" lon="-0.55639">
        <ele>95.86841</ele>
        <time>2021-07-20T15:30:08Z</time>
      </trkpt>
      <trkpt lat="39.54307" lon="-0.55889">
        <ele>108.9079</ele>
        <time>2021-07-20T15:30:19Z</time>
      </trkpt>
      <trkpt lat="39.54146" lon="-0.56131">
        <ele>115.5397</ele>
        <time>2021-07-20T15:30:30Z</time>
      </trkpt>
      <trkpt lat="39.54001" lon="-0.56391">
        <ele>124.1258</ele>
        <time>2021-07-20T15:30:41Z</time>
      </trkpt>
      <trkpt lat="39.53933" lon="-0.56725">
        <ele>120.8165</ele>
        <time>2021-07-20T15:30:52Z</time>
      </trkpt>
      <trkpt lat="39.53881" lon="-0.57032">
        <ele>115.4913</ele>
        <time>2021-07-20T15:31:03Z</time>
      </trkpt>
      <trkpt lat="39.53858" lon="-0.57132">
        <ele>120.0309</ele>
        <time>2021-07-20T15:31:14Z</time>
      </trkpt>
      <trkpt lat="39.53875" lon="-0.5723">
        <ele>121.7847</ele>
        <time>2021-07-20T15:31:25Z</time>
      </trkpt>
      <trkpt lat="39.53904" lon="-0.57427">
        <ele>129.395</ele>
        <time>2021-07-20T15:31:36Z</time>
      </trkpt>
      <trkpt lat="39.54008" lon="-0.57703">
        <ele>139.4427</ele>
        <time>2021-07-20T15:31:47Z</time>
      </trkpt>
      <trkpt lat="39.54125" lon="-0.57985">
        <ele>135.0328</ele>
        <time>2021-07-20T15:31:58Z</time>
      </trkpt>
      <trkpt lat="39.54256" lon="-0.58136">
        <ele>128.1757</ele>
        <time>2021-07-20T15:32:09Z</time>
      </trkpt>
      <trkpt lat="39.54385" lon="-0.58275">
        <ele>120.6586</ele>
        <time>2021-07-20T15:32:20Z</time>
      </trkpt>
      <trkpt lat="39.5457" lon="-0.58394">
        <ele>110.286</ele>
        <time>2021-07-20T15:32:31Z</time>
      </trkpt>
      <trkpt lat="39.54814" lon="-0.58549">
        <ele>98.60278</ele>
        <time>2021-07-20T15:32:42Z</time>
      </trkpt>
      <trkpt lat="39.55044" lon="-0.58654">
        <ele>93.93488</ele>
        <time>2021-07-20T15:32:53Z</time>
      </trkpt>
      <trkpt lat="39.55101" lon="-0.5863">
        <ele>91.64593</ele>
        <time>2021-07-20T15:33:04Z</time>
      </trkpt>
      <trkpt lat="39.55166" lon="-0.58706">
        <ele>94.28478</ele>
        <time>2021-07-20T15:33:15Z</time>
      </trkpt>
      <trkpt lat="39.5526" lon="-0.58917">
        <ele>94.64736</ele>
        <time>2021-07-20T15:33:26Z</time>
      </trkpt>
      <trkpt lat="39.55419" lon="-0.5911">
        <ele>92.45959</ele>
        <time>2021-07-20T15:33:37Z</time>
      </trkpt>
      <trkpt lat="39.55609" lon="-0.59315">
        <ele>89.03975</ele>
        <time>2021-07-20T15:33:48Z</time>
      </trkpt>
      <trkpt lat="39.55789" lon="-0.59491">
        <ele>91.71724</ele>
        <time>2021-07-20T15:33:59Z</time>
      </trkpt>
      <trkpt lat="39.55989" lon="-0.5957">
        <ele>89.63716</ele>
        <time>2021-07-20T15:34:10Z</time>
      </trkpt>
      <trkpt lat="39.56188" lon="-0.59652">
        <ele>90.45441</ele>
        <time>2021-07-20T15:34:21Z</time>
      </trkpt>
      <trkpt lat="39.56284" lon="-0.59832">
        <ele>93.01095</ele>
        <time>2021-07-20T15:34:32Z</time>
      </trkpt>
      <trkpt lat="39.563" lon="-0.60073">
        <ele>97.02048</ele>
        <time>2021-07-20T15:34:43Z</time>
      </trkpt>
      <trkpt lat="39.56285" lon="-0.60333">
        <ele>92.07</ele>
        <time>2021-07-20T15:34:54Z</time>
      </trkpt>
      <trkpt lat="39.56407" lon="-0.60546">
        <ele>93.04313</ele>
        <time>2021-07-20T15:35:05Z</time>
      </trkpt>
      <trkpt lat="39.56535" lon="-0.60699">
        <ele>98.93654</ele>
        <time>2021-07-20T15:35:16Z</time>
      </trkpt>
      <trkpt lat="39.56665" lon="-0.60879">
        <ele>96.56054</ele>
        <time>2021-07-20T15:35:27Z</time>
      </trkpt>
      <trkpt lat="39.56756" lon="-0.61054">
        <ele>97.06236</ele>
        <time>2021-07-20T15:35:38Z</time>
      </trkpt>
      <trkpt lat="39.56751" lon="-0.61304">
        <ele>96.9136</ele>
        <time>2021-07-20T15:35:49Z</time>
      </trkpt>
      <trkpt lat="39.5672" lon="-0.61547">
        <ele>102.7569</ele>
        <time>2021-07-20T15:36:00Z</time>
      </trkpt>
      <trkpt lat="39.56668" lon="-0.61755">
        <ele>103.5642</ele>
        <time>2021-07-20T15:36:11Z</time>
      </trkpt>
      <trkpt lat="39.56673" lon="-0.61941">
        <ele>105.9786</ele>
        <time>2021-07-20T15:36:22Z</time>
      </trkpt>
      <trkpt lat="39.56663" lon="-0.62121">
        <ele>108.6873</ele>
        <time>2021-07-20T15:36:33Z</time>
      </trkpt>
      <trkpt lat="39.56654" lon="-0.62173">
        <ele>110.182</ele>
        <time>2021-07-20T15:36:44Z</time>
      </trkpt>
      <trkpt lat="39.56701" lon="-0.62204">
        <ele>109.1926</ele>
        <time>2021-07-20T15:36:55Z</time>
      </trkpt>
      <trkpt lat="39.56759" lon="-0.62238">
        <ele>113.0196</ele>
        <time>2021-07-20T15:37:06Z</time>
      </trkpt>
      <trkpt lat="39.56757" lon="-0.62242">
        <ele>116.7239</ele>
        <time>2021-07-20T15:37:17Z</time>
      </trkpt>
      <trkpt lat="39.56813" lon="-0.62237">
        <ele>124.4514</ele>
        <time>2021-07-20T15:37:28Z</time>
      </trkpt>
      <trkpt lat="39.56854" lon="-0.62221">
        <ele>128.8917</ele>
        <time>2021-07-20T15:37:39Z</time>
      </trkpt>
      <trkpt lat="39.56879" lon="-0.6221">
        <ele>126.2371</ele>
        <time>2021-07-20T15:37:50Z</time>
      </trkpt>
      <trkpt lat="39.56947" lon="-0.622">
        <ele>121.7429</ele>
        <time>2021-07-20T15:38:01Z</time>
      </trkpt>
      <trkpt lat="39.57001" lon="-0.62245">
        <ele>113.9055</ele>
        <time>2021-07-20T15:38:12Z</time>
      </trkpt>
      <trkpt lat="39.57053" lon="-0.6231">
        <ele>110.3797</ele>
        <time>2021-07-20T15:38:23Z</time>
      </trkpt>
      <trkpt lat="39.57084" lon="-0.62351">
        <ele>106.1894</ele>
        <time>2021-07-20T15:38:34Z</time>
      </trkpt>
      <trkpt lat="39.57124" lon="-0.62424">
        <ele>105.9884</ele>
        <time>2021-07-20T15:38:45Z</time>
      </trkpt>
      <trkpt lat="39.57177" lon="-0.62414">
        <ele>112.3727</ele>
        <time>2021-07-20T15:38:56Z</time>
      </trkpt>
      <trkpt lat="39.57342" lon="-0.6236">
        <ele>104.509</ele>
        <time>2021-07-20T15:39:07Z</time>
      </trkpt>
      <trkpt lat="39.57474" lon="-0.62315">
        <ele>102.3465</ele>
        <time>2021-07-20T15:39:18Z</time>
      </trkpt>
      <trkpt lat="39.57591" lon="-0.6227">
        <ele>101.9116</ele>
        <time>2021-07-20T15:39:29Z</time>
      </trkpt>
      <trkpt lat="39.57684" lon="-0.62238">
        <ele>101.3434</ele>
        <time>2021-07-20T15:39:40Z</time>
      </trkpt>
      <trkpt lat="39.57816" lon="-0.62192">
        <ele>102.1156</ele>
        <time>2021-07-20T15:39:51Z</time>
      </trkpt>
      <trkpt lat="39.57987" lon="-0.62106">
        <ele>100.8528</ele>
        <time>2021-07-20T15:40:02Z</time>
      </trkpt>
      <trkpt lat="39.58175" lon="-0.61984">
        <ele>100.8446</ele>
        <time>2021-07-20T15:40:13Z</time>
      </trkpt>
      <trkpt lat="39.5831" lon="-0.61808">
        <ele>102.9999</ele>
        <time>2021-07-20T15:40:24Z</time>
      </trkpt>
      <trkpt lat="39.58454" lon="-0.61678">
        <ele>106.9416</ele>
        <time>2021-07-20T15:40:35Z</time>
      </trkpt>
      <trkpt lat="39.58623" lon="-0.6155">
        <ele>116.8735</ele>
        <time>2021-07-20T15:40:46Z</time>
      </trkpt>
      <trkpt lat="39.58826" lon="-0.61395">
        <ele>130.1983</ele>
        <time>2021-07-20T15:40:57Z</time>
      </trkpt>
      <trkpt lat="39.5906" lon="-0.61304">
        <ele>137.6567</ele>
        <time>2021-07-20T15:41:08Z</time>
      </trkpt>
      <trkpt lat="39.59276" lon="-0.61221">
        <ele>138.7546</ele>
        <time>2021-07-20T15:41:19Z</time>
      </trkpt>
      <trkpt lat="39.59481" lon="-0.61144">
        <ele>141.0423</ele>
        <time>2021-07-20T15:41:30Z</time>
      </trkpt>
      <trkpt lat="39.59752" lon="-0.61086">
        <ele>148.8996</ele>
        <time>2021-07-20T15:41:41Z</time>
      </trkpt>
      <trkpt lat="39.59969" lon="-0.60945">
        <ele>142.446</ele>
        <time>2021-07-20T15:41:52Z</time>
      </trkpt>
      <trkpt lat="39.60116" lon="-0.60813">
        <ele>134.8627</ele>
        <time>2021-07-20T15:42:03Z</time>
      </trkpt>
      <trkpt lat="39.60177" lon="-0.60761">
        <ele>135.6762</ele>
        <time>2021-07-20T15:42:14Z</time>
      </trkpt>
      <trkpt lat="39.60262" lon="-0.60704">
        <ele>134.1169</ele>
        <time>2021-07-20T15:42:25Z</time>
      </trkpt>
      <trkpt lat="39.60385" lon="-0.60699">
        <ele>136.0618</ele>
        <time>2021-07-20T15:42:36Z</time>
      </trkpt>
      <trkpt lat="39.60528" lon="-0.60577">
        <ele>139.644</ele>
        <time>2021-07-20T15:42:47Z</time>
      </trkpt>
      <trkpt lat="39.60675" lon="-0.60432">
        <ele>141.4647</ele>
        <time>2021-07-20T15:42:58Z</time>
      </trkpt>
      <trkpt lat="39.60851" lon="-0.60356">
        <ele>142.64</ele>
        <time>2021-07-20T15:43:09Z</time>
      </trkpt>
      <trkpt lat="39.60958" lon="-0.602">
        <ele>147.3798</ele>
        <time>2021-07-20T15:43:20Z</time>
      </trkpt>
      <trkpt lat="39.6108" lon="-0.60047">
        <ele>141.5923</ele>
        <time>2021-07-20T15:43:31Z</time>
      </trkpt>
      <trkpt lat="39.61229" lon="-0.59929">
        <ele>144.9232</ele>
        <time>2021-07-20T15:43:42Z</time>
      </trkpt>
      <trkpt lat="39.61391" lon="-0.59799">
        <ele>145.4781</ele>
        <time>2021-07-20T15:43:53Z</time>
      </trkpt>
      <trkpt lat="39.61587" lon="-0.5964">
        <ele>145.4972</ele>
        <time>2021-07-20T15:44:04Z</time>
      </trkpt>
      <trkpt lat="39.61775" lon="-0.5948">
        <ele>146.8977</ele>
        <time>2021-07-20T15:44:15Z</time>
      </trkpt>
      <trkpt lat="39.61933" lon="-0.59359">
        <ele>149.0724</ele>
        <time>2021-07-20T15:44:26Z</time>
      </trkpt>
      <trkpt lat="39.62068" lon="-0.59259">
        <ele>150.1177</ele>
        <time>2021-07-20T15:44:37Z</time>
      </trkpt>
      <trkpt lat="39.62176" lon="-0.59168">
        <ele>150.3248</ele>
        <time>2021-07-20T15:44:48Z</time>
      </trkpt>
      <trkpt lat="39.6226" lon="-0.59098">
        <ele>150.511</ele>
        <time>2021-07-20T15:44:59Z</time>
      </trkpt>
      <trkpt lat="39.62302" lon="-0.59067">
        <ele>154.5787</ele>
        <time>2021-07-20T15:45:10Z</time>
      </trkpt>
      <trkpt lat="39.62303" lon="-0.59034">
        <ele>159.0291</ele>
        <time>2021-07-20T15:45:21Z</time>
      </trkpt>
      <trkpt lat="39.62258" lon="-0.58951">
        <ele>155.1008</ele>
        <time>2021-07-20T15:45:32Z</time>
      </trkpt>
      <trkpt lat="39.62255" lon="-0.58879">
        <ele>151.0191</ele>
        <time>2021-07-20T15:45:43Z</time>
      </trkpt>
      <trkpt lat="39.62383" lon="-0.58984">
        <ele>155.8421</ele>
        <time>2021-07-20T15:45:54Z</time>
      </trkpt>
      <trkpt lat="39.62561" lon="-0.59097">
        <ele>153.4739</ele>
        <time>2021-07-20T15:46:05Z</time>
      </trkpt>
      <trkpt lat="39.62664" lon="-0.59169">
        <ele>156.275</ele>
        <time>2021-07-20T15:46:16Z</time>
      </trkpt>
      <trkpt lat="39.62702" lon="-0.59258">
        <ele>157.9216</ele>
        <time>2021-07-20T15:46:27Z</time>
      </trkpt>
      <trkpt lat="39.62745" lon="-0.59348">
        <ele>166.9932</ele>
        <time>2021-07-20T15:46:38Z</time>
      </trkpt>
      <trkpt lat="39.62776" lon="-0.59447">
        <ele>174.5757</ele>
        <time>2021-07-20T15:46:49Z</time>
      </trkpt>
      <trkpt lat="39.62806" lon="-0.59546">
        <ele>175.5253</ele>
        <time>2021-07-20T15:47:00Z</time>
      </trkpt>
      <trkpt lat="39.62809" lon="-0.59559">
        <ele>181.7696</ele>
        <time>2021-07-20T15:47:11Z</time>
      </trkpt>
      <trkpt lat="39.62811" lon="-0.59563">
        <ele>189.6721</ele>
        <time>2021-07-20T15:47:23Z</time>
      </trkpt>
      <trkpt lat="39.62816" lon="-0.59581">
        <ele>192.4594</ele>
        <time>2021-07-20T15:47:34Z</time>
      </trkpt>
      <trkpt lat="39.6283" lon="-0.59655">
        <ele>197.6902</ele>
        <time>2021-07-20T15:47:45Z</time>
      </trkpt>
      <trkpt lat="39.62838" lon="-0.59685">
        <ele>199.1378</ele>
        <time>2021-07-20T15:47:56Z</time>
      </trkpt>
      <trkpt lat="39.62859" lon="-0.59748">
        <ele>197.3417</ele>
        <time>2021-07-20T15:48:07Z</time>
      </trkpt>
      <trkpt lat="39.62887" lon="-0.59783">
        <ele>196.5975</ele>
        <time>2021-07-20T15:48:18Z</time>
      </trkpt>
      <trkpt lat="39.62925" lon="-0.59743">
        <ele>188.1142</ele>
        <time>2021-07-20T15:48:29Z</time>
      </trkpt>
      <trkpt lat="39.62982" lon="-0.59739">
        <ele>191.3589</ele>
        <time>2021-07-20T15:48:40Z</time>
      </trkpt>
      <trkpt lat="39.63052" lon="-0.59755">
        <ele>185.9012</ele>
        <time>2021-07-20T15:48:51Z</time>
      </trkpt>
      <trkpt lat="39.63142" lon="-0.59794">
        <ele>174.1332</ele>
        <time>2021-07-20T15:49:02Z</time>
      </trkpt>
      <trkpt lat="39.63203" lon="-0.59831">
        <ele>170.0825</ele>
        <time>2021-07-20T15:49:13Z</time>
      </trkpt>
      <trkpt lat="39.63245" lon="-0.59833">
        <ele>168.5307</ele>
        <time>2021-07-20T15:49:24Z</time>
      </trkpt>
      <trkpt lat="39.63347" lon="-0.59848">
        <ele>169.8027</ele>
        <time>2021-07-20T15:49:35Z</time>
      </trkpt>
      <trkpt lat="39.63567" lon="-0.59906">
        <ele>167.9898</ele>
        <time>2021-07-20T15:49:46Z</time>
      </trkpt>
      <trkpt lat="39.63743" lon="-0.59996">
        <ele>161.2245</ele>
        <time>2021-07-20T15:49:57Z</time>
      </trkpt>
      <trkpt lat="39.63844" lon="-0.60056">
        <ele>164.3024</ele>
        <time>2021-07-20T15:50:08Z</time>
      </trkpt>
      <trkpt lat="39.64008" lon="-0.60232">
        <ele>168.2656</ele>
        <time>2021-07-20T15:50:19Z</time>
      </trkpt>
      <trkpt lat="39.64106" lon="-0.60332">
        <ele>165.4872</ele>
        <time>2021-07-20T15:50:30Z</time>
      </trkpt>
      <trkpt lat="39.64225" lon="-0.6049">
        <ele>169.0211</ele>
        <time>2021-07-20T15:50:41Z</time>
      </trkpt>
      <trkpt lat="39.64378" lon="-0.60636">
        <ele>171.752</ele>
        <time>2021-07-20T15:50:52Z</time>
      </trkpt>
      <trkpt lat="39.64591" lon="-0.60697">
        <ele>172.2429</ele>
        <time>2021-07-20T15:51:03Z</time>
      </trkpt>
      <trkpt lat="39.64749" lon="-0.60795">
        <ele>175.8425</ele>
        <time>2021-07-20T15:51:14Z</time>
      </trkpt>
      <trkpt lat="39.64841" lon="-0.60868">
        <ele>178.0663</ele>
        <time>2021-07-20T15:51:25Z</time>
      </trkpt>
      <trkpt lat="39.64921" lon="-0.60921">
        <ele>176.705</ele>
        <time>2021-07-20T15:51:36Z</time>
      </trkpt>
      <trkpt lat="39.65005" lon="-0.60974">
        <ele>178.5251</ele>
        <time>2021-07-20T15:51:47Z</time>
      </trkpt>
      <trkpt lat="39.65198" lon="-0.61069">
        <ele>178.5827</ele>
        <time>2021-07-20T15:51:58Z</time>
      </trkpt>
      <trkpt lat="39.65416" lon="-0.61181">
        <ele>182.7802</ele>
        <time>2021-07-20T15:52:09Z</time>
      </trkpt>
      <trkpt lat="39.65626" lon="-0.6132">
        <ele>184.2782</ele>
        <time>2021-07-20T15:52:20Z</time>
      </trkpt>
      <trkpt lat="39.65778" lon="-0.61558">
        <ele>183.7991</ele>
        <time>2021-07-20T15:52:31Z</time>
      </trkpt>
      <trkpt lat="39.6591" lon="-0.61783">
        <ele>184.6183</ele>
        <time>2021-07-20T15:52:42Z</time>
      </trkpt>
      <trkpt lat="39.66082" lon="-0.61986">
        <ele>188.0704</ele>
        <time>2021-07-20T15:52:53Z</time>
      </trkpt>
      <trkpt lat="39.66272" lon="-0.62174">
        <ele>190.3336</ele>
        <time>2021-07-20T15:53:04Z</time>
      </trkpt>
      <trkpt lat="39.66453" lon="-0.62366">
        <ele>192.8331</ele>
        <time>2021-07-20T15:53:15Z</time>
      </trkpt>
      <trkpt lat="39.6664" lon="-0.62531">
        <ele>194.1868</ele>
        <time>2021-07-20T15:53:26Z</time>
      </trkpt>
      <trkpt lat="39.66825" lon="-0.62716">
        <ele>191.1103</ele>
        <time>2021-07-20T15:53:37Z</time>
      </trkpt>
      <trkpt lat="39.67003" lon="-0.62888">
        <ele>194.8352</ele>
        <time>2021-07-20T15:53:48Z</time>
      </trkpt>
      <trkpt lat="39.67215" lon="-0.63027">
        <ele>197.4569</ele>
        <time>2021-07-20T15:53:59Z</time>
      </trkpt>
      <trkpt lat="39.67416" lon="-0.63154">
        <ele>199.2942</ele>
        <time>2021-07-20T15:54:10Z</time>
      </trkpt>
      <trkpt lat="39.67657" lon="-0.63247">
        <ele>208.8498</ele>
        <time>2021-07-20T15:54:21Z</time>
      </trkpt>
      <trkpt lat="39.67905" lon="-0.63254">
        <ele>208.5958</ele>
        <time>2021-07-20T15:54:32Z</time>
      </trkpt>
      <trkpt lat="39.68091" lon="-0.63421">
        <ele>207.6391</ele>
        <time>2021-07-20T15:54:43Z</time>
      </trkpt>
      <trkpt lat="39.68319" lon="-0.63512">
        <ele>211.2907</ele>
        <time>2021-07-20T15:54:54Z</time>
      </trkpt>
      <trkpt lat="39.68534" lon="-0.63614">
        <ele>214.5539</ele>
        <time>2021-07-20T15:55:05Z</time>
      </trkpt>
      <trkpt lat="39.68709" lon="-0.63807">
        <ele>221.4889</ele>
        <time>2021-07-20T15:55:16Z</time>
      </trkpt>
      <trkpt lat="39.68866" lon="-0.64038">
        <ele>228.2131</ele>
        <time>2021-07-20T15:55:27Z</time>
      </trkpt>
      <trkpt lat="39.69021" lon="-0.64233">
        <ele>234.6362</ele>
        <time>2021-07-20T15:55:38Z</time>
      </trkpt>
      <trkpt lat="39.69209" lon="-0.64414">
        <ele>242.616</ele>
        <time>2021-07-20T15:55:49Z</time>
      </trkpt>
      <trkpt lat="39.69425" lon="-0.64591">
        <ele>246.409</ele>
        <time>2021-07-20T15:56:00Z</time>
      </trkpt>
      <trkpt lat="39.69655" lon="-0.64703">
        <ele>247.8057</ele>
        <time>2021-07-20T15:56:11Z</time>
      </trkpt>
      <trkpt lat="39.69848" lon="-0.649">
        <ele>250.4067</ele>
        <time>2021-07-20T15:56:22Z</time>
      </trkpt>
      <trkpt lat="39.70049" lon="-0.6507">
        <ele>253.736</ele>
        <time>2021-07-20T15:56:33Z</time>
      </trkpt>
      <trkpt lat="39.70271" lon="-0.65189">
        <ele>261.0703</ele>
        <time>2021-07-20T15:56:44Z</time>
      </trkpt>
      <trkpt lat="39.70473" lon="-0.65334">
        <ele>269.4087</ele>
        <time>2021-07-20T15:56:55Z</time>
      </trkpt>
      <trkpt lat="39.7066" lon="-0.6549">
        <ele>276.2555</ele>
        <time>2021-07-20T15:57:06Z</time>
      </trkpt>
      <trkpt lat="39.70826" lon="-0.65691">
        <ele>286.202</ele>
        <time>2021-07-20T15:57:17Z</time>
      </trkpt>
      <trkpt lat="39.71019" lon="-0.65839">
        <ele>296.6638</ele>
        <time>2021-07-20T15:57:28Z</time>
      </trkpt>
      <trkpt lat="39.71202" lon="-0.65971">
        <ele>302.7791</ele>
        <time>2021-07-20T15:57:39Z</time>
      </trkpt>
      <trkpt lat="39.71412" lon="-0.66117">
        <ele>310.3262</ele>
        <time>2021-07-20T15:57:50Z</time>
      </trkpt>
      <trkpt lat="39.71596" lon="-0.66346">
        <ele>317.6673</ele>
        <time>2021-07-20T15:58:01Z</time>
      </trkpt>
      <trkpt lat="39.71779" lon="-0.66506">
        <ele>322.8883</ele>
        <time>2021-07-20T15:58:12Z</time>
      </trkpt>
      <trkpt lat="39.72001" lon="-0.66593">
        <ele>329.7467</ele>
        <time>2021-07-20T15:58:23Z</time>
      </trkpt>
      <trkpt lat="39.72226" lon="-0.66677">
        <ele>336.1959</ele>
        <time>2021-07-20T15:58:34Z</time>
      </trkpt>
      <trkpt lat="39.72442" lon="-0.66844">
        <ele>344.7415</ele>
        <time>2021-07-20T15:58:45Z</time>
      </trkpt>
      <trkpt lat="39.72651" lon="-0.67024">
        <ele>355.8156</ele>
        <time>2021-07-20T15:58:56Z</time>
      </trkpt>
      <trkpt lat="39.72857" lon="-0.67188">
        <ele>362.8586</ele>
        <time>2021-07-20T15:59:07Z</time>
      </trkpt>
      <trkpt lat="39.73032" lon="-0.67357">
        <ele>369.0761</ele>
        <time>2021-07-20T15:59:18Z</time>
      </trkpt>
      <trkpt lat="39.73139" lon="-0.67573">
        <ele>375.0782</ele>
        <time>2021-07-20T15:59:29Z</time>
      </trkpt>
      <trkpt lat="39.73333" lon="-0.67611">
        <ele>382.4238</ele>
        <time>2021-07-20T15:59:40Z</time>
      </trkpt>
      <trkpt lat="39.73529" lon="-0.67645">
        <ele>389.2068</ele>
        <time>2021-07-20T15:59:51Z</time>
      </trkpt>
      <trkpt lat="39.73752" lon="-0.67681">
        <ele>398.0668</ele>
        <time>2021-07-20T16:00:02Z</time>
      </trkpt>
      <trkpt lat="39.73932" lon="-0.67822">
        <ele>404.62</ele>
        <time>2021-07-20T16:00:13Z</time>
      </trkpt>
      <trkpt lat="39.74109" lon="-0.67952">
        <ele>412.5974</ele>
        <time>2021-07-20T16:00:24Z</time>
      </trkpt>
      <trkpt lat="39.74296" lon="-0.68071">
        <ele>422.1475</ele>
        <time>2021-07-20T16:00:35Z</time>
      </trkpt>
      <trkpt lat="39.74444" lon="-0.68282">
        <ele>432.5369</ele>
        <time>2021-07-20T16:00:46Z</time>
      </trkpt>
      <trkpt lat="39.74658" lon="-0.68365">
        <ele>445.0548</ele>
        <time>2021-07-20T16:00:57Z</time>
      </trkpt>
      <trkpt lat="39.74849" lon="-0.68464">
        <ele>458.9569</ele>
        <time>2021-07-20T16:01:08Z</time>
      </trkpt>
      <trkpt lat="39.75006" lon="-0.68536">
        <ele>464.9847</ele>
        <time>2021-07-20T16:01:19Z</time>
      </trkpt>
      <trkpt lat="39.75051" lon="-0.68659">
        <ele>468.741</ele>
        <time>2021-07-20T16:01:30Z</time>
      </trkpt>
      <trkpt lat="39.75061" lon="-0.68891">
        <ele>471.8671</ele>
        <time>2021-07-20T16:01:41Z</time>
      </trkpt>
      <trkpt lat="39.75043" lon="-0.69129">
        <ele>471.2006</ele>
        <time>2021-07-20T16:01:52Z</time>
      </trkpt>
      <trkpt lat="39.74953" lon="-0.69355">
        <ele>470.8273</ele>
        <time>2021-07-20T16:02:03Z</time>
      </trkpt>
      <trkpt lat="39.74872" lon="-0.69586">
        <ele>484.7872</ele>
        <time>2021-07-20T16:02:14Z</time>
      </trkpt>
      <trkpt lat="39.74831" lon="-0.6989">
        <ele>499.9798</ele>
        <time>2021-07-20T16:02:25Z</time>
      </trkpt>
      <trkpt lat="39.74847" lon="-0.7013">
        <ele>515.8093</ele>
        <time>2021-07-20T16:02:36Z</time>
      </trkpt>
      <trkpt lat="39.74931" lon="-0.70344">
        <ele>537.6439</ele>
        <time>2021-07-20T16:02:47Z</time>
      </trkpt>
      <trkpt lat="39.74852" lon="-0.70526">
        <ele>551.0479</ele>
        <time>2021-07-20T16:02:58Z</time>
      </trkpt>
      <trkpt lat="39.75024" lon="-0.70513">
        <ele>574.1501</ele>
        <time>2021-07-20T16:03:09Z</time>
      </trkpt>
      <trkpt lat="39.75076" lon="-0.70452">
        <ele>577.5359</ele>
        <time>2021-07-20T16:03:20Z</time>
      </trkpt>
      <trkpt lat="39.75135" lon="-0.7032">
        <ele>590.0326</ele>
        <time>2021-07-20T16:03:31Z</time>
      </trkpt>
      <trkpt lat="39.75222" lon="-0.70135">
        <ele>598.2657</ele>
        <time>2021-07-20T16:03:42Z</time>
      </trkpt>
      <trkpt lat="39.75341" lon="-0.7019">
        <ele>618.5252</ele>
        <time>2021-07-20T16:03:53Z</time>
      </trkpt>
      <trkpt lat="39.75482" lon="-0.70283">
        <ele>636.4696</ele>
        <time>2021-07-20T16:04:04Z</time>
      </trkpt>
      <trkpt lat="39.75672" lon="-0.7026">
        <ele>643.3659</ele>
        <time>2021-07-20T16:04:15Z</time>
      </trkpt>
      <trkpt lat="39.75819" lon="-0.70069">
        <ele>652.4024</ele>
        <time>2021-07-20T16:04:26Z</time>
      </trkpt>
      <trkpt lat="39.75971" lon="-0.69969">
        <ele>659.647</ele>
        <time>2021-07-20T16:04:37Z</time>
      </trkpt>
      <trkpt lat="39.75979" lon="-0.69727">
        <ele>673.999</ele>
        <time>2021-07-20T16:04:48Z</time>
      </trkpt>
      <trkpt lat="39.76155" lon="-0.69626">
        <ele>684.4838</ele>
        <time>2021-07-20T16:04:59Z</time>
      </trkpt>
      <trkpt lat="39.76212" lon="-0.69872">
        <ele>695.6144</ele>
        <time>2021-07-20T16:05:10Z</time>
      </trkpt>
      <trkpt lat="39.76357" lon="-0.69912">
        <ele>703.8564</ele>
        <time>2021-07-20T16:05:21Z</time>
      </trkpt>
      <trkpt lat="39.76448" lon="-0.70103">
        <ele>711.5517</ele>
        <time>2021-07-20T16:05:32Z</time>
      </trkpt>
      <trkpt lat="39.76599" lon="-0.70042">
        <ele>718.1957</ele>
        <time>2021-07-20T16:05:43Z</time>
      </trkpt>
      <trkpt lat="39.76827" lon="-0.70104">
        <ele>720.1578</ele>
        <time>2021-07-20T16:05:54Z</time>
      </trkpt>
      <trkpt lat="39.77018" lon="-0.70035">
        <ele>729.6795</ele>
        <time>2021-07-20T16:06:05Z</time>
      </trkpt>
      <trkpt lat="39.77208" lon="-0.70086">
        <ele>733.341</ele>
        <time>2021-07-20T16:06:16Z</time>
      </trkpt>
      <trkpt lat="39.77352" lon="-0.69973">
        <ele>745.1072</ele>
        <time>2021-07-20T16:06:27Z</time>
      </trkpt>
      <trkpt lat="39.77554" lon="-0.69992">
        <ele>749.243</ele>
        <time>2021-07-20T16:06:38Z</time>
      </trkpt>
      <trkpt lat="39.77778" lon="-0.7009">
        <ele>744.0335</ele>
        <time>2021-07-20T16:06:49Z</time>
      </trkpt>
      <trkpt lat="39.78014" lon="-0.70115">
        <ele>738.6133</ele>
        <time>2021-07-20T16:07:00Z</time>
      </trkpt>
      <trkpt lat="39.78275" lon="-0.7017">
        <ele>735.7401</ele>
        <time>2021-07-20T16:07:11Z</time>
      </trkpt>
      <trkpt lat="39.78531" lon="-0.70157">
        <ele>733.0277</ele>
        <time>2021-07-20T16:07:22Z</time>
      </trkpt>
      <trkpt lat="39.78788" lon="-0.70124">
        <ele>733.934</ele>
        <time>2021-07-20T16:07:33Z</time>
      </trkpt>
      <trkpt lat="39.79072" lon="-0.70117">
        <ele>740.447</ele>
        <time>2021-07-20T16:07:44Z</time>
      </trkpt>
      <trkpt lat="39.79306" lon="-0.70125">
        <ele>748.3925</ele>
        <time>2021-07-20T16:07:55Z</time>
      </trkpt>
      <trkpt lat="39.7945" lon="-0.70142">
        <ele>756.7996</ele>
        <time>2021-07-20T16:08:07Z</time>
      </trkpt>
      <trkpt lat="39.79552" lon="-0.70166">
        <ele>767.8353</ele>
        <time>2021-07-20T16:08:18Z</time>
      </trkpt>
      <trkpt lat="39.79621" lon="-0.7017">
        <ele>782.6123</ele>
        <time>2021-07-20T16:08:29Z</time>
      </trkpt>
      <trkpt lat="39.79676" lon="-0.70136">
        <ele>801.1588</ele>
        <time>2021-07-20T16:08:40Z</time>
      </trkpt>
      <trkpt lat="39.79736" lon="-0.70113">
        <ele>783.0631</ele>
        <time>2021-07-20T16:08:51Z</time>
      </trkpt>
      <trkpt lat="39.79749" lon="-0.69984">
        <ele>771.9459</ele>
        <time>2021-07-20T16:09:02Z</time>
      </trkpt>
      <trkpt lat="39.79794" lon="-0.69886">
        <ele>760.6761</ele>
        <time>2021-07-20T16:09:13Z</time>
      </trkpt>
      <trkpt lat="39.79835" lon="-0.69888">
        <ele>764.2214</ele>
        <time>2021-07-20T16:09:24Z</time>
      </trkpt>
      <trkpt lat="39.7979" lon="-0.69822">
        <ele>768.1724</ele>
        <time>2021-07-20T16:09:35Z</time>
      </trkpt>
      <trkpt lat="39.79737" lon="-0.69797">
        <ele>774.7124</ele>
        <time>2021-07-20T16:09:46Z</time>
      </trkpt>
      <trkpt lat="39.79748" lon="-0.69818">
        <ele>766.4313</ele>
        <time>2021-07-20T16:09:57Z</time>
      </trkpt>
      <trkpt lat="39.79821" lon="-0.69835">
        <ele>759.6085</ele>
        <time>2021-07-20T16:10:08Z</time>
      </trkpt>
      <trkpt lat="39.79843" lon="-0.69892">
        <ele>758.1242</ele>
        <time>2021-07-20T16:10:19Z</time>
      </trkpt>
      <trkpt lat="39.79914" lon="-0.69862">
        <ele>769.0903</ele>
        <time>2021-07-20T16:10:30Z</time>
      </trkpt>
      <trkpt lat="39.80045" lon="-0.69785">
        <ele>775.5621</ele>
        <time>2021-07-20T16:10:41Z</time>
      </trkpt>
      <trkpt lat="39.80158" lon="-0.69642">
        <ele>779.1696</ele>
        <time>2021-07-20T16:10:52Z</time>
      </trkpt>
      <trkpt lat="39.80272" lon="-0.69531">
        <ele>793.0036</ele>
        <time>2021-07-20T16:11:03Z</time>
      </trkpt>
      <trkpt lat="39.80337" lon="-0.69464">
        <ele>797.6879</ele>
        <time>2021-07-20T16:11:14Z</time>
      </trkpt>
      <trkpt lat="39.80453" lon="-0.69284">
        <ele>802.2696</ele>
        <time>2021-07-20T16:11:25Z</time>
      </trkpt>
      <trkpt lat="39.80524" lon="-0.69052">
        <ele>813.6244</ele>
        <time>2021-07-20T16:11:36Z</time>
      </trkpt>
      <trkpt lat="39.80655" lon="-0.68807">
        <ele>816.9729</ele>
        <time>2021-07-20T16:11:47Z</time>
      </trkpt>
      <trkpt lat="39.80819" lon="-0.68577">
        <ele>827.0876</ele>
        <time>2021-07-20T16:11:58Z</time>
      </trkpt>
      <trkpt lat="39.80937" lon="-0.68387">
        <ele>830.8017</ele>
        <time>2021-07-20T16:12:09Z</time>
      </trkpt>
      <trkpt lat="39.81033" lon="-0.68336">
        <ele>833.1674</ele>
        <time>2021-07-20T16:12:20Z</time>
      </trkpt>
      <trkpt lat="39.81216" lon="-0.68257">
        <ele>836.527</ele>
        <time>2021-07-20T16:12:31Z</time>
      </trkpt>
      <trkpt lat="39.81474" lon="-0.68161">
        <ele>840.7765</ele>
        <time>2021-07-20T16:12:42Z</time>
      </trkpt>
      <trkpt lat="39.81728" lon="-0.68126">
        <ele>845.3963</ele>
        <time>2021-07-20T16:12:53Z</time>
      </trkpt>
      <trkpt lat="39.81954" lon="-0.68154">
        <ele>850.3041</ele>
        <time>2021-07-20T16:13:04Z</time>
      </trkpt>
      <trkpt lat="39.82129" lon="-0.68288">
        <ele>855.5551</ele>
        <time>2021-07-20T16:13:15Z</time>
      </trkpt>
      <trkpt lat="39.82339" lon="-0.68445">
        <ele>862.917</ele>
        <time>2021-07-20T16:13:26Z</time>
      </trkpt>
      <trkpt lat="39.82571" lon="-0.68619">
        <ele>874.9743</ele>
        <time>2021-07-20T16:13:37Z</time>
      </trkpt>
      <trkpt lat="39.82782" lon="-0.68777">
        <ele>891.3195</ele>
        <time>2021-07-20T16:13:48Z</time>
      </trkpt>
      <trkpt lat="39.82992" lon="-0.68905">
        <ele>904.6451</ele>
        <time>2021-07-20T16:13:59Z</time>
      </trkpt>
      <trkpt lat="39.83178" lon="-0.69058">
        <ele>920.5917</ele>
        <time>2021-07-20T16:14:10Z</time>
      </trkpt>
      <trkpt lat="39.8331" lon="-0.69138">
        <ele>927.6473</ele>
        <time>2021-07-20T16:14:21Z</time>
      </trkpt>
      <trkpt lat="39.83451" lon="-0.69196">
        <ele>936.6056</ele>
        <time>2021-07-20T16:14:32Z</time>
      </trkpt>
      <trkpt lat="39.83654" lon="-0.69232">
        <ele>939.8407</ele>
        <time>2021-07-20T16:14:43Z</time>
      </trkpt>
      <trkpt lat="39.8377" lon="-0.69129">
        <ele>951.3467</ele>
        <time>2021-07-20T16:14:54Z</time>
      </trkpt>
      <trkpt lat="39.83821" lon="-0.69142">
        <ele>958.1301</ele>
        <time>2021-07-20T16:15:05Z</time>
      </trkpt>
      <trkpt lat="39.83935" lon="-0.69307">
        <ele>977.3974</ele>
        <time>2021-07-20T16:15:16Z</time>
      </trkpt>
      <trkpt lat="39.84082" lon="-0.69449">
        <ele>979.3251</ele>
        <time>2021-07-20T16:15:27Z</time>
      </trkpt>
      <trkpt lat="39.84231" lon="-0.69647">
        <ele>972.2229</ele>
        <time>2021-07-20T16:15:38Z</time>
      </trkpt>
      <trkpt lat="39.84314" lon="-0.69951">
        <ele>975.4501</ele>
        <time>2021-07-20T16:15:49Z</time>
      </trkpt>
      <trkpt lat="39.8446" lon="-0.70141">
        <ele>988.3677</ele>
        <time>2021-07-20T16:16:00Z</time>
      </trkpt>
      <trkpt lat="39.84598" lon="-0.70258">
        <ele>985.9646</ele>
        <time>2021-07-20T16:16:11Z</time>
      </trkpt>
      <trkpt lat="39.84749" lon="-0.70408">
        <ele>996.5436</ele>
        <time>2021-07-20T16:16:22Z</time>
      </trkpt>
      <trkpt lat="39.84845" lon="-0.70622">
        <ele>996.7485</ele>
        <time>2021-07-20T16:16:33Z</time>
      </trkpt>
      <trkpt lat="39.84996" lon="-0.70785">
        <ele>981.6472</ele>
        <time>2021-07-20T16:16:44Z</time>
      </trkpt>
      <trkpt lat="39.85041" lon="-0.70962">
        <ele>973.8056</ele>
        <time>2021-07-20T16:16:55Z</time>
      </trkpt>
      <trkpt lat="39.85217" lon="-0.71127">
        <ele>987.3075</ele>
        <time>2021-07-20T16:17:06Z</time>
      </trkpt>
      <trkpt lat="39.85392" lon="-0.71305">
        <ele>992.0979</ele>
        <time>2021-07-20T16:17:17Z</time>
      </trkpt>
      <trkpt lat="39.85372" lon="-0.71509">
        <ele>997.9625</ele>
        <time>2021-07-20T16:17:28Z</time>
      </trkpt>
      <trkpt lat="39.85399" lon="-0.71683">
        <ele>993.7025</ele>
        <time>2021-07-20T16:17:39Z</time>
      </trkpt>
      <trkpt lat="39.85563" lon="-0.71655">
        <ele>996.0567</ele>
        <time>2021-07-20T16:17:50Z</time>
      </trkpt>
      <trkpt lat="39.85683" lon="-0.71698">
        <ele>992.5302</ele>
        <time>2021-07-20T16:18:01Z</time>
      </trkpt>
      <trkpt lat="39.85713" lon="-0.71543">
        <ele>1002.589</ele>
        <time>2021-07-20T16:18:12Z</time>
      </trkpt>
      <trkpt lat="39.85809" lon="-0.71453">
        <ele>1010.405</ele>
        <time>2021-07-20T16:18:23Z</time>
      </trkpt>
      <trkpt lat="39.85941" lon="-0.71389">
        <ele>1011.333</ele>
        <time>2021-07-20T16:18:34Z</time>
      </trkpt>
      <trkpt lat="39.86072" lon="-0.71317">
        <ele>1003.16</ele>
        <time>2021-07-20T16:18:45Z</time>
      </trkpt>
      <trkpt lat="39.86211" lon="-0.71463">
        <ele>987.29</ele>
        <time>2021-07-20T16:18:56Z</time>
      </trkpt>
      <trkpt lat="39.86265" lon="-0.7142">
        <ele>979.6436</ele>
        <time>2021-07-20T16:19:07Z</time>
      </trkpt>
      <trkpt lat="39.86381" lon="-0.71272">
        <ele>962.1364</ele>
        <time>2021-07-20T16:19:18Z</time>
      </trkpt>
      <trkpt lat="39.86552" lon="-0.71181">
        <ele>944.4603</ele>
        <time>2021-07-20T16:19:29Z</time>
      </trkpt>
      <trkpt lat="39.86757" lon="-0.71129">
        <ele>933.6973</ele>
        <time>2021-07-20T16:19:40Z</time>
      </trkpt>
      <trkpt lat="39.86919" lon="-0.71149">
        <ele>924.7916</ele>
        <time>2021-07-20T16:19:51Z</time>
      </trkpt>
      <trkpt lat="39.86938" lon="-0.71013">
        <ele>916.7699</ele>
        <time>2021-07-20T16:20:02Z</time>
      </trkpt>
      <trkpt lat="39.87038" lon="-0.70865">
        <ele>916.2144</ele>
        <time>2021-07-20T16:20:13Z</time>
      </trkpt>
      <trkpt lat="39.87174" lon="-0.70847">
        <ele>909.3907</ele>
        <time>2021-07-20T16:20:24Z</time>
      </trkpt>
      <trkpt lat="39.87261" lon="-0.70774">
        <ele>904.322</ele>
        <time>2021-07-20T16:20:35Z</time>
      </trkpt>
      <trkpt lat="39.87382" lon="-0.70857">
        <ele>893.663</ele>
        <time>2021-07-20T16:20:46Z</time>
      </trkpt>
      <trkpt lat="39.87506" lon="-0.7097">
        <ele>880.1123</ele>
        <time>2021-07-20T16:20:57Z</time>
      </trkpt>
      <trkpt lat="39.87564" lon="-0.71059">
        <ele>879.4637</ele>
        <time>2021-07-20T16:21:08Z</time>
      </trkpt>
      <trkpt lat="39.87659" lon="-0.70928">
        <ele>889.832</ele>
        <time>2021-07-20T16:21:19Z</time>
      </trkpt>
      <trkpt lat="39.87778" lon="-0.70799">
        <ele>896.6812</ele>
        <time>2021-07-20T16:21:30Z</time>
      </trkpt>
      <trkpt lat="39.87875" lon="-0.70919">
        <ele>894.5214</ele>
        <time>2021-07-20T16:21:41Z</time>
      </trkpt>
      <trkpt lat="39.88006" lon="-0.71063">
        <ele>884.6528</ele>
        <time>2021-07-20T16:21:52Z</time>
      </trkpt>
      <trkpt lat="39.8806" lon="-0.71288">
        <ele>885.1955</ele>
        <time>2021-07-20T16:22:03Z</time>
      </trkpt>
      <trkpt lat="39.88188" lon="-0.71367">
        <ele>888.2002</ele>
        <time>2021-07-20T16:22:14Z</time>
      </trkpt>
      <trkpt lat="39.8837" lon="-0.71306">
        <ele>887.5521</ele>
        <time>2021-07-20T16:22:25Z</time>
      </trkpt>
      <trkpt lat="39.88436" lon="-0.71137">
        <ele>885.6533</ele>
        <time>2021-07-20T16:22:36Z</time>
      </trkpt>
      <trkpt lat="39.88598" lon="-0.71137">
        <ele>885.5685</ele>
        <time>2021-07-20T16:22:47Z</time>
      </trkpt>
      <trkpt lat="39.8877" lon="-0.71096">
        <ele>879.3693</ele>
        <time>2021-07-20T16:22:58Z</time>
      </trkpt>
      <trkpt lat="39.88948" lon="-0.71241">
        <ele>866.2003</ele>
        <time>2021-07-20T16:23:09Z</time>
      </trkpt>
      <trkpt lat="39.89148" lon="-0.71331">
        <ele>849.8058</ele>
        <time>2021-07-20T16:23:20Z</time>
      </trkpt>
      <trkpt lat="39.89285" lon="-0.71306">
        <ele>832.8592</ele>
        <time>2021-07-20T16:23:31Z</time>
      </trkpt>
      <trkpt lat="39.89468" lon="-0.71307">
        <ele>815.8965</ele>
        <time>2021-07-20T16:23:42Z</time>
      </trkpt>
      <trkpt lat="39.89627" lon="-0.71155">
        <ele>792.2536</ele>
        <time>2021-07-20T16:23:53Z</time>
      </trkpt>
      <trkpt lat="39.89672" lon="-0.71032">
        <ele>766.2472</ele>
        <time>2021-07-20T16:24:04Z</time>
      </trkpt>
      <trkpt lat="39.89676" lon="-0.71024">
        <ele>770.4559</ele>
        <time>2021-07-20T16:24:15Z</time>
      </trkpt>
      <trkpt lat="39.89676" lon="-0.71023">
        <ele>772.5184</ele>
        <time>2021-07-20T16:25:15Z</time>
      </trkpt>
      <trkpt lat="39.89676" lon="-0.71022">
        <ele>783.8761</ele>
        <time>2021-07-20T16:26:14Z</time>
      </trkpt>
      <trkpt lat="39.89678" lon="-0.71022">
        <ele>780.728</ele>
        <time>2021-07-20T16:27:14Z</time>
      </trkpt>
      <trkpt lat="39.89677" lon="-0.71021">
        <ele>785.5153</ele>
        <time>2021-07-20T16:28:13Z</time>
      </trkpt>
      <trkpt lat="39.89677" lon="-0.71021">
        <ele>784.8342</ele>
        <time>2021-07-20T16:29:12Z</time>
      </trkpt>
      <trkpt lat="39.89677" lon="-0.71021">
        <ele>785.7648</ele>
        <time>2021-07-20T16:30:11Z</time>
      </trkpt>
      <trkpt lat="39.89676" lon="-0.71022">
        <ele>782.3807</ele>
        <time>2021-07-20T16:31:09Z</time>
      </trkpt>
      <trkpt lat="39.89676" lon="-0.71022">
        <ele>781.3204</ele>
        <time>2021-07-20T16:32:08Z</time>
      </trkpt>
      <trkpt lat="39.89676" lon="-0.71022">
        <ele>782.3477</ele>
        <time>2021-07-20T16:33:07Z</time>
      </trkpt>
      <trkpt lat="39.89676" lon="-0.71024">
        <ele>783.3437</ele>
        <time>2021-07-20T16:34:06Z</time>
      </trkpt>
      <trkpt lat="39.89676" lon="-0.71023">
        <ele>787.216</ele>
        <time>2021-07-20T16:35:05Z</time>
      </trkpt>
      <trkpt lat="39.89677" lon="-0.71021">
        <ele>790.7906</ele>
        <time>2021-07-20T16:36:04Z</time>
      </trkpt>
      <trkpt lat="39.89676" lon="-0.71024">
        <ele>785.2039</ele>
        <time>2021-07-20T16:37:02Z</time>
      </trkpt>
      <trkpt lat="39.89677" lon="-0.71021">
        <ele>789.4506</ele>
        <time>2021-07-20T16:38:00Z</time>
      </trkpt>
      <trkpt lat="39.89675" lon="-0.71026">
        <ele>788.0959</ele>
        <time>2021-07-20T16:38:53Z</time>
      </trkpt>
      <trkpt lat="39.89677" lon="-0.71021">
        <ele>787.3045</ele>
        <time>2021-07-20T16:39:42Z</time>
      </trkpt>
      <trkpt lat="39.89688" lon="-0.71026">
        <ele>788.4798</ele>
        <time>2021-07-20T16:40:01Z</time>
      </trkpt>
      <trkpt lat="39.89688" lon="-0.71029">
        <ele>782.8475</ele>
        <time>2021-07-20T16:41:00Z</time>
      </trkpt>
      <trkpt lat="39.89688" lon="-0.71029">
        <ele>783.8296</ele>
        <time>2021-07-20T16:42:00Z</time>
      </trkpt>
      <trkpt lat="39.89688" lon="-0.71024">
        <ele>783.9144</ele>
        <time>2021-07-20T16:42:39Z</time>
      </trkpt>
      <trkpt lat="39.89701" lon="-0.70978">
        <ele>783.0536</ele>
        <time>2021-07-20T16:42:50Z</time>
      </trkpt>
      <trkpt lat="39.89798" lon="-0.70797">
        <ele>766.4245</ele>
        <time>2021-07-20T16:43:01Z</time>
      </trkpt>
      <trkpt lat="39.89854" lon="-0.70659">
        <ele>752.3755</ele>
        <time>2021-07-20T16:43:12Z</time>
      </trkpt>
      <trkpt lat="39.9005" lon="-0.7057">
        <ele>733.1754</ele>
        <time>2021-07-20T16:43:23Z</time>
      </trkpt>
      <trkpt lat="39.90112" lon="-0.70411">
        <ele>714.4392</ele>
        <time>2021-07-20T16:43:34Z</time>
      </trkpt>
      <trkpt lat="39.9026" lon="-0.70454">
        <ele>692.4586</ele>
        <time>2021-07-20T16:43:45Z</time>
      </trkpt>
      <trkpt lat="39.90313" lon="-0.70275">
        <ele>685.2462</ele>
        <time>2021-07-20T16:43:56Z</time>
      </trkpt>
      <trkpt lat="39.90396" lon="-0.70112">
        <ele>684.3092</ele>
        <time>2021-07-20T16:44:07Z</time>
      </trkpt>
      <trkpt lat="39.90475" lon="-0.70101">
        <ele>689.4823</ele>
        <time>2021-07-20T16:44:18Z</time>
      </trkpt>
      <trkpt lat="39.90581" lon="-0.70139">
        <ele>695.4118</ele>
        <time>2021-07-20T16:44:29Z</time>
      </trkpt>
      <trkpt lat="39.90495" lon="-0.70211">
        <ele>704.537</ele>
        <time>2021-07-20T16:44:40Z</time>
      </trkpt>
      <trkpt lat="39.905" lon="-0.7043">
        <ele>713.5216</ele>
        <time>2021-07-20T16:44:51Z</time>
      </trkpt>
      <trkpt lat="39.90596" lon="-0.70497">
        <ele>720.6924</ele>
        <time>2021-07-20T16:45:02Z</time>
      </trkpt>
      <trkpt lat="39.90571" lon="-0.70349">
        <ele>726.1623</ele>
        <time>2021-07-20T16:45:13Z</time>
      </trkpt>
      <trkpt lat="39.90712" lon="-0.70302">
        <ele>735.9321</ele>
        <time>2021-07-20T16:45:24Z</time>
      </trkpt>
      <trkpt lat="39.90687" lon="-0.70347">
        <ele>742.9448</ele>
        <time>2021-07-20T16:45:35Z</time>
      </trkpt>
      <trkpt lat="39.9072" lon="-0.70372">
        <ele>751.6759</ele>
        <time>2021-07-20T16:45:46Z</time>
      </trkpt>
      <trkpt lat="39.90879" lon="-0.70323">
        <ele>756.5989</ele>
        <time>2021-07-20T16:45:57Z</time>
      </trkpt>
      <trkpt lat="39.91029" lon="-0.70316">
        <ele>763.9498</ele>
        <time>2021-07-20T16:46:08Z</time>
      </trkpt>
      <trkpt lat="39.9111" lon="-0.70348">
        <ele>768.8336</ele>
        <time>2021-07-20T16:46:19Z</time>
      </trkpt>
      <trkpt lat="39.91151" lon="-0.70292">
        <ele>762.0917</ele>
        <time>2021-07-20T16:46:30Z</time>
      </trkpt>
      <trkpt lat="39.91141" lon="-0.70463">
        <ele>751.0854</ele>
        <time>2021-07-20T16:46:41Z</time>
      </trkpt>
      <trkpt lat="39.91124" lon="-0.70592">
        <ele>747.2456</ele>
        <time>2021-07-20T16:46:52Z</time>
      </trkpt>
      <trkpt lat="39.91142" lon="-0.70532">
        <ele>745.5959</ele>
        <time>2021-07-20T16:47:03Z</time>
      </trkpt>
      <trkpt lat="39.91211" lon="-0.70315">
        <ele>757.9527</ele>
        <time>2021-07-20T16:47:14Z</time>
      </trkpt>
      <trkpt lat="39.91132" lon="-0.70253">
        <ele>761.6267</ele>
        <time>2021-07-20T16:47:25Z</time>
      </trkpt>
      <trkpt lat="39.91133" lon="-0.70248">
        <ele>760.5302</ele>
        <time>2021-07-20T16:47:36Z</time>
      </trkpt>
      <trkpt lat="39.91139" lon="-0.70248">
        <ele>761.1149</ele>
        <time>2021-07-20T16:47:47Z</time>
      </trkpt>
      <trkpt lat="39.91135" lon="-0.70248">
        <ele>763.4104</ele>
        <time>2021-07-20T16:48:06Z</time>
      </trkpt>
      <trkpt lat="39.91132" lon="-0.70247">
        <ele>762.3291</ele>
        <time>2021-07-20T16:48:54Z</time>
      </trkpt>
      <trkpt lat="39.91164" lon="-0.70318">
        <ele>757.1516</ele>
        <time>2021-07-20T16:49:05Z</time>
      </trkpt>
      <trkpt lat="39.91133" lon="-0.70519">
        <ele>746.8875</ele>
        <time>2021-07-20T16:49:16Z</time>
      </trkpt>
      <trkpt lat="39.9114" lon="-0.70592">
        <ele>740.935</ele>
        <time>2021-07-20T16:49:27Z</time>
      </trkpt>
      <trkpt lat="39.91141" lon="-0.7059">
        <ele>740.9781</ele>
        <time>2021-07-20T16:50:26Z</time>
      </trkpt>
      <trkpt lat="39.91141" lon="-0.70592">
        <ele>741.1266</ele>
        <time>2021-07-20T16:51:25Z</time>
      </trkpt>
      <trkpt lat="39.9114" lon="-0.70591">
        <ele>741.3896</ele>
        <time>2021-07-20T16:52:25Z</time>
      </trkpt>
      <trkpt lat="39.9114" lon="-0.70591">
        <ele>741.2453</ele>
        <time>2021-07-20T16:53:24Z</time>
      </trkpt>
      <trkpt lat="39.9114" lon="-0.70601">
        <ele>740.2668</ele>
        <time>2021-07-20T16:53:43Z</time>
      </trkpt>
      <trkpt lat="39.91136" lon="-0.70802">
        <ele>730.4534</ele>
        <time>2021-07-20T16:53:54Z</time>
      </trkpt>
      <trkpt lat="39.91148" lon="-0.71056">
        <ele>721.6855</ele>
        <time>2021-07-20T16:54:05Z</time>
      </trkpt>
      <trkpt lat="39.91286" lon="-0.71148">
        <ele>705.8638</ele>
        <time>2021-07-20T16:54:16Z</time>
      </trkpt>
      <trkpt lat="39.91316" lon="-0.70946">
        <ele>717.5767</ele>
        <time>2021-07-20T16:54:27Z</time>
      </trkpt>
      <trkpt lat="39.91428" lon="-0.70729">
        <ele>719.8117</ele>
        <time>2021-07-20T16:54:38Z</time>
      </trkpt>
      <trkpt lat="39.91518" lon="-0.7054">
        <ele>737.2866</ele>
        <time>2021-07-20T16:54:49Z</time>
      </trkpt>
      <trkpt lat="39.91523" lon="-0.70267">
        <ele>746.0665</ele>
        <time>2021-07-20T16:55:00Z</time>
      </trkpt>
      <trkpt lat="39.91598" lon="-0.70061">
        <ele>758.6207</ele>
        <time>2021-07-20T16:55:11Z</time>
      </trkpt>
      <trkpt lat="39.91475" lon="-0.69883">
        <ele>774.7943</ele>
        <time>2021-07-20T16:55:22Z</time>
      </trkpt>
      <trkpt lat="39.91458" lon="-0.69684">
        <ele>779.8039</ele>
        <time>2021-07-20T16:55:33Z</time>
      </trkpt>
      <trkpt lat="39.91637" lon="-0.6981">
        <ele>792.6773</ele>
        <time>2021-07-20T16:55:44Z</time>
      </trkpt>
      <trkpt lat="39.91842" lon="-0.69795">
        <ele>808.9551</ele>
        <time>2021-07-20T16:55:55Z</time>
      </trkpt>
      <trkpt lat="39.91989" lon="-0.69792">
        <ele>819.9852</ele>
        <time>2021-07-20T16:56:06Z</time>
      </trkpt>
      <trkpt lat="39.92039" lon="-0.69849">
        <ele>827.4459</ele>
        <time>2021-07-20T16:56:17Z</time>
      </trkpt>
      <trkpt lat="39.92099" lon="-0.70002">
        <ele>839.6677</ele>
        <time>2021-07-20T16:56:28Z</time>
      </trkpt>
      <trkpt lat="39.92221" lon="-0.69984">
        <ele>849.0863</ele>
        <time>2021-07-20T16:56:39Z</time>
      </trkpt>
      <trkpt lat="39.9234" lon="-0.69782">
        <ele>851.8586</ele>
        <time>2021-07-20T16:56:50Z</time>
      </trkpt>
      <trkpt lat="39.92529" lon="-0.69696">
        <ele>862.2388</ele>
        <time>2021-07-20T16:57:01Z</time>
      </trkpt>
      <trkpt lat="39.92716" lon="-0.69578">
        <ele>869.3663</ele>
        <time>2021-07-20T16:57:12Z</time>
      </trkpt>
      <trkpt lat="39.9289" lon="-0.69495">
        <ele>876.4211</ele>
        <time>2021-07-20T16:57:23Z</time>
      </trkpt>
      <trkpt lat="39.93064" lon="-0.69369">
        <ele>881.0988</ele>
        <time>2021-07-20T16:57:34Z</time>
      </trkpt>
      <trkpt lat="39.93269" lon="-0.69227">
        <ele>887.4854</ele>
        <time>2021-07-20T16:57:45Z</time>
      </trkpt>
      <trkpt lat="39.93527" lon="-0.69133">
        <ele>894.7326</ele>
        <time>2021-07-20T16:57:56Z</time>
      </trkpt>
      <trkpt lat="39.93752" lon="-0.69055">
        <ele>903.2839</ele>
        <time>2021-07-20T16:58:07Z</time>
      </trkpt>
      <trkpt lat="39.93911" lon="-0.69089">
        <ele>911.6355</ele>
        <time>2021-07-20T16:58:18Z</time>
      </trkpt>
      <trkpt lat="39.94042" lon="-0.69261">
        <ele>921.2784</ele>
        <time>2021-07-20T16:58:30Z</time>
      </trkpt>
      <trkpt lat="39.94191" lon="-0.69407">
        <ele>935.5656</ele>
        <time>2021-07-20T16:58:41Z</time>
      </trkpt>
      <trkpt lat="39.94393" lon="-0.69455">
        <ele>943.5622</ele>
        <time>2021-07-20T16:58:52Z</time>
      </trkpt>
      <trkpt lat="39.94615" lon="-0.69558">
        <ele>951.2291</ele>
        <time>2021-07-20T16:59:03Z</time>
      </trkpt>
      <trkpt lat="39.94831" lon="-0.69693">
        <ele>960.5471</ele>
        <time>2021-07-20T16:59:14Z</time>
      </trkpt>
      <trkpt lat="39.95014" lon="-0.69796">
        <ele>963.1389</ele>
        <time>2021-07-20T16:59:25Z</time>
      </trkpt>
      <trkpt lat="39.95171" lon="-0.69738">
        <ele>977.0469</ele>
        <time>2021-07-20T16:59:36Z</time>
      </trkpt>
      <trkpt lat="39.9535" lon="-0.69722">
        <ele>977.2194</ele>
        <time>2021-07-20T16:59:47Z</time>
      </trkpt>
      <trkpt lat="39.95594" lon="-0.69716">
        <ele>978.0418</ele>
        <time>2021-07-20T16:59:58Z</time>
      </trkpt>
      <trkpt lat="39.95871" lon="-0.69688">
        <ele>979.3332</ele>
        <time>2021-07-20T17:00:09Z</time>
      </trkpt>
      <trkpt lat="39.96131" lon="-0.69601">
        <ele>983.0322</ele>
        <time>2021-07-20T17:00:20Z</time>
      </trkpt>
      <trkpt lat="39.96366" lon="-0.69509">
        <ele>986.7675</ele>
        <time>2021-07-20T17:00:31Z</time>
      </trkpt>
      <trkpt lat="39.9656" lon="-0.69496">
        <ele>986.2996</ele>
        <time>2021-07-20T17:00:42Z</time>
      </trkpt>
      <trkpt lat="39.96819" lon="-0.69518">
        <ele>980.3884</ele>
        <time>2021-07-20T17:00:54Z</time>
      </trkpt>
      <trkpt lat="39.97086" lon="-0.69536">
        <ele>974.7053</ele>
        <time>2021-07-20T17:01:05Z</time>
      </trkpt>
      <trkpt lat="39.97366" lon="-0.69542">
        <ele>971.6073</ele>
        <time>2021-07-20T17:01:16Z</time>
      </trkpt>
      <trkpt lat="39.9762" lon="-0.69575">
        <ele>971.4673</ele>
        <time>2021-07-20T17:01:27Z</time>
      </trkpt>
      <trkpt lat="39.97856" lon="-0.6956">
        <ele>972.0522</ele>
        <time>2021-07-20T17:01:38Z</time>
      </trkpt>
      <trkpt lat="39.98132" lon="-0.69589">
        <ele>972.2292</ele>
        <time>2021-07-20T17:01:49Z</time>
      </trkpt>
      <trkpt lat="39.98395" lon="-0.69634">
        <ele>971.7029</ele>
        <time>2021-07-20T17:02:00Z</time>
      </trkpt>
      <trkpt lat="39.98622" lon="-0.69724">
        <ele>971.3749</ele>
        <time>2021-07-20T17:02:11Z</time>
      </trkpt>
      <trkpt lat="39.98857" lon="-0.69722">
        <ele>973.0666</ele>
        <time>2021-07-20T17:02:22Z</time>
      </trkpt>
      <trkpt lat="39.99025" lon="-0.69722">
        <ele>975.046</ele>
        <time>2021-07-20T17:02:33Z</time>
      </trkpt>
      <trkpt lat="39.99224" lon="-0.69751">
        <ele>977.0348</ele>
        <time>2021-07-20T17:02:44Z</time>
      </trkpt>
      <trkpt lat="39.99458" lon="-0.69759">
        <ele>978.0725</ele>
        <time>2021-07-20T17:02:55Z</time>
      </trkpt>
      <trkpt lat="39.99726" lon="-0.69807">
        <ele>979.8181</ele>
        <time>2021-07-20T17:03:06Z</time>
      </trkpt>
      <trkpt lat="39.99945" lon="-0.69758">
        <ele>983.1817</ele>
        <time>2021-07-20T17:03:17Z</time>
      </trkpt>
      <trkpt lat="40.00193" lon="-0.69746">
        <ele>986.6533</ele>
        <time>2021-07-20T17:03:28Z</time>
      </trkpt>
      <trkpt lat="40.00414" lon="-0.69702">
        <ele>987.3715</ele>
        <time>2021-07-20T17:03:39Z</time>
      </trkpt>
      <trkpt lat="40.0065" lon="-0.69664">
        <ele>988.7553</ele>
        <time>2021-07-20T17:03:50Z</time>
      </trkpt>
      <trkpt lat="40.00923" lon="-0.69672">
        <ele>991.115</ele>
        <time>2021-07-20T17:04:01Z</time>
      </trkpt>
      <trkpt lat="40.01189" lon="-0.69686">
        <ele>994.8436</ele>
        <time>2021-07-20T17:04:12Z</time>
      </trkpt>
      <trkpt lat="40.01306" lon="-0.6972">
        <ele>998.4623</ele>
        <time>2021-07-20T17:04:23Z</time>
      </trkpt>
      <trkpt lat="40.01317" lon="-0.69656">
        <ele>998.439</ele>
        <time>2021-07-20T17:04:34Z</time>
      </trkpt>
      <trkpt lat="40.01425" lon="-0.69654">
        <ele>993.9829</ele>
        <time>2021-07-20T17:04:45Z</time>
      </trkpt>
      <trkpt lat="40.01486" lon="-0.69632">
        <ele>993.5523</ele>
        <time>2021-07-20T17:04:56Z</time>
      </trkpt>
      <trkpt lat="40.0158" lon="-0.69642">
        <ele>990.8143</ele>
        <time>2021-07-20T17:05:07Z</time>
      </trkpt>
      <trkpt lat="40.01785" lon="-0.69687">
        <ele>985.5943</ele>
        <time>2021-07-20T17:05:18Z</time>
      </trkpt>
      <trkpt lat="40.01978" lon="-0.69732">
        <ele>980.6068</ele>
        <time>2021-07-20T17:05:29Z</time>
      </trkpt>
      <trkpt lat="40.02098" lon="-0.69801">
        <ele>974.5612</ele>
        <time>2021-07-20T17:05:40Z</time>
      </trkpt>
      <trkpt lat="40.02317" lon="-0.69979">
        <ele>971.3337</ele>
        <time>2021-07-20T17:05:51Z</time>
      </trkpt>
      <trkpt lat="40.02524" lon="-0.70209">
        <ele>965.6754</ele>
        <time>2021-07-20T17:06:02Z</time>
      </trkpt>
      <trkpt lat="40.02733" lon="-0.7044">
        <ele>956.7724</ele>
        <time>2021-07-20T17:06:13Z</time>
      </trkpt>
      <trkpt lat="40.02942" lon="-0.70671">
        <ele>952.2701</ele>
        <time>2021-07-20T17:06:24Z</time>
      </trkpt>
      <trkpt lat="40.03166" lon="-0.70873">
        <ele>955.2432</ele>
        <time>2021-07-20T17:06:35Z</time>
      </trkpt>
      <trkpt lat="40.03389" lon="-0.71085">
        <ele>953.4046</ele>
        <time>2021-07-20T17:06:46Z</time>
      </trkpt>
      <trkpt lat="40.03551" lon="-0.7133">
        <ele>951.3141</ele>
        <time>2021-07-20T17:06:57Z</time>
      </trkpt>
      <trkpt lat="40.0376" lon="-0.71594">
        <ele>947.3134</ele>
        <time>2021-07-20T17:07:08Z</time>
      </trkpt>
      <trkpt lat="40.0401" lon="-0.717">
        <ele>944.0891</ele>
        <time>2021-07-20T17:07:19Z</time>
      </trkpt>
      <trkpt lat="40.04264" lon="-0.71738">
        <ele>949.4376</ele>
        <time>2021-07-20T17:07:30Z</time>
      </trkpt>
      <trkpt lat="40.04519" lon="-0.71762">
        <ele>952.8195</ele>
        <time>2021-07-20T17:07:41Z</time>
      </trkpt>
      <trkpt lat="40.04798" lon="-0.71772">
        <ele>949.3142</ele>
        <time>2021-07-20T17:07:52Z</time>
      </trkpt>
      <trkpt lat="40.0508" lon="-0.71793">
        <ele>954.2177</ele>
        <time>2021-07-20T17:08:03Z</time>
      </trkpt>
      <trkpt lat="40.05356" lon="-0.71906">
        <ele>941.8532</ele>
        <time>2021-07-20T17:08:14Z</time>
      </trkpt>
      <trkpt lat="40.05614" lon="-0.72015">
        <ele>936.5197</ele>
        <time>2021-07-20T17:08:25Z</time>
      </trkpt>
      <trkpt lat="40.05864" lon="-0.72121">
        <ele>942.6159</ele>
        <time>2021-07-20T17:08:36Z</time>
      </trkpt>
      <trkpt lat="40.06121" lon="-0.72161">
        <ele>952.0599</ele>
        <time>2021-07-20T17:08:47Z</time>
      </trkpt>
      <trkpt lat="40.06383" lon="-0.72183">
        <ele>955.2272</ele>
        <time>2021-07-20T17:08:58Z</time>
      </trkpt>
      <trkpt lat="40.06525" lon="-0.72395">
        <ele>946.9283</ele>
        <time>2021-07-20T17:09:09Z</time>
      </trkpt>
      <trkpt lat="40.0676" lon="-0.72538">
        <ele>946.2312</ele>
        <time>2021-07-20T17:09:20Z</time>
      </trkpt>
      <trkpt lat="40.07016" lon="-0.72534">
        <ele>964.8897</ele>
        <time>2021-07-20T17:09:31Z</time>
      </trkpt>
      <trkpt lat="40.07276" lon="-0.72606">
        <ele>967.7033</ele>
        <time>2021-07-20T17:09:42Z</time>
      </trkpt>
      <trkpt lat="40.07538" lon="-0.72709">
        <ele>971.3771</ele>
        <time>2021-07-20T17:09:53Z</time>
      </trkpt>
      <trkpt lat="40.07787" lon="-0.72886">
        <ele>958.6801</ele>
        <time>2021-07-20T17:10:04Z</time>
      </trkpt>
      <trkpt lat="40.08035" lon="-0.73042">
        <ele>957.6013</ele>
        <time>2021-07-20T17:10:15Z</time>
      </trkpt>
      <trkpt lat="40.08291" lon="-0.73036">
        <ele>951.3074</ele>
        <time>2021-07-20T17:10:26Z</time>
      </trkpt>
      <trkpt lat="40.08568" lon="-0.73011">
        <ele>943.1885</ele>
        <time>2021-07-20T17:10:37Z</time>
      </trkpt>
      <trkpt lat="40.08848" lon="-0.73011">
        <ele>936.7331</ele>
        <time>2021-07-20T17:10:48Z</time>
      </trkpt>
      <trkpt lat="40.09132" lon="-0.73054">
        <ele>930.5179</ele>
        <time>2021-07-20T17:10:59Z</time>
      </trkpt>
      <trkpt lat="40.09409" lon="-0.73097">
        <ele>926.9758</ele>
        <time>2021-07-20T17:11:10Z</time>
      </trkpt>
      <trkpt lat="40.09691" lon="-0.7314">
        <ele>924.8615</ele>
        <time>2021-07-20T17:11:21Z</time>
      </trkpt>
      <trkpt lat="40.09975" lon="-0.73183">
        <ele>921.4075</ele>
        <time>2021-07-20T17:11:32Z</time>
      </trkpt>
      <trkpt lat="40.10257" lon="-0.73226">
        <ele>927.3426</ele>
        <time>2021-07-20T17:11:43Z</time>
      </trkpt>
      <trkpt lat="40.10513" lon="-0.73331">
        <ele>936.8908</ele>
        <time>2021-07-20T17:11:54Z</time>
      </trkpt>
      <trkpt lat="40.10723" lon="-0.73579">
        <ele>935.9055</ele>
        <time>2021-07-20T17:12:05Z</time>
      </trkpt>
      <trkpt lat="40.10923" lon="-0.73811">
        <ele>933.0695</ele>
        <time>2021-07-20T17:12:16Z</time>
      </trkpt>
      <trkpt lat="40.11144" lon="-0.73953">
        <ele>932.1233</ele>
        <time>2021-07-20T17:12:27Z</time>
      </trkpt>
      <trkpt lat="40.11331" lon="-0.74042">
        <ele>932.8552</ele>
        <time>2021-07-20T17:12:38Z</time>
      </trkpt>
      <trkpt lat="40.11363" lon="-0.7405">
        <ele>932.5982</ele>
        <time>2021-07-20T17:12:49Z</time>
      </trkpt>
      <trkpt lat="40.11362" lon="-0.74051">
        <ele>936.3381</ele>
        <time>2021-07-20T17:13:48Z</time>
      </trkpt>
      <trkpt lat="40.11361" lon="-0.74051">
        <ele>934.4076</ele>
        <time>2021-07-20T17:14:47Z</time>
      </trkpt>
      <trkpt lat="40.11359" lon="-0.74051">
        <ele>939.7922</ele>
        <time>2021-07-20T17:15:45Z</time>
      </trkpt>
      <trkpt lat="40.11458" lon="-0.74105">
        <ele>940.5053</ele>
        <time>2021-07-20T17:15:56Z</time>
      </trkpt>
      <trkpt lat="40.11592" lon="-0.74379">
        <ele>934.3626</ele>
        <time>2021-07-20T17:16:07Z</time>
      </trkpt>
      <trkpt lat="40.11687" lon="-0.74717">
        <ele>939.9975</ele>
        <time>2021-07-20T17:16:18Z</time>
      </trkpt>
      <trkpt lat="40.11884" lon="-0.74966">
        <ele>950.8844</ele>
        <time>2021-07-20T17:16:29Z</time>
      </trkpt>
      <trkpt lat="40.12121" lon="-0.75142">
        <ele>948.5819</ele>
        <time>2021-07-20T17:16:40Z</time>
      </trkpt>
      <trkpt lat="40.12349" lon="-0.7534">
        <ele>937.4431</ele>
        <time>2021-07-20T17:16:51Z</time>
      </trkpt>
      <trkpt lat="40.12394" lon="-0.75669">
        <ele>922.5253</ele>
        <time>2021-07-20T17:17:02Z</time>
      </trkpt>
      <trkpt lat="40.1248" lon="-0.75984">
        <ele>908.0134</ele>
        <time>2021-07-20T17:17:13Z</time>
      </trkpt>
      <trkpt lat="40.12401" lon="-0.76243">
        <ele>893.8403</ele>
        <time>2021-07-20T17:17:24Z</time>
      </trkpt>
      <trkpt lat="40.12216" lon="-0.76465">
        <ele>884.1459</ele>
        <time>2021-07-20T17:17:35Z</time>
      </trkpt>
      <trkpt lat="40.12146" lon="-0.76764">
        <ele>895.2755</ele>
        <time>2021-07-20T17:17:46Z</time>
      </trkpt>
      <trkpt lat="40.12302" lon="-0.76959">
        <ele>871.044</ele>
        <time>2021-07-20T17:17:57Z</time>
      </trkpt>
      <trkpt lat="40.12534" lon="-0.76946">
        <ele>920.0162</ele>
        <time>2021-07-20T17:18:08Z</time>
      </trkpt>
      <trkpt lat="40.12754" lon="-0.77077">
        <ele>925.8275</ele>
        <time>2021-07-20T17:18:19Z</time>
      </trkpt>
      <trkpt lat="40.12917" lon="-0.77211">
        <ele>913.4689</ele>
        <time>2021-07-20T17:18:30Z</time>
      </trkpt>
      <trkpt lat="40.13113" lon="-0.77357">
        <ele>899.8974</ele>
        <time>2021-07-20T17:18:41Z</time>
      </trkpt>
      <trkpt lat="40.13296" lon="-0.77389">
        <ele>893.3015</ele>
        <time>2021-07-20T17:18:52Z</time>
      </trkpt>
      <trkpt lat="40.13485" lon="-0.77386">
        <ele>892.6044</ele>
        <time>2021-07-20T17:19:03Z</time>
      </trkpt>
      <trkpt lat="40.13671" lon="-0.77307">
        <ele>882.8057</ele>
        <time>2021-07-20T17:19:14Z</time>
      </trkpt>
      <trkpt lat="40.13871" lon="-0.77103">
        <ele>877.0878</ele>
        <time>2021-07-20T17:19:25Z</time>
      </trkpt>
      <trkpt lat="40.14077" lon="-0.76901">
        <ele>871.9359</ele>
        <time>2021-07-20T17:19:36Z</time>
      </trkpt>
      <trkpt lat="40.14258" lon="-0.76683">
        <ele>872.4322</ele>
        <time>2021-07-20T17:19:47Z</time>
      </trkpt>
      <trkpt lat="40.14514" lon="-0.76625">
        <ele>872.4002</ele>
        <time>2021-07-20T17:19:58Z</time>
      </trkpt>
      <trkpt lat="40.14775" lon="-0.76594">
        <ele>878.9898</ele>
        <time>2021-07-20T17:20:09Z</time>
      </trkpt>
      <trkpt lat="40.15013" lon="-0.76747">
        <ele>871.2245</ele>
        <time>2021-07-20T17:20:20Z</time>
      </trkpt>
      <trkpt lat="40.15259" lon="-0.76889">
        <ele>864.3899</ele>
        <time>2021-07-20T17:20:31Z</time>
      </trkpt>
      <trkpt lat="40.15518" lon="-0.76992">
        <ele>856.6843</ele>
        <time>2021-07-20T17:20:42Z</time>
      </trkpt>
      <trkpt lat="40.15753" lon="-0.7705">
        <ele>855.697</ele>
        <time>2021-07-20T17:20:53Z</time>
      </trkpt>
      <trkpt lat="40.15985" lon="-0.76987">
        <ele>856.381</ele>
        <time>2021-07-20T17:21:04Z</time>
      </trkpt>
      <trkpt lat="40.1621" lon="-0.77024">
        <ele>860.7723</ele>
        <time>2021-07-20T17:21:15Z</time>
      </trkpt>
      <trkpt lat="40.16383" lon="-0.7724">
        <ele>874.6799</ele>
        <time>2021-07-20T17:21:26Z</time>
      </trkpt>
      <trkpt lat="40.16591" lon="-0.77288">
        <ele>877.8016</ele>
        <time>2021-07-20T17:21:37Z</time>
      </trkpt>
      <trkpt lat="40.16847" lon="-0.77353">
        <ele>888.0282</ele>
        <time>2021-07-20T17:21:48Z</time>
      </trkpt>
      <trkpt lat="40.17089" lon="-0.77483">
        <ele>905.7355</ele>
        <time>2021-07-20T17:21:59Z</time>
      </trkpt>
      <trkpt lat="40.17331" lon="-0.77542">
        <ele>914.9153</ele>
        <time>2021-07-20T17:22:10Z</time>
      </trkpt>
      <trkpt lat="40.17576" lon="-0.77686">
        <ele>922.4438</ele>
        <time>2021-07-20T17:22:21Z</time>
      </trkpt>
      <trkpt lat="40.17825" lon="-0.77831">
        <ele>926.8747</ele>
        <time>2021-07-20T17:22:32Z</time>
      </trkpt>
      <trkpt lat="40.18088" lon="-0.77874">
        <ele>929.2196</ele>
        <time>2021-07-20T17:22:43Z</time>
      </trkpt>
      <trkpt lat="40.18368" lon="-0.77892">
        <ele>933.4199</ele>
        <time>2021-07-20T17:22:54Z</time>
      </trkpt>
      <trkpt lat="40.18644" lon="-0.7796">
        <ele>943.8072</ele>
        <time>2021-07-20T17:23:05Z</time>
      </trkpt>
      <trkpt lat="40.18921" lon="-0.77997">
        <ele>942.1404</ele>
        <time>2021-07-20T17:23:16Z</time>
      </trkpt>
      <trkpt lat="40.19184" lon="-0.77974">
        <ele>958.5508</ele>
        <time>2021-07-20T17:23:27Z</time>
      </trkpt>
      <trkpt lat="40.19424" lon="-0.78165">
        <ele>965.9814</ele>
        <time>2021-07-20T17:23:38Z</time>
      </trkpt>
      <trkpt lat="40.19638" lon="-0.7832">
        <ele>972.5748</ele>
        <time>2021-07-20T17:23:49Z</time>
      </trkpt>
      <trkpt lat="40.1987" lon="-0.78395">
        <ele>969.6636</ele>
        <time>2021-07-20T17:24:00Z</time>
      </trkpt>
      <trkpt lat="40.20136" lon="-0.7835">
        <ele>970.4425</ele>
        <time>2021-07-20T17:24:11Z</time>
      </trkpt>
      <trkpt lat="40.20395" lon="-0.78257">
        <ele>976.62</ele>
        <time>2021-07-20T17:24:22Z</time>
      </trkpt>
      <trkpt lat="40.20646" lon="-0.78317">
        <ele>986.9449</ele>
        <time>2021-07-20T17:24:33Z</time>
      </trkpt>
      <trkpt lat="40.20916" lon="-0.78275">
        <ele>998.7833</ele>
        <time>2021-07-20T17:24:44Z</time>
      </trkpt>
      <trkpt lat="40.21168" lon="-0.78203">
        <ele>995.9411</ele>
        <time>2021-07-20T17:24:55Z</time>
      </trkpt>
      <trkpt lat="40.21373" lon="-0.78036">
        <ele>988.8063</ele>
        <time>2021-07-20T17:25:06Z</time>
      </trkpt>
      <trkpt lat="40.21611" lon="-0.77842">
        <ele>973.467</ele>
        <time>2021-07-20T17:25:17Z</time>
      </trkpt>
      <trkpt lat="40.21853" lon="-0.7767">
        <ele>980.5583</ele>
        <time>2021-07-20T17:25:28Z</time>
      </trkpt>
      <trkpt lat="40.22095" lon="-0.77535">
        <ele>988.3039</ele>
        <time>2021-07-20T17:25:39Z</time>
      </trkpt>
      <trkpt lat="40.22308" lon="-0.77374">
        <ele>987.6108</ele>
        <time>2021-07-20T17:25:50Z</time>
      </trkpt>
      <trkpt lat="40.22552" lon="-0.77275">
        <ele>998.9913</ele>
        <time>2021-07-20T17:26:01Z</time>
      </trkpt>
      <trkpt lat="40.22762" lon="-0.7721">
        <ele>1008.635</ele>
        <time>2021-07-20T17:26:12Z</time>
      </trkpt>
      <trkpt lat="40.22901" lon="-0.76961">
        <ele>1015.489</ele>
        <time>2021-07-20T17:26:23Z</time>
      </trkpt>
      <trkpt lat="40.23061" lon="-0.76715">
        <ele>1016.348</ele>
        <time>2021-07-20T17:26:34Z</time>
      </trkpt>
      <trkpt lat="40.23232" lon="-0.76574">
        <ele>1018.794</ele>
        <time>2021-07-20T17:26:45Z</time>
      </trkpt>
      <trkpt lat="40.23454" lon="-0.7657">
        <ele>1018.899</ele>
        <time>2021-07-20T17:26:56Z</time>
      </trkpt>
      <trkpt lat="40.23619" lon="-0.76511">
        <ele>1024.156</ele>
        <time>2021-07-20T17:27:07Z</time>
      </trkpt>
      <trkpt lat="40.23796" lon="-0.76451">
        <ele>1023.05</ele>
        <time>2021-07-20T17:27:18Z</time>
      </trkpt>
      <trkpt lat="40.23948" lon="-0.76475">
        <ele>1034.552</ele>
        <time>2021-07-20T17:27:29Z</time>
      </trkpt>
      <trkpt lat="40.24101" lon="-0.76479">
        <ele>1037.135</ele>
        <time>2021-07-20T17:27:40Z</time>
      </trkpt>
      <trkpt lat="40.2425" lon="-0.76404">
        <ele>1041.105</ele>
        <time>2021-07-20T17:27:51Z</time>
      </trkpt>
      <trkpt lat="40.244" lon="-0.76416">
        <ele>1035.903</ele>
        <time>2021-07-20T17:28:02Z</time>
      </trkpt>
      <trkpt lat="40.24515" lon="-0.76324">
        <ele>1041.869</ele>
        <time>2021-07-20T17:28:13Z</time>
      </trkpt>
      <trkpt lat="40.24627" lon="-0.76157">
        <ele>1036.003</ele>
        <time>2021-07-20T17:28:24Z</time>
      </trkpt>
      <trkpt lat="40.24744" lon="-0.75993">
        <ele>1037.45</ele>
        <time>2021-07-20T17:28:35Z</time>
      </trkpt>
      <trkpt lat="40.24849" lon="-0.75852">
        <ele>1039.791</ele>
        <time>2021-07-20T17:28:46Z</time>
      </trkpt>
      <trkpt lat="40.2494" lon="-0.75717">
        <ele>1042.124</ele>
        <time>2021-07-20T17:28:57Z</time>
      </trkpt>
      <trkpt lat="40.25008" lon="-0.75604">
        <ele>1041.851</ele>
        <time>2021-07-20T17:29:08Z</time>
      </trkpt>
      <trkpt lat="40.25038" lon="-0.75523">
        <ele>1038.279</ele>
        <time>2021-07-20T17:29:19Z</time>
      </trkpt>
      <trkpt lat="40.25071" lon="-0.75467">
        <ele>1041.357</ele>
        <time>2021-07-20T17:29:30Z</time>
      </trkpt>
      <trkpt lat="40.25128" lon="-0.75397">
        <ele>1040.036</ele>
        <time>2021-07-20T17:29:41Z</time>
      </trkpt>
      <trkpt lat="40.25192" lon="-0.7534">
        <ele>1041.241</ele>
        <time>2021-07-20T17:29:52Z</time>
      </trkpt>
      <trkpt lat="40.25256" lon="-0.753">
        <ele>1047.693</ele>
        <time>2021-07-20T17:30:03Z</time>
      </trkpt>
      <trkpt lat="40.25333" lon="-0.75304">
        <ele>1047.21</ele>
        <time>2021-07-20T17:30:14Z</time>
      </trkpt>
      <trkpt lat="40.2541" lon="-0.75194">
        <ele>1048.048</ele>
        <time>2021-07-20T17:30:25Z</time>
      </trkpt>
      <trkpt lat="40.25531" lon="-0.7509">
        <ele>1054.194</ele>
        <time>2021-07-20T17:30:36Z</time>
      </trkpt>
      <trkpt lat="40.25659" lon="-0.74992">
        <ele>1057.07</ele>
        <time>2021-07-20T17:30:47Z</time>
      </trkpt>
      <trkpt lat="40.25779" lon="-0.74861">
        <ele>1057.288</ele>
        <time>2021-07-20T17:30:58Z</time>
      </trkpt>
      <trkpt lat="40.25899" lon="-0.74698">
        <ele>1060.287</ele>
        <time>2021-07-20T17:31:09Z</time>
      </trkpt>
      <trkpt lat="40.26063" lon="-0.74581">
        <ele>1066.457</ele>
        <time>2021-07-20T17:31:20Z</time>
      </trkpt>
      <trkpt lat="40.26197" lon="-0.74594">
        <ele>1070.969</ele>
        <time>2021-07-20T17:31:31Z</time>
      </trkpt>
      <trkpt lat="40.26361" lon="-0.74603">
        <ele>1073.141</ele>
        <time>2021-07-20T17:31:42Z</time>
      </trkpt>
      <trkpt lat="40.26528" lon="-0.74588">
        <ele>1074.39</ele>
        <time>2021-07-20T17:31:53Z</time>
      </trkpt>
      <trkpt lat="40.26676" lon="-0.74675">
        <ele>1073.432</ele>
        <time>2021-07-20T17:32:04Z</time>
      </trkpt>
      <trkpt lat="40.26827" lon="-0.74667">
        <ele>1073.946</ele>
        <time>2021-07-20T17:32:15Z</time>
      </trkpt>
      <trkpt lat="40.26994" lon="-0.74566">
        <ele>1071.614</ele>
        <time>2021-07-20T17:32:26Z</time>
      </trkpt>
      <trkpt lat="40.27179" lon="-0.74382">
        <ele>1078.789</ele>
        <time>2021-07-20T17:32:37Z</time>
      </trkpt>
      <trkpt lat="40.27364" lon="-0.74288">
        <ele>1088.689</ele>
        <time>2021-07-20T17:32:48Z</time>
      </trkpt>
      <trkpt lat="40.27482" lon="-0.74107">
        <ele>1104.603</ele>
        <time>2021-07-20T17:32:59Z</time>
      </trkpt>
      <trkpt lat="40.27533" lon="-0.73853">
        <ele>1118.589</ele>
        <time>2021-07-20T17:33:10Z</time>
      </trkpt>
      <trkpt lat="40.27687" lon="-0.73777">
        <ele>1123.547</ele>
        <time>2021-07-20T17:33:21Z</time>
      </trkpt>
      <trkpt lat="40.27897" lon="-0.73789">
        <ele>1128.048</ele>
        <time>2021-07-20T17:33:32Z</time>
      </trkpt>
      <trkpt lat="40.2807" lon="-0.73645">
        <ele>1135.078</ele>
        <time>2021-07-20T17:33:43Z</time>
      </trkpt>
      <trkpt lat="40.28083" lon="-0.73414">
        <ele>1142.648</ele>
        <time>2021-07-20T17:33:54Z</time>
      </trkpt>
      <trkpt lat="40.28019" lon="-0.73198">
        <ele>1152.932</ele>
        <time>2021-07-20T17:34:05Z</time>
      </trkpt>
      <trkpt lat="40.28105" lon="-0.73012">
        <ele>1167.583</ele>
        <time>2021-07-20T17:34:16Z</time>
      </trkpt>
      <trkpt lat="40.28144" lon="-0.7279">
        <ele>1185.905</ele>
        <time>2021-07-20T17:34:27Z</time>
      </trkpt>
      <trkpt lat="40.28337" lon="-0.72737">
        <ele>1202.547</ele>
        <time>2021-07-20T17:34:38Z</time>
      </trkpt>
      <trkpt lat="40.28497" lon="-0.72593">
        <ele>1216.818</ele>
        <time>2021-07-20T17:34:49Z</time>
      </trkpt>
      <trkpt lat="40.28674" lon="-0.72497">
        <ele>1230.65</ele>
        <time>2021-07-20T17:35:00Z</time>
      </trkpt>
      <trkpt lat="40.28853" lon="-0.7233">
        <ele>1243.377</ele>
        <time>2021-07-20T17:35:11Z</time>
      </trkpt>
      <trkpt lat="40.2902" lon="-0.72169">
        <ele>1254.519</ele>
        <time>2021-07-20T17:35:22Z</time>
      </trkpt>
      <trkpt lat="40.29138" lon="-0.71965">
        <ele>1269.739</ele>
        <time>2021-07-20T17:35:33Z</time>
      </trkpt>
      <trkpt lat="40.29329" lon="-0.71847">
        <ele>1282.614</ele>
        <time>2021-07-20T17:35:44Z</time>
      </trkpt>
      <trkpt lat="40.29537" lon="-0.71764">
        <ele>1297.821</ele>
        <time>2021-07-20T17:35:55Z</time>
      </trkpt>
      <trkpt lat="40.29683" lon="-0.71634">
        <ele>1314.533</ele>
        <time>2021-07-20T17:36:06Z</time>
      </trkpt>
      <trkpt lat="40.29775" lon="-0.71755">
        <ele>1327.094</ele>
        <time>2021-07-20T17:36:18Z</time>
      </trkpt>
      <trkpt lat="40.29899" lon="-0.71825">
        <ele>1342.303</ele>
        <time>2021-07-20T17:36:29Z</time>
      </trkpt>
      <trkpt lat="40.3004" lon="-0.71965">
        <ele>1358.68</ele>
        <time>2021-07-20T17:36:40Z</time>
      </trkpt>
      <trkpt lat="40.30194" lon="-0.721">
        <ele>1367.727</ele>
        <time>2021-07-20T17:36:51Z</time>
      </trkpt>
      <trkpt lat="40.30387" lon="-0.72177">
        <ele>1367.144</ele>
        <time>2021-07-20T17:37:02Z</time>
      </trkpt>
      <trkpt lat="40.30621" lon="-0.72194">
        <ele>1370.261</ele>
        <time>2021-07-20T17:37:13Z</time>
      </trkpt>
      <trkpt lat="40.30838" lon="-0.72141">
        <ele>1371.779</ele>
        <time>2021-07-20T17:37:24Z</time>
      </trkpt>
      <trkpt lat="40.30992" lon="-0.72155">
        <ele>1375.943</ele>
        <time>2021-07-20T17:37:35Z</time>
      </trkpt>
      <trkpt lat="40.31153" lon="-0.72205">
        <ele>1380.328</ele>
        <time>2021-07-20T17:37:46Z</time>
      </trkpt>
      <trkpt lat="40.31335" lon="-0.72209">
        <ele>1384.577</ele>
        <time>2021-07-20T17:37:57Z</time>
      </trkpt>
      <trkpt lat="40.315" lon="-0.72148">
        <ele>1388.786</ele>
        <time>2021-07-20T17:38:08Z</time>
      </trkpt>
      <trkpt lat="40.31617" lon="-0.72292">
        <ele>1388.726</ele>
        <time>2021-07-20T17:38:19Z</time>
      </trkpt>
      <trkpt lat="40.31741" lon="-0.72178">
        <ele>1389.412</ele>
        <time>2021-07-20T17:38:30Z</time>
      </trkpt>
      <trkpt lat="40.31856" lon="-0.72006">
        <ele>1388.837</ele>
        <time>2021-07-20T17:38:41Z</time>
      </trkpt>
      <trkpt lat="40.31935" lon="-0.71906">
        <ele>1387.96</ele>
        <time>2021-07-20T17:38:52Z</time>
      </trkpt>
      <trkpt lat="40.3208" lon="-0.71986">
        <ele>1388.864</ele>
        <time>2021-07-20T17:39:03Z</time>
      </trkpt>
      <trkpt lat="40.3221" lon="-0.71849">
        <ele>1384.633</ele>
        <time>2021-07-20T17:39:14Z</time>
      </trkpt>
      <trkpt lat="40.32278" lon="-0.71886">
        <ele>1389.715</ele>
        <time>2021-07-20T17:39:25Z</time>
      </trkpt>
      <trkpt lat="40.32356" lon="-0.72079">
        <ele>1394.443</ele>
        <time>2021-07-20T17:39:36Z</time>
      </trkpt>
      <trkpt lat="40.32497" lon="-0.72076">
        <ele>1392.762</ele>
        <time>2021-07-20T17:39:47Z</time>
      </trkpt>
      <trkpt lat="40.3259" lon="-0.71881">
        <ele>1397.255</ele>
        <time>2021-07-20T17:39:58Z</time>
      </trkpt>
      <trkpt lat="40.32659" lon="-0.71632">
        <ele>1406.41</ele>
        <time>2021-07-20T17:40:09Z</time>
      </trkpt>
      <trkpt lat="40.32737" lon="-0.71405">
        <ele>1409.211</ele>
        <time>2021-07-20T17:40:20Z</time>
      </trkpt>
      <trkpt lat="40.32846" lon="-0.71311">
        <ele>1413.601</ele>
        <time>2021-07-20T17:40:31Z</time>
      </trkpt>
      <trkpt lat="40.32894" lon="-0.71468">
        <ele>1422.078</ele>
        <time>2021-07-20T17:40:42Z</time>
      </trkpt>
      <trkpt lat="40.3292" lon="-0.71638">
        <ele>1431.581</ele>
        <time>2021-07-20T17:40:53Z</time>
      </trkpt>
      <trkpt lat="40.33078" lon="-0.71642">
        <ele>1443.365</ele>
        <time>2021-07-20T17:41:04Z</time>
      </trkpt>
      <trkpt lat="40.33312" lon="-0.71556">
        <ele>1460.925</ele>
        <time>2021-07-20T17:41:15Z</time>
      </trkpt>
      <trkpt lat="40.33518" lon="-0.71469">
        <ele>1475.941</ele>
        <time>2021-07-20T17:41:26Z</time>
      </trkpt>
      <trkpt lat="40.33704" lon="-0.71416">
        <ele>1493.191</ele>
        <time>2021-07-20T17:41:37Z</time>
      </trkpt>
      <trkpt lat="40.339" lon="-0.71319">
        <ele>1508.543</ele>
        <time>2021-07-20T17:41:48Z</time>
      </trkpt>
      <trkpt lat="40.34093" lon="-0.71223">
        <ele>1524.622</ele>
        <time>2021-07-20T17:41:59Z</time>
      </trkpt>
      <trkpt lat="40.34228" lon="-0.71119">
        <ele>1535.439</ele>
        <time>2021-07-20T17:42:10Z</time>
      </trkpt>
      <trkpt lat="40.34327" lon="-0.70977">
        <ele>1548.284</ele>
        <time>2021-07-20T17:42:21Z</time>
      </trkpt>
      <trkpt lat="40.34484" lon="-0.70959">
        <ele>1562.918</ele>
        <time>2021-07-20T17:42:32Z</time>
      </trkpt>
      <trkpt lat="40.34622" lon="-0.71015">
        <ele>1556.308</ele>
        <time>2021-07-20T17:42:43Z</time>
      </trkpt>
      <trkpt lat="40.34777" lon="-0.7119">
        <ele>1543.969</ele>
        <time>2021-07-20T17:42:54Z</time>
      </trkpt>
      <trkpt lat="40.34912" lon="-0.71307">
        <ele>1535.92</ele>
        <time>2021-07-20T17:43:05Z</time>
      </trkpt>
      <trkpt lat="40.35079" lon="-0.71367">
        <ele>1523.859</ele>
        <time>2021-07-20T17:43:16Z</time>
      </trkpt>
      <trkpt lat="40.35207" lon="-0.71276">
        <ele>1506.68</ele>
        <time>2021-07-20T17:43:27Z</time>
      </trkpt>
      <trkpt lat="40.3526" lon="-0.71022">
        <ele>1497.123</ele>
        <time>2021-07-20T17:43:38Z</time>
      </trkpt>
      <trkpt lat="40.35234" lon="-0.70788">
        <ele>1482.501</ele>
        <time>2021-07-20T17:43:49Z</time>
      </trkpt>
      <trkpt lat="40.35319" lon="-0.70582">
        <ele>1469.022</ele>
        <time>2021-07-20T17:44:00Z</time>
      </trkpt>
      <trkpt lat="40.35381" lon="-0.70392">
        <ele>1454.067</ele>
        <time>2021-07-20T17:44:11Z</time>
      </trkpt>
      <trkpt lat="40.35379" lon="-0.70173">
        <ele>1437.674</ele>
        <time>2021-07-20T17:44:22Z</time>
      </trkpt>
      <trkpt lat="40.35432" lon="-0.70052">
        <ele>1427.594</ele>
        <time>2021-07-20T17:44:33Z</time>
      </trkpt>
      <trkpt lat="40.3555" lon="-0.70008">
        <ele>1420.535</ele>
        <time>2021-07-20T17:44:44Z</time>
      </trkpt>
      <trkpt lat="40.35702" lon="-0.7004">
        <ele>1415.367</ele>
        <time>2021-07-20T17:44:55Z</time>
      </trkpt>
      <trkpt lat="40.35818" lon="-0.70053">
        <ele>1408.321</ele>
        <time>2021-07-20T17:45:06Z</time>
      </trkpt>
      <trkpt lat="40.35934" lon="-0.7007">
        <ele>1402.017</ele>
        <time>2021-07-20T17:45:17Z</time>
      </trkpt>
      <trkpt lat="40.36062" lon="-0.70099">
        <ele>1398.744</ele>
        <time>2021-07-20T17:45:28Z</time>
      </trkpt>
      <trkpt lat="40.36162" lon="-0.70095">
        <ele>1398.166</ele>
        <time>2021-07-20T17:45:39Z</time>
      </trkpt>
      <trkpt lat="40.36202" lon="-0.7023">
        <ele>1394.03</ele>
        <time>2021-07-20T17:45:50Z</time>
      </trkpt>
      <trkpt lat="40.36249" lon="-0.70346">
        <ele>1389.514</ele>
        <time>2021-07-20T17:46:01Z</time>
      </trkpt>
      <trkpt lat="40.36355" lon="-0.70416">
        <ele>1389.086</ele>
        <time>2021-07-20T17:46:12Z</time>
      </trkpt>
      <trkpt lat="40.36446" lon="-0.70518">
        <ele>1388.196</ele>
        <time>2021-07-20T17:46:23Z</time>
      </trkpt>
      <trkpt lat="40.36545" lon="-0.70593">
        <ele>1385.781</ele>
        <time>2021-07-20T17:46:34Z</time>
      </trkpt>
      <trkpt lat="40.36571" lon="-0.70679">
        <ele>1383.29</ele>
        <time>2021-07-20T17:46:45Z</time>
      </trkpt>
      <trkpt lat="40.36582" lon="-0.70804">
        <ele>1381.251</ele>
        <time>2021-07-20T17:46:56Z</time>
      </trkpt>
      <trkpt lat="40.36681" lon="-0.7105">
        <ele>1373.899</ele>
        <time>2021-07-20T17:47:07Z</time>
      </trkpt>
      <trkpt lat="40.36778" lon="-0.71271">
        <ele>1372.372</ele>
        <time>2021-07-20T17:47:18Z</time>
      </trkpt>
      <trkpt lat="40.36901" lon="-0.71325">
        <ele>1379.447</ele>
        <time>2021-07-20T17:47:29Z</time>
      </trkpt>
      <trkpt lat="40.37065" lon="-0.71202">
        <ele>1389.2</ele>
        <time>2021-07-20T17:47:40Z</time>
      </trkpt>
      <trkpt lat="40.37193" lon="-0.71009">
        <ele>1397.352</ele>
        <time>2021-07-20T17:47:51Z</time>
      </trkpt>
      <trkpt lat="40.37342" lon="-0.70858">
        <ele>1407.188</ele>
        <time>2021-07-20T17:48:02Z</time>
      </trkpt>
      <trkpt lat="40.37549" lon="-0.70818">
        <ele>1418.919</ele>
        <time>2021-07-20T17:48:13Z</time>
      </trkpt>
      <trkpt lat="40.37672" lon="-0.70657">
        <ele>1426.923</ele>
        <time>2021-07-20T17:48:24Z</time>
      </trkpt>
      <trkpt lat="40.37851" lon="-0.7059">
        <ele>1437.64</ele>
        <time>2021-07-20T17:48:35Z</time>
      </trkpt>
      <trkpt lat="40.38085" lon="-0.70654">
        <ele>1455.358</ele>
        <time>2021-07-20T17:48:46Z</time>
      </trkpt>
      <trkpt lat="40.38304" lon="-0.70623">
        <ele>1472.205</ele>
        <time>2021-07-20T17:48:57Z</time>
      </trkpt>
      <trkpt lat="40.38508" lon="-0.70566">
        <ele>1485.287</ele>
        <time>2021-07-20T17:49:08Z</time>
      </trkpt>
      <trkpt lat="40.38682" lon="-0.70446">
        <ele>1497.712</ele>
        <time>2021-07-20T17:49:19Z</time>
      </trkpt>
      <trkpt lat="40.38935" lon="-0.70429">
        <ele>1515.984</ele>
        <time>2021-07-20T17:49:30Z</time>
      </trkpt>
      <trkpt lat="40.39139" lon="-0.70348">
        <ele>1534.238</ele>
        <time>2021-07-20T17:49:41Z</time>
      </trkpt>
      <trkpt lat="40.3935" lon="-0.7045">
        <ele>1530.018</ele>
        <time>2021-07-20T17:49:52Z</time>
      </trkpt>
      <trkpt lat="40.39573" lon="-0.70657">
        <ele>1511.158</ele>
        <time>2021-07-20T17:50:03Z</time>
      </trkpt>
      <trkpt lat="40.39805" lon="-0.70859">
        <ele>1504.407</ele>
        <time>2021-07-20T17:50:14Z</time>
      </trkpt>
      <trkpt lat="40.40065" lon="-0.71016">
        <ele>1494.43</ele>
        <time>2021-07-20T17:50:25Z</time>
      </trkpt>
      <trkpt lat="40.40326" lon="-0.7117">
        <ele>1490.139</ele>
        <time>2021-07-20T17:50:36Z</time>
      </trkpt>
      <trkpt lat="40.40586" lon="-0.71323">
        <ele>1483.718</ele>
        <time>2021-07-20T17:50:47Z</time>
      </trkpt>
      <trkpt lat="40.40815" lon="-0.7145">
        <ele>1477.81</ele>
        <time>2021-07-20T17:50:58Z</time>
      </trkpt>
      <trkpt lat="40.41043" lon="-0.71476">
        <ele>1471.555</ele>
        <time>2021-07-20T17:51:09Z</time>
      </trkpt>
      <trkpt lat="40.41303" lon="-0.71488">
        <ele>1467.949</ele>
        <time>2021-07-20T17:51:20Z</time>
      </trkpt>
      <trkpt lat="40.41539" lon="-0.7165">
        <ele>1467.445</ele>
        <time>2021-07-20T17:51:31Z</time>
      </trkpt>
      <trkpt lat="40.4173" lon="-0.71953">
        <ele>1458.337</ele>
        <time>2021-07-20T17:51:42Z</time>
      </trkpt>
      <trkpt lat="40.41925" lon="-0.72143">
        <ele>1455.345</ele>
        <time>2021-07-20T17:51:53Z</time>
      </trkpt>
      <trkpt lat="40.42148" lon="-0.72229">
        <ele>1452.749</ele>
        <time>2021-07-20T17:52:04Z</time>
      </trkpt>
      <trkpt lat="40.42277" lon="-0.72362">
        <ele>1452.365</ele>
        <time>2021-07-20T17:52:15Z</time>
      </trkpt>
      <trkpt lat="40.42451" lon="-0.72511">
        <ele>1450.336</ele>
        <time>2021-07-20T17:52:26Z</time>
      </trkpt>
      <trkpt lat="40.42617" lon="-0.72598">
        <ele>1447.911</ele>
        <time>2021-07-20T17:52:37Z</time>
      </trkpt>
      <trkpt lat="40.42821" lon="-0.7259">
        <ele>1450.343</ele>
        <time>2021-07-20T17:52:48Z</time>
      </trkpt>
      <trkpt lat="40.42999" lon="-0.72654">
        <ele>1445.376</ele>
        <time>2021-07-20T17:52:59Z</time>
      </trkpt>
      <trkpt lat="40.43147" lon="-0.72602">
        <ele>1449.053</ele>
        <time>2021-07-20T17:53:10Z</time>
      </trkpt>
      <trkpt lat="40.43281" lon="-0.72644">
        <ele>1440.848</ele>
        <time>2021-07-20T17:53:21Z</time>
      </trkpt>
      <trkpt lat="40.43413" lon="-0.72706">
        <ele>1435.877</ele>
        <time>2021-07-20T17:53:32Z</time>
      </trkpt>
      <trkpt lat="40.43568" lon="-0.72769">
        <ele>1436.62</ele>
        <time>2021-07-20T17:53:43Z</time>
      </trkpt>
      <trkpt lat="40.43724" lon="-0.72798">
        <ele>1434.016</ele>
        <time>2021-07-20T17:53:54Z</time>
      </trkpt>
      <trkpt lat="40.43866" lon="-0.72797">
        <ele>1427.441</ele>
        <time>2021-07-20T17:54:05Z</time>
      </trkpt>
      <trkpt lat="40.44005" lon="-0.72852">
        <ele>1428.851</ele>
        <time>2021-07-20T17:54:16Z</time>
      </trkpt>
      <trkpt lat="40.44105" lon="-0.73024">
        <ele>1429.896</ele>
        <time>2021-07-20T17:54:27Z</time>
      </trkpt>
      <trkpt lat="40.44225" lon="-0.73137">
        <ele>1432.406</ele>
        <time>2021-07-20T17:54:38Z</time>
      </trkpt>
      <trkpt lat="40.44394" lon="-0.731">
        <ele>1430.481</ele>
        <time>2021-07-20T17:54:49Z</time>
      </trkpt>
      <trkpt lat="40.44571" lon="-0.73025">
        <ele>1421.773</ele>
        <time>2021-07-20T17:55:00Z</time>
      </trkpt>
      <trkpt lat="40.44717" lon="-0.73031">
        <ele>1410.94</ele>
        <time>2021-07-20T17:55:12Z</time>
      </trkpt>
      <trkpt lat="40.44885" lon="-0.73066">
        <ele>1408.058</ele>
        <time>2021-07-20T17:55:23Z</time>
      </trkpt>
      <trkpt lat="40.44944" lon="-0.72879">
        <ele>1405.539</ele>
        <time>2021-07-20T17:55:34Z</time>
      </trkpt>
      <trkpt lat="40.45094" lon="-0.72839">
        <ele>1404.909</ele>
        <time>2021-07-20T17:55:45Z</time>
      </trkpt>
      <trkpt lat="40.45334" lon="-0.72923">
        <ele>1421.848</ele>
        <time>2021-07-20T17:55:56Z</time>
      </trkpt>
      <trkpt lat="40.45575" lon="-0.73028">
        <ele>1422.891</ele>
        <time>2021-07-20T17:56:07Z</time>
      </trkpt>
      <trkpt lat="40.45829" lon="-0.73056">
        <ele>1414.93</ele>
        <time>2021-07-20T17:56:18Z</time>
      </trkpt>
      <trkpt lat="40.46063" lon="-0.73108">
        <ele>1402.061</ele>
        <time>2021-07-20T17:56:29Z</time>
      </trkpt>
      <trkpt lat="40.46228" lon="-0.73191">
        <ele>1396.375</ele>
        <time>2021-07-20T17:56:40Z</time>
      </trkpt>
      <trkpt lat="40.46425" lon="-0.73291">
        <ele>1393.704</ele>
        <time>2021-07-20T17:56:51Z</time>
      </trkpt>
      <trkpt lat="40.46619" lon="-0.73227">
        <ele>1393.175</ele>
        <time>2021-07-20T17:57:02Z</time>
      </trkpt>
      <trkpt lat="40.46739" lon="-0.73297">
        <ele>1386.659</ele>
        <time>2021-07-20T17:57:13Z</time>
      </trkpt>
      <trkpt lat="40.46916" lon="-0.73301">
        <ele>1389.207</ele>
        <time>2021-07-20T17:57:24Z</time>
      </trkpt>
      <trkpt lat="40.47071" lon="-0.73232">
        <ele>1390.575</ele>
        <time>2021-07-20T17:57:35Z</time>
      </trkpt>
      <trkpt lat="40.47204" lon="-0.7319">
        <ele>1382.331</ele>
        <time>2021-07-20T17:57:46Z</time>
      </trkpt>
      <trkpt lat="40.47386" lon="-0.73217">
        <ele>1383.302</ele>
        <time>2021-07-20T17:57:57Z</time>
      </trkpt>
      <trkpt lat="40.47557" lon="-0.73257">
        <ele>1375.463</ele>
        <time>2021-07-20T17:58:08Z</time>
      </trkpt>
      <trkpt lat="40.47736" lon="-0.73451">
        <ele>1371.348</ele>
        <time>2021-07-20T17:58:19Z</time>
      </trkpt>
      <trkpt lat="40.47977" lon="-0.73565">
        <ele>1364.431</ele>
        <time>2021-07-20T17:58:30Z</time>
      </trkpt>
      <trkpt lat="40.48249" lon="-0.73668">
        <ele>1359.222</ele>
        <time>2021-07-20T17:58:41Z</time>
      </trkpt>
      <trkpt lat="40.48485" lon="-0.73712">
        <ele>1359.057</ele>
        <time>2021-07-20T17:58:52Z</time>
      </trkpt>
      <trkpt lat="40.48653" lon="-0.73592">
        <ele>1359.965</ele>
        <time>2021-07-20T17:59:03Z</time>
      </trkpt>
      <trkpt lat="40.48778" lon="-0.73464">
        <ele>1354.074</ele>
        <time>2021-07-20T17:59:14Z</time>
      </trkpt>
      <trkpt lat="40.48843" lon="-0.73579">
        <ele>1359.193</ele>
        <time>2021-07-20T17:59:25Z</time>
      </trkpt>
      <trkpt lat="40.48978" lon="-0.73655">
        <ele>1369.901</ele>
        <time>2021-07-20T17:59:36Z</time>
      </trkpt>
      <trkpt lat="40.49154" lon="-0.73745">
        <ele>1375.204</ele>
        <time>2021-07-20T17:59:47Z</time>
      </trkpt>
      <trkpt lat="40.49217" lon="-0.73843">
        <ele>1377.649</ele>
        <time>2021-07-20T17:59:58Z</time>
      </trkpt>
      <trkpt lat="40.49222" lon="-0.74042">
        <ele>1367.939</ele>
        <time>2021-07-20T18:00:09Z</time>
      </trkpt>
      <trkpt lat="40.49326" lon="-0.74244">
        <ele>1354.579</ele>
        <time>2021-07-20T18:00:20Z</time>
      </trkpt>
      <trkpt lat="40.49497" lon="-0.74369">
        <ele>1365.266</ele>
        <time>2021-07-20T18:00:31Z</time>
      </trkpt>
      <trkpt lat="40.49672" lon="-0.74479">
        <ele>1355.873</ele>
        <time>2021-07-20T18:00:42Z</time>
      </trkpt>
      <trkpt lat="40.49818" lon="-0.74662">
        <ele>1348.371</ele>
        <time>2021-07-20T18:00:53Z</time>
      </trkpt>
      <trkpt lat="40.49993" lon="-0.74757">
        <ele>1351.462</ele>
        <time>2021-07-20T18:01:04Z</time>
      </trkpt>
      <trkpt lat="40.50198" lon="-0.74877">
        <ele>1345.351</ele>
        <time>2021-07-20T18:01:15Z</time>
      </trkpt>
      <trkpt lat="40.50406" lon="-0.7503">
        <ele>1341.909</ele>
        <time>2021-07-20T18:01:26Z</time>
      </trkpt>
      <trkpt lat="40.50609" lon="-0.7517">
        <ele>1335.975</ele>
        <time>2021-07-20T18:01:37Z</time>
      </trkpt>
      <trkpt lat="40.50717" lon="-0.75302">
        <ele>1333.286</ele>
        <time>2021-07-20T18:01:48Z</time>
      </trkpt>
      <trkpt lat="40.50891" lon="-0.75423">
        <ele>1330.493</ele>
        <time>2021-07-20T18:01:59Z</time>
      </trkpt>
      <trkpt lat="40.51076" lon="-0.75518">
        <ele>1329.636</ele>
        <time>2021-07-20T18:02:10Z</time>
      </trkpt>
      <trkpt lat="40.51232" lon="-0.75633">
        <ele>1329.078</ele>
        <time>2021-07-20T18:02:21Z</time>
      </trkpt>
      <trkpt lat="40.51379" lon="-0.75775">
        <ele>1328.632</ele>
        <time>2021-07-20T18:02:32Z</time>
      </trkpt>
      <trkpt lat="40.51567" lon="-0.759">
        <ele>1329.831</ele>
        <time>2021-07-20T18:02:43Z</time>
      </trkpt>
      <trkpt lat="40.51688" lon="-0.75893">
        <ele>1328.81</ele>
        <time>2021-07-20T18:02:54Z</time>
      </trkpt>
      <trkpt lat="40.51819" lon="-0.75971">
        <ele>1332.519</ele>
        <time>2021-07-20T18:03:05Z</time>
      </trkpt>
      <trkpt lat="40.5204" lon="-0.76024">
        <ele>1333.246</ele>
        <time>2021-07-20T18:03:16Z</time>
      </trkpt>
      <trkpt lat="40.52238" lon="-0.76039">
        <ele>1338.166</ele>
        <time>2021-07-20T18:03:27Z</time>
      </trkpt>
      <trkpt lat="40.52454" lon="-0.76075">
        <ele>1337.373</ele>
        <time>2021-07-20T18:03:38Z</time>
      </trkpt>
      <trkpt lat="40.52709" lon="-0.76083">
        <ele>1331.914</ele>
        <time>2021-07-20T18:03:49Z</time>
      </trkpt>
      <trkpt lat="40.52968" lon="-0.76086">
        <ele>1328.848</ele>
        <time>2021-07-20T18:04:00Z</time>
      </trkpt>
      <trkpt lat="40.53158" lon="-0.76093">
        <ele>1324.168</ele>
        <time>2021-07-20T18:04:11Z</time>
      </trkpt>
      <trkpt lat="40.53316" lon="-0.75991">
        <ele>1334.122</ele>
        <time>2021-07-20T18:04:22Z</time>
      </trkpt>
      <trkpt lat="40.53466" lon="-0.76093">
        <ele>1343.815</ele>
        <time>2021-07-20T18:04:33Z</time>
      </trkpt>
      <trkpt lat="40.53607" lon="-0.761">
        <ele>1346.479</ele>
        <time>2021-07-20T18:04:44Z</time>
      </trkpt>
      <trkpt lat="40.53792" lon="-0.76212">
        <ele>1348.941</ele>
        <time>2021-07-20T18:04:55Z</time>
      </trkpt>
      <trkpt lat="40.54038" lon="-0.76323">
        <ele>1345.874</ele>
        <time>2021-07-20T18:05:06Z</time>
      </trkpt>
      <trkpt lat="40.54267" lon="-0.76414">
        <ele>1346.952</ele>
        <time>2021-07-20T18:05:17Z</time>
      </trkpt>
      <trkpt lat="40.54433" lon="-0.76404">
        <ele>1343.61</ele>
        <time>2021-07-20T18:05:28Z</time>
      </trkpt>
      <trkpt lat="40.5456" lon="-0.7626">
        <ele>1329.287</ele>
        <time>2021-07-20T18:05:39Z</time>
      </trkpt>
      <trkpt lat="40.54703" lon="-0.76063">
        <ele>1316.303</ele>
        <time>2021-07-20T18:05:50Z</time>
      </trkpt>
      <trkpt lat="40.54879" lon="-0.75901">
        <ele>1322.701</ele>
        <time>2021-07-20T18:06:01Z</time>
      </trkpt>
      <trkpt lat="40.55035" lon="-0.75899">
        <ele>1327.447</ele>
        <time>2021-07-20T18:06:12Z</time>
      </trkpt>
      <trkpt lat="40.5525" lon="-0.76047">
        <ele>1328.394</ele>
        <time>2021-07-20T18:06:23Z</time>
      </trkpt>
      <trkpt lat="40.55462" lon="-0.7618">
        <ele>1324.365</ele>
        <time>2021-07-20T18:06:34Z</time>
      </trkpt>
      <trkpt lat="40.55649" lon="-0.76328">
        <ele>1323.841</ele>
        <time>2021-07-20T18:06:45Z</time>
      </trkpt>
      <trkpt lat="40.55811" lon="-0.76419">
        <ele>1322.358</ele>
        <time>2021-07-20T18:06:56Z</time>
      </trkpt>
      <trkpt lat="40.55936" lon="-0.76448">
        <ele>1312.758</ele>
        <time>2021-07-20T18:07:07Z</time>
      </trkpt>
      <trkpt lat="40.56011" lon="-0.76368">
        <ele>1311.148</ele>
        <time>2021-07-20T18:07:18Z</time>
      </trkpt>
      <trkpt lat="40.56096" lon="-0.76505">
        <ele>1310.866</ele>
        <time>2021-07-20T18:07:29Z</time>
      </trkpt>
      <trkpt lat="40.56259" lon="-0.76616">
        <ele>1313.879</ele>
        <time>2021-07-20T18:07:40Z</time>
      </trkpt>
      <trkpt lat="40.56507" lon="-0.76695">
        <ele>1311.337</ele>
        <time>2021-07-20T18:07:51Z</time>
      </trkpt>
      <trkpt lat="40.56771" lon="-0.76778">
        <ele>1311.262</ele>
        <time>2021-07-20T18:08:02Z</time>
      </trkpt>
      <trkpt lat="40.57031" lon="-0.7686">
        <ele>1308.616</ele>
        <time>2021-07-20T18:08:13Z</time>
      </trkpt>
      <trkpt lat="40.5729" lon="-0.76942">
        <ele>1312.433</ele>
        <time>2021-07-20T18:08:24Z</time>
      </trkpt>
      <trkpt lat="40.57538" lon="-0.77016">
        <ele>1314.531</ele>
        <time>2021-07-20T18:08:35Z</time>
      </trkpt>
      <trkpt lat="40.57787" lon="-0.77083">
        <ele>1310.84</ele>
        <time>2021-07-20T18:08:46Z</time>
      </trkpt>
      <trkpt lat="40.58027" lon="-0.77148">
        <ele>1310.217</ele>
        <time>2021-07-20T18:08:57Z</time>
      </trkpt>
      <trkpt lat="40.5827" lon="-0.77214">
        <ele>1311.55</ele>
        <time>2021-07-20T18:09:08Z</time>
      </trkpt>
      <trkpt lat="40.58511" lon="-0.77296">
        <ele>1309.41</ele>
        <time>2021-07-20T18:09:19Z</time>
      </trkpt>
      <trkpt lat="40.58747" lon="-0.7742">
        <ele>1306.497</ele>
        <time>2021-07-20T18:09:30Z</time>
      </trkpt>
      <trkpt lat="40.59001" lon="-0.77515">
        <ele>1305.833</ele>
        <time>2021-07-20T18:09:41Z</time>
      </trkpt>
      <trkpt lat="40.59273" lon="-0.7749">
        <ele>1304.458</ele>
        <time>2021-07-20T18:09:52Z</time>
      </trkpt>
      <trkpt lat="40.59541" lon="-0.77447">
        <ele>1302.378</ele>
        <time>2021-07-20T18:10:03Z</time>
      </trkpt>
      <trkpt lat="40.59804" lon="-0.775">
        <ele>1305.068</ele>
        <time>2021-07-20T18:10:14Z</time>
      </trkpt>
      <trkpt lat="40.60061" lon="-0.77495">
        <ele>1303.372</ele>
        <time>2021-07-20T18:10:25Z</time>
      </trkpt>
      <trkpt lat="40.60293" lon="-0.77339">
        <ele>1301.255</ele>
        <time>2021-07-20T18:10:36Z</time>
      </trkpt>
      <trkpt lat="40.60549" lon="-0.77209">
        <ele>1297.552</ele>
        <time>2021-07-20T18:10:47Z</time>
      </trkpt>
      <trkpt lat="40.60819" lon="-0.77149">
        <ele>1292.1</ele>
        <time>2021-07-20T18:10:58Z</time>
      </trkpt>
      <trkpt lat="40.6109" lon="-0.77207">
        <ele>1286.154</ele>
        <time>2021-07-20T18:11:09Z</time>
      </trkpt>
      <trkpt lat="40.61317" lon="-0.77402">
        <ele>1282.773</ele>
        <time>2021-07-20T18:11:20Z</time>
      </trkpt>
      <trkpt lat="40.61533" lon="-0.77637">
        <ele>1277.431</ele>
        <time>2021-07-20T18:11:31Z</time>
      </trkpt>
      <trkpt lat="40.61746" lon="-0.77872">
        <ele>1272.069</ele>
        <time>2021-07-20T18:11:42Z</time>
      </trkpt>
      <trkpt lat="40.61929" lon="-0.78146">
        <ele>1266.617</ele>
        <time>2021-07-20T18:11:53Z</time>
      </trkpt>
      <trkpt lat="40.62086" lon="-0.78398">
        <ele>1261.319</ele>
        <time>2021-07-20T18:12:04Z</time>
      </trkpt>
      <trkpt lat="40.6229" lon="-0.78503">
        <ele>1258.23</ele>
        <time>2021-07-20T18:12:15Z</time>
      </trkpt>
      <trkpt lat="40.62467" lon="-0.78486">
        <ele>1256.344</ele>
        <time>2021-07-20T18:12:26Z</time>
      </trkpt>
      <trkpt lat="40.62481" lon="-0.78399">
        <ele>1256.907</ele>
        <time>2021-07-20T18:12:37Z</time>
      </trkpt>
      <trkpt lat="40.62346" lon="-0.78138">
        <ele>1259.313</ele>
        <time>2021-07-20T18:12:48Z</time>
      </trkpt>
      <trkpt lat="40.62228" lon="-0.77833">
        <ele>1263.507</ele>
        <time>2021-07-20T18:12:59Z</time>
      </trkpt>
      <trkpt lat="40.62205" lon="-0.77507">
        <ele>1266.613</ele>
        <time>2021-07-20T18:13:10Z</time>
      </trkpt>
      <trkpt lat="40.62197" lon="-0.77178">
        <ele>1274.694</ele>
        <time>2021-07-20T18:13:21Z</time>
      </trkpt>
      <trkpt lat="40.6208" lon="-0.76888">
        <ele>1283.458</ele>
        <time>2021-07-20T18:13:32Z</time>
      </trkpt>
      <trkpt lat="40.61924" lon="-0.76613">
        <ele>1287.7</ele>
        <time>2021-07-20T18:13:43Z</time>
      </trkpt>
      <trkpt lat="40.61822" lon="-0.7633">
        <ele>1293.995</ele>
        <time>2021-07-20T18:13:54Z</time>
      </trkpt>
      <trkpt lat="40.61797" lon="-0.76037">
        <ele>1299.029</ele>
        <time>2021-07-20T18:14:05Z</time>
      </trkpt>
      <trkpt lat="40.61769" lon="-0.75745">
        <ele>1304.823</ele>
        <time>2021-07-20T18:14:16Z</time>
      </trkpt>
      <trkpt lat="40.61829" lon="-0.75553">
        <ele>1312.577</ele>
        <time>2021-07-20T18:14:27Z</time>
      </trkpt>
      <trkpt lat="40.62037" lon="-0.75508">
        <ele>1307.906</ele>
        <time>2021-07-20T18:14:38Z</time>
      </trkpt>
      <trkpt lat="40.62253" lon="-0.75594">
        <ele>1307.251</ele>
        <time>2021-07-20T18:14:49Z</time>
      </trkpt>
      <trkpt lat="40.62466" lon="-0.75655">
        <ele>1309.23</ele>
        <time>2021-07-20T18:15:00Z</time>
      </trkpt>
      <trkpt lat="40.62709" lon="-0.75695">
        <ele>1312.6</ele>
        <time>2021-07-20T18:15:11Z</time>
      </trkpt>
      <trkpt lat="40.62944" lon="-0.757">
        <ele>1314.12</ele>
        <time>2021-07-20T18:15:22Z</time>
      </trkpt>
      <trkpt lat="40.63133" lon="-0.75565">
        <ele>1311.94</ele>
        <time>2021-07-20T18:15:33Z</time>
      </trkpt>
      <trkpt lat="40.63326" lon="-0.7534">
        <ele>1305.81</ele>
        <time>2021-07-20T18:15:44Z</time>
      </trkpt>
      <trkpt lat="40.63513" lon="-0.75122">
        <ele>1307.113</ele>
        <time>2021-07-20T18:15:55Z</time>
      </trkpt>
      <trkpt lat="40.63635" lon="-0.75033">
        <ele>1304.679</ele>
        <time>2021-07-20T18:16:06Z</time>
      </trkpt>
      <trkpt lat="40.63771" lon="-0.74991">
        <ele>1302.577</ele>
        <time>2021-07-20T18:16:17Z</time>
      </trkpt>
      <trkpt lat="40.6391" lon="-0.74902">
        <ele>1305.394</ele>
        <time>2021-07-20T18:16:28Z</time>
      </trkpt>
      <trkpt lat="40.6405" lon="-0.74679">
        <ele>1300.659</ele>
        <time>2021-07-20T18:16:39Z</time>
      </trkpt>
      <trkpt lat="40.64146" lon="-0.74608">
        <ele>1304.746</ele>
        <time>2021-07-20T18:16:50Z</time>
      </trkpt>
      <trkpt lat="40.64309" lon="-0.7444">
        <ele>1304.603</ele>
        <time>2021-07-20T18:17:01Z</time>
      </trkpt>
      <trkpt lat="40.64467" lon="-0.74263">
        <ele>1308.03</ele>
        <time>2021-07-20T18:17:12Z</time>
      </trkpt>
      <trkpt lat="40.64604" lon="-0.74034">
        <ele>1296.464</ele>
        <time>2021-07-20T18:17:23Z</time>
      </trkpt>
      <trkpt lat="40.64713" lon="-0.73937">
        <ele>1295.242</ele>
        <time>2021-07-20T18:17:34Z</time>
      </trkpt>
      <trkpt lat="40.64865" lon="-0.73876">
        <ele>1290.811</ele>
        <time>2021-07-20T18:17:45Z</time>
      </trkpt>
      <trkpt lat="40.65026" lon="-0.73681">
        <ele>1284.802</ele>
        <time>2021-07-20T18:17:56Z</time>
      </trkpt>
      <trkpt lat="40.65157" lon="-0.73531">
        <ele>1279.284</ele>
        <time>2021-07-20T18:18:07Z</time>
      </trkpt>
      <trkpt lat="40.65292" lon="-0.73458">
        <ele>1271.695</ele>
        <time>2021-07-20T18:18:18Z</time>
      </trkpt>
      <trkpt lat="40.65325" lon="-0.73394">
        <ele>1271.334</ele>
        <time>2021-07-20T18:18:29Z</time>
      </trkpt>
      <trkpt lat="40.65379" lon="-0.73185">
        <ele>1278.888</ele>
        <time>2021-07-20T18:18:40Z</time>
      </trkpt>
      <trkpt lat="40.65444" lon="-0.7301">
        <ele>1286.391</ele>
        <time>2021-07-20T18:18:51Z</time>
      </trkpt>
      <trkpt lat="40.6556" lon="-0.72885">
        <ele>1294.416</ele>
        <time>2021-07-20T18:19:02Z</time>
      </trkpt>
      <trkpt lat="40.65612" lon="-0.7275">
        <ele>1301.03</ele>
        <time>2021-07-20T18:19:13Z</time>
      </trkpt>
      <trkpt lat="40.65704" lon="-0.72683">
        <ele>1306.69</ele>
        <time>2021-07-20T18:19:24Z</time>
      </trkpt>
      <trkpt lat="40.65788" lon="-0.72596">
        <ele>1308.175</ele>
        <time>2021-07-20T18:19:35Z</time>
      </trkpt>
      <trkpt lat="40.65938" lon="-0.72471">
        <ele>1318.315</ele>
        <time>2021-07-20T18:19:46Z</time>
      </trkpt>
      <trkpt lat="40.66069" lon="-0.72277">
        <ele>1330.897</ele>
        <time>2021-07-20T18:19:57Z</time>
      </trkpt>
      <trkpt lat="40.66214" lon="-0.72191">
        <ele>1320.977</ele>
        <time>2021-07-20T18:20:08Z</time>
      </trkpt>
      <trkpt lat="40.66379" lon="-0.72197">
        <ele>1307.055</ele>
        <time>2021-07-20T18:20:19Z</time>
      </trkpt>
      <trkpt lat="40.6643" lon="-0.72064">
        <ele>1293.719</ele>
        <time>2021-07-20T18:20:30Z</time>
      </trkpt>
      <trkpt lat="40.66504" lon="-0.71911">
        <ele>1282.843</ele>
        <time>2021-07-20T18:20:41Z</time>
      </trkpt>
      <trkpt lat="40.66566" lon="-0.7176">
        <ele>1274.996</ele>
        <time>2021-07-20T18:20:52Z</time>
      </trkpt>
      <trkpt lat="40.66565" lon="-0.71618">
        <ele>1265.114</ele>
        <time>2021-07-20T18:21:03Z</time>
      </trkpt>
      <trkpt lat="40.66568" lon="-0.71559">
        <ele>1258.57</ele>
        <time>2021-07-20T18:21:14Z</time>
      </trkpt>
      <trkpt lat="40.6664" lon="-0.71614">
        <ele>1248.797</ele>
        <time>2021-07-20T18:21:25Z</time>
      </trkpt>
      <trkpt lat="40.66754" lon="-0.71648">
        <ele>1236.737</ele>
        <time>2021-07-20T18:21:36Z</time>
      </trkpt>
      <trkpt lat="40.66872" lon="-0.71692">
        <ele>1223.941</ele>
        <time>2021-07-20T18:21:47Z</time>
      </trkpt>
      <trkpt lat="40.67001" lon="-0.71798">
        <ele>1214.307</ele>
        <time>2021-07-20T18:21:58Z</time>
      </trkpt>
      <trkpt lat="40.67167" lon="-0.71771">
        <ele>1201.795</ele>
        <time>2021-07-20T18:22:09Z</time>
      </trkpt>
      <trkpt lat="40.6731" lon="-0.71671">
        <ele>1190.88</ele>
        <time>2021-07-20T18:22:20Z</time>
      </trkpt>
      <trkpt lat="40.67407" lon="-0.71603">
        <ele>1182.774</ele>
        <time>2021-07-20T18:22:31Z</time>
      </trkpt>
      <trkpt lat="40.67477" lon="-0.71471">
        <ele>1175.205</ele>
        <time>2021-07-20T18:22:42Z</time>
      </trkpt>
      <trkpt lat="40.67563" lon="-0.71297">
        <ele>1168.721</ele>
        <time>2021-07-20T18:22:53Z</time>
      </trkpt>
      <trkpt lat="40.67598" lon="-0.71119">
        <ele>1160.533</ele>
        <time>2021-07-20T18:23:04Z</time>
      </trkpt>
      <trkpt lat="40.67521" lon="-0.70977">
        <ele>1152.541</ele>
        <time>2021-07-20T18:23:15Z</time>
      </trkpt>
      <trkpt lat="40.67397" lon="-0.70923">
        <ele>1142.951</ele>
        <time>2021-07-20T18:23:26Z</time>
      </trkpt>
      <trkpt lat="40.6724" lon="-0.70961">
        <ele>1134.877</ele>
        <time>2021-07-20T18:23:37Z</time>
      </trkpt>
      <trkpt lat="40.67116" lon="-0.70973">
        <ele>1127.066</ele>
        <time>2021-07-20T18:23:48Z</time>
      </trkpt>
      <trkpt lat="40.67131" lon="-0.70873">
        <ele>1121.506</ele>
        <time>2021-07-20T18:23:59Z</time>
      </trkpt>
      <trkpt lat="40.67174" lon="-0.70773">
        <ele>1123.259</ele>
        <time>2021-07-20T18:24:10Z</time>
      </trkpt>
      <trkpt lat="40.67111" lon="-0.70628">
        <ele>1123.705</ele>
        <time>2021-07-20T18:24:21Z</time>
      </trkpt>
      <trkpt lat="40.67098" lon="-0.70467">
        <ele>1119.144</ele>
        <time>2021-07-20T18:24:32Z</time>
      </trkpt>
      <trkpt lat="40.672" lon="-0.70401">
        <ele>1116.177</ele>
        <time>2021-07-20T18:24:43Z</time>
      </trkpt>
      <trkpt lat="40.673" lon="-0.7035">
        <ele>1118.341</ele>
        <time>2021-07-20T18:24:54Z</time>
      </trkpt>
      <trkpt lat="40.67392" lon="-0.70299">
        <ele>1120.079</ele>
        <time>2021-07-20T18:25:05Z</time>
      </trkpt>
      <trkpt lat="40.67453" lon="-0.70234">
        <ele>1115.758</ele>
        <time>2021-07-20T18:25:16Z</time>
      </trkpt>
      <trkpt lat="40.67434" lon="-0.70169">
        <ele>1116.154</ele>
        <time>2021-07-20T18:25:27Z</time>
      </trkpt>
      <trkpt lat="40.67416" lon="-0.70095">
        <ele>1111.187</ele>
        <time>2021-07-20T18:25:38Z</time>
      </trkpt>
      <trkpt lat="40.67332" lon="-0.70013">
        <ele>1110.536</ele>
        <time>2021-07-20T18:25:49Z</time>
      </trkpt>
      <trkpt lat="40.67324" lon="-0.69952">
        <ele>1116.315</ele>
        <time>2021-07-20T18:26:00Z</time>
      </trkpt>
      <trkpt lat="40.67275" lon="-0.69936">
        <ele>1120.029</ele>
        <time>2021-07-20T18:26:11Z</time>
      </trkpt>
      <trkpt lat="40.67265" lon="-0.6986">
        <ele>1120.519</ele>
        <time>2021-07-20T18:26:22Z</time>
      </trkpt>
      <trkpt lat="40.6727" lon="-0.69836">
        <ele>1120.295</ele>
        <time>2021-07-20T18:26:33Z</time>
      </trkpt>
      <trkpt lat="40.67282" lon="-0.69845">
        <ele>1119.841</ele>
        <time>2021-07-20T18:26:44Z</time>
      </trkpt>
      <trkpt lat="40.67282" lon="-0.69846">
        <ele>1120.986</ele>
        <time>2021-07-20T18:27:43Z</time>
      </trkpt>
      <trkpt lat="40.67282" lon="-0.69846">
        <ele>1120.871</ele>
        <time>2021-07-20T18:28:42Z</time>
      </trkpt>
      <trkpt lat="40.67282" lon="-0.69846">
        <ele>1120.871</ele>
        <time>2021-07-20T18:29:41Z</time>
      </trkpt>
      <trkpt lat="40.67282" lon="-0.69846">
        <ele>1120.871</ele>
        <time>2021-07-20T18:30:40Z</time>
      </trkpt>
      <trkpt lat="40.67282" lon="-0.69846">
        <ele>1120.871</ele>
        <time>2021-07-20T18:31:39Z</time>
      </trkpt>
      <trkpt lat="40.67283" lon="-0.69847">
        <ele>1116.112</ele>
        <time>2021-07-20T18:32:38Z</time>
      </trkpt>
      <trkpt lat="40.67286" lon="-0.69843">
        <ele>1117.507</ele>
        <time>2021-07-20T18:32:58Z</time>
      </trkpt>
      <trkpt lat="40.67283" lon="-0.69801">
        <ele>1119.196</ele>
        <time>2021-07-20T18:33:09Z</time>
      </trkpt>
      <trkpt lat="40.67287" lon="-0.69778">
        <ele>1120.015</ele>
        <time>2021-07-20T18:33:20Z</time>
      </trkpt>
      <trkpt lat="40.67289" lon="-0.69763">
        <ele>1119.949</ele>
        <time>2021-07-20T18:33:31Z</time>
      </trkpt>
      <trkpt lat="40.67295" lon="-0.69757">
        <ele>1118.986</ele>
        <time>2021-07-20T18:33:42Z</time>
      </trkpt>
      <trkpt lat="40.67295" lon="-0.69756">
        <ele>1116.147</ele>
        <time>2021-07-20T18:34:40Z</time>
      </trkpt>
      <trkpt lat="40.67296" lon="-0.69756">
        <ele>1117.279</ele>
        <time>2021-07-20T18:35:39Z</time>
      </trkpt>
      <trkpt lat="40.67293" lon="-0.69756">
        <ele>1117.242</ele>
        <time>2021-07-20T18:36:20Z</time>
      </trkpt>
      <trkpt lat="40.67296" lon="-0.69755">
        <ele>1112.5</ele>
        <time>2021-07-20T18:37:18Z</time>
      </trkpt>
      <trkpt lat="40.67292" lon="-0.69755">
        <ele>1109.843</ele>
        <time>2021-07-20T18:37:44Z</time>
      </trkpt>
      <trkpt lat="40.67293" lon="-0.6975">
        <ele>1113.919</ele>
        <time>2021-07-20T18:38:33Z</time>
      </trkpt>
      <trkpt lat="40.67289" lon="-0.69752">
        <ele>1112.316</ele>
        <time>2021-07-20T18:39:19Z</time>
      </trkpt>
      <trkpt lat="40.67293" lon="-0.69754">
        <ele>1112.424</ele>
        <time>2021-07-20T18:39:35Z</time>
      </trkpt>
      <trkpt lat="40.67297" lon="-0.69754">
        <ele>1111.41</ele>
        <time>2021-07-20T18:39:46Z</time>
      </trkpt>
      <trkpt lat="40.67294" lon="-0.69751">
        <ele>1110.851</ele>
        <time>2021-07-20T18:39:58Z</time>
      </trkpt>
      <trkpt lat="40.67291" lon="-0.69753">
        <ele>1112.833</ele>
        <time>2021-07-20T18:40:19Z</time>
      </trkpt>
      <trkpt lat="40.67292" lon="-0.69758">
        <ele>1112.201</ele>
        <time>2021-07-20T18:41:12Z</time>
      </trkpt>
      <trkpt lat="40.67292" lon="-0.69753">
        <ele>1111.657</ele>
        <time>2021-07-20T18:41:27Z</time>
      </trkpt>
      <trkpt lat="40.67294" lon="-0.69757">
        <ele>1111.99</ele>
        <time>2021-07-20T18:42:17Z</time>
      </trkpt>
      <trkpt lat="40.67298" lon="-0.69754">
        <ele>1111.716</ele>
        <time>2021-07-20T18:43:04Z</time>
      </trkpt>
      <trkpt lat="40.67292" lon="-0.69753">
        <ele>1111.897</ele>
        <time>2021-07-20T18:43:17Z</time>
      </trkpt>
      <trkpt lat="40.67296" lon="-0.69752">
        <ele>1112.391</ele>
        <time>2021-07-20T18:43:46Z</time>
      </trkpt>
      <trkpt lat="40.67292" lon="-0.69752">
        <ele>1112.572</ele>
        <time>2021-07-20T18:43:57Z</time>
      </trkpt>
      <trkpt lat="40.67289" lon="-0.69755">
        <ele>1112.919</ele>
        <time>2021-07-20T18:44:25Z</time>
      </trkpt>
    </trkseg>
  </trk>
  <trk>
    <name><![CDATA[Road trip fait P/E_14]]></name>
    <extensions>
      <line xmlns="http://www.topografix.com/GPX/gpx_style/0/2">
        <color>000088</color>
        <width>4</width>
      </line>
    </extensions>
    <trkseg>
      <trkpt lat="40.67304" lon="-0.69758">
        <ele>1111.346</ele>
        <time>2021-07-21T07:42:26Z</time>
      </trkpt>
      <trkpt lat="40.67304" lon="-0.69758">
        <ele>1111.346</ele>
        <time>2021-07-21T07:42:26Z</time>
      </trkpt>
      <trkpt lat="40.67297" lon="-0.6976">
        <ele>1112.4</ele>
        <time>2021-07-21T07:42:50Z</time>
      </trkpt>
      <trkpt lat="40.67296" lon="-0.69761">
        <ele>1112.817</ele>
        <time>2021-07-21T07:43:50Z</time>
      </trkpt>
      <trkpt lat="40.67296" lon="-0.69762">
        <ele>1113.794</ele>
        <time>2021-07-21T07:44:50Z</time>
      </trkpt>
      <trkpt lat="40.67296" lon="-0.69762">
        <ele>1113.794</ele>
        <time>2021-07-21T07:45:50Z</time>
      </trkpt>
      <trkpt lat="40.67296" lon="-0.69762">
        <ele>1113.794</ele>
        <time>2021-07-21T07:46:50Z</time>
      </trkpt>
      <trkpt lat="40.67298" lon="-0.6976">
        <ele>1113.181</ele>
        <time>2021-07-21T07:47:50Z</time>
      </trkpt>
      <trkpt lat="40.673" lon="-0.69763">
        <ele>1112.433</ele>
        <time>2021-07-21T07:48:50Z</time>
      </trkpt>
      <trkpt lat="40.67297" lon="-0.69762">
        <ele>1111.509</ele>
        <time>2021-07-21T07:49:49Z</time>
      </trkpt>
      <trkpt lat="40.67297" lon="-0.69762">
        <ele>1111.509</ele>
        <time>2021-07-21T07:50:48Z</time>
      </trkpt>
      <trkpt lat="40.67298" lon="-0.6976">
        <ele>1112.202</ele>
        <time>2021-07-21T07:51:47Z</time>
      </trkpt>
      <trkpt lat="40.67299" lon="-0.69761">
        <ele>1112.839</ele>
        <time>2021-07-21T07:52:46Z</time>
      </trkpt>
      <trkpt lat="40.67299" lon="-0.6976">
        <ele>1112.494</ele>
        <time>2021-07-21T07:53:45Z</time>
      </trkpt>
      <trkpt lat="40.67299" lon="-0.6976">
        <ele>1112.494</ele>
        <time>2021-07-21T07:54:44Z</time>
      </trkpt>
      <trkpt lat="40.673" lon="-0.69762">
        <ele>1112.547</ele>
        <time>2021-07-21T07:55:43Z</time>
      </trkpt>
      <trkpt lat="40.67304" lon="-0.69806">
        <ele>1111.106</ele>
        <time>2021-07-21T07:55:54Z</time>
      </trkpt>
      <trkpt lat="40.67302" lon="-0.69836">
        <ele>1112.04</ele>
        <time>2021-07-21T07:56:05Z</time>
      </trkpt>
      <trkpt lat="40.67302" lon="-0.69843">
        <ele>1111.984</ele>
        <time>2021-07-21T07:56:24Z</time>
      </trkpt>
      <trkpt lat="40.67278" lon="-0.69846">
        <ele>1109.829</ele>
        <time>2021-07-21T07:56:35Z</time>
      </trkpt>
      <trkpt lat="40.67266" lon="-0.69925">
        <ele>1107.525</ele>
        <time>2021-07-21T07:56:46Z</time>
      </trkpt>
      <trkpt lat="40.6732" lon="-0.69928">
        <ele>1108.902</ele>
        <time>2021-07-21T07:56:57Z</time>
      </trkpt>
      <trkpt lat="40.67326" lon="-0.69991">
        <ele>1106.997</ele>
        <time>2021-07-21T07:57:08Z</time>
      </trkpt>
      <trkpt lat="40.67396" lon="-0.70069">
        <ele>1104.277</ele>
        <time>2021-07-21T07:57:19Z</time>
      </trkpt>
      <trkpt lat="40.6743" lon="-0.70157">
        <ele>1106.327</ele>
        <time>2021-07-21T07:57:30Z</time>
      </trkpt>
      <trkpt lat="40.67453" lon="-0.70236">
        <ele>1108.997</ele>
        <time>2021-07-21T07:57:41Z</time>
      </trkpt>
      <trkpt lat="40.67398" lon="-0.70302">
        <ele>1109.989</ele>
        <time>2021-07-21T07:57:52Z</time>
      </trkpt>
      <trkpt lat="40.67279" lon="-0.70366">
        <ele>1111.202</ele>
        <time>2021-07-21T07:58:03Z</time>
      </trkpt>
      <trkpt lat="40.67168" lon="-0.70422">
        <ele>1111.948</ele>
        <time>2021-07-21T07:58:14Z</time>
      </trkpt>
      <trkpt lat="40.6716" lon="-0.70425">
        <ele>1111.75</ele>
        <time>2021-07-21T07:58:25Z</time>
      </trkpt>
      <trkpt lat="40.67166" lon="-0.70422">
        <ele>1111.643</ele>
        <time>2021-07-21T07:58:36Z</time>
      </trkpt>
      <trkpt lat="40.6717" lon="-0.7042">
        <ele>1111.397</ele>
        <time>2021-07-21T07:58:48Z</time>
      </trkpt>
      <trkpt lat="40.67167" lon="-0.70416">
        <ele>1111.708</ele>
        <time>2021-07-21T07:59:19Z</time>
      </trkpt>
      <trkpt lat="40.67167" lon="-0.70416">
        <ele>1110.941</ele>
        <time>2021-07-21T08:00:19Z</time>
      </trkpt>
      <trkpt lat="40.67167" lon="-0.70416">
        <ele>1110.941</ele>
        <time>2021-07-21T08:01:19Z</time>
      </trkpt>
      <trkpt lat="40.67164" lon="-0.70411">
        <ele>1111.293</ele>
        <time>2021-07-21T08:01:30Z</time>
      </trkpt>
      <trkpt lat="40.6715" lon="-0.70421">
        <ele>1112.005</ele>
        <time>2021-07-21T08:01:41Z</time>
      </trkpt>
      <trkpt lat="40.67151" lon="-0.70424">
        <ele>1111.77</ele>
        <time>2021-07-21T08:02:41Z</time>
      </trkpt>
      <trkpt lat="40.6715" lon="-0.70429">
        <ele>1112.287</ele>
        <time>2021-07-21T08:03:17Z</time>
      </trkpt>
      <trkpt lat="40.6715" lon="-0.7043">
        <ele>1112.36</ele>
        <time>2021-07-21T08:04:17Z</time>
      </trkpt>
      <trkpt lat="40.6715" lon="-0.7043">
        <ele>1112.36</ele>
        <time>2021-07-21T08:05:17Z</time>
      </trkpt>
      <trkpt lat="40.67153" lon="-0.70426">
        <ele>1113.385</ele>
        <time>2021-07-21T08:06:15Z</time>
      </trkpt>
      <trkpt lat="40.67243" lon="-0.70384">
        <ele>1112.94</ele>
        <time>2021-07-21T08:06:26Z</time>
      </trkpt>
      <trkpt lat="40.67348" lon="-0.70323">
        <ele>1110.335</ele>
        <time>2021-07-21T08:06:37Z</time>
      </trkpt>
      <trkpt lat="40.67448" lon="-0.70257">
        <ele>1107.987</ele>
        <time>2021-07-21T08:06:48Z</time>
      </trkpt>
      <trkpt lat="40.67468" lon="-0.70232">
        <ele>1107.699</ele>
        <time>2021-07-21T08:06:59Z</time>
      </trkpt>
      <trkpt lat="40.67561" lon="-0.70086">
        <ele>1109.604</ele>
        <time>2021-07-21T08:07:10Z</time>
      </trkpt>
      <trkpt lat="40.67673" lon="-0.69995">
        <ele>1107.821</ele>
        <time>2021-07-21T08:07:21Z</time>
      </trkpt>
      <trkpt lat="40.67847" lon="-0.69923">
        <ele>1110.296</ele>
        <time>2021-07-21T08:07:32Z</time>
      </trkpt>
      <trkpt lat="40.68015" lon="-0.69828">
        <ele>1110.543</ele>
        <time>2021-07-21T08:07:43Z</time>
      </trkpt>
      <trkpt lat="40.68058" lon="-0.69625">
        <ele>1104.598</ele>
        <time>2021-07-21T08:07:54Z</time>
      </trkpt>
      <trkpt lat="40.68101" lon="-0.69466">
        <ele>1101.206</ele>
        <time>2021-07-21T08:08:05Z</time>
      </trkpt>
      <trkpt lat="40.68022" lon="-0.69319">
        <ele>1108.866</ele>
        <time>2021-07-21T08:08:16Z</time>
      </trkpt>
      <trkpt lat="40.68052" lon="-0.69152">
        <ele>1104.975</ele>
        <time>2021-07-21T08:08:27Z</time>
      </trkpt>
      <trkpt lat="40.68179" lon="-0.69057">
        <ele>1100.261</ele>
        <time>2021-07-21T08:08:38Z</time>
      </trkpt>
      <trkpt lat="40.6817" lon="-0.68906">
        <ele>1102.446</ele>
        <time>2021-07-21T08:08:49Z</time>
      </trkpt>
      <trkpt lat="40.68073" lon="-0.68672">
        <ele>1102.183</ele>
        <time>2021-07-21T08:09:00Z</time>
      </trkpt>
      <trkpt lat="40.68009" lon="-0.6848">
        <ele>1108.002</ele>
        <time>2021-07-21T08:09:11Z</time>
      </trkpt>
      <trkpt lat="40.68119" lon="-0.68482">
        <ele>1105.483</ele>
        <time>2021-07-21T08:09:22Z</time>
      </trkpt>
      <trkpt lat="40.68289" lon="-0.6837">
        <ele>1117.321</ele>
        <time>2021-07-21T08:09:33Z</time>
      </trkpt>
      <trkpt lat="40.68411" lon="-0.68319">
        <ele>1102.997</ele>
        <time>2021-07-21T08:09:44Z</time>
      </trkpt>
      <trkpt lat="40.68484" lon="-0.6815">
        <ele>1103.307</ele>
        <time>2021-07-21T08:09:55Z</time>
      </trkpt>
      <trkpt lat="40.68624" lon="-0.67998">
        <ele>1111.284</ele>
        <time>2021-07-21T08:10:06Z</time>
      </trkpt>
      <trkpt lat="40.68743" lon="-0.678">
        <ele>1118.615</ele>
        <time>2021-07-21T08:10:17Z</time>
      </trkpt>
      <trkpt lat="40.68914" lon="-0.67741">
        <ele>1110.902</ele>
        <time>2021-07-21T08:10:28Z</time>
      </trkpt>
      <trkpt lat="40.69073" lon="-0.67734">
        <ele>1100.624</ele>
        <time>2021-07-21T08:10:39Z</time>
      </trkpt>
      <trkpt lat="40.69247" lon="-0.67753">
        <ele>1092.223</ele>
        <time>2021-07-21T08:10:50Z</time>
      </trkpt>
      <trkpt lat="40.69427" lon="-0.67687">
        <ele>1082.385</ele>
        <time>2021-07-21T08:11:01Z</time>
      </trkpt>
      <trkpt lat="40.69614" lon="-0.67746">
        <ele>1071.005</ele>
        <time>2021-07-21T08:11:12Z</time>
      </trkpt>
      <trkpt lat="40.6977" lon="-0.67608">
        <ele>1059.276</ele>
        <time>2021-07-21T08:11:23Z</time>
      </trkpt>
      <trkpt lat="40.69882" lon="-0.6766">
        <ele>1058.925</ele>
        <time>2021-07-21T08:11:34Z</time>
      </trkpt>
      <trkpt lat="40.69877" lon="-0.6784">
        <ele>1040.677</ele>
        <time>2021-07-21T08:11:45Z</time>
      </trkpt>
      <trkpt lat="40.70069" lon="-0.67817">
        <ele>1032.717</ele>
        <time>2021-07-21T08:11:56Z</time>
      </trkpt>
      <trkpt lat="40.70228" lon="-0.67778">
        <ele>1021.98</ele>
        <time>2021-07-21T08:12:07Z</time>
      </trkpt>
      <trkpt lat="40.70177" lon="-0.67545">
        <ele>1018.08</ele>
        <time>2021-07-21T08:12:18Z</time>
      </trkpt>
      <trkpt lat="40.70142" lon="-0.67204">
        <ele>1008.138</ele>
        <time>2021-07-21T08:12:29Z</time>
      </trkpt>
      <trkpt lat="40.70109" lon="-0.66895">
        <ele>999.8676</ele>
        <time>2021-07-21T08:12:40Z</time>
      </trkpt>
      <trkpt lat="40.70177" lon="-0.66768">
        <ele>989.7452</ele>
        <time>2021-07-21T08:12:51Z</time>
      </trkpt>
      <trkpt lat="40.70269" lon="-0.66729">
        <ele>982.9295</ele>
        <time>2021-07-21T08:13:02Z</time>
      </trkpt>
      <trkpt lat="40.70318" lon="-0.66671">
        <ele>986.2025</ele>
        <time>2021-07-21T08:13:13Z</time>
      </trkpt>
      <trkpt lat="40.70354" lon="-0.66642">
        <ele>991.975</ele>
        <time>2021-07-21T08:13:24Z</time>
      </trkpt>
      <trkpt lat="40.70343" lon="-0.66643">
        <ele>991.0301</ele>
        <time>2021-07-21T08:13:35Z</time>
      </trkpt>
      <trkpt lat="40.703" lon="-0.66727">
        <ele>993.0403</ele>
        <time>2021-07-21T08:13:46Z</time>
      </trkpt>
      <trkpt lat="40.70173" lon="-0.6677">
        <ele>998.2042</ele>
        <time>2021-07-21T08:13:57Z</time>
      </trkpt>
      <trkpt lat="40.70113" lon="-0.66867">
        <ele>996.8813</ele>
        <time>2021-07-21T08:14:08Z</time>
      </trkpt>
      <trkpt lat="40.70097" lon="-0.66888">
        <ele>996.72</ele>
        <time>2021-07-21T08:14:19Z</time>
      </trkpt>
      <trkpt lat="40.70057" lon="-0.66694">
        <ele>987.9934</ele>
        <time>2021-07-21T08:14:30Z</time>
      </trkpt>
      <trkpt lat="40.70067" lon="-0.66507">
        <ele>984.923</ele>
        <time>2021-07-21T08:14:41Z</time>
      </trkpt>
      <trkpt lat="40.7004" lon="-0.66376">
        <ele>975.3848</ele>
        <time>2021-07-21T08:14:52Z</time>
      </trkpt>
      <trkpt lat="40.69913" lon="-0.66234">
        <ele>973.7761</ele>
        <time>2021-07-21T08:15:03Z</time>
      </trkpt>
      <trkpt lat="40.69873" lon="-0.65989">
        <ele>974.343</ele>
        <time>2021-07-21T08:15:14Z</time>
      </trkpt>
      <trkpt lat="40.69823" lon="-0.65831">
        <ele>965.705</ele>
        <time>2021-07-21T08:15:25Z</time>
      </trkpt>
      <trkpt lat="40.6972" lon="-0.65756">
        <ele>964.4965</ele>
        <time>2021-07-21T08:15:36Z</time>
      </trkpt>
      <trkpt lat="40.69652" lon="-0.65583">
        <ele>975.5887</ele>
        <time>2021-07-21T08:15:47Z</time>
      </trkpt>
      <trkpt lat="40.69618" lon="-0.65353">
        <ele>984.6882</ele>
        <time>2021-07-21T08:15:58Z</time>
      </trkpt>
      <trkpt lat="40.69629" lon="-0.65144">
        <ele>998.5188</ele>
        <time>2021-07-21T08:16:10Z</time>
      </trkpt>
      <trkpt lat="40.69565" lon="-0.64991">
        <ele>988.8941</ele>
        <time>2021-07-21T08:16:21Z</time>
      </trkpt>
      <trkpt lat="40.69577" lon="-0.64792">
        <ele>977.6581</ele>
        <time>2021-07-21T08:16:32Z</time>
      </trkpt>
      <trkpt lat="40.69467" lon="-0.64675">
        <ele>957.9381</ele>
        <time>2021-07-21T08:16:43Z</time>
      </trkpt>
      <trkpt lat="40.69438" lon="-0.64515">
        <ele>954.3233</ele>
        <time>2021-07-21T08:16:54Z</time>
      </trkpt>
      <trkpt lat="40.69328" lon="-0.64408">
        <ele>949.747</ele>
        <time>2021-07-21T08:17:05Z</time>
      </trkpt>
      <trkpt lat="40.69244" lon="-0.64321">
        <ele>946.274</ele>
        <time>2021-07-21T08:17:16Z</time>
      </trkpt>
      <trkpt lat="40.69247" lon="-0.64136">
        <ele>948.0144</ele>
        <time>2021-07-21T08:17:27Z</time>
      </trkpt>
      <trkpt lat="40.69147" lon="-0.64017">
        <ele>945.174</ele>
        <time>2021-07-21T08:17:38Z</time>
      </trkpt>
      <trkpt lat="40.69132" lon="-0.63895">
        <ele>951.6095</ele>
        <time>2021-07-21T08:17:49Z</time>
      </trkpt>
      <trkpt lat="40.69162" lon="-0.63643">
        <ele>946.4781</ele>
        <time>2021-07-21T08:18:00Z</time>
      </trkpt>
      <trkpt lat="40.69175" lon="-0.63355">
        <ele>946.072</ele>
        <time>2021-07-21T08:18:11Z</time>
      </trkpt>
      <trkpt lat="40.69126" lon="-0.63168">
        <ele>937.5535</ele>
        <time>2021-07-21T08:18:22Z</time>
      </trkpt>
      <trkpt lat="40.6908" lon="-0.62939">
        <ele>940.7353</ele>
        <time>2021-07-21T08:18:33Z</time>
      </trkpt>
      <trkpt lat="40.69145" lon="-0.62784">
        <ele>938.5932</ele>
        <time>2021-07-21T08:18:44Z</time>
      </trkpt>
      <trkpt lat="40.69216" lon="-0.62687">
        <ele>936.4997</ele>
        <time>2021-07-21T08:18:55Z</time>
      </trkpt>
      <trkpt lat="40.69208" lon="-0.62552">
        <ele>931.0765</ele>
        <time>2021-07-21T08:19:06Z</time>
      </trkpt>
      <trkpt lat="40.69177" lon="-0.6245">
        <ele>927.5464</ele>
        <time>2021-07-21T08:19:17Z</time>
      </trkpt>
      <trkpt lat="40.69178" lon="-0.62404">
        <ele>930.9647</ele>
        <time>2021-07-21T08:19:28Z</time>
      </trkpt>
      <trkpt lat="40.69156" lon="-0.62321">
        <ele>933.7011</ele>
        <time>2021-07-21T08:19:39Z</time>
      </trkpt>
      <trkpt lat="40.69124" lon="-0.62167">
        <ele>932.5252</ele>
        <time>2021-07-21T08:19:50Z</time>
      </trkpt>
      <trkpt lat="40.69089" lon="-0.62075">
        <ele>933.6762</ele>
        <time>2021-07-21T08:20:01Z</time>
      </trkpt>
      <trkpt lat="40.69078" lon="-0.62004">
        <ele>925.12</ele>
        <time>2021-07-21T08:20:12Z</time>
      </trkpt>
      <trkpt lat="40.69052" lon="-0.61951">
        <ele>931.7041</ele>
        <time>2021-07-21T08:20:23Z</time>
      </trkpt>
      <trkpt lat="40.69063" lon="-0.61862">
        <ele>930.0084</ele>
        <time>2021-07-21T08:20:34Z</time>
      </trkpt>
      <trkpt lat="40.69055" lon="-0.61786">
        <ele>926.09</ele>
        <time>2021-07-21T08:20:45Z</time>
      </trkpt>
      <trkpt lat="40.69039" lon="-0.61656">
        <ele>919.5899</ele>
        <time>2021-07-21T08:20:56Z</time>
      </trkpt>
      <trkpt lat="40.69022" lon="-0.61524">
        <ele>916.1665</ele>
        <time>2021-07-21T08:21:07Z</time>
      </trkpt>
      <trkpt lat="40.69037" lon="-0.61434">
        <ele>917.0043</ele>
        <time>2021-07-21T08:21:18Z</time>
      </trkpt>
      <trkpt lat="40.69076" lon="-0.61419">
        <ele>933.6313</ele>
        <time>2021-07-21T08:21:29Z</time>
      </trkpt>
      <trkpt lat="40.69079" lon="-0.61422">
        <ele>944.6528</ele>
        <time>2021-07-21T08:21:41Z</time>
      </trkpt>
      <trkpt lat="40.69142" lon="-0.61462">
        <ele>937.0009</ele>
        <time>2021-07-21T08:21:52Z</time>
      </trkpt>
      <trkpt lat="40.69201" lon="-0.61453">
        <ele>936.1201</ele>
        <time>2021-07-21T08:22:03Z</time>
      </trkpt>
      <trkpt lat="40.69207" lon="-0.61474">
        <ele>953.3808</ele>
        <time>2021-07-21T08:22:14Z</time>
      </trkpt>
      <trkpt lat="40.69217" lon="-0.61462">
        <ele>956.7479</ele>
        <time>2021-07-21T08:22:27Z</time>
      </trkpt>
      <trkpt lat="40.69244" lon="-0.61475">
        <ele>958.7741</ele>
        <time>2021-07-21T08:22:38Z</time>
      </trkpt>
      <trkpt lat="40.6927" lon="-0.61495">
        <ele>958.8184</ele>
        <time>2021-07-21T08:22:49Z</time>
      </trkpt>
      <trkpt lat="40.69274" lon="-0.61495">
        <ele>957.0206</ele>
        <time>2021-07-21T08:23:25Z</time>
      </trkpt>
      <trkpt lat="40.69278" lon="-0.61493">
        <ele>957.3407</ele>
        <time>2021-07-21T08:23:50Z</time>
      </trkpt>
      <trkpt lat="40.69274" lon="-0.61495">
        <ele>956.9172</ele>
        <time>2021-07-21T08:24:15Z</time>
      </trkpt>
      <trkpt lat="40.69269" lon="-0.61492">
        <ele>956.1844</ele>
        <time>2021-07-21T08:24:30Z</time>
      </trkpt>
      <trkpt lat="40.69239" lon="-0.61479">
        <ele>951.2799</ele>
        <time>2021-07-21T08:24:41Z</time>
      </trkpt>
      <trkpt lat="40.69233" lon="-0.61481">
        <ele>950.2162</ele>
        <time>2021-07-21T08:25:34Z</time>
      </trkpt>
      <trkpt lat="40.69231" lon="-0.61477">
        <ele>949.5372</ele>
        <time>2021-07-21T08:25:52Z</time>
      </trkpt>
      <trkpt lat="40.69211" lon="-0.6147">
        <ele>946.2263</ele>
        <time>2021-07-21T08:26:03Z</time>
      </trkpt>
      <trkpt lat="40.69207" lon="-0.61472">
        <ele>944.5031</ele>
        <time>2021-07-21T08:26:14Z</time>
      </trkpt>
      <trkpt lat="40.69207" lon="-0.61472">
        <ele>944.5051</ele>
        <time>2021-07-21T08:27:14Z</time>
      </trkpt>
      <trkpt lat="40.69207" lon="-0.61472">
        <ele>944.5051</ele>
        <time>2021-07-21T08:28:14Z</time>
      </trkpt>
      <trkpt lat="40.69205" lon="-0.61471">
        <ele>943.5802</ele>
        <time>2021-07-21T08:29:14Z</time>
      </trkpt>
      <trkpt lat="40.69205" lon="-0.61471">
        <ele>943.5802</ele>
        <time>2021-07-21T08:30:14Z</time>
      </trkpt>
      <trkpt lat="40.69205" lon="-0.61471">
        <ele>943.5802</ele>
        <time>2021-07-21T08:31:14Z</time>
      </trkpt>
      <trkpt lat="40.69205" lon="-0.61471">
        <ele>943.5802</ele>
        <time>2021-07-21T08:32:14Z</time>
      </trkpt>
      <trkpt lat="40.69205" lon="-0.61471">
        <ele>943.5802</ele>
        <time>2021-07-21T08:33:13Z</time>
      </trkpt>
      <trkpt lat="40.69205" lon="-0.61471">
        <ele>943.5802</ele>
        <time>2021-07-21T08:34:13Z</time>
      </trkpt>
      <trkpt lat="40.69207" lon="-0.61472">
        <ele>943.007</ele>
        <time>2021-07-21T08:35:13Z</time>
      </trkpt>
      <trkpt lat="40.69205" lon="-0.61469">
        <ele>943.7865</ele>
        <time>2021-07-21T08:36:13Z</time>
      </trkpt>
      <trkpt lat="40.69209" lon="-0.61466">
        <ele>943.3623</ele>
        <time>2021-07-21T08:36:48Z</time>
      </trkpt>
      <trkpt lat="40.69202" lon="-0.61454">
        <ele>943.4306</ele>
        <time>2021-07-21T08:36:59Z</time>
      </trkpt>
      <trkpt lat="40.69167" lon="-0.61462">
        <ele>940.2338</ele>
        <time>2021-07-21T08:37:10Z</time>
      </trkpt>
      <trkpt lat="40.69134" lon="-0.61462">
        <ele>938.8115</ele>
        <time>2021-07-21T08:37:21Z</time>
      </trkpt>
      <trkpt lat="40.69103" lon="-0.61443">
        <ele>932.5158</ele>
        <time>2021-07-21T08:37:32Z</time>
      </trkpt>
      <trkpt lat="40.69075" lon="-0.6142">
        <ele>927.5167</ele>
        <time>2021-07-21T08:37:43Z</time>
      </trkpt>
      <trkpt lat="40.69068" lon="-0.61373">
        <ele>926.398</ele>
        <time>2021-07-21T08:37:54Z</time>
      </trkpt>
      <trkpt lat="40.69063" lon="-0.61342">
        <ele>924.4133</ele>
        <time>2021-07-21T08:38:05Z</time>
      </trkpt>
      <trkpt lat="40.69063" lon="-0.61334">
        <ele>923.1134</ele>
        <time>2021-07-21T08:38:29Z</time>
      </trkpt>
      <trkpt lat="40.6912" lon="-0.61227">
        <ele>921.0825</ele>
        <time>2021-07-21T08:38:40Z</time>
      </trkpt>
      <trkpt lat="40.69165" lon="-0.61145">
        <ele>924.5673</ele>
        <time>2021-07-21T08:38:51Z</time>
      </trkpt>
      <trkpt lat="40.69158" lon="-0.61216">
        <ele>930.4091</ele>
        <time>2021-07-21T08:39:02Z</time>
      </trkpt>
      <trkpt lat="40.69137" lon="-0.61301">
        <ele>929.5934</ele>
        <time>2021-07-21T08:39:13Z</time>
      </trkpt>
      <trkpt lat="40.69124" lon="-0.61377">
        <ele>940.3612</ele>
        <time>2021-07-21T08:39:24Z</time>
      </trkpt>
      <trkpt lat="40.69166" lon="-0.61408">
        <ele>954.6003</ele>
        <time>2021-07-21T08:39:35Z</time>
      </trkpt>
      <trkpt lat="40.69208" lon="-0.6142">
        <ele>955.6858</ele>
        <time>2021-07-21T08:39:46Z</time>
      </trkpt>
      <trkpt lat="40.69258" lon="-0.61436">
        <ele>959.0239</ele>
        <time>2021-07-21T08:39:57Z</time>
      </trkpt>
      <trkpt lat="40.69311" lon="-0.61466">
        <ele>962.8268</ele>
        <time>2021-07-21T08:40:08Z</time>
      </trkpt>
      <trkpt lat="40.69345" lon="-0.61453">
        <ele>974.2277</ele>
        <time>2021-07-21T08:40:19Z</time>
      </trkpt>
      <trkpt lat="40.69298" lon="-0.61407">
        <ele>972.6903</ele>
        <time>2021-07-21T08:40:30Z</time>
      </trkpt>
      <trkpt lat="40.69348" lon="-0.61401">
        <ele>981.4519</ele>
        <time>2021-07-21T08:40:41Z</time>
      </trkpt>
      <trkpt lat="40.69312" lon="-0.61355">
        <ele>991.2089</ele>
        <time>2021-07-21T08:40:52Z</time>
      </trkpt>
      <trkpt lat="40.6934" lon="-0.61326">
        <ele>992.5124</ele>
        <time>2021-07-21T08:41:03Z</time>
      </trkpt>
      <trkpt lat="40.69391" lon="-0.61375">
        <ele>1000.088</ele>
        <time>2021-07-21T08:41:14Z</time>
      </trkpt>
      <trkpt lat="40.69467" lon="-0.61385">
        <ele>1014.96</ele>
        <time>2021-07-21T08:41:25Z</time>
      </trkpt>
      <trkpt lat="40.6953" lon="-0.6135">
        <ele>1028.886</ele>
        <time>2021-07-21T08:41:36Z</time>
      </trkpt>
      <trkpt lat="40.69561" lon="-0.61293">
        <ele>1042.489</ele>
        <time>2021-07-21T08:41:47Z</time>
      </trkpt>
      <trkpt lat="40.69591" lon="-0.6123">
        <ele>1054.2</ele>
        <time>2021-07-21T08:41:58Z</time>
      </trkpt>
      <trkpt lat="40.69615" lon="-0.61308">
        <ele>1063.897</ele>
        <time>2021-07-21T08:42:09Z</time>
      </trkpt>
      <trkpt lat="40.69703" lon="-0.61305">
        <ele>1071.9</ele>
        <time>2021-07-21T08:42:20Z</time>
      </trkpt>
      <trkpt lat="40.69752" lon="-0.61335">
        <ele>1086.441</ele>
        <time>2021-07-21T08:42:31Z</time>
      </trkpt>
      <trkpt lat="40.69805" lon="-0.61357">
        <ele>1098.796</ele>
        <time>2021-07-21T08:42:42Z</time>
      </trkpt>
      <trkpt lat="40.69866" lon="-0.61369">
        <ele>1099.834</ele>
        <time>2021-07-21T08:42:53Z</time>
      </trkpt>
      <trkpt lat="40.69924" lon="-0.61367">
        <ele>1111.789</ele>
        <time>2021-07-21T08:43:04Z</time>
      </trkpt>
      <trkpt lat="40.6996" lon="-0.61399">
        <ele>1120.242</ele>
        <time>2021-07-21T08:43:15Z</time>
      </trkpt>
      <trkpt lat="40.70005" lon="-0.6144">
        <ele>1128.264</ele>
        <time>2021-07-21T08:43:26Z</time>
      </trkpt>
      <trkpt lat="40.70015" lon="-0.61464">
        <ele>1132.373</ele>
        <time>2021-07-21T08:43:37Z</time>
      </trkpt>
      <trkpt lat="40.70013" lon="-0.61467">
        <ele>1131.841</ele>
        <time>2021-07-21T08:44:37Z</time>
      </trkpt>
      <trkpt lat="40.70017" lon="-0.61471">
        <ele>1132.919</ele>
        <time>2021-07-21T08:45:27Z</time>
      </trkpt>
      <trkpt lat="40.70016" lon="-0.61539">
        <ele>1140.57</ele>
        <time>2021-07-21T08:45:38Z</time>
      </trkpt>
      <trkpt lat="40.69993" lon="-0.61599">
        <ele>1149.276</ele>
        <time>2021-07-21T08:45:49Z</time>
      </trkpt>
      <trkpt lat="40.69995" lon="-0.61666">
        <ele>1156.23</ele>
        <time>2021-07-21T08:46:00Z</time>
      </trkpt>
      <trkpt lat="40.7004" lon="-0.6173">
        <ele>1169.31</ele>
        <time>2021-07-21T08:46:11Z</time>
      </trkpt>
      <trkpt lat="40.70082" lon="-0.61795">
        <ele>1180.024</ele>
        <time>2021-07-21T08:46:22Z</time>
      </trkpt>
      <trkpt lat="40.70107" lon="-0.6186">
        <ele>1194.16</ele>
        <time>2021-07-21T08:46:33Z</time>
      </trkpt>
      <trkpt lat="40.70151" lon="-0.61914">
        <ele>1209.667</ele>
        <time>2021-07-21T08:46:44Z</time>
      </trkpt>
      <trkpt lat="40.70188" lon="-0.61949">
        <ele>1220.836</ele>
        <time>2021-07-21T08:46:55Z</time>
      </trkpt>
      <trkpt lat="40.70236" lon="-0.61992">
        <ele>1237.571</ele>
        <time>2021-07-21T08:47:06Z</time>
      </trkpt>
      <trkpt lat="40.70272" lon="-0.62039">
        <ele>1252.375</ele>
        <time>2021-07-21T08:47:17Z</time>
      </trkpt>
      <trkpt lat="40.70278" lon="-0.62049">
        <ele>1253.645</ele>
        <time>2021-07-21T08:47:28Z</time>
      </trkpt>
      <trkpt lat="40.7028" lon="-0.62055">
        <ele>1254.005</ele>
        <time>2021-07-21T08:47:40Z</time>
      </trkpt>
      <trkpt lat="40.70285" lon="-0.62053">
        <ele>1254.817</ele>
        <time>2021-07-21T08:48:13Z</time>
      </trkpt>
      <trkpt lat="40.70282" lon="-0.62057">
        <ele>1255.234</ele>
        <time>2021-07-21T08:49:07Z</time>
      </trkpt>
      <trkpt lat="40.70281" lon="-0.62063">
        <ele>1253.618</ele>
        <time>2021-07-21T08:50:05Z</time>
      </trkpt>
      <trkpt lat="40.7028" lon="-0.62056">
        <ele>1253.967</ele>
        <time>2021-07-21T08:50:16Z</time>
      </trkpt>
      <trkpt lat="40.70281" lon="-0.62051">
        <ele>1253.986</ele>
        <time>2021-07-21T08:50:28Z</time>
      </trkpt>
      <trkpt lat="40.7028" lon="-0.62056">
        <ele>1252.18</ele>
        <time>2021-07-21T08:50:59Z</time>
      </trkpt>
      <trkpt lat="40.70278" lon="-0.62054">
        <ele>1253.074</ele>
        <time>2021-07-21T08:51:59Z</time>
      </trkpt>
      <trkpt lat="40.70276" lon="-0.6206">
        <ele>1253.254</ele>
        <time>2021-07-21T08:52:17Z</time>
      </trkpt>
      <trkpt lat="40.70281" lon="-0.62055">
        <ele>1254.41</ele>
        <time>2021-07-21T08:52:29Z</time>
      </trkpt>
      <trkpt lat="40.70282" lon="-0.62059">
        <ele>1254.239</ele>
        <time>2021-07-21T08:53:28Z</time>
      </trkpt>
      <trkpt lat="40.70287" lon="-0.62065">
        <ele>1254.989</ele>
        <time>2021-07-21T08:53:42Z</time>
      </trkpt>
      <trkpt lat="40.70323" lon="-0.62101">
        <ele>1268.754</ele>
        <time>2021-07-21T08:53:53Z</time>
      </trkpt>
      <trkpt lat="40.70364" lon="-0.62111">
        <ele>1280.657</ele>
        <time>2021-07-21T08:54:04Z</time>
      </trkpt>
      <trkpt lat="40.70411" lon="-0.62135">
        <ele>1290.16</ele>
        <time>2021-07-21T08:54:15Z</time>
      </trkpt>
      <trkpt lat="40.70465" lon="-0.62153">
        <ele>1297.644</ele>
        <time>2021-07-21T08:54:26Z</time>
      </trkpt>
      <trkpt lat="40.70505" lon="-0.62163">
        <ele>1301.55</ele>
        <time>2021-07-21T08:54:37Z</time>
      </trkpt>
      <trkpt lat="40.70506" lon="-0.62165">
        <ele>1302.037</ele>
        <time>2021-07-21T08:55:37Z</time>
      </trkpt>
      <trkpt lat="40.70504" lon="-0.62164">
        <ele>1301.879</ele>
        <time>2021-07-21T10:49:47Z</time>
      </trkpt>
      <trkpt lat="40.70503" lon="-0.62164">
        <ele>1301.385</ele>
        <time>2021-07-21T10:50:46Z</time>
      </trkpt>
      <trkpt lat="40.70503" lon="-0.62164">
        <ele>1301.358</ele>
        <time>2021-07-21T10:51:45Z</time>
      </trkpt>
      <trkpt lat="40.70503" lon="-0.62162">
        <ele>1302.03</ele>
        <time>2021-07-21T10:52:44Z</time>
      </trkpt>
      <trkpt lat="40.70503" lon="-0.62162">
        <ele>1302.03</ele>
        <time>2021-07-21T10:53:43Z</time>
      </trkpt>
      <trkpt lat="40.70506" lon="-0.62165">
        <ele>1301.996</ele>
        <time>2021-07-21T10:54:42Z</time>
      </trkpt>
      <trkpt lat="40.70506" lon="-0.62165">
        <ele>1301.996</ele>
        <time>2021-07-21T10:55:42Z</time>
      </trkpt>
      <trkpt lat="40.70505" lon="-0.62163">
        <ele>1301.666</ele>
        <time>2021-07-21T10:56:41Z</time>
      </trkpt>
      <trkpt lat="40.70501" lon="-0.62161">
        <ele>1302.086</ele>
        <time>2021-07-21T10:57:13Z</time>
      </trkpt>
      <trkpt lat="40.70496" lon="-0.62159">
        <ele>1301.834</ele>
        <time>2021-07-21T10:57:24Z</time>
      </trkpt>
      <trkpt lat="40.70501" lon="-0.62162">
        <ele>1301.365</ele>
        <time>2021-07-21T10:57:42Z</time>
      </trkpt>
      <trkpt lat="40.70497" lon="-0.6216">
        <ele>1302.046</ele>
        <time>2021-07-21T10:57:56Z</time>
      </trkpt>
      <trkpt lat="40.705" lon="-0.62162">
        <ele>1302.602</ele>
        <time>2021-07-21T10:58:09Z</time>
      </trkpt>
      <trkpt lat="40.70504" lon="-0.62162">
        <ele>1301.555</ele>
        <time>2021-07-21T10:59:07Z</time>
      </trkpt>
      <trkpt lat="40.70507" lon="-0.62164">
        <ele>1301.04</ele>
        <time>2021-07-21T11:00:01Z</time>
      </trkpt>
      <trkpt lat="40.70504" lon="-0.62162">
        <ele>1301.99</ele>
        <time>2021-07-21T11:00:42Z</time>
      </trkpt>
      <trkpt lat="40.70503" lon="-0.62163">
        <ele>1300.626</ele>
        <time>2021-07-21T11:01:40Z</time>
      </trkpt>
      <trkpt lat="40.70504" lon="-0.62164">
        <ele>1301.69</ele>
        <time>2021-07-21T11:02:39Z</time>
      </trkpt>
      <trkpt lat="40.70503" lon="-0.62164">
        <ele>1301.464</ele>
        <time>2021-07-21T11:03:38Z</time>
      </trkpt>
      <trkpt lat="40.70501" lon="-0.62164">
        <ele>1300.625</ele>
        <time>2021-07-21T11:04:37Z</time>
      </trkpt>
      <trkpt lat="40.70507" lon="-0.62165">
        <ele>1301.647</ele>
        <time>2021-07-21T11:05:32Z</time>
      </trkpt>
      <trkpt lat="40.70556" lon="-0.62172">
        <ele>1304.177</ele>
        <time>2021-07-21T11:05:43Z</time>
      </trkpt>
      <trkpt lat="40.70629" lon="-0.62184">
        <ele>1310.184</ele>
        <time>2021-07-21T11:05:54Z</time>
      </trkpt>
      <trkpt lat="40.70644" lon="-0.6215">
        <ele>1319.047</ele>
        <time>2021-07-21T11:06:05Z</time>
      </trkpt>
      <trkpt lat="40.70587" lon="-0.62083">
        <ele>1325.702</ele>
        <time>2021-07-21T11:06:16Z</time>
      </trkpt>
      <trkpt lat="40.70593" lon="-0.62038">
        <ele>1334.872</ele>
        <time>2021-07-21T11:06:27Z</time>
      </trkpt>
      <trkpt lat="40.70634" lon="-0.62025">
        <ele>1340.396</ele>
        <time>2021-07-21T11:06:38Z</time>
      </trkpt>
      <trkpt lat="40.70597" lon="-0.61979">
        <ele>1347.26</ele>
        <time>2021-07-21T11:06:49Z</time>
      </trkpt>
      <trkpt lat="40.70556" lon="-0.61904">
        <ele>1353.774</ele>
        <time>2021-07-21T11:07:00Z</time>
      </trkpt>
      <trkpt lat="40.7057" lon="-0.61859">
        <ele>1352.365</ele>
        <time>2021-07-21T11:07:11Z</time>
      </trkpt>
      <trkpt lat="40.70621" lon="-0.61828">
        <ele>1349.777</ele>
        <time>2021-07-21T11:07:22Z</time>
      </trkpt>
      <trkpt lat="40.70692" lon="-0.618">
        <ele>1350.24</ele>
        <time>2021-07-21T11:07:33Z</time>
      </trkpt>
      <trkpt lat="40.70753" lon="-0.61771">
        <ele>1358.676</ele>
        <time>2021-07-21T11:07:44Z</time>
      </trkpt>
      <trkpt lat="40.70843" lon="-0.61756">
        <ele>1364.689</ele>
        <time>2021-07-21T11:07:55Z</time>
      </trkpt>
      <trkpt lat="40.70896" lon="-0.61717">
        <ele>1373.381</ele>
        <time>2021-07-21T11:08:06Z</time>
      </trkpt>
      <trkpt lat="40.70945" lon="-0.61773">
        <ele>1386.219</ele>
        <time>2021-07-21T11:08:17Z</time>
      </trkpt>
      <trkpt lat="40.71018" lon="-0.61801">
        <ele>1401.917</ele>
        <time>2021-07-21T11:08:28Z</time>
      </trkpt>
      <trkpt lat="40.71094" lon="-0.61821">
        <ele>1411.409</ele>
        <time>2021-07-21T11:08:39Z</time>
      </trkpt>
      <trkpt lat="40.71181" lon="-0.61835">
        <ele>1413.782</ele>
        <time>2021-07-21T11:08:50Z</time>
      </trkpt>
      <trkpt lat="40.71273" lon="-0.61856">
        <ele>1415.608</ele>
        <time>2021-07-21T11:09:01Z</time>
      </trkpt>
      <trkpt lat="40.71379" lon="-0.61852">
        <ele>1439.58</ele>
        <time>2021-07-21T11:09:12Z</time>
      </trkpt>
      <trkpt lat="40.71451" lon="-0.61818">
        <ele>1443.308</ele>
        <time>2021-07-21T11:09:23Z</time>
      </trkpt>
      <trkpt lat="40.71507" lon="-0.61783">
        <ele>1449.494</ele>
        <time>2021-07-21T11:09:34Z</time>
      </trkpt>
      <trkpt lat="40.71587" lon="-0.61746">
        <ele>1459.092</ele>
        <time>2021-07-21T11:09:45Z</time>
      </trkpt>
      <trkpt lat="40.71631" lon="-0.61723">
        <ele>1452.581</ele>
        <time>2021-07-21T11:09:56Z</time>
      </trkpt>
      <trkpt lat="40.71722" lon="-0.61729">
        <ele>1454.236</ele>
        <time>2021-07-21T11:10:07Z</time>
      </trkpt>
      <trkpt lat="40.71829" lon="-0.61726">
        <ele>1455.349</ele>
        <time>2021-07-21T11:10:18Z</time>
      </trkpt>
      <trkpt lat="40.71904" lon="-0.61705">
        <ele>1448.659</ele>
        <time>2021-07-21T11:10:29Z</time>
      </trkpt>
      <trkpt lat="40.71986" lon="-0.61678">
        <ele>1440.707</ele>
        <time>2021-07-21T11:10:40Z</time>
      </trkpt>
      <trkpt lat="40.72062" lon="-0.61659">
        <ele>1433.325</ele>
        <time>2021-07-21T11:10:51Z</time>
      </trkpt>
      <trkpt lat="40.72122" lon="-0.61644">
        <ele>1425.62</ele>
        <time>2021-07-21T11:11:02Z</time>
      </trkpt>
      <trkpt lat="40.72185" lon="-0.61618">
        <ele>1414.143</ele>
        <time>2021-07-21T11:11:13Z</time>
      </trkpt>
      <trkpt lat="40.72253" lon="-0.61554">
        <ele>1414.459</ele>
        <time>2021-07-21T11:11:24Z</time>
      </trkpt>
      <trkpt lat="40.72321" lon="-0.61503">
        <ele>1412.087</ele>
        <time>2021-07-21T11:11:35Z</time>
      </trkpt>
      <trkpt lat="40.72395" lon="-0.6146">
        <ele>1407.675</ele>
        <time>2021-07-21T11:11:46Z</time>
      </trkpt>
      <trkpt lat="40.72474" lon="-0.614">
        <ele>1401.742</ele>
        <time>2021-07-21T11:11:57Z</time>
      </trkpt>
      <trkpt lat="40.72564" lon="-0.61342">
        <ele>1399.653</ele>
        <time>2021-07-21T11:12:08Z</time>
      </trkpt>
      <trkpt lat="40.7263" lon="-0.61278">
        <ele>1393.995</ele>
        <time>2021-07-21T11:12:19Z</time>
      </trkpt>
      <trkpt lat="40.72705" lon="-0.61222">
        <ele>1401.631</ele>
        <time>2021-07-21T11:12:30Z</time>
      </trkpt>
      <trkpt lat="40.72774" lon="-0.6113">
        <ele>1396.53</ele>
        <time>2021-07-21T11:12:41Z</time>
      </trkpt>
      <trkpt lat="40.72861" lon="-0.61035">
        <ele>1391.51</ele>
        <time>2021-07-21T11:12:52Z</time>
      </trkpt>
      <trkpt lat="40.72981" lon="-0.60925">
        <ele>1402.359</ele>
        <time>2021-07-21T11:13:03Z</time>
      </trkpt>
      <trkpt lat="40.73139" lon="-0.60847">
        <ele>1406.014</ele>
        <time>2021-07-21T11:13:14Z</time>
      </trkpt>
      <trkpt lat="40.73235" lon="-0.60837">
        <ele>1395.084</ele>
        <time>2021-07-21T11:13:25Z</time>
      </trkpt>
      <trkpt lat="40.73286" lon="-0.60764">
        <ele>1400.146</ele>
        <time>2021-07-21T11:13:36Z</time>
      </trkpt>
      <trkpt lat="40.73258" lon="-0.60662">
        <ele>1409.657</ele>
        <time>2021-07-21T11:13:47Z</time>
      </trkpt>
      <trkpt lat="40.73212" lon="-0.60583">
        <ele>1398.031</ele>
        <time>2021-07-21T11:13:58Z</time>
      </trkpt>
      <trkpt lat="40.73192" lon="-0.605">
        <ele>1384.486</ele>
        <time>2021-07-21T11:14:09Z</time>
      </trkpt>
      <trkpt lat="40.73198" lon="-0.60463">
        <ele>1382.355</ele>
        <time>2021-07-21T11:14:20Z</time>
      </trkpt>
      <trkpt lat="40.73222" lon="-0.60453">
        <ele>1384.223</ele>
        <time>2021-07-21T11:14:31Z</time>
      </trkpt>
      <trkpt lat="40.73226" lon="-0.60451">
        <ele>1384.295</ele>
        <time>2021-07-21T11:15:04Z</time>
      </trkpt>
      <trkpt lat="40.73213" lon="-0.60364">
        <ele>1380.152</ele>
        <time>2021-07-21T11:15:15Z</time>
      </trkpt>
      <trkpt lat="40.73288" lon="-0.6033">
        <ele>1383.466</ele>
        <time>2021-07-21T11:15:26Z</time>
      </trkpt>
      <trkpt lat="40.73382" lon="-0.60234">
        <ele>1397</ele>
        <time>2021-07-21T11:15:37Z</time>
      </trkpt>
      <trkpt lat="40.73445" lon="-0.60142">
        <ele>1404.876</ele>
        <time>2021-07-21T11:15:48Z</time>
      </trkpt>
      <trkpt lat="40.73535" lon="-0.60044">
        <ele>1418.002</ele>
        <time>2021-07-21T11:15:59Z</time>
      </trkpt>
      <trkpt lat="40.73601" lon="-0.59974">
        <ele>1412.863</ele>
        <time>2021-07-21T11:16:10Z</time>
      </trkpt>
      <trkpt lat="40.73704" lon="-0.59953">
        <ele>1412.901</ele>
        <time>2021-07-21T11:16:21Z</time>
      </trkpt>
      <trkpt lat="40.73737" lon="-0.59836">
        <ele>1417.224</ele>
        <time>2021-07-21T11:16:32Z</time>
      </trkpt>
      <trkpt lat="40.73826" lon="-0.5987">
        <ele>1418.108</ele>
        <time>2021-07-21T11:16:43Z</time>
      </trkpt>
      <trkpt lat="40.73912" lon="-0.59933">
        <ele>1401.482</ele>
        <time>2021-07-21T11:16:54Z</time>
      </trkpt>
      <trkpt lat="40.74003" lon="-0.59918">
        <ele>1415.678</ele>
        <time>2021-07-21T11:17:05Z</time>
      </trkpt>
      <trkpt lat="40.74073" lon="-0.59855">
        <ele>1436.872</ele>
        <time>2021-07-21T11:17:16Z</time>
      </trkpt>
      <trkpt lat="40.74092" lon="-0.59779">
        <ele>1443.775</ele>
        <time>2021-07-21T11:17:27Z</time>
      </trkpt>
      <trkpt lat="40.74091" lon="-0.59701">
        <ele>1448.557</ele>
        <time>2021-07-21T11:17:38Z</time>
      </trkpt>
      <trkpt lat="40.74181" lon="-0.59664">
        <ele>1457.347</ele>
        <time>2021-07-21T11:17:49Z</time>
      </trkpt>
      <trkpt lat="40.74258" lon="-0.59558">
        <ele>1467.198</ele>
        <time>2021-07-21T11:18:00Z</time>
      </trkpt>
      <trkpt lat="40.74329" lon="-0.59442">
        <ele>1471.247</ele>
        <time>2021-07-21T11:18:11Z</time>
      </trkpt>
      <trkpt lat="40.74384" lon="-0.59331">
        <ele>1468.625</ele>
        <time>2021-07-21T11:18:22Z</time>
      </trkpt>
      <trkpt lat="40.74454" lon="-0.59242">
        <ele>1465.847</ele>
        <time>2021-07-21T11:18:33Z</time>
      </trkpt>
      <trkpt lat="40.74464" lon="-0.5924">
        <ele>1462.637</ele>
        <time>2021-07-21T11:18:44Z</time>
      </trkpt>
      <trkpt lat="40.74468" lon="-0.5924">
        <ele>1463.263</ele>
        <time>2021-07-21T11:19:08Z</time>
      </trkpt>
      <trkpt lat="40.74464" lon="-0.5924">
        <ele>1463.826</ele>
        <time>2021-07-21T11:19:25Z</time>
      </trkpt>
      <trkpt lat="40.74409" lon="-0.59256">
        <ele>1472.352</ele>
        <time>2021-07-21T11:19:36Z</time>
      </trkpt>
      <trkpt lat="40.74368" lon="-0.59233">
        <ele>1475.122</ele>
        <time>2021-07-21T11:19:47Z</time>
      </trkpt>
      <trkpt lat="40.74391" lon="-0.59113">
        <ele>1480.572</ele>
        <time>2021-07-21T11:19:58Z</time>
      </trkpt>
      <trkpt lat="40.74471" lon="-0.59038">
        <ele>1486.032</ele>
        <time>2021-07-21T11:20:09Z</time>
      </trkpt>
      <trkpt lat="40.74448" lon="-0.58998">
        <ele>1495.828</ele>
        <time>2021-07-21T11:20:20Z</time>
      </trkpt>
      <trkpt lat="40.74385" lon="-0.58974">
        <ele>1502.894</ele>
        <time>2021-07-21T11:20:31Z</time>
      </trkpt>
      <trkpt lat="40.74342" lon="-0.58918">
        <ele>1505.008</ele>
        <time>2021-07-21T11:20:42Z</time>
      </trkpt>
      <trkpt lat="40.74328" lon="-0.58822">
        <ele>1497.07</ele>
        <time>2021-07-21T11:20:53Z</time>
      </trkpt>
      <trkpt lat="40.74371" lon="-0.58727">
        <ele>1501.141</ele>
        <time>2021-07-21T11:21:04Z</time>
      </trkpt>
      <trkpt lat="40.74452" lon="-0.5861">
        <ele>1504.315</ele>
        <time>2021-07-21T11:21:15Z</time>
      </trkpt>
      <trkpt lat="40.74535" lon="-0.58509">
        <ele>1509.452</ele>
        <time>2021-07-21T11:21:26Z</time>
      </trkpt>
      <trkpt lat="40.7458" lon="-0.58439">
        <ele>1510.444</ele>
        <time>2021-07-21T11:21:37Z</time>
      </trkpt>
      <trkpt lat="40.74618" lon="-0.58347">
        <ele>1505.519</ele>
        <time>2021-07-21T11:21:48Z</time>
      </trkpt>
      <trkpt lat="40.7465" lon="-0.58232">
        <ele>1495.253</ele>
        <time>2021-07-21T11:21:59Z</time>
      </trkpt>
      <trkpt lat="40.74656" lon="-0.5812">
        <ele>1487.25</ele>
        <time>2021-07-21T11:22:10Z</time>
      </trkpt>
      <trkpt lat="40.74665" lon="-0.57988">
        <ele>1473.466</ele>
        <time>2021-07-21T11:22:21Z</time>
      </trkpt>
      <trkpt lat="40.74683" lon="-0.57827">
        <ele>1464.831</ele>
        <time>2021-07-21T11:22:32Z</time>
      </trkpt>
      <trkpt lat="40.74637" lon="-0.57694">
        <ele>1453.68</ele>
        <time>2021-07-21T11:22:43Z</time>
      </trkpt>
      <trkpt lat="40.74587" lon="-0.57595">
        <ele>1455.051</ele>
        <time>2021-07-21T11:22:54Z</time>
      </trkpt>
      <trkpt lat="40.74536" lon="-0.57494">
        <ele>1462.846</ele>
        <time>2021-07-21T11:23:05Z</time>
      </trkpt>
      <trkpt lat="40.74454" lon="-0.5739">
        <ele>1472.711</ele>
        <time>2021-07-21T11:23:16Z</time>
      </trkpt>
      <trkpt lat="40.74374" lon="-0.57297">
        <ele>1490.174</ele>
        <time>2021-07-21T11:23:27Z</time>
      </trkpt>
      <trkpt lat="40.74325" lon="-0.57182">
        <ele>1490.596</ele>
        <time>2021-07-21T11:23:38Z</time>
      </trkpt>
      <trkpt lat="40.74268" lon="-0.57053">
        <ele>1482.863</ele>
        <time>2021-07-21T11:23:49Z</time>
      </trkpt>
      <trkpt lat="40.74174" lon="-0.56923">
        <ele>1476.231</ele>
        <time>2021-07-21T11:24:00Z</time>
      </trkpt>
      <trkpt lat="40.7413" lon="-0.56792">
        <ele>1471.92</ele>
        <time>2021-07-21T11:24:11Z</time>
      </trkpt>
      <trkpt lat="40.74025" lon="-0.56784">
        <ele>1469.374</ele>
        <time>2021-07-21T11:24:22Z</time>
      </trkpt>
      <trkpt lat="40.7398" lon="-0.56688">
        <ele>1462.253</ele>
        <time>2021-07-21T11:24:33Z</time>
      </trkpt>
      <trkpt lat="40.73957" lon="-0.56687">
        <ele>1461.6</ele>
        <time>2021-07-21T11:24:44Z</time>
      </trkpt>
      <trkpt lat="40.73946" lon="-0.56684">
        <ele>1461.455</ele>
        <time>2021-07-21T11:24:55Z</time>
      </trkpt>
      <trkpt lat="40.73917" lon="-0.56751">
        <ele>1452.247</ele>
        <time>2021-07-21T11:25:06Z</time>
      </trkpt>
      <trkpt lat="40.7391" lon="-0.56897">
        <ele>1437.217</ele>
        <time>2021-07-21T11:25:17Z</time>
      </trkpt>
      <trkpt lat="40.73882" lon="-0.57037">
        <ele>1425.403</ele>
        <time>2021-07-21T11:25:28Z</time>
      </trkpt>
      <trkpt lat="40.73849" lon="-0.57031">
        <ele>1418.54</ele>
        <time>2021-07-21T11:25:39Z</time>
      </trkpt>
      <trkpt lat="40.73819" lon="-0.56926">
        <ele>1410.203</ele>
        <time>2021-07-21T11:25:50Z</time>
      </trkpt>
      <trkpt lat="40.73794" lon="-0.56878">
        <ele>1403.694</ele>
        <time>2021-07-21T11:26:01Z</time>
      </trkpt>
      <trkpt lat="40.73705" lon="-0.56931">
        <ele>1386.731</ele>
        <time>2021-07-21T11:26:12Z</time>
      </trkpt>
      <trkpt lat="40.73578" lon="-0.56939">
        <ele>1386.886</ele>
        <time>2021-07-21T11:26:23Z</time>
      </trkpt>
      <trkpt lat="40.73518" lon="-0.56821">
        <ele>1387.678</ele>
        <time>2021-07-21T11:26:34Z</time>
      </trkpt>
      <trkpt lat="40.73461" lon="-0.56728">
        <ele>1384.922</ele>
        <time>2021-07-21T11:26:45Z</time>
      </trkpt>
      <trkpt lat="40.73469" lon="-0.56636">
        <ele>1377.241</ele>
        <time>2021-07-21T11:26:56Z</time>
      </trkpt>
      <trkpt lat="40.73487" lon="-0.56513">
        <ele>1359.327</ele>
        <time>2021-07-21T11:27:07Z</time>
      </trkpt>
      <trkpt lat="40.73434" lon="-0.56526">
        <ele>1352.557</ele>
        <time>2021-07-21T11:27:18Z</time>
      </trkpt>
      <trkpt lat="40.7338" lon="-0.56507">
        <ele>1349.353</ele>
        <time>2021-07-21T11:27:29Z</time>
      </trkpt>
      <trkpt lat="40.73379" lon="-0.56347">
        <ele>1336.421</ele>
        <time>2021-07-21T11:27:40Z</time>
      </trkpt>
      <trkpt lat="40.7338" lon="-0.5623">
        <ele>1329.196</ele>
        <time>2021-07-21T11:27:51Z</time>
      </trkpt>
      <trkpt lat="40.73442" lon="-0.56178">
        <ele>1334.706</ele>
        <time>2021-07-21T11:28:02Z</time>
      </trkpt>
      <trkpt lat="40.73529" lon="-0.56167">
        <ele>1333.005</ele>
        <time>2021-07-21T11:28:13Z</time>
      </trkpt>
      <trkpt lat="40.73574" lon="-0.56075">
        <ele>1336.287</ele>
        <time>2021-07-21T11:28:24Z</time>
      </trkpt>
      <trkpt lat="40.73645" lon="-0.55944">
        <ele>1341.688</ele>
        <time>2021-07-21T11:28:35Z</time>
      </trkpt>
      <trkpt lat="40.73655" lon="-0.55785">
        <ele>1340.077</ele>
        <time>2021-07-21T11:28:46Z</time>
      </trkpt>
      <trkpt lat="40.73614" lon="-0.55644">
        <ele>1334.346</ele>
        <time>2021-07-21T11:28:57Z</time>
      </trkpt>
      <trkpt lat="40.73683" lon="-0.55549">
        <ele>1322.124</ele>
        <time>2021-07-21T11:29:08Z</time>
      </trkpt>
      <trkpt lat="40.73753" lon="-0.55467">
        <ele>1317.028</ele>
        <time>2021-07-21T11:29:19Z</time>
      </trkpt>
      <trkpt lat="40.73822" lon="-0.55503">
        <ele>1314.613</ele>
        <time>2021-07-21T11:29:30Z</time>
      </trkpt>
      <trkpt lat="40.73804" lon="-0.55368">
        <ele>1325.655</ele>
        <time>2021-07-21T11:29:41Z</time>
      </trkpt>
      <trkpt lat="40.73765" lon="-0.55186">
        <ele>1309.849</ele>
        <time>2021-07-21T11:29:52Z</time>
      </trkpt>
      <trkpt lat="40.73734" lon="-0.54977">
        <ele>1291.729</ele>
        <time>2021-07-21T11:30:03Z</time>
      </trkpt>
      <trkpt lat="40.73703" lon="-0.54783">
        <ele>1286.333</ele>
        <time>2021-07-21T11:30:14Z</time>
      </trkpt>
      <trkpt lat="40.73742" lon="-0.54592">
        <ele>1276.131</ele>
        <time>2021-07-21T11:30:25Z</time>
      </trkpt>
      <trkpt lat="40.7381" lon="-0.54451">
        <ele>1266.829</ele>
        <time>2021-07-21T11:30:36Z</time>
      </trkpt>
      <trkpt lat="40.7389" lon="-0.54373">
        <ele>1256.693</ele>
        <time>2021-07-21T11:30:47Z</time>
      </trkpt>
      <trkpt lat="40.74022" lon="-0.54328">
        <ele>1240.275</ele>
        <time>2021-07-21T11:30:58Z</time>
      </trkpt>
      <trkpt lat="40.74134" lon="-0.54307">
        <ele>1230.151</ele>
        <time>2021-07-21T11:31:09Z</time>
      </trkpt>
      <trkpt lat="40.74236" lon="-0.54294">
        <ele>1220.671</ele>
        <time>2021-07-21T11:31:20Z</time>
      </trkpt>
      <trkpt lat="40.74402" lon="-0.54147">
        <ele>1218.082</ele>
        <time>2021-07-21T11:31:31Z</time>
      </trkpt>
      <trkpt lat="40.74621" lon="-0.54057">
        <ele>1221.916</ele>
        <time>2021-07-21T11:31:42Z</time>
      </trkpt>
      <trkpt lat="40.74824" lon="-0.54063">
        <ele>1228.802</ele>
        <time>2021-07-21T11:31:53Z</time>
      </trkpt>
      <trkpt lat="40.74983" lon="-0.5385">
        <ele>1238.901</ele>
        <time>2021-07-21T11:32:04Z</time>
      </trkpt>
      <trkpt lat="40.75142" lon="-0.53723">
        <ele>1238.179</ele>
        <time>2021-07-21T11:32:15Z</time>
      </trkpt>
      <trkpt lat="40.75357" lon="-0.53803">
        <ele>1231.521</ele>
        <time>2021-07-21T11:32:26Z</time>
      </trkpt>
      <trkpt lat="40.75542" lon="-0.53804">
        <ele>1233.845</ele>
        <time>2021-07-21T11:32:37Z</time>
      </trkpt>
      <trkpt lat="40.7563" lon="-0.53669">
        <ele>1225.721</ele>
        <time>2021-07-21T11:32:48Z</time>
      </trkpt>
      <trkpt lat="40.75804" lon="-0.53688">
        <ele>1212.072</ele>
        <time>2021-07-21T11:32:59Z</time>
      </trkpt>
      <trkpt lat="40.75877" lon="-0.54022">
        <ele>1204.17</ele>
        <time>2021-07-21T11:33:10Z</time>
      </trkpt>
      <trkpt lat="40.75958" lon="-0.54192">
        <ele>1199.02</ele>
        <time>2021-07-21T11:33:21Z</time>
      </trkpt>
      <trkpt lat="40.75972" lon="-0.54179">
        <ele>1201.705</ele>
        <time>2021-07-21T11:33:32Z</time>
      </trkpt>
      <trkpt lat="40.76033" lon="-0.54109">
        <ele>1205.628</ele>
        <time>2021-07-21T11:33:43Z</time>
      </trkpt>
      <trkpt lat="40.76101" lon="-0.5398">
        <ele>1206.308</ele>
        <time>2021-07-21T11:33:54Z</time>
      </trkpt>
      <trkpt lat="40.76198" lon="-0.53872">
        <ele>1213.311</ele>
        <time>2021-07-21T11:34:05Z</time>
      </trkpt>
      <trkpt lat="40.76261" lon="-0.53785">
        <ele>1219.296</ele>
        <time>2021-07-21T11:34:16Z</time>
      </trkpt>
      <trkpt lat="40.7631" lon="-0.53671">
        <ele>1213.17</ele>
        <time>2021-07-21T11:34:27Z</time>
      </trkpt>
      <trkpt lat="40.76353" lon="-0.53606">
        <ele>1201.982</ele>
        <time>2021-07-21T11:34:38Z</time>
      </trkpt>
      <trkpt lat="40.7638" lon="-0.53527">
        <ele>1191.559</ele>
        <time>2021-07-21T11:34:49Z</time>
      </trkpt>
      <trkpt lat="40.76374" lon="-0.53412">
        <ele>1198.566</ele>
        <time>2021-07-21T11:35:00Z</time>
      </trkpt>
      <trkpt lat="40.76363" lon="-0.53238">
        <ele>1199.286</ele>
        <time>2021-07-21T11:35:11Z</time>
      </trkpt>
      <trkpt lat="40.76352" lon="-0.53071">
        <ele>1188.671</ele>
        <time>2021-07-21T11:35:22Z</time>
      </trkpt>
      <trkpt lat="40.76346" lon="-0.52936">
        <ele>1190.926</ele>
        <time>2021-07-21T11:35:33Z</time>
      </trkpt>
      <trkpt lat="40.76353" lon="-0.52831">
        <ele>1182.131</ele>
        <time>2021-07-21T11:35:44Z</time>
      </trkpt>
      <trkpt lat="40.76402" lon="-0.52719">
        <ele>1180.037</ele>
        <time>2021-07-21T11:35:55Z</time>
      </trkpt>
      <trkpt lat="40.76409" lon="-0.52683">
        <ele>1181.462</ele>
        <time>2021-07-21T11:36:06Z</time>
      </trkpt>
      <trkpt lat="40.76399" lon="-0.52659">
        <ele>1183.755</ele>
        <time>2021-07-21T11:36:17Z</time>
      </trkpt>
      <trkpt lat="40.76395" lon="-0.52559">
        <ele>1168.302</ele>
        <time>2021-07-21T11:36:28Z</time>
      </trkpt>
      <trkpt lat="40.76342" lon="-0.5248">
        <ele>1150.95</ele>
        <time>2021-07-21T11:36:39Z</time>
      </trkpt>
      <trkpt lat="40.76273" lon="-0.52517">
        <ele>1129.627</ele>
        <time>2021-07-21T11:36:50Z</time>
      </trkpt>
      <trkpt lat="40.7624" lon="-0.52497">
        <ele>1132.056</ele>
        <time>2021-07-21T11:37:01Z</time>
      </trkpt>
      <trkpt lat="40.76256" lon="-0.52325">
        <ele>1119.477</ele>
        <time>2021-07-21T11:37:12Z</time>
      </trkpt>
      <trkpt lat="40.76278" lon="-0.52178">
        <ele>1117.876</ele>
        <time>2021-07-21T11:37:23Z</time>
      </trkpt>
      <trkpt lat="40.76261" lon="-0.5203">
        <ele>1125.165</ele>
        <time>2021-07-21T11:37:34Z</time>
      </trkpt>
      <trkpt lat="40.76244" lon="-0.51895">
        <ele>1126.613</ele>
        <time>2021-07-21T11:37:45Z</time>
      </trkpt>
      <trkpt lat="40.76225" lon="-0.51825">
        <ele>1134.127</ele>
        <time>2021-07-21T11:37:56Z</time>
      </trkpt>
      <trkpt lat="40.76259" lon="-0.51699">
        <ele>1158.017</ele>
        <time>2021-07-21T11:38:07Z</time>
      </trkpt>
      <trkpt lat="40.76288" lon="-0.51528">
        <ele>1166.743</ele>
        <time>2021-07-21T11:38:18Z</time>
      </trkpt>
      <trkpt lat="40.76327" lon="-0.51393">
        <ele>1165.726</ele>
        <time>2021-07-21T11:38:29Z</time>
      </trkpt>
      <trkpt lat="40.76361" lon="-0.51257">
        <ele>1158.965</ele>
        <time>2021-07-21T11:38:40Z</time>
      </trkpt>
      <trkpt lat="40.76368" lon="-0.51105">
        <ele>1160.868</ele>
        <time>2021-07-21T11:38:51Z</time>
      </trkpt>
      <trkpt lat="40.76419" lon="-0.50986">
        <ele>1156.856</ele>
        <time>2021-07-21T11:39:02Z</time>
      </trkpt>
      <trkpt lat="40.76489" lon="-0.50832">
        <ele>1150.189</ele>
        <time>2021-07-21T11:39:13Z</time>
      </trkpt>
      <trkpt lat="40.76514" lon="-0.50691">
        <ele>1151.779</ele>
        <time>2021-07-21T11:39:24Z</time>
      </trkpt>
      <trkpt lat="40.76571" lon="-0.50533">
        <ele>1161.645</ele>
        <time>2021-07-21T11:39:35Z</time>
      </trkpt>
      <trkpt lat="40.76536" lon="-0.50483">
        <ele>1165.194</ele>
        <time>2021-07-21T11:39:46Z</time>
      </trkpt>
      <trkpt lat="40.76586" lon="-0.50361">
        <ele>1173.143</ele>
        <time>2021-07-21T11:39:57Z</time>
      </trkpt>
      <trkpt lat="40.7662" lon="-0.50298">
        <ele>1177.662</ele>
        <time>2021-07-21T11:40:08Z</time>
      </trkpt>
      <trkpt lat="40.76687" lon="-0.50207">
        <ele>1176.705</ele>
        <time>2021-07-21T11:40:19Z</time>
      </trkpt>
      <trkpt lat="40.76794" lon="-0.50141">
        <ele>1175.987</ele>
        <time>2021-07-21T11:40:30Z</time>
      </trkpt>
      <trkpt lat="40.76893" lon="-0.501">
        <ele>1163.341</ele>
        <time>2021-07-21T11:40:41Z</time>
      </trkpt>
      <trkpt lat="40.76937" lon="-0.50081">
        <ele>1159.626</ele>
        <time>2021-07-21T11:40:52Z</time>
      </trkpt>
      <trkpt lat="40.76941" lon="-0.50081">
        <ele>1164.514</ele>
        <time>2021-07-21T11:41:04Z</time>
      </trkpt>
      <trkpt lat="40.76919" lon="-0.50095">
        <ele>1178.393</ele>
        <time>2021-07-21T11:41:15Z</time>
      </trkpt>
      <trkpt lat="40.7691" lon="-0.50027">
        <ele>1172.855</ele>
        <time>2021-07-21T11:41:26Z</time>
      </trkpt>
      <trkpt lat="40.76994" lon="-0.49983">
        <ele>1156.622</ele>
        <time>2021-07-21T11:41:37Z</time>
      </trkpt>
      <trkpt lat="40.77081" lon="-0.49951">
        <ele>1141.791</ele>
        <time>2021-07-21T11:41:48Z</time>
      </trkpt>
      <trkpt lat="40.77158" lon="-0.49872">
        <ele>1121.714</ele>
        <time>2021-07-21T11:41:59Z</time>
      </trkpt>
      <trkpt lat="40.77213" lon="-0.49782">
        <ele>1103.251</ele>
        <time>2021-07-21T11:42:10Z</time>
      </trkpt>
      <trkpt lat="40.77287" lon="-0.4974">
        <ele>1095.304</ele>
        <time>2021-07-21T11:42:21Z</time>
      </trkpt>
      <trkpt lat="40.77354" lon="-0.49624">
        <ele>1094.948</ele>
        <time>2021-07-21T11:42:32Z</time>
      </trkpt>
      <trkpt lat="40.7741" lon="-0.4952">
        <ele>1092.606</ele>
        <time>2021-07-21T11:42:43Z</time>
      </trkpt>
      <trkpt lat="40.77435" lon="-0.49393">
        <ele>1082.388</ele>
        <time>2021-07-21T11:42:54Z</time>
      </trkpt>
      <trkpt lat="40.77499" lon="-0.4931">
        <ele>1075.101</ele>
        <time>2021-07-21T11:43:05Z</time>
      </trkpt>
      <trkpt lat="40.77653" lon="-0.49295">
        <ele>1066.796</ele>
        <time>2021-07-21T11:43:16Z</time>
      </trkpt>
      <trkpt lat="40.77805" lon="-0.49317">
        <ele>1056.051</ele>
        <time>2021-07-21T11:43:27Z</time>
      </trkpt>
      <trkpt lat="40.77918" lon="-0.49311">
        <ele>1055.886</ele>
        <time>2021-07-21T11:43:38Z</time>
      </trkpt>
      <trkpt lat="40.78049" lon="-0.49221">
        <ele>1049.82</ele>
        <time>2021-07-21T11:43:49Z</time>
      </trkpt>
      <trkpt lat="40.78173" lon="-0.49101">
        <ele>1036.025</ele>
        <time>2021-07-21T11:44:00Z</time>
      </trkpt>
      <trkpt lat="40.78248" lon="-0.48993">
        <ele>1026.904</ele>
        <time>2021-07-21T11:44:11Z</time>
      </trkpt>
      <trkpt lat="40.78305" lon="-0.48907">
        <ele>1017.031</ele>
        <time>2021-07-21T11:44:22Z</time>
      </trkpt>
      <trkpt lat="40.7842" lon="-0.48833">
        <ele>1018.861</ele>
        <time>2021-07-21T11:44:33Z</time>
      </trkpt>
      <trkpt lat="40.78455" lon="-0.4874">
        <ele>1017.296</ele>
        <time>2021-07-21T11:44:44Z</time>
      </trkpt>
      <trkpt lat="40.78438" lon="-0.48635">
        <ele>1023.708</ele>
        <time>2021-07-21T11:44:55Z</time>
      </trkpt>
      <trkpt lat="40.78518" lon="-0.48574">
        <ele>1023.304</ele>
        <time>2021-07-21T11:45:06Z</time>
      </trkpt>
      <trkpt lat="40.78644" lon="-0.48529">
        <ele>1010.494</ele>
        <time>2021-07-21T11:45:17Z</time>
      </trkpt>
      <trkpt lat="40.78717" lon="-0.48405">
        <ele>1007.961</ele>
        <time>2021-07-21T11:45:28Z</time>
      </trkpt>
      <trkpt lat="40.78802" lon="-0.48308">
        <ele>1013.321</ele>
        <time>2021-07-21T11:45:39Z</time>
      </trkpt>
      <trkpt lat="40.78892" lon="-0.48253">
        <ele>1021.411</ele>
        <time>2021-07-21T11:45:50Z</time>
      </trkpt>
      <trkpt lat="40.78993" lon="-0.48175">
        <ele>1037.949</ele>
        <time>2021-07-21T11:46:01Z</time>
      </trkpt>
      <trkpt lat="40.79084" lon="-0.48115">
        <ele>1050.557</ele>
        <time>2021-07-21T11:46:12Z</time>
      </trkpt>
      <trkpt lat="40.79156" lon="-0.48064">
        <ele>1047.697</ele>
        <time>2021-07-21T11:46:23Z</time>
      </trkpt>
      <trkpt lat="40.79254" lon="-0.48051">
        <ele>1035.832</ele>
        <time>2021-07-21T11:46:34Z</time>
      </trkpt>
      <trkpt lat="40.79341" lon="-0.48017">
        <ele>1019.903</ele>
        <time>2021-07-21T11:46:45Z</time>
      </trkpt>
      <trkpt lat="40.79432" lon="-0.4798">
        <ele>1007.678</ele>
        <time>2021-07-21T11:46:56Z</time>
      </trkpt>
      <trkpt lat="40.79516" lon="-0.47946">
        <ele>997.7901</ele>
        <time>2021-07-21T11:47:07Z</time>
      </trkpt>
      <trkpt lat="40.79596" lon="-0.47892">
        <ele>987.6435</ele>
        <time>2021-07-21T11:47:18Z</time>
      </trkpt>
      <trkpt lat="40.79675" lon="-0.47814">
        <ele>978.1592</ele>
        <time>2021-07-21T11:47:29Z</time>
      </trkpt>
      <trkpt lat="40.79764" lon="-0.47735">
        <ele>984.431</ele>
        <time>2021-07-21T11:47:40Z</time>
      </trkpt>
      <trkpt lat="40.79839" lon="-0.47612">
        <ele>980.5097</ele>
        <time>2021-07-21T11:47:51Z</time>
      </trkpt>
      <trkpt lat="40.79871" lon="-0.47479">
        <ele>978.0648</ele>
        <time>2021-07-21T11:48:02Z</time>
      </trkpt>
      <trkpt lat="40.79931" lon="-0.47354">
        <ele>974.1901</ele>
        <time>2021-07-21T11:48:13Z</time>
      </trkpt>
      <trkpt lat="40.7999" lon="-0.47228">
        <ele>957.8928</ele>
        <time>2021-07-21T11:48:24Z</time>
      </trkpt>
      <trkpt lat="40.80073" lon="-0.47134">
        <ele>947.9663</ele>
        <time>2021-07-21T11:48:35Z</time>
      </trkpt>
      <trkpt lat="40.80161" lon="-0.47002">
        <ele>936.4373</ele>
        <time>2021-07-21T11:48:46Z</time>
      </trkpt>
      <trkpt lat="40.80288" lon="-0.46863">
        <ele>930.3576</ele>
        <time>2021-07-21T11:48:57Z</time>
      </trkpt>
      <trkpt lat="40.80373" lon="-0.46774">
        <ele>917.9734</ele>
        <time>2021-07-21T11:49:08Z</time>
      </trkpt>
      <trkpt lat="40.80486" lon="-0.46691">
        <ele>918.2431</ele>
        <time>2021-07-21T11:49:19Z</time>
      </trkpt>
      <trkpt lat="40.80586" lon="-0.46641">
        <ele>917.8935</ele>
        <time>2021-07-21T11:49:30Z</time>
      </trkpt>
      <trkpt lat="40.80649" lon="-0.4655">
        <ele>908.3848</ele>
        <time>2021-07-21T11:49:41Z</time>
      </trkpt>
      <trkpt lat="40.80717" lon="-0.46444">
        <ele>890.8456</ele>
        <time>2021-07-21T11:49:52Z</time>
      </trkpt>
      <trkpt lat="40.80744" lon="-0.46355">
        <ele>882.33</ele>
        <time>2021-07-21T11:50:03Z</time>
      </trkpt>
      <trkpt lat="40.8084" lon="-0.46292">
        <ele>888.6561</ele>
        <time>2021-07-21T11:50:14Z</time>
      </trkpt>
      <trkpt lat="40.80884" lon="-0.46185">
        <ele>894.7475</ele>
        <time>2021-07-21T11:50:25Z</time>
      </trkpt>
      <trkpt lat="40.80998" lon="-0.4611">
        <ele>901.5065</ele>
        <time>2021-07-21T11:50:36Z</time>
      </trkpt>
      <trkpt lat="40.81061" lon="-0.45997">
        <ele>900.9132</ele>
        <time>2021-07-21T11:50:47Z</time>
      </trkpt>
      <trkpt lat="40.81139" lon="-0.45919">
        <ele>899.4431</ele>
        <time>2021-07-21T11:50:58Z</time>
      </trkpt>
      <trkpt lat="40.81218" lon="-0.45784">
        <ele>887.7923</ele>
        <time>2021-07-21T11:51:09Z</time>
      </trkpt>
      <trkpt lat="40.81293" lon="-0.45674">
        <ele>877.0981</ele>
        <time>2021-07-21T11:51:20Z</time>
      </trkpt>
      <trkpt lat="40.81385" lon="-0.45617">
        <ele>867.3945</ele>
        <time>2021-07-21T11:51:31Z</time>
      </trkpt>
      <trkpt lat="40.81481" lon="-0.45569">
        <ele>867.0606</ele>
        <time>2021-07-21T11:51:42Z</time>
      </trkpt>
      <trkpt lat="40.81626" lon="-0.45528">
        <ele>865.3943</ele>
        <time>2021-07-21T11:51:53Z</time>
      </trkpt>
      <trkpt lat="40.81695" lon="-0.45505">
        <ele>860.0644</ele>
        <time>2021-07-21T11:52:04Z</time>
      </trkpt>
      <trkpt lat="40.81751" lon="-0.45401">
        <ele>857.0179</ele>
        <time>2021-07-21T11:52:15Z</time>
      </trkpt>
      <trkpt lat="40.81821" lon="-0.45261">
        <ele>860.8094</ele>
        <time>2021-07-21T11:52:26Z</time>
      </trkpt>
      <trkpt lat="40.81833" lon="-0.45166">
        <ele>859.051</ele>
        <time>2021-07-21T11:52:37Z</time>
      </trkpt>
      <trkpt lat="40.81857" lon="-0.45069">
        <ele>859.1477</ele>
        <time>2021-07-21T11:52:48Z</time>
      </trkpt>
      <trkpt lat="40.81903" lon="-0.45027">
        <ele>852.0278</ele>
        <time>2021-07-21T11:52:59Z</time>
      </trkpt>
      <trkpt lat="40.81942" lon="-0.44979">
        <ele>848.1992</ele>
        <time>2021-07-21T11:53:10Z</time>
      </trkpt>
      <trkpt lat="40.81946" lon="-0.44974">
        <ele>844.482</ele>
        <time>2021-07-21T11:53:21Z</time>
      </trkpt>
      <trkpt lat="40.81956" lon="-0.4497">
        <ele>849.2007</ele>
        <time>2021-07-21T11:53:32Z</time>
      </trkpt>
      <trkpt lat="40.81938" lon="-0.44964">
        <ele>853.7383</ele>
        <time>2021-07-21T11:53:43Z</time>
      </trkpt>
      <trkpt lat="40.81934" lon="-0.44908">
        <ele>853.9842</ele>
        <time>2021-07-21T11:53:54Z</time>
      </trkpt>
      <trkpt lat="40.81922" lon="-0.44836">
        <ele>850.6731</ele>
        <time>2021-07-21T11:54:05Z</time>
      </trkpt>
      <trkpt lat="40.81884" lon="-0.44763">
        <ele>843.2964</ele>
        <time>2021-07-21T11:54:16Z</time>
      </trkpt>
      <trkpt lat="40.81851" lon="-0.4467">
        <ele>839.5727</ele>
        <time>2021-07-21T11:54:27Z</time>
      </trkpt>
      <trkpt lat="40.81858" lon="-0.44558">
        <ele>838.7168</ele>
        <time>2021-07-21T11:54:38Z</time>
      </trkpt>
      <trkpt lat="40.81874" lon="-0.44477">
        <ele>852.9551</ele>
        <time>2021-07-21T11:54:49Z</time>
      </trkpt>
      <trkpt lat="40.81897" lon="-0.44367">
        <ele>862.5405</ele>
        <time>2021-07-21T11:55:00Z</time>
      </trkpt>
      <trkpt lat="40.81939" lon="-0.44269">
        <ele>874.9989</ele>
        <time>2021-07-21T11:55:11Z</time>
      </trkpt>
      <trkpt lat="40.82011" lon="-0.44155">
        <ele>882.2527</ele>
        <time>2021-07-21T11:55:22Z</time>
      </trkpt>
      <trkpt lat="40.82098" lon="-0.44077">
        <ele>892.5933</ele>
        <time>2021-07-21T11:55:33Z</time>
      </trkpt>
      <trkpt lat="40.82185" lon="-0.43932">
        <ele>904.7166</ele>
        <time>2021-07-21T11:55:44Z</time>
      </trkpt>
      <trkpt lat="40.82278" lon="-0.43836">
        <ele>915.8166</ele>
        <time>2021-07-21T11:55:55Z</time>
      </trkpt>
      <trkpt lat="40.82355" lon="-0.43686">
        <ele>917.9544</ele>
        <time>2021-07-21T11:56:06Z</time>
      </trkpt>
      <trkpt lat="40.82414" lon="-0.43516">
        <ele>921.4737</ele>
        <time>2021-07-21T11:56:17Z</time>
      </trkpt>
      <trkpt lat="40.82437" lon="-0.43391">
        <ele>921.8118</ele>
        <time>2021-07-21T11:56:28Z</time>
      </trkpt>
      <trkpt lat="40.82471" lon="-0.43268">
        <ele>929.5564</ele>
        <time>2021-07-21T11:56:39Z</time>
      </trkpt>
      <trkpt lat="40.82534" lon="-0.43194">
        <ele>936.2539</ele>
        <time>2021-07-21T11:56:50Z</time>
      </trkpt>
      <trkpt lat="40.82586" lon="-0.43039">
        <ele>944.2605</ele>
        <time>2021-07-21T11:57:01Z</time>
      </trkpt>
      <trkpt lat="40.82633" lon="-0.4289">
        <ele>935.8851</ele>
        <time>2021-07-21T11:57:12Z</time>
      </trkpt>
      <trkpt lat="40.82638" lon="-0.42784">
        <ele>936.0432</ele>
        <time>2021-07-21T11:57:23Z</time>
      </trkpt>
      <trkpt lat="40.8263" lon="-0.42631">
        <ele>928.2293</ele>
        <time>2021-07-21T11:57:34Z</time>
      </trkpt>
      <trkpt lat="40.82649" lon="-0.42492">
        <ele>976.5602</ele>
        <time>2021-07-21T11:57:45Z</time>
      </trkpt>
      <trkpt lat="40.82691" lon="-0.42413">
        <ele>977.6703</ele>
        <time>2021-07-21T11:57:56Z</time>
      </trkpt>
      <trkpt lat="40.82695" lon="-0.42377">
        <ele>981.9299</ele>
        <time>2021-07-21T11:58:07Z</time>
      </trkpt>
      <trkpt lat="40.82716" lon="-0.42402">
        <ele>984.9346</ele>
        <time>2021-07-21T11:58:18Z</time>
      </trkpt>
      <trkpt lat="40.82782" lon="-0.42355">
        <ele>989.247</ele>
        <time>2021-07-21T11:58:29Z</time>
      </trkpt>
      <trkpt lat="40.82874" lon="-0.42329">
        <ele>987.1431</ele>
        <time>2021-07-21T11:58:40Z</time>
      </trkpt>
      <trkpt lat="40.82938" lon="-0.42258">
        <ele>981.2316</ele>
        <time>2021-07-21T11:58:51Z</time>
      </trkpt>
      <trkpt lat="40.83019" lon="-0.42165">
        <ele>990.997</ele>
        <time>2021-07-21T11:59:02Z</time>
      </trkpt>
      <trkpt lat="40.83065" lon="-0.42045">
        <ele>1006.011</ele>
        <time>2021-07-21T11:59:13Z</time>
      </trkpt>
      <trkpt lat="40.83096" lon="-0.41922">
        <ele>997.611</ele>
        <time>2021-07-21T11:59:24Z</time>
      </trkpt>
      <trkpt lat="40.83172" lon="-0.41809">
        <ele>996.4227</ele>
        <time>2021-07-21T11:59:35Z</time>
      </trkpt>
      <trkpt lat="40.83221" lon="-0.41646">
        <ele>989.8363</ele>
        <time>2021-07-21T11:59:46Z</time>
      </trkpt>
      <trkpt lat="40.8327" lon="-0.41555">
        <ele>976.6286</ele>
        <time>2021-07-21T11:59:57Z</time>
      </trkpt>
      <trkpt lat="40.83257" lon="-0.41458">
        <ele>977.42</ele>
        <time>2021-07-21T12:00:08Z</time>
      </trkpt>
      <trkpt lat="40.83328" lon="-0.41313">
        <ele>985.6381</ele>
        <time>2021-07-21T12:00:19Z</time>
      </trkpt>
      <trkpt lat="40.83372" lon="-0.41169">
        <ele>994.1735</ele>
        <time>2021-07-21T12:00:30Z</time>
      </trkpt>
      <trkpt lat="40.8345" lon="-0.41019">
        <ele>999.0665</ele>
        <time>2021-07-21T12:00:41Z</time>
      </trkpt>
      <trkpt lat="40.83521" lon="-0.40927">
        <ele>996.6447</ele>
        <time>2021-07-21T12:00:52Z</time>
      </trkpt>
      <trkpt lat="40.83596" lon="-0.40832">
        <ele>963.2072</ele>
        <time>2021-07-21T12:01:03Z</time>
      </trkpt>
      <trkpt lat="40.83643" lon="-0.40756">
        <ele>998.4947</ele>
        <time>2021-07-21T12:01:14Z</time>
      </trkpt>
      <trkpt lat="40.83728" lon="-0.40683">
        <ele>992.1594</ele>
        <time>2021-07-21T12:01:25Z</time>
      </trkpt>
      <trkpt lat="40.83779" lon="-0.40617">
        <ele>982.1421</ele>
        <time>2021-07-21T12:01:36Z</time>
      </trkpt>
      <trkpt lat="40.8383" lon="-0.40459">
        <ele>977.8501</ele>
        <time>2021-07-21T12:01:47Z</time>
      </trkpt>
      <trkpt lat="40.83868" lon="-0.40353">
        <ele>971.0677</ele>
        <time>2021-07-21T12:01:58Z</time>
      </trkpt>
      <trkpt lat="40.83891" lon="-0.40213">
        <ele>968.971</ele>
        <time>2021-07-21T12:02:09Z</time>
      </trkpt>
      <trkpt lat="40.83909" lon="-0.40107">
        <ele>960.35</ele>
        <time>2021-07-21T12:02:20Z</time>
      </trkpt>
      <trkpt lat="40.83887" lon="-0.40054">
        <ele>956.0984</ele>
        <time>2021-07-21T12:02:31Z</time>
      </trkpt>
      <trkpt lat="40.8393" lon="-0.40039">
        <ele>954.4273</ele>
        <time>2021-07-21T12:02:42Z</time>
      </trkpt>
      <trkpt lat="40.83954" lon="-0.39973">
        <ele>949.1126</ele>
        <time>2021-07-21T12:02:53Z</time>
      </trkpt>
      <trkpt lat="40.84014" lon="-0.39884">
        <ele>938.992</ele>
        <time>2021-07-21T12:03:04Z</time>
      </trkpt>
      <trkpt lat="40.84084" lon="-0.39777">
        <ele>925.4021</ele>
        <time>2021-07-21T12:03:15Z</time>
      </trkpt>
      <trkpt lat="40.84132" lon="-0.39793">
        <ele>918.0241</ele>
        <time>2021-07-21T12:03:26Z</time>
      </trkpt>
      <trkpt lat="40.84121" lon="-0.39867">
        <ele>915.2497</ele>
        <time>2021-07-21T12:03:37Z</time>
      </trkpt>
      <trkpt lat="40.84178" lon="-0.39794">
        <ele>908.9508</ele>
        <time>2021-07-21T12:03:48Z</time>
      </trkpt>
      <trkpt lat="40.84186" lon="-0.39645">
        <ele>896.7196</ele>
        <time>2021-07-21T12:03:59Z</time>
      </trkpt>
      <trkpt lat="40.84264" lon="-0.39566">
        <ele>888.2921</ele>
        <time>2021-07-21T12:04:10Z</time>
      </trkpt>
      <trkpt lat="40.84324" lon="-0.39495">
        <ele>882.1364</ele>
        <time>2021-07-21T12:04:21Z</time>
      </trkpt>
      <trkpt lat="40.84417" lon="-0.39536">
        <ele>876.378</ele>
        <time>2021-07-21T12:04:32Z</time>
      </trkpt>
      <trkpt lat="40.84468" lon="-0.39686">
        <ele>873.21</ele>
        <time>2021-07-21T12:04:43Z</time>
      </trkpt>
      <trkpt lat="40.84495" lon="-0.39786">
        <ele>871.6134</ele>
        <time>2021-07-21T12:04:54Z</time>
      </trkpt>
      <trkpt lat="40.84538" lon="-0.39895">
        <ele>861.9048</ele>
        <time>2021-07-21T12:05:05Z</time>
      </trkpt>
      <trkpt lat="40.84597" lon="-0.39943">
        <ele>850.2186</ele>
        <time>2021-07-21T12:05:16Z</time>
      </trkpt>
      <trkpt lat="40.84605" lon="-0.39908">
        <ele>855.0139</ele>
        <time>2021-07-21T12:05:27Z</time>
      </trkpt>
      <trkpt lat="40.84619" lon="-0.39764">
        <ele>862.9384</ele>
        <time>2021-07-21T12:05:38Z</time>
      </trkpt>
      <trkpt lat="40.846" lon="-0.39624">
        <ele>866.2364</ele>
        <time>2021-07-21T12:05:49Z</time>
      </trkpt>
      <trkpt lat="40.84597" lon="-0.39541">
        <ele>869.4153</ele>
        <time>2021-07-21T12:06:00Z</time>
      </trkpt>
      <trkpt lat="40.84711" lon="-0.39538">
        <ele>870.2338</ele>
        <time>2021-07-21T12:06:11Z</time>
      </trkpt>
      <trkpt lat="40.84796" lon="-0.39533">
        <ele>870.8152</ele>
        <time>2021-07-21T12:06:22Z</time>
      </trkpt>
      <trkpt lat="40.8489" lon="-0.39463">
        <ele>871.5805</ele>
        <time>2021-07-21T12:06:33Z</time>
      </trkpt>
      <trkpt lat="40.84981" lon="-0.39403">
        <ele>873.6333</ele>
        <time>2021-07-21T12:06:44Z</time>
      </trkpt>
      <trkpt lat="40.85066" lon="-0.39282">
        <ele>871.6659</ele>
        <time>2021-07-21T12:06:55Z</time>
      </trkpt>
      <trkpt lat="40.85184" lon="-0.39187">
        <ele>869.2126</ele>
        <time>2021-07-21T12:07:06Z</time>
      </trkpt>
      <trkpt lat="40.85269" lon="-0.39068">
        <ele>858.4388</ele>
        <time>2021-07-21T12:07:17Z</time>
      </trkpt>
      <trkpt lat="40.85336" lon="-0.38928">
        <ele>847.0825</ele>
        <time>2021-07-21T12:07:28Z</time>
      </trkpt>
      <trkpt lat="40.85447" lon="-0.38886">
        <ele>844.1353</ele>
        <time>2021-07-21T12:07:39Z</time>
      </trkpt>
      <trkpt lat="40.85566" lon="-0.38735">
        <ele>835.7478</ele>
        <time>2021-07-21T12:07:50Z</time>
      </trkpt>
      <trkpt lat="40.85691" lon="-0.38549">
        <ele>822.998</ele>
        <time>2021-07-21T12:08:01Z</time>
      </trkpt>
      <trkpt lat="40.85775" lon="-0.38389">
        <ele>819.1579</ele>
        <time>2021-07-21T12:08:12Z</time>
      </trkpt>
      <trkpt lat="40.8583" lon="-0.38309">
        <ele>816.4902</ele>
        <time>2021-07-21T12:08:23Z</time>
      </trkpt>
      <trkpt lat="40.85931" lon="-0.38337">
        <ele>820.8128</ele>
        <time>2021-07-21T12:08:34Z</time>
      </trkpt>
      <trkpt lat="40.86051" lon="-0.38268">
        <ele>819.6407</ele>
        <time>2021-07-21T12:08:45Z</time>
      </trkpt>
      <trkpt lat="40.86141" lon="-0.38148">
        <ele>822.0553</ele>
        <time>2021-07-21T12:08:56Z</time>
      </trkpt>
      <trkpt lat="40.86209" lon="-0.3797">
        <ele>826.7713</ele>
        <time>2021-07-21T12:09:07Z</time>
      </trkpt>
      <trkpt lat="40.8629" lon="-0.37855">
        <ele>833.6229</ele>
        <time>2021-07-21T12:09:18Z</time>
      </trkpt>
      <trkpt lat="40.86329" lon="-0.37962">
        <ele>832.1994</ele>
        <time>2021-07-21T12:09:29Z</time>
      </trkpt>
      <trkpt lat="40.86363" lon="-0.38053">
        <ele>825.3619</ele>
        <time>2021-07-21T12:09:40Z</time>
      </trkpt>
      <trkpt lat="40.86459" lon="-0.38019">
        <ele>816.3547</ele>
        <time>2021-07-21T12:09:51Z</time>
      </trkpt>
      <trkpt lat="40.86522" lon="-0.37873">
        <ele>810.6909</ele>
        <time>2021-07-21T12:10:02Z</time>
      </trkpt>
      <trkpt lat="40.86641" lon="-0.37747">
        <ele>800.8533</ele>
        <time>2021-07-21T12:10:13Z</time>
      </trkpt>
      <trkpt lat="40.86679" lon="-0.376">
        <ele>790.9831</ele>
        <time>2021-07-21T12:10:24Z</time>
      </trkpt>
      <trkpt lat="40.86779" lon="-0.37452">
        <ele>797.4904</ele>
        <time>2021-07-21T12:10:35Z</time>
      </trkpt>
      <trkpt lat="40.86822" lon="-0.3727">
        <ele>823.2854</ele>
        <time>2021-07-21T12:10:46Z</time>
      </trkpt>
      <trkpt lat="40.86883" lon="-0.3717">
        <ele>831.8589</ele>
        <time>2021-07-21T12:10:57Z</time>
      </trkpt>
      <trkpt lat="40.87001" lon="-0.37182">
        <ele>835.1608</ele>
        <time>2021-07-21T12:11:08Z</time>
      </trkpt>
      <trkpt lat="40.87094" lon="-0.37086">
        <ele>829.2371</ele>
        <time>2021-07-21T12:11:19Z</time>
      </trkpt>
      <trkpt lat="40.87235" lon="-0.37069">
        <ele>835.029</ele>
        <time>2021-07-21T12:11:30Z</time>
      </trkpt>
      <trkpt lat="40.87319" lon="-0.36962">
        <ele>834.107</ele>
        <time>2021-07-21T12:11:41Z</time>
      </trkpt>
      <trkpt lat="40.87369" lon="-0.36813">
        <ele>821.0422</ele>
        <time>2021-07-21T12:11:52Z</time>
      </trkpt>
      <trkpt lat="40.87435" lon="-0.36721">
        <ele>799.0138</ele>
        <time>2021-07-21T12:12:03Z</time>
      </trkpt>
      <trkpt lat="40.87445" lon="-0.36578">
        <ele>794.3287</ele>
        <time>2021-07-21T12:12:14Z</time>
      </trkpt>
      <trkpt lat="40.87438" lon="-0.36406">
        <ele>794.9478</ele>
        <time>2021-07-21T12:12:25Z</time>
      </trkpt>
      <trkpt lat="40.87473" lon="-0.36267">
        <ele>798.097</ele>
        <time>2021-07-21T12:12:36Z</time>
      </trkpt>
      <trkpt lat="40.87531" lon="-0.3618">
        <ele>803.596</ele>
        <time>2021-07-21T12:12:47Z</time>
      </trkpt>
      <trkpt lat="40.87565" lon="-0.36128">
        <ele>801.4295</ele>
        <time>2021-07-21T12:12:58Z</time>
      </trkpt>
      <trkpt lat="40.87659" lon="-0.36095">
        <ele>797.5321</ele>
        <time>2021-07-21T12:13:09Z</time>
      </trkpt>
      <trkpt lat="40.8777" lon="-0.36014">
        <ele>787.4945</ele>
        <time>2021-07-21T12:13:20Z</time>
      </trkpt>
      <trkpt lat="40.87889" lon="-0.35857">
        <ele>778.8977</ele>
        <time>2021-07-21T12:13:31Z</time>
      </trkpt>
      <trkpt lat="40.87995" lon="-0.3571">
        <ele>766.772</ele>
        <time>2021-07-21T12:13:42Z</time>
      </trkpt>
      <trkpt lat="40.88101" lon="-0.35609">
        <ele>749.9757</ele>
        <time>2021-07-21T12:13:53Z</time>
      </trkpt>
      <trkpt lat="40.88212" lon="-0.35634">
        <ele>738.9451</ele>
        <time>2021-07-21T12:14:04Z</time>
      </trkpt>
      <trkpt lat="40.88299" lon="-0.35721">
        <ele>728.6583</ele>
        <time>2021-07-21T12:14:15Z</time>
      </trkpt>
      <trkpt lat="40.88366" lon="-0.35924">
        <ele>711.9516</ele>
        <time>2021-07-21T12:14:26Z</time>
      </trkpt>
      <trkpt lat="40.88401" lon="-0.36019">
        <ele>703.1877</ele>
        <time>2021-07-21T12:14:37Z</time>
      </trkpt>
      <trkpt lat="40.88504" lon="-0.36032">
        <ele>705.6053</ele>
        <time>2021-07-21T12:14:48Z</time>
      </trkpt>
      <trkpt lat="40.88624" lon="-0.36032">
        <ele>710.094</ele>
        <time>2021-07-21T12:14:59Z</time>
      </trkpt>
      <trkpt lat="40.88668" lon="-0.3615">
        <ele>705.2311</ele>
        <time>2021-07-21T12:15:10Z</time>
      </trkpt>
      <trkpt lat="40.8868" lon="-0.36076">
        <ele>696.5558</ele>
        <time>2021-07-21T12:15:21Z</time>
      </trkpt>
      <trkpt lat="40.88697" lon="-0.35931">
        <ele>680.2015</ele>
        <time>2021-07-21T12:15:32Z</time>
      </trkpt>
      <trkpt lat="40.88721" lon="-0.3584">
        <ele>661.0486</ele>
        <time>2021-07-21T12:15:43Z</time>
      </trkpt>
      <trkpt lat="40.88714" lon="-0.35733">
        <ele>656.4917</ele>
        <time>2021-07-21T12:15:54Z</time>
      </trkpt>
      <trkpt lat="40.88727" lon="-0.35613">
        <ele>669.9049</ele>
        <time>2021-07-21T12:16:05Z</time>
      </trkpt>
      <trkpt lat="40.88735" lon="-0.35448">
        <ele>679.192</ele>
        <time>2021-07-21T12:16:16Z</time>
      </trkpt>
      <trkpt lat="40.88692" lon="-0.35285">
        <ele>693.9034</ele>
        <time>2021-07-21T12:16:27Z</time>
      </trkpt>
      <trkpt lat="40.88645" lon="-0.35092">
        <ele>699.1737</ele>
        <time>2021-07-21T12:16:38Z</time>
      </trkpt>
      <trkpt lat="40.8856" lon="-0.34987">
        <ele>709.2784</ele>
        <time>2021-07-21T12:16:49Z</time>
      </trkpt>
      <trkpt lat="40.88519" lon="-0.34816">
        <ele>702.3732</ele>
        <time>2021-07-21T12:17:00Z</time>
      </trkpt>
      <trkpt lat="40.88564" lon="-0.34721">
        <ele>717.9056</ele>
        <time>2021-07-21T12:17:11Z</time>
      </trkpt>
      <trkpt lat="40.88639" lon="-0.3484">
        <ele>721.8088</ele>
        <time>2021-07-21T12:17:22Z</time>
      </trkpt>
      <trkpt lat="40.8873" lon="-0.3494">
        <ele>714.3561</ele>
        <time>2021-07-21T12:17:33Z</time>
      </trkpt>
      <trkpt lat="40.88867" lon="-0.35029">
        <ele>714.5907</ele>
        <time>2021-07-21T12:17:44Z</time>
      </trkpt>
      <trkpt lat="40.88979" lon="-0.35068">
        <ele>712.1653</ele>
        <time>2021-07-21T12:17:55Z</time>
      </trkpt>
      <trkpt lat="40.89083" lon="-0.35092">
        <ele>705.0284</ele>
        <time>2021-07-21T12:18:06Z</time>
      </trkpt>
      <trkpt lat="40.8916" lon="-0.35031">
        <ele>691.2797</ele>
        <time>2021-07-21T12:18:17Z</time>
      </trkpt>
      <trkpt lat="40.89254" lon="-0.35094">
        <ele>675.3269</ele>
        <time>2021-07-21T12:18:28Z</time>
      </trkpt>
      <trkpt lat="40.89291" lon="-0.3502">
        <ele>666.8611</ele>
        <time>2021-07-21T12:18:39Z</time>
      </trkpt>
      <trkpt lat="40.89364" lon="-0.35045">
        <ele>668.0026</ele>
        <time>2021-07-21T12:18:50Z</time>
      </trkpt>
      <trkpt lat="40.89416" lon="-0.35001">
        <ele>665.5157</ele>
        <time>2021-07-21T12:19:01Z</time>
      </trkpt>
      <trkpt lat="40.89517" lon="-0.34995">
        <ele>640.1892</ele>
        <time>2021-07-21T12:19:12Z</time>
      </trkpt>
      <trkpt lat="40.89628" lon="-0.34959">
        <ele>565.8356</ele>
        <time>2021-07-21T12:19:23Z</time>
      </trkpt>
      <trkpt lat="40.89676" lon="-0.34939">
        <ele>644.5508</ele>
        <time>2021-07-21T12:19:34Z</time>
      </trkpt>
      <trkpt lat="40.89698" lon="-0.34984">
        <ele>644.4303</ele>
        <time>2021-07-21T12:19:45Z</time>
      </trkpt>
      <trkpt lat="40.89745" lon="-0.35146">
        <ele>640.9207</ele>
        <time>2021-07-21T12:19:56Z</time>
      </trkpt>
      <trkpt lat="40.89766" lon="-0.35093">
        <ele>637.4992</ele>
        <time>2021-07-21T12:20:07Z</time>
      </trkpt>
      <trkpt lat="40.89751" lon="-0.34933">
        <ele>634.677</ele>
        <time>2021-07-21T12:20:18Z</time>
      </trkpt>
      <trkpt lat="40.89795" lon="-0.34783">
        <ele>630.0508</ele>
        <time>2021-07-21T12:20:29Z</time>
      </trkpt>
      <trkpt lat="40.89844" lon="-0.34645">
        <ele>629.3102</ele>
        <time>2021-07-21T12:20:40Z</time>
      </trkpt>
      <trkpt lat="40.89936" lon="-0.34464">
        <ele>627.9083</ele>
        <time>2021-07-21T12:20:51Z</time>
      </trkpt>
      <trkpt lat="40.89955" lon="-0.34303">
        <ele>623.0804</ele>
        <time>2021-07-21T12:21:02Z</time>
      </trkpt>
      <trkpt lat="40.90005" lon="-0.34148">
        <ele>615.8081</ele>
        <time>2021-07-21T12:21:13Z</time>
      </trkpt>
      <trkpt lat="40.90049" lon="-0.34015">
        <ele>611.2865</ele>
        <time>2021-07-21T12:21:24Z</time>
      </trkpt>
      <trkpt lat="40.90123" lon="-0.33911">
        <ele>605.2754</ele>
        <time>2021-07-21T12:21:35Z</time>
      </trkpt>
      <trkpt lat="40.90182" lon="-0.33817">
        <ele>602.3106</ele>
        <time>2021-07-21T12:21:46Z</time>
      </trkpt>
      <trkpt lat="40.9024" lon="-0.33765">
        <ele>599.0695</ele>
        <time>2021-07-21T12:21:57Z</time>
      </trkpt>
      <trkpt lat="40.90278" lon="-0.33689">
        <ele>595.4289</ele>
        <time>2021-07-21T12:22:08Z</time>
      </trkpt>
      <trkpt lat="40.90295" lon="-0.33571">
        <ele>588.0565</ele>
        <time>2021-07-21T12:22:19Z</time>
      </trkpt>
      <trkpt lat="40.90328" lon="-0.33498">
        <ele>587.5682</ele>
        <time>2021-07-21T12:22:30Z</time>
      </trkpt>
      <trkpt lat="40.9032" lon="-0.33409">
        <ele>588.8093</ele>
        <time>2021-07-21T12:22:41Z</time>
      </trkpt>
      <trkpt lat="40.90347" lon="-0.33334">
        <ele>579.052</ele>
        <time>2021-07-21T12:22:52Z</time>
      </trkpt>
      <trkpt lat="40.90383" lon="-0.33256">
        <ele>565.7159</ele>
        <time>2021-07-21T12:23:03Z</time>
      </trkpt>
      <trkpt lat="40.90447" lon="-0.33202">
        <ele>569.9636</ele>
        <time>2021-07-21T12:23:14Z</time>
      </trkpt>
      <trkpt lat="40.90461" lon="-0.33083">
        <ele>569.2349</ele>
        <time>2021-07-21T12:23:25Z</time>
      </trkpt>
      <trkpt lat="40.90478" lon="-0.33025">
        <ele>564.3046</ele>
        <time>2021-07-21T12:23:36Z</time>
      </trkpt>
      <trkpt lat="40.90492" lon="-0.33018">
        <ele>570.329</ele>
        <time>2021-07-21T12:23:47Z</time>
      </trkpt>
      <trkpt lat="40.90587" lon="-0.3302">
        <ele>579.7117</ele>
        <time>2021-07-21T12:23:58Z</time>
      </trkpt>
      <trkpt lat="40.90669" lon="-0.33022">
        <ele>578.0283</ele>
        <time>2021-07-21T12:24:09Z</time>
      </trkpt>
      <trkpt lat="40.90776" lon="-0.32986">
        <ele>575.2294</ele>
        <time>2021-07-21T12:24:20Z</time>
      </trkpt>
      <trkpt lat="40.90896" lon="-0.32913">
        <ele>567.6238</ele>
        <time>2021-07-21T12:24:31Z</time>
      </trkpt>
      <trkpt lat="40.91017" lon="-0.32768">
        <ele>555.3812</ele>
        <time>2021-07-21T12:24:42Z</time>
      </trkpt>
      <trkpt lat="40.90994" lon="-0.3276">
        <ele>553.5055</ele>
        <time>2021-07-21T12:24:53Z</time>
      </trkpt>
      <trkpt lat="40.90958" lon="-0.32695">
        <ele>549.9734</ele>
        <time>2021-07-21T12:25:04Z</time>
      </trkpt>
      <trkpt lat="40.90947" lon="-0.32524">
        <ele>549.7591</ele>
        <time>2021-07-21T12:25:15Z</time>
      </trkpt>
      <trkpt lat="40.90922" lon="-0.32351">
        <ele>540.1886</ele>
        <time>2021-07-21T12:25:26Z</time>
      </trkpt>
      <trkpt lat="40.90885" lon="-0.32188">
        <ele>552.0263</ele>
        <time>2021-07-21T12:25:37Z</time>
      </trkpt>
      <trkpt lat="40.90852" lon="-0.31993">
        <ele>564.3547</ele>
        <time>2021-07-21T12:25:48Z</time>
      </trkpt>
      <trkpt lat="40.90739" lon="-0.31896">
        <ele>578.6581</ele>
        <time>2021-07-21T12:25:59Z</time>
      </trkpt>
      <trkpt lat="40.90672" lon="-0.3177">
        <ele>593.6346</ele>
        <time>2021-07-21T12:26:10Z</time>
      </trkpt>
      <trkpt lat="40.90614" lon="-0.31664">
        <ele>600.0307</ele>
        <time>2021-07-21T12:26:21Z</time>
      </trkpt>
      <trkpt lat="40.90577" lon="-0.31589">
        <ele>610.2622</ele>
        <time>2021-07-21T12:26:32Z</time>
      </trkpt>
      <trkpt lat="40.9056" lon="-0.31433">
        <ele>618.3848</ele>
        <time>2021-07-21T12:26:43Z</time>
      </trkpt>
      <trkpt lat="40.90612" lon="-0.31326">
        <ele>619.8986</ele>
        <time>2021-07-21T12:26:54Z</time>
      </trkpt>
      <trkpt lat="40.90689" lon="-0.31166">
        <ele>620.9207</ele>
        <time>2021-07-21T12:27:05Z</time>
      </trkpt>
      <trkpt lat="40.90726" lon="-0.31035">
        <ele>596.9985</ele>
        <time>2021-07-21T12:27:16Z</time>
      </trkpt>
      <trkpt lat="40.90794" lon="-0.30889">
        <ele>587.3501</ele>
        <time>2021-07-21T12:27:27Z</time>
      </trkpt>
      <trkpt lat="40.90878" lon="-0.30717">
        <ele>584.1409</ele>
        <time>2021-07-21T12:27:38Z</time>
      </trkpt>
      <trkpt lat="40.90951" lon="-0.30543">
        <ele>577.1953</ele>
        <time>2021-07-21T12:27:49Z</time>
      </trkpt>
      <trkpt lat="40.90952" lon="-0.30438">
        <ele>586.4873</ele>
        <time>2021-07-21T12:28:00Z</time>
      </trkpt>
      <trkpt lat="40.90878" lon="-0.30366">
        <ele>596.9478</ele>
        <time>2021-07-21T12:28:11Z</time>
      </trkpt>
      <trkpt lat="40.90941" lon="-0.30298">
        <ele>604.4681</ele>
        <time>2021-07-21T12:28:22Z</time>
      </trkpt>
      <trkpt lat="40.91055" lon="-0.30249">
        <ele>605.5572</ele>
        <time>2021-07-21T12:28:33Z</time>
      </trkpt>
      <trkpt lat="40.91137" lon="-0.30135">
        <ele>598.3429</ele>
        <time>2021-07-21T12:28:44Z</time>
      </trkpt>
      <trkpt lat="40.911" lon="-0.3003">
        <ele>598.0882</ele>
        <time>2021-07-21T12:28:55Z</time>
      </trkpt>
      <trkpt lat="40.9119" lon="-0.2997">
        <ele>597.0645</ele>
        <time>2021-07-21T12:29:06Z</time>
      </trkpt>
      <trkpt lat="40.91225" lon="-0.29835">
        <ele>590.8144</ele>
        <time>2021-07-21T12:29:17Z</time>
      </trkpt>
      <trkpt lat="40.91264" lon="-0.29615">
        <ele>588.8967</ele>
        <time>2021-07-21T12:29:28Z</time>
      </trkpt>
      <trkpt lat="40.91263" lon="-0.29463">
        <ele>590.8009</ele>
        <time>2021-07-21T12:29:39Z</time>
      </trkpt>
      <trkpt lat="40.91345" lon="-0.29357">
        <ele>595.9651</ele>
        <time>2021-07-21T12:29:50Z</time>
      </trkpt>
      <trkpt lat="40.91398" lon="-0.292">
        <ele>604.1277</ele>
        <time>2021-07-21T12:30:01Z</time>
      </trkpt>
      <trkpt lat="40.91419" lon="-0.29048">
        <ele>606.9314</ele>
        <time>2021-07-21T12:30:12Z</time>
      </trkpt>
      <trkpt lat="40.91387" lon="-0.28913">
        <ele>605.2095</ele>
        <time>2021-07-21T12:30:23Z</time>
      </trkpt>
      <trkpt lat="40.91402" lon="-0.28773">
        <ele>601.1298</ele>
        <time>2021-07-21T12:30:34Z</time>
      </trkpt>
      <trkpt lat="40.91407" lon="-0.28652">
        <ele>598.9713</ele>
        <time>2021-07-21T12:30:45Z</time>
      </trkpt>
      <trkpt lat="40.91405" lon="-0.28639">
        <ele>604.3504</ele>
        <time>2021-07-21T12:30:56Z</time>
      </trkpt>
      <trkpt lat="40.91418" lon="-0.28552">
        <ele>603.9082</ele>
        <time>2021-07-21T12:31:07Z</time>
      </trkpt>
      <trkpt lat="40.91404" lon="-0.28429">
        <ele>589.2604</ele>
        <time>2021-07-21T12:31:18Z</time>
      </trkpt>
      <trkpt lat="40.91416" lon="-0.28332">
        <ele>573.9956</ele>
        <time>2021-07-21T12:31:29Z</time>
      </trkpt>
      <trkpt lat="40.91447" lon="-0.28253">
        <ele>559.4438</ele>
        <time>2021-07-21T12:31:40Z</time>
      </trkpt>
      <trkpt lat="40.91506" lon="-0.2814">
        <ele>548.0259</ele>
        <time>2021-07-21T12:31:51Z</time>
      </trkpt>
      <trkpt lat="40.91576" lon="-0.2813">
        <ele>551.2575</ele>
        <time>2021-07-21T12:32:02Z</time>
      </trkpt>
      <trkpt lat="40.91648" lon="-0.28117">
        <ele>544.6241</ele>
        <time>2021-07-21T12:32:13Z</time>
      </trkpt>
      <trkpt lat="40.91691" lon="-0.28024">
        <ele>535.4366</ele>
        <time>2021-07-21T12:32:24Z</time>
      </trkpt>
      <trkpt lat="40.91735" lon="-0.27955">
        <ele>532.5696</ele>
        <time>2021-07-21T12:32:35Z</time>
      </trkpt>
      <trkpt lat="40.91781" lon="-0.27845">
        <ele>525.1832</ele>
        <time>2021-07-21T12:32:46Z</time>
      </trkpt>
      <trkpt lat="40.91846" lon="-0.27755">
        <ele>520.0513</ele>
        <time>2021-07-21T12:32:57Z</time>
      </trkpt>
      <trkpt lat="40.91929" lon="-0.27661">
        <ele>505.2916</ele>
        <time>2021-07-21T12:33:08Z</time>
      </trkpt>
      <trkpt lat="40.91978" lon="-0.27542">
        <ele>500.8316</ele>
        <time>2021-07-21T12:33:19Z</time>
      </trkpt>
      <trkpt lat="40.9195" lon="-0.27368">
        <ele>502.4685</ele>
        <time>2021-07-21T12:33:30Z</time>
      </trkpt>
      <trkpt lat="40.91954" lon="-0.27206">
        <ele>498.625</ele>
        <time>2021-07-21T12:33:41Z</time>
      </trkpt>
      <trkpt lat="40.91965" lon="-0.27043">
        <ele>497.8631</ele>
        <time>2021-07-21T12:33:52Z</time>
      </trkpt>
      <trkpt lat="40.91937" lon="-0.26884">
        <ele>501.8403</ele>
        <time>2021-07-21T12:34:03Z</time>
      </trkpt>
      <trkpt lat="40.91919" lon="-0.26758">
        <ele>504.3035</ele>
        <time>2021-07-21T12:34:14Z</time>
      </trkpt>
      <trkpt lat="40.91974" lon="-0.26671">
        <ele>502.907</ele>
        <time>2021-07-21T12:34:25Z</time>
      </trkpt>
      <trkpt lat="40.92064" lon="-0.26616">
        <ele>504.5307</ele>
        <time>2021-07-21T12:34:36Z</time>
      </trkpt>
      <trkpt lat="40.92126" lon="-0.26594">
        <ele>499.3967</ele>
        <time>2021-07-21T12:34:47Z</time>
      </trkpt>
      <trkpt lat="40.92116" lon="-0.26525">
        <ele>495.678</ele>
        <time>2021-07-21T12:34:58Z</time>
      </trkpt>
      <trkpt lat="40.92111" lon="-0.26455">
        <ele>498.3696</ele>
        <time>2021-07-21T12:35:09Z</time>
      </trkpt>
      <trkpt lat="40.92142" lon="-0.26493">
        <ele>500.035</ele>
        <time>2021-07-21T12:35:20Z</time>
      </trkpt>
      <trkpt lat="40.9217" lon="-0.26533">
        <ele>502.4725</ele>
        <time>2021-07-21T12:35:31Z</time>
      </trkpt>
      <trkpt lat="40.92168" lon="-0.26528">
        <ele>497.1019</ele>
        <time>2021-07-21T12:36:01Z</time>
      </trkpt>
      <trkpt lat="40.92169" lon="-0.26528">
        <ele>497.36</ele>
        <time>2021-07-21T12:37:00Z</time>
      </trkpt>
      <trkpt lat="40.92169" lon="-0.2653">
        <ele>495.8448</ele>
        <time>2021-07-21T12:37:59Z</time>
      </trkpt>
      <trkpt lat="40.92172" lon="-0.26528">
        <ele>495.3903</ele>
        <time>2021-07-21T12:38:42Z</time>
      </trkpt>
      <trkpt lat="40.9217" lon="-0.26532">
        <ele>497.7496</ele>
        <time>2021-07-21T12:39:33Z</time>
      </trkpt>
      <trkpt lat="40.92171" lon="-0.2653">
        <ele>497.8497</ele>
        <time>2021-07-21T12:40:33Z</time>
      </trkpt>
      <trkpt lat="40.9217" lon="-0.26529">
        <ele>498.0166</ele>
        <time>2021-07-21T12:41:33Z</time>
      </trkpt>
      <trkpt lat="40.92167" lon="-0.26532">
        <ele>498.2715</ele>
        <time>2021-07-21T12:42:28Z</time>
      </trkpt>
      <trkpt lat="40.92164" lon="-0.26535">
        <ele>498.2938</ele>
        <time>2021-07-21T12:42:52Z</time>
      </trkpt>
      <trkpt lat="40.92167" lon="-0.26532">
        <ele>497.6822</ele>
        <time>2021-07-21T12:43:40Z</time>
      </trkpt>
      <trkpt lat="40.92171" lon="-0.2653">
        <ele>498.3605</ele>
        <time>2021-07-21T12:43:53Z</time>
      </trkpt>
      <trkpt lat="40.92177" lon="-0.26527">
        <ele>498.1947</ele>
        <time>2021-07-21T12:44:04Z</time>
      </trkpt>
      <trkpt lat="40.92173" lon="-0.26528">
        <ele>499.2064</ele>
        <time>2021-07-21T12:44:47Z</time>
      </trkpt>
      <trkpt lat="40.92172" lon="-0.26533">
        <ele>497.2447</ele>
        <time>2021-07-21T12:45:02Z</time>
      </trkpt>
      <trkpt lat="40.92192" lon="-0.26564">
        <ele>495.7454</ele>
        <time>2021-07-21T12:45:13Z</time>
      </trkpt>
      <trkpt lat="40.92202" lon="-0.26622">
        <ele>493.163</ele>
        <time>2021-07-21T12:45:24Z</time>
      </trkpt>
      <trkpt lat="40.92201" lon="-0.26668">
        <ele>492.5475</ele>
        <time>2021-07-21T12:45:35Z</time>
      </trkpt>
      <trkpt lat="40.92163" lon="-0.26716">
        <ele>493.2487</ele>
        <time>2021-07-21T12:45:46Z</time>
      </trkpt>
      <trkpt lat="40.92254" lon="-0.26863">
        <ele>483.5889</ele>
        <time>2021-07-21T12:45:57Z</time>
      </trkpt>
      <trkpt lat="40.9236" lon="-0.26864">
        <ele>478.1948</ele>
        <time>2021-07-21T12:46:09Z</time>
      </trkpt>
      <trkpt lat="40.92431" lon="-0.26876">
        <ele>485.6434</ele>
        <time>2021-07-21T12:46:20Z</time>
      </trkpt>
      <trkpt lat="40.92527" lon="-0.26894">
        <ele>476.6704</ele>
        <time>2021-07-21T12:46:31Z</time>
      </trkpt>
      <trkpt lat="40.92619" lon="-0.26929">
        <ele>476.67</ele>
        <time>2021-07-21T12:46:42Z</time>
      </trkpt>
      <trkpt lat="40.92677" lon="-0.26805">
        <ele>483.8662</ele>
        <time>2021-07-21T12:46:53Z</time>
      </trkpt>
      <trkpt lat="40.92746" lon="-0.26711">
        <ele>483.2231</ele>
        <time>2021-07-21T12:47:04Z</time>
      </trkpt>
      <trkpt lat="40.92798" lon="-0.26603">
        <ele>486.8436</ele>
        <time>2021-07-21T12:47:15Z</time>
      </trkpt>
      <trkpt lat="40.92886" lon="-0.26519">
        <ele>480.2533</ele>
        <time>2021-07-21T12:47:26Z</time>
      </trkpt>
      <trkpt lat="40.93002" lon="-0.26446">
        <ele>473.3766</ele>
        <time>2021-07-21T12:47:37Z</time>
      </trkpt>
      <trkpt lat="40.93089" lon="-0.26339">
        <ele>467.8666</ele>
        <time>2021-07-21T12:47:48Z</time>
      </trkpt>
      <trkpt lat="40.93148" lon="-0.26201">
        <ele>461.6102</ele>
        <time>2021-07-21T12:47:59Z</time>
      </trkpt>
      <trkpt lat="40.9317" lon="-0.26081">
        <ele>459.1771</ele>
        <time>2021-07-21T12:48:10Z</time>
      </trkpt>
      <trkpt lat="40.93244" lon="-0.25972">
        <ele>459.6368</ele>
        <time>2021-07-21T12:48:21Z</time>
      </trkpt>
      <trkpt lat="40.93234" lon="-0.2577">
        <ele>465.9956</ele>
        <time>2021-07-21T12:48:32Z</time>
      </trkpt>
      <trkpt lat="40.93215" lon="-0.25578">
        <ele>461.4568</ele>
        <time>2021-07-21T12:48:43Z</time>
      </trkpt>
      <trkpt lat="40.9319" lon="-0.25388">
        <ele>459.9849</ele>
        <time>2021-07-21T12:48:54Z</time>
      </trkpt>
      <trkpt lat="40.93173" lon="-0.25187">
        <ele>459.8477</ele>
        <time>2021-07-21T12:49:05Z</time>
      </trkpt>
      <trkpt lat="40.93172" lon="-0.25026">
        <ele>456.6131</ele>
        <time>2021-07-21T12:49:16Z</time>
      </trkpt>
      <trkpt lat="40.93251" lon="-0.24919">
        <ele>456.0543</ele>
        <time>2021-07-21T12:49:27Z</time>
      </trkpt>
      <trkpt lat="40.93352" lon="-0.25">
        <ele>460.3535</ele>
        <time>2021-07-21T12:49:38Z</time>
      </trkpt>
      <trkpt lat="40.9347" lon="-0.25042">
        <ele>455.908</ele>
        <time>2021-07-21T12:49:49Z</time>
      </trkpt>
      <trkpt lat="40.93587" lon="-0.24944">
        <ele>461.7449</ele>
        <time>2021-07-21T12:50:00Z</time>
      </trkpt>
      <trkpt lat="40.93649" lon="-0.2478">
        <ele>461.9992</ele>
        <time>2021-07-21T12:50:11Z</time>
      </trkpt>
      <trkpt lat="40.93723" lon="-0.246">
        <ele>461.5996</ele>
        <time>2021-07-21T12:50:22Z</time>
      </trkpt>
      <trkpt lat="40.93799" lon="-0.24423">
        <ele>447.1233</ele>
        <time>2021-07-21T12:50:33Z</time>
      </trkpt>
      <trkpt lat="40.93839" lon="-0.24327">
        <ele>453.6804</ele>
        <time>2021-07-21T12:50:44Z</time>
      </trkpt>
      <trkpt lat="40.9391" lon="-0.24378">
        <ele>467.3438</ele>
        <time>2021-07-21T12:50:55Z</time>
      </trkpt>
      <trkpt lat="40.94043" lon="-0.24486">
        <ele>473.7579</ele>
        <time>2021-07-21T12:51:06Z</time>
      </trkpt>
      <trkpt lat="40.94156" lon="-0.24588">
        <ele>469.5462</ele>
        <time>2021-07-21T12:51:17Z</time>
      </trkpt>
      <trkpt lat="40.94208" lon="-0.24611">
        <ele>484.1253</ele>
        <time>2021-07-21T12:51:28Z</time>
      </trkpt>
      <trkpt lat="40.94188" lon="-0.24461">
        <ele>486.0141</ele>
        <time>2021-07-21T12:51:39Z</time>
      </trkpt>
      <trkpt lat="40.94099" lon="-0.24196">
        <ele>480.6341</ele>
        <time>2021-07-21T12:51:50Z</time>
      </trkpt>
      <trkpt lat="40.9405" lon="-0.23936">
        <ele>464.1628</ele>
        <time>2021-07-21T12:52:01Z</time>
      </trkpt>
      <trkpt lat="40.94043" lon="-0.23692">
        <ele>456.3819</ele>
        <time>2021-07-21T12:52:12Z</time>
      </trkpt>
      <trkpt lat="40.94094" lon="-0.23528">
        <ele>457.4623</ele>
        <time>2021-07-21T12:52:23Z</time>
      </trkpt>
      <trkpt lat="40.94178" lon="-0.23412">
        <ele>458.5554</ele>
        <time>2021-07-21T12:52:34Z</time>
      </trkpt>
      <trkpt lat="40.94249" lon="-0.23306">
        <ele>462.5145</ele>
        <time>2021-07-21T12:52:45Z</time>
      </trkpt>
      <trkpt lat="40.94265" lon="-0.23286">
        <ele>461.6483</ele>
        <time>2021-07-21T12:52:56Z</time>
      </trkpt>
      <trkpt lat="40.94267" lon="-0.23289">
        <ele>461.7291</ele>
        <time>2021-07-21T12:53:14Z</time>
      </trkpt>
      <trkpt lat="40.94271" lon="-0.23287">
        <ele>460.4113</ele>
        <time>2021-07-21T12:53:28Z</time>
      </trkpt>
      <trkpt lat="40.94274" lon="-0.23285">
        <ele>460.6866</ele>
        <time>2021-07-21T12:53:39Z</time>
      </trkpt>
      <trkpt lat="40.94272" lon="-0.23277">
        <ele>461.306</ele>
        <time>2021-07-21T12:53:50Z</time>
      </trkpt>
      <trkpt lat="40.94268" lon="-0.23283">
        <ele>461.6172</ele>
        <time>2021-07-21T12:54:01Z</time>
      </trkpt>
      <trkpt lat="40.94272" lon="-0.23282">
        <ele>460.5083</ele>
        <time>2021-07-21T12:54:41Z</time>
      </trkpt>
      <trkpt lat="40.94267" lon="-0.23282">
        <ele>461.7449</ele>
        <time>2021-07-21T12:55:35Z</time>
      </trkpt>
      <trkpt lat="40.94266" lon="-0.23286">
        <ele>461.5246</ele>
        <time>2021-07-21T12:56:06Z</time>
      </trkpt>
      <trkpt lat="40.94271" lon="-0.23282">
        <ele>461.744</ele>
        <time>2021-07-21T12:56:17Z</time>
      </trkpt>
      <trkpt lat="40.94312" lon="-0.23232">
        <ele>463.773</ele>
        <time>2021-07-21T12:56:28Z</time>
      </trkpt>
      <trkpt lat="40.94456" lon="-0.23148">
        <ele>462.5982</ele>
        <time>2021-07-21T12:56:39Z</time>
      </trkpt>
      <trkpt lat="40.94604" lon="-0.23079">
        <ele>459.311</ele>
        <time>2021-07-21T12:56:50Z</time>
      </trkpt>
      <trkpt lat="40.94658" lon="-0.23034">
        <ele>457.2209</ele>
        <time>2021-07-21T12:57:01Z</time>
      </trkpt>
      <trkpt lat="40.94677" lon="-0.23024">
        <ele>456.242</ele>
        <time>2021-07-21T12:57:12Z</time>
      </trkpt>
      <trkpt lat="40.94675" lon="-0.23023">
        <ele>456.5426</ele>
        <time>2021-07-21T12:58:12Z</time>
      </trkpt>
      <trkpt lat="40.94675" lon="-0.23023">
        <ele>456.5426</ele>
        <time>2021-07-21T12:59:12Z</time>
      </trkpt>
      <trkpt lat="40.94675" lon="-0.23023">
        <ele>456.5426</ele>
        <time>2021-07-21T13:00:12Z</time>
      </trkpt>
      <trkpt lat="40.94675" lon="-0.23023">
        <ele>456.5426</ele>
        <time>2021-07-21T13:01:12Z</time>
      </trkpt>
      <trkpt lat="40.94675" lon="-0.23023">
        <ele>456.5426</ele>
        <time>2021-07-21T13:02:12Z</time>
      </trkpt>
      <trkpt lat="40.94679" lon="-0.23024">
        <ele>456.0051</ele>
        <time>2021-07-21T13:03:12Z</time>
      </trkpt>
      <trkpt lat="40.94678" lon="-0.23024">
        <ele>456.0883</ele>
        <time>2021-07-21T13:04:12Z</time>
      </trkpt>
      <trkpt lat="40.94677" lon="-0.23026">
        <ele>456.0941</ele>
        <time>2021-07-21T13:05:12Z</time>
      </trkpt>
      <trkpt lat="40.94677" lon="-0.23026">
        <ele>456.0941</ele>
        <time>2021-07-21T13:06:12Z</time>
      </trkpt>
      <trkpt lat="40.94677" lon="-0.23026">
        <ele>456.0941</ele>
        <time>2021-07-21T13:07:12Z</time>
      </trkpt>
      <trkpt lat="40.94677" lon="-0.23026">
        <ele>456.0941</ele>
        <time>2021-07-21T13:08:12Z</time>
      </trkpt>
      <trkpt lat="40.94677" lon="-0.23026">
        <ele>456.0941</ele>
        <time>2021-07-21T13:09:12Z</time>
      </trkpt>
      <trkpt lat="40.94678" lon="-0.23024">
        <ele>456.7294</ele>
        <time>2021-07-21T13:10:12Z</time>
      </trkpt>
      <trkpt lat="40.94678" lon="-0.23025">
        <ele>456.7453</ele>
        <time>2021-07-21T13:11:12Z</time>
      </trkpt>
      <trkpt lat="40.94678" lon="-0.23026">
        <ele>456.3376</ele>
        <time>2021-07-21T13:12:12Z</time>
      </trkpt>
      <trkpt lat="40.94682" lon="-0.23037">
        <ele>458.8435</ele>
        <time>2021-07-21T13:12:23Z</time>
      </trkpt>
      <trkpt lat="40.94664" lon="-0.23055">
        <ele>456.8777</ele>
        <time>2021-07-21T13:12:34Z</time>
      </trkpt>
      <trkpt lat="40.94521" lon="-0.23122">
        <ele>462.3873</ele>
        <time>2021-07-21T13:12:45Z</time>
      </trkpt>
      <trkpt lat="40.94374" lon="-0.23191">
        <ele>462.845</ele>
        <time>2021-07-21T13:12:56Z</time>
      </trkpt>
      <trkpt lat="40.94309" lon="-0.23172">
        <ele>464.2746</ele>
        <time>2021-07-21T13:13:07Z</time>
      </trkpt>
      <trkpt lat="40.94242" lon="-0.23028">
        <ele>465.8351</ele>
        <time>2021-07-21T13:13:18Z</time>
      </trkpt>
      <trkpt lat="40.94155" lon="-0.22841">
        <ele>466.5513</ele>
        <time>2021-07-21T13:13:29Z</time>
      </trkpt>
      <trkpt lat="40.94066" lon="-0.22655">
        <ele>455.7894</ele>
        <time>2021-07-21T13:13:40Z</time>
      </trkpt>
      <trkpt lat="40.93988" lon="-0.22489">
        <ele>447.0435</ele>
        <time>2021-07-21T13:13:51Z</time>
      </trkpt>
      <trkpt lat="40.94011" lon="-0.22346">
        <ele>449.1105</ele>
        <time>2021-07-21T13:14:02Z</time>
      </trkpt>
      <trkpt lat="40.94106" lon="-0.22159">
        <ele>448.4839</ele>
        <time>2021-07-21T13:14:13Z</time>
      </trkpt>
      <trkpt lat="40.94166" lon="-0.21907">
        <ele>443.2567</ele>
        <time>2021-07-21T13:14:24Z</time>
      </trkpt>
      <trkpt lat="40.9416" lon="-0.21605">
        <ele>446.5586</ele>
        <time>2021-07-21T13:14:35Z</time>
      </trkpt>
      <trkpt lat="40.94167" lon="-0.21308">
        <ele>435.6522</ele>
        <time>2021-07-21T13:14:46Z</time>
      </trkpt>
      <trkpt lat="40.94314" lon="-0.21089">
        <ele>430.7479</ele>
        <time>2021-07-21T13:14:57Z</time>
      </trkpt>
      <trkpt lat="40.9448" lon="-0.20882">
        <ele>424.7562</ele>
        <time>2021-07-21T13:15:08Z</time>
      </trkpt>
      <trkpt lat="40.9464" lon="-0.20594">
        <ele>422.5133</ele>
        <time>2021-07-21T13:15:19Z</time>
      </trkpt>
      <trkpt lat="40.94809" lon="-0.20443">
        <ele>421.1101</ele>
        <time>2021-07-21T13:15:30Z</time>
      </trkpt>
      <trkpt lat="40.94965" lon="-0.20229">
        <ele>424.2529</ele>
        <time>2021-07-21T13:15:41Z</time>
      </trkpt>
      <trkpt lat="40.95098" lon="-0.19973">
        <ele>422.7065</ele>
        <time>2021-07-21T13:15:52Z</time>
      </trkpt>
      <trkpt lat="40.95246" lon="-0.19785">
        <ele>416.8829</ele>
        <time>2021-07-21T13:16:03Z</time>
      </trkpt>
      <trkpt lat="40.95359" lon="-0.1952">
        <ele>411.2745</ele>
        <time>2021-07-21T13:16:14Z</time>
      </trkpt>
      <trkpt lat="40.95495" lon="-0.19255">
        <ele>406.7625</ele>
        <time>2021-07-21T13:16:25Z</time>
      </trkpt>
      <trkpt lat="40.95649" lon="-0.18988">
        <ele>406.7685</ele>
        <time>2021-07-21T13:16:36Z</time>
      </trkpt>
      <trkpt lat="40.95738" lon="-0.18747">
        <ele>402.367</ele>
        <time>2021-07-21T13:16:47Z</time>
      </trkpt>
      <trkpt lat="40.95941" lon="-0.18582">
        <ele>395.6486</ele>
        <time>2021-07-21T13:16:58Z</time>
      </trkpt>
      <trkpt lat="40.96103" lon="-0.18344">
        <ele>391.8523</ele>
        <time>2021-07-21T13:17:09Z</time>
      </trkpt>
      <trkpt lat="40.96218" lon="-0.18094">
        <ele>389.2013</ele>
        <time>2021-07-21T13:17:20Z</time>
      </trkpt>
      <trkpt lat="40.96323" lon="-0.17827">
        <ele>380.0191</ele>
        <time>2021-07-21T13:17:31Z</time>
      </trkpt>
      <trkpt lat="40.96499" lon="-0.17741">
        <ele>377.2627</ele>
        <time>2021-07-21T13:17:42Z</time>
      </trkpt>
      <trkpt lat="40.96675" lon="-0.17556">
        <ele>378.1794</ele>
        <time>2021-07-21T13:17:53Z</time>
      </trkpt>
      <trkpt lat="40.9686" lon="-0.17401">
        <ele>376.9274</ele>
        <time>2021-07-21T13:18:04Z</time>
      </trkpt>
      <trkpt lat="40.9699" lon="-0.17212">
        <ele>372.0926</ele>
        <time>2021-07-21T13:18:15Z</time>
      </trkpt>
      <trkpt lat="40.97145" lon="-0.17102">
        <ele>367.7533</ele>
        <time>2021-07-21T13:18:26Z</time>
      </trkpt>
      <trkpt lat="40.97261" lon="-0.17056">
        <ele>363.4413</ele>
        <time>2021-07-21T13:18:37Z</time>
      </trkpt>
      <trkpt lat="40.97368" lon="-0.17033">
        <ele>360.5215</ele>
        <time>2021-07-21T13:18:48Z</time>
      </trkpt>
      <trkpt lat="40.97437" lon="-0.16934">
        <ele>364.5935</ele>
        <time>2021-07-21T13:18:59Z</time>
      </trkpt>
      <trkpt lat="40.97517" lon="-0.16815">
        <ele>366.284</ele>
        <time>2021-07-21T13:19:10Z</time>
      </trkpt>
      <trkpt lat="40.97556" lon="-0.16725">
        <ele>368.529</ele>
        <time>2021-07-21T13:19:21Z</time>
      </trkpt>
      <trkpt lat="40.97596" lon="-0.16459">
        <ele>367.4006</ele>
        <time>2021-07-21T13:19:32Z</time>
      </trkpt>
      <trkpt lat="40.97618" lon="-0.16171">
        <ele>363.0215</ele>
        <time>2021-07-21T13:19:43Z</time>
      </trkpt>
      <trkpt lat="40.97694" lon="-0.15982">
        <ele>367.0178</ele>
        <time>2021-07-21T13:19:54Z</time>
      </trkpt>
      <trkpt lat="40.97821" lon="-0.15769">
        <ele>372.3515</ele>
        <time>2021-07-21T13:20:05Z</time>
      </trkpt>
      <trkpt lat="40.97932" lon="-0.15604">
        <ele>369.1634</ele>
        <time>2021-07-21T13:20:16Z</time>
      </trkpt>
      <trkpt lat="40.98073" lon="-0.15542">
        <ele>364.0317</ele>
        <time>2021-07-21T13:20:27Z</time>
      </trkpt>
      <trkpt lat="40.98032" lon="-0.15425">
        <ele>359.7526</ele>
        <time>2021-07-21T13:20:38Z</time>
      </trkpt>
      <trkpt lat="40.97925" lon="-0.1517">
        <ele>355.6516</ele>
        <time>2021-07-21T13:20:49Z</time>
      </trkpt>
      <trkpt lat="40.97803" lon="-0.14887">
        <ele>363.6837</ele>
        <time>2021-07-21T13:21:00Z</time>
      </trkpt>
      <trkpt lat="40.97666" lon="-0.146">
        <ele>384.0781</ele>
        <time>2021-07-21T13:21:11Z</time>
      </trkpt>
      <trkpt lat="40.97685" lon="-0.14365">
        <ele>383.7954</ele>
        <time>2021-07-21T13:21:22Z</time>
      </trkpt>
      <trkpt lat="40.97745" lon="-0.14248">
        <ele>382.2898</ele>
        <time>2021-07-21T13:21:33Z</time>
      </trkpt>
      <trkpt lat="40.97815" lon="-0.14216">
        <ele>379.8321</ele>
        <time>2021-07-21T13:21:44Z</time>
      </trkpt>
      <trkpt lat="40.98007" lon="-0.14246">
        <ele>376.2743</ele>
        <time>2021-07-21T13:21:55Z</time>
      </trkpt>
      <trkpt lat="40.9821" lon="-0.14121">
        <ele>364.3123</ele>
        <time>2021-07-21T13:22:06Z</time>
      </trkpt>
      <trkpt lat="40.98361" lon="-0.1401">
        <ele>359.9811</ele>
        <time>2021-07-21T13:22:17Z</time>
      </trkpt>
      <trkpt lat="40.98423" lon="-0.13896">
        <ele>361.9082</ele>
        <time>2021-07-21T13:22:28Z</time>
      </trkpt>
      <trkpt lat="40.98444" lon="-0.13789">
        <ele>364.7855</ele>
        <time>2021-07-21T13:22:39Z</time>
      </trkpt>
      <trkpt lat="40.98414" lon="-0.13664">
        <ele>365.2821</ele>
        <time>2021-07-21T13:22:50Z</time>
      </trkpt>
      <trkpt lat="40.98336" lon="-0.13545">
        <ele>364.4404</ele>
        <time>2021-07-21T13:23:01Z</time>
      </trkpt>
      <trkpt lat="40.98305" lon="-0.13385">
        <ele>366.5577</ele>
        <time>2021-07-21T13:23:12Z</time>
      </trkpt>
      <trkpt lat="40.98327" lon="-0.13168">
        <ele>379.5489</ele>
        <time>2021-07-21T13:23:23Z</time>
      </trkpt>
      <trkpt lat="40.98314" lon="-0.13036">
        <ele>385.0427</ele>
        <time>2021-07-21T13:23:34Z</time>
      </trkpt>
      <trkpt lat="40.98313" lon="-0.12862">
        <ele>392.1344</ele>
        <time>2021-07-21T13:23:45Z</time>
      </trkpt>
      <trkpt lat="40.98302" lon="-0.12714">
        <ele>390.4353</ele>
        <time>2021-07-21T13:23:56Z</time>
      </trkpt>
      <trkpt lat="40.98289" lon="-0.12542">
        <ele>391.0229</ele>
        <time>2021-07-21T13:24:07Z</time>
      </trkpt>
      <trkpt lat="40.98206" lon="-0.12387">
        <ele>395.7627</ele>
        <time>2021-07-21T13:24:18Z</time>
      </trkpt>
      <trkpt lat="40.9817" lon="-0.12204">
        <ele>399.5896</ele>
        <time>2021-07-21T13:24:29Z</time>
      </trkpt>
      <trkpt lat="40.98109" lon="-0.12029">
        <ele>397.1266</ele>
        <time>2021-07-21T13:24:40Z</time>
      </trkpt>
      <trkpt lat="40.98058" lon="-0.11853">
        <ele>396.4129</ele>
        <time>2021-07-21T13:24:51Z</time>
      </trkpt>
      <trkpt lat="40.98006" lon="-0.11696">
        <ele>396.9888</ele>
        <time>2021-07-21T13:25:02Z</time>
      </trkpt>
      <trkpt lat="40.97987" lon="-0.11521">
        <ele>403.0084</ele>
        <time>2021-07-21T13:25:13Z</time>
      </trkpt>
      <trkpt lat="40.98053" lon="-0.11447">
        <ele>409.2585</ele>
        <time>2021-07-21T13:25:24Z</time>
      </trkpt>
      <trkpt lat="40.98065" lon="-0.11335">
        <ele>412.2667</ele>
        <time>2021-07-21T13:25:35Z</time>
      </trkpt>
      <trkpt lat="40.98033" lon="-0.11226">
        <ele>422.8548</ele>
        <time>2021-07-21T13:25:46Z</time>
      </trkpt>
      <trkpt lat="40.98058" lon="-0.11094">
        <ele>426.8646</ele>
        <time>2021-07-21T13:25:57Z</time>
      </trkpt>
      <trkpt lat="40.98048" lon="-0.11025">
        <ele>427.6207</ele>
        <time>2021-07-21T13:26:08Z</time>
      </trkpt>
      <trkpt lat="40.97967" lon="-0.10941">
        <ele>421.0635</ele>
        <time>2021-07-21T13:26:19Z</time>
      </trkpt>
      <trkpt lat="40.97886" lon="-0.10862">
        <ele>414.1984</ele>
        <time>2021-07-21T13:26:30Z</time>
      </trkpt>
      <trkpt lat="40.97796" lon="-0.10834">
        <ele>407.8809</ele>
        <time>2021-07-21T13:26:41Z</time>
      </trkpt>
      <trkpt lat="40.97789" lon="-0.10696">
        <ele>406.9538</ele>
        <time>2021-07-21T13:26:52Z</time>
      </trkpt>
      <trkpt lat="40.9776" lon="-0.1062">
        <ele>407.7776</ele>
        <time>2021-07-21T13:27:03Z</time>
      </trkpt>
      <trkpt lat="40.97683" lon="-0.10576">
        <ele>416.3542</ele>
        <time>2021-07-21T13:27:14Z</time>
      </trkpt>
      <trkpt lat="40.97587" lon="-0.10491">
        <ele>424.5419</ele>
        <time>2021-07-21T13:27:25Z</time>
      </trkpt>
      <trkpt lat="40.97464" lon="-0.10396">
        <ele>429.4272</ele>
        <time>2021-07-21T13:27:36Z</time>
      </trkpt>
      <trkpt lat="40.9736" lon="-0.10314">
        <ele>441.6376</ele>
        <time>2021-07-21T13:27:47Z</time>
      </trkpt>
      <trkpt lat="40.9725" lon="-0.10253">
        <ele>443.7182</ele>
        <time>2021-07-21T13:27:58Z</time>
      </trkpt>
      <trkpt lat="40.97181" lon="-0.10154">
        <ele>447.3289</ele>
        <time>2021-07-21T13:28:09Z</time>
      </trkpt>
      <trkpt lat="40.97084" lon="-0.10096">
        <ele>446.4193</ele>
        <time>2021-07-21T13:28:20Z</time>
      </trkpt>
      <trkpt lat="40.97006" lon="-0.10066">
        <ele>447.5811</ele>
        <time>2021-07-21T13:28:31Z</time>
      </trkpt>
      <trkpt lat="40.96957" lon="-0.0995">
        <ele>452.5495</ele>
        <time>2021-07-21T13:28:42Z</time>
      </trkpt>
      <trkpt lat="40.96907" lon="-0.0978">
        <ele>455.3653</ele>
        <time>2021-07-21T13:28:53Z</time>
      </trkpt>
      <trkpt lat="40.96792" lon="-0.09714">
        <ele>460.5052</ele>
        <time>2021-07-21T13:29:04Z</time>
      </trkpt>
      <trkpt lat="40.96746" lon="-0.09624">
        <ele>462.898</ele>
        <time>2021-07-21T13:29:15Z</time>
      </trkpt>
      <trkpt lat="40.96673" lon="-0.09622">
        <ele>469.9876</ele>
        <time>2021-07-21T13:29:26Z</time>
      </trkpt>
      <trkpt lat="40.96586" lon="-0.09532">
        <ele>477.4462</ele>
        <time>2021-07-21T13:29:37Z</time>
      </trkpt>
      <trkpt lat="40.96507" lon="-0.09463">
        <ele>470.9105</ele>
        <time>2021-07-21T13:29:48Z</time>
      </trkpt>
      <trkpt lat="40.96408" lon="-0.0943">
        <ele>467.9279</ele>
        <time>2021-07-21T13:29:59Z</time>
      </trkpt>
      <trkpt lat="40.96357" lon="-0.09388">
        <ele>465.2625</ele>
        <time>2021-07-21T13:30:10Z</time>
      </trkpt>
      <trkpt lat="40.96346" lon="-0.09347">
        <ele>464.5737</ele>
        <time>2021-07-21T13:30:21Z</time>
      </trkpt>
      <trkpt lat="40.96349" lon="-0.09345">
        <ele>464.0383</ele>
        <time>2021-07-21T13:30:39Z</time>
      </trkpt>
      <trkpt lat="40.96345" lon="-0.09336">
        <ele>460.0007</ele>
        <time>2021-07-21T13:31:06Z</time>
      </trkpt>
      <trkpt lat="40.96316" lon="-0.09223">
        <ele>456.1431</ele>
        <time>2021-07-21T13:31:17Z</time>
      </trkpt>
      <trkpt lat="40.96282" lon="-0.09176">
        <ele>451.7402</ele>
        <time>2021-07-21T13:31:28Z</time>
      </trkpt>
      <trkpt lat="40.96179" lon="-0.09143">
        <ele>445.283</ele>
        <time>2021-07-21T13:31:39Z</time>
      </trkpt>
      <trkpt lat="40.96081" lon="-0.09165">
        <ele>442.2505</ele>
        <time>2021-07-21T13:31:50Z</time>
      </trkpt>
      <trkpt lat="40.95971" lon="-0.09298">
        <ele>441.3956</ele>
        <time>2021-07-21T13:32:01Z</time>
      </trkpt>
      <trkpt lat="40.95841" lon="-0.09223">
        <ele>434.2907</ele>
        <time>2021-07-21T13:32:12Z</time>
      </trkpt>
      <trkpt lat="40.9569" lon="-0.09131">
        <ele>434.6516</ele>
        <time>2021-07-21T13:32:23Z</time>
      </trkpt>
      <trkpt lat="40.95464" lon="-0.08949">
        <ele>443.8289</ele>
        <time>2021-07-21T13:32:34Z</time>
      </trkpt>
      <trkpt lat="40.95247" lon="-0.08783">
        <ele>448.0921</ele>
        <time>2021-07-21T13:32:45Z</time>
      </trkpt>
      <trkpt lat="40.94986" lon="-0.08735">
        <ele>450.1511</ele>
        <time>2021-07-21T13:32:56Z</time>
      </trkpt>
      <trkpt lat="40.94723" lon="-0.08704">
        <ele>456.4116</ele>
        <time>2021-07-21T13:33:07Z</time>
      </trkpt>
      <trkpt lat="40.94469" lon="-0.08675">
        <ele>469.5789</ele>
        <time>2021-07-21T13:33:18Z</time>
      </trkpt>
      <trkpt lat="40.94211" lon="-0.08646">
        <ele>481.6729</ele>
        <time>2021-07-21T13:33:29Z</time>
      </trkpt>
      <trkpt lat="40.93953" lon="-0.08667">
        <ele>488.4343</ele>
        <time>2021-07-21T13:33:40Z</time>
      </trkpt>
      <trkpt lat="40.93752" lon="-0.08692">
        <ele>481.6073</ele>
        <time>2021-07-21T13:33:51Z</time>
      </trkpt>
      <trkpt lat="40.93648" lon="-0.08658">
        <ele>481.0447</ele>
        <time>2021-07-21T13:34:02Z</time>
      </trkpt>
      <trkpt lat="40.93648" lon="-0.08577">
        <ele>486.6143</ele>
        <time>2021-07-21T13:34:13Z</time>
      </trkpt>
      <trkpt lat="40.9364" lon="-0.08545">
        <ele>488.6259</ele>
        <time>2021-07-21T13:34:24Z</time>
      </trkpt>
      <trkpt lat="40.93628" lon="-0.08505">
        <ele>492.3779</ele>
        <time>2021-07-21T13:34:35Z</time>
      </trkpt>
      <trkpt lat="40.93531" lon="-0.08555">
        <ele>488.1241</ele>
        <time>2021-07-21T13:34:46Z</time>
      </trkpt>
      <trkpt lat="40.9345" lon="-0.08602">
        <ele>491.8996</ele>
        <time>2021-07-21T13:34:57Z</time>
      </trkpt>
      <trkpt lat="40.93432" lon="-0.08581">
        <ele>498.8064</ele>
        <time>2021-07-21T13:35:08Z</time>
      </trkpt>
      <trkpt lat="40.93394" lon="-0.08514">
        <ele>498.6803</ele>
        <time>2021-07-21T13:35:19Z</time>
      </trkpt>
      <trkpt lat="40.93363" lon="-0.08471">
        <ele>501.0722</ele>
        <time>2021-07-21T13:35:30Z</time>
      </trkpt>
      <trkpt lat="40.93394" lon="-0.08442">
        <ele>502.2784</ele>
        <time>2021-07-21T13:35:41Z</time>
      </trkpt>
      <trkpt lat="40.93461" lon="-0.08425">
        <ele>497.1982</ele>
        <time>2021-07-21T13:35:52Z</time>
      </trkpt>
      <trkpt lat="40.93537" lon="-0.08349">
        <ele>495.7649</ele>
        <time>2021-07-21T13:36:03Z</time>
      </trkpt>
      <trkpt lat="40.93609" lon="-0.08228">
        <ele>508.4832</ele>
        <time>2021-07-21T13:36:14Z</time>
      </trkpt>
      <trkpt lat="40.93595" lon="-0.08103">
        <ele>517.3861</ele>
        <time>2021-07-21T13:36:25Z</time>
      </trkpt>
      <trkpt lat="40.93557" lon="-0.0795">
        <ele>526.0375</ele>
        <time>2021-07-21T13:36:36Z</time>
      </trkpt>
      <trkpt lat="40.93559" lon="-0.07812">
        <ele>539.11</ele>
        <time>2021-07-21T13:36:47Z</time>
      </trkpt>
      <trkpt lat="40.93547" lon="-0.07707">
        <ele>548.7141</ele>
        <time>2021-07-21T13:36:58Z</time>
      </trkpt>
      <trkpt lat="40.93501" lon="-0.0762">
        <ele>549.4596</ele>
        <time>2021-07-21T13:37:09Z</time>
      </trkpt>
      <trkpt lat="40.9344" lon="-0.07575">
        <ele>552.99</ele>
        <time>2021-07-21T13:37:20Z</time>
      </trkpt>
      <trkpt lat="40.93374" lon="-0.07465">
        <ele>559.3302</ele>
        <time>2021-07-21T13:37:31Z</time>
      </trkpt>
      <trkpt lat="40.93373" lon="-0.07357">
        <ele>563.778</ele>
        <time>2021-07-21T13:37:42Z</time>
      </trkpt>
      <trkpt lat="40.93331" lon="-0.07241">
        <ele>570.449</ele>
        <time>2021-07-21T13:37:53Z</time>
      </trkpt>
      <trkpt lat="40.93365" lon="-0.07139">
        <ele>572.098</ele>
        <time>2021-07-21T13:38:04Z</time>
      </trkpt>
      <trkpt lat="40.93351" lon="-0.07018">
        <ele>577.8785</ele>
        <time>2021-07-21T13:38:15Z</time>
      </trkpt>
      <trkpt lat="40.93331" lon="-0.06884">
        <ele>584.176</ele>
        <time>2021-07-21T13:38:26Z</time>
      </trkpt>
      <trkpt lat="40.93292" lon="-0.06788">
        <ele>595.6312</ele>
        <time>2021-07-21T13:38:37Z</time>
      </trkpt>
      <trkpt lat="40.93222" lon="-0.06666">
        <ele>602.7185</ele>
        <time>2021-07-21T13:38:48Z</time>
      </trkpt>
      <trkpt lat="40.93155" lon="-0.06572">
        <ele>610.7844</ele>
        <time>2021-07-21T13:38:59Z</time>
      </trkpt>
      <trkpt lat="40.93061" lon="-0.06473">
        <ele>620.7463</ele>
        <time>2021-07-21T13:39:10Z</time>
      </trkpt>
      <trkpt lat="40.92965" lon="-0.06348">
        <ele>635.0597</ele>
        <time>2021-07-21T13:39:21Z</time>
      </trkpt>
      <trkpt lat="40.92951" lon="-0.06236">
        <ele>632.8122</ele>
        <time>2021-07-21T13:39:32Z</time>
      </trkpt>
      <trkpt lat="40.92952" lon="-0.06106">
        <ele>635.3472</ele>
        <time>2021-07-21T13:39:43Z</time>
      </trkpt>
      <trkpt lat="40.9293" lon="-0.0596">
        <ele>644.2747</ele>
        <time>2021-07-21T13:39:54Z</time>
      </trkpt>
      <trkpt lat="40.92932" lon="-0.05873">
        <ele>645.9867</ele>
        <time>2021-07-21T13:40:05Z</time>
      </trkpt>
      <trkpt lat="40.92872" lon="-0.05883">
        <ele>632.8954</ele>
        <time>2021-07-21T13:40:16Z</time>
      </trkpt>
      <trkpt lat="40.92844" lon="-0.05774">
        <ele>618.6666</ele>
        <time>2021-07-21T13:40:27Z</time>
      </trkpt>
      <trkpt lat="40.92812" lon="-0.05658">
        <ele>616.0606</ele>
        <time>2021-07-21T13:40:38Z</time>
      </trkpt>
      <trkpt lat="40.92714" lon="-0.05595">
        <ele>625.362</ele>
        <time>2021-07-21T13:40:49Z</time>
      </trkpt>
      <trkpt lat="40.92637" lon="-0.0552">
        <ele>626.7241</ele>
        <time>2021-07-21T13:41:00Z</time>
      </trkpt>
      <trkpt lat="40.92636" lon="-0.05427">
        <ele>638.4076</ele>
        <time>2021-07-21T13:41:11Z</time>
      </trkpt>
      <trkpt lat="40.92587" lon="-0.0533">
        <ele>653.2396</ele>
        <time>2021-07-21T13:41:22Z</time>
      </trkpt>
      <trkpt lat="40.9258" lon="-0.05259">
        <ele>661.9024</ele>
        <time>2021-07-21T13:41:33Z</time>
      </trkpt>
      <trkpt lat="40.92571" lon="-0.05152">
        <ele>661.6689</ele>
        <time>2021-07-21T13:41:44Z</time>
      </trkpt>
      <trkpt lat="40.92641" lon="-0.05029">
        <ele>655.108</ele>
        <time>2021-07-21T13:41:55Z</time>
      </trkpt>
      <trkpt lat="40.92668" lon="-0.04969">
        <ele>648.4435</ele>
        <time>2021-07-21T13:42:06Z</time>
      </trkpt>
      <trkpt lat="40.92672" lon="-0.04994">
        <ele>661.0848</ele>
        <time>2021-07-21T13:42:17Z</time>
      </trkpt>
      <trkpt lat="40.92624" lon="-0.0495">
        <ele>669.3193</ele>
        <time>2021-07-21T13:42:28Z</time>
      </trkpt>
      <trkpt lat="40.92639" lon="-0.04889">
        <ele>658.1983</ele>
        <time>2021-07-21T13:42:39Z</time>
      </trkpt>
      <trkpt lat="40.92661" lon="-0.04809">
        <ele>646.5738</ele>
        <time>2021-07-21T13:42:50Z</time>
      </trkpt>
      <trkpt lat="40.92616" lon="-0.0471">
        <ele>651.8082</ele>
        <time>2021-07-21T13:43:01Z</time>
      </trkpt>
      <trkpt lat="40.92563" lon="-0.04655">
        <ele>663.1467</ele>
        <time>2021-07-21T13:43:12Z</time>
      </trkpt>
      <trkpt lat="40.92459" lon="-0.04529">
        <ele>666.4867</ele>
        <time>2021-07-21T13:43:23Z</time>
      </trkpt>
      <trkpt lat="40.92365" lon="-0.04397">
        <ele>666.2193</ele>
        <time>2021-07-21T13:43:34Z</time>
      </trkpt>
      <trkpt lat="40.92283" lon="-0.0424">
        <ele>668.3564</ele>
        <time>2021-07-21T13:43:45Z</time>
      </trkpt>
      <trkpt lat="40.92187" lon="-0.04106">
        <ele>670.6288</ele>
        <time>2021-07-21T13:43:56Z</time>
      </trkpt>
      <trkpt lat="40.92096" lon="-0.03952">
        <ele>675.4362</ele>
        <time>2021-07-21T13:44:07Z</time>
      </trkpt>
      <trkpt lat="40.91993" lon="-0.0385">
        <ele>659.3417</ele>
        <time>2021-07-21T13:44:18Z</time>
      </trkpt>
      <trkpt lat="40.91934" lon="-0.03739">
        <ele>655.2544</ele>
        <time>2021-07-21T13:44:29Z</time>
      </trkpt>
      <trkpt lat="40.91844" lon="-0.03683">
        <ele>652.2794</ele>
        <time>2021-07-21T13:44:40Z</time>
      </trkpt>
      <trkpt lat="40.91795" lon="-0.03745">
        <ele>656.3289</ele>
        <time>2021-07-21T13:44:51Z</time>
      </trkpt>
      <trkpt lat="40.91732" lon="-0.0378">
        <ele>652.369</ele>
        <time>2021-07-21T13:45:02Z</time>
      </trkpt>
      <trkpt lat="40.917" lon="-0.03786">
        <ele>646.7367</ele>
        <time>2021-07-21T13:45:13Z</time>
      </trkpt>
      <trkpt lat="40.91656" lon="-0.03594">
        <ele>657.9882</ele>
        <time>2021-07-21T13:45:24Z</time>
      </trkpt>
      <trkpt lat="40.91588" lon="-0.03304">
        <ele>671.7479</ele>
        <time>2021-07-21T13:45:35Z</time>
      </trkpt>
      <trkpt lat="40.91477" lon="-0.03056">
        <ele>685.8755</ele>
        <time>2021-07-21T13:45:46Z</time>
      </trkpt>
      <trkpt lat="40.91434" lon="-0.02773">
        <ele>698.7179</ele>
        <time>2021-07-21T13:45:57Z</time>
      </trkpt>
      <trkpt lat="40.913" lon="-0.02523">
        <ele>706.1448</ele>
        <time>2021-07-21T13:46:08Z</time>
      </trkpt>
      <trkpt lat="40.91279" lon="-0.02348">
        <ele>715.7594</ele>
        <time>2021-07-21T13:46:19Z</time>
      </trkpt>
      <trkpt lat="40.91262" lon="-0.02335">
        <ele>714.5932</ele>
        <time>2021-07-21T13:46:30Z</time>
      </trkpt>
      <trkpt lat="40.91355" lon="-0.02183">
        <ele>708.1965</ele>
        <time>2021-07-21T13:46:41Z</time>
      </trkpt>
      <trkpt lat="40.91536" lon="-0.0203">
        <ele>707.3006</ele>
        <time>2021-07-21T13:46:52Z</time>
      </trkpt>
      <trkpt lat="40.91774" lon="-0.01888">
        <ele>703.5571</ele>
        <time>2021-07-21T13:47:03Z</time>
      </trkpt>
      <trkpt lat="40.9201" lon="-0.01867">
        <ele>698.7048</ele>
        <time>2021-07-21T13:47:14Z</time>
      </trkpt>
      <trkpt lat="40.92269" lon="-0.01934">
        <ele>693.5769</ele>
        <time>2021-07-21T13:47:25Z</time>
      </trkpt>
      <trkpt lat="40.92513" lon="-0.0184">
        <ele>690.8716</ele>
        <time>2021-07-21T13:47:36Z</time>
      </trkpt>
      <trkpt lat="40.9267" lon="-0.01618">
        <ele>688.7591</ele>
        <time>2021-07-21T13:47:47Z</time>
      </trkpt>
      <trkpt lat="40.9271" lon="-0.01503">
        <ele>690.0952</ele>
        <time>2021-07-21T13:47:58Z</time>
      </trkpt>
      <trkpt lat="40.92783" lon="-0.01367">
        <ele>692.8434</ele>
        <time>2021-07-21T13:48:09Z</time>
      </trkpt>
      <trkpt lat="40.92871" lon="-0.0124">
        <ele>693.8939</ele>
        <time>2021-07-21T13:48:20Z</time>
      </trkpt>
      <trkpt lat="40.92908" lon="-0.01146">
        <ele>688.5177</ele>
        <time>2021-07-21T13:48:31Z</time>
      </trkpt>
      <trkpt lat="40.92917" lon="-0.01009">
        <ele>675.7554</ele>
        <time>2021-07-21T13:48:42Z</time>
      </trkpt>
      <trkpt lat="40.9291" lon="-0.00883">
        <ele>664.539</ele>
        <time>2021-07-21T13:48:53Z</time>
      </trkpt>
      <trkpt lat="40.92948" lon="-0.00783">
        <ele>666.8993</ele>
        <time>2021-07-21T13:49:04Z</time>
      </trkpt>
      <trkpt lat="40.9302" lon="-0.00777">
        <ele>652.781</ele>
        <time>2021-07-21T13:49:15Z</time>
      </trkpt>
      <trkpt lat="40.93118" lon="-0.00721">
        <ele>643.915</ele>
        <time>2021-07-21T13:49:26Z</time>
      </trkpt>
      <trkpt lat="40.93167" lon="-0.00651">
        <ele>641.4106</ele>
        <time>2021-07-21T13:49:37Z</time>
      </trkpt>
      <trkpt lat="40.93242" lon="-0.00598">
        <ele>642.284</ele>
        <time>2021-07-21T13:49:48Z</time>
      </trkpt>
      <trkpt lat="40.93324" lon="-0.00599">
        <ele>632.591</ele>
        <time>2021-07-21T13:49:59Z</time>
      </trkpt>
      <trkpt lat="40.93341" lon="-0.0049">
        <ele>625.592</ele>
        <time>2021-07-21T13:50:10Z</time>
      </trkpt>
      <trkpt lat="40.93373" lon="-0.00395">
        <ele>622.3752</ele>
        <time>2021-07-21T13:50:21Z</time>
      </trkpt>
      <trkpt lat="40.93418" lon="-0.00319">
        <ele>613.0594</ele>
        <time>2021-07-21T13:50:32Z</time>
      </trkpt>
      <trkpt lat="40.93488" lon="-0.0027">
        <ele>613.6687</ele>
        <time>2021-07-21T13:50:43Z</time>
      </trkpt>
      <trkpt lat="40.93572" lon="-0.00178">
        <ele>615.6314</ele>
        <time>2021-07-21T13:50:54Z</time>
      </trkpt>
      <trkpt lat="40.93566" lon="-0.00085">
        <ele>610.5441</ele>
        <time>2021-07-21T13:51:05Z</time>
      </trkpt>
      <trkpt lat="40.93622" lon="0.00015">
        <ele>606.0011</ele>
        <time>2021-07-21T13:51:16Z</time>
      </trkpt>
      <trkpt lat="40.93643" lon="0.00156">
        <ele>599.1714</ele>
        <time>2021-07-21T13:51:27Z</time>
      </trkpt>
      <trkpt lat="40.93663" lon="0.00289">
        <ele>592.0077</ele>
        <time>2021-07-21T13:51:38Z</time>
      </trkpt>
      <trkpt lat="40.93688" lon="0.00423">
        <ele>586.1653</ele>
        <time>2021-07-21T13:51:49Z</time>
      </trkpt>
      <trkpt lat="40.93774" lon="0.00493">
        <ele>578.5691</ele>
        <time>2021-07-21T13:52:00Z</time>
      </trkpt>
      <trkpt lat="40.93852" lon="0.00569">
        <ele>577.535</ele>
        <time>2021-07-21T13:52:11Z</time>
      </trkpt>
      <trkpt lat="40.93949" lon="0.00686">
        <ele>578.7607</ele>
        <time>2021-07-21T13:52:22Z</time>
      </trkpt>
      <trkpt lat="40.93981" lon="0.00765">
        <ele>582.1107</ele>
        <time>2021-07-21T13:52:33Z</time>
      </trkpt>
      <trkpt lat="40.94014" lon="0.0086">
        <ele>576.9237</ele>
        <time>2021-07-21T13:52:44Z</time>
      </trkpt>
      <trkpt lat="40.94016" lon="0.00868">
        <ele>573.3113</ele>
        <time>2021-07-21T13:53:30Z</time>
      </trkpt>
      <trkpt lat="40.94042" lon="0.00978">
        <ele>566.5125</ele>
        <time>2021-07-21T13:53:41Z</time>
      </trkpt>
      <trkpt lat="40.94103" lon="0.01055">
        <ele>561.4682</ele>
        <time>2021-07-21T13:53:52Z</time>
      </trkpt>
      <trkpt lat="40.94178" lon="0.0111">
        <ele>563.3244</ele>
        <time>2021-07-21T13:54:03Z</time>
      </trkpt>
      <trkpt lat="40.94177" lon="0.01221">
        <ele>564.1105</ele>
        <time>2021-07-21T13:54:14Z</time>
      </trkpt>
      <trkpt lat="40.94211" lon="0.01333">
        <ele>562.1747</ele>
        <time>2021-07-21T13:54:25Z</time>
      </trkpt>
      <trkpt lat="40.94284" lon="0.01423">
        <ele>560.4695</ele>
        <time>2021-07-21T13:54:36Z</time>
      </trkpt>
      <trkpt lat="40.94359" lon="0.01523">
        <ele>551.9648</ele>
        <time>2021-07-21T13:54:47Z</time>
      </trkpt>
      <trkpt lat="40.9441" lon="0.01653">
        <ele>550.977</ele>
        <time>2021-07-21T13:54:58Z</time>
      </trkpt>
      <trkpt lat="40.94468" lon="0.01765">
        <ele>544.4075</ele>
        <time>2021-07-21T13:55:09Z</time>
      </trkpt>
      <trkpt lat="40.94557" lon="0.01805">
        <ele>540.461</ele>
        <time>2021-07-21T13:55:20Z</time>
      </trkpt>
      <trkpt lat="40.94673" lon="0.01845">
        <ele>551.472</ele>
        <time>2021-07-21T13:55:31Z</time>
      </trkpt>
      <trkpt lat="40.94829" lon="0.01896">
        <ele>552.9129</ele>
        <time>2021-07-21T13:55:42Z</time>
      </trkpt>
      <trkpt lat="40.94857" lon="0.01972">
        <ele>558.0123</ele>
        <time>2021-07-21T13:55:53Z</time>
      </trkpt>
      <trkpt lat="40.94946" lon="0.02004">
        <ele>550.3591</ele>
        <time>2021-07-21T13:56:04Z</time>
      </trkpt>
      <trkpt lat="40.95067" lon="0.02024">
        <ele>548.5565</ele>
        <time>2021-07-21T13:56:15Z</time>
      </trkpt>
      <trkpt lat="40.95126" lon="0.0202">
        <ele>537.7955</ele>
        <time>2021-07-21T13:56:26Z</time>
      </trkpt>
      <trkpt lat="40.95149" lon="0.02061">
        <ele>524.2183</ele>
        <time>2021-07-21T13:56:37Z</time>
      </trkpt>
      <trkpt lat="40.95179" lon="0.02171">
        <ele>519.8555</ele>
        <time>2021-07-21T13:56:48Z</time>
      </trkpt>
      <trkpt lat="40.95153" lon="0.02298">
        <ele>525.1637</ele>
        <time>2021-07-21T13:56:59Z</time>
      </trkpt>
      <trkpt lat="40.95162" lon="0.02386">
        <ele>529.2785</ele>
        <time>2021-07-21T13:57:10Z</time>
      </trkpt>
      <trkpt lat="40.95088" lon="0.02609">
        <ele>530.6472</ele>
        <time>2021-07-21T13:57:21Z</time>
      </trkpt>
      <trkpt lat="40.95099" lon="0.02909">
        <ele>517.6822</ele>
        <time>2021-07-21T13:57:32Z</time>
      </trkpt>
      <trkpt lat="40.94975" lon="0.03144">
        <ele>519.5185</ele>
        <time>2021-07-21T13:57:43Z</time>
      </trkpt>
      <trkpt lat="40.94983" lon="0.03414">
        <ele>511.42</ele>
        <time>2021-07-21T13:57:54Z</time>
      </trkpt>
      <trkpt lat="40.94947" lon="0.03705">
        <ele>501.8629</ele>
        <time>2021-07-21T13:58:05Z</time>
      </trkpt>
      <trkpt lat="40.94894" lon="0.04">
        <ele>493.1431</ele>
        <time>2021-07-21T13:58:16Z</time>
      </trkpt>
      <trkpt lat="40.94796" lon="0.04306">
        <ele>488.2046</ele>
        <time>2021-07-21T13:58:27Z</time>
      </trkpt>
      <trkpt lat="40.94784" lon="0.04642">
        <ele>486.5256</ele>
        <time>2021-07-21T13:58:38Z</time>
      </trkpt>
      <trkpt lat="40.94649" lon="0.04936">
        <ele>486.8076</ele>
        <time>2021-07-21T13:58:49Z</time>
      </trkpt>
      <trkpt lat="40.94583" lon="0.05281">
        <ele>479.4532</ele>
        <time>2021-07-21T13:59:00Z</time>
      </trkpt>
      <trkpt lat="40.94415" lon="0.05522">
        <ele>479.31</ele>
        <time>2021-07-21T13:59:11Z</time>
      </trkpt>
      <trkpt lat="40.94345" lon="0.05837">
        <ele>472.5594</ele>
        <time>2021-07-21T13:59:22Z</time>
      </trkpt>
      <trkpt lat="40.94295" lon="0.06152">
        <ele>466.3591</ele>
        <time>2021-07-21T13:59:33Z</time>
      </trkpt>
      <trkpt lat="40.94289" lon="0.06357">
        <ele>464.6209</ele>
        <time>2021-07-21T13:59:44Z</time>
      </trkpt>
      <trkpt lat="40.94323" lon="0.06421">
        <ele>464.1093</ele>
        <time>2021-07-21T13:59:55Z</time>
      </trkpt>
      <trkpt lat="40.94301" lon="0.06327">
        <ele>467.0718</ele>
        <time>2021-07-21T14:00:06Z</time>
      </trkpt>
      <trkpt lat="40.94322" lon="0.06267">
        <ele>472.1413</ele>
        <time>2021-07-21T14:00:17Z</time>
      </trkpt>
      <trkpt lat="40.94349" lon="0.06241">
        <ele>475.471</ele>
        <time>2021-07-21T14:00:28Z</time>
      </trkpt>
      <trkpt lat="40.94418" lon="0.063">
        <ele>481.2845</ele>
        <time>2021-07-21T14:00:39Z</time>
      </trkpt>
      <trkpt lat="40.94465" lon="0.06407">
        <ele>486.7398</ele>
        <time>2021-07-21T14:00:50Z</time>
      </trkpt>
      <trkpt lat="40.94517" lon="0.06528">
        <ele>490.5011</ele>
        <time>2021-07-21T14:01:01Z</time>
      </trkpt>
      <trkpt lat="40.94536" lon="0.06672">
        <ele>492.3735</ele>
        <time>2021-07-21T14:01:12Z</time>
      </trkpt>
      <trkpt lat="40.94583" lon="0.06766">
        <ele>495.4805</ele>
        <time>2021-07-21T14:01:23Z</time>
      </trkpt>
      <trkpt lat="40.947" lon="0.06794">
        <ele>492.6166</ele>
        <time>2021-07-21T14:01:34Z</time>
      </trkpt>
      <trkpt lat="40.94789" lon="0.06815">
        <ele>496.235</ele>
        <time>2021-07-21T14:01:45Z</time>
      </trkpt>
      <trkpt lat="40.9488" lon="0.06867">
        <ele>497.3919</ele>
        <time>2021-07-21T14:01:56Z</time>
      </trkpt>
      <trkpt lat="40.94992" lon="0.06805">
        <ele>502.8764</ele>
        <time>2021-07-21T14:02:07Z</time>
      </trkpt>
      <trkpt lat="40.95095" lon="0.06768">
        <ele>505.7207</ele>
        <time>2021-07-21T14:02:19Z</time>
      </trkpt>
      <trkpt lat="40.95128" lon="0.06759">
        <ele>509.9865</ele>
        <time>2021-07-21T14:02:30Z</time>
      </trkpt>
      <trkpt lat="40.95199" lon="0.06725">
        <ele>517.8189</ele>
        <time>2021-07-21T14:02:41Z</time>
      </trkpt>
      <trkpt lat="40.95168" lon="0.06644">
        <ele>530.9882</ele>
        <time>2021-07-21T14:02:52Z</time>
      </trkpt>
      <trkpt lat="40.95168" lon="0.06605">
        <ele>538.7362</ele>
        <time>2021-07-21T14:03:03Z</time>
      </trkpt>
      <trkpt lat="40.95241" lon="0.06534">
        <ele>544.9766</ele>
        <time>2021-07-21T14:03:14Z</time>
      </trkpt>
      <trkpt lat="40.95293" lon="0.06481">
        <ele>550.2667</ele>
        <time>2021-07-21T14:03:25Z</time>
      </trkpt>
      <trkpt lat="40.9533" lon="0.06414">
        <ele>557.4095</ele>
        <time>2021-07-21T14:03:36Z</time>
      </trkpt>
      <trkpt lat="40.95359" lon="0.06328">
        <ele>557.9137</ele>
        <time>2021-07-21T14:03:47Z</time>
      </trkpt>
      <trkpt lat="40.9541" lon="0.06286">
        <ele>561.1108</ele>
        <time>2021-07-21T14:03:58Z</time>
      </trkpt>
      <trkpt lat="40.95462" lon="0.06248">
        <ele>556.8286</ele>
        <time>2021-07-21T14:04:09Z</time>
      </trkpt>
      <trkpt lat="40.95551" lon="0.06238">
        <ele>562.5622</ele>
        <time>2021-07-21T14:04:20Z</time>
      </trkpt>
      <trkpt lat="40.9559" lon="0.06196">
        <ele>554.7193</ele>
        <time>2021-07-21T14:04:31Z</time>
      </trkpt>
      <trkpt lat="40.95592" lon="0.0614">
        <ele>560.3966</ele>
        <time>2021-07-21T14:04:42Z</time>
      </trkpt>
      <trkpt lat="40.95636" lon="0.06125">
        <ele>566.1888</ele>
        <time>2021-07-21T14:04:53Z</time>
      </trkpt>
      <trkpt lat="40.95639" lon="0.06124">
        <ele>567.8408</ele>
        <time>2021-07-21T14:05:11Z</time>
      </trkpt>
      <trkpt lat="40.95654" lon="0.06107">
        <ele>572.9991</ele>
        <time>2021-07-21T14:05:22Z</time>
      </trkpt>
      <trkpt lat="40.95691" lon="0.06087">
        <ele>580.1471</ele>
        <time>2021-07-21T14:05:33Z</time>
      </trkpt>
      <trkpt lat="40.95743" lon="0.06026">
        <ele>577.9534</ele>
        <time>2021-07-21T14:05:44Z</time>
      </trkpt>
      <trkpt lat="40.95793" lon="0.05989">
        <ele>579.1343</ele>
        <time>2021-07-21T14:05:55Z</time>
      </trkpt>
      <trkpt lat="40.95858" lon="0.06019">
        <ele>581.6551</ele>
        <time>2021-07-21T14:06:06Z</time>
      </trkpt>
      <trkpt lat="40.95923" lon="0.06032">
        <ele>586.5344</ele>
        <time>2021-07-21T14:06:17Z</time>
      </trkpt>
      <trkpt lat="40.95995" lon="0.05994">
        <ele>591.0171</ele>
        <time>2021-07-21T14:06:28Z</time>
      </trkpt>
      <trkpt lat="40.96066" lon="0.05892">
        <ele>589.4205</ele>
        <time>2021-07-21T14:06:39Z</time>
      </trkpt>
      <trkpt lat="40.96106" lon="0.05879">
        <ele>591.6304</ele>
        <time>2021-07-21T14:06:50Z</time>
      </trkpt>
      <trkpt lat="40.96164" lon="0.05877">
        <ele>587.721</ele>
        <time>2021-07-21T14:07:01Z</time>
      </trkpt>
      <trkpt lat="40.96227" lon="0.05939">
        <ele>578.1002</ele>
        <time>2021-07-21T14:07:12Z</time>
      </trkpt>
      <trkpt lat="40.96236" lon="0.0604">
        <ele>564.5125</ele>
        <time>2021-07-21T14:07:23Z</time>
      </trkpt>
      <trkpt lat="40.96251" lon="0.06153">
        <ele>552.3222</ele>
        <time>2021-07-21T14:07:34Z</time>
      </trkpt>
      <trkpt lat="40.96314" lon="0.06172">
        <ele>549.7987</ele>
        <time>2021-07-21T14:07:45Z</time>
      </trkpt>
      <trkpt lat="40.96395" lon="0.06162">
        <ele>536.0632</ele>
        <time>2021-07-21T14:07:56Z</time>
      </trkpt>
      <trkpt lat="40.96508" lon="0.06169">
        <ele>539.1512</ele>
        <time>2021-07-21T14:08:07Z</time>
      </trkpt>
      <trkpt lat="40.96603" lon="0.0621">
        <ele>538.8517</ele>
        <time>2021-07-21T14:08:18Z</time>
      </trkpt>
      <trkpt lat="40.96676" lon="0.06176">
        <ele>527.7882</ele>
        <time>2021-07-21T14:08:29Z</time>
      </trkpt>
      <trkpt lat="40.9678" lon="0.06093">
        <ele>527.9178</ele>
        <time>2021-07-21T14:08:40Z</time>
      </trkpt>
      <trkpt lat="40.96873" lon="0.06037">
        <ele>534.862</ele>
        <time>2021-07-21T14:08:51Z</time>
      </trkpt>
      <trkpt lat="40.9697" lon="0.06016">
        <ele>538.5823</ele>
        <time>2021-07-21T14:09:02Z</time>
      </trkpt>
      <trkpt lat="40.97028" lon="0.05979">
        <ele>547.1899</ele>
        <time>2021-07-21T14:09:13Z</time>
      </trkpt>
      <trkpt lat="40.97045" lon="0.05926">
        <ele>548.7775</ele>
        <time>2021-07-21T14:09:24Z</time>
      </trkpt>
      <trkpt lat="40.97063" lon="0.06039">
        <ele>551.1436</ele>
        <time>2021-07-21T14:09:35Z</time>
      </trkpt>
      <trkpt lat="40.9713" lon="0.06081">
        <ele>548.4658</ele>
        <time>2021-07-21T14:09:46Z</time>
      </trkpt>
      <trkpt lat="40.97203" lon="0.06013">
        <ele>544.2229</ele>
        <time>2021-07-21T14:09:57Z</time>
      </trkpt>
      <trkpt lat="40.97244" lon="0.06032">
        <ele>532.601</ele>
        <time>2021-07-21T14:10:08Z</time>
      </trkpt>
      <trkpt lat="40.97306" lon="0.0604">
        <ele>518.3355</ele>
        <time>2021-07-21T14:10:19Z</time>
      </trkpt>
      <trkpt lat="40.97311" lon="0.06102">
        <ele>515.9701</ele>
        <time>2021-07-21T14:10:30Z</time>
      </trkpt>
      <trkpt lat="40.97364" lon="0.06152">
        <ele>511.5542</ele>
        <time>2021-07-21T14:10:41Z</time>
      </trkpt>
      <trkpt lat="40.9745" lon="0.06171">
        <ele>505.7188</ele>
        <time>2021-07-21T14:10:52Z</time>
      </trkpt>
      <trkpt lat="40.97506" lon="0.06124">
        <ele>509.0065</ele>
        <time>2021-07-21T14:11:03Z</time>
      </trkpt>
      <trkpt lat="40.97581" lon="0.06186">
        <ele>501.4794</ele>
        <time>2021-07-21T14:11:14Z</time>
      </trkpt>
      <trkpt lat="40.97606" lon="0.06247">
        <ele>485.2999</ele>
        <time>2021-07-21T14:11:25Z</time>
      </trkpt>
      <trkpt lat="40.97655" lon="0.06225">
        <ele>481.4836</ele>
        <time>2021-07-21T14:11:36Z</time>
      </trkpt>
      <trkpt lat="40.97763" lon="0.06243">
        <ele>489.7424</ele>
        <time>2021-07-21T14:11:47Z</time>
      </trkpt>
      <trkpt lat="40.97818" lon="0.06256">
        <ele>487.5445</ele>
        <time>2021-07-21T14:11:58Z</time>
      </trkpt>
      <trkpt lat="40.97906" lon="0.06246">
        <ele>474.4709</ele>
        <time>2021-07-21T14:12:09Z</time>
      </trkpt>
      <trkpt lat="40.97991" lon="0.06253">
        <ele>467.9895</ele>
        <time>2021-07-21T14:12:20Z</time>
      </trkpt>
      <trkpt lat="40.98059" lon="0.06195">
        <ele>466.7236</ele>
        <time>2021-07-21T14:12:31Z</time>
      </trkpt>
      <trkpt lat="40.98109" lon="0.06141">
        <ele>458.6555</ele>
        <time>2021-07-21T14:12:42Z</time>
      </trkpt>
      <trkpt lat="40.98144" lon="0.06229">
        <ele>459.914</ele>
        <time>2021-07-21T14:12:53Z</time>
      </trkpt>
      <trkpt lat="40.98202" lon="0.06248">
        <ele>464.236</ele>
        <time>2021-07-21T14:13:04Z</time>
      </trkpt>
      <trkpt lat="40.98206" lon="0.06225">
        <ele>466.3424</ele>
        <time>2021-07-21T14:13:15Z</time>
      </trkpt>
      <trkpt lat="40.98112" lon="0.06082">
        <ele>473.836</ele>
        <time>2021-07-21T14:13:26Z</time>
      </trkpt>
      <trkpt lat="40.98089" lon="0.05966">
        <ele>470.7332</ele>
        <time>2021-07-21T14:13:37Z</time>
      </trkpt>
      <trkpt lat="40.98093" lon="0.0586">
        <ele>467.9874</ele>
        <time>2021-07-21T14:13:48Z</time>
      </trkpt>
      <trkpt lat="40.98122" lon="0.05681">
        <ele>473.2622</ele>
        <time>2021-07-21T14:13:59Z</time>
      </trkpt>
      <trkpt lat="40.9812" lon="0.05563">
        <ele>478.63</ele>
        <time>2021-07-21T14:14:10Z</time>
      </trkpt>
      <trkpt lat="40.98137" lon="0.05577">
        <ele>485.3879</ele>
        <time>2021-07-21T14:14:21Z</time>
      </trkpt>
      <trkpt lat="40.98148" lon="0.05555">
        <ele>486.5271</ele>
        <time>2021-07-21T14:14:32Z</time>
      </trkpt>
      <trkpt lat="40.98182" lon="0.05434">
        <ele>487.7949</ele>
        <time>2021-07-21T14:14:43Z</time>
      </trkpt>
      <trkpt lat="40.98205" lon="0.05384">
        <ele>492.5124</ele>
        <time>2021-07-21T14:14:54Z</time>
      </trkpt>
      <trkpt lat="40.98207" lon="0.05355">
        <ele>493.1202</ele>
        <time>2021-07-21T14:15:05Z</time>
      </trkpt>
      <trkpt lat="40.98232" lon="0.05414">
        <ele>497.3333</ele>
        <time>2021-07-21T14:15:16Z</time>
      </trkpt>
      <trkpt lat="40.98291" lon="0.05429">
        <ele>499.3756</ele>
        <time>2021-07-21T14:15:27Z</time>
      </trkpt>
      <trkpt lat="40.98315" lon="0.0542">
        <ele>505.8698</ele>
        <time>2021-07-21T14:15:38Z</time>
      </trkpt>
      <trkpt lat="40.98319" lon="0.05422">
        <ele>510.2382</ele>
        <time>2021-07-21T14:15:51Z</time>
      </trkpt>
      <trkpt lat="40.98406" lon="0.05383">
        <ele>514.383</ele>
        <time>2021-07-21T14:16:02Z</time>
      </trkpt>
      <trkpt lat="40.98497" lon="0.05325">
        <ele>516.6418</ele>
        <time>2021-07-21T14:16:13Z</time>
      </trkpt>
      <trkpt lat="40.98594" lon="0.05293">
        <ele>524.7422</ele>
        <time>2021-07-21T14:16:24Z</time>
      </trkpt>
      <trkpt lat="40.98678" lon="0.05379">
        <ele>519.3599</ele>
        <time>2021-07-21T14:16:35Z</time>
      </trkpt>
      <trkpt lat="40.98729" lon="0.05473">
        <ele>520.2885</ele>
        <time>2021-07-21T14:16:46Z</time>
      </trkpt>
      <trkpt lat="40.98777" lon="0.05529">
        <ele>526.3869</ele>
        <time>2021-07-21T14:16:57Z</time>
      </trkpt>
      <trkpt lat="40.98887" lon="0.05602">
        <ele>532.3919</ele>
        <time>2021-07-21T14:17:08Z</time>
      </trkpt>
      <trkpt lat="40.98918" lon="0.05583">
        <ele>532.5118</ele>
        <time>2021-07-21T14:17:19Z</time>
      </trkpt>
      <trkpt lat="40.99017" lon="0.05584">
        <ele>530.5289</ele>
        <time>2021-07-21T14:17:30Z</time>
      </trkpt>
      <trkpt lat="40.9909" lon="0.05569">
        <ele>528.2951</ele>
        <time>2021-07-21T14:17:41Z</time>
      </trkpt>
      <trkpt lat="40.99151" lon="0.05435">
        <ele>527.9062</ele>
        <time>2021-07-21T14:17:52Z</time>
      </trkpt>
      <trkpt lat="40.99193" lon="0.0538">
        <ele>518.1279</ele>
        <time>2021-07-21T14:18:03Z</time>
      </trkpt>
      <trkpt lat="40.99301" lon="0.05366">
        <ele>517.688</ele>
        <time>2021-07-21T14:18:14Z</time>
      </trkpt>
      <trkpt lat="40.99381" lon="0.05362">
        <ele>522.9975</ele>
        <time>2021-07-21T14:18:25Z</time>
      </trkpt>
      <trkpt lat="40.99447" lon="0.05369">
        <ele>523.4447</ele>
        <time>2021-07-21T14:18:36Z</time>
      </trkpt>
      <trkpt lat="40.99438" lon="0.05433">
        <ele>525.7219</ele>
        <time>2021-07-21T14:18:47Z</time>
      </trkpt>
      <trkpt lat="40.99483" lon="0.05534">
        <ele>533.7167</ele>
        <time>2021-07-21T14:18:58Z</time>
      </trkpt>
      <trkpt lat="40.99556" lon="0.05599">
        <ele>538.4582</ele>
        <time>2021-07-21T14:19:09Z</time>
      </trkpt>
      <trkpt lat="40.99632" lon="0.05615">
        <ele>542.1803</ele>
        <time>2021-07-21T14:19:20Z</time>
      </trkpt>
      <trkpt lat="40.99702" lon="0.05708">
        <ele>542.7874</ele>
        <time>2021-07-21T14:19:31Z</time>
      </trkpt>
      <trkpt lat="40.99725" lon="0.05782">
        <ele>549.993</ele>
        <time>2021-07-21T14:19:42Z</time>
      </trkpt>
      <trkpt lat="40.99706" lon="0.05889">
        <ele>545.2817</ele>
        <time>2021-07-21T14:19:53Z</time>
      </trkpt>
      <trkpt lat="40.99813" lon="0.05863">
        <ele>544.2042</ele>
        <time>2021-07-21T14:20:04Z</time>
      </trkpt>
      <trkpt lat="40.99973" lon="0.05833">
        <ele>547.3467</ele>
        <time>2021-07-21T14:20:15Z</time>
      </trkpt>
      <trkpt lat="41.00097" lon="0.05894">
        <ele>537.8833</ele>
        <time>2021-07-21T14:20:26Z</time>
      </trkpt>
      <trkpt lat="41.00225" lon="0.05859">
        <ele>540.1975</ele>
        <time>2021-07-21T14:20:37Z</time>
      </trkpt>
      <trkpt lat="41.00319" lon="0.05835">
        <ele>538.8329</ele>
        <time>2021-07-21T14:20:48Z</time>
      </trkpt>
      <trkpt lat="41.00405" lon="0.0581">
        <ele>527.8106</ele>
        <time>2021-07-21T14:20:59Z</time>
      </trkpt>
      <trkpt lat="41.0047" lon="0.05709">
        <ele>522.1289</ele>
        <time>2021-07-21T14:21:10Z</time>
      </trkpt>
      <trkpt lat="41.00587" lon="0.05709">
        <ele>519.7144</ele>
        <time>2021-07-21T14:21:21Z</time>
      </trkpt>
      <trkpt lat="41.00702" lon="0.05698">
        <ele>502.9787</ele>
        <time>2021-07-21T14:21:32Z</time>
      </trkpt>
      <trkpt lat="41.00807" lon="0.05679">
        <ele>493.5499</ele>
        <time>2021-07-21T14:21:43Z</time>
      </trkpt>
      <trkpt lat="41.00871" lon="0.05734">
        <ele>487.3004</ele>
        <time>2021-07-21T14:21:54Z</time>
      </trkpt>
      <trkpt lat="41.00896" lon="0.05812">
        <ele>483.7831</ele>
        <time>2021-07-21T14:22:05Z</time>
      </trkpt>
      <trkpt lat="41.00942" lon="0.05763">
        <ele>488.4082</ele>
        <time>2021-07-21T14:22:16Z</time>
      </trkpt>
      <trkpt lat="41.01053" lon="0.05618">
        <ele>478.193</ele>
        <time>2021-07-21T14:22:27Z</time>
      </trkpt>
      <trkpt lat="41.01138" lon="0.05495">
        <ele>474.3228</ele>
        <time>2021-07-21T14:22:38Z</time>
      </trkpt>
      <trkpt lat="41.0115" lon="0.05476">
        <ele>475.5617</ele>
        <time>2021-07-21T14:22:49Z</time>
      </trkpt>
      <trkpt lat="41.01152" lon="0.05473">
        <ele>476.3862</ele>
        <time>2021-07-21T14:23:00Z</time>
      </trkpt>
      <trkpt lat="41.0115" lon="0.05472">
        <ele>475.1864</ele>
        <time>2021-07-21T14:24:00Z</time>
      </trkpt>
      <trkpt lat="41.0115" lon="0.05476">
        <ele>477.1021</ele>
        <time>2021-07-21T14:24:25Z</time>
      </trkpt>
      <trkpt lat="41.01149" lon="0.05471">
        <ele>478.0462</ele>
        <time>2021-07-21T14:25:05Z</time>
      </trkpt>
      <trkpt lat="41.0115" lon="0.05472">
        <ele>477.0303</ele>
        <time>2021-07-21T14:26:05Z</time>
      </trkpt>
      <trkpt lat="41.01149" lon="0.05477">
        <ele>475.7601</ele>
        <time>2021-07-21T14:26:32Z</time>
      </trkpt>
      <trkpt lat="41.01146" lon="0.05474">
        <ele>476.1207</ele>
        <time>2021-07-21T14:26:54Z</time>
      </trkpt>
      <trkpt lat="41.0115" lon="0.05466">
        <ele>476.1448</ele>
        <time>2021-07-21T14:27:26Z</time>
      </trkpt>
      <trkpt lat="41.01209" lon="0.05377">
        <ele>468.8269</ele>
        <time>2021-07-21T14:27:37Z</time>
      </trkpt>
      <trkpt lat="41.01285" lon="0.05369">
        <ele>464.0571</ele>
        <time>2021-07-21T14:27:48Z</time>
      </trkpt>
      <trkpt lat="41.0138" lon="0.0528">
        <ele>457.6122</ele>
        <time>2021-07-21T14:27:59Z</time>
      </trkpt>
      <trkpt lat="41.01473" lon="0.05225">
        <ele>444.2112</ele>
        <time>2021-07-21T14:28:10Z</time>
      </trkpt>
      <trkpt lat="41.01564" lon="0.05259">
        <ele>445.2177</ele>
        <time>2021-07-21T14:28:21Z</time>
      </trkpt>
      <trkpt lat="41.01685" lon="0.05293">
        <ele>445.9374</ele>
        <time>2021-07-21T14:28:32Z</time>
      </trkpt>
      <trkpt lat="41.01745" lon="0.05455">
        <ele>443.8028</ele>
        <time>2021-07-21T14:28:43Z</time>
      </trkpt>
      <trkpt lat="41.018" lon="0.0562">
        <ele>437.6309</ele>
        <time>2021-07-21T14:28:54Z</time>
      </trkpt>
      <trkpt lat="41.01858" lon="0.0572">
        <ele>436.1472</ele>
        <time>2021-07-21T14:29:05Z</time>
      </trkpt>
      <trkpt lat="41.01917" lon="0.05671">
        <ele>438.766</ele>
        <time>2021-07-21T14:29:16Z</time>
      </trkpt>
      <trkpt lat="41.02002" lon="0.05669">
        <ele>437.3357</ele>
        <time>2021-07-21T14:29:27Z</time>
      </trkpt>
      <trkpt lat="41.02054" lon="0.0561">
        <ele>443.6381</ele>
        <time>2021-07-21T14:29:38Z</time>
      </trkpt>
      <trkpt lat="41.02116" lon="0.05625">
        <ele>437.6606</ele>
        <time>2021-07-21T14:29:49Z</time>
      </trkpt>
      <trkpt lat="41.02141" lon="0.05682">
        <ele>423.2027</ele>
        <time>2021-07-21T14:30:00Z</time>
      </trkpt>
      <trkpt lat="41.02132" lon="0.05784">
        <ele>414.1689</ele>
        <time>2021-07-21T14:30:11Z</time>
      </trkpt>
      <trkpt lat="41.0219" lon="0.05786">
        <ele>414.6698</ele>
        <time>2021-07-21T14:30:22Z</time>
      </trkpt>
      <trkpt lat="41.02288" lon="0.05842">
        <ele>415.4155</ele>
        <time>2021-07-21T14:30:33Z</time>
      </trkpt>
      <trkpt lat="41.02337" lon="0.058">
        <ele>426.34</ele>
        <time>2021-07-21T14:30:44Z</time>
      </trkpt>
      <trkpt lat="41.02348" lon="0.0587">
        <ele>440.0922</ele>
        <time>2021-07-21T14:30:55Z</time>
      </trkpt>
      <trkpt lat="41.02408" lon="0.05888">
        <ele>455.4138</ele>
        <time>2021-07-21T14:31:06Z</time>
      </trkpt>
      <trkpt lat="41.02473" lon="0.05853">
        <ele>467.1789</ele>
        <time>2021-07-21T14:31:17Z</time>
      </trkpt>
      <trkpt lat="41.02521" lon="0.05899">
        <ele>469.291</ele>
        <time>2021-07-21T14:31:28Z</time>
      </trkpt>
      <trkpt lat="41.02543" lon="0.0589">
        <ele>468.6159</ele>
        <time>2021-07-21T14:31:39Z</time>
      </trkpt>
      <trkpt lat="41.02525" lon="0.05974">
        <ele>461.5926</ele>
        <time>2021-07-21T14:31:50Z</time>
      </trkpt>
      <trkpt lat="41.02449" lon="0.06025">
        <ele>465.089</ele>
        <time>2021-07-21T14:32:01Z</time>
      </trkpt>
      <trkpt lat="41.02459" lon="0.06155">
        <ele>462.9757</ele>
        <time>2021-07-21T14:32:12Z</time>
      </trkpt>
      <trkpt lat="41.02512" lon="0.06233">
        <ele>460.4205</ele>
        <time>2021-07-21T14:32:23Z</time>
      </trkpt>
      <trkpt lat="41.02495" lon="0.06334">
        <ele>455.5641</ele>
        <time>2021-07-21T14:32:34Z</time>
      </trkpt>
      <trkpt lat="41.02535" lon="0.06463">
        <ele>442.161</ele>
        <time>2021-07-21T14:32:45Z</time>
      </trkpt>
      <trkpt lat="41.02614" lon="0.06543">
        <ele>422.3091</ele>
        <time>2021-07-21T14:32:56Z</time>
      </trkpt>
      <trkpt lat="41.02648" lon="0.0659">
        <ele>417.0939</ele>
        <time>2021-07-21T14:33:07Z</time>
      </trkpt>
      <trkpt lat="41.02685" lon="0.06645">
        <ele>417.6021</ele>
        <time>2021-07-21T14:33:18Z</time>
      </trkpt>
      <trkpt lat="41.0276" lon="0.06684">
        <ele>420.4663</ele>
        <time>2021-07-21T14:33:29Z</time>
      </trkpt>
      <trkpt lat="41.02845" lon="0.06728">
        <ele>422.7395</ele>
        <time>2021-07-21T14:33:40Z</time>
      </trkpt>
      <trkpt lat="41.0295" lon="0.06839">
        <ele>419.7306</ele>
        <time>2021-07-21T14:33:51Z</time>
      </trkpt>
      <trkpt lat="41.02993" lon="0.06904">
        <ele>418.9029</ele>
        <time>2021-07-21T14:34:02Z</time>
      </trkpt>
      <trkpt lat="41.03068" lon="0.06915">
        <ele>418.8277</ele>
        <time>2021-07-21T14:34:13Z</time>
      </trkpt>
      <trkpt lat="41.03175" lon="0.07002">
        <ele>409.2548</ele>
        <time>2021-07-21T14:34:24Z</time>
      </trkpt>
      <trkpt lat="41.03265" lon="0.07016">
        <ele>404.836</ele>
        <time>2021-07-21T14:34:35Z</time>
      </trkpt>
      <trkpt lat="41.03294" lon="0.07129">
        <ele>397.6844</ele>
        <time>2021-07-21T14:34:46Z</time>
      </trkpt>
      <trkpt lat="41.03239" lon="0.07145">
        <ele>398.6083</ele>
        <time>2021-07-21T14:34:57Z</time>
      </trkpt>
      <trkpt lat="41.03286" lon="0.07208">
        <ele>396.8303</ele>
        <time>2021-07-21T14:35:08Z</time>
      </trkpt>
      <trkpt lat="41.03376" lon="0.07266">
        <ele>388.0283</ele>
        <time>2021-07-21T14:35:19Z</time>
      </trkpt>
      <trkpt lat="41.03399" lon="0.07356">
        <ele>382.3194</ele>
        <time>2021-07-21T14:35:30Z</time>
      </trkpt>
      <trkpt lat="41.03508" lon="0.07373">
        <ele>380.7305</ele>
        <time>2021-07-21T14:35:41Z</time>
      </trkpt>
      <trkpt lat="41.03598" lon="0.07387">
        <ele>378.6092</ele>
        <time>2021-07-21T14:35:52Z</time>
      </trkpt>
      <trkpt lat="41.03616" lon="0.07558">
        <ele>377.3914</ele>
        <time>2021-07-21T14:36:03Z</time>
      </trkpt>
      <trkpt lat="41.0364" lon="0.07717">
        <ele>379.4905</ele>
        <time>2021-07-21T14:36:14Z</time>
      </trkpt>
      <trkpt lat="41.03604" lon="0.0783">
        <ele>381.9091</ele>
        <time>2021-07-21T14:36:25Z</time>
      </trkpt>
      <trkpt lat="41.03586" lon="0.07975">
        <ele>373.4539</ele>
        <time>2021-07-21T14:36:36Z</time>
      </trkpt>
      <trkpt lat="41.0366" lon="0.08088">
        <ele>370.6108</ele>
        <time>2021-07-21T14:36:47Z</time>
      </trkpt>
      <trkpt lat="41.03779" lon="0.08219">
        <ele>372.9215</ele>
        <time>2021-07-21T14:36:58Z</time>
      </trkpt>
      <trkpt lat="41.03817" lon="0.08366">
        <ele>374.1311</ele>
        <time>2021-07-21T14:37:09Z</time>
      </trkpt>
      <trkpt lat="41.03897" lon="0.08512">
        <ele>370.0953</ele>
        <time>2021-07-21T14:37:20Z</time>
      </trkpt>
      <trkpt lat="41.03931" lon="0.08703">
        <ele>366.1186</ele>
        <time>2021-07-21T14:37:31Z</time>
      </trkpt>
      <trkpt lat="41.03953" lon="0.08833">
        <ele>364.1975</ele>
        <time>2021-07-21T14:37:42Z</time>
      </trkpt>
      <trkpt lat="41.04086" lon="0.08933">
        <ele>362.8602</ele>
        <time>2021-07-21T14:37:53Z</time>
      </trkpt>
      <trkpt lat="41.04131" lon="0.09036">
        <ele>358.9513</ele>
        <time>2021-07-21T14:38:04Z</time>
      </trkpt>
      <trkpt lat="41.04166" lon="0.09075">
        <ele>361.527</ele>
        <time>2021-07-21T14:38:15Z</time>
      </trkpt>
      <trkpt lat="41.04213" lon="0.0912">
        <ele>361.111</ele>
        <time>2021-07-21T14:38:26Z</time>
      </trkpt>
      <trkpt lat="41.0428" lon="0.09228">
        <ele>364.5377</ele>
        <time>2021-07-21T14:38:37Z</time>
      </trkpt>
      <trkpt lat="41.04311" lon="0.09307">
        <ele>364.3628</ele>
        <time>2021-07-21T14:38:48Z</time>
      </trkpt>
      <trkpt lat="41.04366" lon="0.09432">
        <ele>361.1245</ele>
        <time>2021-07-21T14:38:59Z</time>
      </trkpt>
      <trkpt lat="41.04448" lon="0.09591">
        <ele>354.384</ele>
        <time>2021-07-21T14:39:10Z</time>
      </trkpt>
      <trkpt lat="41.045" lon="0.0972">
        <ele>356.8805</ele>
        <time>2021-07-21T14:39:21Z</time>
      </trkpt>
      <trkpt lat="41.04571" lon="0.09874">
        <ele>361.0946</ele>
        <time>2021-07-21T14:39:32Z</time>
      </trkpt>
      <trkpt lat="41.04609" lon="0.10016">
        <ele>363.5841</ele>
        <time>2021-07-21T14:39:43Z</time>
      </trkpt>
      <trkpt lat="41.047" lon="0.10018">
        <ele>367.7872</ele>
        <time>2021-07-21T14:39:54Z</time>
      </trkpt>
      <trkpt lat="41.04778" lon="0.1001">
        <ele>367.1013</ele>
        <time>2021-07-21T14:40:05Z</time>
      </trkpt>
      <trkpt lat="41.04825" lon="0.10071">
        <ele>362.9967</ele>
        <time>2021-07-21T14:40:16Z</time>
      </trkpt>
      <trkpt lat="41.04852" lon="0.10134">
        <ele>355.2788</ele>
        <time>2021-07-21T14:40:27Z</time>
      </trkpt>
      <trkpt lat="41.04862" lon="0.10148">
        <ele>351.1091</ele>
        <time>2021-07-21T14:40:38Z</time>
      </trkpt>
      <trkpt lat="41.04925" lon="0.10215">
        <ele>350.9327</ele>
        <time>2021-07-21T14:40:49Z</time>
      </trkpt>
      <trkpt lat="41.04985" lon="0.10243">
        <ele>357.3337</ele>
        <time>2021-07-21T14:41:00Z</time>
      </trkpt>
      <trkpt lat="41.05025" lon="0.10273">
        <ele>359.3934</ele>
        <time>2021-07-21T14:41:11Z</time>
      </trkpt>
      <trkpt lat="41.05026" lon="0.10304">
        <ele>365.7738</ele>
        <time>2021-07-21T14:41:22Z</time>
      </trkpt>
      <trkpt lat="41.05004" lon="0.10356">
        <ele>364.6139</ele>
        <time>2021-07-21T14:41:33Z</time>
      </trkpt>
      <trkpt lat="41.04994" lon="0.10392">
        <ele>367.1449</ele>
        <time>2021-07-21T14:41:44Z</time>
      </trkpt>
      <trkpt lat="41.04999" lon="0.10384">
        <ele>366.596</ele>
        <time>2021-07-21T14:41:55Z</time>
      </trkpt>
      <trkpt lat="41.05" lon="0.10378">
        <ele>368.0414</ele>
        <time>2021-07-21T14:42:06Z</time>
      </trkpt>
      <trkpt lat="41.05" lon="0.10372">
        <ele>369.133</ele>
        <time>2021-07-21T14:42:17Z</time>
      </trkpt>
      <trkpt lat="41.04997" lon="0.10344">
        <ele>366.5787</ele>
        <time>2021-07-21T14:42:28Z</time>
      </trkpt>
      <trkpt lat="41.04988" lon="0.10366">
        <ele>361.8523</ele>
        <time>2021-07-21T14:42:39Z</time>
      </trkpt>
      <trkpt lat="41.04958" lon="0.10423">
        <ele>356.6112</ele>
        <time>2021-07-21T14:42:50Z</time>
      </trkpt>
      <trkpt lat="41.04965" lon="0.10501">
        <ele>348.5304</ele>
        <time>2021-07-21T14:43:01Z</time>
      </trkpt>
      <trkpt lat="41.04959" lon="0.10564">
        <ele>348.857</ele>
        <time>2021-07-21T14:43:12Z</time>
      </trkpt>
      <trkpt lat="41.04974" lon="0.10611">
        <ele>341.8721</ele>
        <time>2021-07-21T14:43:23Z</time>
      </trkpt>
      <trkpt lat="41.05067" lon="0.10716">
        <ele>330.1686</ele>
        <time>2021-07-21T14:43:34Z</time>
      </trkpt>
      <trkpt lat="41.05136" lon="0.10809">
        <ele>329.2495</ele>
        <time>2021-07-21T14:43:45Z</time>
      </trkpt>
      <trkpt lat="41.05195" lon="0.10831">
        <ele>329.017</ele>
        <time>2021-07-21T14:43:56Z</time>
      </trkpt>
      <trkpt lat="41.05205" lon="0.10831">
        <ele>329.3557</ele>
        <time>2021-07-21T14:44:07Z</time>
      </trkpt>
      <trkpt lat="41.05205" lon="0.10831">
        <ele>329.3557</ele>
        <time>2021-07-21T14:45:07Z</time>
      </trkpt>
      <trkpt lat="41.05204" lon="0.10827">
        <ele>328.1684</ele>
        <time>2021-07-21T14:46:00Z</time>
      </trkpt>
      <trkpt lat="41.05207" lon="0.10829">
        <ele>331.1999</ele>
        <time>2021-07-21T14:54:28Z</time>
      </trkpt>
      <trkpt lat="41.05207" lon="0.10827">
        <ele>328.199</ele>
        <time>2021-07-21T14:55:01Z</time>
      </trkpt>
      <trkpt lat="41.05211" lon="0.10836">
        <ele>327.9793</ele>
        <time>2021-07-21T14:55:28Z</time>
      </trkpt>
      <trkpt lat="41.05205" lon="0.10828">
        <ele>329.4805</ele>
        <time>2021-07-21T14:55:39Z</time>
      </trkpt>
      <trkpt lat="41.05203" lon="0.10829">
        <ele>327.4827</ele>
        <time>2021-07-21T15:03:03Z</time>
      </trkpt>
      <trkpt lat="41.05207" lon="0.10828">
        <ele>328.3486</ele>
        <time>2021-07-21T15:03:14Z</time>
      </trkpt>
      <trkpt lat="41.05205" lon="0.10828">
        <ele>328.2686</ele>
        <time>2021-07-21T15:04:15Z</time>
      </trkpt>
      <trkpt lat="41.0521" lon="0.10802">
        <ele>328.5253</ele>
        <time>2021-07-21T15:04:26Z</time>
      </trkpt>
      <trkpt lat="41.05229" lon="0.10694">
        <ele>326.212</ele>
        <time>2021-07-21T15:04:37Z</time>
      </trkpt>
      <trkpt lat="41.05281" lon="0.10577">
        <ele>326.6375</ele>
        <time>2021-07-21T15:04:48Z</time>
      </trkpt>
      <trkpt lat="41.05374" lon="0.10469">
        <ele>326.3922</ele>
        <time>2021-07-21T15:04:59Z</time>
      </trkpt>
      <trkpt lat="41.05503" lon="0.10431">
        <ele>325.1456</ele>
        <time>2021-07-21T15:05:10Z</time>
      </trkpt>
      <trkpt lat="41.05621" lon="0.10502">
        <ele>324.3665</ele>
        <time>2021-07-21T15:05:21Z</time>
      </trkpt>
      <trkpt lat="41.05725" lon="0.10681">
        <ele>324.761</ele>
        <time>2021-07-21T15:05:32Z</time>
      </trkpt>
      <trkpt lat="41.05851" lon="0.10765">
        <ele>322.7718</ele>
        <time>2021-07-21T15:05:43Z</time>
      </trkpt>
      <trkpt lat="41.05979" lon="0.10886">
        <ele>320.6276</ele>
        <time>2021-07-21T15:05:54Z</time>
      </trkpt>
      <trkpt lat="41.0605" lon="0.10931">
        <ele>319.7099</ele>
        <time>2021-07-21T15:06:05Z</time>
      </trkpt>
      <trkpt lat="41.06112" lon="0.10956">
        <ele>320.8847</ele>
        <time>2021-07-21T15:06:16Z</time>
      </trkpt>
      <trkpt lat="41.0617" lon="0.11075">
        <ele>320.1254</ele>
        <time>2021-07-21T15:06:27Z</time>
      </trkpt>
      <trkpt lat="41.06219" lon="0.11234">
        <ele>319.6216</ele>
        <time>2021-07-21T15:06:38Z</time>
      </trkpt>
      <trkpt lat="41.06264" lon="0.11423">
        <ele>318.8427</ele>
        <time>2021-07-21T15:06:49Z</time>
      </trkpt>
      <trkpt lat="41.0631" lon="0.11586">
        <ele>318.0737</ele>
        <time>2021-07-21T15:07:00Z</time>
      </trkpt>
      <trkpt lat="41.06315" lon="0.11609">
        <ele>317.6856</ele>
        <time>2021-07-21T15:07:11Z</time>
      </trkpt>
      <trkpt lat="41.06313" lon="0.1161">
        <ele>316.6211</ele>
        <time>2021-07-21T15:08:10Z</time>
      </trkpt>
      <trkpt lat="41.06313" lon="0.11616">
        <ele>317.2425</ele>
        <time>2021-07-21T15:08:49Z</time>
      </trkpt>
      <trkpt lat="41.06323" lon="0.11692">
        <ele>316.0168</ele>
        <time>2021-07-21T15:09:00Z</time>
      </trkpt>
      <trkpt lat="41.0636" lon="0.11793">
        <ele>311.6656</ele>
        <time>2021-07-21T15:09:11Z</time>
      </trkpt>
      <trkpt lat="41.06411" lon="0.11854">
        <ele>311.7272</ele>
        <time>2021-07-21T15:09:22Z</time>
      </trkpt>
      <trkpt lat="41.06476" lon="0.11919">
        <ele>315.3758</ele>
        <time>2021-07-21T15:09:33Z</time>
      </trkpt>
      <trkpt lat="41.0653" lon="0.1199">
        <ele>318.6387</ele>
        <time>2021-07-21T15:09:44Z</time>
      </trkpt>
      <trkpt lat="41.06566" lon="0.12002">
        <ele>320.2523</ele>
        <time>2021-07-21T15:09:55Z</time>
      </trkpt>
      <trkpt lat="41.06569" lon="0.12007">
        <ele>319.8275</ele>
        <time>2021-07-21T15:10:06Z</time>
      </trkpt>
      <trkpt lat="41.06565" lon="0.12006">
        <ele>318.4435</ele>
        <time>2021-07-21T15:10:22Z</time>
      </trkpt>
      <trkpt lat="41.06557" lon="0.12004">
        <ele>315.9615</ele>
        <time>2021-07-21T15:10:33Z</time>
      </trkpt>
      <trkpt lat="41.06551" lon="0.12006">
        <ele>315.497</ele>
        <time>2021-07-21T15:10:44Z</time>
      </trkpt>
      <trkpt lat="41.06563" lon="0.12018">
        <ele>315.4436</ele>
        <time>2021-07-21T15:10:55Z</time>
      </trkpt>
      <trkpt lat="41.06568" lon="0.12024">
        <ele>315.5905</ele>
        <time>2021-07-21T15:11:06Z</time>
      </trkpt>
      <trkpt lat="41.06566" lon="0.12024">
        <ele>315.2382</ele>
        <time>2021-07-21T15:12:04Z</time>
      </trkpt>
      <trkpt lat="41.06559" lon="0.12018">
        <ele>315.2088</ele>
        <time>2021-07-21T15:12:15Z</time>
      </trkpt>
      <trkpt lat="41.0655" lon="0.12009">
        <ele>315.5088</ele>
        <time>2021-07-21T15:12:26Z</time>
      </trkpt>
      <trkpt lat="41.06555" lon="0.12006">
        <ele>317.0777</ele>
        <time>2021-07-21T15:12:41Z</time>
      </trkpt>
      <trkpt lat="41.06586" lon="0.11978">
        <ele>317.2538</ele>
        <time>2021-07-21T15:12:52Z</time>
      </trkpt>
      <trkpt lat="41.06604" lon="0.11984">
        <ele>318.9984</ele>
        <time>2021-07-21T15:13:03Z</time>
      </trkpt>
      <trkpt lat="41.06635" lon="0.12018">
        <ele>318.7554</ele>
        <time>2021-07-21T15:13:14Z</time>
      </trkpt>
      <trkpt lat="41.06634" lon="0.11989">
        <ele>321.6494</ele>
        <time>2021-07-21T15:13:25Z</time>
      </trkpt>
      <trkpt lat="41.06645" lon="0.11993">
        <ele>321.1333</ele>
        <time>2021-07-21T15:13:36Z</time>
      </trkpt>
      <trkpt lat="41.06658" lon="0.11991">
        <ele>319.9372</ele>
        <time>2021-07-21T15:13:47Z</time>
      </trkpt>
      <trkpt lat="41.06717" lon="0.11985">
        <ele>320.846</ele>
        <time>2021-07-21T15:13:58Z</time>
      </trkpt>
      <trkpt lat="41.06817" lon="0.11994">
        <ele>320.7834</ele>
        <time>2021-07-21T15:14:09Z</time>
      </trkpt>
      <trkpt lat="41.06901" lon="0.1194">
        <ele>321.1224</ele>
        <time>2021-07-21T15:14:20Z</time>
      </trkpt>
      <trkpt lat="41.06994" lon="0.11876">
        <ele>320.7042</ele>
        <time>2021-07-21T15:14:31Z</time>
      </trkpt>
      <trkpt lat="41.07088" lon="0.11764">
        <ele>320.3571</ele>
        <time>2021-07-21T15:14:42Z</time>
      </trkpt>
      <trkpt lat="41.07113" lon="0.11727">
        <ele>320.0285</ele>
        <time>2021-07-21T15:14:53Z</time>
      </trkpt>
      <trkpt lat="41.07163" lon="0.11716">
        <ele>319.2733</ele>
        <time>2021-07-21T15:15:04Z</time>
      </trkpt>
      <trkpt lat="41.07221" lon="0.11802">
        <ele>299.6726</ele>
        <time>2021-07-21T15:15:15Z</time>
      </trkpt>
      <trkpt lat="41.07248" lon="0.11851">
        <ele>306.9907</ele>
        <time>2021-07-21T15:15:26Z</time>
      </trkpt>
      <trkpt lat="41.07242" lon="0.11878">
        <ele>316.1268</ele>
        <time>2021-07-21T15:15:37Z</time>
      </trkpt>
      <trkpt lat="41.07269" lon="0.11905">
        <ele>310.1972</ele>
        <time>2021-07-21T15:15:48Z</time>
      </trkpt>
      <trkpt lat="41.07322" lon="0.11935">
        <ele>309.3519</ele>
        <time>2021-07-21T15:15:59Z</time>
      </trkpt>
      <trkpt lat="41.07356" lon="0.11919">
        <ele>308.6521</ele>
        <time>2021-07-21T15:16:10Z</time>
      </trkpt>
      <trkpt lat="41.07394" lon="0.11901">
        <ele>309.0173</ele>
        <time>2021-07-21T15:16:21Z</time>
      </trkpt>
      <trkpt lat="41.07422" lon="0.11883">
        <ele>309.1987</ele>
        <time>2021-07-21T15:16:32Z</time>
      </trkpt>
      <trkpt lat="41.07455" lon="0.11869">
        <ele>308.2893</ele>
        <time>2021-07-21T15:16:43Z</time>
      </trkpt>
      <trkpt lat="41.07495" lon="0.11861">
        <ele>307.7835</ele>
        <time>2021-07-21T15:16:54Z</time>
      </trkpt>
      <trkpt lat="41.07557" lon="0.11846">
        <ele>302.2823</ele>
        <time>2021-07-21T15:17:05Z</time>
      </trkpt>
      <trkpt lat="41.07605" lon="0.11847">
        <ele>302.6429</ele>
        <time>2021-07-21T15:17:16Z</time>
      </trkpt>
      <trkpt lat="41.0765" lon="0.11851">
        <ele>309.3767</ele>
        <time>2021-07-21T15:17:27Z</time>
      </trkpt>
      <trkpt lat="41.07696" lon="0.11866">
        <ele>310.4777</ele>
        <time>2021-07-21T15:17:38Z</time>
      </trkpt>
      <trkpt lat="41.07743" lon="0.11889">
        <ele>310.4373</ele>
        <time>2021-07-21T15:17:49Z</time>
      </trkpt>
      <trkpt lat="41.07813" lon="0.11928">
        <ele>305.6811</ele>
        <time>2021-07-21T15:18:00Z</time>
      </trkpt>
      <trkpt lat="41.07861" lon="0.11973">
        <ele>304.0267</ele>
        <time>2021-07-21T15:18:11Z</time>
      </trkpt>
      <trkpt lat="41.07901" lon="0.12033">
        <ele>303.4639</ele>
        <time>2021-07-21T15:18:22Z</time>
      </trkpt>
      <trkpt lat="41.07937" lon="0.12087">
        <ele>306.4415</ele>
        <time>2021-07-21T15:18:33Z</time>
      </trkpt>
      <trkpt lat="41.0796" lon="0.12155">
        <ele>305.3395</ele>
        <time>2021-07-21T15:18:44Z</time>
      </trkpt>
      <trkpt lat="41.07983" lon="0.12224">
        <ele>302.0323</ele>
        <time>2021-07-21T15:18:55Z</time>
      </trkpt>
      <trkpt lat="41.08002" lon="0.12292">
        <ele>300.5432</ele>
        <time>2021-07-21T15:19:06Z</time>
      </trkpt>
      <trkpt lat="41.08013" lon="0.1233">
        <ele>305.7144</ele>
        <time>2021-07-21T15:19:17Z</time>
      </trkpt>
      <trkpt lat="41.08004" lon="0.12349">
        <ele>313.7968</ele>
        <time>2021-07-21T15:19:28Z</time>
      </trkpt>
      <trkpt lat="41.07961" lon="0.12374">
        <ele>313.4877</ele>
        <time>2021-07-21T15:19:39Z</time>
      </trkpt>
      <trkpt lat="41.07924" lon="0.12361">
        <ele>314.8986</ele>
        <time>2021-07-21T15:19:50Z</time>
      </trkpt>
      <trkpt lat="41.07902" lon="0.12359">
        <ele>316.0731</ele>
        <time>2021-07-21T15:20:01Z</time>
      </trkpt>
      <trkpt lat="41.07902" lon="0.12358">
        <ele>315.8809</ele>
        <time>2021-07-21T15:21:01Z</time>
      </trkpt>
      <trkpt lat="41.07902" lon="0.1236">
        <ele>315.9362</ele>
        <time>2021-07-21T15:22:01Z</time>
      </trkpt>
      <trkpt lat="41.07893" lon="0.12352">
        <ele>317.0493</ele>
        <time>2021-07-21T15:35:01Z</time>
      </trkpt>
      <trkpt lat="41.07897" lon="0.12357">
        <ele>316.7098</ele>
        <time>2021-07-21T15:35:12Z</time>
      </trkpt>
      <trkpt lat="41.07901" lon="0.12355">
        <ele>316.36</ele>
        <time>2021-07-21T15:35:27Z</time>
      </trkpt>
      <trkpt lat="41.07901" lon="0.12356">
        <ele>315.9776</ele>
        <time>2021-07-21T15:36:26Z</time>
      </trkpt>
      <trkpt lat="41.07902" lon="0.12361">
        <ele>316.0073</ele>
        <time>2021-07-21T15:37:26Z</time>
      </trkpt>
      <trkpt lat="41.07901" lon="0.12363">
        <ele>315.6027</ele>
        <time>2021-07-21T15:38:26Z</time>
      </trkpt>
      <trkpt lat="41.07901" lon="0.12361">
        <ele>315.6523</ele>
        <time>2021-07-21T15:39:26Z</time>
      </trkpt>
      <trkpt lat="41.079" lon="0.12363">
        <ele>315.6257</ele>
        <time>2021-07-21T15:40:26Z</time>
      </trkpt>
      <trkpt lat="41.07901" lon="0.1236">
        <ele>315.6077</ele>
        <time>2021-07-21T15:41:26Z</time>
      </trkpt>
      <trkpt lat="41.079" lon="0.12365">
        <ele>315.5309</ele>
        <time>2021-07-21T15:42:26Z</time>
      </trkpt>
      <trkpt lat="41.07901" lon="0.1236">
        <ele>315.8357</ele>
        <time>2021-07-21T15:43:24Z</time>
      </trkpt>
      <trkpt lat="41.07902" lon="0.12362">
        <ele>315.4611</ele>
        <time>2021-07-21T15:44:24Z</time>
      </trkpt>
      <trkpt lat="41.07902" lon="0.12363">
        <ele>315.9199</ele>
        <time>2021-07-21T15:45:23Z</time>
      </trkpt>
      <trkpt lat="41.079" lon="0.12362">
        <ele>316.2309</ele>
        <time>2021-07-21T15:46:22Z</time>
      </trkpt>
      <trkpt lat="41.07897" lon="0.12368">
        <ele>316.5656</ele>
        <time>2021-07-21T15:47:00Z</time>
      </trkpt>
      <trkpt lat="41.07837" lon="0.1243">
        <ele>318.803</ele>
        <time>2021-07-21T15:47:11Z</time>
      </trkpt>
      <trkpt lat="41.07832" lon="0.12521">
        <ele>319.6225</ele>
        <time>2021-07-21T15:47:22Z</time>
      </trkpt>
      <trkpt lat="41.07865" lon="0.12584">
        <ele>319.6711</ele>
        <time>2021-07-21T15:47:33Z</time>
      </trkpt>
      <trkpt lat="41.07891" lon="0.12599">
        <ele>323.6469</ele>
        <time>2021-07-21T15:47:44Z</time>
      </trkpt>
      <trkpt lat="41.07897" lon="0.12601">
        <ele>323.1906</ele>
        <time>2021-07-21T15:48:13Z</time>
      </trkpt>
      <trkpt lat="41.07965" lon="0.12644">
        <ele>318.8554</ele>
        <time>2021-07-21T15:48:24Z</time>
      </trkpt>
      <trkpt lat="41.08024" lon="0.12725">
        <ele>322.0019</ele>
        <time>2021-07-21T15:48:35Z</time>
      </trkpt>
      <trkpt lat="41.08115" lon="0.12761">
        <ele>318.7146</ele>
        <time>2021-07-21T15:48:46Z</time>
      </trkpt>
      <trkpt lat="41.08143" lon="0.12879">
        <ele>312.9881</ele>
        <time>2021-07-21T15:48:57Z</time>
      </trkpt>
      <trkpt lat="41.08225" lon="0.1289">
        <ele>311.7518</ele>
        <time>2021-07-21T15:49:08Z</time>
      </trkpt>
      <trkpt lat="41.08318" lon="0.12811">
        <ele>312.0144</ele>
        <time>2021-07-21T15:49:19Z</time>
      </trkpt>
      <trkpt lat="41.08399" lon="0.12704">
        <ele>302.5982</ele>
        <time>2021-07-21T15:49:30Z</time>
      </trkpt>
      <trkpt lat="41.08495" lon="0.12638">
        <ele>308.902</ele>
        <time>2021-07-21T15:49:41Z</time>
      </trkpt>
      <trkpt lat="41.08578" lon="0.12563">
        <ele>312.1719</ele>
        <time>2021-07-21T15:49:52Z</time>
      </trkpt>
      <trkpt lat="41.08631" lon="0.12445">
        <ele>302.0437</ele>
        <time>2021-07-21T15:50:03Z</time>
      </trkpt>
      <trkpt lat="41.08699" lon="0.12312">
        <ele>301.1533</ele>
        <time>2021-07-21T15:50:14Z</time>
      </trkpt>
      <trkpt lat="41.08726" lon="0.12285">
        <ele>307.1114</ele>
        <time>2021-07-21T15:50:25Z</time>
      </trkpt>
      <trkpt lat="41.08819" lon="0.12244">
        <ele>312.6755</ele>
        <time>2021-07-21T15:50:36Z</time>
      </trkpt>
      <trkpt lat="41.08913" lon="0.1216">
        <ele>306.4477</ele>
        <time>2021-07-21T15:50:47Z</time>
      </trkpt>
      <trkpt lat="41.09021" lon="0.12118">
        <ele>306.6883</ele>
        <time>2021-07-21T15:50:58Z</time>
      </trkpt>
      <trkpt lat="41.09141" lon="0.12101">
        <ele>303.1696</ele>
        <time>2021-07-21T15:51:09Z</time>
      </trkpt>
      <trkpt lat="41.09271" lon="0.12112">
        <ele>300.4261</ele>
        <time>2021-07-21T15:51:20Z</time>
      </trkpt>
      <trkpt lat="41.09354" lon="0.12168">
        <ele>297.8466</ele>
        <time>2021-07-21T15:51:31Z</time>
      </trkpt>
      <trkpt lat="41.09418" lon="0.12173">
        <ele>295.4936</ele>
        <time>2021-07-21T15:51:42Z</time>
      </trkpt>
      <trkpt lat="41.095" lon="0.12098">
        <ele>292.1162</ele>
        <time>2021-07-21T15:51:53Z</time>
      </trkpt>
      <trkpt lat="41.09461" lon="0.12024">
        <ele>294.411</ele>
        <time>2021-07-21T15:52:04Z</time>
      </trkpt>
      <trkpt lat="41.09487" lon="0.11962">
        <ele>290.1222</ele>
        <time>2021-07-21T15:52:15Z</time>
      </trkpt>
      <trkpt lat="41.09538" lon="0.11915">
        <ele>294.7069</ele>
        <time>2021-07-21T15:52:26Z</time>
      </trkpt>
      <trkpt lat="41.09607" lon="0.11939">
        <ele>305.1159</ele>
        <time>2021-07-21T15:52:37Z</time>
      </trkpt>
      <trkpt lat="41.09691" lon="0.11959">
        <ele>307.5625</ele>
        <time>2021-07-21T15:52:48Z</time>
      </trkpt>
      <trkpt lat="41.09779" lon="0.1198">
        <ele>307.94</ele>
        <time>2021-07-21T15:52:59Z</time>
      </trkpt>
      <trkpt lat="41.09898" lon="0.12056">
        <ele>302.8264</ele>
        <time>2021-07-21T15:53:10Z</time>
      </trkpt>
      <trkpt lat="41.10059" lon="0.12156">
        <ele>303.9287</ele>
        <time>2021-07-21T15:53:21Z</time>
      </trkpt>
      <trkpt lat="41.10236" lon="0.1227">
        <ele>302.0094</ele>
        <time>2021-07-21T15:53:32Z</time>
      </trkpt>
      <trkpt lat="41.1041" lon="0.12403">
        <ele>300.8367</ele>
        <time>2021-07-21T15:53:43Z</time>
      </trkpt>
      <trkpt lat="41.10526" lon="0.12593">
        <ele>304.8451</ele>
        <time>2021-07-21T15:53:54Z</time>
      </trkpt>
      <trkpt lat="41.10728" lon="0.12781">
        <ele>294.6898</ele>
        <time>2021-07-21T15:54:05Z</time>
      </trkpt>
      <trkpt lat="41.1092" lon="0.12946">
        <ele>293.9578</ele>
        <time>2021-07-21T15:54:16Z</time>
      </trkpt>
      <trkpt lat="41.1111" lon="0.13051">
        <ele>296.6563</ele>
        <time>2021-07-21T15:54:27Z</time>
      </trkpt>
      <trkpt lat="41.11299" lon="0.13073">
        <ele>291.8035</ele>
        <time>2021-07-21T15:54:38Z</time>
      </trkpt>
      <trkpt lat="41.11501" lon="0.13142">
        <ele>287.7031</ele>
        <time>2021-07-21T15:54:49Z</time>
      </trkpt>
      <trkpt lat="41.11683" lon="0.13296">
        <ele>284.3141</ele>
        <time>2021-07-21T15:55:00Z</time>
      </trkpt>
      <trkpt lat="41.11831" lon="0.1349">
        <ele>283.2199</ele>
        <time>2021-07-21T15:55:11Z</time>
      </trkpt>
      <trkpt lat="41.11949" lon="0.13609">
        <ele>287.9269</ele>
        <time>2021-07-21T15:55:22Z</time>
      </trkpt>
      <trkpt lat="41.12017" lon="0.13676">
        <ele>292.58</ele>
        <time>2021-07-21T15:55:33Z</time>
      </trkpt>
      <trkpt lat="41.12021" lon="0.13685">
        <ele>292.8347</ele>
        <time>2021-07-21T15:55:45Z</time>
      </trkpt>
      <trkpt lat="41.12064" lon="0.13726">
        <ele>298.4115</ele>
        <time>2021-07-21T15:55:56Z</time>
      </trkpt>
      <trkpt lat="41.12071" lon="0.13733">
        <ele>302.8746</ele>
        <time>2021-07-21T15:56:07Z</time>
      </trkpt>
      <trkpt lat="41.1213" lon="0.13689">
        <ele>302.2688</ele>
        <time>2021-07-21T15:56:18Z</time>
      </trkpt>
      <trkpt lat="41.12226" lon="0.13698">
        <ele>300.2424</ele>
        <time>2021-07-21T15:56:29Z</time>
      </trkpt>
      <trkpt lat="41.12336" lon="0.1366">
        <ele>297.7201</ele>
        <time>2021-07-21T15:56:40Z</time>
      </trkpt>
      <trkpt lat="41.12448" lon="0.13611">
        <ele>298.0134</ele>
        <time>2021-07-21T15:56:51Z</time>
      </trkpt>
      <trkpt lat="41.12562" lon="0.13505">
        <ele>293.7086</ele>
        <time>2021-07-21T15:57:02Z</time>
      </trkpt>
      <trkpt lat="41.1269" lon="0.13358">
        <ele>287.7167</ele>
        <time>2021-07-21T15:57:13Z</time>
      </trkpt>
      <trkpt lat="41.12849" lon="0.13097">
        <ele>280.5721</ele>
        <time>2021-07-21T15:57:24Z</time>
      </trkpt>
      <trkpt lat="41.13029" lon="0.12979">
        <ele>277.4628</ele>
        <time>2021-07-21T15:57:35Z</time>
      </trkpt>
      <trkpt lat="41.13268" lon="0.13057">
        <ele>275.5598</ele>
        <time>2021-07-21T15:57:46Z</time>
      </trkpt>
      <trkpt lat="41.13494" lon="0.13168">
        <ele>274.3273</ele>
        <time>2021-07-21T15:57:57Z</time>
      </trkpt>
      <trkpt lat="41.13736" lon="0.13101">
        <ele>277.7247</ele>
        <time>2021-07-21T15:58:08Z</time>
      </trkpt>
      <trkpt lat="41.13968" lon="0.13039">
        <ele>287.2702</ele>
        <time>2021-07-21T15:58:19Z</time>
      </trkpt>
      <trkpt lat="41.14192" lon="0.1314">
        <ele>282.3025</ele>
        <time>2021-07-21T15:58:30Z</time>
      </trkpt>
      <trkpt lat="41.14435" lon="0.13185">
        <ele>273.184</ele>
        <time>2021-07-21T15:58:41Z</time>
      </trkpt>
      <trkpt lat="41.14672" lon="0.13235">
        <ele>269.1823</ele>
        <time>2021-07-21T15:58:52Z</time>
      </trkpt>
      <trkpt lat="41.14906" lon="0.13284">
        <ele>270.5274</ele>
        <time>2021-07-21T15:59:03Z</time>
      </trkpt>
      <trkpt lat="41.15148" lon="0.13257">
        <ele>267.966</ele>
        <time>2021-07-21T15:59:14Z</time>
      </trkpt>
      <trkpt lat="41.15391" lon="0.13249">
        <ele>262.6938</ele>
        <time>2021-07-21T15:59:25Z</time>
      </trkpt>
      <trkpt lat="41.15626" lon="0.13229">
        <ele>260.1311</ele>
        <time>2021-07-21T15:59:36Z</time>
      </trkpt>
      <trkpt lat="41.15867" lon="0.13206">
        <ele>257.9388</ele>
        <time>2021-07-21T15:59:47Z</time>
      </trkpt>
      <trkpt lat="41.16099" lon="0.13161">
        <ele>258.8167</ele>
        <time>2021-07-21T15:59:58Z</time>
      </trkpt>
      <trkpt lat="41.16326" lon="0.13147">
        <ele>256.6743</ele>
        <time>2021-07-21T16:00:09Z</time>
      </trkpt>
      <trkpt lat="41.16553" lon="0.1323">
        <ele>256.543</ele>
        <time>2021-07-21T16:00:20Z</time>
      </trkpt>
      <trkpt lat="41.16785" lon="0.13308">
        <ele>251.9523</ele>
        <time>2021-07-21T16:00:31Z</time>
      </trkpt>
      <trkpt lat="41.17021" lon="0.13381">
        <ele>250.8909</ele>
        <time>2021-07-21T16:00:42Z</time>
      </trkpt>
      <trkpt lat="41.17255" lon="0.13455">
        <ele>254.5064</ele>
        <time>2021-07-21T16:00:53Z</time>
      </trkpt>
      <trkpt lat="41.17453" lon="0.13611">
        <ele>255.9728</ele>
        <time>2021-07-21T16:01:04Z</time>
      </trkpt>
      <trkpt lat="41.17565" lon="0.13895">
        <ele>252.3808</ele>
        <time>2021-07-21T16:01:15Z</time>
      </trkpt>
      <trkpt lat="41.17663" lon="0.14175">
        <ele>257.633</ele>
        <time>2021-07-21T16:01:26Z</time>
      </trkpt>
      <trkpt lat="41.17733" lon="0.14471">
        <ele>265.5522</ele>
        <time>2021-07-21T16:01:37Z</time>
      </trkpt>
      <trkpt lat="41.17795" lon="0.14781">
        <ele>266.1747</ele>
        <time>2021-07-21T16:01:48Z</time>
      </trkpt>
      <trkpt lat="41.17939" lon="0.15016">
        <ele>257.703</ele>
        <time>2021-07-21T16:01:59Z</time>
      </trkpt>
      <trkpt lat="41.18189" lon="0.15065">
        <ele>250.5157</ele>
        <time>2021-07-21T16:02:10Z</time>
      </trkpt>
      <trkpt lat="41.18446" lon="0.15095">
        <ele>253.6376</ele>
        <time>2021-07-21T16:02:21Z</time>
      </trkpt>
      <trkpt lat="41.18702" lon="0.15124">
        <ele>246.9014</ele>
        <time>2021-07-21T16:02:32Z</time>
      </trkpt>
      <trkpt lat="41.18948" lon="0.15153">
        <ele>255.6327</ele>
        <time>2021-07-21T16:02:43Z</time>
      </trkpt>
      <trkpt lat="41.19187" lon="0.15178">
        <ele>259.7761</ele>
        <time>2021-07-21T16:02:54Z</time>
      </trkpt>
      <trkpt lat="41.19349" lon="0.15145">
        <ele>264.9073</ele>
        <time>2021-07-21T16:03:05Z</time>
      </trkpt>
      <trkpt lat="41.19518" lon="0.1507">
        <ele>266.318</ele>
        <time>2021-07-21T16:03:16Z</time>
      </trkpt>
      <trkpt lat="41.19645" lon="0.15144">
        <ele>277.1849</ele>
        <time>2021-07-21T16:03:27Z</time>
      </trkpt>
      <trkpt lat="41.19788" lon="0.15263">
        <ele>272.5892</ele>
        <time>2021-07-21T16:03:38Z</time>
      </trkpt>
      <trkpt lat="41.19891" lon="0.15351">
        <ele>271.1694</ele>
        <time>2021-07-21T16:03:49Z</time>
      </trkpt>
      <trkpt lat="41.20036" lon="0.15377">
        <ele>259.0041</ele>
        <time>2021-07-21T16:04:00Z</time>
      </trkpt>
      <trkpt lat="41.20162" lon="0.15339">
        <ele>249.8594</ele>
        <time>2021-07-21T16:04:11Z</time>
      </trkpt>
      <trkpt lat="41.20294" lon="0.15444">
        <ele>234.2118</ele>
        <time>2021-07-21T16:04:22Z</time>
      </trkpt>
      <trkpt lat="41.20526" lon="0.15456">
        <ele>222.7999</ele>
        <time>2021-07-21T16:04:33Z</time>
      </trkpt>
      <trkpt lat="41.20714" lon="0.15442">
        <ele>228.0452</ele>
        <time>2021-07-21T16:04:44Z</time>
      </trkpt>
      <trkpt lat="41.20852" lon="0.15256">
        <ele>237.7211</ele>
        <time>2021-07-21T16:04:55Z</time>
      </trkpt>
      <trkpt lat="41.20953" lon="0.15049">
        <ele>239.7806</ele>
        <time>2021-07-21T16:05:06Z</time>
      </trkpt>
      <trkpt lat="41.21044" lon="0.14859">
        <ele>241.9498</ele>
        <time>2021-07-21T16:05:17Z</time>
      </trkpt>
      <trkpt lat="41.21187" lon="0.14876">
        <ele>255.2707</ele>
        <time>2021-07-21T16:05:28Z</time>
      </trkpt>
      <trkpt lat="41.21349" lon="0.14943">
        <ele>266.0616</ele>
        <time>2021-07-21T16:05:39Z</time>
      </trkpt>
      <trkpt lat="41.21463" lon="0.15082">
        <ele>259.486</ele>
        <time>2021-07-21T16:05:50Z</time>
      </trkpt>
      <trkpt lat="41.21593" lon="0.15091">
        <ele>277.1766</ele>
        <time>2021-07-21T16:06:01Z</time>
      </trkpt>
      <trkpt lat="41.2174" lon="0.15087">
        <ele>295.5086</ele>
        <time>2021-07-21T16:06:12Z</time>
      </trkpt>
      <trkpt lat="41.21941" lon="0.15093">
        <ele>287.7203</ele>
        <time>2021-07-21T16:06:23Z</time>
      </trkpt>
      <trkpt lat="41.22138" lon="0.15078">
        <ele>283.6072</ele>
        <time>2021-07-21T16:06:34Z</time>
      </trkpt>
      <trkpt lat="41.22305" lon="0.15015">
        <ele>285.4176</ele>
        <time>2021-07-21T16:06:45Z</time>
      </trkpt>
      <trkpt lat="41.22443" lon="0.14826">
        <ele>284.6563</ele>
        <time>2021-07-21T16:06:56Z</time>
      </trkpt>
      <trkpt lat="41.22641" lon="0.14623">
        <ele>285.1686</ele>
        <time>2021-07-21T16:07:07Z</time>
      </trkpt>
      <trkpt lat="41.22816" lon="0.14417">
        <ele>284.811</ele>
        <time>2021-07-21T16:07:18Z</time>
      </trkpt>
      <trkpt lat="41.23023" lon="0.14416">
        <ele>283.3073</ele>
        <time>2021-07-21T16:07:29Z</time>
      </trkpt>
      <trkpt lat="41.23249" lon="0.14401">
        <ele>274.9184</ele>
        <time>2021-07-21T16:07:40Z</time>
      </trkpt>
      <trkpt lat="41.23382" lon="0.14365">
        <ele>262.8544</ele>
        <time>2021-07-21T16:07:51Z</time>
      </trkpt>
      <trkpt lat="41.23452" lon="0.14551">
        <ele>265.4132</ele>
        <time>2021-07-21T16:08:02Z</time>
      </trkpt>
      <trkpt lat="41.23515" lon="0.14858">
        <ele>272.0954</ele>
        <time>2021-07-21T16:08:13Z</time>
      </trkpt>
      <trkpt lat="41.2358" lon="0.15067">
        <ele>267.6933</ele>
        <time>2021-07-21T16:08:24Z</time>
      </trkpt>
      <trkpt lat="41.23775" lon="0.15213">
        <ele>264.6837</ele>
        <time>2021-07-21T16:08:35Z</time>
      </trkpt>
      <trkpt lat="41.23967" lon="0.15372">
        <ele>270.6611</ele>
        <time>2021-07-21T16:08:46Z</time>
      </trkpt>
      <trkpt lat="41.24107" lon="0.15519">
        <ele>280.1301</ele>
        <time>2021-07-21T16:08:57Z</time>
      </trkpt>
      <trkpt lat="41.24328" lon="0.15529">
        <ele>294.9382</ele>
        <time>2021-07-21T16:09:08Z</time>
      </trkpt>
      <trkpt lat="41.24495" lon="0.15622">
        <ele>296.5134</ele>
        <time>2021-07-21T16:09:19Z</time>
      </trkpt>
      <trkpt lat="41.24631" lon="0.15641">
        <ele>290.0669</ele>
        <time>2021-07-21T16:09:30Z</time>
      </trkpt>
      <trkpt lat="41.24851" lon="0.15821">
        <ele>290.0452</ele>
        <time>2021-07-21T16:09:41Z</time>
      </trkpt>
      <trkpt lat="41.25072" lon="0.1598">
        <ele>284.0152</ele>
        <time>2021-07-21T16:09:52Z</time>
      </trkpt>
      <trkpt lat="41.25281" lon="0.16082">
        <ele>278.9903</ele>
        <time>2021-07-21T16:10:03Z</time>
      </trkpt>
      <trkpt lat="41.2548" lon="0.16305">
        <ele>277.3224</ele>
        <time>2021-07-21T16:10:14Z</time>
      </trkpt>
      <trkpt lat="41.25651" lon="0.16404">
        <ele>274.1055</ele>
        <time>2021-07-21T16:10:25Z</time>
      </trkpt>
      <trkpt lat="41.2583" lon="0.16557">
        <ele>274.9616</ele>
        <time>2021-07-21T16:10:36Z</time>
      </trkpt>
      <trkpt lat="41.25966" lon="0.16713">
        <ele>270.9064</ele>
        <time>2021-07-21T16:10:47Z</time>
      </trkpt>
      <trkpt lat="41.26206" lon="0.16797">
        <ele>275.1438</ele>
        <time>2021-07-21T16:10:58Z</time>
      </trkpt>
      <trkpt lat="41.26361" lon="0.16955">
        <ele>276.2209</ele>
        <time>2021-07-21T16:11:09Z</time>
      </trkpt>
      <trkpt lat="41.26473" lon="0.17279">
        <ele>265.1579</ele>
        <time>2021-07-21T16:11:20Z</time>
      </trkpt>
      <trkpt lat="41.26567" lon="0.17514">
        <ele>253.5006</ele>
        <time>2021-07-21T16:11:31Z</time>
      </trkpt>
      <trkpt lat="41.26722" lon="0.17733">
        <ele>256.3</ele>
        <time>2021-07-21T16:11:42Z</time>
      </trkpt>
      <trkpt lat="41.26851" lon="0.17953">
        <ele>255.7284</ele>
        <time>2021-07-21T16:11:53Z</time>
      </trkpt>
      <trkpt lat="41.26995" lon="0.1824">
        <ele>249.2801</ele>
        <time>2021-07-21T16:12:04Z</time>
      </trkpt>
      <trkpt lat="41.27132" lon="0.18491">
        <ele>263.4249</ele>
        <time>2021-07-21T16:12:15Z</time>
      </trkpt>
      <trkpt lat="41.27295" lon="0.18595">
        <ele>265.456</ele>
        <time>2021-07-21T16:12:26Z</time>
      </trkpt>
      <trkpt lat="41.27449" lon="0.18635">
        <ele>262.8948</ele>
        <time>2021-07-21T16:12:37Z</time>
      </trkpt>
      <trkpt lat="41.27614" lon="0.18688">
        <ele>265.9052</ele>
        <time>2021-07-21T16:12:48Z</time>
      </trkpt>
      <trkpt lat="41.27782" lon="0.18784">
        <ele>269.3482</ele>
        <time>2021-07-21T16:12:59Z</time>
      </trkpt>
      <trkpt lat="41.27907" lon="0.18945">
        <ele>266.6658</ele>
        <time>2021-07-21T16:13:10Z</time>
      </trkpt>
      <trkpt lat="41.27969" lon="0.19232">
        <ele>264.8496</ele>
        <time>2021-07-21T16:13:21Z</time>
      </trkpt>
      <trkpt lat="41.28032" lon="0.19569">
        <ele>265.5989</ele>
        <time>2021-07-21T16:13:32Z</time>
      </trkpt>
      <trkpt lat="41.28095" lon="0.19912">
        <ele>267.2308</ele>
        <time>2021-07-21T16:13:43Z</time>
      </trkpt>
      <trkpt lat="41.28236" lon="0.20216">
        <ele>266.9415</ele>
        <time>2021-07-21T16:13:54Z</time>
      </trkpt>
      <trkpt lat="41.28392" lon="0.20515">
        <ele>249.2936</ele>
        <time>2021-07-21T16:14:05Z</time>
      </trkpt>
      <trkpt lat="41.28541" lon="0.20802">
        <ele>255.9048</ele>
        <time>2021-07-21T16:14:16Z</time>
      </trkpt>
      <trkpt lat="41.28678" lon="0.21092">
        <ele>265.3113</ele>
        <time>2021-07-21T16:14:27Z</time>
      </trkpt>
      <trkpt lat="41.28884" lon="0.21218">
        <ele>255.2896</ele>
        <time>2021-07-21T16:14:38Z</time>
      </trkpt>
      <trkpt lat="41.29048" lon="0.21439">
        <ele>257.619</ele>
        <time>2021-07-21T16:14:49Z</time>
      </trkpt>
      <trkpt lat="41.29207" lon="0.21583">
        <ele>255.5748</ele>
        <time>2021-07-21T16:15:00Z</time>
      </trkpt>
      <trkpt lat="41.29181" lon="0.21831">
        <ele>268.9533</ele>
        <time>2021-07-21T16:15:11Z</time>
      </trkpt>
      <trkpt lat="41.29348" lon="0.2204">
        <ele>275.4015</ele>
        <time>2021-07-21T16:15:22Z</time>
      </trkpt>
      <trkpt lat="41.29408" lon="0.22329">
        <ele>286.9621</ele>
        <time>2021-07-21T16:15:33Z</time>
      </trkpt>
      <trkpt lat="41.29559" lon="0.22496">
        <ele>302.1593</ele>
        <time>2021-07-21T16:15:44Z</time>
      </trkpt>
      <trkpt lat="41.29579" lon="0.22764">
        <ele>305.3394</ele>
        <time>2021-07-21T16:15:55Z</time>
      </trkpt>
      <trkpt lat="41.29522" lon="0.23065">
        <ele>306.5837</ele>
        <time>2021-07-21T16:16:06Z</time>
      </trkpt>
      <trkpt lat="41.29582" lon="0.23302">
        <ele>303.5145</ele>
        <time>2021-07-21T16:16:17Z</time>
      </trkpt>
      <trkpt lat="41.29616" lon="0.2362">
        <ele>300.5422</ele>
        <time>2021-07-21T16:16:28Z</time>
      </trkpt>
      <trkpt lat="41.29613" lon="0.23981">
        <ele>303.1974</ele>
        <time>2021-07-21T16:16:39Z</time>
      </trkpt>
      <trkpt lat="41.29668" lon="0.2432">
        <ele>311.3946</ele>
        <time>2021-07-21T16:16:50Z</time>
      </trkpt>
      <trkpt lat="41.29576" lon="0.2462">
        <ele>308.2966</ele>
        <time>2021-07-21T16:17:01Z</time>
      </trkpt>
      <trkpt lat="41.29516" lon="0.25035">
        <ele>308.4128</ele>
        <time>2021-07-21T16:17:12Z</time>
      </trkpt>
      <trkpt lat="41.29451" lon="0.25396">
        <ele>307.6672</ele>
        <time>2021-07-21T16:17:23Z</time>
      </trkpt>
      <trkpt lat="41.29433" lon="0.25708">
        <ele>313.4387</ele>
        <time>2021-07-21T16:17:34Z</time>
      </trkpt>
      <trkpt lat="41.29369" lon="0.26056">
        <ele>316.8662</ele>
        <time>2021-07-21T16:17:45Z</time>
      </trkpt>
      <trkpt lat="41.29327" lon="0.26431">
        <ele>312.6329</ele>
        <time>2021-07-21T16:17:56Z</time>
      </trkpt>
      <trkpt lat="41.29288" lon="0.26791">
        <ele>308.0269</ele>
        <time>2021-07-21T16:18:07Z</time>
      </trkpt>
      <trkpt lat="41.29316" lon="0.2716">
        <ele>297.8194</ele>
        <time>2021-07-21T16:18:18Z</time>
      </trkpt>
      <trkpt lat="41.29372" lon="0.27459">
        <ele>302.3542</ele>
        <time>2021-07-21T16:18:29Z</time>
      </trkpt>
      <trkpt lat="41.29487" lon="0.27815">
        <ele>301.3817</ele>
        <time>2021-07-21T16:18:40Z</time>
      </trkpt>
      <trkpt lat="41.29571" lon="0.28117">
        <ele>302.5024</ele>
        <time>2021-07-21T16:18:51Z</time>
      </trkpt>
      <trkpt lat="41.29729" lon="0.28286">
        <ele>301.8802</ele>
        <time>2021-07-21T16:19:02Z</time>
      </trkpt>
      <trkpt lat="41.29895" lon="0.28558">
        <ele>300.3908</ele>
        <time>2021-07-21T16:19:13Z</time>
      </trkpt>
      <trkpt lat="41.30104" lon="0.28692">
        <ele>299.8295</ele>
        <time>2021-07-21T16:19:25Z</time>
      </trkpt>
      <trkpt lat="41.30277" lon="0.28918">
        <ele>298.103</ele>
        <time>2021-07-21T16:19:36Z</time>
      </trkpt>
      <trkpt lat="41.30487" lon="0.29108">
        <ele>303.13</ele>
        <time>2021-07-21T16:19:47Z</time>
      </trkpt>
      <trkpt lat="41.30712" lon="0.29233">
        <ele>300.0071</ele>
        <time>2021-07-21T16:19:58Z</time>
      </trkpt>
      <trkpt lat="41.30851" lon="0.29464">
        <ele>306.5057</ele>
        <time>2021-07-21T16:20:09Z</time>
      </trkpt>
      <trkpt lat="41.30929" lon="0.29648">
        <ele>308.4091</ele>
        <time>2021-07-21T16:20:20Z</time>
      </trkpt>
      <trkpt lat="41.31002" lon="0.2983">
        <ele>311.7125</ele>
        <time>2021-07-21T16:20:31Z</time>
      </trkpt>
      <trkpt lat="41.3107" lon="0.30003">
        <ele>313.3076</ele>
        <time>2021-07-21T16:20:42Z</time>
      </trkpt>
      <trkpt lat="41.3114" lon="0.30179">
        <ele>317.3079</ele>
        <time>2021-07-21T16:20:53Z</time>
      </trkpt>
      <trkpt lat="41.31248" lon="0.30334">
        <ele>323.3974</ele>
        <time>2021-07-21T16:21:04Z</time>
      </trkpt>
      <trkpt lat="41.314" lon="0.30563">
        <ele>333.0054</ele>
        <time>2021-07-21T16:21:15Z</time>
      </trkpt>
      <trkpt lat="41.31568" lon="0.30872">
        <ele>334.6266</ele>
        <time>2021-07-21T16:21:26Z</time>
      </trkpt>
      <trkpt lat="41.31745" lon="0.31161">
        <ele>335.1525</ele>
        <time>2021-07-21T16:21:37Z</time>
      </trkpt>
      <trkpt lat="41.31918" lon="0.31334">
        <ele>340.8216</ele>
        <time>2021-07-21T16:21:48Z</time>
      </trkpt>
      <trkpt lat="41.32176" lon="0.31399">
        <ele>347.874</ele>
        <time>2021-07-21T16:21:59Z</time>
      </trkpt>
      <trkpt lat="41.32397" lon="0.31533">
        <ele>344.1106</ele>
        <time>2021-07-21T16:22:10Z</time>
      </trkpt>
      <trkpt lat="41.32599" lon="0.31525">
        <ele>339.6094</ele>
        <time>2021-07-21T16:22:21Z</time>
      </trkpt>
      <trkpt lat="41.32881" lon="0.31442">
        <ele>321.4093</ele>
        <time>2021-07-21T16:22:32Z</time>
      </trkpt>
      <trkpt lat="41.33124" lon="0.31369">
        <ele>310.2901</ele>
        <time>2021-07-21T16:22:43Z</time>
      </trkpt>
      <trkpt lat="41.33319" lon="0.31116">
        <ele>303.332</ele>
        <time>2021-07-21T16:22:54Z</time>
      </trkpt>
      <trkpt lat="41.33542" lon="0.30869">
        <ele>295.3258</ele>
        <time>2021-07-21T16:23:05Z</time>
      </trkpt>
      <trkpt lat="41.33781" lon="0.30677">
        <ele>287.9798</ele>
        <time>2021-07-21T16:23:16Z</time>
      </trkpt>
      <trkpt lat="41.3404" lon="0.30564">
        <ele>284.4299</ele>
        <time>2021-07-21T16:23:27Z</time>
      </trkpt>
      <trkpt lat="41.34246" lon="0.30381">
        <ele>278.7817</ele>
        <time>2021-07-21T16:23:38Z</time>
      </trkpt>
      <trkpt lat="41.34429" lon="0.301">
        <ele>267.8469</ele>
        <time>2021-07-21T16:23:49Z</time>
      </trkpt>
      <trkpt lat="41.34602" lon="0.30041">
        <ele>262.0242</ele>
        <time>2021-07-21T16:24:00Z</time>
      </trkpt>
      <trkpt lat="41.34711" lon="0.30105">
        <ele>250.5858</ele>
        <time>2021-07-21T16:24:11Z</time>
      </trkpt>
      <trkpt lat="41.34713" lon="0.30103">
        <ele>247.5794</ele>
        <time>2021-07-21T16:25:11Z</time>
      </trkpt>
      <trkpt lat="41.34713" lon="0.30103">
        <ele>247.5794</ele>
        <time>2021-07-21T16:26:11Z</time>
      </trkpt>
      <trkpt lat="41.34713" lon="0.30103">
        <ele>247.5794</ele>
        <time>2021-07-21T16:27:11Z</time>
      </trkpt>
      <trkpt lat="41.34714" lon="0.30107">
        <ele>248.9065</ele>
        <time>2021-07-21T16:28:11Z</time>
      </trkpt>
      <trkpt lat="41.34713" lon="0.30111">
        <ele>247.3534</ele>
        <time>2021-07-21T16:29:10Z</time>
      </trkpt>
      <trkpt lat="41.34713" lon="0.30112">
        <ele>246.8996</ele>
        <time>2021-07-21T16:30:09Z</time>
      </trkpt>
      <trkpt lat="41.34712" lon="0.3011">
        <ele>247.4083</ele>
        <time>2021-07-21T16:31:09Z</time>
      </trkpt>
      <trkpt lat="41.34712" lon="0.30112">
        <ele>246.5918</ele>
        <time>2021-07-21T16:32:09Z</time>
      </trkpt>
      <trkpt lat="41.34712" lon="0.30106">
        <ele>245.9542</ele>
        <time>2021-07-21T16:33:06Z</time>
      </trkpt>
      <trkpt lat="41.34714" lon="0.30108">
        <ele>247.6572</ele>
        <time>2021-07-21T16:34:06Z</time>
      </trkpt>
      <trkpt lat="41.34717" lon="0.30104">
        <ele>246.9834</ele>
        <time>2021-07-21T16:34:18Z</time>
      </trkpt>
      <trkpt lat="41.34737" lon="0.30024">
        <ele>247.1936</ele>
        <time>2021-07-21T16:34:29Z</time>
      </trkpt>
      <trkpt lat="41.34724" lon="0.29975">
        <ele>246.2701</ele>
        <time>2021-07-21T16:34:40Z</time>
      </trkpt>
      <trkpt lat="41.34741" lon="0.30075">
        <ele>238.1595</ele>
        <time>2021-07-21T16:34:51Z</time>
      </trkpt>
      <trkpt lat="41.34646" lon="0.30128">
        <ele>224.2943</ele>
        <time>2021-07-21T16:35:02Z</time>
      </trkpt>
      <trkpt lat="41.34499" lon="0.30198">
        <ele>212.7764</ele>
        <time>2021-07-21T16:35:13Z</time>
      </trkpt>
      <trkpt lat="41.34577" lon="0.304">
        <ele>198.8882</ele>
        <time>2021-07-21T16:35:24Z</time>
      </trkpt>
      <trkpt lat="41.34634" lon="0.30481">
        <ele>199.4095</ele>
        <time>2021-07-21T16:35:35Z</time>
      </trkpt>
      <trkpt lat="41.34678" lon="0.30326">
        <ele>187.1812</ele>
        <time>2021-07-21T16:35:46Z</time>
      </trkpt>
      <trkpt lat="41.34895" lon="0.3025">
        <ele>168.0248</ele>
        <time>2021-07-21T16:35:57Z</time>
      </trkpt>
      <trkpt lat="41.35066" lon="0.30139">
        <ele>149.4944</ele>
        <time>2021-07-21T16:36:08Z</time>
      </trkpt>
      <trkpt lat="41.35249" lon="0.30029">
        <ele>127.9028</ele>
        <time>2021-07-21T16:36:19Z</time>
      </trkpt>
      <trkpt lat="41.35385" lon="0.29949">
        <ele>113.7992</ele>
        <time>2021-07-21T16:36:30Z</time>
      </trkpt>
      <trkpt lat="41.35502" lon="0.29795">
        <ele>99.38284</ele>
        <time>2021-07-21T16:36:41Z</time>
      </trkpt>
      <trkpt lat="41.35686" lon="0.29704">
        <ele>79.51901</ele>
        <time>2021-07-21T16:36:52Z</time>
      </trkpt>
      <trkpt lat="41.35816" lon="0.29612">
        <ele>73.90652</ele>
        <time>2021-07-21T16:37:03Z</time>
      </trkpt>
      <trkpt lat="41.35828" lon="0.29423">
        <ele>74.04156</ele>
        <time>2021-07-21T16:37:14Z</time>
      </trkpt>
      <trkpt lat="41.35889" lon="0.29349">
        <ele>81.29569</ele>
        <time>2021-07-21T16:37:25Z</time>
      </trkpt>
      <trkpt lat="41.36037" lon="0.29313">
        <ele>84.98755</ele>
        <time>2021-07-21T16:37:36Z</time>
      </trkpt>
      <trkpt lat="41.36111" lon="0.2939">
        <ele>85.86182</ele>
        <time>2021-07-21T16:37:47Z</time>
      </trkpt>
      <trkpt lat="41.36119" lon="0.29722">
        <ele>81.82935</ele>
        <time>2021-07-21T16:37:58Z</time>
      </trkpt>
      <trkpt lat="41.36267" lon="0.29988">
        <ele>72.73277</ele>
        <time>2021-07-21T16:38:09Z</time>
      </trkpt>
      <trkpt lat="41.36506" lon="0.30027">
        <ele>69.82341</ele>
        <time>2021-07-21T16:38:20Z</time>
      </trkpt>
      <trkpt lat="41.3671" lon="0.29999">
        <ele>78.77156</ele>
        <time>2021-07-21T16:38:31Z</time>
      </trkpt>
      <trkpt lat="41.36745" lon="0.30107">
        <ele>79.73569</ele>
        <time>2021-07-21T16:38:42Z</time>
      </trkpt>
      <trkpt lat="41.36715" lon="0.30339">
        <ele>79.38035</ele>
        <time>2021-07-21T16:38:53Z</time>
      </trkpt>
      <trkpt lat="41.36683" lon="0.30596">
        <ele>76.05421</ele>
        <time>2021-07-21T16:39:04Z</time>
      </trkpt>
      <trkpt lat="41.36659" lon="0.30744">
        <ele>73.11506</ele>
        <time>2021-07-21T16:39:15Z</time>
      </trkpt>
      <trkpt lat="41.36797" lon="0.30764">
        <ele>73.95603</ele>
        <time>2021-07-21T16:39:26Z</time>
      </trkpt>
      <trkpt lat="41.36966" lon="0.30904">
        <ele>73.71179</ele>
        <time>2021-07-21T16:39:37Z</time>
      </trkpt>
      <trkpt lat="41.37108" lon="0.31023">
        <ele>77.95614</ele>
        <time>2021-07-21T16:39:48Z</time>
      </trkpt>
      <trkpt lat="41.37307" lon="0.31128">
        <ele>82.41481</ele>
        <time>2021-07-21T16:39:59Z</time>
      </trkpt>
      <trkpt lat="41.3756" lon="0.31288">
        <ele>86.17504</ele>
        <time>2021-07-21T16:40:10Z</time>
      </trkpt>
      <trkpt lat="41.37781" lon="0.31432">
        <ele>84.82701</ele>
        <time>2021-07-21T16:40:21Z</time>
      </trkpt>
      <trkpt lat="41.38006" lon="0.31573">
        <ele>85.77351</ele>
        <time>2021-07-21T16:40:32Z</time>
      </trkpt>
      <trkpt lat="41.38207" lon="0.31772">
        <ele>82.07024</ele>
        <time>2021-07-21T16:40:43Z</time>
      </trkpt>
      <trkpt lat="41.38454" lon="0.31859">
        <ele>80.42773</ele>
        <time>2021-07-21T16:40:54Z</time>
      </trkpt>
      <trkpt lat="41.38691" lon="0.31865">
        <ele>77.80316</ele>
        <time>2021-07-21T16:41:05Z</time>
      </trkpt>
      <trkpt lat="41.3888" lon="0.32043">
        <ele>75.25695</ele>
        <time>2021-07-21T16:41:16Z</time>
      </trkpt>
      <trkpt lat="41.39102" lon="0.32193">
        <ele>72.66375</ele>
        <time>2021-07-21T16:41:27Z</time>
      </trkpt>
      <trkpt lat="41.39333" lon="0.32283">
        <ele>71.66834</ele>
        <time>2021-07-21T16:41:38Z</time>
      </trkpt>
      <trkpt lat="41.3956" lon="0.32419">
        <ele>72.19309</ele>
        <time>2021-07-21T16:41:49Z</time>
      </trkpt>
      <trkpt lat="41.39746" lon="0.32656">
        <ele>79.27765</ele>
        <time>2021-07-21T16:42:00Z</time>
      </trkpt>
      <trkpt lat="41.39905" lon="0.32899">
        <ele>77.59012</ele>
        <time>2021-07-21T16:42:11Z</time>
      </trkpt>
      <trkpt lat="41.40073" lon="0.33102">
        <ele>78.26421</ele>
        <time>2021-07-21T16:42:22Z</time>
      </trkpt>
      <trkpt lat="41.40286" lon="0.33326">
        <ele>82.75411</ele>
        <time>2021-07-21T16:42:33Z</time>
      </trkpt>
      <trkpt lat="41.40496" lon="0.33556">
        <ele>77.33585</ele>
        <time>2021-07-21T16:42:44Z</time>
      </trkpt>
      <trkpt lat="41.4063" lon="0.33857">
        <ele>71.54673</ele>
        <time>2021-07-21T16:42:55Z</time>
      </trkpt>
      <trkpt lat="41.40749" lon="0.34157">
        <ele>72.39841</ele>
        <time>2021-07-21T16:43:06Z</time>
      </trkpt>
      <trkpt lat="41.40968" lon="0.34322">
        <ele>71.19569</ele>
        <time>2021-07-21T16:43:17Z</time>
      </trkpt>
      <trkpt lat="41.41161" lon="0.34503">
        <ele>71.9779</ele>
        <time>2021-07-21T16:43:28Z</time>
      </trkpt>
      <trkpt lat="41.41375" lon="0.34444">
        <ele>72.32007</ele>
        <time>2021-07-21T16:43:39Z</time>
      </trkpt>
      <trkpt lat="41.4161" lon="0.34538">
        <ele>74.48911</ele>
        <time>2021-07-21T16:43:50Z</time>
      </trkpt>
      <trkpt lat="41.41778" lon="0.34672">
        <ele>71.52426</ele>
        <time>2021-07-21T16:44:01Z</time>
      </trkpt>
      <trkpt lat="41.41945" lon="0.34815">
        <ele>71.13246</ele>
        <time>2021-07-21T16:44:12Z</time>
      </trkpt>
      <trkpt lat="41.42087" lon="0.34967">
        <ele>72.43447</ele>
        <time>2021-07-21T16:44:23Z</time>
      </trkpt>
      <trkpt lat="41.42276" lon="0.35118">
        <ele>72.18935</ele>
        <time>2021-07-21T16:44:34Z</time>
      </trkpt>
      <trkpt lat="41.42361" lon="0.35226">
        <ele>73.68508</ele>
        <time>2021-07-21T16:44:45Z</time>
      </trkpt>
      <trkpt lat="41.42546" lon="0.35398">
        <ele>72.58372</ele>
        <time>2021-07-21T16:44:56Z</time>
      </trkpt>
      <trkpt lat="41.4278" lon="0.35585">
        <ele>72.21095</ele>
        <time>2021-07-21T16:45:07Z</time>
      </trkpt>
      <trkpt lat="41.43015" lon="0.35772">
        <ele>78.62161</ele>
        <time>2021-07-21T16:45:18Z</time>
      </trkpt>
      <trkpt lat="41.43242" lon="0.35967">
        <ele>85.38532</ele>
        <time>2021-07-21T16:45:29Z</time>
      </trkpt>
      <trkpt lat="41.43411" lon="0.3626">
        <ele>87.15019</ele>
        <time>2021-07-21T16:45:40Z</time>
      </trkpt>
      <trkpt lat="41.43559" lon="0.36558">
        <ele>89.42884</ele>
        <time>2021-07-21T16:45:51Z</time>
      </trkpt>
      <trkpt lat="41.43711" lon="0.3686">
        <ele>90.17938</ele>
        <time>2021-07-21T16:46:02Z</time>
      </trkpt>
      <trkpt lat="41.43863" lon="0.37164">
        <ele>91.66228</ele>
        <time>2021-07-21T16:46:13Z</time>
      </trkpt>
      <trkpt lat="41.44014" lon="0.37459">
        <ele>91.14486</ele>
        <time>2021-07-21T16:46:24Z</time>
      </trkpt>
      <trkpt lat="41.44149" lon="0.37734">
        <ele>92.75876</ele>
        <time>2021-07-21T16:46:35Z</time>
      </trkpt>
      <trkpt lat="41.44312" lon="0.37945">
        <ele>92.11252</ele>
        <time>2021-07-21T16:46:46Z</time>
      </trkpt>
      <trkpt lat="41.44437" lon="0.38182">
        <ele>94.69386</ele>
        <time>2021-07-21T16:46:57Z</time>
      </trkpt>
      <trkpt lat="41.44593" lon="0.38393">
        <ele>95.59926</ele>
        <time>2021-07-21T16:47:08Z</time>
      </trkpt>
      <trkpt lat="41.44745" lon="0.38599">
        <ele>98.2682</ele>
        <time>2021-07-21T16:47:19Z</time>
      </trkpt>
      <trkpt lat="41.44919" lon="0.38781">
        <ele>96.49278</ele>
        <time>2021-07-21T16:47:30Z</time>
      </trkpt>
      <trkpt lat="41.45061" lon="0.39018">
        <ele>96.82235</ele>
        <time>2021-07-21T16:47:41Z</time>
      </trkpt>
      <trkpt lat="41.45181" lon="0.39246">
        <ele>96.28875</ele>
        <time>2021-07-21T16:47:52Z</time>
      </trkpt>
      <trkpt lat="41.45323" lon="0.39507">
        <ele>93.72948</ele>
        <time>2021-07-21T16:48:03Z</time>
      </trkpt>
      <trkpt lat="41.45475" lon="0.39774">
        <ele>94.03815</ele>
        <time>2021-07-21T16:48:14Z</time>
      </trkpt>
      <trkpt lat="41.45644" lon="0.40033">
        <ele>96.55489</ele>
        <time>2021-07-21T16:48:25Z</time>
      </trkpt>
      <trkpt lat="41.45832" lon="0.40297">
        <ele>99.14796</ele>
        <time>2021-07-21T16:48:36Z</time>
      </trkpt>
      <trkpt lat="41.45995" lon="0.40568">
        <ele>99.73489</ele>
        <time>2021-07-21T16:48:47Z</time>
      </trkpt>
      <trkpt lat="41.46047" lon="0.4075">
        <ele>95.06202</ele>
        <time>2021-07-21T16:48:58Z</time>
      </trkpt>
      <trkpt lat="41.46058" lon="0.4077">
        <ele>93.7322</ele>
        <time>2021-07-21T16:49:09Z</time>
      </trkpt>
      <trkpt lat="41.46079" lon="0.40808">
        <ele>94.30227</ele>
        <time>2021-07-21T16:49:20Z</time>
      </trkpt>
      <trkpt lat="41.46175" lon="0.40913">
        <ele>101.0291</ele>
        <time>2021-07-21T16:49:31Z</time>
      </trkpt>
      <trkpt lat="41.46235" lon="0.41006">
        <ele>99.2437</ele>
        <time>2021-07-21T16:49:42Z</time>
      </trkpt>
      <trkpt lat="41.46269" lon="0.41067">
        <ele>98.42758</ele>
        <time>2021-07-21T16:49:53Z</time>
      </trkpt>
      <trkpt lat="41.46323" lon="0.41118">
        <ele>99.57334</ele>
        <time>2021-07-21T16:50:04Z</time>
      </trkpt>
      <trkpt lat="41.46387" lon="0.41191">
        <ele>103.5376</ele>
        <time>2021-07-21T16:50:15Z</time>
      </trkpt>
      <trkpt lat="41.46473" lon="0.4128">
        <ele>100.9682</ele>
        <time>2021-07-21T16:50:26Z</time>
      </trkpt>
      <trkpt lat="41.46536" lon="0.41373">
        <ele>105.7873</ele>
        <time>2021-07-21T16:50:37Z</time>
      </trkpt>
      <trkpt lat="41.46592" lon="0.41455">
        <ele>107.095</ele>
        <time>2021-07-21T16:50:48Z</time>
      </trkpt>
      <trkpt lat="41.46661" lon="0.41559">
        <ele>99.61412</ele>
        <time>2021-07-21T16:50:59Z</time>
      </trkpt>
      <trkpt lat="41.46716" lon="0.41649">
        <ele>104.532</ele>
        <time>2021-07-21T16:51:10Z</time>
      </trkpt>
      <trkpt lat="41.46788" lon="0.41833">
        <ele>104.6116</ele>
        <time>2021-07-21T16:51:21Z</time>
      </trkpt>
      <trkpt lat="41.46855" lon="0.42018">
        <ele>103.3224</ele>
        <time>2021-07-21T16:51:32Z</time>
      </trkpt>
      <trkpt lat="41.46879" lon="0.42111">
        <ele>102.1158</ele>
        <time>2021-07-21T16:51:43Z</time>
      </trkpt>
      <trkpt lat="41.46881" lon="0.42115">
        <ele>100.0032</ele>
        <time>2021-07-21T16:51:54Z</time>
      </trkpt>
      <trkpt lat="41.46887" lon="0.4211">
        <ele>97.96077</ele>
        <time>2021-07-21T16:52:05Z</time>
      </trkpt>
      <trkpt lat="41.46886" lon="0.42107">
        <ele>95.99732</ele>
        <time>2021-07-21T16:53:04Z</time>
      </trkpt>
      <trkpt lat="41.46887" lon="0.42112">
        <ele>96.34698</ele>
        <time>2021-07-21T16:53:20Z</time>
      </trkpt>
      <trkpt lat="41.46889" lon="0.42116">
        <ele>93.7417</ele>
        <time>2021-07-21T16:53:34Z</time>
      </trkpt>
      <trkpt lat="41.46889" lon="0.42116">
        <ele>93.70048</ele>
        <time>2021-07-21T16:54:33Z</time>
      </trkpt>
      <trkpt lat="41.4689" lon="0.42118">
        <ele>90.9148</ele>
        <time>2021-07-21T16:55:32Z</time>
      </trkpt>
      <trkpt lat="41.4689" lon="0.42117">
        <ele>90.75254</ele>
        <time>2021-07-21T16:56:31Z</time>
      </trkpt>
      <trkpt lat="41.46892" lon="0.42122">
        <ele>89.9853</ele>
        <time>2021-07-21T16:57:08Z</time>
      </trkpt>
      <trkpt lat="41.46894" lon="0.42128">
        <ele>96.48275</ele>
        <time>2021-07-21T16:57:19Z</time>
      </trkpt>
      <trkpt lat="41.46897" lon="0.42131">
        <ele>103.5534</ele>
        <time>2021-07-21T16:57:46Z</time>
      </trkpt>
      <trkpt lat="41.46899" lon="0.42136">
        <ele>105.7697</ele>
        <time>2021-07-21T16:58:09Z</time>
      </trkpt>
      <trkpt lat="41.46896" lon="0.42132">
        <ele>111.3778</ele>
        <time>2021-07-21T16:59:04Z</time>
      </trkpt>
      <trkpt lat="41.46895" lon="0.42129">
        <ele>113.5967</ele>
        <time>2021-07-21T17:00:03Z</time>
      </trkpt>
      <trkpt lat="41.46917" lon="0.42163">
        <ele>111.2952</ele>
        <time>2021-07-21T17:00:14Z</time>
      </trkpt>
      <trkpt lat="41.47026" lon="0.42319">
        <ele>106.1097</ele>
        <time>2021-07-21T17:00:25Z</time>
      </trkpt>
      <trkpt lat="41.47153" lon="0.42423">
        <ele>104.9775</ele>
        <time>2021-07-21T17:00:36Z</time>
      </trkpt>
      <trkpt lat="41.47296" lon="0.42603">
        <ele>102.5582</ele>
        <time>2021-07-21T17:00:47Z</time>
      </trkpt>
      <trkpt lat="41.47388" lon="0.42768">
        <ele>104.2815</ele>
        <time>2021-07-21T17:00:58Z</time>
      </trkpt>
      <trkpt lat="41.47568" lon="0.43033">
        <ele>100.8662</ele>
        <time>2021-07-21T17:01:09Z</time>
      </trkpt>
      <trkpt lat="41.47736" lon="0.43307">
        <ele>101.0421</ele>
        <time>2021-07-21T17:01:20Z</time>
      </trkpt>
      <trkpt lat="41.47877" lon="0.43581">
        <ele>102.089</ele>
        <time>2021-07-21T17:01:31Z</time>
      </trkpt>
      <trkpt lat="41.48024" lon="0.4387">
        <ele>105.51</ele>
        <time>2021-07-21T17:01:42Z</time>
      </trkpt>
      <trkpt lat="41.48185" lon="0.44146">
        <ele>113.8711</ele>
        <time>2021-07-21T17:01:53Z</time>
      </trkpt>
      <trkpt lat="41.48334" lon="0.44438">
        <ele>107.052</ele>
        <time>2021-07-21T17:02:04Z</time>
      </trkpt>
      <trkpt lat="41.48489" lon="0.44705">
        <ele>104.7447</ele>
        <time>2021-07-21T17:02:15Z</time>
      </trkpt>
      <trkpt lat="41.48655" lon="0.44985">
        <ele>105.4775</ele>
        <time>2021-07-21T17:02:26Z</time>
      </trkpt>
      <trkpt lat="41.48814" lon="0.45238">
        <ele>106.6924</ele>
        <time>2021-07-21T17:02:37Z</time>
      </trkpt>
      <trkpt lat="41.48997" lon="0.45414">
        <ele>104.1545</ele>
        <time>2021-07-21T17:02:48Z</time>
      </trkpt>
      <trkpt lat="41.49058" lon="0.45546">
        <ele>107.401</ele>
        <time>2021-07-21T17:02:59Z</time>
      </trkpt>
      <trkpt lat="41.49109" lon="0.45717">
        <ele>107.4585</ele>
        <time>2021-07-21T17:03:10Z</time>
      </trkpt>
      <trkpt lat="41.49187" lon="0.45842">
        <ele>107.4567</ele>
        <time>2021-07-21T17:03:21Z</time>
      </trkpt>
      <trkpt lat="41.49265" lon="0.45911">
        <ele>111.3984</ele>
        <time>2021-07-21T17:03:32Z</time>
      </trkpt>
      <trkpt lat="41.49347" lon="0.4596">
        <ele>111.1145</ele>
        <time>2021-07-21T17:03:43Z</time>
      </trkpt>
      <trkpt lat="41.49381" lon="0.45977">
        <ele>118.0901</ele>
        <time>2021-07-21T17:03:54Z</time>
      </trkpt>
      <trkpt lat="41.49432" lon="0.46011">
        <ele>118.2634</ele>
        <time>2021-07-21T17:04:05Z</time>
      </trkpt>
      <trkpt lat="41.49517" lon="0.46064">
        <ele>117.0918</ele>
        <time>2021-07-21T17:04:16Z</time>
      </trkpt>
      <trkpt lat="41.49611" lon="0.46125">
        <ele>119.4818</ele>
        <time>2021-07-21T17:04:27Z</time>
      </trkpt>
      <trkpt lat="41.49706" lon="0.4618">
        <ele>119.3765</ele>
        <time>2021-07-21T17:04:38Z</time>
      </trkpt>
      <trkpt lat="41.49793" lon="0.4624">
        <ele>121.6755</ele>
        <time>2021-07-21T17:04:49Z</time>
      </trkpt>
      <trkpt lat="41.49827" lon="0.4633">
        <ele>116.1234</ele>
        <time>2021-07-21T17:05:00Z</time>
      </trkpt>
      <trkpt lat="41.4986" lon="0.46422">
        <ele>113.4999</ele>
        <time>2021-07-21T17:05:11Z</time>
      </trkpt>
      <trkpt lat="41.49914" lon="0.46587">
        <ele>116.1304</ele>
        <time>2021-07-21T17:05:22Z</time>
      </trkpt>
      <trkpt lat="41.50013" lon="0.46792">
        <ele>114.767</ele>
        <time>2021-07-21T17:05:33Z</time>
      </trkpt>
      <trkpt lat="41.50104" lon="0.47013">
        <ele>114.8695</ele>
        <time>2021-07-21T17:05:44Z</time>
      </trkpt>
      <trkpt lat="41.50239" lon="0.47159">
        <ele>112.7756</ele>
        <time>2021-07-21T17:05:55Z</time>
      </trkpt>
      <trkpt lat="41.50443" lon="0.4722">
        <ele>111.3894</ele>
        <time>2021-07-21T17:06:06Z</time>
      </trkpt>
      <trkpt lat="41.50601" lon="0.47412">
        <ele>111.657</ele>
        <time>2021-07-21T17:06:17Z</time>
      </trkpt>
      <trkpt lat="41.50796" lon="0.47496">
        <ele>110.963</ele>
        <time>2021-07-21T17:06:28Z</time>
      </trkpt>
      <trkpt lat="41.51" lon="0.47607">
        <ele>113.5457</ele>
        <time>2021-07-21T17:06:39Z</time>
      </trkpt>
      <trkpt lat="41.51196" lon="0.47715">
        <ele>112.6034</ele>
        <time>2021-07-21T17:06:50Z</time>
      </trkpt>
      <trkpt lat="41.51418" lon="0.478">
        <ele>111.8696</ele>
        <time>2021-07-21T17:07:01Z</time>
      </trkpt>
      <trkpt lat="41.51638" lon="0.47829">
        <ele>114.409</ele>
        <time>2021-07-21T17:07:12Z</time>
      </trkpt>
      <trkpt lat="41.51857" lon="0.47929">
        <ele>116.3768</ele>
        <time>2021-07-21T17:07:23Z</time>
      </trkpt>
      <trkpt lat="41.52101" lon="0.48027">
        <ele>117.5006</ele>
        <time>2021-07-21T17:07:34Z</time>
      </trkpt>
      <trkpt lat="41.52334" lon="0.48099">
        <ele>117.3782</ele>
        <time>2021-07-21T17:07:45Z</time>
      </trkpt>
      <trkpt lat="41.5254" lon="0.48243">
        <ele>117.9987</ele>
        <time>2021-07-21T17:07:56Z</time>
      </trkpt>
      <trkpt lat="41.52735" lon="0.48292">
        <ele>116.5893</ele>
        <time>2021-07-21T17:08:07Z</time>
      </trkpt>
      <trkpt lat="41.52884" lon="0.48396">
        <ele>116.5334</ele>
        <time>2021-07-21T17:08:18Z</time>
      </trkpt>
      <trkpt lat="41.52959" lon="0.48411">
        <ele>119.2144</ele>
        <time>2021-07-21T17:08:29Z</time>
      </trkpt>
      <trkpt lat="41.52994" lon="0.48438">
        <ele>118.3945</ele>
        <time>2021-07-21T17:08:40Z</time>
      </trkpt>
      <trkpt lat="41.53032" lon="0.4839">
        <ele>118.5248</ele>
        <time>2021-07-21T17:08:51Z</time>
      </trkpt>
      <trkpt lat="41.5314" lon="0.4837">
        <ele>118.4823</ele>
        <time>2021-07-21T17:09:02Z</time>
      </trkpt>
      <trkpt lat="41.53255" lon="0.48354">
        <ele>124.6525</ele>
        <time>2021-07-21T17:09:13Z</time>
      </trkpt>
      <trkpt lat="41.53342" lon="0.48364">
        <ele>131.5453</ele>
        <time>2021-07-21T17:09:24Z</time>
      </trkpt>
      <trkpt lat="41.53463" lon="0.48395">
        <ele>138.189</ele>
        <time>2021-07-21T17:09:35Z</time>
      </trkpt>
      <trkpt lat="41.53577" lon="0.48426">
        <ele>138.8644</ele>
        <time>2021-07-21T17:09:46Z</time>
      </trkpt>
      <trkpt lat="41.53616" lon="0.48437">
        <ele>139.2045</ele>
        <time>2021-07-21T17:09:57Z</time>
      </trkpt>
      <trkpt lat="41.53636" lon="0.48449">
        <ele>141.8323</ele>
        <time>2021-07-21T17:10:08Z</time>
      </trkpt>
      <trkpt lat="41.537" lon="0.48491">
        <ele>142.8224</ele>
        <time>2021-07-21T17:10:19Z</time>
      </trkpt>
      <trkpt lat="41.53791" lon="0.4867">
        <ele>137.685</ele>
        <time>2021-07-21T17:10:30Z</time>
      </trkpt>
      <trkpt lat="41.53855" lon="0.48797">
        <ele>126.4446</ele>
        <time>2021-07-21T17:10:41Z</time>
      </trkpt>
      <trkpt lat="41.5388" lon="0.48847">
        <ele>124.4574</ele>
        <time>2021-07-21T17:10:52Z</time>
      </trkpt>
      <trkpt lat="41.53977" lon="0.48907">
        <ele>125.8687</ele>
        <time>2021-07-21T17:11:03Z</time>
      </trkpt>
      <trkpt lat="41.54114" lon="0.48996">
        <ele>128.5374</ele>
        <time>2021-07-21T17:11:14Z</time>
      </trkpt>
      <trkpt lat="41.54237" lon="0.49111">
        <ele>131.7768</ele>
        <time>2021-07-21T17:11:25Z</time>
      </trkpt>
      <trkpt lat="41.54379" lon="0.4923">
        <ele>135.2</ele>
        <time>2021-07-21T17:11:36Z</time>
      </trkpt>
      <trkpt lat="41.54566" lon="0.49344">
        <ele>127.083</ele>
        <time>2021-07-21T17:11:47Z</time>
      </trkpt>
      <trkpt lat="41.54759" lon="0.4946">
        <ele>126.7831</ele>
        <time>2021-07-21T17:11:58Z</time>
      </trkpt>
      <trkpt lat="41.54938" lon="0.49566">
        <ele>126.3569</ele>
        <time>2021-07-21T17:12:09Z</time>
      </trkpt>
      <trkpt lat="41.55096" lon="0.49662">
        <ele>129.1402</ele>
        <time>2021-07-21T17:12:20Z</time>
      </trkpt>
      <trkpt lat="41.55202" lon="0.4973">
        <ele>130.3432</ele>
        <time>2021-07-21T17:12:31Z</time>
      </trkpt>
      <trkpt lat="41.5523" lon="0.49746">
        <ele>127.7867</ele>
        <time>2021-07-21T17:12:42Z</time>
      </trkpt>
      <trkpt lat="41.55282" lon="0.49782">
        <ele>126.1472</ele>
        <time>2021-07-21T17:12:53Z</time>
      </trkpt>
      <trkpt lat="41.55345" lon="0.50041">
        <ele>126.5388</ele>
        <time>2021-07-21T17:13:04Z</time>
      </trkpt>
      <trkpt lat="41.55434" lon="0.50329">
        <ele>127.8658</ele>
        <time>2021-07-21T17:13:15Z</time>
      </trkpt>
      <trkpt lat="41.55521" lon="0.50504">
        <ele>126.7125</ele>
        <time>2021-07-21T17:13:26Z</time>
      </trkpt>
      <trkpt lat="41.55595" lon="0.50628">
        <ele>127.2332</ele>
        <time>2021-07-21T17:13:37Z</time>
      </trkpt>
      <trkpt lat="41.55697" lon="0.50809">
        <ele>128.3428</ele>
        <time>2021-07-21T17:13:48Z</time>
      </trkpt>
      <trkpt lat="41.55813" lon="0.51045">
        <ele>131.1665</ele>
        <time>2021-07-21T17:13:59Z</time>
      </trkpt>
      <trkpt lat="41.5596" lon="0.51266">
        <ele>129.5824</ele>
        <time>2021-07-21T17:14:10Z</time>
      </trkpt>
      <trkpt lat="41.5605" lon="0.51397">
        <ele>133.8135</ele>
        <time>2021-07-21T17:14:21Z</time>
      </trkpt>
      <trkpt lat="41.56082" lon="0.51452">
        <ele>135.6455</ele>
        <time>2021-07-21T17:14:32Z</time>
      </trkpt>
      <trkpt lat="41.56196" lon="0.51571">
        <ele>132.1479</ele>
        <time>2021-07-21T17:14:43Z</time>
      </trkpt>
      <trkpt lat="41.56283" lon="0.51743">
        <ele>128.8594</ele>
        <time>2021-07-21T17:14:54Z</time>
      </trkpt>
      <trkpt lat="41.56281" lon="0.51913">
        <ele>126.921</ele>
        <time>2021-07-21T17:15:05Z</time>
      </trkpt>
      <trkpt lat="41.56244" lon="0.5205">
        <ele>131.5569</ele>
        <time>2021-07-21T17:15:16Z</time>
      </trkpt>
      <trkpt lat="41.56181" lon="0.52181">
        <ele>130.2596</ele>
        <time>2021-07-21T17:15:27Z</time>
      </trkpt>
      <trkpt lat="41.56112" lon="0.5231">
        <ele>131.875</ele>
        <time>2021-07-21T17:15:38Z</time>
      </trkpt>
      <trkpt lat="41.56099" lon="0.52481">
        <ele>129.903</ele>
        <time>2021-07-21T17:15:49Z</time>
      </trkpt>
      <trkpt lat="41.56129" lon="0.52555">
        <ele>128.3746</ele>
        <time>2021-07-21T17:16:00Z</time>
      </trkpt>
      <trkpt lat="41.56139" lon="0.52567">
        <ele>128.0286</ele>
        <time>2021-07-21T17:16:11Z</time>
      </trkpt>
      <trkpt lat="41.56195" lon="0.52643">
        <ele>130.7414</ele>
        <time>2021-07-21T17:16:22Z</time>
      </trkpt>
      <trkpt lat="41.56249" lon="0.52718">
        <ele>136.6213</ele>
        <time>2021-07-21T17:16:33Z</time>
      </trkpt>
      <trkpt lat="41.56272" lon="0.5275">
        <ele>142.1294</ele>
        <time>2021-07-21T17:16:44Z</time>
      </trkpt>
      <trkpt lat="41.56276" lon="0.52755">
        <ele>145.6124</ele>
        <time>2021-07-21T17:17:04Z</time>
      </trkpt>
      <trkpt lat="41.56339" lon="0.52836">
        <ele>142.6704</ele>
        <time>2021-07-21T17:17:15Z</time>
      </trkpt>
      <trkpt lat="41.56459" lon="0.52934">
        <ele>142.9847</ele>
        <time>2021-07-21T17:17:26Z</time>
      </trkpt>
      <trkpt lat="41.56557" lon="0.5299">
        <ele>142.1893</ele>
        <time>2021-07-21T17:17:37Z</time>
      </trkpt>
      <trkpt lat="41.56565" lon="0.52993">
        <ele>142.8948</ele>
        <time>2021-07-21T17:17:48Z</time>
      </trkpt>
      <trkpt lat="41.5657" lon="0.52994">
        <ele>142.3605</ele>
        <time>2021-07-21T17:17:59Z</time>
      </trkpt>
      <trkpt lat="41.56613" lon="0.5303">
        <ele>140.9252</ele>
        <time>2021-07-21T17:18:10Z</time>
      </trkpt>
      <trkpt lat="41.56709" lon="0.53204">
        <ele>138.9469</ele>
        <time>2021-07-21T17:18:21Z</time>
      </trkpt>
      <trkpt lat="41.56828" lon="0.53461">
        <ele>135.5339</ele>
        <time>2021-07-21T17:18:32Z</time>
      </trkpt>
      <trkpt lat="41.56941" lon="0.53727">
        <ele>136.4654</ele>
        <time>2021-07-21T17:18:43Z</time>
      </trkpt>
      <trkpt lat="41.5707" lon="0.53978">
        <ele>139.1915</ele>
        <time>2021-07-21T17:18:54Z</time>
      </trkpt>
      <trkpt lat="41.57181" lon="0.54243">
        <ele>141.3388</ele>
        <time>2021-07-21T17:19:05Z</time>
      </trkpt>
      <trkpt lat="41.57249" lon="0.54465">
        <ele>140.2516</ele>
        <time>2021-07-21T17:19:16Z</time>
      </trkpt>
      <trkpt lat="41.57296" lon="0.54686">
        <ele>139.2338</ele>
        <time>2021-07-21T17:19:27Z</time>
      </trkpt>
      <trkpt lat="41.57384" lon="0.54942">
        <ele>140.3572</ele>
        <time>2021-07-21T17:19:38Z</time>
      </trkpt>
      <trkpt lat="41.57498" lon="0.55227">
        <ele>143.2271</ele>
        <time>2021-07-21T17:19:49Z</time>
      </trkpt>
      <trkpt lat="41.57648" lon="0.55508">
        <ele>146.0378</ele>
        <time>2021-07-21T17:20:00Z</time>
      </trkpt>
      <trkpt lat="41.57807" lon="0.55785">
        <ele>147.2466</ele>
        <time>2021-07-21T17:20:11Z</time>
      </trkpt>
      <trkpt lat="41.5797" lon="0.56066">
        <ele>149.7903</ele>
        <time>2021-07-21T17:20:22Z</time>
      </trkpt>
      <trkpt lat="41.58133" lon="0.56349">
        <ele>146.0073</ele>
        <time>2021-07-21T17:20:33Z</time>
      </trkpt>
      <trkpt lat="41.58299" lon="0.56617">
        <ele>152.1541</ele>
        <time>2021-07-21T17:20:44Z</time>
      </trkpt>
      <trkpt lat="41.58452" lon="0.56857">
        <ele>157.4031</ele>
        <time>2021-07-21T17:20:55Z</time>
      </trkpt>
      <trkpt lat="41.58608" lon="0.57103">
        <ele>161.5373</ele>
        <time>2021-07-21T17:21:06Z</time>
      </trkpt>
      <trkpt lat="41.58747" lon="0.57363">
        <ele>165.1853</ele>
        <time>2021-07-21T17:21:17Z</time>
      </trkpt>
      <trkpt lat="41.5892" lon="0.57591">
        <ele>166.0695</ele>
        <time>2021-07-21T17:21:28Z</time>
      </trkpt>
      <trkpt lat="41.59055" lon="0.57859">
        <ele>164.3283</ele>
        <time>2021-07-21T17:21:39Z</time>
      </trkpt>
      <trkpt lat="41.5908" lon="0.58169">
        <ele>159.3262</ele>
        <time>2021-07-21T17:21:50Z</time>
      </trkpt>
      <trkpt lat="41.59169" lon="0.58463">
        <ele>156.5239</ele>
        <time>2021-07-21T17:22:01Z</time>
      </trkpt>
      <trkpt lat="41.59291" lon="0.58753">
        <ele>159.1752</ele>
        <time>2021-07-21T17:22:12Z</time>
      </trkpt>
      <trkpt lat="41.59366" lon="0.58995">
        <ele>159.9191</ele>
        <time>2021-07-21T17:22:23Z</time>
      </trkpt>
      <trkpt lat="41.59491" lon="0.59191">
        <ele>160.3246</ele>
        <time>2021-07-21T17:22:34Z</time>
      </trkpt>
      <trkpt lat="41.59622" lon="0.59421">
        <ele>159.9081</ele>
        <time>2021-07-21T17:22:45Z</time>
      </trkpt>
      <trkpt lat="41.5975" lon="0.59627">
        <ele>162.4656</ele>
        <time>2021-07-21T17:22:56Z</time>
      </trkpt>
      <trkpt lat="41.59887" lon="0.59802">
        <ele>163.6158</ele>
        <time>2021-07-21T17:23:07Z</time>
      </trkpt>
      <trkpt lat="41.59993" lon="0.59984">
        <ele>161.6368</ele>
        <time>2021-07-21T17:23:18Z</time>
      </trkpt>
      <trkpt lat="41.6008" lon="0.60239">
        <ele>165.418</ele>
        <time>2021-07-21T17:23:29Z</time>
      </trkpt>
      <trkpt lat="41.60197" lon="0.60455">
        <ele>167.8998</ele>
        <time>2021-07-21T17:23:40Z</time>
      </trkpt>
      <trkpt lat="41.6028" lon="0.60608">
        <ele>164.4499</ele>
        <time>2021-07-21T17:23:51Z</time>
      </trkpt>
      <trkpt lat="41.60362" lon="0.60816">
        <ele>159.7521</ele>
        <time>2021-07-21T17:24:03Z</time>
      </trkpt>
      <trkpt lat="41.60457" lon="0.60993">
        <ele>161.857</ele>
        <time>2021-07-21T17:24:14Z</time>
      </trkpt>
      <trkpt lat="41.60548" lon="0.61186">
        <ele>161.9252</ele>
        <time>2021-07-21T17:24:25Z</time>
      </trkpt>
      <trkpt lat="41.60583" lon="0.61333">
        <ele>161.5595</ele>
        <time>2021-07-21T17:24:36Z</time>
      </trkpt>
      <trkpt lat="41.60644" lon="0.61429">
        <ele>161.2406</ele>
        <time>2021-07-21T17:24:47Z</time>
      </trkpt>
      <trkpt lat="41.60729" lon="0.61582">
        <ele>160.3118</ele>
        <time>2021-07-21T17:24:58Z</time>
      </trkpt>
      <trkpt lat="41.60804" lon="0.61679">
        <ele>154.44</ele>
        <time>2021-07-21T17:25:09Z</time>
      </trkpt>
      <trkpt lat="41.60805" lon="0.61683">
        <ele>158.5185</ele>
        <time>2021-07-21T17:25:24Z</time>
      </trkpt>
      <trkpt lat="41.60829" lon="0.61743">
        <ele>156.8703</ele>
        <time>2021-07-21T17:25:35Z</time>
      </trkpt>
      <trkpt lat="41.6085" lon="0.61733">
        <ele>156.6664</ele>
        <time>2021-07-21T17:25:46Z</time>
      </trkpt>
      <trkpt lat="41.60868" lon="0.61718">
        <ele>155.9214</ele>
        <time>2021-07-21T17:25:57Z</time>
      </trkpt>
      <trkpt lat="41.60917" lon="0.61677">
        <ele>160.3836</ele>
        <time>2021-07-21T17:26:08Z</time>
      </trkpt>
      <trkpt lat="41.60938" lon="0.61663">
        <ele>160.6779</ele>
        <time>2021-07-21T17:26:19Z</time>
      </trkpt>
      <trkpt lat="41.60961" lon="0.61645">
        <ele>162.1824</ele>
        <time>2021-07-21T17:26:30Z</time>
      </trkpt>
      <trkpt lat="41.6103" lon="0.61578">
        <ele>163.3811</ele>
        <time>2021-07-21T17:26:41Z</time>
      </trkpt>
      <trkpt lat="41.61108" lon="0.61499">
        <ele>165.6912</ele>
        <time>2021-07-21T17:26:52Z</time>
      </trkpt>
      <trkpt lat="41.61203" lon="0.61426">
        <ele>170.2643</ele>
        <time>2021-07-21T17:27:03Z</time>
      </trkpt>
      <trkpt lat="41.61296" lon="0.61376">
        <ele>175.9775</ele>
        <time>2021-07-21T17:27:14Z</time>
      </trkpt>
      <trkpt lat="41.61401" lon="0.61337">
        <ele>177.3957</ele>
        <time>2021-07-21T17:27:25Z</time>
      </trkpt>
      <trkpt lat="41.61513" lon="0.61326">
        <ele>181.8944</ele>
        <time>2021-07-21T17:27:36Z</time>
      </trkpt>
      <trkpt lat="41.61606" lon="0.61333">
        <ele>184.441</ele>
        <time>2021-07-21T17:27:47Z</time>
      </trkpt>
      <trkpt lat="41.61698" lon="0.61354">
        <ele>188.3252</ele>
        <time>2021-07-21T17:27:58Z</time>
      </trkpt>
      <trkpt lat="41.61806" lon="0.6141">
        <ele>198.7436</ele>
        <time>2021-07-21T17:28:09Z</time>
      </trkpt>
      <trkpt lat="41.61913" lon="0.61487">
        <ele>200.1652</ele>
        <time>2021-07-21T17:28:20Z</time>
      </trkpt>
      <trkpt lat="41.62011" lon="0.61585">
        <ele>193.2807</ele>
        <time>2021-07-21T17:28:31Z</time>
      </trkpt>
      <trkpt lat="41.62099" lon="0.61707">
        <ele>185.3981</ele>
        <time>2021-07-21T17:28:42Z</time>
      </trkpt>
      <trkpt lat="41.62196" lon="0.61837">
        <ele>181.953</ele>
        <time>2021-07-21T17:28:53Z</time>
      </trkpt>
      <trkpt lat="41.62289" lon="0.6196">
        <ele>181.7036</ele>
        <time>2021-07-21T17:29:04Z</time>
      </trkpt>
      <trkpt lat="41.62381" lon="0.62078">
        <ele>178.7978</ele>
        <time>2021-07-21T17:29:15Z</time>
      </trkpt>
      <trkpt lat="41.62449" lon="0.6217">
        <ele>179.9516</ele>
        <time>2021-07-21T17:29:26Z</time>
      </trkpt>
      <trkpt lat="41.62465" lon="0.62189">
        <ele>187.9918</ele>
        <time>2021-07-21T17:29:37Z</time>
      </trkpt>
      <trkpt lat="41.62499" lon="0.62234">
        <ele>188.3138</ele>
        <time>2021-07-21T17:29:48Z</time>
      </trkpt>
      <trkpt lat="41.62509" lon="0.62245">
        <ele>182.4784</ele>
        <time>2021-07-21T17:29:59Z</time>
      </trkpt>
      <trkpt lat="41.62512" lon="0.62248">
        <ele>177.0796</ele>
        <time>2021-07-21T17:30:35Z</time>
      </trkpt>
      <trkpt lat="41.62514" lon="0.62251">
        <ele>176.1013</ele>
        <time>2021-07-21T17:31:11Z</time>
      </trkpt>
      <trkpt lat="41.62536" lon="0.62305">
        <ele>175.4801</ele>
        <time>2021-07-21T17:31:22Z</time>
      </trkpt>
      <trkpt lat="41.62535" lon="0.62404">
        <ele>172.1558</ele>
        <time>2021-07-21T17:31:33Z</time>
      </trkpt>
      <trkpt lat="41.62514" lon="0.62501">
        <ele>173.6798</ele>
        <time>2021-07-21T17:31:44Z</time>
      </trkpt>
      <trkpt lat="41.62499" lon="0.62549">
        <ele>171.1806</ele>
        <time>2021-07-21T17:31:55Z</time>
      </trkpt>
      <trkpt lat="41.62482" lon="0.62601">
        <ele>170.7584</ele>
        <time>2021-07-21T17:32:06Z</time>
      </trkpt>
      <trkpt lat="41.6245" lon="0.62694">
        <ele>167.8754</ele>
        <time>2021-07-21T17:32:17Z</time>
      </trkpt>
      <trkpt lat="41.62409" lon="0.62755">
        <ele>167.0921</ele>
        <time>2021-07-21T17:32:28Z</time>
      </trkpt>
      <trkpt lat="41.62469" lon="0.62822">
        <ele>169.1467</ele>
        <time>2021-07-21T17:32:39Z</time>
      </trkpt>
      <trkpt lat="41.62558" lon="0.62931">
        <ele>165.2597</ele>
        <time>2021-07-21T17:32:50Z</time>
      </trkpt>
      <trkpt lat="41.62606" lon="0.63005">
        <ele>165.8809</ele>
        <time>2021-07-21T17:33:01Z</time>
      </trkpt>
      <trkpt lat="41.62606" lon="0.63006">
        <ele>170.974</ele>
        <time>2021-07-21T17:34:00Z</time>
      </trkpt>
      <trkpt lat="41.62609" lon="0.63009">
        <ele>171.1078</ele>
        <time>2021-07-21T17:34:13Z</time>
      </trkpt>
      <trkpt lat="41.62566" lon="0.63091">
        <ele>173.4187</ele>
        <time>2021-07-21T17:34:24Z</time>
      </trkpt>
      <trkpt lat="41.62498" lon="0.6314">
        <ele>172.015</ele>
        <time>2021-07-21T17:34:35Z</time>
      </trkpt>
      <trkpt lat="41.6259" lon="0.63261">
        <ele>166.3215</ele>
        <time>2021-07-21T17:34:46Z</time>
      </trkpt>
      <trkpt lat="41.62695" lon="0.63384">
        <ele>171.3193</ele>
        <time>2021-07-21T17:34:57Z</time>
      </trkpt>
      <trkpt lat="41.62706" lon="0.63394">
        <ele>179.5741</ele>
        <time>2021-07-21T17:35:28Z</time>
      </trkpt>
      <trkpt lat="41.62824" lon="0.63539">
        <ele>183.9345</ele>
        <time>2021-07-21T17:35:39Z</time>
      </trkpt>
      <trkpt lat="41.62955" lon="0.63693">
        <ele>174.1603</ele>
        <time>2021-07-21T17:35:50Z</time>
      </trkpt>
      <trkpt lat="41.63147" lon="0.63922">
        <ele>166.7576</ele>
        <time>2021-07-21T17:36:01Z</time>
      </trkpt>
      <trkpt lat="41.63309" lon="0.64129">
        <ele>162.6322</ele>
        <time>2021-07-21T17:36:12Z</time>
      </trkpt>
      <trkpt lat="41.63371" lon="0.64227">
        <ele>161.5241</ele>
        <time>2021-07-21T17:36:23Z</time>
      </trkpt>
      <trkpt lat="41.6353" lon="0.64316">
        <ele>159.005</ele>
        <time>2021-07-21T17:36:34Z</time>
      </trkpt>
      <trkpt lat="41.63701" lon="0.64504">
        <ele>160.8255</ele>
        <time>2021-07-21T17:36:45Z</time>
      </trkpt>
      <trkpt lat="41.63846" lon="0.64768">
        <ele>160.7315</ele>
        <time>2021-07-21T17:36:56Z</time>
      </trkpt>
      <trkpt lat="41.64037" lon="0.64962">
        <ele>162.1822</ele>
        <time>2021-07-21T17:37:07Z</time>
      </trkpt>
      <trkpt lat="41.64285" lon="0.65117">
        <ele>161.6452</ele>
        <time>2021-07-21T17:37:18Z</time>
      </trkpt>
      <trkpt lat="41.64534" lon="0.65254">
        <ele>162.0626</ele>
        <time>2021-07-21T17:37:29Z</time>
      </trkpt>
      <trkpt lat="41.64762" lon="0.65383">
        <ele>165.0979</ele>
        <time>2021-07-21T17:37:40Z</time>
      </trkpt>
      <trkpt lat="41.65006" lon="0.65518">
        <ele>164.9302</ele>
        <time>2021-07-21T17:37:51Z</time>
      </trkpt>
      <trkpt lat="41.65223" lon="0.65635">
        <ele>166.2189</ele>
        <time>2021-07-21T17:38:02Z</time>
      </trkpt>
      <trkpt lat="41.65416" lon="0.65707">
        <ele>167.4764</ele>
        <time>2021-07-21T17:38:13Z</time>
      </trkpt>
      <trkpt lat="41.6559" lon="0.65782">
        <ele>173.2886</ele>
        <time>2021-07-21T17:38:24Z</time>
      </trkpt>
      <trkpt lat="41.6575" lon="0.65903">
        <ele>173.5935</ele>
        <time>2021-07-21T17:38:35Z</time>
      </trkpt>
      <trkpt lat="41.65887" lon="0.66062">
        <ele>171.8702</ele>
        <time>2021-07-21T17:38:46Z</time>
      </trkpt>
      <trkpt lat="41.66045" lon="0.66226">
        <ele>176.9704</ele>
        <time>2021-07-21T17:38:57Z</time>
      </trkpt>
      <trkpt lat="41.66275" lon="0.66356">
        <ele>181.0945</ele>
        <time>2021-07-21T17:39:08Z</time>
      </trkpt>
      <trkpt lat="41.66523" lon="0.66527">
        <ele>181.6354</ele>
        <time>2021-07-21T17:39:19Z</time>
      </trkpt>
      <trkpt lat="41.66752" lon="0.66731">
        <ele>185.2196</ele>
        <time>2021-07-21T17:39:30Z</time>
      </trkpt>
      <trkpt lat="41.67011" lon="0.66867">
        <ele>193.5973</ele>
        <time>2021-07-21T17:39:41Z</time>
      </trkpt>
      <trkpt lat="41.6725" lon="0.67066">
        <ele>203.5241</ele>
        <time>2021-07-21T17:39:52Z</time>
      </trkpt>
      <trkpt lat="41.67471" lon="0.67305">
        <ele>205.4473</ele>
        <time>2021-07-21T17:40:03Z</time>
      </trkpt>
      <trkpt lat="41.67677" lon="0.67529">
        <ele>206.8751</ele>
        <time>2021-07-21T17:40:14Z</time>
      </trkpt>
      <trkpt lat="41.67863" lon="0.67774">
        <ele>208.2164</ele>
        <time>2021-07-21T17:40:25Z</time>
      </trkpt>
      <trkpt lat="41.68038" lon="0.68028">
        <ele>209.287</ele>
        <time>2021-07-21T17:40:36Z</time>
      </trkpt>
      <trkpt lat="41.68173" lon="0.68322">
        <ele>207.0539</ele>
        <time>2021-07-21T17:40:47Z</time>
      </trkpt>
      <trkpt lat="41.68205" lon="0.68672">
        <ele>197.7396</ele>
        <time>2021-07-21T17:40:58Z</time>
      </trkpt>
      <trkpt lat="41.68231" lon="0.69028">
        <ele>188.7374</ele>
        <time>2021-07-21T17:41:09Z</time>
      </trkpt>
      <trkpt lat="41.68295" lon="0.69374">
        <ele>183.9534</ele>
        <time>2021-07-21T17:41:20Z</time>
      </trkpt>
      <trkpt lat="41.68404" lon="0.69686">
        <ele>179.5745</ele>
        <time>2021-07-21T17:41:31Z</time>
      </trkpt>
      <trkpt lat="41.68553" lon="0.69961">
        <ele>178.8502</ele>
        <time>2021-07-21T17:41:42Z</time>
      </trkpt>
      <trkpt lat="41.68729" lon="0.70192">
        <ele>181.1393</ele>
        <time>2021-07-21T17:41:53Z</time>
      </trkpt>
      <trkpt lat="41.68909" lon="0.70421">
        <ele>183.3046</ele>
        <time>2021-07-21T17:42:04Z</time>
      </trkpt>
      <trkpt lat="41.6912" lon="0.70636">
        <ele>183.4022</ele>
        <time>2021-07-21T17:42:15Z</time>
      </trkpt>
      <trkpt lat="41.69368" lon="0.70769">
        <ele>189.5859</ele>
        <time>2021-07-21T17:42:26Z</time>
      </trkpt>
      <trkpt lat="41.69638" lon="0.70799">
        <ele>198.8183</ele>
        <time>2021-07-21T17:42:37Z</time>
      </trkpt>
      <trkpt lat="41.69908" lon="0.70823">
        <ele>200.3737</ele>
        <time>2021-07-21T17:42:48Z</time>
      </trkpt>
      <trkpt lat="41.70165" lon="0.70913">
        <ele>202.6311</ele>
        <time>2021-07-21T17:42:59Z</time>
      </trkpt>
      <trkpt lat="41.70399" lon="0.71068">
        <ele>207.4309</ele>
        <time>2021-07-21T17:43:10Z</time>
      </trkpt>
      <trkpt lat="41.70621" lon="0.71275">
        <ele>218.9633</ele>
        <time>2021-07-21T17:43:21Z</time>
      </trkpt>
      <trkpt lat="41.70829" lon="0.71509">
        <ele>215.9297</ele>
        <time>2021-07-21T17:43:32Z</time>
      </trkpt>
      <trkpt lat="41.71034" lon="0.71739">
        <ele>214.6884</ele>
        <time>2021-07-21T17:43:43Z</time>
      </trkpt>
      <trkpt lat="41.71238" lon="0.7197">
        <ele>214.648</ele>
        <time>2021-07-21T17:43:54Z</time>
      </trkpt>
      <trkpt lat="41.71441" lon="0.722">
        <ele>213.6154</ele>
        <time>2021-07-21T17:44:05Z</time>
      </trkpt>
      <trkpt lat="41.71644" lon="0.72431">
        <ele>213.8809</ele>
        <time>2021-07-21T17:44:16Z</time>
      </trkpt>
      <trkpt lat="41.71848" lon="0.72663">
        <ele>219.9872</ele>
        <time>2021-07-21T17:44:27Z</time>
      </trkpt>
      <trkpt lat="41.72094" lon="0.72828">
        <ele>225.5078</ele>
        <time>2021-07-21T17:44:38Z</time>
      </trkpt>
      <trkpt lat="41.72352" lon="0.7295">
        <ele>229.7202</ele>
        <time>2021-07-21T17:44:49Z</time>
      </trkpt>
      <trkpt lat="41.72578" lon="0.73157">
        <ele>227.5788</ele>
        <time>2021-07-21T17:45:00Z</time>
      </trkpt>
      <trkpt lat="41.72802" lon="0.73366">
        <ele>220.967</ele>
        <time>2021-07-21T17:45:11Z</time>
      </trkpt>
      <trkpt lat="41.73051" lon="0.7348">
        <ele>222.1754</ele>
        <time>2021-07-21T17:45:22Z</time>
      </trkpt>
      <trkpt lat="41.73303" lon="0.73578">
        <ele>232.776</ele>
        <time>2021-07-21T17:45:33Z</time>
      </trkpt>
      <trkpt lat="41.73485" lon="0.73807">
        <ele>235.84</ele>
        <time>2021-07-21T17:45:44Z</time>
      </trkpt>
      <trkpt lat="41.73582" lon="0.74136">
        <ele>236.659</ele>
        <time>2021-07-21T17:45:55Z</time>
      </trkpt>
      <trkpt lat="41.73672" lon="0.74472">
        <ele>238.6466</ele>
        <time>2021-07-21T17:46:06Z</time>
      </trkpt>
      <trkpt lat="41.73713" lon="0.7483">
        <ele>223.8745</ele>
        <time>2021-07-21T17:46:17Z</time>
      </trkpt>
      <trkpt lat="41.73818" lon="0.75159">
        <ele>211.2996</ele>
        <time>2021-07-21T17:46:28Z</time>
      </trkpt>
      <trkpt lat="41.73974" lon="0.75453">
        <ele>216.3725</ele>
        <time>2021-07-21T17:46:39Z</time>
      </trkpt>
      <trkpt lat="41.74165" lon="0.75719">
        <ele>221.265</ele>
        <time>2021-07-21T17:46:50Z</time>
      </trkpt>
      <trkpt lat="41.74359" lon="0.75979">
        <ele>221.7678</ele>
        <time>2021-07-21T17:47:01Z</time>
      </trkpt>
      <trkpt lat="41.74574" lon="0.76208">
        <ele>221.3833</ele>
        <time>2021-07-21T17:47:12Z</time>
      </trkpt>
      <trkpt lat="41.74813" lon="0.76376">
        <ele>219.9193</ele>
        <time>2021-07-21T17:47:23Z</time>
      </trkpt>
      <trkpt lat="41.7506" lon="0.76517">
        <ele>220.4219</ele>
        <time>2021-07-21T17:47:34Z</time>
      </trkpt>
      <trkpt lat="41.75249" lon="0.76775">
        <ele>221.1445</ele>
        <time>2021-07-21T17:47:45Z</time>
      </trkpt>
      <trkpt lat="41.75478" lon="0.76968">
        <ele>221.5055</ele>
        <time>2021-07-21T17:47:56Z</time>
      </trkpt>
      <trkpt lat="41.7571" lon="0.77163">
        <ele>219.6839</ele>
        <time>2021-07-21T17:48:07Z</time>
      </trkpt>
      <trkpt lat="41.7591" lon="0.77409">
        <ele>220.5886</ele>
        <time>2021-07-21T17:48:18Z</time>
      </trkpt>
      <trkpt lat="41.76132" lon="0.77609">
        <ele>221.1997</ele>
        <time>2021-07-21T17:48:29Z</time>
      </trkpt>
      <trkpt lat="41.7632" lon="0.77848">
        <ele>220.9267</ele>
        <time>2021-07-21T17:48:40Z</time>
      </trkpt>
      <trkpt lat="41.76457" lon="0.78129">
        <ele>219.7191</ele>
        <time>2021-07-21T17:48:51Z</time>
      </trkpt>
      <trkpt lat="41.76599" lon="0.78417">
        <ele>220.5688</ele>
        <time>2021-07-21T17:49:02Z</time>
      </trkpt>
      <trkpt lat="41.76769" lon="0.78678">
        <ele>224.1654</ele>
        <time>2021-07-21T17:49:13Z</time>
      </trkpt>
      <trkpt lat="41.76979" lon="0.78871">
        <ele>225.7625</ele>
        <time>2021-07-21T17:49:24Z</time>
      </trkpt>
      <trkpt lat="41.77189" lon="0.79063">
        <ele>231.3159</ele>
        <time>2021-07-21T17:49:35Z</time>
      </trkpt>
      <trkpt lat="41.77408" lon="0.79246">
        <ele>236.9365</ele>
        <time>2021-07-21T17:49:46Z</time>
      </trkpt>
      <trkpt lat="41.77655" lon="0.79288">
        <ele>243.6633</ele>
        <time>2021-07-21T17:49:57Z</time>
      </trkpt>
      <trkpt lat="41.779" lon="0.79185">
        <ele>250.8902</ele>
        <time>2021-07-21T17:50:08Z</time>
      </trkpt>
      <trkpt lat="41.78104" lon="0.79079">
        <ele>257.176</ele>
        <time>2021-07-21T17:50:19Z</time>
      </trkpt>
      <trkpt lat="41.7833" lon="0.79006">
        <ele>262.3586</ele>
        <time>2021-07-21T17:50:30Z</time>
      </trkpt>
      <trkpt lat="41.78487" lon="0.79116">
        <ele>265.3181</ele>
        <time>2021-07-21T17:50:41Z</time>
      </trkpt>
      <trkpt lat="41.7854" lon="0.79232">
        <ele>267.9928</ele>
        <time>2021-07-21T17:50:52Z</time>
      </trkpt>
      <trkpt lat="41.78638" lon="0.79296">
        <ele>273.0718</ele>
        <time>2021-07-21T17:51:03Z</time>
      </trkpt>
      <trkpt lat="41.78778" lon="0.79477">
        <ele>285.6691</ele>
        <time>2021-07-21T17:51:14Z</time>
      </trkpt>
      <trkpt lat="41.79024" lon="0.7953">
        <ele>286.9124</ele>
        <time>2021-07-21T17:51:25Z</time>
      </trkpt>
      <trkpt lat="41.79263" lon="0.79499">
        <ele>293.9575</ele>
        <time>2021-07-21T17:51:36Z</time>
      </trkpt>
      <trkpt lat="41.79501" lon="0.79427">
        <ele>292.0962</ele>
        <time>2021-07-21T17:51:47Z</time>
      </trkpt>
      <trkpt lat="41.79741" lon="0.79335">
        <ele>286.9265</ele>
        <time>2021-07-21T17:51:58Z</time>
      </trkpt>
      <trkpt lat="41.80007" lon="0.79313">
        <ele>286.2222</ele>
        <time>2021-07-21T17:52:09Z</time>
      </trkpt>
      <trkpt lat="41.80203" lon="0.79324">
        <ele>288.4835</ele>
        <time>2021-07-21T17:52:20Z</time>
      </trkpt>
      <trkpt lat="41.8023" lon="0.79452">
        <ele>285.9093</ele>
        <time>2021-07-21T17:52:31Z</time>
      </trkpt>
      <trkpt lat="41.80189" lon="0.79759">
        <ele>281.5577</ele>
        <time>2021-07-21T17:52:42Z</time>
      </trkpt>
      <trkpt lat="41.80143" lon="0.80108">
        <ele>277.5805</ele>
        <time>2021-07-21T17:52:53Z</time>
      </trkpt>
      <trkpt lat="41.801" lon="0.80444">
        <ele>263.6974</ele>
        <time>2021-07-21T17:53:04Z</time>
      </trkpt>
      <trkpt lat="41.80039" lon="0.80661">
        <ele>249.1717</ele>
        <time>2021-07-21T17:53:15Z</time>
      </trkpt>
      <trkpt lat="41.79871" lon="0.80717">
        <ele>235.8797</ele>
        <time>2021-07-21T17:53:26Z</time>
      </trkpt>
      <trkpt lat="41.79777" lon="0.80737">
        <ele>234.4137</ele>
        <time>2021-07-21T17:53:37Z</time>
      </trkpt>
      <trkpt lat="41.79913" lon="0.80765">
        <ele>234.3209</ele>
        <time>2021-07-21T17:53:48Z</time>
      </trkpt>
      <trkpt lat="41.80127" lon="0.8081">
        <ele>236.1423</ele>
        <time>2021-07-21T17:53:59Z</time>
      </trkpt>
      <trkpt lat="41.80303" lon="0.80871">
        <ele>236.5006</ele>
        <time>2021-07-21T17:54:10Z</time>
      </trkpt>
      <trkpt lat="41.80513" lon="0.80793">
        <ele>239.4851</ele>
        <time>2021-07-21T17:54:21Z</time>
      </trkpt>
      <trkpt lat="41.80735" lon="0.80743">
        <ele>233.8438</ele>
        <time>2021-07-21T17:54:32Z</time>
      </trkpt>
      <trkpt lat="41.80921" lon="0.80558">
        <ele>235.5183</ele>
        <time>2021-07-21T17:54:43Z</time>
      </trkpt>
      <trkpt lat="41.81097" lon="0.80475">
        <ele>231.5009</ele>
        <time>2021-07-21T17:54:54Z</time>
      </trkpt>
      <trkpt lat="41.81329" lon="0.80409">
        <ele>241.4697</ele>
        <time>2021-07-21T17:55:05Z</time>
      </trkpt>
      <trkpt lat="41.81593" lon="0.80413">
        <ele>246.4329</ele>
        <time>2021-07-21T17:55:16Z</time>
      </trkpt>
      <trkpt lat="41.81826" lon="0.80405">
        <ele>244.4694</ele>
        <time>2021-07-21T17:55:27Z</time>
      </trkpt>
      <trkpt lat="41.81963" lon="0.80367">
        <ele>248.254</ele>
        <time>2021-07-21T17:55:38Z</time>
      </trkpt>
      <trkpt lat="41.8207" lon="0.80323">
        <ele>249.6903</ele>
        <time>2021-07-21T17:55:49Z</time>
      </trkpt>
      <trkpt lat="41.82186" lon="0.80328">
        <ele>251.609</ele>
        <time>2021-07-21T17:56:00Z</time>
      </trkpt>
      <trkpt lat="41.8228" lon="0.80384">
        <ele>254.6993</ele>
        <time>2021-07-21T17:56:11Z</time>
      </trkpt>
      <trkpt lat="41.82375" lon="0.80487">
        <ele>254.3491</ele>
        <time>2021-07-21T17:56:22Z</time>
      </trkpt>
      <trkpt lat="41.8251" lon="0.80626">
        <ele>243.1223</ele>
        <time>2021-07-21T17:56:33Z</time>
      </trkpt>
      <trkpt lat="41.82625" lon="0.80955">
        <ele>240.4283</ele>
        <time>2021-07-21T17:56:44Z</time>
      </trkpt>
      <trkpt lat="41.82865" lon="0.81162">
        <ele>242.2037</ele>
        <time>2021-07-21T17:56:55Z</time>
      </trkpt>
      <trkpt lat="41.83094" lon="0.81286">
        <ele>244.7887</ele>
        <time>2021-07-21T17:57:06Z</time>
      </trkpt>
      <trkpt lat="41.83275" lon="0.81488">
        <ele>242.4236</ele>
        <time>2021-07-21T17:57:17Z</time>
      </trkpt>
      <trkpt lat="41.83482" lon="0.8172">
        <ele>242.1282</ele>
        <time>2021-07-21T17:57:28Z</time>
      </trkpt>
      <trkpt lat="41.83706" lon="0.81911">
        <ele>243.7154</ele>
        <time>2021-07-21T17:57:39Z</time>
      </trkpt>
      <trkpt lat="41.83942" lon="0.82052">
        <ele>242.6889</ele>
        <time>2021-07-21T17:57:50Z</time>
      </trkpt>
      <trkpt lat="41.84149" lon="0.82175">
        <ele>242.8519</ele>
        <time>2021-07-21T17:58:01Z</time>
      </trkpt>
      <trkpt lat="41.84366" lon="0.82344">
        <ele>242.7799</ele>
        <time>2021-07-21T17:58:12Z</time>
      </trkpt>
      <trkpt lat="41.84601" lon="0.82481">
        <ele>242.8727</ele>
        <time>2021-07-21T17:58:23Z</time>
      </trkpt>
      <trkpt lat="41.84847" lon="0.82586">
        <ele>241.0786</ele>
        <time>2021-07-21T17:58:34Z</time>
      </trkpt>
      <trkpt lat="41.85077" lon="0.82751">
        <ele>243.9337</ele>
        <time>2021-07-21T17:58:45Z</time>
      </trkpt>
      <trkpt lat="41.85311" lon="0.82969">
        <ele>244.1905</ele>
        <time>2021-07-21T17:58:56Z</time>
      </trkpt>
      <trkpt lat="41.85521" lon="0.83166">
        <ele>247.9589</ele>
        <time>2021-07-21T17:59:07Z</time>
      </trkpt>
      <trkpt lat="41.85772" lon="0.83263">
        <ele>249.0298</ele>
        <time>2021-07-21T17:59:18Z</time>
      </trkpt>
      <trkpt lat="41.85993" lon="0.83305">
        <ele>247.476</ele>
        <time>2021-07-21T17:59:29Z</time>
      </trkpt>
      <trkpt lat="41.8605" lon="0.83308">
        <ele>248.0577</ele>
        <time>2021-07-21T17:59:40Z</time>
      </trkpt>
      <trkpt lat="41.86037" lon="0.8326">
        <ele>249.6759</ele>
        <time>2021-07-21T17:59:51Z</time>
      </trkpt>
      <trkpt lat="41.86046" lon="0.83253">
        <ele>250.7704</ele>
        <time>2021-07-21T18:00:03Z</time>
      </trkpt>
      <trkpt lat="41.86071" lon="0.83227">
        <ele>251.4731</ele>
        <time>2021-07-21T18:00:14Z</time>
      </trkpt>
      <trkpt lat="41.86092" lon="0.83239">
        <ele>250.141</ele>
        <time>2021-07-21T18:00:25Z</time>
      </trkpt>
      <trkpt lat="41.86093" lon="0.83244">
        <ele>251.8664</ele>
        <time>2021-07-21T18:00:36Z</time>
      </trkpt>
      <trkpt lat="41.86094" lon="0.83247">
        <ele>252.6671</ele>
        <time>2021-07-21T18:01:35Z</time>
      </trkpt>
      <trkpt lat="41.86093" lon="0.83242">
        <ele>255.9362</ele>
        <time>2021-07-21T18:02:00Z</time>
      </trkpt>
      <trkpt lat="41.86088" lon="0.83225">
        <ele>254.2059</ele>
        <time>2021-07-21T18:02:11Z</time>
      </trkpt>
      <trkpt lat="41.86085" lon="0.83222">
        <ele>247.1798</ele>
        <time>2021-07-21T18:02:25Z</time>
      </trkpt>
      <trkpt lat="41.86084" lon="0.83217">
        <ele>247.5797</ele>
        <time>2021-07-21T18:02:36Z</time>
      </trkpt>
      <trkpt lat="41.86085" lon="0.83222">
        <ele>247.4521</ele>
        <time>2021-07-21T18:03:20Z</time>
      </trkpt>
      <trkpt lat="41.86082" lon="0.83219">
        <ele>247.1509</ele>
        <time>2021-07-21T18:03:57Z</time>
      </trkpt>
      <trkpt lat="41.86081" lon="0.83226">
        <ele>246.8694</ele>
        <time>2021-07-21T18:04:08Z</time>
      </trkpt>
      <trkpt lat="41.86078" lon="0.83225">
        <ele>246.9783</ele>
        <time>2021-07-21T18:04:37Z</time>
      </trkpt>
      <trkpt lat="41.86077" lon="0.83213">
        <ele>247.2038</ele>
        <time>2021-07-21T18:04:48Z</time>
      </trkpt>
      <trkpt lat="41.86082" lon="0.83211">
        <ele>246.7171</ele>
        <time>2021-07-21T18:05:07Z</time>
      </trkpt>
      <trkpt lat="41.86084" lon="0.83207">
        <ele>246.8465</ele>
        <time>2021-07-21T18:05:18Z</time>
      </trkpt>
      <trkpt lat="41.86089" lon="0.83214">
        <ele>247.1792</ele>
        <time>2021-07-21T18:05:29Z</time>
      </trkpt>
      <trkpt lat="41.86082" lon="0.83209">
        <ele>247.1291</ele>
        <time>2021-07-21T18:05:40Z</time>
      </trkpt>
      <trkpt lat="41.86086" lon="0.83221">
        <ele>246.5918</ele>
        <time>2021-07-21T18:05:51Z</time>
      </trkpt>
      <trkpt lat="41.86085" lon="0.83216">
        <ele>246.8741</ele>
        <time>2021-07-21T18:06:03Z</time>
      </trkpt>
      <trkpt lat="41.86082" lon="0.8322">
        <ele>246.5098</ele>
        <time>2021-07-21T18:06:14Z</time>
      </trkpt>
      <trkpt lat="41.86086" lon="0.83218">
        <ele>246.1094</ele>
        <time>2021-07-21T18:06:27Z</time>
      </trkpt>
    </trkseg>
  </trk>
  <trk>
    <name><![CDATA[Road trip fait P/E_15]]></name>
    <extensions>
      <line xmlns="http://www.topografix.com/GPX/gpx_style/0/2">
        <color>880000</color>
        <width>4</width>
      </line>
    </extensions>
    <trkseg>
      <trkpt lat="41.86141" lon="0.83096">
        <ele>280.1281</ele>
        <time>2021-07-22T07:44:48Z</time>
      </trkpt>
      <trkpt lat="41.86141" lon="0.83096">
        <ele>280.1281</ele>
        <time>2021-07-22T07:44:48Z</time>
      </trkpt>
      <trkpt lat="41.86133" lon="0.8307">
        <ele>255.0745</ele>
        <time>2021-07-22T07:44:59Z</time>
      </trkpt>
      <trkpt lat="41.86129" lon="0.83071">
        <ele>254.9466</ele>
        <time>2021-07-22T07:45:11Z</time>
      </trkpt>
      <trkpt lat="41.8613" lon="0.83076">
        <ele>254.6786</ele>
        <time>2021-07-22T07:45:25Z</time>
      </trkpt>
      <trkpt lat="41.86125" lon="0.83078">
        <ele>254.1707</ele>
        <time>2021-07-22T07:45:39Z</time>
      </trkpt>
      <trkpt lat="41.86121" lon="0.83077">
        <ele>254.0937</ele>
        <time>2021-07-22T07:45:50Z</time>
      </trkpt>
      <trkpt lat="41.86118" lon="0.83074">
        <ele>253.9041</ele>
        <time>2021-07-22T07:46:02Z</time>
      </trkpt>
      <trkpt lat="41.86119" lon="0.83079">
        <ele>253.6757</ele>
        <time>2021-07-22T07:46:16Z</time>
      </trkpt>
      <trkpt lat="41.86122" lon="0.83082">
        <ele>253.1086</ele>
        <time>2021-07-22T07:46:32Z</time>
      </trkpt>
      <trkpt lat="41.86122" lon="0.83076">
        <ele>252.6621</ele>
        <time>2021-07-22T07:46:43Z</time>
      </trkpt>
      <trkpt lat="41.8612" lon="0.83075">
        <ele>252.8881</ele>
        <time>2021-07-22T07:47:42Z</time>
      </trkpt>
      <trkpt lat="41.86119" lon="0.8308">
        <ele>253.2343</ele>
        <time>2021-07-22T07:48:41Z</time>
      </trkpt>
      <trkpt lat="41.86119" lon="0.83082">
        <ele>253.4022</ele>
        <time>2021-07-22T07:49:40Z</time>
      </trkpt>
      <trkpt lat="41.86119" lon="0.8308">
        <ele>253.3651</ele>
        <time>2021-07-22T07:50:39Z</time>
      </trkpt>
      <trkpt lat="41.86122" lon="0.83077">
        <ele>253.4509</ele>
        <time>2021-07-22T07:51:17Z</time>
      </trkpt>
      <trkpt lat="41.86135" lon="0.8313">
        <ele>253.0277</ele>
        <time>2021-07-22T07:51:28Z</time>
      </trkpt>
      <trkpt lat="41.86109" lon="0.83175">
        <ele>249.5632</ele>
        <time>2021-07-22T07:51:39Z</time>
      </trkpt>
      <trkpt lat="41.86082" lon="0.83204">
        <ele>246.5982</ele>
        <time>2021-07-22T07:51:50Z</time>
      </trkpt>
      <trkpt lat="41.86046" lon="0.83241">
        <ele>246.9837</ele>
        <time>2021-07-22T07:52:01Z</time>
      </trkpt>
      <trkpt lat="41.86038" lon="0.83288">
        <ele>247.0799</ele>
        <time>2021-07-22T07:52:12Z</time>
      </trkpt>
      <trkpt lat="41.86076" lon="0.83354">
        <ele>247.28</ele>
        <time>2021-07-22T07:52:23Z</time>
      </trkpt>
      <trkpt lat="41.86169" lon="0.83537">
        <ele>247.1907</ele>
        <time>2021-07-22T07:52:34Z</time>
      </trkpt>
      <trkpt lat="41.8629" lon="0.83753">
        <ele>249.283</ele>
        <time>2021-07-22T07:52:45Z</time>
      </trkpt>
      <trkpt lat="41.86437" lon="0.83932">
        <ele>251.4348</ele>
        <time>2021-07-22T07:52:56Z</time>
      </trkpt>
      <trkpt lat="41.86557" lon="0.84038">
        <ele>249.7943</ele>
        <time>2021-07-22T07:53:07Z</time>
      </trkpt>
      <trkpt lat="41.86675" lon="0.8407">
        <ele>251.5644</ele>
        <time>2021-07-22T07:53:18Z</time>
      </trkpt>
      <trkpt lat="41.86765" lon="0.84106">
        <ele>253.6098</ele>
        <time>2021-07-22T07:53:29Z</time>
      </trkpt>
      <trkpt lat="41.86849" lon="0.84161">
        <ele>250.4781</ele>
        <time>2021-07-22T07:53:40Z</time>
      </trkpt>
      <trkpt lat="41.86936" lon="0.84173">
        <ele>247.1171</ele>
        <time>2021-07-22T07:53:51Z</time>
      </trkpt>
      <trkpt lat="41.8703" lon="0.84184">
        <ele>252.4232</ele>
        <time>2021-07-22T07:54:02Z</time>
      </trkpt>
      <trkpt lat="41.87166" lon="0.84284">
        <ele>251.6131</ele>
        <time>2021-07-22T07:54:13Z</time>
      </trkpt>
      <trkpt lat="41.87273" lon="0.84358">
        <ele>245.1498</ele>
        <time>2021-07-22T07:54:24Z</time>
      </trkpt>
      <trkpt lat="41.87366" lon="0.84523">
        <ele>253.6641</ele>
        <time>2021-07-22T07:54:35Z</time>
      </trkpt>
      <trkpt lat="41.87423" lon="0.84715">
        <ele>267.1153</ele>
        <time>2021-07-22T07:54:46Z</time>
      </trkpt>
      <trkpt lat="41.87431" lon="0.84898">
        <ele>260.0016</ele>
        <time>2021-07-22T07:54:57Z</time>
      </trkpt>
      <trkpt lat="41.87366" lon="0.85086">
        <ele>251.8283</ele>
        <time>2021-07-22T07:55:08Z</time>
      </trkpt>
      <trkpt lat="41.8735" lon="0.85225">
        <ele>251.9852</ele>
        <time>2021-07-22T07:55:19Z</time>
      </trkpt>
      <trkpt lat="41.87259" lon="0.85426">
        <ele>250.1199</ele>
        <time>2021-07-22T07:55:30Z</time>
      </trkpt>
      <trkpt lat="41.87215" lon="0.85678">
        <ele>257.9925</ele>
        <time>2021-07-22T07:55:41Z</time>
      </trkpt>
      <trkpt lat="41.87167" lon="0.85827">
        <ele>256.0468</ele>
        <time>2021-07-22T07:55:52Z</time>
      </trkpt>
      <trkpt lat="41.87055" lon="0.85967">
        <ele>253.9769</ele>
        <time>2021-07-22T07:56:03Z</time>
      </trkpt>
      <trkpt lat="41.86981" lon="0.86126">
        <ele>260.3696</ele>
        <time>2021-07-22T07:56:14Z</time>
      </trkpt>
      <trkpt lat="41.8694" lon="0.86285">
        <ele>259.6986</ele>
        <time>2021-07-22T07:56:25Z</time>
      </trkpt>
      <trkpt lat="41.8686" lon="0.864">
        <ele>257.9572</ele>
        <time>2021-07-22T07:56:36Z</time>
      </trkpt>
      <trkpt lat="41.86807" lon="0.8649">
        <ele>259.2273</ele>
        <time>2021-07-22T07:56:47Z</time>
      </trkpt>
      <trkpt lat="41.86815" lon="0.86601">
        <ele>259.1465</ele>
        <time>2021-07-22T07:56:58Z</time>
      </trkpt>
      <trkpt lat="41.86868" lon="0.86695">
        <ele>256.0168</ele>
        <time>2021-07-22T07:57:09Z</time>
      </trkpt>
      <trkpt lat="41.86902" lon="0.86799">
        <ele>257.2142</ele>
        <time>2021-07-22T07:57:20Z</time>
      </trkpt>
      <trkpt lat="41.86927" lon="0.86958">
        <ele>259.9285</ele>
        <time>2021-07-22T07:57:31Z</time>
      </trkpt>
      <trkpt lat="41.86949" lon="0.87068">
        <ele>262.1418</ele>
        <time>2021-07-22T07:57:42Z</time>
      </trkpt>
      <trkpt lat="41.86992" lon="0.8718">
        <ele>259.5469</ele>
        <time>2021-07-22T07:57:53Z</time>
      </trkpt>
      <trkpt lat="41.87114" lon="0.87391">
        <ele>257.7983</ele>
        <time>2021-07-22T07:58:04Z</time>
      </trkpt>
      <trkpt lat="41.87259" lon="0.87496">
        <ele>254.4504</ele>
        <time>2021-07-22T07:58:15Z</time>
      </trkpt>
      <trkpt lat="41.87389" lon="0.87556">
        <ele>253.1914</ele>
        <time>2021-07-22T07:58:26Z</time>
      </trkpt>
      <trkpt lat="41.87521" lon="0.87621">
        <ele>259.5491</ele>
        <time>2021-07-22T07:58:37Z</time>
      </trkpt>
      <trkpt lat="41.8761" lon="0.87671">
        <ele>261.777</ele>
        <time>2021-07-22T07:58:48Z</time>
      </trkpt>
      <trkpt lat="41.87563" lon="0.87689">
        <ele>270.513</ele>
        <time>2021-07-22T07:58:59Z</time>
      </trkpt>
      <trkpt lat="41.87503" lon="0.8771">
        <ele>273.1765</ele>
        <time>2021-07-22T07:59:10Z</time>
      </trkpt>
      <trkpt lat="41.87445" lon="0.87689">
        <ele>281.2172</ele>
        <time>2021-07-22T07:59:21Z</time>
      </trkpt>
      <trkpt lat="41.87409" lon="0.8772">
        <ele>281.1408</ele>
        <time>2021-07-22T07:59:32Z</time>
      </trkpt>
      <trkpt lat="41.87419" lon="0.87789">
        <ele>280.9605</ele>
        <time>2021-07-22T07:59:43Z</time>
      </trkpt>
      <trkpt lat="41.8742" lon="0.87796">
        <ele>280.1795</ele>
        <time>2021-07-22T07:59:54Z</time>
      </trkpt>
      <trkpt lat="41.87438" lon="0.87761">
        <ele>284.2803</ele>
        <time>2021-07-22T08:00:05Z</time>
      </trkpt>
      <trkpt lat="41.87456" lon="0.87811">
        <ele>285.9226</ele>
        <time>2021-07-22T08:00:16Z</time>
      </trkpt>
      <trkpt lat="41.8748" lon="0.87822">
        <ele>288.9975</ele>
        <time>2021-07-22T08:00:27Z</time>
      </trkpt>
      <trkpt lat="41.87498" lon="0.87802">
        <ele>289.7973</ele>
        <time>2021-07-22T08:00:38Z</time>
      </trkpt>
      <trkpt lat="41.87525" lon="0.87813">
        <ele>295.8193</ele>
        <time>2021-07-22T08:00:49Z</time>
      </trkpt>
      <trkpt lat="41.8754" lon="0.8782">
        <ele>294.9583</ele>
        <time>2021-07-22T08:01:00Z</time>
      </trkpt>
      <trkpt lat="41.8754" lon="0.87829">
        <ele>295.8756</ele>
        <time>2021-07-22T08:01:11Z</time>
      </trkpt>
      <trkpt lat="41.8755" lon="0.8784">
        <ele>297.7186</ele>
        <time>2021-07-22T08:01:22Z</time>
      </trkpt>
      <trkpt lat="41.87558" lon="0.87917">
        <ele>302.5211</ele>
        <time>2021-07-22T08:01:33Z</time>
      </trkpt>
      <trkpt lat="41.87575" lon="0.87987">
        <ele>301.6044</ele>
        <time>2021-07-22T08:01:44Z</time>
      </trkpt>
      <trkpt lat="41.87552" lon="0.87995">
        <ele>302.0228</ele>
        <time>2021-07-22T08:01:55Z</time>
      </trkpt>
      <trkpt lat="41.87536" lon="0.88063">
        <ele>293.3525</ele>
        <time>2021-07-22T08:02:06Z</time>
      </trkpt>
      <trkpt lat="41.87512" lon="0.88122">
        <ele>301.5931</ele>
        <time>2021-07-22T08:02:17Z</time>
      </trkpt>
      <trkpt lat="41.8748" lon="0.88115">
        <ele>299.8948</ele>
        <time>2021-07-22T08:02:23Z</time>
      </trkpt>
      <trkpt lat="41.87465" lon="0.88189">
        <ele>311.607</ele>
        <time>2021-07-22T08:02:34Z</time>
      </trkpt>
      <trkpt lat="41.8743" lon="0.88285">
        <ele>324.9354</ele>
        <time>2021-07-22T08:02:45Z</time>
      </trkpt>
      <trkpt lat="41.87423" lon="0.88407">
        <ele>335.9415</ele>
        <time>2021-07-22T08:02:56Z</time>
      </trkpt>
      <trkpt lat="41.87458" lon="0.88398">
        <ele>339.3271</ele>
        <time>2021-07-22T08:03:07Z</time>
      </trkpt>
      <trkpt lat="41.87443" lon="0.88525">
        <ele>351.5557</ele>
        <time>2021-07-22T08:03:18Z</time>
      </trkpt>
      <trkpt lat="41.87481" lon="0.8866">
        <ele>360.12</ele>
        <time>2021-07-22T08:03:29Z</time>
      </trkpt>
      <trkpt lat="41.8753" lon="0.88695">
        <ele>364.929</ele>
        <time>2021-07-22T08:03:40Z</time>
      </trkpt>
      <trkpt lat="41.87529" lon="0.88839">
        <ele>373.949</ele>
        <time>2021-07-22T08:03:51Z</time>
      </trkpt>
      <trkpt lat="41.87483" lon="0.88912">
        <ele>378.5393</ele>
        <time>2021-07-22T08:04:02Z</time>
      </trkpt>
      <trkpt lat="41.8744" lon="0.88978">
        <ele>384.9398</ele>
        <time>2021-07-22T08:04:13Z</time>
      </trkpt>
      <trkpt lat="41.87461" lon="0.89099">
        <ele>395.5572</ele>
        <time>2021-07-22T08:04:24Z</time>
      </trkpt>
      <trkpt lat="41.87493" lon="0.89196">
        <ele>402.9451</ele>
        <time>2021-07-22T08:04:35Z</time>
      </trkpt>
      <trkpt lat="41.87508" lon="0.8927">
        <ele>409.1401</ele>
        <time>2021-07-22T08:04:46Z</time>
      </trkpt>
      <trkpt lat="41.87482" lon="0.8939">
        <ele>414.4464</ele>
        <time>2021-07-22T08:04:57Z</time>
      </trkpt>
      <trkpt lat="41.87576" lon="0.89478">
        <ele>422.0386</ele>
        <time>2021-07-22T08:05:08Z</time>
      </trkpt>
      <trkpt lat="41.87655" lon="0.89566">
        <ele>429.803</ele>
        <time>2021-07-22T08:05:19Z</time>
      </trkpt>
      <trkpt lat="41.87723" lon="0.89473">
        <ele>434.474</ele>
        <time>2021-07-22T08:05:30Z</time>
      </trkpt>
      <trkpt lat="41.87816" lon="0.89489">
        <ele>432.6475</ele>
        <time>2021-07-22T08:05:41Z</time>
      </trkpt>
      <trkpt lat="41.87885" lon="0.89502">
        <ele>437.5702</ele>
        <time>2021-07-22T08:05:52Z</time>
      </trkpt>
      <trkpt lat="41.87888" lon="0.89563">
        <ele>439.8731</ele>
        <time>2021-07-22T08:06:03Z</time>
      </trkpt>
      <trkpt lat="41.87915" lon="0.89729">
        <ele>448.469</ele>
        <time>2021-07-22T08:06:14Z</time>
      </trkpt>
      <trkpt lat="41.87946" lon="0.89885">
        <ele>448.0074</ele>
        <time>2021-07-22T08:06:25Z</time>
      </trkpt>
      <trkpt lat="41.88001" lon="0.90002">
        <ele>457.3131</ele>
        <time>2021-07-22T08:06:36Z</time>
      </trkpt>
      <trkpt lat="41.88003" lon="0.90091">
        <ele>459.7786</ele>
        <time>2021-07-22T08:06:47Z</time>
      </trkpt>
      <trkpt lat="41.88028" lon="0.90137">
        <ele>447.0324</ele>
        <time>2021-07-22T08:06:58Z</time>
      </trkpt>
      <trkpt lat="41.8805" lon="0.90217">
        <ele>440.7811</ele>
        <time>2021-07-22T08:07:09Z</time>
      </trkpt>
      <trkpt lat="41.88102" lon="0.90318">
        <ele>442.4043</ele>
        <time>2021-07-22T08:07:20Z</time>
      </trkpt>
      <trkpt lat="41.88135" lon="0.90443">
        <ele>448.9062</ele>
        <time>2021-07-22T08:07:31Z</time>
      </trkpt>
      <trkpt lat="41.88095" lon="0.90551">
        <ele>454.4558</ele>
        <time>2021-07-22T08:07:42Z</time>
      </trkpt>
      <trkpt lat="41.88138" lon="0.90615">
        <ele>458.8378</ele>
        <time>2021-07-22T08:07:53Z</time>
      </trkpt>
      <trkpt lat="41.88144" lon="0.90665">
        <ele>466.8832</ele>
        <time>2021-07-22T08:08:04Z</time>
      </trkpt>
      <trkpt lat="41.88062" lon="0.90765">
        <ele>475.0518</ele>
        <time>2021-07-22T08:08:15Z</time>
      </trkpt>
      <trkpt lat="41.87996" lon="0.90826">
        <ele>477.362</ele>
        <time>2021-07-22T08:08:26Z</time>
      </trkpt>
      <trkpt lat="41.87973" lon="0.90729">
        <ele>478.5422</ele>
        <time>2021-07-22T08:08:37Z</time>
      </trkpt>
      <trkpt lat="41.87979" lon="0.90695">
        <ele>472.1593</ele>
        <time>2021-07-22T08:08:48Z</time>
      </trkpt>
      <trkpt lat="41.87922" lon="0.90779">
        <ele>476.7773</ele>
        <time>2021-07-22T08:08:59Z</time>
      </trkpt>
      <trkpt lat="41.87955" lon="0.90905">
        <ele>485.0325</ele>
        <time>2021-07-22T08:09:10Z</time>
      </trkpt>
      <trkpt lat="41.87994" lon="0.91048">
        <ele>498.7876</ele>
        <time>2021-07-22T08:09:21Z</time>
      </trkpt>
      <trkpt lat="41.88084" lon="0.91126">
        <ele>503.2986</ele>
        <time>2021-07-22T08:09:32Z</time>
      </trkpt>
      <trkpt lat="41.88125" lon="0.91256">
        <ele>513.6975</ele>
        <time>2021-07-22T08:09:43Z</time>
      </trkpt>
      <trkpt lat="41.88154" lon="0.91293">
        <ele>512.7188</ele>
        <time>2021-07-22T08:09:54Z</time>
      </trkpt>
      <trkpt lat="41.88207" lon="0.91186">
        <ele>518.3775</ele>
        <time>2021-07-22T08:10:05Z</time>
      </trkpt>
      <trkpt lat="41.88198" lon="0.91272">
        <ele>524.5484</ele>
        <time>2021-07-22T08:10:16Z</time>
      </trkpt>
      <trkpt lat="41.88212" lon="0.91423">
        <ele>526.0603</ele>
        <time>2021-07-22T08:10:27Z</time>
      </trkpt>
      <trkpt lat="41.88258" lon="0.9155">
        <ele>524.4088</ele>
        <time>2021-07-22T08:10:38Z</time>
      </trkpt>
      <trkpt lat="41.88288" lon="0.91618">
        <ele>509.2297</ele>
        <time>2021-07-22T08:10:49Z</time>
      </trkpt>
      <trkpt lat="41.88254" lon="0.91759">
        <ele>549.7641</ele>
        <time>2021-07-22T08:11:00Z</time>
      </trkpt>
      <trkpt lat="41.88328" lon="0.91872">
        <ele>567.8784</ele>
        <time>2021-07-22T08:11:11Z</time>
      </trkpt>
      <trkpt lat="41.88392" lon="0.91992">
        <ele>570.4554</ele>
        <time>2021-07-22T08:11:22Z</time>
      </trkpt>
      <trkpt lat="41.88474" lon="0.92087">
        <ele>563.875</ele>
        <time>2021-07-22T08:11:33Z</time>
      </trkpt>
      <trkpt lat="41.88557" lon="0.92099">
        <ele>575.2201</ele>
        <time>2021-07-22T08:11:44Z</time>
      </trkpt>
      <trkpt lat="41.88646" lon="0.92197">
        <ele>621.7241</ele>
        <time>2021-07-22T08:11:55Z</time>
      </trkpt>
      <trkpt lat="41.88715" lon="0.92296">
        <ele>635.5519</ele>
        <time>2021-07-22T08:12:06Z</time>
      </trkpt>
      <trkpt lat="41.8877" lon="0.924">
        <ele>635.0582</ele>
        <time>2021-07-22T08:12:17Z</time>
      </trkpt>
      <trkpt lat="41.88839" lon="0.92553">
        <ele>634.5076</ele>
        <time>2021-07-22T08:12:28Z</time>
      </trkpt>
      <trkpt lat="41.88895" lon="0.92636">
        <ele>633.4133</ele>
        <time>2021-07-22T08:12:39Z</time>
      </trkpt>
      <trkpt lat="41.88991" lon="0.92668">
        <ele>627.9683</ele>
        <time>2021-07-22T08:12:50Z</time>
      </trkpt>
      <trkpt lat="41.89084" lon="0.92729">
        <ele>613.7</ele>
        <time>2021-07-22T08:13:01Z</time>
      </trkpt>
      <trkpt lat="41.89183" lon="0.92795">
        <ele>601.415</ele>
        <time>2021-07-22T08:13:12Z</time>
      </trkpt>
      <trkpt lat="41.89286" lon="0.92835">
        <ele>593.7977</ele>
        <time>2021-07-22T08:13:23Z</time>
      </trkpt>
      <trkpt lat="41.89306" lon="0.92852">
        <ele>588.6383</ele>
        <time>2021-07-22T08:13:34Z</time>
      </trkpt>
      <trkpt lat="41.8921" lon="0.92844">
        <ele>580.0266</ele>
        <time>2021-07-22T08:13:45Z</time>
      </trkpt>
      <trkpt lat="41.89114" lon="0.92863">
        <ele>568.6792</ele>
        <time>2021-07-22T08:13:56Z</time>
      </trkpt>
      <trkpt lat="41.89152" lon="0.92972">
        <ele>565.4989</ele>
        <time>2021-07-22T08:14:07Z</time>
      </trkpt>
      <trkpt lat="41.89249" lon="0.93078">
        <ele>558.1812</ele>
        <time>2021-07-22T08:14:18Z</time>
      </trkpt>
      <trkpt lat="41.89335" lon="0.93181">
        <ele>546.6725</ele>
        <time>2021-07-22T08:14:29Z</time>
      </trkpt>
      <trkpt lat="41.89362" lon="0.93186">
        <ele>545.5829</ele>
        <time>2021-07-22T08:14:40Z</time>
      </trkpt>
      <trkpt lat="41.89307" lon="0.93071">
        <ele>535.2494</ele>
        <time>2021-07-22T08:14:51Z</time>
      </trkpt>
      <trkpt lat="41.8934" lon="0.9303">
        <ele>533.7394</ele>
        <time>2021-07-22T08:15:02Z</time>
      </trkpt>
      <trkpt lat="41.89443" lon="0.93067">
        <ele>521.891</ele>
        <time>2021-07-22T08:15:13Z</time>
      </trkpt>
      <trkpt lat="41.89536" lon="0.93118">
        <ele>513.9638</ele>
        <time>2021-07-22T08:15:24Z</time>
      </trkpt>
      <trkpt lat="41.89628" lon="0.93155">
        <ele>511.0794</ele>
        <time>2021-07-22T08:15:35Z</time>
      </trkpt>
      <trkpt lat="41.89721" lon="0.93205">
        <ele>500.4726</ele>
        <time>2021-07-22T08:15:46Z</time>
      </trkpt>
      <trkpt lat="41.89811" lon="0.93227">
        <ele>492.1628</ele>
        <time>2021-07-22T08:15:57Z</time>
      </trkpt>
      <trkpt lat="41.89889" lon="0.93237">
        <ele>479.3326</ele>
        <time>2021-07-22T08:16:08Z</time>
      </trkpt>
      <trkpt lat="41.89982" lon="0.93262">
        <ele>475.7483</ele>
        <time>2021-07-22T08:16:19Z</time>
      </trkpt>
      <trkpt lat="41.90056" lon="0.93282">
        <ele>464.453</ele>
        <time>2021-07-22T08:16:30Z</time>
      </trkpt>
      <trkpt lat="41.89991" lon="0.93292">
        <ele>460.3046</ele>
        <time>2021-07-22T08:16:41Z</time>
      </trkpt>
      <trkpt lat="41.89889" lon="0.93317">
        <ele>455.484</ele>
        <time>2021-07-22T08:16:52Z</time>
      </trkpt>
      <trkpt lat="41.89794" lon="0.9338">
        <ele>450.8912</ele>
        <time>2021-07-22T08:17:03Z</time>
      </trkpt>
      <trkpt lat="41.89784" lon="0.93445">
        <ele>443.1683</ele>
        <time>2021-07-22T08:17:14Z</time>
      </trkpt>
      <trkpt lat="41.89849" lon="0.93477">
        <ele>426.7186</ele>
        <time>2021-07-22T08:17:25Z</time>
      </trkpt>
      <trkpt lat="41.89944" lon="0.9346">
        <ele>404.296</ele>
        <time>2021-07-22T08:17:36Z</time>
      </trkpt>
      <trkpt lat="41.90043" lon="0.93501">
        <ele>398.7143</ele>
        <time>2021-07-22T08:17:47Z</time>
      </trkpt>
      <trkpt lat="41.90116" lon="0.93572">
        <ele>389.5044</ele>
        <time>2021-07-22T08:17:58Z</time>
      </trkpt>
      <trkpt lat="41.90159" lon="0.9364">
        <ele>378.7254</ele>
        <time>2021-07-22T08:18:09Z</time>
      </trkpt>
      <trkpt lat="41.90264" lon="0.93599">
        <ele>393.3594</ele>
        <time>2021-07-22T08:18:20Z</time>
      </trkpt>
      <trkpt lat="41.90356" lon="0.93613">
        <ele>403.1785</ele>
        <time>2021-07-22T08:18:31Z</time>
      </trkpt>
      <trkpt lat="41.90441" lon="0.93702">
        <ele>395.7783</ele>
        <time>2021-07-22T08:18:42Z</time>
      </trkpt>
      <trkpt lat="41.90508" lon="0.93773">
        <ele>395.3692</ele>
        <time>2021-07-22T08:18:53Z</time>
      </trkpt>
      <trkpt lat="41.90503" lon="0.93737">
        <ele>398.5653</ele>
        <time>2021-07-22T08:19:04Z</time>
      </trkpt>
      <trkpt lat="41.90467" lon="0.93616">
        <ele>398.9954</ele>
        <time>2021-07-22T08:19:15Z</time>
      </trkpt>
      <trkpt lat="41.90482" lon="0.93607">
        <ele>398.0379</ele>
        <time>2021-07-22T08:19:26Z</time>
      </trkpt>
      <trkpt lat="41.90535" lon="0.93681">
        <ele>390.7472</ele>
        <time>2021-07-22T08:19:37Z</time>
      </trkpt>
      <trkpt lat="41.90588" lon="0.9376">
        <ele>385.4022</ele>
        <time>2021-07-22T08:19:48Z</time>
      </trkpt>
      <trkpt lat="41.90678" lon="0.93818">
        <ele>366.4785</ele>
        <time>2021-07-22T08:19:59Z</time>
      </trkpt>
      <trkpt lat="41.90735" lon="0.9384">
        <ele>354.2687</ele>
        <time>2021-07-22T08:20:10Z</time>
      </trkpt>
      <trkpt lat="41.90674" lon="0.93773">
        <ele>339.5582</ele>
        <time>2021-07-22T08:20:21Z</time>
      </trkpt>
      <trkpt lat="41.90668" lon="0.93701">
        <ele>325.6498</ele>
        <time>2021-07-22T08:20:32Z</time>
      </trkpt>
      <trkpt lat="41.90721" lon="0.93778">
        <ele>324.2034</ele>
        <time>2021-07-22T08:20:43Z</time>
      </trkpt>
      <trkpt lat="41.90758" lon="0.93787">
        <ele>320.4295</ele>
        <time>2021-07-22T08:20:54Z</time>
      </trkpt>
      <trkpt lat="41.9072" lon="0.93693">
        <ele>315.1931</ele>
        <time>2021-07-22T08:21:05Z</time>
      </trkpt>
      <trkpt lat="41.9072" lon="0.93596">
        <ele>305.1151</ele>
        <time>2021-07-22T08:21:16Z</time>
      </trkpt>
      <trkpt lat="41.90724" lon="0.93577">
        <ele>302.0518</ele>
        <time>2021-07-22T08:21:27Z</time>
      </trkpt>
      <trkpt lat="41.90761" lon="0.93663">
        <ele>298.0411</ele>
        <time>2021-07-22T08:21:38Z</time>
      </trkpt>
      <trkpt lat="41.90818" lon="0.93717">
        <ele>292.7353</ele>
        <time>2021-07-22T08:21:49Z</time>
      </trkpt>
      <trkpt lat="41.90875" lon="0.93812">
        <ele>286.9322</ele>
        <time>2021-07-22T08:22:00Z</time>
      </trkpt>
      <trkpt lat="41.90906" lon="0.9394">
        <ele>283.4502</ele>
        <time>2021-07-22T08:22:11Z</time>
      </trkpt>
      <trkpt lat="41.90928" lon="0.94134">
        <ele>288.3688</ele>
        <time>2021-07-22T08:22:22Z</time>
      </trkpt>
      <trkpt lat="41.90935" lon="0.94243">
        <ele>291.0104</ele>
        <time>2021-07-22T08:22:33Z</time>
      </trkpt>
      <trkpt lat="41.90991" lon="0.94352">
        <ele>294.1284</ele>
        <time>2021-07-22T08:22:44Z</time>
      </trkpt>
      <trkpt lat="41.91079" lon="0.94446">
        <ele>280.7444</ele>
        <time>2021-07-22T08:22:55Z</time>
      </trkpt>
      <trkpt lat="41.91152" lon="0.94542">
        <ele>280.5907</ele>
        <time>2021-07-22T08:23:06Z</time>
      </trkpt>
      <trkpt lat="41.91197" lon="0.94659">
        <ele>284.2129</ele>
        <time>2021-07-22T08:23:17Z</time>
      </trkpt>
      <trkpt lat="41.912" lon="0.94735">
        <ele>289.8693</ele>
        <time>2021-07-22T08:23:28Z</time>
      </trkpt>
      <trkpt lat="41.9121" lon="0.94859">
        <ele>288.0839</ele>
        <time>2021-07-22T08:23:39Z</time>
      </trkpt>
      <trkpt lat="41.91166" lon="0.95007">
        <ele>280.0468</ele>
        <time>2021-07-22T08:23:50Z</time>
      </trkpt>
      <trkpt lat="41.91095" lon="0.95193">
        <ele>278.047</ele>
        <time>2021-07-22T08:24:01Z</time>
      </trkpt>
      <trkpt lat="41.9112" lon="0.95373">
        <ele>282.4089</ele>
        <time>2021-07-22T08:24:12Z</time>
      </trkpt>
      <trkpt lat="41.91165" lon="0.95559">
        <ele>289.7304</ele>
        <time>2021-07-22T08:24:23Z</time>
      </trkpt>
      <trkpt lat="41.91196" lon="0.9564">
        <ele>285.8697</ele>
        <time>2021-07-22T08:24:34Z</time>
      </trkpt>
      <trkpt lat="41.91273" lon="0.95673">
        <ele>287.3308</ele>
        <time>2021-07-22T08:24:45Z</time>
      </trkpt>
      <trkpt lat="41.91226" lon="0.95853">
        <ele>283.5543</ele>
        <time>2021-07-22T08:24:56Z</time>
      </trkpt>
      <trkpt lat="41.9117" lon="0.95988">
        <ele>287.1604</ele>
        <time>2021-07-22T08:25:07Z</time>
      </trkpt>
      <trkpt lat="41.91161" lon="0.96141">
        <ele>286.1809</ele>
        <time>2021-07-22T08:25:18Z</time>
      </trkpt>
      <trkpt lat="41.91171" lon="0.96269">
        <ele>284.6874</ele>
        <time>2021-07-22T08:25:29Z</time>
      </trkpt>
      <trkpt lat="41.91157" lon="0.96487">
        <ele>283.1059</ele>
        <time>2021-07-22T08:25:40Z</time>
      </trkpt>
      <trkpt lat="41.91169" lon="0.96731">
        <ele>283.4958</ele>
        <time>2021-07-22T08:25:51Z</time>
      </trkpt>
      <trkpt lat="41.91024" lon="0.96885">
        <ele>280.4252</ele>
        <time>2021-07-22T08:26:02Z</time>
      </trkpt>
      <trkpt lat="41.90925" lon="0.97056">
        <ele>281.2517</ele>
        <time>2021-07-22T08:26:13Z</time>
      </trkpt>
      <trkpt lat="41.90935" lon="0.9709">
        <ele>288.9312</ele>
        <time>2021-07-22T08:26:24Z</time>
      </trkpt>
      <trkpt lat="41.90905" lon="0.97232">
        <ele>305.9105</ele>
        <time>2021-07-22T08:26:35Z</time>
      </trkpt>
      <trkpt lat="41.90946" lon="0.97389">
        <ele>313.4975</ele>
        <time>2021-07-22T08:26:46Z</time>
      </trkpt>
      <trkpt lat="41.90971" lon="0.97507">
        <ele>312.8293</ele>
        <time>2021-07-22T08:26:57Z</time>
      </trkpt>
      <trkpt lat="41.9103" lon="0.97552">
        <ele>320.5917</ele>
        <time>2021-07-22T08:27:08Z</time>
      </trkpt>
      <trkpt lat="41.9109" lon="0.97562">
        <ele>332.5741</ele>
        <time>2021-07-22T08:27:19Z</time>
      </trkpt>
      <trkpt lat="41.91164" lon="0.97665">
        <ele>340.6231</ele>
        <time>2021-07-22T08:27:30Z</time>
      </trkpt>
      <trkpt lat="41.91129" lon="0.97721">
        <ele>348.4453</ele>
        <time>2021-07-22T08:27:41Z</time>
      </trkpt>
      <trkpt lat="41.91205" lon="0.97736">
        <ele>360.7186</ele>
        <time>2021-07-22T08:27:52Z</time>
      </trkpt>
      <trkpt lat="41.91334" lon="0.97697">
        <ele>375.0898</ele>
        <time>2021-07-22T08:28:03Z</time>
      </trkpt>
      <trkpt lat="41.91448" lon="0.97834">
        <ele>379.5384</ele>
        <time>2021-07-22T08:28:14Z</time>
      </trkpt>
      <trkpt lat="41.91506" lon="0.98041">
        <ele>380.2878</ele>
        <time>2021-07-22T08:28:25Z</time>
      </trkpt>
      <trkpt lat="41.91541" lon="0.9817">
        <ele>397.7488</ele>
        <time>2021-07-22T08:28:36Z</time>
      </trkpt>
      <trkpt lat="41.91507" lon="0.98236">
        <ele>407.9087</ele>
        <time>2021-07-22T08:28:47Z</time>
      </trkpt>
      <trkpt lat="41.91655" lon="0.98247">
        <ele>427.9492</ele>
        <time>2021-07-22T08:28:58Z</time>
      </trkpt>
      <trkpt lat="41.91764" lon="0.98368">
        <ele>447.8993</ele>
        <time>2021-07-22T08:29:09Z</time>
      </trkpt>
      <trkpt lat="41.91908" lon="0.98426">
        <ele>466.5274</ele>
        <time>2021-07-22T08:29:20Z</time>
      </trkpt>
      <trkpt lat="41.9203" lon="0.98506">
        <ele>480.3472</ele>
        <time>2021-07-22T08:29:31Z</time>
      </trkpt>
      <trkpt lat="41.92075" lon="0.98555">
        <ele>487.6292</ele>
        <time>2021-07-22T08:29:42Z</time>
      </trkpt>
      <trkpt lat="41.92005" lon="0.98615">
        <ele>499.9372</ele>
        <time>2021-07-22T08:29:53Z</time>
      </trkpt>
      <trkpt lat="41.92041" lon="0.98622">
        <ele>506.2465</ele>
        <time>2021-07-22T08:30:04Z</time>
      </trkpt>
      <trkpt lat="41.91937" lon="0.98682">
        <ele>517.5662</ele>
        <time>2021-07-22T08:30:15Z</time>
      </trkpt>
      <trkpt lat="41.91868" lon="0.98724">
        <ele>526.9471</ele>
        <time>2021-07-22T08:30:26Z</time>
      </trkpt>
      <trkpt lat="41.91976" lon="0.98754">
        <ele>533.5808</ele>
        <time>2021-07-22T08:30:37Z</time>
      </trkpt>
      <trkpt lat="41.9209" lon="0.98859">
        <ele>546.5067</ele>
        <time>2021-07-22T08:30:48Z</time>
      </trkpt>
      <trkpt lat="41.92165" lon="0.98981">
        <ele>544.1323</ele>
        <time>2021-07-22T08:30:59Z</time>
      </trkpt>
      <trkpt lat="41.92248" lon="0.99074">
        <ele>536.891</ele>
        <time>2021-07-22T08:31:10Z</time>
      </trkpt>
      <trkpt lat="41.92373" lon="0.99074">
        <ele>525.5015</ele>
        <time>2021-07-22T08:31:21Z</time>
      </trkpt>
      <trkpt lat="41.92473" lon="0.99084">
        <ele>520.3933</ele>
        <time>2021-07-22T08:31:32Z</time>
      </trkpt>
      <trkpt lat="41.92572" lon="0.98983">
        <ele>538.3243</ele>
        <time>2021-07-22T08:31:43Z</time>
      </trkpt>
      <trkpt lat="41.92654" lon="0.98986">
        <ele>550.1723</ele>
        <time>2021-07-22T08:31:54Z</time>
      </trkpt>
      <trkpt lat="41.92666" lon="0.99">
        <ele>556.1511</ele>
        <time>2021-07-22T08:32:05Z</time>
      </trkpt>
      <trkpt lat="41.92672" lon="0.99117">
        <ele>570.4586</ele>
        <time>2021-07-22T08:32:16Z</time>
      </trkpt>
      <trkpt lat="41.92717" lon="0.99052">
        <ele>577.5756</ele>
        <time>2021-07-22T08:32:27Z</time>
      </trkpt>
      <trkpt lat="41.92795" lon="0.99145">
        <ele>591.2456</ele>
        <time>2021-07-22T08:32:38Z</time>
      </trkpt>
      <trkpt lat="41.92852" lon="0.99097">
        <ele>598.4949</ele>
        <time>2021-07-22T08:32:49Z</time>
      </trkpt>
      <trkpt lat="41.92882" lon="0.9898">
        <ele>606.6603</ele>
        <time>2021-07-22T08:33:00Z</time>
      </trkpt>
      <trkpt lat="41.92923" lon="0.9893">
        <ele>611.0675</ele>
        <time>2021-07-22T08:33:11Z</time>
      </trkpt>
      <trkpt lat="41.92988" lon="0.99042">
        <ele>617.1933</ele>
        <time>2021-07-22T08:33:22Z</time>
      </trkpt>
      <trkpt lat="41.93111" lon="0.98998">
        <ele>617.7939</ele>
        <time>2021-07-22T08:33:33Z</time>
      </trkpt>
      <trkpt lat="41.93183" lon="0.98934">
        <ele>617.5293</ele>
        <time>2021-07-22T08:33:44Z</time>
      </trkpt>
      <trkpt lat="41.93295" lon="0.98955">
        <ele>616.0196</ele>
        <time>2021-07-22T08:33:55Z</time>
      </trkpt>
      <trkpt lat="41.93411" lon="0.98927">
        <ele>615.6489</ele>
        <time>2021-07-22T08:34:06Z</time>
      </trkpt>
      <trkpt lat="41.93401" lon="0.98781">
        <ele>624.102</ele>
        <time>2021-07-22T08:34:17Z</time>
      </trkpt>
      <trkpt lat="41.93444" lon="0.98673">
        <ele>634.6375</ele>
        <time>2021-07-22T08:34:28Z</time>
      </trkpt>
      <trkpt lat="41.93552" lon="0.98682">
        <ele>628.0975</ele>
        <time>2021-07-22T08:34:39Z</time>
      </trkpt>
      <trkpt lat="41.93667" lon="0.98657">
        <ele>619.7219</ele>
        <time>2021-07-22T08:34:50Z</time>
      </trkpt>
      <trkpt lat="41.93737" lon="0.9858">
        <ele>639.1131</ele>
        <time>2021-07-22T08:35:01Z</time>
      </trkpt>
      <trkpt lat="41.93794" lon="0.9864">
        <ele>649.0658</ele>
        <time>2021-07-22T08:35:12Z</time>
      </trkpt>
      <trkpt lat="41.93897" lon="0.98685">
        <ele>652.431</ele>
        <time>2021-07-22T08:35:23Z</time>
      </trkpt>
      <trkpt lat="41.93986" lon="0.98724">
        <ele>666.1288</ele>
        <time>2021-07-22T08:35:34Z</time>
      </trkpt>
      <trkpt lat="41.94062" lon="0.98672">
        <ele>678.8879</ele>
        <time>2021-07-22T08:35:45Z</time>
      </trkpt>
      <trkpt lat="41.94162" lon="0.98768">
        <ele>689.4855</ele>
        <time>2021-07-22T08:35:56Z</time>
      </trkpt>
      <trkpt lat="41.94234" lon="0.98856">
        <ele>688.2921</ele>
        <time>2021-07-22T08:36:07Z</time>
      </trkpt>
      <trkpt lat="41.94322" lon="0.98881">
        <ele>696.518</ele>
        <time>2021-07-22T08:36:18Z</time>
      </trkpt>
      <trkpt lat="41.9446" lon="0.98938">
        <ele>718.6288</ele>
        <time>2021-07-22T08:36:29Z</time>
      </trkpt>
      <trkpt lat="41.9462" lon="0.99003">
        <ele>733.9417</ele>
        <time>2021-07-22T08:36:40Z</time>
      </trkpt>
      <trkpt lat="41.94723" lon="0.99072">
        <ele>746.6626</ele>
        <time>2021-07-22T08:36:51Z</time>
      </trkpt>
      <trkpt lat="41.9481" lon="0.99051">
        <ele>746.4686</ele>
        <time>2021-07-22T08:37:02Z</time>
      </trkpt>
      <trkpt lat="41.94888" lon="0.99078">
        <ele>737.3011</ele>
        <time>2021-07-22T08:37:13Z</time>
      </trkpt>
      <trkpt lat="41.94993" lon="0.99179">
        <ele>708.4447</ele>
        <time>2021-07-22T08:37:24Z</time>
      </trkpt>
      <trkpt lat="41.95096" lon="0.9919">
        <ele>694.9755</ele>
        <time>2021-07-22T08:37:35Z</time>
      </trkpt>
      <trkpt lat="41.95163" lon="0.99236">
        <ele>681.2453</ele>
        <time>2021-07-22T08:37:46Z</time>
      </trkpt>
      <trkpt lat="41.95268" lon="0.99266">
        <ele>689.8383</ele>
        <time>2021-07-22T08:37:57Z</time>
      </trkpt>
      <trkpt lat="41.95352" lon="0.99298">
        <ele>681.6707</ele>
        <time>2021-07-22T08:38:08Z</time>
      </trkpt>
      <trkpt lat="41.95436" lon="0.99297">
        <ele>663.1398</ele>
        <time>2021-07-22T08:38:19Z</time>
      </trkpt>
      <trkpt lat="41.95494" lon="0.99323">
        <ele>658.5996</ele>
        <time>2021-07-22T08:38:30Z</time>
      </trkpt>
      <trkpt lat="41.95519" lon="0.99339">
        <ele>657.6959</ele>
        <time>2021-07-22T08:38:41Z</time>
      </trkpt>
      <trkpt lat="41.95481" lon="0.9939">
        <ele>662.5149</ele>
        <time>2021-07-22T08:38:52Z</time>
      </trkpt>
      <trkpt lat="41.95522" lon="0.99484">
        <ele>663.2364</ele>
        <time>2021-07-22T08:39:03Z</time>
      </trkpt>
      <trkpt lat="41.9554" lon="0.99571">
        <ele>653.3393</ele>
        <time>2021-07-22T08:39:14Z</time>
      </trkpt>
      <trkpt lat="41.95544" lon="0.9965">
        <ele>630.7631</ele>
        <time>2021-07-22T08:39:25Z</time>
      </trkpt>
      <trkpt lat="41.95509" lon="0.99746">
        <ele>615.0113</ele>
        <time>2021-07-22T08:39:36Z</time>
      </trkpt>
      <trkpt lat="41.95509" lon="0.99751">
        <ele>615.8024</ele>
        <time>2021-07-22T08:39:49Z</time>
      </trkpt>
      <trkpt lat="41.95487" lon="0.99806">
        <ele>615.7405</ele>
        <time>2021-07-22T08:40:00Z</time>
      </trkpt>
      <trkpt lat="41.95464" lon="0.9994">
        <ele>597.4109</ele>
        <time>2021-07-22T08:40:11Z</time>
      </trkpt>
      <trkpt lat="41.95436" lon="1.00077">
        <ele>588.0374</ele>
        <time>2021-07-22T08:40:22Z</time>
      </trkpt>
      <trkpt lat="41.95462" lon="1.0014">
        <ele>582.1181</ele>
        <time>2021-07-22T08:40:33Z</time>
      </trkpt>
      <trkpt lat="41.95526" lon="1.00211">
        <ele>589.2202</ele>
        <time>2021-07-22T08:40:44Z</time>
      </trkpt>
      <trkpt lat="41.95619" lon="1.00287">
        <ele>606.4947</ele>
        <time>2021-07-22T08:40:55Z</time>
      </trkpt>
      <trkpt lat="41.95658" lon="1.00242">
        <ele>609.5238</ele>
        <time>2021-07-22T08:41:06Z</time>
      </trkpt>
      <trkpt lat="41.95678" lon="1.00126">
        <ele>614.5704</ele>
        <time>2021-07-22T08:41:17Z</time>
      </trkpt>
      <trkpt lat="41.95761" lon="1.0002">
        <ele>625.4665</ele>
        <time>2021-07-22T08:41:28Z</time>
      </trkpt>
      <trkpt lat="41.95868" lon="0.99942">
        <ele>632.9145</ele>
        <time>2021-07-22T08:41:39Z</time>
      </trkpt>
      <trkpt lat="41.95931" lon="0.9997">
        <ele>637.6235</ele>
        <time>2021-07-22T08:41:50Z</time>
      </trkpt>
      <trkpt lat="41.95865" lon="1.00005">
        <ele>648.5946</ele>
        <time>2021-07-22T08:42:01Z</time>
      </trkpt>
      <trkpt lat="41.95905" lon="1.00069">
        <ele>652.843</ele>
        <time>2021-07-22T08:42:12Z</time>
      </trkpt>
      <trkpt lat="41.95943" lon="1.00135">
        <ele>659.7206</ele>
        <time>2021-07-22T08:42:23Z</time>
      </trkpt>
      <trkpt lat="41.96026" lon="1.00091">
        <ele>670.8528</ele>
        <time>2021-07-22T08:42:34Z</time>
      </trkpt>
      <trkpt lat="41.9613" lon="0.99983">
        <ele>685.0128</ele>
        <time>2021-07-22T08:42:45Z</time>
      </trkpt>
      <trkpt lat="41.96225" lon="0.99901">
        <ele>685.3751</ele>
        <time>2021-07-22T08:42:56Z</time>
      </trkpt>
      <trkpt lat="41.96303" lon="0.99823">
        <ele>679.5458</ele>
        <time>2021-07-22T08:43:07Z</time>
      </trkpt>
      <trkpt lat="41.96361" lon="0.99712">
        <ele>691.7409</ele>
        <time>2021-07-22T08:43:18Z</time>
      </trkpt>
      <trkpt lat="41.96446" lon="0.99627">
        <ele>698.44</ele>
        <time>2021-07-22T08:43:29Z</time>
      </trkpt>
      <trkpt lat="41.96523" lon="0.99543">
        <ele>703.5508</ele>
        <time>2021-07-22T08:43:40Z</time>
      </trkpt>
      <trkpt lat="41.96618" lon="0.99403">
        <ele>712.5767</ele>
        <time>2021-07-22T08:43:51Z</time>
      </trkpt>
      <trkpt lat="41.96722" lon="0.99362">
        <ele>713.9056</ele>
        <time>2021-07-22T08:44:02Z</time>
      </trkpt>
      <trkpt lat="41.96733" lon="0.99247">
        <ele>722.6388</ele>
        <time>2021-07-22T08:44:13Z</time>
      </trkpt>
      <trkpt lat="41.96802" lon="0.99156">
        <ele>725.5986</ele>
        <time>2021-07-22T08:44:24Z</time>
      </trkpt>
      <trkpt lat="41.96861" lon="0.99043">
        <ele>719.8839</ele>
        <time>2021-07-22T08:44:36Z</time>
      </trkpt>
      <trkpt lat="41.96866" lon="0.98931">
        <ele>716.0754</ele>
        <time>2021-07-22T08:44:47Z</time>
      </trkpt>
      <trkpt lat="41.9694" lon="0.98794">
        <ele>721.5358</ele>
        <time>2021-07-22T08:44:58Z</time>
      </trkpt>
      <trkpt lat="41.97016" lon="0.98678">
        <ele>719.62</ele>
        <time>2021-07-22T08:45:09Z</time>
      </trkpt>
      <trkpt lat="41.97048" lon="0.98587">
        <ele>725.7261</ele>
        <time>2021-07-22T08:45:20Z</time>
      </trkpt>
      <trkpt lat="41.97149" lon="0.985">
        <ele>723.3915</ele>
        <time>2021-07-22T08:45:31Z</time>
      </trkpt>
      <trkpt lat="41.97222" lon="0.98377">
        <ele>727.6711</ele>
        <time>2021-07-22T08:45:42Z</time>
      </trkpt>
      <trkpt lat="41.97348" lon="0.98213">
        <ele>737.2985</ele>
        <time>2021-07-22T08:45:53Z</time>
      </trkpt>
      <trkpt lat="41.97489" lon="0.98068">
        <ele>745.8456</ele>
        <time>2021-07-22T08:46:04Z</time>
      </trkpt>
      <trkpt lat="41.97557" lon="0.97943">
        <ele>751.4157</ele>
        <time>2021-07-22T08:46:15Z</time>
      </trkpt>
      <trkpt lat="41.97604" lon="0.97859">
        <ele>761.4433</ele>
        <time>2021-07-22T08:46:26Z</time>
      </trkpt>
      <trkpt lat="41.97625" lon="0.97791">
        <ele>782.8694</ele>
        <time>2021-07-22T08:46:37Z</time>
      </trkpt>
      <trkpt lat="41.97666" lon="0.97885">
        <ele>802.7171</ele>
        <time>2021-07-22T08:46:48Z</time>
      </trkpt>
      <trkpt lat="41.97722" lon="0.98033">
        <ele>815.3901</ele>
        <time>2021-07-22T08:46:59Z</time>
      </trkpt>
      <trkpt lat="41.97743" lon="0.98158">
        <ele>816.1224</ele>
        <time>2021-07-22T08:47:10Z</time>
      </trkpt>
      <trkpt lat="41.97791" lon="0.98215">
        <ele>808.2816</ele>
        <time>2021-07-22T08:47:21Z</time>
      </trkpt>
      <trkpt lat="41.97861" lon="0.9819">
        <ele>799.2289</ele>
        <time>2021-07-22T08:47:32Z</time>
      </trkpt>
      <trkpt lat="41.97895" lon="0.98271">
        <ele>799.8613</ele>
        <time>2021-07-22T08:47:43Z</time>
      </trkpt>
      <trkpt lat="41.9804" lon="0.98327">
        <ele>811.6751</ele>
        <time>2021-07-22T08:47:54Z</time>
      </trkpt>
      <trkpt lat="41.9822" lon="0.98378">
        <ele>823.9035</ele>
        <time>2021-07-22T08:48:05Z</time>
      </trkpt>
      <trkpt lat="41.98293" lon="0.98409">
        <ele>834.8877</ele>
        <time>2021-07-22T08:48:16Z</time>
      </trkpt>
      <trkpt lat="41.98302" lon="0.98451">
        <ele>836.7167</ele>
        <time>2021-07-22T08:48:27Z</time>
      </trkpt>
      <trkpt lat="41.98302" lon="0.9846">
        <ele>836.9446</ele>
        <time>2021-07-22T08:48:41Z</time>
      </trkpt>
      <trkpt lat="41.98243" lon="0.98583">
        <ele>829.2285</ele>
        <time>2021-07-22T08:48:52Z</time>
      </trkpt>
      <trkpt lat="41.98177" lon="0.98725">
        <ele>804.3067</ele>
        <time>2021-07-22T08:49:03Z</time>
      </trkpt>
      <trkpt lat="41.98121" lon="0.98878">
        <ele>778.9596</ele>
        <time>2021-07-22T08:49:14Z</time>
      </trkpt>
      <trkpt lat="41.98069" lon="0.99001">
        <ele>764.2202</ele>
        <time>2021-07-22T08:49:25Z</time>
      </trkpt>
      <trkpt lat="41.98115" lon="0.99153">
        <ele>756.2154</ele>
        <time>2021-07-22T08:49:36Z</time>
      </trkpt>
      <trkpt lat="41.98111" lon="0.99226">
        <ele>742.7827</ele>
        <time>2021-07-22T08:49:47Z</time>
      </trkpt>
      <trkpt lat="41.9819" lon="0.99203">
        <ele>742.8176</ele>
        <time>2021-07-22T08:49:58Z</time>
      </trkpt>
      <trkpt lat="41.98192" lon="0.99065">
        <ele>738.3286</ele>
        <time>2021-07-22T08:50:09Z</time>
      </trkpt>
      <trkpt lat="41.9825" lon="0.9898">
        <ele>717.9093</ele>
        <time>2021-07-22T08:50:20Z</time>
      </trkpt>
      <trkpt lat="41.98276" lon="0.99074">
        <ele>706.5079</ele>
        <time>2021-07-22T08:50:31Z</time>
      </trkpt>
      <trkpt lat="41.98365" lon="0.99072">
        <ele>700.9422</ele>
        <time>2021-07-22T08:50:42Z</time>
      </trkpt>
      <trkpt lat="41.98487" lon="0.99128">
        <ele>693.5389</ele>
        <time>2021-07-22T08:50:53Z</time>
      </trkpt>
      <trkpt lat="41.98549" lon="0.99183">
        <ele>684.2707</ele>
        <time>2021-07-22T08:51:04Z</time>
      </trkpt>
      <trkpt lat="41.98555" lon="0.99089">
        <ele>672.7388</ele>
        <time>2021-07-22T08:51:15Z</time>
      </trkpt>
      <trkpt lat="41.98631" lon="0.99149">
        <ele>664.9992</ele>
        <time>2021-07-22T08:51:26Z</time>
      </trkpt>
      <trkpt lat="41.98695" lon="0.99085">
        <ele>669.1121</ele>
        <time>2021-07-22T08:51:37Z</time>
      </trkpt>
      <trkpt lat="41.98762" lon="0.98965">
        <ele>662.3688</ele>
        <time>2021-07-22T08:51:48Z</time>
      </trkpt>
      <trkpt lat="41.9884" lon="0.98939">
        <ele>665.4678</ele>
        <time>2021-07-22T08:51:59Z</time>
      </trkpt>
      <trkpt lat="41.98933" lon="0.98828">
        <ele>664.5953</ele>
        <time>2021-07-22T08:52:10Z</time>
      </trkpt>
      <trkpt lat="41.98993" lon="0.98754">
        <ele>659.2085</ele>
        <time>2021-07-22T08:52:21Z</time>
      </trkpt>
      <trkpt lat="41.99027" lon="0.98718">
        <ele>657.9447</ele>
        <time>2021-07-22T08:52:32Z</time>
      </trkpt>
      <trkpt lat="41.99069" lon="0.98805">
        <ele>667.1358</ele>
        <time>2021-07-22T08:52:43Z</time>
      </trkpt>
      <trkpt lat="41.9916" lon="0.98828">
        <ele>680.2898</ele>
        <time>2021-07-22T08:52:54Z</time>
      </trkpt>
      <trkpt lat="41.99207" lon="0.98905">
        <ele>686.1838</ele>
        <time>2021-07-22T08:53:05Z</time>
      </trkpt>
      <trkpt lat="41.992" lon="0.98968">
        <ele>692.001</ele>
        <time>2021-07-22T08:53:16Z</time>
      </trkpt>
      <trkpt lat="41.99252" lon="0.99038">
        <ele>698.6011</ele>
        <time>2021-07-22T08:53:27Z</time>
      </trkpt>
      <trkpt lat="41.99274" lon="0.9909">
        <ele>699.9945</ele>
        <time>2021-07-22T08:53:38Z</time>
      </trkpt>
      <trkpt lat="41.99286" lon="0.99091">
        <ele>703.7235</ele>
        <time>2021-07-22T08:53:49Z</time>
      </trkpt>
      <trkpt lat="41.99283" lon="0.99087">
        <ele>702.2056</ele>
        <time>2021-07-22T08:54:00Z</time>
      </trkpt>
      <trkpt lat="41.99287" lon="0.99087">
        <ele>705.6209</ele>
        <time>2021-07-22T08:54:42Z</time>
      </trkpt>
      <trkpt lat="41.99286" lon="0.99087">
        <ele>705.553</ele>
        <time>2021-07-22T08:55:42Z</time>
      </trkpt>
      <trkpt lat="41.99284" lon="0.9909">
        <ele>704.7025</ele>
        <time>2021-07-22T08:56:41Z</time>
      </trkpt>
      <trkpt lat="41.99373" lon="0.99095">
        <ele>715.6163</ele>
        <time>2021-07-22T08:56:52Z</time>
      </trkpt>
      <trkpt lat="41.99449" lon="0.99058">
        <ele>724.0161</ele>
        <time>2021-07-22T08:57:03Z</time>
      </trkpt>
      <trkpt lat="41.99523" lon="0.98934">
        <ele>736.0602</ele>
        <time>2021-07-22T08:57:14Z</time>
      </trkpt>
      <trkpt lat="41.99577" lon="0.98804">
        <ele>746.9294</ele>
        <time>2021-07-22T08:57:25Z</time>
      </trkpt>
      <trkpt lat="41.9965" lon="0.98621">
        <ele>755.7072</ele>
        <time>2021-07-22T08:57:36Z</time>
      </trkpt>
      <trkpt lat="41.99678" lon="0.98523">
        <ele>762.3705</ele>
        <time>2021-07-22T08:57:47Z</time>
      </trkpt>
      <trkpt lat="41.99686" lon="0.98513">
        <ele>763.5067</ele>
        <time>2021-07-22T08:57:58Z</time>
      </trkpt>
      <trkpt lat="41.99692" lon="0.98532">
        <ele>769.1071</ele>
        <time>2021-07-22T08:58:09Z</time>
      </trkpt>
      <trkpt lat="41.99758" lon="0.98464">
        <ele>778.4459</ele>
        <time>2021-07-22T08:58:20Z</time>
      </trkpt>
      <trkpt lat="41.99794" lon="0.98365">
        <ele>784.1118</ele>
        <time>2021-07-22T08:58:31Z</time>
      </trkpt>
      <trkpt lat="41.99846" lon="0.98413">
        <ele>797.1768</ele>
        <time>2021-07-22T08:58:42Z</time>
      </trkpt>
      <trkpt lat="41.99897" lon="0.98508">
        <ele>809.8696</ele>
        <time>2021-07-22T08:58:53Z</time>
      </trkpt>
      <trkpt lat="41.99944" lon="0.98449">
        <ele>820.9366</ele>
        <time>2021-07-22T08:59:04Z</time>
      </trkpt>
      <trkpt lat="42.00013" lon="0.9831">
        <ele>834.6329</ele>
        <time>2021-07-22T08:59:15Z</time>
      </trkpt>
      <trkpt lat="42.00119" lon="0.98286">
        <ele>846.7355</ele>
        <time>2021-07-22T08:59:26Z</time>
      </trkpt>
      <trkpt lat="42.0023" lon="0.98245">
        <ele>861.6944</ele>
        <time>2021-07-22T08:59:37Z</time>
      </trkpt>
      <trkpt lat="42.00323" lon="0.98142">
        <ele>878.8878</ele>
        <time>2021-07-22T08:59:48Z</time>
      </trkpt>
      <trkpt lat="42.00379" lon="0.98012">
        <ele>898.2496</ele>
        <time>2021-07-22T08:59:59Z</time>
      </trkpt>
      <trkpt lat="42.00323" lon="0.97957">
        <ele>907.4721</ele>
        <time>2021-07-22T09:00:10Z</time>
      </trkpt>
      <trkpt lat="42.00266" lon="0.97824">
        <ele>921.9227</ele>
        <time>2021-07-22T09:00:21Z</time>
      </trkpt>
      <trkpt lat="42.0026" lon="0.97667">
        <ele>936.0553</ele>
        <time>2021-07-22T09:00:32Z</time>
      </trkpt>
      <trkpt lat="42.00228" lon="0.97588">
        <ele>944.9041</ele>
        <time>2021-07-22T09:00:43Z</time>
      </trkpt>
      <trkpt lat="42.00252" lon="0.97476">
        <ele>955.0864</ele>
        <time>2021-07-22T09:00:54Z</time>
      </trkpt>
      <trkpt lat="42.00272" lon="0.97559">
        <ele>965.1209</ele>
        <time>2021-07-22T09:01:05Z</time>
      </trkpt>
      <trkpt lat="42.00323" lon="0.97488">
        <ele>977.8198</ele>
        <time>2021-07-22T09:01:16Z</time>
      </trkpt>
      <trkpt lat="42.00334" lon="0.97339">
        <ele>998.8171</ele>
        <time>2021-07-22T09:01:27Z</time>
      </trkpt>
      <trkpt lat="42.00336" lon="0.97208">
        <ele>1012.544</ele>
        <time>2021-07-22T09:01:38Z</time>
      </trkpt>
      <trkpt lat="42.00381" lon="0.97109">
        <ele>1026.724</ele>
        <time>2021-07-22T09:01:49Z</time>
      </trkpt>
      <trkpt lat="42.00369" lon="0.96928">
        <ele>1041.866</ele>
        <time>2021-07-22T09:02:00Z</time>
      </trkpt>
      <trkpt lat="42.00409" lon="0.96817">
        <ele>1055.246</ele>
        <time>2021-07-22T09:02:11Z</time>
      </trkpt>
      <trkpt lat="42.00474" lon="0.96704">
        <ele>1066.851</ele>
        <time>2021-07-22T09:02:22Z</time>
      </trkpt>
      <trkpt lat="42.00541" lon="0.96591">
        <ele>1083.352</ele>
        <time>2021-07-22T09:02:33Z</time>
      </trkpt>
      <trkpt lat="42.00577" lon="0.9648">
        <ele>1093.133</ele>
        <time>2021-07-22T09:02:44Z</time>
      </trkpt>
      <trkpt lat="42.00608" lon="0.9636">
        <ele>1103.822</ele>
        <time>2021-07-22T09:02:55Z</time>
      </trkpt>
      <trkpt lat="42.00635" lon="0.9625">
        <ele>1111.312</ele>
        <time>2021-07-22T09:03:06Z</time>
      </trkpt>
      <trkpt lat="42.00649" lon="0.96214">
        <ele>1114.422</ele>
        <time>2021-07-22T09:03:17Z</time>
      </trkpt>
      <trkpt lat="42.00652" lon="0.96205">
        <ele>1115.461</ele>
        <time>2021-07-22T09:04:10Z</time>
      </trkpt>
      <trkpt lat="42.00683" lon="0.96079">
        <ele>1122.723</ele>
        <time>2021-07-22T09:04:21Z</time>
      </trkpt>
      <trkpt lat="42.00749" lon="0.95964">
        <ele>1142.171</ele>
        <time>2021-07-22T09:04:32Z</time>
      </trkpt>
      <trkpt lat="42.00828" lon="0.95876">
        <ele>1162.531</ele>
        <time>2021-07-22T09:04:43Z</time>
      </trkpt>
      <trkpt lat="42.0087" lon="0.95804">
        <ele>1176.217</ele>
        <time>2021-07-22T09:04:54Z</time>
      </trkpt>
      <trkpt lat="42.00893" lon="0.95745">
        <ele>1182.992</ele>
        <time>2021-07-22T09:05:05Z</time>
      </trkpt>
      <trkpt lat="42.00944" lon="0.95697">
        <ele>1185.934</ele>
        <time>2021-07-22T09:05:16Z</time>
      </trkpt>
      <trkpt lat="42.00965" lon="0.95648">
        <ele>1186.999</ele>
        <time>2021-07-22T09:05:27Z</time>
      </trkpt>
      <trkpt lat="42.00949" lon="0.95547">
        <ele>1205.249</ele>
        <time>2021-07-22T09:05:38Z</time>
      </trkpt>
      <trkpt lat="42.00969" lon="0.95479">
        <ele>1216.562</ele>
        <time>2021-07-22T09:05:49Z</time>
      </trkpt>
      <trkpt lat="42.01025" lon="0.95424">
        <ele>1229.352</ele>
        <time>2021-07-22T09:06:00Z</time>
      </trkpt>
      <trkpt lat="42.01023" lon="0.9537">
        <ele>1238.782</ele>
        <time>2021-07-22T09:06:11Z</time>
      </trkpt>
      <trkpt lat="42.01006" lon="0.95352">
        <ele>1249.584</ele>
        <time>2021-07-22T09:06:22Z</time>
      </trkpt>
      <trkpt lat="42.01107" lon="0.95346">
        <ele>1260.852</ele>
        <time>2021-07-22T09:06:33Z</time>
      </trkpt>
      <trkpt lat="42.01184" lon="0.95358">
        <ele>1266.579</ele>
        <time>2021-07-22T09:06:44Z</time>
      </trkpt>
      <trkpt lat="42.01208" lon="0.95211">
        <ele>1282.129</ele>
        <time>2021-07-22T09:06:55Z</time>
      </trkpt>
      <trkpt lat="42.01243" lon="0.95124">
        <ele>1289.068</ele>
        <time>2021-07-22T09:07:06Z</time>
      </trkpt>
      <trkpt lat="42.01294" lon="0.95125">
        <ele>1294.7</ele>
        <time>2021-07-22T09:07:17Z</time>
      </trkpt>
      <trkpt lat="42.01302" lon="0.95149">
        <ele>1297.457</ele>
        <time>2021-07-22T09:07:28Z</time>
      </trkpt>
      <trkpt lat="42.01331" lon="0.95307">
        <ele>1306.894</ele>
        <time>2021-07-22T09:07:39Z</time>
      </trkpt>
      <trkpt lat="42.01385" lon="0.95477">
        <ele>1309.854</ele>
        <time>2021-07-22T09:07:50Z</time>
      </trkpt>
      <trkpt lat="42.01378" lon="0.9569">
        <ele>1312.777</ele>
        <time>2021-07-22T09:08:01Z</time>
      </trkpt>
      <trkpt lat="42.01265" lon="0.95755">
        <ele>1310.301</ele>
        <time>2021-07-22T09:08:12Z</time>
      </trkpt>
      <trkpt lat="42.0125" lon="0.95895">
        <ele>1313.469</ele>
        <time>2021-07-22T09:08:23Z</time>
      </trkpt>
      <trkpt lat="42.01293" lon="0.96046">
        <ele>1310.943</ele>
        <time>2021-07-22T09:08:34Z</time>
      </trkpt>
      <trkpt lat="42.01248" lon="0.96163">
        <ele>1315.107</ele>
        <time>2021-07-22T09:08:45Z</time>
      </trkpt>
      <trkpt lat="42.01301" lon="0.96409">
        <ele>1311.407</ele>
        <time>2021-07-22T09:08:56Z</time>
      </trkpt>
      <trkpt lat="42.01317" lon="0.96527">
        <ele>1311.131</ele>
        <time>2021-07-22T09:09:07Z</time>
      </trkpt>
      <trkpt lat="42.01377" lon="0.96481">
        <ele>1307.595</ele>
        <time>2021-07-22T09:09:18Z</time>
      </trkpt>
      <trkpt lat="42.01411" lon="0.96577">
        <ele>1310.046</ele>
        <time>2021-07-22T09:09:29Z</time>
      </trkpt>
      <trkpt lat="42.01414" lon="0.96587">
        <ele>1308.425</ele>
        <time>2021-07-22T09:09:58Z</time>
      </trkpt>
      <trkpt lat="42.01457" lon="0.96772">
        <ele>1308.505</ele>
        <time>2021-07-22T09:10:09Z</time>
      </trkpt>
      <trkpt lat="42.01458" lon="0.96817">
        <ele>1310.43</ele>
        <time>2021-07-22T09:10:20Z</time>
      </trkpt>
      <trkpt lat="42.01461" lon="0.96858">
        <ele>1310.316</ele>
        <time>2021-07-22T09:10:31Z</time>
      </trkpt>
      <trkpt lat="42.01463" lon="0.96905">
        <ele>1310.484</ele>
        <time>2021-07-22T09:10:42Z</time>
      </trkpt>
      <trkpt lat="42.01473" lon="0.97115">
        <ele>1313.399</ele>
        <time>2021-07-22T09:10:53Z</time>
      </trkpt>
      <trkpt lat="42.01501" lon="0.97357">
        <ele>1311.953</ele>
        <time>2021-07-22T09:11:04Z</time>
      </trkpt>
      <trkpt lat="42.01491" lon="0.97511">
        <ele>1304.437</ele>
        <time>2021-07-22T09:11:15Z</time>
      </trkpt>
      <trkpt lat="42.01432" lon="0.9757">
        <ele>1296.504</ele>
        <time>2021-07-22T09:11:26Z</time>
      </trkpt>
      <trkpt lat="42.01473" lon="0.97644">
        <ele>1294.723</ele>
        <time>2021-07-22T09:11:37Z</time>
      </trkpt>
      <trkpt lat="42.0154" lon="0.97771">
        <ele>1291.1</ele>
        <time>2021-07-22T09:11:48Z</time>
      </trkpt>
      <trkpt lat="42.01554" lon="0.97957">
        <ele>1286.139</ele>
        <time>2021-07-22T09:11:59Z</time>
      </trkpt>
      <trkpt lat="42.0152" lon="0.98096">
        <ele>1278.746</ele>
        <time>2021-07-22T09:12:10Z</time>
      </trkpt>
      <trkpt lat="42.01465" lon="0.98037">
        <ele>1271.725</ele>
        <time>2021-07-22T09:12:21Z</time>
      </trkpt>
      <trkpt lat="42.01384" lon="0.98114">
        <ele>1269.436</ele>
        <time>2021-07-22T09:12:32Z</time>
      </trkpt>
      <trkpt lat="42.01435" lon="0.98215">
        <ele>1257.93</ele>
        <time>2021-07-22T09:12:43Z</time>
      </trkpt>
      <trkpt lat="42.01476" lon="0.98351">
        <ele>1244.113</ele>
        <time>2021-07-22T09:12:54Z</time>
      </trkpt>
      <trkpt lat="42.0149" lon="0.98518">
        <ele>1227.448</ele>
        <time>2021-07-22T09:13:05Z</time>
      </trkpt>
      <trkpt lat="42.01488" lon="0.9866">
        <ele>1207.495</ele>
        <time>2021-07-22T09:13:16Z</time>
      </trkpt>
      <trkpt lat="42.01539" lon="0.98697">
        <ele>1205.292</ele>
        <time>2021-07-22T09:13:27Z</time>
      </trkpt>
      <trkpt lat="42.016" lon="0.98765">
        <ele>1197.342</ele>
        <time>2021-07-22T09:13:38Z</time>
      </trkpt>
      <trkpt lat="42.01622" lon="0.98799">
        <ele>1191.686</ele>
        <time>2021-07-22T09:13:49Z</time>
      </trkpt>
      <trkpt lat="42.01592" lon="0.98846">
        <ele>1182.615</ele>
        <time>2021-07-22T09:14:00Z</time>
      </trkpt>
      <trkpt lat="42.01541" lon="0.98922">
        <ele>1167.774</ele>
        <time>2021-07-22T09:14:11Z</time>
      </trkpt>
      <trkpt lat="42.01549" lon="0.99018">
        <ele>1152.904</ele>
        <time>2021-07-22T09:14:22Z</time>
      </trkpt>
      <trkpt lat="42.01589" lon="0.99083">
        <ele>1141.118</ele>
        <time>2021-07-22T09:14:33Z</time>
      </trkpt>
      <trkpt lat="42.01592" lon="0.99133">
        <ele>1137.636</ele>
        <time>2021-07-22T09:14:44Z</time>
      </trkpt>
      <trkpt lat="42.01606" lon="0.99151">
        <ele>1138.701</ele>
        <time>2021-07-22T09:14:55Z</time>
      </trkpt>
      <trkpt lat="42.01636" lon="0.99206">
        <ele>1127.691</ele>
        <time>2021-07-22T09:15:06Z</time>
      </trkpt>
      <trkpt lat="42.01649" lon="0.99256">
        <ele>1125.57</ele>
        <time>2021-07-22T09:15:17Z</time>
      </trkpt>
      <trkpt lat="42.01584" lon="0.99372">
        <ele>1124.138</ele>
        <time>2021-07-22T09:15:28Z</time>
      </trkpt>
      <trkpt lat="42.01557" lon="0.9948">
        <ele>1104.921</ele>
        <time>2021-07-22T09:15:39Z</time>
      </trkpt>
      <trkpt lat="42.01531" lon="0.9957">
        <ele>1096.572</ele>
        <time>2021-07-22T09:15:50Z</time>
      </trkpt>
      <trkpt lat="42.0153" lon="0.99693">
        <ele>1095.438</ele>
        <time>2021-07-22T09:16:01Z</time>
      </trkpt>
      <trkpt lat="42.01588" lon="0.99754">
        <ele>1098.562</ele>
        <time>2021-07-22T09:16:12Z</time>
      </trkpt>
      <trkpt lat="42.01581" lon="0.99819">
        <ele>1091.694</ele>
        <time>2021-07-22T09:16:23Z</time>
      </trkpt>
      <trkpt lat="42.01587" lon="0.99897">
        <ele>1084.854</ele>
        <time>2021-07-22T09:16:34Z</time>
      </trkpt>
      <trkpt lat="42.01494" lon="0.99921">
        <ele>1083.603</ele>
        <time>2021-07-22T09:16:45Z</time>
      </trkpt>
      <trkpt lat="42.01414" lon="0.99974">
        <ele>1078.194</ele>
        <time>2021-07-22T09:16:56Z</time>
      </trkpt>
      <trkpt lat="42.0134" lon="1.00055">
        <ele>1059.462</ele>
        <time>2021-07-22T09:17:07Z</time>
      </trkpt>
      <trkpt lat="42.01252" lon="1.00094">
        <ele>1047.974</ele>
        <time>2021-07-22T09:17:18Z</time>
      </trkpt>
      <trkpt lat="42.01243" lon="1.00211">
        <ele>1042.316</ele>
        <time>2021-07-22T09:17:29Z</time>
      </trkpt>
      <trkpt lat="42.0119" lon="1.00302">
        <ele>1024.184</ele>
        <time>2021-07-22T09:17:40Z</time>
      </trkpt>
      <trkpt lat="42.01174" lon="1.00401">
        <ele>1016.817</ele>
        <time>2021-07-22T09:17:51Z</time>
      </trkpt>
      <trkpt lat="42.01179" lon="1.00533">
        <ele>1011.985</ele>
        <time>2021-07-22T09:18:02Z</time>
      </trkpt>
      <trkpt lat="42.01243" lon="1.00611">
        <ele>1008.111</ele>
        <time>2021-07-22T09:18:13Z</time>
      </trkpt>
      <trkpt lat="42.01197" lon="1.00707">
        <ele>1007.816</ele>
        <time>2021-07-22T09:18:24Z</time>
      </trkpt>
      <trkpt lat="42.01148" lon="1.00866">
        <ele>1005.665</ele>
        <time>2021-07-22T09:18:35Z</time>
      </trkpt>
      <trkpt lat="42.0113" lon="1.01027">
        <ele>991.777</ele>
        <time>2021-07-22T09:18:46Z</time>
      </trkpt>
      <trkpt lat="42.01148" lon="1.01163">
        <ele>972.3781</ele>
        <time>2021-07-22T09:18:57Z</time>
      </trkpt>
      <trkpt lat="42.01154" lon="1.01278">
        <ele>963.2312</ele>
        <time>2021-07-22T09:19:08Z</time>
      </trkpt>
      <trkpt lat="42.01225" lon="1.01355">
        <ele>971.7839</ele>
        <time>2021-07-22T09:19:19Z</time>
      </trkpt>
      <trkpt lat="42.01205" lon="1.01465">
        <ele>973.4006</ele>
        <time>2021-07-22T09:19:30Z</time>
      </trkpt>
      <trkpt lat="42.0117" lon="1.01586">
        <ele>959.8121</ele>
        <time>2021-07-22T09:19:41Z</time>
      </trkpt>
      <trkpt lat="42.0114" lon="1.01677">
        <ele>948.8949</ele>
        <time>2021-07-22T09:19:52Z</time>
      </trkpt>
      <trkpt lat="42.01088" lon="1.01765">
        <ele>948.0165</ele>
        <time>2021-07-22T09:20:03Z</time>
      </trkpt>
      <trkpt lat="42.01057" lon="1.01894">
        <ele>942.0195</ele>
        <time>2021-07-22T09:20:14Z</time>
      </trkpt>
      <trkpt lat="42.01027" lon="1.01884">
        <ele>934.4505</ele>
        <time>2021-07-22T09:20:25Z</time>
      </trkpt>
      <trkpt lat="42.01014" lon="1.01852">
        <ele>931.3029</ele>
        <time>2021-07-22T09:20:36Z</time>
      </trkpt>
      <trkpt lat="42.00943" lon="1.01853">
        <ele>931.2253</ele>
        <time>2021-07-22T09:20:47Z</time>
      </trkpt>
      <trkpt lat="42.00849" lon="1.01889">
        <ele>916.5693</ele>
        <time>2021-07-22T09:20:58Z</time>
      </trkpt>
      <trkpt lat="42.0086" lon="1.01995">
        <ele>909.7267</ele>
        <time>2021-07-22T09:21:09Z</time>
      </trkpt>
      <trkpt lat="42.00852" lon="1.02116">
        <ele>910.3657</ele>
        <time>2021-07-22T09:21:20Z</time>
      </trkpt>
      <trkpt lat="42.00798" lon="1.02227">
        <ele>903.8579</ele>
        <time>2021-07-22T09:21:31Z</time>
      </trkpt>
      <trkpt lat="42.00838" lon="1.0231">
        <ele>896.8752</ele>
        <time>2021-07-22T09:21:42Z</time>
      </trkpt>
      <trkpt lat="42.0083" lon="1.02406">
        <ele>886.707</ele>
        <time>2021-07-22T09:21:53Z</time>
      </trkpt>
      <trkpt lat="42.00778" lon="1.02536">
        <ele>868.7388</ele>
        <time>2021-07-22T09:22:04Z</time>
      </trkpt>
      <trkpt lat="42.00795" lon="1.02666">
        <ele>860.453</ele>
        <time>2021-07-22T09:22:15Z</time>
      </trkpt>
      <trkpt lat="42.00881" lon="1.02717">
        <ele>859.0752</ele>
        <time>2021-07-22T09:22:26Z</time>
      </trkpt>
      <trkpt lat="42.00946" lon="1.02636">
        <ele>857.339</ele>
        <time>2021-07-22T09:22:37Z</time>
      </trkpt>
      <trkpt lat="42.00984" lon="1.02543">
        <ele>856.0409</ele>
        <time>2021-07-22T09:22:48Z</time>
      </trkpt>
      <trkpt lat="42.01039" lon="1.0242">
        <ele>846.917</ele>
        <time>2021-07-22T09:22:59Z</time>
      </trkpt>
      <trkpt lat="42.0106" lon="1.02318">
        <ele>838.3554</ele>
        <time>2021-07-22T09:23:10Z</time>
      </trkpt>
      <trkpt lat="42.01149" lon="1.02374">
        <ele>827.9064</ele>
        <time>2021-07-22T09:23:21Z</time>
      </trkpt>
      <trkpt lat="42.01207" lon="1.0246">
        <ele>819.6342</ele>
        <time>2021-07-22T09:23:32Z</time>
      </trkpt>
      <trkpt lat="42.01235" lon="1.02374">
        <ele>813.4693</ele>
        <time>2021-07-22T09:23:43Z</time>
      </trkpt>
      <trkpt lat="42.0126" lon="1.02326">
        <ele>807.3987</ele>
        <time>2021-07-22T09:23:54Z</time>
      </trkpt>
      <trkpt lat="42.01285" lon="1.02435">
        <ele>803.4419</ele>
        <time>2021-07-22T09:24:05Z</time>
      </trkpt>
      <trkpt lat="42.01327" lon="1.02574">
        <ele>793.2788</ele>
        <time>2021-07-22T09:24:16Z</time>
      </trkpt>
      <trkpt lat="42.01354" lon="1.02701">
        <ele>785.8599</ele>
        <time>2021-07-22T09:24:27Z</time>
      </trkpt>
      <trkpt lat="42.01376" lon="1.02824">
        <ele>778.1487</ele>
        <time>2021-07-22T09:24:38Z</time>
      </trkpt>
      <trkpt lat="42.01412" lon="1.0288">
        <ele>774.3318</ele>
        <time>2021-07-22T09:24:49Z</time>
      </trkpt>
      <trkpt lat="42.01501" lon="1.02901">
        <ele>770.174</ele>
        <time>2021-07-22T09:25:00Z</time>
      </trkpt>
      <trkpt lat="42.01566" lon="1.02891">
        <ele>767.0938</ele>
        <time>2021-07-22T09:25:11Z</time>
      </trkpt>
      <trkpt lat="42.01693" lon="1.02845">
        <ele>781.4751</ele>
        <time>2021-07-22T09:25:22Z</time>
      </trkpt>
      <trkpt lat="42.0183" lon="1.02914">
        <ele>788.1005</ele>
        <time>2021-07-22T09:25:33Z</time>
      </trkpt>
      <trkpt lat="42.01975" lon="1.02983">
        <ele>800.8275</ele>
        <time>2021-07-22T09:25:44Z</time>
      </trkpt>
      <trkpt lat="42.02086" lon="1.03024">
        <ele>807.0827</ele>
        <time>2021-07-22T09:25:55Z</time>
      </trkpt>
      <trkpt lat="42.02091" lon="1.03021">
        <ele>805.6926</ele>
        <time>2021-07-22T09:26:06Z</time>
      </trkpt>
      <trkpt lat="42.021" lon="1.03015">
        <ele>807.9448</ele>
        <time>2021-07-22T09:26:17Z</time>
      </trkpt>
      <trkpt lat="42.02098" lon="1.03017">
        <ele>816.4667</ele>
        <time>2021-07-22T09:27:16Z</time>
      </trkpt>
      <trkpt lat="42.02097" lon="1.03016">
        <ele>798.8158</ele>
        <time>2021-07-22T09:28:15Z</time>
      </trkpt>
      <trkpt lat="42.02097" lon="1.03015">
        <ele>798.8381</ele>
        <time>2021-07-22T09:29:14Z</time>
      </trkpt>
      <trkpt lat="42.02095" lon="1.0302">
        <ele>799.4948</ele>
        <time>2021-07-22T09:29:26Z</time>
      </trkpt>
      <trkpt lat="42.02099" lon="1.03017">
        <ele>799.3787</ele>
        <time>2021-07-22T09:29:47Z</time>
      </trkpt>
      <trkpt lat="42.02095" lon="1.03017">
        <ele>798.022</ele>
        <time>2021-07-22T09:30:12Z</time>
      </trkpt>
      <trkpt lat="42.02099" lon="1.03018">
        <ele>798.3864</ele>
        <time>2021-07-22T09:30:47Z</time>
      </trkpt>
      <trkpt lat="42.02099" lon="1.03019">
        <ele>798.0682</ele>
        <time>2021-07-22T09:31:46Z</time>
      </trkpt>
      <trkpt lat="42.02102" lon="1.03022">
        <ele>799.9275</ele>
        <time>2021-07-22T09:32:00Z</time>
      </trkpt>
      <trkpt lat="42.02099" lon="1.03019">
        <ele>800.1831</ele>
        <time>2021-07-22T09:32:13Z</time>
      </trkpt>
      <trkpt lat="42.02098" lon="1.03014">
        <ele>798.6688</ele>
        <time>2021-07-22T09:32:58Z</time>
      </trkpt>
      <trkpt lat="42.021" lon="1.03019">
        <ele>798.5183</ele>
        <time>2021-07-22T09:33:54Z</time>
      </trkpt>
      <trkpt lat="42.02102" lon="1.03015">
        <ele>798.734</ele>
        <time>2021-07-22T09:34:06Z</time>
      </trkpt>
      <trkpt lat="42.02102" lon="1.03022">
        <ele>798.8983</ele>
        <time>2021-07-22T09:34:27Z</time>
      </trkpt>
      <trkpt lat="42.02101" lon="1.03022">
        <ele>800.0871</ele>
        <time>2021-07-22T09:35:27Z</time>
      </trkpt>
      <trkpt lat="42.02097" lon="1.0302">
        <ele>800.8449</ele>
        <time>2021-07-22T09:35:49Z</time>
      </trkpt>
      <trkpt lat="42.02098" lon="1.03018">
        <ele>799.4236</ele>
        <time>2021-07-22T09:36:49Z</time>
      </trkpt>
      <trkpt lat="42.02095" lon="1.03015">
        <ele>798.6532</ele>
        <time>2021-07-22T09:37:18Z</time>
      </trkpt>
      <trkpt lat="42.02097" lon="1.03017">
        <ele>797.6283</ele>
        <time>2021-07-22T09:38:18Z</time>
      </trkpt>
      <trkpt lat="42.02097" lon="1.03017">
        <ele>797.6283</ele>
        <time>2021-07-22T09:39:18Z</time>
      </trkpt>
      <trkpt lat="42.02101" lon="1.0301">
        <ele>798.5791</ele>
        <time>2021-07-22T09:40:00Z</time>
      </trkpt>
      <trkpt lat="42.02105" lon="1.03012">
        <ele>799.2144</ele>
        <time>2021-07-22T09:40:26Z</time>
      </trkpt>
      <trkpt lat="42.02097" lon="1.03018">
        <ele>799.8837</ele>
        <time>2021-07-22T09:41:22Z</time>
      </trkpt>
      <trkpt lat="42.02101" lon="1.03018">
        <ele>798.4483</ele>
        <time>2021-07-22T09:42:08Z</time>
      </trkpt>
      <trkpt lat="42.0209" lon="1.03022">
        <ele>800.9154</ele>
        <time>2021-07-22T09:42:19Z</time>
      </trkpt>
      <trkpt lat="42.02086" lon="1.03035">
        <ele>800.9474</ele>
        <time>2021-07-22T09:42:30Z</time>
      </trkpt>
      <trkpt lat="42.02085" lon="1.03043">
        <ele>802.8864</ele>
        <time>2021-07-22T09:42:57Z</time>
      </trkpt>
      <trkpt lat="42.01986" lon="1.03133">
        <ele>814.0282</ele>
        <time>2021-07-22T09:43:08Z</time>
      </trkpt>
      <trkpt lat="42.01903" lon="1.03264">
        <ele>818.1991</ele>
        <time>2021-07-22T09:43:19Z</time>
      </trkpt>
      <trkpt lat="42.0181" lon="1.03343">
        <ele>825.5314</ele>
        <time>2021-07-22T09:43:30Z</time>
      </trkpt>
      <trkpt lat="42.01683" lon="1.03317">
        <ele>833.3828</ele>
        <time>2021-07-22T09:43:41Z</time>
      </trkpt>
      <trkpt lat="42.01571" lon="1.03317">
        <ele>841.751</ele>
        <time>2021-07-22T09:43:52Z</time>
      </trkpt>
      <trkpt lat="42.01635" lon="1.03367">
        <ele>846.1167</ele>
        <time>2021-07-22T09:44:03Z</time>
      </trkpt>
      <trkpt lat="42.01787" lon="1.03429">
        <ele>854.5054</ele>
        <time>2021-07-22T09:44:14Z</time>
      </trkpt>
      <trkpt lat="42.01902" lon="1.03471">
        <ele>862.0711</ele>
        <time>2021-07-22T09:44:25Z</time>
      </trkpt>
      <trkpt lat="42.02024" lon="1.03326">
        <ele>873.3135</ele>
        <time>2021-07-22T09:44:36Z</time>
      </trkpt>
      <trkpt lat="42.02125" lon="1.03361">
        <ele>879.3686</ele>
        <time>2021-07-22T09:44:47Z</time>
      </trkpt>
      <trkpt lat="42.02253" lon="1.03479">
        <ele>890.1155</ele>
        <time>2021-07-22T09:44:58Z</time>
      </trkpt>
      <trkpt lat="42.02369" lon="1.03507">
        <ele>897.5195</ele>
        <time>2021-07-22T09:45:09Z</time>
      </trkpt>
      <trkpt lat="42.02487" lon="1.03562">
        <ele>912.2622</ele>
        <time>2021-07-22T09:45:20Z</time>
      </trkpt>
      <trkpt lat="42.026" lon="1.03473">
        <ele>909.6964</ele>
        <time>2021-07-22T09:45:31Z</time>
      </trkpt>
      <trkpt lat="42.02738" lon="1.0332">
        <ele>917.5852</ele>
        <time>2021-07-22T09:45:42Z</time>
      </trkpt>
      <trkpt lat="42.02798" lon="1.03136">
        <ele>942.016</ele>
        <time>2021-07-22T09:45:53Z</time>
      </trkpt>
      <trkpt lat="42.02771" lon="1.03">
        <ele>960.273</ele>
        <time>2021-07-22T09:46:04Z</time>
      </trkpt>
      <trkpt lat="42.02708" lon="1.02854">
        <ele>976.7949</ele>
        <time>2021-07-22T09:46:15Z</time>
      </trkpt>
      <trkpt lat="42.02789" lon="1.02805">
        <ele>981.0614</ele>
        <time>2021-07-22T09:46:26Z</time>
      </trkpt>
      <trkpt lat="42.02938" lon="1.02824">
        <ele>978.382</ele>
        <time>2021-07-22T09:46:37Z</time>
      </trkpt>
      <trkpt lat="42.02983" lon="1.02717">
        <ele>983.8878</ele>
        <time>2021-07-22T09:46:48Z</time>
      </trkpt>
      <trkpt lat="42.03005" lon="1.02679">
        <ele>997.1921</ele>
        <time>2021-07-22T09:46:59Z</time>
      </trkpt>
      <trkpt lat="42.03076" lon="1.02827">
        <ele>996.6732</ele>
        <time>2021-07-22T09:47:10Z</time>
      </trkpt>
      <trkpt lat="42.03198" lon="1.02653">
        <ele>999.1953</ele>
        <time>2021-07-22T09:47:21Z</time>
      </trkpt>
      <trkpt lat="42.03254" lon="1.02466">
        <ele>997.8589</ele>
        <time>2021-07-22T09:47:32Z</time>
      </trkpt>
      <trkpt lat="42.03344" lon="1.02337">
        <ele>1013.661</ele>
        <time>2021-07-22T09:47:43Z</time>
      </trkpt>
      <trkpt lat="42.03392" lon="1.02168">
        <ele>1025.325</ele>
        <time>2021-07-22T09:47:54Z</time>
      </trkpt>
      <trkpt lat="42.03518" lon="1.01991">
        <ele>1027.121</ele>
        <time>2021-07-22T09:48:05Z</time>
      </trkpt>
      <trkpt lat="42.03639" lon="1.0193">
        <ele>1029.259</ele>
        <time>2021-07-22T09:48:16Z</time>
      </trkpt>
      <trkpt lat="42.03739" lon="1.0197">
        <ele>1031.113</ele>
        <time>2021-07-22T09:48:27Z</time>
      </trkpt>
      <trkpt lat="42.03873" lon="1.01994">
        <ele>1028.804</ele>
        <time>2021-07-22T09:48:38Z</time>
      </trkpt>
      <trkpt lat="42.04032" lon="1.02132">
        <ele>1042.544</ele>
        <time>2021-07-22T09:48:49Z</time>
      </trkpt>
      <trkpt lat="42.04121" lon="1.02137">
        <ele>1040.526</ele>
        <time>2021-07-22T09:49:00Z</time>
      </trkpt>
      <trkpt lat="42.04186" lon="1.02133">
        <ele>1034.731</ele>
        <time>2021-07-22T09:49:11Z</time>
      </trkpt>
      <trkpt lat="42.04198" lon="1.01996">
        <ele>1035.027</ele>
        <time>2021-07-22T09:49:22Z</time>
      </trkpt>
      <trkpt lat="42.04268" lon="1.02007">
        <ele>1032.427</ele>
        <time>2021-07-22T09:49:33Z</time>
      </trkpt>
      <trkpt lat="42.04323" lon="1.02073">
        <ele>1020.678</ele>
        <time>2021-07-22T09:49:44Z</time>
      </trkpt>
      <trkpt lat="42.04373" lon="1.02159">
        <ele>1004.1</ele>
        <time>2021-07-22T09:49:55Z</time>
      </trkpt>
      <trkpt lat="42.0444" lon="1.02104">
        <ele>995.9341</ele>
        <time>2021-07-22T09:50:06Z</time>
      </trkpt>
      <trkpt lat="42.04496" lon="1.02156">
        <ele>992.1957</ele>
        <time>2021-07-22T09:50:17Z</time>
      </trkpt>
      <trkpt lat="42.04478" lon="1.02232">
        <ele>984.9838</ele>
        <time>2021-07-22T09:50:28Z</time>
      </trkpt>
      <trkpt lat="42.04498" lon="1.02305">
        <ele>980.2201</ele>
        <time>2021-07-22T09:50:39Z</time>
      </trkpt>
      <trkpt lat="42.0459" lon="1.02335">
        <ele>973.4135</ele>
        <time>2021-07-22T09:50:50Z</time>
      </trkpt>
      <trkpt lat="42.04669" lon="1.02295">
        <ele>967.1953</ele>
        <time>2021-07-22T09:51:01Z</time>
      </trkpt>
      <trkpt lat="42.04739" lon="1.02248">
        <ele>961.4044</ele>
        <time>2021-07-22T09:51:12Z</time>
      </trkpt>
      <trkpt lat="42.04709" lon="1.02388">
        <ele>963.2351</ele>
        <time>2021-07-22T09:51:23Z</time>
      </trkpt>
      <trkpt lat="42.04773" lon="1.02499">
        <ele>966.8623</ele>
        <time>2021-07-22T09:51:34Z</time>
      </trkpt>
      <trkpt lat="42.04819" lon="1.02619">
        <ele>964.2256</ele>
        <time>2021-07-22T09:51:45Z</time>
      </trkpt>
      <trkpt lat="42.04903" lon="1.02779">
        <ele>964.6328</ele>
        <time>2021-07-22T09:51:56Z</time>
      </trkpt>
      <trkpt lat="42.04928" lon="1.02877">
        <ele>959.261</ele>
        <time>2021-07-22T09:52:07Z</time>
      </trkpt>
      <trkpt lat="42.04859" lon="1.03065">
        <ele>946.6059</ele>
        <time>2021-07-22T09:52:18Z</time>
      </trkpt>
      <trkpt lat="42.04797" lon="1.03117">
        <ele>917.0701</ele>
        <time>2021-07-22T09:52:29Z</time>
      </trkpt>
      <trkpt lat="42.04706" lon="1.03274">
        <ele>931.3225</ele>
        <time>2021-07-22T09:52:40Z</time>
      </trkpt>
      <trkpt lat="42.04629" lon="1.03386">
        <ele>921.6274</ele>
        <time>2021-07-22T09:52:51Z</time>
      </trkpt>
      <trkpt lat="42.04558" lon="1.03479">
        <ele>910.9198</ele>
        <time>2021-07-22T09:53:02Z</time>
      </trkpt>
      <trkpt lat="42.04574" lon="1.03574">
        <ele>908.8972</ele>
        <time>2021-07-22T09:53:13Z</time>
      </trkpt>
      <trkpt lat="42.04508" lon="1.03515">
        <ele>902.7543</ele>
        <time>2021-07-22T09:53:24Z</time>
      </trkpt>
      <trkpt lat="42.04467" lon="1.03564">
        <ele>891.4963</ele>
        <time>2021-07-22T09:53:35Z</time>
      </trkpt>
      <trkpt lat="42.04498" lon="1.03716">
        <ele>882.025</ele>
        <time>2021-07-22T09:53:46Z</time>
      </trkpt>
      <trkpt lat="42.04498" lon="1.03738">
        <ele>883.0268</ele>
        <time>2021-07-22T09:53:57Z</time>
      </trkpt>
      <trkpt lat="42.04439" lon="1.03773">
        <ele>885.4371</ele>
        <time>2021-07-22T09:54:08Z</time>
      </trkpt>
      <trkpt lat="42.04481" lon="1.04025">
        <ele>891.9374</ele>
        <time>2021-07-22T09:54:19Z</time>
      </trkpt>
      <trkpt lat="42.04478" lon="1.04186">
        <ele>904.6129</ele>
        <time>2021-07-22T09:54:30Z</time>
      </trkpt>
      <trkpt lat="42.04451" lon="1.04407">
        <ele>913.3689</ele>
        <time>2021-07-22T09:54:41Z</time>
      </trkpt>
      <trkpt lat="42.04365" lon="1.04581">
        <ele>924.2851</ele>
        <time>2021-07-22T09:54:52Z</time>
      </trkpt>
      <trkpt lat="42.04218" lon="1.0451">
        <ele>935.6263</ele>
        <time>2021-07-22T09:55:03Z</time>
      </trkpt>
      <trkpt lat="42.04155" lon="1.04714">
        <ele>941.4869</ele>
        <time>2021-07-22T09:55:14Z</time>
      </trkpt>
      <trkpt lat="42.04024" lon="1.04754">
        <ele>949.2716</ele>
        <time>2021-07-22T09:55:25Z</time>
      </trkpt>
      <trkpt lat="42.04035" lon="1.04953">
        <ele>958.0156</ele>
        <time>2021-07-22T09:55:36Z</time>
      </trkpt>
      <trkpt lat="42.04186" lon="1.05171">
        <ele>967.5438</ele>
        <time>2021-07-22T09:55:47Z</time>
      </trkpt>
      <trkpt lat="42.0427" lon="1.05352">
        <ele>967.5947</ele>
        <time>2021-07-22T09:55:58Z</time>
      </trkpt>
      <trkpt lat="42.04286" lon="1.05538">
        <ele>982.9856</ele>
        <time>2021-07-22T09:56:09Z</time>
      </trkpt>
      <trkpt lat="42.04303" lon="1.05743">
        <ele>981.9556</ele>
        <time>2021-07-22T09:56:20Z</time>
      </trkpt>
      <trkpt lat="42.04391" lon="1.05959">
        <ele>993.2842</ele>
        <time>2021-07-22T09:56:31Z</time>
      </trkpt>
      <trkpt lat="42.04485" lon="1.06145">
        <ele>1002.295</ele>
        <time>2021-07-22T09:56:42Z</time>
      </trkpt>
      <trkpt lat="42.04591" lon="1.06395">
        <ele>1008.881</ele>
        <time>2021-07-22T09:56:53Z</time>
      </trkpt>
      <trkpt lat="42.04472" lon="1.06578">
        <ele>1016.709</ele>
        <time>2021-07-22T09:57:04Z</time>
      </trkpt>
      <trkpt lat="42.04355" lon="1.06792">
        <ele>1027.515</ele>
        <time>2021-07-22T09:57:15Z</time>
      </trkpt>
      <trkpt lat="42.04495" lon="1.07073">
        <ele>1035.534</ele>
        <time>2021-07-22T09:57:26Z</time>
      </trkpt>
      <trkpt lat="42.04709" lon="1.07318">
        <ele>1047.763</ele>
        <time>2021-07-22T09:57:37Z</time>
      </trkpt>
      <trkpt lat="42.04811" lon="1.07471">
        <ele>1056.52</ele>
        <time>2021-07-22T09:57:48Z</time>
      </trkpt>
      <trkpt lat="42.04975" lon="1.07634">
        <ele>1064.12</ele>
        <time>2021-07-22T09:57:59Z</time>
      </trkpt>
      <trkpt lat="42.05133" lon="1.07832">
        <ele>1074.914</ele>
        <time>2021-07-22T09:58:10Z</time>
      </trkpt>
      <trkpt lat="42.05222" lon="1.08102">
        <ele>1083.196</ele>
        <time>2021-07-22T09:58:21Z</time>
      </trkpt>
      <trkpt lat="42.05336" lon="1.08353">
        <ele>1086.837</ele>
        <time>2021-07-22T09:58:32Z</time>
      </trkpt>
      <trkpt lat="42.05427" lon="1.08584">
        <ele>1094.703</ele>
        <time>2021-07-22T09:58:43Z</time>
      </trkpt>
      <trkpt lat="42.05505" lon="1.0881">
        <ele>1098.955</ele>
        <time>2021-07-22T09:58:54Z</time>
      </trkpt>
      <trkpt lat="42.05497" lon="1.08972">
        <ele>1100.779</ele>
        <time>2021-07-22T09:59:05Z</time>
      </trkpt>
      <trkpt lat="42.05493" lon="1.08978">
        <ele>1101.929</ele>
        <time>2021-07-22T09:59:16Z</time>
      </trkpt>
      <trkpt lat="42.05481" lon="1.08988">
        <ele>1103.479</ele>
        <time>2021-07-22T09:59:27Z</time>
      </trkpt>
      <trkpt lat="42.0533" lon="1.09122">
        <ele>1101.422</ele>
        <time>2021-07-22T09:59:38Z</time>
      </trkpt>
      <trkpt lat="42.05192" lon="1.09417">
        <ele>1097.868</ele>
        <time>2021-07-22T09:59:49Z</time>
      </trkpt>
      <trkpt lat="42.04975" lon="1.0952">
        <ele>1089.875</ele>
        <time>2021-07-22T10:00:00Z</time>
      </trkpt>
      <trkpt lat="42.04768" lon="1.09546">
        <ele>1082.75</ele>
        <time>2021-07-22T10:00:11Z</time>
      </trkpt>
      <trkpt lat="42.04683" lon="1.09687">
        <ele>1082.275</ele>
        <time>2021-07-22T10:00:22Z</time>
      </trkpt>
      <trkpt lat="42.04688" lon="1.09907">
        <ele>1077.443</ele>
        <time>2021-07-22T10:00:33Z</time>
      </trkpt>
      <trkpt lat="42.04648" lon="1.10007">
        <ele>1068.405</ele>
        <time>2021-07-22T10:00:44Z</time>
      </trkpt>
      <trkpt lat="42.04801" lon="1.09971">
        <ele>1074.173</ele>
        <time>2021-07-22T10:00:55Z</time>
      </trkpt>
      <trkpt lat="42.04777" lon="1.10005">
        <ele>1078.312</ele>
        <time>2021-07-22T10:01:06Z</time>
      </trkpt>
      <trkpt lat="42.04727" lon="1.10091">
        <ele>1082.043</ele>
        <time>2021-07-22T10:01:17Z</time>
      </trkpt>
      <trkpt lat="42.04889" lon="1.10065">
        <ele>1094.656</ele>
        <time>2021-07-22T10:01:28Z</time>
      </trkpt>
      <trkpt lat="42.05064" lon="1.09979">
        <ele>1094.391</ele>
        <time>2021-07-22T10:01:39Z</time>
      </trkpt>
      <trkpt lat="42.05216" lon="1.09886">
        <ele>1108.721</ele>
        <time>2021-07-22T10:01:50Z</time>
      </trkpt>
      <trkpt lat="42.05232" lon="1.09878">
        <ele>1108.299</ele>
        <time>2021-07-22T10:02:01Z</time>
      </trkpt>
      <trkpt lat="42.05228" lon="1.09879">
        <ele>1108.291</ele>
        <time>2021-07-22T10:02:22Z</time>
      </trkpt>
      <trkpt lat="42.05232" lon="1.09877">
        <ele>1106.951</ele>
        <time>2021-07-22T10:02:54Z</time>
      </trkpt>
      <trkpt lat="42.0524" lon="1.09872">
        <ele>1108.839</ele>
        <time>2021-07-22T10:03:28Z</time>
      </trkpt>
      <trkpt lat="42.05367" lon="1.09867">
        <ele>1121.016</ele>
        <time>2021-07-22T10:03:39Z</time>
      </trkpt>
      <trkpt lat="42.05497" lon="1.09847">
        <ele>1123.105</ele>
        <time>2021-07-22T10:03:50Z</time>
      </trkpt>
      <trkpt lat="42.05653" lon="1.09862">
        <ele>1130.713</ele>
        <time>2021-07-22T10:04:01Z</time>
      </trkpt>
      <trkpt lat="42.05727" lon="1.10006">
        <ele>1132.923</ele>
        <time>2021-07-22T10:04:12Z</time>
      </trkpt>
      <trkpt lat="42.05713" lon="1.10196">
        <ele>1136.117</ele>
        <time>2021-07-22T10:04:23Z</time>
      </trkpt>
      <trkpt lat="42.05824" lon="1.10217">
        <ele>1129.389</ele>
        <time>2021-07-22T10:04:34Z</time>
      </trkpt>
      <trkpt lat="42.05915" lon="1.1028">
        <ele>1127.094</ele>
        <time>2021-07-22T10:04:45Z</time>
      </trkpt>
      <trkpt lat="42.0608" lon="1.10204">
        <ele>1120.125</ele>
        <time>2021-07-22T10:04:56Z</time>
      </trkpt>
      <trkpt lat="42.06173" lon="1.10176">
        <ele>1119.827</ele>
        <time>2021-07-22T10:05:07Z</time>
      </trkpt>
      <trkpt lat="42.06084" lon="1.10379">
        <ele>1118.047</ele>
        <time>2021-07-22T10:05:18Z</time>
      </trkpt>
      <trkpt lat="42.06021" lon="1.10539">
        <ele>1129.151</ele>
        <time>2021-07-22T10:05:29Z</time>
      </trkpt>
      <trkpt lat="42.0604" lon="1.10532">
        <ele>1129.025</ele>
        <time>2021-07-22T10:05:40Z</time>
      </trkpt>
      <trkpt lat="42.06081" lon="1.1055">
        <ele>1125.162</ele>
        <time>2021-07-22T10:05:51Z</time>
      </trkpt>
      <trkpt lat="42.06221" lon="1.10523">
        <ele>1117.584</ele>
        <time>2021-07-22T10:06:02Z</time>
      </trkpt>
      <trkpt lat="42.06193" lon="1.10606">
        <ele>1113.264</ele>
        <time>2021-07-22T10:06:13Z</time>
      </trkpt>
      <trkpt lat="42.06098" lon="1.108">
        <ele>1122.627</ele>
        <time>2021-07-22T10:06:24Z</time>
      </trkpt>
      <trkpt lat="42.06103" lon="1.10934">
        <ele>1128.213</ele>
        <time>2021-07-22T10:06:35Z</time>
      </trkpt>
      <trkpt lat="42.06214" lon="1.10836">
        <ele>1136.575</ele>
        <time>2021-07-22T10:06:46Z</time>
      </trkpt>
      <trkpt lat="42.06346" lon="1.10736">
        <ele>1145.887</ele>
        <time>2021-07-22T10:06:57Z</time>
      </trkpt>
      <trkpt lat="42.06482" lon="1.10658">
        <ele>1151.769</ele>
        <time>2021-07-22T10:07:08Z</time>
      </trkpt>
      <trkpt lat="42.06632" lon="1.1058">
        <ele>1158.698</ele>
        <time>2021-07-22T10:07:19Z</time>
      </trkpt>
      <trkpt lat="42.0674" lon="1.10594">
        <ele>1167.736</ele>
        <time>2021-07-22T10:07:30Z</time>
      </trkpt>
      <trkpt lat="42.06826" lon="1.10681">
        <ele>1178.011</ele>
        <time>2021-07-22T10:07:41Z</time>
      </trkpt>
      <trkpt lat="42.06898" lon="1.10495">
        <ele>1188.61</ele>
        <time>2021-07-22T10:07:52Z</time>
      </trkpt>
      <trkpt lat="42.07029" lon="1.10412">
        <ele>1181.344</ele>
        <time>2021-07-22T10:08:03Z</time>
      </trkpt>
      <trkpt lat="42.07126" lon="1.10391">
        <ele>1186.663</ele>
        <time>2021-07-22T10:08:14Z</time>
      </trkpt>
      <trkpt lat="42.072" lon="1.10291">
        <ele>1187.857</ele>
        <time>2021-07-22T10:08:25Z</time>
      </trkpt>
      <trkpt lat="42.07289" lon="1.10241">
        <ele>1192.727</ele>
        <time>2021-07-22T10:08:36Z</time>
      </trkpt>
      <trkpt lat="42.07375" lon="1.10278">
        <ele>1189.718</ele>
        <time>2021-07-22T10:08:47Z</time>
      </trkpt>
      <trkpt lat="42.07483" lon="1.1024">
        <ele>1187.985</ele>
        <time>2021-07-22T10:08:58Z</time>
      </trkpt>
      <trkpt lat="42.07514" lon="1.10279">
        <ele>1197.75</ele>
        <time>2021-07-22T10:09:09Z</time>
      </trkpt>
      <trkpt lat="42.07505" lon="1.10247">
        <ele>1188.248</ele>
        <time>2021-07-22T10:09:20Z</time>
      </trkpt>
      <trkpt lat="42.07505" lon="1.10414">
        <ele>1190.736</ele>
        <time>2021-07-22T10:09:31Z</time>
      </trkpt>
      <trkpt lat="42.07492" lon="1.10544">
        <ele>1195.561</ele>
        <time>2021-07-22T10:09:42Z</time>
      </trkpt>
      <trkpt lat="42.07519" lon="1.10557">
        <ele>1195.057</ele>
        <time>2021-07-22T10:09:53Z</time>
      </trkpt>
      <trkpt lat="42.07593" lon="1.10539">
        <ele>1189.78</ele>
        <time>2021-07-22T10:10:05Z</time>
      </trkpt>
      <trkpt lat="42.07729" lon="1.10479">
        <ele>1183.944</ele>
        <time>2021-07-22T10:10:16Z</time>
      </trkpt>
      <trkpt lat="42.07818" lon="1.10536">
        <ele>1184.677</ele>
        <time>2021-07-22T10:10:27Z</time>
      </trkpt>
      <trkpt lat="42.07862" lon="1.10633">
        <ele>1187.863</ele>
        <time>2021-07-22T10:10:38Z</time>
      </trkpt>
      <trkpt lat="42.07698" lon="1.10725">
        <ele>1188.873</ele>
        <time>2021-07-22T10:10:49Z</time>
      </trkpt>
      <trkpt lat="42.07638" lon="1.10884">
        <ele>1189.655</ele>
        <time>2021-07-22T10:11:00Z</time>
      </trkpt>
      <trkpt lat="42.07696" lon="1.10931">
        <ele>1195.189</ele>
        <time>2021-07-22T10:11:11Z</time>
      </trkpt>
      <trkpt lat="42.07835" lon="1.10899">
        <ele>1205.107</ele>
        <time>2021-07-22T10:11:22Z</time>
      </trkpt>
      <trkpt lat="42.07977" lon="1.10845">
        <ele>1208.74</ele>
        <time>2021-07-22T10:11:33Z</time>
      </trkpt>
      <trkpt lat="42.08015" lon="1.1089">
        <ele>1209.776</ele>
        <time>2021-07-22T10:11:44Z</time>
      </trkpt>
      <trkpt lat="42.07915" lon="1.1104">
        <ele>1201.553</ele>
        <time>2021-07-22T10:11:55Z</time>
      </trkpt>
      <trkpt lat="42.07975" lon="1.11096">
        <ele>1206.833</ele>
        <time>2021-07-22T10:12:06Z</time>
      </trkpt>
      <trkpt lat="42.0813" lon="1.11083">
        <ele>1218.065</ele>
        <time>2021-07-22T10:12:17Z</time>
      </trkpt>
      <trkpt lat="42.08271" lon="1.1107">
        <ele>1227.868</ele>
        <time>2021-07-22T10:12:28Z</time>
      </trkpt>
      <trkpt lat="42.08398" lon="1.11123">
        <ele>1222.844</ele>
        <time>2021-07-22T10:12:39Z</time>
      </trkpt>
      <trkpt lat="42.08482" lon="1.11161">
        <ele>1221.351</ele>
        <time>2021-07-22T10:12:50Z</time>
      </trkpt>
      <trkpt lat="42.08562" lon="1.11246">
        <ele>1225.141</ele>
        <time>2021-07-22T10:13:01Z</time>
      </trkpt>
      <trkpt lat="42.08622" lon="1.11317">
        <ele>1224.749</ele>
        <time>2021-07-22T10:13:12Z</time>
      </trkpt>
      <trkpt lat="42.08502" lon="1.11443">
        <ele>1231.1</ele>
        <time>2021-07-22T10:13:23Z</time>
      </trkpt>
      <trkpt lat="42.08447" lon="1.11532">
        <ele>1235.68</ele>
        <time>2021-07-22T10:13:34Z</time>
      </trkpt>
      <trkpt lat="42.08517" lon="1.11621">
        <ele>1229.595</ele>
        <time>2021-07-22T10:13:45Z</time>
      </trkpt>
      <trkpt lat="42.08612" lon="1.11674">
        <ele>1224.51</ele>
        <time>2021-07-22T10:13:56Z</time>
      </trkpt>
      <trkpt lat="42.08726" lon="1.11679">
        <ele>1218.959</ele>
        <time>2021-07-22T10:14:07Z</time>
      </trkpt>
      <trkpt lat="42.08747" lon="1.11769">
        <ele>1214.155</ele>
        <time>2021-07-22T10:14:18Z</time>
      </trkpt>
      <trkpt lat="42.08667" lon="1.11892">
        <ele>1217.75</ele>
        <time>2021-07-22T10:14:29Z</time>
      </trkpt>
      <trkpt lat="42.08596" lon="1.12028">
        <ele>1224.618</ele>
        <time>2021-07-22T10:14:40Z</time>
      </trkpt>
      <trkpt lat="42.08718" lon="1.12021">
        <ele>1230.205</ele>
        <time>2021-07-22T10:14:51Z</time>
      </trkpt>
      <trkpt lat="42.08807" lon="1.12055">
        <ele>1233.983</ele>
        <time>2021-07-22T10:15:02Z</time>
      </trkpt>
      <trkpt lat="42.08802" lon="1.1222">
        <ele>1231.613</ele>
        <time>2021-07-22T10:15:13Z</time>
      </trkpt>
      <trkpt lat="42.08892" lon="1.12183">
        <ele>1229.995</ele>
        <time>2021-07-22T10:15:24Z</time>
      </trkpt>
      <trkpt lat="42.08974" lon="1.12123">
        <ele>1222.109</ele>
        <time>2021-07-22T10:15:35Z</time>
      </trkpt>
      <trkpt lat="42.09052" lon="1.12106">
        <ele>1212.139</ele>
        <time>2021-07-22T10:15:46Z</time>
      </trkpt>
      <trkpt lat="42.091" lon="1.12162">
        <ele>1210.634</ele>
        <time>2021-07-22T10:15:57Z</time>
      </trkpt>
      <trkpt lat="42.09053" lon="1.1227">
        <ele>1201.787</ele>
        <time>2021-07-22T10:16:08Z</time>
      </trkpt>
      <trkpt lat="42.0904" lon="1.12401">
        <ele>1187.423</ele>
        <time>2021-07-22T10:16:19Z</time>
      </trkpt>
      <trkpt lat="42.09045" lon="1.12526">
        <ele>1177.721</ele>
        <time>2021-07-22T10:16:30Z</time>
      </trkpt>
      <trkpt lat="42.09079" lon="1.12622">
        <ele>1170.668</ele>
        <time>2021-07-22T10:16:41Z</time>
      </trkpt>
      <trkpt lat="42.09157" lon="1.12663">
        <ele>1163.287</ele>
        <time>2021-07-22T10:16:52Z</time>
      </trkpt>
      <trkpt lat="42.09219" lon="1.12634">
        <ele>1161.084</ele>
        <time>2021-07-22T10:17:03Z</time>
      </trkpt>
      <trkpt lat="42.09255" lon="1.12696">
        <ele>1159.523</ele>
        <time>2021-07-22T10:17:14Z</time>
      </trkpt>
      <trkpt lat="42.09169" lon="1.12749">
        <ele>1162.431</ele>
        <time>2021-07-22T10:17:25Z</time>
      </trkpt>
      <trkpt lat="42.09088" lon="1.12792">
        <ele>1168.827</ele>
        <time>2021-07-22T10:17:36Z</time>
      </trkpt>
      <trkpt lat="42.08982" lon="1.12825">
        <ele>1178.519</ele>
        <time>2021-07-22T10:17:47Z</time>
      </trkpt>
      <trkpt lat="42.08876" lon="1.12902">
        <ele>1188.506</ele>
        <time>2021-07-22T10:17:58Z</time>
      </trkpt>
      <trkpt lat="42.08828" lon="1.13012">
        <ele>1199.061</ele>
        <time>2021-07-22T10:18:09Z</time>
      </trkpt>
      <trkpt lat="42.08854" lon="1.13128">
        <ele>1207.145</ele>
        <time>2021-07-22T10:18:20Z</time>
      </trkpt>
      <trkpt lat="42.08959" lon="1.13088">
        <ele>1206.26</ele>
        <time>2021-07-22T10:18:31Z</time>
      </trkpt>
      <trkpt lat="42.0908" lon="1.13061">
        <ele>1212.392</ele>
        <time>2021-07-22T10:18:42Z</time>
      </trkpt>
      <trkpt lat="42.09219" lon="1.13071">
        <ele>1219.758</ele>
        <time>2021-07-22T10:18:53Z</time>
      </trkpt>
      <trkpt lat="42.09297" lon="1.13173">
        <ele>1220.705</ele>
        <time>2021-07-22T10:19:04Z</time>
      </trkpt>
      <trkpt lat="42.09345" lon="1.13219">
        <ele>1228.784</ele>
        <time>2021-07-22T10:19:15Z</time>
      </trkpt>
      <trkpt lat="42.09415" lon="1.13139">
        <ele>1235.717</ele>
        <time>2021-07-22T10:19:26Z</time>
      </trkpt>
      <trkpt lat="42.09512" lon="1.13085">
        <ele>1241.066</ele>
        <time>2021-07-22T10:19:37Z</time>
      </trkpt>
      <trkpt lat="42.09605" lon="1.1307">
        <ele>1236.408</ele>
        <time>2021-07-22T10:19:48Z</time>
      </trkpt>
      <trkpt lat="42.09714" lon="1.13049">
        <ele>1248.449</ele>
        <time>2021-07-22T10:19:59Z</time>
      </trkpt>
      <trkpt lat="42.09844" lon="1.13011">
        <ele>1259.138</ele>
        <time>2021-07-22T10:20:10Z</time>
      </trkpt>
      <trkpt lat="42.0992" lon="1.13072">
        <ele>1262.69</ele>
        <time>2021-07-22T10:20:21Z</time>
      </trkpt>
      <trkpt lat="42.10014" lon="1.13039">
        <ele>1267.098</ele>
        <time>2021-07-22T10:20:32Z</time>
      </trkpt>
      <trkpt lat="42.10133" lon="1.13048">
        <ele>1269.594</ele>
        <time>2021-07-22T10:20:43Z</time>
      </trkpt>
      <trkpt lat="42.10197" lon="1.13147">
        <ele>1267.174</ele>
        <time>2021-07-22T10:20:54Z</time>
      </trkpt>
      <trkpt lat="42.10237" lon="1.13174">
        <ele>1273.453</ele>
        <time>2021-07-22T10:21:05Z</time>
      </trkpt>
      <trkpt lat="42.10349" lon="1.13162">
        <ele>1279.467</ele>
        <time>2021-07-22T10:21:16Z</time>
      </trkpt>
      <trkpt lat="42.10419" lon="1.13176">
        <ele>1276.217</ele>
        <time>2021-07-22T10:21:27Z</time>
      </trkpt>
      <trkpt lat="42.10466" lon="1.1321">
        <ele>1271.694</ele>
        <time>2021-07-22T10:21:38Z</time>
      </trkpt>
      <trkpt lat="42.10535" lon="1.13228">
        <ele>1261.181</ele>
        <time>2021-07-22T10:21:49Z</time>
      </trkpt>
      <trkpt lat="42.1055" lon="1.13315">
        <ele>1256.85</ele>
        <time>2021-07-22T10:22:00Z</time>
      </trkpt>
      <trkpt lat="42.1062" lon="1.1335">
        <ele>1247.321</ele>
        <time>2021-07-22T10:22:11Z</time>
      </trkpt>
      <trkpt lat="42.10669" lon="1.13387">
        <ele>1244.562</ele>
        <time>2021-07-22T10:22:22Z</time>
      </trkpt>
      <trkpt lat="42.10668" lon="1.13387">
        <ele>1245.314</ele>
        <time>2021-07-22T10:23:22Z</time>
      </trkpt>
      <trkpt lat="42.10672" lon="1.13386">
        <ele>1248.459</ele>
        <time>2021-07-22T10:23:37Z</time>
      </trkpt>
      <trkpt lat="42.10676" lon="1.13384">
        <ele>1251.762</ele>
        <time>2021-07-22T10:24:07Z</time>
      </trkpt>
      <trkpt lat="42.10672" lon="1.13385">
        <ele>1249.779</ele>
        <time>2021-07-22T10:24:25Z</time>
      </trkpt>
      <trkpt lat="42.10673" lon="1.13386">
        <ele>1249.15</ele>
        <time>2021-07-22T10:25:25Z</time>
      </trkpt>
      <trkpt lat="42.10675" lon="1.1339">
        <ele>1248.345</ele>
        <time>2021-07-22T10:25:38Z</time>
      </trkpt>
      <trkpt lat="42.10683" lon="1.13413">
        <ele>1243.763</ele>
        <time>2021-07-22T10:25:49Z</time>
      </trkpt>
      <trkpt lat="42.10692" lon="1.13433">
        <ele>1240.344</ele>
        <time>2021-07-22T10:26:00Z</time>
      </trkpt>
      <trkpt lat="42.10759" lon="1.13401">
        <ele>1240.756</ele>
        <time>2021-07-22T10:26:11Z</time>
      </trkpt>
      <trkpt lat="42.1084" lon="1.13388">
        <ele>1242.755</ele>
        <time>2021-07-22T10:26:22Z</time>
      </trkpt>
      <trkpt lat="42.10905" lon="1.13392">
        <ele>1248.55</ele>
        <time>2021-07-22T10:26:33Z</time>
      </trkpt>
      <trkpt lat="42.10986" lon="1.13438">
        <ele>1256.796</ele>
        <time>2021-07-22T10:26:44Z</time>
      </trkpt>
      <trkpt lat="42.10955" lon="1.13536">
        <ele>1255.464</ele>
        <time>2021-07-22T10:26:55Z</time>
      </trkpt>
      <trkpt lat="42.10963" lon="1.13639">
        <ele>1254.607</ele>
        <time>2021-07-22T10:27:06Z</time>
      </trkpt>
      <trkpt lat="42.10866" lon="1.13731">
        <ele>1251.077</ele>
        <time>2021-07-22T10:27:17Z</time>
      </trkpt>
      <trkpt lat="42.10782" lon="1.13834">
        <ele>1246.572</ele>
        <time>2021-07-22T10:27:28Z</time>
      </trkpt>
      <trkpt lat="42.10831" lon="1.13888">
        <ele>1244.301</ele>
        <time>2021-07-22T10:27:39Z</time>
      </trkpt>
      <trkpt lat="42.10936" lon="1.13911">
        <ele>1247.474</ele>
        <time>2021-07-22T10:27:50Z</time>
      </trkpt>
      <trkpt lat="42.11041" lon="1.13814">
        <ele>1252.919</ele>
        <time>2021-07-22T10:28:01Z</time>
      </trkpt>
      <trkpt lat="42.1113" lon="1.13723">
        <ele>1263.653</ele>
        <time>2021-07-22T10:28:12Z</time>
      </trkpt>
      <trkpt lat="42.11214" lon="1.13793">
        <ele>1264.73</ele>
        <time>2021-07-22T10:28:23Z</time>
      </trkpt>
      <trkpt lat="42.11315" lon="1.13785">
        <ele>1270.269</ele>
        <time>2021-07-22T10:28:34Z</time>
      </trkpt>
      <trkpt lat="42.11399" lon="1.13875">
        <ele>1273.894</ele>
        <time>2021-07-22T10:28:45Z</time>
      </trkpt>
      <trkpt lat="42.11497" lon="1.13852">
        <ele>1278.643</ele>
        <time>2021-07-22T10:28:56Z</time>
      </trkpt>
      <trkpt lat="42.11618" lon="1.13867">
        <ele>1286.473</ele>
        <time>2021-07-22T10:29:07Z</time>
      </trkpt>
      <trkpt lat="42.11713" lon="1.13856">
        <ele>1295.668</ele>
        <time>2021-07-22T10:29:18Z</time>
      </trkpt>
      <trkpt lat="42.11794" lon="1.13905">
        <ele>1296.827</ele>
        <time>2021-07-22T10:29:29Z</time>
      </trkpt>
      <trkpt lat="42.11884" lon="1.13987">
        <ele>1297.371</ele>
        <time>2021-07-22T10:29:40Z</time>
      </trkpt>
      <trkpt lat="42.11986" lon="1.14045">
        <ele>1290.915</ele>
        <time>2021-07-22T10:29:51Z</time>
      </trkpt>
      <trkpt lat="42.11915" lon="1.1411">
        <ele>1294.897</ele>
        <time>2021-07-22T10:30:02Z</time>
      </trkpt>
      <trkpt lat="42.11806" lon="1.14204">
        <ele>1296.874</ele>
        <time>2021-07-22T10:30:13Z</time>
      </trkpt>
      <trkpt lat="42.11837" lon="1.14291">
        <ele>1299.177</ele>
        <time>2021-07-22T10:30:24Z</time>
      </trkpt>
      <trkpt lat="42.11831" lon="1.14387">
        <ele>1296.07</ele>
        <time>2021-07-22T10:30:35Z</time>
      </trkpt>
      <trkpt lat="42.11744" lon="1.14475">
        <ele>1302.037</ele>
        <time>2021-07-22T10:30:46Z</time>
      </trkpt>
      <trkpt lat="42.11621" lon="1.14491">
        <ele>1296.604</ele>
        <time>2021-07-22T10:30:57Z</time>
      </trkpt>
      <trkpt lat="42.11542" lon="1.14578">
        <ele>1291.88</ele>
        <time>2021-07-22T10:31:08Z</time>
      </trkpt>
      <trkpt lat="42.11556" lon="1.1467">
        <ele>1292.781</ele>
        <time>2021-07-22T10:31:19Z</time>
      </trkpt>
      <trkpt lat="42.1162" lon="1.14694">
        <ele>1294.697</ele>
        <time>2021-07-22T10:31:30Z</time>
      </trkpt>
      <trkpt lat="42.11714" lon="1.14673">
        <ele>1303.22</ele>
        <time>2021-07-22T10:31:41Z</time>
      </trkpt>
      <trkpt lat="42.11808" lon="1.14634">
        <ele>1306.713</ele>
        <time>2021-07-22T10:31:52Z</time>
      </trkpt>
      <trkpt lat="42.11897" lon="1.14596">
        <ele>1317.925</ele>
        <time>2021-07-22T10:32:03Z</time>
      </trkpt>
      <trkpt lat="42.11999" lon="1.14579">
        <ele>1327.727</ele>
        <time>2021-07-22T10:32:14Z</time>
      </trkpt>
      <trkpt lat="42.12094" lon="1.14517">
        <ele>1336.982</ele>
        <time>2021-07-22T10:32:25Z</time>
      </trkpt>
      <trkpt lat="42.12176" lon="1.14456">
        <ele>1344.427</ele>
        <time>2021-07-22T10:32:36Z</time>
      </trkpt>
      <trkpt lat="42.12251" lon="1.1446">
        <ele>1352.788</ele>
        <time>2021-07-22T10:32:47Z</time>
      </trkpt>
      <trkpt lat="42.12283" lon="1.14517">
        <ele>1364.18</ele>
        <time>2021-07-22T10:32:58Z</time>
      </trkpt>
      <trkpt lat="42.12367" lon="1.14536">
        <ele>1373.665</ele>
        <time>2021-07-22T10:33:09Z</time>
      </trkpt>
      <trkpt lat="42.12449" lon="1.14528">
        <ele>1381.755</ele>
        <time>2021-07-22T10:33:20Z</time>
      </trkpt>
      <trkpt lat="42.12525" lon="1.14493">
        <ele>1387.248</ele>
        <time>2021-07-22T10:33:31Z</time>
      </trkpt>
      <trkpt lat="42.12609" lon="1.1443">
        <ele>1386.809</ele>
        <time>2021-07-22T10:33:42Z</time>
      </trkpt>
      <trkpt lat="42.12702" lon="1.14421">
        <ele>1392.836</ele>
        <time>2021-07-22T10:33:53Z</time>
      </trkpt>
      <trkpt lat="42.12762" lon="1.1435">
        <ele>1405.572</ele>
        <time>2021-07-22T10:34:04Z</time>
      </trkpt>
      <trkpt lat="42.12783" lon="1.1434">
        <ele>1414.106</ele>
        <time>2021-07-22T10:34:15Z</time>
      </trkpt>
      <trkpt lat="42.12786" lon="1.14344">
        <ele>1416.683</ele>
        <time>2021-07-22T10:34:26Z</time>
      </trkpt>
      <trkpt lat="42.12779" lon="1.1435">
        <ele>1414.127</ele>
        <time>2021-07-22T10:34:37Z</time>
      </trkpt>
      <trkpt lat="42.12747" lon="1.14373">
        <ele>1397.871</ele>
        <time>2021-07-22T10:34:48Z</time>
      </trkpt>
      <trkpt lat="42.12736" lon="1.14388">
        <ele>1398.366</ele>
        <time>2021-07-22T10:34:59Z</time>
      </trkpt>
      <trkpt lat="42.12738" lon="1.1439">
        <ele>1400.895</ele>
        <time>2021-07-22T10:35:59Z</time>
      </trkpt>
      <trkpt lat="42.12737" lon="1.14389">
        <ele>1400.196</ele>
        <time>2021-07-22T10:36:59Z</time>
      </trkpt>
      <trkpt lat="42.12736" lon="1.14391">
        <ele>1398.091</ele>
        <time>2021-07-22T10:37:59Z</time>
      </trkpt>
      <trkpt lat="42.12736" lon="1.14393">
        <ele>1403.367</ele>
        <time>2021-07-22T10:38:59Z</time>
      </trkpt>
      <trkpt lat="42.12737" lon="1.14388">
        <ele>1406.499</ele>
        <time>2021-07-22T10:39:50Z</time>
      </trkpt>
      <trkpt lat="42.12739" lon="1.14382">
        <ele>1405.903</ele>
        <time>2021-07-22T10:40:01Z</time>
      </trkpt>
      <trkpt lat="42.12758" lon="1.14356">
        <ele>1410.33</ele>
        <time>2021-07-22T10:40:12Z</time>
      </trkpt>
      <trkpt lat="42.12813" lon="1.14342">
        <ele>1422.859</ele>
        <time>2021-07-22T10:40:23Z</time>
      </trkpt>
      <trkpt lat="42.12818" lon="1.14416">
        <ele>1419.453</ele>
        <time>2021-07-22T10:40:34Z</time>
      </trkpt>
      <trkpt lat="42.12883" lon="1.14464">
        <ele>1418.744</ele>
        <time>2021-07-22T10:40:45Z</time>
      </trkpt>
      <trkpt lat="42.12954" lon="1.1447">
        <ele>1427.573</ele>
        <time>2021-07-22T10:40:56Z</time>
      </trkpt>
      <trkpt lat="42.13029" lon="1.14425">
        <ele>1438.163</ele>
        <time>2021-07-22T10:41:07Z</time>
      </trkpt>
      <trkpt lat="42.13068" lon="1.14486">
        <ele>1444.478</ele>
        <time>2021-07-22T10:41:18Z</time>
      </trkpt>
      <trkpt lat="42.13132" lon="1.1451">
        <ele>1450.087</ele>
        <time>2021-07-22T10:41:29Z</time>
      </trkpt>
      <trkpt lat="42.13141" lon="1.14519">
        <ele>1451.367</ele>
        <time>2021-07-22T10:41:40Z</time>
      </trkpt>
      <trkpt lat="42.13143" lon="1.14523">
        <ele>1452.765</ele>
        <time>2021-07-22T10:41:55Z</time>
      </trkpt>
      <trkpt lat="42.13145" lon="1.14518">
        <ele>1457.347</ele>
        <time>2021-07-22T10:42:14Z</time>
      </trkpt>
      <trkpt lat="42.13148" lon="1.14513">
        <ele>1459.656</ele>
        <time>2021-07-22T10:42:25Z</time>
      </trkpt>
      <trkpt lat="42.13152" lon="1.14511">
        <ele>1458.389</ele>
        <time>2021-07-22T10:42:36Z</time>
      </trkpt>
      <trkpt lat="42.13148" lon="1.14514">
        <ele>1456.328</ele>
        <time>2021-07-22T10:43:10Z</time>
      </trkpt>
      <trkpt lat="42.13144" lon="1.14515">
        <ele>1457.943</ele>
        <time>2021-07-22T10:43:25Z</time>
      </trkpt>
      <trkpt lat="42.13148" lon="1.14528">
        <ele>1459.07</ele>
        <time>2021-07-22T10:43:36Z</time>
      </trkpt>
      <trkpt lat="42.13198" lon="1.14605">
        <ele>1452.346</ele>
        <time>2021-07-22T10:43:47Z</time>
      </trkpt>
      <trkpt lat="42.13241" lon="1.14615">
        <ele>1446.122</ele>
        <time>2021-07-22T10:43:58Z</time>
      </trkpt>
      <trkpt lat="42.13304" lon="1.14561">
        <ele>1434.353</ele>
        <time>2021-07-22T10:44:09Z</time>
      </trkpt>
      <trkpt lat="42.13356" lon="1.14514">
        <ele>1431.082</ele>
        <time>2021-07-22T10:44:20Z</time>
      </trkpt>
      <trkpt lat="42.13413" lon="1.1448">
        <ele>1417.403</ele>
        <time>2021-07-22T10:44:31Z</time>
      </trkpt>
      <trkpt lat="42.13466" lon="1.14439">
        <ele>1412.88</ele>
        <time>2021-07-22T10:44:42Z</time>
      </trkpt>
      <trkpt lat="42.13507" lon="1.14398">
        <ele>1408.298</ele>
        <time>2021-07-22T10:44:53Z</time>
      </trkpt>
      <trkpt lat="42.13564" lon="1.14374">
        <ele>1407.403</ele>
        <time>2021-07-22T10:45:04Z</time>
      </trkpt>
      <trkpt lat="42.1362" lon="1.14369">
        <ele>1404.085</ele>
        <time>2021-07-22T10:45:15Z</time>
      </trkpt>
      <trkpt lat="42.1369" lon="1.14378">
        <ele>1383.719</ele>
        <time>2021-07-22T10:45:26Z</time>
      </trkpt>
      <trkpt lat="42.13642" lon="1.14391">
        <ele>1373.561</ele>
        <time>2021-07-22T10:45:37Z</time>
      </trkpt>
      <trkpt lat="42.13614" lon="1.14437">
        <ele>1369.873</ele>
        <time>2021-07-22T10:45:48Z</time>
      </trkpt>
      <trkpt lat="42.13667" lon="1.14443">
        <ele>1369.302</ele>
        <time>2021-07-22T10:45:59Z</time>
      </trkpt>
      <trkpt lat="42.13744" lon="1.14482">
        <ele>1369.732</ele>
        <time>2021-07-22T10:46:10Z</time>
      </trkpt>
      <trkpt lat="42.13792" lon="1.14512">
        <ele>1353.52</ele>
        <time>2021-07-22T10:46:21Z</time>
      </trkpt>
      <trkpt lat="42.13847" lon="1.14525">
        <ele>1335.315</ele>
        <time>2021-07-22T10:46:32Z</time>
      </trkpt>
      <trkpt lat="42.13905" lon="1.14521">
        <ele>1332.421</ele>
        <time>2021-07-22T10:46:43Z</time>
      </trkpt>
      <trkpt lat="42.13966" lon="1.14499">
        <ele>1323.348</ele>
        <time>2021-07-22T10:46:54Z</time>
      </trkpt>
      <trkpt lat="42.14042" lon="1.14479">
        <ele>1312.156</ele>
        <time>2021-07-22T10:47:05Z</time>
      </trkpt>
      <trkpt lat="42.14129" lon="1.14477">
        <ele>1303.369</ele>
        <time>2021-07-22T10:47:16Z</time>
      </trkpt>
      <trkpt lat="42.1417" lon="1.14439">
        <ele>1296.644</ele>
        <time>2021-07-22T10:47:27Z</time>
      </trkpt>
      <trkpt lat="42.14168" lon="1.14323">
        <ele>1288.246</ele>
        <time>2021-07-22T10:47:38Z</time>
      </trkpt>
      <trkpt lat="42.14124" lon="1.14217">
        <ele>1282.054</ele>
        <time>2021-07-22T10:47:49Z</time>
      </trkpt>
      <trkpt lat="42.14129" lon="1.14146">
        <ele>1281.274</ele>
        <time>2021-07-22T10:48:00Z</time>
      </trkpt>
      <trkpt lat="42.14244" lon="1.14155">
        <ele>1276.073</ele>
        <time>2021-07-22T10:48:12Z</time>
      </trkpt>
      <trkpt lat="42.1434" lon="1.14195">
        <ele>1279.403</ele>
        <time>2021-07-22T10:48:23Z</time>
      </trkpt>
      <trkpt lat="42.14416" lon="1.14219">
        <ele>1275.121</ele>
        <time>2021-07-22T10:48:34Z</time>
      </trkpt>
      <trkpt lat="42.1448" lon="1.14165">
        <ele>1271.643</ele>
        <time>2021-07-22T10:48:45Z</time>
      </trkpt>
      <trkpt lat="42.14509" lon="1.14121">
        <ele>1270.216</ele>
        <time>2021-07-22T10:48:56Z</time>
      </trkpt>
      <trkpt lat="42.14512" lon="1.1412">
        <ele>1266.637</ele>
        <time>2021-07-22T10:49:49Z</time>
      </trkpt>
      <trkpt lat="42.1452" lon="1.14121">
        <ele>1265.924</ele>
        <time>2021-07-22T10:50:00Z</time>
      </trkpt>
      <trkpt lat="42.14579" lon="1.14148">
        <ele>1255.583</ele>
        <time>2021-07-22T10:50:11Z</time>
      </trkpt>
      <trkpt lat="42.14611" lon="1.14264">
        <ele>1250.127</ele>
        <time>2021-07-22T10:50:22Z</time>
      </trkpt>
      <trkpt lat="42.14674" lon="1.14281">
        <ele>1253.344</ele>
        <time>2021-07-22T10:50:33Z</time>
      </trkpt>
      <trkpt lat="42.14756" lon="1.14327">
        <ele>1243.951</ele>
        <time>2021-07-22T10:50:44Z</time>
      </trkpt>
      <trkpt lat="42.14851" lon="1.14343">
        <ele>1240.518</ele>
        <time>2021-07-22T10:50:55Z</time>
      </trkpt>
      <trkpt lat="42.14914" lon="1.1425">
        <ele>1240.749</ele>
        <time>2021-07-22T10:51:06Z</time>
      </trkpt>
      <trkpt lat="42.1497" lon="1.14347">
        <ele>1244.221</ele>
        <time>2021-07-22T10:51:17Z</time>
      </trkpt>
      <trkpt lat="42.15046" lon="1.14403">
        <ele>1240.122</ele>
        <time>2021-07-22T10:51:28Z</time>
      </trkpt>
      <trkpt lat="42.15118" lon="1.14468">
        <ele>1244.422</ele>
        <time>2021-07-22T10:51:39Z</time>
      </trkpt>
      <trkpt lat="42.1519" lon="1.14542">
        <ele>1255.617</ele>
        <time>2021-07-22T10:51:50Z</time>
      </trkpt>
      <trkpt lat="42.15292" lon="1.14525">
        <ele>1253.642</ele>
        <time>2021-07-22T10:52:01Z</time>
      </trkpt>
      <trkpt lat="42.15385" lon="1.14613">
        <ele>1261.368</ele>
        <time>2021-07-22T10:52:12Z</time>
      </trkpt>
      <trkpt lat="42.15432" lon="1.14623">
        <ele>1267.382</ele>
        <time>2021-07-22T10:52:23Z</time>
      </trkpt>
      <trkpt lat="42.15502" lon="1.14571">
        <ele>1277.068</ele>
        <time>2021-07-22T10:52:34Z</time>
      </trkpt>
      <trkpt lat="42.15565" lon="1.14508">
        <ele>1261.261</ele>
        <time>2021-07-22T10:52:45Z</time>
      </trkpt>
      <trkpt lat="42.1563" lon="1.14352">
        <ele>1241.401</ele>
        <time>2021-07-22T10:52:56Z</time>
      </trkpt>
      <trkpt lat="42.15662" lon="1.1425">
        <ele>1237.629</ele>
        <time>2021-07-22T10:53:07Z</time>
      </trkpt>
      <trkpt lat="42.1568" lon="1.14152">
        <ele>1238.036</ele>
        <time>2021-07-22T10:53:18Z</time>
      </trkpt>
      <trkpt lat="42.15674" lon="1.14148">
        <ele>1238.211</ele>
        <time>2021-07-22T10:53:29Z</time>
      </trkpt>
      <trkpt lat="42.1568" lon="1.14149">
        <ele>1235.202</ele>
        <time>2021-07-22T10:54:05Z</time>
      </trkpt>
      <trkpt lat="42.15676" lon="1.14149">
        <ele>1236.713</ele>
        <time>2021-07-22T10:54:26Z</time>
      </trkpt>
      <trkpt lat="42.15673" lon="1.14149">
        <ele>1237.649</ele>
        <time>2021-07-22T10:54:46Z</time>
      </trkpt>
      <trkpt lat="42.15676" lon="1.14149">
        <ele>1238.105</ele>
        <time>2021-07-22T10:55:40Z</time>
      </trkpt>
      <trkpt lat="42.15675" lon="1.14149">
        <ele>1237.686</ele>
        <time>2021-07-22T10:56:40Z</time>
      </trkpt>
      <trkpt lat="42.15675" lon="1.14148">
        <ele>1237.543</ele>
        <time>2021-07-22T10:57:39Z</time>
      </trkpt>
      <trkpt lat="42.15674" lon="1.14148">
        <ele>1237.553</ele>
        <time>2021-07-22T10:58:39Z</time>
      </trkpt>
      <trkpt lat="42.15676" lon="1.14149">
        <ele>1237.683</ele>
        <time>2021-07-22T10:59:38Z</time>
      </trkpt>
      <trkpt lat="42.15673" lon="1.14149">
        <ele>1237.663</ele>
        <time>2021-07-22T11:00:38Z</time>
      </trkpt>
      <trkpt lat="42.15674" lon="1.14149">
        <ele>1238.448</ele>
        <time>2021-07-22T11:01:38Z</time>
      </trkpt>
      <trkpt lat="42.15675" lon="1.1415">
        <ele>1236.289</ele>
        <time>2021-07-22T11:02:38Z</time>
      </trkpt>
      <trkpt lat="42.15679" lon="1.14147">
        <ele>1236.157</ele>
        <time>2021-07-22T11:03:27Z</time>
      </trkpt>
      <trkpt lat="42.15677" lon="1.1415">
        <ele>1238.503</ele>
        <time>2021-07-22T11:04:26Z</time>
      </trkpt>
      <trkpt lat="42.15673" lon="1.1415">
        <ele>1238.13</ele>
        <time>2021-07-22T11:04:56Z</time>
      </trkpt>
      <trkpt lat="42.15677" lon="1.14149">
        <ele>1237.913</ele>
        <time>2021-07-22T11:05:25Z</time>
      </trkpt>
      <trkpt lat="42.15677" lon="1.1415">
        <ele>1237.404</ele>
        <time>2021-07-22T11:06:24Z</time>
      </trkpt>
      <trkpt lat="42.15673" lon="1.14151">
        <ele>1239.343</ele>
        <time>2021-07-22T11:06:40Z</time>
      </trkpt>
      <trkpt lat="42.15677" lon="1.1415">
        <ele>1238.57</ele>
        <time>2021-07-22T11:07:31Z</time>
      </trkpt>
      <trkpt lat="42.15674" lon="1.14151">
        <ele>1237.628</ele>
        <time>2021-07-22T11:08:30Z</time>
      </trkpt>
      <trkpt lat="42.15677" lon="1.14149">
        <ele>1237.879</ele>
        <time>2021-07-22T11:08:53Z</time>
      </trkpt>
      <trkpt lat="42.15679" lon="1.14145">
        <ele>1237.009</ele>
        <time>2021-07-22T11:09:36Z</time>
      </trkpt>
      <trkpt lat="42.15674" lon="1.14148">
        <ele>1237.595</ele>
        <time>2021-07-22T11:09:47Z</time>
      </trkpt>
      <trkpt lat="42.15678" lon="1.14149">
        <ele>1238.554</ele>
        <time>2021-07-22T11:10:25Z</time>
      </trkpt>
      <trkpt lat="42.15683" lon="1.14148">
        <ele>1237.413</ele>
        <time>2021-07-22T11:10:54Z</time>
      </trkpt>
      <trkpt lat="42.15678" lon="1.14149">
        <ele>1239.307</ele>
        <time>2021-07-22T11:11:05Z</time>
      </trkpt>
      <trkpt lat="42.15674" lon="1.14148">
        <ele>1238.072</ele>
        <time>2021-07-22T11:11:17Z</time>
      </trkpt>
      <trkpt lat="42.15671" lon="1.14151">
        <ele>1240</ele>
        <time>2021-07-22T11:11:45Z</time>
      </trkpt>
      <trkpt lat="42.15673" lon="1.14149">
        <ele>1239.07</ele>
        <time>2021-07-22T11:12:44Z</time>
      </trkpt>
      <trkpt lat="42.15676" lon="1.1415">
        <ele>1238.375</ele>
        <time>2021-07-22T11:13:13Z</time>
      </trkpt>
      <trkpt lat="42.1568" lon="1.14146">
        <ele>1238.762</ele>
        <time>2021-07-22T11:13:24Z</time>
      </trkpt>
      <trkpt lat="42.1568" lon="1.14146">
        <ele>1238.762</ele>
        <time>2021-07-22T11:14:23Z</time>
      </trkpt>
      <trkpt lat="42.1568" lon="1.14146">
        <ele>1238.762</ele>
        <time>2021-07-22T11:15:23Z</time>
      </trkpt>
      <trkpt lat="42.1568" lon="1.14146">
        <ele>1238.762</ele>
        <time>2021-07-22T11:16:22Z</time>
      </trkpt>
      <trkpt lat="42.15685" lon="1.14146">
        <ele>1237.207</ele>
        <time>2021-07-22T11:17:04Z</time>
      </trkpt>
      <trkpt lat="42.15683" lon="1.14147">
        <ele>1238.066</ele>
        <time>2021-07-22T11:18:03Z</time>
      </trkpt>
      <trkpt lat="42.15679" lon="1.1415">
        <ele>1239.344</ele>
        <time>2021-07-22T11:18:56Z</time>
      </trkpt>
      <trkpt lat="42.15678" lon="1.14149">
        <ele>1239.155</ele>
        <time>2021-07-22T11:19:55Z</time>
      </trkpt>
      <trkpt lat="42.15678" lon="1.1415">
        <ele>1236.638</ele>
        <time>2021-07-22T11:20:54Z</time>
      </trkpt>
      <trkpt lat="42.15676" lon="1.14152">
        <ele>1235.789</ele>
        <time>2021-07-22T11:21:53Z</time>
      </trkpt>
      <trkpt lat="42.15686" lon="1.14134">
        <ele>1235.091</ele>
        <time>2021-07-22T11:22:04Z</time>
      </trkpt>
      <trkpt lat="42.15638" lon="1.14007">
        <ele>1234.733</ele>
        <time>2021-07-22T11:22:15Z</time>
      </trkpt>
      <trkpt lat="42.15557" lon="1.1385">
        <ele>1229.243</ele>
        <time>2021-07-22T11:22:26Z</time>
      </trkpt>
      <trkpt lat="42.15454" lon="1.13704">
        <ele>1224.089</ele>
        <time>2021-07-22T11:22:37Z</time>
      </trkpt>
      <trkpt lat="42.15447" lon="1.13521">
        <ele>1214.602</ele>
        <time>2021-07-22T11:22:48Z</time>
      </trkpt>
      <trkpt lat="42.15385" lon="1.13348">
        <ele>1205.158</ele>
        <time>2021-07-22T11:22:59Z</time>
      </trkpt>
      <trkpt lat="42.15319" lon="1.13131">
        <ele>1201.053</ele>
        <time>2021-07-22T11:23:10Z</time>
      </trkpt>
      <trkpt lat="42.15255" lon="1.1291">
        <ele>1186.428</ele>
        <time>2021-07-22T11:23:21Z</time>
      </trkpt>
      <trkpt lat="42.15235" lon="1.12682">
        <ele>1174.302</ele>
        <time>2021-07-22T11:23:32Z</time>
      </trkpt>
      <trkpt lat="42.15146" lon="1.12405">
        <ele>1166.661</ele>
        <time>2021-07-22T11:23:43Z</time>
      </trkpt>
      <trkpt lat="42.15034" lon="1.12203">
        <ele>1157.945</ele>
        <time>2021-07-22T11:23:54Z</time>
      </trkpt>
      <trkpt lat="42.14931" lon="1.1202">
        <ele>1153.953</ele>
        <time>2021-07-22T11:24:05Z</time>
      </trkpt>
      <trkpt lat="42.14839" lon="1.1182">
        <ele>1147.496</ele>
        <time>2021-07-22T11:24:16Z</time>
      </trkpt>
      <trkpt lat="42.14711" lon="1.11613">
        <ele>1143.125</ele>
        <time>2021-07-22T11:24:27Z</time>
      </trkpt>
      <trkpt lat="42.14631" lon="1.11361">
        <ele>1133.329</ele>
        <time>2021-07-22T11:24:38Z</time>
      </trkpt>
      <trkpt lat="42.14524" lon="1.11334">
        <ele>1128.311</ele>
        <time>2021-07-22T11:24:49Z</time>
      </trkpt>
      <trkpt lat="42.14479" lon="1.11341">
        <ele>1123.341</ele>
        <time>2021-07-22T11:25:00Z</time>
      </trkpt>
      <trkpt lat="42.14414" lon="1.11129">
        <ele>1115.759</ele>
        <time>2021-07-22T11:25:11Z</time>
      </trkpt>
      <trkpt lat="42.14355" lon="1.10955">
        <ele>1109.832</ele>
        <time>2021-07-22T11:25:22Z</time>
      </trkpt>
      <trkpt lat="42.14236" lon="1.10777">
        <ele>1100.923</ele>
        <time>2021-07-22T11:25:33Z</time>
      </trkpt>
      <trkpt lat="42.14206" lon="1.10617">
        <ele>1094.437</ele>
        <time>2021-07-22T11:25:44Z</time>
      </trkpt>
      <trkpt lat="42.14188" lon="1.10469">
        <ele>1091.06</ele>
        <time>2021-07-22T11:25:55Z</time>
      </trkpt>
      <trkpt lat="42.14082" lon="1.10362">
        <ele>1083.648</ele>
        <time>2021-07-22T11:26:06Z</time>
      </trkpt>
      <trkpt lat="42.14085" lon="1.10224">
        <ele>1073.264</ele>
        <time>2021-07-22T11:26:17Z</time>
      </trkpt>
      <trkpt lat="42.14013" lon="1.10068">
        <ele>1065.539</ele>
        <time>2021-07-22T11:26:28Z</time>
      </trkpt>
      <trkpt lat="42.13896" lon="1.0997">
        <ele>1058.53</ele>
        <time>2021-07-22T11:26:39Z</time>
      </trkpt>
      <trkpt lat="42.13791" lon="1.09839">
        <ele>1048.189</ele>
        <time>2021-07-22T11:26:50Z</time>
      </trkpt>
      <trkpt lat="42.13734" lon="1.09918">
        <ele>1042.837</ele>
        <time>2021-07-22T11:27:01Z</time>
      </trkpt>
      <trkpt lat="42.13783" lon="1.10203">
        <ele>1032.581</ele>
        <time>2021-07-22T11:27:12Z</time>
      </trkpt>
      <trkpt lat="42.1382" lon="1.10432">
        <ele>1020.871</ele>
        <time>2021-07-22T11:27:23Z</time>
      </trkpt>
      <trkpt lat="42.13884" lon="1.10579">
        <ele>1009.455</ele>
        <time>2021-07-22T11:27:34Z</time>
      </trkpt>
      <trkpt lat="42.13869" lon="1.10618">
        <ele>1005.004</ele>
        <time>2021-07-22T11:27:45Z</time>
      </trkpt>
      <trkpt lat="42.13745" lon="1.1059">
        <ele>995.9712</ele>
        <time>2021-07-22T11:27:56Z</time>
      </trkpt>
      <trkpt lat="42.13731" lon="1.10462">
        <ele>984.6582</ele>
        <time>2021-07-22T11:28:07Z</time>
      </trkpt>
      <trkpt lat="42.13655" lon="1.10337">
        <ele>979.2355</ele>
        <time>2021-07-22T11:28:18Z</time>
      </trkpt>
      <trkpt lat="42.1362" lon="1.10209">
        <ele>968.8617</ele>
        <time>2021-07-22T11:28:29Z</time>
      </trkpt>
      <trkpt lat="42.13593" lon="1.10175">
        <ele>961.3985</ele>
        <time>2021-07-22T11:28:40Z</time>
      </trkpt>
      <trkpt lat="42.1356" lon="1.10342">
        <ele>949.7799</ele>
        <time>2021-07-22T11:28:51Z</time>
      </trkpt>
      <trkpt lat="42.13517" lon="1.1037">
        <ele>937.4733</ele>
        <time>2021-07-22T11:29:02Z</time>
      </trkpt>
      <trkpt lat="42.13502" lon="1.10206">
        <ele>928.0291</ele>
        <time>2021-07-22T11:29:13Z</time>
      </trkpt>
      <trkpt lat="42.13443" lon="1.10071">
        <ele>916.7976</ele>
        <time>2021-07-22T11:29:24Z</time>
      </trkpt>
      <trkpt lat="42.13363" lon="1.0995">
        <ele>911.9018</ele>
        <time>2021-07-22T11:29:35Z</time>
      </trkpt>
      <trkpt lat="42.13283" lon="1.09791">
        <ele>900.1874</ele>
        <time>2021-07-22T11:29:46Z</time>
      </trkpt>
      <trkpt lat="42.13245" lon="1.0956">
        <ele>891.3835</ele>
        <time>2021-07-22T11:29:57Z</time>
      </trkpt>
      <trkpt lat="42.13233" lon="1.09335">
        <ele>881.1219</ele>
        <time>2021-07-22T11:30:08Z</time>
      </trkpt>
      <trkpt lat="42.13257" lon="1.09142">
        <ele>868.9649</ele>
        <time>2021-07-22T11:30:19Z</time>
      </trkpt>
      <trkpt lat="42.13231" lon="1.08909">
        <ele>858.3371</ele>
        <time>2021-07-22T11:30:30Z</time>
      </trkpt>
      <trkpt lat="42.13207" lon="1.08661">
        <ele>848.4403</ele>
        <time>2021-07-22T11:30:41Z</time>
      </trkpt>
      <trkpt lat="42.13205" lon="1.08434">
        <ele>836.4699</ele>
        <time>2021-07-22T11:30:52Z</time>
      </trkpt>
      <trkpt lat="42.13266" lon="1.08298">
        <ele>826.3805</ele>
        <time>2021-07-22T11:31:03Z</time>
      </trkpt>
      <trkpt lat="42.13312" lon="1.08084">
        <ele>814.0675</ele>
        <time>2021-07-22T11:31:14Z</time>
      </trkpt>
      <trkpt lat="42.13417" lon="1.07997">
        <ele>803.9389</ele>
        <time>2021-07-22T11:31:25Z</time>
      </trkpt>
      <trkpt lat="42.1334" lon="1.07782">
        <ele>793.6021</ele>
        <time>2021-07-22T11:31:36Z</time>
      </trkpt>
      <trkpt lat="42.13382" lon="1.07573">
        <ele>784.134</ele>
        <time>2021-07-22T11:31:47Z</time>
      </trkpt>
      <trkpt lat="42.13291" lon="1.07355">
        <ele>776.6089</ele>
        <time>2021-07-22T11:31:58Z</time>
      </trkpt>
      <trkpt lat="42.13175" lon="1.07139">
        <ele>769.2937</ele>
        <time>2021-07-22T11:32:09Z</time>
      </trkpt>
      <trkpt lat="42.13038" lon="1.06886">
        <ele>754.3583</ele>
        <time>2021-07-22T11:32:20Z</time>
      </trkpt>
      <trkpt lat="42.12897" lon="1.06623">
        <ele>744.8371</ele>
        <time>2021-07-22T11:32:31Z</time>
      </trkpt>
      <trkpt lat="42.12756" lon="1.06363">
        <ele>734.7576</ele>
        <time>2021-07-22T11:32:42Z</time>
      </trkpt>
      <trkpt lat="42.12619" lon="1.06101">
        <ele>720.845</ele>
        <time>2021-07-22T11:32:53Z</time>
      </trkpt>
      <trkpt lat="42.1248" lon="1.05844">
        <ele>713.3306</ele>
        <time>2021-07-22T11:33:04Z</time>
      </trkpt>
      <trkpt lat="42.12339" lon="1.05583">
        <ele>704.9997</ele>
        <time>2021-07-22T11:33:15Z</time>
      </trkpt>
      <trkpt lat="42.12207" lon="1.05338">
        <ele>694.7471</ele>
        <time>2021-07-22T11:33:26Z</time>
      </trkpt>
      <trkpt lat="42.12102" lon="1.05137">
        <ele>683.6114</ele>
        <time>2021-07-22T11:33:37Z</time>
      </trkpt>
      <trkpt lat="42.12025" lon="1.04971">
        <ele>674.1712</ele>
        <time>2021-07-22T11:33:48Z</time>
      </trkpt>
      <trkpt lat="42.12007" lon="1.04781">
        <ele>674.7796</ele>
        <time>2021-07-22T11:33:59Z</time>
      </trkpt>
      <trkpt lat="42.11929" lon="1.04626">
        <ele>671.0087</ele>
        <time>2021-07-22T11:34:10Z</time>
      </trkpt>
      <trkpt lat="42.11879" lon="1.04542">
        <ele>663.2714</ele>
        <time>2021-07-22T11:34:21Z</time>
      </trkpt>
      <trkpt lat="42.11837" lon="1.04486">
        <ele>665.0397</ele>
        <time>2021-07-22T11:34:32Z</time>
      </trkpt>
      <trkpt lat="42.11851" lon="1.04428">
        <ele>661.665</ele>
        <time>2021-07-22T11:34:43Z</time>
      </trkpt>
      <trkpt lat="42.11854" lon="1.04334">
        <ele>650.95</ele>
        <time>2021-07-22T11:34:54Z</time>
      </trkpt>
      <trkpt lat="42.11839" lon="1.04263">
        <ele>644.2116</ele>
        <time>2021-07-22T11:35:05Z</time>
      </trkpt>
      <trkpt lat="42.11838" lon="1.04264">
        <ele>642.3155</ele>
        <time>2021-07-22T11:36:04Z</time>
      </trkpt>
      <trkpt lat="42.11836" lon="1.04263">
        <ele>645.28</ele>
        <time>2021-07-22T11:37:03Z</time>
      </trkpt>
      <trkpt lat="42.11836" lon="1.04258">
        <ele>647.3136</ele>
        <time>2021-07-22T11:37:57Z</time>
      </trkpt>
      <trkpt lat="42.1184" lon="1.04219">
        <ele>644.3281</ele>
        <time>2021-07-22T11:38:08Z</time>
      </trkpt>
      <trkpt lat="42.1182" lon="1.04207">
        <ele>642.2892</ele>
        <time>2021-07-22T11:38:19Z</time>
      </trkpt>
      <trkpt lat="42.11792" lon="1.04233">
        <ele>641.4208</ele>
        <time>2021-07-22T11:38:30Z</time>
      </trkpt>
      <trkpt lat="42.11772" lon="1.04228">
        <ele>639.8896</ele>
        <time>2021-07-22T11:38:41Z</time>
      </trkpt>
      <trkpt lat="42.11745" lon="1.04214">
        <ele>638.3985</ele>
        <time>2021-07-22T11:38:52Z</time>
      </trkpt>
      <trkpt lat="42.11665" lon="1.04033">
        <ele>630.2929</ele>
        <time>2021-07-22T11:39:03Z</time>
      </trkpt>
      <trkpt lat="42.11518" lon="1.03956">
        <ele>629.7624</ele>
        <time>2021-07-22T11:39:14Z</time>
      </trkpt>
      <trkpt lat="42.11361" lon="1.0399">
        <ele>614.1222</ele>
        <time>2021-07-22T11:39:25Z</time>
      </trkpt>
      <trkpt lat="42.11317" lon="1.03897">
        <ele>609.4561</ele>
        <time>2021-07-22T11:39:36Z</time>
      </trkpt>
      <trkpt lat="42.11317" lon="1.03696">
        <ele>601.0461</ele>
        <time>2021-07-22T11:39:47Z</time>
      </trkpt>
      <trkpt lat="42.11294" lon="1.03466">
        <ele>592.9295</ele>
        <time>2021-07-22T11:39:58Z</time>
      </trkpt>
      <trkpt lat="42.11178" lon="1.03276">
        <ele>584.6971</ele>
        <time>2021-07-22T11:40:09Z</time>
      </trkpt>
      <trkpt lat="42.11054" lon="1.0314">
        <ele>576.3018</ele>
        <time>2021-07-22T11:40:20Z</time>
      </trkpt>
      <trkpt lat="42.10974" lon="1.03055">
        <ele>570.5254</ele>
        <time>2021-07-22T11:40:31Z</time>
      </trkpt>
      <trkpt lat="42.10968" lon="1.0305">
        <ele>570.1625</ele>
        <time>2021-07-22T11:41:18Z</time>
      </trkpt>
      <trkpt lat="42.10889" lon="1.02951">
        <ele>562.4197</ele>
        <time>2021-07-22T11:41:29Z</time>
      </trkpt>
      <trkpt lat="42.1084" lon="1.02834">
        <ele>557.6916</ele>
        <time>2021-07-22T11:41:40Z</time>
      </trkpt>
      <trkpt lat="42.10818" lon="1.02689">
        <ele>552.5027</ele>
        <time>2021-07-22T11:41:51Z</time>
      </trkpt>
      <trkpt lat="42.10835" lon="1.02543">
        <ele>546.4062</ele>
        <time>2021-07-22T11:42:02Z</time>
      </trkpt>
      <trkpt lat="42.10882" lon="1.02424">
        <ele>541.6045</ele>
        <time>2021-07-22T11:42:13Z</time>
      </trkpt>
      <trkpt lat="42.10951" lon="1.02304">
        <ele>537.2388</ele>
        <time>2021-07-22T11:42:24Z</time>
      </trkpt>
      <trkpt lat="42.11074" lon="1.02095">
        <ele>528.1737</ele>
        <time>2021-07-22T11:42:35Z</time>
      </trkpt>
      <trkpt lat="42.11223" lon="1.01841">
        <ele>536.1005</ele>
        <time>2021-07-22T11:42:46Z</time>
      </trkpt>
      <trkpt lat="42.11296" lon="1.01495">
        <ele>539.0461</ele>
        <time>2021-07-22T11:42:57Z</time>
      </trkpt>
      <trkpt lat="42.11347" lon="1.01169">
        <ele>533.6912</ele>
        <time>2021-07-22T11:43:08Z</time>
      </trkpt>
      <trkpt lat="42.11462" lon="1.00905">
        <ele>532.9651</ele>
        <time>2021-07-22T11:43:19Z</time>
      </trkpt>
      <trkpt lat="42.11574" lon="1.00605">
        <ele>529.2487</ele>
        <time>2021-07-22T11:43:30Z</time>
      </trkpt>
      <trkpt lat="42.11647" lon="1.00279">
        <ele>526.6607</ele>
        <time>2021-07-22T11:43:41Z</time>
      </trkpt>
      <trkpt lat="42.11673" lon="0.99943">
        <ele>528.9325</ele>
        <time>2021-07-22T11:43:52Z</time>
      </trkpt>
      <trkpt lat="42.11728" lon="0.99619">
        <ele>539.1677</ele>
        <time>2021-07-22T11:44:03Z</time>
      </trkpt>
      <trkpt lat="42.11938" lon="0.99448">
        <ele>541.5713</ele>
        <time>2021-07-22T11:44:14Z</time>
      </trkpt>
      <trkpt lat="42.1221" lon="0.9937">
        <ele>533.1989</ele>
        <time>2021-07-22T11:44:25Z</time>
      </trkpt>
      <trkpt lat="42.12435" lon="0.99179">
        <ele>526.0415</ele>
        <time>2021-07-22T11:44:36Z</time>
      </trkpt>
      <trkpt lat="42.12688" lon="0.9915">
        <ele>516.073</ele>
        <time>2021-07-22T11:44:47Z</time>
      </trkpt>
      <trkpt lat="42.129" lon="0.99039">
        <ele>513.9444</ele>
        <time>2021-07-22T11:44:58Z</time>
      </trkpt>
      <trkpt lat="42.13076" lon="0.98852">
        <ele>523.1432</ele>
        <time>2021-07-22T11:45:09Z</time>
      </trkpt>
      <trkpt lat="42.13183" lon="0.98759">
        <ele>528.2259</ele>
        <time>2021-07-22T11:45:20Z</time>
      </trkpt>
      <trkpt lat="42.13178" lon="0.98822">
        <ele>529.4355</ele>
        <time>2021-07-22T11:45:31Z</time>
      </trkpt>
      <trkpt lat="42.1318" lon="0.98828">
        <ele>528.0084</ele>
        <time>2021-07-22T11:45:42Z</time>
      </trkpt>
      <trkpt lat="42.13182" lon="0.98832">
        <ele>525.1349</ele>
        <time>2021-07-22T11:46:31Z</time>
      </trkpt>
      <trkpt lat="42.13182" lon="0.98836">
        <ele>526.292</ele>
        <time>2021-07-22T11:47:31Z</time>
      </trkpt>
      <trkpt lat="42.13181" lon="0.98838">
        <ele>525.6731</ele>
        <time>2021-07-22T11:48:31Z</time>
      </trkpt>
      <trkpt lat="42.13181" lon="0.98836">
        <ele>523.1935</ele>
        <time>2021-07-22T11:49:31Z</time>
      </trkpt>
      <trkpt lat="42.13181" lon="0.98836">
        <ele>523.0569</ele>
        <time>2021-07-22T11:50:31Z</time>
      </trkpt>
      <trkpt lat="42.13183" lon="0.98833">
        <ele>521.3189</ele>
        <time>2021-07-22T11:51:31Z</time>
      </trkpt>
      <trkpt lat="42.13183" lon="0.98834">
        <ele>522.181</ele>
        <time>2021-07-22T11:52:31Z</time>
      </trkpt>
      <trkpt lat="42.13182" lon="0.98833">
        <ele>520.6075</ele>
        <time>2021-07-22T11:53:31Z</time>
      </trkpt>
      <trkpt lat="42.13182" lon="0.98833">
        <ele>520.6077</ele>
        <time>2021-07-22T11:54:31Z</time>
      </trkpt>
      <trkpt lat="42.13183" lon="0.98834">
        <ele>522.2252</ele>
        <time>2021-07-22T11:55:31Z</time>
      </trkpt>
      <trkpt lat="42.13183" lon="0.98834">
        <ele>522.2252</ele>
        <time>2021-07-22T11:56:31Z</time>
      </trkpt>
      <trkpt lat="42.13183" lon="0.98834">
        <ele>522.2252</ele>
        <time>2021-07-22T11:57:31Z</time>
      </trkpt>
      <trkpt lat="42.13183" lon="0.98834">
        <ele>522.2252</ele>
        <time>2021-07-22T11:58:31Z</time>
      </trkpt>
      <trkpt lat="42.1318" lon="0.9884">
        <ele>522.5938</ele>
        <time>2021-07-22T11:58:59Z</time>
      </trkpt>
      <trkpt lat="42.13186" lon="0.98851">
        <ele>522.7169</ele>
        <time>2021-07-22T11:59:10Z</time>
      </trkpt>
      <trkpt lat="42.13186" lon="0.98855">
        <ele>523.6706</ele>
        <time>2021-07-22T12:00:10Z</time>
      </trkpt>
      <trkpt lat="42.13186" lon="0.98855">
        <ele>523.6706</ele>
        <time>2021-07-22T12:01:10Z</time>
      </trkpt>
      <trkpt lat="42.13186" lon="0.98855">
        <ele>523.6706</ele>
        <time>2021-07-22T12:02:09Z</time>
      </trkpt>
      <trkpt lat="42.13186" lon="0.98855">
        <ele>523.6706</ele>
        <time>2021-07-22T12:03:08Z</time>
      </trkpt>
      <trkpt lat="42.13186" lon="0.98855">
        <ele>523.6706</ele>
        <time>2021-07-22T12:04:08Z</time>
      </trkpt>
      <trkpt lat="42.13184" lon="0.98854">
        <ele>525.1593</ele>
        <time>2021-07-22T12:05:08Z</time>
      </trkpt>
      <trkpt lat="42.13184" lon="0.98854">
        <ele>525.1593</ele>
        <time>2021-07-22T12:06:08Z</time>
      </trkpt>
      <trkpt lat="42.13185" lon="0.98857">
        <ele>526.2506</ele>
        <time>2021-07-22T12:07:07Z</time>
      </trkpt>
      <trkpt lat="42.13184" lon="0.98856">
        <ele>525.1488</ele>
        <time>2021-07-22T12:08:07Z</time>
      </trkpt>
      <trkpt lat="42.13184" lon="0.98856">
        <ele>525.1488</ele>
        <time>2021-07-22T12:09:06Z</time>
      </trkpt>
      <trkpt lat="42.13183" lon="0.98854">
        <ele>526.3979</ele>
        <time>2021-07-22T12:10:06Z</time>
      </trkpt>
      <trkpt lat="42.13183" lon="0.98856">
        <ele>525.8263</ele>
        <time>2021-07-22T12:11:05Z</time>
      </trkpt>
      <trkpt lat="42.13185" lon="0.98856">
        <ele>525.4676</ele>
        <time>2021-07-22T12:12:05Z</time>
      </trkpt>
      <trkpt lat="42.13184" lon="0.98859">
        <ele>523.5139</ele>
        <time>2021-07-22T12:13:04Z</time>
      </trkpt>
      <trkpt lat="42.13185" lon="0.98855">
        <ele>526.1328</ele>
        <time>2021-07-22T12:14:03Z</time>
      </trkpt>
      <trkpt lat="42.13187" lon="0.98834">
        <ele>526.6</ele>
        <time>2021-07-22T12:14:14Z</time>
      </trkpt>
      <trkpt lat="42.13197" lon="0.98801">
        <ele>528.674</ele>
        <time>2021-07-22T12:14:25Z</time>
      </trkpt>
      <trkpt lat="42.13183" lon="0.98693">
        <ele>528.7719</ele>
        <time>2021-07-22T12:14:36Z</time>
      </trkpt>
      <trkpt lat="42.13228" lon="0.98536">
        <ele>526.1326</ele>
        <time>2021-07-22T12:14:47Z</time>
      </trkpt>
      <trkpt lat="42.13248" lon="0.98379">
        <ele>525.5678</ele>
        <time>2021-07-22T12:14:58Z</time>
      </trkpt>
      <trkpt lat="42.13264" lon="0.98228">
        <ele>525.9963</ele>
        <time>2021-07-22T12:15:09Z</time>
      </trkpt>
      <trkpt lat="42.13262" lon="0.9809">
        <ele>528.1093</ele>
        <time>2021-07-22T12:15:20Z</time>
      </trkpt>
      <trkpt lat="42.13248" lon="0.97945">
        <ele>525.618</ele>
        <time>2021-07-22T12:15:31Z</time>
      </trkpt>
      <trkpt lat="42.13234" lon="0.97802">
        <ele>522.5907</ele>
        <time>2021-07-22T12:15:42Z</time>
      </trkpt>
      <trkpt lat="42.13218" lon="0.97653">
        <ele>519.5587</ele>
        <time>2021-07-22T12:15:53Z</time>
      </trkpt>
      <trkpt lat="42.13203" lon="0.97501">
        <ele>517.0497</ele>
        <time>2021-07-22T12:16:04Z</time>
      </trkpt>
      <trkpt lat="42.13185" lon="0.97357">
        <ele>515.3481</ele>
        <time>2021-07-22T12:16:15Z</time>
      </trkpt>
      <trkpt lat="42.13159" lon="0.97218">
        <ele>511.5338</ele>
        <time>2021-07-22T12:16:26Z</time>
      </trkpt>
      <trkpt lat="42.13127" lon="0.97079">
        <ele>507.6097</ele>
        <time>2021-07-22T12:16:37Z</time>
      </trkpt>
      <trkpt lat="42.13093" lon="0.96939">
        <ele>504.0193</ele>
        <time>2021-07-22T12:16:48Z</time>
      </trkpt>
      <trkpt lat="42.13058" lon="0.96798">
        <ele>499.9491</ele>
        <time>2021-07-22T12:16:59Z</time>
      </trkpt>
      <trkpt lat="42.13024" lon="0.96664">
        <ele>497.3079</ele>
        <time>2021-07-22T12:17:10Z</time>
      </trkpt>
      <trkpt lat="42.12992" lon="0.96526">
        <ele>496.546</ele>
        <time>2021-07-22T12:17:21Z</time>
      </trkpt>
      <trkpt lat="42.1296" lon="0.96397">
        <ele>494.7702</ele>
        <time>2021-07-22T12:17:32Z</time>
      </trkpt>
      <trkpt lat="42.12929" lon="0.96258">
        <ele>491.3256</ele>
        <time>2021-07-22T12:17:43Z</time>
      </trkpt>
      <trkpt lat="42.12913" lon="0.96103">
        <ele>488.526</ele>
        <time>2021-07-22T12:17:54Z</time>
      </trkpt>
      <trkpt lat="42.1291" lon="0.95967">
        <ele>486.6705</ele>
        <time>2021-07-22T12:18:05Z</time>
      </trkpt>
      <trkpt lat="42.12906" lon="0.95824">
        <ele>481.7636</ele>
        <time>2021-07-22T12:18:16Z</time>
      </trkpt>
      <trkpt lat="42.12903" lon="0.95688">
        <ele>478.8031</ele>
        <time>2021-07-22T12:18:27Z</time>
      </trkpt>
      <trkpt lat="42.12908" lon="0.95546">
        <ele>477.8427</ele>
        <time>2021-07-22T12:18:38Z</time>
      </trkpt>
      <trkpt lat="42.1295" lon="0.95405">
        <ele>474.428</ele>
        <time>2021-07-22T12:18:49Z</time>
      </trkpt>
      <trkpt lat="42.13029" lon="0.95299">
        <ele>469.0025</ele>
        <time>2021-07-22T12:19:00Z</time>
      </trkpt>
      <trkpt lat="42.1313" lon="0.95236">
        <ele>462.1566</ele>
        <time>2021-07-22T12:19:11Z</time>
      </trkpt>
      <trkpt lat="42.1323" lon="0.95179">
        <ele>457.0341</ele>
        <time>2021-07-22T12:19:22Z</time>
      </trkpt>
      <trkpt lat="42.13329" lon="0.95122">
        <ele>455.8459</ele>
        <time>2021-07-22T12:19:33Z</time>
      </trkpt>
      <trkpt lat="42.13423" lon="0.95049">
        <ele>461.363</ele>
        <time>2021-07-22T12:19:44Z</time>
      </trkpt>
      <trkpt lat="42.1349" lon="0.94943">
        <ele>467.4948</ele>
        <time>2021-07-22T12:19:55Z</time>
      </trkpt>
      <trkpt lat="42.13546" lon="0.94826">
        <ele>472.404</ele>
        <time>2021-07-22T12:20:06Z</time>
      </trkpt>
      <trkpt lat="42.13609" lon="0.9471">
        <ele>470.6609</ele>
        <time>2021-07-22T12:20:17Z</time>
      </trkpt>
      <trkpt lat="42.13683" lon="0.94592">
        <ele>469.6955</ele>
        <time>2021-07-22T12:20:28Z</time>
      </trkpt>
      <trkpt lat="42.13754" lon="0.94484">
        <ele>469.2011</ele>
        <time>2021-07-22T12:20:39Z</time>
      </trkpt>
      <trkpt lat="42.13823" lon="0.94376">
        <ele>469.2668</ele>
        <time>2021-07-22T12:20:50Z</time>
      </trkpt>
      <trkpt lat="42.13884" lon="0.94256">
        <ele>467.9226</ele>
        <time>2021-07-22T12:21:01Z</time>
      </trkpt>
      <trkpt lat="42.13924" lon="0.94112">
        <ele>465.8855</ele>
        <time>2021-07-22T12:21:12Z</time>
      </trkpt>
      <trkpt lat="42.13963" lon="0.93976">
        <ele>462.1893</ele>
        <time>2021-07-22T12:21:23Z</time>
      </trkpt>
      <trkpt lat="42.13999" lon="0.93849">
        <ele>459.2927</ele>
        <time>2021-07-22T12:21:34Z</time>
      </trkpt>
      <trkpt lat="42.14034" lon="0.93723">
        <ele>461.05</ele>
        <time>2021-07-22T12:21:45Z</time>
      </trkpt>
      <trkpt lat="42.14073" lon="0.93585">
        <ele>464.5189</ele>
        <time>2021-07-22T12:21:56Z</time>
      </trkpt>
      <trkpt lat="42.14109" lon="0.93452">
        <ele>463.0856</ele>
        <time>2021-07-22T12:22:07Z</time>
      </trkpt>
      <trkpt lat="42.14147" lon="0.93307">
        <ele>458.6451</ele>
        <time>2021-07-22T12:22:18Z</time>
      </trkpt>
      <trkpt lat="42.14189" lon="0.93167">
        <ele>453.4035</ele>
        <time>2021-07-22T12:22:29Z</time>
      </trkpt>
      <trkpt lat="42.14213" lon="0.93087">
        <ele>451.0631</ele>
        <time>2021-07-22T12:22:40Z</time>
      </trkpt>
      <trkpt lat="42.14172" lon="0.93042">
        <ele>450.5734</ele>
        <time>2021-07-22T12:22:51Z</time>
      </trkpt>
      <trkpt lat="42.14155" lon="0.93055">
        <ele>451.3393</ele>
        <time>2021-07-22T12:23:02Z</time>
      </trkpt>
      <trkpt lat="42.1419" lon="0.93084">
        <ele>451.3766</ele>
        <time>2021-07-22T12:23:13Z</time>
      </trkpt>
      <trkpt lat="42.14227" lon="0.93053">
        <ele>450.2705</ele>
        <time>2021-07-22T12:23:24Z</time>
      </trkpt>
      <trkpt lat="42.14228" lon="0.93052">
        <ele>450.5647</ele>
        <time>2021-07-22T12:24:24Z</time>
      </trkpt>
      <trkpt lat="42.14224" lon="0.93053">
        <ele>450.6131</ele>
        <time>2021-07-22T12:24:49Z</time>
      </trkpt>
      <trkpt lat="42.14194" lon="0.93078">
        <ele>451.2637</ele>
        <time>2021-07-22T12:25:00Z</time>
      </trkpt>
      <trkpt lat="42.14214" lon="0.93084">
        <ele>451.4404</ele>
        <time>2021-07-22T12:25:11Z</time>
      </trkpt>
      <trkpt lat="42.14207" lon="0.93079">
        <ele>451.7169</ele>
        <time>2021-07-22T12:25:22Z</time>
      </trkpt>
      <trkpt lat="42.14238" lon="0.93037">
        <ele>449.1564</ele>
        <time>2021-07-22T12:25:33Z</time>
      </trkpt>
      <trkpt lat="42.14302" lon="0.92857">
        <ele>447.1951</ele>
        <time>2021-07-22T12:25:44Z</time>
      </trkpt>
      <trkpt lat="42.1436" lon="0.92706">
        <ele>448.6406</ele>
        <time>2021-07-22T12:25:55Z</time>
      </trkpt>
      <trkpt lat="42.14411" lon="0.92565">
        <ele>450.1625</ele>
        <time>2021-07-22T12:26:06Z</time>
      </trkpt>
      <trkpt lat="42.14464" lon="0.92395">
        <ele>449.4835</ele>
        <time>2021-07-22T12:26:17Z</time>
      </trkpt>
      <trkpt lat="42.14462" lon="0.92207">
        <ele>446.8276</ele>
        <time>2021-07-22T12:26:28Z</time>
      </trkpt>
      <trkpt lat="42.14473" lon="0.92018">
        <ele>446.0808</ele>
        <time>2021-07-22T12:26:39Z</time>
      </trkpt>
      <trkpt lat="42.14556" lon="0.91881">
        <ele>440.9396</ele>
        <time>2021-07-22T12:26:50Z</time>
      </trkpt>
      <trkpt lat="42.14656" lon="0.91779">
        <ele>441.4751</ele>
        <time>2021-07-22T12:27:01Z</time>
      </trkpt>
      <trkpt lat="42.14777" lon="0.91731">
        <ele>441.6008</ele>
        <time>2021-07-22T12:27:12Z</time>
      </trkpt>
      <trkpt lat="42.14906" lon="0.91679">
        <ele>442.9729</ele>
        <time>2021-07-22T12:27:23Z</time>
      </trkpt>
      <trkpt lat="42.15053" lon="0.91625">
        <ele>439.9818</ele>
        <time>2021-07-22T12:27:34Z</time>
      </trkpt>
      <trkpt lat="42.15189" lon="0.91577">
        <ele>439.7616</ele>
        <time>2021-07-22T12:27:45Z</time>
      </trkpt>
      <trkpt lat="42.15332" lon="0.91525">
        <ele>439.3759</ele>
        <time>2021-07-22T12:27:56Z</time>
      </trkpt>
      <trkpt lat="42.15479" lon="0.91486">
        <ele>436.6132</ele>
        <time>2021-07-22T12:28:07Z</time>
      </trkpt>
      <trkpt lat="42.15623" lon="0.91464">
        <ele>440.2893</ele>
        <time>2021-07-22T12:28:18Z</time>
      </trkpt>
      <trkpt lat="42.15769" lon="0.91439">
        <ele>442.5433</ele>
        <time>2021-07-22T12:28:29Z</time>
      </trkpt>
      <trkpt lat="42.15883" lon="0.9129">
        <ele>440.6891</ele>
        <time>2021-07-22T12:28:40Z</time>
      </trkpt>
      <trkpt lat="42.15969" lon="0.91145">
        <ele>436.2916</ele>
        <time>2021-07-22T12:28:51Z</time>
      </trkpt>
      <trkpt lat="42.16041" lon="0.90996">
        <ele>432.802</ele>
        <time>2021-07-22T12:29:02Z</time>
      </trkpt>
      <trkpt lat="42.16157" lon="0.909">
        <ele>428.7587</ele>
        <time>2021-07-22T12:29:13Z</time>
      </trkpt>
      <trkpt lat="42.16282" lon="0.90809">
        <ele>424.5709</ele>
        <time>2021-07-22T12:29:24Z</time>
      </trkpt>
      <trkpt lat="42.16422" lon="0.90747">
        <ele>421.4034</ele>
        <time>2021-07-22T12:29:35Z</time>
      </trkpt>
      <trkpt lat="42.16561" lon="0.90753">
        <ele>425.4661</ele>
        <time>2021-07-22T12:29:46Z</time>
      </trkpt>
      <trkpt lat="42.16707" lon="0.90756">
        <ele>426.4744</ele>
        <time>2021-07-22T12:29:57Z</time>
      </trkpt>
      <trkpt lat="42.16813" lon="0.90715">
        <ele>424.9959</ele>
        <time>2021-07-22T12:30:08Z</time>
      </trkpt>
      <trkpt lat="42.16829" lon="0.90527">
        <ele>425.5394</ele>
        <time>2021-07-22T12:30:19Z</time>
      </trkpt>
      <trkpt lat="42.16783" lon="0.90353">
        <ele>422.0675</ele>
        <time>2021-07-22T12:30:30Z</time>
      </trkpt>
      <trkpt lat="42.16655" lon="0.90239">
        <ele>427.2131</ele>
        <time>2021-07-22T12:30:41Z</time>
      </trkpt>
      <trkpt lat="42.16555" lon="0.90154">
        <ele>427.4565</ele>
        <time>2021-07-22T12:30:52Z</time>
      </trkpt>
      <trkpt lat="42.16445" lon="0.90064">
        <ele>435.6563</ele>
        <time>2021-07-22T12:31:03Z</time>
      </trkpt>
      <trkpt lat="42.16355" lon="0.89951">
        <ele>439.0437</ele>
        <time>2021-07-22T12:31:14Z</time>
      </trkpt>
      <trkpt lat="42.16354" lon="0.89777">
        <ele>444.5113</ele>
        <time>2021-07-22T12:31:25Z</time>
      </trkpt>
      <trkpt lat="42.16364" lon="0.8961">
        <ele>450.3909</ele>
        <time>2021-07-22T12:31:36Z</time>
      </trkpt>
      <trkpt lat="42.16386" lon="0.89494">
        <ele>455.8431</ele>
        <time>2021-07-22T12:31:47Z</time>
      </trkpt>
      <trkpt lat="42.16454" lon="0.89493">
        <ele>462.0853</ele>
        <time>2021-07-22T12:31:58Z</time>
      </trkpt>
      <trkpt lat="42.16529" lon="0.89518">
        <ele>469.3775</ele>
        <time>2021-07-22T12:32:09Z</time>
      </trkpt>
      <trkpt lat="42.16603" lon="0.89544">
        <ele>477.2251</ele>
        <time>2021-07-22T12:32:20Z</time>
      </trkpt>
      <trkpt lat="42.16654" lon="0.89599">
        <ele>471.5594</ele>
        <time>2021-07-22T12:32:31Z</time>
      </trkpt>
      <trkpt lat="42.1667" lon="0.89617">
        <ele>471.4824</ele>
        <time>2021-07-22T12:32:42Z</time>
      </trkpt>
      <trkpt lat="42.16673" lon="0.89619">
        <ele>471.3302</ele>
        <time>2021-07-22T12:32:53Z</time>
      </trkpt>
      <trkpt lat="42.16669" lon="0.89617">
        <ele>469.2979</ele>
        <time>2021-07-22T12:33:07Z</time>
      </trkpt>
      <trkpt lat="42.16676" lon="0.8962">
        <ele>470.6047</ele>
        <time>2021-07-22T12:33:18Z</time>
      </trkpt>
      <trkpt lat="42.16673" lon="0.89616">
        <ele>470.0945</ele>
        <time>2021-07-22T12:33:34Z</time>
      </trkpt>
      <trkpt lat="42.16669" lon="0.89617">
        <ele>466.762</ele>
        <time>2021-07-22T12:34:26Z</time>
      </trkpt>
      <trkpt lat="42.16665" lon="0.89617">
        <ele>464.9165</ele>
        <time>2021-07-22T12:35:15Z</time>
      </trkpt>
      <trkpt lat="42.16666" lon="0.89612">
        <ele>460.8113</ele>
        <time>2021-07-22T12:35:31Z</time>
      </trkpt>
      <trkpt lat="42.16662" lon="0.89613">
        <ele>468.4762</ele>
        <time>2021-07-22T12:36:25Z</time>
      </trkpt>
      <trkpt lat="42.16666" lon="0.89615">
        <ele>467.7963</ele>
        <time>2021-07-22T12:36:43Z</time>
      </trkpt>
      <trkpt lat="42.16669" lon="0.89611">
        <ele>468.6582</ele>
        <time>2021-07-22T12:36:55Z</time>
      </trkpt>
      <trkpt lat="42.16665" lon="0.89609">
        <ele>470.955</ele>
        <time>2021-07-22T12:37:39Z</time>
      </trkpt>
      <trkpt lat="42.16657" lon="0.89617">
        <ele>470.5283</ele>
        <time>2021-07-22T12:37:50Z</time>
      </trkpt>
      <trkpt lat="42.16652" lon="0.8961">
        <ele>470.4444</ele>
        <time>2021-07-22T12:38:01Z</time>
      </trkpt>
      <trkpt lat="42.16648" lon="0.89603">
        <ele>468.6187</ele>
        <time>2021-07-22T12:38:12Z</time>
      </trkpt>
      <trkpt lat="42.16642" lon="0.89593">
        <ele>469.7663</ele>
        <time>2021-07-22T12:38:23Z</time>
      </trkpt>
      <trkpt lat="42.1664" lon="0.89583">
        <ele>466.9481</ele>
        <time>2021-07-22T12:38:34Z</time>
      </trkpt>
      <trkpt lat="42.16635" lon="0.89577">
        <ele>468.2983</ele>
        <time>2021-07-22T12:38:45Z</time>
      </trkpt>
      <trkpt lat="42.16639" lon="0.89572">
        <ele>468.8164</ele>
        <time>2021-07-22T12:39:19Z</time>
      </trkpt>
      <trkpt lat="42.16641" lon="0.89563">
        <ele>469.1619</ele>
        <time>2021-07-22T12:39:30Z</time>
      </trkpt>
    </trkseg>
  </trk>
  <trk>
    <name><![CDATA[Road trip fait P/E_16]]></name>
    <extensions>
      <line xmlns="http://www.topografix.com/GPX/gpx_style/0/2">
        <color>008888</color>
        <width>4</width>
      </line>
    </extensions>
    <trkseg>
      <trkpt lat="42.36619" lon="0.85651">
        <ele>1132.207</ele>
        <time>2021-07-22T15:20:41Z</time>
      </trkpt>
      <trkpt lat="42.36619" lon="0.85651">
        <ele>1132.207</ele>
        <time>2021-07-22T15:20:41Z</time>
      </trkpt>
      <trkpt lat="42.3655" lon="0.85488">
        <ele>1147.776</ele>
        <time>2021-07-22T15:20:52Z</time>
      </trkpt>
      <trkpt lat="42.36412" lon="0.85267">
        <ele>1159.375</ele>
        <time>2021-07-22T15:21:03Z</time>
      </trkpt>
      <trkpt lat="42.36318" lon="0.85027">
        <ele>1176.751</ele>
        <time>2021-07-22T15:21:14Z</time>
      </trkpt>
      <trkpt lat="42.36251" lon="0.85135">
        <ele>1178.163</ele>
        <time>2021-07-22T15:21:25Z</time>
      </trkpt>
      <trkpt lat="42.36241" lon="0.85">
        <ele>1189.242</ele>
        <time>2021-07-22T15:21:36Z</time>
      </trkpt>
      <trkpt lat="42.36321" lon="0.84931">
        <ele>1196.117</ele>
        <time>2021-07-22T15:21:47Z</time>
      </trkpt>
      <trkpt lat="42.36504" lon="0.85179">
        <ele>1205.843</ele>
        <time>2021-07-22T15:21:58Z</time>
      </trkpt>
      <trkpt lat="42.36602" lon="0.85264">
        <ele>1212.447</ele>
        <time>2021-07-22T15:22:09Z</time>
      </trkpt>
      <trkpt lat="42.36497" lon="0.85033">
        <ele>1224.314</ele>
        <time>2021-07-22T15:22:20Z</time>
      </trkpt>
      <trkpt lat="42.36487" lon="0.84831">
        <ele>1238.075</ele>
        <time>2021-07-22T15:22:31Z</time>
      </trkpt>
      <trkpt lat="42.36439" lon="0.84851">
        <ele>1245.28</ele>
        <time>2021-07-22T15:22:42Z</time>
      </trkpt>
      <trkpt lat="42.36504" lon="0.84764">
        <ele>1250.84</ele>
        <time>2021-07-22T15:22:53Z</time>
      </trkpt>
      <trkpt lat="42.36439" lon="0.8473">
        <ele>1260.037</ele>
        <time>2021-07-22T15:23:04Z</time>
      </trkpt>
      <trkpt lat="42.36317" lon="0.84655">
        <ele>1269.667</ele>
        <time>2021-07-22T15:23:15Z</time>
      </trkpt>
      <trkpt lat="42.36219" lon="0.84544">
        <ele>1281.333</ele>
        <time>2021-07-22T15:23:26Z</time>
      </trkpt>
      <trkpt lat="42.3614" lon="0.84248">
        <ele>1301.346</ele>
        <time>2021-07-22T15:23:37Z</time>
      </trkpt>
      <trkpt lat="42.35975" lon="0.84187">
        <ele>1319.549</ele>
        <time>2021-07-22T15:23:48Z</time>
      </trkpt>
      <trkpt lat="42.35786" lon="0.84219">
        <ele>1333.798</ele>
        <time>2021-07-22T15:23:59Z</time>
      </trkpt>
      <trkpt lat="42.35717" lon="0.8396">
        <ele>1318.31</ele>
        <time>2021-07-22T15:24:10Z</time>
      </trkpt>
      <trkpt lat="42.35765" lon="0.8368">
        <ele>1300.614</ele>
        <time>2021-07-22T15:24:21Z</time>
      </trkpt>
      <trkpt lat="42.35708" lon="0.83498">
        <ele>1288.799</ele>
        <time>2021-07-22T15:24:32Z</time>
      </trkpt>
      <trkpt lat="42.35708" lon="0.83276">
        <ele>1276.146</ele>
        <time>2021-07-22T15:24:43Z</time>
      </trkpt>
      <trkpt lat="42.35527" lon="0.83173">
        <ele>1257.667</ele>
        <time>2021-07-22T15:24:54Z</time>
      </trkpt>
      <trkpt lat="42.35364" lon="0.83046">
        <ele>1242.489</ele>
        <time>2021-07-22T15:25:05Z</time>
      </trkpt>
      <trkpt lat="42.35312" lon="0.82795">
        <ele>1221.733</ele>
        <time>2021-07-22T15:25:16Z</time>
      </trkpt>
      <trkpt lat="42.35468" lon="0.82509">
        <ele>1202.298</ele>
        <time>2021-07-22T15:25:27Z</time>
      </trkpt>
      <trkpt lat="42.35685" lon="0.82376">
        <ele>1182.77</ele>
        <time>2021-07-22T15:25:38Z</time>
      </trkpt>
      <trkpt lat="42.35816" lon="0.82302">
        <ele>1175.935</ele>
        <time>2021-07-22T15:25:49Z</time>
      </trkpt>
      <trkpt lat="42.35791" lon="0.82085">
        <ele>1184.769</ele>
        <time>2021-07-22T15:26:00Z</time>
      </trkpt>
      <trkpt lat="42.35904" lon="0.81878">
        <ele>1193.404</ele>
        <time>2021-07-22T15:26:11Z</time>
      </trkpt>
      <trkpt lat="42.36116" lon="0.81759">
        <ele>1189.347</ele>
        <time>2021-07-22T15:26:22Z</time>
      </trkpt>
      <trkpt lat="42.36306" lon="0.81649">
        <ele>1185.826</ele>
        <time>2021-07-22T15:26:33Z</time>
      </trkpt>
      <trkpt lat="42.36363" lon="0.8144">
        <ele>1189.636</ele>
        <time>2021-07-22T15:26:44Z</time>
      </trkpt>
      <trkpt lat="42.3649" lon="0.81266">
        <ele>1195.943</ele>
        <time>2021-07-22T15:26:55Z</time>
      </trkpt>
      <trkpt lat="42.36652" lon="0.81104">
        <ele>1206.964</ele>
        <time>2021-07-22T15:27:06Z</time>
      </trkpt>
      <trkpt lat="42.36751" lon="0.81026">
        <ele>1213.377</ele>
        <time>2021-07-22T15:27:17Z</time>
      </trkpt>
      <trkpt lat="42.36966" lon="0.80998">
        <ele>1227.258</ele>
        <time>2021-07-22T15:27:28Z</time>
      </trkpt>
      <trkpt lat="42.37092" lon="0.80893">
        <ele>1220.475</ele>
        <time>2021-07-22T15:27:39Z</time>
      </trkpt>
      <trkpt lat="42.37138" lon="0.80692">
        <ele>1208.135</ele>
        <time>2021-07-22T15:27:50Z</time>
      </trkpt>
      <trkpt lat="42.37242" lon="0.80535">
        <ele>1197.315</ele>
        <time>2021-07-22T15:28:01Z</time>
      </trkpt>
      <trkpt lat="42.37359" lon="0.80362">
        <ele>1185.847</ele>
        <time>2021-07-22T15:28:12Z</time>
      </trkpt>
      <trkpt lat="42.37344" lon="0.80082">
        <ele>1172.089</ele>
        <time>2021-07-22T15:28:23Z</time>
      </trkpt>
      <trkpt lat="42.37346" lon="0.79944">
        <ele>1163.167</ele>
        <time>2021-07-22T15:28:34Z</time>
      </trkpt>
      <trkpt lat="42.37469" lon="0.79747">
        <ele>1153.336</ele>
        <time>2021-07-22T15:28:45Z</time>
      </trkpt>
      <trkpt lat="42.37618" lon="0.79453">
        <ele>1133.263</ele>
        <time>2021-07-22T15:28:56Z</time>
      </trkpt>
      <trkpt lat="42.37717" lon="0.79273">
        <ele>1117.593</ele>
        <time>2021-07-22T15:29:07Z</time>
      </trkpt>
      <trkpt lat="42.37804" lon="0.79325">
        <ele>1104.666</ele>
        <time>2021-07-22T15:29:18Z</time>
      </trkpt>
      <trkpt lat="42.3789" lon="0.79367">
        <ele>1092.458</ele>
        <time>2021-07-22T15:29:29Z</time>
      </trkpt>
      <trkpt lat="42.38002" lon="0.79223">
        <ele>1083.444</ele>
        <time>2021-07-22T15:29:40Z</time>
      </trkpt>
      <trkpt lat="42.38167" lon="0.79123">
        <ele>1066.824</ele>
        <time>2021-07-22T15:29:51Z</time>
      </trkpt>
      <trkpt lat="42.38327" lon="0.79023">
        <ele>1054.361</ele>
        <time>2021-07-22T15:30:02Z</time>
      </trkpt>
      <trkpt lat="42.3841" lon="0.78989">
        <ele>1045.057</ele>
        <time>2021-07-22T15:30:13Z</time>
      </trkpt>
      <trkpt lat="42.38558" lon="0.78891">
        <ele>1029.592</ele>
        <time>2021-07-22T15:30:24Z</time>
      </trkpt>
      <trkpt lat="42.38736" lon="0.78754">
        <ele>1015.648</ele>
        <time>2021-07-22T15:30:35Z</time>
      </trkpt>
      <trkpt lat="42.38875" lon="0.78694">
        <ele>1005.617</ele>
        <time>2021-07-22T15:30:46Z</time>
      </trkpt>
      <trkpt lat="42.38711" lon="0.78843">
        <ele>988.8548</ele>
        <time>2021-07-22T15:30:57Z</time>
      </trkpt>
      <trkpt lat="42.38702" lon="0.78906">
        <ele>978.1707</ele>
        <time>2021-07-22T15:31:08Z</time>
      </trkpt>
      <trkpt lat="42.38872" lon="0.78841">
        <ele>962.6638</ele>
        <time>2021-07-22T15:31:19Z</time>
      </trkpt>
      <trkpt lat="42.39023" lon="0.78768">
        <ele>946.0699</ele>
        <time>2021-07-22T15:31:30Z</time>
      </trkpt>
      <trkpt lat="42.39123" lon="0.78691">
        <ele>939.4955</ele>
        <time>2021-07-22T15:31:41Z</time>
      </trkpt>
      <trkpt lat="42.39222" lon="0.78557">
        <ele>931.1022</ele>
        <time>2021-07-22T15:31:52Z</time>
      </trkpt>
      <trkpt lat="42.39372" lon="0.78546">
        <ele>925.7915</ele>
        <time>2021-07-22T15:32:03Z</time>
      </trkpt>
      <trkpt lat="42.3941" lon="0.78382">
        <ele>919.3443</ele>
        <time>2021-07-22T15:32:14Z</time>
      </trkpt>
      <trkpt lat="42.39469" lon="0.78207">
        <ele>917.1193</ele>
        <time>2021-07-22T15:32:25Z</time>
      </trkpt>
      <trkpt lat="42.39455" lon="0.77953">
        <ele>914.667</ele>
        <time>2021-07-22T15:32:36Z</time>
      </trkpt>
      <trkpt lat="42.39494" lon="0.77693">
        <ele>911.6059</ele>
        <time>2021-07-22T15:32:47Z</time>
      </trkpt>
      <trkpt lat="42.39434" lon="0.77481">
        <ele>899.4694</ele>
        <time>2021-07-22T15:32:58Z</time>
      </trkpt>
      <trkpt lat="42.39443" lon="0.77215">
        <ele>901.8822</ele>
        <time>2021-07-22T15:33:09Z</time>
      </trkpt>
      <trkpt lat="42.39385" lon="0.76992">
        <ele>890.1013</ele>
        <time>2021-07-22T15:33:20Z</time>
      </trkpt>
      <trkpt lat="42.39392" lon="0.76781">
        <ele>882.1003</ele>
        <time>2021-07-22T15:33:31Z</time>
      </trkpt>
      <trkpt lat="42.39368" lon="0.76568">
        <ele>879.2105</ele>
        <time>2021-07-22T15:33:42Z</time>
      </trkpt>
      <trkpt lat="42.39457" lon="0.7634">
        <ele>867.2985</ele>
        <time>2021-07-22T15:33:53Z</time>
      </trkpt>
      <trkpt lat="42.39377" lon="0.76114">
        <ele>852.0804</ele>
        <time>2021-07-22T15:34:04Z</time>
      </trkpt>
      <trkpt lat="42.39288" lon="0.75844">
        <ele>850.3899</ele>
        <time>2021-07-22T15:34:15Z</time>
      </trkpt>
      <trkpt lat="42.39156" lon="0.75636">
        <ele>842.6755</ele>
        <time>2021-07-22T15:34:26Z</time>
      </trkpt>
      <trkpt lat="42.38994" lon="0.75624">
        <ele>836.6719</ele>
        <time>2021-07-22T15:34:37Z</time>
      </trkpt>
      <trkpt lat="42.39062" lon="0.75441">
        <ele>829.973</ele>
        <time>2021-07-22T15:34:48Z</time>
      </trkpt>
      <trkpt lat="42.38992" lon="0.75255">
        <ele>823.4346</ele>
        <time>2021-07-22T15:34:59Z</time>
      </trkpt>
      <trkpt lat="42.38985" lon="0.75065">
        <ele>825.8769</ele>
        <time>2021-07-22T15:35:10Z</time>
      </trkpt>
      <trkpt lat="42.38946" lon="0.74909">
        <ele>828.4181</ele>
        <time>2021-07-22T15:35:21Z</time>
      </trkpt>
      <trkpt lat="42.38907" lon="0.74753">
        <ele>828.6516</ele>
        <time>2021-07-22T15:35:32Z</time>
      </trkpt>
      <trkpt lat="42.3895" lon="0.74592">
        <ele>833.6355</ele>
        <time>2021-07-22T15:35:43Z</time>
      </trkpt>
      <trkpt lat="42.39091" lon="0.74587">
        <ele>837.2277</ele>
        <time>2021-07-22T15:35:54Z</time>
      </trkpt>
      <trkpt lat="42.39223" lon="0.74669">
        <ele>827.9848</ele>
        <time>2021-07-22T15:36:05Z</time>
      </trkpt>
      <trkpt lat="42.3948" lon="0.74685">
        <ele>830.9218</ele>
        <time>2021-07-22T15:36:16Z</time>
      </trkpt>
      <trkpt lat="42.39717" lon="0.74494">
        <ele>831.8795</ele>
        <time>2021-07-22T15:36:27Z</time>
      </trkpt>
      <trkpt lat="42.39909" lon="0.7434">
        <ele>823.6513</ele>
        <time>2021-07-22T15:36:38Z</time>
      </trkpt>
      <trkpt lat="42.40091" lon="0.74272">
        <ele>831.1469</ele>
        <time>2021-07-22T15:36:49Z</time>
      </trkpt>
      <trkpt lat="42.40163" lon="0.74234">
        <ele>832.9979</ele>
        <time>2021-07-22T15:37:00Z</time>
      </trkpt>
      <trkpt lat="42.40274" lon="0.74231">
        <ele>839.7938</ele>
        <time>2021-07-22T15:37:11Z</time>
      </trkpt>
      <trkpt lat="42.40375" lon="0.74222">
        <ele>842.4722</ele>
        <time>2021-07-22T15:37:22Z</time>
      </trkpt>
      <trkpt lat="42.40508" lon="0.74245">
        <ele>844.9</ele>
        <time>2021-07-22T15:37:33Z</time>
      </trkpt>
      <trkpt lat="42.40616" lon="0.74231">
        <ele>848.3841</ele>
        <time>2021-07-22T15:37:44Z</time>
      </trkpt>
      <trkpt lat="42.40722" lon="0.74275">
        <ele>852.5375</ele>
        <time>2021-07-22T15:37:55Z</time>
      </trkpt>
      <trkpt lat="42.408" lon="0.7423">
        <ele>853.4057</ele>
        <time>2021-07-22T15:38:06Z</time>
      </trkpt>
      <trkpt lat="42.40866" lon="0.74162">
        <ele>862.336</ele>
        <time>2021-07-22T15:38:17Z</time>
      </trkpt>
      <trkpt lat="42.40939" lon="0.74089">
        <ele>862.1154</ele>
        <time>2021-07-22T15:38:28Z</time>
      </trkpt>
      <trkpt lat="42.41038" lon="0.74046">
        <ele>862.9609</ele>
        <time>2021-07-22T15:38:39Z</time>
      </trkpt>
      <trkpt lat="42.41136" lon="0.74026">
        <ele>863.5192</ele>
        <time>2021-07-22T15:38:50Z</time>
      </trkpt>
      <trkpt lat="42.41259" lon="0.74001">
        <ele>865.1153</ele>
        <time>2021-07-22T15:39:01Z</time>
      </trkpt>
      <trkpt lat="42.41318" lon="0.73854">
        <ele>862.3039</ele>
        <time>2021-07-22T15:39:12Z</time>
      </trkpt>
      <trkpt lat="42.41472" lon="0.7376">
        <ele>864.9687</ele>
        <time>2021-07-22T15:39:23Z</time>
      </trkpt>
      <trkpt lat="42.41625" lon="0.73654">
        <ele>865.6479</ele>
        <time>2021-07-22T15:39:34Z</time>
      </trkpt>
      <trkpt lat="42.41792" lon="0.73562">
        <ele>859.8777</ele>
        <time>2021-07-22T15:39:45Z</time>
      </trkpt>
      <trkpt lat="42.41981" lon="0.73528">
        <ele>854.4958</ele>
        <time>2021-07-22T15:39:56Z</time>
      </trkpt>
      <trkpt lat="42.4225" lon="0.73374">
        <ele>857.2899</ele>
        <time>2021-07-22T15:40:07Z</time>
      </trkpt>
      <trkpt lat="42.42516" lon="0.73234">
        <ele>864.7383</ele>
        <time>2021-07-22T15:40:18Z</time>
      </trkpt>
      <trkpt lat="42.42681" lon="0.73002">
        <ele>866.2717</ele>
        <time>2021-07-22T15:40:29Z</time>
      </trkpt>
      <trkpt lat="42.42799" lon="0.72649">
        <ele>868.7248</ele>
        <time>2021-07-22T15:40:40Z</time>
      </trkpt>
      <trkpt lat="42.42996" lon="0.72453">
        <ele>873.5864</ele>
        <time>2021-07-22T15:40:51Z</time>
      </trkpt>
      <trkpt lat="42.4311" lon="0.72162">
        <ele>884.7466</ele>
        <time>2021-07-22T15:41:02Z</time>
      </trkpt>
      <trkpt lat="42.43265" lon="0.71788">
        <ele>886.788</ele>
        <time>2021-07-22T15:41:13Z</time>
      </trkpt>
      <trkpt lat="42.43401" lon="0.71492">
        <ele>887.3659</ele>
        <time>2021-07-22T15:41:24Z</time>
      </trkpt>
      <trkpt lat="42.43665" lon="0.71382">
        <ele>901.4751</ele>
        <time>2021-07-22T15:41:35Z</time>
      </trkpt>
      <trkpt lat="42.43895" lon="0.71274">
        <ele>903.5218</ele>
        <time>2021-07-22T15:41:46Z</time>
      </trkpt>
      <trkpt lat="42.44098" lon="0.71201">
        <ele>908.7437</ele>
        <time>2021-07-22T15:41:57Z</time>
      </trkpt>
      <trkpt lat="42.44309" lon="0.71128">
        <ele>911.0709</ele>
        <time>2021-07-22T15:42:08Z</time>
      </trkpt>
      <trkpt lat="42.44488" lon="0.71031">
        <ele>917.8803</ele>
        <time>2021-07-22T15:42:19Z</time>
      </trkpt>
      <trkpt lat="42.44659" lon="0.71008">
        <ele>923.3085</ele>
        <time>2021-07-22T15:42:30Z</time>
      </trkpt>
      <trkpt lat="42.44832" lon="0.71021">
        <ele>930.049</ele>
        <time>2021-07-22T15:42:41Z</time>
      </trkpt>
      <trkpt lat="42.44996" lon="0.70989">
        <ele>937.4478</ele>
        <time>2021-07-22T15:42:52Z</time>
      </trkpt>
      <trkpt lat="42.45143" lon="0.70947">
        <ele>939.3777</ele>
        <time>2021-07-22T15:43:04Z</time>
      </trkpt>
      <trkpt lat="42.4539" lon="0.70897">
        <ele>939.3126</ele>
        <time>2021-07-22T15:43:15Z</time>
      </trkpt>
      <trkpt lat="42.45593" lon="0.70847">
        <ele>939.1098</ele>
        <time>2021-07-22T15:43:26Z</time>
      </trkpt>
      <trkpt lat="42.45796" lon="0.70913">
        <ele>944.1987</ele>
        <time>2021-07-22T15:43:37Z</time>
      </trkpt>
      <trkpt lat="42.45991" lon="0.71072">
        <ele>947.5765</ele>
        <time>2021-07-22T15:43:48Z</time>
      </trkpt>
      <trkpt lat="42.4619" lon="0.71173">
        <ele>959.4164</ele>
        <time>2021-07-22T15:43:59Z</time>
      </trkpt>
      <trkpt lat="42.46414" lon="0.71326">
        <ele>972.3621</ele>
        <time>2021-07-22T15:44:10Z</time>
      </trkpt>
      <trkpt lat="42.46652" lon="0.71412">
        <ele>991.3911</ele>
        <time>2021-07-22T15:44:21Z</time>
      </trkpt>
      <trkpt lat="42.46899" lon="0.71512">
        <ele>996.9158</ele>
        <time>2021-07-22T15:44:32Z</time>
      </trkpt>
      <trkpt lat="42.47164" lon="0.71589">
        <ele>983.7087</ele>
        <time>2021-07-22T15:44:43Z</time>
      </trkpt>
      <trkpt lat="42.47373" lon="0.71625">
        <ele>975.3736</ele>
        <time>2021-07-22T15:44:54Z</time>
      </trkpt>
      <trkpt lat="42.47517" lon="0.71685">
        <ele>978.8952</ele>
        <time>2021-07-22T15:45:05Z</time>
      </trkpt>
      <trkpt lat="42.47676" lon="0.71765">
        <ele>991.2564</ele>
        <time>2021-07-22T15:45:16Z</time>
      </trkpt>
      <trkpt lat="42.47818" lon="0.71851">
        <ele>994.4101</ele>
        <time>2021-07-22T15:45:27Z</time>
      </trkpt>
      <trkpt lat="42.48018" lon="0.7188">
        <ele>998.4283</ele>
        <time>2021-07-22T15:45:38Z</time>
      </trkpt>
      <trkpt lat="42.48292" lon="0.71898">
        <ele>994.0933</ele>
        <time>2021-07-22T15:45:49Z</time>
      </trkpt>
      <trkpt lat="42.48546" lon="0.71807">
        <ele>999.4909</ele>
        <time>2021-07-22T15:46:00Z</time>
      </trkpt>
      <trkpt lat="42.48793" lon="0.71839">
        <ele>1003.011</ele>
        <time>2021-07-22T15:46:11Z</time>
      </trkpt>
      <trkpt lat="42.49039" lon="0.7184">
        <ele>1004.225</ele>
        <time>2021-07-22T15:46:22Z</time>
      </trkpt>
      <trkpt lat="42.49283" lon="0.71829">
        <ele>1007.801</ele>
        <time>2021-07-22T15:46:33Z</time>
      </trkpt>
      <trkpt lat="42.49523" lon="0.71782">
        <ele>1005.234</ele>
        <time>2021-07-22T15:46:44Z</time>
      </trkpt>
      <trkpt lat="42.49759" lon="0.71766">
        <ele>1005.691</ele>
        <time>2021-07-22T15:46:55Z</time>
      </trkpt>
      <trkpt lat="42.49979" lon="0.71726">
        <ele>1004.71</ele>
        <time>2021-07-22T15:47:06Z</time>
      </trkpt>
      <trkpt lat="42.50219" lon="0.71659">
        <ele>1001.459</ele>
        <time>2021-07-22T15:47:17Z</time>
      </trkpt>
      <trkpt lat="42.50419" lon="0.71563">
        <ele>1008.568</ele>
        <time>2021-07-22T15:47:28Z</time>
      </trkpt>
      <trkpt lat="42.50569" lon="0.71747">
        <ele>1008.739</ele>
        <time>2021-07-22T15:47:39Z</time>
      </trkpt>
      <trkpt lat="42.50838" lon="0.71842">
        <ele>1020.786</ele>
        <time>2021-07-22T15:47:50Z</time>
      </trkpt>
      <trkpt lat="42.5108" lon="0.71832">
        <ele>1034.391</ele>
        <time>2021-07-22T15:48:01Z</time>
      </trkpt>
      <trkpt lat="42.51294" lon="0.71938">
        <ele>1022.201</ele>
        <time>2021-07-22T15:48:12Z</time>
      </trkpt>
      <trkpt lat="42.51537" lon="0.72003">
        <ele>1027.825</ele>
        <time>2021-07-22T15:48:23Z</time>
      </trkpt>
      <trkpt lat="42.5173" lon="0.72193">
        <ele>1032.83</ele>
        <time>2021-07-22T15:48:34Z</time>
      </trkpt>
      <trkpt lat="42.51932" lon="0.72295">
        <ele>1039.704</ele>
        <time>2021-07-22T15:48:45Z</time>
      </trkpt>
      <trkpt lat="42.52131" lon="0.7222">
        <ele>1043.897</ele>
        <time>2021-07-22T15:48:56Z</time>
      </trkpt>
      <trkpt lat="42.523" lon="0.72128">
        <ele>1041.575</ele>
        <time>2021-07-22T15:49:07Z</time>
      </trkpt>
      <trkpt lat="42.52462" lon="0.72037">
        <ele>1041.038</ele>
        <time>2021-07-22T15:49:18Z</time>
      </trkpt>
      <trkpt lat="42.5263" lon="0.72029">
        <ele>1042.301</ele>
        <time>2021-07-22T15:49:29Z</time>
      </trkpt>
      <trkpt lat="42.52804" lon="0.72104">
        <ele>1044.567</ele>
        <time>2021-07-22T15:49:40Z</time>
      </trkpt>
      <trkpt lat="42.5311" lon="0.72233">
        <ele>1048.272</ele>
        <time>2021-07-22T15:49:51Z</time>
      </trkpt>
      <trkpt lat="42.53316" lon="0.72322">
        <ele>1052.069</ele>
        <time>2021-07-22T15:50:02Z</time>
      </trkpt>
      <trkpt lat="42.53417" lon="0.72453">
        <ele>1057.172</ele>
        <time>2021-07-22T15:50:13Z</time>
      </trkpt>
      <trkpt lat="42.53519" lon="0.7257">
        <ele>1067.252</ele>
        <time>2021-07-22T15:50:24Z</time>
      </trkpt>
      <trkpt lat="42.53652" lon="0.72593">
        <ele>1076.973</ele>
        <time>2021-07-22T15:50:35Z</time>
      </trkpt>
      <trkpt lat="42.53746" lon="0.72726">
        <ele>1088.357</ele>
        <time>2021-07-22T15:50:46Z</time>
      </trkpt>
      <trkpt lat="42.53886" lon="0.72757">
        <ele>1097.251</ele>
        <time>2021-07-22T15:50:57Z</time>
      </trkpt>
      <trkpt lat="42.54013" lon="0.72837">
        <ele>1108.182</ele>
        <time>2021-07-22T15:51:08Z</time>
      </trkpt>
      <trkpt lat="42.54158" lon="0.72929">
        <ele>1119.623</ele>
        <time>2021-07-22T15:51:19Z</time>
      </trkpt>
      <trkpt lat="42.5432" lon="0.72986">
        <ele>1132.621</ele>
        <time>2021-07-22T15:51:30Z</time>
      </trkpt>
      <trkpt lat="42.54461" lon="0.73079">
        <ele>1143.346</ele>
        <time>2021-07-22T15:51:41Z</time>
      </trkpt>
      <trkpt lat="42.54585" lon="0.73303">
        <ele>1156.682</ele>
        <time>2021-07-22T15:51:52Z</time>
      </trkpt>
      <trkpt lat="42.54647" lon="0.7367">
        <ele>1176.484</ele>
        <time>2021-07-22T15:52:03Z</time>
      </trkpt>
      <trkpt lat="42.54642" lon="0.73989">
        <ele>1194.856</ele>
        <time>2021-07-22T15:52:14Z</time>
      </trkpt>
      <trkpt lat="42.54702" lon="0.74172">
        <ele>1203.92</ele>
        <time>2021-07-22T15:52:26Z</time>
      </trkpt>
      <trkpt lat="42.54832" lon="0.74189">
        <ele>1207.619</ele>
        <time>2021-07-22T15:52:37Z</time>
      </trkpt>
      <trkpt lat="42.54887" lon="0.74316">
        <ele>1215.384</ele>
        <time>2021-07-22T15:52:48Z</time>
      </trkpt>
      <trkpt lat="42.54949" lon="0.74444">
        <ele>1223.696</ele>
        <time>2021-07-22T15:52:59Z</time>
      </trkpt>
      <trkpt lat="42.55042" lon="0.74545">
        <ele>1230.547</ele>
        <time>2021-07-22T15:53:10Z</time>
      </trkpt>
      <trkpt lat="42.55103" lon="0.74681">
        <ele>1235.598</ele>
        <time>2021-07-22T15:53:21Z</time>
      </trkpt>
      <trkpt lat="42.55203" lon="0.74782">
        <ele>1246.323</ele>
        <time>2021-07-22T15:53:32Z</time>
      </trkpt>
      <trkpt lat="42.55304" lon="0.74876">
        <ele>1252.518</ele>
        <time>2021-07-22T15:53:43Z</time>
      </trkpt>
      <trkpt lat="42.55424" lon="0.74825">
        <ele>1260.555</ele>
        <time>2021-07-22T15:53:54Z</time>
      </trkpt>
      <trkpt lat="42.5555" lon="0.74773">
        <ele>1268.741</ele>
        <time>2021-07-22T15:54:05Z</time>
      </trkpt>
      <trkpt lat="42.5568" lon="0.74766">
        <ele>1278.128</ele>
        <time>2021-07-22T15:54:16Z</time>
      </trkpt>
      <trkpt lat="42.55815" lon="0.74761">
        <ele>1286.531</ele>
        <time>2021-07-22T15:54:27Z</time>
      </trkpt>
      <trkpt lat="42.55937" lon="0.74844">
        <ele>1293.969</ele>
        <time>2021-07-22T15:54:38Z</time>
      </trkpt>
      <trkpt lat="42.56065" lon="0.74913">
        <ele>1305.738</ele>
        <time>2021-07-22T15:54:49Z</time>
      </trkpt>
      <trkpt lat="42.56196" lon="0.74956">
        <ele>1317.096</ele>
        <time>2021-07-22T15:55:00Z</time>
      </trkpt>
      <trkpt lat="42.56328" lon="0.74966">
        <ele>1322.86</ele>
        <time>2021-07-22T15:55:11Z</time>
      </trkpt>
      <trkpt lat="42.56479" lon="0.7503">
        <ele>1335.755</ele>
        <time>2021-07-22T15:55:22Z</time>
      </trkpt>
      <trkpt lat="42.56664" lon="0.75182">
        <ele>1346.804</ele>
        <time>2021-07-22T15:55:33Z</time>
      </trkpt>
      <trkpt lat="42.56781" lon="0.75335">
        <ele>1359.746</ele>
        <time>2021-07-22T15:55:44Z</time>
      </trkpt>
      <trkpt lat="42.56951" lon="0.75459">
        <ele>1362.485</ele>
        <time>2021-07-22T15:55:55Z</time>
      </trkpt>
      <trkpt lat="42.57145" lon="0.75521">
        <ele>1387.019</ele>
        <time>2021-07-22T15:56:06Z</time>
      </trkpt>
      <trkpt lat="42.5733" lon="0.75576">
        <ele>1393.491</ele>
        <time>2021-07-22T15:56:17Z</time>
      </trkpt>
      <trkpt lat="42.57458" lon="0.75625">
        <ele>1413.613</ele>
        <time>2021-07-22T15:56:28Z</time>
      </trkpt>
      <trkpt lat="42.57564" lon="0.75634">
        <ele>1415.759</ele>
        <time>2021-07-22T15:56:39Z</time>
      </trkpt>
      <trkpt lat="42.57674" lon="0.75627">
        <ele>1421.969</ele>
        <time>2021-07-22T15:56:50Z</time>
      </trkpt>
      <trkpt lat="42.5777" lon="0.75634">
        <ele>1430.389</ele>
        <time>2021-07-22T15:57:01Z</time>
      </trkpt>
      <trkpt lat="42.57931" lon="0.75641">
        <ele>1434.097</ele>
        <time>2021-07-22T15:57:17Z</time>
      </trkpt>
      <trkpt lat="42.58053" lon="0.75619">
        <ele>1447.591</ele>
        <time>2021-07-22T15:57:28Z</time>
      </trkpt>
      <trkpt lat="42.58185" lon="0.75618">
        <ele>1449.886</ele>
        <time>2021-07-22T15:57:39Z</time>
      </trkpt>
      <trkpt lat="42.58335" lon="0.75628">
        <ele>1447.017</ele>
        <time>2021-07-22T15:57:50Z</time>
      </trkpt>
      <trkpt lat="42.58473" lon="0.75753">
        <ele>1445.566</ele>
        <time>2021-07-22T15:58:01Z</time>
      </trkpt>
      <trkpt lat="42.58638" lon="0.75804">
        <ele>1443.561</ele>
        <time>2021-07-22T15:58:12Z</time>
      </trkpt>
      <trkpt lat="42.58803" lon="0.75775">
        <ele>1444.268</ele>
        <time>2021-07-22T15:58:23Z</time>
      </trkpt>
      <trkpt lat="42.58977" lon="0.75811">
        <ele>1444.697</ele>
        <time>2021-07-22T15:58:34Z</time>
      </trkpt>
      <trkpt lat="42.59155" lon="0.75717">
        <ele>1442.695</ele>
        <time>2021-07-22T15:58:45Z</time>
      </trkpt>
      <trkpt lat="42.59317" lon="0.75741">
        <ele>1444.328</ele>
        <time>2021-07-22T15:58:56Z</time>
      </trkpt>
      <trkpt lat="42.59494" lon="0.75787">
        <ele>1444.425</ele>
        <time>2021-07-22T15:59:07Z</time>
      </trkpt>
      <trkpt lat="42.59647" lon="0.75878">
        <ele>1444.715</ele>
        <time>2021-07-22T15:59:18Z</time>
      </trkpt>
      <trkpt lat="42.59682" lon="0.76082">
        <ele>1446.921</ele>
        <time>2021-07-22T15:59:29Z</time>
      </trkpt>
      <trkpt lat="42.59786" lon="0.76246">
        <ele>1454.442</ele>
        <time>2021-07-22T15:59:40Z</time>
      </trkpt>
      <trkpt lat="42.59896" lon="0.76334">
        <ele>1465.318</ele>
        <time>2021-07-22T15:59:51Z</time>
      </trkpt>
      <trkpt lat="42.60034" lon="0.76354">
        <ele>1469.739</ele>
        <time>2021-07-22T16:00:02Z</time>
      </trkpt>
      <trkpt lat="42.60186" lon="0.76373">
        <ele>1474.157</ele>
        <time>2021-07-22T16:00:13Z</time>
      </trkpt>
      <trkpt lat="42.60294" lon="0.76457">
        <ele>1479.396</ele>
        <time>2021-07-22T16:00:24Z</time>
      </trkpt>
      <trkpt lat="42.60401" lon="0.76569">
        <ele>1491.542</ele>
        <time>2021-07-22T16:00:35Z</time>
      </trkpt>
      <trkpt lat="42.60514" lon="0.76624">
        <ele>1501.984</ele>
        <time>2021-07-22T16:00:46Z</time>
      </trkpt>
      <trkpt lat="42.60621" lon="0.76604">
        <ele>1508.6</ele>
        <time>2021-07-22T16:00:57Z</time>
      </trkpt>
      <trkpt lat="42.60735" lon="0.76598">
        <ele>1517.953</ele>
        <time>2021-07-22T16:01:08Z</time>
      </trkpt>
      <trkpt lat="42.60844" lon="0.76648">
        <ele>1526.122</ele>
        <time>2021-07-22T16:01:19Z</time>
      </trkpt>
      <trkpt lat="42.60954" lon="0.76679">
        <ele>1536.467</ele>
        <time>2021-07-22T16:01:30Z</time>
      </trkpt>
      <trkpt lat="42.61058" lon="0.76668">
        <ele>1543.559</ele>
        <time>2021-07-22T16:01:41Z</time>
      </trkpt>
      <trkpt lat="42.6115" lon="0.76649">
        <ele>1548.442</ele>
        <time>2021-07-22T16:01:52Z</time>
      </trkpt>
      <trkpt lat="42.61274" lon="0.7662">
        <ele>1554.209</ele>
        <time>2021-07-22T16:02:03Z</time>
      </trkpt>
      <trkpt lat="42.61402" lon="0.76592">
        <ele>1556.901</ele>
        <time>2021-07-22T16:02:14Z</time>
      </trkpt>
      <trkpt lat="42.61543" lon="0.76552">
        <ele>1563.52</ele>
        <time>2021-07-22T16:02:25Z</time>
      </trkpt>
      <trkpt lat="42.61683" lon="0.76486">
        <ele>1567.897</ele>
        <time>2021-07-22T16:02:36Z</time>
      </trkpt>
      <trkpt lat="42.61843" lon="0.76482">
        <ele>1571.948</ele>
        <time>2021-07-22T16:02:47Z</time>
      </trkpt>
      <trkpt lat="42.62004" lon="0.76499">
        <ele>1576.675</ele>
        <time>2021-07-22T16:02:58Z</time>
      </trkpt>
      <trkpt lat="42.62139" lon="0.76525">
        <ele>1585.337</ele>
        <time>2021-07-22T16:03:09Z</time>
      </trkpt>
      <trkpt lat="42.62259" lon="0.76522">
        <ele>1594.187</ele>
        <time>2021-07-22T16:03:20Z</time>
      </trkpt>
      <trkpt lat="42.62382" lon="0.7649">
        <ele>1597.188</ele>
        <time>2021-07-22T16:03:31Z</time>
      </trkpt>
      <trkpt lat="42.62517" lon="0.76458">
        <ele>1599.43</ele>
        <time>2021-07-22T16:03:42Z</time>
      </trkpt>
      <trkpt lat="42.62647" lon="0.76438">
        <ele>1598.664</ele>
        <time>2021-07-22T16:03:53Z</time>
      </trkpt>
      <trkpt lat="42.62788" lon="0.7644">
        <ele>1598.664</ele>
        <time>2021-07-22T16:04:04Z</time>
      </trkpt>
      <trkpt lat="42.62928" lon="0.7646">
        <ele>1598.664</ele>
        <time>2021-07-22T16:04:15Z</time>
      </trkpt>
      <trkpt lat="42.63067" lon="0.76491">
        <ele>1598.664</ele>
        <time>2021-07-22T16:04:26Z</time>
      </trkpt>
      <trkpt lat="42.63204" lon="0.7654">
        <ele>1598.664</ele>
        <time>2021-07-22T16:04:37Z</time>
      </trkpt>
      <trkpt lat="42.63339" lon="0.76593">
        <ele>1598.664</ele>
        <time>2021-07-22T16:04:48Z</time>
      </trkpt>
      <trkpt lat="42.63474" lon="0.76642">
        <ele>1598.664</ele>
        <time>2021-07-22T16:04:59Z</time>
      </trkpt>
      <trkpt lat="42.63612" lon="0.7669">
        <ele>1598.664</ele>
        <time>2021-07-22T16:05:10Z</time>
      </trkpt>
      <trkpt lat="42.63748" lon="0.76731">
        <ele>1598.664</ele>
        <time>2021-07-22T16:05:21Z</time>
      </trkpt>
      <trkpt lat="42.63886" lon="0.76772">
        <ele>1598.664</ele>
        <time>2021-07-22T16:05:32Z</time>
      </trkpt>
      <trkpt lat="42.64024" lon="0.76813">
        <ele>1598.664</ele>
        <time>2021-07-22T16:05:43Z</time>
      </trkpt>
      <trkpt lat="42.67074" lon="0.77845">
        <ele>1366.863</ele>
        <time>2021-07-22T16:08:00Z</time>
      </trkpt>
      <trkpt lat="42.67312" lon="0.77669">
        <ele>1387.311</ele>
        <time>2021-07-22T16:08:11Z</time>
      </trkpt>
      <trkpt lat="42.67401" lon="0.77508">
        <ele>1382.868</ele>
        <time>2021-07-22T16:08:22Z</time>
      </trkpt>
      <trkpt lat="42.67467" lon="0.77334">
        <ele>1370.782</ele>
        <time>2021-07-22T16:08:33Z</time>
      </trkpt>
      <trkpt lat="42.67503" lon="0.77147">
        <ele>1361.716</ele>
        <time>2021-07-22T16:08:44Z</time>
      </trkpt>
      <trkpt lat="42.67533" lon="0.76976">
        <ele>1353.524</ele>
        <time>2021-07-22T16:08:55Z</time>
      </trkpt>
      <trkpt lat="42.67615" lon="0.7692">
        <ele>1353.62</ele>
        <time>2021-07-22T16:09:06Z</time>
      </trkpt>
      <trkpt lat="42.6763" lon="0.7705">
        <ele>1351.699</ele>
        <time>2021-07-22T16:09:17Z</time>
      </trkpt>
      <trkpt lat="42.6763" lon="0.77214">
        <ele>1341.618</ele>
        <time>2021-07-22T16:09:28Z</time>
      </trkpt>
      <trkpt lat="42.67662" lon="0.77361">
        <ele>1336.628</ele>
        <time>2021-07-22T16:09:39Z</time>
      </trkpt>
      <trkpt lat="42.67673" lon="0.77513">
        <ele>1328.815</ele>
        <time>2021-07-22T16:09:50Z</time>
      </trkpt>
      <trkpt lat="42.67652" lon="0.77765">
        <ele>1320.457</ele>
        <time>2021-07-22T16:10:01Z</time>
      </trkpt>
      <trkpt lat="42.67649" lon="0.7809">
        <ele>1300.779</ele>
        <time>2021-07-22T16:10:13Z</time>
      </trkpt>
      <trkpt lat="42.67714" lon="0.78315">
        <ele>1286.103</ele>
        <time>2021-07-22T16:10:24Z</time>
      </trkpt>
      <trkpt lat="42.67779" lon="0.78469">
        <ele>1279.536</ele>
        <time>2021-07-22T16:10:35Z</time>
      </trkpt>
      <trkpt lat="42.67849" lon="0.78576">
        <ele>1272.066</ele>
        <time>2021-07-22T16:10:46Z</time>
      </trkpt>
      <trkpt lat="42.67931" lon="0.7868">
        <ele>1263.737</ele>
        <time>2021-07-22T16:10:57Z</time>
      </trkpt>
      <trkpt lat="42.68034" lon="0.78724">
        <ele>1259.881</ele>
        <time>2021-07-22T16:11:08Z</time>
      </trkpt>
      <trkpt lat="42.68198" lon="0.7878">
        <ele>1250.77</ele>
        <time>2021-07-22T16:11:19Z</time>
      </trkpt>
      <trkpt lat="42.68368" lon="0.78782">
        <ele>1235.48</ele>
        <time>2021-07-22T16:11:30Z</time>
      </trkpt>
      <trkpt lat="42.68528" lon="0.78764">
        <ele>1221.771</ele>
        <time>2021-07-22T16:11:41Z</time>
      </trkpt>
      <trkpt lat="42.68677" lon="0.78757">
        <ele>1210.188</ele>
        <time>2021-07-22T16:11:52Z</time>
      </trkpt>
      <trkpt lat="42.68807" lon="0.78774">
        <ele>1195.896</ele>
        <time>2021-07-22T16:12:03Z</time>
      </trkpt>
      <trkpt lat="42.68915" lon="0.78721">
        <ele>1195.885</ele>
        <time>2021-07-22T16:12:14Z</time>
      </trkpt>
      <trkpt lat="42.69031" lon="0.78692">
        <ele>1188.074</ele>
        <time>2021-07-22T16:12:25Z</time>
      </trkpt>
      <trkpt lat="42.69154" lon="0.78742">
        <ele>1181.254</ele>
        <time>2021-07-22T16:12:36Z</time>
      </trkpt>
      <trkpt lat="42.69272" lon="0.78754">
        <ele>1175.746</ele>
        <time>2021-07-22T16:12:47Z</time>
      </trkpt>
      <trkpt lat="42.69394" lon="0.78777">
        <ele>1172.497</ele>
        <time>2021-07-22T16:12:58Z</time>
      </trkpt>
      <trkpt lat="42.69507" lon="0.78822">
        <ele>1160.889</ele>
        <time>2021-07-22T16:13:09Z</time>
      </trkpt>
      <trkpt lat="42.69618" lon="0.78829">
        <ele>1151.658</ele>
        <time>2021-07-22T16:13:20Z</time>
      </trkpt>
      <trkpt lat="42.69718" lon="0.78891">
        <ele>1141.577</ele>
        <time>2021-07-22T16:13:31Z</time>
      </trkpt>
      <trkpt lat="42.69817" lon="0.78877">
        <ele>1132.494</ele>
        <time>2021-07-22T16:13:42Z</time>
      </trkpt>
      <trkpt lat="42.6991" lon="0.78918">
        <ele>1123.593</ele>
        <time>2021-07-22T16:13:53Z</time>
      </trkpt>
      <trkpt lat="42.69979" lon="0.78887">
        <ele>1116.57</ele>
        <time>2021-07-22T16:14:04Z</time>
      </trkpt>
      <trkpt lat="42.69976" lon="0.7897">
        <ele>1107.301</ele>
        <time>2021-07-22T16:14:15Z</time>
      </trkpt>
      <trkpt lat="42.6992" lon="0.7906">
        <ele>1097.945</ele>
        <time>2021-07-22T16:14:26Z</time>
      </trkpt>
      <trkpt lat="42.69824" lon="0.79065">
        <ele>1091.038</ele>
        <time>2021-07-22T16:14:37Z</time>
      </trkpt>
      <trkpt lat="42.69803" lon="0.79136">
        <ele>1084.741</ele>
        <time>2021-07-22T16:14:48Z</time>
      </trkpt>
      <trkpt lat="42.69928" lon="0.79163">
        <ele>1078.411</ele>
        <time>2021-07-22T16:14:59Z</time>
      </trkpt>
      <trkpt lat="42.70018" lon="0.79112">
        <ele>1077.256</ele>
        <time>2021-07-22T16:15:10Z</time>
      </trkpt>
      <trkpt lat="42.70142" lon="0.79028">
        <ele>1064.865</ele>
        <time>2021-07-22T16:15:21Z</time>
      </trkpt>
      <trkpt lat="42.7029" lon="0.78951">
        <ele>1054.048</ele>
        <time>2021-07-22T16:15:32Z</time>
      </trkpt>
      <trkpt lat="42.70437" lon="0.78936">
        <ele>1043.423</ele>
        <time>2021-07-22T16:15:43Z</time>
      </trkpt>
      <trkpt lat="42.70539" lon="0.78899">
        <ele>1038.595</ele>
        <time>2021-07-22T16:15:54Z</time>
      </trkpt>
      <trkpt lat="42.7055" lon="0.78958">
        <ele>1029.265</ele>
        <time>2021-07-22T16:16:05Z</time>
      </trkpt>
      <trkpt lat="42.70438" lon="0.78982">
        <ele>1021.558</ele>
        <time>2021-07-22T16:16:16Z</time>
      </trkpt>
      <trkpt lat="42.70326" lon="0.79045">
        <ele>1010.331</ele>
        <time>2021-07-22T16:16:27Z</time>
      </trkpt>
      <trkpt lat="42.70248" lon="0.79126">
        <ele>994.1895</ele>
        <time>2021-07-22T16:16:38Z</time>
      </trkpt>
      <trkpt lat="42.70169" lon="0.79223">
        <ele>983.5252</ele>
        <time>2021-07-22T16:16:49Z</time>
      </trkpt>
      <trkpt lat="42.70141" lon="0.79307">
        <ele>978.1567</ele>
        <time>2021-07-22T16:17:00Z</time>
      </trkpt>
      <trkpt lat="42.70199" lon="0.79317">
        <ele>977.7734</ele>
        <time>2021-07-22T16:17:11Z</time>
      </trkpt>
      <trkpt lat="42.70185" lon="0.79301">
        <ele>972.3119</ele>
        <time>2021-07-22T16:17:22Z</time>
      </trkpt>
      <trkpt lat="42.70185" lon="0.79302">
        <ele>960.4716</ele>
        <time>2021-07-22T16:18:21Z</time>
      </trkpt>
      <trkpt lat="42.70188" lon="0.79297">
        <ele>958.1232</ele>
        <time>2021-07-22T16:18:32Z</time>
      </trkpt>
      <trkpt lat="42.70188" lon="0.79297">
        <ele>945.6927</ele>
        <time>2021-07-22T16:19:32Z</time>
      </trkpt>
      <trkpt lat="42.70188" lon="0.79297">
        <ele>945.6927</ele>
        <time>2021-07-22T16:20:31Z</time>
      </trkpt>
      <trkpt lat="42.70188" lon="0.79297">
        <ele>945.6927</ele>
        <time>2021-07-22T16:21:30Z</time>
      </trkpt>
      <trkpt lat="42.70185" lon="0.79302">
        <ele>941.7701</ele>
        <time>2021-07-22T16:21:55Z</time>
      </trkpt>
      <trkpt lat="42.70179" lon="0.79304">
        <ele>944.6877</ele>
        <time>2021-07-22T16:22:06Z</time>
      </trkpt>
      <trkpt lat="42.70174" lon="0.793">
        <ele>950.5449</ele>
        <time>2021-07-22T16:22:25Z</time>
      </trkpt>
      <trkpt lat="42.70173" lon="0.79306">
        <ele>952.7713</ele>
        <time>2021-07-22T16:22:36Z</time>
      </trkpt>
      <trkpt lat="42.70173" lon="0.79306">
        <ele>952.6964</ele>
        <time>2021-07-22T16:23:35Z</time>
      </trkpt>
      <trkpt lat="42.70172" lon="0.79302">
        <ele>952.6964</ele>
        <time>2021-07-22T16:24:34Z</time>
      </trkpt>
      <trkpt lat="42.70172" lon="0.79302">
        <ele>952.6964</ele>
        <time>2021-07-22T16:25:33Z</time>
      </trkpt>
      <trkpt lat="42.70173" lon="0.79306">
        <ele>952.6964</ele>
        <time>2021-07-22T16:26:32Z</time>
      </trkpt>
      <trkpt lat="42.70173" lon="0.79306">
        <ele>952.6964</ele>
        <time>2021-07-22T16:27:31Z</time>
      </trkpt>
      <trkpt lat="42.70176" lon="0.79304">
        <ele>962.3458</ele>
        <time>2021-07-22T16:28:29Z</time>
      </trkpt>
      <trkpt lat="42.70173" lon="0.79306">
        <ele>968.9106</ele>
        <time>2021-07-22T16:28:52Z</time>
      </trkpt>
      <trkpt lat="42.7017" lon="0.79309">
        <ele>965.0085</ele>
        <time>2021-07-22T16:29:15Z</time>
      </trkpt>
      <trkpt lat="42.70164" lon="0.79313">
        <ele>966.348</ele>
        <time>2021-07-22T16:29:53Z</time>
      </trkpt>
      <trkpt lat="42.70168" lon="0.79319">
        <ele>968.7798</ele>
        <time>2021-07-22T16:30:04Z</time>
      </trkpt>
      <trkpt lat="42.702" lon="0.79316">
        <ele>968.4288</ele>
        <time>2021-07-22T16:30:15Z</time>
      </trkpt>
      <trkpt lat="42.70281" lon="0.79313">
        <ele>972.3551</ele>
        <time>2021-07-22T16:30:26Z</time>
      </trkpt>
      <trkpt lat="42.70356" lon="0.79384">
        <ele>975.4801</ele>
        <time>2021-07-22T16:30:37Z</time>
      </trkpt>
      <trkpt lat="42.70431" lon="0.79466">
        <ele>971.5077</ele>
        <time>2021-07-22T16:30:48Z</time>
      </trkpt>
      <trkpt lat="42.70471" lon="0.79508">
        <ele>971.6834</ele>
        <time>2021-07-22T16:30:59Z</time>
      </trkpt>
      <trkpt lat="42.70517" lon="0.79553">
        <ele>966.6781</ele>
        <time>2021-07-22T16:31:10Z</time>
      </trkpt>
      <trkpt lat="42.70587" lon="0.7958">
        <ele>963.1958</ele>
        <time>2021-07-22T16:31:21Z</time>
      </trkpt>
      <trkpt lat="42.70646" lon="0.79598">
        <ele>957.3143</ele>
        <time>2021-07-22T16:31:32Z</time>
      </trkpt>
      <trkpt lat="42.70761" lon="0.7962">
        <ele>954.4537</ele>
        <time>2021-07-22T16:31:43Z</time>
      </trkpt>
      <trkpt lat="42.70895" lon="0.79653">
        <ele>951.0023</ele>
        <time>2021-07-22T16:31:54Z</time>
      </trkpt>
      <trkpt lat="42.71049" lon="0.79681">
        <ele>948.5053</ele>
        <time>2021-07-22T16:32:05Z</time>
      </trkpt>
      <trkpt lat="42.71208" lon="0.79706">
        <ele>945.9757</ele>
        <time>2021-07-22T16:32:16Z</time>
      </trkpt>
      <trkpt lat="42.71364" lon="0.7973">
        <ele>943.5232</ele>
        <time>2021-07-22T16:32:27Z</time>
      </trkpt>
      <trkpt lat="42.71529" lon="0.79687">
        <ele>941.1821</ele>
        <time>2021-07-22T16:32:38Z</time>
      </trkpt>
      <trkpt lat="42.71667" lon="0.79664">
        <ele>937.4206</ele>
        <time>2021-07-22T16:32:49Z</time>
      </trkpt>
      <trkpt lat="42.71802" lon="0.79593">
        <ele>939.336</ele>
        <time>2021-07-22T16:33:00Z</time>
      </trkpt>
      <trkpt lat="42.71967" lon="0.79448">
        <ele>934.7417</ele>
        <time>2021-07-22T16:33:11Z</time>
      </trkpt>
      <trkpt lat="42.72085" lon="0.79233">
        <ele>930.3873</ele>
        <time>2021-07-22T16:33:22Z</time>
      </trkpt>
      <trkpt lat="42.72189" lon="0.79037">
        <ele>931.8487</ele>
        <time>2021-07-22T16:33:33Z</time>
      </trkpt>
      <trkpt lat="42.72357" lon="0.78968">
        <ele>934.631</ele>
        <time>2021-07-22T16:33:44Z</time>
      </trkpt>
      <trkpt lat="42.72414" lon="0.78739">
        <ele>929.6367</ele>
        <time>2021-07-22T16:33:55Z</time>
      </trkpt>
      <trkpt lat="42.7253" lon="0.78562">
        <ele>929.2132</ele>
        <time>2021-07-22T16:34:06Z</time>
      </trkpt>
      <trkpt lat="42.72626" lon="0.78413">
        <ele>922.7455</ele>
        <time>2021-07-22T16:34:17Z</time>
      </trkpt>
      <trkpt lat="42.72809" lon="0.78231">
        <ele>912.892</ele>
        <time>2021-07-22T16:34:28Z</time>
      </trkpt>
      <trkpt lat="42.72951" lon="0.78024">
        <ele>912.4967</ele>
        <time>2021-07-22T16:34:39Z</time>
      </trkpt>
      <trkpt lat="42.73033" lon="0.77777">
        <ele>906.0619</ele>
        <time>2021-07-22T16:34:50Z</time>
      </trkpt>
      <trkpt lat="42.73163" lon="0.77617">
        <ele>912.85</ele>
        <time>2021-07-22T16:35:01Z</time>
      </trkpt>
      <trkpt lat="42.73305" lon="0.77424">
        <ele>907.9414</ele>
        <time>2021-07-22T16:35:12Z</time>
      </trkpt>
      <trkpt lat="42.73349" lon="0.77145">
        <ele>894.2977</ele>
        <time>2021-07-22T16:35:23Z</time>
      </trkpt>
      <trkpt lat="42.73371" lon="0.76867">
        <ele>885.6004</ele>
        <time>2021-07-22T16:35:34Z</time>
      </trkpt>
      <trkpt lat="42.7348" lon="0.76673">
        <ele>882.9883</ele>
        <time>2021-07-22T16:35:45Z</time>
      </trkpt>
      <trkpt lat="42.73596" lon="0.76492">
        <ele>882.8266</ele>
        <time>2021-07-22T16:35:56Z</time>
      </trkpt>
      <trkpt lat="42.73612" lon="0.76241">
        <ele>875.0189</ele>
        <time>2021-07-22T16:36:07Z</time>
      </trkpt>
      <trkpt lat="42.73653" lon="0.76028">
        <ele>874.1394</ele>
        <time>2021-07-22T16:36:18Z</time>
      </trkpt>
      <trkpt lat="42.73743" lon="0.75874">
        <ele>875.594</ele>
        <time>2021-07-22T16:36:29Z</time>
      </trkpt>
      <trkpt lat="42.73778" lon="0.75712">
        <ele>871.5355</ele>
        <time>2021-07-22T16:36:40Z</time>
      </trkpt>
      <trkpt lat="42.73781" lon="0.75558">
        <ele>870.6917</ele>
        <time>2021-07-22T16:36:51Z</time>
      </trkpt>
      <trkpt lat="42.73762" lon="0.75354">
        <ele>865.2931</ele>
        <time>2021-07-22T16:37:02Z</time>
      </trkpt>
      <trkpt lat="42.73807" lon="0.75139">
        <ele>858.2948</ele>
        <time>2021-07-22T16:37:13Z</time>
      </trkpt>
      <trkpt lat="42.73735" lon="0.74782">
        <ele>852.1959</ele>
        <time>2021-07-22T16:37:24Z</time>
      </trkpt>
      <trkpt lat="42.73677" lon="0.74425">
        <ele>849.1259</ele>
        <time>2021-07-22T16:37:35Z</time>
      </trkpt>
      <trkpt lat="42.73731" lon="0.74057">
        <ele>843.1312</ele>
        <time>2021-07-22T16:37:46Z</time>
      </trkpt>
      <trkpt lat="42.73752" lon="0.73691">
        <ele>833.7776</ele>
        <time>2021-07-22T16:37:57Z</time>
      </trkpt>
      <trkpt lat="42.73807" lon="0.73369">
        <ele>834.3346</ele>
        <time>2021-07-22T16:38:08Z</time>
      </trkpt>
      <trkpt lat="42.73844" lon="0.73062">
        <ele>837.6868</ele>
        <time>2021-07-22T16:38:19Z</time>
      </trkpt>
      <trkpt lat="42.73837" lon="0.72722">
        <ele>825.4659</ele>
        <time>2021-07-22T16:38:30Z</time>
      </trkpt>
      <trkpt lat="42.73876" lon="0.72385">
        <ele>806.799</ele>
        <time>2021-07-22T16:38:41Z</time>
      </trkpt>
      <trkpt lat="42.73929" lon="0.72036">
        <ele>801.9366</ele>
        <time>2021-07-22T16:38:52Z</time>
      </trkpt>
      <trkpt lat="42.74048" lon="0.71736">
        <ele>806.6553</ele>
        <time>2021-07-22T16:39:03Z</time>
      </trkpt>
      <trkpt lat="42.74136" lon="0.71407">
        <ele>803.5573</ele>
        <time>2021-07-22T16:39:14Z</time>
      </trkpt>
      <trkpt lat="42.74158" lon="0.7106">
        <ele>802.9108</ele>
        <time>2021-07-22T16:39:25Z</time>
      </trkpt>
      <trkpt lat="42.74318" lon="0.70815">
        <ele>799.4666</ele>
        <time>2021-07-22T16:39:36Z</time>
      </trkpt>
      <trkpt lat="42.74523" lon="0.70578">
        <ele>792.3886</ele>
        <time>2021-07-22T16:39:47Z</time>
      </trkpt>
      <trkpt lat="42.74706" lon="0.70323">
        <ele>796.0797</ele>
        <time>2021-07-22T16:39:58Z</time>
      </trkpt>
      <trkpt lat="42.74899" lon="0.70094">
        <ele>784.5052</ele>
        <time>2021-07-22T16:40:09Z</time>
      </trkpt>
      <trkpt lat="42.75127" lon="0.69921">
        <ele>782.0785</ele>
        <time>2021-07-22T16:40:20Z</time>
      </trkpt>
      <trkpt lat="42.75373" lon="0.69776">
        <ele>784.7754</ele>
        <time>2021-07-22T16:40:31Z</time>
      </trkpt>
      <trkpt lat="42.75622" lon="0.6962">
        <ele>775.4386</ele>
        <time>2021-07-22T16:40:42Z</time>
      </trkpt>
      <trkpt lat="42.75841" lon="0.69392">
        <ele>767.1424</ele>
        <time>2021-07-22T16:40:53Z</time>
      </trkpt>
      <trkpt lat="42.76061" lon="0.69193">
        <ele>759.473</ele>
        <time>2021-07-22T16:41:04Z</time>
      </trkpt>
      <trkpt lat="42.76286" lon="0.69027">
        <ele>752.2488</ele>
        <time>2021-07-22T16:41:15Z</time>
      </trkpt>
      <trkpt lat="42.76479" lon="0.68791">
        <ele>746.2422</ele>
        <time>2021-07-22T16:41:26Z</time>
      </trkpt>
      <trkpt lat="42.76711" lon="0.6864">
        <ele>745.9501</ele>
        <time>2021-07-22T16:41:37Z</time>
      </trkpt>
      <trkpt lat="42.76958" lon="0.68585">
        <ele>749.2353</ele>
        <time>2021-07-22T16:41:48Z</time>
      </trkpt>
      <trkpt lat="42.77234" lon="0.68523">
        <ele>746.8709</ele>
        <time>2021-07-22T16:41:59Z</time>
      </trkpt>
      <trkpt lat="42.77507" lon="0.68483">
        <ele>732.6791</ele>
        <time>2021-07-22T16:42:10Z</time>
      </trkpt>
      <trkpt lat="42.77751" lon="0.68627">
        <ele>725.0955</ele>
        <time>2021-07-22T16:42:21Z</time>
      </trkpt>
      <trkpt lat="42.77891" lon="0.68957">
        <ele>717.2173</ele>
        <time>2021-07-22T16:42:32Z</time>
      </trkpt>
      <trkpt lat="42.78057" lon="0.69016">
        <ele>718.9587</ele>
        <time>2021-07-22T16:42:43Z</time>
      </trkpt>
      <trkpt lat="42.78185" lon="0.69085">
        <ele>717.9304</ele>
        <time>2021-07-22T16:42:54Z</time>
      </trkpt>
      <trkpt lat="42.78319" lon="0.69188">
        <ele>714.9624</ele>
        <time>2021-07-22T16:43:05Z</time>
      </trkpt>
      <trkpt lat="42.78395" lon="0.69247">
        <ele>714.0598</ele>
        <time>2021-07-22T16:43:16Z</time>
      </trkpt>
      <trkpt lat="42.78391" lon="0.69246">
        <ele>713.3163</ele>
        <time>2021-07-22T16:43:27Z</time>
      </trkpt>
      <trkpt lat="42.78402" lon="0.69245">
        <ele>713.4601</ele>
        <time>2021-07-22T16:43:51Z</time>
      </trkpt>
      <trkpt lat="42.78495" lon="0.69273">
        <ele>711.753</ele>
        <time>2021-07-22T16:44:02Z</time>
      </trkpt>
      <trkpt lat="42.78516" lon="0.69279">
        <ele>713.8134</ele>
        <time>2021-07-22T16:44:13Z</time>
      </trkpt>
      <trkpt lat="42.78635" lon="0.69339">
        <ele>710.883</ele>
        <time>2021-07-22T16:44:24Z</time>
      </trkpt>
      <trkpt lat="42.78765" lon="0.69422">
        <ele>709.9291</ele>
        <time>2021-07-22T16:44:35Z</time>
      </trkpt>
      <trkpt lat="42.78882" lon="0.69557">
        <ele>706.3496</ele>
        <time>2021-07-22T16:44:46Z</time>
      </trkpt>
      <trkpt lat="42.7902" lon="0.69706">
        <ele>703.3135</ele>
        <time>2021-07-22T16:44:57Z</time>
      </trkpt>
      <trkpt lat="42.79261" lon="0.6981">
        <ele>698.6863</ele>
        <time>2021-07-22T16:45:08Z</time>
      </trkpt>
      <trkpt lat="42.79517" lon="0.69854">
        <ele>680.4748</ele>
        <time>2021-07-22T16:45:19Z</time>
      </trkpt>
      <trkpt lat="42.79746" lon="0.70055">
        <ele>675.9554</ele>
        <time>2021-07-22T16:45:30Z</time>
      </trkpt>
      <trkpt lat="42.79988" lon="0.70216">
        <ele>665.7425</ele>
        <time>2021-07-22T16:45:41Z</time>
      </trkpt>
      <trkpt lat="42.80233" lon="0.70333">
        <ele>659.5895</ele>
        <time>2021-07-22T16:45:52Z</time>
      </trkpt>
      <trkpt lat="42.80455" lon="0.70434">
        <ele>652.4953</ele>
        <time>2021-07-22T16:46:03Z</time>
      </trkpt>
      <trkpt lat="42.80628" lon="0.70581">
        <ele>639.5914</ele>
        <time>2021-07-22T16:46:14Z</time>
      </trkpt>
      <trkpt lat="42.80828" lon="0.70701">
        <ele>645.5259</ele>
        <time>2021-07-22T16:46:25Z</time>
      </trkpt>
      <trkpt lat="42.80932" lon="0.70872">
        <ele>644.0694</ele>
        <time>2021-07-22T16:46:36Z</time>
      </trkpt>
      <trkpt lat="42.80987" lon="0.70955">
        <ele>645.1564</ele>
        <time>2021-07-22T16:46:47Z</time>
      </trkpt>
      <trkpt lat="42.81021" lon="0.70987">
        <ele>646.1578</ele>
        <time>2021-07-22T16:46:58Z</time>
      </trkpt>
      <trkpt lat="42.81115" lon="0.70998">
        <ele>645.6397</ele>
        <time>2021-07-22T16:47:09Z</time>
      </trkpt>
      <trkpt lat="42.81266" lon="0.71002">
        <ele>643.3388</ele>
        <time>2021-07-22T16:47:20Z</time>
      </trkpt>
      <trkpt lat="42.81419" lon="0.7101">
        <ele>644.1915</ele>
        <time>2021-07-22T16:47:31Z</time>
      </trkpt>
      <trkpt lat="42.81563" lon="0.71019">
        <ele>637.1977</ele>
        <time>2021-07-22T16:47:42Z</time>
      </trkpt>
      <trkpt lat="42.8162" lon="0.7106">
        <ele>635.6031</ele>
        <time>2021-07-22T16:47:53Z</time>
      </trkpt>
      <trkpt lat="42.81637" lon="0.71099">
        <ele>635.2918</ele>
        <time>2021-07-22T16:48:04Z</time>
      </trkpt>
      <trkpt lat="42.81728" lon="0.71142">
        <ele>632.304</ele>
        <time>2021-07-22T16:48:15Z</time>
      </trkpt>
      <trkpt lat="42.81845" lon="0.71208">
        <ele>632.8724</ele>
        <time>2021-07-22T16:48:26Z</time>
      </trkpt>
      <trkpt lat="42.81995" lon="0.71304">
        <ele>631.6852</ele>
        <time>2021-07-22T16:48:37Z</time>
      </trkpt>
      <trkpt lat="42.82104" lon="0.71472">
        <ele>628.7177</ele>
        <time>2021-07-22T16:48:48Z</time>
      </trkpt>
      <trkpt lat="42.82201" lon="0.71674">
        <ele>628.7023</ele>
        <time>2021-07-22T16:48:59Z</time>
      </trkpt>
      <trkpt lat="42.82267" lon="0.719">
        <ele>631.2848</ele>
        <time>2021-07-22T16:49:10Z</time>
      </trkpt>
      <trkpt lat="42.82378" lon="0.72092">
        <ele>626.076</ele>
        <time>2021-07-22T16:49:21Z</time>
      </trkpt>
      <trkpt lat="42.8247" lon="0.72281">
        <ele>625.2762</ele>
        <time>2021-07-22T16:49:32Z</time>
      </trkpt>
      <trkpt lat="42.8253" lon="0.7248">
        <ele>627.0247</ele>
        <time>2021-07-22T16:49:43Z</time>
      </trkpt>
      <trkpt lat="42.82705" lon="0.72562">
        <ele>617.7909</ele>
        <time>2021-07-22T16:49:54Z</time>
      </trkpt>
      <trkpt lat="42.82826" lon="0.72723">
        <ele>616.6233</ele>
        <time>2021-07-22T16:50:05Z</time>
      </trkpt>
      <trkpt lat="42.83012" lon="0.72813">
        <ele>611.2975</ele>
        <time>2021-07-22T16:50:16Z</time>
      </trkpt>
      <trkpt lat="42.83148" lon="0.72952">
        <ele>612.5317</ele>
        <time>2021-07-22T16:50:27Z</time>
      </trkpt>
      <trkpt lat="42.83331" lon="0.72974">
        <ele>614.9169</ele>
        <time>2021-07-22T16:50:38Z</time>
      </trkpt>
      <trkpt lat="42.83479" lon="0.7303">
        <ele>617.5266</ele>
        <time>2021-07-22T16:50:49Z</time>
      </trkpt>
      <trkpt lat="42.83661" lon="0.73049">
        <ele>613.1238</ele>
        <time>2021-07-22T16:51:00Z</time>
      </trkpt>
      <trkpt lat="42.83808" lon="0.73152">
        <ele>607.797</ele>
        <time>2021-07-22T16:51:11Z</time>
      </trkpt>
      <trkpt lat="42.83981" lon="0.7314">
        <ele>602.8788</ele>
        <time>2021-07-22T16:51:22Z</time>
      </trkpt>
      <trkpt lat="42.84166" lon="0.73073">
        <ele>603.4642</ele>
        <time>2021-07-22T16:51:33Z</time>
      </trkpt>
      <trkpt lat="42.84343" lon="0.73148">
        <ele>598.7228</ele>
        <time>2021-07-22T16:51:44Z</time>
      </trkpt>
      <trkpt lat="42.84498" lon="0.73258">
        <ele>597.9576</ele>
        <time>2021-07-22T16:51:55Z</time>
      </trkpt>
      <trkpt lat="42.84664" lon="0.73363">
        <ele>594.7521</ele>
        <time>2021-07-22T16:52:06Z</time>
      </trkpt>
      <trkpt lat="42.84799" lon="0.73515">
        <ele>590.1318</ele>
        <time>2021-07-22T16:52:17Z</time>
      </trkpt>
      <trkpt lat="42.84929" lon="0.73611">
        <ele>588.953</ele>
        <time>2021-07-22T16:52:28Z</time>
      </trkpt>
      <trkpt lat="42.85086" lon="0.73605">
        <ele>587.7128</ele>
        <time>2021-07-22T16:52:39Z</time>
      </trkpt>
      <trkpt lat="42.85269" lon="0.73588">
        <ele>591.47</ele>
        <time>2021-07-22T16:52:50Z</time>
      </trkpt>
      <trkpt lat="42.85442" lon="0.73582">
        <ele>587.1469</ele>
        <time>2021-07-22T16:53:01Z</time>
      </trkpt>
      <trkpt lat="42.85591" lon="0.73646">
        <ele>587.4246</ele>
        <time>2021-07-22T16:53:12Z</time>
      </trkpt>
      <trkpt lat="42.85642" lon="0.73787">
        <ele>589.6997</ele>
        <time>2021-07-22T16:53:23Z</time>
      </trkpt>
      <trkpt lat="42.85656" lon="0.73999">
        <ele>584.6136</ele>
        <time>2021-07-22T16:53:34Z</time>
      </trkpt>
      <trkpt lat="42.85685" lon="0.74219">
        <ele>575.9138</ele>
        <time>2021-07-22T16:53:45Z</time>
      </trkpt>
      <trkpt lat="42.8575" lon="0.74415">
        <ele>570.103</ele>
        <time>2021-07-22T16:53:56Z</time>
      </trkpt>
      <trkpt lat="42.85837" lon="0.74608">
        <ele>564.6794</ele>
        <time>2021-07-22T16:54:07Z</time>
      </trkpt>
      <trkpt lat="42.85933" lon="0.74765">
        <ele>565.8063</ele>
        <time>2021-07-22T16:54:18Z</time>
      </trkpt>
      <trkpt lat="42.86076" lon="0.74825">
        <ele>568.925</ele>
        <time>2021-07-22T16:54:29Z</time>
      </trkpt>
      <trkpt lat="42.86224" lon="0.74818">
        <ele>567.0675</ele>
        <time>2021-07-22T16:54:40Z</time>
      </trkpt>
      <trkpt lat="42.86346" lon="0.74897">
        <ele>563.281</ele>
        <time>2021-07-22T16:54:51Z</time>
      </trkpt>
      <trkpt lat="42.8643" lon="0.74979">
        <ele>556.9291</ele>
        <time>2021-07-22T16:55:02Z</time>
      </trkpt>
      <trkpt lat="42.86502" lon="0.74998">
        <ele>558.4118</ele>
        <time>2021-07-22T16:55:13Z</time>
      </trkpt>
      <trkpt lat="42.86559" lon="0.75009">
        <ele>566.4046</ele>
        <time>2021-07-22T16:55:24Z</time>
      </trkpt>
      <trkpt lat="42.86601" lon="0.74954">
        <ele>564.1253</ele>
        <time>2021-07-22T16:55:35Z</time>
      </trkpt>
      <trkpt lat="42.86603" lon="0.74882">
        <ele>564.6381</ele>
        <time>2021-07-22T16:55:46Z</time>
      </trkpt>
      <trkpt lat="42.86633" lon="0.74754">
        <ele>562.5396</ele>
        <time>2021-07-22T16:55:57Z</time>
      </trkpt>
      <trkpt lat="42.86687" lon="0.74573">
        <ele>561.7386</ele>
        <time>2021-07-22T16:56:08Z</time>
      </trkpt>
      <trkpt lat="42.8673" lon="0.74335">
        <ele>564.9888</ele>
        <time>2021-07-22T16:56:19Z</time>
      </trkpt>
      <trkpt lat="42.86753" lon="0.74045">
        <ele>556.5126</ele>
        <time>2021-07-22T16:56:30Z</time>
      </trkpt>
      <trkpt lat="42.86868" lon="0.73749">
        <ele>554.3711</ele>
        <time>2021-07-22T16:56:41Z</time>
      </trkpt>
      <trkpt lat="42.87001" lon="0.7346">
        <ele>552.2598</ele>
        <time>2021-07-22T16:56:52Z</time>
      </trkpt>
      <trkpt lat="42.87126" lon="0.73188">
        <ele>550.227</ele>
        <time>2021-07-22T16:57:03Z</time>
      </trkpt>
      <trkpt lat="42.87226" lon="0.72974">
        <ele>549.6324</ele>
        <time>2021-07-22T16:57:14Z</time>
      </trkpt>
      <trkpt lat="42.87319" lon="0.72827">
        <ele>546.7319</ele>
        <time>2021-07-22T16:57:25Z</time>
      </trkpt>
      <trkpt lat="42.87367" lon="0.72772">
        <ele>545.5604</ele>
        <time>2021-07-22T16:57:36Z</time>
      </trkpt>
      <trkpt lat="42.87405" lon="0.72725">
        <ele>540.2044</ele>
        <time>2021-07-22T16:57:47Z</time>
      </trkpt>
      <trkpt lat="42.87478" lon="0.72626">
        <ele>540.3569</ele>
        <time>2021-07-22T16:57:58Z</time>
      </trkpt>
      <trkpt lat="42.8759" lon="0.72484">
        <ele>541.0923</ele>
        <time>2021-07-22T16:58:09Z</time>
      </trkpt>
      <trkpt lat="42.87728" lon="0.72312">
        <ele>540.2013</ele>
        <time>2021-07-22T16:58:20Z</time>
      </trkpt>
      <trkpt lat="42.87882" lon="0.72115">
        <ele>536.2971</ele>
        <time>2021-07-22T16:58:31Z</time>
      </trkpt>
      <trkpt lat="42.88036" lon="0.71923">
        <ele>532.6957</ele>
        <time>2021-07-22T16:58:42Z</time>
      </trkpt>
      <trkpt lat="42.88193" lon="0.71718">
        <ele>533.9729</ele>
        <time>2021-07-22T16:58:53Z</time>
      </trkpt>
      <trkpt lat="42.88381" lon="0.71496">
        <ele>538.0637</ele>
        <time>2021-07-22T16:59:04Z</time>
      </trkpt>
      <trkpt lat="42.88548" lon="0.71235">
        <ele>542.2512</ele>
        <time>2021-07-22T16:59:15Z</time>
      </trkpt>
      <trkpt lat="42.88697" lon="0.70961">
        <ele>533.9138</ele>
        <time>2021-07-22T16:59:26Z</time>
      </trkpt>
      <trkpt lat="42.88841" lon="0.707">
        <ele>524.4447</ele>
        <time>2021-07-22T16:59:37Z</time>
      </trkpt>
      <trkpt lat="42.89" lon="0.70514">
        <ele>522.4704</ele>
        <time>2021-07-22T16:59:48Z</time>
      </trkpt>
      <trkpt lat="42.8915" lon="0.70363">
        <ele>522.6028</ele>
        <time>2021-07-22T16:59:59Z</time>
      </trkpt>
      <trkpt lat="42.89319" lon="0.70217">
        <ele>524.3627</ele>
        <time>2021-07-22T17:00:10Z</time>
      </trkpt>
      <trkpt lat="42.89512" lon="0.70048">
        <ele>525.6021</ele>
        <time>2021-07-22T17:00:21Z</time>
      </trkpt>
      <trkpt lat="42.89735" lon="0.69908">
        <ele>527.9028</ele>
        <time>2021-07-22T17:00:32Z</time>
      </trkpt>
      <trkpt lat="42.8998" lon="0.69835">
        <ele>523.7292</ele>
        <time>2021-07-22T17:00:43Z</time>
      </trkpt>
      <trkpt lat="42.90187" lon="0.69652">
        <ele>518.713</ele>
        <time>2021-07-22T17:00:54Z</time>
      </trkpt>
      <trkpt lat="42.90302" lon="0.69402">
        <ele>514.4932</ele>
        <time>2021-07-22T17:01:05Z</time>
      </trkpt>
      <trkpt lat="42.90437" lon="0.6919">
        <ele>509.7079</ele>
        <time>2021-07-22T17:01:16Z</time>
      </trkpt>
      <trkpt lat="42.90636" lon="0.69102">
        <ele>509.3984</ele>
        <time>2021-07-22T17:01:27Z</time>
      </trkpt>
      <trkpt lat="42.90828" lon="0.69006">
        <ele>508.5537</ele>
        <time>2021-07-22T17:01:38Z</time>
      </trkpt>
      <trkpt lat="42.91005" lon="0.69065">
        <ele>510.7602</ele>
        <time>2021-07-22T17:01:49Z</time>
      </trkpt>
      <trkpt lat="42.91144" lon="0.69137">
        <ele>506.7617</ele>
        <time>2021-07-22T17:02:00Z</time>
      </trkpt>
      <trkpt lat="42.91214" lon="0.69175">
        <ele>506.244</ele>
        <time>2021-07-22T17:02:11Z</time>
      </trkpt>
      <trkpt lat="42.91266" lon="0.69208">
        <ele>509.5794</ele>
        <time>2021-07-22T17:02:22Z</time>
      </trkpt>
      <trkpt lat="42.9134" lon="0.69282">
        <ele>509.398</ele>
        <time>2021-07-22T17:02:33Z</time>
      </trkpt>
      <trkpt lat="42.91424" lon="0.69304">
        <ele>512.9097</ele>
        <time>2021-07-22T17:02:44Z</time>
      </trkpt>
      <trkpt lat="42.91503" lon="0.6925">
        <ele>509.971</ele>
        <time>2021-07-22T17:02:55Z</time>
      </trkpt>
      <trkpt lat="42.91545" lon="0.69201">
        <ele>511.2181</ele>
        <time>2021-07-22T17:03:06Z</time>
      </trkpt>
      <trkpt lat="42.91586" lon="0.69174">
        <ele>506.0068</ele>
        <time>2021-07-22T17:03:17Z</time>
      </trkpt>
      <trkpt lat="42.91651" lon="0.69095">
        <ele>506.4545</ele>
        <time>2021-07-22T17:03:28Z</time>
      </trkpt>
      <trkpt lat="42.91731" lon="0.69049">
        <ele>506.9217</ele>
        <time>2021-07-22T17:03:39Z</time>
      </trkpt>
      <trkpt lat="42.91825" lon="0.69">
        <ele>506.5321</ele>
        <time>2021-07-22T17:03:50Z</time>
      </trkpt>
      <trkpt lat="42.91923" lon="0.68936">
        <ele>501.1833</ele>
        <time>2021-07-22T17:04:01Z</time>
      </trkpt>
      <trkpt lat="42.92042" lon="0.68856">
        <ele>499.9485</ele>
        <time>2021-07-22T17:04:12Z</time>
      </trkpt>
      <trkpt lat="42.92159" lon="0.68755">
        <ele>501.4723</ele>
        <time>2021-07-22T17:04:23Z</time>
      </trkpt>
      <trkpt lat="42.92219" lon="0.68598">
        <ele>501.132</ele>
        <time>2021-07-22T17:04:34Z</time>
      </trkpt>
      <trkpt lat="42.92222" lon="0.68449">
        <ele>507.5452</ele>
        <time>2021-07-22T17:04:45Z</time>
      </trkpt>
      <trkpt lat="42.92279" lon="0.68385">
        <ele>508.0741</ele>
        <time>2021-07-22T17:04:56Z</time>
      </trkpt>
      <trkpt lat="42.92335" lon="0.68373">
        <ele>506.9391</ele>
        <time>2021-07-22T17:05:07Z</time>
      </trkpt>
      <trkpt lat="42.92384" lon="0.68222">
        <ele>502.8034</ele>
        <time>2021-07-22T17:05:18Z</time>
      </trkpt>
      <trkpt lat="42.92492" lon="0.68026">
        <ele>497.792</ele>
        <time>2021-07-22T17:05:29Z</time>
      </trkpt>
      <trkpt lat="42.92599" lon="0.67816">
        <ele>494.5286</ele>
        <time>2021-07-22T17:05:40Z</time>
      </trkpt>
      <trkpt lat="42.92655" lon="0.6758">
        <ele>490.7127</ele>
        <time>2021-07-22T17:05:51Z</time>
      </trkpt>
      <trkpt lat="42.92711" lon="0.67239">
        <ele>487.8776</ele>
        <time>2021-07-22T17:06:02Z</time>
      </trkpt>
      <trkpt lat="42.92766" lon="0.66906">
        <ele>487.1342</ele>
        <time>2021-07-22T17:06:13Z</time>
      </trkpt>
      <trkpt lat="42.92821" lon="0.66577">
        <ele>485.0353</ele>
        <time>2021-07-22T17:06:24Z</time>
      </trkpt>
      <trkpt lat="42.92835" lon="0.66242">
        <ele>484.4843</ele>
        <time>2021-07-22T17:06:35Z</time>
      </trkpt>
      <trkpt lat="42.92781" lon="0.65908">
        <ele>485.3126</ele>
        <time>2021-07-22T17:06:46Z</time>
      </trkpt>
      <trkpt lat="42.92747" lon="0.65606">
        <ele>489.8588</ele>
        <time>2021-07-22T17:06:57Z</time>
      </trkpt>
      <trkpt lat="42.92872" lon="0.65352">
        <ele>487.5735</ele>
        <time>2021-07-22T17:07:08Z</time>
      </trkpt>
      <trkpt lat="42.93096" lon="0.65226">
        <ele>482.9803</ele>
        <time>2021-07-22T17:07:19Z</time>
      </trkpt>
      <trkpt lat="42.93323" lon="0.65105">
        <ele>480.4835</ele>
        <time>2021-07-22T17:07:30Z</time>
      </trkpt>
      <trkpt lat="42.93551" lon="0.64985">
        <ele>480.2385</ele>
        <time>2021-07-22T17:07:41Z</time>
      </trkpt>
      <trkpt lat="42.9377" lon="0.64895">
        <ele>481.1395</ele>
        <time>2021-07-22T17:07:52Z</time>
      </trkpt>
      <trkpt lat="42.93892" lon="0.64884">
        <ele>479.1343</ele>
        <time>2021-07-22T17:08:03Z</time>
      </trkpt>
      <trkpt lat="42.93988" lon="0.64793">
        <ele>476.3813</ele>
        <time>2021-07-22T17:08:14Z</time>
      </trkpt>
      <trkpt lat="42.942" lon="0.64715">
        <ele>473.4047</ele>
        <time>2021-07-22T17:08:25Z</time>
      </trkpt>
      <trkpt lat="42.94425" lon="0.6463">
        <ele>473.3131</ele>
        <time>2021-07-22T17:08:36Z</time>
      </trkpt>
      <trkpt lat="42.94668" lon="0.6456">
        <ele>472.7014</ele>
        <time>2021-07-22T17:08:47Z</time>
      </trkpt>
      <trkpt lat="42.94872" lon="0.64368">
        <ele>472.2447</ele>
        <time>2021-07-22T17:08:58Z</time>
      </trkpt>
      <trkpt lat="42.95101" lon="0.64256">
        <ele>474.9144</ele>
        <time>2021-07-22T17:09:09Z</time>
      </trkpt>
      <trkpt lat="42.95346" lon="0.64315">
        <ele>479.0985</ele>
        <time>2021-07-22T17:09:20Z</time>
      </trkpt>
      <trkpt lat="42.95591" lon="0.64403">
        <ele>468.5433</ele>
        <time>2021-07-22T17:09:31Z</time>
      </trkpt>
      <trkpt lat="42.95813" lon="0.64568">
        <ele>468.1045</ele>
        <time>2021-07-22T17:09:42Z</time>
      </trkpt>
      <trkpt lat="42.96042" lon="0.64699">
        <ele>468.0497</ele>
        <time>2021-07-22T17:09:53Z</time>
      </trkpt>
      <trkpt lat="42.96291" lon="0.64768">
        <ele>467.6421</ele>
        <time>2021-07-22T17:10:04Z</time>
      </trkpt>
      <trkpt lat="42.96548" lon="0.64729">
        <ele>465.7693</ele>
        <time>2021-07-22T17:10:15Z</time>
      </trkpt>
      <trkpt lat="42.96802" lon="0.64711">
        <ele>463.2613</ele>
        <time>2021-07-22T17:10:26Z</time>
      </trkpt>
      <trkpt lat="42.97038" lon="0.64708">
        <ele>463.642</ele>
        <time>2021-07-22T17:10:37Z</time>
      </trkpt>
      <trkpt lat="42.97258" lon="0.6471">
        <ele>463.7108</ele>
        <time>2021-07-22T17:10:48Z</time>
      </trkpt>
      <trkpt lat="42.97461" lon="0.64661">
        <ele>463.367</ele>
        <time>2021-07-22T17:10:59Z</time>
      </trkpt>
      <trkpt lat="42.97639" lon="0.64549">
        <ele>462.4487</ele>
        <time>2021-07-22T17:11:10Z</time>
      </trkpt>
      <trkpt lat="42.97808" lon="0.64439">
        <ele>459.8932</ele>
        <time>2021-07-22T17:11:21Z</time>
      </trkpt>
      <trkpt lat="42.9791" lon="0.64224">
        <ele>460.8108</ele>
        <time>2021-07-22T17:11:32Z</time>
      </trkpt>
      <trkpt lat="42.98052" lon="0.64057">
        <ele>462.1437</ele>
        <time>2021-07-22T17:11:43Z</time>
      </trkpt>
      <trkpt lat="42.98222" lon="0.6394">
        <ele>460.2732</ele>
        <time>2021-07-22T17:11:54Z</time>
      </trkpt>
      <trkpt lat="42.98374" lon="0.63786">
        <ele>456.488</ele>
        <time>2021-07-22T17:12:05Z</time>
      </trkpt>
      <trkpt lat="42.98532" lon="0.63652">
        <ele>454.3908</ele>
        <time>2021-07-22T17:12:16Z</time>
      </trkpt>
      <trkpt lat="42.98652" lon="0.63448">
        <ele>452.9912</ele>
        <time>2021-07-22T17:12:27Z</time>
      </trkpt>
      <trkpt lat="42.98779" lon="0.63229">
        <ele>456.1999</ele>
        <time>2021-07-22T17:12:38Z</time>
      </trkpt>
      <trkpt lat="42.98935" lon="0.63067">
        <ele>456.3314</ele>
        <time>2021-07-22T17:12:49Z</time>
      </trkpt>
      <trkpt lat="42.99114" lon="0.63029">
        <ele>455.2527</ele>
        <time>2021-07-22T17:13:00Z</time>
      </trkpt>
      <trkpt lat="42.99283" lon="0.63045">
        <ele>454.9624</ele>
        <time>2021-07-22T17:13:11Z</time>
      </trkpt>
      <trkpt lat="42.99438" lon="0.63091">
        <ele>458.2068</ele>
        <time>2021-07-22T17:13:22Z</time>
      </trkpt>
      <trkpt lat="42.99611" lon="0.63006">
        <ele>455.3389</ele>
        <time>2021-07-22T17:13:33Z</time>
      </trkpt>
      <trkpt lat="42.99803" lon="0.62902">
        <ele>456.3119</ele>
        <time>2021-07-22T17:13:44Z</time>
      </trkpt>
      <trkpt lat="42.99993" lon="0.62791">
        <ele>456.4638</ele>
        <time>2021-07-22T17:13:55Z</time>
      </trkpt>
      <trkpt lat="43.00158" lon="0.62649">
        <ele>455.0274</ele>
        <time>2021-07-22T17:14:06Z</time>
      </trkpt>
      <trkpt lat="43.00298" lon="0.62538">
        <ele>455.3492</ele>
        <time>2021-07-22T17:14:17Z</time>
      </trkpt>
      <trkpt lat="43.00457" lon="0.62462">
        <ele>455.6157</ele>
        <time>2021-07-22T17:14:28Z</time>
      </trkpt>
      <trkpt lat="43.00621" lon="0.6236">
        <ele>455.5649</ele>
        <time>2021-07-22T17:14:39Z</time>
      </trkpt>
      <trkpt lat="43.00773" lon="0.62222">
        <ele>454.1052</ele>
        <time>2021-07-22T17:14:50Z</time>
      </trkpt>
      <trkpt lat="43.00902" lon="0.62038">
        <ele>450.2553</ele>
        <time>2021-07-22T17:15:01Z</time>
      </trkpt>
      <trkpt lat="43.01034" lon="0.61851">
        <ele>450.7388</ele>
        <time>2021-07-22T17:15:12Z</time>
      </trkpt>
      <trkpt lat="43.01192" lon="0.61719">
        <ele>449.4442</ele>
        <time>2021-07-22T17:15:23Z</time>
      </trkpt>
      <trkpt lat="43.01379" lon="0.61677">
        <ele>449.3802</ele>
        <time>2021-07-22T17:15:34Z</time>
      </trkpt>
      <trkpt lat="43.01546" lon="0.61699">
        <ele>446.175</ele>
        <time>2021-07-22T17:15:45Z</time>
      </trkpt>
      <trkpt lat="43.01695" lon="0.61839">
        <ele>447.1679</ele>
        <time>2021-07-22T17:15:56Z</time>
      </trkpt>
      <trkpt lat="43.01836" lon="0.6197">
        <ele>454.6475</ele>
        <time>2021-07-22T17:16:07Z</time>
      </trkpt>
      <trkpt lat="43.01959" lon="0.61912">
        <ele>458.995</ele>
        <time>2021-07-22T17:16:18Z</time>
      </trkpt>
      <trkpt lat="43.02077" lon="0.6176">
        <ele>454.7675</ele>
        <time>2021-07-22T17:16:29Z</time>
      </trkpt>
      <trkpt lat="43.02264" lon="0.61613">
        <ele>442.8914</ele>
        <time>2021-07-22T17:16:40Z</time>
      </trkpt>
      <trkpt lat="43.02432" lon="0.61423">
        <ele>445.2842</ele>
        <time>2021-07-22T17:16:51Z</time>
      </trkpt>
      <trkpt lat="43.02597" lon="0.61247">
        <ele>446.0338</ele>
        <time>2021-07-22T17:17:02Z</time>
      </trkpt>
      <trkpt lat="43.02745" lon="0.61141">
        <ele>445.0088</ele>
        <time>2021-07-22T17:17:13Z</time>
      </trkpt>
      <trkpt lat="43.02826" lon="0.61105">
        <ele>446.7466</ele>
        <time>2021-07-22T17:17:25Z</time>
      </trkpt>
      <trkpt lat="43.02901" lon="0.61029">
        <ele>445.9086</ele>
        <time>2021-07-22T17:17:36Z</time>
      </trkpt>
      <trkpt lat="43.03035" lon="0.60957">
        <ele>444.3767</ele>
        <time>2021-07-22T17:17:47Z</time>
      </trkpt>
      <trkpt lat="43.03225" lon="0.6092">
        <ele>445.8318</ele>
        <time>2021-07-22T17:17:58Z</time>
      </trkpt>
      <trkpt lat="43.03417" lon="0.6088">
        <ele>448.4889</ele>
        <time>2021-07-22T17:18:09Z</time>
      </trkpt>
      <trkpt lat="43.03582" lon="0.60772">
        <ele>457.053</ele>
        <time>2021-07-22T17:18:20Z</time>
      </trkpt>
      <trkpt lat="43.03708" lon="0.60601">
        <ele>459.8134</ele>
        <time>2021-07-22T17:18:31Z</time>
      </trkpt>
      <trkpt lat="43.03791" lon="0.60365">
        <ele>459.3424</ele>
        <time>2021-07-22T17:18:42Z</time>
      </trkpt>
      <trkpt lat="43.03868" lon="0.60107">
        <ele>457.0523</ele>
        <time>2021-07-22T17:18:53Z</time>
      </trkpt>
      <trkpt lat="43.03981" lon="0.5988">
        <ele>457.4326</ele>
        <time>2021-07-22T17:19:04Z</time>
      </trkpt>
      <trkpt lat="43.04113" lon="0.59681">
        <ele>457.0621</ele>
        <time>2021-07-22T17:19:15Z</time>
      </trkpt>
      <trkpt lat="43.0424" lon="0.59512">
        <ele>455.9731</ele>
        <time>2021-07-22T17:19:26Z</time>
      </trkpt>
      <trkpt lat="43.04341" lon="0.59388">
        <ele>457.6998</ele>
        <time>2021-07-22T17:19:37Z</time>
      </trkpt>
      <trkpt lat="43.04448" lon="0.59212">
        <ele>460.2801</ele>
        <time>2021-07-22T17:19:49Z</time>
      </trkpt>
      <trkpt lat="43.04576" lon="0.59123">
        <ele>467.8349</ele>
        <time>2021-07-22T17:20:00Z</time>
      </trkpt>
      <trkpt lat="43.04718" lon="0.59138">
        <ele>472.2729</ele>
        <time>2021-07-22T17:20:11Z</time>
      </trkpt>
      <trkpt lat="43.04873" lon="0.59173">
        <ele>475.448</ele>
        <time>2021-07-22T17:20:22Z</time>
      </trkpt>
      <trkpt lat="43.05046" lon="0.592">
        <ele>473.0248</ele>
        <time>2021-07-22T17:20:33Z</time>
      </trkpt>
      <trkpt lat="43.05252" lon="0.59174">
        <ele>466.9935</ele>
        <time>2021-07-22T17:20:44Z</time>
      </trkpt>
      <trkpt lat="43.05455" lon="0.59151">
        <ele>457.0262</ele>
        <time>2021-07-22T17:20:55Z</time>
      </trkpt>
      <trkpt lat="43.05653" lon="0.59137">
        <ele>447.1226</ele>
        <time>2021-07-22T17:21:06Z</time>
      </trkpt>
      <trkpt lat="43.05816" lon="0.59201">
        <ele>441.1756</ele>
        <time>2021-07-22T17:21:17Z</time>
      </trkpt>
      <trkpt lat="43.05919" lon="0.59268">
        <ele>438.6807</ele>
        <time>2021-07-22T17:21:28Z</time>
      </trkpt>
      <trkpt lat="43.05972" lon="0.59318">
        <ele>438.4035</ele>
        <time>2021-07-22T17:21:39Z</time>
      </trkpt>
      <trkpt lat="43.06064" lon="0.5938">
        <ele>438.3717</ele>
        <time>2021-07-22T17:21:50Z</time>
      </trkpt>
      <trkpt lat="43.06164" lon="0.59542">
        <ele>435.9692</ele>
        <time>2021-07-22T17:22:01Z</time>
      </trkpt>
      <trkpt lat="43.06254" lon="0.59774">
        <ele>434.5816</ele>
        <time>2021-07-22T17:22:12Z</time>
      </trkpt>
      <trkpt lat="43.06357" lon="0.60039">
        <ele>434.4268</ele>
        <time>2021-07-22T17:22:23Z</time>
      </trkpt>
      <trkpt lat="43.06479" lon="0.60354">
        <ele>432.3956</ele>
        <time>2021-07-22T17:22:34Z</time>
      </trkpt>
      <trkpt lat="43.06619" lon="0.60617">
        <ele>432.3423</ele>
        <time>2021-07-22T17:22:45Z</time>
      </trkpt>
      <trkpt lat="43.06811" lon="0.60814">
        <ele>430.8664</ele>
        <time>2021-07-22T17:22:56Z</time>
      </trkpt>
      <trkpt lat="43.07034" lon="0.60925">
        <ele>428.2238</ele>
        <time>2021-07-22T17:23:07Z</time>
      </trkpt>
      <trkpt lat="43.07261" lon="0.60948">
        <ele>426.8314</ele>
        <time>2021-07-22T17:23:18Z</time>
      </trkpt>
      <trkpt lat="43.07486" lon="0.60883">
        <ele>422.9731</ele>
        <time>2021-07-22T17:23:29Z</time>
      </trkpt>
      <trkpt lat="43.07693" lon="0.60735">
        <ele>420.1709</ele>
        <time>2021-07-22T17:23:40Z</time>
      </trkpt>
      <trkpt lat="43.07896" lon="0.60562">
        <ele>419.0707</ele>
        <time>2021-07-22T17:23:51Z</time>
      </trkpt>
      <trkpt lat="43.08105" lon="0.60388">
        <ele>418.3565</ele>
        <time>2021-07-22T17:24:02Z</time>
      </trkpt>
      <trkpt lat="43.08308" lon="0.60215">
        <ele>417.6554</ele>
        <time>2021-07-22T17:24:13Z</time>
      </trkpt>
      <trkpt lat="43.08508" lon="0.60049">
        <ele>417.5562</ele>
        <time>2021-07-22T17:24:24Z</time>
      </trkpt>
      <trkpt lat="43.08719" lon="0.59915">
        <ele>415.3872</ele>
        <time>2021-07-22T17:24:35Z</time>
      </trkpt>
      <trkpt lat="43.08951" lon="0.59827">
        <ele>415.8763</ele>
        <time>2021-07-22T17:24:46Z</time>
      </trkpt>
      <trkpt lat="43.09187" lon="0.59764">
        <ele>415.0406</ele>
        <time>2021-07-22T17:24:57Z</time>
      </trkpt>
      <trkpt lat="43.09425" lon="0.597">
        <ele>415.6624</ele>
        <time>2021-07-22T17:25:08Z</time>
      </trkpt>
      <trkpt lat="43.09658" lon="0.59637">
        <ele>415.6714</ele>
        <time>2021-07-22T17:25:19Z</time>
      </trkpt>
      <trkpt lat="43.09859" lon="0.59584">
        <ele>416.9278</ele>
        <time>2021-07-22T17:25:30Z</time>
      </trkpt>
      <trkpt lat="43.09992" lon="0.59553">
        <ele>418.0076</ele>
        <time>2021-07-22T17:25:41Z</time>
      </trkpt>
      <trkpt lat="43.1001" lon="0.59547">
        <ele>413.9172</ele>
        <time>2021-07-22T17:25:52Z</time>
      </trkpt>
      <trkpt lat="43.10013" lon="0.5955">
        <ele>411.1609</ele>
        <time>2021-07-22T17:26:13Z</time>
      </trkpt>
      <trkpt lat="43.10012" lon="0.59555">
        <ele>410.9645</ele>
        <time>2021-07-22T17:26:24Z</time>
      </trkpt>
      <trkpt lat="43.10017" lon="0.59553">
        <ele>411.2644</ele>
        <time>2021-07-22T17:26:38Z</time>
      </trkpt>
      <trkpt lat="43.10241" lon="0.59484">
        <ele>415.2402</ele>
        <time>2021-07-22T17:26:49Z</time>
      </trkpt>
      <trkpt lat="43.10434" lon="0.59772">
        <ele>410.9435</ele>
        <time>2021-07-22T17:27:00Z</time>
      </trkpt>
      <trkpt lat="43.10536" lon="0.60195">
        <ele>405.7899</ele>
        <time>2021-07-22T17:27:11Z</time>
      </trkpt>
      <trkpt lat="43.10642" lon="0.60613">
        <ele>405.9348</ele>
        <time>2021-07-22T17:27:22Z</time>
      </trkpt>
      <trkpt lat="43.10761" lon="0.6103">
        <ele>405.3303</ele>
        <time>2021-07-22T17:27:33Z</time>
      </trkpt>
      <trkpt lat="43.10884" lon="0.61452">
        <ele>405.0334</ele>
        <time>2021-07-22T17:27:44Z</time>
      </trkpt>
      <trkpt lat="43.10985" lon="0.6184">
        <ele>405.0692</ele>
        <time>2021-07-22T17:27:55Z</time>
      </trkpt>
      <trkpt lat="43.11096" lon="0.62317">
        <ele>402.047</ele>
        <time>2021-07-22T17:28:07Z</time>
      </trkpt>
      <trkpt lat="43.11187" lon="0.62766">
        <ele>400.4231</ele>
        <time>2021-07-22T17:28:18Z</time>
      </trkpt>
      <trkpt lat="43.11274" lon="0.63207">
        <ele>398.3285</ele>
        <time>2021-07-22T17:28:29Z</time>
      </trkpt>
      <trkpt lat="43.11361" lon="0.63652">
        <ele>396.1836</ele>
        <time>2021-07-22T17:28:40Z</time>
      </trkpt>
      <trkpt lat="43.11437" lon="0.64095">
        <ele>395.3863</ele>
        <time>2021-07-22T17:28:51Z</time>
      </trkpt>
      <trkpt lat="43.11488" lon="0.64549">
        <ele>393.9729</ele>
        <time>2021-07-22T17:29:02Z</time>
      </trkpt>
      <trkpt lat="43.11508" lon="0.65006">
        <ele>393.7608</ele>
        <time>2021-07-22T17:29:13Z</time>
      </trkpt>
      <trkpt lat="43.11491" lon="0.65462">
        <ele>391.0995</ele>
        <time>2021-07-22T17:29:24Z</time>
      </trkpt>
      <trkpt lat="43.11466" lon="0.65839">
        <ele>390.8594</ele>
        <time>2021-07-22T17:29:35Z</time>
      </trkpt>
      <trkpt lat="43.11436" lon="0.6621">
        <ele>389.4046</ele>
        <time>2021-07-22T17:29:46Z</time>
      </trkpt>
      <trkpt lat="43.11408" lon="0.66582">
        <ele>388.1361</ele>
        <time>2021-07-22T17:29:57Z</time>
      </trkpt>
      <trkpt lat="43.11395" lon="0.66927">
        <ele>386.242</ele>
        <time>2021-07-22T17:30:08Z</time>
      </trkpt>
      <trkpt lat="43.11409" lon="0.67307">
        <ele>384.2086</ele>
        <time>2021-07-22T17:30:19Z</time>
      </trkpt>
      <trkpt lat="43.11449" lon="0.67692">
        <ele>382.6505</ele>
        <time>2021-07-22T17:30:30Z</time>
      </trkpt>
      <trkpt lat="43.11504" lon="0.68113">
        <ele>382.0157</ele>
        <time>2021-07-22T17:30:41Z</time>
      </trkpt>
      <trkpt lat="43.11553" lon="0.68474">
        <ele>382.3648</ele>
        <time>2021-07-22T17:30:52Z</time>
      </trkpt>
      <trkpt lat="43.11617" lon="0.68846">
        <ele>382.7001</ele>
        <time>2021-07-22T17:31:03Z</time>
      </trkpt>
      <trkpt lat="43.11703" lon="0.69213">
        <ele>382.6829</ele>
        <time>2021-07-22T17:31:14Z</time>
      </trkpt>
      <trkpt lat="43.11808" lon="0.69548">
        <ele>385.6801</ele>
        <time>2021-07-22T17:31:25Z</time>
      </trkpt>
      <trkpt lat="43.11922" lon="0.69885">
        <ele>389.5516</ele>
        <time>2021-07-22T17:31:36Z</time>
      </trkpt>
      <trkpt lat="43.12026" lon="0.70239">
        <ele>391.2312</ele>
        <time>2021-07-22T17:31:47Z</time>
      </trkpt>
      <trkpt lat="43.12105" lon="0.70598">
        <ele>393.75</ele>
        <time>2021-07-22T17:31:58Z</time>
      </trkpt>
      <trkpt lat="43.12167" lon="0.70936">
        <ele>393.3249</ele>
        <time>2021-07-22T17:32:09Z</time>
      </trkpt>
      <trkpt lat="43.12246" lon="0.71308">
        <ele>391.4563</ele>
        <time>2021-07-22T17:32:20Z</time>
      </trkpt>
      <trkpt lat="43.12335" lon="0.71673">
        <ele>388.5218</ele>
        <time>2021-07-22T17:32:31Z</time>
      </trkpt>
      <trkpt lat="43.12419" lon="0.72059">
        <ele>384.3939</ele>
        <time>2021-07-22T17:32:42Z</time>
      </trkpt>
      <trkpt lat="43.12455" lon="0.72446">
        <ele>380.8422</ele>
        <time>2021-07-22T17:32:53Z</time>
      </trkpt>
      <trkpt lat="43.12441" lon="0.72837">
        <ele>376.8908</ele>
        <time>2021-07-22T17:33:04Z</time>
      </trkpt>
      <trkpt lat="43.12381" lon="0.73217">
        <ele>376.024</ele>
        <time>2021-07-22T17:33:15Z</time>
      </trkpt>
      <trkpt lat="43.12329" lon="0.73566">
        <ele>374.3103</ele>
        <time>2021-07-22T17:33:26Z</time>
      </trkpt>
      <trkpt lat="43.12321" lon="0.73958">
        <ele>373.5979</ele>
        <time>2021-07-22T17:33:37Z</time>
      </trkpt>
      <trkpt lat="43.12353" lon="0.74334">
        <ele>372.5264</ele>
        <time>2021-07-22T17:33:48Z</time>
      </trkpt>
      <trkpt lat="43.12415" lon="0.74696">
        <ele>371.6798</ele>
        <time>2021-07-22T17:33:59Z</time>
      </trkpt>
      <trkpt lat="43.12465" lon="0.75068">
        <ele>370.7583</ele>
        <time>2021-07-22T17:34:10Z</time>
      </trkpt>
      <trkpt lat="43.12487" lon="0.75409">
        <ele>369.2423</ele>
        <time>2021-07-22T17:34:21Z</time>
      </trkpt>
      <trkpt lat="43.12503" lon="0.75822">
        <ele>366.8242</ele>
        <time>2021-07-22T17:34:32Z</time>
      </trkpt>
      <trkpt lat="43.12506" lon="0.76202">
        <ele>365.3478</ele>
        <time>2021-07-22T17:34:43Z</time>
      </trkpt>
      <trkpt lat="43.12505" lon="0.76587">
        <ele>363.3159</ele>
        <time>2021-07-22T17:34:54Z</time>
      </trkpt>
      <trkpt lat="43.1251" lon="0.7697">
        <ele>362.5226</ele>
        <time>2021-07-22T17:35:05Z</time>
      </trkpt>
      <trkpt lat="43.12527" lon="0.77359">
        <ele>361.2828</ele>
        <time>2021-07-22T17:35:16Z</time>
      </trkpt>
      <trkpt lat="43.1255" lon="0.7774">
        <ele>359.936</ele>
        <time>2021-07-22T17:35:27Z</time>
      </trkpt>
      <trkpt lat="43.1257" lon="0.78117">
        <ele>359.4653</ele>
        <time>2021-07-22T17:35:38Z</time>
      </trkpt>
      <trkpt lat="43.12579" lon="0.78504">
        <ele>357.3037</ele>
        <time>2021-07-22T17:35:49Z</time>
      </trkpt>
      <trkpt lat="43.12576" lon="0.78896">
        <ele>356.3055</ele>
        <time>2021-07-22T17:36:00Z</time>
      </trkpt>
      <trkpt lat="43.12568" lon="0.79285">
        <ele>355.2564</ele>
        <time>2021-07-22T17:36:11Z</time>
      </trkpt>
      <trkpt lat="43.1256" lon="0.7964">
        <ele>354.0203</ele>
        <time>2021-07-22T17:36:22Z</time>
      </trkpt>
      <trkpt lat="43.12558" lon="0.80025">
        <ele>352.0219</ele>
        <time>2021-07-22T17:36:33Z</time>
      </trkpt>
      <trkpt lat="43.12598" lon="0.80436">
        <ele>351.9321</ele>
        <time>2021-07-22T17:36:44Z</time>
      </trkpt>
      <trkpt lat="43.12667" lon="0.80745">
        <ele>354.6217</ele>
        <time>2021-07-22T17:36:55Z</time>
      </trkpt>
      <trkpt lat="43.12768" lon="0.8109">
        <ele>358.8453</ele>
        <time>2021-07-22T17:37:06Z</time>
      </trkpt>
      <trkpt lat="43.12871" lon="0.81417">
        <ele>374.2622</ele>
        <time>2021-07-22T17:37:17Z</time>
      </trkpt>
      <trkpt lat="43.12986" lon="0.81773">
        <ele>379.0075</ele>
        <time>2021-07-22T17:37:28Z</time>
      </trkpt>
      <trkpt lat="43.13105" lon="0.8214">
        <ele>377.5034</ele>
        <time>2021-07-22T17:37:39Z</time>
      </trkpt>
      <trkpt lat="43.1322" lon="0.82496">
        <ele>365.1442</ele>
        <time>2021-07-22T17:37:50Z</time>
      </trkpt>
      <trkpt lat="43.13313" lon="0.82853">
        <ele>353.9022</ele>
        <time>2021-07-22T17:38:01Z</time>
      </trkpt>
      <trkpt lat="43.13346" lon="0.83244">
        <ele>345.3712</ele>
        <time>2021-07-22T17:38:12Z</time>
      </trkpt>
      <trkpt lat="43.13307" lon="0.8365">
        <ele>343.1697</ele>
        <time>2021-07-22T17:38:23Z</time>
      </trkpt>
      <trkpt lat="43.13241" lon="0.83973">
        <ele>342.2314</ele>
        <time>2021-07-22T17:38:34Z</time>
      </trkpt>
      <trkpt lat="43.13164" lon="0.84373">
        <ele>341.2033</ele>
        <time>2021-07-22T17:38:45Z</time>
      </trkpt>
      <trkpt lat="43.13091" lon="0.84749">
        <ele>339.5663</ele>
        <time>2021-07-22T17:38:56Z</time>
      </trkpt>
      <trkpt lat="43.13009" lon="0.85121">
        <ele>337.8798</ele>
        <time>2021-07-22T17:39:07Z</time>
      </trkpt>
      <trkpt lat="43.12916" lon="0.85494">
        <ele>337.0681</ele>
        <time>2021-07-22T17:39:18Z</time>
      </trkpt>
      <trkpt lat="43.12814" lon="0.85866">
        <ele>336.7633</ele>
        <time>2021-07-22T17:39:29Z</time>
      </trkpt>
      <trkpt lat="43.12714" lon="0.86235">
        <ele>335.099</ele>
        <time>2021-07-22T17:39:40Z</time>
      </trkpt>
      <trkpt lat="43.12616" lon="0.86599">
        <ele>332.5171</ele>
        <time>2021-07-22T17:39:51Z</time>
      </trkpt>
      <trkpt lat="43.12524" lon="0.86955">
        <ele>330.9911</ele>
        <time>2021-07-22T17:40:02Z</time>
      </trkpt>
      <trkpt lat="43.12465" lon="0.87327">
        <ele>330.7403</ele>
        <time>2021-07-22T17:40:13Z</time>
      </trkpt>
      <trkpt lat="43.12449" lon="0.87701">
        <ele>326.871</ele>
        <time>2021-07-22T17:40:24Z</time>
      </trkpt>
      <trkpt lat="43.12452" lon="0.88043">
        <ele>324.0525</ele>
        <time>2021-07-22T17:40:35Z</time>
      </trkpt>
      <trkpt lat="43.12434" lon="0.88421">
        <ele>321.3701</ele>
        <time>2021-07-22T17:40:46Z</time>
      </trkpt>
      <trkpt lat="43.12373" lon="0.88776">
        <ele>319.9178</ele>
        <time>2021-07-22T17:40:57Z</time>
      </trkpt>
      <trkpt lat="43.1226" lon="0.89127">
        <ele>318.517</ele>
        <time>2021-07-22T17:41:08Z</time>
      </trkpt>
      <trkpt lat="43.12127" lon="0.89357">
        <ele>315.3824</ele>
        <time>2021-07-22T17:41:19Z</time>
      </trkpt>
      <trkpt lat="43.12043" lon="0.89506">
        <ele>312.4092</ele>
        <time>2021-07-22T17:41:30Z</time>
      </trkpt>
      <trkpt lat="43.12027" lon="0.8954">
        <ele>312.5619</ele>
        <time>2021-07-22T17:41:41Z</time>
      </trkpt>
      <trkpt lat="43.1203" lon="0.89542">
        <ele>312.856</ele>
        <time>2021-07-22T17:42:32Z</time>
      </trkpt>
      <trkpt lat="43.12026" lon="0.89544">
        <ele>313.1941</ele>
        <time>2021-07-22T17:42:43Z</time>
      </trkpt>
      <trkpt lat="43.12023" lon="0.89547">
        <ele>313.253</ele>
        <time>2021-07-22T17:42:56Z</time>
      </trkpt>
      <trkpt lat="43.12021" lon="0.89555">
        <ele>311.4459</ele>
        <time>2021-07-22T17:43:22Z</time>
      </trkpt>
      <trkpt lat="43.11916" lon="0.89808">
        <ele>313.2884</ele>
        <time>2021-07-22T17:43:33Z</time>
      </trkpt>
      <trkpt lat="43.11762" lon="0.90214">
        <ele>314.4655</ele>
        <time>2021-07-22T17:43:44Z</time>
      </trkpt>
      <trkpt lat="43.11658" lon="0.90669">
        <ele>313.7047</ele>
        <time>2021-07-22T17:43:55Z</time>
      </trkpt>
      <trkpt lat="43.11601" lon="0.91189">
        <ele>306.8103</ele>
        <time>2021-07-22T17:44:06Z</time>
      </trkpt>
      <trkpt lat="43.11657" lon="0.91673">
        <ele>303.9498</ele>
        <time>2021-07-22T17:44:17Z</time>
      </trkpt>
      <trkpt lat="43.11825" lon="0.92114">
        <ele>298.3719</ele>
        <time>2021-07-22T17:44:28Z</time>
      </trkpt>
      <trkpt lat="43.12048" lon="0.92493">
        <ele>298.5261</ele>
        <time>2021-07-22T17:44:39Z</time>
      </trkpt>
      <trkpt lat="43.12252" lon="0.9284">
        <ele>298.8789</ele>
        <time>2021-07-22T17:44:50Z</time>
      </trkpt>
      <trkpt lat="43.12458" lon="0.93243">
        <ele>298.295</ele>
        <time>2021-07-22T17:45:01Z</time>
      </trkpt>
      <trkpt lat="43.12626" lon="0.93671">
        <ele>299.4563</ele>
        <time>2021-07-22T17:45:12Z</time>
      </trkpt>
      <trkpt lat="43.12811" lon="0.94114">
        <ele>298.3006</ele>
        <time>2021-07-22T17:45:23Z</time>
      </trkpt>
      <trkpt lat="43.12999" lon="0.94496">
        <ele>296.6726</ele>
        <time>2021-07-22T17:45:34Z</time>
      </trkpt>
      <trkpt lat="43.13221" lon="0.94858">
        <ele>295.4613</ele>
        <time>2021-07-22T17:45:45Z</time>
      </trkpt>
      <trkpt lat="43.13467" lon="0.95192">
        <ele>293.6922</ele>
        <time>2021-07-22T17:45:56Z</time>
      </trkpt>
      <trkpt lat="43.13733" lon="0.95488">
        <ele>293.4887</ele>
        <time>2021-07-22T17:46:07Z</time>
      </trkpt>
      <trkpt lat="43.13983" lon="0.9572">
        <ele>293.3441</ele>
        <time>2021-07-22T17:46:18Z</time>
      </trkpt>
      <trkpt lat="43.14233" lon="0.95912">
        <ele>293.36</ele>
        <time>2021-07-22T17:46:29Z</time>
      </trkpt>
      <trkpt lat="43.14503" lon="0.96084">
        <ele>290.9574</ele>
        <time>2021-07-22T17:46:40Z</time>
      </trkpt>
      <trkpt lat="43.1476" lon="0.96214">
        <ele>287.4098</ele>
        <time>2021-07-22T17:46:51Z</time>
      </trkpt>
      <trkpt lat="43.15047" lon="0.96342">
        <ele>283.1204</ele>
        <time>2021-07-22T17:47:02Z</time>
      </trkpt>
      <trkpt lat="43.15355" lon="0.96476">
        <ele>278.993</ele>
        <time>2021-07-22T17:47:13Z</time>
      </trkpt>
      <trkpt lat="43.15645" lon="0.96602">
        <ele>274.8755</ele>
        <time>2021-07-22T17:47:24Z</time>
      </trkpt>
      <trkpt lat="43.15927" lon="0.96725">
        <ele>274.7611</ele>
        <time>2021-07-22T17:47:35Z</time>
      </trkpt>
      <trkpt lat="43.16195" lon="0.96899">
        <ele>272.6506</ele>
        <time>2021-07-22T17:47:46Z</time>
      </trkpt>
      <trkpt lat="43.1645" lon="0.97115">
        <ele>271.1776</ele>
        <time>2021-07-22T17:47:57Z</time>
      </trkpt>
      <trkpt lat="43.16732" lon="0.97244">
        <ele>271.2663</ele>
        <time>2021-07-22T17:48:08Z</time>
      </trkpt>
      <trkpt lat="43.17021" lon="0.97327">
        <ele>270.7509</ele>
        <time>2021-07-22T17:48:19Z</time>
      </trkpt>
      <trkpt lat="43.17284" lon="0.97506">
        <ele>272.7081</ele>
        <time>2021-07-22T17:48:30Z</time>
      </trkpt>
      <trkpt lat="43.17526" lon="0.97719">
        <ele>272.9365</ele>
        <time>2021-07-22T17:48:41Z</time>
      </trkpt>
      <trkpt lat="43.178" lon="0.97875">
        <ele>273.0006</ele>
        <time>2021-07-22T17:48:52Z</time>
      </trkpt>
      <trkpt lat="43.18061" lon="0.97939">
        <ele>270.7022</ele>
        <time>2021-07-22T17:49:03Z</time>
      </trkpt>
      <trkpt lat="43.1835" lon="0.97983">
        <ele>270.7641</ele>
        <time>2021-07-22T17:49:14Z</time>
      </trkpt>
      <trkpt lat="43.1864" lon="0.98056">
        <ele>268.5773</ele>
        <time>2021-07-22T17:49:25Z</time>
      </trkpt>
      <trkpt lat="43.18891" lon="0.98233">
        <ele>274.9672</ele>
        <time>2021-07-22T17:49:36Z</time>
      </trkpt>
      <trkpt lat="43.19131" lon="0.98507">
        <ele>278.8112</ele>
        <time>2021-07-22T17:49:47Z</time>
      </trkpt>
      <trkpt lat="43.19307" lon="0.98826">
        <ele>277.6963</ele>
        <time>2021-07-22T17:49:58Z</time>
      </trkpt>
      <trkpt lat="43.19471" lon="0.99173">
        <ele>275.1544</ele>
        <time>2021-07-22T17:50:09Z</time>
      </trkpt>
      <trkpt lat="43.19635" lon="0.99519">
        <ele>273.1954</ele>
        <time>2021-07-22T17:50:20Z</time>
      </trkpt>
      <trkpt lat="43.198" lon="0.99877">
        <ele>271.8996</ele>
        <time>2021-07-22T17:50:31Z</time>
      </trkpt>
      <trkpt lat="43.19964" lon="1.00224">
        <ele>271.178</ele>
        <time>2021-07-22T17:50:42Z</time>
      </trkpt>
      <trkpt lat="43.20128" lon="1.00575">
        <ele>269.9013</ele>
        <time>2021-07-22T17:50:53Z</time>
      </trkpt>
      <trkpt lat="43.20279" lon="1.00896">
        <ele>268.3043</ele>
        <time>2021-07-22T17:51:04Z</time>
      </trkpt>
      <trkpt lat="43.20461" lon="1.01281">
        <ele>265.5512</ele>
        <time>2021-07-22T17:51:15Z</time>
      </trkpt>
      <trkpt lat="43.20624" lon="1.0164">
        <ele>265.1379</ele>
        <time>2021-07-22T17:51:26Z</time>
      </trkpt>
      <trkpt lat="43.20728" lon="1.02029">
        <ele>264.1184</ele>
        <time>2021-07-22T17:51:37Z</time>
      </trkpt>
      <trkpt lat="43.20803" lon="1.0243">
        <ele>264.9825</ele>
        <time>2021-07-22T17:51:48Z</time>
      </trkpt>
      <trkpt lat="43.20938" lon="1.02799">
        <ele>263.9953</ele>
        <time>2021-07-22T17:51:59Z</time>
      </trkpt>
      <trkpt lat="43.21123" lon="1.03127">
        <ele>263.8586</ele>
        <time>2021-07-22T17:52:10Z</time>
      </trkpt>
      <trkpt lat="43.21313" lon="1.03451">
        <ele>262.5937</ele>
        <time>2021-07-22T17:52:21Z</time>
      </trkpt>
      <trkpt lat="43.21501" lon="1.03776">
        <ele>262.087</ele>
        <time>2021-07-22T17:52:32Z</time>
      </trkpt>
      <trkpt lat="43.21692" lon="1.04101">
        <ele>262.4125</ele>
        <time>2021-07-22T17:52:43Z</time>
      </trkpt>
      <trkpt lat="43.21881" lon="1.04425">
        <ele>262.2862</ele>
        <time>2021-07-22T17:52:54Z</time>
      </trkpt>
      <trkpt lat="43.22075" lon="1.04758">
        <ele>261.7361</ele>
        <time>2021-07-22T17:53:05Z</time>
      </trkpt>
      <trkpt lat="43.22248" lon="1.05053">
        <ele>259.806</ele>
        <time>2021-07-22T17:53:16Z</time>
      </trkpt>
      <trkpt lat="43.22454" lon="1.05406">
        <ele>259.3529</ele>
        <time>2021-07-22T17:53:27Z</time>
      </trkpt>
      <trkpt lat="43.22645" lon="1.05733">
        <ele>265.147</ele>
        <time>2021-07-22T17:53:38Z</time>
      </trkpt>
      <trkpt lat="43.22836" lon="1.06059">
        <ele>264.2554</ele>
        <time>2021-07-22T17:53:49Z</time>
      </trkpt>
      <trkpt lat="43.23023" lon="1.06377">
        <ele>263.1407</ele>
        <time>2021-07-22T17:54:00Z</time>
      </trkpt>
      <trkpt lat="43.23215" lon="1.06707">
        <ele>262.6494</ele>
        <time>2021-07-22T17:54:11Z</time>
      </trkpt>
      <trkpt lat="43.2341" lon="1.0704">
        <ele>260.1813</ele>
        <time>2021-07-22T17:54:22Z</time>
      </trkpt>
      <trkpt lat="43.23604" lon="1.07372">
        <ele>257.4205</ele>
        <time>2021-07-22T17:54:33Z</time>
      </trkpt>
      <trkpt lat="43.238" lon="1.07706">
        <ele>257.2678</ele>
        <time>2021-07-22T17:54:44Z</time>
      </trkpt>
      <trkpt lat="43.23998" lon="1.08047">
        <ele>255.042</ele>
        <time>2021-07-22T17:54:55Z</time>
      </trkpt>
      <trkpt lat="43.24195" lon="1.08387">
        <ele>254.0278</ele>
        <time>2021-07-22T17:55:06Z</time>
      </trkpt>
      <trkpt lat="43.24374" lon="1.08694">
        <ele>252.6873</ele>
        <time>2021-07-22T17:55:17Z</time>
      </trkpt>
      <trkpt lat="43.24586" lon="1.09056">
        <ele>253.4008</ele>
        <time>2021-07-22T17:55:28Z</time>
      </trkpt>
      <trkpt lat="43.24766" lon="1.09364">
        <ele>251.4797</ele>
        <time>2021-07-22T17:55:39Z</time>
      </trkpt>
      <trkpt lat="43.24962" lon="1.09701">
        <ele>250.987</ele>
        <time>2021-07-22T17:55:50Z</time>
      </trkpt>
      <trkpt lat="43.25157" lon="1.10032">
        <ele>250.9309</ele>
        <time>2021-07-22T17:56:01Z</time>
      </trkpt>
      <trkpt lat="43.25367" lon="1.10396">
        <ele>250.5116</ele>
        <time>2021-07-22T17:56:12Z</time>
      </trkpt>
      <trkpt lat="43.25563" lon="1.1073">
        <ele>248.8432</ele>
        <time>2021-07-22T17:56:23Z</time>
      </trkpt>
      <trkpt lat="43.2576" lon="1.11069">
        <ele>247.6415</ele>
        <time>2021-07-22T17:56:34Z</time>
      </trkpt>
      <trkpt lat="43.25956" lon="1.11406">
        <ele>247.2846</ele>
        <time>2021-07-22T17:56:45Z</time>
      </trkpt>
      <trkpt lat="43.26149" lon="1.11738">
        <ele>246.2118</ele>
        <time>2021-07-22T17:56:56Z</time>
      </trkpt>
      <trkpt lat="43.26347" lon="1.12069">
        <ele>244.2447</ele>
        <time>2021-07-22T17:57:07Z</time>
      </trkpt>
      <trkpt lat="43.26542" lon="1.12411">
        <ele>242.8491</ele>
        <time>2021-07-22T17:57:19Z</time>
      </trkpt>
      <trkpt lat="43.26736" lon="1.12744">
        <ele>241.227</ele>
        <time>2021-07-22T17:57:30Z</time>
      </trkpt>
      <trkpt lat="43.26948" lon="1.1311">
        <ele>242.4914</ele>
        <time>2021-07-22T17:57:41Z</time>
      </trkpt>
      <trkpt lat="43.27146" lon="1.13442">
        <ele>238.8381</ele>
        <time>2021-07-22T17:57:52Z</time>
      </trkpt>
      <trkpt lat="43.27345" lon="1.13786">
        <ele>233.3267</ele>
        <time>2021-07-22T17:58:03Z</time>
      </trkpt>
      <trkpt lat="43.27549" lon="1.14126">
        <ele>233.0826</ele>
        <time>2021-07-22T17:58:14Z</time>
      </trkpt>
      <trkpt lat="43.27749" lon="1.14481">
        <ele>229.9703</ele>
        <time>2021-07-22T17:58:25Z</time>
      </trkpt>
      <trkpt lat="43.27958" lon="1.14838">
        <ele>228.2798</ele>
        <time>2021-07-22T17:58:36Z</time>
      </trkpt>
      <trkpt lat="43.28167" lon="1.15196">
        <ele>226.3291</ele>
        <time>2021-07-22T17:58:47Z</time>
      </trkpt>
      <trkpt lat="43.28368" lon="1.1556">
        <ele>224.6869</ele>
        <time>2021-07-22T17:58:58Z</time>
      </trkpt>
      <trkpt lat="43.28573" lon="1.15914">
        <ele>224.5115</ele>
        <time>2021-07-22T17:59:09Z</time>
      </trkpt>
      <trkpt lat="43.28772" lon="1.1626">
        <ele>225.3118</ele>
        <time>2021-07-22T17:59:20Z</time>
      </trkpt>
      <trkpt lat="43.28956" lon="1.16577">
        <ele>224.444</ele>
        <time>2021-07-22T17:59:31Z</time>
      </trkpt>
      <trkpt lat="43.29155" lon="1.16917">
        <ele>223.8524</ele>
        <time>2021-07-22T17:59:42Z</time>
      </trkpt>
      <trkpt lat="43.29375" lon="1.17281">
        <ele>222.4358</ele>
        <time>2021-07-22T17:59:53Z</time>
      </trkpt>
      <trkpt lat="43.29582" lon="1.17624">
        <ele>220.579</ele>
        <time>2021-07-22T18:00:04Z</time>
      </trkpt>
      <trkpt lat="43.29783" lon="1.17968">
        <ele>219.061</ele>
        <time>2021-07-22T18:00:15Z</time>
      </trkpt>
      <trkpt lat="43.29988" lon="1.1832">
        <ele>218.7976</ele>
        <time>2021-07-22T18:00:26Z</time>
      </trkpt>
      <trkpt lat="43.30188" lon="1.1867">
        <ele>217.5892</ele>
        <time>2021-07-22T18:00:37Z</time>
      </trkpt>
      <trkpt lat="43.3039" lon="1.19015">
        <ele>216.1063</ele>
        <time>2021-07-22T18:00:48Z</time>
      </trkpt>
      <trkpt lat="43.30571" lon="1.19312">
        <ele>217.1781</ele>
        <time>2021-07-22T18:00:59Z</time>
      </trkpt>
      <trkpt lat="43.30796" lon="1.19713">
        <ele>214.6147</ele>
        <time>2021-07-22T18:01:10Z</time>
      </trkpt>
      <trkpt lat="43.31001" lon="1.20064">
        <ele>212.8151</ele>
        <time>2021-07-22T18:01:21Z</time>
      </trkpt>
      <trkpt lat="43.31188" lon="1.20387">
        <ele>211.3382</ele>
        <time>2021-07-22T18:01:32Z</time>
      </trkpt>
      <trkpt lat="43.31392" lon="1.20739">
        <ele>211.516</ele>
        <time>2021-07-22T18:01:43Z</time>
      </trkpt>
      <trkpt lat="43.31601" lon="1.21097">
        <ele>211.4889</ele>
        <time>2021-07-22T18:01:54Z</time>
      </trkpt>
      <trkpt lat="43.31808" lon="1.21453">
        <ele>211.37</ele>
        <time>2021-07-22T18:02:05Z</time>
      </trkpt>
      <trkpt lat="43.3203" lon="1.21836">
        <ele>209.6747</ele>
        <time>2021-07-22T18:02:16Z</time>
      </trkpt>
      <trkpt lat="43.3223" lon="1.22179">
        <ele>207.734</ele>
        <time>2021-07-22T18:02:27Z</time>
      </trkpt>
      <trkpt lat="43.32433" lon="1.22534">
        <ele>207.7657</ele>
        <time>2021-07-22T18:02:38Z</time>
      </trkpt>
      <trkpt lat="43.3264" lon="1.22892">
        <ele>205.4496</ele>
        <time>2021-07-22T18:02:49Z</time>
      </trkpt>
      <trkpt lat="43.32848" lon="1.23246">
        <ele>206.012</ele>
        <time>2021-07-22T18:03:00Z</time>
      </trkpt>
      <trkpt lat="43.33034" lon="1.23562">
        <ele>204.9097</ele>
        <time>2021-07-22T18:03:11Z</time>
      </trkpt>
      <trkpt lat="43.33206" lon="1.23857">
        <ele>210.8585</ele>
        <time>2021-07-22T18:03:22Z</time>
      </trkpt>
      <trkpt lat="43.3338" lon="1.24158">
        <ele>203.9188</ele>
        <time>2021-07-22T18:03:33Z</time>
      </trkpt>
      <trkpt lat="43.33546" lon="1.24464">
        <ele>201.1676</ele>
        <time>2021-07-22T18:03:44Z</time>
      </trkpt>
      <trkpt lat="43.33768" lon="1.24849">
        <ele>199.4</ele>
        <time>2021-07-22T18:03:55Z</time>
      </trkpt>
      <trkpt lat="43.33977" lon="1.2521">
        <ele>198.4705</ele>
        <time>2021-07-22T18:04:06Z</time>
      </trkpt>
      <trkpt lat="43.34198" lon="1.25584">
        <ele>198.6745</ele>
        <time>2021-07-22T18:04:17Z</time>
      </trkpt>
      <trkpt lat="43.34416" lon="1.25956">
        <ele>198.3481</ele>
        <time>2021-07-22T18:04:28Z</time>
      </trkpt>
      <trkpt lat="43.34635" lon="1.26316">
        <ele>196.3669</ele>
        <time>2021-07-22T18:04:39Z</time>
      </trkpt>
      <trkpt lat="43.34906" lon="1.26602">
        <ele>195.3618</ele>
        <time>2021-07-22T18:04:50Z</time>
      </trkpt>
      <trkpt lat="43.35212" lon="1.26782">
        <ele>195.1149</ele>
        <time>2021-07-22T18:05:01Z</time>
      </trkpt>
      <trkpt lat="43.35536" lon="1.26907">
        <ele>191.174</ele>
        <time>2021-07-22T18:05:12Z</time>
      </trkpt>
      <trkpt lat="43.35885" lon="1.27043">
        <ele>198.7281</ele>
        <time>2021-07-22T18:05:23Z</time>
      </trkpt>
      <trkpt lat="43.36223" lon="1.27175">
        <ele>197.934</ele>
        <time>2021-07-22T18:05:34Z</time>
      </trkpt>
      <trkpt lat="43.36562" lon="1.2732">
        <ele>194.4584</ele>
        <time>2021-07-22T18:05:45Z</time>
      </trkpt>
      <trkpt lat="43.36892" lon="1.27481">
        <ele>192.3509</ele>
        <time>2021-07-22T18:05:56Z</time>
      </trkpt>
      <trkpt lat="43.37216" lon="1.27653">
        <ele>191.4652</ele>
        <time>2021-07-22T18:06:07Z</time>
      </trkpt>
      <trkpt lat="43.37539" lon="1.27823">
        <ele>189.5885</ele>
        <time>2021-07-22T18:06:18Z</time>
      </trkpt>
      <trkpt lat="43.37863" lon="1.27979">
        <ele>188.4587</ele>
        <time>2021-07-22T18:06:29Z</time>
      </trkpt>
      <trkpt lat="43.38192" lon="1.28137">
        <ele>188.381</ele>
        <time>2021-07-22T18:06:40Z</time>
      </trkpt>
      <trkpt lat="43.38515" lon="1.28296">
        <ele>186.6467</ele>
        <time>2021-07-22T18:06:51Z</time>
      </trkpt>
      <trkpt lat="43.38841" lon="1.28453">
        <ele>185.9455</ele>
        <time>2021-07-22T18:07:02Z</time>
      </trkpt>
      <trkpt lat="43.39168" lon="1.28611">
        <ele>186.478</ele>
        <time>2021-07-22T18:07:13Z</time>
      </trkpt>
      <trkpt lat="43.39498" lon="1.28758">
        <ele>187.0449</ele>
        <time>2021-07-22T18:07:24Z</time>
      </trkpt>
      <trkpt lat="43.39826" lon="1.28905">
        <ele>185.5389</ele>
        <time>2021-07-22T18:07:35Z</time>
      </trkpt>
      <trkpt lat="43.40146" lon="1.29066">
        <ele>186.4717</ele>
        <time>2021-07-22T18:07:46Z</time>
      </trkpt>
      <trkpt lat="43.40472" lon="1.29221">
        <ele>184.6156</ele>
        <time>2021-07-22T18:07:57Z</time>
      </trkpt>
      <trkpt lat="43.40799" lon="1.29378">
        <ele>184.1644</ele>
        <time>2021-07-22T18:08:08Z</time>
      </trkpt>
      <trkpt lat="43.41118" lon="1.29549">
        <ele>183.4964</ele>
        <time>2021-07-22T18:08:19Z</time>
      </trkpt>
      <trkpt lat="43.41426" lon="1.29753">
        <ele>180.924</ele>
        <time>2021-07-22T18:08:30Z</time>
      </trkpt>
      <trkpt lat="43.41736" lon="1.29936">
        <ele>179.3463</ele>
        <time>2021-07-22T18:08:41Z</time>
      </trkpt>
      <trkpt lat="43.42049" lon="1.30123">
        <ele>179.8232</ele>
        <time>2021-07-22T18:08:52Z</time>
      </trkpt>
      <trkpt lat="43.42363" lon="1.30316">
        <ele>177.178</ele>
        <time>2021-07-22T18:09:03Z</time>
      </trkpt>
      <trkpt lat="43.42681" lon="1.30509">
        <ele>176.5803</ele>
        <time>2021-07-22T18:09:14Z</time>
      </trkpt>
      <trkpt lat="43.42995" lon="1.30702">
        <ele>174.6747</ele>
        <time>2021-07-22T18:09:25Z</time>
      </trkpt>
      <trkpt lat="43.433" lon="1.30886">
        <ele>174.9263</ele>
        <time>2021-07-22T18:09:36Z</time>
      </trkpt>
      <trkpt lat="43.43602" lon="1.30966">
        <ele>175.6851</ele>
        <time>2021-07-22T18:09:47Z</time>
      </trkpt>
      <trkpt lat="43.43914" lon="1.30909">
        <ele>176.1984</ele>
        <time>2021-07-22T18:09:58Z</time>
      </trkpt>
      <trkpt lat="43.44231" lon="1.30817">
        <ele>183.7684</ele>
        <time>2021-07-22T18:10:09Z</time>
      </trkpt>
      <trkpt lat="43.44566" lon="1.30723">
        <ele>181.4815</ele>
        <time>2021-07-22T18:10:20Z</time>
      </trkpt>
      <trkpt lat="43.44896" lon="1.30635">
        <ele>177.1057</ele>
        <time>2021-07-22T18:10:31Z</time>
      </trkpt>
      <trkpt lat="43.4523" lon="1.30552">
        <ele>177.3422</ele>
        <time>2021-07-22T18:10:42Z</time>
      </trkpt>
      <trkpt lat="43.45563" lon="1.30622">
        <ele>174.835</ele>
        <time>2021-07-22T18:10:53Z</time>
      </trkpt>
      <trkpt lat="43.4583" lon="1.30864">
        <ele>169.0777</ele>
        <time>2021-07-22T18:11:04Z</time>
      </trkpt>
      <trkpt lat="43.46104" lon="1.31123">
        <ele>169.3324</ele>
        <time>2021-07-22T18:11:15Z</time>
      </trkpt>
      <trkpt lat="43.46404" lon="1.31335">
        <ele>170.5686</ele>
        <time>2021-07-22T18:11:26Z</time>
      </trkpt>
      <trkpt lat="43.4671" lon="1.31511">
        <ele>168.8465</ele>
        <time>2021-07-22T18:11:37Z</time>
      </trkpt>
      <trkpt lat="43.47011" lon="1.31687">
        <ele>169.2346</ele>
        <time>2021-07-22T18:11:48Z</time>
      </trkpt>
      <trkpt lat="43.47319" lon="1.31869">
        <ele>169.8919</ele>
        <time>2021-07-22T18:11:59Z</time>
      </trkpt>
      <trkpt lat="43.47589" lon="1.32064">
        <ele>167.8656</ele>
        <time>2021-07-22T18:12:10Z</time>
      </trkpt>
      <trkpt lat="43.47852" lon="1.32341">
        <ele>166.9007</ele>
        <time>2021-07-22T18:12:21Z</time>
      </trkpt>
      <trkpt lat="43.4815" lon="1.32624">
        <ele>166.2237</ele>
        <time>2021-07-22T18:12:32Z</time>
      </trkpt>
      <trkpt lat="43.48457" lon="1.32811">
        <ele>163.8384</ele>
        <time>2021-07-22T18:12:43Z</time>
      </trkpt>
      <trkpt lat="43.48772" lon="1.32984">
        <ele>162.6953</ele>
        <time>2021-07-22T18:12:54Z</time>
      </trkpt>
      <trkpt lat="43.49081" lon="1.33166">
        <ele>163.4361</ele>
        <time>2021-07-22T18:13:05Z</time>
      </trkpt>
      <trkpt lat="43.49373" lon="1.33393">
        <ele>161.8994</ele>
        <time>2021-07-22T18:13:16Z</time>
      </trkpt>
      <trkpt lat="43.49634" lon="1.33659">
        <ele>161.0752</ele>
        <time>2021-07-22T18:13:27Z</time>
      </trkpt>
      <trkpt lat="43.49873" lon="1.33965">
        <ele>159.9966</ele>
        <time>2021-07-22T18:13:38Z</time>
      </trkpt>
      <trkpt lat="43.50084" lon="1.34322">
        <ele>160.8555</ele>
        <time>2021-07-22T18:13:49Z</time>
      </trkpt>
      <trkpt lat="43.50263" lon="1.34668">
        <ele>161.9199</ele>
        <time>2021-07-22T18:14:00Z</time>
      </trkpt>
      <trkpt lat="43.50409" lon="1.34963">
        <ele>160.5644</ele>
        <time>2021-07-22T18:14:11Z</time>
      </trkpt>
      <trkpt lat="43.50505" lon="1.35195">
        <ele>161.6888</ele>
        <time>2021-07-22T18:14:22Z</time>
      </trkpt>
      <trkpt lat="43.50524" lon="1.35234">
        <ele>165.2023</ele>
        <time>2021-07-22T18:14:33Z</time>
      </trkpt>
      <trkpt lat="43.5052" lon="1.35234">
        <ele>168.0228</ele>
        <time>2021-07-22T18:14:44Z</time>
      </trkpt>
      <trkpt lat="43.50574" lon="1.35332">
        <ele>159.0341</ele>
        <time>2021-07-22T18:14:55Z</time>
      </trkpt>
      <trkpt lat="43.50577" lon="1.35337">
        <ele>160.5011</ele>
        <time>2021-07-22T18:15:06Z</time>
      </trkpt>
      <trkpt lat="43.50576" lon="1.35336">
        <ele>157.4331</ele>
        <time>2021-07-22T18:16:05Z</time>
      </trkpt>
      <trkpt lat="43.50581" lon="1.35346">
        <ele>159.7707</ele>
        <time>2021-07-22T18:16:18Z</time>
      </trkpt>
      <trkpt lat="43.50736" lon="1.35585">
        <ele>158.0175</ele>
        <time>2021-07-22T18:16:29Z</time>
      </trkpt>
      <trkpt lat="43.50911" lon="1.35922">
        <ele>157.9839</ele>
        <time>2021-07-22T18:16:40Z</time>
      </trkpt>
      <trkpt lat="43.51098" lon="1.36286">
        <ele>159.1922</ele>
        <time>2021-07-22T18:16:51Z</time>
      </trkpt>
      <trkpt lat="43.51289" lon="1.36652">
        <ele>159.3023</ele>
        <time>2021-07-22T18:17:02Z</time>
      </trkpt>
      <trkpt lat="43.51487" lon="1.37002">
        <ele>157.4119</ele>
        <time>2021-07-22T18:17:13Z</time>
      </trkpt>
      <trkpt lat="43.51706" lon="1.37334">
        <ele>157.3065</ele>
        <time>2021-07-22T18:17:24Z</time>
      </trkpt>
      <trkpt lat="43.5195" lon="1.37635">
        <ele>154.6668</ele>
        <time>2021-07-22T18:17:35Z</time>
      </trkpt>
      <trkpt lat="43.52212" lon="1.37907">
        <ele>154.3979</ele>
        <time>2021-07-22T18:17:46Z</time>
      </trkpt>
      <trkpt lat="43.52485" lon="1.38151">
        <ele>152.8386</ele>
        <time>2021-07-22T18:17:57Z</time>
      </trkpt>
      <trkpt lat="43.52732" lon="1.38375">
        <ele>152.7234</ele>
        <time>2021-07-22T18:18:08Z</time>
      </trkpt>
      <trkpt lat="43.52965" lon="1.38603">
        <ele>153.6275</ele>
        <time>2021-07-22T18:18:19Z</time>
      </trkpt>
      <trkpt lat="43.53196" lon="1.38843">
        <ele>155.387</ele>
        <time>2021-07-22T18:18:30Z</time>
      </trkpt>
      <trkpt lat="43.53437" lon="1.39067">
        <ele>154.2588</ele>
        <time>2021-07-22T18:18:41Z</time>
      </trkpt>
      <trkpt lat="43.53497" lon="1.39316">
        <ele>158.7993</ele>
        <time>2021-07-22T18:18:52Z</time>
      </trkpt>
      <trkpt lat="43.5354" lon="1.39373">
        <ele>158.3086</ele>
        <time>2021-07-22T18:19:03Z</time>
      </trkpt>
      <trkpt lat="43.53496" lon="1.3947">
        <ele>158.8485</ele>
        <time>2021-07-22T18:19:14Z</time>
      </trkpt>
      <trkpt lat="43.53409" lon="1.39644">
        <ele>155.8014</ele>
        <time>2021-07-22T18:19:25Z</time>
      </trkpt>
      <trkpt lat="43.53331" lon="1.398">
        <ele>154.2612</ele>
        <time>2021-07-22T18:19:36Z</time>
      </trkpt>
      <trkpt lat="43.533" lon="1.39864">
        <ele>155.3227</ele>
        <time>2021-07-22T18:19:47Z</time>
      </trkpt>
      <trkpt lat="43.53382" lon="1.39719">
        <ele>160.7764</ele>
        <time>2021-07-22T18:19:58Z</time>
      </trkpt>
      <trkpt lat="43.53449" lon="1.39585">
        <ele>159.5656</ele>
        <time>2021-07-22T18:20:09Z</time>
      </trkpt>
      <trkpt lat="43.53493" lon="1.3949">
        <ele>161.471</ele>
        <time>2021-07-22T18:20:20Z</time>
      </trkpt>
      <trkpt lat="43.5358" lon="1.39306">
        <ele>161.9868</ele>
        <time>2021-07-22T18:20:31Z</time>
      </trkpt>
      <trkpt lat="43.53698" lon="1.39065">
        <ele>160.9178</ele>
        <time>2021-07-22T18:20:42Z</time>
      </trkpt>
      <trkpt lat="43.53787" lon="1.38878">
        <ele>154.5807</ele>
        <time>2021-07-22T18:20:53Z</time>
      </trkpt>
      <trkpt lat="43.53937" lon="1.38914">
        <ele>153.5979</ele>
        <time>2021-07-22T18:21:04Z</time>
      </trkpt>
      <trkpt lat="43.54103" lon="1.39032">
        <ele>155.9716</ele>
        <time>2021-07-22T18:21:15Z</time>
      </trkpt>
      <trkpt lat="43.54221" lon="1.38976">
        <ele>157.773</ele>
        <time>2021-07-22T18:21:26Z</time>
      </trkpt>
      <trkpt lat="43.54362" lon="1.389">
        <ele>162.3685</ele>
        <time>2021-07-22T18:21:37Z</time>
      </trkpt>
      <trkpt lat="43.54446" lon="1.38803">
        <ele>165.6257</ele>
        <time>2021-07-22T18:21:48Z</time>
      </trkpt>
      <trkpt lat="43.54531" lon="1.3872">
        <ele>166.6773</ele>
        <time>2021-07-22T18:21:59Z</time>
      </trkpt>
      <trkpt lat="43.54571" lon="1.38662">
        <ele>166.1774</ele>
        <time>2021-07-22T18:22:10Z</time>
      </trkpt>
      <trkpt lat="43.54449" lon="1.38414">
        <ele>166.4533</ele>
        <time>2021-07-22T18:22:21Z</time>
      </trkpt>
      <trkpt lat="43.54238" lon="1.38191">
        <ele>163.3458</ele>
        <time>2021-07-22T18:22:32Z</time>
      </trkpt>
      <trkpt lat="43.54129" lon="1.37943">
        <ele>157.8026</ele>
        <time>2021-07-22T18:22:43Z</time>
      </trkpt>
      <trkpt lat="43.54052" lon="1.3774">
        <ele>159.2689</ele>
        <time>2021-07-22T18:22:54Z</time>
      </trkpt>
      <trkpt lat="43.53995" lon="1.37545">
        <ele>165.2148</ele>
        <time>2021-07-22T18:23:05Z</time>
      </trkpt>
      <trkpt lat="43.53993" lon="1.37337">
        <ele>165.7165</ele>
        <time>2021-07-22T18:23:16Z</time>
      </trkpt>
      <trkpt lat="43.53876" lon="1.37077">
        <ele>166.9985</ele>
        <time>2021-07-22T18:23:27Z</time>
      </trkpt>
      <trkpt lat="43.53722" lon="1.36791">
        <ele>167.0174</ele>
        <time>2021-07-22T18:23:38Z</time>
      </trkpt>
      <trkpt lat="43.53642" lon="1.36562">
        <ele>165.6799</ele>
        <time>2021-07-22T18:23:49Z</time>
      </trkpt>
      <trkpt lat="43.53655" lon="1.36345">
        <ele>169.509</ele>
        <time>2021-07-22T18:24:00Z</time>
      </trkpt>
      <trkpt lat="43.53678" lon="1.36081">
        <ele>169.6857</ele>
        <time>2021-07-22T18:24:11Z</time>
      </trkpt>
      <trkpt lat="43.53752" lon="1.3583">
        <ele>169.4302</ele>
        <time>2021-07-22T18:24:22Z</time>
      </trkpt>
      <trkpt lat="43.5393" lon="1.35687">
        <ele>170.8054</ele>
        <time>2021-07-22T18:24:33Z</time>
      </trkpt>
      <trkpt lat="43.54106" lon="1.35552">
        <ele>170.0015</ele>
        <time>2021-07-22T18:24:44Z</time>
      </trkpt>
      <trkpt lat="43.54263" lon="1.35384">
        <ele>169.7423</ele>
        <time>2021-07-22T18:24:55Z</time>
      </trkpt>
      <trkpt lat="43.544" lon="1.35218">
        <ele>167.1431</ele>
        <time>2021-07-22T18:25:06Z</time>
      </trkpt>
      <trkpt lat="43.54502" lon="1.35102">
        <ele>167.1468</ele>
        <time>2021-07-22T18:25:17Z</time>
      </trkpt>
      <trkpt lat="43.5453" lon="1.35012">
        <ele>167.1818</ele>
        <time>2021-07-22T18:25:28Z</time>
      </trkpt>
      <trkpt lat="43.54503" lon="1.34819">
        <ele>170.7776</ele>
        <time>2021-07-22T18:25:39Z</time>
      </trkpt>
      <trkpt lat="43.54462" lon="1.34668">
        <ele>161.8741</ele>
        <time>2021-07-22T18:25:50Z</time>
      </trkpt>
      <trkpt lat="43.54449" lon="1.34593">
        <ele>165.2638</ele>
        <time>2021-07-22T18:26:01Z</time>
      </trkpt>
      <trkpt lat="43.54527" lon="1.34487">
        <ele>163.4529</ele>
        <time>2021-07-22T18:26:12Z</time>
      </trkpt>
      <trkpt lat="43.54596" lon="1.34354">
        <ele>164.4075</ele>
        <time>2021-07-22T18:26:23Z</time>
      </trkpt>
      <trkpt lat="43.54662" lon="1.34241">
        <ele>165.3388</ele>
        <time>2021-07-22T18:26:34Z</time>
      </trkpt>
      <trkpt lat="43.54722" lon="1.34145">
        <ele>166.9877</ele>
        <time>2021-07-22T18:26:45Z</time>
      </trkpt>
      <trkpt lat="43.54781" lon="1.3401">
        <ele>166.1431</ele>
        <time>2021-07-22T18:26:56Z</time>
      </trkpt>
      <trkpt lat="43.54841" lon="1.33856">
        <ele>170.444</ele>
        <time>2021-07-22T18:27:07Z</time>
      </trkpt>
      <trkpt lat="43.54864" lon="1.33747">
        <ele>169.8043</ele>
        <time>2021-07-22T18:27:18Z</time>
      </trkpt>
      <trkpt lat="43.54899" lon="1.33693">
        <ele>169.9627</ele>
        <time>2021-07-22T18:27:29Z</time>
      </trkpt>
      <trkpt lat="43.55042" lon="1.33628">
        <ele>175.6728</ele>
        <time>2021-07-22T18:27:40Z</time>
      </trkpt>
      <trkpt lat="43.55215" lon="1.33537">
        <ele>173.4207</ele>
        <time>2021-07-22T18:27:51Z</time>
      </trkpt>
      <trkpt lat="43.5524" lon="1.33528">
        <ele>171.8214</ele>
        <time>2021-07-22T18:28:02Z</time>
      </trkpt>
      <trkpt lat="43.55244" lon="1.33543">
        <ele>172.3654</ele>
        <time>2021-07-22T18:28:26Z</time>
      </trkpt>
      <trkpt lat="43.5528" lon="1.33624">
        <ele>171.2538</ele>
        <time>2021-07-22T18:28:37Z</time>
      </trkpt>
      <trkpt lat="43.55329" lon="1.33616">
        <ele>169.9606</ele>
        <time>2021-07-22T18:28:48Z</time>
      </trkpt>
      <trkpt lat="43.55324" lon="1.33594">
        <ele>171.7338</ele>
        <time>2021-07-22T18:28:59Z</time>
      </trkpt>
      <trkpt lat="43.55323" lon="1.33595">
        <ele>169.0979</ele>
        <time>2021-07-22T18:29:58Z</time>
      </trkpt>
    </trkseg>
  </trk>
  <trk>
    <name><![CDATA[Road trip fait P/E_17]]></name>
    <extensions>
      <line xmlns="http://www.topografix.com/GPX/gpx_style/0/2">
        <color>FFFF00</color>
        <width>4</width>
      </line>
    </extensions>
    <trkseg>
      <trkpt lat="37.01567" lon="-4.30646">
        <ele>860.7897</ele>
        <time>2021-07-16T17:45:11Z</time>
      </trkpt>
      <trkpt lat="37.01567" lon="-4.30646">
        <ele>860.7897</ele>
        <time>2021-07-16T17:45:11Z</time>
      </trkpt>
      <trkpt lat="37.01572" lon="-4.30655">
        <ele>857.5855</ele>
        <time>2021-07-17T06:26:12Z</time>
      </trkpt>
      <trkpt lat="37.01568" lon="-4.30643">
        <ele>864.8553</ele>
        <time>2021-07-17T06:39:01Z</time>
      </trkpt>
      <trkpt lat="37.01564" lon="-4.30645">
        <ele>860.0273</ele>
        <time>2021-07-17T06:39:22Z</time>
      </trkpt>
      <trkpt lat="37.01564" lon="-4.30642">
        <ele>859.9652</ele>
        <time>2021-07-17T06:40:22Z</time>
      </trkpt>
      <trkpt lat="37.01564" lon="-4.30642">
        <ele>859.5648</ele>
        <time>2021-07-17T06:41:22Z</time>
      </trkpt>
      <trkpt lat="37.01564" lon="-4.30642">
        <ele>859.5648</ele>
        <time>2021-07-17T06:42:22Z</time>
      </trkpt>
      <trkpt lat="37.01562" lon="-4.30645">
        <ele>862.2856</ele>
        <time>2021-07-17T06:43:22Z</time>
      </trkpt>
      <trkpt lat="37.01562" lon="-4.30645">
        <ele>862.2856</ele>
        <time>2021-07-17T06:44:22Z</time>
      </trkpt>
      <trkpt lat="37.01562" lon="-4.30645">
        <ele>862.2856</ele>
        <time>2021-07-17T06:45:21Z</time>
      </trkpt>
      <trkpt lat="37.01564" lon="-4.30646">
        <ele>860.5272</ele>
        <time>2021-07-17T06:46:21Z</time>
      </trkpt>
      <trkpt lat="37.01564" lon="-4.30644">
        <ele>860.5122</ele>
        <time>2021-07-17T06:47:20Z</time>
      </trkpt>
      <trkpt lat="37.01564" lon="-4.30644">
        <ele>860.5122</ele>
        <time>2021-07-17T06:48:20Z</time>
      </trkpt>
      <trkpt lat="37.01564" lon="-4.30644">
        <ele>860.5122</ele>
        <time>2021-07-17T06:49:19Z</time>
      </trkpt>
      <trkpt lat="37.01561" lon="-4.30647">
        <ele>859.9979</ele>
        <time>2021-07-17T06:50:04Z</time>
      </trkpt>
      <trkpt lat="37.01557" lon="-4.30649">
        <ele>860.5611</ele>
        <time>2021-07-17T06:50:15Z</time>
      </trkpt>
      <trkpt lat="37.01563" lon="-4.30646">
        <ele>860.2261</ele>
        <time>2021-07-17T06:50:26Z</time>
      </trkpt>
      <trkpt lat="37.01561" lon="-4.30642">
        <ele>860.4884</ele>
        <time>2021-07-17T06:50:37Z</time>
      </trkpt>
      <trkpt lat="37.01576" lon="-4.30626">
        <ele>858.3657</ele>
        <time>2021-07-17T06:50:48Z</time>
      </trkpt>
      <trkpt lat="37.01573" lon="-4.30595">
        <ele>859.9192</ele>
        <time>2021-07-17T06:50:59Z</time>
      </trkpt>
      <trkpt lat="37.0157" lon="-4.30592">
        <ele>860.5669</ele>
        <time>2021-07-17T06:51:14Z</time>
      </trkpt>
      <trkpt lat="37.01569" lon="-4.30583">
        <ele>858.9649</ele>
        <time>2021-07-17T06:51:50Z</time>
      </trkpt>
      <trkpt lat="37.01558" lon="-4.30478">
        <ele>858.4467</ele>
        <time>2021-07-17T06:52:01Z</time>
      </trkpt>
      <trkpt lat="37.01589" lon="-4.30355">
        <ele>848.7691</ele>
        <time>2021-07-17T06:52:12Z</time>
      </trkpt>
      <trkpt lat="37.01581" lon="-4.3024">
        <ele>842.355</ele>
        <time>2021-07-17T06:52:23Z</time>
      </trkpt>
      <trkpt lat="37.0158" lon="-4.30148">
        <ele>830.3699</ele>
        <time>2021-07-17T06:52:34Z</time>
      </trkpt>
      <trkpt lat="37.01531" lon="-4.30106">
        <ele>838.6282</ele>
        <time>2021-07-17T06:52:45Z</time>
      </trkpt>
      <trkpt lat="37.01443" lon="-4.30041">
        <ele>858.4105</ele>
        <time>2021-07-17T06:52:56Z</time>
      </trkpt>
      <trkpt lat="37.01417" lon="-4.299">
        <ele>865.9234</ele>
        <time>2021-07-17T06:53:07Z</time>
      </trkpt>
      <trkpt lat="37.014" lon="-4.29783">
        <ele>869.9269</ele>
        <time>2021-07-17T06:53:18Z</time>
      </trkpt>
      <trkpt lat="37.01364" lon="-4.29677">
        <ele>881.3253</ele>
        <time>2021-07-17T06:53:29Z</time>
      </trkpt>
      <trkpt lat="37.01344" lon="-4.2949">
        <ele>901.0918</ele>
        <time>2021-07-17T06:53:40Z</time>
      </trkpt>
      <trkpt lat="37.01377" lon="-4.29383">
        <ele>911.2599</ele>
        <time>2021-07-17T06:53:51Z</time>
      </trkpt>
      <trkpt lat="37.01455" lon="-4.29385">
        <ele>902.2466</ele>
        <time>2021-07-17T06:54:02Z</time>
      </trkpt>
      <trkpt lat="37.01529" lon="-4.29359">
        <ele>892.4397</ele>
        <time>2021-07-17T06:54:13Z</time>
      </trkpt>
      <trkpt lat="37.01609" lon="-4.29413">
        <ele>864.505</ele>
        <time>2021-07-17T06:54:24Z</time>
      </trkpt>
      <trkpt lat="37.0168" lon="-4.29375">
        <ele>870.4231</ele>
        <time>2021-07-17T06:54:35Z</time>
      </trkpt>
      <trkpt lat="37.01802" lon="-4.29309">
        <ele>854.7203</ele>
        <time>2021-07-17T06:54:46Z</time>
      </trkpt>
      <trkpt lat="37.01915" lon="-4.29242">
        <ele>864.8292</ele>
        <time>2021-07-17T06:54:57Z</time>
      </trkpt>
      <trkpt lat="37.01991" lon="-4.29193">
        <ele>868.0905</ele>
        <time>2021-07-17T06:55:08Z</time>
      </trkpt>
      <trkpt lat="37.02067" lon="-4.29152">
        <ele>871.1831</ele>
        <time>2021-07-17T06:55:19Z</time>
      </trkpt>
      <trkpt lat="37.02143" lon="-4.29059">
        <ele>864.6026</ele>
        <time>2021-07-17T06:55:30Z</time>
      </trkpt>
      <trkpt lat="37.02243" lon="-4.28957">
        <ele>871.5447</ele>
        <time>2021-07-17T06:55:41Z</time>
      </trkpt>
      <trkpt lat="37.02328" lon="-4.2884">
        <ele>877.3652</ele>
        <time>2021-07-17T06:55:52Z</time>
      </trkpt>
      <trkpt lat="37.02391" lon="-4.28711">
        <ele>879.2237</ele>
        <time>2021-07-17T06:56:03Z</time>
      </trkpt>
      <trkpt lat="37.02429" lon="-4.28641">
        <ele>884.7466</ele>
        <time>2021-07-17T06:56:14Z</time>
      </trkpt>
      <trkpt lat="37.02501" lon="-4.28531">
        <ele>877.99</ele>
        <time>2021-07-17T06:56:25Z</time>
      </trkpt>
      <trkpt lat="37.02613" lon="-4.28427">
        <ele>865.6049</ele>
        <time>2021-07-17T06:56:36Z</time>
      </trkpt>
      <trkpt lat="37.02749" lon="-4.28347">
        <ele>855.8252</ele>
        <time>2021-07-17T06:56:47Z</time>
      </trkpt>
      <trkpt lat="37.02826" lon="-4.28237">
        <ele>864.7764</ele>
        <time>2021-07-17T06:56:58Z</time>
      </trkpt>
      <trkpt lat="37.02901" lon="-4.28116">
        <ele>850.1567</ele>
        <time>2021-07-17T06:57:09Z</time>
      </trkpt>
      <trkpt lat="37.02978" lon="-4.2802">
        <ele>833.3121</ele>
        <time>2021-07-17T06:57:20Z</time>
      </trkpt>
      <trkpt lat="37.03043" lon="-4.27997">
        <ele>820.6731</ele>
        <time>2021-07-17T06:57:31Z</time>
      </trkpt>
      <trkpt lat="37.03141" lon="-4.27916">
        <ele>834.829</ele>
        <time>2021-07-17T06:57:42Z</time>
      </trkpt>
      <trkpt lat="37.03228" lon="-4.27856">
        <ele>827.1628</ele>
        <time>2021-07-17T06:57:53Z</time>
      </trkpt>
      <trkpt lat="37.033" lon="-4.2781">
        <ele>828.6937</ele>
        <time>2021-07-17T06:58:04Z</time>
      </trkpt>
      <trkpt lat="37.03398" lon="-4.27739">
        <ele>816.7005</ele>
        <time>2021-07-17T06:58:15Z</time>
      </trkpt>
      <trkpt lat="37.03516" lon="-4.27617">
        <ele>815.474</ele>
        <time>2021-07-17T06:58:26Z</time>
      </trkpt>
      <trkpt lat="37.03633" lon="-4.27572">
        <ele>814.3415</ele>
        <time>2021-07-17T06:58:37Z</time>
      </trkpt>
      <trkpt lat="37.0375" lon="-4.27553">
        <ele>809.0523</ele>
        <time>2021-07-17T06:58:48Z</time>
      </trkpt>
      <trkpt lat="37.038" lon="-4.27484">
        <ele>823.6751</ele>
        <time>2021-07-17T06:58:59Z</time>
      </trkpt>
      <trkpt lat="37.03939" lon="-4.27402">
        <ele>837.8185</ele>
        <time>2021-07-17T06:59:10Z</time>
      </trkpt>
      <trkpt lat="37.04037" lon="-4.27278">
        <ele>848.389</ele>
        <time>2021-07-17T06:59:21Z</time>
      </trkpt>
      <trkpt lat="37.04157" lon="-4.27306">
        <ele>849.522</ele>
        <time>2021-07-17T06:59:32Z</time>
      </trkpt>
      <trkpt lat="37.0421" lon="-4.27509">
        <ele>859.6172</ele>
        <time>2021-07-17T06:59:43Z</time>
      </trkpt>
      <trkpt lat="37.04257" lon="-4.27731">
        <ele>871.1637</ele>
        <time>2021-07-17T06:59:54Z</time>
      </trkpt>
      <trkpt lat="37.04344" lon="-4.27894">
        <ele>893.2668</ele>
        <time>2021-07-17T07:00:05Z</time>
      </trkpt>
      <trkpt lat="37.04396" lon="-4.28044">
        <ele>911.2246</ele>
        <time>2021-07-17T07:00:16Z</time>
      </trkpt>
      <trkpt lat="37.0453" lon="-4.27982">
        <ele>928.4439</ele>
        <time>2021-07-17T07:00:27Z</time>
      </trkpt>
      <trkpt lat="37.04656" lon="-4.28001">
        <ele>944.2959</ele>
        <time>2021-07-17T07:00:38Z</time>
      </trkpt>
      <trkpt lat="37.0477" lon="-4.28144">
        <ele>958.5301</ele>
        <time>2021-07-17T07:00:49Z</time>
      </trkpt>
      <trkpt lat="37.0491" lon="-4.28212">
        <ele>964.6938</ele>
        <time>2021-07-17T07:01:00Z</time>
      </trkpt>
      <trkpt lat="37.04969" lon="-4.28374">
        <ele>954.3729</ele>
        <time>2021-07-17T07:01:11Z</time>
      </trkpt>
      <trkpt lat="37.05086" lon="-4.28486">
        <ele>939.9357</ele>
        <time>2021-07-17T07:01:22Z</time>
      </trkpt>
      <trkpt lat="37.05139" lon="-4.28579">
        <ele>938.3384</ele>
        <time>2021-07-17T07:01:33Z</time>
      </trkpt>
      <trkpt lat="37.05223" lon="-4.28615">
        <ele>945.5593</ele>
        <time>2021-07-17T07:01:44Z</time>
      </trkpt>
      <trkpt lat="37.05228" lon="-4.28617">
        <ele>946.4216</ele>
        <time>2021-07-17T07:01:56Z</time>
      </trkpt>
      <trkpt lat="37.05293" lon="-4.28652">
        <ele>951.748</ele>
        <time>2021-07-17T07:02:07Z</time>
      </trkpt>
      <trkpt lat="37.05313" lon="-4.2867">
        <ele>949.3962</ele>
        <time>2021-07-17T07:02:18Z</time>
      </trkpt>
      <trkpt lat="37.05296" lon="-4.28658">
        <ele>950.2181</ele>
        <time>2021-07-17T07:02:29Z</time>
      </trkpt>
      <trkpt lat="37.05261" lon="-4.28621">
        <ele>948.3612</ele>
        <time>2021-07-17T07:02:40Z</time>
      </trkpt>
      <trkpt lat="37.05192" lon="-4.28603">
        <ele>940.1796</ele>
        <time>2021-07-17T07:02:51Z</time>
      </trkpt>
      <trkpt lat="37.05125" lon="-4.28569">
        <ele>938.0461</ele>
        <time>2021-07-17T07:03:02Z</time>
      </trkpt>
      <trkpt lat="37.05131" lon="-4.28619">
        <ele>931.4962</ele>
        <time>2021-07-17T07:03:13Z</time>
      </trkpt>
      <trkpt lat="37.05228" lon="-4.28691">
        <ele>917.7733</ele>
        <time>2021-07-17T07:03:24Z</time>
      </trkpt>
      <trkpt lat="37.05279" lon="-4.28801">
        <ele>908.9946</ele>
        <time>2021-07-17T07:03:35Z</time>
      </trkpt>
      <trkpt lat="37.0535" lon="-4.28913">
        <ele>899.5929</ele>
        <time>2021-07-17T07:03:46Z</time>
      </trkpt>
      <trkpt lat="37.05438" lon="-4.29013">
        <ele>882.2723</ele>
        <time>2021-07-17T07:03:57Z</time>
      </trkpt>
      <trkpt lat="37.05473" lon="-4.29103">
        <ele>867.9523</ele>
        <time>2021-07-17T07:04:08Z</time>
      </trkpt>
      <trkpt lat="37.0556" lon="-4.29213">
        <ele>862.4211</ele>
        <time>2021-07-17T07:04:19Z</time>
      </trkpt>
      <trkpt lat="37.05668" lon="-4.29324">
        <ele>851.5348</ele>
        <time>2021-07-17T07:04:30Z</time>
      </trkpt>
      <trkpt lat="37.05761" lon="-4.29424">
        <ele>840.4878</ele>
        <time>2021-07-17T07:04:41Z</time>
      </trkpt>
      <trkpt lat="37.05841" lon="-4.29506">
        <ele>833.986</ele>
        <time>2021-07-17T07:04:52Z</time>
      </trkpt>
      <trkpt lat="37.05892" lon="-4.29582">
        <ele>831.3254</ele>
        <time>2021-07-17T07:05:03Z</time>
      </trkpt>
      <trkpt lat="37.05894" lon="-4.29586">
        <ele>828.6002</ele>
        <time>2021-07-17T07:05:14Z</time>
      </trkpt>
      <trkpt lat="37.05899" lon="-4.29593">
        <ele>829.3028</ele>
        <time>2021-07-17T07:05:42Z</time>
      </trkpt>
      <trkpt lat="37.06046" lon="-4.29563">
        <ele>828.304</ele>
        <time>2021-07-17T07:05:53Z</time>
      </trkpt>
      <trkpt lat="37.06213" lon="-4.29501">
        <ele>825.6792</ele>
        <time>2021-07-17T07:06:04Z</time>
      </trkpt>
      <trkpt lat="37.06409" lon="-4.29393">
        <ele>825.4038</ele>
        <time>2021-07-17T07:06:15Z</time>
      </trkpt>
      <trkpt lat="37.0659" lon="-4.29289">
        <ele>823.4654</ele>
        <time>2021-07-17T07:06:26Z</time>
      </trkpt>
      <trkpt lat="37.0678" lon="-4.29095">
        <ele>814.3688</ele>
        <time>2021-07-17T07:06:37Z</time>
      </trkpt>
      <trkpt lat="37.06916" lon="-4.2892">
        <ele>816.073</ele>
        <time>2021-07-17T07:06:48Z</time>
      </trkpt>
      <trkpt lat="37.07084" lon="-4.28768">
        <ele>799.2627</ele>
        <time>2021-07-17T07:06:59Z</time>
      </trkpt>
      <trkpt lat="37.07215" lon="-4.28638">
        <ele>797.2957</ele>
        <time>2021-07-17T07:07:10Z</time>
      </trkpt>
      <trkpt lat="37.07302" lon="-4.28492">
        <ele>802.5589</ele>
        <time>2021-07-17T07:07:21Z</time>
      </trkpt>
      <trkpt lat="37.07338" lon="-4.28277">
        <ele>808.9332</ele>
        <time>2021-07-17T07:07:32Z</time>
      </trkpt>
      <trkpt lat="37.07328" lon="-4.28165">
        <ele>820.5624</ele>
        <time>2021-07-17T07:07:43Z</time>
      </trkpt>
      <trkpt lat="37.07384" lon="-4.28051">
        <ele>820.4198</ele>
        <time>2021-07-17T07:07:54Z</time>
      </trkpt>
      <trkpt lat="37.07506" lon="-4.27957">
        <ele>819.6884</ele>
        <time>2021-07-17T07:08:05Z</time>
      </trkpt>
      <trkpt lat="37.07646" lon="-4.27886">
        <ele>817.7512</ele>
        <time>2021-07-17T07:08:16Z</time>
      </trkpt>
      <trkpt lat="37.07768" lon="-4.27815">
        <ele>829.8649</ele>
        <time>2021-07-17T07:08:27Z</time>
      </trkpt>
      <trkpt lat="37.07919" lon="-4.27784">
        <ele>842.7433</ele>
        <time>2021-07-17T07:08:38Z</time>
      </trkpt>
      <trkpt lat="37.08059" lon="-4.27707">
        <ele>845.4595</ele>
        <time>2021-07-17T07:08:49Z</time>
      </trkpt>
      <trkpt lat="37.08205" lon="-4.27623">
        <ele>843.7771</ele>
        <time>2021-07-17T07:09:00Z</time>
      </trkpt>
      <trkpt lat="37.08386" lon="-4.27571">
        <ele>837.4406</ele>
        <time>2021-07-17T07:09:11Z</time>
      </trkpt>
      <trkpt lat="37.08592" lon="-4.27509">
        <ele>831.1965</ele>
        <time>2021-07-17T07:09:22Z</time>
      </trkpt>
      <trkpt lat="37.08774" lon="-4.27344">
        <ele>828.4311</ele>
        <time>2021-07-17T07:09:33Z</time>
      </trkpt>
      <trkpt lat="37.08957" lon="-4.27177">
        <ele>839.1059</ele>
        <time>2021-07-17T07:09:44Z</time>
      </trkpt>
      <trkpt lat="37.09013" lon="-4.27049">
        <ele>844.7147</ele>
        <time>2021-07-17T07:09:55Z</time>
      </trkpt>
      <trkpt lat="37.09146" lon="-4.26946">
        <ele>846.5971</ele>
        <time>2021-07-17T07:10:06Z</time>
      </trkpt>
      <trkpt lat="37.09212" lon="-4.26772">
        <ele>850.5147</ele>
        <time>2021-07-17T07:10:17Z</time>
      </trkpt>
      <trkpt lat="37.09348" lon="-4.26682">
        <ele>852.3077</ele>
        <time>2021-07-17T07:10:28Z</time>
      </trkpt>
      <trkpt lat="37.09447" lon="-4.26505">
        <ele>840.1052</ele>
        <time>2021-07-17T07:10:39Z</time>
      </trkpt>
      <trkpt lat="37.09546" lon="-4.26348">
        <ele>841.735</ele>
        <time>2021-07-17T07:10:50Z</time>
      </trkpt>
      <trkpt lat="37.09645" lon="-4.26276">
        <ele>833.697</ele>
        <time>2021-07-17T07:11:01Z</time>
      </trkpt>
      <trkpt lat="37.09706" lon="-4.26109">
        <ele>834.3998</ele>
        <time>2021-07-17T07:11:12Z</time>
      </trkpt>
      <trkpt lat="37.09742" lon="-4.26018">
        <ele>842.4494</ele>
        <time>2021-07-17T07:11:23Z</time>
      </trkpt>
      <trkpt lat="37.09797" lon="-4.25927">
        <ele>836.5433</ele>
        <time>2021-07-17T07:11:34Z</time>
      </trkpt>
      <trkpt lat="37.0983" lon="-4.25843">
        <ele>822.309</ele>
        <time>2021-07-17T07:11:45Z</time>
      </trkpt>
      <trkpt lat="37.09891" lon="-4.25732">
        <ele>817.7764</ele>
        <time>2021-07-17T07:11:56Z</time>
      </trkpt>
      <trkpt lat="37.0997" lon="-4.25637">
        <ele>820.7185</ele>
        <time>2021-07-17T07:12:07Z</time>
      </trkpt>
      <trkpt lat="37.10016" lon="-4.25656">
        <ele>823.9672</ele>
        <time>2021-07-17T07:12:18Z</time>
      </trkpt>
      <trkpt lat="37.10144" lon="-4.25686">
        <ele>837.3914</ele>
        <time>2021-07-17T07:12:29Z</time>
      </trkpt>
      <trkpt lat="37.10264" lon="-4.25774">
        <ele>842.8389</ele>
        <time>2021-07-17T07:12:40Z</time>
      </trkpt>
      <trkpt lat="37.10337" lon="-4.25972">
        <ele>853.2742</ele>
        <time>2021-07-17T07:12:51Z</time>
      </trkpt>
      <trkpt lat="37.10473" lon="-4.2606">
        <ele>859.8624</ele>
        <time>2021-07-17T07:13:02Z</time>
      </trkpt>
      <trkpt lat="37.10582" lon="-4.26159">
        <ele>852.4952</ele>
        <time>2021-07-17T07:13:13Z</time>
      </trkpt>
      <trkpt lat="37.10698" lon="-4.26172">
        <ele>834.54</ele>
        <time>2021-07-17T07:13:24Z</time>
      </trkpt>
      <trkpt lat="37.10809" lon="-4.26264">
        <ele>834.1423</ele>
        <time>2021-07-17T07:13:35Z</time>
      </trkpt>
      <trkpt lat="37.10883" lon="-4.26513">
        <ele>841.0979</ele>
        <time>2021-07-17T07:13:46Z</time>
      </trkpt>
      <trkpt lat="37.11004" lon="-4.2665">
        <ele>846.3804</ele>
        <time>2021-07-17T07:13:57Z</time>
      </trkpt>
      <trkpt lat="37.11049" lon="-4.26801">
        <ele>841.1616</ele>
        <time>2021-07-17T07:14:08Z</time>
      </trkpt>
      <trkpt lat="37.11024" lon="-4.26719">
        <ele>845.3733</ele>
        <time>2021-07-17T07:14:19Z</time>
      </trkpt>
      <trkpt lat="37.11008" lon="-4.26619">
        <ele>847.6371</ele>
        <time>2021-07-17T07:14:30Z</time>
      </trkpt>
      <trkpt lat="37.11102" lon="-4.26578">
        <ele>849.4775</ele>
        <time>2021-07-17T07:14:41Z</time>
      </trkpt>
      <trkpt lat="37.11141" lon="-4.26462">
        <ele>847.3122</ele>
        <time>2021-07-17T07:14:52Z</time>
      </trkpt>
      <trkpt lat="37.11141" lon="-4.26341">
        <ele>844.8468</ele>
        <time>2021-07-17T07:15:03Z</time>
      </trkpt>
      <trkpt lat="37.11155" lon="-4.26209">
        <ele>834.8211</ele>
        <time>2021-07-17T07:15:14Z</time>
      </trkpt>
      <trkpt lat="37.1122" lon="-4.26048">
        <ele>817.8435</ele>
        <time>2021-07-17T07:15:25Z</time>
      </trkpt>
      <trkpt lat="37.11247" lon="-4.25858">
        <ele>793.3466</ele>
        <time>2021-07-17T07:15:36Z</time>
      </trkpt>
      <trkpt lat="37.11197" lon="-4.2573">
        <ele>778.5763</ele>
        <time>2021-07-17T07:15:47Z</time>
      </trkpt>
      <trkpt lat="37.11283" lon="-4.2567">
        <ele>762.7471</ele>
        <time>2021-07-17T07:15:58Z</time>
      </trkpt>
      <trkpt lat="37.11408" lon="-4.25723">
        <ele>751.9433</ele>
        <time>2021-07-17T07:16:09Z</time>
      </trkpt>
      <trkpt lat="37.11551" lon="-4.2576">
        <ele>753.1413</ele>
        <time>2021-07-17T07:16:20Z</time>
      </trkpt>
      <trkpt lat="37.11621" lon="-4.25735">
        <ele>753.5158</ele>
        <time>2021-07-17T07:16:31Z</time>
      </trkpt>
      <trkpt lat="37.11639" lon="-4.25699">
        <ele>748.8534</ele>
        <time>2021-07-17T07:16:42Z</time>
      </trkpt>
      <trkpt lat="37.11694" lon="-4.25679">
        <ele>743.9228</ele>
        <time>2021-07-17T07:16:53Z</time>
      </trkpt>
      <trkpt lat="37.11772" lon="-4.25657">
        <ele>742.9947</ele>
        <time>2021-07-17T07:17:04Z</time>
      </trkpt>
      <trkpt lat="37.11836" lon="-4.257">
        <ele>742.4554</ele>
        <time>2021-07-17T07:17:15Z</time>
      </trkpt>
      <trkpt lat="37.11903" lon="-4.25751">
        <ele>733.4557</ele>
        <time>2021-07-17T07:17:26Z</time>
      </trkpt>
      <trkpt lat="37.11954" lon="-4.25788">
        <ele>731.7472</ele>
        <time>2021-07-17T07:17:37Z</time>
      </trkpt>
      <trkpt lat="37.11999" lon="-4.25748">
        <ele>736.2299</ele>
        <time>2021-07-17T07:17:48Z</time>
      </trkpt>
      <trkpt lat="37.12057" lon="-4.257">
        <ele>733.7737</ele>
        <time>2021-07-17T07:17:59Z</time>
      </trkpt>
      <trkpt lat="37.12135" lon="-4.2571">
        <ele>729.6133</ele>
        <time>2021-07-17T07:18:10Z</time>
      </trkpt>
      <trkpt lat="37.12234" lon="-4.25729">
        <ele>730.6548</ele>
        <time>2021-07-17T07:18:21Z</time>
      </trkpt>
      <trkpt lat="37.12286" lon="-4.25816">
        <ele>733.4389</ele>
        <time>2021-07-17T07:18:32Z</time>
      </trkpt>
      <trkpt lat="37.12328" lon="-4.25902">
        <ele>729.0128</ele>
        <time>2021-07-17T07:18:43Z</time>
      </trkpt>
      <trkpt lat="37.12362" lon="-4.25903">
        <ele>719.4947</ele>
        <time>2021-07-17T07:18:54Z</time>
      </trkpt>
      <trkpt lat="37.12374" lon="-4.25852">
        <ele>714.4678</ele>
        <time>2021-07-17T07:19:05Z</time>
      </trkpt>
      <trkpt lat="37.12423" lon="-4.25877">
        <ele>712.7707</ele>
        <time>2021-07-17T07:19:16Z</time>
      </trkpt>
      <trkpt lat="37.12469" lon="-4.2589">
        <ele>702.4386</ele>
        <time>2021-07-17T07:19:27Z</time>
      </trkpt>
      <trkpt lat="37.12536" lon="-4.25877">
        <ele>688.1673</ele>
        <time>2021-07-17T07:19:38Z</time>
      </trkpt>
      <trkpt lat="37.1257" lon="-4.25856">
        <ele>678.2275</ele>
        <time>2021-07-17T07:19:49Z</time>
      </trkpt>
      <trkpt lat="37.12605" lon="-4.25799">
        <ele>681.4912</ele>
        <time>2021-07-17T07:20:00Z</time>
      </trkpt>
      <trkpt lat="37.12692" lon="-4.25754">
        <ele>679.5936</ele>
        <time>2021-07-17T07:20:11Z</time>
      </trkpt>
      <trkpt lat="37.12796" lon="-4.25751">
        <ele>682.7562</ele>
        <time>2021-07-17T07:20:22Z</time>
      </trkpt>
      <trkpt lat="37.12851" lon="-4.25713">
        <ele>691.0331</ele>
        <time>2021-07-17T07:20:33Z</time>
      </trkpt>
      <trkpt lat="37.1284" lon="-4.25585">
        <ele>702.7078</ele>
        <time>2021-07-17T07:20:44Z</time>
      </trkpt>
      <trkpt lat="37.12836" lon="-4.25556">
        <ele>707.0122</ele>
        <time>2021-07-17T07:20:55Z</time>
      </trkpt>
      <trkpt lat="37.12901" lon="-4.25482">
        <ele>703.6752</ele>
        <time>2021-07-17T07:21:06Z</time>
      </trkpt>
      <trkpt lat="37.12968" lon="-4.25412">
        <ele>713.8233</ele>
        <time>2021-07-17T07:21:17Z</time>
      </trkpt>
      <trkpt lat="37.12997" lon="-4.25356">
        <ele>730.8058</ele>
        <time>2021-07-17T07:21:28Z</time>
      </trkpt>
      <trkpt lat="37.13059" lon="-4.25294">
        <ele>737.3469</ele>
        <time>2021-07-17T07:21:39Z</time>
      </trkpt>
      <trkpt lat="37.13169" lon="-4.25319">
        <ele>735.5254</ele>
        <time>2021-07-17T07:21:50Z</time>
      </trkpt>
      <trkpt lat="37.13271" lon="-4.25349">
        <ele>737.2335</ele>
        <time>2021-07-17T07:22:01Z</time>
      </trkpt>
      <trkpt lat="37.1335" lon="-4.25358">
        <ele>738.3006</ele>
        <time>2021-07-17T07:22:12Z</time>
      </trkpt>
      <trkpt lat="37.13436" lon="-4.2529">
        <ele>733.4299</ele>
        <time>2021-07-17T07:22:23Z</time>
      </trkpt>
      <trkpt lat="37.13535" lon="-4.25251">
        <ele>725.2526</ele>
        <time>2021-07-17T07:22:34Z</time>
      </trkpt>
      <trkpt lat="37.13624" lon="-4.25211">
        <ele>719.1222</ele>
        <time>2021-07-17T07:22:45Z</time>
      </trkpt>
      <trkpt lat="37.13691" lon="-4.25117">
        <ele>717.9013</ele>
        <time>2021-07-17T07:22:56Z</time>
      </trkpt>
      <trkpt lat="37.13764" lon="-4.25015">
        <ele>716.6358</ele>
        <time>2021-07-17T07:23:07Z</time>
      </trkpt>
      <trkpt lat="37.13855" lon="-4.24919">
        <ele>715.0242</ele>
        <time>2021-07-17T07:23:18Z</time>
      </trkpt>
      <trkpt lat="37.13954" lon="-4.24849">
        <ele>705.3222</ele>
        <time>2021-07-17T07:23:29Z</time>
      </trkpt>
      <trkpt lat="37.14043" lon="-4.24816">
        <ele>698.5826</ele>
        <time>2021-07-17T07:23:40Z</time>
      </trkpt>
      <trkpt lat="37.14112" lon="-4.24808">
        <ele>702.6319</ele>
        <time>2021-07-17T07:23:51Z</time>
      </trkpt>
      <trkpt lat="37.14259" lon="-4.24878">
        <ele>716.1492</ele>
        <time>2021-07-17T07:24:02Z</time>
      </trkpt>
      <trkpt lat="37.14402" lon="-4.24968">
        <ele>727.6339</ele>
        <time>2021-07-17T07:24:13Z</time>
      </trkpt>
      <trkpt lat="37.14529" lon="-4.25053">
        <ele>735.011</ele>
        <time>2021-07-17T07:24:24Z</time>
      </trkpt>
      <trkpt lat="37.14596" lon="-4.25166">
        <ele>727.8361</ele>
        <time>2021-07-17T07:24:35Z</time>
      </trkpt>
      <trkpt lat="37.14598" lon="-4.25121">
        <ele>724.7594</ele>
        <time>2021-07-17T07:24:46Z</time>
      </trkpt>
      <trkpt lat="37.14605" lon="-4.25009">
        <ele>722.7948</ele>
        <time>2021-07-17T07:24:57Z</time>
      </trkpt>
      <trkpt lat="37.14719" lon="-4.24968">
        <ele>717.8145</ele>
        <time>2021-07-17T07:25:08Z</time>
      </trkpt>
      <trkpt lat="37.14753" lon="-4.24722">
        <ele>710.1502</ele>
        <time>2021-07-17T07:25:19Z</time>
      </trkpt>
      <trkpt lat="37.14817" lon="-4.24487">
        <ele>711.2333</ele>
        <time>2021-07-17T07:25:30Z</time>
      </trkpt>
      <trkpt lat="37.14927" lon="-4.24243">
        <ele>709.5408</ele>
        <time>2021-07-17T07:25:41Z</time>
      </trkpt>
      <trkpt lat="37.15025" lon="-4.24043">
        <ele>710.7232</ele>
        <time>2021-07-17T07:25:52Z</time>
      </trkpt>
      <trkpt lat="37.15065" lon="-4.23906">
        <ele>705.4025</ele>
        <time>2021-07-17T07:26:03Z</time>
      </trkpt>
      <trkpt lat="37.15045" lon="-4.23705">
        <ele>691.3198</ele>
        <time>2021-07-17T07:26:14Z</time>
      </trkpt>
      <trkpt lat="37.15025" lon="-4.23508">
        <ele>678.5975</ele>
        <time>2021-07-17T07:26:25Z</time>
      </trkpt>
      <trkpt lat="37.15149" lon="-4.23359">
        <ele>665.31</ele>
        <time>2021-07-17T07:26:36Z</time>
      </trkpt>
      <trkpt lat="37.15262" lon="-4.23243">
        <ele>655.1466</ele>
        <time>2021-07-17T07:26:47Z</time>
      </trkpt>
      <trkpt lat="37.1527" lon="-4.23225">
        <ele>653.6189</ele>
        <time>2021-07-17T07:26:58Z</time>
      </trkpt>
      <trkpt lat="37.1528" lon="-4.23231">
        <ele>653.6177</ele>
        <time>2021-07-17T07:27:20Z</time>
      </trkpt>
      <trkpt lat="37.1527" lon="-4.23224">
        <ele>653.6177</ele>
        <time>2021-07-17T07:27:31Z</time>
      </trkpt>
      <trkpt lat="37.1528" lon="-4.23231">
        <ele>653.6177</ele>
        <time>2021-07-17T07:27:42Z</time>
      </trkpt>
      <trkpt lat="37.1527" lon="-4.23224">
        <ele>653.6177</ele>
        <time>2021-07-17T07:27:53Z</time>
      </trkpt>
      <trkpt lat="37.1528" lon="-4.23232">
        <ele>653.6004</ele>
        <time>2021-07-17T07:28:22Z</time>
      </trkpt>
      <trkpt lat="37.1527" lon="-4.23224">
        <ele>653.6651</ele>
        <time>2021-07-17T07:28:33Z</time>
      </trkpt>
      <trkpt lat="37.15228" lon="-4.2314">
        <ele>645.789</ele>
        <time>2021-07-17T07:28:44Z</time>
      </trkpt>
      <trkpt lat="37.1509" lon="-4.23028">
        <ele>636.6715</ele>
        <time>2021-07-17T07:28:55Z</time>
      </trkpt>
      <trkpt lat="37.14954" lon="-4.2294">
        <ele>626.482</ele>
        <time>2021-07-17T07:29:06Z</time>
      </trkpt>
      <trkpt lat="37.15019" lon="-4.22826">
        <ele>616.5367</ele>
        <time>2021-07-17T07:29:17Z</time>
      </trkpt>
      <trkpt lat="37.15142" lon="-4.22737">
        <ele>607.2332</ele>
        <time>2021-07-17T07:29:28Z</time>
      </trkpt>
      <trkpt lat="37.15199" lon="-4.22717">
        <ele>604.706</ele>
        <time>2021-07-17T07:29:39Z</time>
      </trkpt>
      <trkpt lat="37.15197" lon="-4.22526">
        <ele>599.1657</ele>
        <time>2021-07-17T07:29:50Z</time>
      </trkpt>
      <trkpt lat="37.15283" lon="-4.22257">
        <ele>590.823</ele>
        <time>2021-07-17T07:30:01Z</time>
      </trkpt>
      <trkpt lat="37.15367" lon="-4.22004">
        <ele>578.7478</ele>
        <time>2021-07-17T07:30:12Z</time>
      </trkpt>
      <trkpt lat="37.15465" lon="-4.21767">
        <ele>561.8809</ele>
        <time>2021-07-17T07:30:23Z</time>
      </trkpt>
      <trkpt lat="37.15418" lon="-4.21561">
        <ele>545.2972</ele>
        <time>2021-07-17T07:30:34Z</time>
      </trkpt>
      <trkpt lat="37.1538" lon="-4.21328">
        <ele>531.1554</ele>
        <time>2021-07-17T07:30:45Z</time>
      </trkpt>
      <trkpt lat="37.15396" lon="-4.21103">
        <ele>517.0108</ele>
        <time>2021-07-17T07:30:56Z</time>
      </trkpt>
      <trkpt lat="37.15518" lon="-4.21046">
        <ele>504.7402</ele>
        <time>2021-07-17T07:31:07Z</time>
      </trkpt>
      <trkpt lat="37.15525" lon="-4.20855">
        <ele>496.5945</ele>
        <time>2021-07-17T07:31:18Z</time>
      </trkpt>
      <trkpt lat="37.15556" lon="-4.20736">
        <ele>489.8399</ele>
        <time>2021-07-17T07:31:29Z</time>
      </trkpt>
      <trkpt lat="37.15588" lon="-4.20683">
        <ele>489.4919</ele>
        <time>2021-07-17T07:31:40Z</time>
      </trkpt>
      <trkpt lat="37.15632" lon="-4.20646">
        <ele>491.2436</ele>
        <time>2021-07-17T07:31:51Z</time>
      </trkpt>
      <trkpt lat="37.1559" lon="-4.20675">
        <ele>494.7288</ele>
        <time>2021-07-17T07:32:02Z</time>
      </trkpt>
      <trkpt lat="37.15582" lon="-4.20726">
        <ele>494.7489</ele>
        <time>2021-07-17T07:32:13Z</time>
      </trkpt>
      <trkpt lat="37.15564" lon="-4.20745">
        <ele>498.3338</ele>
        <time>2021-07-17T07:32:24Z</time>
      </trkpt>
      <trkpt lat="37.1558" lon="-4.20706">
        <ele>490.5948</ele>
        <time>2021-07-17T07:32:35Z</time>
      </trkpt>
      <trkpt lat="37.15625" lon="-4.20647">
        <ele>493.1479</ele>
        <time>2021-07-17T07:32:46Z</time>
      </trkpt>
      <trkpt lat="37.15763" lon="-4.20653">
        <ele>502.034</ele>
        <time>2021-07-17T07:32:57Z</time>
      </trkpt>
      <trkpt lat="37.15848" lon="-4.20626">
        <ele>506.438</ele>
        <time>2021-07-17T07:33:08Z</time>
      </trkpt>
      <trkpt lat="37.15762" lon="-4.2056">
        <ele>513.3625</ele>
        <time>2021-07-17T07:33:19Z</time>
      </trkpt>
      <trkpt lat="37.15771" lon="-4.20351">
        <ele>528.7319</ele>
        <time>2021-07-17T07:33:30Z</time>
      </trkpt>
      <trkpt lat="37.15843" lon="-4.2009">
        <ele>539.2162</ele>
        <time>2021-07-17T07:33:41Z</time>
      </trkpt>
      <trkpt lat="37.15932" lon="-4.19853">
        <ele>557.4398</ele>
        <time>2021-07-17T07:33:52Z</time>
      </trkpt>
      <trkpt lat="37.16027" lon="-4.19654">
        <ele>544.0118</ele>
        <time>2021-07-17T07:34:03Z</time>
      </trkpt>
      <trkpt lat="37.16178" lon="-4.19525">
        <ele>538.076</ele>
        <time>2021-07-17T07:34:14Z</time>
      </trkpt>
      <trkpt lat="37.16383" lon="-4.19447">
        <ele>527.9427</ele>
        <time>2021-07-17T07:34:25Z</time>
      </trkpt>
      <trkpt lat="37.16569" lon="-4.19344">
        <ele>525.6042</ele>
        <time>2021-07-17T07:34:36Z</time>
      </trkpt>
      <trkpt lat="37.16601" lon="-4.19315">
        <ele>524.3124</ele>
        <time>2021-07-17T07:34:47Z</time>
      </trkpt>
      <trkpt lat="37.16789" lon="-4.19271">
        <ele>515.5859</ele>
        <time>2021-07-17T07:34:58Z</time>
      </trkpt>
      <trkpt lat="37.1695" lon="-4.19397">
        <ele>510.9516</ele>
        <time>2021-07-17T07:35:09Z</time>
      </trkpt>
      <trkpt lat="37.17116" lon="-4.19568">
        <ele>501.1667</ele>
        <time>2021-07-17T07:35:20Z</time>
      </trkpt>
      <trkpt lat="37.17309" lon="-4.1969">
        <ele>490.6334</ele>
        <time>2021-07-17T07:35:31Z</time>
      </trkpt>
      <trkpt lat="37.17449" lon="-4.19761">
        <ele>486.0836</ele>
        <time>2021-07-17T07:35:42Z</time>
      </trkpt>
      <trkpt lat="37.17572" lon="-4.19739">
        <ele>479.0189</ele>
        <time>2021-07-17T07:35:53Z</time>
      </trkpt>
      <trkpt lat="37.17584" lon="-4.19656">
        <ele>479.5937</ele>
        <time>2021-07-17T07:36:04Z</time>
      </trkpt>
      <trkpt lat="37.17541" lon="-4.19431">
        <ele>489.7136</ele>
        <time>2021-07-17T07:36:15Z</time>
      </trkpt>
      <trkpt lat="37.17627" lon="-4.19194">
        <ele>493.711</ele>
        <time>2021-07-17T07:36:26Z</time>
      </trkpt>
      <trkpt lat="37.17648" lon="-4.18912">
        <ele>492.8417</ele>
        <time>2021-07-17T07:36:37Z</time>
      </trkpt>
      <trkpt lat="37.17667" lon="-4.18626">
        <ele>490.2053</ele>
        <time>2021-07-17T07:36:48Z</time>
      </trkpt>
      <trkpt lat="37.17685" lon="-4.1831">
        <ele>482.5004</ele>
        <time>2021-07-17T07:36:59Z</time>
      </trkpt>
      <trkpt lat="37.1773" lon="-4.18095">
        <ele>484.5092</ele>
        <time>2021-07-17T07:37:10Z</time>
      </trkpt>
      <trkpt lat="37.17798" lon="-4.17878">
        <ele>493.8288</ele>
        <time>2021-07-17T07:37:21Z</time>
      </trkpt>
      <trkpt lat="37.1774" lon="-4.17635">
        <ele>479.3582</ele>
        <time>2021-07-17T07:37:32Z</time>
      </trkpt>
      <trkpt lat="37.17756" lon="-4.17378">
        <ele>487.1447</ele>
        <time>2021-07-17T07:37:43Z</time>
      </trkpt>
      <trkpt lat="37.17732" lon="-4.17174">
        <ele>486.878</ele>
        <time>2021-07-17T07:37:54Z</time>
      </trkpt>
      <trkpt lat="37.17616" lon="-4.16999">
        <ele>496.6864</ele>
        <time>2021-07-17T07:38:05Z</time>
      </trkpt>
      <trkpt lat="37.1746" lon="-4.16873">
        <ele>501.557</ele>
        <time>2021-07-17T07:38:16Z</time>
      </trkpt>
      <trkpt lat="37.17289" lon="-4.16938">
        <ele>495.4592</ele>
        <time>2021-07-17T07:38:27Z</time>
      </trkpt>
      <trkpt lat="37.17147" lon="-4.17089">
        <ele>494.1071</ele>
        <time>2021-07-17T07:38:38Z</time>
      </trkpt>
      <trkpt lat="37.17083" lon="-4.17002">
        <ele>492.0312</ele>
        <time>2021-07-17T07:38:49Z</time>
      </trkpt>
      <trkpt lat="37.1696" lon="-4.16914">
        <ele>494.298</ele>
        <time>2021-07-17T07:39:00Z</time>
      </trkpt>
      <trkpt lat="37.16882" lon="-4.16836">
        <ele>490.7817</ele>
        <time>2021-07-17T07:39:11Z</time>
      </trkpt>
      <trkpt lat="37.16928" lon="-4.16656">
        <ele>493.6881</ele>
        <time>2021-07-17T07:39:22Z</time>
      </trkpt>
      <trkpt lat="37.16959" lon="-4.16504">
        <ele>499.7016</ele>
        <time>2021-07-17T07:39:33Z</time>
      </trkpt>
      <trkpt lat="37.16894" lon="-4.16437">
        <ele>504.1852</ele>
        <time>2021-07-17T07:39:44Z</time>
      </trkpt>
      <trkpt lat="37.16845" lon="-4.16322">
        <ele>507.1864</ele>
        <time>2021-07-17T07:39:55Z</time>
      </trkpt>
      <trkpt lat="37.168" lon="-4.16232">
        <ele>509.6089</ele>
        <time>2021-07-17T07:40:06Z</time>
      </trkpt>
      <trkpt lat="37.1683" lon="-4.16278">
        <ele>510.4404</ele>
        <time>2021-07-17T07:40:17Z</time>
      </trkpt>
      <trkpt lat="37.16834" lon="-4.16285">
        <ele>510.9017</ele>
        <time>2021-07-17T07:40:28Z</time>
      </trkpt>
      <trkpt lat="37.1683" lon="-4.16288">
        <ele>512.2541</ele>
        <time>2021-07-17T07:41:01Z</time>
      </trkpt>
      <trkpt lat="37.16834" lon="-4.16287">
        <ele>514.3584</ele>
        <time>2021-07-17T07:41:26Z</time>
      </trkpt>
      <trkpt lat="37.16833" lon="-4.16282">
        <ele>516.2841</ele>
        <time>2021-07-17T07:41:40Z</time>
      </trkpt>
      <trkpt lat="37.16826" lon="-4.16266">
        <ele>514.1835</ele>
        <time>2021-07-17T07:41:51Z</time>
      </trkpt>
      <trkpt lat="37.16823" lon="-4.16269">
        <ele>506.632</ele>
        <time>2021-07-17T07:42:30Z</time>
      </trkpt>
      <trkpt lat="37.16827" lon="-4.1627">
        <ele>506.729</ele>
        <time>2021-07-17T07:42:48Z</time>
      </trkpt>
      <trkpt lat="37.16827" lon="-4.16276">
        <ele>505.1071</ele>
        <time>2021-07-17T07:43:03Z</time>
      </trkpt>
      <trkpt lat="37.16828" lon="-4.16271">
        <ele>506.4262</ele>
        <time>2021-07-17T07:43:33Z</time>
      </trkpt>
      <trkpt lat="37.16832" lon="-4.1627">
        <ele>507.6797</ele>
        <time>2021-07-17T07:43:50Z</time>
      </trkpt>
      <trkpt lat="37.16833" lon="-4.16266">
        <ele>508.8974</ele>
        <time>2021-07-17T07:44:05Z</time>
      </trkpt>
      <trkpt lat="37.16835" lon="-4.16266">
        <ele>509.1419</ele>
        <time>2021-07-17T07:45:03Z</time>
      </trkpt>
      <trkpt lat="37.16833" lon="-4.16267">
        <ele>506.7566</ele>
        <time>2021-07-17T07:46:02Z</time>
      </trkpt>
      <trkpt lat="37.16829" lon="-4.16265">
        <ele>505.9631</ele>
        <time>2021-07-17T07:46:23Z</time>
      </trkpt>
      <trkpt lat="37.16832" lon="-4.16262">
        <ele>506.2329</ele>
        <time>2021-07-17T07:46:35Z</time>
      </trkpt>
      <trkpt lat="37.16833" lon="-4.16266">
        <ele>507.9754</ele>
        <time>2021-07-17T07:47:00Z</time>
      </trkpt>
      <trkpt lat="37.16835" lon="-4.16262">
        <ele>507.3133</ele>
        <time>2021-07-17T07:47:48Z</time>
      </trkpt>
      <trkpt lat="37.16836" lon="-4.16258">
        <ele>504.6825</ele>
        <time>2021-07-17T07:48:47Z</time>
      </trkpt>
      <trkpt lat="37.16834" lon="-4.16262">
        <ele>507.0298</ele>
        <time>2021-07-17T07:49:29Z</time>
      </trkpt>
      <trkpt lat="37.16831" lon="-4.16265">
        <ele>505.8679</ele>
        <time>2021-07-17T07:50:19Z</time>
      </trkpt>
      <trkpt lat="37.16829" lon="-4.16265">
        <ele>505.6587</ele>
        <time>2021-07-17T07:51:18Z</time>
      </trkpt>
      <trkpt lat="37.16828" lon="-4.16265">
        <ele>506.0857</ele>
        <time>2021-07-17T07:52:17Z</time>
      </trkpt>
      <trkpt lat="37.16828" lon="-4.16265">
        <ele>506.0857</ele>
        <time>2021-07-17T07:53:16Z</time>
      </trkpt>
      <trkpt lat="37.16833" lon="-4.16262">
        <ele>505.4212</ele>
        <time>2021-07-17T07:53:51Z</time>
      </trkpt>
      <trkpt lat="37.16826" lon="-4.16272">
        <ele>504.4396</ele>
        <time>2021-07-17T07:54:35Z</time>
      </trkpt>
      <trkpt lat="37.1683" lon="-4.1627">
        <ele>504.1183</ele>
        <time>2021-07-17T07:54:46Z</time>
      </trkpt>
      <trkpt lat="37.16834" lon="-4.16265">
        <ele>507.434</ele>
        <time>2021-07-17T07:55:00Z</time>
      </trkpt>
      <trkpt lat="37.1683" lon="-4.16265">
        <ele>505.6854</ele>
        <time>2021-07-17T07:55:29Z</time>
      </trkpt>
      <trkpt lat="37.16826" lon="-4.16266">
        <ele>505.9082</ele>
        <time>2021-07-17T07:55:46Z</time>
      </trkpt>
      <trkpt lat="37.1682" lon="-4.16266">
        <ele>507.1371</ele>
        <time>2021-07-17T07:55:57Z</time>
      </trkpt>
      <trkpt lat="37.1682" lon="-4.16274">
        <ele>508.4084</ele>
        <time>2021-07-17T07:56:08Z</time>
      </trkpt>
      <trkpt lat="37.16822" lon="-4.16271">
        <ele>509.4441</ele>
        <time>2021-07-17T07:57:07Z</time>
      </trkpt>
      <trkpt lat="37.1683" lon="-4.16262">
        <ele>507.5046</ele>
        <time>2021-07-17T07:58:05Z</time>
      </trkpt>
      <trkpt lat="37.1683" lon="-4.16266">
        <ele>505.7267</ele>
        <time>2021-07-17T07:58:21Z</time>
      </trkpt>
      <trkpt lat="37.1683" lon="-4.16266">
        <ele>505.1082</ele>
        <time>2021-07-17T07:59:21Z</time>
      </trkpt>
      <trkpt lat="37.16832" lon="-4.16258">
        <ele>506.9298</ele>
        <time>2021-07-17T07:59:32Z</time>
      </trkpt>
      <trkpt lat="37.16831" lon="-4.16258">
        <ele>506.9016</ele>
        <time>2021-07-17T08:00:31Z</time>
      </trkpt>
      <trkpt lat="37.16831" lon="-4.16258">
        <ele>506.9016</ele>
        <time>2021-07-17T08:01:31Z</time>
      </trkpt>
      <trkpt lat="37.16831" lon="-4.16258">
        <ele>506.9016</ele>
        <time>2021-07-17T08:02:30Z</time>
      </trkpt>
      <trkpt lat="37.16831" lon="-4.16258">
        <ele>506.9016</ele>
        <time>2021-07-17T08:03:30Z</time>
      </trkpt>
      <trkpt lat="37.16831" lon="-4.16258">
        <ele>506.9016</ele>
        <time>2021-07-17T08:04:29Z</time>
      </trkpt>
      <trkpt lat="37.16831" lon="-4.16258">
        <ele>506.9016</ele>
        <time>2021-07-17T08:05:29Z</time>
      </trkpt>
      <trkpt lat="37.16831" lon="-4.16258">
        <ele>506.9016</ele>
        <time>2021-07-17T08:06:27Z</time>
      </trkpt>
      <trkpt lat="37.16826" lon="-4.16266">
        <ele>505.7779</ele>
        <time>2021-07-17T08:06:38Z</time>
      </trkpt>
      <trkpt lat="37.16828" lon="-4.1627">
        <ele>505.6899</ele>
        <time>2021-07-17T08:07:18Z</time>
      </trkpt>
      <trkpt lat="37.16831" lon="-4.16267">
        <ele>507.6201</ele>
        <time>2021-07-17T08:07:33Z</time>
      </trkpt>
      <trkpt lat="37.16834" lon="-4.16265">
        <ele>503.9717</ele>
        <time>2021-07-17T08:08:32Z</time>
      </trkpt>
      <trkpt lat="37.16834" lon="-4.16265">
        <ele>503.9717</ele>
        <time>2021-07-17T08:09:31Z</time>
      </trkpt>
      <trkpt lat="37.1683" lon="-4.16265">
        <ele>506.0132</ele>
        <time>2021-07-17T08:10:23Z</time>
      </trkpt>
      <trkpt lat="37.16824" lon="-4.16269">
        <ele>504.1672</ele>
        <time>2021-07-17T08:10:34Z</time>
      </trkpt>
      <trkpt lat="37.16828" lon="-4.1629">
        <ele>505.4483</ele>
        <time>2021-07-17T08:10:45Z</time>
      </trkpt>
      <trkpt lat="37.16822" lon="-4.16294">
        <ele>507.1198</ele>
        <time>2021-07-17T08:10:56Z</time>
      </trkpt>
      <trkpt lat="37.16817" lon="-4.16295">
        <ele>506.275</ele>
        <time>2021-07-17T08:11:12Z</time>
      </trkpt>
      <trkpt lat="37.16814" lon="-4.16294">
        <ele>508.7733</ele>
        <time>2021-07-17T08:11:25Z</time>
      </trkpt>
      <trkpt lat="37.16818" lon="-4.16296">
        <ele>506.6115</ele>
        <time>2021-07-17T08:11:36Z</time>
      </trkpt>
      <trkpt lat="37.16817" lon="-4.16289">
        <ele>511.0104</ele>
        <time>2021-07-17T08:11:47Z</time>
      </trkpt>
      <trkpt lat="37.16814" lon="-4.16285">
        <ele>510.0949</ele>
        <time>2021-07-17T08:12:10Z</time>
      </trkpt>
      <trkpt lat="37.16807" lon="-4.16289">
        <ele>511.9267</ele>
        <time>2021-07-17T08:12:32Z</time>
      </trkpt>
      <trkpt lat="37.16804" lon="-4.16293">
        <ele>516.1548</ele>
        <time>2021-07-17T08:13:11Z</time>
      </trkpt>
      <trkpt lat="37.16808" lon="-4.16297">
        <ele>516.0968</ele>
        <time>2021-07-17T08:13:22Z</time>
      </trkpt>
      <trkpt lat="37.16805" lon="-4.16296">
        <ele>515.61</ele>
        <time>2021-07-17T08:13:34Z</time>
      </trkpt>
      <trkpt lat="37.16807" lon="-4.163">
        <ele>516.361</ele>
        <time>2021-07-17T08:13:45Z</time>
      </trkpt>
      <trkpt lat="37.16805" lon="-4.16292">
        <ele>510.9688</ele>
        <time>2021-07-17T08:14:13Z</time>
      </trkpt>
      <trkpt lat="37.16772" lon="-4.16143">
        <ele>515.5774</ele>
        <time>2021-07-17T08:14:24Z</time>
      </trkpt>
      <trkpt lat="37.16685" lon="-4.16">
        <ele>515.5905</ele>
        <time>2021-07-17T08:14:35Z</time>
      </trkpt>
      <trkpt lat="37.16585" lon="-4.15877">
        <ele>521.3217</ele>
        <time>2021-07-17T08:14:46Z</time>
      </trkpt>
      <trkpt lat="37.16601" lon="-4.15719">
        <ele>525.7251</ele>
        <time>2021-07-17T08:14:57Z</time>
      </trkpt>
      <trkpt lat="37.16601" lon="-4.15571">
        <ele>533.1996</ele>
        <time>2021-07-17T08:15:08Z</time>
      </trkpt>
      <trkpt lat="37.16554" lon="-4.15432">
        <ele>542.7577</ele>
        <time>2021-07-17T08:15:19Z</time>
      </trkpt>
      <trkpt lat="37.16446" lon="-4.15357">
        <ele>539.0018</ele>
        <time>2021-07-17T08:15:30Z</time>
      </trkpt>
      <trkpt lat="37.16368" lon="-4.15303">
        <ele>536.3122</ele>
        <time>2021-07-17T08:15:41Z</time>
      </trkpt>
      <trkpt lat="37.16295" lon="-4.15206">
        <ele>534.1901</ele>
        <time>2021-07-17T08:15:52Z</time>
      </trkpt>
      <trkpt lat="37.16274" lon="-4.15056">
        <ele>530.8208</ele>
        <time>2021-07-17T08:16:03Z</time>
      </trkpt>
      <trkpt lat="37.16261" lon="-4.14954">
        <ele>535.4963</ele>
        <time>2021-07-17T08:16:14Z</time>
      </trkpt>
      <trkpt lat="37.1624" lon="-4.14813">
        <ele>540.7911</ele>
        <time>2021-07-17T08:16:25Z</time>
      </trkpt>
      <trkpt lat="37.16141" lon="-4.14721">
        <ele>541.9375</ele>
        <time>2021-07-17T08:16:36Z</time>
      </trkpt>
      <trkpt lat="37.16078" lon="-4.14584">
        <ele>532.6137</ele>
        <time>2021-07-17T08:16:47Z</time>
      </trkpt>
      <trkpt lat="37.16203" lon="-4.14479">
        <ele>522.6512</ele>
        <time>2021-07-17T08:16:58Z</time>
      </trkpt>
      <trkpt lat="37.16278" lon="-4.14339">
        <ele>513.3328</ele>
        <time>2021-07-17T08:17:09Z</time>
      </trkpt>
      <trkpt lat="37.16316" lon="-4.14208">
        <ele>506.2642</ele>
        <time>2021-07-17T08:17:20Z</time>
      </trkpt>
      <trkpt lat="37.16344" lon="-4.14112">
        <ele>500.0173</ele>
        <time>2021-07-17T08:17:31Z</time>
      </trkpt>
      <trkpt lat="37.16372" lon="-4.14011">
        <ele>495.4718</ele>
        <time>2021-07-17T08:17:42Z</time>
      </trkpt>
      <trkpt lat="37.16408" lon="-4.13915">
        <ele>492.7262</ele>
        <time>2021-07-17T08:17:53Z</time>
      </trkpt>
      <trkpt lat="37.16438" lon="-4.13974">
        <ele>490.1586</ele>
        <time>2021-07-17T08:18:04Z</time>
      </trkpt>
      <trkpt lat="37.16446" lon="-4.14033">
        <ele>489.2889</ele>
        <time>2021-07-17T08:18:15Z</time>
      </trkpt>
      <trkpt lat="37.16452" lon="-4.141">
        <ele>489.4611</ele>
        <time>2021-07-17T08:18:26Z</time>
      </trkpt>
      <trkpt lat="37.16468" lon="-4.14175">
        <ele>485.9165</ele>
        <time>2021-07-17T08:18:37Z</time>
      </trkpt>
      <trkpt lat="37.16449" lon="-4.14233">
        <ele>479.7264</ele>
        <time>2021-07-17T08:18:48Z</time>
      </trkpt>
      <trkpt lat="37.16418" lon="-4.14329">
        <ele>474.5997</ele>
        <time>2021-07-17T08:18:59Z</time>
      </trkpt>
      <trkpt lat="37.16435" lon="-4.14435">
        <ele>470.5602</ele>
        <time>2021-07-17T08:19:10Z</time>
      </trkpt>
      <trkpt lat="37.16498" lon="-4.14521">
        <ele>466.6095</ele>
        <time>2021-07-17T08:19:21Z</time>
      </trkpt>
      <trkpt lat="37.16562" lon="-4.14561">
        <ele>459.8881</ele>
        <time>2021-07-17T08:19:32Z</time>
      </trkpt>
      <trkpt lat="37.16642" lon="-4.14569">
        <ele>456.3711</ele>
        <time>2021-07-17T08:19:43Z</time>
      </trkpt>
      <trkpt lat="37.1672" lon="-4.14591">
        <ele>457.1543</ele>
        <time>2021-07-17T08:19:54Z</time>
      </trkpt>
      <trkpt lat="37.16791" lon="-4.14597">
        <ele>455.0317</ele>
        <time>2021-07-17T08:20:05Z</time>
      </trkpt>
      <trkpt lat="37.16882" lon="-4.1456">
        <ele>458.7954</ele>
        <time>2021-07-17T08:20:16Z</time>
      </trkpt>
      <trkpt lat="37.1699" lon="-4.14522">
        <ele>459.1218</ele>
        <time>2021-07-17T08:20:27Z</time>
      </trkpt>
      <trkpt lat="37.1707" lon="-4.14492">
        <ele>454.7792</ele>
        <time>2021-07-17T08:20:38Z</time>
      </trkpt>
      <trkpt lat="37.17191" lon="-4.14391">
        <ele>457.6647</ele>
        <time>2021-07-17T08:20:49Z</time>
      </trkpt>
      <trkpt lat="37.17305" lon="-4.14263">
        <ele>462.4666</ele>
        <time>2021-07-17T08:21:00Z</time>
      </trkpt>
      <trkpt lat="37.17377" lon="-4.14097">
        <ele>475.5448</ele>
        <time>2021-07-17T08:21:11Z</time>
      </trkpt>
      <trkpt lat="37.17436" lon="-4.13969">
        <ele>485.1392</ele>
        <time>2021-07-17T08:21:22Z</time>
      </trkpt>
      <trkpt lat="37.17497" lon="-4.13877">
        <ele>486.4315</ele>
        <time>2021-07-17T08:21:33Z</time>
      </trkpt>
      <trkpt lat="37.17617" lon="-4.13769">
        <ele>499.1331</ele>
        <time>2021-07-17T08:21:44Z</time>
      </trkpt>
      <trkpt lat="37.17661" lon="-4.1359">
        <ele>512.0836</ele>
        <time>2021-07-17T08:21:55Z</time>
      </trkpt>
      <trkpt lat="37.17757" lon="-4.1343">
        <ele>512.0037</ele>
        <time>2021-07-17T08:22:06Z</time>
      </trkpt>
      <trkpt lat="37.17827" lon="-4.13278">
        <ele>510.2831</ele>
        <time>2021-07-17T08:22:17Z</time>
      </trkpt>
      <trkpt lat="37.17829" lon="-4.13089">
        <ele>518.6405</ele>
        <time>2021-07-17T08:22:28Z</time>
      </trkpt>
      <trkpt lat="37.17898" lon="-4.12891">
        <ele>529.278</ele>
        <time>2021-07-17T08:22:39Z</time>
      </trkpt>
      <trkpt lat="37.17925" lon="-4.12664">
        <ele>540.0056</ele>
        <time>2021-07-17T08:22:50Z</time>
      </trkpt>
      <trkpt lat="37.17911" lon="-4.12429">
        <ele>551.9531</ele>
        <time>2021-07-17T08:23:01Z</time>
      </trkpt>
      <trkpt lat="37.17901" lon="-4.12317">
        <ele>554.6636</ele>
        <time>2021-07-17T08:23:12Z</time>
      </trkpt>
      <trkpt lat="37.17895" lon="-4.12248">
        <ele>555.1805</ele>
        <time>2021-07-17T08:23:23Z</time>
      </trkpt>
      <trkpt lat="37.17986" lon="-4.12154">
        <ele>560.0551</ele>
        <time>2021-07-17T08:23:34Z</time>
      </trkpt>
      <trkpt lat="37.17959" lon="-4.12078">
        <ele>563.9996</ele>
        <time>2021-07-17T08:23:45Z</time>
      </trkpt>
      <trkpt lat="37.17886" lon="-4.12093">
        <ele>572.3049</ele>
        <time>2021-07-17T08:23:56Z</time>
      </trkpt>
      <trkpt lat="37.17836" lon="-4.12045">
        <ele>579.6929</ele>
        <time>2021-07-17T08:24:07Z</time>
      </trkpt>
      <trkpt lat="37.17874" lon="-4.11848">
        <ele>591.6306</ele>
        <time>2021-07-17T08:24:18Z</time>
      </trkpt>
      <trkpt lat="37.17928" lon="-4.11708">
        <ele>600.1671</ele>
        <time>2021-07-17T08:24:29Z</time>
      </trkpt>
      <trkpt lat="37.18029" lon="-4.11674">
        <ele>594.4718</ele>
        <time>2021-07-17T08:24:40Z</time>
      </trkpt>
      <trkpt lat="37.18102" lon="-4.11536">
        <ele>601.0442</ele>
        <time>2021-07-17T08:24:51Z</time>
      </trkpt>
      <trkpt lat="37.18145" lon="-4.11432">
        <ele>608.3358</ele>
        <time>2021-07-17T08:25:02Z</time>
      </trkpt>
      <trkpt lat="37.18272" lon="-4.11493">
        <ele>624.6721</ele>
        <time>2021-07-17T08:25:13Z</time>
      </trkpt>
      <trkpt lat="37.18355" lon="-4.11407">
        <ele>629.5305</ele>
        <time>2021-07-17T08:25:24Z</time>
      </trkpt>
      <trkpt lat="37.18447" lon="-4.11321">
        <ele>636.6861</ele>
        <time>2021-07-17T08:25:35Z</time>
      </trkpt>
      <trkpt lat="37.1852" lon="-4.11245">
        <ele>646.108</ele>
        <time>2021-07-17T08:25:46Z</time>
      </trkpt>
      <trkpt lat="37.18549" lon="-4.11121">
        <ele>648.0597</ele>
        <time>2021-07-17T08:25:57Z</time>
      </trkpt>
      <trkpt lat="37.18556" lon="-4.10971">
        <ele>653.6859</ele>
        <time>2021-07-17T08:26:08Z</time>
      </trkpt>
      <trkpt lat="37.18705" lon="-4.10931">
        <ele>666.8915</ele>
        <time>2021-07-17T08:26:19Z</time>
      </trkpt>
      <trkpt lat="37.18771" lon="-4.11054">
        <ele>671.3236</ele>
        <time>2021-07-17T08:26:30Z</time>
      </trkpt>
      <trkpt lat="37.18855" lon="-4.11169">
        <ele>681.4769</ele>
        <time>2021-07-17T08:26:41Z</time>
      </trkpt>
      <trkpt lat="37.18864" lon="-4.11196">
        <ele>681.0561</ele>
        <time>2021-07-17T08:26:52Z</time>
      </trkpt>
      <trkpt lat="37.18884" lon="-4.11183">
        <ele>678.0378</ele>
        <time>2021-07-17T08:27:03Z</time>
      </trkpt>
      <trkpt lat="37.18967" lon="-4.11103">
        <ele>682.1333</ele>
        <time>2021-07-17T08:27:14Z</time>
      </trkpt>
      <trkpt lat="37.19074" lon="-4.11033">
        <ele>687.9103</ele>
        <time>2021-07-17T08:27:25Z</time>
      </trkpt>
      <trkpt lat="37.19097" lon="-4.10986">
        <ele>687.4504</ele>
        <time>2021-07-17T08:27:36Z</time>
      </trkpt>
      <trkpt lat="37.19107" lon="-4.10956">
        <ele>689.1084</ele>
        <time>2021-07-17T08:27:47Z</time>
      </trkpt>
      <trkpt lat="37.19179" lon="-4.10911">
        <ele>679.4477</ele>
        <time>2021-07-17T08:27:58Z</time>
      </trkpt>
      <trkpt lat="37.19328" lon="-4.10883">
        <ele>658.9084</ele>
        <time>2021-07-17T08:28:09Z</time>
      </trkpt>
      <trkpt lat="37.19436" lon="-4.10773">
        <ele>644.7514</ele>
        <time>2021-07-17T08:28:20Z</time>
      </trkpt>
      <trkpt lat="37.1959" lon="-4.10653">
        <ele>627.1801</ele>
        <time>2021-07-17T08:28:31Z</time>
      </trkpt>
      <trkpt lat="37.19743" lon="-4.10514">
        <ele>626.9071</ele>
        <time>2021-07-17T08:28:42Z</time>
      </trkpt>
      <trkpt lat="37.19859" lon="-4.10331">
        <ele>625.3808</ele>
        <time>2021-07-17T08:28:53Z</time>
      </trkpt>
      <trkpt lat="37.20032" lon="-4.10166">
        <ele>620.7856</ele>
        <time>2021-07-17T08:29:04Z</time>
      </trkpt>
      <trkpt lat="37.2022" lon="-4.10028">
        <ele>614.7665</ele>
        <time>2021-07-17T08:29:15Z</time>
      </trkpt>
      <trkpt lat="37.20384" lon="-4.09889">
        <ele>612.5186</ele>
        <time>2021-07-17T08:29:26Z</time>
      </trkpt>
      <trkpt lat="37.20517" lon="-4.09751">
        <ele>599.6175</ele>
        <time>2021-07-17T08:29:37Z</time>
      </trkpt>
      <trkpt lat="37.20612" lon="-4.09602">
        <ele>585.8332</ele>
        <time>2021-07-17T08:29:48Z</time>
      </trkpt>
      <trkpt lat="37.20768" lon="-4.09497">
        <ele>579.0497</ele>
        <time>2021-07-17T08:29:59Z</time>
      </trkpt>
      <trkpt lat="37.20905" lon="-4.09336">
        <ele>592.8054</ele>
        <time>2021-07-17T08:30:10Z</time>
      </trkpt>
      <trkpt lat="37.21003" lon="-4.09166">
        <ele>584.2263</ele>
        <time>2021-07-17T08:30:21Z</time>
      </trkpt>
      <trkpt lat="37.21092" lon="-4.08983">
        <ele>583.1348</ele>
        <time>2021-07-17T08:30:32Z</time>
      </trkpt>
      <trkpt lat="37.2122" lon="-4.08807">
        <ele>583.2135</ele>
        <time>2021-07-17T08:30:43Z</time>
      </trkpt>
      <trkpt lat="37.2134" lon="-4.08624">
        <ele>583.6084</ele>
        <time>2021-07-17T08:30:54Z</time>
      </trkpt>
      <trkpt lat="37.21445" lon="-4.08474">
        <ele>561.1568</ele>
        <time>2021-07-17T08:31:05Z</time>
      </trkpt>
      <trkpt lat="37.21479" lon="-4.08346">
        <ele>551.5346</ele>
        <time>2021-07-17T08:31:16Z</time>
      </trkpt>
      <trkpt lat="37.21467" lon="-4.08201">
        <ele>545.4902</ele>
        <time>2021-07-17T08:31:27Z</time>
      </trkpt>
      <trkpt lat="37.21454" lon="-4.08073">
        <ele>531.3419</ele>
        <time>2021-07-17T08:31:38Z</time>
      </trkpt>
      <trkpt lat="37.21494" lon="-4.07936">
        <ele>526.7951</ele>
        <time>2021-07-17T08:31:49Z</time>
      </trkpt>
      <trkpt lat="37.21509" lon="-4.07798">
        <ele>522.9546</ele>
        <time>2021-07-17T08:32:00Z</time>
      </trkpt>
      <trkpt lat="37.2142" lon="-4.077">
        <ele>521.0982</ele>
        <time>2021-07-17T08:32:11Z</time>
      </trkpt>
      <trkpt lat="37.21331" lon="-4.07588">
        <ele>518.552</ele>
        <time>2021-07-17T08:32:22Z</time>
      </trkpt>
      <trkpt lat="37.21281" lon="-4.07433">
        <ele>514.7886</ele>
        <time>2021-07-17T08:32:33Z</time>
      </trkpt>
      <trkpt lat="37.21278" lon="-4.07266">
        <ele>508.8137</ele>
        <time>2021-07-17T08:32:44Z</time>
      </trkpt>
      <trkpt lat="37.21321" lon="-4.0723">
        <ele>508.8389</ele>
        <time>2021-07-17T08:32:55Z</time>
      </trkpt>
      <trkpt lat="37.21482" lon="-4.07124">
        <ele>503.3244</ele>
        <time>2021-07-17T08:33:06Z</time>
      </trkpt>
      <trkpt lat="37.21582" lon="-4.07067">
        <ele>499.9824</ele>
        <time>2021-07-17T08:33:17Z</time>
      </trkpt>
      <trkpt lat="37.21654" lon="-4.07041">
        <ele>501.8515</ele>
        <time>2021-07-17T08:33:28Z</time>
      </trkpt>
      <trkpt lat="37.21706" lon="-4.06995">
        <ele>503.5916</ele>
        <time>2021-07-17T08:33:39Z</time>
      </trkpt>
      <trkpt lat="37.21722" lon="-4.06962">
        <ele>510.7567</ele>
        <time>2021-07-17T08:33:50Z</time>
      </trkpt>
      <trkpt lat="37.21813" lon="-4.07032">
        <ele>509.8268</ele>
        <time>2021-07-17T08:34:01Z</time>
      </trkpt>
      <trkpt lat="37.21924" lon="-4.07112">
        <ele>512.7429</ele>
        <time>2021-07-17T08:34:12Z</time>
      </trkpt>
      <trkpt lat="37.22086" lon="-4.07183">
        <ele>512.4577</ele>
        <time>2021-07-17T08:34:23Z</time>
      </trkpt>
      <trkpt lat="37.22257" lon="-4.07315">
        <ele>518.1659</ele>
        <time>2021-07-17T08:34:34Z</time>
      </trkpt>
      <trkpt lat="37.22459" lon="-4.07405">
        <ele>526.9523</ele>
        <time>2021-07-17T08:34:45Z</time>
      </trkpt>
      <trkpt lat="37.22688" lon="-4.07463">
        <ele>525.519</ele>
        <time>2021-07-17T08:34:56Z</time>
      </trkpt>
      <trkpt lat="37.22934" lon="-4.07548">
        <ele>527.4431</ele>
        <time>2021-07-17T08:35:07Z</time>
      </trkpt>
      <trkpt lat="37.23146" lon="-4.07661">
        <ele>530.9195</ele>
        <time>2021-07-17T08:35:18Z</time>
      </trkpt>
      <trkpt lat="37.2336" lon="-4.07706">
        <ele>533.6516</ele>
        <time>2021-07-17T08:35:29Z</time>
      </trkpt>
      <trkpt lat="37.2358" lon="-4.07681">
        <ele>539.766</ele>
        <time>2021-07-17T08:35:40Z</time>
      </trkpt>
      <trkpt lat="37.23803" lon="-4.07665">
        <ele>544.6768</ele>
        <time>2021-07-17T08:35:51Z</time>
      </trkpt>
      <trkpt lat="37.23977" lon="-4.07766">
        <ele>552.9692</ele>
        <time>2021-07-17T08:36:02Z</time>
      </trkpt>
      <trkpt lat="37.24134" lon="-4.07738">
        <ele>551.539</ele>
        <time>2021-07-17T08:36:13Z</time>
      </trkpt>
      <trkpt lat="37.24316" lon="-4.07664">
        <ele>551.722</ele>
        <time>2021-07-17T08:36:24Z</time>
      </trkpt>
      <trkpt lat="37.24506" lon="-4.07799">
        <ele>555.1168</ele>
        <time>2021-07-17T08:36:35Z</time>
      </trkpt>
      <trkpt lat="37.24657" lon="-4.07949">
        <ele>563.7687</ele>
        <time>2021-07-17T08:36:46Z</time>
      </trkpt>
      <trkpt lat="37.24865" lon="-4.07961">
        <ele>555.7975</ele>
        <time>2021-07-17T08:36:57Z</time>
      </trkpt>
      <trkpt lat="37.25059" lon="-4.0797">
        <ele>555.1269</ele>
        <time>2021-07-17T08:37:08Z</time>
      </trkpt>
      <trkpt lat="37.25258" lon="-4.0804">
        <ele>565.32</ele>
        <time>2021-07-17T08:37:19Z</time>
      </trkpt>
      <trkpt lat="37.2538" lon="-4.0825">
        <ele>561.29</ele>
        <time>2021-07-17T08:37:30Z</time>
      </trkpt>
      <trkpt lat="37.25548" lon="-4.08395">
        <ele>557.6853</ele>
        <time>2021-07-17T08:37:41Z</time>
      </trkpt>
      <trkpt lat="37.25769" lon="-4.08418">
        <ele>573.869</ele>
        <time>2021-07-17T08:37:52Z</time>
      </trkpt>
      <trkpt lat="37.25978" lon="-4.08469">
        <ele>571.0447</ele>
        <time>2021-07-17T08:38:03Z</time>
      </trkpt>
      <trkpt lat="37.26144" lon="-4.08288">
        <ele>570.6087</ele>
        <time>2021-07-17T08:38:14Z</time>
      </trkpt>
      <trkpt lat="37.26333" lon="-4.08116">
        <ele>580.1633</ele>
        <time>2021-07-17T08:38:25Z</time>
      </trkpt>
      <trkpt lat="37.26507" lon="-4.07905">
        <ele>585.5321</ele>
        <time>2021-07-17T08:38:36Z</time>
      </trkpt>
      <trkpt lat="37.26648" lon="-4.07727">
        <ele>584.6385</ele>
        <time>2021-07-17T08:38:48Z</time>
      </trkpt>
      <trkpt lat="37.2678" lon="-4.07644">
        <ele>593.3874</ele>
        <time>2021-07-17T08:38:59Z</time>
      </trkpt>
      <trkpt lat="37.2697" lon="-4.0751">
        <ele>593.4836</ele>
        <time>2021-07-17T08:39:10Z</time>
      </trkpt>
      <trkpt lat="37.27144" lon="-4.07369">
        <ele>602.1187</ele>
        <time>2021-07-17T08:39:21Z</time>
      </trkpt>
      <trkpt lat="37.27266" lon="-4.07537">
        <ele>601.6171</ele>
        <time>2021-07-17T08:39:32Z</time>
      </trkpt>
      <trkpt lat="37.27343" lon="-4.07453">
        <ele>605.0871</ele>
        <time>2021-07-17T08:39:43Z</time>
      </trkpt>
      <trkpt lat="37.27399" lon="-4.07357">
        <ele>609.9976</ele>
        <time>2021-07-17T08:39:54Z</time>
      </trkpt>
      <trkpt lat="37.2747" lon="-4.07376">
        <ele>614.8371</ele>
        <time>2021-07-17T08:40:05Z</time>
      </trkpt>
      <trkpt lat="37.27581" lon="-4.07527">
        <ele>617.8636</ele>
        <time>2021-07-17T08:40:16Z</time>
      </trkpt>
      <trkpt lat="37.27783" lon="-4.07638">
        <ele>603.3158</ele>
        <time>2021-07-17T08:40:27Z</time>
      </trkpt>
      <trkpt lat="37.27992" lon="-4.07697">
        <ele>611.7887</ele>
        <time>2021-07-17T08:40:38Z</time>
      </trkpt>
      <trkpt lat="37.28182" lon="-4.07689">
        <ele>617.5266</ele>
        <time>2021-07-17T08:40:49Z</time>
      </trkpt>
      <trkpt lat="37.28362" lon="-4.07714">
        <ele>617.7063</ele>
        <time>2021-07-17T08:41:00Z</time>
      </trkpt>
      <trkpt lat="37.28596" lon="-4.07607">
        <ele>625.3279</ele>
        <time>2021-07-17T08:41:11Z</time>
      </trkpt>
      <trkpt lat="37.28762" lon="-4.07653">
        <ele>632.0048</ele>
        <time>2021-07-17T08:41:22Z</time>
      </trkpt>
      <trkpt lat="37.28917" lon="-4.07812">
        <ele>633.4418</ele>
        <time>2021-07-17T08:41:33Z</time>
      </trkpt>
      <trkpt lat="37.29062" lon="-4.07814">
        <ele>639.4794</ele>
        <time>2021-07-17T08:41:44Z</time>
      </trkpt>
      <trkpt lat="37.2926" lon="-4.07724">
        <ele>651.4891</ele>
        <time>2021-07-17T08:41:55Z</time>
      </trkpt>
      <trkpt lat="37.29392" lon="-4.07832">
        <ele>657.4291</ele>
        <time>2021-07-17T08:42:06Z</time>
      </trkpt>
      <trkpt lat="37.29593" lon="-4.07823">
        <ele>646.3855</ele>
        <time>2021-07-17T08:42:17Z</time>
      </trkpt>
      <trkpt lat="37.29784" lon="-4.07663">
        <ele>650.1845</ele>
        <time>2021-07-17T08:42:28Z</time>
      </trkpt>
      <trkpt lat="37.30025" lon="-4.07724">
        <ele>662.4742</ele>
        <time>2021-07-17T08:42:39Z</time>
      </trkpt>
      <trkpt lat="37.3022" lon="-4.07755">
        <ele>678.9214</ele>
        <time>2021-07-17T08:42:50Z</time>
      </trkpt>
      <trkpt lat="37.30363" lon="-4.07555">
        <ele>675.8241</ele>
        <time>2021-07-17T08:43:01Z</time>
      </trkpt>
      <trkpt lat="37.30492" lon="-4.07287">
        <ele>666.3402</ele>
        <time>2021-07-17T08:43:12Z</time>
      </trkpt>
      <trkpt lat="37.30677" lon="-4.07074">
        <ele>673.6812</ele>
        <time>2021-07-17T08:43:23Z</time>
      </trkpt>
      <trkpt lat="37.30865" lon="-4.06821">
        <ele>674.4129</ele>
        <time>2021-07-17T08:43:34Z</time>
      </trkpt>
      <trkpt lat="37.31024" lon="-4.06588">
        <ele>679.7694</ele>
        <time>2021-07-17T08:43:45Z</time>
      </trkpt>
      <trkpt lat="37.3124" lon="-4.06461">
        <ele>681.8991</ele>
        <time>2021-07-17T08:43:56Z</time>
      </trkpt>
      <trkpt lat="37.31441" lon="-4.0631">
        <ele>681.4203</ele>
        <time>2021-07-17T08:44:07Z</time>
      </trkpt>
      <trkpt lat="37.31576" lon="-4.06196">
        <ele>683.4948</ele>
        <time>2021-07-17T08:44:18Z</time>
      </trkpt>
      <trkpt lat="37.31522" lon="-4.06003">
        <ele>689.9728</ele>
        <time>2021-07-17T08:44:29Z</time>
      </trkpt>
      <trkpt lat="37.31576" lon="-4.05765">
        <ele>690.0558</ele>
        <time>2021-07-17T08:44:40Z</time>
      </trkpt>
      <trkpt lat="37.31714" lon="-4.05546">
        <ele>692.0523</ele>
        <time>2021-07-17T08:44:51Z</time>
      </trkpt>
      <trkpt lat="37.31867" lon="-4.05331">
        <ele>693.1118</ele>
        <time>2021-07-17T08:45:02Z</time>
      </trkpt>
      <trkpt lat="37.31923" lon="-4.0502">
        <ele>699.9215</ele>
        <time>2021-07-17T08:45:13Z</time>
      </trkpt>
      <trkpt lat="37.31963" lon="-4.04711">
        <ele>703.9144</ele>
        <time>2021-07-17T08:45:24Z</time>
      </trkpt>
      <trkpt lat="37.31988" lon="-4.04397">
        <ele>706.2488</ele>
        <time>2021-07-17T08:45:35Z</time>
      </trkpt>
      <trkpt lat="37.31999" lon="-4.04135">
        <ele>707.3057</ele>
        <time>2021-07-17T08:45:46Z</time>
      </trkpt>
      <trkpt lat="37.32006" lon="-4.03998">
        <ele>710.5011</ele>
        <time>2021-07-17T08:45:57Z</time>
      </trkpt>
      <trkpt lat="37.32008" lon="-4.03905">
        <ele>711.3802</ele>
        <time>2021-07-17T08:46:08Z</time>
      </trkpt>
      <trkpt lat="37.32005" lon="-4.03771">
        <ele>713.5834</ele>
        <time>2021-07-17T08:46:19Z</time>
      </trkpt>
      <trkpt lat="37.32012" lon="-4.0363">
        <ele>716.9208</ele>
        <time>2021-07-17T08:46:30Z</time>
      </trkpt>
      <trkpt lat="37.32045" lon="-4.03347">
        <ele>725.1401</ele>
        <time>2021-07-17T08:46:41Z</time>
      </trkpt>
      <trkpt lat="37.32153" lon="-4.03073">
        <ele>724.2986</ele>
        <time>2021-07-17T08:46:52Z</time>
      </trkpt>
      <trkpt lat="37.32222" lon="-4.02815">
        <ele>727.1446</ele>
        <time>2021-07-17T08:47:03Z</time>
      </trkpt>
      <trkpt lat="37.32311" lon="-4.02612">
        <ele>736.8646</ele>
        <time>2021-07-17T08:47:14Z</time>
      </trkpt>
      <trkpt lat="37.32259" lon="-4.02355">
        <ele>745.9656</ele>
        <time>2021-07-17T08:47:25Z</time>
      </trkpt>
      <trkpt lat="37.32285" lon="-4.02075">
        <ele>746.4919</ele>
        <time>2021-07-17T08:47:36Z</time>
      </trkpt>
      <trkpt lat="37.32241" lon="-4.0186">
        <ele>760.6454</ele>
        <time>2021-07-17T08:47:47Z</time>
      </trkpt>
      <trkpt lat="37.32192" lon="-4.01748">
        <ele>761.8598</ele>
        <time>2021-07-17T08:47:58Z</time>
      </trkpt>
      <trkpt lat="37.32328" lon="-4.01672">
        <ele>769.8292</ele>
        <time>2021-07-17T08:48:09Z</time>
      </trkpt>
      <trkpt lat="37.32461" lon="-4.01481">
        <ele>768.2609</ele>
        <time>2021-07-17T08:48:20Z</time>
      </trkpt>
      <trkpt lat="37.32483" lon="-4.01244">
        <ele>769.8953</ele>
        <time>2021-07-17T08:48:31Z</time>
      </trkpt>
      <trkpt lat="37.32341" lon="-4.01104">
        <ele>785.9547</ele>
        <time>2021-07-17T08:48:42Z</time>
      </trkpt>
      <trkpt lat="37.3226" lon="-4.00951">
        <ele>803.6655</ele>
        <time>2021-07-17T08:48:53Z</time>
      </trkpt>
      <trkpt lat="37.32257" lon="-4.00844">
        <ele>808.1159</ele>
        <time>2021-07-17T08:49:04Z</time>
      </trkpt>
      <trkpt lat="37.32284" lon="-4.00727">
        <ele>814.984</ele>
        <time>2021-07-17T08:49:15Z</time>
      </trkpt>
      <trkpt lat="37.3231" lon="-4.00658">
        <ele>822.4053</ele>
        <time>2021-07-17T08:49:26Z</time>
      </trkpt>
      <trkpt lat="37.32348" lon="-4.00558">
        <ele>831.0875</ele>
        <time>2021-07-17T08:49:37Z</time>
      </trkpt>
      <trkpt lat="37.32342" lon="-4.00383">
        <ele>840.1404</ele>
        <time>2021-07-17T08:49:48Z</time>
      </trkpt>
      <trkpt lat="37.32343" lon="-4.00323">
        <ele>843.3608</ele>
        <time>2021-07-17T08:49:59Z</time>
      </trkpt>
      <trkpt lat="37.32371" lon="-4.00223">
        <ele>849.7735</ele>
        <time>2021-07-17T08:50:10Z</time>
      </trkpt>
      <trkpt lat="37.32315" lon="-4.00259">
        <ele>855.0309</ele>
        <time>2021-07-17T08:50:21Z</time>
      </trkpt>
      <trkpt lat="37.32226" lon="-4.00325">
        <ele>865.4495</ele>
        <time>2021-07-17T08:50:32Z</time>
      </trkpt>
      <trkpt lat="37.32196" lon="-4.00311">
        <ele>876.1989</ele>
        <time>2021-07-17T08:50:43Z</time>
      </trkpt>
      <trkpt lat="37.32187" lon="-4.00205">
        <ele>884.4164</ele>
        <time>2021-07-17T08:50:54Z</time>
      </trkpt>
      <trkpt lat="37.3216" lon="-4.00112">
        <ele>885.6764</ele>
        <time>2021-07-17T08:51:05Z</time>
      </trkpt>
      <trkpt lat="37.32135" lon="-4.00079">
        <ele>892.2095</ele>
        <time>2021-07-17T08:51:16Z</time>
      </trkpt>
      <trkpt lat="37.32235" lon="-3.99933">
        <ele>905.5005</ele>
        <time>2021-07-17T08:51:27Z</time>
      </trkpt>
      <trkpt lat="37.32242" lon="-3.9968">
        <ele>924.6764</ele>
        <time>2021-07-17T08:51:38Z</time>
      </trkpt>
      <trkpt lat="37.32345" lon="-3.99401">
        <ele>941.2339</ele>
        <time>2021-07-17T08:51:49Z</time>
      </trkpt>
      <trkpt lat="37.32416" lon="-3.9911">
        <ele>963.6976</ele>
        <time>2021-07-17T08:52:00Z</time>
      </trkpt>
      <trkpt lat="37.3249" lon="-3.98837">
        <ele>978.309</ele>
        <time>2021-07-17T08:52:11Z</time>
      </trkpt>
      <trkpt lat="37.32652" lon="-3.98725">
        <ele>972.7464</ele>
        <time>2021-07-17T08:52:22Z</time>
      </trkpt>
      <trkpt lat="37.32801" lon="-3.98669">
        <ele>964.4934</ele>
        <time>2021-07-17T08:52:33Z</time>
      </trkpt>
      <trkpt lat="37.32764" lon="-3.98423">
        <ele>948.6828</ele>
        <time>2021-07-17T08:52:44Z</time>
      </trkpt>
      <trkpt lat="37.32858" lon="-3.98151">
        <ele>945.6118</ele>
        <time>2021-07-17T08:52:55Z</time>
      </trkpt>
      <trkpt lat="37.32983" lon="-3.97914">
        <ele>920.3772</ele>
        <time>2021-07-17T08:53:06Z</time>
      </trkpt>
      <trkpt lat="37.32974" lon="-3.97664">
        <ele>911.4009</ele>
        <time>2021-07-17T08:53:17Z</time>
      </trkpt>
      <trkpt lat="37.3286" lon="-3.97449">
        <ele>906.5333</ele>
        <time>2021-07-17T08:53:28Z</time>
      </trkpt>
      <trkpt lat="37.32954" lon="-3.97222">
        <ele>898.5864</ele>
        <time>2021-07-17T08:53:40Z</time>
      </trkpt>
      <trkpt lat="37.32928" lon="-3.97037">
        <ele>904.2529</ele>
        <time>2021-07-17T08:53:51Z</time>
      </trkpt>
      <trkpt lat="37.3292" lon="-3.96726">
        <ele>908.0993</ele>
        <time>2021-07-17T08:54:02Z</time>
      </trkpt>
      <trkpt lat="37.32982" lon="-3.96451">
        <ele>921.7992</ele>
        <time>2021-07-17T08:54:13Z</time>
      </trkpt>
      <trkpt lat="37.33014" lon="-3.96182">
        <ele>931.8788</ele>
        <time>2021-07-17T08:54:24Z</time>
      </trkpt>
      <trkpt lat="37.33073" lon="-3.95889">
        <ele>944.1614</ele>
        <time>2021-07-17T08:54:35Z</time>
      </trkpt>
      <trkpt lat="37.33185" lon="-3.95623">
        <ele>952.3924</ele>
        <time>2021-07-17T08:54:46Z</time>
      </trkpt>
      <trkpt lat="37.33261" lon="-3.95367">
        <ele>963.3998</ele>
        <time>2021-07-17T08:54:57Z</time>
      </trkpt>
      <trkpt lat="37.33426" lon="-3.95195">
        <ele>967.7315</ele>
        <time>2021-07-17T08:55:08Z</time>
      </trkpt>
      <trkpt lat="37.3359" lon="-3.94992">
        <ele>969.2297</ele>
        <time>2021-07-17T08:55:19Z</time>
      </trkpt>
      <trkpt lat="37.33754" lon="-3.94784">
        <ele>980.4858</ele>
        <time>2021-07-17T08:55:30Z</time>
      </trkpt>
      <trkpt lat="37.33921" lon="-3.946">
        <ele>985.2193</ele>
        <time>2021-07-17T08:55:41Z</time>
      </trkpt>
      <trkpt lat="37.34107" lon="-3.94357">
        <ele>990.0924</ele>
        <time>2021-07-17T08:55:52Z</time>
      </trkpt>
      <trkpt lat="37.34197" lon="-3.94092">
        <ele>996.6458</ele>
        <time>2021-07-17T08:56:03Z</time>
      </trkpt>
      <trkpt lat="37.34321" lon="-3.9382">
        <ele>1001.325</ele>
        <time>2021-07-17T08:56:14Z</time>
      </trkpt>
      <trkpt lat="37.34474" lon="-3.93517">
        <ele>1009.397</ele>
        <time>2021-07-17T08:56:25Z</time>
      </trkpt>
      <trkpt lat="37.34599" lon="-3.93235">
        <ele>1013.329</ele>
        <time>2021-07-17T08:56:36Z</time>
      </trkpt>
      <trkpt lat="37.34617" lon="-3.92918">
        <ele>1012.121</ele>
        <time>2021-07-17T08:56:47Z</time>
      </trkpt>
      <trkpt lat="37.34746" lon="-3.92631">
        <ele>1004.789</ele>
        <time>2021-07-17T08:56:58Z</time>
      </trkpt>
      <trkpt lat="37.34924" lon="-3.92393">
        <ele>1003.321</ele>
        <time>2021-07-17T08:57:09Z</time>
      </trkpt>
      <trkpt lat="37.351" lon="-3.9228">
        <ele>1005.904</ele>
        <time>2021-07-17T08:57:20Z</time>
      </trkpt>
      <trkpt lat="37.35224" lon="-3.92046">
        <ele>996.9829</ele>
        <time>2021-07-17T08:57:31Z</time>
      </trkpt>
      <trkpt lat="37.3528" lon="-3.91759">
        <ele>986.7039</ele>
        <time>2021-07-17T08:57:42Z</time>
      </trkpt>
      <trkpt lat="37.35373" lon="-3.91444">
        <ele>976.555</ele>
        <time>2021-07-17T08:57:53Z</time>
      </trkpt>
      <trkpt lat="37.35491" lon="-3.91145">
        <ele>971.6405</ele>
        <time>2021-07-17T08:58:04Z</time>
      </trkpt>
      <trkpt lat="37.35546" lon="-3.90825">
        <ele>968.5998</ele>
        <time>2021-07-17T08:58:15Z</time>
      </trkpt>
      <trkpt lat="37.35537" lon="-3.90503">
        <ele>969.2227</ele>
        <time>2021-07-17T08:58:26Z</time>
      </trkpt>
      <trkpt lat="37.35477" lon="-3.90191">
        <ele>971.3908</ele>
        <time>2021-07-17T08:58:37Z</time>
      </trkpt>
      <trkpt lat="37.35609" lon="-3.89941">
        <ele>972.7681</ele>
        <time>2021-07-17T08:58:48Z</time>
      </trkpt>
      <trkpt lat="37.35656" lon="-3.89617">
        <ele>957.2305</ele>
        <time>2021-07-17T08:58:59Z</time>
      </trkpt>
      <trkpt lat="37.35667" lon="-3.89303">
        <ele>953.546</ele>
        <time>2021-07-17T08:59:10Z</time>
      </trkpt>
      <trkpt lat="37.35583" lon="-3.89047">
        <ele>951.7355</ele>
        <time>2021-07-17T08:59:21Z</time>
      </trkpt>
      <trkpt lat="37.35522" lon="-3.88766">
        <ele>953.2168</ele>
        <time>2021-07-17T08:59:32Z</time>
      </trkpt>
      <trkpt lat="37.35458" lon="-3.88485">
        <ele>947.1716</ele>
        <time>2021-07-17T08:59:43Z</time>
      </trkpt>
      <trkpt lat="37.35251" lon="-3.88315">
        <ele>922.4609</ele>
        <time>2021-07-17T08:59:54Z</time>
      </trkpt>
      <trkpt lat="37.35091" lon="-3.88071">
        <ele>901.0409</ele>
        <time>2021-07-17T09:00:05Z</time>
      </trkpt>
      <trkpt lat="37.34939" lon="-3.87834">
        <ele>912.8525</ele>
        <time>2021-07-17T09:00:16Z</time>
      </trkpt>
      <trkpt lat="37.34875" lon="-3.87529">
        <ele>906.1174</ele>
        <time>2021-07-17T09:00:27Z</time>
      </trkpt>
      <trkpt lat="37.34748" lon="-3.8724">
        <ele>884.1484</ele>
        <time>2021-07-17T09:00:38Z</time>
      </trkpt>
      <trkpt lat="37.34511" lon="-3.87264">
        <ele>873.8581</ele>
        <time>2021-07-17T09:00:49Z</time>
      </trkpt>
      <trkpt lat="37.34323" lon="-3.87358">
        <ele>866.2619</ele>
        <time>2021-07-17T09:01:00Z</time>
      </trkpt>
      <trkpt lat="37.3428" lon="-3.87143">
        <ele>868.1201</ele>
        <time>2021-07-17T09:01:11Z</time>
      </trkpt>
      <trkpt lat="37.34184" lon="-3.86936">
        <ele>862.2315</ele>
        <time>2021-07-17T09:01:22Z</time>
      </trkpt>
      <trkpt lat="37.3415" lon="-3.86614">
        <ele>860.9582</ele>
        <time>2021-07-17T09:01:33Z</time>
      </trkpt>
      <trkpt lat="37.34082" lon="-3.86296">
        <ele>864.1588</ele>
        <time>2021-07-17T09:01:44Z</time>
      </trkpt>
      <trkpt lat="37.3408" lon="-3.8604">
        <ele>856.7754</ele>
        <time>2021-07-17T09:01:55Z</time>
      </trkpt>
      <trkpt lat="37.3416" lon="-3.85688">
        <ele>836.5799</ele>
        <time>2021-07-17T09:02:06Z</time>
      </trkpt>
      <trkpt lat="37.3413" lon="-3.85346">
        <ele>832.5377</ele>
        <time>2021-07-17T09:02:17Z</time>
      </trkpt>
      <trkpt lat="37.3417" lon="-3.85034">
        <ele>836.5136</ele>
        <time>2021-07-17T09:02:28Z</time>
      </trkpt>
      <trkpt lat="37.34205" lon="-3.84727">
        <ele>844.7582</ele>
        <time>2021-07-17T09:02:39Z</time>
      </trkpt>
      <trkpt lat="37.34252" lon="-3.84409">
        <ele>844.5104</ele>
        <time>2021-07-17T09:02:50Z</time>
      </trkpt>
      <trkpt lat="37.34367" lon="-3.84111">
        <ele>849.2709</ele>
        <time>2021-07-17T09:03:01Z</time>
      </trkpt>
      <trkpt lat="37.34447" lon="-3.83807">
        <ele>851.7515</ele>
        <time>2021-07-17T09:03:12Z</time>
      </trkpt>
      <trkpt lat="37.34456" lon="-3.83531">
        <ele>854.8072</ele>
        <time>2021-07-17T09:03:23Z</time>
      </trkpt>
      <trkpt lat="37.34424" lon="-3.83318">
        <ele>861.5333</ele>
        <time>2021-07-17T09:03:34Z</time>
      </trkpt>
      <trkpt lat="37.34411" lon="-3.83238">
        <ele>863.2586</ele>
        <time>2021-07-17T09:03:45Z</time>
      </trkpt>
      <trkpt lat="37.34315" lon="-3.83213">
        <ele>868.5957</ele>
        <time>2021-07-17T09:03:56Z</time>
      </trkpt>
      <trkpt lat="37.34218" lon="-3.83247">
        <ele>870.9238</ele>
        <time>2021-07-17T09:04:07Z</time>
      </trkpt>
      <trkpt lat="37.34148" lon="-3.83255">
        <ele>869.826</ele>
        <time>2021-07-17T09:04:18Z</time>
      </trkpt>
      <trkpt lat="37.3405" lon="-3.83256">
        <ele>864.9426</ele>
        <time>2021-07-17T09:04:29Z</time>
      </trkpt>
      <trkpt lat="37.33917" lon="-3.83253">
        <ele>855.8998</ele>
        <time>2021-07-17T09:04:40Z</time>
      </trkpt>
      <trkpt lat="37.33868" lon="-3.83255">
        <ele>856.2279</ele>
        <time>2021-07-17T09:04:51Z</time>
      </trkpt>
      <trkpt lat="37.33864" lon="-3.83253">
        <ele>857.3051</ele>
        <time>2021-07-17T09:05:05Z</time>
      </trkpt>
      <trkpt lat="37.33864" lon="-3.83253">
        <ele>858.9302</ele>
        <time>2021-07-17T09:06:04Z</time>
      </trkpt>
      <trkpt lat="37.33858" lon="-3.8325">
        <ele>858.5403</ele>
        <time>2021-07-17T09:06:31Z</time>
      </trkpt>
      <trkpt lat="37.33749" lon="-3.83245">
        <ele>861.8944</ele>
        <time>2021-07-17T09:06:42Z</time>
      </trkpt>
      <trkpt lat="37.3371" lon="-3.83244">
        <ele>866.6527</ele>
        <time>2021-07-17T09:06:53Z</time>
      </trkpt>
      <trkpt lat="37.33662" lon="-3.83241">
        <ele>869.1346</ele>
        <time>2021-07-17T09:07:04Z</time>
      </trkpt>
      <trkpt lat="37.33539" lon="-3.83238">
        <ele>871.617</ele>
        <time>2021-07-17T09:07:15Z</time>
      </trkpt>
      <trkpt lat="37.334" lon="-3.83233">
        <ele>877.1635</ele>
        <time>2021-07-17T09:07:26Z</time>
      </trkpt>
      <trkpt lat="37.33244" lon="-3.83172">
        <ele>887.1176</ele>
        <time>2021-07-17T09:07:37Z</time>
      </trkpt>
      <trkpt lat="37.33072" lon="-3.83131">
        <ele>895.0323</ele>
        <time>2021-07-17T09:07:48Z</time>
      </trkpt>
      <trkpt lat="37.32857" lon="-3.83221">
        <ele>895.9482</ele>
        <time>2021-07-17T09:07:59Z</time>
      </trkpt>
      <trkpt lat="37.32614" lon="-3.83243">
        <ele>893.4937</ele>
        <time>2021-07-17T09:08:10Z</time>
      </trkpt>
      <trkpt lat="37.32423" lon="-3.83366">
        <ele>888.1443</ele>
        <time>2021-07-17T09:08:21Z</time>
      </trkpt>
      <trkpt lat="37.32348" lon="-3.83575">
        <ele>885.644</ele>
        <time>2021-07-17T09:08:32Z</time>
      </trkpt>
      <trkpt lat="37.32246" lon="-3.83762">
        <ele>880.3936</ele>
        <time>2021-07-17T09:08:43Z</time>
      </trkpt>
      <trkpt lat="37.32044" lon="-3.83791">
        <ele>883.6603</ele>
        <time>2021-07-17T09:08:54Z</time>
      </trkpt>
      <trkpt lat="37.31991" lon="-3.83569">
        <ele>881.5848</ele>
        <time>2021-07-17T09:09:05Z</time>
      </trkpt>
      <trkpt lat="37.319" lon="-3.83349">
        <ele>876.3408</ele>
        <time>2021-07-17T09:09:16Z</time>
      </trkpt>
      <trkpt lat="37.31722" lon="-3.83191">
        <ele>865.6333</ele>
        <time>2021-07-17T09:09:27Z</time>
      </trkpt>
      <trkpt lat="37.31538" lon="-3.83015">
        <ele>853.38</ele>
        <time>2021-07-17T09:09:38Z</time>
      </trkpt>
      <trkpt lat="37.31357" lon="-3.82834">
        <ele>843.4982</ele>
        <time>2021-07-17T09:09:49Z</time>
      </trkpt>
      <trkpt lat="37.31226" lon="-3.82612">
        <ele>839.0065</ele>
        <time>2021-07-17T09:10:00Z</time>
      </trkpt>
      <trkpt lat="37.31112" lon="-3.82405">
        <ele>831.8201</ele>
        <time>2021-07-17T09:10:11Z</time>
      </trkpt>
      <trkpt lat="37.30956" lon="-3.82237">
        <ele>832.9121</ele>
        <time>2021-07-17T09:10:22Z</time>
      </trkpt>
      <trkpt lat="37.30822" lon="-3.82035">
        <ele>831.1238</ele>
        <time>2021-07-17T09:10:33Z</time>
      </trkpt>
      <trkpt lat="37.30626" lon="-3.81954">
        <ele>823.9453</ele>
        <time>2021-07-17T09:10:44Z</time>
      </trkpt>
      <trkpt lat="37.30418" lon="-3.81904">
        <ele>817.6768</ele>
        <time>2021-07-17T09:10:55Z</time>
      </trkpt>
      <trkpt lat="37.30256" lon="-3.81729">
        <ele>803.6632</ele>
        <time>2021-07-17T09:11:06Z</time>
      </trkpt>
      <trkpt lat="37.30086" lon="-3.81562">
        <ele>801.2088</ele>
        <time>2021-07-17T09:11:17Z</time>
      </trkpt>
      <trkpt lat="37.2987" lon="-3.81477">
        <ele>805.8405</ele>
        <time>2021-07-17T09:11:28Z</time>
      </trkpt>
      <trkpt lat="37.29729" lon="-3.81229">
        <ele>818.342</ele>
        <time>2021-07-17T09:11:39Z</time>
      </trkpt>
      <trkpt lat="37.29632" lon="-3.80953">
        <ele>827.2332</ele>
        <time>2021-07-17T09:11:50Z</time>
      </trkpt>
      <trkpt lat="37.29461" lon="-3.80779">
        <ele>820.0953</ele>
        <time>2021-07-17T09:12:01Z</time>
      </trkpt>
      <trkpt lat="37.29256" lon="-3.80685">
        <ele>811.0153</ele>
        <time>2021-07-17T09:12:12Z</time>
      </trkpt>
      <trkpt lat="37.29029" lon="-3.80584">
        <ele>799.8719</ele>
        <time>2021-07-17T09:12:24Z</time>
      </trkpt>
      <trkpt lat="37.28797" lon="-3.8048">
        <ele>787.2113</ele>
        <time>2021-07-17T09:12:35Z</time>
      </trkpt>
      <trkpt lat="37.28562" lon="-3.80375">
        <ele>775.2905</ele>
        <time>2021-07-17T09:12:46Z</time>
      </trkpt>
      <trkpt lat="37.28306" lon="-3.80238">
        <ele>763.608</ele>
        <time>2021-07-17T09:12:57Z</time>
      </trkpt>
      <trkpt lat="37.28096" lon="-3.80049">
        <ele>753.5069</ele>
        <time>2021-07-17T09:13:08Z</time>
      </trkpt>
      <trkpt lat="37.27914" lon="-3.79833">
        <ele>744.1623</ele>
        <time>2021-07-17T09:13:19Z</time>
      </trkpt>
      <trkpt lat="37.27741" lon="-3.79683">
        <ele>731.0634</ele>
        <time>2021-07-17T09:13:30Z</time>
      </trkpt>
      <trkpt lat="37.27593" lon="-3.7954">
        <ele>719.1184</ele>
        <time>2021-07-17T09:13:41Z</time>
      </trkpt>
      <trkpt lat="37.27491" lon="-3.79317">
        <ele>705.2817</ele>
        <time>2021-07-17T09:13:52Z</time>
      </trkpt>
      <trkpt lat="37.27339" lon="-3.79134">
        <ele>688.5336</ele>
        <time>2021-07-17T09:14:03Z</time>
      </trkpt>
      <trkpt lat="37.2712" lon="-3.79051">
        <ele>676.4689</ele>
        <time>2021-07-17T09:14:14Z</time>
      </trkpt>
      <trkpt lat="37.26897" lon="-3.78985">
        <ele>662.4131</ele>
        <time>2021-07-17T09:14:25Z</time>
      </trkpt>
      <trkpt lat="37.26712" lon="-3.78925">
        <ele>648.9497</ele>
        <time>2021-07-17T09:14:36Z</time>
      </trkpt>
      <trkpt lat="37.26496" lon="-3.78795">
        <ele>642.6117</ele>
        <time>2021-07-17T09:14:47Z</time>
      </trkpt>
      <trkpt lat="37.2638" lon="-3.78535">
        <ele>632.6217</ele>
        <time>2021-07-17T09:14:58Z</time>
      </trkpt>
      <trkpt lat="37.26333" lon="-3.78209">
        <ele>617.9588</ele>
        <time>2021-07-17T09:15:09Z</time>
      </trkpt>
      <trkpt lat="37.26289" lon="-3.77905">
        <ele>607.0561</ele>
        <time>2021-07-17T09:15:20Z</time>
      </trkpt>
      <trkpt lat="37.26245" lon="-3.77599">
        <ele>595.0267</ele>
        <time>2021-07-17T09:15:31Z</time>
      </trkpt>
      <trkpt lat="37.26198" lon="-3.77293">
        <ele>586.7432</ele>
        <time>2021-07-17T09:15:42Z</time>
      </trkpt>
      <trkpt lat="37.2608" lon="-3.7704">
        <ele>577.8071</ele>
        <time>2021-07-17T09:15:53Z</time>
      </trkpt>
      <trkpt lat="37.25911" lon="-3.76856">
        <ele>570.3877</ele>
        <time>2021-07-17T09:16:04Z</time>
      </trkpt>
      <trkpt lat="37.25796" lon="-3.76643">
        <ele>568.9686</ele>
        <time>2021-07-17T09:16:15Z</time>
      </trkpt>
      <trkpt lat="37.2567" lon="-3.76517">
        <ele>572.2745</ele>
        <time>2021-07-17T09:16:26Z</time>
      </trkpt>
      <trkpt lat="37.25564" lon="-3.76568">
        <ele>565.5579</ele>
        <time>2021-07-17T09:16:37Z</time>
      </trkpt>
      <trkpt lat="37.25596" lon="-3.76445">
        <ele>565.6644</ele>
        <time>2021-07-17T09:16:48Z</time>
      </trkpt>
      <trkpt lat="37.25664" lon="-3.76382">
        <ele>569.5163</ele>
        <time>2021-07-17T09:16:59Z</time>
      </trkpt>
      <trkpt lat="37.25614" lon="-3.76239">
        <ele>573.0319</ele>
        <time>2021-07-17T09:17:10Z</time>
      </trkpt>
      <trkpt lat="37.25527" lon="-3.76066">
        <ele>581.193</ele>
        <time>2021-07-17T09:17:21Z</time>
      </trkpt>
      <trkpt lat="37.25447" lon="-3.75901">
        <ele>578.349</ele>
        <time>2021-07-17T09:17:32Z</time>
      </trkpt>
      <trkpt lat="37.25367" lon="-3.75787">
        <ele>574.1624</ele>
        <time>2021-07-17T09:17:43Z</time>
      </trkpt>
      <trkpt lat="37.25264" lon="-3.7567">
        <ele>573.0565</ele>
        <time>2021-07-17T09:17:54Z</time>
      </trkpt>
      <trkpt lat="37.2518" lon="-3.75598">
        <ele>575.8495</ele>
        <time>2021-07-17T09:18:05Z</time>
      </trkpt>
      <trkpt lat="37.25167" lon="-3.75584">
        <ele>580.2408</ele>
        <time>2021-07-17T09:18:16Z</time>
      </trkpt>
      <trkpt lat="37.25116" lon="-3.75535">
        <ele>583.1794</ele>
        <time>2021-07-17T09:18:27Z</time>
      </trkpt>
      <trkpt lat="37.25062" lon="-3.75491">
        <ele>586.6013</ele>
        <time>2021-07-17T09:18:38Z</time>
      </trkpt>
      <trkpt lat="37.2504" lon="-3.75468">
        <ele>584.0779</ele>
        <time>2021-07-17T09:18:49Z</time>
      </trkpt>
      <trkpt lat="37.25015" lon="-3.75443">
        <ele>585.9961</ele>
        <time>2021-07-17T09:19:00Z</time>
      </trkpt>
      <trkpt lat="37.24949" lon="-3.75296">
        <ele>582.3934</ele>
        <time>2021-07-17T09:19:11Z</time>
      </trkpt>
      <trkpt lat="37.24901" lon="-3.75144">
        <ele>579.1122</ele>
        <time>2021-07-17T09:19:22Z</time>
      </trkpt>
      <trkpt lat="37.24834" lon="-3.74936">
        <ele>579.5594</ele>
        <time>2021-07-17T09:19:33Z</time>
      </trkpt>
      <trkpt lat="37.24812" lon="-3.74746">
        <ele>579.7446</ele>
        <time>2021-07-17T09:19:44Z</time>
      </trkpt>
      <trkpt lat="37.24831" lon="-3.74586">
        <ele>582.9399</ele>
        <time>2021-07-17T09:19:55Z</time>
      </trkpt>
      <trkpt lat="37.24821" lon="-3.74437">
        <ele>584.6026</ele>
        <time>2021-07-17T09:20:06Z</time>
      </trkpt>
      <trkpt lat="37.24704" lon="-3.74307">
        <ele>578.43</ele>
        <time>2021-07-17T09:20:17Z</time>
      </trkpt>
      <trkpt lat="37.24564" lon="-3.7416">
        <ele>572.8923</ele>
        <time>2021-07-17T09:20:28Z</time>
      </trkpt>
      <trkpt lat="37.24434" lon="-3.7402">
        <ele>570.3222</ele>
        <time>2021-07-17T09:20:39Z</time>
      </trkpt>
      <trkpt lat="37.24324" lon="-3.73905">
        <ele>575.6676</ele>
        <time>2021-07-17T09:20:50Z</time>
      </trkpt>
      <trkpt lat="37.24191" lon="-3.73756">
        <ele>576.6059</ele>
        <time>2021-07-17T09:21:01Z</time>
      </trkpt>
      <trkpt lat="37.24052" lon="-3.73601">
        <ele>571.3542</ele>
        <time>2021-07-17T09:21:12Z</time>
      </trkpt>
      <trkpt lat="37.23899" lon="-3.73437">
        <ele>571.2261</ele>
        <time>2021-07-17T09:21:23Z</time>
      </trkpt>
      <trkpt lat="37.23759" lon="-3.73278">
        <ele>571.003</ele>
        <time>2021-07-17T09:21:34Z</time>
      </trkpt>
      <trkpt lat="37.236" lon="-3.731">
        <ele>569.0327</ele>
        <time>2021-07-17T09:21:45Z</time>
      </trkpt>
      <trkpt lat="37.23445" lon="-3.72927">
        <ele>569.3815</ele>
        <time>2021-07-17T09:21:56Z</time>
      </trkpt>
      <trkpt lat="37.2331" lon="-3.72779">
        <ele>568.6905</ele>
        <time>2021-07-17T09:22:07Z</time>
      </trkpt>
      <trkpt lat="37.23181" lon="-3.72641">
        <ele>574.1909</ele>
        <time>2021-07-17T09:22:18Z</time>
      </trkpt>
      <trkpt lat="37.23054" lon="-3.72499">
        <ele>574.0173</ele>
        <time>2021-07-17T09:22:29Z</time>
      </trkpt>
      <trkpt lat="37.22923" lon="-3.7235">
        <ele>573.2122</ele>
        <time>2021-07-17T09:22:40Z</time>
      </trkpt>
      <trkpt lat="37.22793" lon="-3.72205">
        <ele>576.6027</ele>
        <time>2021-07-17T09:22:51Z</time>
      </trkpt>
      <trkpt lat="37.22715" lon="-3.72038">
        <ele>576.4495</ele>
        <time>2021-07-17T09:23:02Z</time>
      </trkpt>
      <trkpt lat="37.22643" lon="-3.71841">
        <ele>576.8515</ele>
        <time>2021-07-17T09:23:13Z</time>
      </trkpt>
      <trkpt lat="37.22573" lon="-3.71645">
        <ele>577.511</ele>
        <time>2021-07-17T09:23:24Z</time>
      </trkpt>
      <trkpt lat="37.22501" lon="-3.71441">
        <ele>579.2107</ele>
        <time>2021-07-17T09:23:35Z</time>
      </trkpt>
      <trkpt lat="37.22411" lon="-3.71192">
        <ele>579.4205</ele>
        <time>2021-07-17T09:23:46Z</time>
      </trkpt>
      <trkpt lat="37.22339" lon="-3.70998">
        <ele>583.4886</ele>
        <time>2021-07-17T09:23:57Z</time>
      </trkpt>
      <trkpt lat="37.22269" lon="-3.70811">
        <ele>583.8351</ele>
        <time>2021-07-17T09:24:08Z</time>
      </trkpt>
      <trkpt lat="37.22199" lon="-3.70614">
        <ele>582.3405</ele>
        <time>2021-07-17T09:24:19Z</time>
      </trkpt>
      <trkpt lat="37.22143" lon="-3.70446">
        <ele>584.5394</ele>
        <time>2021-07-17T09:24:30Z</time>
      </trkpt>
      <trkpt lat="37.22094" lon="-3.703">
        <ele>584.9046</ele>
        <time>2021-07-17T09:24:41Z</time>
      </trkpt>
      <trkpt lat="37.22032" lon="-3.70128">
        <ele>589.4521</ele>
        <time>2021-07-17T09:24:52Z</time>
      </trkpt>
      <trkpt lat="37.22009" lon="-3.7006">
        <ele>592.0631</ele>
        <time>2021-07-17T09:25:03Z</time>
      </trkpt>
      <trkpt lat="37.22006" lon="-3.70057">
        <ele>591.926</ele>
        <time>2021-07-17T09:25:32Z</time>
      </trkpt>
      <trkpt lat="37.21973" lon="-3.69962">
        <ele>590.9474</ele>
        <time>2021-07-17T09:25:43Z</time>
      </trkpt>
      <trkpt lat="37.21912" lon="-3.69808">
        <ele>591.9078</ele>
        <time>2021-07-17T09:25:54Z</time>
      </trkpt>
      <trkpt lat="37.2184" lon="-3.69656">
        <ele>596.8072</ele>
        <time>2021-07-17T09:26:05Z</time>
      </trkpt>
      <trkpt lat="37.21764" lon="-3.69498">
        <ele>597.6865</ele>
        <time>2021-07-17T09:26:16Z</time>
      </trkpt>
      <trkpt lat="37.21684" lon="-3.69334">
        <ele>603.6934</ele>
        <time>2021-07-17T09:26:27Z</time>
      </trkpt>
      <trkpt lat="37.21605" lon="-3.69164">
        <ele>611.6796</ele>
        <time>2021-07-17T09:26:38Z</time>
      </trkpt>
      <trkpt lat="37.21545" lon="-3.69042">
        <ele>606.8002</ele>
        <time>2021-07-17T09:26:49Z</time>
      </trkpt>
      <trkpt lat="37.21543" lon="-3.69037">
        <ele>606.3688</ele>
        <time>2021-07-17T09:27:00Z</time>
      </trkpt>
      <trkpt lat="37.2154" lon="-3.6903">
        <ele>606.7418</ele>
        <time>2021-07-17T09:27:30Z</time>
      </trkpt>
      <trkpt lat="37.21493" lon="-3.68931">
        <ele>607.9501</ele>
        <time>2021-07-17T09:27:41Z</time>
      </trkpt>
      <trkpt lat="37.21388" lon="-3.68765">
        <ele>603.7988</ele>
        <time>2021-07-17T09:27:52Z</time>
      </trkpt>
      <trkpt lat="37.21279" lon="-3.68576">
        <ele>603.8903</ele>
        <time>2021-07-17T09:28:03Z</time>
      </trkpt>
      <trkpt lat="37.21179" lon="-3.68361">
        <ele>606.5829</ele>
        <time>2021-07-17T09:28:14Z</time>
      </trkpt>
      <trkpt lat="37.21076" lon="-3.68129">
        <ele>609.9223</ele>
        <time>2021-07-17T09:28:25Z</time>
      </trkpt>
      <trkpt lat="37.20991" lon="-3.67885">
        <ele>609.1232</ele>
        <time>2021-07-17T09:28:36Z</time>
      </trkpt>
      <trkpt lat="37.20919" lon="-3.67735">
        <ele>606.9585</ele>
        <time>2021-07-17T09:28:47Z</time>
      </trkpt>
      <trkpt lat="37.20875" lon="-3.67668">
        <ele>607.521</ele>
        <time>2021-07-17T09:28:58Z</time>
      </trkpt>
      <trkpt lat="37.20819" lon="-3.67559">
        <ele>609.5519</ele>
        <time>2021-07-17T09:29:09Z</time>
      </trkpt>
      <trkpt lat="37.20784" lon="-3.6743">
        <ele>610.0756</ele>
        <time>2021-07-17T09:29:20Z</time>
      </trkpt>
      <trkpt lat="37.207" lon="-3.67272">
        <ele>610.7539</ele>
        <time>2021-07-17T09:29:31Z</time>
      </trkpt>
      <trkpt lat="37.20618" lon="-3.67078">
        <ele>609.3473</ele>
        <time>2021-07-17T09:29:42Z</time>
      </trkpt>
      <trkpt lat="37.20546" lon="-3.66868">
        <ele>611.7395</ele>
        <time>2021-07-17T09:29:53Z</time>
      </trkpt>
      <trkpt lat="37.20544" lon="-3.66624">
        <ele>621.4899</ele>
        <time>2021-07-17T09:30:04Z</time>
      </trkpt>
      <trkpt lat="37.20545" lon="-3.6641">
        <ele>614.7974</ele>
        <time>2021-07-17T09:30:15Z</time>
      </trkpt>
      <trkpt lat="37.20528" lon="-3.66158">
        <ele>620.5908</ele>
        <time>2021-07-17T09:30:26Z</time>
      </trkpt>
      <trkpt lat="37.20491" lon="-3.65908">
        <ele>622.8268</ele>
        <time>2021-07-17T09:30:37Z</time>
      </trkpt>
      <trkpt lat="37.20441" lon="-3.65674">
        <ele>625.5446</ele>
        <time>2021-07-17T09:30:48Z</time>
      </trkpt>
      <trkpt lat="37.20369" lon="-3.65529">
        <ele>623.6144</ele>
        <time>2021-07-17T09:30:59Z</time>
      </trkpt>
      <trkpt lat="37.20255" lon="-3.6536">
        <ele>629.23</ele>
        <time>2021-07-17T09:31:10Z</time>
      </trkpt>
      <trkpt lat="37.20134" lon="-3.6521">
        <ele>627.5439</ele>
        <time>2021-07-17T09:31:21Z</time>
      </trkpt>
      <trkpt lat="37.19998" lon="-3.65028">
        <ele>630.0624</ele>
        <time>2021-07-17T09:31:32Z</time>
      </trkpt>
      <trkpt lat="37.19869" lon="-3.64924">
        <ele>630.0483</ele>
        <time>2021-07-17T09:31:43Z</time>
      </trkpt>
      <trkpt lat="37.19773" lon="-3.64869">
        <ele>626.9831</ele>
        <time>2021-07-17T09:31:54Z</time>
      </trkpt>
      <trkpt lat="37.19683" lon="-3.64804">
        <ele>625.0935</ele>
        <time>2021-07-17T09:32:05Z</time>
      </trkpt>
      <trkpt lat="37.1964" lon="-3.64646">
        <ele>632.3482</ele>
        <time>2021-07-17T09:32:16Z</time>
      </trkpt>
      <trkpt lat="37.19518" lon="-3.64609">
        <ele>640.8526</ele>
        <time>2021-07-17T09:32:27Z</time>
      </trkpt>
      <trkpt lat="37.19354" lon="-3.64499">
        <ele>632.9476</ele>
        <time>2021-07-17T09:32:38Z</time>
      </trkpt>
      <trkpt lat="37.19219" lon="-3.64377">
        <ele>631.4762</ele>
        <time>2021-07-17T09:32:49Z</time>
      </trkpt>
      <trkpt lat="37.19184" lon="-3.64369">
        <ele>633.9482</ele>
        <time>2021-07-17T09:33:00Z</time>
      </trkpt>
      <trkpt lat="37.1918" lon="-3.64368">
        <ele>640.9968</ele>
        <time>2021-07-17T09:33:51Z</time>
      </trkpt>
      <trkpt lat="37.19176" lon="-3.64367">
        <ele>644.0089</ele>
        <time>2021-07-17T09:34:09Z</time>
      </trkpt>
      <trkpt lat="37.19085" lon="-3.64359">
        <ele>640.3345</ele>
        <time>2021-07-17T09:34:20Z</time>
      </trkpt>
      <trkpt lat="37.18939" lon="-3.64379">
        <ele>636.5711</ele>
        <time>2021-07-17T09:34:31Z</time>
      </trkpt>
      <trkpt lat="37.18761" lon="-3.64329">
        <ele>634.9429</ele>
        <time>2021-07-17T09:34:42Z</time>
      </trkpt>
      <trkpt lat="37.18573" lon="-3.64259">
        <ele>631.9728</ele>
        <time>2021-07-17T09:34:53Z</time>
      </trkpt>
      <trkpt lat="37.18395" lon="-3.64175">
        <ele>627.6788</ele>
        <time>2021-07-17T09:35:04Z</time>
      </trkpt>
      <trkpt lat="37.18194" lon="-3.64151">
        <ele>628.3993</ele>
        <time>2021-07-17T09:35:15Z</time>
      </trkpt>
      <trkpt lat="37.18017" lon="-3.64148">
        <ele>623.9006</ele>
        <time>2021-07-17T09:35:26Z</time>
      </trkpt>
      <trkpt lat="37.17915" lon="-3.64126">
        <ele>631.7082</ele>
        <time>2021-07-17T09:35:37Z</time>
      </trkpt>
      <trkpt lat="37.17788" lon="-3.64115">
        <ele>647.4714</ele>
        <time>2021-07-17T09:35:48Z</time>
      </trkpt>
      <trkpt lat="37.1759" lon="-3.64029">
        <ele>664.722</ele>
        <time>2021-07-17T09:35:59Z</time>
      </trkpt>
      <trkpt lat="37.17499" lon="-3.63983">
        <ele>660.7352</ele>
        <time>2021-07-17T09:36:10Z</time>
      </trkpt>
      <trkpt lat="37.17388" lon="-3.63811">
        <ele>651.5825</ele>
        <time>2021-07-17T09:36:21Z</time>
      </trkpt>
      <trkpt lat="37.17241" lon="-3.6356">
        <ele>646.1745</ele>
        <time>2021-07-17T09:36:32Z</time>
      </trkpt>
      <trkpt lat="37.17097" lon="-3.63532">
        <ele>641.909</ele>
        <time>2021-07-17T09:36:43Z</time>
      </trkpt>
      <trkpt lat="37.16973" lon="-3.63602">
        <ele>640.0769</ele>
        <time>2021-07-17T09:36:54Z</time>
      </trkpt>
      <trkpt lat="37.16932" lon="-3.63529">
        <ele>641.3913</ele>
        <time>2021-07-17T09:37:05Z</time>
      </trkpt>
      <trkpt lat="37.16845" lon="-3.63367">
        <ele>643.5947</ele>
        <time>2021-07-17T09:37:16Z</time>
      </trkpt>
      <trkpt lat="37.16785" lon="-3.63171">
        <ele>642.0591</ele>
        <time>2021-07-17T09:37:27Z</time>
      </trkpt>
      <trkpt lat="37.16773" lon="-3.6294">
        <ele>643.0009</ele>
        <time>2021-07-17T09:37:38Z</time>
      </trkpt>
      <trkpt lat="37.16744" lon="-3.62724">
        <ele>643.8074</ele>
        <time>2021-07-17T09:37:49Z</time>
      </trkpt>
      <trkpt lat="37.1669" lon="-3.62522">
        <ele>646.5572</ele>
        <time>2021-07-17T09:38:00Z</time>
      </trkpt>
      <trkpt lat="37.16661" lon="-3.62422">
        <ele>648.6523</ele>
        <time>2021-07-17T09:38:11Z</time>
      </trkpt>
      <trkpt lat="37.16565" lon="-3.62504">
        <ele>651.0484</ele>
        <time>2021-07-17T09:38:22Z</time>
      </trkpt>
      <trkpt lat="37.16429" lon="-3.62643">
        <ele>650.3418</ele>
        <time>2021-07-17T09:38:33Z</time>
      </trkpt>
      <trkpt lat="37.16336" lon="-3.62787">
        <ele>651.3411</ele>
        <time>2021-07-17T09:38:44Z</time>
      </trkpt>
      <trkpt lat="37.16309" lon="-3.62831">
        <ele>650.4032</ele>
        <time>2021-07-17T09:38:55Z</time>
      </trkpt>
      <trkpt lat="37.16287" lon="-3.62697">
        <ele>650.2953</ele>
        <time>2021-07-17T09:39:06Z</time>
      </trkpt>
      <trkpt lat="37.16213" lon="-3.62413">
        <ele>652.9956</ele>
        <time>2021-07-17T09:39:17Z</time>
      </trkpt>
      <trkpt lat="37.16157" lon="-3.62105">
        <ele>646.5183</ele>
        <time>2021-07-17T09:39:28Z</time>
      </trkpt>
      <trkpt lat="37.16136" lon="-3.61869">
        <ele>653.567</ele>
        <time>2021-07-17T09:39:39Z</time>
      </trkpt>
      <trkpt lat="37.16121" lon="-3.61704">
        <ele>655.2649</ele>
        <time>2021-07-17T09:39:50Z</time>
      </trkpt>
      <trkpt lat="37.16127" lon="-3.61488">
        <ele>660.172</ele>
        <time>2021-07-17T09:40:01Z</time>
      </trkpt>
      <trkpt lat="37.1619" lon="-3.61202">
        <ele>659.6017</ele>
        <time>2021-07-17T09:40:12Z</time>
      </trkpt>
      <trkpt lat="37.16254" lon="-3.60957">
        <ele>661.7597</ele>
        <time>2021-07-17T09:40:23Z</time>
      </trkpt>
      <trkpt lat="37.16288" lon="-3.60852">
        <ele>663.247</ele>
        <time>2021-07-17T09:40:34Z</time>
      </trkpt>
      <trkpt lat="37.1629" lon="-3.60846">
        <ele>668.4016</ele>
        <time>2021-07-17T09:40:49Z</time>
      </trkpt>
      <trkpt lat="37.16235" lon="-3.60717">
        <ele>674.2178</ele>
        <time>2021-07-17T09:41:00Z</time>
      </trkpt>
      <trkpt lat="37.16159" lon="-3.60576">
        <ele>678.0338</ele>
        <time>2021-07-17T09:41:11Z</time>
      </trkpt>
      <trkpt lat="37.16095" lon="-3.60496">
        <ele>678.0684</ele>
        <time>2021-07-17T09:41:22Z</time>
      </trkpt>
      <trkpt lat="37.16105" lon="-3.60436">
        <ele>677.4539</ele>
        <time>2021-07-17T09:41:33Z</time>
      </trkpt>
      <trkpt lat="37.16124" lon="-3.60419">
        <ele>674.8174</ele>
        <time>2021-07-17T09:41:44Z</time>
      </trkpt>
      <trkpt lat="37.16193" lon="-3.60325">
        <ele>677.0592</ele>
        <time>2021-07-17T09:41:55Z</time>
      </trkpt>
      <trkpt lat="37.16277" lon="-3.60188">
        <ele>670.2712</ele>
        <time>2021-07-17T09:42:06Z</time>
      </trkpt>
      <trkpt lat="37.16388" lon="-3.60049">
        <ele>672.1455</ele>
        <time>2021-07-17T09:42:17Z</time>
      </trkpt>
      <trkpt lat="37.16495" lon="-3.59954">
        <ele>671.8854</ele>
        <time>2021-07-17T09:42:28Z</time>
      </trkpt>
      <trkpt lat="37.16587" lon="-3.59875">
        <ele>673.0845</ele>
        <time>2021-07-17T09:42:39Z</time>
      </trkpt>
      <trkpt lat="37.16591" lon="-3.59875">
        <ele>668.5581</ele>
        <time>2021-07-17T09:42:59Z</time>
      </trkpt>
      <trkpt lat="37.16614" lon="-3.59847">
        <ele>671.7695</ele>
        <time>2021-07-17T09:43:10Z</time>
      </trkpt>
      <trkpt lat="37.16671" lon="-3.59782">
        <ele>677.1827</ele>
        <time>2021-07-17T09:43:21Z</time>
      </trkpt>
      <trkpt lat="37.16731" lon="-3.59661">
        <ele>675.0152</ele>
        <time>2021-07-17T09:43:32Z</time>
      </trkpt>
      <trkpt lat="37.16739" lon="-3.59651">
        <ele>680.9188</ele>
        <time>2021-07-17T09:43:43Z</time>
      </trkpt>
      <trkpt lat="37.16742" lon="-3.59647">
        <ele>682.2943</ele>
        <time>2021-07-17T09:43:58Z</time>
      </trkpt>
      <trkpt lat="37.16748" lon="-3.59642">
        <ele>690.3595</ele>
        <time>2021-07-17T09:44:09Z</time>
      </trkpt>
      <trkpt lat="37.16773" lon="-3.59631">
        <ele>690.5128</ele>
        <time>2021-07-17T09:44:20Z</time>
      </trkpt>
      <trkpt lat="37.16806" lon="-3.59588">
        <ele>684.0887</ele>
        <time>2021-07-17T09:44:31Z</time>
      </trkpt>
      <trkpt lat="37.16848" lon="-3.59507">
        <ele>681.0449</ele>
        <time>2021-07-17T09:44:42Z</time>
      </trkpt>
      <trkpt lat="37.16888" lon="-3.59412">
        <ele>679.395</ele>
        <time>2021-07-17T09:44:53Z</time>
      </trkpt>
      <trkpt lat="37.16895" lon="-3.59317">
        <ele>676.982</ele>
        <time>2021-07-17T09:45:04Z</time>
      </trkpt>
      <trkpt lat="37.16872" lon="-3.5922">
        <ele>680.4838</ele>
        <time>2021-07-17T09:45:15Z</time>
      </trkpt>
      <trkpt lat="37.16813" lon="-3.59114">
        <ele>682.8609</ele>
        <time>2021-07-17T09:45:26Z</time>
      </trkpt>
      <trkpt lat="37.1673" lon="-3.58987">
        <ele>683.2989</ele>
        <time>2021-07-17T09:45:37Z</time>
      </trkpt>
      <trkpt lat="37.16731" lon="-3.58938">
        <ele>684.8405</ele>
        <time>2021-07-17T09:45:48Z</time>
      </trkpt>
      <trkpt lat="37.16735" lon="-3.58935">
        <ele>683.6095</ele>
        <time>2021-07-17T09:46:02Z</time>
      </trkpt>
      <trkpt lat="37.16777" lon="-3.58889">
        <ele>685.6148</ele>
        <time>2021-07-17T09:46:13Z</time>
      </trkpt>
      <trkpt lat="37.16835" lon="-3.58955">
        <ele>684.767</ele>
        <time>2021-07-17T09:46:24Z</time>
      </trkpt>
      <trkpt lat="37.16872" lon="-3.59028">
        <ele>679.2625</ele>
        <time>2021-07-17T09:46:35Z</time>
      </trkpt>
      <trkpt lat="37.16907" lon="-3.59107">
        <ele>676.2782</ele>
        <time>2021-07-17T09:46:46Z</time>
      </trkpt>
      <trkpt lat="37.16928" lon="-3.59057">
        <ele>687.4914</ele>
        <time>2021-07-17T09:46:57Z</time>
      </trkpt>
      <trkpt lat="37.16904" lon="-3.58927">
        <ele>690.5069</ele>
        <time>2021-07-17T09:47:08Z</time>
      </trkpt>
      <trkpt lat="37.16883" lon="-3.58812">
        <ele>702.628</ele>
        <time>2021-07-17T09:47:19Z</time>
      </trkpt>
      <trkpt lat="37.16876" lon="-3.5876">
        <ele>702.2667</ele>
        <time>2021-07-17T09:47:30Z</time>
      </trkpt>
      <trkpt lat="37.16881" lon="-3.58756">
        <ele>697.4002</ele>
        <time>2021-07-17T09:47:51Z</time>
      </trkpt>
      <trkpt lat="37.1688" lon="-3.58753">
        <ele>692.6409</ele>
        <time>2021-07-17T09:48:50Z</time>
      </trkpt>
      <trkpt lat="37.16906" lon="-3.58778">
        <ele>694.532</ele>
        <time>2021-07-17T09:49:01Z</time>
      </trkpt>
      <trkpt lat="37.16955" lon="-3.58868">
        <ele>702.1509</ele>
        <time>2021-07-17T09:49:12Z</time>
      </trkpt>
      <trkpt lat="37.16988" lon="-3.58912">
        <ele>709.3494</ele>
        <time>2021-07-17T09:49:23Z</time>
      </trkpt>
      <trkpt lat="37.1703" lon="-3.58863">
        <ele>714.051</ele>
        <time>2021-07-17T09:49:34Z</time>
      </trkpt>
      <trkpt lat="37.17123" lon="-3.58855">
        <ele>721.5496</ele>
        <time>2021-07-17T09:49:45Z</time>
      </trkpt>
      <trkpt lat="37.17203" lon="-3.58862">
        <ele>728.3871</ele>
        <time>2021-07-17T09:49:56Z</time>
      </trkpt>
      <trkpt lat="37.17246" lon="-3.58873">
        <ele>733.4132</ele>
        <time>2021-07-17T09:50:07Z</time>
      </trkpt>
      <trkpt lat="37.17292" lon="-3.58897">
        <ele>740.5472</ele>
        <time>2021-07-17T09:50:18Z</time>
      </trkpt>
      <trkpt lat="37.17351" lon="-3.58937">
        <ele>747.5358</ele>
        <time>2021-07-17T09:50:29Z</time>
      </trkpt>
      <trkpt lat="37.174" lon="-3.5897">
        <ele>755.6989</ele>
        <time>2021-07-17T09:50:40Z</time>
      </trkpt>
      <trkpt lat="37.17439" lon="-3.58968">
        <ele>767.5291</ele>
        <time>2021-07-17T09:50:51Z</time>
      </trkpt>
      <trkpt lat="37.17427" lon="-3.5892">
        <ele>769.2788</ele>
        <time>2021-07-17T09:51:02Z</time>
      </trkpt>
      <trkpt lat="37.17401" lon="-3.58809">
        <ele>772.1986</ele>
        <time>2021-07-17T09:51:13Z</time>
      </trkpt>
      <trkpt lat="37.17408" lon="-3.58718">
        <ele>776.7048</ele>
        <time>2021-07-17T09:51:24Z</time>
      </trkpt>
      <trkpt lat="37.17428" lon="-3.58618">
        <ele>778.235</ele>
        <time>2021-07-17T09:51:35Z</time>
      </trkpt>
      <trkpt lat="37.17422" lon="-3.58514">
        <ele>790.3826</ele>
        <time>2021-07-17T09:51:46Z</time>
      </trkpt>
      <trkpt lat="37.17392" lon="-3.58445">
        <ele>801.1783</ele>
        <time>2021-07-17T09:51:57Z</time>
      </trkpt>
      <trkpt lat="37.17383" lon="-3.58427">
        <ele>802.0554</ele>
        <time>2021-07-17T09:52:08Z</time>
      </trkpt>
      <trkpt lat="37.17383" lon="-3.58427">
        <ele>796.7443</ele>
        <time>2021-07-17T09:53:08Z</time>
      </trkpt>
      <trkpt lat="37.17382" lon="-3.58424">
        <ele>800.5026</ele>
        <time>2021-07-17T09:54:06Z</time>
      </trkpt>
      <trkpt lat="37.17384" lon="-3.58429">
        <ele>799.2343</ele>
        <time>2021-07-17T09:54:25Z</time>
      </trkpt>
      <trkpt lat="37.17386" lon="-3.58433">
        <ele>800.3197</ele>
        <time>2021-07-17T09:54:37Z</time>
      </trkpt>
      <trkpt lat="37.17388" lon="-3.58437">
        <ele>804.3427</ele>
        <time>2021-07-17T09:55:17Z</time>
      </trkpt>
      <trkpt lat="37.17386" lon="-3.58432">
        <ele>802.2078</ele>
        <time>2021-07-17T09:55:29Z</time>
      </trkpt>
      <trkpt lat="37.17384" lon="-3.58428">
        <ele>802.8658</ele>
        <time>2021-07-17T09:55:47Z</time>
      </trkpt>
      <trkpt lat="37.17383" lon="-3.58426">
        <ele>802.1024</ele>
        <time>2021-07-17T09:56:47Z</time>
      </trkpt>
      <trkpt lat="37.17386" lon="-3.58423">
        <ele>802.4188</ele>
        <time>2021-07-17T09:56:58Z</time>
      </trkpt>
      <trkpt lat="37.17383" lon="-3.58424">
        <ele>801.3432</ele>
        <time>2021-07-17T09:57:52Z</time>
      </trkpt>
      <trkpt lat="37.17383" lon="-3.58425">
        <ele>798.4156</ele>
        <time>2021-07-17T09:58:52Z</time>
      </trkpt>
      <trkpt lat="37.17383" lon="-3.58425">
        <ele>800.3834</ele>
        <time>2021-07-17T09:59:51Z</time>
      </trkpt>
      <trkpt lat="37.17384" lon="-3.58428">
        <ele>790.4666</ele>
        <time>2021-07-17T10:00:50Z</time>
      </trkpt>
      <trkpt lat="37.17384" lon="-3.58428">
        <ele>791.8298</ele>
        <time>2021-07-17T10:01:49Z</time>
      </trkpt>
      <trkpt lat="37.17384" lon="-3.58428">
        <ele>790.5719</ele>
        <time>2021-07-17T10:02:48Z</time>
      </trkpt>
      <trkpt lat="37.17384" lon="-3.58427">
        <ele>789.9846</ele>
        <time>2021-07-17T10:03:48Z</time>
      </trkpt>
      <trkpt lat="37.17383" lon="-3.58425">
        <ele>789.5709</ele>
        <time>2021-07-17T10:04:47Z</time>
      </trkpt>
      <trkpt lat="37.17361" lon="-3.58395">
        <ele>793.5224</ele>
        <time>2021-07-17T10:05:40Z</time>
      </trkpt>
      <trkpt lat="37.17349" lon="-3.58388">
        <ele>794.3212</ele>
        <time>2021-07-17T10:05:51Z</time>
      </trkpt>
      <trkpt lat="37.17341" lon="-3.58375">
        <ele>795.1111</ele>
        <time>2021-07-17T10:06:02Z</time>
      </trkpt>
      <trkpt lat="37.17315" lon="-3.5837">
        <ele>794.9114</ele>
        <time>2021-07-17T10:06:13Z</time>
      </trkpt>
      <trkpt lat="37.1731" lon="-3.58354">
        <ele>792.9089</ele>
        <time>2021-07-17T10:06:24Z</time>
      </trkpt>
      <trkpt lat="37.17308" lon="-3.58347">
        <ele>798.3757</ele>
        <time>2021-07-17T10:06:38Z</time>
      </trkpt>
      <trkpt lat="37.17306" lon="-3.58339">
        <ele>796.5911</ele>
        <time>2021-07-17T10:06:49Z</time>
      </trkpt>
      <trkpt lat="37.17302" lon="-3.58328">
        <ele>795.4372</ele>
        <time>2021-07-17T10:07:05Z</time>
      </trkpt>
      <trkpt lat="37.17332" lon="-3.58316">
        <ele>795.6555</ele>
        <time>2021-07-17T10:07:35Z</time>
      </trkpt>
      <trkpt lat="37.17344" lon="-3.5832">
        <ele>794.8878</ele>
        <time>2021-07-17T10:07:46Z</time>
      </trkpt>
      <trkpt lat="37.17358" lon="-3.58318">
        <ele>794.7267</ele>
        <time>2021-07-17T10:07:57Z</time>
      </trkpt>
      <trkpt lat="37.17371" lon="-3.58319">
        <ele>792.7004</ele>
        <time>2021-07-17T10:08:08Z</time>
      </trkpt>
      <trkpt lat="37.17379" lon="-3.58328">
        <ele>793.7574</ele>
        <time>2021-07-17T10:08:19Z</time>
      </trkpt>
      <trkpt lat="37.17392" lon="-3.58334">
        <ele>792.2171</ele>
        <time>2021-07-17T10:08:30Z</time>
      </trkpt>
      <trkpt lat="37.17394" lon="-3.5833">
        <ele>792.7365</ele>
        <time>2021-07-17T10:08:41Z</time>
      </trkpt>
      <trkpt lat="37.17403" lon="-3.58331">
        <ele>794.2731</ele>
        <time>2021-07-17T10:08:52Z</time>
      </trkpt>
      <trkpt lat="37.17425" lon="-3.5836">
        <ele>789.0727</ele>
        <time>2021-07-17T10:09:19Z</time>
      </trkpt>
      <trkpt lat="37.17436" lon="-3.58372">
        <ele>791.9483</ele>
        <time>2021-07-17T10:09:30Z</time>
      </trkpt>
      <trkpt lat="37.17446" lon="-3.58385">
        <ele>791.6342</ele>
        <time>2021-07-17T10:09:41Z</time>
      </trkpt>
      <trkpt lat="37.17445" lon="-3.58398">
        <ele>791.454</ele>
        <time>2021-07-17T10:09:52Z</time>
      </trkpt>
      <trkpt lat="37.17442" lon="-3.58411">
        <ele>787.4759</ele>
        <time>2021-07-17T10:10:03Z</time>
      </trkpt>
      <trkpt lat="37.17437" lon="-3.58417">
        <ele>786.8541</ele>
        <time>2021-07-17T10:10:14Z</time>
      </trkpt>
      <trkpt lat="37.17431" lon="-3.58417">
        <ele>790.2044</ele>
        <time>2021-07-17T10:10:25Z</time>
      </trkpt>
      <trkpt lat="37.17419" lon="-3.58423">
        <ele>785.5086</ele>
        <time>2021-07-17T10:10:36Z</time>
      </trkpt>
      <trkpt lat="37.1741" lon="-3.58431">
        <ele>786.2449</ele>
        <time>2021-07-17T10:10:47Z</time>
      </trkpt>
      <trkpt lat="37.17409" lon="-3.58443">
        <ele>786.0792</ele>
        <time>2021-07-17T10:10:58Z</time>
      </trkpt>
      <trkpt lat="37.17397" lon="-3.5846">
        <ele>785.0801</ele>
        <time>2021-07-17T10:11:09Z</time>
      </trkpt>
      <trkpt lat="37.17401" lon="-3.58472">
        <ele>786.3359</ele>
        <time>2021-07-17T10:11:20Z</time>
      </trkpt>
      <trkpt lat="37.17407" lon="-3.58484">
        <ele>784.5041</ele>
        <time>2021-07-17T10:11:31Z</time>
      </trkpt>
      <trkpt lat="37.17411" lon="-3.5849">
        <ele>785.9363</ele>
        <time>2021-07-17T10:11:42Z</time>
      </trkpt>
      <trkpt lat="37.17415" lon="-3.58496">
        <ele>783.0156</ele>
        <time>2021-07-17T10:11:53Z</time>
      </trkpt>
      <trkpt lat="37.17418" lon="-3.58498">
        <ele>786.3937</ele>
        <time>2021-07-17T10:12:11Z</time>
      </trkpt>
      <trkpt lat="37.17426" lon="-3.58507">
        <ele>787.6206</ele>
        <time>2021-07-17T10:12:22Z</time>
      </trkpt>
      <trkpt lat="37.17433" lon="-3.58521">
        <ele>785.0239</ele>
        <time>2021-07-17T10:12:33Z</time>
      </trkpt>
      <trkpt lat="37.17465" lon="-3.58515">
        <ele>781.6506</ele>
        <time>2021-07-17T10:13:10Z</time>
      </trkpt>
      <trkpt lat="37.17477" lon="-3.58517">
        <ele>787.0447</ele>
        <time>2021-07-17T10:13:21Z</time>
      </trkpt>
      <trkpt lat="37.1749" lon="-3.58517">
        <ele>786.7419</ele>
        <time>2021-07-17T10:13:32Z</time>
      </trkpt>
      <trkpt lat="37.17503" lon="-3.58513">
        <ele>784.9422</ele>
        <time>2021-07-17T10:13:43Z</time>
      </trkpt>
      <trkpt lat="37.17514" lon="-3.58508">
        <ele>787.9677</ele>
        <time>2021-07-17T10:13:54Z</time>
      </trkpt>
      <trkpt lat="37.17528" lon="-3.58511">
        <ele>787.235</ele>
        <time>2021-07-17T10:14:05Z</time>
      </trkpt>
      <trkpt lat="37.17536" lon="-3.58514">
        <ele>787.1751</ele>
        <time>2021-07-17T10:14:16Z</time>
      </trkpt>
      <trkpt lat="37.17541" lon="-3.58527">
        <ele>787.2558</ele>
        <time>2021-07-17T10:14:27Z</time>
      </trkpt>
      <trkpt lat="37.17546" lon="-3.58539">
        <ele>786.7635</ele>
        <time>2021-07-17T10:14:38Z</time>
      </trkpt>
      <trkpt lat="37.17555" lon="-3.58555">
        <ele>783.5901</ele>
        <time>2021-07-17T10:14:49Z</time>
      </trkpt>
      <trkpt lat="37.17553" lon="-3.58547">
        <ele>783.3147</ele>
        <time>2021-07-17T10:15:02Z</time>
      </trkpt>
      <trkpt lat="37.17566" lon="-3.58559">
        <ele>781.0232</ele>
        <time>2021-07-17T10:15:18Z</time>
      </trkpt>
      <trkpt lat="37.1757" lon="-3.5858">
        <ele>780.8268</ele>
        <time>2021-07-17T10:15:29Z</time>
      </trkpt>
      <trkpt lat="37.17584" lon="-3.58589">
        <ele>779.4737</ele>
        <time>2021-07-17T10:15:40Z</time>
      </trkpt>
      <trkpt lat="37.17576" lon="-3.58586">
        <ele>778.4209</ele>
        <time>2021-07-17T10:15:51Z</time>
      </trkpt>
      <trkpt lat="37.17586" lon="-3.58591">
        <ele>778.0049</ele>
        <time>2021-07-17T10:16:02Z</time>
      </trkpt>
      <trkpt lat="37.17596" lon="-3.58597">
        <ele>778.5264</ele>
        <time>2021-07-17T10:16:13Z</time>
      </trkpt>
      <trkpt lat="37.17603" lon="-3.58601">
        <ele>778.3921</ele>
        <time>2021-07-17T10:16:25Z</time>
      </trkpt>
      <trkpt lat="37.17605" lon="-3.58612">
        <ele>778.368</ele>
        <time>2021-07-17T10:16:36Z</time>
      </trkpt>
      <trkpt lat="37.17613" lon="-3.58621">
        <ele>777.6628</ele>
        <time>2021-07-17T10:16:47Z</time>
      </trkpt>
      <trkpt lat="37.17624" lon="-3.58629">
        <ele>776.1223</ele>
        <time>2021-07-17T10:16:58Z</time>
      </trkpt>
      <trkpt lat="37.17633" lon="-3.58634">
        <ele>775.9439</ele>
        <time>2021-07-17T10:17:09Z</time>
      </trkpt>
      <trkpt lat="37.1764" lon="-3.5864">
        <ele>774.9969</ele>
        <time>2021-07-17T10:17:20Z</time>
      </trkpt>
      <trkpt lat="37.1764" lon="-3.58649">
        <ele>773.9573</ele>
        <time>2021-07-17T10:17:31Z</time>
      </trkpt>
      <trkpt lat="37.17655" lon="-3.58659">
        <ele>772.4221</ele>
        <time>2021-07-17T10:17:42Z</time>
      </trkpt>
      <trkpt lat="37.17667" lon="-3.58667">
        <ele>770.1367</ele>
        <time>2021-07-17T10:18:02Z</time>
      </trkpt>
      <trkpt lat="37.17677" lon="-3.58672">
        <ele>770.0419</ele>
        <time>2021-07-17T10:18:13Z</time>
      </trkpt>
      <trkpt lat="37.17674" lon="-3.58669">
        <ele>770.2372</ele>
        <time>2021-07-17T10:18:24Z</time>
      </trkpt>
      <trkpt lat="37.17671" lon="-3.58675">
        <ele>768.2168</ele>
        <time>2021-07-17T10:18:40Z</time>
      </trkpt>
      <trkpt lat="37.17676" lon="-3.58678">
        <ele>768.2698</ele>
        <time>2021-07-17T10:18:51Z</time>
      </trkpt>
      <trkpt lat="37.1768" lon="-3.58681">
        <ele>768.4209</ele>
        <time>2021-07-17T10:19:02Z</time>
      </trkpt>
      <trkpt lat="37.17685" lon="-3.58688">
        <ele>765.8427</ele>
        <time>2021-07-17T10:19:24Z</time>
      </trkpt>
      <trkpt lat="37.17684" lon="-3.58698">
        <ele>765.6625</ele>
        <time>2021-07-17T10:19:35Z</time>
      </trkpt>
      <trkpt lat="37.17687" lon="-3.58696">
        <ele>765.6567</ele>
        <time>2021-07-17T10:20:05Z</time>
      </trkpt>
      <trkpt lat="37.17686" lon="-3.587">
        <ele>765.7422</ele>
        <time>2021-07-17T10:20:16Z</time>
      </trkpt>
      <trkpt lat="37.17691" lon="-3.58701">
        <ele>763.7165</ele>
        <time>2021-07-17T10:20:27Z</time>
      </trkpt>
      <trkpt lat="37.17681" lon="-3.58682">
        <ele>771.71</ele>
        <time>2021-07-17T10:20:40Z</time>
      </trkpt>
      <trkpt lat="37.17672" lon="-3.58681">
        <ele>772.074</ele>
        <time>2021-07-17T10:20:51Z</time>
      </trkpt>
      <trkpt lat="37.17661" lon="-3.5868">
        <ele>774.5091</ele>
        <time>2021-07-17T10:21:02Z</time>
      </trkpt>
      <trkpt lat="37.17653" lon="-3.58679">
        <ele>770.9982</ele>
        <time>2021-07-17T10:21:13Z</time>
      </trkpt>
      <trkpt lat="37.17648" lon="-3.58633">
        <ele>775.6656</ele>
        <time>2021-07-17T10:21:24Z</time>
      </trkpt>
      <trkpt lat="37.17638" lon="-3.58627">
        <ele>775.1759</ele>
        <time>2021-07-17T10:21:35Z</time>
      </trkpt>
      <trkpt lat="37.1763" lon="-3.58617">
        <ele>781.9218</ele>
        <time>2021-07-17T10:21:46Z</time>
      </trkpt>
      <trkpt lat="37.17619" lon="-3.5861">
        <ele>778.4708</ele>
        <time>2021-07-17T10:21:57Z</time>
      </trkpt>
      <trkpt lat="37.17607" lon="-3.58605">
        <ele>780.4117</ele>
        <time>2021-07-17T10:22:08Z</time>
      </trkpt>
      <trkpt lat="37.176" lon="-3.58594">
        <ele>779.5454</ele>
        <time>2021-07-17T10:22:19Z</time>
      </trkpt>
      <trkpt lat="37.17592" lon="-3.58582">
        <ele>782.466</ele>
        <time>2021-07-17T10:22:30Z</time>
      </trkpt>
      <trkpt lat="37.1758" lon="-3.58572">
        <ele>783.6365</ele>
        <time>2021-07-17T10:22:41Z</time>
      </trkpt>
      <trkpt lat="37.17569" lon="-3.5859">
        <ele>782.4217</ele>
        <time>2021-07-17T10:22:52Z</time>
      </trkpt>
      <trkpt lat="37.17559" lon="-3.58589">
        <ele>785.8391</ele>
        <time>2021-07-17T10:23:03Z</time>
      </trkpt>
      <trkpt lat="37.17554" lon="-3.58545">
        <ele>787.3347</ele>
        <time>2021-07-17T10:23:14Z</time>
      </trkpt>
      <trkpt lat="37.17549" lon="-3.58531">
        <ele>789.579</ele>
        <time>2021-07-17T10:23:25Z</time>
      </trkpt>
      <trkpt lat="37.17544" lon="-3.58533">
        <ele>789.7294</ele>
        <time>2021-07-17T10:23:36Z</time>
      </trkpt>
      <trkpt lat="37.1754" lon="-3.58533">
        <ele>789.6305</ele>
        <time>2021-07-17T10:23:47Z</time>
      </trkpt>
      <trkpt lat="37.17529" lon="-3.5851">
        <ele>788.9538</ele>
        <time>2021-07-17T10:23:58Z</time>
      </trkpt>
      <trkpt lat="37.17526" lon="-3.58511">
        <ele>789.933</ele>
        <time>2021-07-17T10:24:11Z</time>
      </trkpt>
      <trkpt lat="37.17513" lon="-3.58513">
        <ele>788.7137</ele>
        <time>2021-07-17T10:24:22Z</time>
      </trkpt>
      <trkpt lat="37.17504" lon="-3.58514">
        <ele>784.9771</ele>
        <time>2021-07-17T10:24:33Z</time>
      </trkpt>
      <trkpt lat="37.17496" lon="-3.58516">
        <ele>787.0855</ele>
        <time>2021-07-17T10:24:44Z</time>
      </trkpt>
      <trkpt lat="37.17492" lon="-3.58516">
        <ele>785.9703</ele>
        <time>2021-07-17T10:24:59Z</time>
      </trkpt>
      <trkpt lat="37.17481" lon="-3.58518">
        <ele>787.7556</ele>
        <time>2021-07-17T10:25:10Z</time>
      </trkpt>
      <trkpt lat="37.1747" lon="-3.5852">
        <ele>789.0811</ele>
        <time>2021-07-17T10:25:21Z</time>
      </trkpt>
      <trkpt lat="37.17455" lon="-3.58522">
        <ele>785.0723</ele>
        <time>2021-07-17T10:25:32Z</time>
      </trkpt>
      <trkpt lat="37.17444" lon="-3.58524">
        <ele>783.0233</ele>
        <time>2021-07-17T10:25:43Z</time>
      </trkpt>
      <trkpt lat="37.17439" lon="-3.58524">
        <ele>786.3281</ele>
        <time>2021-07-17T10:25:54Z</time>
      </trkpt>
      <trkpt lat="37.17434" lon="-3.58525">
        <ele>790.4177</ele>
        <time>2021-07-17T10:26:05Z</time>
      </trkpt>
      <trkpt lat="37.17421" lon="-3.58477">
        <ele>784.2777</ele>
        <time>2021-07-17T10:26:16Z</time>
      </trkpt>
      <trkpt lat="37.17418" lon="-3.58461">
        <ele>780.0956</ele>
        <time>2021-07-17T10:26:27Z</time>
      </trkpt>
      <trkpt lat="37.17411" lon="-3.58447">
        <ele>783.6851</ele>
        <time>2021-07-17T10:26:38Z</time>
      </trkpt>
      <trkpt lat="37.1739" lon="-3.58442">
        <ele>785.4774</ele>
        <time>2021-07-17T10:26:49Z</time>
      </trkpt>
      <trkpt lat="37.17383" lon="-3.58425">
        <ele>789.274</ele>
        <time>2021-07-17T10:27:00Z</time>
      </trkpt>
      <trkpt lat="37.17379" lon="-3.58419">
        <ele>785.5227</ele>
        <time>2021-07-17T10:27:11Z</time>
      </trkpt>
      <trkpt lat="37.17374" lon="-3.58415">
        <ele>789.3281</ele>
        <time>2021-07-17T10:27:29Z</time>
      </trkpt>
      <trkpt lat="37.17369" lon="-3.58412">
        <ele>790.0427</ele>
        <time>2021-07-17T10:27:40Z</time>
      </trkpt>
      <trkpt lat="37.17369" lon="-3.58412">
        <ele>790.2513</ele>
        <time>2021-07-17T10:28:39Z</time>
      </trkpt>
      <trkpt lat="37.17369" lon="-3.58412">
        <ele>790.0588</ele>
        <time>2021-07-17T10:29:38Z</time>
      </trkpt>
      <trkpt lat="37.17369" lon="-3.58412">
        <ele>789.9702</ele>
        <time>2021-07-17T10:30:38Z</time>
      </trkpt>
      <trkpt lat="37.17369" lon="-3.58412">
        <ele>790.4186</ele>
        <time>2021-07-17T10:31:37Z</time>
      </trkpt>
      <trkpt lat="37.17355" lon="-3.58407">
        <ele>793.0535</ele>
        <time>2021-07-17T10:31:48Z</time>
      </trkpt>
      <trkpt lat="37.17342" lon="-3.58402">
        <ele>796.5359</ele>
        <time>2021-07-17T10:31:59Z</time>
      </trkpt>
      <trkpt lat="37.17332" lon="-3.58396">
        <ele>798.0416</ele>
        <time>2021-07-17T10:32:10Z</time>
      </trkpt>
      <trkpt lat="37.17327" lon="-3.58392">
        <ele>798.8744</ele>
        <time>2021-07-17T10:32:21Z</time>
      </trkpt>
      <trkpt lat="37.17324" lon="-3.58389">
        <ele>798.746</ele>
        <time>2021-07-17T10:33:02Z</time>
      </trkpt>
      <trkpt lat="37.1732" lon="-3.58383">
        <ele>791.8311</ele>
        <time>2021-07-17T10:33:37Z</time>
      </trkpt>
      <trkpt lat="37.17313" lon="-3.58365">
        <ele>799.4295</ele>
        <time>2021-07-17T10:34:09Z</time>
      </trkpt>
      <trkpt lat="37.17337" lon="-3.58401">
        <ele>797.9064</ele>
        <time>2021-07-17T10:34:20Z</time>
      </trkpt>
      <trkpt lat="37.17345" lon="-3.58404">
        <ele>796.6407</ele>
        <time>2021-07-17T10:34:31Z</time>
      </trkpt>
      <trkpt lat="37.17357" lon="-3.58408">
        <ele>794.5791</ele>
        <time>2021-07-17T10:34:42Z</time>
      </trkpt>
      <trkpt lat="37.17371" lon="-3.58413">
        <ele>792.8265</ele>
        <time>2021-07-17T10:34:53Z</time>
      </trkpt>
      <trkpt lat="37.17379" lon="-3.58419">
        <ele>791.6843</ele>
        <time>2021-07-17T10:35:04Z</time>
      </trkpt>
      <trkpt lat="37.17383" lon="-3.58425">
        <ele>788.974</ele>
        <time>2021-07-17T10:35:15Z</time>
      </trkpt>
      <trkpt lat="37.17383" lon="-3.58425">
        <ele>792.2871</ele>
        <time>2021-07-17T10:36:14Z</time>
      </trkpt>
      <trkpt lat="37.17383" lon="-3.58425">
        <ele>791.207</ele>
        <time>2021-07-17T10:37:14Z</time>
      </trkpt>
      <trkpt lat="37.17385" lon="-3.5843">
        <ele>788.5948</ele>
        <time>2021-07-17T10:37:40Z</time>
      </trkpt>
      <trkpt lat="37.1739" lon="-3.58442">
        <ele>788.9026</ele>
        <time>2021-07-17T10:37:51Z</time>
      </trkpt>
      <trkpt lat="37.1739" lon="-3.58442">
        <ele>791.1409</ele>
        <time>2021-07-17T10:38:50Z</time>
      </trkpt>
      <trkpt lat="37.1739" lon="-3.58442">
        <ele>790.3668</ele>
        <time>2021-07-17T10:39:49Z</time>
      </trkpt>
      <trkpt lat="37.1739" lon="-3.58442">
        <ele>790.1391</ele>
        <time>2021-07-17T10:40:49Z</time>
      </trkpt>
      <trkpt lat="37.1739" lon="-3.58442">
        <ele>795.2072</ele>
        <time>2021-07-17T10:41:49Z</time>
      </trkpt>
      <trkpt lat="37.1739" lon="-3.58442">
        <ele>794.3698</ele>
        <time>2021-07-17T10:42:49Z</time>
      </trkpt>
      <trkpt lat="37.17394" lon="-3.58453">
        <ele>793.991</ele>
        <time>2021-07-17T10:43:09Z</time>
      </trkpt>
      <trkpt lat="37.17432" lon="-3.58516">
        <ele>784.9922</ele>
        <time>2021-07-17T10:43:20Z</time>
      </trkpt>
      <trkpt lat="37.17431" lon="-3.58617">
        <ele>777.8968</ele>
        <time>2021-07-17T10:43:31Z</time>
      </trkpt>
      <trkpt lat="37.17412" lon="-3.58714">
        <ele>772.2473</ele>
        <time>2021-07-17T10:43:42Z</time>
      </trkpt>
      <trkpt lat="37.17407" lon="-3.58826">
        <ele>767.3643</ele>
        <time>2021-07-17T10:43:53Z</time>
      </trkpt>
      <trkpt lat="37.17444" lon="-3.58954">
        <ele>761.9035</ele>
        <time>2021-07-17T10:44:04Z</time>
      </trkpt>
      <trkpt lat="37.17427" lon="-3.58987">
        <ele>763.9537</ele>
        <time>2021-07-17T10:44:15Z</time>
      </trkpt>
      <trkpt lat="37.17424" lon="-3.58988">
        <ele>765.2467</ele>
        <time>2021-07-17T10:44:29Z</time>
      </trkpt>
      <trkpt lat="37.17414" lon="-3.58987">
        <ele>764.7735</ele>
        <time>2021-07-17T10:44:51Z</time>
      </trkpt>
      <trkpt lat="37.17335" lon="-3.5893">
        <ele>747.2257</ele>
        <time>2021-07-17T10:45:02Z</time>
      </trkpt>
      <trkpt lat="37.17258" lon="-3.58881">
        <ele>739.3802</ele>
        <time>2021-07-17T10:45:13Z</time>
      </trkpt>
      <trkpt lat="37.17172" lon="-3.58858">
        <ele>724.7385</ele>
        <time>2021-07-17T10:45:24Z</time>
      </trkpt>
      <trkpt lat="37.17043" lon="-3.58867">
        <ele>710.6592</ele>
        <time>2021-07-17T10:45:35Z</time>
      </trkpt>
      <trkpt lat="37.1698" lon="-3.58925">
        <ele>706.2392</ele>
        <time>2021-07-17T10:45:46Z</time>
      </trkpt>
      <trkpt lat="37.16978" lon="-3.58928">
        <ele>705.6384</ele>
        <time>2021-07-17T10:45:57Z</time>
      </trkpt>
      <trkpt lat="37.16972" lon="-3.58918">
        <ele>705.3299</ele>
        <time>2021-07-17T10:46:17Z</time>
      </trkpt>
      <trkpt lat="37.16936" lon="-3.58844">
        <ele>702.8351</ele>
        <time>2021-07-17T10:46:28Z</time>
      </trkpt>
      <trkpt lat="37.16898" lon="-3.58758">
        <ele>696.9393</ele>
        <time>2021-07-17T10:46:39Z</time>
      </trkpt>
      <trkpt lat="37.16884" lon="-3.58795">
        <ele>693.8229</ele>
        <time>2021-07-17T10:46:50Z</time>
      </trkpt>
      <trkpt lat="37.16908" lon="-3.58928">
        <ele>683.5848</ele>
        <time>2021-07-17T10:47:01Z</time>
      </trkpt>
      <trkpt lat="37.16935" lon="-3.59073">
        <ele>675.6888</ele>
        <time>2021-07-17T10:47:12Z</time>
      </trkpt>
      <trkpt lat="37.16917" lon="-3.59119">
        <ele>672.9137</ele>
        <time>2021-07-17T10:47:23Z</time>
      </trkpt>
      <trkpt lat="37.16946" lon="-3.59203">
        <ele>673.152</ele>
        <time>2021-07-17T10:47:34Z</time>
      </trkpt>
      <trkpt lat="37.16982" lon="-3.59353">
        <ele>674.9819</ele>
        <time>2021-07-17T10:47:45Z</time>
      </trkpt>
      <trkpt lat="37.16965" lon="-3.59504">
        <ele>673.6635</ele>
        <time>2021-07-17T10:47:56Z</time>
      </trkpt>
      <trkpt lat="37.16941" lon="-3.59621">
        <ele>672.9463</ele>
        <time>2021-07-17T10:48:07Z</time>
      </trkpt>
      <trkpt lat="37.16927" lon="-3.59649">
        <ele>671.6075</ele>
        <time>2021-07-17T10:48:18Z</time>
      </trkpt>
      <trkpt lat="37.16895" lon="-3.59687">
        <ele>672.7223</ele>
        <time>2021-07-17T10:48:29Z</time>
      </trkpt>
      <trkpt lat="37.16878" lon="-3.59674">
        <ele>674.6761</ele>
        <time>2021-07-17T10:48:40Z</time>
      </trkpt>
      <trkpt lat="37.16819" lon="-3.59645">
        <ele>676.7221</ele>
        <time>2021-07-17T10:48:51Z</time>
      </trkpt>
      <trkpt lat="37.1675" lon="-3.59647">
        <ele>675.7031</ele>
        <time>2021-07-17T10:49:02Z</time>
      </trkpt>
      <trkpt lat="37.1671" lon="-3.59717">
        <ele>682.7876</ele>
        <time>2021-07-17T10:49:13Z</time>
      </trkpt>
      <trkpt lat="37.16679" lon="-3.59785">
        <ele>687.8136</ele>
        <time>2021-07-17T10:49:24Z</time>
      </trkpt>
      <trkpt lat="37.16647" lon="-3.59863">
        <ele>681.5026</ele>
        <time>2021-07-17T10:49:35Z</time>
      </trkpt>
      <trkpt lat="37.16588" lon="-3.59889">
        <ele>668.7118</ele>
        <time>2021-07-17T10:49:46Z</time>
      </trkpt>
      <trkpt lat="37.16519" lon="-3.59948">
        <ele>668.7593</ele>
        <time>2021-07-17T10:49:57Z</time>
      </trkpt>
      <trkpt lat="37.16456" lon="-3.6">
        <ele>667.2316</ele>
        <time>2021-07-17T10:50:08Z</time>
      </trkpt>
      <trkpt lat="37.16344" lon="-3.60094">
        <ele>665.8149</ele>
        <time>2021-07-17T10:50:19Z</time>
      </trkpt>
      <trkpt lat="37.1634" lon="-3.60156">
        <ele>670.8094</ele>
        <time>2021-07-17T10:50:30Z</time>
      </trkpt>
      <trkpt lat="37.16382" lon="-3.6019">
        <ele>675.3335</ele>
        <time>2021-07-17T10:50:41Z</time>
      </trkpt>
      <trkpt lat="37.16444" lon="-3.6023">
        <ele>684.4375</ele>
        <time>2021-07-17T10:50:52Z</time>
      </trkpt>
      <trkpt lat="37.16479" lon="-3.60251">
        <ele>687.4015</ele>
        <time>2021-07-17T10:51:03Z</time>
      </trkpt>
      <trkpt lat="37.16509" lon="-3.60272">
        <ele>695.5644</ele>
        <time>2021-07-17T10:51:20Z</time>
      </trkpt>
      <trkpt lat="37.1656" lon="-3.603">
        <ele>688.7151</ele>
        <time>2021-07-17T10:51:31Z</time>
      </trkpt>
      <trkpt lat="37.16621" lon="-3.6034">
        <ele>687.371</ele>
        <time>2021-07-17T10:51:42Z</time>
      </trkpt>
      <trkpt lat="37.16688" lon="-3.60378">
        <ele>684.5696</ele>
        <time>2021-07-17T10:51:53Z</time>
      </trkpt>
      <trkpt lat="37.1673" lon="-3.60405">
        <ele>690.1649</ele>
        <time>2021-07-17T10:52:04Z</time>
      </trkpt>
      <trkpt lat="37.16736" lon="-3.60408">
        <ele>694.6432</ele>
        <time>2021-07-17T10:52:15Z</time>
      </trkpt>
      <trkpt lat="37.16741" lon="-3.60411">
        <ele>695.4251</ele>
        <time>2021-07-17T10:52:35Z</time>
      </trkpt>
      <trkpt lat="37.16804" lon="-3.6045">
        <ele>693.2181</ele>
        <time>2021-07-17T10:52:46Z</time>
      </trkpt>
      <trkpt lat="37.16861" lon="-3.60485">
        <ele>695.6642</ele>
        <time>2021-07-17T10:52:57Z</time>
      </trkpt>
      <trkpt lat="37.16902" lon="-3.6051">
        <ele>700.2476</ele>
        <time>2021-07-17T10:53:08Z</time>
      </trkpt>
      <trkpt lat="37.16984" lon="-3.6056">
        <ele>702.0651</ele>
        <time>2021-07-17T10:53:19Z</time>
      </trkpt>
      <trkpt lat="37.1705" lon="-3.60601">
        <ele>703.6142</ele>
        <time>2021-07-17T10:53:30Z</time>
      </trkpt>
      <trkpt lat="37.17084" lon="-3.60624">
        <ele>711.4632</ele>
        <time>2021-07-17T10:53:41Z</time>
      </trkpt>
      <trkpt lat="37.17089" lon="-3.60624">
        <ele>718.7218</ele>
        <time>2021-07-17T10:54:25Z</time>
      </trkpt>
      <trkpt lat="37.17118" lon="-3.60632">
        <ele>719.1615</ele>
        <time>2021-07-17T10:54:36Z</time>
      </trkpt>
      <trkpt lat="37.1721" lon="-3.607">
        <ele>714.4108</ele>
        <time>2021-07-17T10:54:47Z</time>
      </trkpt>
      <trkpt lat="37.17273" lon="-3.60737">
        <ele>706.0188</ele>
        <time>2021-07-17T10:54:58Z</time>
      </trkpt>
      <trkpt lat="37.17353" lon="-3.60785">
        <ele>703.6543</ele>
        <time>2021-07-17T10:55:09Z</time>
      </trkpt>
      <trkpt lat="37.17404" lon="-3.60815">
        <ele>699.897</ele>
        <time>2021-07-17T10:55:20Z</time>
      </trkpt>
      <trkpt lat="37.17409" lon="-3.60818">
        <ele>702.5804</ele>
        <time>2021-07-17T10:55:31Z</time>
      </trkpt>
      <trkpt lat="37.17418" lon="-3.60824">
        <ele>711.0999</ele>
        <time>2021-07-17T10:55:42Z</time>
      </trkpt>
      <trkpt lat="37.1748" lon="-3.60864">
        <ele>707.3373</ele>
        <time>2021-07-17T10:55:53Z</time>
      </trkpt>
      <trkpt lat="37.17515" lon="-3.60886">
        <ele>704.0719</ele>
        <time>2021-07-17T10:56:04Z</time>
      </trkpt>
      <trkpt lat="37.1763" lon="-3.60955">
        <ele>699.2079</ele>
        <time>2021-07-17T10:56:15Z</time>
      </trkpt>
      <trkpt lat="37.17741" lon="-3.61021">
        <ele>694.0668</ele>
        <time>2021-07-17T10:56:26Z</time>
      </trkpt>
      <trkpt lat="37.17774" lon="-3.61035">
        <ele>691.3881</ele>
        <time>2021-07-17T10:56:37Z</time>
      </trkpt>
      <trkpt lat="37.1778" lon="-3.61034">
        <ele>687.3775</ele>
        <time>2021-07-17T10:56:48Z</time>
      </trkpt>
      <trkpt lat="37.17795" lon="-3.61026">
        <ele>683.4246</ele>
        <time>2021-07-17T10:56:59Z</time>
      </trkpt>
      <trkpt lat="37.17812" lon="-3.60989">
        <ele>686.8869</ele>
        <time>2021-07-17T10:57:10Z</time>
      </trkpt>
      <trkpt lat="37.17829" lon="-3.60941">
        <ele>693.245</ele>
        <time>2021-07-17T10:57:21Z</time>
      </trkpt>
      <trkpt lat="37.17941" lon="-3.60806">
        <ele>685.8323</ele>
        <time>2021-07-17T10:57:32Z</time>
      </trkpt>
      <trkpt lat="37.18044" lon="-3.6068">
        <ele>683.7611</ele>
        <time>2021-07-17T10:57:43Z</time>
      </trkpt>
      <trkpt lat="37.18138" lon="-3.60608">
        <ele>681.0038</ele>
        <time>2021-07-17T10:57:54Z</time>
      </trkpt>
      <trkpt lat="37.1824" lon="-3.60555">
        <ele>686.9368</ele>
        <time>2021-07-17T10:58:05Z</time>
      </trkpt>
      <trkpt lat="37.18384" lon="-3.60478">
        <ele>685.6971</ele>
        <time>2021-07-17T10:58:16Z</time>
      </trkpt>
      <trkpt lat="37.18537" lon="-3.60409">
        <ele>692.5541</ele>
        <time>2021-07-17T10:58:27Z</time>
      </trkpt>
      <trkpt lat="37.18664" lon="-3.60373">
        <ele>709.5125</ele>
        <time>2021-07-17T10:58:38Z</time>
      </trkpt>
      <trkpt lat="37.1872" lon="-3.60306">
        <ele>710.8528</ele>
        <time>2021-07-17T10:58:49Z</time>
      </trkpt>
      <trkpt lat="37.18756" lon="-3.60124">
        <ele>714.9657</ele>
        <time>2021-07-17T10:59:00Z</time>
      </trkpt>
      <trkpt lat="37.18803" lon="-3.59981">
        <ele>719.2351</ele>
        <time>2021-07-17T10:59:11Z</time>
      </trkpt>
      <trkpt lat="37.18723" lon="-3.59902">
        <ele>724.4301</ele>
        <time>2021-07-17T10:59:22Z</time>
      </trkpt>
      <trkpt lat="37.18621" lon="-3.59911">
        <ele>729.0285</ele>
        <time>2021-07-17T10:59:33Z</time>
      </trkpt>
      <trkpt lat="37.18598" lon="-3.59798">
        <ele>740.7781</ele>
        <time>2021-07-17T10:59:44Z</time>
      </trkpt>
      <trkpt lat="37.18534" lon="-3.59709">
        <ele>744.6577</ele>
        <time>2021-07-17T10:59:55Z</time>
      </trkpt>
      <trkpt lat="37.18501" lon="-3.59662">
        <ele>749.6912</ele>
        <time>2021-07-17T11:00:06Z</time>
      </trkpt>
      <trkpt lat="37.18509" lon="-3.59786">
        <ele>748.121</ele>
        <time>2021-07-17T11:00:17Z</time>
      </trkpt>
      <trkpt lat="37.18526" lon="-3.59821">
        <ele>747.4808</ele>
        <time>2021-07-17T11:00:28Z</time>
      </trkpt>
      <trkpt lat="37.18512" lon="-3.59856">
        <ele>748.8778</ele>
        <time>2021-07-17T11:00:39Z</time>
      </trkpt>
      <trkpt lat="37.18469" lon="-3.59801">
        <ele>754.1265</ele>
        <time>2021-07-17T11:00:50Z</time>
      </trkpt>
      <trkpt lat="37.18373" lon="-3.59729">
        <ele>763.376</ele>
        <time>2021-07-17T11:01:01Z</time>
      </trkpt>
      <trkpt lat="37.18318" lon="-3.59635">
        <ele>767.8636</ele>
        <time>2021-07-17T11:01:12Z</time>
      </trkpt>
      <trkpt lat="37.18381" lon="-3.5956">
        <ele>774.7229</ele>
        <time>2021-07-17T11:01:23Z</time>
      </trkpt>
      <trkpt lat="37.18428" lon="-3.59433">
        <ele>770.0447</ele>
        <time>2021-07-17T11:01:34Z</time>
      </trkpt>
      <trkpt lat="37.18443" lon="-3.59392">
        <ele>770.2416</ele>
        <time>2021-07-17T11:01:45Z</time>
      </trkpt>
      <trkpt lat="37.18446" lon="-3.59387">
        <ele>768.1431</ele>
        <time>2021-07-17T11:01:56Z</time>
      </trkpt>
      <trkpt lat="37.18408" lon="-3.59346">
        <ele>771.4308</ele>
        <time>2021-07-17T11:02:07Z</time>
      </trkpt>
      <trkpt lat="37.18431" lon="-3.59307">
        <ele>771.2872</ele>
        <time>2021-07-17T11:02:18Z</time>
      </trkpt>
      <trkpt lat="37.18449" lon="-3.59287">
        <ele>770.4365</ele>
        <time>2021-07-17T11:02:29Z</time>
      </trkpt>
      <trkpt lat="37.18464" lon="-3.5928">
        <ele>774.2265</ele>
        <time>2021-07-17T11:02:40Z</time>
      </trkpt>
      <trkpt lat="37.18494" lon="-3.59247">
        <ele>777.0544</ele>
        <time>2021-07-17T11:02:51Z</time>
      </trkpt>
      <trkpt lat="37.18553" lon="-3.59198">
        <ele>785.9284</ele>
        <time>2021-07-17T11:03:02Z</time>
      </trkpt>
      <trkpt lat="37.18564" lon="-3.59181">
        <ele>786.8286</ele>
        <time>2021-07-17T11:03:13Z</time>
      </trkpt>
      <trkpt lat="37.18577" lon="-3.59144">
        <ele>789.3528</ele>
        <time>2021-07-17T11:03:24Z</time>
      </trkpt>
      <trkpt lat="37.18568" lon="-3.59085">
        <ele>799.8997</ele>
        <time>2021-07-17T11:03:35Z</time>
      </trkpt>
      <trkpt lat="37.18525" lon="-3.59043">
        <ele>800.8718</ele>
        <time>2021-07-17T11:03:46Z</time>
      </trkpt>
      <trkpt lat="37.18498" lon="-3.59008">
        <ele>799.9132</ele>
        <time>2021-07-17T11:03:57Z</time>
      </trkpt>
      <trkpt lat="37.18492" lon="-3.59003">
        <ele>799.9933</ele>
        <time>2021-07-17T11:04:08Z</time>
      </trkpt>
      <trkpt lat="37.18491" lon="-3.59002">
        <ele>798.5967</ele>
        <time>2021-07-17T11:05:07Z</time>
      </trkpt>
      <trkpt lat="37.18491" lon="-3.59002">
        <ele>800.1316</ele>
        <time>2021-07-17T11:06:07Z</time>
      </trkpt>
      <trkpt lat="37.18491" lon="-3.59002">
        <ele>800.7426</ele>
        <time>2021-07-17T11:07:07Z</time>
      </trkpt>
      <trkpt lat="37.18526" lon="-3.59046">
        <ele>801.1192</ele>
        <time>2021-07-17T11:07:18Z</time>
      </trkpt>
      <trkpt lat="37.18554" lon="-3.59072">
        <ele>799.1253</ele>
        <time>2021-07-17T11:07:29Z</time>
      </trkpt>
      <trkpt lat="37.18581" lon="-3.5909">
        <ele>797.1605</ele>
        <time>2021-07-17T11:07:40Z</time>
      </trkpt>
      <trkpt lat="37.18576" lon="-3.5915">
        <ele>788.9092</ele>
        <time>2021-07-17T11:07:51Z</time>
      </trkpt>
      <trkpt lat="37.18607" lon="-3.59153">
        <ele>788.9645</ele>
        <time>2021-07-17T11:08:02Z</time>
      </trkpt>
      <trkpt lat="37.18653" lon="-3.59146">
        <ele>796.7119</ele>
        <time>2021-07-17T11:08:13Z</time>
      </trkpt>
      <trkpt lat="37.18701" lon="-3.59154">
        <ele>803.0648</ele>
        <time>2021-07-17T11:08:24Z</time>
      </trkpt>
      <trkpt lat="37.18696" lon="-3.59231">
        <ele>794.2488</ele>
        <time>2021-07-17T11:08:35Z</time>
      </trkpt>
      <trkpt lat="37.18691" lon="-3.59261">
        <ele>791.7076</ele>
        <time>2021-07-17T11:08:46Z</time>
      </trkpt>
      <trkpt lat="37.18689" lon="-3.59276">
        <ele>790.5547</ele>
        <time>2021-07-17T11:08:57Z</time>
      </trkpt>
      <trkpt lat="37.18684" lon="-3.59342">
        <ele>787.0894</ele>
        <time>2021-07-17T11:09:08Z</time>
      </trkpt>
      <trkpt lat="37.18668" lon="-3.59433">
        <ele>779.9722</ele>
        <time>2021-07-17T11:09:19Z</time>
      </trkpt>
      <trkpt lat="37.18618" lon="-3.59504">
        <ele>769.5005</ele>
        <time>2021-07-17T11:09:30Z</time>
      </trkpt>
      <trkpt lat="37.18556" lon="-3.5957">
        <ele>756.5931</ele>
        <time>2021-07-17T11:09:41Z</time>
      </trkpt>
      <trkpt lat="37.18535" lon="-3.59634">
        <ele>747.9991</ele>
        <time>2021-07-17T11:09:52Z</time>
      </trkpt>
      <trkpt lat="37.18512" lon="-3.59704">
        <ele>741.968</ele>
        <time>2021-07-17T11:10:03Z</time>
      </trkpt>
      <trkpt lat="37.18554" lon="-3.5979">
        <ele>732.4468</ele>
        <time>2021-07-17T11:10:14Z</time>
      </trkpt>
      <trkpt lat="37.18584" lon="-3.59874">
        <ele>724.6317</ele>
        <time>2021-07-17T11:10:25Z</time>
      </trkpt>
      <trkpt lat="37.18582" lon="-3.59963">
        <ele>713.9418</ele>
        <time>2021-07-17T11:10:36Z</time>
      </trkpt>
      <trkpt lat="37.18583" lon="-3.59995">
        <ele>710.6956</ele>
        <time>2021-07-17T11:10:47Z</time>
      </trkpt>
      <trkpt lat="37.18499" lon="-3.60017">
        <ele>697.4647</ele>
        <time>2021-07-17T11:10:58Z</time>
      </trkpt>
      <trkpt lat="37.1841" lon="-3.60085">
        <ele>689.7835</ele>
        <time>2021-07-17T11:11:09Z</time>
      </trkpt>
      <trkpt lat="37.18331" lon="-3.60169">
        <ele>685.5311</ele>
        <time>2021-07-17T11:11:20Z</time>
      </trkpt>
      <trkpt lat="37.18321" lon="-3.60183">
        <ele>686.0484</ele>
        <time>2021-07-17T11:11:31Z</time>
      </trkpt>
      <trkpt lat="37.18318" lon="-3.60192">
        <ele>682.4025</ele>
        <time>2021-07-17T11:11:49Z</time>
      </trkpt>
      <trkpt lat="37.1829" lon="-3.60229">
        <ele>685.0453</ele>
        <time>2021-07-17T11:12:00Z</time>
      </trkpt>
      <trkpt lat="37.18269" lon="-3.60159">
        <ele>691.4398</ele>
        <time>2021-07-17T11:12:11Z</time>
      </trkpt>
      <trkpt lat="37.18218" lon="-3.60105">
        <ele>686.3944</ele>
        <time>2021-07-17T11:12:22Z</time>
      </trkpt>
      <trkpt lat="37.18195" lon="-3.60092">
        <ele>686.6388</ele>
        <time>2021-07-17T11:12:33Z</time>
      </trkpt>
      <trkpt lat="37.18186" lon="-3.60087">
        <ele>686.9808</ele>
        <time>2021-07-17T11:13:01Z</time>
      </trkpt>
      <trkpt lat="37.18138" lon="-3.6006">
        <ele>687.3214</ele>
        <time>2021-07-17T11:13:12Z</time>
      </trkpt>
      <trkpt lat="37.18087" lon="-3.60033">
        <ele>686.1936</ele>
        <time>2021-07-17T11:13:23Z</time>
      </trkpt>
      <trkpt lat="37.18003" lon="-3.59987">
        <ele>685.7413</ele>
        <time>2021-07-17T11:13:34Z</time>
      </trkpt>
      <trkpt lat="37.17927" lon="-3.59945">
        <ele>686.1042</ele>
        <time>2021-07-17T11:13:45Z</time>
      </trkpt>
      <trkpt lat="37.17922" lon="-3.59942">
        <ele>686.5563</ele>
        <time>2021-07-17T11:13:56Z</time>
      </trkpt>
      <trkpt lat="37.17918" lon="-3.5994">
        <ele>687.3324</ele>
        <time>2021-07-17T11:14:07Z</time>
      </trkpt>
      <trkpt lat="37.17874" lon="-3.59916">
        <ele>687.1242</ele>
        <time>2021-07-17T11:14:18Z</time>
      </trkpt>
      <trkpt lat="37.17799" lon="-3.59875">
        <ele>689.6819</ele>
        <time>2021-07-17T11:14:29Z</time>
      </trkpt>
      <trkpt lat="37.17716" lon="-3.59829">
        <ele>690.256</ele>
        <time>2021-07-17T11:14:40Z</time>
      </trkpt>
      <trkpt lat="37.17644" lon="-3.5979">
        <ele>689.4721</ele>
        <time>2021-07-17T11:14:51Z</time>
      </trkpt>
      <trkpt lat="37.17629" lon="-3.59782">
        <ele>690.2503</ele>
        <time>2021-07-17T11:15:02Z</time>
      </trkpt>
      <trkpt lat="37.17613" lon="-3.59773">
        <ele>689.5097</ele>
        <time>2021-07-17T11:15:13Z</time>
      </trkpt>
      <trkpt lat="37.1758" lon="-3.59755">
        <ele>690.9336</ele>
        <time>2021-07-17T11:15:24Z</time>
      </trkpt>
      <trkpt lat="37.17576" lon="-3.59763">
        <ele>692.9223</ele>
        <time>2021-07-17T11:15:35Z</time>
      </trkpt>
      <trkpt lat="37.17571" lon="-3.59771">
        <ele>691.5274</ele>
        <time>2021-07-17T11:15:46Z</time>
      </trkpt>
      <trkpt lat="37.17532" lon="-3.59828">
        <ele>689.4833</ele>
        <time>2021-07-17T11:15:57Z</time>
      </trkpt>
      <trkpt lat="37.17457" lon="-3.59885">
        <ele>685.0403</ele>
        <time>2021-07-17T11:16:08Z</time>
      </trkpt>
      <trkpt lat="37.17391" lon="-3.5993">
        <ele>680.0693</ele>
        <time>2021-07-17T11:16:19Z</time>
      </trkpt>
      <trkpt lat="37.17371" lon="-3.59944">
        <ele>681.4484</ele>
        <time>2021-07-17T11:16:30Z</time>
      </trkpt>
      <trkpt lat="37.17366" lon="-3.59947">
        <ele>682.7167</ele>
        <time>2021-07-17T11:17:12Z</time>
      </trkpt>
      <trkpt lat="37.17286" lon="-3.59951">
        <ele>680.2743</ele>
        <time>2021-07-17T11:17:23Z</time>
      </trkpt>
      <trkpt lat="37.17183" lon="-3.59896">
        <ele>679.1113</ele>
        <time>2021-07-17T11:17:34Z</time>
      </trkpt>
      <trkpt lat="37.17089" lon="-3.5984">
        <ele>673.674</ele>
        <time>2021-07-17T11:17:45Z</time>
      </trkpt>
      <trkpt lat="37.17049" lon="-3.59813">
        <ele>672.3089</ele>
        <time>2021-07-17T11:17:56Z</time>
      </trkpt>
      <trkpt lat="37.16995" lon="-3.59771">
        <ele>672.6902</ele>
        <time>2021-07-17T11:18:07Z</time>
      </trkpt>
      <trkpt lat="37.16928" lon="-3.59714">
        <ele>671.9724</ele>
        <time>2021-07-17T11:18:18Z</time>
      </trkpt>
      <trkpt lat="37.16924" lon="-3.5971">
        <ele>672.19</ele>
        <time>2021-07-17T11:18:29Z</time>
      </trkpt>
      <trkpt lat="37.16919" lon="-3.59706">
        <ele>671.9906</ele>
        <time>2021-07-17T11:18:40Z</time>
      </trkpt>
      <trkpt lat="37.16895" lon="-3.59687">
        <ele>671.4991</ele>
        <time>2021-07-17T11:18:51Z</time>
      </trkpt>
      <trkpt lat="37.16799" lon="-3.59641">
        <ele>669.5172</ele>
        <time>2021-07-17T11:19:02Z</time>
      </trkpt>
      <trkpt lat="37.16735" lon="-3.59664">
        <ele>671.9205</ele>
        <time>2021-07-17T11:19:13Z</time>
      </trkpt>
      <trkpt lat="37.16717" lon="-3.59703">
        <ele>676.7723</ele>
        <time>2021-07-17T11:19:24Z</time>
      </trkpt>
      <trkpt lat="37.16684" lon="-3.59775">
        <ele>680.8304</ele>
        <time>2021-07-17T11:19:35Z</time>
      </trkpt>
      <trkpt lat="37.16675" lon="-3.59842">
        <ele>672.7171</ele>
        <time>2021-07-17T11:19:46Z</time>
      </trkpt>
      <trkpt lat="37.16602" lon="-3.59877">
        <ele>671.6331</ele>
        <time>2021-07-17T11:19:57Z</time>
      </trkpt>
      <trkpt lat="37.16538" lon="-3.59931">
        <ele>666.9077</ele>
        <time>2021-07-17T11:20:08Z</time>
      </trkpt>
      <trkpt lat="37.16467" lon="-3.59992">
        <ele>667.1617</ele>
        <time>2021-07-17T11:20:19Z</time>
      </trkpt>
      <trkpt lat="37.16386" lon="-3.60054">
        <ele>667.0117</ele>
        <time>2021-07-17T11:20:30Z</time>
      </trkpt>
      <trkpt lat="37.163" lon="-3.60157">
        <ele>661.7554</ele>
        <time>2021-07-17T11:20:41Z</time>
      </trkpt>
      <trkpt lat="37.16231" lon="-3.60275">
        <ele>661.2264</ele>
        <time>2021-07-17T11:20:52Z</time>
      </trkpt>
      <trkpt lat="37.16161" lon="-3.60375">
        <ele>677.8729</ele>
        <time>2021-07-17T11:21:03Z</time>
      </trkpt>
      <trkpt lat="37.16121" lon="-3.6044">
        <ele>673.4747</ele>
        <time>2021-07-17T11:21:14Z</time>
      </trkpt>
      <trkpt lat="37.16085" lon="-3.60493">
        <ele>669.8504</ele>
        <time>2021-07-17T11:21:25Z</time>
      </trkpt>
      <trkpt lat="37.16007" lon="-3.60553">
        <ele>668.7487</ele>
        <time>2021-07-17T11:21:36Z</time>
      </trkpt>
      <trkpt lat="37.15922" lon="-3.60618">
        <ele>671.2489</ele>
        <time>2021-07-17T11:21:47Z</time>
      </trkpt>
      <trkpt lat="37.15879" lon="-3.6066">
        <ele>677.0227</ele>
        <time>2021-07-17T11:21:58Z</time>
      </trkpt>
      <trkpt lat="37.15864" lon="-3.60682">
        <ele>679.4779</ele>
        <time>2021-07-17T11:22:09Z</time>
      </trkpt>
      <trkpt lat="37.15837" lon="-3.60726">
        <ele>676.863</ele>
        <time>2021-07-17T11:22:20Z</time>
      </trkpt>
      <trkpt lat="37.159" lon="-3.60625">
        <ele>676.4182</ele>
        <time>2021-07-17T11:22:31Z</time>
      </trkpt>
      <trkpt lat="37.15956" lon="-3.60581">
        <ele>674.996</ele>
        <time>2021-07-17T11:22:42Z</time>
      </trkpt>
      <trkpt lat="37.15956" lon="-3.60581">
        <ele>681.8549</ele>
        <time>2021-07-17T11:23:42Z</time>
      </trkpt>
      <trkpt lat="37.15956" lon="-3.60581">
        <ele>682.7388</ele>
        <time>2021-07-17T11:24:41Z</time>
      </trkpt>
      <trkpt lat="37.15956" lon="-3.60581">
        <ele>676.0511</ele>
        <time>2021-07-17T11:25:41Z</time>
      </trkpt>
      <trkpt lat="37.15956" lon="-3.60581">
        <ele>672.4144</ele>
        <time>2021-07-17T11:26:40Z</time>
      </trkpt>
      <trkpt lat="37.15957" lon="-3.6058">
        <ele>671.8853</ele>
        <time>2021-07-17T11:27:40Z</time>
      </trkpt>
      <trkpt lat="37.15958" lon="-3.60579">
        <ele>676.8926</ele>
        <time>2021-07-17T11:28:39Z</time>
      </trkpt>
      <trkpt lat="37.15956" lon="-3.60581">
        <ele>663.6565</ele>
        <time>2021-07-17T11:29:39Z</time>
      </trkpt>
      <trkpt lat="37.15956" lon="-3.60581">
        <ele>663.5737</ele>
        <time>2021-07-17T11:30:39Z</time>
      </trkpt>
      <trkpt lat="37.15956" lon="-3.60581">
        <ele>663.6799</ele>
        <time>2021-07-17T11:31:39Z</time>
      </trkpt>
      <trkpt lat="37.15956" lon="-3.60581">
        <ele>663.2762</ele>
        <time>2021-07-17T11:32:39Z</time>
      </trkpt>
      <trkpt lat="37.15956" lon="-3.60581">
        <ele>663.692</ele>
        <time>2021-07-17T11:33:39Z</time>
      </trkpt>
      <trkpt lat="37.15956" lon="-3.60581">
        <ele>664.5447</ele>
        <time>2021-07-17T11:34:38Z</time>
      </trkpt>
      <trkpt lat="37.15956" lon="-3.60581">
        <ele>662.6549</ele>
        <time>2021-07-17T11:35:37Z</time>
      </trkpt>
      <trkpt lat="37.15956" lon="-3.60581">
        <ele>663.7821</ele>
        <time>2021-07-17T11:36:36Z</time>
      </trkpt>
      <trkpt lat="37.15956" lon="-3.60581">
        <ele>663.8266</ele>
        <time>2021-07-17T11:37:36Z</time>
      </trkpt>
      <trkpt lat="37.15956" lon="-3.60581">
        <ele>663.2147</ele>
        <time>2021-07-17T11:38:36Z</time>
      </trkpt>
      <trkpt lat="37.15956" lon="-3.60581">
        <ele>663.5672</ele>
        <time>2021-07-17T11:39:35Z</time>
      </trkpt>
      <trkpt lat="37.15956" lon="-3.60581">
        <ele>663.4141</ele>
        <time>2021-07-17T11:40:35Z</time>
      </trkpt>
      <trkpt lat="37.15956" lon="-3.60581">
        <ele>664.443</ele>
        <time>2021-07-17T11:41:35Z</time>
      </trkpt>
      <trkpt lat="37.15956" lon="-3.60581">
        <ele>663.7926</ele>
        <time>2021-07-17T11:42:34Z</time>
      </trkpt>
      <trkpt lat="37.15956" lon="-3.60581">
        <ele>664.0695</ele>
        <time>2021-07-17T11:43:34Z</time>
      </trkpt>
      <trkpt lat="37.15932" lon="-3.60554">
        <ele>663.6292</ele>
        <time>2021-07-17T11:44:02Z</time>
      </trkpt>
      <trkpt lat="37.15961" lon="-3.60577">
        <ele>664.3199</ele>
        <time>2021-07-17T11:44:13Z</time>
      </trkpt>
      <trkpt lat="37.15996" lon="-3.6055">
        <ele>665.7744</ele>
        <time>2021-07-17T11:44:24Z</time>
      </trkpt>
      <trkpt lat="37.16077" lon="-3.60449">
        <ele>664.5074</ele>
        <time>2021-07-17T11:44:35Z</time>
      </trkpt>
      <trkpt lat="37.16082" lon="-3.60495">
        <ele>664.4189</ele>
        <time>2021-07-17T11:44:46Z</time>
      </trkpt>
      <trkpt lat="37.15993" lon="-3.60564">
        <ele>663.1315</ele>
        <time>2021-07-17T11:44:57Z</time>
      </trkpt>
      <trkpt lat="37.15909" lon="-3.60628">
        <ele>662.4529</ele>
        <time>2021-07-17T11:45:08Z</time>
      </trkpt>
      <trkpt lat="37.15895" lon="-3.60643">
        <ele>664.2536</ele>
        <time>2021-07-17T11:45:19Z</time>
      </trkpt>
      <trkpt lat="37.15888" lon="-3.6065">
        <ele>663.7196</ele>
        <time>2021-07-17T11:45:30Z</time>
      </trkpt>
      <trkpt lat="37.15881" lon="-3.60658">
        <ele>663.0963</ele>
        <time>2021-07-17T11:45:42Z</time>
      </trkpt>
      <trkpt lat="37.15861" lon="-3.60704">
        <ele>662.3972</ele>
        <time>2021-07-17T11:45:53Z</time>
      </trkpt>
      <trkpt lat="37.15797" lon="-3.60783">
        <ele>662.9089</ele>
        <time>2021-07-17T11:46:04Z</time>
      </trkpt>
      <trkpt lat="37.15735" lon="-3.60855">
        <ele>661.031</ele>
        <time>2021-07-17T11:46:15Z</time>
      </trkpt>
      <trkpt lat="37.15695" lon="-3.60888">
        <ele>661.8197</ele>
        <time>2021-07-17T11:46:26Z</time>
      </trkpt>
      <trkpt lat="37.15679" lon="-3.60901">
        <ele>666.1108</ele>
        <time>2021-07-17T11:46:37Z</time>
      </trkpt>
      <trkpt lat="37.15675" lon="-3.60904">
        <ele>676.3632</ele>
        <time>2021-07-17T11:47:15Z</time>
      </trkpt>
      <trkpt lat="37.15615" lon="-3.60952">
        <ele>674.0879</ele>
        <time>2021-07-17T11:47:26Z</time>
      </trkpt>
      <trkpt lat="37.15536" lon="-3.61018">
        <ele>666.4241</ele>
        <time>2021-07-17T11:47:37Z</time>
      </trkpt>
      <trkpt lat="37.15446" lon="-3.61109">
        <ele>666.5216</ele>
        <time>2021-07-17T11:47:48Z</time>
      </trkpt>
      <trkpt lat="37.1537" lon="-3.61193">
        <ele>662.8817</ele>
        <time>2021-07-17T11:47:59Z</time>
      </trkpt>
      <trkpt lat="37.15344" lon="-3.61222">
        <ele>663.0018</ele>
        <time>2021-07-17T11:48:10Z</time>
      </trkpt>
      <trkpt lat="37.15325" lon="-3.61243">
        <ele>663.7211</ele>
        <time>2021-07-17T11:48:21Z</time>
      </trkpt>
      <trkpt lat="37.15305" lon="-3.61313">
        <ele>665.4204</ele>
        <time>2021-07-17T11:48:32Z</time>
      </trkpt>
      <trkpt lat="37.15203" lon="-3.61291">
        <ele>667.5686</ele>
        <time>2021-07-17T11:48:43Z</time>
      </trkpt>
      <trkpt lat="37.15067" lon="-3.61228">
        <ele>672.1177</ele>
        <time>2021-07-17T11:48:54Z</time>
      </trkpt>
      <trkpt lat="37.14934" lon="-3.61172">
        <ele>668.0724</ele>
        <time>2021-07-17T11:49:05Z</time>
      </trkpt>
      <trkpt lat="37.14833" lon="-3.61127">
        <ele>668.8667</ele>
        <time>2021-07-17T11:49:16Z</time>
      </trkpt>
      <trkpt lat="37.14733" lon="-3.61082">
        <ele>670.0897</ele>
        <time>2021-07-17T11:49:27Z</time>
      </trkpt>
      <trkpt lat="37.147" lon="-3.61074">
        <ele>669.7619</ele>
        <time>2021-07-17T11:49:38Z</time>
      </trkpt>
      <trkpt lat="37.14624" lon="-3.61082">
        <ele>668.3631</ele>
        <time>2021-07-17T11:49:49Z</time>
      </trkpt>
      <trkpt lat="37.14497" lon="-3.61169">
        <ele>671.6453</ele>
        <time>2021-07-17T11:50:00Z</time>
      </trkpt>
      <trkpt lat="37.14403" lon="-3.613">
        <ele>670.0544</ele>
        <time>2021-07-17T11:50:11Z</time>
      </trkpt>
      <trkpt lat="37.14396" lon="-3.61331">
        <ele>669.5722</ele>
        <time>2021-07-17T11:50:22Z</time>
      </trkpt>
      <trkpt lat="37.14319" lon="-3.6142">
        <ele>669.9924</ele>
        <time>2021-07-17T11:50:33Z</time>
      </trkpt>
      <trkpt lat="37.14251" lon="-3.61492">
        <ele>670.9009</ele>
        <time>2021-07-17T11:50:44Z</time>
      </trkpt>
      <trkpt lat="37.14201" lon="-3.6156">
        <ele>669.1371</ele>
        <time>2021-07-17T11:50:55Z</time>
      </trkpt>
      <trkpt lat="37.1413" lon="-3.61651">
        <ele>668.5216</ele>
        <time>2021-07-17T11:51:06Z</time>
      </trkpt>
      <trkpt lat="37.14071" lon="-3.61732">
        <ele>669.1041</ele>
        <time>2021-07-17T11:51:17Z</time>
      </trkpt>
      <trkpt lat="37.14043" lon="-3.61777">
        <ele>670.6741</ele>
        <time>2021-07-17T11:51:28Z</time>
      </trkpt>
      <trkpt lat="37.14014" lon="-3.61826">
        <ele>671.756</ele>
        <time>2021-07-17T11:51:39Z</time>
      </trkpt>
      <trkpt lat="37.13956" lon="-3.61895">
        <ele>671.8487</ele>
        <time>2021-07-17T11:51:50Z</time>
      </trkpt>
      <trkpt lat="37.13885" lon="-3.61962">
        <ele>674.0164</ele>
        <time>2021-07-17T11:52:01Z</time>
      </trkpt>
      <trkpt lat="37.13835" lon="-3.62008">
        <ele>675.5347</ele>
        <time>2021-07-17T11:52:12Z</time>
      </trkpt>
      <trkpt lat="37.13845" lon="-3.6207">
        <ele>677.3827</ele>
        <time>2021-07-17T11:52:23Z</time>
      </trkpt>
      <trkpt lat="37.13865" lon="-3.6218">
        <ele>676.4751</ele>
        <time>2021-07-17T11:52:34Z</time>
      </trkpt>
      <trkpt lat="37.13902" lon="-3.62271">
        <ele>675.9956</ele>
        <time>2021-07-17T11:52:45Z</time>
      </trkpt>
      <trkpt lat="37.13934" lon="-3.62367">
        <ele>678.312</ele>
        <time>2021-07-17T11:52:56Z</time>
      </trkpt>
      <trkpt lat="37.13957" lon="-3.62448">
        <ele>679.0629</ele>
        <time>2021-07-17T11:53:07Z</time>
      </trkpt>
      <trkpt lat="37.13973" lon="-3.62538">
        <ele>678.7474</ele>
        <time>2021-07-17T11:53:18Z</time>
      </trkpt>
      <trkpt lat="37.13997" lon="-3.62641">
        <ele>678.6017</ele>
        <time>2021-07-17T11:53:29Z</time>
      </trkpt>
      <trkpt lat="37.14017" lon="-3.62724">
        <ele>677.8176</ele>
        <time>2021-07-17T11:53:40Z</time>
      </trkpt>
      <trkpt lat="37.14041" lon="-3.62805">
        <ele>678.7684</ele>
        <time>2021-07-17T11:53:51Z</time>
      </trkpt>
      <trkpt lat="37.13979" lon="-3.62841">
        <ele>679.1148</ele>
        <time>2021-07-17T11:54:02Z</time>
      </trkpt>
      <trkpt lat="37.13825" lon="-3.62868">
        <ele>681.9568</ele>
        <time>2021-07-17T11:54:13Z</time>
      </trkpt>
      <trkpt lat="37.1368" lon="-3.62894">
        <ele>682.8794</ele>
        <time>2021-07-17T11:54:24Z</time>
      </trkpt>
      <trkpt lat="37.135" lon="-3.62923">
        <ele>688.5281</ele>
        <time>2021-07-17T11:54:35Z</time>
      </trkpt>
      <trkpt lat="37.13299" lon="-3.62958">
        <ele>692.4582</ele>
        <time>2021-07-17T11:54:46Z</time>
      </trkpt>
      <trkpt lat="37.13134" lon="-3.62987">
        <ele>695.7777</ele>
        <time>2021-07-17T11:54:57Z</time>
      </trkpt>
      <trkpt lat="37.1298" lon="-3.63014">
        <ele>700.3277</ele>
        <time>2021-07-17T11:55:08Z</time>
      </trkpt>
      <trkpt lat="37.12828" lon="-3.63041">
        <ele>702.7751</ele>
        <time>2021-07-17T11:55:19Z</time>
      </trkpt>
      <trkpt lat="37.12734" lon="-3.63058">
        <ele>705.1669</ele>
        <time>2021-07-17T11:55:30Z</time>
      </trkpt>
      <trkpt lat="37.1263" lon="-3.63076">
        <ele>707.4464</ele>
        <time>2021-07-17T11:55:41Z</time>
      </trkpt>
      <trkpt lat="37.12507" lon="-3.63097">
        <ele>709.7555</ele>
        <time>2021-07-17T11:55:52Z</time>
      </trkpt>
      <trkpt lat="37.12414" lon="-3.63113">
        <ele>713.5563</ele>
        <time>2021-07-17T11:56:03Z</time>
      </trkpt>
      <trkpt lat="37.12362" lon="-3.63122">
        <ele>714.5689</ele>
        <time>2021-07-17T11:56:14Z</time>
      </trkpt>
      <trkpt lat="37.12265" lon="-3.63139">
        <ele>714.6122</ele>
        <time>2021-07-17T11:56:25Z</time>
      </trkpt>
      <trkpt lat="37.12142" lon="-3.6316">
        <ele>716.3623</ele>
        <time>2021-07-17T11:56:36Z</time>
      </trkpt>
      <trkpt lat="37.12041" lon="-3.63178">
        <ele>717.4687</ele>
        <time>2021-07-17T11:56:47Z</time>
      </trkpt>
      <trkpt lat="37.11961" lon="-3.63194">
        <ele>719.4139</ele>
        <time>2021-07-17T11:56:58Z</time>
      </trkpt>
      <trkpt lat="37.11837" lon="-3.63221">
        <ele>720.3345</ele>
        <time>2021-07-17T11:57:09Z</time>
      </trkpt>
      <trkpt lat="37.11725" lon="-3.63301">
        <ele>718.6539</ele>
        <time>2021-07-17T11:57:20Z</time>
      </trkpt>
      <trkpt lat="37.11669" lon="-3.63381">
        <ele>720.5208</ele>
        <time>2021-07-17T11:57:31Z</time>
      </trkpt>
      <trkpt lat="37.11596" lon="-3.63412">
        <ele>722.4115</ele>
        <time>2021-07-17T11:57:42Z</time>
      </trkpt>
      <trkpt lat="37.11477" lon="-3.63515">
        <ele>722.6654</ele>
        <time>2021-07-17T11:57:53Z</time>
      </trkpt>
      <trkpt lat="37.11364" lon="-3.63614">
        <ele>725.3648</ele>
        <time>2021-07-17T11:58:04Z</time>
      </trkpt>
      <trkpt lat="37.11268" lon="-3.63697">
        <ele>725.6182</ele>
        <time>2021-07-17T11:58:15Z</time>
      </trkpt>
      <trkpt lat="37.11164" lon="-3.63786">
        <ele>729.3515</ele>
        <time>2021-07-17T11:58:26Z</time>
      </trkpt>
      <trkpt lat="37.11042" lon="-3.63892">
        <ele>731.383</ele>
        <time>2021-07-17T11:58:37Z</time>
      </trkpt>
      <trkpt lat="37.10925" lon="-3.63996">
        <ele>731.7893</ele>
        <time>2021-07-17T11:58:48Z</time>
      </trkpt>
      <trkpt lat="37.1081" lon="-3.64098">
        <ele>732.4796</ele>
        <time>2021-07-17T11:58:59Z</time>
      </trkpt>
      <trkpt lat="37.1067" lon="-3.64216">
        <ele>740.7187</ele>
        <time>2021-07-17T11:59:10Z</time>
      </trkpt>
      <trkpt lat="37.1062" lon="-3.64292">
        <ele>740.9149</ele>
        <time>2021-07-17T11:59:21Z</time>
      </trkpt>
      <trkpt lat="37.10574" lon="-3.6439">
        <ele>739.5316</ele>
        <time>2021-07-17T11:59:32Z</time>
      </trkpt>
      <trkpt lat="37.10422" lon="-3.64441">
        <ele>738.4955</ele>
        <time>2021-07-17T11:59:43Z</time>
      </trkpt>
      <trkpt lat="37.10298" lon="-3.64482">
        <ele>735.4848</ele>
        <time>2021-07-17T11:59:54Z</time>
      </trkpt>
      <trkpt lat="37.10154" lon="-3.6453">
        <ele>735.0059</ele>
        <time>2021-07-17T12:00:05Z</time>
      </trkpt>
      <trkpt lat="37.10012" lon="-3.64612">
        <ele>737.2982</ele>
        <time>2021-07-17T12:00:16Z</time>
      </trkpt>
      <trkpt lat="37.09918" lon="-3.64811">
        <ele>739.8751</ele>
        <time>2021-07-17T12:00:27Z</time>
      </trkpt>
      <trkpt lat="37.09755" lon="-3.64829">
        <ele>744.6101</ele>
        <time>2021-07-17T12:00:38Z</time>
      </trkpt>
      <trkpt lat="37.09576" lon="-3.64816">
        <ele>750.0587</ele>
        <time>2021-07-17T12:00:49Z</time>
      </trkpt>
      <trkpt lat="37.09388" lon="-3.648">
        <ele>753.5507</ele>
        <time>2021-07-17T12:01:00Z</time>
      </trkpt>
      <trkpt lat="37.09284" lon="-3.64756">
        <ele>754.6299</ele>
        <time>2021-07-17T12:01:11Z</time>
      </trkpt>
      <trkpt lat="37.09085" lon="-3.64768">
        <ele>759.4976</ele>
        <time>2021-07-17T12:01:22Z</time>
      </trkpt>
      <trkpt lat="37.08889" lon="-3.64817">
        <ele>766.3374</ele>
        <time>2021-07-17T12:01:33Z</time>
      </trkpt>
      <trkpt lat="37.08745" lon="-3.64814">
        <ele>767.1539</ele>
        <time>2021-07-17T12:01:44Z</time>
      </trkpt>
      <trkpt lat="37.08569" lon="-3.64786">
        <ele>768.5963</ele>
        <time>2021-07-17T12:01:55Z</time>
      </trkpt>
      <trkpt lat="37.08507" lon="-3.64743">
        <ele>769.0552</ele>
        <time>2021-07-17T12:02:06Z</time>
      </trkpt>
      <trkpt lat="37.08501" lon="-3.64741">
        <ele>768.3384</ele>
        <time>2021-07-17T12:02:17Z</time>
      </trkpt>
      <trkpt lat="37.08551" lon="-3.64626">
        <ele>769.5273</ele>
        <time>2021-07-17T12:02:28Z</time>
      </trkpt>
      <trkpt lat="37.0853" lon="-3.64691">
        <ele>769.9859</ele>
        <time>2021-07-17T12:02:39Z</time>
      </trkpt>
      <trkpt lat="37.08469" lon="-3.64789">
        <ele>767.4758</ele>
        <time>2021-07-17T12:02:50Z</time>
      </trkpt>
      <trkpt lat="37.08536" lon="-3.64841">
        <ele>770.9032</ele>
        <time>2021-07-17T12:03:01Z</time>
      </trkpt>
      <trkpt lat="37.08689" lon="-3.64857">
        <ele>763.3252</ele>
        <time>2021-07-17T12:03:12Z</time>
      </trkpt>
      <trkpt lat="37.087" lon="-3.64858">
        <ele>764.9818</ele>
        <time>2021-07-17T12:03:23Z</time>
      </trkpt>
      <trkpt lat="37.08702" lon="-3.64867">
        <ele>769.2021</ele>
        <time>2021-07-17T12:03:42Z</time>
      </trkpt>
      <trkpt lat="37.08673" lon="-3.64868">
        <ele>770.3388</ele>
        <time>2021-07-17T12:03:53Z</time>
      </trkpt>
      <trkpt lat="37.08644" lon="-3.64866">
        <ele>771.0199</ele>
        <time>2021-07-17T12:04:04Z</time>
      </trkpt>
      <trkpt lat="37.08612" lon="-3.64864">
        <ele>773.8011</ele>
        <time>2021-07-17T12:04:15Z</time>
      </trkpt>
      <trkpt lat="37.08583" lon="-3.64847">
        <ele>773.1659</ele>
        <time>2021-07-17T12:04:26Z</time>
      </trkpt>
      <trkpt lat="37.08509" lon="-3.64845">
        <ele>774.5644</ele>
        <time>2021-07-17T12:04:37Z</time>
      </trkpt>
      <trkpt lat="37.08421" lon="-3.64892">
        <ele>776.9063</ele>
        <time>2021-07-17T12:04:48Z</time>
      </trkpt>
      <trkpt lat="37.08299" lon="-3.64841">
        <ele>779.1763</ele>
        <time>2021-07-17T12:04:59Z</time>
      </trkpt>
      <trkpt lat="37.0808" lon="-3.64839">
        <ele>790.9985</ele>
        <time>2021-07-17T12:05:10Z</time>
      </trkpt>
      <trkpt lat="37.07859" lon="-3.64871">
        <ele>796.834</ele>
        <time>2021-07-17T12:05:21Z</time>
      </trkpt>
      <trkpt lat="37.07629" lon="-3.64916">
        <ele>807.3924</ele>
        <time>2021-07-17T12:05:32Z</time>
      </trkpt>
      <trkpt lat="37.07401" lon="-3.6496">
        <ele>818.1423</ele>
        <time>2021-07-17T12:05:43Z</time>
      </trkpt>
      <trkpt lat="37.07174" lon="-3.65057">
        <ele>831.2369</ele>
        <time>2021-07-17T12:05:54Z</time>
      </trkpt>
      <trkpt lat="37.0696" lon="-3.65155">
        <ele>837.8374</ele>
        <time>2021-07-17T12:06:05Z</time>
      </trkpt>
      <trkpt lat="37.06743" lon="-3.65049">
        <ele>843.2391</ele>
        <time>2021-07-17T12:06:16Z</time>
      </trkpt>
      <trkpt lat="37.06525" lon="-3.64955">
        <ele>848.2235</ele>
        <time>2021-07-17T12:06:27Z</time>
      </trkpt>
      <trkpt lat="37.06289" lon="-3.6497">
        <ele>853.3984</ele>
        <time>2021-07-17T12:06:38Z</time>
      </trkpt>
      <trkpt lat="37.06034" lon="-3.6495">
        <ele>849.4823</ele>
        <time>2021-07-17T12:06:49Z</time>
      </trkpt>
      <trkpt lat="37.0577" lon="-3.64927">
        <ele>842.8327</ele>
        <time>2021-07-17T12:07:00Z</time>
      </trkpt>
      <trkpt lat="37.05551" lon="-3.64974">
        <ele>842.0663</ele>
        <time>2021-07-17T12:07:11Z</time>
      </trkpt>
      <trkpt lat="37.05365" lon="-3.64955">
        <ele>844.8489</ele>
        <time>2021-07-17T12:07:22Z</time>
      </trkpt>
      <trkpt lat="37.05169" lon="-3.64898">
        <ele>851.127</ele>
        <time>2021-07-17T12:07:33Z</time>
      </trkpt>
      <trkpt lat="37.04984" lon="-3.64838">
        <ele>853.1981</ele>
        <time>2021-07-17T12:07:44Z</time>
      </trkpt>
      <trkpt lat="37.04913" lon="-3.64845">
        <ele>853.4958</ele>
        <time>2021-07-17T12:07:55Z</time>
      </trkpt>
      <trkpt lat="37.04798" lon="-3.64778">
        <ele>852.4438</ele>
        <time>2021-07-17T12:08:06Z</time>
      </trkpt>
      <trkpt lat="37.04634" lon="-3.64692">
        <ele>849.4792</ele>
        <time>2021-07-17T12:08:17Z</time>
      </trkpt>
      <trkpt lat="37.04453" lon="-3.64567">
        <ele>840.9802</ele>
        <time>2021-07-17T12:08:28Z</time>
      </trkpt>
      <trkpt lat="37.04279" lon="-3.64415">
        <ele>833.7037</ele>
        <time>2021-07-17T12:08:39Z</time>
      </trkpt>
      <trkpt lat="37.04095" lon="-3.64269">
        <ele>828.8737</ele>
        <time>2021-07-17T12:08:50Z</time>
      </trkpt>
      <trkpt lat="37.03903" lon="-3.6413">
        <ele>825.261</ele>
        <time>2021-07-17T12:09:01Z</time>
      </trkpt>
      <trkpt lat="37.03739" lon="-3.64025">
        <ele>823.7536</ele>
        <time>2021-07-17T12:09:12Z</time>
      </trkpt>
      <trkpt lat="37.03621" lon="-3.63968">
        <ele>824.5232</ele>
        <time>2021-07-17T12:09:23Z</time>
      </trkpt>
      <trkpt lat="37.03543" lon="-3.639">
        <ele>824.9148</ele>
        <time>2021-07-17T12:09:34Z</time>
      </trkpt>
      <trkpt lat="37.03402" lon="-3.63794">
        <ele>824.0514</ele>
        <time>2021-07-17T12:09:45Z</time>
      </trkpt>
      <trkpt lat="37.03225" lon="-3.63661">
        <ele>820.779</ele>
        <time>2021-07-17T12:09:56Z</time>
      </trkpt>
      <trkpt lat="37.03051" lon="-3.63528">
        <ele>818.2699</ele>
        <time>2021-07-17T12:10:07Z</time>
      </trkpt>
      <trkpt lat="37.02882" lon="-3.63391">
        <ele>815.2701</ele>
        <time>2021-07-17T12:10:18Z</time>
      </trkpt>
      <trkpt lat="37.02801" lon="-3.63158">
        <ele>811.1025</ele>
        <time>2021-07-17T12:10:29Z</time>
      </trkpt>
      <trkpt lat="37.02744" lon="-3.62895">
        <ele>807.4012</ele>
        <time>2021-07-17T12:10:40Z</time>
      </trkpt>
      <trkpt lat="37.02739" lon="-3.62663">
        <ele>807.8458</ele>
        <time>2021-07-17T12:10:51Z</time>
      </trkpt>
      <trkpt lat="37.02777" lon="-3.62431">
        <ele>808.0547</ele>
        <time>2021-07-17T12:11:02Z</time>
      </trkpt>
      <trkpt lat="37.02742" lon="-3.62182">
        <ele>805.7357</ele>
        <time>2021-07-17T12:11:13Z</time>
      </trkpt>
      <trkpt lat="37.02829" lon="-3.61956">
        <ele>797.7114</ele>
        <time>2021-07-17T12:11:24Z</time>
      </trkpt>
      <trkpt lat="37.02744" lon="-3.61736">
        <ele>789.9484</ele>
        <time>2021-07-17T12:11:35Z</time>
      </trkpt>
      <trkpt lat="37.02549" lon="-3.61593">
        <ele>782.14</ele>
        <time>2021-07-17T12:11:46Z</time>
      </trkpt>
      <trkpt lat="37.02386" lon="-3.61398">
        <ele>774.6198</ele>
        <time>2021-07-17T12:11:57Z</time>
      </trkpt>
      <trkpt lat="37.02254" lon="-3.6113">
        <ele>761.5839</ele>
        <time>2021-07-17T12:12:08Z</time>
      </trkpt>
      <trkpt lat="37.02142" lon="-3.60855">
        <ele>747.348</ele>
        <time>2021-07-17T12:12:19Z</time>
      </trkpt>
      <trkpt lat="37.02026" lon="-3.6058">
        <ele>741.2612</ele>
        <time>2021-07-17T12:12:30Z</time>
      </trkpt>
      <trkpt lat="37.01917" lon="-3.60303">
        <ele>740.5331</ele>
        <time>2021-07-17T12:12:41Z</time>
      </trkpt>
      <trkpt lat="37.0182" lon="-3.60023">
        <ele>743.1001</ele>
        <time>2021-07-17T12:12:52Z</time>
      </trkpt>
      <trkpt lat="37.01759" lon="-3.59724">
        <ele>747.0945</ele>
        <time>2021-07-17T12:13:03Z</time>
      </trkpt>
      <trkpt lat="37.01596" lon="-3.5949">
        <ele>753.5877</ele>
        <time>2021-07-17T12:13:14Z</time>
      </trkpt>
      <trkpt lat="37.01431" lon="-3.59268">
        <ele>760.124</ele>
        <time>2021-07-17T12:13:25Z</time>
      </trkpt>
      <trkpt lat="37.01265" lon="-3.59057">
        <ele>763.6619</ele>
        <time>2021-07-17T12:13:36Z</time>
      </trkpt>
      <trkpt lat="37.01097" lon="-3.58865">
        <ele>766.655</ele>
        <time>2021-07-17T12:13:47Z</time>
      </trkpt>
      <trkpt lat="37.00945" lon="-3.58693">
        <ele>766.7415</ele>
        <time>2021-07-17T12:13:58Z</time>
      </trkpt>
      <trkpt lat="37.00848" lon="-3.58584">
        <ele>770.1996</ele>
        <time>2021-07-17T12:14:09Z</time>
      </trkpt>
      <trkpt lat="37.00747" lon="-3.5847">
        <ele>773.6001</ele>
        <time>2021-07-17T12:14:20Z</time>
      </trkpt>
      <trkpt lat="37.00612" lon="-3.58322">
        <ele>777.548</ele>
        <time>2021-07-17T12:14:31Z</time>
      </trkpt>
      <trkpt lat="37.0048" lon="-3.58187">
        <ele>781.3345</ele>
        <time>2021-07-17T12:14:42Z</time>
      </trkpt>
      <trkpt lat="37.00325" lon="-3.58041">
        <ele>784.2384</ele>
        <time>2021-07-17T12:14:53Z</time>
      </trkpt>
      <trkpt lat="37.00159" lon="-3.57888">
        <ele>783.6521</ele>
        <time>2021-07-17T12:15:04Z</time>
      </trkpt>
      <trkpt lat="37.00019" lon="-3.57691">
        <ele>777.2237</ele>
        <time>2021-07-17T12:15:15Z</time>
      </trkpt>
      <trkpt lat="36.99864" lon="-3.57462">
        <ele>768.2455</ele>
        <time>2021-07-17T12:15:26Z</time>
      </trkpt>
      <trkpt lat="36.99682" lon="-3.57245">
        <ele>761.294</ele>
        <time>2021-07-17T12:15:37Z</time>
      </trkpt>
      <trkpt lat="36.99533" lon="-3.57055">
        <ele>767.8783</ele>
        <time>2021-07-17T12:15:48Z</time>
      </trkpt>
      <trkpt lat="36.99382" lon="-3.56832">
        <ele>775.5577</ele>
        <time>2021-07-17T12:15:59Z</time>
      </trkpt>
      <trkpt lat="36.9924" lon="-3.56595">
        <ele>783.276</ele>
        <time>2021-07-17T12:16:10Z</time>
      </trkpt>
      <trkpt lat="36.99108" lon="-3.56375">
        <ele>792.573</ele>
        <time>2021-07-17T12:16:21Z</time>
      </trkpt>
      <trkpt lat="36.98983" lon="-3.56168">
        <ele>801.4929</ele>
        <time>2021-07-17T12:16:32Z</time>
      </trkpt>
      <trkpt lat="36.98818" lon="-3.55984">
        <ele>809.4547</ele>
        <time>2021-07-17T12:16:43Z</time>
      </trkpt>
      <trkpt lat="36.98639" lon="-3.55886">
        <ele>815.0204</ele>
        <time>2021-07-17T12:16:54Z</time>
      </trkpt>
      <trkpt lat="36.98429" lon="-3.55862">
        <ele>819.654</ele>
        <time>2021-07-17T12:17:05Z</time>
      </trkpt>
      <trkpt lat="36.98209" lon="-3.55867">
        <ele>821.4629</ele>
        <time>2021-07-17T12:17:16Z</time>
      </trkpt>
      <trkpt lat="36.97979" lon="-3.55872">
        <ele>824.4436</ele>
        <time>2021-07-17T12:17:27Z</time>
      </trkpt>
      <trkpt lat="36.97769" lon="-3.55877">
        <ele>824.86</ele>
        <time>2021-07-17T12:17:38Z</time>
      </trkpt>
      <trkpt lat="36.97568" lon="-3.5588">
        <ele>827.7326</ele>
        <time>2021-07-17T12:17:49Z</time>
      </trkpt>
      <trkpt lat="36.97428" lon="-3.55888">
        <ele>831.3517</ele>
        <time>2021-07-17T12:18:00Z</time>
      </trkpt>
      <trkpt lat="36.97418" lon="-3.55889">
        <ele>831.8157</ele>
        <time>2021-07-17T12:18:11Z</time>
      </trkpt>
      <trkpt lat="36.97368" lon="-3.55854">
        <ele>831.1984</ele>
        <time>2021-07-17T12:18:22Z</time>
      </trkpt>
      <trkpt lat="36.97419" lon="-3.55757">
        <ele>833.2522</ele>
        <time>2021-07-17T12:18:33Z</time>
      </trkpt>
      <trkpt lat="36.97448" lon="-3.55724">
        <ele>837.7899</ele>
        <time>2021-07-17T12:18:44Z</time>
      </trkpt>
      <trkpt lat="36.97444" lon="-3.55725">
        <ele>836.1955</ele>
        <time>2021-07-17T12:18:59Z</time>
      </trkpt>
      <trkpt lat="36.97444" lon="-3.55725">
        <ele>836.211</ele>
        <time>2021-07-17T12:19:59Z</time>
      </trkpt>
      <trkpt lat="36.97441" lon="-3.55718">
        <ele>830.7636</ele>
        <time>2021-07-17T12:20:39Z</time>
      </trkpt>
      <trkpt lat="36.9744" lon="-3.55718">
        <ele>831.0327</ele>
        <time>2021-07-17T12:21:39Z</time>
      </trkpt>
      <trkpt lat="36.9744" lon="-3.5572">
        <ele>832.3156</ele>
        <time>2021-07-17T12:22:39Z</time>
      </trkpt>
      <trkpt lat="36.97443" lon="-3.55723">
        <ele>832.8666</ele>
        <time>2021-07-17T12:23:22Z</time>
      </trkpt>
      <trkpt lat="36.97445" lon="-3.55722">
        <ele>836.0017</ele>
        <time>2021-07-17T12:24:22Z</time>
      </trkpt>
      <trkpt lat="36.97441" lon="-3.55726">
        <ele>838.7362</ele>
        <time>2021-07-17T12:25:18Z</time>
      </trkpt>
      <trkpt lat="36.97419" lon="-3.55757">
        <ele>833.9982</ele>
        <time>2021-07-17T12:25:29Z</time>
      </trkpt>
      <trkpt lat="36.97386" lon="-3.55733">
        <ele>835.3388</ele>
        <time>2021-07-17T12:25:40Z</time>
      </trkpt>
      <trkpt lat="36.97237" lon="-3.55621">
        <ele>837.493</ele>
        <time>2021-07-17T12:25:51Z</time>
      </trkpt>
      <trkpt lat="36.97077" lon="-3.55501">
        <ele>846.0347</ele>
        <time>2021-07-17T12:26:02Z</time>
      </trkpt>
      <trkpt lat="36.96938" lon="-3.55397">
        <ele>851.6227</ele>
        <time>2021-07-17T12:26:13Z</time>
      </trkpt>
      <trkpt lat="36.96749" lon="-3.55254">
        <ele>856.2203</ele>
        <time>2021-07-17T12:26:24Z</time>
      </trkpt>
      <trkpt lat="36.96544" lon="-3.55101">
        <ele>852.9438</ele>
        <time>2021-07-17T12:26:35Z</time>
      </trkpt>
      <trkpt lat="36.96428" lon="-3.54954">
        <ele>841.3889</ele>
        <time>2021-07-17T12:26:46Z</time>
      </trkpt>
      <trkpt lat="36.96375" lon="-3.54747">
        <ele>831.1208</ele>
        <time>2021-07-17T12:26:57Z</time>
      </trkpt>
      <trkpt lat="36.96492" lon="-3.54639">
        <ele>825.2446</ele>
        <time>2021-07-17T12:27:08Z</time>
      </trkpt>
      <trkpt lat="36.96653" lon="-3.54515">
        <ele>815.6545</ele>
        <time>2021-07-17T12:27:19Z</time>
      </trkpt>
      <trkpt lat="36.96722" lon="-3.54382">
        <ele>810.7772</ele>
        <time>2021-07-17T12:27:30Z</time>
      </trkpt>
      <trkpt lat="36.96637" lon="-3.54278">
        <ele>812.143</ele>
        <time>2021-07-17T12:27:41Z</time>
      </trkpt>
      <trkpt lat="36.96468" lon="-3.5439">
        <ele>800.1479</ele>
        <time>2021-07-17T12:27:52Z</time>
      </trkpt>
      <trkpt lat="36.96255" lon="-3.54485">
        <ele>784.2113</ele>
        <time>2021-07-17T12:28:03Z</time>
      </trkpt>
      <trkpt lat="36.96037" lon="-3.54503">
        <ele>775.3494</ele>
        <time>2021-07-17T12:28:14Z</time>
      </trkpt>
      <trkpt lat="36.95881" lon="-3.54507">
        <ele>766.7304</ele>
        <time>2021-07-17T12:28:25Z</time>
      </trkpt>
      <trkpt lat="36.95781" lon="-3.54649">
        <ele>758.4569</ele>
        <time>2021-07-17T12:28:36Z</time>
      </trkpt>
      <trkpt lat="36.956" lon="-3.54758">
        <ele>756.3287</ele>
        <time>2021-07-17T12:28:47Z</time>
      </trkpt>
      <trkpt lat="36.95415" lon="-3.54867">
        <ele>746.7424</ele>
        <time>2021-07-17T12:28:58Z</time>
      </trkpt>
      <trkpt lat="36.9533" lon="-3.54918">
        <ele>740.1363</ele>
        <time>2021-07-17T12:29:09Z</time>
      </trkpt>
      <trkpt lat="36.95211" lon="-3.55007">
        <ele>733.5538</ele>
        <time>2021-07-17T12:29:20Z</time>
      </trkpt>
      <trkpt lat="36.95113" lon="-3.55078">
        <ele>725.8464</ele>
        <time>2021-07-17T12:29:31Z</time>
      </trkpt>
      <trkpt lat="36.95023" lon="-3.55142">
        <ele>720.6879</ele>
        <time>2021-07-17T12:29:42Z</time>
      </trkpt>
      <trkpt lat="36.94922" lon="-3.55186">
        <ele>718.3807</ele>
        <time>2021-07-17T12:29:53Z</time>
      </trkpt>
      <trkpt lat="36.94833" lon="-3.55122">
        <ele>714.6857</ele>
        <time>2021-07-17T12:30:04Z</time>
      </trkpt>
      <trkpt lat="36.94759" lon="-3.55027">
        <ele>719.7277</ele>
        <time>2021-07-17T12:30:15Z</time>
      </trkpt>
      <trkpt lat="36.94682" lon="-3.54956">
        <ele>716.1994</ele>
        <time>2021-07-17T12:30:26Z</time>
      </trkpt>
      <trkpt lat="36.9462" lon="-3.54855">
        <ele>708.7422</ele>
        <time>2021-07-17T12:30:37Z</time>
      </trkpt>
      <trkpt lat="36.94463" lon="-3.54852">
        <ele>694.7674</ele>
        <time>2021-07-17T12:30:48Z</time>
      </trkpt>
      <trkpt lat="36.9428" lon="-3.54836">
        <ele>684.8111</ele>
        <time>2021-07-17T12:30:59Z</time>
      </trkpt>
      <trkpt lat="36.94096" lon="-3.54915">
        <ele>669.3896</ele>
        <time>2021-07-17T12:31:10Z</time>
      </trkpt>
      <trkpt lat="36.93978" lon="-3.55056">
        <ele>651.2246</ele>
        <time>2021-07-17T12:31:21Z</time>
      </trkpt>
      <trkpt lat="36.93831" lon="-3.55025">
        <ele>638.8914</ele>
        <time>2021-07-17T12:31:32Z</time>
      </trkpt>
      <trkpt lat="36.93632" lon="-3.5498">
        <ele>626.6301</ele>
        <time>2021-07-17T12:31:43Z</time>
      </trkpt>
      <trkpt lat="36.93417" lon="-3.54933">
        <ele>608.4218</ele>
        <time>2021-07-17T12:31:54Z</time>
      </trkpt>
      <trkpt lat="36.93205" lon="-3.54884">
        <ele>591.5879</ele>
        <time>2021-07-17T12:32:05Z</time>
      </trkpt>
      <trkpt lat="36.92984" lon="-3.54842">
        <ele>577.3283</ele>
        <time>2021-07-17T12:32:16Z</time>
      </trkpt>
      <trkpt lat="36.92912" lon="-3.54706">
        <ele>564.6087</ele>
        <time>2021-07-17T12:32:27Z</time>
      </trkpt>
      <trkpt lat="36.93046" lon="-3.54649">
        <ele>558.4375</ele>
        <time>2021-07-17T12:32:38Z</time>
      </trkpt>
      <trkpt lat="36.93062" lon="-3.54543">
        <ele>551.7841</ele>
        <time>2021-07-17T12:32:49Z</time>
      </trkpt>
      <trkpt lat="36.92953" lon="-3.54554">
        <ele>543.2027</ele>
        <time>2021-07-17T12:33:00Z</time>
      </trkpt>
      <trkpt lat="36.92835" lon="-3.54571">
        <ele>537.6003</ele>
        <time>2021-07-17T12:33:11Z</time>
      </trkpt>
      <trkpt lat="36.92733" lon="-3.54544">
        <ele>531.1892</ele>
        <time>2021-07-17T12:33:22Z</time>
      </trkpt>
      <trkpt lat="36.92721" lon="-3.54444">
        <ele>533.6901</ele>
        <time>2021-07-17T12:33:33Z</time>
      </trkpt>
      <trkpt lat="36.92729" lon="-3.54355">
        <ele>529.6435</ele>
        <time>2021-07-17T12:33:44Z</time>
      </trkpt>
      <trkpt lat="36.92732" lon="-3.54318">
        <ele>529.0152</ele>
        <time>2021-07-17T12:33:55Z</time>
      </trkpt>
      <trkpt lat="36.92736" lon="-3.54241">
        <ele>532.7008</ele>
        <time>2021-07-17T12:34:06Z</time>
      </trkpt>
      <trkpt lat="36.92729" lon="-3.54149">
        <ele>535.7974</ele>
        <time>2021-07-17T12:34:17Z</time>
      </trkpt>
      <trkpt lat="36.92718" lon="-3.54087">
        <ele>540.2138</ele>
        <time>2021-07-17T12:34:28Z</time>
      </trkpt>
      <trkpt lat="36.92715" lon="-3.53942">
        <ele>542.5973</ele>
        <time>2021-07-17T12:34:39Z</time>
      </trkpt>
      <trkpt lat="36.92725" lon="-3.53771">
        <ele>541.6802</ele>
        <time>2021-07-17T12:34:50Z</time>
      </trkpt>
      <trkpt lat="36.92702" lon="-3.53684">
        <ele>538.6113</ele>
        <time>2021-07-17T12:35:01Z</time>
      </trkpt>
      <trkpt lat="36.92607" lon="-3.5359">
        <ele>544.5376</ele>
        <time>2021-07-17T12:35:12Z</time>
      </trkpt>
      <trkpt lat="36.92479" lon="-3.53513">
        <ele>551.6067</ele>
        <time>2021-07-17T12:35:23Z</time>
      </trkpt>
      <trkpt lat="36.92395" lon="-3.5341">
        <ele>556.1628</ele>
        <time>2021-07-17T12:35:34Z</time>
      </trkpt>
      <trkpt lat="36.92406" lon="-3.53273">
        <ele>561.8578</ele>
        <time>2021-07-17T12:35:45Z</time>
      </trkpt>
      <trkpt lat="36.92364" lon="-3.53075">
        <ele>567.4705</ele>
        <time>2021-07-17T12:35:56Z</time>
      </trkpt>
      <trkpt lat="36.92269" lon="-3.52868">
        <ele>570.4457</ele>
        <time>2021-07-17T12:36:07Z</time>
      </trkpt>
      <trkpt lat="36.92211" lon="-3.52597">
        <ele>570.6433</ele>
        <time>2021-07-17T12:36:18Z</time>
      </trkpt>
      <trkpt lat="36.9212" lon="-3.52404">
        <ele>575.0783</ele>
        <time>2021-07-17T12:36:29Z</time>
      </trkpt>
      <trkpt lat="36.92012" lon="-3.5235">
        <ele>577.2765</ele>
        <time>2021-07-17T12:36:40Z</time>
      </trkpt>
      <trkpt lat="36.91883" lon="-3.52392">
        <ele>574.3266</ele>
        <time>2021-07-17T12:36:51Z</time>
      </trkpt>
      <trkpt lat="36.91917" lon="-3.52534">
        <ele>571.7583</ele>
        <time>2021-07-17T12:37:02Z</time>
      </trkpt>
      <trkpt lat="36.91801" lon="-3.5258">
        <ele>564.5269</ele>
        <time>2021-07-17T12:37:13Z</time>
      </trkpt>
      <trkpt lat="36.91701" lon="-3.52662">
        <ele>555.8651</ele>
        <time>2021-07-17T12:37:24Z</time>
      </trkpt>
      <trkpt lat="36.91779" lon="-3.52718">
        <ele>552.3134</ele>
        <time>2021-07-17T12:37:35Z</time>
      </trkpt>
      <trkpt lat="36.91776" lon="-3.52728">
        <ele>551.5485</ele>
        <time>2021-07-17T12:37:46Z</time>
      </trkpt>
      <trkpt lat="36.91666" lon="-3.52729">
        <ele>548.6599</ele>
        <time>2021-07-17T12:37:57Z</time>
      </trkpt>
      <trkpt lat="36.91531" lon="-3.52692">
        <ele>539.4293</ele>
        <time>2021-07-17T12:38:08Z</time>
      </trkpt>
      <trkpt lat="36.91613" lon="-3.52623">
        <ele>532.7429</ele>
        <time>2021-07-17T12:38:19Z</time>
      </trkpt>
      <trkpt lat="36.91477" lon="-3.52583">
        <ele>524.7435</ele>
        <time>2021-07-17T12:38:30Z</time>
      </trkpt>
      <trkpt lat="36.91321" lon="-3.52605">
        <ele>515.0185</ele>
        <time>2021-07-17T12:38:41Z</time>
      </trkpt>
      <trkpt lat="36.91137" lon="-3.52636">
        <ele>497.6487</ele>
        <time>2021-07-17T12:38:52Z</time>
      </trkpt>
      <trkpt lat="36.90953" lon="-3.52636">
        <ele>481.3524</ele>
        <time>2021-07-17T12:39:03Z</time>
      </trkpt>
      <trkpt lat="36.90874" lon="-3.52792">
        <ele>474.633</ele>
        <time>2021-07-17T12:39:14Z</time>
      </trkpt>
      <trkpt lat="36.90735" lon="-3.52789">
        <ele>462.8359</ele>
        <time>2021-07-17T12:39:25Z</time>
      </trkpt>
      <trkpt lat="36.9058" lon="-3.52861">
        <ele>454.0571</ele>
        <time>2021-07-17T12:39:36Z</time>
      </trkpt>
      <trkpt lat="36.90552" lon="-3.52775">
        <ele>437.7401</ele>
        <time>2021-07-17T12:39:47Z</time>
      </trkpt>
      <trkpt lat="36.90475" lon="-3.52666">
        <ele>431.9245</ele>
        <time>2021-07-17T12:39:58Z</time>
      </trkpt>
      <trkpt lat="36.90293" lon="-3.52659">
        <ele>430.0329</ele>
        <time>2021-07-17T12:40:09Z</time>
      </trkpt>
      <trkpt lat="36.90119" lon="-3.52597">
        <ele>424.7287</ele>
        <time>2021-07-17T12:40:20Z</time>
      </trkpt>
      <trkpt lat="36.9001" lon="-3.52515">
        <ele>418.2964</ele>
        <time>2021-07-17T12:40:31Z</time>
      </trkpt>
      <trkpt lat="36.89839" lon="-3.52362">
        <ele>409.079</ele>
        <time>2021-07-17T12:40:42Z</time>
      </trkpt>
      <trkpt lat="36.89673" lon="-3.52233">
        <ele>396.9808</ele>
        <time>2021-07-17T12:40:53Z</time>
      </trkpt>
      <trkpt lat="36.89618" lon="-3.52003">
        <ele>383.2097</ele>
        <time>2021-07-17T12:41:04Z</time>
      </trkpt>
      <trkpt lat="36.89651" lon="-3.51875">
        <ele>376.8582</ele>
        <time>2021-07-17T12:41:10Z</time>
      </trkpt>
      <trkpt lat="36.8978" lon="-3.51652">
        <ele>365.6306</ele>
        <time>2021-07-17T12:41:21Z</time>
      </trkpt>
      <trkpt lat="36.89866" lon="-3.51469">
        <ele>354.8461</ele>
        <time>2021-07-17T12:41:32Z</time>
      </trkpt>
      <trkpt lat="36.89872" lon="-3.51447">
        <ele>351.0283</ele>
        <time>2021-07-17T12:41:43Z</time>
      </trkpt>
      <trkpt lat="36.89871" lon="-3.51448">
        <ele>350.3075</ele>
        <time>2021-07-17T12:42:42Z</time>
      </trkpt>
      <trkpt lat="36.89872" lon="-3.51451">
        <ele>348.363</ele>
        <time>2021-07-17T12:43:41Z</time>
      </trkpt>
      <trkpt lat="36.89877" lon="-3.51443">
        <ele>348.3074</ele>
        <time>2021-07-17T12:44:16Z</time>
      </trkpt>
      <trkpt lat="36.89897" lon="-3.5124">
        <ele>341.7161</ele>
        <time>2021-07-17T12:44:27Z</time>
      </trkpt>
      <trkpt lat="36.89777" lon="-3.51035">
        <ele>329.543</ele>
        <time>2021-07-17T12:44:38Z</time>
      </trkpt>
      <trkpt lat="36.89565" lon="-3.50921">
        <ele>317.7446</ele>
        <time>2021-07-17T12:44:49Z</time>
      </trkpt>
      <trkpt lat="36.8935" lon="-3.50882">
        <ele>310.3033</ele>
        <time>2021-07-17T12:45:00Z</time>
      </trkpt>
      <trkpt lat="36.89166" lon="-3.50701">
        <ele>320.7984</ele>
        <time>2021-07-17T12:45:11Z</time>
      </trkpt>
      <trkpt lat="36.89025" lon="-3.50446">
        <ele>334.5306</ele>
        <time>2021-07-17T12:45:22Z</time>
      </trkpt>
      <trkpt lat="36.88839" lon="-3.50242">
        <ele>346.7594</ele>
        <time>2021-07-17T12:45:33Z</time>
      </trkpt>
      <trkpt lat="36.88636" lon="-3.50197">
        <ele>353.377</ele>
        <time>2021-07-17T12:45:44Z</time>
      </trkpt>
      <trkpt lat="36.88431" lon="-3.50202">
        <ele>361.9291</ele>
        <time>2021-07-17T12:45:55Z</time>
      </trkpt>
      <trkpt lat="36.88252" lon="-3.50009">
        <ele>369.3442</ele>
        <time>2021-07-17T12:46:06Z</time>
      </trkpt>
      <trkpt lat="36.88108" lon="-3.49758">
        <ele>371.9523</ele>
        <time>2021-07-17T12:46:17Z</time>
      </trkpt>
      <trkpt lat="36.87952" lon="-3.49521">
        <ele>368.4262</ele>
        <time>2021-07-17T12:46:28Z</time>
      </trkpt>
      <trkpt lat="36.87833" lon="-3.49232">
        <ele>359.0341</ele>
        <time>2021-07-17T12:46:39Z</time>
      </trkpt>
      <trkpt lat="36.87618" lon="-3.49087">
        <ele>348.431</ele>
        <time>2021-07-17T12:46:50Z</time>
      </trkpt>
      <trkpt lat="36.87368" lon="-3.49054">
        <ele>333.0743</ele>
        <time>2021-07-17T12:47:01Z</time>
      </trkpt>
      <trkpt lat="36.87149" lon="-3.4912">
        <ele>319.041</ele>
        <time>2021-07-17T12:47:12Z</time>
      </trkpt>
      <trkpt lat="36.86909" lon="-3.49199">
        <ele>303.852</ele>
        <time>2021-07-17T12:47:23Z</time>
      </trkpt>
      <trkpt lat="36.86664" lon="-3.49225">
        <ele>288.8183</ele>
        <time>2021-07-17T12:47:34Z</time>
      </trkpt>
      <trkpt lat="36.86452" lon="-3.49321">
        <ele>276.3135</ele>
        <time>2021-07-17T12:47:45Z</time>
      </trkpt>
      <trkpt lat="36.86326" lon="-3.49549">
        <ele>260.7468</ele>
        <time>2021-07-17T12:47:56Z</time>
      </trkpt>
      <trkpt lat="36.8619" lon="-3.49775">
        <ele>246.6774</ele>
        <time>2021-07-17T12:48:07Z</time>
      </trkpt>
      <trkpt lat="36.86013" lon="-3.49996">
        <ele>228.5286</ele>
        <time>2021-07-17T12:48:18Z</time>
      </trkpt>
      <trkpt lat="36.85798" lon="-3.50173">
        <ele>210.812</ele>
        <time>2021-07-17T12:48:29Z</time>
      </trkpt>
      <trkpt lat="36.85544" lon="-3.5021">
        <ele>196.3442</ele>
        <time>2021-07-17T12:48:40Z</time>
      </trkpt>
      <trkpt lat="36.85374" lon="-3.50425">
        <ele>179.5543</ele>
        <time>2021-07-17T12:48:51Z</time>
      </trkpt>
      <trkpt lat="36.85188" lon="-3.5057">
        <ele>167.3062</ele>
        <time>2021-07-17T12:49:02Z</time>
      </trkpt>
      <trkpt lat="36.85098" lon="-3.506">
        <ele>158.6804</ele>
        <time>2021-07-17T12:49:13Z</time>
      </trkpt>
      <trkpt lat="36.85028" lon="-3.5052">
        <ele>159.8654</ele>
        <time>2021-07-17T12:49:24Z</time>
      </trkpt>
      <trkpt lat="36.85123" lon="-3.50512">
        <ele>145.3963</ele>
        <time>2021-07-17T12:49:35Z</time>
      </trkpt>
      <trkpt lat="36.85221" lon="-3.50347">
        <ele>154.0609</ele>
        <time>2021-07-17T12:49:46Z</time>
      </trkpt>
      <trkpt lat="36.85202" lon="-3.50371">
        <ele>156.6711</ele>
        <time>2021-07-17T12:49:57Z</time>
      </trkpt>
      <trkpt lat="36.8507" lon="-3.50486">
        <ele>158.5308</ele>
        <time>2021-07-17T12:50:08Z</time>
      </trkpt>
      <trkpt lat="36.85007" lon="-3.5053">
        <ele>158.6346</ele>
        <time>2021-07-17T12:50:19Z</time>
      </trkpt>
      <trkpt lat="36.84949" lon="-3.50597">
        <ele>158.5612</ele>
        <time>2021-07-17T12:50:30Z</time>
      </trkpt>
      <trkpt lat="36.84946" lon="-3.506">
        <ele>157.5902</ele>
        <time>2021-07-17T12:50:41Z</time>
      </trkpt>
      <trkpt lat="36.84866" lon="-3.50624">
        <ele>160.8029</ele>
        <time>2021-07-17T12:50:52Z</time>
      </trkpt>
      <trkpt lat="36.84717" lon="-3.50713">
        <ele>164.197</ele>
        <time>2021-07-17T12:51:03Z</time>
      </trkpt>
      <trkpt lat="36.8462" lon="-3.50701">
        <ele>165.0778</ele>
        <time>2021-07-17T12:51:14Z</time>
      </trkpt>
      <trkpt lat="36.8459" lon="-3.5071">
        <ele>165.4915</ele>
        <time>2021-07-17T12:51:25Z</time>
      </trkpt>
      <trkpt lat="36.8459" lon="-3.50715">
        <ele>164.9468</ele>
        <time>2021-07-17T12:51:40Z</time>
      </trkpt>
      <trkpt lat="36.84595" lon="-3.50709">
        <ele>169.6446</ele>
        <time>2021-07-17T12:51:56Z</time>
      </trkpt>
      <trkpt lat="36.84735" lon="-3.50698">
        <ele>163.3535</ele>
        <time>2021-07-17T12:52:07Z</time>
      </trkpt>
      <trkpt lat="36.8487" lon="-3.50618">
        <ele>161.7275</ele>
        <time>2021-07-17T12:52:18Z</time>
      </trkpt>
      <trkpt lat="36.84987" lon="-3.50551">
        <ele>159.5177</ele>
        <time>2021-07-17T12:52:29Z</time>
      </trkpt>
      <trkpt lat="36.85057" lon="-3.5055">
        <ele>159.6226</ele>
        <time>2021-07-17T12:52:40Z</time>
      </trkpt>
      <trkpt lat="36.85124" lon="-3.50634">
        <ele>159.7029</ele>
        <time>2021-07-17T12:52:51Z</time>
      </trkpt>
      <trkpt lat="36.84965" lon="-3.50805">
        <ele>150.636</ele>
        <time>2021-07-17T12:53:02Z</time>
      </trkpt>
      <trkpt lat="36.84835" lon="-3.50884">
        <ele>145.3472</ele>
        <time>2021-07-17T12:53:13Z</time>
      </trkpt>
      <trkpt lat="36.84733" lon="-3.50929">
        <ele>146.3054</ele>
        <time>2021-07-17T12:53:24Z</time>
      </trkpt>
      <trkpt lat="36.84643" lon="-3.50979">
        <ele>142.7226</ele>
        <time>2021-07-17T12:53:35Z</time>
      </trkpt>
      <trkpt lat="36.84551" lon="-3.51031">
        <ele>138.4247</ele>
        <time>2021-07-17T12:53:46Z</time>
      </trkpt>
      <trkpt lat="36.84482" lon="-3.5109">
        <ele>140.3236</ele>
        <time>2021-07-17T12:53:57Z</time>
      </trkpt>
      <trkpt lat="36.84431" lon="-3.51152">
        <ele>136.8237</ele>
        <time>2021-07-17T12:54:08Z</time>
      </trkpt>
      <trkpt lat="36.84388" lon="-3.51198">
        <ele>137.3342</ele>
        <time>2021-07-17T12:54:19Z</time>
      </trkpt>
      <trkpt lat="36.84387" lon="-3.51193">
        <ele>138.7252</ele>
        <time>2021-07-17T12:55:05Z</time>
      </trkpt>
      <trkpt lat="36.8439" lon="-3.51187">
        <ele>137.8114</ele>
        <time>2021-07-17T12:55:16Z</time>
      </trkpt>
      <trkpt lat="36.84388" lon="-3.51189">
        <ele>134.2897</ele>
        <time>2021-07-17T12:56:15Z</time>
      </trkpt>
      <trkpt lat="36.84385" lon="-3.51187">
        <ele>134.1017</ele>
        <time>2021-07-17T12:56:26Z</time>
      </trkpt>
      <trkpt lat="36.8438" lon="-3.51185">
        <ele>133.5703</ele>
        <time>2021-07-17T12:56:37Z</time>
      </trkpt>
      <trkpt lat="36.8438" lon="-3.51189">
        <ele>133.5665</ele>
        <time>2021-07-17T12:56:50Z</time>
      </trkpt>
      <trkpt lat="36.84385" lon="-3.51188">
        <ele>133.1083</ele>
        <time>2021-07-17T12:57:03Z</time>
      </trkpt>
      <trkpt lat="36.84392" lon="-3.5118">
        <ele>133.7207</ele>
        <time>2021-07-17T12:57:14Z</time>
      </trkpt>
      <trkpt lat="36.844" lon="-3.5118">
        <ele>132.4046</ele>
        <time>2021-07-17T12:57:25Z</time>
      </trkpt>
      <trkpt lat="36.84395" lon="-3.51182">
        <ele>131.3326</ele>
        <time>2021-07-17T12:57:40Z</time>
      </trkpt>
      <trkpt lat="36.84389" lon="-3.51184">
        <ele>133.1054</ele>
        <time>2021-07-17T12:57:51Z</time>
      </trkpt>
      <trkpt lat="36.84387" lon="-3.51187">
        <ele>133.9513</ele>
        <time>2021-07-17T12:58:15Z</time>
      </trkpt>
      <trkpt lat="36.84386" lon="-3.5119">
        <ele>135.2034</ele>
        <time>2021-07-17T12:59:14Z</time>
      </trkpt>
      <trkpt lat="36.84387" lon="-3.51186">
        <ele>134.1169</ele>
        <time>2021-07-17T12:59:40Z</time>
      </trkpt>
      <trkpt lat="36.84383" lon="-3.51185">
        <ele>133.6864</ele>
        <time>2021-07-17T13:00:09Z</time>
      </trkpt>
      <trkpt lat="36.84387" lon="-3.51187">
        <ele>133.6028</ele>
        <time>2021-07-17T13:00:57Z</time>
      </trkpt>
      <trkpt lat="36.84386" lon="-3.51187">
        <ele>134.369</ele>
        <time>2021-07-17T13:01:57Z</time>
      </trkpt>
      <trkpt lat="36.84386" lon="-3.51187">
        <ele>134.369</ele>
        <time>2021-07-17T13:02:57Z</time>
      </trkpt>
      <trkpt lat="36.84386" lon="-3.51187">
        <ele>134.369</ele>
        <time>2021-07-17T13:03:57Z</time>
      </trkpt>
      <trkpt lat="36.84386" lon="-3.51187">
        <ele>134.369</ele>
        <time>2021-07-17T13:04:57Z</time>
      </trkpt>
      <trkpt lat="36.84386" lon="-3.51187">
        <ele>134.369</ele>
        <time>2021-07-17T13:05:57Z</time>
      </trkpt>
      <trkpt lat="36.84386" lon="-3.51187">
        <ele>134.369</ele>
        <time>2021-07-17T13:06:57Z</time>
      </trkpt>
      <trkpt lat="36.84386" lon="-3.51187">
        <ele>134.369</ele>
        <time>2021-07-17T13:07:57Z</time>
      </trkpt>
      <trkpt lat="36.84386" lon="-3.51187">
        <ele>134.369</ele>
        <time>2021-07-17T13:08:57Z</time>
      </trkpt>
      <trkpt lat="36.84385" lon="-3.51185">
        <ele>132.6455</ele>
        <time>2021-07-17T13:09:57Z</time>
      </trkpt>
      <trkpt lat="36.84385" lon="-3.51185">
        <ele>132.6455</ele>
        <time>2021-07-17T13:10:57Z</time>
      </trkpt>
      <trkpt lat="36.84385" lon="-3.51185">
        <ele>132.6455</ele>
        <time>2021-07-17T13:11:57Z</time>
      </trkpt>
      <trkpt lat="36.84385" lon="-3.51185">
        <ele>132.6455</ele>
        <time>2021-07-17T13:12:56Z</time>
      </trkpt>
      <trkpt lat="36.84385" lon="-3.51185">
        <ele>132.6455</ele>
        <time>2021-07-17T13:13:56Z</time>
      </trkpt>
      <trkpt lat="36.84385" lon="-3.51185">
        <ele>132.6455</ele>
        <time>2021-07-17T13:14:55Z</time>
      </trkpt>
      <trkpt lat="36.84385" lon="-3.51185">
        <ele>132.6455</ele>
        <time>2021-07-17T13:15:54Z</time>
      </trkpt>
      <trkpt lat="36.84385" lon="-3.51185">
        <ele>132.6455</ele>
        <time>2021-07-17T13:16:53Z</time>
      </trkpt>
      <trkpt lat="36.84385" lon="-3.51185">
        <ele>132.6455</ele>
        <time>2021-07-17T13:17:52Z</time>
      </trkpt>
      <trkpt lat="36.84385" lon="-3.51185">
        <ele>132.6455</ele>
        <time>2021-07-17T13:18:51Z</time>
      </trkpt>
      <trkpt lat="36.84385" lon="-3.51185">
        <ele>132.6455</ele>
        <time>2021-07-17T13:19:50Z</time>
      </trkpt>
      <trkpt lat="36.84385" lon="-3.51185">
        <ele>132.6455</ele>
        <time>2021-07-17T13:20:49Z</time>
      </trkpt>
      <trkpt lat="36.84385" lon="-3.51185">
        <ele>132.6455</ele>
        <time>2021-07-17T13:21:48Z</time>
      </trkpt>
      <trkpt lat="36.84385" lon="-3.51185">
        <ele>132.6455</ele>
        <time>2021-07-17T13:22:47Z</time>
      </trkpt>
      <trkpt lat="36.84385" lon="-3.51185">
        <ele>132.6455</ele>
        <time>2021-07-17T13:23:46Z</time>
      </trkpt>
      <trkpt lat="36.84385" lon="-3.51185">
        <ele>132.6455</ele>
        <time>2021-07-17T13:24:45Z</time>
      </trkpt>
      <trkpt lat="36.84385" lon="-3.51185">
        <ele>132.6455</ele>
        <time>2021-07-17T13:25:44Z</time>
      </trkpt>
      <trkpt lat="36.84385" lon="-3.51185">
        <ele>132.6455</ele>
        <time>2021-07-17T13:26:43Z</time>
      </trkpt>
      <trkpt lat="36.84385" lon="-3.51185">
        <ele>132.6455</ele>
        <time>2021-07-17T13:27:42Z</time>
      </trkpt>
      <trkpt lat="36.84385" lon="-3.51185">
        <ele>132.6455</ele>
        <time>2021-07-17T13:28:41Z</time>
      </trkpt>
      <trkpt lat="36.84385" lon="-3.51185">
        <ele>132.6455</ele>
        <time>2021-07-17T13:29:40Z</time>
      </trkpt>
      <trkpt lat="36.84381" lon="-3.51181">
        <ele>133.6001</ele>
        <time>2021-07-17T13:29:59Z</time>
      </trkpt>
      <trkpt lat="36.84384" lon="-3.51184">
        <ele>133.4641</ele>
        <time>2021-07-17T13:30:13Z</time>
      </trkpt>
      <trkpt lat="36.84388" lon="-3.51184">
        <ele>134.0962</ele>
        <time>2021-07-17T13:30:29Z</time>
      </trkpt>
      <trkpt lat="36.84384" lon="-3.51182">
        <ele>133.2108</ele>
        <time>2021-07-17T13:31:07Z</time>
      </trkpt>
      <trkpt lat="36.84385" lon="-3.51179">
        <ele>136.6429</ele>
        <time>2021-07-17T13:43:05Z</time>
      </trkpt>
      <trkpt lat="36.84386" lon="-3.51189">
        <ele>134.709</ele>
        <time>2021-07-17T13:43:16Z</time>
      </trkpt>
      <trkpt lat="36.84389" lon="-3.51186">
        <ele>134.7724</ele>
        <time>2021-07-17T13:44:15Z</time>
      </trkpt>
      <trkpt lat="36.84385" lon="-3.51187">
        <ele>135.0631</ele>
        <time>2021-07-17T13:45:08Z</time>
      </trkpt>
      <trkpt lat="36.84385" lon="-3.51198">
        <ele>135.7739</ele>
        <time>2021-07-17T13:45:19Z</time>
      </trkpt>
      <trkpt lat="36.84397" lon="-3.512">
        <ele>135.6638</ele>
        <time>2021-07-17T13:45:30Z</time>
      </trkpt>
      <trkpt lat="36.84413" lon="-3.51179">
        <ele>137.4818</ele>
        <time>2021-07-17T13:45:41Z</time>
      </trkpt>
      <trkpt lat="36.84485" lon="-3.51083">
        <ele>139.1076</ele>
        <time>2021-07-17T13:45:52Z</time>
      </trkpt>
      <trkpt lat="36.84554" lon="-3.51022">
        <ele>136.8179</ele>
        <time>2021-07-17T13:46:03Z</time>
      </trkpt>
      <trkpt lat="36.84631" lon="-3.50979">
        <ele>138.1995</ele>
        <time>2021-07-17T13:46:14Z</time>
      </trkpt>
      <trkpt lat="36.84676" lon="-3.50953">
        <ele>144.7266</ele>
        <time>2021-07-17T13:46:25Z</time>
      </trkpt>
      <trkpt lat="36.84715" lon="-3.50939">
        <ele>146.5259</ele>
        <time>2021-07-17T13:46:36Z</time>
      </trkpt>
      <trkpt lat="36.8477" lon="-3.50899">
        <ele>148.4656</ele>
        <time>2021-07-17T13:46:47Z</time>
      </trkpt>
      <trkpt lat="36.84878" lon="-3.50861">
        <ele>149.3572</ele>
        <time>2021-07-17T13:46:58Z</time>
      </trkpt>
      <trkpt lat="36.8503" lon="-3.50726">
        <ele>154.4845</ele>
        <time>2021-07-17T13:47:09Z</time>
      </trkpt>
      <trkpt lat="36.8511" lon="-3.50617">
        <ele>160.3508</ele>
        <time>2021-07-17T13:47:20Z</time>
      </trkpt>
      <trkpt lat="36.85024" lon="-3.50493">
        <ele>157.7003</ele>
        <time>2021-07-17T13:47:31Z</time>
      </trkpt>
      <trkpt lat="36.85129" lon="-3.50316">
        <ele>174.809</ele>
        <time>2021-07-17T13:47:42Z</time>
      </trkpt>
      <trkpt lat="36.8523" lon="-3.50147">
        <ele>187.4259</ele>
        <time>2021-07-17T13:47:53Z</time>
      </trkpt>
      <trkpt lat="36.85282" lon="-3.49941">
        <ele>202.6947</ele>
        <time>2021-07-17T13:48:04Z</time>
      </trkpt>
      <trkpt lat="36.85419" lon="-3.49905">
        <ele>214.4909</ele>
        <time>2021-07-17T13:48:15Z</time>
      </trkpt>
      <trkpt lat="36.8559" lon="-3.49794">
        <ele>226.7807</ele>
        <time>2021-07-17T13:48:26Z</time>
      </trkpt>
      <trkpt lat="36.85712" lon="-3.49648">
        <ele>245.0768</ele>
        <time>2021-07-17T13:48:37Z</time>
      </trkpt>
      <trkpt lat="36.85681" lon="-3.49446">
        <ele>253.0556</ele>
        <time>2021-07-17T13:48:48Z</time>
      </trkpt>
      <trkpt lat="36.85643" lon="-3.49267">
        <ele>260.7024</ele>
        <time>2021-07-17T13:48:59Z</time>
      </trkpt>
      <trkpt lat="36.8571" lon="-3.4915">
        <ele>268.2815</ele>
        <time>2021-07-17T13:49:10Z</time>
      </trkpt>
      <trkpt lat="36.85817" lon="-3.49032">
        <ele>266.5369</ele>
        <time>2021-07-17T13:49:21Z</time>
      </trkpt>
      <trkpt lat="36.85889" lon="-3.48796">
        <ele>268.2457</ele>
        <time>2021-07-17T13:49:32Z</time>
      </trkpt>
      <trkpt lat="36.86076" lon="-3.48762">
        <ele>259.1848</ele>
        <time>2021-07-17T13:49:43Z</time>
      </trkpt>
      <trkpt lat="36.86124" lon="-3.4858">
        <ele>265.8024</ele>
        <time>2021-07-17T13:49:54Z</time>
      </trkpt>
      <trkpt lat="36.86196" lon="-3.48605">
        <ele>271.5616</ele>
        <time>2021-07-17T13:50:05Z</time>
      </trkpt>
      <trkpt lat="36.86314" lon="-3.48601">
        <ele>276.7598</ele>
        <time>2021-07-17T13:50:16Z</time>
      </trkpt>
      <trkpt lat="36.86432" lon="-3.48462">
        <ele>286.3313</ele>
        <time>2021-07-17T13:50:27Z</time>
      </trkpt>
      <trkpt lat="36.86504" lon="-3.48409">
        <ele>290.0906</ele>
        <time>2021-07-17T13:50:38Z</time>
      </trkpt>
      <trkpt lat="36.86513" lon="-3.48417">
        <ele>291.3762</ele>
        <time>2021-07-17T13:50:55Z</time>
      </trkpt>
      <trkpt lat="36.86511" lon="-3.48416">
        <ele>284.4747</ele>
        <time>2021-07-17T13:51:54Z</time>
      </trkpt>
      <trkpt lat="36.86513" lon="-3.48412">
        <ele>286.1727</ele>
        <time>2021-07-17T13:52:46Z</time>
      </trkpt>
      <trkpt lat="36.86513" lon="-3.48406">
        <ele>287.0519</ele>
        <time>2021-07-17T13:52:57Z</time>
      </trkpt>
      <trkpt lat="36.8661" lon="-3.48293">
        <ele>285.7977</ele>
        <time>2021-07-17T13:53:08Z</time>
      </trkpt>
      <trkpt lat="36.86771" lon="-3.48224">
        <ele>294.9542</ele>
        <time>2021-07-17T13:53:19Z</time>
      </trkpt>
      <trkpt lat="36.86822" lon="-3.48081">
        <ele>294.3585</ele>
        <time>2021-07-17T13:53:30Z</time>
      </trkpt>
      <trkpt lat="36.86733" lon="-3.47861">
        <ele>313.5164</ele>
        <time>2021-07-17T13:53:41Z</time>
      </trkpt>
      <trkpt lat="36.86735" lon="-3.47677">
        <ele>321.911</ele>
        <time>2021-07-17T13:53:52Z</time>
      </trkpt>
      <trkpt lat="36.86899" lon="-3.47746">
        <ele>334.1743</ele>
        <time>2021-07-17T13:54:03Z</time>
      </trkpt>
      <trkpt lat="36.87032" lon="-3.47709">
        <ele>344.8121</ele>
        <time>2021-07-17T13:54:14Z</time>
      </trkpt>
      <trkpt lat="36.8707" lon="-3.47612">
        <ele>355.3586</ele>
        <time>2021-07-17T13:54:25Z</time>
      </trkpt>
      <trkpt lat="36.87078" lon="-3.47615">
        <ele>357.2445</ele>
        <time>2021-07-17T13:54:36Z</time>
      </trkpt>
      <trkpt lat="36.87077" lon="-3.47623">
        <ele>358.1763</ele>
        <time>2021-07-17T13:55:17Z</time>
      </trkpt>
      <trkpt lat="36.87087" lon="-3.47622">
        <ele>360.4134</ele>
        <time>2021-07-17T13:55:28Z</time>
      </trkpt>
      <trkpt lat="36.87225" lon="-3.47561">
        <ele>370.4564</ele>
        <time>2021-07-17T13:55:39Z</time>
      </trkpt>
      <trkpt lat="36.8723" lon="-3.47401">
        <ele>379.1444</ele>
        <time>2021-07-17T13:55:50Z</time>
      </trkpt>
      <trkpt lat="36.8724" lon="-3.47207">
        <ele>387.7097</ele>
        <time>2021-07-17T13:56:01Z</time>
      </trkpt>
      <trkpt lat="36.8717" lon="-3.47078">
        <ele>392.2732</ele>
        <time>2021-07-17T13:56:12Z</time>
      </trkpt>
      <trkpt lat="36.87148" lon="-3.46891">
        <ele>391.6311</ele>
        <time>2021-07-17T13:56:23Z</time>
      </trkpt>
      <trkpt lat="36.87152" lon="-3.46629">
        <ele>394.177</ele>
        <time>2021-07-17T13:56:34Z</time>
      </trkpt>
      <trkpt lat="36.87158" lon="-3.46351">
        <ele>392.0076</ele>
        <time>2021-07-17T13:56:45Z</time>
      </trkpt>
      <trkpt lat="36.87189" lon="-3.46122">
        <ele>384.4018</ele>
        <time>2021-07-17T13:56:56Z</time>
      </trkpt>
      <trkpt lat="36.87261" lon="-3.45906">
        <ele>394.1976</ele>
        <time>2021-07-17T13:57:07Z</time>
      </trkpt>
      <trkpt lat="36.87316" lon="-3.4567">
        <ele>383.0124</ele>
        <time>2021-07-17T13:57:18Z</time>
      </trkpt>
      <trkpt lat="36.87318" lon="-3.45438">
        <ele>374.6356</ele>
        <time>2021-07-17T13:57:29Z</time>
      </trkpt>
      <trkpt lat="36.87459" lon="-3.45438">
        <ele>368.1694</ele>
        <time>2021-07-17T13:57:40Z</time>
      </trkpt>
      <trkpt lat="36.87469" lon="-3.4523">
        <ele>357.0329</ele>
        <time>2021-07-17T13:57:51Z</time>
      </trkpt>
      <trkpt lat="36.8754" lon="-3.4498">
        <ele>337.2354</ele>
        <time>2021-07-17T13:58:02Z</time>
      </trkpt>
      <trkpt lat="36.8752" lon="-3.44745">
        <ele>334.1396</ele>
        <time>2021-07-17T13:58:13Z</time>
      </trkpt>
      <trkpt lat="36.87511" lon="-3.44496">
        <ele>329.6525</ele>
        <time>2021-07-17T13:58:24Z</time>
      </trkpt>
      <trkpt lat="36.8746" lon="-3.44247">
        <ele>323.8306</ele>
        <time>2021-07-17T13:58:35Z</time>
      </trkpt>
      <trkpt lat="36.87366" lon="-3.44071">
        <ele>327.1463</ele>
        <time>2021-07-17T13:58:46Z</time>
      </trkpt>
      <trkpt lat="36.87223" lon="-3.43976">
        <ele>331.1628</ele>
        <time>2021-07-17T13:58:57Z</time>
      </trkpt>
      <trkpt lat="36.87382" lon="-3.43906">
        <ele>336.7514</ele>
        <time>2021-07-17T13:59:08Z</time>
      </trkpt>
      <trkpt lat="36.87512" lon="-3.43817">
        <ele>346.0261</ele>
        <time>2021-07-17T13:59:19Z</time>
      </trkpt>
      <trkpt lat="36.87514" lon="-3.43641">
        <ele>354.1136</ele>
        <time>2021-07-17T13:59:30Z</time>
      </trkpt>
      <trkpt lat="36.87427" lon="-3.4341">
        <ele>361.5145</ele>
        <time>2021-07-17T13:59:41Z</time>
      </trkpt>
      <trkpt lat="36.87572" lon="-3.43405">
        <ele>370.0564</ele>
        <time>2021-07-17T13:59:52Z</time>
      </trkpt>
      <trkpt lat="36.87703" lon="-3.43308">
        <ele>389.2081</ele>
        <time>2021-07-17T14:00:03Z</time>
      </trkpt>
      <trkpt lat="36.87755" lon="-3.43123">
        <ele>392.9411</ele>
        <time>2021-07-17T14:00:14Z</time>
      </trkpt>
      <trkpt lat="36.87908" lon="-3.43092">
        <ele>389.549</ele>
        <time>2021-07-17T14:00:25Z</time>
      </trkpt>
      <trkpt lat="36.87908" lon="-3.4284">
        <ele>380.2322</ele>
        <time>2021-07-17T14:00:36Z</time>
      </trkpt>
      <trkpt lat="36.8788" lon="-3.42616">
        <ele>374.3738</ele>
        <time>2021-07-17T14:00:47Z</time>
      </trkpt>
      <trkpt lat="36.87917" lon="-3.42478">
        <ele>370.7285</ele>
        <time>2021-07-17T14:00:58Z</time>
      </trkpt>
      <trkpt lat="36.87897" lon="-3.42275">
        <ele>358.8148</ele>
        <time>2021-07-17T14:01:09Z</time>
      </trkpt>
      <trkpt lat="36.87993" lon="-3.42057">
        <ele>358.0626</ele>
        <time>2021-07-17T14:01:20Z</time>
      </trkpt>
      <trkpt lat="36.87959" lon="-3.41854">
        <ele>344.9759</ele>
        <time>2021-07-17T14:01:31Z</time>
      </trkpt>
      <trkpt lat="36.87978" lon="-3.41628">
        <ele>328.4188</ele>
        <time>2021-07-17T14:01:42Z</time>
      </trkpt>
      <trkpt lat="36.88148" lon="-3.41665">
        <ele>312.5314</ele>
        <time>2021-07-17T14:01:53Z</time>
      </trkpt>
      <trkpt lat="36.88299" lon="-3.41813">
        <ele>310.067</ele>
        <time>2021-07-17T14:02:04Z</time>
      </trkpt>
      <trkpt lat="36.88349" lon="-3.41678">
        <ele>321.8984</ele>
        <time>2021-07-17T14:02:15Z</time>
      </trkpt>
      <trkpt lat="36.8835" lon="-3.41511">
        <ele>320.0278</ele>
        <time>2021-07-17T14:02:26Z</time>
      </trkpt>
      <trkpt lat="36.88466" lon="-3.41556">
        <ele>317.9316</ele>
        <time>2021-07-17T14:02:37Z</time>
      </trkpt>
      <trkpt lat="36.886" lon="-3.41685">
        <ele>327.5036</ele>
        <time>2021-07-17T14:02:48Z</time>
      </trkpt>
      <trkpt lat="36.88745" lon="-3.41818">
        <ele>337.9205</ele>
        <time>2021-07-17T14:02:59Z</time>
      </trkpt>
      <trkpt lat="36.88876" lon="-3.41839">
        <ele>349.1395</ele>
        <time>2021-07-17T14:03:10Z</time>
      </trkpt>
      <trkpt lat="36.89014" lon="-3.41909">
        <ele>360.3027</ele>
        <time>2021-07-17T14:03:21Z</time>
      </trkpt>
      <trkpt lat="36.89146" lon="-3.42005">
        <ele>370.9675</ele>
        <time>2021-07-17T14:03:32Z</time>
      </trkpt>
      <trkpt lat="36.89239" lon="-3.41977">
        <ele>379.9636</ele>
        <time>2021-07-17T14:03:43Z</time>
      </trkpt>
      <trkpt lat="36.89316" lon="-3.42091">
        <ele>387.2425</ele>
        <time>2021-07-17T14:03:54Z</time>
      </trkpt>
      <trkpt lat="36.89399" lon="-3.42118">
        <ele>393.6423</ele>
        <time>2021-07-17T14:04:05Z</time>
      </trkpt>
      <trkpt lat="36.89497" lon="-3.42247">
        <ele>403.3263</ele>
        <time>2021-07-17T14:04:16Z</time>
      </trkpt>
      <trkpt lat="36.89629" lon="-3.42273">
        <ele>413.5145</ele>
        <time>2021-07-17T14:04:27Z</time>
      </trkpt>
      <trkpt lat="36.89737" lon="-3.42217">
        <ele>420.7637</ele>
        <time>2021-07-17T14:04:38Z</time>
      </trkpt>
      <trkpt lat="36.89816" lon="-3.42153">
        <ele>429.0371</ele>
        <time>2021-07-17T14:04:49Z</time>
      </trkpt>
      <trkpt lat="36.89892" lon="-3.4213">
        <ele>436.3211</ele>
        <time>2021-07-17T14:05:00Z</time>
      </trkpt>
      <trkpt lat="36.89896" lon="-3.42221">
        <ele>443.9526</ele>
        <time>2021-07-17T14:05:11Z</time>
      </trkpt>
      <trkpt lat="36.89895" lon="-3.42243">
        <ele>449.1056</ele>
        <time>2021-07-17T14:05:22Z</time>
      </trkpt>
      <trkpt lat="36.89894" lon="-3.42249">
        <ele>458.7316</ele>
        <time>2021-07-17T14:05:48Z</time>
      </trkpt>
      <trkpt lat="36.89904" lon="-3.42302">
        <ele>458.3821</ele>
        <time>2021-07-17T14:05:59Z</time>
      </trkpt>
      <trkpt lat="36.89962" lon="-3.42332">
        <ele>459.1172</ele>
        <time>2021-07-17T14:06:10Z</time>
      </trkpt>
      <trkpt lat="36.89997" lon="-3.42352">
        <ele>454.6503</ele>
        <time>2021-07-17T14:06:21Z</time>
      </trkpt>
      <trkpt lat="36.9" lon="-3.42354">
        <ele>454.4319</ele>
        <time>2021-07-17T14:06:33Z</time>
      </trkpt>
      <trkpt lat="36.90005" lon="-3.42357">
        <ele>454.6241</ele>
        <time>2021-07-17T14:06:48Z</time>
      </trkpt>
      <trkpt lat="36.90055" lon="-3.4238">
        <ele>456.0766</ele>
        <time>2021-07-17T14:06:59Z</time>
      </trkpt>
      <trkpt lat="36.90065" lon="-3.42449">
        <ele>458.4673</ele>
        <time>2021-07-17T14:07:10Z</time>
      </trkpt>
      <trkpt lat="36.90065" lon="-3.42534">
        <ele>460.9199</ele>
        <time>2021-07-17T14:07:21Z</time>
      </trkpt>
      <trkpt lat="36.90097" lon="-3.42543">
        <ele>461.2667</ele>
        <time>2021-07-17T14:07:32Z</time>
      </trkpt>
      <trkpt lat="36.90166" lon="-3.42561">
        <ele>458.0806</ele>
        <time>2021-07-17T14:07:43Z</time>
      </trkpt>
      <trkpt lat="36.90224" lon="-3.4265">
        <ele>455.0583</ele>
        <time>2021-07-17T14:07:54Z</time>
      </trkpt>
      <trkpt lat="36.90225" lon="-3.42769">
        <ele>455.3018</ele>
        <time>2021-07-17T14:08:05Z</time>
      </trkpt>
      <trkpt lat="36.90113" lon="-3.4282">
        <ele>461.888</ele>
        <time>2021-07-17T14:08:16Z</time>
      </trkpt>
      <trkpt lat="36.9018" lon="-3.42816">
        <ele>470.375</ele>
        <time>2021-07-17T14:08:27Z</time>
      </trkpt>
      <trkpt lat="36.90389" lon="-3.42805">
        <ele>483.6702</ele>
        <time>2021-07-17T14:08:38Z</time>
      </trkpt>
      <trkpt lat="36.90593" lon="-3.42778">
        <ele>496.8809</ele>
        <time>2021-07-17T14:08:49Z</time>
      </trkpt>
      <trkpt lat="36.90692" lon="-3.42782">
        <ele>502.2162</ele>
        <time>2021-07-17T14:09:00Z</time>
      </trkpt>
      <trkpt lat="36.90624" lon="-3.42836">
        <ele>508.1268</ele>
        <time>2021-07-17T14:09:11Z</time>
      </trkpt>
      <trkpt lat="36.90583" lon="-3.42882">
        <ele>513.959</ele>
        <time>2021-07-17T14:09:22Z</time>
      </trkpt>
      <trkpt lat="36.90698" lon="-3.42929">
        <ele>521.6942</ele>
        <time>2021-07-17T14:09:33Z</time>
      </trkpt>
      <trkpt lat="36.90813" lon="-3.43013">
        <ele>531.3687</ele>
        <time>2021-07-17T14:09:44Z</time>
      </trkpt>
      <trkpt lat="36.90889" lon="-3.43104">
        <ele>538.7579</ele>
        <time>2021-07-17T14:09:55Z</time>
      </trkpt>
      <trkpt lat="36.91008" lon="-3.43063">
        <ele>547.2923</ele>
        <time>2021-07-17T14:10:06Z</time>
      </trkpt>
      <trkpt lat="36.91124" lon="-3.42926">
        <ele>562.4316</ele>
        <time>2021-07-17T14:10:17Z</time>
      </trkpt>
      <trkpt lat="36.91236" lon="-3.42746">
        <ele>570.1452</ele>
        <time>2021-07-17T14:10:28Z</time>
      </trkpt>
      <trkpt lat="36.91299" lon="-3.42698">
        <ele>583.0134</ele>
        <time>2021-07-17T14:10:39Z</time>
      </trkpt>
      <trkpt lat="36.91221" lon="-3.42896">
        <ele>596.0847</ele>
        <time>2021-07-17T14:10:50Z</time>
      </trkpt>
      <trkpt lat="36.91173" lon="-3.4305">
        <ele>606.2913</ele>
        <time>2021-07-17T14:11:01Z</time>
      </trkpt>
      <trkpt lat="36.91147" lon="-3.43226">
        <ele>614.158</ele>
        <time>2021-07-17T14:11:12Z</time>
      </trkpt>
      <trkpt lat="36.91178" lon="-3.43256">
        <ele>622.5219</ele>
        <time>2021-07-17T14:11:23Z</time>
      </trkpt>
      <trkpt lat="36.91233" lon="-3.43051">
        <ele>635.1866</ele>
        <time>2021-07-17T14:11:34Z</time>
      </trkpt>
      <trkpt lat="36.91302" lon="-3.42924">
        <ele>645.6829</ele>
        <time>2021-07-17T14:11:45Z</time>
      </trkpt>
      <trkpt lat="36.91454" lon="-3.42866">
        <ele>658.9483</ele>
        <time>2021-07-17T14:11:56Z</time>
      </trkpt>
      <trkpt lat="36.91543" lon="-3.42767">
        <ele>669.7297</ele>
        <time>2021-07-17T14:12:07Z</time>
      </trkpt>
      <trkpt lat="36.91691" lon="-3.42728">
        <ele>678.633</ele>
        <time>2021-07-17T14:12:18Z</time>
      </trkpt>
      <trkpt lat="36.91784" lon="-3.42513">
        <ele>684.5438</ele>
        <time>2021-07-17T14:12:29Z</time>
      </trkpt>
      <trkpt lat="36.91931" lon="-3.42347">
        <ele>692.1458</ele>
        <time>2021-07-17T14:12:40Z</time>
      </trkpt>
      <trkpt lat="36.91892" lon="-3.42216">
        <ele>697.8184</ele>
        <time>2021-07-17T14:12:51Z</time>
      </trkpt>
      <trkpt lat="36.91926" lon="-3.4206">
        <ele>705.7544</ele>
        <time>2021-07-17T14:13:02Z</time>
      </trkpt>
      <trkpt lat="36.91996" lon="-3.41958">
        <ele>708.5762</ele>
        <time>2021-07-17T14:13:13Z</time>
      </trkpt>
      <trkpt lat="36.92153" lon="-3.42044">
        <ele>718.0771</ele>
        <time>2021-07-17T14:13:24Z</time>
      </trkpt>
      <trkpt lat="36.92193" lon="-3.4192">
        <ele>721.3344</ele>
        <time>2021-07-17T14:13:35Z</time>
      </trkpt>
      <trkpt lat="36.92226" lon="-3.41697">
        <ele>727.2525</ele>
        <time>2021-07-17T14:13:46Z</time>
      </trkpt>
      <trkpt lat="36.92347" lon="-3.41519">
        <ele>736.3645</ele>
        <time>2021-07-17T14:13:57Z</time>
      </trkpt>
      <trkpt lat="36.92503" lon="-3.41538">
        <ele>743.7408</ele>
        <time>2021-07-17T14:14:08Z</time>
      </trkpt>
      <trkpt lat="36.92651" lon="-3.41543">
        <ele>747.2331</ele>
        <time>2021-07-17T14:14:19Z</time>
      </trkpt>
      <trkpt lat="36.92638" lon="-3.41374">
        <ele>754.4653</ele>
        <time>2021-07-17T14:14:30Z</time>
      </trkpt>
      <trkpt lat="36.9258" lon="-3.41269">
        <ele>764.7983</ele>
        <time>2021-07-17T14:14:41Z</time>
      </trkpt>
      <trkpt lat="36.92594" lon="-3.41106">
        <ele>775.6349</ele>
        <time>2021-07-17T14:14:52Z</time>
      </trkpt>
      <trkpt lat="36.92496" lon="-3.41083">
        <ele>788.421</ele>
        <time>2021-07-17T14:15:03Z</time>
      </trkpt>
      <trkpt lat="36.92422" lon="-3.40925">
        <ele>800.0966</ele>
        <time>2021-07-17T14:15:14Z</time>
      </trkpt>
      <trkpt lat="36.92486" lon="-3.40767">
        <ele>808.721</ele>
        <time>2021-07-17T14:15:25Z</time>
      </trkpt>
      <trkpt lat="36.92554" lon="-3.40582">
        <ele>822.4562</ele>
        <time>2021-07-17T14:15:36Z</time>
      </trkpt>
      <trkpt lat="36.92588" lon="-3.40406">
        <ele>835.4467</ele>
        <time>2021-07-17T14:15:47Z</time>
      </trkpt>
      <trkpt lat="36.92515" lon="-3.40277">
        <ele>843.7273</ele>
        <time>2021-07-17T14:15:58Z</time>
      </trkpt>
      <trkpt lat="36.92498" lon="-3.4006">
        <ele>854.1369</ele>
        <time>2021-07-17T14:16:09Z</time>
      </trkpt>
      <trkpt lat="36.92448" lon="-3.39852">
        <ele>865.5516</ele>
        <time>2021-07-17T14:16:20Z</time>
      </trkpt>
      <trkpt lat="36.92326" lon="-3.39779">
        <ele>873.1619</ele>
        <time>2021-07-17T14:16:31Z</time>
      </trkpt>
      <trkpt lat="36.92425" lon="-3.39765">
        <ele>881.4896</ele>
        <time>2021-07-17T14:16:42Z</time>
      </trkpt>
      <trkpt lat="36.92416" lon="-3.397">
        <ele>890.8426</ele>
        <time>2021-07-17T14:16:53Z</time>
      </trkpt>
      <trkpt lat="36.92378" lon="-3.39504">
        <ele>903.3552</ele>
        <time>2021-07-17T14:17:04Z</time>
      </trkpt>
      <trkpt lat="36.92342" lon="-3.39332">
        <ele>912.4974</ele>
        <time>2021-07-17T14:17:15Z</time>
      </trkpt>
      <trkpt lat="36.92351" lon="-3.39178">
        <ele>918.1867</ele>
        <time>2021-07-17T14:17:26Z</time>
      </trkpt>
      <trkpt lat="36.92319" lon="-3.39024">
        <ele>924.6967</ele>
        <time>2021-07-17T14:17:37Z</time>
      </trkpt>
      <trkpt lat="36.92267" lon="-3.38904">
        <ele>930.6754</ele>
        <time>2021-07-17T14:17:48Z</time>
      </trkpt>
      <trkpt lat="36.92145" lon="-3.3885">
        <ele>942.3344</ele>
        <time>2021-07-17T14:17:59Z</time>
      </trkpt>
      <trkpt lat="36.92182" lon="-3.38712">
        <ele>945.9438</ele>
        <time>2021-07-17T14:18:10Z</time>
      </trkpt>
      <trkpt lat="36.92296" lon="-3.3864">
        <ele>945.8519</ele>
        <time>2021-07-17T14:18:21Z</time>
      </trkpt>
      <trkpt lat="36.92374" lon="-3.38557">
        <ele>945.1645</ele>
        <time>2021-07-17T14:18:32Z</time>
      </trkpt>
      <trkpt lat="36.92346" lon="-3.38429">
        <ele>941.2906</ele>
        <time>2021-07-17T14:18:43Z</time>
      </trkpt>
      <trkpt lat="36.92288" lon="-3.38301">
        <ele>937.2028</ele>
        <time>2021-07-17T14:18:54Z</time>
      </trkpt>
      <trkpt lat="36.92255" lon="-3.38138">
        <ele>932.191</ele>
        <time>2021-07-17T14:19:05Z</time>
      </trkpt>
      <trkpt lat="36.92225" lon="-3.37989">
        <ele>929.064</ele>
        <time>2021-07-17T14:19:16Z</time>
      </trkpt>
      <trkpt lat="36.92299" lon="-3.37936">
        <ele>928.0321</ele>
        <time>2021-07-17T14:19:27Z</time>
      </trkpt>
      <trkpt lat="36.92456" lon="-3.37915">
        <ele>936.1595</ele>
        <time>2021-07-17T14:19:38Z</time>
      </trkpt>
      <trkpt lat="36.92595" lon="-3.3784">
        <ele>939.872</ele>
        <time>2021-07-17T14:19:49Z</time>
      </trkpt>
      <trkpt lat="36.92716" lon="-3.37718">
        <ele>941.5331</ele>
        <time>2021-07-17T14:20:00Z</time>
      </trkpt>
      <trkpt lat="36.92838" lon="-3.37679">
        <ele>946.3877</ele>
        <time>2021-07-17T14:20:11Z</time>
      </trkpt>
      <trkpt lat="36.92905" lon="-3.37608">
        <ele>943.9147</ele>
        <time>2021-07-17T14:20:22Z</time>
      </trkpt>
      <trkpt lat="36.93002" lon="-3.37532">
        <ele>940.951</ele>
        <time>2021-07-17T14:20:33Z</time>
      </trkpt>
      <trkpt lat="36.9309" lon="-3.37459">
        <ele>940.7914</ele>
        <time>2021-07-17T14:20:44Z</time>
      </trkpt>
      <trkpt lat="36.93137" lon="-3.37311">
        <ele>947.2209</ele>
        <time>2021-07-17T14:20:55Z</time>
      </trkpt>
      <trkpt lat="36.93312" lon="-3.37193">
        <ele>953.4888</ele>
        <time>2021-07-17T14:21:06Z</time>
      </trkpt>
      <trkpt lat="36.93397" lon="-3.37064">
        <ele>954.1034</ele>
        <time>2021-07-17T14:21:17Z</time>
      </trkpt>
      <trkpt lat="36.93461" lon="-3.36975">
        <ele>961.7972</ele>
        <time>2021-07-17T14:21:28Z</time>
      </trkpt>
      <trkpt lat="36.93537" lon="-3.36888">
        <ele>968.7557</ele>
        <time>2021-07-17T14:21:39Z</time>
      </trkpt>
      <trkpt lat="36.93631" lon="-3.3679">
        <ele>963.5549</ele>
        <time>2021-07-17T14:21:50Z</time>
      </trkpt>
      <trkpt lat="36.93744" lon="-3.36666">
        <ele>952.8717</ele>
        <time>2021-07-17T14:22:01Z</time>
      </trkpt>
      <trkpt lat="36.93928" lon="-3.3655">
        <ele>957.3671</ele>
        <time>2021-07-17T14:22:12Z</time>
      </trkpt>
      <trkpt lat="36.94076" lon="-3.36485">
        <ele>959.6486</ele>
        <time>2021-07-17T14:22:23Z</time>
      </trkpt>
      <trkpt lat="36.94219" lon="-3.36438">
        <ele>956.0864</ele>
        <time>2021-07-17T14:22:34Z</time>
      </trkpt>
      <trkpt lat="36.94207" lon="-3.36366">
        <ele>960.5903</ele>
        <time>2021-07-17T14:22:45Z</time>
      </trkpt>
      <trkpt lat="36.94043" lon="-3.36324">
        <ele>973.5585</ele>
        <time>2021-07-17T14:22:56Z</time>
      </trkpt>
      <trkpt lat="36.93858" lon="-3.36338">
        <ele>986.1673</ele>
        <time>2021-07-17T14:23:07Z</time>
      </trkpt>
      <trkpt lat="36.93811" lon="-3.36336">
        <ele>994.1943</ele>
        <time>2021-07-17T14:23:18Z</time>
      </trkpt>
      <trkpt lat="36.93983" lon="-3.36269">
        <ele>1008.166</ele>
        <time>2021-07-17T14:23:29Z</time>
      </trkpt>
      <trkpt lat="36.94125" lon="-3.36216">
        <ele>1019.024</ele>
        <time>2021-07-17T14:23:40Z</time>
      </trkpt>
      <trkpt lat="36.94175" lon="-3.36162">
        <ele>1028.05</ele>
        <time>2021-07-17T14:23:51Z</time>
      </trkpt>
      <trkpt lat="36.9406" lon="-3.36229">
        <ele>1038.529</ele>
        <time>2021-07-17T14:24:02Z</time>
      </trkpt>
      <trkpt lat="36.93933" lon="-3.36214">
        <ele>1054.016</ele>
        <time>2021-07-17T14:24:13Z</time>
      </trkpt>
      <trkpt lat="36.93984" lon="-3.3611">
        <ele>1060.697</ele>
        <time>2021-07-17T14:24:24Z</time>
      </trkpt>
      <trkpt lat="36.93917" lon="-3.36115">
        <ele>1072.287</ele>
        <time>2021-07-17T14:24:35Z</time>
      </trkpt>
      <trkpt lat="36.93846" lon="-3.36141">
        <ele>1080.199</ele>
        <time>2021-07-17T14:24:46Z</time>
      </trkpt>
      <trkpt lat="36.93879" lon="-3.36138">
        <ele>1082.614</ele>
        <time>2021-07-17T14:24:57Z</time>
      </trkpt>
      <trkpt lat="36.93883" lon="-3.36143">
        <ele>1081.079</ele>
        <time>2021-07-17T14:25:08Z</time>
      </trkpt>
      <trkpt lat="36.93882" lon="-3.36138">
        <ele>1074.457</ele>
        <time>2021-07-17T14:25:21Z</time>
      </trkpt>
      <trkpt lat="36.93879" lon="-3.36141">
        <ele>1074.931</ele>
        <time>2021-07-17T14:25:32Z</time>
      </trkpt>
      <trkpt lat="36.93879" lon="-3.36136">
        <ele>1071.588</ele>
        <time>2021-07-17T14:25:55Z</time>
      </trkpt>
      <trkpt lat="36.93882" lon="-3.36137">
        <ele>1076.212</ele>
        <time>2021-07-17T14:26:12Z</time>
      </trkpt>
      <trkpt lat="36.93878" lon="-3.36138">
        <ele>1077.005</ele>
        <time>2021-07-17T14:26:23Z</time>
      </trkpt>
      <trkpt lat="36.93898" lon="-3.36081">
        <ele>1081.726</ele>
        <time>2021-07-17T14:26:34Z</time>
      </trkpt>
      <trkpt lat="36.93995" lon="-3.35985">
        <ele>1090.446</ele>
        <time>2021-07-17T14:26:45Z</time>
      </trkpt>
      <trkpt lat="36.93911" lon="-3.36028">
        <ele>1102.7</ele>
        <time>2021-07-17T14:26:56Z</time>
      </trkpt>
      <trkpt lat="36.93776" lon="-3.36168">
        <ele>1114.292</ele>
        <time>2021-07-17T14:27:07Z</time>
      </trkpt>
      <trkpt lat="36.93648" lon="-3.36209">
        <ele>1127.085</ele>
        <time>2021-07-17T14:27:18Z</time>
      </trkpt>
      <trkpt lat="36.93512" lon="-3.36239">
        <ele>1137.139</ele>
        <time>2021-07-17T14:27:29Z</time>
      </trkpt>
      <trkpt lat="36.93436" lon="-3.36322">
        <ele>1147.595</ele>
        <time>2021-07-17T14:27:40Z</time>
      </trkpt>
      <trkpt lat="36.93312" lon="-3.36372">
        <ele>1155.247</ele>
        <time>2021-07-17T14:27:51Z</time>
      </trkpt>
      <trkpt lat="36.93187" lon="-3.36411">
        <ele>1164.724</ele>
        <time>2021-07-17T14:28:02Z</time>
      </trkpt>
      <trkpt lat="36.93084" lon="-3.36442">
        <ele>1167.116</ele>
        <time>2021-07-17T14:28:13Z</time>
      </trkpt>
      <trkpt lat="36.92985" lon="-3.36447">
        <ele>1165.93</ele>
        <time>2021-07-17T14:28:24Z</time>
      </trkpt>
      <trkpt lat="36.92823" lon="-3.36545">
        <ele>1173.257</ele>
        <time>2021-07-17T14:28:35Z</time>
      </trkpt>
      <trkpt lat="36.92707" lon="-3.36616">
        <ele>1177.439</ele>
        <time>2021-07-17T14:28:46Z</time>
      </trkpt>
      <trkpt lat="36.92667" lon="-3.36493">
        <ele>1180.517</ele>
        <time>2021-07-17T14:28:57Z</time>
      </trkpt>
      <trkpt lat="36.92668" lon="-3.36355">
        <ele>1179.759</ele>
        <time>2021-07-17T14:29:08Z</time>
      </trkpt>
      <trkpt lat="36.92684" lon="-3.36208">
        <ele>1177.314</ele>
        <time>2021-07-17T14:29:19Z</time>
      </trkpt>
      <trkpt lat="36.9266" lon="-3.36039">
        <ele>1178.536</ele>
        <time>2021-07-17T14:29:30Z</time>
      </trkpt>
      <trkpt lat="36.92637" lon="-3.35756">
        <ele>1168.55</ele>
        <time>2021-07-17T14:29:41Z</time>
      </trkpt>
      <trkpt lat="36.92659" lon="-3.35593">
        <ele>1160.466</ele>
        <time>2021-07-17T14:29:52Z</time>
      </trkpt>
      <trkpt lat="36.92708" lon="-3.35445">
        <ele>1152.64</ele>
        <time>2021-07-17T14:30:03Z</time>
      </trkpt>
      <trkpt lat="36.92545" lon="-3.35383">
        <ele>1166.708</ele>
        <time>2021-07-17T14:30:14Z</time>
      </trkpt>
      <trkpt lat="36.92427" lon="-3.35237">
        <ele>1176.763</ele>
        <time>2021-07-17T14:30:25Z</time>
      </trkpt>
      <trkpt lat="36.92423" lon="-3.35132">
        <ele>1185.917</ele>
        <time>2021-07-17T14:30:36Z</time>
      </trkpt>
      <trkpt lat="36.92579" lon="-3.34961">
        <ele>1200.947</ele>
        <time>2021-07-17T14:30:47Z</time>
      </trkpt>
      <trkpt lat="36.92706" lon="-3.34788">
        <ele>1213.376</ele>
        <time>2021-07-17T14:30:58Z</time>
      </trkpt>
      <trkpt lat="36.92882" lon="-3.34624">
        <ele>1224.99</ele>
        <time>2021-07-17T14:31:09Z</time>
      </trkpt>
      <trkpt lat="36.92992" lon="-3.34481">
        <ele>1234.146</ele>
        <time>2021-07-17T14:31:20Z</time>
      </trkpt>
      <trkpt lat="36.93047" lon="-3.34343">
        <ele>1242.132</ele>
        <time>2021-07-17T14:31:31Z</time>
      </trkpt>
      <trkpt lat="36.93092" lon="-3.34209">
        <ele>1251.656</ele>
        <time>2021-07-17T14:31:42Z</time>
      </trkpt>
      <trkpt lat="36.93102" lon="-3.34044">
        <ele>1253.93</ele>
        <time>2021-07-17T14:31:53Z</time>
      </trkpt>
      <trkpt lat="36.93157" lon="-3.33921">
        <ele>1252.494</ele>
        <time>2021-07-17T14:32:04Z</time>
      </trkpt>
      <trkpt lat="36.9315" lon="-3.33812">
        <ele>1247.858</ele>
        <time>2021-07-17T14:32:15Z</time>
      </trkpt>
      <trkpt lat="36.93195" lon="-3.33707">
        <ele>1246.65</ele>
        <time>2021-07-17T14:32:26Z</time>
      </trkpt>
      <trkpt lat="36.93155" lon="-3.33614">
        <ele>1248.899</ele>
        <time>2021-07-17T14:32:37Z</time>
      </trkpt>
      <trkpt lat="36.93178" lon="-3.33486">
        <ele>1244.879</ele>
        <time>2021-07-17T14:32:48Z</time>
      </trkpt>
      <trkpt lat="36.93137" lon="-3.33365">
        <ele>1240.218</ele>
        <time>2021-07-17T14:32:59Z</time>
      </trkpt>
      <trkpt lat="36.93184" lon="-3.33254">
        <ele>1238.959</ele>
        <time>2021-07-17T14:33:10Z</time>
      </trkpt>
      <trkpt lat="36.93247" lon="-3.33141">
        <ele>1239.481</ele>
        <time>2021-07-17T14:33:21Z</time>
      </trkpt>
      <trkpt lat="36.93319" lon="-3.33064">
        <ele>1238.421</ele>
        <time>2021-07-17T14:33:32Z</time>
      </trkpt>
      <trkpt lat="36.9336" lon="-3.32985">
        <ele>1239.95</ele>
        <time>2021-07-17T14:33:43Z</time>
      </trkpt>
      <trkpt lat="36.93407" lon="-3.32879">
        <ele>1238.723</ele>
        <time>2021-07-17T14:33:54Z</time>
      </trkpt>
      <trkpt lat="36.93422" lon="-3.32782">
        <ele>1235.685</ele>
        <time>2021-07-17T14:34:05Z</time>
      </trkpt>
      <trkpt lat="36.93468" lon="-3.32699">
        <ele>1232.565</ele>
        <time>2021-07-17T14:34:16Z</time>
      </trkpt>
      <trkpt lat="36.93494" lon="-3.32575">
        <ele>1231.24</ele>
        <time>2021-07-17T14:34:27Z</time>
      </trkpt>
      <trkpt lat="36.93555" lon="-3.32481">
        <ele>1230.112</ele>
        <time>2021-07-17T14:34:38Z</time>
      </trkpt>
      <trkpt lat="36.93627" lon="-3.32417">
        <ele>1231.885</ele>
        <time>2021-07-17T14:34:49Z</time>
      </trkpt>
      <trkpt lat="36.93696" lon="-3.32354">
        <ele>1237.381</ele>
        <time>2021-07-17T14:35:00Z</time>
      </trkpt>
      <trkpt lat="36.93755" lon="-3.32216">
        <ele>1246.956</ele>
        <time>2021-07-17T14:35:11Z</time>
      </trkpt>
      <trkpt lat="36.93882" lon="-3.32271">
        <ele>1259.741</ele>
        <time>2021-07-17T14:35:22Z</time>
      </trkpt>
      <trkpt lat="36.93999" lon="-3.32205">
        <ele>1262.05</ele>
        <time>2021-07-17T14:35:33Z</time>
      </trkpt>
      <trkpt lat="36.94107" lon="-3.32072">
        <ele>1271.828</ele>
        <time>2021-07-17T14:35:44Z</time>
      </trkpt>
      <trkpt lat="36.94063" lon="-3.31991">
        <ele>1279.894</ele>
        <time>2021-07-17T14:35:55Z</time>
      </trkpt>
      <trkpt lat="36.94041" lon="-3.31874">
        <ele>1285.248</ele>
        <time>2021-07-17T14:36:06Z</time>
      </trkpt>
      <trkpt lat="36.94024" lon="-3.31582">
        <ele>1273.719</ele>
        <time>2021-07-17T14:36:17Z</time>
      </trkpt>
      <trkpt lat="36.9401" lon="-3.31349">
        <ele>1285.646</ele>
        <time>2021-07-17T14:36:28Z</time>
      </trkpt>
      <trkpt lat="36.94105" lon="-3.3126">
        <ele>1283.795</ele>
        <time>2021-07-17T14:36:39Z</time>
      </trkpt>
      <trkpt lat="36.94147" lon="-3.31191">
        <ele>1283.059</ele>
        <time>2021-07-17T14:36:50Z</time>
      </trkpt>
      <trkpt lat="36.94089" lon="-3.31121">
        <ele>1289.086</ele>
        <time>2021-07-17T14:37:01Z</time>
      </trkpt>
      <trkpt lat="36.94074" lon="-3.31022">
        <ele>1294.527</ele>
        <time>2021-07-17T14:37:12Z</time>
      </trkpt>
      <trkpt lat="36.94045" lon="-3.30848">
        <ele>1278.066</ele>
        <time>2021-07-17T14:37:23Z</time>
      </trkpt>
      <trkpt lat="36.94102" lon="-3.30682">
        <ele>1262.385</ele>
        <time>2021-07-17T14:37:34Z</time>
      </trkpt>
      <trkpt lat="36.94039" lon="-3.30606">
        <ele>1255.39</ele>
        <time>2021-07-17T14:37:45Z</time>
      </trkpt>
      <trkpt lat="36.94006" lon="-3.30393">
        <ele>1242.763</ele>
        <time>2021-07-17T14:37:56Z</time>
      </trkpt>
      <trkpt lat="36.93829" lon="-3.303">
        <ele>1230.929</ele>
        <time>2021-07-17T14:38:07Z</time>
      </trkpt>
      <trkpt lat="36.93673" lon="-3.30186">
        <ele>1219.121</ele>
        <time>2021-07-17T14:38:18Z</time>
      </trkpt>
      <trkpt lat="36.93667" lon="-3.30012">
        <ele>1211.052</ele>
        <time>2021-07-17T14:38:29Z</time>
      </trkpt>
      <trkpt lat="36.93764" lon="-3.29867">
        <ele>1196.775</ele>
        <time>2021-07-17T14:38:40Z</time>
      </trkpt>
      <trkpt lat="36.9389" lon="-3.29727">
        <ele>1189.272</ele>
        <time>2021-07-17T14:38:51Z</time>
      </trkpt>
      <trkpt lat="36.93916" lon="-3.29588">
        <ele>1184.343</ele>
        <time>2021-07-17T14:39:02Z</time>
      </trkpt>
      <trkpt lat="36.93864" lon="-3.29483">
        <ele>1183.908</ele>
        <time>2021-07-17T14:39:13Z</time>
      </trkpt>
      <trkpt lat="36.93862" lon="-3.29345">
        <ele>1194.476</ele>
        <time>2021-07-17T14:39:24Z</time>
      </trkpt>
      <trkpt lat="36.93839" lon="-3.29193">
        <ele>1203.655</ele>
        <time>2021-07-17T14:39:35Z</time>
      </trkpt>
      <trkpt lat="36.93791" lon="-3.29024">
        <ele>1216.036</ele>
        <time>2021-07-17T14:39:46Z</time>
      </trkpt>
      <trkpt lat="36.93929" lon="-3.29038">
        <ele>1223.467</ele>
        <time>2021-07-17T14:39:57Z</time>
      </trkpt>
      <trkpt lat="36.94007" lon="-3.28881">
        <ele>1228.965</ele>
        <time>2021-07-17T14:40:08Z</time>
      </trkpt>
      <trkpt lat="36.9412" lon="-3.28723">
        <ele>1239.498</ele>
        <time>2021-07-17T14:40:19Z</time>
      </trkpt>
      <trkpt lat="36.94262" lon="-3.28616">
        <ele>1254.182</ele>
        <time>2021-07-17T14:40:30Z</time>
      </trkpt>
      <trkpt lat="36.94403" lon="-3.28562">
        <ele>1266.668</ele>
        <time>2021-07-17T14:40:41Z</time>
      </trkpt>
      <trkpt lat="36.94517" lon="-3.28566">
        <ele>1276.14</ele>
        <time>2021-07-17T14:40:52Z</time>
      </trkpt>
      <trkpt lat="36.94628" lon="-3.28522">
        <ele>1288.969</ele>
        <time>2021-07-17T14:41:03Z</time>
      </trkpt>
      <trkpt lat="36.94788" lon="-3.28551">
        <ele>1299.208</ele>
        <time>2021-07-17T14:41:14Z</time>
      </trkpt>
      <trkpt lat="36.94905" lon="-3.28571">
        <ele>1312.038</ele>
        <time>2021-07-17T14:41:25Z</time>
      </trkpt>
      <trkpt lat="36.95002" lon="-3.28484">
        <ele>1321.356</ele>
        <time>2021-07-17T14:41:36Z</time>
      </trkpt>
      <trkpt lat="36.95109" lon="-3.28401">
        <ele>1333.461</ele>
        <time>2021-07-17T14:41:47Z</time>
      </trkpt>
      <trkpt lat="36.9523" lon="-3.28267">
        <ele>1339.817</ele>
        <time>2021-07-17T14:41:58Z</time>
      </trkpt>
      <trkpt lat="36.95352" lon="-3.28171">
        <ele>1340.789</ele>
        <time>2021-07-17T14:42:09Z</time>
      </trkpt>
      <trkpt lat="36.9541" lon="-3.281">
        <ele>1340.978</ele>
        <time>2021-07-17T14:42:20Z</time>
      </trkpt>
      <trkpt lat="36.95297" lon="-3.28002">
        <ele>1347.469</ele>
        <time>2021-07-17T14:42:31Z</time>
      </trkpt>
      <trkpt lat="36.95444" lon="-3.27855">
        <ele>1359.839</ele>
        <time>2021-07-17T14:42:42Z</time>
      </trkpt>
      <trkpt lat="36.95639" lon="-3.27832">
        <ele>1378.724</ele>
        <time>2021-07-17T14:42:53Z</time>
      </trkpt>
      <trkpt lat="36.95823" lon="-3.27879">
        <ele>1396.446</ele>
        <time>2021-07-17T14:43:04Z</time>
      </trkpt>
      <trkpt lat="36.96001" lon="-3.27846">
        <ele>1409.574</ele>
        <time>2021-07-17T14:43:15Z</time>
      </trkpt>
      <trkpt lat="36.96137" lon="-3.27929">
        <ele>1420.485</ele>
        <time>2021-07-17T14:43:26Z</time>
      </trkpt>
      <trkpt lat="36.96287" lon="-3.28004">
        <ele>1433.802</ele>
        <time>2021-07-17T14:43:37Z</time>
      </trkpt>
      <trkpt lat="36.96436" lon="-3.28141">
        <ele>1446.06</ele>
        <time>2021-07-17T14:43:48Z</time>
      </trkpt>
      <trkpt lat="36.96562" lon="-3.28084">
        <ele>1448.866</ele>
        <time>2021-07-17T14:43:59Z</time>
      </trkpt>
      <trkpt lat="36.96703" lon="-3.28043">
        <ele>1461.426</ele>
        <time>2021-07-17T14:44:10Z</time>
      </trkpt>
      <trkpt lat="36.96833" lon="-3.28">
        <ele>1464.625</ele>
        <time>2021-07-17T14:44:21Z</time>
      </trkpt>
      <trkpt lat="36.9697" lon="-3.28102">
        <ele>1458.517</ele>
        <time>2021-07-17T14:44:32Z</time>
      </trkpt>
      <trkpt lat="36.97075" lon="-3.28072">
        <ele>1458.045</ele>
        <time>2021-07-17T14:44:43Z</time>
      </trkpt>
      <trkpt lat="36.972" lon="-3.27942">
        <ele>1453.823</ele>
        <time>2021-07-17T14:44:54Z</time>
      </trkpt>
      <trkpt lat="36.97356" lon="-3.27846">
        <ele>1453.479</ele>
        <time>2021-07-17T14:45:05Z</time>
      </trkpt>
      <trkpt lat="36.97514" lon="-3.27816">
        <ele>1456.443</ele>
        <time>2021-07-17T14:45:16Z</time>
      </trkpt>
      <trkpt lat="36.97679" lon="-3.27822">
        <ele>1454.101</ele>
        <time>2021-07-17T14:45:27Z</time>
      </trkpt>
      <trkpt lat="36.97824" lon="-3.27781">
        <ele>1455.077</ele>
        <time>2021-07-17T14:45:38Z</time>
      </trkpt>
      <trkpt lat="36.97954" lon="-3.2776">
        <ele>1462.921</ele>
        <time>2021-07-17T14:45:49Z</time>
      </trkpt>
      <trkpt lat="36.98059" lon="-3.27933">
        <ele>1459.349</ele>
        <time>2021-07-17T14:46:00Z</time>
      </trkpt>
      <trkpt lat="36.98194" lon="-3.27964">
        <ele>1459.937</ele>
        <time>2021-07-17T14:46:11Z</time>
      </trkpt>
      <trkpt lat="36.98344" lon="-3.28028">
        <ele>1447.775</ele>
        <time>2021-07-17T14:46:22Z</time>
      </trkpt>
      <trkpt lat="36.98328" lon="-3.27927">
        <ele>1451.554</ele>
        <time>2021-07-17T14:46:33Z</time>
      </trkpt>
      <trkpt lat="36.98349" lon="-3.27789">
        <ele>1463.513</ele>
        <time>2021-07-17T14:46:44Z</time>
      </trkpt>
      <trkpt lat="36.98376" lon="-3.2767">
        <ele>1471.031</ele>
        <time>2021-07-17T14:46:55Z</time>
      </trkpt>
      <trkpt lat="36.98348" lon="-3.27515">
        <ele>1481.669</ele>
        <time>2021-07-17T14:47:06Z</time>
      </trkpt>
      <trkpt lat="36.98353" lon="-3.27354">
        <ele>1490.378</ele>
        <time>2021-07-17T14:47:17Z</time>
      </trkpt>
      <trkpt lat="36.98509" lon="-3.27297">
        <ele>1498.5</ele>
        <time>2021-07-17T14:47:28Z</time>
      </trkpt>
      <trkpt lat="36.98624" lon="-3.27236">
        <ele>1504.106</ele>
        <time>2021-07-17T14:47:39Z</time>
      </trkpt>
      <trkpt lat="36.98726" lon="-3.27155">
        <ele>1506.997</ele>
        <time>2021-07-17T14:47:50Z</time>
      </trkpt>
      <trkpt lat="36.9889" lon="-3.27159">
        <ele>1509.345</ele>
        <time>2021-07-17T14:48:01Z</time>
      </trkpt>
      <trkpt lat="36.99011" lon="-3.27057">
        <ele>1519.597</ele>
        <time>2021-07-17T14:48:12Z</time>
      </trkpt>
      <trkpt lat="36.99119" lon="-3.27083">
        <ele>1523.832</ele>
        <time>2021-07-17T14:48:23Z</time>
      </trkpt>
      <trkpt lat="36.99228" lon="-3.27014">
        <ele>1515.143</ele>
        <time>2021-07-17T14:48:34Z</time>
      </trkpt>
      <trkpt lat="36.99343" lon="-3.26955">
        <ele>1505.156</ele>
        <time>2021-07-17T14:48:45Z</time>
      </trkpt>
      <trkpt lat="36.9943" lon="-3.27027">
        <ele>1498.259</ele>
        <time>2021-07-17T14:48:56Z</time>
      </trkpt>
      <trkpt lat="36.99543" lon="-3.26996">
        <ele>1487.661</ele>
        <time>2021-07-17T14:49:07Z</time>
      </trkpt>
      <trkpt lat="36.99693" lon="-3.26831">
        <ele>1477.246</ele>
        <time>2021-07-17T14:49:18Z</time>
      </trkpt>
      <trkpt lat="36.99804" lon="-3.26724">
        <ele>1464.08</ele>
        <time>2021-07-17T14:49:29Z</time>
      </trkpt>
      <trkpt lat="36.99824" lon="-3.26584">
        <ele>1456.823</ele>
        <time>2021-07-17T14:49:40Z</time>
      </trkpt>
      <trkpt lat="36.99918" lon="-3.26544">
        <ele>1451.372</ele>
        <time>2021-07-17T14:49:51Z</time>
      </trkpt>
      <trkpt lat="36.99879" lon="-3.26442">
        <ele>1456.033</ele>
        <time>2021-07-17T14:50:02Z</time>
      </trkpt>
      <trkpt lat="36.99951" lon="-3.26396">
        <ele>1453.164</ele>
        <time>2021-07-17T14:50:13Z</time>
      </trkpt>
      <trkpt lat="37.00054" lon="-3.26358">
        <ele>1436.954</ele>
        <time>2021-07-17T14:50:24Z</time>
      </trkpt>
      <trkpt lat="37.00089" lon="-3.26238">
        <ele>1428.974</ele>
        <time>2021-07-17T14:50:35Z</time>
      </trkpt>
      <trkpt lat="37.00019" lon="-3.26224">
        <ele>1429.958</ele>
        <time>2021-07-17T14:50:46Z</time>
      </trkpt>
      <trkpt lat="36.99871" lon="-3.26254">
        <ele>1431.083</ele>
        <time>2021-07-17T14:50:57Z</time>
      </trkpt>
      <trkpt lat="36.99672" lon="-3.26268">
        <ele>1432.638</ele>
        <time>2021-07-17T14:51:08Z</time>
      </trkpt>
      <trkpt lat="36.99612" lon="-3.26457">
        <ele>1443.382</ele>
        <time>2021-07-17T14:51:19Z</time>
      </trkpt>
      <trkpt lat="36.99439" lon="-3.26522">
        <ele>1441.416</ele>
        <time>2021-07-17T14:51:30Z</time>
      </trkpt>
      <trkpt lat="36.99275" lon="-3.26468">
        <ele>1444.713</ele>
        <time>2021-07-17T14:51:41Z</time>
      </trkpt>
      <trkpt lat="36.99124" lon="-3.26556">
        <ele>1451.667</ele>
        <time>2021-07-17T14:51:52Z</time>
      </trkpt>
      <trkpt lat="36.98948" lon="-3.26603">
        <ele>1440.273</ele>
        <time>2021-07-17T14:52:03Z</time>
      </trkpt>
      <trkpt lat="36.98804" lon="-3.26655">
        <ele>1424.175</ele>
        <time>2021-07-17T14:52:14Z</time>
      </trkpt>
      <trkpt lat="36.98666" lon="-3.26712">
        <ele>1413.606</ele>
        <time>2021-07-17T14:52:25Z</time>
      </trkpt>
      <trkpt lat="36.98594" lon="-3.26628">
        <ele>1402.477</ele>
        <time>2021-07-17T14:52:36Z</time>
      </trkpt>
      <trkpt lat="36.9852" lon="-3.26641">
        <ele>1403.383</ele>
        <time>2021-07-17T14:52:47Z</time>
      </trkpt>
      <trkpt lat="36.98476" lon="-3.26771">
        <ele>1410.82</ele>
        <time>2021-07-17T14:52:58Z</time>
      </trkpt>
      <trkpt lat="36.98435" lon="-3.26856">
        <ele>1419.904</ele>
        <time>2021-07-17T14:53:09Z</time>
      </trkpt>
      <trkpt lat="36.98317" lon="-3.2681">
        <ele>1431.346</ele>
        <time>2021-07-17T14:53:20Z</time>
      </trkpt>
      <trkpt lat="36.98233" lon="-3.26738">
        <ele>1436.598</ele>
        <time>2021-07-17T14:53:31Z</time>
      </trkpt>
      <trkpt lat="36.9813" lon="-3.26733">
        <ele>1446.156</ele>
        <time>2021-07-17T14:53:42Z</time>
      </trkpt>
      <trkpt lat="36.98" lon="-3.26859">
        <ele>1460.991</ele>
        <time>2021-07-17T14:53:53Z</time>
      </trkpt>
      <trkpt lat="36.97883" lon="-3.26879">
        <ele>1468.476</ele>
        <time>2021-07-17T14:54:04Z</time>
      </trkpt>
      <trkpt lat="36.97745" lon="-3.26837">
        <ele>1463.32</ele>
        <time>2021-07-17T14:54:15Z</time>
      </trkpt>
      <trkpt lat="36.97541" lon="-3.2681">
        <ele>1457.49</ele>
        <time>2021-07-17T14:54:26Z</time>
      </trkpt>
      <trkpt lat="36.97396" lon="-3.26845">
        <ele>1453.342</ele>
        <time>2021-07-17T14:54:37Z</time>
      </trkpt>
      <trkpt lat="36.97272" lon="-3.26785">
        <ele>1447.139</ele>
        <time>2021-07-17T14:54:48Z</time>
      </trkpt>
      <trkpt lat="36.97178" lon="-3.26675">
        <ele>1442.697</ele>
        <time>2021-07-17T14:55:00Z</time>
      </trkpt>
      <trkpt lat="36.97046" lon="-3.26728">
        <ele>1439.38</ele>
        <time>2021-07-17T14:55:11Z</time>
      </trkpt>
      <trkpt lat="36.96912" lon="-3.26682">
        <ele>1431.176</ele>
        <time>2021-07-17T14:55:22Z</time>
      </trkpt>
      <trkpt lat="36.96782" lon="-3.26677">
        <ele>1437.097</ele>
        <time>2021-07-17T14:55:33Z</time>
      </trkpt>
      <trkpt lat="36.96653" lon="-3.26705">
        <ele>1441.085</ele>
        <time>2021-07-17T14:55:44Z</time>
      </trkpt>
      <trkpt lat="36.96521" lon="-3.26716">
        <ele>1444.893</ele>
        <time>2021-07-17T14:55:55Z</time>
      </trkpt>
      <trkpt lat="36.96387" lon="-3.26685">
        <ele>1437.852</ele>
        <time>2021-07-17T14:56:06Z</time>
      </trkpt>
      <trkpt lat="36.96226" lon="-3.26637">
        <ele>1426.945</ele>
        <time>2021-07-17T14:56:17Z</time>
      </trkpt>
      <trkpt lat="36.96089" lon="-3.26647">
        <ele>1421.535</ele>
        <time>2021-07-17T14:56:28Z</time>
      </trkpt>
      <trkpt lat="36.95965" lon="-3.26577">
        <ele>1415.719</ele>
        <time>2021-07-17T14:56:39Z</time>
      </trkpt>
      <trkpt lat="36.95817" lon="-3.26613">
        <ele>1416.743</ele>
        <time>2021-07-17T14:56:50Z</time>
      </trkpt>
      <trkpt lat="36.9568" lon="-3.26618">
        <ele>1411.803</ele>
        <time>2021-07-17T14:57:01Z</time>
      </trkpt>
      <trkpt lat="36.95563" lon="-3.26604">
        <ele>1404.804</ele>
        <time>2021-07-17T14:57:12Z</time>
      </trkpt>
      <trkpt lat="36.95409" lon="-3.26653">
        <ele>1398.824</ele>
        <time>2021-07-17T14:57:23Z</time>
      </trkpt>
      <trkpt lat="36.95308" lon="-3.26615">
        <ele>1396.933</ele>
        <time>2021-07-17T14:57:34Z</time>
      </trkpt>
      <trkpt lat="36.95233" lon="-3.26554">
        <ele>1393.713</ele>
        <time>2021-07-17T14:57:45Z</time>
      </trkpt>
      <trkpt lat="36.95069" lon="-3.26569">
        <ele>1387.843</ele>
        <time>2021-07-17T14:57:56Z</time>
      </trkpt>
      <trkpt lat="36.94883" lon="-3.26673">
        <ele>1388.942</ele>
        <time>2021-07-17T14:58:07Z</time>
      </trkpt>
      <trkpt lat="36.9469" lon="-3.26834">
        <ele>1386.821</ele>
        <time>2021-07-17T14:58:18Z</time>
      </trkpt>
      <trkpt lat="36.94587" lon="-3.26945">
        <ele>1396.352</ele>
        <time>2021-07-17T14:58:29Z</time>
      </trkpt>
      <trkpt lat="36.94484" lon="-3.26907">
        <ele>1397.277</ele>
        <time>2021-07-17T14:58:40Z</time>
      </trkpt>
      <trkpt lat="36.9452" lon="-3.26631">
        <ele>1398.368</ele>
        <time>2021-07-17T14:58:51Z</time>
      </trkpt>
      <trkpt lat="36.94594" lon="-3.26415">
        <ele>1399.969</ele>
        <time>2021-07-17T14:59:02Z</time>
      </trkpt>
      <trkpt lat="36.94658" lon="-3.26178">
        <ele>1395.664</ele>
        <time>2021-07-17T14:59:13Z</time>
      </trkpt>
      <trkpt lat="36.94697" lon="-3.25984">
        <ele>1401.336</ele>
        <time>2021-07-17T14:59:24Z</time>
      </trkpt>
      <trkpt lat="36.94794" lon="-3.25855">
        <ele>1404.831</ele>
        <time>2021-07-17T14:59:35Z</time>
      </trkpt>
      <trkpt lat="36.94763" lon="-3.25723">
        <ele>1405.612</ele>
        <time>2021-07-17T14:59:46Z</time>
      </trkpt>
      <trkpt lat="36.94763" lon="-3.25531">
        <ele>1402.442</ele>
        <time>2021-07-17T14:59:57Z</time>
      </trkpt>
      <trkpt lat="36.94829" lon="-3.25356">
        <ele>1402.743</ele>
        <time>2021-07-17T15:00:08Z</time>
      </trkpt>
      <trkpt lat="36.9484" lon="-3.25172">
        <ele>1403.433</ele>
        <time>2021-07-17T15:00:19Z</time>
      </trkpt>
      <trkpt lat="36.948" lon="-3.25008">
        <ele>1391.751</ele>
        <time>2021-07-17T15:00:30Z</time>
      </trkpt>
      <trkpt lat="36.94766" lon="-3.24898">
        <ele>1383.014</ele>
        <time>2021-07-17T15:00:41Z</time>
      </trkpt>
      <trkpt lat="36.94777" lon="-3.24738">
        <ele>1373.26</ele>
        <time>2021-07-17T15:00:52Z</time>
      </trkpt>
      <trkpt lat="36.94763" lon="-3.24686">
        <ele>1352.923</ele>
        <time>2021-07-17T15:01:03Z</time>
      </trkpt>
      <trkpt lat="36.94887" lon="-3.24594">
        <ele>1351.922</ele>
        <time>2021-07-17T15:01:14Z</time>
      </trkpt>
      <trkpt lat="36.94826" lon="-3.24449">
        <ele>1348.614</ele>
        <time>2021-07-17T15:01:25Z</time>
      </trkpt>
      <trkpt lat="36.94686" lon="-3.2429">
        <ele>1343.557</ele>
        <time>2021-07-17T15:01:36Z</time>
      </trkpt>
      <trkpt lat="36.94624" lon="-3.24101">
        <ele>1339.507</ele>
        <time>2021-07-17T15:01:47Z</time>
      </trkpt>
      <trkpt lat="36.94632" lon="-3.23885">
        <ele>1338.866</ele>
        <time>2021-07-17T15:01:58Z</time>
      </trkpt>
      <trkpt lat="36.94632" lon="-3.23705">
        <ele>1333.3</ele>
        <time>2021-07-17T15:02:09Z</time>
      </trkpt>
      <trkpt lat="36.94666" lon="-3.23563">
        <ele>1326.565</ele>
        <time>2021-07-17T15:02:20Z</time>
      </trkpt>
      <trkpt lat="36.94701" lon="-3.23398">
        <ele>1316.803</ele>
        <time>2021-07-17T15:02:31Z</time>
      </trkpt>
      <trkpt lat="36.94626" lon="-3.23242">
        <ele>1304.188</ele>
        <time>2021-07-17T15:02:42Z</time>
      </trkpt>
      <trkpt lat="36.94587" lon="-3.23022">
        <ele>1291.031</ele>
        <time>2021-07-17T15:02:53Z</time>
      </trkpt>
      <trkpt lat="36.94547" lon="-3.22841">
        <ele>1282.254</ele>
        <time>2021-07-17T15:03:04Z</time>
      </trkpt>
      <trkpt lat="36.94542" lon="-3.22786">
        <ele>1283.94</ele>
        <time>2021-07-17T15:03:15Z</time>
      </trkpt>
      <trkpt lat="36.94543" lon="-3.22787">
        <ele>1283.283</ele>
        <time>2021-07-17T15:04:15Z</time>
      </trkpt>
      <trkpt lat="36.94546" lon="-3.22784">
        <ele>1285.261</ele>
        <time>2021-07-17T15:04:58Z</time>
      </trkpt>
      <trkpt lat="36.94544" lon="-3.22789">
        <ele>1285.933</ele>
        <time>2021-07-17T15:05:09Z</time>
      </trkpt>
      <trkpt lat="36.94547" lon="-3.22828">
        <ele>1285.189</ele>
        <time>2021-07-17T15:05:20Z</time>
      </trkpt>
      <trkpt lat="36.94523" lon="-3.22822">
        <ele>1283.169</ele>
        <time>2021-07-17T15:05:31Z</time>
      </trkpt>
      <trkpt lat="36.94525" lon="-3.22729">
        <ele>1274.346</ele>
        <time>2021-07-17T15:05:42Z</time>
      </trkpt>
      <trkpt lat="36.94649" lon="-3.2273">
        <ele>1265.234</ele>
        <time>2021-07-17T15:05:53Z</time>
      </trkpt>
      <trkpt lat="36.94773" lon="-3.22691">
        <ele>1258.055</ele>
        <time>2021-07-17T15:06:04Z</time>
      </trkpt>
      <trkpt lat="36.94831" lon="-3.22588">
        <ele>1258.157</ele>
        <time>2021-07-17T15:06:15Z</time>
      </trkpt>
      <trkpt lat="36.94888" lon="-3.22485">
        <ele>1264.093</ele>
        <time>2021-07-17T15:06:26Z</time>
      </trkpt>
      <trkpt lat="36.94927" lon="-3.22416">
        <ele>1267.123</ele>
        <time>2021-07-17T15:06:37Z</time>
      </trkpt>
      <trkpt lat="36.95014" lon="-3.22407">
        <ele>1268.586</ele>
        <time>2021-07-17T15:06:48Z</time>
      </trkpt>
      <trkpt lat="36.95148" lon="-3.22412">
        <ele>1272.255</ele>
        <time>2021-07-17T15:06:59Z</time>
      </trkpt>
      <trkpt lat="36.95266" lon="-3.22426">
        <ele>1271.932</ele>
        <time>2021-07-17T15:07:10Z</time>
      </trkpt>
      <trkpt lat="36.95281" lon="-3.22363">
        <ele>1273.883</ele>
        <time>2021-07-17T15:07:21Z</time>
      </trkpt>
      <trkpt lat="36.95285" lon="-3.22193">
        <ele>1283.871</ele>
        <time>2021-07-17T15:07:32Z</time>
      </trkpt>
      <trkpt lat="36.95309" lon="-3.22041">
        <ele>1294.228</ele>
        <time>2021-07-17T15:07:43Z</time>
      </trkpt>
      <trkpt lat="36.95344" lon="-3.21858">
        <ele>1304.994</ele>
        <time>2021-07-17T15:07:54Z</time>
      </trkpt>
      <trkpt lat="36.95305" lon="-3.2173">
        <ele>1311.052</ele>
        <time>2021-07-17T15:08:05Z</time>
      </trkpt>
      <trkpt lat="36.95422" lon="-3.21625">
        <ele>1314.85</ele>
        <time>2021-07-17T15:08:16Z</time>
      </trkpt>
      <trkpt lat="36.95584" lon="-3.21645">
        <ele>1325.559</ele>
        <time>2021-07-17T15:08:27Z</time>
      </trkpt>
      <trkpt lat="36.95718" lon="-3.21654">
        <ele>1330.016</ele>
        <time>2021-07-17T15:08:38Z</time>
      </trkpt>
      <trkpt lat="36.95777" lon="-3.21615">
        <ele>1326.499</ele>
        <time>2021-07-17T15:08:49Z</time>
      </trkpt>
      <trkpt lat="36.95714" lon="-3.21503">
        <ele>1337.451</ele>
        <time>2021-07-17T15:09:00Z</time>
      </trkpt>
      <trkpt lat="36.95615" lon="-3.21361">
        <ele>1349.227</ele>
        <time>2021-07-17T15:09:11Z</time>
      </trkpt>
      <trkpt lat="36.95643" lon="-3.21174">
        <ele>1360.877</ele>
        <time>2021-07-17T15:09:22Z</time>
      </trkpt>
      <trkpt lat="36.95702" lon="-3.20985">
        <ele>1371.335</ele>
        <time>2021-07-17T15:09:33Z</time>
      </trkpt>
      <trkpt lat="36.95754" lon="-3.20819">
        <ele>1380.891</ele>
        <time>2021-07-17T15:09:44Z</time>
      </trkpt>
      <trkpt lat="36.95782" lon="-3.20689">
        <ele>1388.769</ele>
        <time>2021-07-17T15:09:55Z</time>
      </trkpt>
      <trkpt lat="36.95797" lon="-3.20684">
        <ele>1389.072</ele>
        <time>2021-07-17T15:10:06Z</time>
      </trkpt>
      <trkpt lat="36.95792" lon="-3.20691">
        <ele>1388.823</ele>
        <time>2021-07-17T15:10:18Z</time>
      </trkpt>
      <trkpt lat="36.95784" lon="-3.20778">
        <ele>1395.382</ele>
        <time>2021-07-17T15:10:29Z</time>
      </trkpt>
      <trkpt lat="36.95809" lon="-3.20811">
        <ele>1399.605</ele>
        <time>2021-07-17T15:10:40Z</time>
      </trkpt>
      <trkpt lat="36.95781" lon="-3.20773">
        <ele>1397.772</ele>
        <time>2021-07-17T15:10:51Z</time>
      </trkpt>
      <trkpt lat="36.95765" lon="-3.20736">
        <ele>1390.977</ele>
        <time>2021-07-17T15:11:02Z</time>
      </trkpt>
      <trkpt lat="36.95768" lon="-3.20813">
        <ele>1388.822</ele>
        <time>2021-07-17T15:11:13Z</time>
      </trkpt>
      <trkpt lat="36.95775" lon="-3.20858">
        <ele>1391.57</ele>
        <time>2021-07-17T15:11:24Z</time>
      </trkpt>
      <trkpt lat="36.95776" lon="-3.209">
        <ele>1394.841</ele>
        <time>2021-07-17T15:11:35Z</time>
      </trkpt>
      <trkpt lat="36.95773" lon="-3.20897">
        <ele>1393.619</ele>
        <time>2021-07-17T15:11:53Z</time>
      </trkpt>
      <trkpt lat="36.95769" lon="-3.2088">
        <ele>1393.767</ele>
        <time>2021-07-17T15:12:04Z</time>
      </trkpt>
      <trkpt lat="36.95788" lon="-3.20831">
        <ele>1390.221</ele>
        <time>2021-07-17T15:12:15Z</time>
      </trkpt>
      <trkpt lat="36.95764" lon="-3.20745">
        <ele>1391.702</ele>
        <time>2021-07-17T15:12:26Z</time>
      </trkpt>
      <trkpt lat="36.95787" lon="-3.20783">
        <ele>1395.229</ele>
        <time>2021-07-17T15:12:37Z</time>
      </trkpt>
      <trkpt lat="36.95832" lon="-3.20776">
        <ele>1404.644</ele>
        <time>2021-07-17T15:12:48Z</time>
      </trkpt>
      <trkpt lat="36.95859" lon="-3.20788">
        <ele>1413.53</ele>
        <time>2021-07-17T15:12:59Z</time>
      </trkpt>
      <trkpt lat="36.95899" lon="-3.20743">
        <ele>1419.317</ele>
        <time>2021-07-17T15:13:10Z</time>
      </trkpt>
      <trkpt lat="36.95961" lon="-3.20742">
        <ele>1429.726</ele>
        <time>2021-07-17T15:13:21Z</time>
      </trkpt>
      <trkpt lat="36.95968" lon="-3.20765">
        <ele>1435.808</ele>
        <time>2021-07-17T15:13:32Z</time>
      </trkpt>
      <trkpt lat="36.96041" lon="-3.20782">
        <ele>1443.942</ele>
        <time>2021-07-17T15:13:43Z</time>
      </trkpt>
      <trkpt lat="36.9612" lon="-3.20874">
        <ele>1456.796</ele>
        <time>2021-07-17T15:13:54Z</time>
      </trkpt>
      <trkpt lat="36.96168" lon="-3.20976">
        <ele>1467.447</ele>
        <time>2021-07-17T15:14:05Z</time>
      </trkpt>
      <trkpt lat="36.9621" lon="-3.21022">
        <ele>1480.047</ele>
        <time>2021-07-17T15:14:16Z</time>
      </trkpt>
      <trkpt lat="36.9622" lon="-3.21098">
        <ele>1492.821</ele>
        <time>2021-07-17T15:14:27Z</time>
      </trkpt>
      <trkpt lat="36.96308" lon="-3.20993">
        <ele>1509.087</ele>
        <time>2021-07-17T15:14:38Z</time>
      </trkpt>
      <trkpt lat="36.96392" lon="-3.21054">
        <ele>1524.025</ele>
        <time>2021-07-17T15:14:49Z</time>
      </trkpt>
      <trkpt lat="36.96428" lon="-3.21184">
        <ele>1527.959</ele>
        <time>2021-07-17T15:15:00Z</time>
      </trkpt>
      <trkpt lat="36.96471" lon="-3.21241">
        <ele>1534.437</ele>
        <time>2021-07-17T15:15:11Z</time>
      </trkpt>
      <trkpt lat="36.96473" lon="-3.21243">
        <ele>1529.916</ele>
        <time>2021-07-17T15:16:11Z</time>
      </trkpt>
      <trkpt lat="36.9648" lon="-3.21243">
        <ele>1531.694</ele>
        <time>2021-07-17T15:17:02Z</time>
      </trkpt>
      <trkpt lat="36.96551" lon="-3.21281">
        <ele>1541.939</ele>
        <time>2021-07-17T15:17:13Z</time>
      </trkpt>
      <trkpt lat="36.96506" lon="-3.21347">
        <ele>1548.256</ele>
        <time>2021-07-17T15:17:24Z</time>
      </trkpt>
      <trkpt lat="36.9655" lon="-3.2137">
        <ele>1560.149</ele>
        <time>2021-07-17T15:17:35Z</time>
      </trkpt>
      <trkpt lat="36.96635" lon="-3.21441">
        <ele>1564.774</ele>
        <time>2021-07-17T15:17:46Z</time>
      </trkpt>
      <trkpt lat="36.96696" lon="-3.2149">
        <ele>1580.04</ele>
        <time>2021-07-17T15:17:57Z</time>
      </trkpt>
      <trkpt lat="36.96818" lon="-3.21436">
        <ele>1589.795</ele>
        <time>2021-07-17T15:18:08Z</time>
      </trkpt>
      <trkpt lat="36.96933" lon="-3.21421">
        <ele>1583.191</ele>
        <time>2021-07-17T15:18:19Z</time>
      </trkpt>
      <trkpt lat="36.96984" lon="-3.21407">
        <ele>1607.055</ele>
        <time>2021-07-17T15:18:30Z</time>
      </trkpt>
      <trkpt lat="36.97041" lon="-3.21401">
        <ele>1631.225</ele>
        <time>2021-07-17T15:18:41Z</time>
      </trkpt>
      <trkpt lat="36.97031" lon="-3.21523">
        <ele>1642.591</ele>
        <time>2021-07-17T15:18:52Z</time>
      </trkpt>
      <trkpt lat="36.96997" lon="-3.2166">
        <ele>1645.503</ele>
        <time>2021-07-17T15:19:03Z</time>
      </trkpt>
      <trkpt lat="36.97026" lon="-3.21819">
        <ele>1649.346</ele>
        <time>2021-07-17T15:19:14Z</time>
      </trkpt>
      <trkpt lat="36.97075" lon="-3.21924">
        <ele>1659.501</ele>
        <time>2021-07-17T15:19:25Z</time>
      </trkpt>
      <trkpt lat="36.97137" lon="-3.21864">
        <ele>1690.135</ele>
        <time>2021-07-17T15:19:36Z</time>
      </trkpt>
      <trkpt lat="36.97235" lon="-3.21765">
        <ele>1698.703</ele>
        <time>2021-07-17T15:19:47Z</time>
      </trkpt>
      <trkpt lat="36.97351" lon="-3.21777">
        <ele>1710.326</ele>
        <time>2021-07-17T15:19:58Z</time>
      </trkpt>
      <trkpt lat="36.9737" lon="-3.21744">
        <ele>1721.706</ele>
        <time>2021-07-17T15:20:09Z</time>
      </trkpt>
      <trkpt lat="36.97356" lon="-3.21603">
        <ele>1724.691</ele>
        <time>2021-07-17T15:20:20Z</time>
      </trkpt>
      <trkpt lat="36.97394" lon="-3.21507">
        <ele>1727.034</ele>
        <time>2021-07-17T15:20:31Z</time>
      </trkpt>
      <trkpt lat="36.97472" lon="-3.21422">
        <ele>1728.984</ele>
        <time>2021-07-17T15:20:42Z</time>
      </trkpt>
      <trkpt lat="36.9755" lon="-3.21345">
        <ele>1732.659</ele>
        <time>2021-07-17T15:20:53Z</time>
      </trkpt>
      <trkpt lat="36.97601" lon="-3.21298">
        <ele>1740.155</ele>
        <time>2021-07-17T15:21:04Z</time>
      </trkpt>
      <trkpt lat="36.97602" lon="-3.21296">
        <ele>1744.019</ele>
        <time>2021-07-17T15:22:02Z</time>
      </trkpt>
      <trkpt lat="36.97605" lon="-3.213">
        <ele>1742.549</ele>
        <time>2021-07-17T15:22:56Z</time>
      </trkpt>
      <trkpt lat="36.97686" lon="-3.2134">
        <ele>1745.726</ele>
        <time>2021-07-17T15:23:07Z</time>
      </trkpt>
      <trkpt lat="36.97755" lon="-3.21454">
        <ele>1762.822</ele>
        <time>2021-07-17T15:23:18Z</time>
      </trkpt>
      <trkpt lat="36.97765" lon="-3.21623">
        <ele>1776.738</ele>
        <time>2021-07-17T15:23:29Z</time>
      </trkpt>
      <trkpt lat="36.97746" lon="-3.21712">
        <ele>1781.912</ele>
        <time>2021-07-17T15:23:40Z</time>
      </trkpt>
      <trkpt lat="36.97744" lon="-3.21849">
        <ele>1794.857</ele>
        <time>2021-07-17T15:23:51Z</time>
      </trkpt>
      <trkpt lat="36.97834" lon="-3.21745">
        <ele>1805.038</ele>
        <time>2021-07-17T15:24:02Z</time>
      </trkpt>
      <trkpt lat="36.97955" lon="-3.21753">
        <ele>1818.209</ele>
        <time>2021-07-17T15:24:13Z</time>
      </trkpt>
      <trkpt lat="36.98084" lon="-3.21824">
        <ele>1830.527</ele>
        <time>2021-07-17T15:24:24Z</time>
      </trkpt>
      <trkpt lat="36.98195" lon="-3.21801">
        <ele>1836.007</ele>
        <time>2021-07-17T15:24:35Z</time>
      </trkpt>
      <trkpt lat="36.9829" lon="-3.21834">
        <ele>1837.271</ele>
        <time>2021-07-17T15:24:47Z</time>
      </trkpt>
      <trkpt lat="36.984" lon="-3.2175">
        <ele>1839.087</ele>
        <time>2021-07-17T15:24:58Z</time>
      </trkpt>
      <trkpt lat="36.9847" lon="-3.21629">
        <ele>1843.428</ele>
        <time>2021-07-17T15:25:09Z</time>
      </trkpt>
      <trkpt lat="36.98545" lon="-3.21609">
        <ele>1846.913</ele>
        <time>2021-07-17T15:25:20Z</time>
      </trkpt>
      <trkpt lat="36.98579" lon="-3.21587">
        <ele>1844.224</ele>
        <time>2021-07-17T15:25:31Z</time>
      </trkpt>
      <trkpt lat="36.98528" lon="-3.21472">
        <ele>1853.562</ele>
        <time>2021-07-17T15:25:42Z</time>
      </trkpt>
      <trkpt lat="36.98579" lon="-3.21395">
        <ele>1852.755</ele>
        <time>2021-07-17T15:25:53Z</time>
      </trkpt>
      <trkpt lat="36.98722" lon="-3.21281">
        <ele>1853.095</ele>
        <time>2021-07-17T15:26:04Z</time>
      </trkpt>
      <trkpt lat="36.98843" lon="-3.21268">
        <ele>1858.256</ele>
        <time>2021-07-17T15:26:15Z</time>
      </trkpt>
      <trkpt lat="36.98945" lon="-3.21273">
        <ele>1850.111</ele>
        <time>2021-07-17T15:26:26Z</time>
      </trkpt>
      <trkpt lat="36.99019" lon="-3.21289">
        <ele>1857.664</ele>
        <time>2021-07-17T15:26:37Z</time>
      </trkpt>
      <trkpt lat="36.99162" lon="-3.21315">
        <ele>1865.001</ele>
        <time>2021-07-17T15:26:48Z</time>
      </trkpt>
      <trkpt lat="36.99279" lon="-3.21334">
        <ele>1872.653</ele>
        <time>2021-07-17T15:26:59Z</time>
      </trkpt>
      <trkpt lat="36.99417" lon="-3.21315">
        <ele>1883.412</ele>
        <time>2021-07-17T15:27:10Z</time>
      </trkpt>
      <trkpt lat="36.99497" lon="-3.21337">
        <ele>1889.933</ele>
        <time>2021-07-17T15:27:21Z</time>
      </trkpt>
      <trkpt lat="36.99531" lon="-3.21251">
        <ele>1897.538</ele>
        <time>2021-07-17T15:27:32Z</time>
      </trkpt>
      <trkpt lat="36.99667" lon="-3.21209">
        <ele>1908.411</ele>
        <time>2021-07-17T15:27:43Z</time>
      </trkpt>
      <trkpt lat="36.99822" lon="-3.21233">
        <ele>1920.356</ele>
        <time>2021-07-17T15:27:54Z</time>
      </trkpt>
      <trkpt lat="36.99975" lon="-3.21243">
        <ele>1929.211</ele>
        <time>2021-07-17T15:28:05Z</time>
      </trkpt>
      <trkpt lat="37.00137" lon="-3.21236">
        <ele>1936.077</ele>
        <time>2021-07-17T15:28:16Z</time>
      </trkpt>
      <trkpt lat="37.00287" lon="-3.21247">
        <ele>1940.467</ele>
        <time>2021-07-17T15:28:27Z</time>
      </trkpt>
      <trkpt lat="37.0045" lon="-3.21265">
        <ele>1940.903</ele>
        <time>2021-07-17T15:28:38Z</time>
      </trkpt>
      <trkpt lat="37.00587" lon="-3.21223">
        <ele>1942.605</ele>
        <time>2021-07-17T15:28:49Z</time>
      </trkpt>
      <trkpt lat="37.00715" lon="-3.21143">
        <ele>1946.212</ele>
        <time>2021-07-17T15:29:00Z</time>
      </trkpt>
      <trkpt lat="37.00874" lon="-3.21147">
        <ele>1949.802</ele>
        <time>2021-07-17T15:29:11Z</time>
      </trkpt>
      <trkpt lat="37.00994" lon="-3.21162">
        <ele>1954.47</ele>
        <time>2021-07-17T15:29:22Z</time>
      </trkpt>
      <trkpt lat="37.01157" lon="-3.21129">
        <ele>1958.647</ele>
        <time>2021-07-17T15:29:33Z</time>
      </trkpt>
      <trkpt lat="37.01253" lon="-3.21165">
        <ele>1960.929</ele>
        <time>2021-07-17T15:29:44Z</time>
      </trkpt>
      <trkpt lat="37.01338" lon="-3.21148">
        <ele>1962.582</ele>
        <time>2021-07-17T15:29:55Z</time>
      </trkpt>
      <trkpt lat="37.01409" lon="-3.21086">
        <ele>1962.768</ele>
        <time>2021-07-17T15:30:06Z</time>
      </trkpt>
      <trkpt lat="37.01555" lon="-3.21094">
        <ele>1962.727</ele>
        <time>2021-07-17T15:30:17Z</time>
      </trkpt>
      <trkpt lat="37.01692" lon="-3.21134">
        <ele>1969.574</ele>
        <time>2021-07-17T15:30:28Z</time>
      </trkpt>
      <trkpt lat="37.01786" lon="-3.21212">
        <ele>1973.234</ele>
        <time>2021-07-17T15:30:39Z</time>
      </trkpt>
      <trkpt lat="37.01825" lon="-3.21184">
        <ele>1981.149</ele>
        <time>2021-07-17T15:30:50Z</time>
      </trkpt>
      <trkpt lat="37.01927" lon="-3.21097">
        <ele>1978.709</ele>
        <time>2021-07-17T15:31:01Z</time>
      </trkpt>
      <trkpt lat="37.02075" lon="-3.21043">
        <ele>1981.633</ele>
        <time>2021-07-17T15:31:12Z</time>
      </trkpt>
      <trkpt lat="37.02197" lon="-3.21031">
        <ele>1987.237</ele>
        <time>2021-07-17T15:31:23Z</time>
      </trkpt>
      <trkpt lat="37.02283" lon="-3.21003">
        <ele>1979.529</ele>
        <time>2021-07-17T15:31:34Z</time>
      </trkpt>
      <trkpt lat="37.02304" lon="-3.20861">
        <ele>1963.168</ele>
        <time>2021-07-17T15:31:45Z</time>
      </trkpt>
      <trkpt lat="37.02326" lon="-3.20744">
        <ele>1958.841</ele>
        <time>2021-07-17T15:31:56Z</time>
      </trkpt>
      <trkpt lat="37.02462" lon="-3.20665">
        <ele>1970.367</ele>
        <time>2021-07-17T15:32:07Z</time>
      </trkpt>
      <trkpt lat="37.02604" lon="-3.20654">
        <ele>1978.707</ele>
        <time>2021-07-17T15:32:18Z</time>
      </trkpt>
      <trkpt lat="37.02717" lon="-3.20612">
        <ele>1986.784</ele>
        <time>2021-07-17T15:32:29Z</time>
      </trkpt>
      <trkpt lat="37.02844" lon="-3.20608">
        <ele>1988.164</ele>
        <time>2021-07-17T15:32:40Z</time>
      </trkpt>
      <trkpt lat="37.02953" lon="-3.20607">
        <ele>1991.911</ele>
        <time>2021-07-17T15:32:51Z</time>
      </trkpt>
      <trkpt lat="37.02998" lon="-3.20605">
        <ele>2001.019</ele>
        <time>2021-07-17T15:33:02Z</time>
      </trkpt>
      <trkpt lat="37.03017" lon="-3.20608">
        <ele>2023.139</ele>
        <time>2021-07-17T15:33:13Z</time>
      </trkpt>
      <trkpt lat="37.03136" lon="-3.20634">
        <ele>2006.93</ele>
        <time>2021-07-17T15:33:24Z</time>
      </trkpt>
      <trkpt lat="37.03258" lon="-3.20634">
        <ele>2006.17</ele>
        <time>2021-07-17T15:33:35Z</time>
      </trkpt>
      <trkpt lat="37.03373" lon="-3.20638">
        <ele>2022.731</ele>
        <time>2021-07-17T15:33:46Z</time>
      </trkpt>
      <trkpt lat="37.03487" lon="-3.20741">
        <ele>2029.058</ele>
        <time>2021-07-17T15:33:57Z</time>
      </trkpt>
      <trkpt lat="37.03587" lon="-3.2082">
        <ele>2018.44</ele>
        <time>2021-07-17T15:34:08Z</time>
      </trkpt>
      <trkpt lat="37.03554" lon="-3.20713">
        <ele>2018.605</ele>
        <time>2021-07-17T15:34:19Z</time>
      </trkpt>
      <trkpt lat="37.03579" lon="-3.20614">
        <ele>2026.137</ele>
        <time>2021-07-17T15:34:30Z</time>
      </trkpt>
      <trkpt lat="37.0369" lon="-3.20501">
        <ele>2015.367</ele>
        <time>2021-07-17T15:34:41Z</time>
      </trkpt>
      <trkpt lat="37.03777" lon="-3.20413">
        <ele>2007.397</ele>
        <time>2021-07-17T15:34:52Z</time>
      </trkpt>
      <trkpt lat="37.03831" lon="-3.20284">
        <ele>1993.242</ele>
        <time>2021-07-17T15:35:03Z</time>
      </trkpt>
      <trkpt lat="37.038" lon="-3.20245">
        <ele>1999.363</ele>
        <time>2021-07-17T15:35:14Z</time>
      </trkpt>
      <trkpt lat="37.03681" lon="-3.20308">
        <ele>1998.446</ele>
        <time>2021-07-17T15:35:25Z</time>
      </trkpt>
      <trkpt lat="37.03538" lon="-3.20275">
        <ele>1983.212</ele>
        <time>2021-07-17T15:35:36Z</time>
      </trkpt>
      <trkpt lat="37.03429" lon="-3.20283">
        <ele>2012.194</ele>
        <time>2021-07-17T15:35:47Z</time>
      </trkpt>
      <trkpt lat="37.03299" lon="-3.20244">
        <ele>2013.393</ele>
        <time>2021-07-17T15:35:58Z</time>
      </trkpt>
      <trkpt lat="37.03175" lon="-3.20209">
        <ele>2012.674</ele>
        <time>2021-07-17T15:36:09Z</time>
      </trkpt>
      <trkpt lat="37.03065" lon="-3.20215">
        <ele>2016.201</ele>
        <time>2021-07-17T15:36:20Z</time>
      </trkpt>
      <trkpt lat="37.02958" lon="-3.20175">
        <ele>2018.967</ele>
        <time>2021-07-17T15:36:31Z</time>
      </trkpt>
      <trkpt lat="37.02877" lon="-3.20171">
        <ele>2015.85</ele>
        <time>2021-07-17T15:36:42Z</time>
      </trkpt>
      <trkpt lat="37.02807" lon="-3.20093">
        <ele>2007.564</ele>
        <time>2021-07-17T15:36:53Z</time>
      </trkpt>
      <trkpt lat="37.02708" lon="-3.20012">
        <ele>1993.433</ele>
        <time>2021-07-17T15:37:04Z</time>
      </trkpt>
      <trkpt lat="37.02668" lon="-3.19919">
        <ele>1980.139</ele>
        <time>2021-07-17T15:37:15Z</time>
      </trkpt>
      <trkpt lat="37.02725" lon="-3.19817">
        <ele>1971.708</ele>
        <time>2021-07-17T15:37:26Z</time>
      </trkpt>
      <trkpt lat="37.02831" lon="-3.19751">
        <ele>1959.517</ele>
        <time>2021-07-17T15:37:37Z</time>
      </trkpt>
      <trkpt lat="37.02937" lon="-3.19685">
        <ele>1950.642</ele>
        <time>2021-07-17T15:37:48Z</time>
      </trkpt>
      <trkpt lat="37.03014" lon="-3.19569">
        <ele>1944.959</ele>
        <time>2021-07-17T15:37:59Z</time>
      </trkpt>
      <trkpt lat="37.03099" lon="-3.19474">
        <ele>1938.904</ele>
        <time>2021-07-17T15:38:10Z</time>
      </trkpt>
      <trkpt lat="37.03172" lon="-3.19349">
        <ele>1925.117</ele>
        <time>2021-07-17T15:38:21Z</time>
      </trkpt>
      <trkpt lat="37.03283" lon="-3.19244">
        <ele>1915.437</ele>
        <time>2021-07-17T15:38:32Z</time>
      </trkpt>
      <trkpt lat="37.03395" lon="-3.19194">
        <ele>1901.522</ele>
        <time>2021-07-17T15:38:43Z</time>
      </trkpt>
      <trkpt lat="37.03439" lon="-3.19091">
        <ele>1892.707</ele>
        <time>2021-07-17T15:38:54Z</time>
      </trkpt>
      <trkpt lat="37.0355" lon="-3.19026">
        <ele>1884.747</ele>
        <time>2021-07-17T15:39:05Z</time>
      </trkpt>
      <trkpt lat="37.03685" lon="-3.18961">
        <ele>1873.158</ele>
        <time>2021-07-17T15:39:16Z</time>
      </trkpt>
      <trkpt lat="37.03816" lon="-3.18901">
        <ele>1860.332</ele>
        <time>2021-07-17T15:39:27Z</time>
      </trkpt>
      <trkpt lat="37.03926" lon="-3.18858">
        <ele>1849.334</ele>
        <time>2021-07-17T15:39:38Z</time>
      </trkpt>
      <trkpt lat="37.03992" lon="-3.1878">
        <ele>1845.031</ele>
        <time>2021-07-17T15:39:49Z</time>
      </trkpt>
      <trkpt lat="37.04109" lon="-3.18742">
        <ele>1835.189</ele>
        <time>2021-07-17T15:40:00Z</time>
      </trkpt>
      <trkpt lat="37.04217" lon="-3.18734">
        <ele>1826.286</ele>
        <time>2021-07-17T15:40:11Z</time>
      </trkpt>
      <trkpt lat="37.04302" lon="-3.18687">
        <ele>1819.418</ele>
        <time>2021-07-17T15:40:22Z</time>
      </trkpt>
      <trkpt lat="37.04364" lon="-3.18607">
        <ele>1806.905</ele>
        <time>2021-07-17T15:40:33Z</time>
      </trkpt>
      <trkpt lat="37.04407" lon="-3.18507">
        <ele>1804.252</ele>
        <time>2021-07-17T15:40:44Z</time>
      </trkpt>
      <trkpt lat="37.0434" lon="-3.18479">
        <ele>1809.755</ele>
        <time>2021-07-17T15:40:55Z</time>
      </trkpt>
      <trkpt lat="37.04245" lon="-3.18522">
        <ele>1818.566</ele>
        <time>2021-07-17T15:41:06Z</time>
      </trkpt>
      <trkpt lat="37.04143" lon="-3.18444">
        <ele>1819.084</ele>
        <time>2021-07-17T15:41:17Z</time>
      </trkpt>
      <trkpt lat="37.04026" lon="-3.18367">
        <ele>1818.919</ele>
        <time>2021-07-17T15:41:28Z</time>
      </trkpt>
      <trkpt lat="37.03919" lon="-3.1832">
        <ele>1820.871</ele>
        <time>2021-07-17T15:41:39Z</time>
      </trkpt>
      <trkpt lat="37.0381" lon="-3.18222">
        <ele>1823.865</ele>
        <time>2021-07-17T15:41:50Z</time>
      </trkpt>
      <trkpt lat="37.03742" lon="-3.18227">
        <ele>1828.169</ele>
        <time>2021-07-17T15:42:01Z</time>
      </trkpt>
      <trkpt lat="37.03624" lon="-3.18156">
        <ele>1832.635</ele>
        <time>2021-07-17T15:42:12Z</time>
      </trkpt>
      <trkpt lat="37.03584" lon="-3.18057">
        <ele>1845.419</ele>
        <time>2021-07-17T15:42:23Z</time>
      </trkpt>
      <trkpt lat="37.03597" lon="-3.17982">
        <ele>1850.153</ele>
        <time>2021-07-17T15:42:34Z</time>
      </trkpt>
      <trkpt lat="37.03522" lon="-3.17974">
        <ele>1871.506</ele>
        <time>2021-07-17T15:42:45Z</time>
      </trkpt>
      <trkpt lat="37.03391" lon="-3.17962">
        <ele>1874.245</ele>
        <time>2021-07-17T15:42:56Z</time>
      </trkpt>
      <trkpt lat="37.03275" lon="-3.17883">
        <ele>1866.98</ele>
        <time>2021-07-17T15:43:07Z</time>
      </trkpt>
      <trkpt lat="37.03166" lon="-3.17752">
        <ele>1872.691</ele>
        <time>2021-07-17T15:43:18Z</time>
      </trkpt>
      <trkpt lat="37.03101" lon="-3.17636">
        <ele>1860.581</ele>
        <time>2021-07-17T15:43:29Z</time>
      </trkpt>
      <trkpt lat="37.02977" lon="-3.17593">
        <ele>1860.383</ele>
        <time>2021-07-17T15:43:40Z</time>
      </trkpt>
      <trkpt lat="37.02847" lon="-3.17575">
        <ele>1875.079</ele>
        <time>2021-07-17T15:43:51Z</time>
      </trkpt>
      <trkpt lat="37.02748" lon="-3.17542">
        <ele>1883.027</ele>
        <time>2021-07-17T15:44:02Z</time>
      </trkpt>
      <trkpt lat="37.02666" lon="-3.17603">
        <ele>1894.322</ele>
        <time>2021-07-17T15:44:13Z</time>
      </trkpt>
      <trkpt lat="37.02585" lon="-3.17691">
        <ele>1894.926</ele>
        <time>2021-07-17T15:44:25Z</time>
      </trkpt>
      <trkpt lat="37.02469" lon="-3.17664">
        <ele>1893.86</ele>
        <time>2021-07-17T15:44:36Z</time>
      </trkpt>
      <trkpt lat="37.0236" lon="-3.17618">
        <ele>1896.679</ele>
        <time>2021-07-17T15:44:47Z</time>
      </trkpt>
      <trkpt lat="37.02255" lon="-3.17556">
        <ele>1911.155</ele>
        <time>2021-07-17T15:44:58Z</time>
      </trkpt>
      <trkpt lat="37.02131" lon="-3.17501">
        <ele>1916.677</ele>
        <time>2021-07-17T15:45:09Z</time>
      </trkpt>
      <trkpt lat="37.0203" lon="-3.17475">
        <ele>1921.344</ele>
        <time>2021-07-17T15:45:20Z</time>
      </trkpt>
      <trkpt lat="37.01924" lon="-3.17415">
        <ele>1935.905</ele>
        <time>2021-07-17T15:45:31Z</time>
      </trkpt>
      <trkpt lat="37.01819" lon="-3.1747">
        <ele>1957.439</ele>
        <time>2021-07-17T15:45:42Z</time>
      </trkpt>
      <trkpt lat="37.01722" lon="-3.17587">
        <ele>1961.555</ele>
        <time>2021-07-17T15:45:53Z</time>
      </trkpt>
      <trkpt lat="37.01611" lon="-3.17599">
        <ele>1960.31</ele>
        <time>2021-07-17T15:46:04Z</time>
      </trkpt>
      <trkpt lat="37.01475" lon="-3.17551">
        <ele>1960.895</ele>
        <time>2021-07-17T15:46:15Z</time>
      </trkpt>
      <trkpt lat="37.01355" lon="-3.17554">
        <ele>1962.252</ele>
        <time>2021-07-17T15:46:26Z</time>
      </trkpt>
      <trkpt lat="37.01315" lon="-3.17571">
        <ele>1961.831</ele>
        <time>2021-07-17T15:46:37Z</time>
      </trkpt>
      <trkpt lat="37.01351" lon="-3.17456">
        <ele>1967.002</ele>
        <time>2021-07-17T15:46:48Z</time>
      </trkpt>
      <trkpt lat="37.01422" lon="-3.17414">
        <ele>1975.913</ele>
        <time>2021-07-17T15:46:59Z</time>
      </trkpt>
      <trkpt lat="37.01554" lon="-3.1735">
        <ele>1977.966</ele>
        <time>2021-07-17T15:47:10Z</time>
      </trkpt>
      <trkpt lat="37.01698" lon="-3.17261">
        <ele>1968.778</ele>
        <time>2021-07-17T15:47:21Z</time>
      </trkpt>
      <trkpt lat="37.01827" lon="-3.17193">
        <ele>1961.769</ele>
        <time>2021-07-17T15:47:32Z</time>
      </trkpt>
      <trkpt lat="37.01974" lon="-3.1711">
        <ele>1959.867</ele>
        <time>2021-07-17T15:47:43Z</time>
      </trkpt>
      <trkpt lat="37.02096" lon="-3.16987">
        <ele>1965.049</ele>
        <time>2021-07-17T15:47:54Z</time>
      </trkpt>
      <trkpt lat="37.02224" lon="-3.1688">
        <ele>1967.681</ele>
        <time>2021-07-17T15:48:05Z</time>
      </trkpt>
      <trkpt lat="37.02347" lon="-3.16761">
        <ele>1972.432</ele>
        <time>2021-07-17T15:48:16Z</time>
      </trkpt>
      <trkpt lat="37.02507" lon="-3.16682">
        <ele>1960.137</ele>
        <time>2021-07-17T15:48:27Z</time>
      </trkpt>
      <trkpt lat="37.02624" lon="-3.16577">
        <ele>1963.468</ele>
        <time>2021-07-17T15:48:38Z</time>
      </trkpt>
      <trkpt lat="37.02727" lon="-3.16418">
        <ele>1969.897</ele>
        <time>2021-07-17T15:48:49Z</time>
      </trkpt>
      <trkpt lat="37.0283" lon="-3.16264">
        <ele>1968.598</ele>
        <time>2021-07-17T15:49:00Z</time>
      </trkpt>
      <trkpt lat="37.02952" lon="-3.16131">
        <ele>1964.89</ele>
        <time>2021-07-17T15:49:11Z</time>
      </trkpt>
      <trkpt lat="37.03104" lon="-3.16066">
        <ele>1964.763</ele>
        <time>2021-07-17T15:49:22Z</time>
      </trkpt>
      <trkpt lat="37.03218" lon="-3.16002">
        <ele>1955.36</ele>
        <time>2021-07-17T15:49:33Z</time>
      </trkpt>
      <trkpt lat="37.03343" lon="-3.16009">
        <ele>1954.561</ele>
        <time>2021-07-17T15:49:44Z</time>
      </trkpt>
      <trkpt lat="37.03488" lon="-3.15972">
        <ele>1959.506</ele>
        <time>2021-07-17T15:49:55Z</time>
      </trkpt>
      <trkpt lat="37.03643" lon="-3.15896">
        <ele>1973.359</ele>
        <time>2021-07-17T15:50:06Z</time>
      </trkpt>
      <trkpt lat="37.03791" lon="-3.15858">
        <ele>1975.777</ele>
        <time>2021-07-17T15:50:17Z</time>
      </trkpt>
      <trkpt lat="37.03884" lon="-3.15756">
        <ele>1972.758</ele>
        <time>2021-07-17T15:50:28Z</time>
      </trkpt>
      <trkpt lat="37.03971" lon="-3.15781">
        <ele>1968.251</ele>
        <time>2021-07-17T15:50:39Z</time>
      </trkpt>
      <trkpt lat="37.03966" lon="-3.15706">
        <ele>1964.98</ele>
        <time>2021-07-17T15:50:50Z</time>
      </trkpt>
      <trkpt lat="37.03939" lon="-3.15544">
        <ele>1956.529</ele>
        <time>2021-07-17T15:51:01Z</time>
      </trkpt>
      <trkpt lat="37.03855" lon="-3.15383">
        <ele>1948.261</ele>
        <time>2021-07-17T15:51:12Z</time>
      </trkpt>
      <trkpt lat="37.03742" lon="-3.15261">
        <ele>1930.793</ele>
        <time>2021-07-17T15:51:23Z</time>
      </trkpt>
      <trkpt lat="37.03628" lon="-3.15095">
        <ele>1921.28</ele>
        <time>2021-07-17T15:51:34Z</time>
      </trkpt>
      <trkpt lat="37.03586" lon="-3.14941">
        <ele>1930.94</ele>
        <time>2021-07-17T15:51:45Z</time>
      </trkpt>
      <trkpt lat="37.03669" lon="-3.14795">
        <ele>1929.469</ele>
        <time>2021-07-17T15:51:56Z</time>
      </trkpt>
      <trkpt lat="37.03792" lon="-3.14706">
        <ele>1930.523</ele>
        <time>2021-07-17T15:52:07Z</time>
      </trkpt>
      <trkpt lat="37.03886" lon="-3.14568">
        <ele>1934.46</ele>
        <time>2021-07-17T15:52:18Z</time>
      </trkpt>
      <trkpt lat="37.0394" lon="-3.1439">
        <ele>1941.701</ele>
        <time>2021-07-17T15:52:29Z</time>
      </trkpt>
      <trkpt lat="37.04057" lon="-3.14262">
        <ele>1942.144</ele>
        <time>2021-07-17T15:52:40Z</time>
      </trkpt>
      <trkpt lat="37.04194" lon="-3.14172">
        <ele>1934.357</ele>
        <time>2021-07-17T15:52:51Z</time>
      </trkpt>
      <trkpt lat="37.04308" lon="-3.14025">
        <ele>1920.898</ele>
        <time>2021-07-17T15:53:02Z</time>
      </trkpt>
      <trkpt lat="37.04378" lon="-3.13862">
        <ele>1909.794</ele>
        <time>2021-07-17T15:53:13Z</time>
      </trkpt>
      <trkpt lat="37.04454" lon="-3.13683">
        <ele>1896.209</ele>
        <time>2021-07-17T15:53:24Z</time>
      </trkpt>
      <trkpt lat="37.04534" lon="-3.13512">
        <ele>1896.724</ele>
        <time>2021-07-17T15:53:35Z</time>
      </trkpt>
      <trkpt lat="37.04625" lon="-3.13344">
        <ele>1898.739</ele>
        <time>2021-07-17T15:53:46Z</time>
      </trkpt>
      <trkpt lat="37.04739" lon="-3.13299">
        <ele>1890.872</ele>
        <time>2021-07-17T15:53:57Z</time>
      </trkpt>
      <trkpt lat="37.04872" lon="-3.13329">
        <ele>1884.815</ele>
        <time>2021-07-17T15:54:08Z</time>
      </trkpt>
      <trkpt lat="37.04986" lon="-3.13265">
        <ele>1875.322</ele>
        <time>2021-07-17T15:54:19Z</time>
      </trkpt>
      <trkpt lat="37.05119" lon="-3.13305">
        <ele>1855.148</ele>
        <time>2021-07-17T15:54:30Z</time>
      </trkpt>
      <trkpt lat="37.05207" lon="-3.1331">
        <ele>1837.918</ele>
        <time>2021-07-17T15:54:41Z</time>
      </trkpt>
      <trkpt lat="37.05256" lon="-3.1326">
        <ele>1853.849</ele>
        <time>2021-07-17T15:54:52Z</time>
      </trkpt>
      <trkpt lat="37.05377" lon="-3.13225">
        <ele>1869.903</ele>
        <time>2021-07-17T15:55:03Z</time>
      </trkpt>
      <trkpt lat="37.05487" lon="-3.13161">
        <ele>1870.209</ele>
        <time>2021-07-17T15:55:14Z</time>
      </trkpt>
      <trkpt lat="37.0552" lon="-3.13152">
        <ele>1869.704</ele>
        <time>2021-07-17T15:55:25Z</time>
      </trkpt>
      <trkpt lat="37.05524" lon="-3.13143">
        <ele>1886.044</ele>
        <time>2021-07-17T15:56:09Z</time>
      </trkpt>
      <trkpt lat="37.05548" lon="-3.13089">
        <ele>1883.613</ele>
        <time>2021-07-17T15:56:20Z</time>
      </trkpt>
      <trkpt lat="37.05451" lon="-3.13088">
        <ele>1868.948</ele>
        <time>2021-07-17T15:56:31Z</time>
      </trkpt>
      <trkpt lat="37.05335" lon="-3.13053">
        <ele>1854.486</ele>
        <time>2021-07-17T15:56:42Z</time>
      </trkpt>
      <trkpt lat="37.05219" lon="-3.13008">
        <ele>1869.244</ele>
        <time>2021-07-17T15:56:53Z</time>
      </trkpt>
      <trkpt lat="37.05085" lon="-3.12976">
        <ele>1885.471</ele>
        <time>2021-07-17T15:57:04Z</time>
      </trkpt>
      <trkpt lat="37.04968" lon="-3.12845">
        <ele>1896.402</ele>
        <time>2021-07-17T15:57:15Z</time>
      </trkpt>
      <trkpt lat="37.04831" lon="-3.1277">
        <ele>1906.146</ele>
        <time>2021-07-17T15:57:26Z</time>
      </trkpt>
      <trkpt lat="37.04684" lon="-3.12709">
        <ele>1922.732</ele>
        <time>2021-07-17T15:57:37Z</time>
      </trkpt>
      <trkpt lat="37.04558" lon="-3.12614">
        <ele>1943.335</ele>
        <time>2021-07-17T15:57:48Z</time>
      </trkpt>
      <trkpt lat="37.04389" lon="-3.1254">
        <ele>1945.443</ele>
        <time>2021-07-17T15:57:59Z</time>
      </trkpt>
      <trkpt lat="37.04215" lon="-3.12471">
        <ele>1949.473</ele>
        <time>2021-07-17T15:58:10Z</time>
      </trkpt>
      <trkpt lat="37.04062" lon="-3.12447">
        <ele>1955.308</ele>
        <time>2021-07-17T15:58:21Z</time>
      </trkpt>
      <trkpt lat="37.03901" lon="-3.12453">
        <ele>1957.79</ele>
        <time>2021-07-17T15:58:32Z</time>
      </trkpt>
      <trkpt lat="37.03761" lon="-3.12475">
        <ele>1967.478</ele>
        <time>2021-07-17T15:58:43Z</time>
      </trkpt>
      <trkpt lat="37.03646" lon="-3.12616">
        <ele>1973.731</ele>
        <time>2021-07-17T15:58:54Z</time>
      </trkpt>
      <trkpt lat="37.03515" lon="-3.12702">
        <ele>1978.875</ele>
        <time>2021-07-17T15:59:05Z</time>
      </trkpt>
      <trkpt lat="37.03344" lon="-3.12692">
        <ele>1985.121</ele>
        <time>2021-07-17T15:59:16Z</time>
      </trkpt>
      <trkpt lat="37.03197" lon="-3.12699">
        <ele>1987.779</ele>
        <time>2021-07-17T15:59:27Z</time>
      </trkpt>
      <trkpt lat="37.03072" lon="-3.12799">
        <ele>1983.703</ele>
        <time>2021-07-17T15:59:38Z</time>
      </trkpt>
      <trkpt lat="37.02896" lon="-3.12817">
        <ele>1979.747</ele>
        <time>2021-07-17T15:59:49Z</time>
      </trkpt>
      <trkpt lat="37.02765" lon="-3.12904">
        <ele>1977.956</ele>
        <time>2021-07-17T16:00:00Z</time>
      </trkpt>
      <trkpt lat="37.02742" lon="-3.12904">
        <ele>1980.212</ele>
        <time>2021-07-17T16:00:11Z</time>
      </trkpt>
      <trkpt lat="37.02743" lon="-3.12905">
        <ele>1976.231</ele>
        <time>2021-07-17T16:01:11Z</time>
      </trkpt>
      <trkpt lat="37.02735" lon="-3.12903">
        <ele>1975.413</ele>
        <time>2021-07-17T16:01:54Z</time>
      </trkpt>
      <trkpt lat="37.02627" lon="-3.12847">
        <ele>1961.942</ele>
        <time>2021-07-17T16:02:05Z</time>
      </trkpt>
      <trkpt lat="37.02575" lon="-3.12668">
        <ele>1956.555</ele>
        <time>2021-07-17T16:02:16Z</time>
      </trkpt>
      <trkpt lat="37.02601" lon="-3.1246">
        <ele>1957.533</ele>
        <time>2021-07-17T16:02:27Z</time>
      </trkpt>
      <trkpt lat="37.0269" lon="-3.12277">
        <ele>1957.681</ele>
        <time>2021-07-17T16:02:38Z</time>
      </trkpt>
      <trkpt lat="37.02804" lon="-3.1216">
        <ele>1956.57</ele>
        <time>2021-07-17T16:02:49Z</time>
      </trkpt>
      <trkpt lat="37.02941" lon="-3.12088">
        <ele>1953.269</ele>
        <time>2021-07-17T16:03:00Z</time>
      </trkpt>
      <trkpt lat="37.03043" lon="-3.11985">
        <ele>1944.936</ele>
        <time>2021-07-17T16:03:11Z</time>
      </trkpt>
      <trkpt lat="37.0311" lon="-3.11815">
        <ele>1938.256</ele>
        <time>2021-07-17T16:03:22Z</time>
      </trkpt>
      <trkpt lat="37.03188" lon="-3.11665">
        <ele>1933.612</ele>
        <time>2021-07-17T16:03:33Z</time>
      </trkpt>
      <trkpt lat="37.03155" lon="-3.11526">
        <ele>1934.083</ele>
        <time>2021-07-17T16:03:44Z</time>
      </trkpt>
      <trkpt lat="37.03192" lon="-3.11395">
        <ele>1930.398</ele>
        <time>2021-07-17T16:03:55Z</time>
      </trkpt>
      <trkpt lat="37.03192" lon="-3.11217">
        <ele>1924.25</ele>
        <time>2021-07-17T16:04:06Z</time>
      </trkpt>
      <trkpt lat="37.03311" lon="-3.11136">
        <ele>1918.507</ele>
        <time>2021-07-17T16:04:17Z</time>
      </trkpt>
      <trkpt lat="37.03455" lon="-3.11172">
        <ele>1909.676</ele>
        <time>2021-07-17T16:04:28Z</time>
      </trkpt>
      <trkpt lat="37.03565" lon="-3.1126">
        <ele>1903.22</ele>
        <time>2021-07-17T16:04:39Z</time>
      </trkpt>
      <trkpt lat="37.03661" lon="-3.11382">
        <ele>1895.724</ele>
        <time>2021-07-17T16:04:50Z</time>
      </trkpt>
      <trkpt lat="37.03751" lon="-3.11443">
        <ele>1887.973</ele>
        <time>2021-07-17T16:05:01Z</time>
      </trkpt>
      <trkpt lat="37.03862" lon="-3.11338">
        <ele>1881.25</ele>
        <time>2021-07-17T16:05:12Z</time>
      </trkpt>
      <trkpt lat="37.04008" lon="-3.1126">
        <ele>1882.986</ele>
        <time>2021-07-17T16:05:23Z</time>
      </trkpt>
      <trkpt lat="37.04145" lon="-3.11228">
        <ele>1875.404</ele>
        <time>2021-07-17T16:05:34Z</time>
      </trkpt>
      <trkpt lat="37.04256" lon="-3.11187">
        <ele>1859.354</ele>
        <time>2021-07-17T16:05:45Z</time>
      </trkpt>
      <trkpt lat="37.04383" lon="-3.11109">
        <ele>1843.476</ele>
        <time>2021-07-17T16:05:56Z</time>
      </trkpt>
      <trkpt lat="37.04489" lon="-3.11055">
        <ele>1845.784</ele>
        <time>2021-07-17T16:06:07Z</time>
      </trkpt>
      <trkpt lat="37.04499" lon="-3.10928">
        <ele>1849.579</ele>
        <time>2021-07-17T16:06:18Z</time>
      </trkpt>
      <trkpt lat="37.04599" lon="-3.10842">
        <ele>1842.882</ele>
        <time>2021-07-17T16:06:29Z</time>
      </trkpt>
      <trkpt lat="37.04671" lon="-3.10765">
        <ele>1838.851</ele>
        <time>2021-07-17T16:06:40Z</time>
      </trkpt>
      <trkpt lat="37.04773" lon="-3.10713">
        <ele>1838.863</ele>
        <time>2021-07-17T16:06:51Z</time>
      </trkpt>
      <trkpt lat="37.04825" lon="-3.10587">
        <ele>1836.45</ele>
        <time>2021-07-17T16:07:02Z</time>
      </trkpt>
      <trkpt lat="37.04956" lon="-3.10463">
        <ele>1833.5</ele>
        <time>2021-07-17T16:07:13Z</time>
      </trkpt>
      <trkpt lat="37.05099" lon="-3.10331">
        <ele>1833.575</ele>
        <time>2021-07-17T16:07:24Z</time>
      </trkpt>
      <trkpt lat="37.05202" lon="-3.10241">
        <ele>1819.085</ele>
        <time>2021-07-17T16:07:35Z</time>
      </trkpt>
      <trkpt lat="37.05168" lon="-3.10198">
        <ele>1819.149</ele>
        <time>2021-07-17T16:07:46Z</time>
      </trkpt>
      <trkpt lat="37.05052" lon="-3.10184">
        <ele>1820.181</ele>
        <time>2021-07-17T16:07:57Z</time>
      </trkpt>
      <trkpt lat="37.0492" lon="-3.10212">
        <ele>1823.016</ele>
        <time>2021-07-17T16:08:08Z</time>
      </trkpt>
      <trkpt lat="37.0478" lon="-3.10227">
        <ele>1830.307</ele>
        <time>2021-07-17T16:08:19Z</time>
      </trkpt>
      <trkpt lat="37.0465" lon="-3.10139">
        <ele>1837.311</ele>
        <time>2021-07-17T16:08:30Z</time>
      </trkpt>
      <trkpt lat="37.04502" lon="-3.10102">
        <ele>1842.18</ele>
        <time>2021-07-17T16:08:41Z</time>
      </trkpt>
      <trkpt lat="37.04364" lon="-3.10025">
        <ele>1844.105</ele>
        <time>2021-07-17T16:08:52Z</time>
      </trkpt>
      <trkpt lat="37.04272" lon="-3.09896">
        <ele>1838.845</ele>
        <time>2021-07-17T16:09:03Z</time>
      </trkpt>
      <trkpt lat="37.04144" lon="-3.09805">
        <ele>1835.193</ele>
        <time>2021-07-17T16:09:14Z</time>
      </trkpt>
      <trkpt lat="37.04019" lon="-3.09683">
        <ele>1825.208</ele>
        <time>2021-07-17T16:09:25Z</time>
      </trkpt>
      <trkpt lat="37.03907" lon="-3.09544">
        <ele>1814.724</ele>
        <time>2021-07-17T16:09:36Z</time>
      </trkpt>
      <trkpt lat="37.03809" lon="-3.0937">
        <ele>1805.481</ele>
        <time>2021-07-17T16:09:47Z</time>
      </trkpt>
      <trkpt lat="37.03834" lon="-3.09286">
        <ele>1800.258</ele>
        <time>2021-07-17T16:09:58Z</time>
      </trkpt>
      <trkpt lat="37.03978" lon="-3.09256">
        <ele>1795.162</ele>
        <time>2021-07-17T16:10:09Z</time>
      </trkpt>
      <trkpt lat="37.04151" lon="-3.09228">
        <ele>1800.954</ele>
        <time>2021-07-17T16:10:20Z</time>
      </trkpt>
      <trkpt lat="37.04306" lon="-3.09256">
        <ele>1802.949</ele>
        <time>2021-07-17T16:10:31Z</time>
      </trkpt>
      <trkpt lat="37.04487" lon="-3.09277">
        <ele>1790.216</ele>
        <time>2021-07-17T16:10:42Z</time>
      </trkpt>
      <trkpt lat="37.04658" lon="-3.09297">
        <ele>1796.037</ele>
        <time>2021-07-17T16:10:53Z</time>
      </trkpt>
      <trkpt lat="37.04808" lon="-3.09321">
        <ele>1799.498</ele>
        <time>2021-07-17T16:11:04Z</time>
      </trkpt>
      <trkpt lat="37.04948" lon="-3.09393">
        <ele>1804.506</ele>
        <time>2021-07-17T16:11:15Z</time>
      </trkpt>
      <trkpt lat="37.05087" lon="-3.09461">
        <ele>1813.697</ele>
        <time>2021-07-17T16:11:26Z</time>
      </trkpt>
      <trkpt lat="37.0523" lon="-3.09528">
        <ele>1820.522</ele>
        <time>2021-07-17T16:11:37Z</time>
      </trkpt>
      <trkpt lat="37.05367" lon="-3.09566">
        <ele>1828.367</ele>
        <time>2021-07-17T16:11:48Z</time>
      </trkpt>
      <trkpt lat="37.0549" lon="-3.09555">
        <ele>1832.508</ele>
        <time>2021-07-17T16:11:59Z</time>
      </trkpt>
      <trkpt lat="37.056" lon="-3.09456">
        <ele>1832.092</ele>
        <time>2021-07-17T16:12:10Z</time>
      </trkpt>
      <trkpt lat="37.05706" lon="-3.09377">
        <ele>1830.35</ele>
        <time>2021-07-17T16:12:21Z</time>
      </trkpt>
      <trkpt lat="37.05788" lon="-3.09291">
        <ele>1827.512</ele>
        <time>2021-07-17T16:12:32Z</time>
      </trkpt>
      <trkpt lat="37.05875" lon="-3.09221">
        <ele>1825.802</ele>
        <time>2021-07-17T16:12:43Z</time>
      </trkpt>
      <trkpt lat="37.05981" lon="-3.09147">
        <ele>1832.3</ele>
        <time>2021-07-17T16:12:54Z</time>
      </trkpt>
      <trkpt lat="37.0611" lon="-3.09126">
        <ele>1835.842</ele>
        <time>2021-07-17T16:13:05Z</time>
      </trkpt>
      <trkpt lat="37.06219" lon="-3.09042">
        <ele>1841.254</ele>
        <time>2021-07-17T16:13:16Z</time>
      </trkpt>
      <trkpt lat="37.06351" lon="-3.0898">
        <ele>1848.681</ele>
        <time>2021-07-17T16:13:27Z</time>
      </trkpt>
      <trkpt lat="37.06495" lon="-3.08921">
        <ele>1844.25</ele>
        <time>2021-07-17T16:13:38Z</time>
      </trkpt>
      <trkpt lat="37.06635" lon="-3.08985">
        <ele>1845.84</ele>
        <time>2021-07-17T16:13:49Z</time>
      </trkpt>
      <trkpt lat="37.06786" lon="-3.09037">
        <ele>1851.777</ele>
        <time>2021-07-17T16:14:00Z</time>
      </trkpt>
      <trkpt lat="37.06928" lon="-3.09083">
        <ele>1865.7</ele>
        <time>2021-07-17T16:14:11Z</time>
      </trkpt>
      <trkpt lat="37.07053" lon="-3.09123">
        <ele>1870.31</ele>
        <time>2021-07-17T16:14:22Z</time>
      </trkpt>
      <trkpt lat="37.07123" lon="-3.09041">
        <ele>1852.544</ele>
        <time>2021-07-17T16:14:33Z</time>
      </trkpt>
      <trkpt lat="37.07211" lon="-3.09096">
        <ele>1815.979</ele>
        <time>2021-07-17T16:14:44Z</time>
      </trkpt>
      <trkpt lat="37.07261" lon="-3.09096">
        <ele>1801.359</ele>
        <time>2021-07-17T16:14:55Z</time>
      </trkpt>
      <trkpt lat="37.07211" lon="-3.08947">
        <ele>1826.336</ele>
        <time>2021-07-17T16:15:06Z</time>
      </trkpt>
      <trkpt lat="37.07179" lon="-3.08851">
        <ele>1840.185</ele>
        <time>2021-07-17T16:15:17Z</time>
      </trkpt>
      <trkpt lat="37.07058" lon="-3.08797">
        <ele>1833.677</ele>
        <time>2021-07-17T16:15:28Z</time>
      </trkpt>
      <trkpt lat="37.06943" lon="-3.08688">
        <ele>1817.084</ele>
        <time>2021-07-17T16:15:39Z</time>
      </trkpt>
      <trkpt lat="37.06901" lon="-3.08672">
        <ele>1843.125</ele>
        <time>2021-07-17T16:15:50Z</time>
      </trkpt>
      <trkpt lat="37.06908" lon="-3.08696">
        <ele>1889.23</ele>
        <time>2021-07-17T16:16:01Z</time>
      </trkpt>
      <trkpt lat="37.06903" lon="-3.08676">
        <ele>1865.149</ele>
        <time>2021-07-17T16:16:12Z</time>
      </trkpt>
      <trkpt lat="37.069" lon="-3.08669">
        <ele>1867.069</ele>
        <time>2021-07-17T16:16:34Z</time>
      </trkpt>
      <trkpt lat="37.06852" lon="-3.08512">
        <ele>1874.724</ele>
        <time>2021-07-17T16:16:45Z</time>
      </trkpt>
      <trkpt lat="37.06844" lon="-3.08402">
        <ele>1881.131</ele>
        <time>2021-07-17T16:16:56Z</time>
      </trkpt>
      <trkpt lat="37.06733" lon="-3.08383">
        <ele>1888.719</ele>
        <time>2021-07-17T16:17:07Z</time>
      </trkpt>
      <trkpt lat="37.06594" lon="-3.08355">
        <ele>1892.997</ele>
        <time>2021-07-17T16:17:18Z</time>
      </trkpt>
      <trkpt lat="37.06465" lon="-3.0829">
        <ele>1902.287</ele>
        <time>2021-07-17T16:17:29Z</time>
      </trkpt>
      <trkpt lat="37.06392" lon="-3.08161">
        <ele>1895.909</ele>
        <time>2021-07-17T16:17:40Z</time>
      </trkpt>
      <trkpt lat="37.06252" lon="-3.08092">
        <ele>1907.15</ele>
        <time>2021-07-17T16:17:51Z</time>
      </trkpt>
      <trkpt lat="37.06105" lon="-3.08006">
        <ele>1909.925</ele>
        <time>2021-07-17T16:18:02Z</time>
      </trkpt>
      <trkpt lat="37.05989" lon="-3.07909">
        <ele>1913.425</ele>
        <time>2021-07-17T16:18:13Z</time>
      </trkpt>
      <trkpt lat="37.05884" lon="-3.07771">
        <ele>1916.698</ele>
        <time>2021-07-17T16:18:24Z</time>
      </trkpt>
      <trkpt lat="37.05877" lon="-3.0759">
        <ele>1921.498</ele>
        <time>2021-07-17T16:18:35Z</time>
      </trkpt>
      <trkpt lat="37.05894" lon="-3.07414">
        <ele>1922.101</ele>
        <time>2021-07-17T16:18:46Z</time>
      </trkpt>
      <trkpt lat="37.05944" lon="-3.07256">
        <ele>1924.902</ele>
        <time>2021-07-17T16:18:57Z</time>
      </trkpt>
      <trkpt lat="37.05942" lon="-3.07121">
        <ele>1926.628</ele>
        <time>2021-07-17T16:19:08Z</time>
      </trkpt>
      <trkpt lat="37.05919" lon="-3.06935">
        <ele>1930.284</ele>
        <time>2021-07-17T16:19:19Z</time>
      </trkpt>
      <trkpt lat="37.059" lon="-3.06805">
        <ele>1933.338</ele>
        <time>2021-07-17T16:19:30Z</time>
      </trkpt>
      <trkpt lat="37.058" lon="-3.06717">
        <ele>1930.786</ele>
        <time>2021-07-17T16:19:41Z</time>
      </trkpt>
      <trkpt lat="37.05673" lon="-3.06648">
        <ele>1931.674</ele>
        <time>2021-07-17T16:19:52Z</time>
      </trkpt>
      <trkpt lat="37.05616" lon="-3.06503">
        <ele>1937.582</ele>
        <time>2021-07-17T16:20:03Z</time>
      </trkpt>
      <trkpt lat="37.05544" lon="-3.0652">
        <ele>1948.869</ele>
        <time>2021-07-17T16:20:14Z</time>
      </trkpt>
      <trkpt lat="37.05428" lon="-3.06485">
        <ele>1942.155</ele>
        <time>2021-07-17T16:20:25Z</time>
      </trkpt>
      <trkpt lat="37.05304" lon="-3.06412">
        <ele>1930.634</ele>
        <time>2021-07-17T16:20:36Z</time>
      </trkpt>
      <trkpt lat="37.05144" lon="-3.06291">
        <ele>1925.326</ele>
        <time>2021-07-17T16:20:47Z</time>
      </trkpt>
      <trkpt lat="37.05015" lon="-3.06158">
        <ele>1921.787</ele>
        <time>2021-07-17T16:20:58Z</time>
      </trkpt>
      <trkpt lat="37.04928" lon="-3.05986">
        <ele>1934.752</ele>
        <time>2021-07-17T16:21:09Z</time>
      </trkpt>
      <trkpt lat="37.04858" lon="-3.05854">
        <ele>1942.751</ele>
        <time>2021-07-17T16:21:20Z</time>
      </trkpt>
      <trkpt lat="37.04745" lon="-3.05795">
        <ele>1948.525</ele>
        <time>2021-07-17T16:21:31Z</time>
      </trkpt>
      <trkpt lat="37.04577" lon="-3.05742">
        <ele>1935.816</ele>
        <time>2021-07-17T16:21:42Z</time>
      </trkpt>
      <trkpt lat="37.04427" lon="-3.05706">
        <ele>1915.92</ele>
        <time>2021-07-17T16:21:53Z</time>
      </trkpt>
      <trkpt lat="37.04327" lon="-3.05557">
        <ele>1892.422</ele>
        <time>2021-07-17T16:22:04Z</time>
      </trkpt>
      <trkpt lat="37.04326" lon="-3.0539">
        <ele>1884.62</ele>
        <time>2021-07-17T16:22:15Z</time>
      </trkpt>
      <trkpt lat="37.04307" lon="-3.05291">
        <ele>1886.689</ele>
        <time>2021-07-17T16:22:26Z</time>
      </trkpt>
      <trkpt lat="37.0423" lon="-3.05137">
        <ele>1887.818</ele>
        <time>2021-07-17T16:22:37Z</time>
      </trkpt>
      <trkpt lat="37.0421" lon="-3.04924">
        <ele>1887.657</ele>
        <time>2021-07-17T16:22:48Z</time>
      </trkpt>
      <trkpt lat="37.04129" lon="-3.04784">
        <ele>1885.716</ele>
        <time>2021-07-17T16:22:59Z</time>
      </trkpt>
      <trkpt lat="37.04073" lon="-3.04594">
        <ele>1868.561</ele>
        <time>2021-07-17T16:23:10Z</time>
      </trkpt>
      <trkpt lat="37.04088" lon="-3.04445">
        <ele>1855.783</ele>
        <time>2021-07-17T16:23:21Z</time>
      </trkpt>
      <trkpt lat="37.04199" lon="-3.04452">
        <ele>1852.969</ele>
        <time>2021-07-17T16:23:32Z</time>
      </trkpt>
      <trkpt lat="37.04317" lon="-3.04527">
        <ele>1839.818</ele>
        <time>2021-07-17T16:23:43Z</time>
      </trkpt>
      <trkpt lat="37.04458" lon="-3.04547">
        <ele>1839.075</ele>
        <time>2021-07-17T16:23:54Z</time>
      </trkpt>
      <trkpt lat="37.04589" lon="-3.04569">
        <ele>1838.285</ele>
        <time>2021-07-17T16:24:05Z</time>
      </trkpt>
      <trkpt lat="37.04705" lon="-3.04517">
        <ele>1851.127</ele>
        <time>2021-07-17T16:24:16Z</time>
      </trkpt>
      <trkpt lat="37.04806" lon="-3.04522">
        <ele>1849.444</ele>
        <time>2021-07-17T16:24:27Z</time>
      </trkpt>
      <trkpt lat="37.0491" lon="-3.04534">
        <ele>1842.14</ele>
        <time>2021-07-17T16:24:38Z</time>
      </trkpt>
      <trkpt lat="37.05017" lon="-3.04541">
        <ele>1841.254</ele>
        <time>2021-07-17T16:24:49Z</time>
      </trkpt>
      <trkpt lat="37.05142" lon="-3.04496">
        <ele>1845.209</ele>
        <time>2021-07-17T16:25:00Z</time>
      </trkpt>
      <trkpt lat="37.05278" lon="-3.0449">
        <ele>1838.479</ele>
        <time>2021-07-17T16:25:11Z</time>
      </trkpt>
      <trkpt lat="37.05403" lon="-3.04486">
        <ele>1834.747</ele>
        <time>2021-07-17T16:25:22Z</time>
      </trkpt>
      <trkpt lat="37.05534" lon="-3.04467">
        <ele>1840.59</ele>
        <time>2021-07-17T16:25:33Z</time>
      </trkpt>
      <trkpt lat="37.0565" lon="-3.0446">
        <ele>1836.448</ele>
        <time>2021-07-17T16:25:44Z</time>
      </trkpt>
      <trkpt lat="37.05737" lon="-3.04462">
        <ele>1830.814</ele>
        <time>2021-07-17T16:25:55Z</time>
      </trkpt>
      <trkpt lat="37.05859" lon="-3.04449">
        <ele>1825.605</ele>
        <time>2021-07-17T16:26:06Z</time>
      </trkpt>
      <trkpt lat="37.05991" lon="-3.04478">
        <ele>1820.64</ele>
        <time>2021-07-17T16:26:17Z</time>
      </trkpt>
      <trkpt lat="37.06129" lon="-3.04468">
        <ele>1816.169</ele>
        <time>2021-07-17T16:26:28Z</time>
      </trkpt>
      <trkpt lat="37.06238" lon="-3.04441">
        <ele>1807.144</ele>
        <time>2021-07-17T16:26:39Z</time>
      </trkpt>
      <trkpt lat="37.0636" lon="-3.04425">
        <ele>1798.177</ele>
        <time>2021-07-17T16:26:50Z</time>
      </trkpt>
      <trkpt lat="37.06438" lon="-3.04516">
        <ele>1793.448</ele>
        <time>2021-07-17T16:27:01Z</time>
      </trkpt>
      <trkpt lat="37.06537" lon="-3.04585">
        <ele>1779.992</ele>
        <time>2021-07-17T16:27:12Z</time>
      </trkpt>
      <trkpt lat="37.06521" lon="-3.04524">
        <ele>1787.577</ele>
        <time>2021-07-17T16:27:23Z</time>
      </trkpt>
      <trkpt lat="37.06481" lon="-3.04432">
        <ele>1780.851</ele>
        <time>2021-07-17T16:27:34Z</time>
      </trkpt>
      <trkpt lat="37.06473" lon="-3.04396">
        <ele>1781.683</ele>
        <time>2021-07-17T16:27:45Z</time>
      </trkpt>
      <trkpt lat="37.06467" lon="-3.04376">
        <ele>1785.904</ele>
        <time>2021-07-17T16:27:56Z</time>
      </trkpt>
      <trkpt lat="37.0646" lon="-3.04362">
        <ele>1783.632</ele>
        <time>2021-07-17T16:28:07Z</time>
      </trkpt>
      <trkpt lat="37.06416" lon="-3.04298">
        <ele>1776.008</ele>
        <time>2021-07-17T16:28:18Z</time>
      </trkpt>
      <trkpt lat="37.06322" lon="-3.04259">
        <ele>1752.72</ele>
        <time>2021-07-17T16:28:29Z</time>
      </trkpt>
      <trkpt lat="37.06206" lon="-3.04146">
        <ele>1790.357</ele>
        <time>2021-07-17T16:28:40Z</time>
      </trkpt>
      <trkpt lat="37.06092" lon="-3.04047">
        <ele>1787.961</ele>
        <time>2021-07-17T16:28:51Z</time>
      </trkpt>
      <trkpt lat="37.05977" lon="-3.0398">
        <ele>1791.047</ele>
        <time>2021-07-17T16:29:02Z</time>
      </trkpt>
      <trkpt lat="37.0582" lon="-3.03922">
        <ele>1785.674</ele>
        <time>2021-07-17T16:29:13Z</time>
      </trkpt>
      <trkpt lat="37.0574" lon="-3.03793">
        <ele>1779.035</ele>
        <time>2021-07-17T16:29:24Z</time>
      </trkpt>
      <trkpt lat="37.05654" lon="-3.03705">
        <ele>1772.295</ele>
        <time>2021-07-17T16:29:35Z</time>
      </trkpt>
      <trkpt lat="37.05572" lon="-3.03574">
        <ele>1770.74</ele>
        <time>2021-07-17T16:29:46Z</time>
      </trkpt>
      <trkpt lat="37.0546" lon="-3.03509">
        <ele>1765.441</ele>
        <time>2021-07-17T16:29:57Z</time>
      </trkpt>
      <trkpt lat="37.0536" lon="-3.03418">
        <ele>1757.626</ele>
        <time>2021-07-17T16:30:08Z</time>
      </trkpt>
      <trkpt lat="37.05224" lon="-3.03361">
        <ele>1747.452</ele>
        <time>2021-07-17T16:30:19Z</time>
      </trkpt>
      <trkpt lat="37.05107" lon="-3.03336">
        <ele>1739.843</ele>
        <time>2021-07-17T16:30:30Z</time>
      </trkpt>
      <trkpt lat="37.04983" lon="-3.03231">
        <ele>1729.671</ele>
        <time>2021-07-17T16:30:41Z</time>
      </trkpt>
      <trkpt lat="37.04867" lon="-3.03125">
        <ele>1720.297</ele>
        <time>2021-07-17T16:30:52Z</time>
      </trkpt>
      <trkpt lat="37.04781" lon="-3.02937">
        <ele>1712.887</ele>
        <time>2021-07-17T16:31:03Z</time>
      </trkpt>
      <trkpt lat="37.04739" lon="-3.02758">
        <ele>1705.12</ele>
        <time>2021-07-17T16:31:14Z</time>
      </trkpt>
      <trkpt lat="37.04644" lon="-3.02598">
        <ele>1701.999</ele>
        <time>2021-07-17T16:31:25Z</time>
      </trkpt>
      <trkpt lat="37.04534" lon="-3.0245">
        <ele>1696.787</ele>
        <time>2021-07-17T16:31:36Z</time>
      </trkpt>
      <trkpt lat="37.04443" lon="-3.02327">
        <ele>1688.613</ele>
        <time>2021-07-17T16:31:47Z</time>
      </trkpt>
      <trkpt lat="37.04366" lon="-3.02161">
        <ele>1681.051</ele>
        <time>2021-07-17T16:31:58Z</time>
      </trkpt>
      <trkpt lat="37.0426" lon="-3.01993">
        <ele>1671.297</ele>
        <time>2021-07-17T16:32:09Z</time>
      </trkpt>
      <trkpt lat="37.04116" lon="-3.01904">
        <ele>1660.524</ele>
        <time>2021-07-17T16:32:20Z</time>
      </trkpt>
      <trkpt lat="37.04033" lon="-3.01802">
        <ele>1656.427</ele>
        <time>2021-07-17T16:32:31Z</time>
      </trkpt>
      <trkpt lat="37.03928" lon="-3.01713">
        <ele>1646.966</ele>
        <time>2021-07-17T16:32:42Z</time>
      </trkpt>
      <trkpt lat="37.0385" lon="-3.01579">
        <ele>1644.206</ele>
        <time>2021-07-17T16:32:53Z</time>
      </trkpt>
      <trkpt lat="37.03917" lon="-3.01521">
        <ele>1645.804</ele>
        <time>2021-07-17T16:33:04Z</time>
      </trkpt>
      <trkpt lat="37.03993" lon="-3.0146">
        <ele>1640.215</ele>
        <time>2021-07-17T16:33:15Z</time>
      </trkpt>
      <trkpt lat="37.04003" lon="-3.01452">
        <ele>1636.781</ele>
        <time>2021-07-17T16:33:26Z</time>
      </trkpt>
      <trkpt lat="37.04003" lon="-3.01453">
        <ele>1630.32</ele>
        <time>2021-07-17T16:34:26Z</time>
      </trkpt>
      <trkpt lat="37.0401" lon="-3.01447">
        <ele>1631</ele>
        <time>2021-07-17T16:35:10Z</time>
      </trkpt>
      <trkpt lat="37.04126" lon="-3.01458">
        <ele>1626.451</ele>
        <time>2021-07-17T16:35:21Z</time>
      </trkpt>
      <trkpt lat="37.04261" lon="-3.01535">
        <ele>1615.825</ele>
        <time>2021-07-17T16:35:32Z</time>
      </trkpt>
      <trkpt lat="37.04415" lon="-3.01544">
        <ele>1597.599</ele>
        <time>2021-07-17T16:35:43Z</time>
      </trkpt>
      <trkpt lat="37.04566" lon="-3.01607">
        <ele>1580.338</ele>
        <time>2021-07-17T16:35:54Z</time>
      </trkpt>
      <trkpt lat="37.04684" lon="-3.01667">
        <ele>1595.132</ele>
        <time>2021-07-17T16:36:05Z</time>
      </trkpt>
      <trkpt lat="37.04836" lon="-3.01668">
        <ele>1590.21</ele>
        <time>2021-07-17T16:36:16Z</time>
      </trkpt>
      <trkpt lat="37.04959" lon="-3.01689">
        <ele>1575.635</ele>
        <time>2021-07-17T16:36:27Z</time>
      </trkpt>
      <trkpt lat="37.0502" lon="-3.01692">
        <ele>1578.836</ele>
        <time>2021-07-17T16:36:38Z</time>
      </trkpt>
      <trkpt lat="37.05183" lon="-3.01705">
        <ele>1594.415</ele>
        <time>2021-07-17T16:36:49Z</time>
      </trkpt>
      <trkpt lat="37.05375" lon="-3.01664">
        <ele>1608.152</ele>
        <time>2021-07-17T16:37:00Z</time>
      </trkpt>
      <trkpt lat="37.05598" lon="-3.01678">
        <ele>1629.174</ele>
        <time>2021-07-17T16:37:11Z</time>
      </trkpt>
      <trkpt lat="37.05806" lon="-3.01678">
        <ele>1646.399</ele>
        <time>2021-07-17T16:37:22Z</time>
      </trkpt>
      <trkpt lat="37.05972" lon="-3.01754">
        <ele>1659.615</ele>
        <time>2021-07-17T16:37:33Z</time>
      </trkpt>
      <trkpt lat="37.06122" lon="-3.01789">
        <ele>1666.847</ele>
        <time>2021-07-17T16:37:44Z</time>
      </trkpt>
      <trkpt lat="37.06319" lon="-3.0173">
        <ele>1671.985</ele>
        <time>2021-07-17T16:37:55Z</time>
      </trkpt>
      <trkpt lat="37.06485" lon="-3.01712">
        <ele>1678.444</ele>
        <time>2021-07-17T16:38:06Z</time>
      </trkpt>
      <trkpt lat="37.06656" lon="-3.01707">
        <ele>1680.699</ele>
        <time>2021-07-17T16:38:17Z</time>
      </trkpt>
      <trkpt lat="37.0686" lon="-3.01738">
        <ele>1697.207</ele>
        <time>2021-07-17T16:38:28Z</time>
      </trkpt>
      <trkpt lat="37.07076" lon="-3.01768">
        <ele>1707.329</ele>
        <time>2021-07-17T16:38:39Z</time>
      </trkpt>
      <trkpt lat="37.07239" lon="-3.01862">
        <ele>1712.477</ele>
        <time>2021-07-17T16:38:50Z</time>
      </trkpt>
      <trkpt lat="37.07329" lon="-3.02027">
        <ele>1720.01</ele>
        <time>2021-07-17T16:39:01Z</time>
      </trkpt>
      <trkpt lat="37.07415" lon="-3.02066">
        <ele>1730.205</ele>
        <time>2021-07-17T16:39:12Z</time>
      </trkpt>
      <trkpt lat="37.07603" lon="-3.02114">
        <ele>1745.471</ele>
        <time>2021-07-17T16:39:23Z</time>
      </trkpt>
      <trkpt lat="37.07737" lon="-3.0216">
        <ele>1755.16</ele>
        <time>2021-07-17T16:39:34Z</time>
      </trkpt>
      <trkpt lat="37.07821" lon="-3.02225">
        <ele>1764.375</ele>
        <time>2021-07-17T16:39:45Z</time>
      </trkpt>
      <trkpt lat="37.07979" lon="-3.02235">
        <ele>1772.286</ele>
        <time>2021-07-17T16:39:56Z</time>
      </trkpt>
      <trkpt lat="37.08196" lon="-3.02281">
        <ele>1785.994</ele>
        <time>2021-07-17T16:40:07Z</time>
      </trkpt>
      <trkpt lat="37.08388" lon="-3.0236">
        <ele>1800.729</ele>
        <time>2021-07-17T16:40:18Z</time>
      </trkpt>
      <trkpt lat="37.08577" lon="-3.0247">
        <ele>1811.355</ele>
        <time>2021-07-17T16:40:29Z</time>
      </trkpt>
      <trkpt lat="37.0877" lon="-3.02502">
        <ele>1826.611</ele>
        <time>2021-07-17T16:40:40Z</time>
      </trkpt>
      <trkpt lat="37.08923" lon="-3.02692">
        <ele>1847.566</ele>
        <time>2021-07-17T16:40:51Z</time>
      </trkpt>
      <trkpt lat="37.09038" lon="-3.02867">
        <ele>1863.048</ele>
        <time>2021-07-17T16:41:02Z</time>
      </trkpt>
      <trkpt lat="37.09086" lon="-3.02856">
        <ele>1877.91</ele>
        <time>2021-07-17T16:41:13Z</time>
      </trkpt>
      <trkpt lat="37.09045" lon="-3.0267">
        <ele>1890.027</ele>
        <time>2021-07-17T16:41:24Z</time>
      </trkpt>
      <trkpt lat="37.09136" lon="-3.02545">
        <ele>1903.616</ele>
        <time>2021-07-17T16:41:35Z</time>
      </trkpt>
      <trkpt lat="37.09273" lon="-3.02337">
        <ele>1923.495</ele>
        <time>2021-07-17T16:41:46Z</time>
      </trkpt>
      <trkpt lat="37.0948" lon="-3.02321">
        <ele>1938.038</ele>
        <time>2021-07-17T16:41:57Z</time>
      </trkpt>
      <trkpt lat="37.09693" lon="-3.02375">
        <ele>1954.684</ele>
        <time>2021-07-17T16:42:08Z</time>
      </trkpt>
      <trkpt lat="37.09888" lon="-3.02271">
        <ele>1970.316</ele>
        <time>2021-07-17T16:42:19Z</time>
      </trkpt>
      <trkpt lat="37.10031" lon="-3.02359">
        <ele>1983.112</ele>
        <time>2021-07-17T16:42:30Z</time>
      </trkpt>
      <trkpt lat="37.10169" lon="-3.02517">
        <ele>1991.361</ele>
        <time>2021-07-17T16:42:41Z</time>
      </trkpt>
      <trkpt lat="37.10345" lon="-3.02629">
        <ele>2003.434</ele>
        <time>2021-07-17T16:42:52Z</time>
      </trkpt>
      <trkpt lat="37.10566" lon="-3.02605">
        <ele>2018.447</ele>
        <time>2021-07-17T16:43:03Z</time>
      </trkpt>
      <trkpt lat="37.10788" lon="-3.02707">
        <ele>2032.547</ele>
        <time>2021-07-17T16:43:14Z</time>
      </trkpt>
      <trkpt lat="37.10988" lon="-3.02831">
        <ele>2038.83</ele>
        <time>2021-07-17T16:43:25Z</time>
      </trkpt>
      <trkpt lat="37.11207" lon="-3.02931">
        <ele>2034.157</ele>
        <time>2021-07-17T16:43:36Z</time>
      </trkpt>
      <trkpt lat="37.11431" lon="-3.03025">
        <ele>2032.747</ele>
        <time>2021-07-17T16:43:47Z</time>
      </trkpt>
      <trkpt lat="37.11654" lon="-3.03139">
        <ele>2019.224</ele>
        <time>2021-07-17T16:43:58Z</time>
      </trkpt>
      <trkpt lat="37.1184" lon="-3.0323">
        <ele>2004.69</ele>
        <time>2021-07-17T16:44:09Z</time>
      </trkpt>
      <trkpt lat="37.11973" lon="-3.03302">
        <ele>1988.581</ele>
        <time>2021-07-17T16:44:20Z</time>
      </trkpt>
      <trkpt lat="37.12079" lon="-3.03394">
        <ele>1983.073</ele>
        <time>2021-07-17T16:44:31Z</time>
      </trkpt>
      <trkpt lat="37.12206" lon="-3.03431">
        <ele>1981.674</ele>
        <time>2021-07-17T16:44:42Z</time>
      </trkpt>
      <trkpt lat="37.12318" lon="-3.03537">
        <ele>1973.507</ele>
        <time>2021-07-17T16:44:53Z</time>
      </trkpt>
      <trkpt lat="37.12447" lon="-3.03704">
        <ele>1961.469</ele>
        <time>2021-07-17T16:45:04Z</time>
      </trkpt>
      <trkpt lat="37.12602" lon="-3.03746">
        <ele>1951.211</ele>
        <time>2021-07-17T16:45:15Z</time>
      </trkpt>
      <trkpt lat="37.12645" lon="-3.03929">
        <ele>1941.261</ele>
        <time>2021-07-17T16:45:26Z</time>
      </trkpt>
      <trkpt lat="37.12667" lon="-3.04135">
        <ele>1932.075</ele>
        <time>2021-07-17T16:45:37Z</time>
      </trkpt>
      <trkpt lat="37.12759" lon="-3.04219">
        <ele>1922.139</ele>
        <time>2021-07-17T16:45:48Z</time>
      </trkpt>
      <trkpt lat="37.12876" lon="-3.04271">
        <ele>1914.211</ele>
        <time>2021-07-17T16:45:59Z</time>
      </trkpt>
      <trkpt lat="37.13024" lon="-3.04367">
        <ele>1903.543</ele>
        <time>2021-07-17T16:46:10Z</time>
      </trkpt>
      <trkpt lat="37.13214" lon="-3.04325">
        <ele>1891.211</ele>
        <time>2021-07-17T16:46:21Z</time>
      </trkpt>
      <trkpt lat="37.13349" lon="-3.04212">
        <ele>1880.966</ele>
        <time>2021-07-17T16:46:32Z</time>
      </trkpt>
      <trkpt lat="37.13473" lon="-3.04234">
        <ele>1869.737</ele>
        <time>2021-07-17T16:46:43Z</time>
      </trkpt>
      <trkpt lat="37.13534" lon="-3.04402">
        <ele>1855.636</ele>
        <time>2021-07-17T16:46:54Z</time>
      </trkpt>
      <trkpt lat="37.13568" lon="-3.04555">
        <ele>1847.311</ele>
        <time>2021-07-17T16:47:05Z</time>
      </trkpt>
      <trkpt lat="37.13629" lon="-3.04619">
        <ele>1839.889</ele>
        <time>2021-07-17T16:47:16Z</time>
      </trkpt>
      <trkpt lat="37.13617" lon="-3.04583">
        <ele>1838.882</ele>
        <time>2021-07-17T16:47:27Z</time>
      </trkpt>
      <trkpt lat="37.13594" lon="-3.04477">
        <ele>1831.967</ele>
        <time>2021-07-17T16:47:38Z</time>
      </trkpt>
      <trkpt lat="37.13601" lon="-3.04313">
        <ele>1819.868</ele>
        <time>2021-07-17T16:47:49Z</time>
      </trkpt>
      <trkpt lat="37.13625" lon="-3.04142">
        <ele>1810.124</ele>
        <time>2021-07-17T16:48:00Z</time>
      </trkpt>
      <trkpt lat="37.13611" lon="-3.0408">
        <ele>1807.118</ele>
        <time>2021-07-17T16:48:11Z</time>
      </trkpt>
      <trkpt lat="37.13489" lon="-3.04066">
        <ele>1802.567</ele>
        <time>2021-07-17T16:48:22Z</time>
      </trkpt>
      <trkpt lat="37.13364" lon="-3.04022">
        <ele>1798.347</ele>
        <time>2021-07-17T16:48:33Z</time>
      </trkpt>
      <trkpt lat="37.13248" lon="-3.04085">
        <ele>1784.216</ele>
        <time>2021-07-17T16:48:44Z</time>
      </trkpt>
      <trkpt lat="37.13151" lon="-3.04105">
        <ele>1786.374</ele>
        <time>2021-07-17T16:48:55Z</time>
      </trkpt>
      <trkpt lat="37.13136" lon="-3.03998">
        <ele>1779.351</ele>
        <time>2021-07-17T16:49:06Z</time>
      </trkpt>
      <trkpt lat="37.1305" lon="-3.03928">
        <ele>1769.775</ele>
        <time>2021-07-17T16:49:17Z</time>
      </trkpt>
      <trkpt lat="37.12971" lon="-3.03903">
        <ele>1762.34</ele>
        <time>2021-07-17T16:49:28Z</time>
      </trkpt>
      <trkpt lat="37.13022" lon="-3.03756">
        <ele>1753.945</ele>
        <time>2021-07-17T16:49:39Z</time>
      </trkpt>
      <trkpt lat="37.13127" lon="-3.03666">
        <ele>1738.799</ele>
        <time>2021-07-17T16:49:50Z</time>
      </trkpt>
      <trkpt lat="37.13233" lon="-3.036">
        <ele>1735.032</ele>
        <time>2021-07-17T16:50:01Z</time>
      </trkpt>
      <trkpt lat="37.13308" lon="-3.03459">
        <ele>1728.362</ele>
        <time>2021-07-17T16:50:12Z</time>
      </trkpt>
      <trkpt lat="37.1342" lon="-3.03329">
        <ele>1715.971</ele>
        <time>2021-07-17T16:50:23Z</time>
      </trkpt>
      <trkpt lat="37.13467" lon="-3.03207">
        <ele>1711.748</ele>
        <time>2021-07-17T16:50:34Z</time>
      </trkpt>
      <trkpt lat="37.13352" lon="-3.03198">
        <ele>1705.612</ele>
        <time>2021-07-17T16:50:45Z</time>
      </trkpt>
      <trkpt lat="37.13245" lon="-3.0319">
        <ele>1697.458</ele>
        <time>2021-07-17T16:50:56Z</time>
      </trkpt>
      <trkpt lat="37.13149" lon="-3.03107">
        <ele>1692.782</ele>
        <time>2021-07-17T16:51:07Z</time>
      </trkpt>
      <trkpt lat="37.13059" lon="-3.02987">
        <ele>1676.885</ele>
        <time>2021-07-17T16:51:18Z</time>
      </trkpt>
      <trkpt lat="37.12965" lon="-3.03">
        <ele>1655.769</ele>
        <time>2021-07-17T16:51:29Z</time>
      </trkpt>
      <trkpt lat="37.13002" lon="-3.02889">
        <ele>1654.736</ele>
        <time>2021-07-17T16:51:40Z</time>
      </trkpt>
      <trkpt lat="37.12976" lon="-3.028">
        <ele>1667.438</ele>
        <time>2021-07-17T16:51:51Z</time>
      </trkpt>
      <trkpt lat="37.12881" lon="-3.02697">
        <ele>1686.814</ele>
        <time>2021-07-17T16:52:02Z</time>
      </trkpt>
      <trkpt lat="37.12904" lon="-3.02649">
        <ele>1690.99</ele>
        <time>2021-07-17T16:52:13Z</time>
      </trkpt>
      <trkpt lat="37.13021" lon="-3.02706">
        <ele>1692.28</ele>
        <time>2021-07-17T16:52:24Z</time>
      </trkpt>
      <trkpt lat="37.13146" lon="-3.02752">
        <ele>1699.193</ele>
        <time>2021-07-17T16:52:35Z</time>
      </trkpt>
      <trkpt lat="37.13233" lon="-3.02769">
        <ele>1701.12</ele>
        <time>2021-07-17T16:52:46Z</time>
      </trkpt>
      <trkpt lat="37.13277" lon="-3.02689">
        <ele>1711.694</ele>
        <time>2021-07-17T16:52:57Z</time>
      </trkpt>
      <trkpt lat="37.13355" lon="-3.02634">
        <ele>1724.407</ele>
        <time>2021-07-17T16:53:08Z</time>
      </trkpt>
      <trkpt lat="37.13463" lon="-3.02541">
        <ele>1734.545</ele>
        <time>2021-07-17T16:53:19Z</time>
      </trkpt>
      <trkpt lat="37.13476" lon="-3.02383">
        <ele>1745.12</ele>
        <time>2021-07-17T16:53:30Z</time>
      </trkpt>
      <trkpt lat="37.13369" lon="-3.02223">
        <ele>1751.617</ele>
        <time>2021-07-17T16:53:41Z</time>
      </trkpt>
      <trkpt lat="37.13412" lon="-3.02123">
        <ele>1751.071</ele>
        <time>2021-07-17T16:53:52Z</time>
      </trkpt>
      <trkpt lat="37.13464" lon="-3.01986">
        <ele>1752.414</ele>
        <time>2021-07-17T16:54:03Z</time>
      </trkpt>
      <trkpt lat="37.1352" lon="-3.01877">
        <ele>1757.19</ele>
        <time>2021-07-17T16:54:14Z</time>
      </trkpt>
      <trkpt lat="37.13677" lon="-3.01883">
        <ele>1761.583</ele>
        <time>2021-07-17T16:54:25Z</time>
      </trkpt>
      <trkpt lat="37.13798" lon="-3.01953">
        <ele>1777.211</ele>
        <time>2021-07-17T16:54:36Z</time>
      </trkpt>
      <trkpt lat="37.13884" lon="-3.02052">
        <ele>1791.139</ele>
        <time>2021-07-17T16:54:47Z</time>
      </trkpt>
      <trkpt lat="37.14028" lon="-3.02039">
        <ele>1796.898</ele>
        <time>2021-07-17T16:54:58Z</time>
      </trkpt>
      <trkpt lat="37.14084" lon="-3.02018">
        <ele>1796.194</ele>
        <time>2021-07-17T16:55:09Z</time>
      </trkpt>
      <trkpt lat="37.1408" lon="-3.0202">
        <ele>1796.552</ele>
        <time>2021-07-17T16:55:34Z</time>
      </trkpt>
      <trkpt lat="37.14086" lon="-3.02015">
        <ele>1797.372</ele>
        <time>2021-07-17T16:56:20Z</time>
      </trkpt>
      <trkpt lat="37.14208" lon="-3.01947">
        <ele>1799.227</ele>
        <time>2021-07-17T16:56:31Z</time>
      </trkpt>
      <trkpt lat="37.14278" lon="-3.01912">
        <ele>1804.992</ele>
        <time>2021-07-17T16:56:43Z</time>
      </trkpt>
      <trkpt lat="37.14271" lon="-3.01735">
        <ele>1801.053</ele>
        <time>2021-07-17T16:56:54Z</time>
      </trkpt>
      <trkpt lat="37.14272" lon="-3.01675">
        <ele>1804.658</ele>
        <time>2021-07-17T16:57:05Z</time>
      </trkpt>
      <trkpt lat="37.14274" lon="-3.01677">
        <ele>1805.219</ele>
        <time>2021-07-17T16:58:05Z</time>
      </trkpt>
      <trkpt lat="37.14269" lon="-3.01671">
        <ele>1806.538</ele>
        <time>2021-07-17T16:58:40Z</time>
      </trkpt>
      <trkpt lat="37.14185" lon="-3.01684">
        <ele>1804.38</ele>
        <time>2021-07-17T16:58:51Z</time>
      </trkpt>
      <trkpt lat="37.14104" lon="-3.0161">
        <ele>1798.86</ele>
        <time>2021-07-17T16:59:02Z</time>
      </trkpt>
      <trkpt lat="37.14054" lon="-3.01474">
        <ele>1788.645</ele>
        <time>2021-07-17T16:59:13Z</time>
      </trkpt>
      <trkpt lat="37.13978" lon="-3.01462">
        <ele>1792.801</ele>
        <time>2021-07-17T16:59:24Z</time>
      </trkpt>
      <trkpt lat="37.13877" lon="-3.01539">
        <ele>1797.979</ele>
        <time>2021-07-17T16:59:35Z</time>
      </trkpt>
      <trkpt lat="37.13758" lon="-3.01521">
        <ele>1792.323</ele>
        <time>2021-07-17T16:59:46Z</time>
      </trkpt>
      <trkpt lat="37.13679" lon="-3.01418">
        <ele>1777.275</ele>
        <time>2021-07-17T16:59:57Z</time>
      </trkpt>
      <trkpt lat="37.13634" lon="-3.01254">
        <ele>1764.647</ele>
        <time>2021-07-17T17:00:08Z</time>
      </trkpt>
      <trkpt lat="37.13534" lon="-3.01155">
        <ele>1755.288</ele>
        <time>2021-07-17T17:00:19Z</time>
      </trkpt>
      <trkpt lat="37.13435" lon="-3.01022">
        <ele>1748.952</ele>
        <time>2021-07-17T17:00:30Z</time>
      </trkpt>
      <trkpt lat="37.13389" lon="-3.00841">
        <ele>1746.41</ele>
        <time>2021-07-17T17:00:41Z</time>
      </trkpt>
      <trkpt lat="37.13308" lon="-3.0078">
        <ele>1734.011</ele>
        <time>2021-07-17T17:00:52Z</time>
      </trkpt>
      <trkpt lat="37.13238" lon="-3.00679">
        <ele>1720.29</ele>
        <time>2021-07-17T17:01:03Z</time>
      </trkpt>
      <trkpt lat="37.13142" lon="-3.00559">
        <ele>1719.473</ele>
        <time>2021-07-17T17:01:14Z</time>
      </trkpt>
      <trkpt lat="37.13065" lon="-3.00453">
        <ele>1716.543</ele>
        <time>2021-07-17T17:01:25Z</time>
      </trkpt>
      <trkpt lat="37.13006" lon="-3.00368">
        <ele>1716.686</ele>
        <time>2021-07-17T17:01:36Z</time>
      </trkpt>
      <trkpt lat="37.12901" lon="-3.00265">
        <ele>1710.457</ele>
        <time>2021-07-17T17:01:47Z</time>
      </trkpt>
      <trkpt lat="37.1279" lon="-3.00148">
        <ele>1712.819</ele>
        <time>2021-07-17T17:01:58Z</time>
      </trkpt>
      <trkpt lat="37.12715" lon="-3.00025">
        <ele>1706.616</ele>
        <time>2021-07-17T17:02:09Z</time>
      </trkpt>
      <trkpt lat="37.12679" lon="-2.99999">
        <ele>1696.157</ele>
        <time>2021-07-17T17:02:20Z</time>
      </trkpt>
      <trkpt lat="37.12726" lon="-2.99972">
        <ele>1696.126</ele>
        <time>2021-07-17T17:02:31Z</time>
      </trkpt>
      <trkpt lat="37.12841" lon="-3.00042">
        <ele>1696.614</ele>
        <time>2021-07-17T17:02:42Z</time>
      </trkpt>
      <trkpt lat="37.12979" lon="-3.00058">
        <ele>1702.681</ele>
        <time>2021-07-17T17:02:53Z</time>
      </trkpt>
      <trkpt lat="37.13118" lon="-2.99997">
        <ele>1713.578</ele>
        <time>2021-07-17T17:03:04Z</time>
      </trkpt>
      <trkpt lat="37.13227" lon="-3.00063">
        <ele>1705.044</ele>
        <time>2021-07-17T17:03:15Z</time>
      </trkpt>
      <trkpt lat="37.13361" lon="-3.00074">
        <ele>1726.477</ele>
        <time>2021-07-17T17:03:26Z</time>
      </trkpt>
      <trkpt lat="37.13488" lon="-3.00046">
        <ele>1732.354</ele>
        <time>2021-07-17T17:03:37Z</time>
      </trkpt>
      <trkpt lat="37.13648" lon="-3.00042">
        <ele>1753.685</ele>
        <time>2021-07-17T17:03:48Z</time>
      </trkpt>
      <trkpt lat="37.13788" lon="-2.99951">
        <ele>1767.312</ele>
        <time>2021-07-17T17:03:59Z</time>
      </trkpt>
      <trkpt lat="37.13911" lon="-2.99841">
        <ele>1781.049</ele>
        <time>2021-07-17T17:04:10Z</time>
      </trkpt>
      <trkpt lat="37.13941" lon="-2.99775">
        <ele>1793.359</ele>
        <time>2021-07-17T17:04:21Z</time>
      </trkpt>
      <trkpt lat="37.13993" lon="-2.99705">
        <ele>1816.693</ele>
        <time>2021-07-17T17:04:32Z</time>
      </trkpt>
      <trkpt lat="37.1413" lon="-2.99663">
        <ele>1803.65</ele>
        <time>2021-07-17T17:04:43Z</time>
      </trkpt>
      <trkpt lat="37.14233" lon="-2.99516">
        <ele>1808.781</ele>
        <time>2021-07-17T17:04:54Z</time>
      </trkpt>
      <trkpt lat="37.14279" lon="-2.99296">
        <ele>1818.784</ele>
        <time>2021-07-17T17:05:05Z</time>
      </trkpt>
      <trkpt lat="37.14239" lon="-2.99129">
        <ele>1827.546</ele>
        <time>2021-07-17T17:05:16Z</time>
      </trkpt>
      <trkpt lat="37.1417" lon="-2.9902">
        <ele>1819.063</ele>
        <time>2021-07-17T17:05:27Z</time>
      </trkpt>
      <trkpt lat="37.14115" lon="-2.98876">
        <ele>1811.649</ele>
        <time>2021-07-17T17:05:38Z</time>
      </trkpt>
      <trkpt lat="37.14129" lon="-2.98648">
        <ele>1799.008</ele>
        <time>2021-07-17T17:05:49Z</time>
      </trkpt>
      <trkpt lat="37.14114" lon="-2.98425">
        <ele>1783.556</ele>
        <time>2021-07-17T17:06:00Z</time>
      </trkpt>
      <trkpt lat="37.14071" lon="-2.98263">
        <ele>1774.741</ele>
        <time>2021-07-17T17:06:11Z</time>
      </trkpt>
      <trkpt lat="37.1394" lon="-2.98192">
        <ele>1769.252</ele>
        <time>2021-07-17T17:06:22Z</time>
      </trkpt>
      <trkpt lat="37.13878" lon="-2.98206">
        <ele>1763.954</ele>
        <time>2021-07-17T17:06:33Z</time>
      </trkpt>
      <trkpt lat="37.13815" lon="-2.98353">
        <ele>1757.448</ele>
        <time>2021-07-17T17:06:44Z</time>
      </trkpt>
      <trkpt lat="37.1375" lon="-2.98477">
        <ele>1751.18</ele>
        <time>2021-07-17T17:06:55Z</time>
      </trkpt>
      <trkpt lat="37.13704" lon="-2.98426">
        <ele>1738.168</ele>
        <time>2021-07-17T17:07:06Z</time>
      </trkpt>
      <trkpt lat="37.13676" lon="-2.98263">
        <ele>1729.834</ele>
        <time>2021-07-17T17:07:17Z</time>
      </trkpt>
      <trkpt lat="37.13665" lon="-2.98114">
        <ele>1713.764</ele>
        <time>2021-07-17T17:07:28Z</time>
      </trkpt>
      <trkpt lat="37.1359" lon="-2.97957">
        <ele>1701.59</ele>
        <time>2021-07-17T17:07:39Z</time>
      </trkpt>
      <trkpt lat="37.13556" lon="-2.97809">
        <ele>1686.322</ele>
        <time>2021-07-17T17:07:50Z</time>
      </trkpt>
      <trkpt lat="37.13525" lon="-2.97665">
        <ele>1674.661</ele>
        <time>2021-07-17T17:08:01Z</time>
      </trkpt>
      <trkpt lat="37.13407" lon="-2.97538">
        <ele>1668.187</ele>
        <time>2021-07-17T17:08:12Z</time>
      </trkpt>
      <trkpt lat="37.133" lon="-2.97457">
        <ele>1670.001</ele>
        <time>2021-07-17T17:08:23Z</time>
      </trkpt>
      <trkpt lat="37.13335" lon="-2.97439">
        <ele>1666.167</ele>
        <time>2021-07-17T17:08:34Z</time>
      </trkpt>
      <trkpt lat="37.13449" lon="-2.97489">
        <ele>1657.321</ele>
        <time>2021-07-17T17:08:45Z</time>
      </trkpt>
      <trkpt lat="37.13593" lon="-2.97559">
        <ele>1637.938</ele>
        <time>2021-07-17T17:08:56Z</time>
      </trkpt>
      <trkpt lat="37.13675" lon="-2.97671">
        <ele>1626.959</ele>
        <time>2021-07-17T17:09:07Z</time>
      </trkpt>
      <trkpt lat="37.13705" lon="-2.97723">
        <ele>1616.008</ele>
        <time>2021-07-17T17:09:18Z</time>
      </trkpt>
      <trkpt lat="37.13784" lon="-2.97675">
        <ele>1614.667</ele>
        <time>2021-07-17T17:09:29Z</time>
      </trkpt>
      <trkpt lat="37.13809" lon="-2.97559">
        <ele>1606.183</ele>
        <time>2021-07-17T17:09:40Z</time>
      </trkpt>
      <trkpt lat="37.13745" lon="-2.9741">
        <ele>1595.932</ele>
        <time>2021-07-17T17:09:51Z</time>
      </trkpt>
      <trkpt lat="37.13651" lon="-2.97277">
        <ele>1589.512</ele>
        <time>2021-07-17T17:10:02Z</time>
      </trkpt>
      <trkpt lat="37.13629" lon="-2.97104">
        <ele>1585.98</ele>
        <time>2021-07-17T17:10:13Z</time>
      </trkpt>
      <trkpt lat="37.13584" lon="-2.97001">
        <ele>1570.486</ele>
        <time>2021-07-17T17:10:24Z</time>
      </trkpt>
      <trkpt lat="37.13553" lon="-2.96876">
        <ele>1551.517</ele>
        <time>2021-07-17T17:10:35Z</time>
      </trkpt>
      <trkpt lat="37.13581" lon="-2.96748">
        <ele>1531.203</ele>
        <time>2021-07-17T17:10:46Z</time>
      </trkpt>
      <trkpt lat="37.1363" lon="-2.96668">
        <ele>1529.231</ele>
        <time>2021-07-17T17:10:57Z</time>
      </trkpt>
      <trkpt lat="37.13732" lon="-2.96713">
        <ele>1524.516</ele>
        <time>2021-07-17T17:11:08Z</time>
      </trkpt>
      <trkpt lat="37.13788" lon="-2.96617">
        <ele>1515.254</ele>
        <time>2021-07-17T17:11:19Z</time>
      </trkpt>
      <trkpt lat="37.13814" lon="-2.96434">
        <ele>1501.89</ele>
        <time>2021-07-17T17:11:30Z</time>
      </trkpt>
      <trkpt lat="37.13909" lon="-2.96433">
        <ele>1496.513</ele>
        <time>2021-07-17T17:11:41Z</time>
      </trkpt>
      <trkpt lat="37.14018" lon="-2.96383">
        <ele>1461.749</ele>
        <time>2021-07-17T17:11:52Z</time>
      </trkpt>
      <trkpt lat="37.14129" lon="-2.96264">
        <ele>1468.385</ele>
        <time>2021-07-17T17:12:03Z</time>
      </trkpt>
      <trkpt lat="37.1417" lon="-2.96359">
        <ele>1460.261</ele>
        <time>2021-07-17T17:12:14Z</time>
      </trkpt>
      <trkpt lat="37.14164" lon="-2.96513">
        <ele>1453.618</ele>
        <time>2021-07-17T17:12:25Z</time>
      </trkpt>
      <trkpt lat="37.1425" lon="-2.96618">
        <ele>1444.449</ele>
        <time>2021-07-17T17:12:36Z</time>
      </trkpt>
      <trkpt lat="37.14264" lon="-2.96767">
        <ele>1440.68</ele>
        <time>2021-07-17T17:12:47Z</time>
      </trkpt>
      <trkpt lat="37.14318" lon="-2.96729">
        <ele>1437.607</ele>
        <time>2021-07-17T17:12:58Z</time>
      </trkpt>
      <trkpt lat="37.1438" lon="-2.96615">
        <ele>1426.764</ele>
        <time>2021-07-17T17:13:09Z</time>
      </trkpt>
      <trkpt lat="37.14364" lon="-2.96517">
        <ele>1419.537</ele>
        <time>2021-07-17T17:13:20Z</time>
      </trkpt>
      <trkpt lat="37.14384" lon="-2.9635">
        <ele>1414.01</ele>
        <time>2021-07-17T17:13:31Z</time>
      </trkpt>
      <trkpt lat="37.14438" lon="-2.9619">
        <ele>1404.641</ele>
        <time>2021-07-17T17:13:42Z</time>
      </trkpt>
      <trkpt lat="37.14444" lon="-2.96024">
        <ele>1395.13</ele>
        <time>2021-07-17T17:13:53Z</time>
      </trkpt>
      <trkpt lat="37.14478" lon="-2.95864">
        <ele>1387.279</ele>
        <time>2021-07-17T17:14:04Z</time>
      </trkpt>
      <trkpt lat="37.14583" lon="-2.9574">
        <ele>1375.081</ele>
        <time>2021-07-17T17:14:15Z</time>
      </trkpt>
      <trkpt lat="37.14703" lon="-2.9572">
        <ele>1365.632</ele>
        <time>2021-07-17T17:14:26Z</time>
      </trkpt>
      <trkpt lat="37.14773" lon="-2.956">
        <ele>1356.53</ele>
        <time>2021-07-17T17:14:37Z</time>
      </trkpt>
      <trkpt lat="37.14892" lon="-2.95563">
        <ele>1348.584</ele>
        <time>2021-07-17T17:14:48Z</time>
      </trkpt>
      <trkpt lat="37.14978" lon="-2.95435">
        <ele>1336.172</ele>
        <time>2021-07-17T17:14:59Z</time>
      </trkpt>
      <trkpt lat="37.15106" lon="-2.95516">
        <ele>1324.563</ele>
        <time>2021-07-17T17:15:10Z</time>
      </trkpt>
      <trkpt lat="37.1518" lon="-2.95603">
        <ele>1313.702</ele>
        <time>2021-07-17T17:15:21Z</time>
      </trkpt>
      <trkpt lat="37.15261" lon="-2.95489">
        <ele>1292.395</ele>
        <time>2021-07-17T17:15:32Z</time>
      </trkpt>
      <trkpt lat="37.15267" lon="-2.95392">
        <ele>1280.136</ele>
        <time>2021-07-17T17:15:43Z</time>
      </trkpt>
      <trkpt lat="37.15348" lon="-2.95358">
        <ele>1265.329</ele>
        <time>2021-07-17T17:15:54Z</time>
      </trkpt>
      <trkpt lat="37.1551" lon="-2.95338">
        <ele>1257.329</ele>
        <time>2021-07-17T17:16:05Z</time>
      </trkpt>
      <trkpt lat="37.15649" lon="-2.9538">
        <ele>1247.129</ele>
        <time>2021-07-17T17:16:16Z</time>
      </trkpt>
      <trkpt lat="37.15767" lon="-2.95411">
        <ele>1233.687</ele>
        <time>2021-07-17T17:16:27Z</time>
      </trkpt>
      <trkpt lat="37.1587" lon="-2.95373">
        <ele>1232.278</ele>
        <time>2021-07-17T17:16:38Z</time>
      </trkpt>
      <trkpt lat="37.16047" lon="-2.95319">
        <ele>1232.879</ele>
        <time>2021-07-17T17:16:49Z</time>
      </trkpt>
      <trkpt lat="37.16192" lon="-2.95237">
        <ele>1228.933</ele>
        <time>2021-07-17T17:17:00Z</time>
      </trkpt>
      <trkpt lat="37.1628" lon="-2.95169">
        <ele>1224.24</ele>
        <time>2021-07-17T17:17:11Z</time>
      </trkpt>
      <trkpt lat="37.16357" lon="-2.95128">
        <ele>1226.164</ele>
        <time>2021-07-17T17:17:22Z</time>
      </trkpt>
      <trkpt lat="37.16468" lon="-2.95096">
        <ele>1222.139</ele>
        <time>2021-07-17T17:17:33Z</time>
      </trkpt>
      <trkpt lat="37.16619" lon="-2.95053">
        <ele>1223.083</ele>
        <time>2021-07-17T17:17:44Z</time>
      </trkpt>
      <trkpt lat="37.16725" lon="-2.95033">
        <ele>1226.743</ele>
        <time>2021-07-17T17:17:55Z</time>
      </trkpt>
      <trkpt lat="37.16787" lon="-2.94921">
        <ele>1218.059</ele>
        <time>2021-07-17T17:18:06Z</time>
      </trkpt>
      <trkpt lat="37.16846" lon="-2.94992">
        <ele>1217.723</ele>
        <time>2021-07-17T17:18:17Z</time>
      </trkpt>
      <trkpt lat="37.16996" lon="-2.95002">
        <ele>1208.417</ele>
        <time>2021-07-17T17:18:28Z</time>
      </trkpt>
      <trkpt lat="37.17063" lon="-2.94934">
        <ele>1204.881</ele>
        <time>2021-07-17T17:18:39Z</time>
      </trkpt>
      <trkpt lat="37.17127" lon="-2.94967">
        <ele>1201.22</ele>
        <time>2021-07-17T17:18:50Z</time>
      </trkpt>
      <trkpt lat="37.17046" lon="-2.9507">
        <ele>1198.947</ele>
        <time>2021-07-17T17:19:01Z</time>
      </trkpt>
      <trkpt lat="37.16934" lon="-2.95145">
        <ele>1193.23</ele>
        <time>2021-07-17T17:19:12Z</time>
      </trkpt>
      <trkpt lat="37.17021" lon="-2.95276">
        <ele>1188.814</ele>
        <time>2021-07-17T17:19:23Z</time>
      </trkpt>
      <trkpt lat="37.17196" lon="-2.9527">
        <ele>1182.95</ele>
        <time>2021-07-17T17:19:34Z</time>
      </trkpt>
      <trkpt lat="37.1735" lon="-2.95259">
        <ele>1180.89</ele>
        <time>2021-07-17T17:19:45Z</time>
      </trkpt>
      <trkpt lat="37.17497" lon="-2.95249">
        <ele>1179.363</ele>
        <time>2021-07-17T17:19:56Z</time>
      </trkpt>
      <trkpt lat="37.17631" lon="-2.95302">
        <ele>1181.16</ele>
        <time>2021-07-17T17:20:07Z</time>
      </trkpt>
      <trkpt lat="37.17724" lon="-2.95341">
        <ele>1185.217</ele>
        <time>2021-07-17T17:20:18Z</time>
      </trkpt>
      <trkpt lat="37.17646" lon="-2.95314">
        <ele>1185.158</ele>
        <time>2021-07-17T17:20:29Z</time>
      </trkpt>
      <trkpt lat="37.17634" lon="-2.95247">
        <ele>1183.458</ele>
        <time>2021-07-17T17:20:40Z</time>
      </trkpt>
      <trkpt lat="37.17639" lon="-2.95175">
        <ele>1183.416</ele>
        <time>2021-07-17T17:20:51Z</time>
      </trkpt>
      <trkpt lat="37.17586" lon="-2.95143">
        <ele>1169.606</ele>
        <time>2021-07-17T17:21:02Z</time>
      </trkpt>
      <trkpt lat="37.17629" lon="-2.95114">
        <ele>1176.271</ele>
        <time>2021-07-17T17:21:13Z</time>
      </trkpt>
      <trkpt lat="37.17622" lon="-2.9507">
        <ele>1173.753</ele>
        <time>2021-07-17T17:21:24Z</time>
      </trkpt>
      <trkpt lat="37.17649" lon="-2.95041">
        <ele>1174.641</ele>
        <time>2021-07-17T17:21:35Z</time>
      </trkpt>
      <trkpt lat="37.17705" lon="-2.95039">
        <ele>1173.259</ele>
        <time>2021-07-17T17:21:46Z</time>
      </trkpt>
      <trkpt lat="37.17725" lon="-2.95">
        <ele>1173.147</ele>
        <time>2021-07-17T17:21:57Z</time>
      </trkpt>
      <trkpt lat="37.17753" lon="-2.94977">
        <ele>1172.637</ele>
        <time>2021-07-17T17:22:08Z</time>
      </trkpt>
      <trkpt lat="37.17774" lon="-2.94976">
        <ele>1169.657</ele>
        <time>2021-07-17T17:22:19Z</time>
      </trkpt>
      <trkpt lat="37.1783" lon="-2.95026">
        <ele>1174.636</ele>
        <time>2021-07-17T17:22:30Z</time>
      </trkpt>
      <trkpt lat="37.17863" lon="-2.95096">
        <ele>1184.649</ele>
        <time>2021-07-17T17:22:41Z</time>
      </trkpt>
      <trkpt lat="37.17945" lon="-2.95051">
        <ele>1183.302</ele>
        <time>2021-07-17T17:22:52Z</time>
      </trkpt>
      <trkpt lat="37.18065" lon="-2.94953">
        <ele>1179.37</ele>
        <time>2021-07-17T17:23:03Z</time>
      </trkpt>
      <trkpt lat="37.18129" lon="-2.94778">
        <ele>1172.754</ele>
        <time>2021-07-17T17:23:14Z</time>
      </trkpt>
      <trkpt lat="37.18126" lon="-2.94661">
        <ele>1169.691</ele>
        <time>2021-07-17T17:23:25Z</time>
      </trkpt>
      <trkpt lat="37.18165" lon="-2.94527">
        <ele>1167.257</ele>
        <time>2021-07-17T17:23:36Z</time>
      </trkpt>
      <trkpt lat="37.18201" lon="-2.94443">
        <ele>1165.174</ele>
        <time>2021-07-17T17:23:47Z</time>
      </trkpt>
      <trkpt lat="37.18201" lon="-2.94441">
        <ele>1161.218</ele>
        <time>2021-07-17T17:24:46Z</time>
      </trkpt>
      <trkpt lat="37.182" lon="-2.94441">
        <ele>1162.793</ele>
        <time>2021-07-17T17:25:46Z</time>
      </trkpt>
      <trkpt lat="37.182" lon="-2.94439">
        <ele>1165.298</ele>
        <time>2021-07-17T17:26:46Z</time>
      </trkpt>
      <trkpt lat="37.18201" lon="-2.94438">
        <ele>1163.576</ele>
        <time>2021-07-17T17:27:45Z</time>
      </trkpt>
      <trkpt lat="37.182" lon="-2.94441">
        <ele>1163.845</ele>
        <time>2021-07-17T17:28:44Z</time>
      </trkpt>
      <trkpt lat="37.182" lon="-2.94441">
        <ele>1164.312</ele>
        <time>2021-07-17T17:29:43Z</time>
      </trkpt>
      <trkpt lat="37.18198" lon="-2.94441">
        <ele>1163.097</ele>
        <time>2021-07-17T17:30:43Z</time>
      </trkpt>
      <trkpt lat="37.18202" lon="-2.94442">
        <ele>1162.22</ele>
        <time>2021-07-17T17:31:37Z</time>
      </trkpt>
      <trkpt lat="37.18201" lon="-2.94442">
        <ele>1163.514</ele>
        <time>2021-07-17T17:32:35Z</time>
      </trkpt>
      <trkpt lat="37.18199" lon="-2.94442">
        <ele>1164.764</ele>
        <time>2021-07-17T17:33:34Z</time>
      </trkpt>
      <trkpt lat="37.18198" lon="-2.94441">
        <ele>1168.864</ele>
        <time>2021-07-17T17:34:33Z</time>
      </trkpt>
      <trkpt lat="37.18199" lon="-2.94441">
        <ele>1162.647</ele>
        <time>2021-07-17T17:35:32Z</time>
      </trkpt>
      <trkpt lat="37.18199" lon="-2.94441">
        <ele>1162.623</ele>
        <time>2021-07-17T17:36:31Z</time>
      </trkpt>
      <trkpt lat="37.18195" lon="-2.9444">
        <ele>1162.669</ele>
        <time>2021-07-17T17:37:17Z</time>
      </trkpt>
      <trkpt lat="37.18192" lon="-2.94435">
        <ele>1164.242</ele>
        <time>2021-07-17T17:37:40Z</time>
      </trkpt>
      <trkpt lat="37.18219" lon="-2.94308">
        <ele>1164.24</ele>
        <time>2021-07-17T17:37:51Z</time>
      </trkpt>
      <trkpt lat="37.18271" lon="-2.94169">
        <ele>1159.605</ele>
        <time>2021-07-17T17:38:02Z</time>
      </trkpt>
      <trkpt lat="37.18329" lon="-2.94028">
        <ele>1158.463</ele>
        <time>2021-07-17T17:38:13Z</time>
      </trkpt>
      <trkpt lat="37.18371" lon="-2.93836">
        <ele>1148.187</ele>
        <time>2021-07-17T17:38:24Z</time>
      </trkpt>
      <trkpt lat="37.18408" lon="-2.93619">
        <ele>1142.318</ele>
        <time>2021-07-17T17:38:35Z</time>
      </trkpt>
      <trkpt lat="37.18509" lon="-2.93427">
        <ele>1138.692</ele>
        <time>2021-07-17T17:38:46Z</time>
      </trkpt>
      <trkpt lat="37.18537" lon="-2.9319">
        <ele>1132.756</ele>
        <time>2021-07-17T17:38:57Z</time>
      </trkpt>
      <trkpt lat="37.18534" lon="-2.92953">
        <ele>1127.465</ele>
        <time>2021-07-17T17:39:08Z</time>
      </trkpt>
      <trkpt lat="37.18615" lon="-2.92738">
        <ele>1123.647</ele>
        <time>2021-07-17T17:39:19Z</time>
      </trkpt>
      <trkpt lat="37.18714" lon="-2.92471">
        <ele>1117.361</ele>
        <time>2021-07-17T17:39:30Z</time>
      </trkpt>
      <trkpt lat="37.18803" lon="-2.92174">
        <ele>1107.787</ele>
        <time>2021-07-17T17:39:41Z</time>
      </trkpt>
      <trkpt lat="37.18853" lon="-2.91867">
        <ele>1104.11</ele>
        <time>2021-07-17T17:39:52Z</time>
      </trkpt>
      <trkpt lat="37.18886" lon="-2.9157">
        <ele>1099.819</ele>
        <time>2021-07-17T17:40:03Z</time>
      </trkpt>
      <trkpt lat="37.18948" lon="-2.9131">
        <ele>1096.131</ele>
        <time>2021-07-17T17:40:14Z</time>
      </trkpt>
      <trkpt lat="37.19001" lon="-2.91049">
        <ele>1086.563</ele>
        <time>2021-07-17T17:40:25Z</time>
      </trkpt>
      <trkpt lat="37.18976" lon="-2.90792">
        <ele>1067.287</ele>
        <time>2021-07-17T17:40:36Z</time>
      </trkpt>
      <trkpt lat="37.18939" lon="-2.90517">
        <ele>1050.253</ele>
        <time>2021-07-17T17:40:47Z</time>
      </trkpt>
      <trkpt lat="37.18892" lon="-2.90239">
        <ele>1041.851</ele>
        <time>2021-07-17T17:40:58Z</time>
      </trkpt>
      <trkpt lat="37.18912" lon="-2.89985">
        <ele>1032.091</ele>
        <time>2021-07-17T17:41:09Z</time>
      </trkpt>
      <trkpt lat="37.18937" lon="-2.89822">
        <ele>1029.208</ele>
        <time>2021-07-17T17:41:20Z</time>
      </trkpt>
      <trkpt lat="37.18969" lon="-2.8971">
        <ele>1029.046</ele>
        <time>2021-07-17T17:41:31Z</time>
      </trkpt>
      <trkpt lat="37.19019" lon="-2.8962">
        <ele>1024.928</ele>
        <time>2021-07-17T17:41:42Z</time>
      </trkpt>
      <trkpt lat="37.19003" lon="-2.89559">
        <ele>1019.314</ele>
        <time>2021-07-17T17:41:53Z</time>
      </trkpt>
      <trkpt lat="37.19039" lon="-2.89434">
        <ele>1018.817</ele>
        <time>2021-07-17T17:42:04Z</time>
      </trkpt>
      <trkpt lat="37.19072" lon="-2.89333">
        <ele>1015.373</ele>
        <time>2021-07-17T17:42:15Z</time>
      </trkpt>
      <trkpt lat="37.19023" lon="-2.89248">
        <ele>1015.445</ele>
        <time>2021-07-17T17:42:26Z</time>
      </trkpt>
      <trkpt lat="37.18956" lon="-2.89168">
        <ele>1014.062</ele>
        <time>2021-07-17T17:42:37Z</time>
      </trkpt>
      <trkpt lat="37.18903" lon="-2.89081">
        <ele>1014.224</ele>
        <time>2021-07-17T17:42:48Z</time>
      </trkpt>
      <trkpt lat="37.18852" lon="-2.89001">
        <ele>1011.404</ele>
        <time>2021-07-17T17:42:59Z</time>
      </trkpt>
      <trkpt lat="37.18851" lon="-2.88899">
        <ele>1007.955</ele>
        <time>2021-07-17T17:43:10Z</time>
      </trkpt>
      <trkpt lat="37.18859" lon="-2.88813">
        <ele>1006.039</ele>
        <time>2021-07-17T17:43:21Z</time>
      </trkpt>
      <trkpt lat="37.18854" lon="-2.88697">
        <ele>997.4307</ele>
        <time>2021-07-17T17:43:32Z</time>
      </trkpt>
      <trkpt lat="37.18846" lon="-2.88592">
        <ele>994.3101</ele>
        <time>2021-07-17T17:43:43Z</time>
      </trkpt>
      <trkpt lat="37.18844" lon="-2.88581">
        <ele>999.2672</ele>
        <time>2021-07-17T17:43:54Z</time>
      </trkpt>
      <trkpt lat="37.18829" lon="-2.88536">
        <ele>1014.243</ele>
        <time>2021-07-17T17:44:05Z</time>
      </trkpt>
      <trkpt lat="37.18814" lon="-2.88474">
        <ele>1012.348</ele>
        <time>2021-07-17T17:44:16Z</time>
      </trkpt>
      <trkpt lat="37.188" lon="-2.88401">
        <ele>1006.939</ele>
        <time>2021-07-17T17:44:27Z</time>
      </trkpt>
      <trkpt lat="37.18791" lon="-2.88326">
        <ele>998.6161</ele>
        <time>2021-07-17T17:44:38Z</time>
      </trkpt>
      <trkpt lat="37.18784" lon="-2.88285">
        <ele>996.3152</ele>
        <time>2021-07-17T17:44:49Z</time>
      </trkpt>
      <trkpt lat="37.18775" lon="-2.883">
        <ele>996.3489</ele>
        <time>2021-07-17T17:45:00Z</time>
      </trkpt>
      <trkpt lat="37.1878" lon="-2.88303">
        <ele>993.1207</ele>
        <time>2021-07-17T17:45:22Z</time>
      </trkpt>
      <trkpt lat="37.18786" lon="-2.88275">
        <ele>994.558</ele>
        <time>2021-07-17T17:45:33Z</time>
      </trkpt>
      <trkpt lat="37.18774" lon="-2.88189">
        <ele>990.6977</ele>
        <time>2021-07-17T17:45:44Z</time>
      </trkpt>
      <trkpt lat="37.18746" lon="-2.88107">
        <ele>993.1592</ele>
        <time>2021-07-17T17:45:55Z</time>
      </trkpt>
      <trkpt lat="37.18733" lon="-2.88072">
        <ele>992.7934</ele>
        <time>2021-07-17T17:46:06Z</time>
      </trkpt>
      <trkpt lat="37.18781" lon="-2.88076">
        <ele>994.8188</ele>
        <time>2021-07-17T17:46:17Z</time>
      </trkpt>
      <trkpt lat="37.18888" lon="-2.88042">
        <ele>1002.535</ele>
        <time>2021-07-17T17:46:28Z</time>
      </trkpt>
      <trkpt lat="37.18912" lon="-2.88033">
        <ele>1001.768</ele>
        <time>2021-07-17T17:46:39Z</time>
      </trkpt>
      <trkpt lat="37.1892" lon="-2.88044">
        <ele>1001.801</ele>
        <time>2021-07-17T17:46:54Z</time>
      </trkpt>
      <trkpt lat="37.18954" lon="-2.8816">
        <ele>1000.73</ele>
        <time>2021-07-17T17:47:05Z</time>
      </trkpt>
      <trkpt lat="37.18962" lon="-2.88185">
        <ele>1001.014</ele>
        <time>2021-07-17T17:47:16Z</time>
      </trkpt>
      <trkpt lat="37.18968" lon="-2.88208">
        <ele>1002.765</ele>
        <time>2021-07-17T17:47:27Z</time>
      </trkpt>
      <trkpt lat="37.18942" lon="-2.88087">
        <ele>999.8099</ele>
        <time>2021-07-17T17:47:38Z</time>
      </trkpt>
      <trkpt lat="37.18913" lon="-2.88039">
        <ele>996.5786</ele>
        <time>2021-07-17T17:47:49Z</time>
      </trkpt>
      <trkpt lat="37.18834" lon="-2.88072">
        <ele>992.8981</ele>
        <time>2021-07-17T17:48:00Z</time>
      </trkpt>
      <trkpt lat="37.1876" lon="-2.881">
        <ele>989.6381</ele>
        <time>2021-07-17T17:48:11Z</time>
      </trkpt>
      <trkpt lat="37.18785" lon="-2.88236">
        <ele>990.1081</ele>
        <time>2021-07-17T17:48:22Z</time>
      </trkpt>
      <trkpt lat="37.18789" lon="-2.883">
        <ele>990.1357</ele>
        <time>2021-07-17T17:48:33Z</time>
      </trkpt>
      <trkpt lat="37.18792" lon="-2.88308">
        <ele>992.6204</ele>
        <time>2021-07-17T17:48:47Z</time>
      </trkpt>
      <trkpt lat="37.18807" lon="-2.88418">
        <ele>995.4218</ele>
        <time>2021-07-17T17:48:58Z</time>
      </trkpt>
      <trkpt lat="37.18811" lon="-2.88434">
        <ele>993.4919</ele>
        <time>2021-07-17T17:49:09Z</time>
      </trkpt>
      <trkpt lat="37.18821" lon="-2.88483">
        <ele>993.9991</ele>
        <time>2021-07-17T17:49:20Z</time>
      </trkpt>
      <trkpt lat="37.1882" lon="-2.88487">
        <ele>995.309</ele>
        <time>2021-07-17T17:49:36Z</time>
      </trkpt>
      <trkpt lat="37.18823" lon="-2.88493">
        <ele>993.3865</ele>
        <time>2021-07-17T17:49:54Z</time>
      </trkpt>
      <trkpt lat="37.18828" lon="-2.88511">
        <ele>993.7011</ele>
        <time>2021-07-17T17:50:05Z</time>
      </trkpt>
      <trkpt lat="37.18776" lon="-2.88533">
        <ele>994.3932</ele>
        <time>2021-07-17T17:50:16Z</time>
      </trkpt>
      <trkpt lat="37.18764" lon="-2.88545">
        <ele>996.0034</ele>
        <time>2021-07-17T17:50:27Z</time>
      </trkpt>
      <trkpt lat="37.18771" lon="-2.88559">
        <ele>998.6858</ele>
        <time>2021-07-17T17:50:38Z</time>
      </trkpt>
      <trkpt lat="37.18752" lon="-2.88547">
        <ele>1003.019</ele>
        <time>2021-07-17T17:50:49Z</time>
      </trkpt>
      <trkpt lat="37.18731" lon="-2.88514">
        <ele>1006.082</ele>
        <time>2021-07-17T17:51:00Z</time>
      </trkpt>
      <trkpt lat="37.18735" lon="-2.88528">
        <ele>1005.904</ele>
        <time>2021-07-17T17:51:11Z</time>
      </trkpt>
      <trkpt lat="37.18743" lon="-2.8854">
        <ele>1006.162</ele>
        <time>2021-07-17T17:51:22Z</time>
      </trkpt>
      <trkpt lat="37.18762" lon="-2.88579">
        <ele>1004.928</ele>
        <time>2021-07-17T17:51:33Z</time>
      </trkpt>
      <trkpt lat="37.18775" lon="-2.88605">
        <ele>1004.399</ele>
        <time>2021-07-17T17:51:44Z</time>
      </trkpt>
      <trkpt lat="37.18781" lon="-2.88606">
        <ele>1003.645</ele>
        <time>2021-07-17T17:51:55Z</time>
      </trkpt>
      <trkpt lat="37.18822" lon="-2.88645">
        <ele>1000.825</ele>
        <time>2021-07-17T17:52:06Z</time>
      </trkpt>
      <trkpt lat="37.18822" lon="-2.8865">
        <ele>1001.101</ele>
        <time>2021-07-17T17:52:17Z</time>
      </trkpt>
    </trkseg>
  </trk>
</gpx>